<?xml version="1.0" encoding="UTF-8" standalone="no" ?>
<gpx xmlns="http://www.topografix.com/GPX/1/1" xmlns:xsi="http://www.w3.org/2001/XMLSchema-instance" xsi:schemaLocation="http://www.topografix.com/GPX/1/1 http://www.topografix.com/GPX/1/1/gpx.xsd" version="1.1" creator="VisuGPX - https://www.visugpx.com">
  <metadata>
    <name>Ô Gravel balades en gaillacois</name>
    <desc><![CDATA[Les Hauts de Gaillac, le GR 46, les sentiers balisés, de belles pistes herbeuses, un peu de cailloux, de petites routes, un peu de dénivelé … Liaison jusqu\'au très pittoresque château de Castelnau-de-Lévis.
Un peu plus avant et après entre Saint-Sulpice et Gaillac puis après Marsac pour un retour par la Véloroute de la Vallée du Tarn
]]></desc>
  </metadata>
  <trk>
    <name><![CDATA[Tracé]]></name>
    <trkseg>
      <trkpt lat="43.70382" lon="1.56071">
        <ele>150.935303</ele>
        <time>2026-08-28T16:30:40Z</time>
      </trkpt>
      <trkpt lat="43.70382" lon="1.56075">
        <ele>150.951316</ele>
        <time>2026-08-28T16:30:41Z</time>
      </trkpt>
      <trkpt lat="43.70381" lon="1.56079">
        <ele>150.965784</ele>
        <time>2026-08-28T16:30:42Z</time>
      </trkpt>
      <trkpt lat="43.70382" lon="1.56082">
        <ele>150.978148</ele>
        <time>2026-08-28T16:30:43Z</time>
      </trkpt>
      <trkpt lat="43.70382" lon="1.56084">
        <ele>150.986095</ele>
        <time>2026-08-28T16:30:44Z</time>
      </trkpt>
      <trkpt lat="43.70383" lon="1.56084">
        <ele>150.987466</ele>
        <time>2026-08-28T16:30:45Z</time>
      </trkpt>
      <trkpt lat="43.70383" lon="1.56084">
        <ele>150.989105</ele>
        <time>2026-08-28T16:30:46Z</time>
      </trkpt>
      <trkpt lat="43.70383" lon="1.56088">
        <ele>151.004464</ele>
        <time>2026-08-28T16:30:55Z</time>
      </trkpt>
      <trkpt lat="43.70385" lon="1.56091">
        <ele>151.019143</ele>
        <time>2026-08-28T16:30:56Z</time>
      </trkpt>
      <trkpt lat="43.70386" lon="1.56095">
        <ele>151.034946</ele>
        <time>2026-08-28T16:30:57Z</time>
      </trkpt>
      <trkpt lat="43.70388" lon="1.56099">
        <ele>151.053235</ele>
        <time>2026-08-28T16:30:58Z</time>
      </trkpt>
      <trkpt lat="43.70389" lon="1.56103">
        <ele>151.071946</ele>
        <time>2026-08-28T16:30:59Z</time>
      </trkpt>
      <trkpt lat="43.7039" lon="1.56108">
        <ele>151.092904</ele>
        <time>2026-08-28T16:31:00Z</time>
      </trkpt>
      <trkpt lat="43.70391" lon="1.56113">
        <ele>151.114936</ele>
        <time>2026-08-28T16:31:01Z</time>
      </trkpt>
      <trkpt lat="43.70392" lon="1.56119">
        <ele>151.138068</ele>
        <time>2026-08-28T16:31:02Z</time>
      </trkpt>
      <trkpt lat="43.70392" lon="1.56125">
        <ele>151.162221</ele>
        <time>2026-08-28T16:31:03Z</time>
      </trkpt>
      <trkpt lat="43.70392" lon="1.56131">
        <ele>151.186375</ele>
        <time>2026-08-28T16:31:04Z</time>
      </trkpt>
      <trkpt lat="43.70392" lon="1.56137">
        <ele>151.21173</ele>
        <time>2026-08-28T16:31:05Z</time>
      </trkpt>
      <trkpt lat="43.70393" lon="1.56143">
        <ele>151.236384</ele>
        <time>2026-08-28T16:31:06Z</time>
      </trkpt>
      <trkpt lat="43.70393" lon="1.56149">
        <ele>151.261382</ele>
        <time>2026-08-28T16:31:07Z</time>
      </trkpt>
      <trkpt lat="43.70394" lon="1.56156">
        <ele>151.286503</ele>
        <time>2026-08-28T16:31:08Z</time>
      </trkpt>
      <trkpt lat="43.70395" lon="1.56162">
        <ele>151.311624</ele>
        <time>2026-08-28T16:31:09Z</time>
      </trkpt>
      <trkpt lat="43.70395" lon="1.56168">
        <ele>151.335635</ele>
        <time>2026-08-28T16:31:10Z</time>
      </trkpt>
      <trkpt lat="43.70396" lon="1.56173">
        <ele>151.357896</ele>
        <time>2026-08-28T16:31:11Z</time>
      </trkpt>
      <trkpt lat="43.70396" lon="1.56179">
        <ele>151.379991</ele>
        <time>2026-08-28T16:31:12Z</time>
      </trkpt>
      <trkpt lat="43.70395" lon="1.56184">
        <ele>151.399949</ele>
        <time>2026-08-28T16:31:13Z</time>
      </trkpt>
      <trkpt lat="43.70395" lon="1.56189">
        <ele>151.4207</ele>
        <time>2026-08-28T16:31:14Z</time>
      </trkpt>
      <trkpt lat="43.70393" lon="1.56194">
        <ele>151.441486</ele>
        <time>2026-08-28T16:31:15Z</time>
      </trkpt>
      <trkpt lat="43.70391" lon="1.56198">
        <ele>151.463559</ele>
        <time>2026-08-28T16:31:16Z</time>
      </trkpt>
      <trkpt lat="43.70389" lon="1.56203">
        <ele>151.486045</ele>
        <time>2026-08-28T16:31:17Z</time>
      </trkpt>
      <trkpt lat="43.70387" lon="1.56208">
        <ele>151.508234</ele>
        <time>2026-08-28T16:31:18Z</time>
      </trkpt>
      <trkpt lat="43.70385" lon="1.56212">
        <ele>151.529408</ele>
        <time>2026-08-28T16:31:19Z</time>
      </trkpt>
      <trkpt lat="43.70383" lon="1.56217">
        <ele>151.550889</ele>
        <time>2026-08-28T16:31:20Z</time>
      </trkpt>
      <trkpt lat="43.70381" lon="1.56221">
        <ele>151.572045</ele>
        <time>2026-08-28T16:31:21Z</time>
      </trkpt>
      <trkpt lat="43.70378" lon="1.56225">
        <ele>151.593555</ele>
        <time>2026-08-28T16:31:22Z</time>
      </trkpt>
      <trkpt lat="43.70376" lon="1.5623">
        <ele>151.615457</ele>
        <time>2026-08-28T16:31:23Z</time>
      </trkpt>
      <trkpt lat="43.70374" lon="1.56235">
        <ele>151.637607</ele>
        <time>2026-08-28T16:31:24Z</time>
      </trkpt>
      <trkpt lat="43.70372" lon="1.56239">
        <ele>151.659757</ele>
        <time>2026-08-28T16:31:25Z</time>
      </trkpt>
      <trkpt lat="43.7037" lon="1.56244">
        <ele>151.681563</ele>
        <time>2026-08-28T16:31:26Z</time>
      </trkpt>
      <trkpt lat="43.70368" lon="1.56248">
        <ele>151.703411</ele>
        <time>2026-08-28T16:31:27Z</time>
      </trkpt>
      <trkpt lat="43.70365" lon="1.56252">
        <ele>151.699635</ele>
        <time>2026-08-28T16:31:28Z</time>
      </trkpt>
      <trkpt lat="43.70364" lon="1.56257">
        <ele>151.69398</ele>
        <time>2026-08-28T16:31:29Z</time>
      </trkpt>
      <trkpt lat="43.70362" lon="1.56261">
        <ele>151.687766</ele>
        <time>2026-08-28T16:31:30Z</time>
      </trkpt>
      <trkpt lat="43.7036" lon="1.56266">
        <ele>151.681011</ele>
        <time>2026-08-28T16:31:31Z</time>
      </trkpt>
      <trkpt lat="43.70358" lon="1.56271">
        <ele>151.674339</ele>
        <time>2026-08-28T16:31:32Z</time>
      </trkpt>
      <trkpt lat="43.70355" lon="1.56276">
        <ele>151.667666</ele>
        <time>2026-08-28T16:31:33Z</time>
      </trkpt>
      <trkpt lat="43.70353" lon="1.56281">
        <ele>151.661116</ele>
        <time>2026-08-28T16:31:34Z</time>
      </trkpt>
      <trkpt lat="43.70351" lon="1.56286">
        <ele>151.654362</ele>
        <time>2026-08-28T16:31:35Z</time>
      </trkpt>
      <trkpt lat="43.70349" lon="1.56292">
        <ele>151.64713</ele>
        <time>2026-08-28T16:31:36Z</time>
      </trkpt>
      <trkpt lat="43.70346" lon="1.56296">
        <ele>151.64077</ele>
        <time>2026-08-28T16:31:37Z</time>
      </trkpt>
      <trkpt lat="43.70344" lon="1.56301">
        <ele>151.634556</ele>
        <time>2026-08-28T16:31:38Z</time>
      </trkpt>
      <trkpt lat="43.70342" lon="1.56305">
        <ele>151.628263</ele>
        <time>2026-08-28T16:31:39Z</time>
      </trkpt>
      <trkpt lat="43.70341" lon="1.5631">
        <ele>151.622125</ele>
        <time>2026-08-28T16:31:40Z</time>
      </trkpt>
      <trkpt lat="43.70338" lon="1.56315">
        <ele>151.615664</ele>
        <time>2026-08-28T16:31:41Z</time>
      </trkpt>
      <trkpt lat="43.70336" lon="1.5632">
        <ele>151.608991</ele>
        <time>2026-08-28T16:31:42Z</time>
      </trkpt>
      <trkpt lat="43.70334" lon="1.56325">
        <ele>151.601688</ele>
        <time>2026-08-28T16:31:43Z</time>
      </trkpt>
      <trkpt lat="43.70331" lon="1.56331">
        <ele>151.594112</ele>
        <time>2026-08-28T16:31:44Z</time>
      </trkpt>
      <trkpt lat="43.70328" lon="1.56337">
        <ele>151.585601</ele>
        <time>2026-08-28T16:31:45Z</time>
      </trkpt>
      <trkpt lat="43.70324" lon="1.56343">
        <ele>151.575942</ele>
        <time>2026-08-28T16:31:46Z</time>
      </trkpt>
      <trkpt lat="43.70321" lon="1.56348">
        <ele>151.568075</ele>
        <time>2026-08-28T16:31:47Z</time>
      </trkpt>
      <trkpt lat="43.70318" lon="1.56355">
        <ele>151.558896</ele>
        <time>2026-08-28T16:31:48Z</time>
      </trkpt>
      <trkpt lat="43.70315" lon="1.56362">
        <ele>151.550019</ele>
        <time>2026-08-28T16:31:49Z</time>
      </trkpt>
      <trkpt lat="43.70312" lon="1.5637">
        <ele>151.539509</ele>
        <time>2026-08-28T16:31:50Z</time>
      </trkpt>
      <trkpt lat="43.70309" lon="1.56376">
        <ele>151.53061</ele>
        <time>2026-08-28T16:31:51Z</time>
      </trkpt>
      <trkpt lat="43.70306" lon="1.56382">
        <ele>151.522649</ele>
        <time>2026-08-28T16:31:52Z</time>
      </trkpt>
      <trkpt lat="43.70304" lon="1.56386">
        <ele>151.516535</ele>
        <time>2026-08-28T16:31:53Z</time>
      </trkpt>
      <trkpt lat="43.70303" lon="1.56391">
        <ele>151.510988</ele>
        <time>2026-08-28T16:31:54Z</time>
      </trkpt>
      <trkpt lat="43.70303" lon="1.56395">
        <ele>151.505773</ele>
        <time>2026-08-28T16:31:55Z</time>
      </trkpt>
      <trkpt lat="43.70303" lon="1.564">
        <ele>151.500426</ele>
        <time>2026-08-28T16:31:56Z</time>
      </trkpt>
      <trkpt lat="43.70305" lon="1.56404">
        <ele>151.494622</ele>
        <time>2026-08-28T16:31:57Z</time>
      </trkpt>
      <trkpt lat="43.70307" lon="1.56408">
        <ele>151.488905</ele>
        <time>2026-08-28T16:31:58Z</time>
      </trkpt>
      <trkpt lat="43.70308" lon="1.56413">
        <ele>151.483283</ele>
        <time>2026-08-28T16:31:59Z</time>
      </trkpt>
      <trkpt lat="43.70307" lon="1.56418">
        <ele>151.477824</ele>
        <time>2026-08-28T16:32:00Z</time>
      </trkpt>
      <trkpt lat="43.70305" lon="1.56422">
        <ele>151.471546</ele>
        <time>2026-08-28T16:32:01Z</time>
      </trkpt>
      <trkpt lat="43.70303" lon="1.56427">
        <ele>151.464812</ele>
        <time>2026-08-28T16:32:02Z</time>
      </trkpt>
      <trkpt lat="43.703" lon="1.56432">
        <ele>151.457798</ele>
        <time>2026-08-28T16:32:03Z</time>
      </trkpt>
      <trkpt lat="43.70297" lon="1.56437">
        <ele>151.450502</ele>
        <time>2026-08-28T16:32:04Z</time>
      </trkpt>
      <trkpt lat="43.70295" lon="1.56442">
        <ele>151.443296</ele>
        <time>2026-08-28T16:32:05Z</time>
      </trkpt>
      <trkpt lat="43.70293" lon="1.56447">
        <ele>151.4372</ele>
        <time>2026-08-28T16:32:06Z</time>
      </trkpt>
      <trkpt lat="43.70291" lon="1.5645">
        <ele>151.432244</ele>
        <time>2026-08-28T16:32:07Z</time>
      </trkpt>
      <trkpt lat="43.70289" lon="1.56454">
        <ele>151.427568</ele>
        <time>2026-08-28T16:32:08Z</time>
      </trkpt>
      <trkpt lat="43.70288" lon="1.56457">
        <ele>151.423358</ele>
        <time>2026-08-28T16:32:09Z</time>
      </trkpt>
      <trkpt lat="43.70286" lon="1.5646">
        <ele>151.418463</ele>
        <time>2026-08-28T16:32:10Z</time>
      </trkpt>
      <trkpt lat="43.70286" lon="1.56465">
        <ele>151.496336</ele>
        <time>2026-08-28T16:32:11Z</time>
      </trkpt>
      <trkpt lat="43.70288" lon="1.5647">
        <ele>151.588041</ele>
        <time>2026-08-28T16:32:12Z</time>
      </trkpt>
      <trkpt lat="43.70291" lon="1.56474">
        <ele>151.67887</ele>
        <time>2026-08-28T16:32:13Z</time>
      </trkpt>
      <trkpt lat="43.70294" lon="1.56477">
        <ele>151.76244</ele>
        <time>2026-08-28T16:32:14Z</time>
      </trkpt>
      <trkpt lat="43.70298" lon="1.56479">
        <ele>151.854919</ele>
        <time>2026-08-28T16:32:15Z</time>
      </trkpt>
      <trkpt lat="43.70301" lon="1.56482">
        <ele>151.949449</ele>
        <time>2026-08-28T16:32:16Z</time>
      </trkpt>
      <trkpt lat="43.70305" lon="1.56485">
        <ele>152.044863</ele>
        <time>2026-08-28T16:32:17Z</time>
      </trkpt>
      <trkpt lat="43.70308" lon="1.56488">
        <ele>152.138529</ele>
        <time>2026-08-28T16:32:18Z</time>
      </trkpt>
      <trkpt lat="43.70312" lon="1.56491">
        <ele>152.233066</ele>
        <time>2026-08-28T16:32:19Z</time>
      </trkpt>
      <trkpt lat="43.70315" lon="1.56493">
        <ele>152.323422</ele>
        <time>2026-08-28T16:32:20Z</time>
      </trkpt>
      <trkpt lat="43.70319" lon="1.56496">
        <ele>152.41824</ele>
        <time>2026-08-28T16:32:21Z</time>
      </trkpt>
      <trkpt lat="43.70322" lon="1.56498">
        <ele>152.510244</ele>
        <time>2026-08-28T16:32:22Z</time>
      </trkpt>
      <trkpt lat="43.70326" lon="1.56501">
        <ele>152.60391</ele>
        <time>2026-08-28T16:32:23Z</time>
      </trkpt>
      <trkpt lat="43.70329" lon="1.56504">
        <ele>152.691099</ele>
        <time>2026-08-28T16:32:24Z</time>
      </trkpt>
      <trkpt lat="43.70332" lon="1.56507">
        <ele>152.781752</ele>
        <time>2026-08-28T16:32:25Z</time>
      </trkpt>
      <trkpt lat="43.70336" lon="1.56511">
        <ele>152.876219</ele>
        <time>2026-08-28T16:32:26Z</time>
      </trkpt>
      <trkpt lat="43.70339" lon="1.56514">
        <ele>152.972538</ele>
        <time>2026-08-28T16:32:27Z</time>
      </trkpt>
      <trkpt lat="43.70342" lon="1.56518">
        <ele>153.070062</ele>
        <time>2026-08-28T16:32:28Z</time>
      </trkpt>
      <trkpt lat="43.70346" lon="1.56521">
        <ele>153.165813</ele>
        <time>2026-08-28T16:32:29Z</time>
      </trkpt>
      <trkpt lat="43.70349" lon="1.56525">
        <ele>153.258738</ele>
        <time>2026-08-28T16:32:30Z</time>
      </trkpt>
      <trkpt lat="43.70352" lon="1.56528">
        <ele>153.347096</ele>
        <time>2026-08-28T16:32:31Z</time>
      </trkpt>
      <trkpt lat="43.70354" lon="1.56532">
        <ele>153.429433</ele>
        <time>2026-08-28T16:32:32Z</time>
      </trkpt>
      <trkpt lat="43.70357" lon="1.56535">
        <ele>153.513575</ele>
        <time>2026-08-28T16:32:33Z</time>
      </trkpt>
      <trkpt lat="43.7036" lon="1.56538">
        <ele>153.596959</ele>
        <time>2026-08-28T16:32:34Z</time>
      </trkpt>
      <trkpt lat="43.70363" lon="1.56541">
        <ele>153.679101</ele>
        <time>2026-08-28T16:32:35Z</time>
      </trkpt>
      <trkpt lat="43.70365" lon="1.56545">
        <ele>153.761818</ele>
        <time>2026-08-28T16:32:36Z</time>
      </trkpt>
      <trkpt lat="43.70368" lon="1.56548">
        <ele>153.84803</ele>
        <time>2026-08-28T16:32:37Z</time>
      </trkpt>
      <trkpt lat="43.70371" lon="1.56551">
        <ele>153.933567</ele>
        <time>2026-08-28T16:32:38Z</time>
      </trkpt>
      <trkpt lat="43.70374" lon="1.56555">
        <ele>154.015228</ele>
        <time>2026-08-28T16:32:39Z</time>
      </trkpt>
      <trkpt lat="43.70376" lon="1.56558">
        <ele>154.098078</ele>
        <time>2026-08-28T16:32:40Z</time>
      </trkpt>
      <trkpt lat="43.70379" lon="1.56562">
        <ele>154.177412</ele>
        <time>2026-08-28T16:32:41Z</time>
      </trkpt>
      <trkpt lat="43.70381" lon="1.56565">
        <ele>154.255102</ele>
        <time>2026-08-28T16:32:42Z</time>
      </trkpt>
      <trkpt lat="43.70383" lon="1.56568">
        <ele>154.332078</ele>
        <time>2026-08-28T16:32:43Z</time>
      </trkpt>
      <trkpt lat="43.70385" lon="1.56572">
        <ele>154.411463</ele>
        <time>2026-08-28T16:32:44Z</time>
      </trkpt>
      <trkpt lat="43.70387" lon="1.56576">
        <ele>154.490899</ele>
        <time>2026-08-28T16:32:45Z</time>
      </trkpt>
      <trkpt lat="43.70389" lon="1.56581">
        <ele>154.57224</ele>
        <time>2026-08-28T16:32:46Z</time>
      </trkpt>
      <trkpt lat="43.7039" lon="1.56585">
        <ele>154.657509</ele>
        <time>2026-08-28T16:32:47Z</time>
      </trkpt>
      <trkpt lat="43.70391" lon="1.5659">
        <ele>154.738204</ele>
        <time>2026-08-28T16:32:48Z</time>
      </trkpt>
      <trkpt lat="43.70392" lon="1.56595">
        <ele>154.822113</ele>
        <time>2026-08-28T16:32:49Z</time>
      </trkpt>
      <trkpt lat="43.70393" lon="1.56599">
        <ele>154.894796</ele>
        <time>2026-08-28T16:32:50Z</time>
      </trkpt>
      <trkpt lat="43.70394" lon="1.56604">
        <ele>154.983033</ele>
        <time>2026-08-28T16:32:51Z</time>
      </trkpt>
      <trkpt lat="43.70395" lon="1.5661">
        <ele>155.073627</ele>
        <time>2026-08-28T16:32:52Z</time>
      </trkpt>
      <trkpt lat="43.70397" lon="1.56614">
        <ele>155.160439</ele>
        <time>2026-08-28T16:32:53Z</time>
      </trkpt>
      <trkpt lat="43.70399" lon="1.56618">
        <ele>155.248201</ele>
        <time>2026-08-28T16:32:54Z</time>
      </trkpt>
      <trkpt lat="43.70403" lon="1.5662">
        <ele>155.337392</ele>
        <time>2026-08-28T16:32:55Z</time>
      </trkpt>
      <trkpt lat="43.70407" lon="1.56623">
        <ele>155.431929</ele>
        <time>2026-08-28T16:32:56Z</time>
      </trkpt>
      <trkpt lat="43.70411" lon="1.56625">
        <ele>155.534458</ele>
        <time>2026-08-28T16:32:57Z</time>
      </trkpt>
      <trkpt lat="43.70415" lon="1.56628">
        <ele>155.472452</ele>
        <time>2026-08-28T16:32:58Z</time>
      </trkpt>
      <trkpt lat="43.70419" lon="1.56632">
        <ele>155.382228</ele>
        <time>2026-08-28T16:32:59Z</time>
      </trkpt>
      <trkpt lat="43.70422" lon="1.56637">
        <ele>155.293894</ele>
        <time>2026-08-28T16:33:00Z</time>
      </trkpt>
      <trkpt lat="43.70426" lon="1.56642">
        <ele>155.194348</ele>
        <time>2026-08-28T16:33:01Z</time>
      </trkpt>
      <trkpt lat="43.7043" lon="1.56648">
        <ele>155.088461</ele>
        <time>2026-08-28T16:33:02Z</time>
      </trkpt>
      <trkpt lat="43.70434" lon="1.56653">
        <ele>154.979012</ele>
        <time>2026-08-28T16:33:03Z</time>
      </trkpt>
      <trkpt lat="43.70439" lon="1.56659">
        <ele>154.868994</ele>
        <time>2026-08-28T16:33:04Z</time>
      </trkpt>
      <trkpt lat="43.70444" lon="1.56664">
        <ele>154.754034</ele>
        <time>2026-08-28T16:33:05Z</time>
      </trkpt>
      <trkpt lat="43.7045" lon="1.56669">
        <ele>154.62782</ele>
        <time>2026-08-28T16:33:06Z</time>
      </trkpt>
      <trkpt lat="43.70456" lon="1.56675">
        <ele>154.495543</ele>
        <time>2026-08-28T16:33:07Z</time>
      </trkpt>
      <trkpt lat="43.70462" lon="1.5668">
        <ele>154.36173</ele>
        <time>2026-08-28T16:33:08Z</time>
      </trkpt>
      <trkpt lat="43.70468" lon="1.56686">
        <ele>154.22411</ele>
        <time>2026-08-28T16:33:09Z</time>
      </trkpt>
      <trkpt lat="43.70474" lon="1.56692">
        <ele>154.085647</ele>
        <time>2026-08-28T16:33:10Z</time>
      </trkpt>
      <trkpt lat="43.70481" lon="1.56697">
        <ele>153.944214</ele>
        <time>2026-08-28T16:33:11Z</time>
      </trkpt>
      <trkpt lat="43.70488" lon="1.56703">
        <ele>153.792704</ele>
        <time>2026-08-28T16:33:12Z</time>
      </trkpt>
      <trkpt lat="43.70496" lon="1.56708">
        <ele>153.637931</ele>
        <time>2026-08-28T16:33:13Z</time>
      </trkpt>
      <trkpt lat="43.70503" lon="1.56713">
        <ele>153.48161</ele>
        <time>2026-08-28T16:33:14Z</time>
      </trkpt>
      <trkpt lat="43.70511" lon="1.56718">
        <ele>153.323042</ele>
        <time>2026-08-28T16:33:15Z</time>
      </trkpt>
      <trkpt lat="43.70519" lon="1.56723">
        <ele>153.167807</ele>
        <time>2026-08-28T16:33:16Z</time>
      </trkpt>
      <trkpt lat="43.70527" lon="1.56727">
        <ele>153.013207</ele>
        <time>2026-08-28T16:33:17Z</time>
      </trkpt>
      <trkpt lat="43.70535" lon="1.5673">
        <ele>152.860882</ele>
        <time>2026-08-28T16:33:18Z</time>
      </trkpt>
      <trkpt lat="43.70543" lon="1.56733">
        <ele>152.70388</ele>
        <time>2026-08-28T16:33:19Z</time>
      </trkpt>
      <trkpt lat="43.70551" lon="1.56735">
        <ele>152.551897</ele>
        <time>2026-08-28T16:33:20Z</time>
      </trkpt>
      <trkpt lat="43.70559" lon="1.56737">
        <ele>152.399103</ele>
        <time>2026-08-28T16:33:21Z</time>
      </trkpt>
      <trkpt lat="43.70567" lon="1.56739">
        <ele>152.24909</ele>
        <time>2026-08-28T16:33:22Z</time>
      </trkpt>
      <trkpt lat="43.70575" lon="1.5674">
        <ele>152.116972</ele>
        <time>2026-08-28T16:33:23Z</time>
      </trkpt>
      <trkpt lat="43.70583" lon="1.56741">
        <ele>151.989261</ele>
        <time>2026-08-28T16:33:24Z</time>
      </trkpt>
      <trkpt lat="43.7059" lon="1.5674">
        <ele>151.864928</ele>
        <time>2026-08-28T16:33:25Z</time>
      </trkpt>
      <trkpt lat="43.70598" lon="1.56739">
        <ele>151.735483</ele>
        <time>2026-08-28T16:33:26Z</time>
      </trkpt>
      <trkpt lat="43.70606" lon="1.56738">
        <ele>151.607369</ele>
        <time>2026-08-28T16:33:27Z</time>
      </trkpt>
      <trkpt lat="43.70613" lon="1.56738">
        <ele>151.484875</ele>
        <time>2026-08-28T16:33:28Z</time>
      </trkpt>
      <trkpt lat="43.70621" lon="1.56738">
        <ele>151.362404</ele>
        <time>2026-08-28T16:33:29Z</time>
      </trkpt>
      <trkpt lat="43.70628" lon="1.56738">
        <ele>151.239839</ele>
        <time>2026-08-28T16:33:30Z</time>
      </trkpt>
      <trkpt lat="43.70635" lon="1.56739">
        <ele>151.118309</ele>
        <time>2026-08-28T16:33:31Z</time>
      </trkpt>
      <trkpt lat="43.70643" lon="1.56741">
        <ele>150.990491</ele>
        <time>2026-08-28T16:33:32Z</time>
      </trkpt>
      <trkpt lat="43.70651" lon="1.56743">
        <ele>150.863076</ele>
        <time>2026-08-28T16:33:33Z</time>
      </trkpt>
      <trkpt lat="43.70657" lon="1.56745">
        <ele>150.750719</ele>
        <time>2026-08-28T16:33:34Z</time>
      </trkpt>
      <trkpt lat="43.70664" lon="1.56747">
        <ele>150.639148</ele>
        <time>2026-08-28T16:33:35Z</time>
      </trkpt>
      <trkpt lat="43.7067" lon="1.5675">
        <ele>150.528754</ele>
        <time>2026-08-28T16:33:36Z</time>
      </trkpt>
      <trkpt lat="43.70676" lon="1.56752">
        <ele>150.420814</ele>
        <time>2026-08-28T16:33:37Z</time>
      </trkpt>
      <trkpt lat="43.70683" lon="1.56756">
        <ele>150.311706</ele>
        <time>2026-08-28T16:33:38Z</time>
      </trkpt>
      <trkpt lat="43.70689" lon="1.56759">
        <ele>150.206118</ele>
        <time>2026-08-28T16:33:39Z</time>
      </trkpt>
      <trkpt lat="43.70695" lon="1.56762">
        <ele>150.101666</ele>
        <time>2026-08-28T16:33:40Z</time>
      </trkpt>
      <trkpt lat="43.707" lon="1.56765">
        <ele>150.000733</ele>
        <time>2026-08-28T16:33:41Z</time>
      </trkpt>
      <trkpt lat="43.70706" lon="1.56768">
        <ele>149.898252</ele>
        <time>2026-08-28T16:33:42Z</time>
      </trkpt>
      <trkpt lat="43.70712" lon="1.56771">
        <ele>149.794219</ele>
        <time>2026-08-28T16:33:43Z</time>
      </trkpt>
      <trkpt lat="43.70718" lon="1.56773">
        <ele>149.690851</ele>
        <time>2026-08-28T16:33:44Z</time>
      </trkpt>
      <trkpt lat="43.70724" lon="1.56776">
        <ele>149.589183</ele>
        <time>2026-08-28T16:33:45Z</time>
      </trkpt>
      <trkpt lat="43.70729" lon="1.56779">
        <ele>149.489076</ele>
        <time>2026-08-28T16:33:46Z</time>
      </trkpt>
      <trkpt lat="43.70735" lon="1.56782">
        <ele>149.38925</ele>
        <time>2026-08-28T16:33:47Z</time>
      </trkpt>
      <trkpt lat="43.70741" lon="1.56785">
        <ele>149.286986</ele>
        <time>2026-08-28T16:33:48Z</time>
      </trkpt>
      <trkpt lat="43.70746" lon="1.56789">
        <ele>149.317358</ele>
        <time>2026-08-28T16:33:49Z</time>
      </trkpt>
      <trkpt lat="43.70752" lon="1.56793">
        <ele>149.38534</ele>
        <time>2026-08-28T16:33:50Z</time>
      </trkpt>
      <trkpt lat="43.70757" lon="1.56797">
        <ele>149.450246</ele>
        <time>2026-08-28T16:33:51Z</time>
      </trkpt>
      <trkpt lat="43.70762" lon="1.56802">
        <ele>149.513811</ele>
        <time>2026-08-28T16:33:52Z</time>
      </trkpt>
      <trkpt lat="43.70766" lon="1.56807">
        <ele>149.575642</ele>
        <time>2026-08-28T16:33:53Z</time>
      </trkpt>
      <trkpt lat="43.7077" lon="1.56812">
        <ele>149.638308</ele>
        <time>2026-08-28T16:33:54Z</time>
      </trkpt>
      <trkpt lat="43.70775" lon="1.56817">
        <ele>149.702032</ele>
        <time>2026-08-28T16:33:55Z</time>
      </trkpt>
      <trkpt lat="43.70779" lon="1.56823">
        <ele>149.766834</ele>
        <time>2026-08-28T16:33:56Z</time>
      </trkpt>
      <trkpt lat="43.70783" lon="1.56829">
        <ele>149.827434</ele>
        <time>2026-08-28T16:33:57Z</time>
      </trkpt>
      <trkpt lat="43.70787" lon="1.56834">
        <ele>149.888033</ele>
        <time>2026-08-28T16:33:58Z</time>
      </trkpt>
      <trkpt lat="43.70791" lon="1.5684">
        <ele>149.949766</ele>
        <time>2026-08-28T16:33:59Z</time>
      </trkpt>
      <trkpt lat="43.70795" lon="1.56845">
        <ele>150.013015</ele>
        <time>2026-08-28T16:34:00Z</time>
      </trkpt>
      <trkpt lat="43.70799" lon="1.56851">
        <ele>150.074873</ele>
        <time>2026-08-28T16:34:01Z</time>
      </trkpt>
      <trkpt lat="43.70803" lon="1.56855">
        <ele>150.133162</ele>
        <time>2026-08-28T16:34:02Z</time>
      </trkpt>
      <trkpt lat="43.70808" lon="1.5686">
        <ele>150.19133</ele>
        <time>2026-08-28T16:34:03Z</time>
      </trkpt>
      <trkpt lat="43.70812" lon="1.56864">
        <ele>150.247314</ele>
        <time>2026-08-28T16:34:04Z</time>
      </trkpt>
      <trkpt lat="43.70816" lon="1.56868">
        <ele>150.303263</ele>
        <time>2026-08-28T16:34:05Z</time>
      </trkpt>
      <trkpt lat="43.7082" lon="1.56872">
        <ele>150.359211</ele>
        <time>2026-08-28T16:34:06Z</time>
      </trkpt>
      <trkpt lat="43.70825" lon="1.56876">
        <ele>150.417829</ele>
        <time>2026-08-28T16:34:07Z</time>
      </trkpt>
      <trkpt lat="43.70829" lon="1.5688">
        <ele>150.474212</ele>
        <time>2026-08-28T16:34:08Z</time>
      </trkpt>
      <trkpt lat="43.70834" lon="1.56884">
        <ele>150.531579</ele>
        <time>2026-08-28T16:34:09Z</time>
      </trkpt>
      <trkpt lat="43.70838" lon="1.56888">
        <ele>150.588434</ele>
        <time>2026-08-28T16:34:10Z</time>
      </trkpt>
      <trkpt lat="43.70842" lon="1.56892">
        <ele>150.644824</ele>
        <time>2026-08-28T16:34:11Z</time>
      </trkpt>
      <trkpt lat="43.70846" lon="1.56897">
        <ele>150.7039</ele>
        <time>2026-08-28T16:34:12Z</time>
      </trkpt>
      <trkpt lat="43.7085" lon="1.56901">
        <ele>150.759506</ele>
        <time>2026-08-28T16:34:13Z</time>
      </trkpt>
      <trkpt lat="43.70855" lon="1.56905">
        <ele>150.816361</ele>
        <time>2026-08-28T16:34:14Z</time>
      </trkpt>
      <trkpt lat="43.70859" lon="1.5691">
        <ele>150.872751</ele>
        <time>2026-08-28T16:34:15Z</time>
      </trkpt>
      <trkpt lat="43.70863" lon="1.56913">
        <ele>150.928272</ele>
        <time>2026-08-28T16:34:16Z</time>
      </trkpt>
      <trkpt lat="43.70867" lon="1.56917">
        <ele>150.985098</ele>
        <time>2026-08-28T16:34:17Z</time>
      </trkpt>
      <trkpt lat="43.70872" lon="1.56921">
        <ele>151.041046</ele>
        <time>2026-08-28T16:34:18Z</time>
      </trkpt>
      <trkpt lat="43.70876" lon="1.56925">
        <ele>151.095226</ele>
        <time>2026-08-28T16:34:19Z</time>
      </trkpt>
      <trkpt lat="43.7088" lon="1.56928">
        <ele>151.150065</ele>
        <time>2026-08-28T16:34:20Z</time>
      </trkpt>
      <trkpt lat="43.70885" lon="1.56932">
        <ele>151.206815</ele>
        <time>2026-08-28T16:34:21Z</time>
      </trkpt>
      <trkpt lat="43.70889" lon="1.56935">
        <ele>151.241992</ele>
        <time>2026-08-28T16:34:22Z</time>
      </trkpt>
      <trkpt lat="43.70894" lon="1.56939">
        <ele>151.268926</ele>
        <time>2026-08-28T16:34:23Z</time>
      </trkpt>
      <trkpt lat="43.70898" lon="1.56942">
        <ele>151.294942</ele>
        <time>2026-08-28T16:34:24Z</time>
      </trkpt>
      <trkpt lat="43.70902" lon="1.56946">
        <ele>151.320734</ele>
        <time>2026-08-28T16:34:25Z</time>
      </trkpt>
      <trkpt lat="43.70906" lon="1.56949">
        <ele>151.343714</ele>
        <time>2026-08-28T16:34:26Z</time>
      </trkpt>
      <trkpt lat="43.70909" lon="1.56953">
        <ele>151.365857</ele>
        <time>2026-08-28T16:34:27Z</time>
      </trkpt>
      <trkpt lat="43.70913" lon="1.56956">
        <ele>151.388391</ele>
        <time>2026-08-28T16:34:28Z</time>
      </trkpt>
      <trkpt lat="43.70916" lon="1.5696">
        <ele>151.4103</ele>
        <time>2026-08-28T16:34:29Z</time>
      </trkpt>
      <trkpt lat="43.7092" lon="1.56963">
        <ele>151.433916</ele>
        <time>2026-08-28T16:34:30Z</time>
      </trkpt>
      <trkpt lat="43.70923" lon="1.56967">
        <ele>151.456246</ele>
        <time>2026-08-28T16:34:31Z</time>
      </trkpt>
      <trkpt lat="43.70926" lon="1.56971">
        <ele>151.480909</ele>
        <time>2026-08-28T16:34:32Z</time>
      </trkpt>
      <trkpt lat="43.7093" lon="1.56976">
        <ele>151.50606</ele>
        <time>2026-08-28T16:34:33Z</time>
      </trkpt>
      <trkpt lat="43.70933" lon="1.56981">
        <ele>151.532991</ele>
        <time>2026-08-28T16:34:34Z</time>
      </trkpt>
      <trkpt lat="43.70936" lon="1.56987">
        <ele>151.560159</ele>
        <time>2026-08-28T16:34:35Z</time>
      </trkpt>
      <trkpt lat="43.70939" lon="1.56993">
        <ele>151.586422</ele>
        <time>2026-08-28T16:34:36Z</time>
      </trkpt>
      <trkpt lat="43.70942" lon="1.56998">
        <ele>151.612985</ele>
        <time>2026-08-28T16:34:37Z</time>
      </trkpt>
      <trkpt lat="43.70946" lon="1.57004">
        <ele>151.640208</ele>
        <time>2026-08-28T16:34:38Z</time>
      </trkpt>
      <trkpt lat="43.70949" lon="1.5701">
        <ele>151.668922</ele>
        <time>2026-08-28T16:34:39Z</time>
      </trkpt>
      <trkpt lat="43.70952" lon="1.57015">
        <ele>151.697117</ele>
        <time>2026-08-28T16:34:40Z</time>
      </trkpt>
      <trkpt lat="43.70956" lon="1.5702">
        <ele>151.72454</ele>
        <time>2026-08-28T16:34:41Z</time>
      </trkpt>
      <trkpt lat="43.70959" lon="1.57025">
        <ele>151.751324</ele>
        <time>2026-08-28T16:34:42Z</time>
      </trkpt>
      <trkpt lat="43.70963" lon="1.57031">
        <ele>151.779114</ele>
        <time>2026-08-28T16:34:43Z</time>
      </trkpt>
      <trkpt lat="43.70967" lon="1.57036">
        <ele>151.806633</ele>
        <time>2026-08-28T16:34:44Z</time>
      </trkpt>
      <trkpt lat="43.70971" lon="1.57041">
        <ele>151.834423</ele>
        <time>2026-08-28T16:34:45Z</time>
      </trkpt>
      <trkpt lat="43.70974" lon="1.57046">
        <ele>151.861794</ele>
        <time>2026-08-28T16:34:46Z</time>
      </trkpt>
      <trkpt lat="43.70978" lon="1.57051">
        <ele>151.889425</ele>
        <time>2026-08-28T16:34:47Z</time>
      </trkpt>
      <trkpt lat="43.70982" lon="1.57056">
        <ele>151.917183</ele>
        <time>2026-08-28T16:34:48Z</time>
      </trkpt>
      <trkpt lat="43.70986" lon="1.5706">
        <ele>151.944835</ele>
        <time>2026-08-28T16:34:49Z</time>
      </trkpt>
      <trkpt lat="43.7099" lon="1.57065">
        <ele>151.973239</ele>
        <time>2026-08-28T16:34:50Z</time>
      </trkpt>
      <trkpt lat="43.70994" lon="1.57071">
        <ele>152.001778</ele>
        <time>2026-08-28T16:34:51Z</time>
      </trkpt>
      <trkpt lat="43.70998" lon="1.57076">
        <ele>152.030726</ele>
        <time>2026-08-28T16:34:52Z</time>
      </trkpt>
      <trkpt lat="43.71002" lon="1.57081">
        <ele>152.05913</ele>
        <time>2026-08-28T16:34:53Z</time>
      </trkpt>
      <trkpt lat="43.71006" lon="1.57085">
        <ele>152.086242</ele>
        <time>2026-08-28T16:34:54Z</time>
      </trkpt>
      <trkpt lat="43.7101" lon="1.5709">
        <ele>152.112968</ele>
        <time>2026-08-28T16:34:55Z</time>
      </trkpt>
      <trkpt lat="43.71013" lon="1.57095">
        <ele>152.140599</ele>
        <time>2026-08-28T16:34:56Z</time>
      </trkpt>
      <trkpt lat="43.71017" lon="1.571">
        <ele>152.168357</ele>
        <time>2026-08-28T16:34:57Z</time>
      </trkpt>
      <trkpt lat="43.71021" lon="1.57105">
        <ele>152.221446</ele>
        <time>2026-08-28T16:34:58Z</time>
      </trkpt>
      <trkpt lat="43.71025" lon="1.5711">
        <ele>152.278826</ele>
        <time>2026-08-28T16:34:59Z</time>
      </trkpt>
      <trkpt lat="43.71029" lon="1.57115">
        <ele>152.334942</ele>
        <time>2026-08-28T16:35:00Z</time>
      </trkpt>
      <trkpt lat="43.71033" lon="1.5712">
        <ele>152.389042</ele>
        <time>2026-08-28T16:35:01Z</time>
      </trkpt>
      <trkpt lat="43.71037" lon="1.57125">
        <ele>152.443451</ele>
        <time>2026-08-28T16:35:02Z</time>
      </trkpt>
      <trkpt lat="43.71041" lon="1.5713">
        <ele>152.498068</ele>
        <time>2026-08-28T16:35:03Z</time>
      </trkpt>
      <trkpt lat="43.71045" lon="1.57136">
        <ele>152.553206</ele>
        <time>2026-08-28T16:35:04Z</time>
      </trkpt>
      <trkpt lat="43.71048" lon="1.57141">
        <ele>152.607554</ele>
        <time>2026-08-28T16:35:05Z</time>
      </trkpt>
      <trkpt lat="43.71052" lon="1.57146">
        <ele>152.662916</ele>
        <time>2026-08-28T16:35:06Z</time>
      </trkpt>
      <trkpt lat="43.71056" lon="1.57151">
        <ele>152.719113</ele>
        <time>2026-08-28T16:35:07Z</time>
      </trkpt>
      <trkpt lat="43.7106" lon="1.57156">
        <ele>152.774778</ele>
        <time>2026-08-28T16:35:08Z</time>
      </trkpt>
      <trkpt lat="43.71064" lon="1.57162">
        <ele>152.829556</ele>
        <time>2026-08-28T16:35:09Z</time>
      </trkpt>
      <trkpt lat="43.71067" lon="1.57167">
        <ele>152.883144</ele>
        <time>2026-08-28T16:35:10Z</time>
      </trkpt>
      <trkpt lat="43.71071" lon="1.57172">
        <ele>152.935983</ele>
        <time>2026-08-28T16:35:11Z</time>
      </trkpt>
      <trkpt lat="43.71075" lon="1.57176">
        <ele>152.989339</ele>
        <time>2026-08-28T16:35:12Z</time>
      </trkpt>
      <trkpt lat="43.71079" lon="1.57181">
        <ele>153.044455</ele>
        <time>2026-08-28T16:35:13Z</time>
      </trkpt>
      <trkpt lat="43.71083" lon="1.57186">
        <ele>153.099571</ele>
        <time>2026-08-28T16:35:14Z</time>
      </trkpt>
      <trkpt lat="43.71087" lon="1.57191">
        <ele>153.15342</ele>
        <time>2026-08-28T16:35:15Z</time>
      </trkpt>
      <trkpt lat="43.71091" lon="1.57196">
        <ele>153.210299</ele>
        <time>2026-08-28T16:35:16Z</time>
      </trkpt>
      <trkpt lat="43.71095" lon="1.57201">
        <ele>153.266175</ele>
        <time>2026-08-28T16:35:17Z</time>
      </trkpt>
      <trkpt lat="43.71099" lon="1.57206">
        <ele>153.321291</ele>
        <time>2026-08-28T16:35:18Z</time>
      </trkpt>
      <trkpt lat="43.71103" lon="1.57211">
        <ele>153.374129</ele>
        <time>2026-08-28T16:35:19Z</time>
      </trkpt>
      <trkpt lat="43.71107" lon="1.57216">
        <ele>153.429245</ele>
        <time>2026-08-28T16:35:20Z</time>
      </trkpt>
      <trkpt lat="43.7111" lon="1.57221">
        <ele>153.482833</ele>
        <time>2026-08-28T16:35:21Z</time>
      </trkpt>
      <trkpt lat="43.71114" lon="1.57226">
        <ele>153.534931</ele>
        <time>2026-08-28T16:35:22Z</time>
      </trkpt>
      <trkpt lat="43.71118" lon="1.5723">
        <ele>153.587801</ele>
        <time>2026-08-28T16:35:23Z</time>
      </trkpt>
      <trkpt lat="43.71122" lon="1.57235">
        <ele>153.639715</ele>
        <time>2026-08-28T16:35:24Z</time>
      </trkpt>
      <trkpt lat="43.71125" lon="1.57239">
        <ele>153.690537</ele>
        <time>2026-08-28T16:35:25Z</time>
      </trkpt>
      <trkpt lat="43.71129" lon="1.57244">
        <ele>153.741656</ele>
        <time>2026-08-28T16:35:26Z</time>
      </trkpt>
      <trkpt lat="43.71133" lon="1.57248">
        <ele>153.795505</ele>
        <time>2026-08-28T16:35:27Z</time>
      </trkpt>
      <trkpt lat="43.71137" lon="1.57253">
        <ele>153.849094</ele>
        <time>2026-08-28T16:35:28Z</time>
      </trkpt>
      <trkpt lat="43.71141" lon="1.57258">
        <ele>153.906473</ele>
        <time>2026-08-28T16:35:29Z</time>
      </trkpt>
      <trkpt lat="43.71145" lon="1.57264">
        <ele>153.964359</ele>
        <time>2026-08-28T16:35:30Z</time>
      </trkpt>
      <trkpt lat="43.71149" lon="1.57269">
        <ele>154.020024</ele>
        <time>2026-08-28T16:35:31Z</time>
      </trkpt>
      <trkpt lat="43.71153" lon="1.57274">
        <ele>154.091082</ele>
        <time>2026-08-28T16:35:32Z</time>
      </trkpt>
      <trkpt lat="43.71157" lon="1.5728">
        <ele>154.161997</ele>
        <time>2026-08-28T16:35:33Z</time>
      </trkpt>
      <trkpt lat="43.71161" lon="1.57285">
        <ele>154.234512</ele>
        <time>2026-08-28T16:35:34Z</time>
      </trkpt>
      <trkpt lat="43.71165" lon="1.5729">
        <ele>154.303565</ele>
        <time>2026-08-28T16:35:35Z</time>
      </trkpt>
      <trkpt lat="43.71168" lon="1.57295">
        <ele>154.371948</ele>
        <time>2026-08-28T16:35:36Z</time>
      </trkpt>
      <trkpt lat="43.71172" lon="1.573">
        <ele>154.438735</ele>
        <time>2026-08-28T16:35:37Z</time>
      </trkpt>
      <trkpt lat="43.71175" lon="1.57305">
        <ele>154.503929</ele>
        <time>2026-08-28T16:35:38Z</time>
      </trkpt>
      <trkpt lat="43.71179" lon="1.5731">
        <ele>154.572589</ele>
        <time>2026-08-28T16:35:39Z</time>
      </trkpt>
      <trkpt lat="43.71183" lon="1.57315">
        <ele>154.64211</ele>
        <time>2026-08-28T16:35:40Z</time>
      </trkpt>
      <trkpt lat="43.71186" lon="1.57321">
        <ele>154.710938</ele>
        <time>2026-08-28T16:35:41Z</time>
      </trkpt>
      <trkpt lat="43.7119" lon="1.57326">
        <ele>154.779578</ele>
        <time>2026-08-28T16:35:42Z</time>
      </trkpt>
      <trkpt lat="43.71193" lon="1.57332">
        <ele>154.848217</ele>
        <time>2026-08-28T16:35:43Z</time>
      </trkpt>
      <trkpt lat="43.71197" lon="1.57337">
        <ele>154.917045</ele>
        <time>2026-08-28T16:35:44Z</time>
      </trkpt>
      <trkpt lat="43.71201" lon="1.57342">
        <ele>154.986566</ele>
        <time>2026-08-28T16:35:45Z</time>
      </trkpt>
      <trkpt lat="43.71204" lon="1.57348">
        <ele>155.054338</ele>
        <time>2026-08-28T16:35:46Z</time>
      </trkpt>
      <trkpt lat="43.71207" lon="1.57353">
        <ele>155.120539</ele>
        <time>2026-08-28T16:35:47Z</time>
      </trkpt>
      <trkpt lat="43.71211" lon="1.57358">
        <ele>155.186024</ele>
        <time>2026-08-28T16:35:48Z</time>
      </trkpt>
      <trkpt lat="43.71214" lon="1.57363">
        <ele>155.253267</ele>
        <time>2026-08-28T16:35:49Z</time>
      </trkpt>
      <trkpt lat="43.71217" lon="1.57369">
        <ele>155.319349</ele>
        <time>2026-08-28T16:35:50Z</time>
      </trkpt>
      <trkpt lat="43.7122" lon="1.57374">
        <ele>155.386166</ele>
        <time>2026-08-28T16:35:51Z</time>
      </trkpt>
      <trkpt lat="43.71224" lon="1.5738">
        <ele>155.452366</ele>
        <time>2026-08-28T16:35:52Z</time>
      </trkpt>
      <trkpt lat="43.71227" lon="1.57385">
        <ele>155.518024</ele>
        <time>2026-08-28T16:35:53Z</time>
      </trkpt>
      <trkpt lat="43.71231" lon="1.5739">
        <ele>155.584576</ele>
        <time>2026-08-28T16:35:54Z</time>
      </trkpt>
      <trkpt lat="43.71234" lon="1.57395">
        <ele>155.652349</ele>
        <time>2026-08-28T16:35:55Z</time>
      </trkpt>
      <trkpt lat="43.71237" lon="1.57401">
        <ele>155.719165</ele>
        <time>2026-08-28T16:35:56Z</time>
      </trkpt>
      <trkpt lat="43.7124" lon="1.57406">
        <ele>155.783795</ele>
        <time>2026-08-28T16:35:57Z</time>
      </trkpt>
      <trkpt lat="43.71244" lon="1.57411">
        <ele>155.85144</ele>
        <time>2026-08-28T16:35:58Z</time>
      </trkpt>
      <trkpt lat="43.71247" lon="1.57417">
        <ele>155.919085</ele>
        <time>2026-08-28T16:35:59Z</time>
      </trkpt>
      <trkpt lat="43.7125" lon="1.57422">
        <ele>155.986005</ele>
        <time>2026-08-28T16:36:00Z</time>
      </trkpt>
      <trkpt lat="43.71254" lon="1.57428">
        <ele>156.052087</ele>
        <time>2026-08-28T16:36:01Z</time>
      </trkpt>
      <trkpt lat="43.71257" lon="1.57433">
        <ele>156.117293</ele>
        <time>2026-08-28T16:36:02Z</time>
      </trkpt>
      <trkpt lat="43.71259" lon="1.57439">
        <ele>156.180957</ele>
        <time>2026-08-28T16:36:03Z</time>
      </trkpt>
      <trkpt lat="43.71262" lon="1.57444">
        <ele>156.247684</ele>
        <time>2026-08-28T16:36:04Z</time>
      </trkpt>
      <trkpt lat="43.71265" lon="1.5745">
        <ele>156.315205</ele>
        <time>2026-08-28T16:36:05Z</time>
      </trkpt>
      <trkpt lat="43.71268" lon="1.57457">
        <ele>156.380575</ele>
        <time>2026-08-28T16:36:06Z</time>
      </trkpt>
      <trkpt lat="43.71271" lon="1.57463">
        <ele>156.383187</ele>
        <time>2026-08-28T16:36:07Z</time>
      </trkpt>
      <trkpt lat="43.71274" lon="1.5747">
        <ele>156.385662</ele>
        <time>2026-08-28T16:36:08Z</time>
      </trkpt>
      <trkpt lat="43.71277" lon="1.57476">
        <ele>156.388113</ele>
        <time>2026-08-28T16:36:09Z</time>
      </trkpt>
      <trkpt lat="43.7128" lon="1.57482">
        <ele>156.390403</ele>
        <time>2026-08-28T16:36:10Z</time>
      </trkpt>
      <trkpt lat="43.71282" lon="1.57488">
        <ele>156.392687</ele>
        <time>2026-08-28T16:36:11Z</time>
      </trkpt>
      <trkpt lat="43.71285" lon="1.57493">
        <ele>156.39497</ele>
        <time>2026-08-28T16:36:12Z</time>
      </trkpt>
      <trkpt lat="43.71288" lon="1.57499">
        <ele>156.397282</ele>
        <time>2026-08-28T16:36:13Z</time>
      </trkpt>
      <trkpt lat="43.71291" lon="1.57505">
        <ele>156.399512</ele>
        <time>2026-08-28T16:36:14Z</time>
      </trkpt>
      <trkpt lat="43.71293" lon="1.5751">
        <ele>156.401688</ele>
        <time>2026-08-28T16:36:15Z</time>
      </trkpt>
      <trkpt lat="43.71296" lon="1.57516">
        <ele>156.403866</ele>
        <time>2026-08-28T16:36:16Z</time>
      </trkpt>
      <trkpt lat="43.71298" lon="1.57521">
        <ele>156.405967</ele>
        <time>2026-08-28T16:36:17Z</time>
      </trkpt>
      <trkpt lat="43.71301" lon="1.57527">
        <ele>156.408148</ele>
        <time>2026-08-28T16:36:18Z</time>
      </trkpt>
      <trkpt lat="43.71303" lon="1.57532">
        <ele>156.410198</ele>
        <time>2026-08-28T16:36:19Z</time>
      </trkpt>
      <trkpt lat="43.71304" lon="1.57538">
        <ele>156.412077</ele>
        <time>2026-08-28T16:36:20Z</time>
      </trkpt>
      <trkpt lat="43.71303" lon="1.57543">
        <ele>156.413942</ele>
        <time>2026-08-28T16:36:21Z</time>
      </trkpt>
      <trkpt lat="43.71302" lon="1.57549">
        <ele>156.415828</ele>
        <time>2026-08-28T16:36:22Z</time>
      </trkpt>
      <trkpt lat="43.713" lon="1.57554">
        <ele>156.417823</ele>
        <time>2026-08-28T16:36:23Z</time>
      </trkpt>
      <trkpt lat="43.71299" lon="1.5756">
        <ele>156.419734</ele>
        <time>2026-08-28T16:36:24Z</time>
      </trkpt>
      <trkpt lat="43.71299" lon="1.57566">
        <ele>156.421703</ele>
        <time>2026-08-28T16:36:25Z</time>
      </trkpt>
      <trkpt lat="43.71299" lon="1.57572">
        <ele>156.423729</ele>
        <time>2026-08-28T16:36:26Z</time>
      </trkpt>
      <trkpt lat="43.713" lon="1.57579">
        <ele>156.426071</ele>
        <time>2026-08-28T16:36:27Z</time>
      </trkpt>
      <trkpt lat="43.71302" lon="1.57586">
        <ele>156.428612</ele>
        <time>2026-08-28T16:36:28Z</time>
      </trkpt>
      <trkpt lat="43.71304" lon="1.57594">
        <ele>156.431308</ele>
        <time>2026-08-28T16:36:29Z</time>
      </trkpt>
      <trkpt lat="43.71306" lon="1.57602">
        <ele>156.434145</ele>
        <time>2026-08-28T16:36:30Z</time>
      </trkpt>
      <trkpt lat="43.71308" lon="1.5761">
        <ele>156.436981</ele>
        <time>2026-08-28T16:36:31Z</time>
      </trkpt>
      <trkpt lat="43.7131" lon="1.57618">
        <ele>156.439818</ele>
        <time>2026-08-28T16:36:32Z</time>
      </trkpt>
      <trkpt lat="43.71312" lon="1.57626">
        <ele>156.442702</ele>
        <time>2026-08-28T16:36:33Z</time>
      </trkpt>
      <trkpt lat="43.71314" lon="1.57634">
        <ele>156.445601</ele>
        <time>2026-08-28T16:36:34Z</time>
      </trkpt>
      <trkpt lat="43.71316" lon="1.57642">
        <ele>156.448409</ele>
        <time>2026-08-28T16:36:35Z</time>
      </trkpt>
      <trkpt lat="43.71319" lon="1.5765">
        <ele>156.451293</ele>
        <time>2026-08-28T16:36:36Z</time>
      </trkpt>
      <trkpt lat="43.7132" lon="1.57659">
        <ele>156.454101</ele>
        <time>2026-08-28T16:36:37Z</time>
      </trkpt>
      <trkpt lat="43.71322" lon="1.57667">
        <ele>156.456893</ele>
        <time>2026-08-28T16:36:38Z</time>
      </trkpt>
      <trkpt lat="43.71323" lon="1.57675">
        <ele>156.459653</ele>
        <time>2026-08-28T16:36:39Z</time>
      </trkpt>
      <trkpt lat="43.71324" lon="1.57683">
        <ele>156.462351</ele>
        <time>2026-08-28T16:36:40Z</time>
      </trkpt>
      <trkpt lat="43.71326" lon="1.57691">
        <ele>156.485579</ele>
        <time>2026-08-28T16:36:41Z</time>
      </trkpt>
      <trkpt lat="43.71327" lon="1.57699">
        <ele>156.511307</ele>
        <time>2026-08-28T16:36:42Z</time>
      </trkpt>
      <trkpt lat="43.71329" lon="1.57707">
        <ele>156.537035</ele>
        <time>2026-08-28T16:36:43Z</time>
      </trkpt>
      <trkpt lat="43.71329" lon="1.57714">
        <ele>156.561456</ele>
        <time>2026-08-28T16:36:44Z</time>
      </trkpt>
      <trkpt lat="43.71331" lon="1.57722">
        <ele>156.586949</ele>
        <time>2026-08-28T16:36:45Z</time>
      </trkpt>
      <trkpt lat="43.71333" lon="1.5773">
        <ele>156.612745</ele>
        <time>2026-08-28T16:36:46Z</time>
      </trkpt>
      <trkpt lat="43.71335" lon="1.57738">
        <ele>156.641224</ele>
        <time>2026-08-28T16:36:47Z</time>
      </trkpt>
      <trkpt lat="43.71337" lon="1.57746">
        <ele>156.667763</ele>
        <time>2026-08-28T16:36:48Z</time>
      </trkpt>
      <trkpt lat="43.71339" lon="1.57754">
        <ele>156.693608</ele>
        <time>2026-08-28T16:36:49Z</time>
      </trkpt>
      <trkpt lat="43.7134" lon="1.57761">
        <ele>156.719027</ele>
        <time>2026-08-28T16:36:50Z</time>
      </trkpt>
      <trkpt lat="43.71341" lon="1.57769">
        <ele>156.743337</ele>
        <time>2026-08-28T16:36:51Z</time>
      </trkpt>
      <trkpt lat="43.71341" lon="1.57776">
        <ele>156.767028</ele>
        <time>2026-08-28T16:36:52Z</time>
      </trkpt>
      <trkpt lat="43.71342" lon="1.57784">
        <ele>156.790682</ele>
        <time>2026-08-28T16:36:53Z</time>
      </trkpt>
      <trkpt lat="43.71342" lon="1.57791">
        <ele>156.813968</ele>
        <time>2026-08-28T16:36:54Z</time>
      </trkpt>
      <trkpt lat="43.71342" lon="1.57798">
        <ele>156.83756</ele>
        <time>2026-08-28T16:36:55Z</time>
      </trkpt>
      <trkpt lat="43.71342" lon="1.57806">
        <ele>156.861185</ele>
        <time>2026-08-28T16:36:56Z</time>
      </trkpt>
      <trkpt lat="43.71341" lon="1.57813">
        <ele>156.88492</ele>
        <time>2026-08-28T16:36:57Z</time>
      </trkpt>
      <trkpt lat="43.7134" lon="1.57821">
        <ele>156.908339</ele>
        <time>2026-08-28T16:36:58Z</time>
      </trkpt>
      <trkpt lat="43.7134" lon="1.57828">
        <ele>156.931559</ele>
        <time>2026-08-28T16:36:59Z</time>
      </trkpt>
      <trkpt lat="43.71339" lon="1.57835">
        <ele>156.955664</ele>
        <time>2026-08-28T16:37:00Z</time>
      </trkpt>
      <trkpt lat="43.71338" lon="1.57843">
        <ele>156.979084</ele>
        <time>2026-08-28T16:37:01Z</time>
      </trkpt>
      <trkpt lat="43.71338" lon="1.57849">
        <ele>157.001148</ele>
        <time>2026-08-28T16:37:02Z</time>
      </trkpt>
      <trkpt lat="43.71338" lon="1.57857">
        <ele>157.023818</ele>
        <time>2026-08-28T16:37:03Z</time>
      </trkpt>
      <trkpt lat="43.71337" lon="1.57864">
        <ele>157.046604</ele>
        <time>2026-08-28T16:37:04Z</time>
      </trkpt>
      <trkpt lat="43.71337" lon="1.57871">
        <ele>157.068603</ele>
        <time>2026-08-28T16:37:05Z</time>
      </trkpt>
      <trkpt lat="43.71337" lon="1.57878">
        <ele>157.091024</ele>
        <time>2026-08-28T16:37:06Z</time>
      </trkpt>
      <trkpt lat="43.71336" lon="1.57885">
        <ele>157.113407</ele>
        <time>2026-08-28T16:37:07Z</time>
      </trkpt>
      <trkpt lat="43.71336" lon="1.57892">
        <ele>157.136509</ele>
        <time>2026-08-28T16:37:08Z</time>
      </trkpt>
      <trkpt lat="43.71335" lon="1.57899">
        <ele>157.159158</ele>
        <time>2026-08-28T16:37:09Z</time>
      </trkpt>
      <trkpt lat="43.71335" lon="1.57907">
        <ele>157.183844</ele>
        <time>2026-08-28T16:37:10Z</time>
      </trkpt>
      <trkpt lat="43.71334" lon="1.57914">
        <ele>157.206266</ele>
        <time>2026-08-28T16:37:11Z</time>
      </trkpt>
      <trkpt lat="43.71333" lon="1.57921">
        <ele>157.23066</ele>
        <time>2026-08-28T16:37:12Z</time>
      </trkpt>
      <trkpt lat="43.71333" lon="1.57928">
        <ele>157.254079</ele>
        <time>2026-08-28T16:37:13Z</time>
      </trkpt>
      <trkpt lat="43.71332" lon="1.57936">
        <ele>157.310259</ele>
        <time>2026-08-28T16:37:14Z</time>
      </trkpt>
      <trkpt lat="43.71332" lon="1.57943">
        <ele>157.372055</ele>
        <time>2026-08-28T16:37:15Z</time>
      </trkpt>
      <trkpt lat="43.71331" lon="1.5795">
        <ele>157.429168</ele>
        <time>2026-08-28T16:37:16Z</time>
      </trkpt>
      <trkpt lat="43.7133" lon="1.57957">
        <ele>157.482621</ele>
        <time>2026-08-28T16:37:17Z</time>
      </trkpt>
      <trkpt lat="43.7133" lon="1.57963">
        <ele>157.534545</ele>
        <time>2026-08-28T16:37:18Z</time>
      </trkpt>
      <trkpt lat="43.7133" lon="1.57971">
        <ele>157.598557</ele>
        <time>2026-08-28T16:37:19Z</time>
      </trkpt>
      <trkpt lat="43.71329" lon="1.57978">
        <ele>157.657827</ele>
        <time>2026-08-28T16:37:20Z</time>
      </trkpt>
      <trkpt lat="43.71329" lon="1.57986">
        <ele>157.717002</ele>
        <time>2026-08-28T16:37:21Z</time>
      </trkpt>
      <trkpt lat="43.71328" lon="1.57992">
        <ele>157.771261</ele>
        <time>2026-08-28T16:37:22Z</time>
      </trkpt>
      <trkpt lat="43.71328" lon="1.58">
        <ele>157.835964</ele>
        <time>2026-08-28T16:37:23Z</time>
      </trkpt>
      <trkpt lat="43.71328" lon="1.58008">
        <ele>157.896751</ele>
        <time>2026-08-28T16:37:24Z</time>
      </trkpt>
      <trkpt lat="43.71328" lon="1.58015">
        <ele>157.958222</ele>
        <time>2026-08-28T16:37:25Z</time>
      </trkpt>
      <trkpt lat="43.71328" lon="1.58023">
        <ele>158.022166</ele>
        <time>2026-08-28T16:37:26Z</time>
      </trkpt>
      <trkpt lat="43.71328" lon="1.58031">
        <ele>158.082829</ele>
        <time>2026-08-28T16:37:27Z</time>
      </trkpt>
      <trkpt lat="43.71328" lon="1.58038">
        <ele>158.143462</ele>
        <time>2026-08-28T16:37:28Z</time>
      </trkpt>
      <trkpt lat="43.71329" lon="1.58045">
        <ele>158.19818</ele>
        <time>2026-08-28T16:37:29Z</time>
      </trkpt>
      <trkpt lat="43.71329" lon="1.58052">
        <ele>158.251948</ele>
        <time>2026-08-28T16:37:30Z</time>
      </trkpt>
      <trkpt lat="43.7133" lon="1.58058">
        <ele>158.303295</ele>
        <time>2026-08-28T16:37:31Z</time>
      </trkpt>
      <trkpt lat="43.71332" lon="1.58064">
        <ele>158.356508</ele>
        <time>2026-08-28T16:37:32Z</time>
      </trkpt>
      <trkpt lat="43.71335" lon="1.5807">
        <ele>158.413636</ele>
        <time>2026-08-28T16:37:33Z</time>
      </trkpt>
      <trkpt lat="43.71337" lon="1.58076">
        <ele>158.464851</ele>
        <time>2026-08-28T16:37:34Z</time>
      </trkpt>
      <trkpt lat="43.71339" lon="1.58083">
        <ele>158.52507</ele>
        <time>2026-08-28T16:37:35Z</time>
      </trkpt>
      <trkpt lat="43.71341" lon="1.5809">
        <ele>158.587024</ele>
        <time>2026-08-28T16:37:36Z</time>
      </trkpt>
      <trkpt lat="43.71342" lon="1.58098">
        <ele>158.653046</ele>
        <time>2026-08-28T16:37:37Z</time>
      </trkpt>
      <trkpt lat="43.71344" lon="1.58106">
        <ele>158.720446</ele>
        <time>2026-08-28T16:37:38Z</time>
      </trkpt>
      <trkpt lat="43.71345" lon="1.58114">
        <ele>158.789099</ele>
        <time>2026-08-28T16:37:39Z</time>
      </trkpt>
      <trkpt lat="43.71347" lon="1.58122">
        <ele>158.855724</ele>
        <time>2026-08-28T16:37:40Z</time>
      </trkpt>
      <trkpt lat="43.71348" lon="1.58131">
        <ele>158.929325</ele>
        <time>2026-08-28T16:37:41Z</time>
      </trkpt>
      <trkpt lat="43.71348" lon="1.5814">
        <ele>159.006953</ele>
        <time>2026-08-28T16:37:42Z</time>
      </trkpt>
      <trkpt lat="43.71348" lon="1.5815">
        <ele>159.083065</ele>
        <time>2026-08-28T16:37:43Z</time>
      </trkpt>
      <trkpt lat="43.71347" lon="1.58158">
        <ele>159.154103</ele>
        <time>2026-08-28T16:37:44Z</time>
      </trkpt>
      <trkpt lat="43.71346" lon="1.58167">
        <ele>159.220936</ele>
        <time>2026-08-28T16:37:45Z</time>
      </trkpt>
      <trkpt lat="43.71345" lon="1.58174">
        <ele>159.280647</ele>
        <time>2026-08-28T16:37:46Z</time>
      </trkpt>
      <trkpt lat="43.71344" lon="1.58182">
        <ele>159.329433</ele>
        <time>2026-08-28T16:37:47Z</time>
      </trkpt>
      <trkpt lat="43.71343" lon="1.5819">
        <ele>159.378821</ele>
        <time>2026-08-28T16:37:48Z</time>
      </trkpt>
      <trkpt lat="43.71342" lon="1.58198">
        <ele>159.429857</ele>
        <time>2026-08-28T16:37:49Z</time>
      </trkpt>
      <trkpt lat="43.7134" lon="1.58206">
        <ele>159.479475</ele>
        <time>2026-08-28T16:37:50Z</time>
      </trkpt>
      <trkpt lat="43.71339" lon="1.58214">
        <ele>159.527354</ele>
        <time>2026-08-28T16:37:51Z</time>
      </trkpt>
      <trkpt lat="43.71338" lon="1.58221">
        <ele>159.573217</ele>
        <time>2026-08-28T16:37:52Z</time>
      </trkpt>
      <trkpt lat="43.71337" lon="1.58229">
        <ele>159.61829</ele>
        <time>2026-08-28T16:37:53Z</time>
      </trkpt>
      <trkpt lat="43.71336" lon="1.58236">
        <ele>159.662378</ele>
        <time>2026-08-28T16:37:54Z</time>
      </trkpt>
      <trkpt lat="43.71334" lon="1.58243">
        <ele>159.708911</ele>
        <time>2026-08-28T16:37:55Z</time>
      </trkpt>
      <trkpt lat="43.71332" lon="1.5825">
        <ele>159.755444</ele>
        <time>2026-08-28T16:37:56Z</time>
      </trkpt>
      <trkpt lat="43.71331" lon="1.58258">
        <ele>159.803878</ele>
        <time>2026-08-28T16:37:57Z</time>
      </trkpt>
      <trkpt lat="43.71329" lon="1.58265">
        <ele>159.851936</ele>
        <time>2026-08-28T16:37:58Z</time>
      </trkpt>
      <trkpt lat="43.71328" lon="1.58273">
        <ele>159.899638</ele>
        <time>2026-08-28T16:37:59Z</time>
      </trkpt>
      <trkpt lat="43.71326" lon="1.5828">
        <ele>159.947845</ele>
        <time>2026-08-28T16:38:00Z</time>
      </trkpt>
      <trkpt lat="43.71324" lon="1.58288">
        <ele>159.997793</ele>
        <time>2026-08-28T16:38:01Z</time>
      </trkpt>
      <trkpt lat="43.71322" lon="1.58296">
        <ele>160.046848</ele>
        <time>2026-08-28T16:38:02Z</time>
      </trkpt>
      <trkpt lat="43.71321" lon="1.58303">
        <ele>160.093899</ele>
        <time>2026-08-28T16:38:03Z</time>
      </trkpt>
      <trkpt lat="43.71319" lon="1.58311">
        <ele>160.140781</ele>
        <time>2026-08-28T16:38:04Z</time>
      </trkpt>
      <trkpt lat="43.71318" lon="1.58318">
        <ele>160.185855</ele>
        <time>2026-08-28T16:38:05Z</time>
      </trkpt>
      <trkpt lat="43.71316" lon="1.58325">
        <ele>160.233221</ele>
        <time>2026-08-28T16:38:06Z</time>
      </trkpt>
      <trkpt lat="43.71314" lon="1.58332">
        <ele>160.280843</ele>
        <time>2026-08-28T16:38:07Z</time>
      </trkpt>
      <trkpt lat="43.71312" lon="1.5834">
        <ele>160.328863</ele>
        <time>2026-08-28T16:38:08Z</time>
      </trkpt>
      <trkpt lat="43.7131" lon="1.58346">
        <ele>160.372093</ele>
        <time>2026-08-28T16:38:09Z</time>
      </trkpt>
      <trkpt lat="43.71307" lon="1.58352">
        <ele>160.414134</ele>
        <time>2026-08-28T16:38:10Z</time>
      </trkpt>
      <trkpt lat="43.71304" lon="1.58357">
        <ele>160.45727</ele>
        <time>2026-08-28T16:38:11Z</time>
      </trkpt>
      <trkpt lat="43.713" lon="1.58363">
        <ele>160.499816</ele>
        <time>2026-08-28T16:38:12Z</time>
      </trkpt>
      <trkpt lat="43.71297" lon="1.58368">
        <ele>160.543608</ele>
        <time>2026-08-28T16:38:13Z</time>
      </trkpt>
      <trkpt lat="43.71293" lon="1.58373">
        <ele>160.58812</ele>
        <time>2026-08-28T16:38:14Z</time>
      </trkpt>
      <trkpt lat="43.7129" lon="1.58379">
        <ele>160.633281</ele>
        <time>2026-08-28T16:38:15Z</time>
      </trkpt>
      <trkpt lat="43.71286" lon="1.58383">
        <ele>160.675055</ele>
        <time>2026-08-28T16:38:16Z</time>
      </trkpt>
      <trkpt lat="43.71283" lon="1.5839">
        <ele>160.719593</ele>
        <time>2026-08-28T16:38:17Z</time>
      </trkpt>
      <trkpt lat="43.71281" lon="1.58396">
        <ele>160.765944</ele>
        <time>2026-08-28T16:38:18Z</time>
      </trkpt>
      <trkpt lat="43.71279" lon="1.58404">
        <ele>160.818995</ele>
        <time>2026-08-28T16:38:19Z</time>
      </trkpt>
      <trkpt lat="43.71277" lon="1.58411">
        <ele>160.875739</ele>
        <time>2026-08-28T16:38:20Z</time>
      </trkpt>
      <trkpt lat="43.71276" lon="1.58419">
        <ele>160.933055</ele>
        <time>2026-08-28T16:38:21Z</time>
      </trkpt>
      <trkpt lat="43.71276" lon="1.58426">
        <ele>160.987811</ele>
        <time>2026-08-28T16:38:22Z</time>
      </trkpt>
      <trkpt lat="43.71276" lon="1.58434">
        <ele>161.040067</ele>
        <time>2026-08-28T16:38:23Z</time>
      </trkpt>
      <trkpt lat="43.71275" lon="1.58441">
        <ele>161.093774</ele>
        <time>2026-08-28T16:38:24Z</time>
      </trkpt>
      <trkpt lat="43.71275" lon="1.58448">
        <ele>161.14721</ele>
        <time>2026-08-28T16:38:25Z</time>
      </trkpt>
      <trkpt lat="43.71274" lon="1.58456">
        <ele>161.205478</ele>
        <time>2026-08-28T16:38:26Z</time>
      </trkpt>
      <trkpt lat="43.71274" lon="1.58464">
        <ele>161.259512</ele>
        <time>2026-08-28T16:38:27Z</time>
      </trkpt>
      <trkpt lat="43.71274" lon="1.58471">
        <ele>161.310307</ele>
        <time>2026-08-28T16:38:28Z</time>
      </trkpt>
      <trkpt lat="43.71273" lon="1.58478">
        <ele>161.362614</ele>
        <time>2026-08-28T16:38:29Z</time>
      </trkpt>
      <trkpt lat="43.71273" lon="1.58485">
        <ele>161.414144</ele>
        <time>2026-08-28T16:38:30Z</time>
      </trkpt>
      <trkpt lat="43.71272" lon="1.58492">
        <ele>161.463986</ele>
        <time>2026-08-28T16:38:31Z</time>
      </trkpt>
      <trkpt lat="43.71271" lon="1.58498">
        <ele>161.512723</ele>
        <time>2026-08-28T16:38:32Z</time>
      </trkpt>
      <trkpt lat="43.71271" lon="1.58505">
        <ele>161.563766</ele>
        <time>2026-08-28T16:38:33Z</time>
      </trkpt>
      <trkpt lat="43.71271" lon="1.58513">
        <ele>161.616051</ele>
        <time>2026-08-28T16:38:34Z</time>
      </trkpt>
      <trkpt lat="43.71271" lon="1.58519">
        <ele>161.664205</ele>
        <time>2026-08-28T16:38:35Z</time>
      </trkpt>
      <trkpt lat="43.71272" lon="1.58526">
        <ele>161.71236</ele>
        <time>2026-08-28T16:38:36Z</time>
      </trkpt>
      <trkpt lat="43.71272" lon="1.58533">
        <ele>161.76268</ele>
        <time>2026-08-28T16:38:37Z</time>
      </trkpt>
      <trkpt lat="43.71273" lon="1.58539">
        <ele>161.811804</ele>
        <time>2026-08-28T16:38:38Z</time>
      </trkpt>
      <trkpt lat="43.71273" lon="1.58547">
        <ele>161.865539</ele>
        <time>2026-08-28T16:38:39Z</time>
      </trkpt>
      <trkpt lat="43.71273" lon="1.58555">
        <ele>161.9229</ele>
        <time>2026-08-28T16:38:40Z</time>
      </trkpt>
      <trkpt lat="43.71273" lon="1.58562">
        <ele>161.979509</ele>
        <time>2026-08-28T16:38:41Z</time>
      </trkpt>
      <trkpt lat="43.71273" lon="1.5857">
        <ele>162.03756</ele>
        <time>2026-08-28T16:38:42Z</time>
      </trkpt>
      <trkpt lat="43.71273" lon="1.58578">
        <ele>162.092791</ele>
        <time>2026-08-28T16:38:43Z</time>
      </trkpt>
      <trkpt lat="43.71272" lon="1.58585">
        <ele>162.146826</ele>
        <time>2026-08-28T16:38:44Z</time>
      </trkpt>
      <trkpt lat="43.71271" lon="1.58593">
        <ele>162.200262</ele>
        <time>2026-08-28T16:38:45Z</time>
      </trkpt>
      <trkpt lat="43.71271" lon="1.586">
        <ele>162.255017</ele>
        <time>2026-08-28T16:38:46Z</time>
      </trkpt>
      <trkpt lat="43.7127" lon="1.58608">
        <ele>162.309128</ele>
        <time>2026-08-28T16:38:47Z</time>
      </trkpt>
      <trkpt lat="43.71268" lon="1.58615">
        <ele>162.36298</ele>
        <time>2026-08-28T16:38:48Z</time>
      </trkpt>
      <trkpt lat="43.71267" lon="1.58622">
        <ele>162.418241</ele>
        <time>2026-08-28T16:38:49Z</time>
      </trkpt>
      <trkpt lat="43.71266" lon="1.58629">
        <ele>162.471221</ele>
        <time>2026-08-28T16:38:50Z</time>
      </trkpt>
      <trkpt lat="43.71264" lon="1.58636">
        <ele>162.522261</ele>
        <time>2026-08-28T16:38:51Z</time>
      </trkpt>
      <trkpt lat="43.71263" lon="1.58643">
        <ele>162.572465</ele>
        <time>2026-08-28T16:38:52Z</time>
      </trkpt>
      <trkpt lat="43.71261" lon="1.58649">
        <ele>162.706832</ele>
        <time>2026-08-28T16:38:53Z</time>
      </trkpt>
      <trkpt lat="43.7126" lon="1.58656">
        <ele>162.891811</ele>
        <time>2026-08-28T16:38:54Z</time>
      </trkpt>
      <trkpt lat="43.71258" lon="1.58663">
        <ele>163.081479</ele>
        <time>2026-08-28T16:38:55Z</time>
      </trkpt>
      <trkpt lat="43.71256" lon="1.5867">
        <ele>163.277241</ele>
        <time>2026-08-28T16:38:56Z</time>
      </trkpt>
      <trkpt lat="43.71254" lon="1.58677">
        <ele>163.469374</ele>
        <time>2026-08-28T16:38:57Z</time>
      </trkpt>
      <trkpt lat="43.71253" lon="1.58684">
        <ele>163.658345</ele>
        <time>2026-08-28T16:38:58Z</time>
      </trkpt>
      <trkpt lat="43.71251" lon="1.58691">
        <ele>163.841934</ele>
        <time>2026-08-28T16:38:59Z</time>
      </trkpt>
      <trkpt lat="43.7125" lon="1.58697">
        <ele>164.026913</ele>
        <time>2026-08-28T16:39:00Z</time>
      </trkpt>
      <trkpt lat="43.71248" lon="1.58703">
        <ele>164.18474</ele>
        <time>2026-08-28T16:39:01Z</time>
      </trkpt>
      <trkpt lat="43.71247" lon="1.58709">
        <ele>164.35485</ele>
        <time>2026-08-28T16:39:02Z</time>
      </trkpt>
      <trkpt lat="43.71246" lon="1.58715">
        <ele>164.510864</ele>
        <time>2026-08-28T16:39:03Z</time>
      </trkpt>
      <trkpt lat="43.71245" lon="1.58721">
        <ele>164.659865</ele>
        <time>2026-08-28T16:39:04Z</time>
      </trkpt>
      <trkpt lat="43.71245" lon="1.58726">
        <ele>164.801516</ele>
        <time>2026-08-28T16:39:05Z</time>
      </trkpt>
      <trkpt lat="43.71243" lon="1.58732">
        <ele>164.952502</ele>
        <time>2026-08-28T16:39:06Z</time>
      </trkpt>
      <trkpt lat="43.71242" lon="1.58738">
        <ele>165.118604</ele>
        <time>2026-08-28T16:39:07Z</time>
      </trkpt>
      <trkpt lat="43.71241" lon="1.58744">
        <ele>165.283787</ele>
        <time>2026-08-28T16:39:08Z</time>
      </trkpt>
      <trkpt lat="43.7124" lon="1.5875">
        <ele>165.441782</ele>
        <time>2026-08-28T16:39:09Z</time>
      </trkpt>
      <trkpt lat="43.71238" lon="1.58756">
        <ele>165.61552</ele>
        <time>2026-08-28T16:39:10Z</time>
      </trkpt>
      <trkpt lat="43.71237" lon="1.58762">
        <ele>165.787007</ele>
        <time>2026-08-28T16:39:11Z</time>
      </trkpt>
      <trkpt lat="43.71235" lon="1.58768">
        <ele>165.954682</ele>
        <time>2026-08-28T16:39:12Z</time>
      </trkpt>
      <trkpt lat="43.71233" lon="1.58774">
        <ele>166.118638</ele>
        <time>2026-08-28T16:39:13Z</time>
      </trkpt>
      <trkpt lat="43.71232" lon="1.5878">
        <ele>166.285033</ele>
        <time>2026-08-28T16:39:14Z</time>
      </trkpt>
      <trkpt lat="43.7123" lon="1.58786">
        <ele>166.440545</ele>
        <time>2026-08-28T16:39:15Z</time>
      </trkpt>
      <trkpt lat="43.71229" lon="1.58791">
        <ele>166.590022</ele>
        <time>2026-08-28T16:39:16Z</time>
      </trkpt>
      <trkpt lat="43.71228" lon="1.58797">
        <ele>166.729569</ele>
        <time>2026-08-28T16:39:17Z</time>
      </trkpt>
      <trkpt lat="43.71227" lon="1.58801">
        <ele>166.858106</ele>
        <time>2026-08-28T16:39:18Z</time>
      </trkpt>
      <trkpt lat="43.71226" lon="1.58807">
        <ele>167.003143</ele>
        <time>2026-08-28T16:39:19Z</time>
      </trkpt>
      <trkpt lat="43.71225" lon="1.58812">
        <ele>167.143144</ele>
        <time>2026-08-28T16:39:20Z</time>
      </trkpt>
      <trkpt lat="43.71223" lon="1.58817">
        <ele>167.282218</ele>
        <time>2026-08-28T16:39:21Z</time>
      </trkpt>
      <trkpt lat="43.71221" lon="1.58821">
        <ele>167.417812</ele>
        <time>2026-08-28T16:39:22Z</time>
      </trkpt>
      <trkpt lat="43.71219" lon="1.58825">
        <ele>167.554882</ele>
        <time>2026-08-28T16:39:23Z</time>
      </trkpt>
      <trkpt lat="43.71217" lon="1.5883">
        <ele>167.692067</ele>
        <time>2026-08-28T16:39:24Z</time>
      </trkpt>
      <trkpt lat="43.71215" lon="1.58834">
        <ele>167.812276</ele>
        <time>2026-08-28T16:39:25Z</time>
      </trkpt>
      <trkpt lat="43.71212" lon="1.58837">
        <ele>167.940251</ele>
        <time>2026-08-28T16:39:26Z</time>
      </trkpt>
      <trkpt lat="43.7121" lon="1.5884">
        <ele>168.061096</ele>
        <time>2026-08-28T16:39:27Z</time>
      </trkpt>
      <trkpt lat="43.71207" lon="1.58843">
        <ele>168.183694</ele>
        <time>2026-08-28T16:39:28Z</time>
      </trkpt>
      <trkpt lat="43.71205" lon="1.58846">
        <ele>168.308073</ele>
        <time>2026-08-28T16:39:29Z</time>
      </trkpt>
      <trkpt lat="43.71203" lon="1.5885">
        <ele>168.424877</ele>
        <time>2026-08-28T16:39:30Z</time>
      </trkpt>
      <trkpt lat="43.71201" lon="1.58853">
        <ele>168.536925</ele>
        <time>2026-08-28T16:39:31Z</time>
      </trkpt>
      <trkpt lat="43.71199" lon="1.58856">
        <ele>168.632066</ele>
        <time>2026-08-28T16:39:32Z</time>
      </trkpt>
      <trkpt lat="43.71197" lon="1.58859">
        <ele>168.752747</ele>
        <time>2026-08-28T16:39:33Z</time>
      </trkpt>
      <trkpt lat="43.71194" lon="1.58862">
        <ele>168.867652</ele>
        <time>2026-08-28T16:39:34Z</time>
      </trkpt>
      <trkpt lat="43.71192" lon="1.58865">
        <ele>168.985089</ele>
        <time>2026-08-28T16:39:35Z</time>
      </trkpt>
      <trkpt lat="43.71189" lon="1.58868">
        <ele>169.138802</ele>
        <time>2026-08-28T16:39:36Z</time>
      </trkpt>
      <trkpt lat="43.71186" lon="1.5887">
        <ele>169.379013</ele>
        <time>2026-08-28T16:39:37Z</time>
      </trkpt>
      <trkpt lat="43.71183" lon="1.58872">
        <ele>169.598943</ele>
        <time>2026-08-28T16:39:38Z</time>
      </trkpt>
      <trkpt lat="43.7118" lon="1.58873">
        <ele>169.801906</ele>
        <time>2026-08-28T16:39:39Z</time>
      </trkpt>
      <trkpt lat="43.71178" lon="1.58873">
        <ele>169.977764</ele>
        <time>2026-08-28T16:39:40Z</time>
      </trkpt>
      <trkpt lat="43.71175" lon="1.58874">
        <ele>170.171389</ele>
        <time>2026-08-28T16:39:41Z</time>
      </trkpt>
      <trkpt lat="43.71172" lon="1.58874">
        <ele>170.385642</ele>
        <time>2026-08-28T16:39:42Z</time>
      </trkpt>
      <trkpt lat="43.71169" lon="1.58874">
        <ele>170.599606</ele>
        <time>2026-08-28T16:39:43Z</time>
      </trkpt>
      <trkpt lat="43.71166" lon="1.58874">
        <ele>170.806682</ele>
        <time>2026-08-28T16:39:44Z</time>
      </trkpt>
      <trkpt lat="43.71163" lon="1.58874">
        <ele>171.013758</ele>
        <time>2026-08-28T16:39:45Z</time>
      </trkpt>
      <trkpt lat="43.7116" lon="1.58874">
        <ele>171.23489</ele>
        <time>2026-08-28T16:39:46Z</time>
      </trkpt>
      <trkpt lat="43.71157" lon="1.58874">
        <ele>171.441786</ele>
        <time>2026-08-28T16:39:47Z</time>
      </trkpt>
      <trkpt lat="43.71154" lon="1.58874">
        <ele>171.634833</ele>
        <time>2026-08-28T16:39:48Z</time>
      </trkpt>
      <trkpt lat="43.71151" lon="1.58874">
        <ele>171.820986</ele>
        <time>2026-08-28T16:39:49Z</time>
      </trkpt>
      <trkpt lat="43.71148" lon="1.58873">
        <ele>172.023151</ele>
        <time>2026-08-28T16:39:50Z</time>
      </trkpt>
      <trkpt lat="43.71145" lon="1.58872">
        <ele>172.232138</ele>
        <time>2026-08-28T16:39:51Z</time>
      </trkpt>
      <trkpt lat="43.71142" lon="1.58872">
        <ele>172.432638</ele>
        <time>2026-08-28T16:39:52Z</time>
      </trkpt>
      <trkpt lat="43.7114" lon="1.58872">
        <ele>172.61939</ele>
        <time>2026-08-28T16:39:53Z</time>
      </trkpt>
      <trkpt lat="43.71137" lon="1.58871">
        <ele>172.820879</ele>
        <time>2026-08-28T16:39:54Z</time>
      </trkpt>
      <trkpt lat="43.71134" lon="1.58871">
        <ele>173.014504</ele>
        <time>2026-08-28T16:39:55Z</time>
      </trkpt>
      <trkpt lat="43.71131" lon="1.58871">
        <ele>173.214694</ele>
        <time>2026-08-28T16:39:56Z</time>
      </trkpt>
      <trkpt lat="43.71128" lon="1.58871">
        <ele>173.407806</ele>
        <time>2026-08-28T16:39:57Z</time>
      </trkpt>
      <trkpt lat="43.71125" lon="1.58871">
        <ele>173.607996</ele>
        <time>2026-08-28T16:39:58Z</time>
      </trkpt>
      <trkpt lat="43.71122" lon="1.5887">
        <ele>173.828846</ele>
        <time>2026-08-28T16:39:59Z</time>
      </trkpt>
      <trkpt lat="43.71119" lon="1.5887">
        <ele>174.043099</ele>
        <time>2026-08-28T16:40:00Z</time>
      </trkpt>
      <trkpt lat="43.71116" lon="1.5887">
        <ele>174.236725</ele>
        <time>2026-08-28T16:40:01Z</time>
      </trkpt>
      <trkpt lat="43.71113" lon="1.58871">
        <ele>174.444101</ele>
        <time>2026-08-28T16:40:02Z</time>
      </trkpt>
      <trkpt lat="43.7111" lon="1.58871">
        <ele>174.646266</ele>
        <time>2026-08-28T16:40:03Z</time>
      </trkpt>
      <trkpt lat="43.71108" lon="1.58872">
        <ele>174.843387</ele>
        <time>2026-08-28T16:40:04Z</time>
      </trkpt>
      <trkpt lat="43.71105" lon="1.58872">
        <ele>175.037461</ele>
        <time>2026-08-28T16:40:05Z</time>
      </trkpt>
      <trkpt lat="43.71102" lon="1.58874">
        <ele>175.211774</ele>
        <time>2026-08-28T16:40:06Z</time>
      </trkpt>
      <trkpt lat="43.711" lon="1.58875">
        <ele>175.379557</ele>
        <time>2026-08-28T16:40:07Z</time>
      </trkpt>
      <trkpt lat="43.71098" lon="1.58876">
        <ele>175.555502</ele>
        <time>2026-08-28T16:40:08Z</time>
      </trkpt>
      <trkpt lat="43.71095" lon="1.58877">
        <ele>175.720439</ele>
        <time>2026-08-28T16:40:09Z</time>
      </trkpt>
      <trkpt lat="43.71093" lon="1.58878">
        <ele>175.904576</ele>
        <time>2026-08-28T16:40:10Z</time>
      </trkpt>
      <trkpt lat="43.7109" lon="1.5888">
        <ele>176.093547</ele>
        <time>2026-08-28T16:40:11Z</time>
      </trkpt>
      <trkpt lat="43.71088" lon="1.58881">
        <ele>176.292923</ele>
        <time>2026-08-28T16:40:12Z</time>
      </trkpt>
      <trkpt lat="43.71085" lon="1.58882">
        <ele>176.472347</ele>
        <time>2026-08-28T16:40:13Z</time>
      </trkpt>
      <trkpt lat="43.71083" lon="1.58883">
        <ele>176.65177</ele>
        <time>2026-08-28T16:40:14Z</time>
      </trkpt>
      <trkpt lat="43.7108" lon="1.58884">
        <ele>176.84996</ele>
        <time>2026-08-28T16:40:15Z</time>
      </trkpt>
      <trkpt lat="43.71077" lon="1.58884">
        <ele>177.054871</ele>
        <time>2026-08-28T16:40:16Z</time>
      </trkpt>
      <trkpt lat="43.71074" lon="1.58885">
        <ele>177.257833</ele>
        <time>2026-08-28T16:40:17Z</time>
      </trkpt>
      <trkpt lat="43.71071" lon="1.58885">
        <ele>177.450945</ele>
        <time>2026-08-28T16:40:18Z</time>
      </trkpt>
      <trkpt lat="43.71068" lon="1.58886">
        <ele>177.64457</ele>
        <time>2026-08-28T16:40:19Z</time>
      </trkpt>
      <trkpt lat="43.71066" lon="1.58886">
        <ele>177.830723</ele>
        <time>2026-08-28T16:40:20Z</time>
      </trkpt>
      <trkpt lat="43.71063" lon="1.58886">
        <ele>177.996267</ele>
        <time>2026-08-28T16:40:21Z</time>
      </trkpt>
      <trkpt lat="43.71061" lon="1.58886">
        <ele>178.175594</ele>
        <time>2026-08-28T16:40:22Z</time>
      </trkpt>
      <trkpt lat="43.71058" lon="1.58885">
        <ele>178.361814</ele>
        <time>2026-08-28T16:40:23Z</time>
      </trkpt>
      <trkpt lat="43.71055" lon="1.58885">
        <ele>178.543549</ele>
        <time>2026-08-28T16:40:24Z</time>
      </trkpt>
      <trkpt lat="43.71053" lon="1.58884">
        <ele>178.712655</ele>
        <time>2026-08-28T16:40:25Z</time>
      </trkpt>
      <trkpt lat="43.71051" lon="1.58884">
        <ele>178.87999</ele>
        <time>2026-08-28T16:40:26Z</time>
      </trkpt>
      <trkpt lat="43.71048" lon="1.58883">
        <ele>179.030164</ele>
        <time>2026-08-28T16:40:27Z</time>
      </trkpt>
      <trkpt lat="43.71046" lon="1.58882">
        <ele>179.211036</ele>
        <time>2026-08-28T16:40:28Z</time>
      </trkpt>
      <trkpt lat="43.71043" lon="1.58881">
        <ele>179.38795</ele>
        <time>2026-08-28T16:40:29Z</time>
      </trkpt>
      <trkpt lat="43.71041" lon="1.58881">
        <ele>179.532822</ele>
        <time>2026-08-28T16:40:30Z</time>
      </trkpt>
      <trkpt lat="43.71039" lon="1.58881">
        <ele>179.678377</ele>
        <time>2026-08-28T16:40:31Z</time>
      </trkpt>
      <trkpt lat="43.71037" lon="1.5888">
        <ele>179.823505</ele>
        <time>2026-08-28T16:40:32Z</time>
      </trkpt>
      <trkpt lat="43.71035" lon="1.5888">
        <ele>179.95488</ele>
        <time>2026-08-28T16:40:33Z</time>
      </trkpt>
      <trkpt lat="43.71033" lon="1.5888">
        <ele>180.086727</ele>
        <time>2026-08-28T16:40:34Z</time>
      </trkpt>
      <trkpt lat="43.71031" lon="1.5888">
        <ele>180.225426</ele>
        <time>2026-08-28T16:40:35Z</time>
      </trkpt>
      <trkpt lat="43.71029" lon="1.5888">
        <ele>180.377433</ele>
        <time>2026-08-28T16:40:36Z</time>
      </trkpt>
      <trkpt lat="43.71027" lon="1.58881">
        <ele>180.560054</ele>
        <time>2026-08-28T16:40:37Z</time>
      </trkpt>
      <trkpt lat="43.71024" lon="1.58882">
        <ele>180.730259</ele>
        <time>2026-08-28T16:40:38Z</time>
      </trkpt>
      <trkpt lat="43.71022" lon="1.58882">
        <ele>180.891628</ele>
        <time>2026-08-28T16:40:39Z</time>
      </trkpt>
      <trkpt lat="43.71019" lon="1.58883">
        <ele>181.073363</ele>
        <time>2026-08-28T16:40:40Z</time>
      </trkpt>
      <trkpt lat="43.71017" lon="1.58884">
        <ele>181.248301</ele>
        <time>2026-08-28T16:40:41Z</time>
      </trkpt>
      <trkpt lat="43.71014" lon="1.58885">
        <ele>181.417778</ele>
        <time>2026-08-28T16:40:42Z</time>
      </trkpt>
      <trkpt lat="43.71012" lon="1.58886">
        <ele>181.597609</ele>
        <time>2026-08-28T16:40:43Z</time>
      </trkpt>
      <trkpt lat="43.7101" lon="1.58887">
        <ele>181.767692</ele>
        <time>2026-08-28T16:40:44Z</time>
      </trkpt>
      <trkpt lat="43.71008" lon="1.58889">
        <ele>181.944201</ele>
        <time>2026-08-28T16:40:45Z</time>
      </trkpt>
      <trkpt lat="43.71006" lon="1.5889">
        <ele>182.090329</ele>
        <time>2026-08-28T16:40:46Z</time>
      </trkpt>
      <trkpt lat="43.71004" lon="1.58892">
        <ele>182.249356</ele>
        <time>2026-08-28T16:40:47Z</time>
      </trkpt>
      <trkpt lat="43.71002" lon="1.58893">
        <ele>182.400313</ele>
        <time>2026-08-28T16:40:48Z</time>
      </trkpt>
      <trkpt lat="43.71001" lon="1.58895">
        <ele>182.554375</ele>
        <time>2026-08-28T16:40:49Z</time>
      </trkpt>
      <trkpt lat="43.70998" lon="1.58896">
        <ele>182.724562</ele>
        <time>2026-08-28T16:40:50Z</time>
      </trkpt>
      <trkpt lat="43.70996" lon="1.58898">
        <ele>182.911205</ele>
        <time>2026-08-28T16:40:51Z</time>
      </trkpt>
      <trkpt lat="43.70994" lon="1.58899">
        <ele>183.063749</ele>
        <time>2026-08-28T16:40:52Z</time>
      </trkpt>
      <trkpt lat="43.70992" lon="1.58901">
        <ele>183.247691</ele>
        <time>2026-08-28T16:40:53Z</time>
      </trkpt>
      <trkpt lat="43.7099" lon="1.58903">
        <ele>183.426494</ele>
        <time>2026-08-28T16:40:54Z</time>
      </trkpt>
      <trkpt lat="43.70987" lon="1.58905">
        <ele>183.674898</ele>
        <time>2026-08-28T16:40:55Z</time>
      </trkpt>
      <trkpt lat="43.70984" lon="1.58906">
        <ele>183.889159</ele>
        <time>2026-08-28T16:40:56Z</time>
      </trkpt>
      <trkpt lat="43.70981" lon="1.58907">
        <ele>184.114425</ele>
        <time>2026-08-28T16:40:57Z</time>
      </trkpt>
      <trkpt lat="43.70978" lon="1.58907">
        <ele>184.304122</ele>
        <time>2026-08-28T16:40:58Z</time>
      </trkpt>
      <trkpt lat="43.70975" lon="1.58907">
        <ele>184.505626</ele>
        <time>2026-08-28T16:40:59Z</time>
      </trkpt>
      <trkpt lat="43.70973" lon="1.58907">
        <ele>184.692736</ele>
        <time>2026-08-28T16:41:00Z</time>
      </trkpt>
      <trkpt lat="43.7097" lon="1.58906">
        <ele>184.899608</ele>
        <time>2026-08-28T16:41:01Z</time>
      </trkpt>
      <trkpt lat="43.70968" lon="1.58905">
        <ele>185.073111</ele>
        <time>2026-08-28T16:41:02Z</time>
      </trkpt>
      <trkpt lat="43.70965" lon="1.58904">
        <ele>185.253946</ele>
        <time>2026-08-28T16:41:03Z</time>
      </trkpt>
      <trkpt lat="43.70964" lon="1.58902">
        <ele>185.413783</ele>
        <time>2026-08-28T16:41:04Z</time>
      </trkpt>
      <trkpt lat="43.70962" lon="1.589">
        <ele>185.542521</ele>
        <time>2026-08-28T16:41:05Z</time>
      </trkpt>
      <trkpt lat="43.70961" lon="1.58898">
        <ele>185.673338</ele>
        <time>2026-08-28T16:41:06Z</time>
      </trkpt>
      <trkpt lat="43.7096" lon="1.58896">
        <ele>185.81296</ele>
        <time>2026-08-28T16:41:07Z</time>
      </trkpt>
      <trkpt lat="43.7096" lon="1.58894">
        <ele>185.952427</ele>
        <time>2026-08-28T16:41:08Z</time>
      </trkpt>
      <trkpt lat="43.70959" lon="1.58891">
        <ele>186.109345</ele>
        <time>2026-08-28T16:41:09Z</time>
      </trkpt>
      <trkpt lat="43.70958" lon="1.58888">
        <ele>186.268393</ele>
        <time>2026-08-28T16:41:10Z</time>
      </trkpt>
      <trkpt lat="43.70958" lon="1.58885">
        <ele>186.428549</ele>
        <time>2026-08-28T16:41:11Z</time>
      </trkpt>
      <trkpt lat="43.70958" lon="1.58882">
        <ele>186.590454</ele>
        <time>2026-08-28T16:41:12Z</time>
      </trkpt>
      <trkpt lat="43.70958" lon="1.58879">
        <ele>186.741313</ele>
        <time>2026-08-28T16:41:13Z</time>
      </trkpt>
      <trkpt lat="43.70958" lon="1.58876">
        <ele>186.889788</ele>
        <time>2026-08-28T16:41:14Z</time>
      </trkpt>
      <trkpt lat="43.70959" lon="1.58873">
        <ele>187.051713</ele>
        <time>2026-08-28T16:41:15Z</time>
      </trkpt>
      <trkpt lat="43.70959" lon="1.5887">
        <ele>187.211121</ele>
        <time>2026-08-28T16:41:16Z</time>
      </trkpt>
      <trkpt lat="43.7096" lon="1.58867">
        <ele>187.36894</ele>
        <time>2026-08-28T16:41:17Z</time>
      </trkpt>
      <trkpt lat="43.70962" lon="1.58865">
        <ele>187.538274</ele>
        <time>2026-08-28T16:41:18Z</time>
      </trkpt>
      <trkpt lat="43.70963" lon="1.58862">
        <ele>187.698705</ele>
        <time>2026-08-28T16:41:19Z</time>
      </trkpt>
      <trkpt lat="43.70964" lon="1.5886">
        <ele>187.85118</ele>
        <time>2026-08-28T16:41:20Z</time>
      </trkpt>
      <trkpt lat="43.70966" lon="1.58858">
        <ele>188.022303</ele>
        <time>2026-08-28T16:41:21Z</time>
      </trkpt>
      <trkpt lat="43.70968" lon="1.58856">
        <ele>188.189829</ele>
        <time>2026-08-28T16:41:22Z</time>
      </trkpt>
      <trkpt lat="43.7097" lon="1.58853">
        <ele>188.366168</ele>
        <time>2026-08-28T16:41:23Z</time>
      </trkpt>
      <trkpt lat="43.70972" lon="1.58851">
        <ele>188.537985</ele>
        <time>2026-08-28T16:41:24Z</time>
      </trkpt>
      <trkpt lat="43.70974" lon="1.58849">
        <ele>188.712585</ele>
        <time>2026-08-28T16:41:25Z</time>
      </trkpt>
      <trkpt lat="43.70976" lon="1.58848">
        <ele>188.884295</ele>
        <time>2026-08-28T16:41:26Z</time>
      </trkpt>
      <trkpt lat="43.70977" lon="1.58846">
        <ele>189.041141</ele>
        <time>2026-08-28T16:41:27Z</time>
      </trkpt>
      <trkpt lat="43.70979" lon="1.58844">
        <ele>189.20174</ele>
        <time>2026-08-28T16:41:28Z</time>
      </trkpt>
      <trkpt lat="43.70981" lon="1.58842">
        <ele>189.367463</ele>
        <time>2026-08-28T16:41:29Z</time>
      </trkpt>
      <trkpt lat="43.70983" lon="1.5884">
        <ele>189.537303</ele>
        <time>2026-08-28T16:41:30Z</time>
      </trkpt>
      <trkpt lat="43.70985" lon="1.58837">
        <ele>189.731286</ele>
        <time>2026-08-28T16:41:31Z</time>
      </trkpt>
      <trkpt lat="43.70987" lon="1.58835">
        <ele>189.928794</ele>
        <time>2026-08-28T16:41:32Z</time>
      </trkpt>
      <trkpt lat="43.70988" lon="1.58832">
        <ele>190.118575</ele>
        <time>2026-08-28T16:41:33Z</time>
      </trkpt>
      <trkpt lat="43.7099" lon="1.58829">
        <ele>190.308333</ele>
        <time>2026-08-28T16:41:34Z</time>
      </trkpt>
      <trkpt lat="43.70991" lon="1.58825">
        <ele>190.508421</ele>
        <time>2026-08-28T16:41:35Z</time>
      </trkpt>
      <trkpt lat="43.70992" lon="1.58822">
        <ele>190.688065</ele>
        <time>2026-08-28T16:41:36Z</time>
      </trkpt>
      <trkpt lat="43.70993" lon="1.58819">
        <ele>190.864657</ele>
        <time>2026-08-28T16:41:37Z</time>
      </trkpt>
      <trkpt lat="43.70994" lon="1.58816">
        <ele>191.040055</ele>
        <time>2026-08-28T16:41:38Z</time>
      </trkpt>
      <trkpt lat="43.70994" lon="1.58813">
        <ele>191.216194</ele>
        <time>2026-08-28T16:41:39Z</time>
      </trkpt>
      <trkpt lat="43.70995" lon="1.58809">
        <ele>191.398257</ele>
        <time>2026-08-28T16:41:40Z</time>
      </trkpt>
      <trkpt lat="43.70995" lon="1.58806">
        <ele>191.541631</ele>
        <time>2026-08-28T16:41:41Z</time>
      </trkpt>
      <trkpt lat="43.70996" lon="1.58803">
        <ele>191.719085</ele>
        <time>2026-08-28T16:41:42Z</time>
      </trkpt>
      <trkpt lat="43.70995" lon="1.588">
        <ele>191.891354</ele>
        <time>2026-08-28T16:41:43Z</time>
      </trkpt>
      <trkpt lat="43.70995" lon="1.58796">
        <ele>192.070549</ele>
        <time>2026-08-28T16:41:44Z</time>
      </trkpt>
      <trkpt lat="43.70994" lon="1.58793">
        <ele>192.234539</ele>
        <time>2026-08-28T16:41:45Z</time>
      </trkpt>
      <trkpt lat="43.70994" lon="1.58791">
        <ele>192.383754</ele>
        <time>2026-08-28T16:41:46Z</time>
      </trkpt>
      <trkpt lat="43.70993" lon="1.58788">
        <ele>192.522036</ele>
        <time>2026-08-28T16:41:47Z</time>
      </trkpt>
      <trkpt lat="43.70992" lon="1.58786">
        <ele>192.65952</ele>
        <time>2026-08-28T16:41:48Z</time>
      </trkpt>
      <trkpt lat="43.70991" lon="1.58783">
        <ele>192.815937</ele>
        <time>2026-08-28T16:41:49Z</time>
      </trkpt>
      <trkpt lat="43.7099" lon="1.58781">
        <ele>192.963755</ele>
        <time>2026-08-28T16:41:50Z</time>
      </trkpt>
      <trkpt lat="43.70988" lon="1.58779">
        <ele>193.148913</ele>
        <time>2026-08-28T16:41:51Z</time>
      </trkpt>
      <trkpt lat="43.70986" lon="1.58777">
        <ele>193.332798</ele>
        <time>2026-08-28T16:41:52Z</time>
      </trkpt>
      <trkpt lat="43.70984" lon="1.58774">
        <ele>193.50565</ele>
        <time>2026-08-28T16:41:53Z</time>
      </trkpt>
      <trkpt lat="43.70982" lon="1.58773">
        <ele>193.644744</ele>
        <time>2026-08-28T16:41:54Z</time>
      </trkpt>
      <trkpt lat="43.7098" lon="1.58771">
        <ele>193.81976</ele>
        <time>2026-08-28T16:41:55Z</time>
      </trkpt>
      <trkpt lat="43.70978" lon="1.58769">
        <ele>193.99486</ele>
        <time>2026-08-28T16:41:56Z</time>
      </trkpt>
      <trkpt lat="43.70976" lon="1.58768">
        <ele>194.190967</ele>
        <time>2026-08-28T16:41:57Z</time>
      </trkpt>
      <trkpt lat="43.70974" lon="1.58766">
        <ele>194.361154</ele>
        <time>2026-08-28T16:41:58Z</time>
      </trkpt>
      <trkpt lat="43.70971" lon="1.58766">
        <ele>194.486231</ele>
        <time>2026-08-28T16:41:59Z</time>
      </trkpt>
      <trkpt lat="43.70969" lon="1.58765">
        <ele>194.592618</ele>
        <time>2026-08-28T16:42:00Z</time>
      </trkpt>
      <trkpt lat="43.70967" lon="1.58764">
        <ele>194.699619</ele>
        <time>2026-08-28T16:42:01Z</time>
      </trkpt>
      <trkpt lat="43.70965" lon="1.58764">
        <ele>194.80662</ele>
        <time>2026-08-28T16:42:02Z</time>
      </trkpt>
      <trkpt lat="43.70963" lon="1.58763">
        <ele>194.915167</ele>
        <time>2026-08-28T16:42:03Z</time>
      </trkpt>
      <trkpt lat="43.7096" lon="1.58762">
        <ele>195.031545</ele>
        <time>2026-08-28T16:42:04Z</time>
      </trkpt>
      <trkpt lat="43.70958" lon="1.58762">
        <ele>195.142161</ele>
        <time>2026-08-28T16:42:05Z</time>
      </trkpt>
      <trkpt lat="43.70956" lon="1.58761">
        <ele>195.249162</ele>
        <time>2026-08-28T16:42:06Z</time>
      </trkpt>
      <trkpt lat="43.70954" lon="1.58761">
        <ele>195.351486</ele>
        <time>2026-08-28T16:42:07Z</time>
      </trkpt>
      <trkpt lat="43.70952" lon="1.5876">
        <ele>195.448468</ele>
        <time>2026-08-28T16:42:08Z</time>
      </trkpt>
      <trkpt lat="43.70949" lon="1.5876">
        <ele>195.554351</ele>
        <time>2026-08-28T16:42:09Z</time>
      </trkpt>
      <trkpt lat="43.70947" lon="1.5876">
        <ele>195.654619</ele>
        <time>2026-08-28T16:42:10Z</time>
      </trkpt>
      <trkpt lat="43.70945" lon="1.5876">
        <ele>195.764858</ele>
        <time>2026-08-28T16:42:11Z</time>
      </trkpt>
      <trkpt lat="43.70943" lon="1.58759">
        <ele>195.875097</ele>
        <time>2026-08-28T16:42:12Z</time>
      </trkpt>
      <trkpt lat="43.7094" lon="1.58759">
        <ele>195.985336</ele>
        <time>2026-08-28T16:42:13Z</time>
      </trkpt>
      <trkpt lat="43.70938" lon="1.58758">
        <ele>196.105872</ele>
        <time>2026-08-28T16:42:14Z</time>
      </trkpt>
      <trkpt lat="43.70935" lon="1.58758">
        <ele>196.23037</ele>
        <time>2026-08-28T16:42:15Z</time>
      </trkpt>
      <trkpt lat="43.70933" lon="1.58758">
        <ele>196.359624</ele>
        <time>2026-08-28T16:42:16Z</time>
      </trkpt>
      <trkpt lat="43.7093" lon="1.58758">
        <ele>196.483692</ele>
        <time>2026-08-28T16:42:17Z</time>
      </trkpt>
      <trkpt lat="43.70928" lon="1.58758">
        <ele>196.598268</ele>
        <time>2026-08-28T16:42:18Z</time>
      </trkpt>
      <trkpt lat="43.70925" lon="1.58758">
        <ele>196.70802</ele>
        <time>2026-08-28T16:42:19Z</time>
      </trkpt>
      <trkpt lat="43.70923" lon="1.58758">
        <ele>196.818259</ele>
        <time>2026-08-28T16:42:20Z</time>
      </trkpt>
      <trkpt lat="43.70921" lon="1.58758">
        <ele>196.923466</ele>
        <time>2026-08-28T16:42:21Z</time>
      </trkpt>
      <trkpt lat="43.70919" lon="1.58758">
        <ele>197.023733</ele>
        <time>2026-08-28T16:42:22Z</time>
      </trkpt>
      <trkpt lat="43.70916" lon="1.58758">
        <ele>197.138309</ele>
        <time>2026-08-28T16:42:23Z</time>
      </trkpt>
      <trkpt lat="43.70914" lon="1.58759">
        <ele>197.257655</ele>
        <time>2026-08-28T16:42:24Z</time>
      </trkpt>
      <trkpt lat="43.70912" lon="1.58759">
        <ele>197.363144</ele>
        <time>2026-08-28T16:42:25Z</time>
      </trkpt>
      <trkpt lat="43.70909" lon="1.58759">
        <ele>197.487642</ele>
        <time>2026-08-28T16:42:26Z</time>
      </trkpt>
      <trkpt lat="43.70907" lon="1.5876">
        <ele>197.607733</ele>
        <time>2026-08-28T16:42:27Z</time>
      </trkpt>
      <trkpt lat="43.70904" lon="1.5876">
        <ele>197.734129</ele>
        <time>2026-08-28T16:42:28Z</time>
      </trkpt>
      <trkpt lat="43.70901" lon="1.58761">
        <ele>197.876746</ele>
        <time>2026-08-28T16:42:29Z</time>
      </trkpt>
      <trkpt lat="43.70898" lon="1.58762">
        <ele>198.01564</ele>
        <time>2026-08-28T16:42:30Z</time>
      </trkpt>
      <trkpt lat="43.70895" lon="1.58763">
        <ele>198.157463</ele>
        <time>2026-08-28T16:42:31Z</time>
      </trkpt>
      <trkpt lat="43.70893" lon="1.58764">
        <ele>198.29084</ele>
        <time>2026-08-28T16:42:32Z</time>
      </trkpt>
      <trkpt lat="43.7089" lon="1.58766">
        <ele>198.425264</ele>
        <time>2026-08-28T16:42:33Z</time>
      </trkpt>
      <trkpt lat="43.70887" lon="1.58767">
        <ele>198.564104</ele>
        <time>2026-08-28T16:42:34Z</time>
      </trkpt>
      <trkpt lat="43.70885" lon="1.58769">
        <ele>198.711437</ele>
        <time>2026-08-28T16:42:35Z</time>
      </trkpt>
      <trkpt lat="43.70882" lon="1.58771">
        <ele>198.863111</ele>
        <time>2026-08-28T16:42:36Z</time>
      </trkpt>
      <trkpt lat="43.70879" lon="1.58773">
        <ele>199.010917</ele>
        <time>2026-08-28T16:42:37Z</time>
      </trkpt>
      <trkpt lat="43.70876" lon="1.58775">
        <ele>199.154583</ele>
        <time>2026-08-28T16:42:38Z</time>
      </trkpt>
      <trkpt lat="43.70874" lon="1.58777">
        <ele>199.30073</ele>
        <time>2026-08-28T16:42:39Z</time>
      </trkpt>
      <trkpt lat="43.70871" lon="1.58779">
        <ele>199.440049</ele>
        <time>2026-08-28T16:42:40Z</time>
      </trkpt>
      <trkpt lat="43.70869" lon="1.58781">
        <ele>199.575559</ele>
        <time>2026-08-28T16:42:41Z</time>
      </trkpt>
      <trkpt lat="43.70866" lon="1.58783">
        <ele>199.717517</ele>
        <time>2026-08-28T16:42:42Z</time>
      </trkpt>
      <trkpt lat="43.70864" lon="1.58786">
        <ele>199.865323</ele>
        <time>2026-08-28T16:42:43Z</time>
      </trkpt>
      <trkpt lat="43.70861" lon="1.58788">
        <ele>200.008989</ele>
        <time>2026-08-28T16:42:44Z</time>
      </trkpt>
      <trkpt lat="43.70858" lon="1.5879">
        <ele>200.156254</ele>
        <time>2026-08-28T16:42:45Z</time>
      </trkpt>
      <trkpt lat="43.70856" lon="1.58792">
        <ele>200.303519</ele>
        <time>2026-08-28T16:42:46Z</time>
      </trkpt>
      <trkpt lat="43.70853" lon="1.58794">
        <ele>200.447185</ele>
        <time>2026-08-28T16:42:47Z</time>
      </trkpt>
      <trkpt lat="43.70851" lon="1.58796">
        <ele>200.584992</ele>
        <time>2026-08-28T16:42:48Z</time>
      </trkpt>
      <trkpt lat="43.70848" lon="1.58799">
        <ele>200.734519</ele>
        <time>2026-08-28T16:42:49Z</time>
      </trkpt>
      <trkpt lat="43.70845" lon="1.58801">
        <ele>200.877787</ele>
        <time>2026-08-28T16:42:50Z</time>
      </trkpt>
      <trkpt lat="43.70843" lon="1.58803">
        <ele>201.025052</ele>
        <time>2026-08-28T16:42:51Z</time>
      </trkpt>
      <trkpt lat="43.7084" lon="1.58805">
        <ele>201.184564</ele>
        <time>2026-08-28T16:42:52Z</time>
      </trkpt>
      <trkpt lat="43.70837" lon="1.58808">
        <ele>201.35826</ele>
        <time>2026-08-28T16:42:53Z</time>
      </trkpt>
      <trkpt lat="43.70834" lon="1.5881">
        <ele>201.523628</ele>
        <time>2026-08-28T16:42:54Z</time>
      </trkpt>
      <trkpt lat="43.70831" lon="1.58813">
        <ele>201.68314</ele>
        <time>2026-08-28T16:42:55Z</time>
      </trkpt>
      <trkpt lat="43.70828" lon="1.58815">
        <ele>201.84032</ele>
        <time>2026-08-28T16:42:56Z</time>
      </trkpt>
      <trkpt lat="43.70825" lon="1.58817">
        <ele>201.9975</ele>
        <time>2026-08-28T16:42:57Z</time>
      </trkpt>
      <trkpt lat="43.70823" lon="1.5882">
        <ele>202.150644</ele>
        <time>2026-08-28T16:42:58Z</time>
      </trkpt>
      <trkpt lat="43.7082" lon="1.58822">
        <ele>202.29585</ele>
        <time>2026-08-28T16:42:59Z</time>
      </trkpt>
      <trkpt lat="43.70817" lon="1.58824">
        <ele>202.449508</ele>
        <time>2026-08-28T16:43:00Z</time>
      </trkpt>
      <trkpt lat="43.70815" lon="1.58827">
        <ele>202.596773</ele>
        <time>2026-08-28T16:43:01Z</time>
      </trkpt>
      <trkpt lat="43.70812" lon="1.58829">
        <ele>202.736339</ele>
        <time>2026-08-28T16:43:02Z</time>
      </trkpt>
      <trkpt lat="43.70809" lon="1.58831">
        <ele>202.88671</ele>
        <time>2026-08-28T16:43:03Z</time>
      </trkpt>
      <trkpt lat="43.70806" lon="1.58833">
        <ele>203.0397</ele>
        <time>2026-08-28T16:43:04Z</time>
      </trkpt>
      <trkpt lat="43.70803" lon="1.58835">
        <ele>203.201052</ele>
        <time>2026-08-28T16:43:05Z</time>
      </trkpt>
      <trkpt lat="43.708" lon="1.58836">
        <ele>203.358507</ele>
        <time>2026-08-28T16:43:06Z</time>
      </trkpt>
      <trkpt lat="43.70797" lon="1.58838">
        <ele>203.526081</ele>
        <time>2026-08-28T16:43:07Z</time>
      </trkpt>
      <trkpt lat="43.70794" lon="1.58839">
        <ele>203.689363</ele>
        <time>2026-08-28T16:43:08Z</time>
      </trkpt>
      <trkpt lat="43.7079" lon="1.5884">
        <ele>203.851737</ele>
        <time>2026-08-28T16:43:09Z</time>
      </trkpt>
      <trkpt lat="43.70787" lon="1.58841">
        <ele>204.011798</ele>
        <time>2026-08-28T16:43:10Z</time>
      </trkpt>
      <trkpt lat="43.70784" lon="1.58842">
        <ele>204.17123</ele>
        <time>2026-08-28T16:43:11Z</time>
      </trkpt>
      <trkpt lat="43.7078" lon="1.58843">
        <ele>204.341302</ele>
        <time>2026-08-28T16:43:12Z</time>
      </trkpt>
      <trkpt lat="43.70777" lon="1.58844">
        <ele>204.492781</ele>
        <time>2026-08-28T16:43:13Z</time>
      </trkpt>
      <trkpt lat="43.70774" lon="1.58845">
        <ele>204.63963</ele>
        <time>2026-08-28T16:43:14Z</time>
      </trkpt>
      <trkpt lat="43.70771" lon="1.58846">
        <ele>204.784409</ele>
        <time>2026-08-28T16:43:15Z</time>
      </trkpt>
      <trkpt lat="43.70768" lon="1.58846">
        <ele>204.928656</ele>
        <time>2026-08-28T16:43:16Z</time>
      </trkpt>
      <trkpt lat="43.70765" lon="1.58847">
        <ele>205.059379</ele>
        <time>2026-08-28T16:43:17Z</time>
      </trkpt>
      <trkpt lat="43.70762" lon="1.58848">
        <ele>205.208853</ele>
        <time>2026-08-28T16:43:18Z</time>
      </trkpt>
      <trkpt lat="43.7076" lon="1.58849">
        <ele>205.348346</ele>
        <time>2026-08-28T16:43:19Z</time>
      </trkpt>
      <trkpt lat="43.70757" lon="1.5885">
        <ele>205.495195</ele>
        <time>2026-08-28T16:43:20Z</time>
      </trkpt>
      <trkpt lat="43.70754" lon="1.58851">
        <ele>205.640586</ele>
        <time>2026-08-28T16:43:21Z</time>
      </trkpt>
      <trkpt lat="43.7075" lon="1.58852">
        <ele>205.800018</ele>
        <time>2026-08-28T16:43:22Z</time>
      </trkpt>
      <trkpt lat="43.70747" lon="1.58852">
        <ele>205.958892</ele>
        <time>2026-08-28T16:43:23Z</time>
      </trkpt>
      <trkpt lat="43.70744" lon="1.58853">
        <ele>206.113065</ele>
        <time>2026-08-28T16:43:24Z</time>
      </trkpt>
      <trkpt lat="43.70741" lon="1.58854">
        <ele>206.262538</ele>
        <time>2026-08-28T16:43:25Z</time>
      </trkpt>
      <trkpt lat="43.70738" lon="1.58855">
        <ele>206.413274</ele>
        <time>2026-08-28T16:43:26Z</time>
      </trkpt>
      <trkpt lat="43.70734" lon="1.58855">
        <ele>206.561794</ele>
        <time>2026-08-28T16:43:27Z</time>
      </trkpt>
      <trkpt lat="43.70731" lon="1.58856">
        <ele>206.715467</ele>
        <time>2026-08-28T16:43:28Z</time>
      </trkpt>
      <trkpt lat="43.70728" lon="1.58856">
        <ele>206.874341</ele>
        <time>2026-08-28T16:43:29Z</time>
      </trkpt>
      <trkpt lat="43.70725" lon="1.58857">
        <ele>207.03745</ele>
        <time>2026-08-28T16:43:30Z</time>
      </trkpt>
      <trkpt lat="43.70721" lon="1.58857">
        <ele>207.199832</ele>
        <time>2026-08-28T16:43:31Z</time>
      </trkpt>
      <trkpt lat="43.70718" lon="1.58858">
        <ele>207.36812</ele>
        <time>2026-08-28T16:43:32Z</time>
      </trkpt>
      <trkpt lat="43.70714" lon="1.58858">
        <ele>207.530247</ele>
        <time>2026-08-28T16:43:33Z</time>
      </trkpt>
      <trkpt lat="43.70711" lon="1.58859">
        <ele>207.696945</ele>
        <time>2026-08-28T16:43:34Z</time>
      </trkpt>
      <trkpt lat="43.70707" lon="1.58859">
        <ele>207.858889</ele>
        <time>2026-08-28T16:43:35Z</time>
      </trkpt>
      <trkpt lat="43.70704" lon="1.58859">
        <ele>208.016079</ele>
        <time>2026-08-28T16:43:36Z</time>
      </trkpt>
      <trkpt lat="43.70701" lon="1.58858">
        <ele>208.168708</ele>
        <time>2026-08-28T16:43:37Z</time>
      </trkpt>
      <trkpt lat="43.70698" lon="1.58858">
        <ele>208.326349</ele>
        <time>2026-08-28T16:43:38Z</time>
      </trkpt>
      <trkpt lat="43.70694" lon="1.58857">
        <ele>208.49047</ele>
        <time>2026-08-28T16:43:39Z</time>
      </trkpt>
      <trkpt lat="43.70691" lon="1.58856">
        <ele>208.659285</ele>
        <time>2026-08-28T16:43:40Z</time>
      </trkpt>
      <trkpt lat="43.70687" lon="1.58855">
        <ele>208.819347</ele>
        <time>2026-08-28T16:43:41Z</time>
      </trkpt>
      <trkpt lat="43.70684" lon="1.58854">
        <ele>208.980109</ele>
        <time>2026-08-28T16:43:42Z</time>
      </trkpt>
      <trkpt lat="43.70681" lon="1.58854">
        <ele>209.1255</ele>
        <time>2026-08-28T16:43:43Z</time>
      </trkpt>
      <trkpt lat="43.70678" lon="1.58853">
        <ele>209.280896</ele>
        <time>2026-08-28T16:43:44Z</time>
      </trkpt>
      <trkpt lat="43.70675" lon="1.58851">
        <ele>209.435047</ele>
        <time>2026-08-28T16:43:45Z</time>
      </trkpt>
      <trkpt lat="43.70671" lon="1.5885">
        <ele>209.60595</ele>
        <time>2026-08-28T16:43:46Z</time>
      </trkpt>
      <trkpt lat="43.70668" lon="1.58848">
        <ele>209.763405</ele>
        <time>2026-08-28T16:43:47Z</time>
      </trkpt>
      <trkpt lat="43.70665" lon="1.58847">
        <ele>209.927663</ele>
        <time>2026-08-28T16:43:48Z</time>
      </trkpt>
      <trkpt lat="43.70662" lon="1.58845">
        <ele>210.089585</ele>
        <time>2026-08-28T16:43:49Z</time>
      </trkpt>
      <trkpt lat="43.70659" lon="1.58844">
        <ele>210.243736</ele>
        <time>2026-08-28T16:43:50Z</time>
      </trkpt>
      <trkpt lat="43.70656" lon="1.58843">
        <ele>210.384286</ele>
        <time>2026-08-28T16:43:51Z</time>
      </trkpt>
      <trkpt lat="43.70653" lon="1.58841">
        <ele>210.518342</ele>
        <time>2026-08-28T16:43:52Z</time>
      </trkpt>
      <trkpt lat="43.70651" lon="1.58839">
        <ele>210.649933</ele>
        <time>2026-08-28T16:43:53Z</time>
      </trkpt>
      <trkpt lat="43.70649" lon="1.58837">
        <ele>210.775686</ele>
        <time>2026-08-28T16:43:54Z</time>
      </trkpt>
      <trkpt lat="43.70646" lon="1.58835">
        <ele>210.917256</ele>
        <time>2026-08-28T16:43:55Z</time>
      </trkpt>
      <trkpt lat="43.70643" lon="1.58833">
        <ele>211.069926</ele>
        <time>2026-08-28T16:43:56Z</time>
      </trkpt>
      <trkpt lat="43.70641" lon="1.5883">
        <ele>211.230508</ele>
        <time>2026-08-28T16:43:57Z</time>
      </trkpt>
      <trkpt lat="43.70638" lon="1.58828">
        <ele>211.371435</ele>
        <time>2026-08-28T16:43:58Z</time>
      </trkpt>
      <trkpt lat="43.70636" lon="1.58825">
        <ele>211.530372</ele>
        <time>2026-08-28T16:43:59Z</time>
      </trkpt>
      <trkpt lat="43.70633" lon="1.58822">
        <ele>211.660936</ele>
        <time>2026-08-28T16:44:00Z</time>
      </trkpt>
      <trkpt lat="43.70631" lon="1.5882">
        <ele>211.792591</ele>
        <time>2026-08-28T16:44:01Z</time>
      </trkpt>
      <trkpt lat="43.70628" lon="1.58818">
        <ele>211.933622</ele>
        <time>2026-08-28T16:44:02Z</time>
      </trkpt>
      <trkpt lat="43.70627" lon="1.58816">
        <ele>212.040759</ele>
        <time>2026-08-28T16:44:03Z</time>
      </trkpt>
      <trkpt lat="43.70624" lon="1.58814">
        <ele>212.158405</ele>
        <time>2026-08-28T16:44:04Z</time>
      </trkpt>
      <trkpt lat="43.70622" lon="1.58813">
        <ele>212.263984</ele>
        <time>2026-08-28T16:44:05Z</time>
      </trkpt>
      <trkpt lat="43.7062" lon="1.58811">
        <ele>212.362359</ele>
        <time>2026-08-28T16:44:06Z</time>
      </trkpt>
      <trkpt lat="43.70618" lon="1.5881">
        <ele>212.466324</ele>
        <time>2026-08-28T16:44:07Z</time>
      </trkpt>
      <trkpt lat="43.70616" lon="1.58808">
        <ele>212.572852</ele>
        <time>2026-08-28T16:44:08Z</time>
      </trkpt>
      <trkpt lat="43.70614" lon="1.58807">
        <ele>212.679381</ele>
        <time>2026-08-28T16:44:09Z</time>
      </trkpt>
      <trkpt lat="43.70612" lon="1.58805">
        <ele>212.787384</ele>
        <time>2026-08-28T16:44:10Z</time>
      </trkpt>
      <trkpt lat="43.7061" lon="1.58804">
        <ele>212.894655</ele>
        <time>2026-08-28T16:44:11Z</time>
      </trkpt>
      <trkpt lat="43.70608" lon="1.58802">
        <ele>213.01307</ele>
        <time>2026-08-28T16:44:12Z</time>
      </trkpt>
      <trkpt lat="43.70606" lon="1.588">
        <ele>213.118648</ele>
        <time>2026-08-28T16:44:13Z</time>
      </trkpt>
      <trkpt lat="43.70604" lon="1.58798">
        <ele>213.239028</ele>
        <time>2026-08-28T16:44:14Z</time>
      </trkpt>
      <trkpt lat="43.70601" lon="1.58796">
        <ele>213.367821</ele>
        <time>2026-08-28T16:44:15Z</time>
      </trkpt>
      <trkpt lat="43.70599" lon="1.58794">
        <ele>213.488171</ele>
        <time>2026-08-28T16:44:16Z</time>
      </trkpt>
      <trkpt lat="43.70596" lon="1.58793">
        <ele>213.616795</ele>
        <time>2026-08-28T16:44:17Z</time>
      </trkpt>
      <trkpt lat="43.70594" lon="1.58793">
        <ele>213.732746</ele>
        <time>2026-08-28T16:44:18Z</time>
      </trkpt>
      <trkpt lat="43.70591" lon="1.58793">
        <ele>213.851606</ele>
        <time>2026-08-28T16:44:19Z</time>
      </trkpt>
      <trkpt lat="43.70589" lon="1.58793">
        <ele>213.971153</ele>
        <time>2026-08-28T16:44:20Z</time>
      </trkpt>
      <trkpt lat="43.70586" lon="1.58794">
        <ele>214.093631</ele>
        <time>2026-08-28T16:44:21Z</time>
      </trkpt>
      <trkpt lat="43.70584" lon="1.58796">
        <ele>214.213981</ele>
        <time>2026-08-28T16:44:22Z</time>
      </trkpt>
      <trkpt lat="43.70581" lon="1.58798">
        <ele>214.336401</ele>
        <time>2026-08-28T16:44:23Z</time>
      </trkpt>
      <trkpt lat="43.70579" lon="1.588">
        <ele>214.462418</ele>
        <time>2026-08-28T16:44:24Z</time>
      </trkpt>
      <trkpt lat="43.70577" lon="1.58802">
        <ele>214.582249</ele>
        <time>2026-08-28T16:44:25Z</time>
      </trkpt>
      <trkpt lat="43.70575" lon="1.58805">
        <ele>214.710285</ele>
        <time>2026-08-28T16:44:26Z</time>
      </trkpt>
      <trkpt lat="43.70573" lon="1.58807">
        <ele>214.848135</ele>
        <time>2026-08-28T16:44:27Z</time>
      </trkpt>
      <trkpt lat="43.7057" lon="1.5881">
        <ele>214.982534</ele>
        <time>2026-08-28T16:44:28Z</time>
      </trkpt>
      <trkpt lat="43.70568" lon="1.58813">
        <ele>215.130352</ele>
        <time>2026-08-28T16:44:29Z</time>
      </trkpt>
      <trkpt lat="43.70566" lon="1.58816">
        <ele>215.271718</ele>
        <time>2026-08-28T16:44:30Z</time>
      </trkpt>
      <trkpt lat="43.70563" lon="1.58819">
        <ele>215.420789</ele>
        <time>2026-08-28T16:44:31Z</time>
      </trkpt>
      <trkpt lat="43.70561" lon="1.58822">
        <ele>215.563003</ele>
        <time>2026-08-28T16:44:32Z</time>
      </trkpt>
      <trkpt lat="43.70559" lon="1.58825">
        <ele>215.713057</ele>
        <time>2026-08-28T16:44:33Z</time>
      </trkpt>
      <trkpt lat="43.70556" lon="1.58828">
        <ele>215.865683</ele>
        <time>2026-08-28T16:44:34Z</time>
      </trkpt>
      <trkpt lat="43.70554" lon="1.58831">
        <ele>216.005694</ele>
        <time>2026-08-28T16:44:35Z</time>
      </trkpt>
      <trkpt lat="43.70552" lon="1.58834">
        <ele>216.140509</ele>
        <time>2026-08-28T16:44:36Z</time>
      </trkpt>
      <trkpt lat="43.70549" lon="1.58837">
        <ele>216.286133</ele>
        <time>2026-08-28T16:44:37Z</time>
      </trkpt>
      <trkpt lat="43.70547" lon="1.58839">
        <ele>216.42187</ele>
        <time>2026-08-28T16:44:38Z</time>
      </trkpt>
      <trkpt lat="43.70545" lon="1.58842">
        <ele>216.565379</ele>
        <time>2026-08-28T16:44:39Z</time>
      </trkpt>
      <trkpt lat="43.70543" lon="1.58846">
        <ele>216.719206</ele>
        <time>2026-08-28T16:44:40Z</time>
      </trkpt>
      <trkpt lat="43.7054" lon="1.5885">
        <ele>216.885477</ele>
        <time>2026-08-28T16:44:41Z</time>
      </trkpt>
      <trkpt lat="43.70538" lon="1.58853">
        <ele>217.047254</ele>
        <time>2026-08-28T16:44:42Z</time>
      </trkpt>
      <trkpt lat="43.70535" lon="1.58857">
        <ele>217.221934</ele>
        <time>2026-08-28T16:44:43Z</time>
      </trkpt>
      <trkpt lat="43.70533" lon="1.58861">
        <ele>217.380198</ele>
        <time>2026-08-28T16:44:44Z</time>
      </trkpt>
      <trkpt lat="43.70531" lon="1.58865">
        <ele>217.53282</ele>
        <time>2026-08-28T16:44:45Z</time>
      </trkpt>
      <trkpt lat="43.70529" lon="1.58868">
        <ele>217.677421</ele>
        <time>2026-08-28T16:44:46Z</time>
      </trkpt>
      <trkpt lat="43.70528" lon="1.58872">
        <ele>217.823358</ele>
        <time>2026-08-28T16:44:47Z</time>
      </trkpt>
      <trkpt lat="43.70527" lon="1.58876">
        <ele>217.964737</ele>
        <time>2026-08-28T16:44:48Z</time>
      </trkpt>
      <trkpt lat="43.70525" lon="1.5888">
        <ele>218.128158</ele>
        <time>2026-08-28T16:44:49Z</time>
      </trkpt>
      <trkpt lat="43.70522" lon="1.58884">
        <ele>218.288987</ele>
        <time>2026-08-28T16:44:50Z</time>
      </trkpt>
      <trkpt lat="43.7052" lon="1.58888">
        <ele>218.450193</ele>
        <time>2026-08-28T16:44:51Z</time>
      </trkpt>
      <trkpt lat="43.70518" lon="1.58891">
        <ele>218.611971</ele>
        <time>2026-08-28T16:44:52Z</time>
      </trkpt>
      <trkpt lat="43.70516" lon="1.58895">
        <ele>218.772621</ele>
        <time>2026-08-28T16:44:53Z</time>
      </trkpt>
      <trkpt lat="43.70514" lon="1.58899">
        <ele>218.939637</ele>
        <time>2026-08-28T16:44:54Z</time>
      </trkpt>
      <trkpt lat="43.70512" lon="1.58904">
        <ele>219.111338</ele>
        <time>2026-08-28T16:44:55Z</time>
      </trkpt>
      <trkpt lat="43.7051" lon="1.58908">
        <ele>219.277483</ele>
        <time>2026-08-28T16:44:56Z</time>
      </trkpt>
      <trkpt lat="43.70508" lon="1.58912">
        <ele>219.443479</ele>
        <time>2026-08-28T16:44:57Z</time>
      </trkpt>
      <trkpt lat="43.70506" lon="1.58916">
        <ele>219.601593</ele>
        <time>2026-08-28T16:44:58Z</time>
      </trkpt>
      <trkpt lat="43.70504" lon="1.5892">
        <ele>219.767631</ele>
        <time>2026-08-28T16:44:59Z</time>
      </trkpt>
      <trkpt lat="43.70501" lon="1.58924">
        <ele>219.86099</ele>
        <time>2026-08-28T16:45:00Z</time>
      </trkpt>
      <trkpt lat="43.70499" lon="1.58928">
        <ele>219.958799</ele>
        <time>2026-08-28T16:45:01Z</time>
      </trkpt>
      <trkpt lat="43.70497" lon="1.58932">
        <ele>220.06128</ele>
        <time>2026-08-28T16:45:02Z</time>
      </trkpt>
      <trkpt lat="43.70495" lon="1.58936">
        <ele>220.162568</ele>
        <time>2026-08-28T16:45:03Z</time>
      </trkpt>
      <trkpt lat="43.70492" lon="1.58941">
        <ele>220.272808</ele>
        <time>2026-08-28T16:45:04Z</time>
      </trkpt>
      <trkpt lat="43.7049" lon="1.58946">
        <ele>220.381528</ele>
        <time>2026-08-28T16:45:05Z</time>
      </trkpt>
      <trkpt lat="43.70488" lon="1.5895">
        <ele>220.484008</ele>
        <time>2026-08-28T16:45:06Z</time>
      </trkpt>
      <trkpt lat="43.70485" lon="1.58954">
        <ele>220.580261</ele>
        <time>2026-08-28T16:45:07Z</time>
      </trkpt>
      <trkpt lat="43.70483" lon="1.58958">
        <ele>220.673426</ele>
        <time>2026-08-28T16:45:08Z</time>
      </trkpt>
      <trkpt lat="43.70481" lon="1.58962">
        <ele>220.768362</ele>
        <time>2026-08-28T16:45:09Z</time>
      </trkpt>
      <trkpt lat="43.70479" lon="1.58966">
        <ele>220.869294</ele>
        <time>2026-08-28T16:45:10Z</time>
      </trkpt>
      <trkpt lat="43.70477" lon="1.5897">
        <ele>220.965547</ele>
        <time>2026-08-28T16:45:11Z</time>
      </trkpt>
      <trkpt lat="43.70474" lon="1.58975">
        <ele>221.071116</ele>
        <time>2026-08-28T16:45:12Z</time>
      </trkpt>
      <trkpt lat="43.70472" lon="1.58979">
        <ele>221.17878</ele>
        <time>2026-08-28T16:45:13Z</time>
      </trkpt>
      <trkpt lat="43.70469" lon="1.58983">
        <ele>221.289638</ele>
        <time>2026-08-28T16:45:14Z</time>
      </trkpt>
      <trkpt lat="43.70466" lon="1.58987">
        <ele>221.396811</ele>
        <time>2026-08-28T16:45:15Z</time>
      </trkpt>
      <trkpt lat="43.70463" lon="1.58991">
        <ele>221.505901</ele>
        <time>2026-08-28T16:45:16Z</time>
      </trkpt>
      <trkpt lat="43.7046" lon="1.58995">
        <ele>221.614395</ele>
        <time>2026-08-28T16:45:17Z</time>
      </trkpt>
      <trkpt lat="43.70457" lon="1.58998">
        <ele>221.719632</ele>
        <time>2026-08-28T16:45:18Z</time>
      </trkpt>
      <trkpt lat="43.70454" lon="1.59002">
        <ele>221.811849</ele>
        <time>2026-08-28T16:45:19Z</time>
      </trkpt>
      <trkpt lat="43.70452" lon="1.59005">
        <ele>221.904827</ele>
        <time>2026-08-28T16:45:20Z</time>
      </trkpt>
      <trkpt lat="43.70449" lon="1.59008">
        <ele>221.991282</ele>
        <time>2026-08-28T16:45:21Z</time>
      </trkpt>
      <trkpt lat="43.70447" lon="1.5901">
        <ele>222.075326</ele>
        <time>2026-08-28T16:45:22Z</time>
      </trkpt>
      <trkpt lat="43.70444" lon="1.59013">
        <ele>222.154542</ele>
        <time>2026-08-28T16:45:23Z</time>
      </trkpt>
      <trkpt lat="43.70442" lon="1.59016">
        <ele>222.243507</ele>
        <time>2026-08-28T16:45:24Z</time>
      </trkpt>
      <trkpt lat="43.70439" lon="1.5902">
        <ele>222.348046</ele>
        <time>2026-08-28T16:45:25Z</time>
      </trkpt>
      <trkpt lat="43.70436" lon="1.59024">
        <ele>222.447415</ele>
        <time>2026-08-28T16:45:26Z</time>
      </trkpt>
      <trkpt lat="43.70434" lon="1.59028">
        <ele>222.553118</ele>
        <time>2026-08-28T16:45:27Z</time>
      </trkpt>
      <trkpt lat="43.70432" lon="1.59033">
        <ele>222.658959</ele>
        <time>2026-08-28T16:45:28Z</time>
      </trkpt>
      <trkpt lat="43.7043" lon="1.59037">
        <ele>222.768077</ele>
        <time>2026-08-28T16:45:29Z</time>
      </trkpt>
      <trkpt lat="43.70428" lon="1.59042">
        <ele>222.875868</ele>
        <time>2026-08-28T16:45:30Z</time>
      </trkpt>
      <trkpt lat="43.70426" lon="1.59047">
        <ele>222.974046</ele>
        <time>2026-08-28T16:45:31Z</time>
      </trkpt>
      <trkpt lat="43.70424" lon="1.59052">
        <ele>223.079516</ele>
        <time>2026-08-28T16:45:32Z</time>
      </trkpt>
      <trkpt lat="43.70422" lon="1.59057">
        <ele>223.187722</ele>
        <time>2026-08-28T16:45:33Z</time>
      </trkpt>
      <trkpt lat="43.7042" lon="1.59062">
        <ele>223.297185</ele>
        <time>2026-08-28T16:45:34Z</time>
      </trkpt>
      <trkpt lat="43.70419" lon="1.59067">
        <ele>223.403029</ele>
        <time>2026-08-28T16:45:35Z</time>
      </trkpt>
      <trkpt lat="43.70417" lon="1.59072">
        <ele>223.505418</ele>
        <time>2026-08-28T16:45:36Z</time>
      </trkpt>
      <trkpt lat="43.70415" lon="1.59076">
        <ele>223.607808</ele>
        <time>2026-08-28T16:45:37Z</time>
      </trkpt>
      <trkpt lat="43.70414" lon="1.59081">
        <ele>223.697059</ele>
        <time>2026-08-28T16:45:38Z</time>
      </trkpt>
      <trkpt lat="43.70412" lon="1.59085">
        <ele>223.786343</ele>
        <time>2026-08-28T16:45:39Z</time>
      </trkpt>
      <trkpt lat="43.70411" lon="1.59089">
        <ele>223.878431</ele>
        <time>2026-08-28T16:45:40Z</time>
      </trkpt>
      <trkpt lat="43.7041" lon="1.59094">
        <ele>223.96877</ele>
        <time>2026-08-28T16:45:41Z</time>
      </trkpt>
      <trkpt lat="43.70408" lon="1.59098">
        <ele>224.051729</ele>
        <time>2026-08-28T16:45:42Z</time>
      </trkpt>
      <trkpt lat="43.70407" lon="1.59102">
        <ele>224.142782</ele>
        <time>2026-08-28T16:45:43Z</time>
      </trkpt>
      <trkpt lat="43.70406" lon="1.59106">
        <ele>224.233121</ele>
        <time>2026-08-28T16:45:44Z</time>
      </trkpt>
      <trkpt lat="43.70404" lon="1.5911">
        <ele>224.319981</ele>
        <time>2026-08-28T16:45:45Z</time>
      </trkpt>
      <trkpt lat="43.70403" lon="1.59115">
        <ele>224.409264</ele>
        <time>2026-08-28T16:45:46Z</time>
      </trkpt>
      <trkpt lat="43.70402" lon="1.59119">
        <ele>224.501352</ele>
        <time>2026-08-28T16:45:47Z</time>
      </trkpt>
      <trkpt lat="43.704" lon="1.59123">
        <ele>224.622655</ele>
        <time>2026-08-28T16:45:48Z</time>
      </trkpt>
      <trkpt lat="43.70398" lon="1.59128">
        <ele>224.75406</ele>
        <time>2026-08-28T16:45:49Z</time>
      </trkpt>
      <trkpt lat="43.70396" lon="1.59132">
        <ele>224.882555</ele>
        <time>2026-08-28T16:45:50Z</time>
      </trkpt>
      <trkpt lat="43.70395" lon="1.59136">
        <ele>225.005515</ele>
        <time>2026-08-28T16:45:51Z</time>
      </trkpt>
      <trkpt lat="43.70394" lon="1.5914">
        <ele>225.128475</ele>
        <time>2026-08-28T16:45:52Z</time>
      </trkpt>
      <trkpt lat="43.70392" lon="1.59145">
        <ele>225.262202</ele>
        <time>2026-08-28T16:45:53Z</time>
      </trkpt>
      <trkpt lat="43.70391" lon="1.59149">
        <ele>225.395126</ele>
        <time>2026-08-28T16:45:54Z</time>
      </trkpt>
      <trkpt lat="43.70389" lon="1.59153">
        <ele>225.528468</ele>
        <time>2026-08-28T16:45:55Z</time>
      </trkpt>
      <trkpt lat="43.70387" lon="1.59158">
        <ele>225.650502</ele>
        <time>2026-08-28T16:45:56Z</time>
      </trkpt>
      <trkpt lat="43.70386" lon="1.59162">
        <ele>225.770108</ele>
        <time>2026-08-28T16:45:57Z</time>
      </trkpt>
      <trkpt lat="43.70384" lon="1.59165">
        <ele>225.886142</ele>
        <time>2026-08-28T16:45:58Z</time>
      </trkpt>
      <trkpt lat="43.70383" lon="1.59169">
        <ele>226.000309</ele>
        <time>2026-08-28T16:45:59Z</time>
      </trkpt>
      <trkpt lat="43.70381" lon="1.59173">
        <ele>226.128998</ele>
        <time>2026-08-28T16:46:00Z</time>
      </trkpt>
      <trkpt lat="43.70379" lon="1.59177">
        <ele>226.255803</ele>
        <time>2026-08-28T16:46:01Z</time>
      </trkpt>
      <trkpt lat="43.70377" lon="1.59181">
        <ele>226.38014</ele>
        <time>2026-08-28T16:46:02Z</time>
      </trkpt>
      <trkpt lat="43.70375" lon="1.59184">
        <ele>226.48997</ele>
        <time>2026-08-28T16:46:03Z</time>
      </trkpt>
      <trkpt lat="43.70373" lon="1.59187">
        <ele>226.614318</ele>
        <time>2026-08-28T16:46:04Z</time>
      </trkpt>
      <trkpt lat="43.70371" lon="1.59191">
        <ele>226.747433</ele>
        <time>2026-08-28T16:46:05Z</time>
      </trkpt>
      <trkpt lat="43.70369" lon="1.59195">
        <ele>226.864346</ele>
        <time>2026-08-28T16:46:06Z</time>
      </trkpt>
      <trkpt lat="43.70367" lon="1.59197">
        <ele>226.978409</ele>
        <time>2026-08-28T16:46:07Z</time>
      </trkpt>
      <trkpt lat="43.70364" lon="1.59201">
        <ele>227.118018</ele>
        <time>2026-08-28T16:46:08Z</time>
      </trkpt>
      <trkpt lat="43.70361" lon="1.59203">
        <ele>227.24523</ele>
        <time>2026-08-28T16:46:09Z</time>
      </trkpt>
      <trkpt lat="43.70358" lon="1.59206">
        <ele>227.371639</ele>
        <time>2026-08-28T16:46:10Z</time>
      </trkpt>
      <trkpt lat="43.70355" lon="1.59207">
        <ele>227.505881</ele>
        <time>2026-08-28T16:46:11Z</time>
      </trkpt>
      <trkpt lat="43.70351" lon="1.59207">
        <ele>227.633483</ele>
        <time>2026-08-28T16:46:12Z</time>
      </trkpt>
      <trkpt lat="43.70348" lon="1.59208">
        <ele>227.767748</ele>
        <time>2026-08-28T16:46:13Z</time>
      </trkpt>
      <trkpt lat="43.70345" lon="1.59207">
        <ele>227.883657</ele>
        <time>2026-08-28T16:46:14Z</time>
      </trkpt>
      <trkpt lat="43.70342" lon="1.59206">
        <ele>228.000694</ele>
        <time>2026-08-28T16:46:15Z</time>
      </trkpt>
      <trkpt lat="43.70338" lon="1.59206">
        <ele>228.127727</ele>
        <time>2026-08-28T16:46:16Z</time>
      </trkpt>
      <trkpt lat="43.70335" lon="1.59204">
        <ele>228.256228</ele>
        <time>2026-08-28T16:46:17Z</time>
      </trkpt>
      <trkpt lat="43.70332" lon="1.59203">
        <ele>228.376922</ele>
        <time>2026-08-28T16:46:18Z</time>
      </trkpt>
      <trkpt lat="43.70329" lon="1.592">
        <ele>228.512152</ele>
        <time>2026-08-28T16:46:19Z</time>
      </trkpt>
      <trkpt lat="43.70325" lon="1.59198">
        <ele>228.663342</ele>
        <time>2026-08-28T16:46:20Z</time>
      </trkpt>
      <trkpt lat="43.70322" lon="1.59196">
        <ele>228.786474</ele>
        <time>2026-08-28T16:46:21Z</time>
      </trkpt>
      <trkpt lat="43.70319" lon="1.59194">
        <ele>228.904807</ele>
        <time>2026-08-28T16:46:22Z</time>
      </trkpt>
      <trkpt lat="43.70316" lon="1.59192">
        <ele>229.016388</ele>
        <time>2026-08-28T16:46:23Z</time>
      </trkpt>
      <trkpt lat="43.70314" lon="1.5919">
        <ele>229.129855</ele>
        <time>2026-08-28T16:46:24Z</time>
      </trkpt>
      <trkpt lat="43.70311" lon="1.59188">
        <ele>229.236918</ele>
        <time>2026-08-28T16:46:25Z</time>
      </trkpt>
      <trkpt lat="43.70309" lon="1.59186">
        <ele>229.338554</ele>
        <time>2026-08-28T16:46:26Z</time>
      </trkpt>
      <trkpt lat="43.70307" lon="1.59184">
        <ele>229.425221</ele>
        <time>2026-08-28T16:46:27Z</time>
      </trkpt>
      <trkpt lat="43.70305" lon="1.59182">
        <ele>229.529324</ele>
        <time>2026-08-28T16:46:28Z</time>
      </trkpt>
      <trkpt lat="43.70302" lon="1.5918">
        <ele>229.631874</ele>
        <time>2026-08-28T16:46:29Z</time>
      </trkpt>
      <trkpt lat="43.70299" lon="1.59178">
        <ele>229.755853</ele>
        <time>2026-08-28T16:46:30Z</time>
      </trkpt>
      <trkpt lat="43.70296" lon="1.59176">
        <ele>229.885495</ele>
        <time>2026-08-28T16:46:31Z</time>
      </trkpt>
      <trkpt lat="43.70293" lon="1.59175">
        <ele>230.021025</ele>
        <time>2026-08-28T16:46:32Z</time>
      </trkpt>
      <trkpt lat="43.70289" lon="1.59173">
        <ele>230.164564</ele>
        <time>2026-08-28T16:46:33Z</time>
      </trkpt>
      <trkpt lat="43.70285" lon="1.59173">
        <ele>230.321754</ele>
        <time>2026-08-28T16:46:34Z</time>
      </trkpt>
      <trkpt lat="43.70281" lon="1.59173">
        <ele>230.481926</ele>
        <time>2026-08-28T16:46:35Z</time>
      </trkpt>
      <trkpt lat="43.70276" lon="1.59174">
        <ele>230.64702</ele>
        <time>2026-08-28T16:46:36Z</time>
      </trkpt>
      <trkpt lat="43.70272" lon="1.59176">
        <ele>230.807273</ele>
        <time>2026-08-28T16:46:37Z</time>
      </trkpt>
      <trkpt lat="43.70268" lon="1.59179">
        <ele>230.97016</ele>
        <time>2026-08-28T16:46:38Z</time>
      </trkpt>
      <trkpt lat="43.70265" lon="1.59183">
        <ele>231.130939</ele>
        <time>2026-08-28T16:46:39Z</time>
      </trkpt>
      <trkpt lat="43.70261" lon="1.59187">
        <ele>231.210621</ele>
        <time>2026-08-28T16:46:40Z</time>
      </trkpt>
      <trkpt lat="43.70258" lon="1.59191">
        <ele>231.150603</ele>
        <time>2026-08-28T16:46:41Z</time>
      </trkpt>
      <trkpt lat="43.70254" lon="1.59195">
        <ele>231.089946</ele>
        <time>2026-08-28T16:46:42Z</time>
      </trkpt>
      <trkpt lat="43.70251" lon="1.59199">
        <ele>231.027674</ele>
        <time>2026-08-28T16:46:43Z</time>
      </trkpt>
      <trkpt lat="43.70248" lon="1.59203">
        <ele>230.968907</ele>
        <time>2026-08-28T16:46:44Z</time>
      </trkpt>
      <trkpt lat="43.70244" lon="1.59208">
        <ele>230.910504</ele>
        <time>2026-08-28T16:46:45Z</time>
      </trkpt>
      <trkpt lat="43.70241" lon="1.59212">
        <ele>230.852237</ele>
        <time>2026-08-28T16:46:46Z</time>
      </trkpt>
      <trkpt lat="43.70238" lon="1.59216">
        <ele>230.79158</ele>
        <time>2026-08-28T16:46:47Z</time>
      </trkpt>
      <trkpt lat="43.70235" lon="1.59221">
        <ele>230.73284</ele>
        <time>2026-08-28T16:46:48Z</time>
      </trkpt>
      <trkpt lat="43.70231" lon="1.59225">
        <ele>230.670569</ele>
        <time>2026-08-28T16:46:49Z</time>
      </trkpt>
      <trkpt lat="43.70228" lon="1.59229">
        <ele>230.608561</ele>
        <time>2026-08-28T16:46:50Z</time>
      </trkpt>
      <trkpt lat="43.70224" lon="1.59234">
        <ele>230.543919</ele>
        <time>2026-08-28T16:46:51Z</time>
      </trkpt>
      <trkpt lat="43.7022" lon="1.59238">
        <ele>230.478671</ele>
        <time>2026-08-28T16:46:52Z</time>
      </trkpt>
      <trkpt lat="43.70216" lon="1.59243">
        <ele>230.409568</ele>
        <time>2026-08-28T16:46:53Z</time>
      </trkpt>
      <trkpt lat="43.70212" lon="1.59247">
        <ele>230.339144</ele>
        <time>2026-08-28T16:46:54Z</time>
      </trkpt>
      <trkpt lat="43.70207" lon="1.59251">
        <ele>230.268212</ele>
        <time>2026-08-28T16:46:55Z</time>
      </trkpt>
      <trkpt lat="43.70202" lon="1.59255">
        <ele>230.192634</ele>
        <time>2026-08-28T16:46:56Z</time>
      </trkpt>
      <trkpt lat="43.70197" lon="1.5926">
        <ele>230.110251</ele>
        <time>2026-08-28T16:46:57Z</time>
      </trkpt>
      <trkpt lat="43.70191" lon="1.59264">
        <ele>230.024767</ele>
        <time>2026-08-28T16:46:58Z</time>
      </trkpt>
      <trkpt lat="43.70185" lon="1.59268">
        <ele>229.938123</ele>
        <time>2026-08-28T16:46:59Z</time>
      </trkpt>
      <trkpt lat="43.7018" lon="1.59273">
        <ele>229.852638</ele>
        <time>2026-08-28T16:47:00Z</time>
      </trkpt>
      <trkpt lat="43.70174" lon="1.59277">
        <ele>229.76508</ele>
        <time>2026-08-28T16:47:01Z</time>
      </trkpt>
      <trkpt lat="43.70168" lon="1.59282">
        <ele>229.676089</ele>
        <time>2026-08-28T16:47:02Z</time>
      </trkpt>
      <trkpt lat="43.70163" lon="1.59287">
        <ele>229.589953</ele>
        <time>2026-08-28T16:47:03Z</time>
      </trkpt>
      <trkpt lat="43.70157" lon="1.59292">
        <ele>229.503709</ele>
        <time>2026-08-28T16:47:04Z</time>
      </trkpt>
      <trkpt lat="43.70151" lon="1.59296">
        <ele>229.416968</ele>
        <time>2026-08-28T16:47:05Z</time>
      </trkpt>
      <trkpt lat="43.70146" lon="1.59302">
        <ele>229.33196</ele>
        <time>2026-08-28T16:47:06Z</time>
      </trkpt>
      <trkpt lat="43.70141" lon="1.59306">
        <ele>229.249117</ele>
        <time>2026-08-28T16:47:07Z</time>
      </trkpt>
      <trkpt lat="43.70136" lon="1.59311">
        <ele>229.169507</ele>
        <time>2026-08-28T16:47:08Z</time>
      </trkpt>
      <trkpt lat="43.70131" lon="1.59316">
        <ele>229.088272</ele>
        <time>2026-08-28T16:47:09Z</time>
      </trkpt>
      <trkpt lat="43.70126" lon="1.59322">
        <ele>229.004749</ele>
        <time>2026-08-28T16:47:10Z</time>
      </trkpt>
      <trkpt lat="43.70121" lon="1.59327">
        <ele>228.92226</ele>
        <time>2026-08-28T16:47:11Z</time>
      </trkpt>
      <trkpt lat="43.70116" lon="1.59332">
        <ele>228.855769</ele>
        <time>2026-08-28T16:47:12Z</time>
      </trkpt>
      <trkpt lat="43.70112" lon="1.59337">
        <ele>228.820009</ele>
        <time>2026-08-28T16:47:13Z</time>
      </trkpt>
      <trkpt lat="43.70107" lon="1.59342">
        <ele>228.783025</ele>
        <time>2026-08-28T16:47:14Z</time>
      </trkpt>
      <trkpt lat="43.70102" lon="1.59348">
        <ele>228.746516</ele>
        <time>2026-08-28T16:47:15Z</time>
      </trkpt>
      <trkpt lat="43.70098" lon="1.59353">
        <ele>228.712156</ele>
        <time>2026-08-28T16:47:16Z</time>
      </trkpt>
      <trkpt lat="43.70093" lon="1.59357">
        <ele>228.676976</ele>
        <time>2026-08-28T16:47:17Z</time>
      </trkpt>
      <trkpt lat="43.70089" lon="1.59362">
        <ele>228.642771</ele>
        <time>2026-08-28T16:47:18Z</time>
      </trkpt>
      <trkpt lat="43.70085" lon="1.59367">
        <ele>228.610545</ele>
        <time>2026-08-28T16:47:19Z</time>
      </trkpt>
      <trkpt lat="43.70081" lon="1.59371">
        <ele>228.581039</ele>
        <time>2026-08-28T16:47:20Z</time>
      </trkpt>
      <trkpt lat="43.70078" lon="1.59375">
        <ele>228.556201</ele>
        <time>2026-08-28T16:47:21Z</time>
      </trkpt>
      <trkpt lat="43.70076" lon="1.59379">
        <ele>228.53416</ele>
        <time>2026-08-28T16:47:22Z</time>
      </trkpt>
      <trkpt lat="43.70075" lon="1.59383">
        <ele>228.51213</ele>
        <time>2026-08-28T16:47:23Z</time>
      </trkpt>
      <trkpt lat="43.70076" lon="1.59389">
        <ele>228.48837</ele>
        <time>2026-08-28T16:47:24Z</time>
      </trkpt>
      <trkpt lat="43.70078" lon="1.59394">
        <ele>228.462925</ele>
        <time>2026-08-28T16:47:25Z</time>
      </trkpt>
      <trkpt lat="43.7008" lon="1.59399">
        <ele>228.437945</ele>
        <time>2026-08-28T16:47:26Z</time>
      </trkpt>
      <trkpt lat="43.70082" lon="1.59404">
        <ele>228.411211</ele>
        <time>2026-08-28T16:47:27Z</time>
      </trkpt>
      <trkpt lat="43.70084" lon="1.59409">
        <ele>228.385542</ele>
        <time>2026-08-28T16:47:28Z</time>
      </trkpt>
      <trkpt lat="43.70086" lon="1.59414">
        <ele>228.361161</ele>
        <time>2026-08-28T16:47:29Z</time>
      </trkpt>
      <trkpt lat="43.70087" lon="1.59419">
        <ele>228.338271</ele>
        <time>2026-08-28T16:47:30Z</time>
      </trkpt>
      <trkpt lat="43.70089" lon="1.59424">
        <ele>228.315583</ele>
        <time>2026-08-28T16:47:31Z</time>
      </trkpt>
      <trkpt lat="43.7009" lon="1.59429">
        <ele>228.292247</ele>
        <time>2026-08-28T16:47:32Z</time>
      </trkpt>
      <trkpt lat="43.70092" lon="1.59433">
        <ele>228.268922</ele>
        <time>2026-08-28T16:47:33Z</time>
      </trkpt>
      <trkpt lat="43.70093" lon="1.59438">
        <ele>228.245343</ele>
        <time>2026-08-28T16:47:34Z</time>
      </trkpt>
      <trkpt lat="43.70095" lon="1.59443">
        <ele>228.222864</ele>
        <time>2026-08-28T16:47:35Z</time>
      </trkpt>
      <trkpt lat="43.70096" lon="1.59448">
        <ele>228.199974</ele>
        <time>2026-08-28T16:47:36Z</time>
      </trkpt>
      <trkpt lat="43.70097" lon="1.59453">
        <ele>228.17564</ele>
        <time>2026-08-28T16:47:37Z</time>
      </trkpt>
      <trkpt lat="43.70099" lon="1.59458">
        <ele>228.1523</ele>
        <time>2026-08-28T16:47:38Z</time>
      </trkpt>
      <trkpt lat="43.701" lon="1.59464">
        <ele>228.127554</ele>
        <time>2026-08-28T16:47:39Z</time>
      </trkpt>
      <trkpt lat="43.70101" lon="1.59469">
        <ele>228.101761</ele>
        <time>2026-08-28T16:47:40Z</time>
      </trkpt>
      <trkpt lat="43.70103" lon="1.59475">
        <ele>228.074314</ele>
        <time>2026-08-28T16:47:41Z</time>
      </trkpt>
      <trkpt lat="43.70105" lon="1.59481">
        <ele>228.047274</ele>
        <time>2026-08-28T16:47:42Z</time>
      </trkpt>
      <trkpt lat="43.70107" lon="1.59486">
        <ele>228.020145</ele>
        <time>2026-08-28T16:47:43Z</time>
      </trkpt>
      <trkpt lat="43.70108" lon="1.59492">
        <ele>227.994552</ele>
        <time>2026-08-28T16:47:44Z</time>
      </trkpt>
      <trkpt lat="43.7011" lon="1.59497">
        <ele>227.967538</ele>
        <time>2026-08-28T16:47:45Z</time>
      </trkpt>
      <trkpt lat="43.70111" lon="1.59504">
        <ele>227.93845</ele>
        <time>2026-08-28T16:47:46Z</time>
      </trkpt>
      <trkpt lat="43.70112" lon="1.5951">
        <ele>227.909297</ele>
        <time>2026-08-28T16:47:47Z</time>
      </trkpt>
      <trkpt lat="43.70114" lon="1.59517">
        <ele>227.879374</ele>
        <time>2026-08-28T16:47:48Z</time>
      </trkpt>
      <trkpt lat="43.70116" lon="1.59523">
        <ele>227.848029</ele>
        <time>2026-08-28T16:47:49Z</time>
      </trkpt>
      <trkpt lat="43.70118" lon="1.5953">
        <ele>227.815447</ele>
        <time>2026-08-28T16:47:50Z</time>
      </trkpt>
      <trkpt lat="43.70119" lon="1.59537">
        <ele>227.783278</ele>
        <time>2026-08-28T16:47:51Z</time>
      </trkpt>
      <trkpt lat="43.70121" lon="1.59545">
        <ele>227.706355</ele>
        <time>2026-08-28T16:47:52Z</time>
      </trkpt>
      <trkpt lat="43.70123" lon="1.59552">
        <ele>227.615578</ele>
        <time>2026-08-28T16:47:53Z</time>
      </trkpt>
      <trkpt lat="43.70124" lon="1.59559">
        <ele>227.525442</ele>
        <time>2026-08-28T16:47:54Z</time>
      </trkpt>
      <trkpt lat="43.70126" lon="1.59566">
        <ele>227.434665</ele>
        <time>2026-08-28T16:47:55Z</time>
      </trkpt>
      <trkpt lat="43.70127" lon="1.59574">
        <ele>227.344788</ele>
        <time>2026-08-28T16:47:56Z</time>
      </trkpt>
      <trkpt lat="43.70129" lon="1.59581">
        <ele>227.253006</ele>
        <time>2026-08-28T16:47:57Z</time>
      </trkpt>
      <trkpt lat="43.7013" lon="1.59589">
        <ele>227.158105</ele>
        <time>2026-08-28T16:47:58Z</time>
      </trkpt>
      <trkpt lat="43.70131" lon="1.59597">
        <ele>227.06149</ele>
        <time>2026-08-28T16:47:59Z</time>
      </trkpt>
      <trkpt lat="43.70132" lon="1.59606">
        <ele>226.957832</ele>
        <time>2026-08-28T16:48:00Z</time>
      </trkpt>
      <trkpt lat="43.70133" lon="1.59614">
        <ele>226.851263</ele>
        <time>2026-08-28T16:48:01Z</time>
      </trkpt>
      <trkpt lat="43.70134" lon="1.59623">
        <ele>226.741183</ele>
        <time>2026-08-28T16:48:02Z</time>
      </trkpt>
      <trkpt lat="43.70135" lon="1.59633">
        <ele>226.631882</ele>
        <time>2026-08-28T16:48:03Z</time>
      </trkpt>
      <trkpt lat="43.70136" lon="1.59642">
        <ele>226.52161</ele>
        <time>2026-08-28T16:48:04Z</time>
      </trkpt>
      <trkpt lat="43.70137" lon="1.59651">
        <ele>226.40972</ele>
        <time>2026-08-28T16:48:05Z</time>
      </trkpt>
      <trkpt lat="43.70138" lon="1.59661">
        <ele>226.2917</ele>
        <time>2026-08-28T16:48:06Z</time>
      </trkpt>
      <trkpt lat="43.70139" lon="1.59671">
        <ele>226.170788</ele>
        <time>2026-08-28T16:48:07Z</time>
      </trkpt>
      <trkpt lat="43.70141" lon="1.59681">
        <ele>226.047237</ele>
        <time>2026-08-28T16:48:08Z</time>
      </trkpt>
      <trkpt lat="43.70142" lon="1.59691">
        <ele>225.928041</ele>
        <time>2026-08-28T16:48:09Z</time>
      </trkpt>
      <trkpt lat="43.70143" lon="1.597">
        <ele>225.813547</ele>
        <time>2026-08-28T16:48:10Z</time>
      </trkpt>
      <trkpt lat="43.70144" lon="1.5971">
        <ele>225.69973</ele>
        <time>2026-08-28T16:48:11Z</time>
      </trkpt>
      <trkpt lat="43.70145" lon="1.5972">
        <ele>225.580001</ele>
        <time>2026-08-28T16:48:12Z</time>
      </trkpt>
      <trkpt lat="43.70146" lon="1.5973">
        <ele>225.46126</ele>
        <time>2026-08-28T16:48:13Z</time>
      </trkpt>
      <trkpt lat="43.70147" lon="1.5974">
        <ele>225.341124</ele>
        <time>2026-08-28T16:48:14Z</time>
      </trkpt>
      <trkpt lat="43.70147" lon="1.5975">
        <ele>225.223933</ele>
        <time>2026-08-28T16:48:15Z</time>
      </trkpt>
      <trkpt lat="43.70148" lon="1.59759">
        <ele>225.109395</ele>
        <time>2026-08-28T16:48:16Z</time>
      </trkpt>
      <trkpt lat="43.70149" lon="1.59769">
        <ele>224.995578</ele>
        <time>2026-08-28T16:48:17Z</time>
      </trkpt>
      <trkpt lat="43.70149" lon="1.59778">
        <ele>224.880378</ele>
        <time>2026-08-28T16:48:18Z</time>
      </trkpt>
      <trkpt lat="43.7015" lon="1.59788">
        <ele>224.780107</ele>
        <time>2026-08-28T16:48:19Z</time>
      </trkpt>
      <trkpt lat="43.70151" lon="1.59798">
        <ele>224.699785</ele>
        <time>2026-08-28T16:48:20Z</time>
      </trkpt>
      <trkpt lat="43.70152" lon="1.59808">
        <ele>224.620645</ele>
        <time>2026-08-28T16:48:21Z</time>
      </trkpt>
      <trkpt lat="43.70153" lon="1.59818">
        <ele>224.543307</ele>
        <time>2026-08-28T16:48:22Z</time>
      </trkpt>
      <trkpt lat="43.70155" lon="1.59828">
        <ele>224.463656</ele>
        <time>2026-08-28T16:48:23Z</time>
      </trkpt>
      <trkpt lat="43.70156" lon="1.59838">
        <ele>224.38765</ele>
        <time>2026-08-28T16:48:24Z</time>
      </trkpt>
      <trkpt lat="43.70157" lon="1.59847">
        <ele>224.31282</ele>
        <time>2026-08-28T16:48:25Z</time>
      </trkpt>
      <trkpt lat="43.70159" lon="1.59856">
        <ele>224.237023</ele>
        <time>2026-08-28T16:48:26Z</time>
      </trkpt>
      <trkpt lat="43.7016" lon="1.59866">
        <ele>224.163148</ele>
        <time>2026-08-28T16:48:27Z</time>
      </trkpt>
      <trkpt lat="43.70161" lon="1.59875">
        <ele>224.088814</ele>
        <time>2026-08-28T16:48:28Z</time>
      </trkpt>
      <trkpt lat="43.70162" lon="1.59885">
        <ele>224.01448</ele>
        <time>2026-08-28T16:48:29Z</time>
      </trkpt>
      <trkpt lat="43.70163" lon="1.59894">
        <ele>223.939221</ele>
        <time>2026-08-28T16:48:30Z</time>
      </trkpt>
      <trkpt lat="43.70164" lon="1.59904">
        <ele>223.863797</ele>
        <time>2026-08-28T16:48:31Z</time>
      </trkpt>
      <trkpt lat="43.70165" lon="1.59913">
        <ele>223.788687</ele>
        <time>2026-08-28T16:48:32Z</time>
      </trkpt>
      <trkpt lat="43.70165" lon="1.59923">
        <ele>223.713576</ele>
        <time>2026-08-28T16:48:33Z</time>
      </trkpt>
      <trkpt lat="43.70166" lon="1.59932">
        <ele>223.641712</ele>
        <time>2026-08-28T16:48:34Z</time>
      </trkpt>
      <trkpt lat="43.70167" lon="1.59941">
        <ele>223.569848</ele>
        <time>2026-08-28T16:48:35Z</time>
      </trkpt>
      <trkpt lat="43.70168" lon="1.5995">
        <ele>223.496915</ele>
        <time>2026-08-28T16:48:36Z</time>
      </trkpt>
      <trkpt lat="43.70169" lon="1.59959">
        <ele>223.422581</ele>
        <time>2026-08-28T16:48:37Z</time>
      </trkpt>
      <trkpt lat="43.7017" lon="1.59968">
        <ele>223.352132</ele>
        <time>2026-08-28T16:48:38Z</time>
      </trkpt>
      <trkpt lat="43.70171" lon="1.59977">
        <ele>223.283234</ele>
        <time>2026-08-28T16:48:39Z</time>
      </trkpt>
      <trkpt lat="43.70172" lon="1.59986">
        <ele>223.212785</ele>
        <time>2026-08-28T16:48:40Z</time>
      </trkpt>
      <trkpt lat="43.70172" lon="1.59995">
        <ele>223.142477</ele>
        <time>2026-08-28T16:48:41Z</time>
      </trkpt>
      <trkpt lat="43.70173" lon="1.60003">
        <ele>223.07619</ele>
        <time>2026-08-28T16:48:42Z</time>
      </trkpt>
      <trkpt lat="43.70174" lon="1.60012">
        <ele>223.008679</ele>
        <time>2026-08-28T16:48:43Z</time>
      </trkpt>
      <trkpt lat="43.70175" lon="1.6002">
        <ele>222.940985</ele>
        <time>2026-08-28T16:48:44Z</time>
      </trkpt>
      <trkpt lat="43.70176" lon="1.60029">
        <ele>222.872864</ele>
        <time>2026-08-28T16:48:45Z</time>
      </trkpt>
      <trkpt lat="43.70177" lon="1.60037">
        <ele>222.891451</ele>
        <time>2026-08-28T16:48:46Z</time>
      </trkpt>
      <trkpt lat="43.70178" lon="1.60045">
        <ele>222.923555</ele>
        <time>2026-08-28T16:48:47Z</time>
      </trkpt>
      <trkpt lat="43.70179" lon="1.60054">
        <ele>222.955576</ele>
        <time>2026-08-28T16:48:48Z</time>
      </trkpt>
      <trkpt lat="43.7018" lon="1.60062">
        <ele>222.988146</ele>
        <time>2026-08-28T16:48:49Z</time>
      </trkpt>
      <trkpt lat="43.70181" lon="1.6007">
        <ele>223.020093</ele>
        <time>2026-08-28T16:48:50Z</time>
      </trkpt>
      <trkpt lat="43.70182" lon="1.60078">
        <ele>223.050606</ele>
        <time>2026-08-28T16:48:51Z</time>
      </trkpt>
      <trkpt lat="43.70183" lon="1.60086">
        <ele>223.08205</ele>
        <time>2026-08-28T16:48:52Z</time>
      </trkpt>
      <trkpt lat="43.70184" lon="1.60094">
        <ele>223.112563</ele>
        <time>2026-08-28T16:48:53Z</time>
      </trkpt>
      <trkpt lat="43.70185" lon="1.60102">
        <ele>223.142698</ele>
        <time>2026-08-28T16:48:54Z</time>
      </trkpt>
      <trkpt lat="43.70186" lon="1.6011">
        <ele>223.173211</ele>
        <time>2026-08-28T16:48:55Z</time>
      </trkpt>
      <trkpt lat="43.70186" lon="1.60118">
        <ele>223.204024</ele>
        <time>2026-08-28T16:48:56Z</time>
      </trkpt>
      <trkpt lat="43.70187" lon="1.60126">
        <ele>223.235593</ele>
        <time>2026-08-28T16:48:57Z</time>
      </trkpt>
      <trkpt lat="43.70188" lon="1.60134">
        <ele>223.266568</ele>
        <time>2026-08-28T16:48:58Z</time>
      </trkpt>
      <trkpt lat="43.70189" lon="1.60142">
        <ele>223.297543</ele>
        <time>2026-08-28T16:48:59Z</time>
      </trkpt>
      <trkpt lat="43.7019" lon="1.6015">
        <ele>223.32881</ele>
        <time>2026-08-28T16:49:00Z</time>
      </trkpt>
      <trkpt lat="43.70191" lon="1.60158">
        <ele>223.358569</ele>
        <time>2026-08-28T16:49:01Z</time>
      </trkpt>
      <trkpt lat="43.70192" lon="1.60166">
        <ele>223.388117</ele>
        <time>2026-08-28T16:49:02Z</time>
      </trkpt>
      <trkpt lat="43.70192" lon="1.60173">
        <ele>223.416148</ele>
        <time>2026-08-28T16:49:03Z</time>
      </trkpt>
      <trkpt lat="43.70193" lon="1.6018">
        <ele>223.443421</ele>
        <time>2026-08-28T16:49:04Z</time>
      </trkpt>
      <trkpt lat="43.70193" lon="1.60187">
        <ele>223.470315</ele>
        <time>2026-08-28T16:49:05Z</time>
      </trkpt>
      <trkpt lat="43.70194" lon="1.60194">
        <ele>223.497276</ele>
        <time>2026-08-28T16:49:06Z</time>
      </trkpt>
      <trkpt lat="43.70195" lon="1.60202">
        <ele>223.525632</ele>
        <time>2026-08-28T16:49:07Z</time>
      </trkpt>
      <trkpt lat="43.70195" lon="1.60209">
        <ele>223.553988</ele>
        <time>2026-08-28T16:49:08Z</time>
      </trkpt>
      <trkpt lat="43.70196" lon="1.60217">
        <ele>223.583536</ele>
        <time>2026-08-28T16:49:09Z</time>
      </trkpt>
      <trkpt lat="43.70196" lon="1.60224">
        <ele>223.612388</ele>
        <time>2026-08-28T16:49:10Z</time>
      </trkpt>
      <trkpt lat="43.70197" lon="1.60231">
        <ele>223.640419</ele>
        <time>2026-08-28T16:49:11Z</time>
      </trkpt>
      <trkpt lat="43.70198" lon="1.60239">
        <ele>223.669243</ele>
        <time>2026-08-28T16:49:12Z</time>
      </trkpt>
      <trkpt lat="43.70199" lon="1.60246">
        <ele>223.698067</ele>
        <time>2026-08-28T16:49:13Z</time>
      </trkpt>
      <trkpt lat="43.702" lon="1.60254">
        <ele>223.726043</ele>
        <time>2026-08-28T16:49:14Z</time>
      </trkpt>
      <trkpt lat="43.702" lon="1.60261">
        <ele>223.755273</ele>
        <time>2026-08-28T16:49:15Z</time>
      </trkpt>
      <trkpt lat="43.70201" lon="1.60269">
        <ele>223.78667</ele>
        <time>2026-08-28T16:49:16Z</time>
      </trkpt>
      <trkpt lat="43.70202" lon="1.60278">
        <ele>223.799789</ele>
        <time>2026-08-28T16:49:17Z</time>
      </trkpt>
      <trkpt lat="43.70202" lon="1.60286">
        <ele>223.73009</ele>
        <time>2026-08-28T16:49:18Z</time>
      </trkpt>
      <trkpt lat="43.70203" lon="1.60295">
        <ele>223.657372</ele>
        <time>2026-08-28T16:49:19Z</time>
      </trkpt>
      <trkpt lat="43.70205" lon="1.60305">
        <ele>223.581085</ele>
        <time>2026-08-28T16:49:20Z</time>
      </trkpt>
      <trkpt lat="43.70206" lon="1.60314">
        <ele>223.507911</ele>
        <time>2026-08-28T16:49:21Z</time>
      </trkpt>
      <trkpt lat="43.70206" lon="1.60322">
        <ele>223.43713</ele>
        <time>2026-08-28T16:49:22Z</time>
      </trkpt>
      <trkpt lat="43.70207" lon="1.60331">
        <ele>223.366349</ele>
        <time>2026-08-28T16:49:23Z</time>
      </trkpt>
      <trkpt lat="43.70208" lon="1.6034">
        <ele>223.29158</ele>
        <time>2026-08-28T16:49:24Z</time>
      </trkpt>
      <trkpt lat="43.70209" lon="1.60349">
        <ele>223.218551</ele>
        <time>2026-08-28T16:49:25Z</time>
      </trkpt>
      <trkpt lat="43.7021" lon="1.60359">
        <ele>223.141523</ele>
        <time>2026-08-28T16:49:26Z</time>
      </trkpt>
      <trkpt lat="43.70211" lon="1.60368">
        <ele>223.062095</ele>
        <time>2026-08-28T16:49:27Z</time>
      </trkpt>
      <trkpt lat="43.70212" lon="1.60378">
        <ele>222.984778</ele>
        <time>2026-08-28T16:49:28Z</time>
      </trkpt>
      <trkpt lat="43.70213" lon="1.60387">
        <ele>222.910009</ele>
        <time>2026-08-28T16:49:29Z</time>
      </trkpt>
      <trkpt lat="43.70213" lon="1.60396">
        <ele>222.835381</ele>
        <time>2026-08-28T16:49:30Z</time>
      </trkpt>
      <trkpt lat="43.70214" lon="1.60406">
        <ele>222.759657</ele>
        <time>2026-08-28T16:49:31Z</time>
      </trkpt>
      <trkpt lat="43.70215" lon="1.60415">
        <ele>222.68409</ele>
        <time>2026-08-28T16:49:32Z</time>
      </trkpt>
      <trkpt lat="43.70216" lon="1.60424">
        <ele>222.609959</ele>
        <time>2026-08-28T16:49:33Z</time>
      </trkpt>
      <trkpt lat="43.70217" lon="1.60433">
        <ele>222.53519</ele>
        <time>2026-08-28T16:49:34Z</time>
      </trkpt>
      <trkpt lat="43.70218" lon="1.60443">
        <ele>222.459354</ele>
        <time>2026-08-28T16:49:35Z</time>
      </trkpt>
      <trkpt lat="43.70218" lon="1.60452">
        <ele>222.38526</ele>
        <time>2026-08-28T16:49:36Z</time>
      </trkpt>
      <trkpt lat="43.70217" lon="1.60462">
        <ele>222.306751</ele>
        <time>2026-08-28T16:49:37Z</time>
      </trkpt>
      <trkpt lat="43.70216" lon="1.60471">
        <ele>222.230231</ele>
        <time>2026-08-28T16:49:38Z</time>
      </trkpt>
      <trkpt lat="43.70215" lon="1.6048">
        <ele>222.155733</ele>
        <time>2026-08-28T16:49:39Z</time>
      </trkpt>
      <trkpt lat="43.70213" lon="1.60489">
        <ele>222.083396</ele>
        <time>2026-08-28T16:49:40Z</time>
      </trkpt>
      <trkpt lat="43.70212" lon="1.60497">
        <ele>222.015918</ele>
        <time>2026-08-28T16:49:41Z</time>
      </trkpt>
      <trkpt lat="43.7021" lon="1.60504">
        <ele>221.953038</ele>
        <time>2026-08-28T16:49:42Z</time>
      </trkpt>
      <trkpt lat="43.70208" lon="1.60512">
        <ele>221.888034</ele>
        <time>2026-08-28T16:49:43Z</time>
      </trkpt>
      <trkpt lat="43.70207" lon="1.6052">
        <ele>221.822735</ele>
        <time>2026-08-28T16:49:44Z</time>
      </trkpt>
      <trkpt lat="43.70205" lon="1.60528">
        <ele>221.84008</ele>
        <time>2026-08-28T16:49:45Z</time>
      </trkpt>
      <trkpt lat="43.70204" lon="1.60535">
        <ele>221.877119</ele>
        <time>2026-08-28T16:49:46Z</time>
      </trkpt>
      <trkpt lat="43.70203" lon="1.60543">
        <ele>221.912605</ele>
        <time>2026-08-28T16:49:47Z</time>
      </trkpt>
      <trkpt lat="43.70201" lon="1.6055">
        <ele>221.947626</ele>
        <time>2026-08-28T16:49:48Z</time>
      </trkpt>
      <trkpt lat="43.702" lon="1.60557">
        <ele>221.983278</ele>
        <time>2026-08-28T16:49:49Z</time>
      </trkpt>
      <trkpt lat="43.70199" lon="1.60564">
        <ele>222.018468</ele>
        <time>2026-08-28T16:49:50Z</time>
      </trkpt>
      <trkpt lat="43.70197" lon="1.60572">
        <ele>222.05553</ele>
        <time>2026-08-28T16:49:51Z</time>
      </trkpt>
      <trkpt lat="43.70196" lon="1.60579">
        <ele>222.092107</ele>
        <time>2026-08-28T16:49:52Z</time>
      </trkpt>
      <trkpt lat="43.70194" lon="1.60586">
        <ele>222.12904</ele>
        <time>2026-08-28T16:49:53Z</time>
      </trkpt>
      <trkpt lat="43.70193" lon="1.60594">
        <ele>222.165789</ele>
        <time>2026-08-28T16:49:54Z</time>
      </trkpt>
      <trkpt lat="43.70191" lon="1.60601">
        <ele>222.202722</ele>
        <time>2026-08-28T16:49:55Z</time>
      </trkpt>
      <trkpt lat="43.7019" lon="1.60609">
        <ele>222.240114</ele>
        <time>2026-08-28T16:49:56Z</time>
      </trkpt>
      <trkpt lat="43.70189" lon="1.60616">
        <ele>222.278246</ele>
        <time>2026-08-28T16:49:57Z</time>
      </trkpt>
      <trkpt lat="43.70187" lon="1.60624">
        <ele>222.315917</ele>
        <time>2026-08-28T16:49:58Z</time>
      </trkpt>
      <trkpt lat="43.70185" lon="1.60632">
        <ele>222.355147</ele>
        <time>2026-08-28T16:49:59Z</time>
      </trkpt>
      <trkpt lat="43.70184" lon="1.60639">
        <ele>222.392538</ele>
        <time>2026-08-28T16:50:00Z</time>
      </trkpt>
      <trkpt lat="43.70183" lon="1.60647">
        <ele>222.42756</ele>
        <time>2026-08-28T16:50:01Z</time>
      </trkpt>
      <trkpt lat="43.70181" lon="1.60654">
        <ele>222.464905</ele>
        <time>2026-08-28T16:50:02Z</time>
      </trkpt>
      <trkpt lat="43.7018" lon="1.60661">
        <ele>222.499762</ele>
        <time>2026-08-28T16:50:03Z</time>
      </trkpt>
      <trkpt lat="43.70178" lon="1.60668">
        <ele>222.535419</ele>
        <time>2026-08-28T16:50:04Z</time>
      </trkpt>
      <trkpt lat="43.70177" lon="1.60675">
        <ele>222.57014</ele>
        <time>2026-08-28T16:50:05Z</time>
      </trkpt>
      <trkpt lat="43.70176" lon="1.60683">
        <ele>222.60533</ele>
        <time>2026-08-28T16:50:06Z</time>
      </trkpt>
      <trkpt lat="43.70175" lon="1.6069">
        <ele>222.642209</ele>
        <time>2026-08-28T16:50:07Z</time>
      </trkpt>
      <trkpt lat="43.70173" lon="1.60697">
        <ele>222.677861</ele>
        <time>2026-08-28T16:50:08Z</time>
      </trkpt>
      <trkpt lat="43.70172" lon="1.60704">
        <ele>222.712883</ele>
        <time>2026-08-28T16:50:09Z</time>
      </trkpt>
      <trkpt lat="43.70171" lon="1.60712">
        <ele>222.748535</ele>
        <time>2026-08-28T16:50:10Z</time>
      </trkpt>
      <trkpt lat="43.70169" lon="1.60719">
        <ele>222.783401</ele>
        <time>2026-08-28T16:50:11Z</time>
      </trkpt>
      <trkpt lat="43.70168" lon="1.60726">
        <ele>222.819198</ele>
        <time>2026-08-28T16:50:12Z</time>
      </trkpt>
      <trkpt lat="43.70167" lon="1.60733">
        <ele>222.856237</ele>
        <time>2026-08-28T16:50:13Z</time>
      </trkpt>
      <trkpt lat="43.70165" lon="1.60741">
        <ele>222.891607</ele>
        <time>2026-08-28T16:50:14Z</time>
      </trkpt>
      <trkpt lat="43.70164" lon="1.60747">
        <ele>222.925703</ele>
        <time>2026-08-28T16:50:15Z</time>
      </trkpt>
      <trkpt lat="43.70163" lon="1.60755">
        <ele>222.960171</ele>
        <time>2026-08-28T16:50:16Z</time>
      </trkpt>
      <trkpt lat="43.70162" lon="1.60762">
        <ele>222.996169</ele>
        <time>2026-08-28T16:50:17Z</time>
      </trkpt>
      <trkpt lat="43.70161" lon="1.60769">
        <ele>222.91814</ele>
        <time>2026-08-28T16:50:18Z</time>
      </trkpt>
      <trkpt lat="43.70159" lon="1.60776">
        <ele>222.830876</ele>
        <time>2026-08-28T16:50:19Z</time>
      </trkpt>
      <trkpt lat="43.70158" lon="1.60783">
        <ele>222.742452</ele>
        <time>2026-08-28T16:50:20Z</time>
      </trkpt>
      <trkpt lat="43.70156" lon="1.6079">
        <ele>222.651268</ele>
        <time>2026-08-28T16:50:21Z</time>
      </trkpt>
      <trkpt lat="43.70155" lon="1.60798">
        <ele>222.560148</ele>
        <time>2026-08-28T16:50:22Z</time>
      </trkpt>
      <trkpt lat="43.70154" lon="1.60805">
        <ele>222.472425</ele>
        <time>2026-08-28T16:50:23Z</time>
      </trkpt>
      <trkpt lat="43.70152" lon="1.60812">
        <ele>222.387474</ele>
        <time>2026-08-28T16:50:24Z</time>
      </trkpt>
      <trkpt lat="43.70151" lon="1.60818">
        <ele>222.302159</ele>
        <time>2026-08-28T16:50:25Z</time>
      </trkpt>
      <trkpt lat="43.70149" lon="1.60825">
        <ele>222.212321</ele>
        <time>2026-08-28T16:50:26Z</time>
      </trkpt>
      <trkpt lat="43.70147" lon="1.60832">
        <ele>222.121357</ele>
        <time>2026-08-28T16:50:27Z</time>
      </trkpt>
      <trkpt lat="43.70145" lon="1.6084">
        <ele>222.031328</ele>
        <time>2026-08-28T16:50:28Z</time>
      </trkpt>
      <trkpt lat="43.70144" lon="1.60847">
        <ele>221.942162</ele>
        <time>2026-08-28T16:50:29Z</time>
      </trkpt>
      <trkpt lat="43.70143" lon="1.60854">
        <ele>221.853887</ele>
        <time>2026-08-28T16:50:30Z</time>
      </trkpt>
      <trkpt lat="43.70144" lon="1.60861">
        <ele>221.76698</ele>
        <time>2026-08-28T16:50:31Z</time>
      </trkpt>
      <trkpt lat="43.70146" lon="1.60868">
        <ele>221.68274</ele>
        <time>2026-08-28T16:50:32Z</time>
      </trkpt>
      <trkpt lat="43.70149" lon="1.60874">
        <ele>221.595775</ele>
        <time>2026-08-28T16:50:33Z</time>
      </trkpt>
      <trkpt lat="43.70152" lon="1.60879">
        <ele>221.512639</ele>
        <time>2026-08-28T16:50:34Z</time>
      </trkpt>
      <trkpt lat="43.70156" lon="1.60884">
        <ele>221.424116</ele>
        <time>2026-08-28T16:50:35Z</time>
      </trkpt>
      <trkpt lat="43.7016" lon="1.60889">
        <ele>221.333571</ele>
        <time>2026-08-28T16:50:36Z</time>
      </trkpt>
      <trkpt lat="43.70164" lon="1.60894">
        <ele>221.234292</ele>
        <time>2026-08-28T16:50:37Z</time>
      </trkpt>
      <trkpt lat="43.7017" lon="1.60899">
        <ele>221.128091</ele>
        <time>2026-08-28T16:50:38Z</time>
      </trkpt>
      <trkpt lat="43.70176" lon="1.60904">
        <ele>221.008815</ele>
        <time>2026-08-28T16:50:39Z</time>
      </trkpt>
      <trkpt lat="43.70182" lon="1.60909">
        <ele>220.887685</ele>
        <time>2026-08-28T16:50:40Z</time>
      </trkpt>
      <trkpt lat="43.70188" lon="1.60915">
        <ele>220.766715</ele>
        <time>2026-08-28T16:50:41Z</time>
      </trkpt>
      <trkpt lat="43.70194" lon="1.6092">
        <ele>220.651871</ele>
        <time>2026-08-28T16:50:42Z</time>
      </trkpt>
      <trkpt lat="43.702" lon="1.60926">
        <ele>220.539049</ele>
        <time>2026-08-28T16:50:43Z</time>
      </trkpt>
      <trkpt lat="43.70204" lon="1.6093">
        <ele>220.447462</ele>
        <time>2026-08-28T16:50:44Z</time>
      </trkpt>
      <trkpt lat="43.70208" lon="1.60934">
        <ele>220.376301</ele>
        <time>2026-08-28T16:50:45Z</time>
      </trkpt>
      <trkpt lat="43.7021" lon="1.60936">
        <ele>220.321557</ele>
        <time>2026-08-28T16:50:46Z</time>
      </trkpt>
      <trkpt lat="43.70212" lon="1.60939">
        <ele>220.277454</ele>
        <time>2026-08-28T16:50:47Z</time>
      </trkpt>
      <trkpt lat="43.70211" lon="1.60942">
        <ele>220.242452</ele>
        <time>2026-08-28T16:50:48Z</time>
      </trkpt>
      <trkpt lat="43.70211" lon="1.60944">
        <ele>220.213932</ele>
        <time>2026-08-28T16:50:49Z</time>
      </trkpt>
      <trkpt lat="43.7021" lon="1.60945">
        <ele>220.196153</ele>
        <time>2026-08-28T16:50:50Z</time>
      </trkpt>
      <trkpt lat="43.70209" lon="1.60945">
        <ele>220.179147</ele>
        <time>2026-08-28T16:50:51Z</time>
      </trkpt>
      <trkpt lat="43.70208" lon="1.60945">
        <ele>220.162354</ele>
        <time>2026-08-28T16:50:52Z</time>
      </trkpt>
      <trkpt lat="43.70207" lon="1.60946">
        <ele>220.150475</ele>
        <time>2026-08-28T16:50:53Z</time>
      </trkpt>
      <trkpt lat="43.70207" lon="1.60945">
        <ele>220.146506</ele>
        <time>2026-08-28T16:50:54Z</time>
      </trkpt>
      <trkpt lat="43.70206" lon="1.60946">
        <ele>220.137448</ele>
        <time>2026-08-28T16:50:55Z</time>
      </trkpt>
      <trkpt lat="43.70202" lon="1.60953">
        <ele>220.026163</ele>
        <time>2026-08-28T16:51:11Z</time>
      </trkpt>
      <trkpt lat="43.70201" lon="1.60955">
        <ele>220.035508</ele>
        <time>2026-08-28T16:51:12Z</time>
      </trkpt>
      <trkpt lat="43.702" lon="1.60957">
        <ele>220.094085</ele>
        <time>2026-08-28T16:51:13Z</time>
      </trkpt>
      <trkpt lat="43.702" lon="1.6096">
        <ele>220.158677</ele>
        <time>2026-08-28T16:51:14Z</time>
      </trkpt>
      <trkpt lat="43.702" lon="1.60963">
        <ele>220.213172</ele>
        <time>2026-08-28T16:51:15Z</time>
      </trkpt>
      <trkpt lat="43.702" lon="1.60966">
        <ele>220.273836</ele>
        <time>2026-08-28T16:51:16Z</time>
      </trkpt>
      <trkpt lat="43.702" lon="1.60968">
        <ele>220.3345</ele>
        <time>2026-08-28T16:51:17Z</time>
      </trkpt>
      <trkpt lat="43.702" lon="1.60972">
        <ele>220.40656</ele>
        <time>2026-08-28T16:51:18Z</time>
      </trkpt>
      <trkpt lat="43.702" lon="1.60975">
        <ele>220.480223</ele>
        <time>2026-08-28T16:51:19Z</time>
      </trkpt>
      <trkpt lat="43.702" lon="1.60979">
        <ele>220.559646</ele>
        <time>2026-08-28T16:51:20Z</time>
      </trkpt>
      <trkpt lat="43.70201" lon="1.60982">
        <ele>220.642844</ele>
        <time>2026-08-28T16:51:21Z</time>
      </trkpt>
      <trkpt lat="43.70201" lon="1.60986">
        <ele>220.727394</ele>
        <time>2026-08-28T16:51:22Z</time>
      </trkpt>
      <trkpt lat="43.70201" lon="1.6099">
        <ele>220.809778</ele>
        <time>2026-08-28T16:51:23Z</time>
      </trkpt>
      <trkpt lat="43.70201" lon="1.60994">
        <ele>220.900971</ele>
        <time>2026-08-28T16:51:24Z</time>
      </trkpt>
      <trkpt lat="43.70201" lon="1.60998">
        <ele>220.9898</ele>
        <time>2026-08-28T16:51:25Z</time>
      </trkpt>
      <trkpt lat="43.70201" lon="1.61003">
        <ele>221.083011</ele>
        <time>2026-08-28T16:51:26Z</time>
      </trkpt>
      <trkpt lat="43.70201" lon="1.61007">
        <ele>221.169726</ele>
        <time>2026-08-28T16:51:27Z</time>
      </trkpt>
      <trkpt lat="43.702" lon="1.61011">
        <ele>221.256787</ele>
        <time>2026-08-28T16:51:28Z</time>
      </trkpt>
      <trkpt lat="43.70199" lon="1.61014">
        <ele>221.332566</ele>
        <time>2026-08-28T16:51:29Z</time>
      </trkpt>
      <trkpt lat="43.70197" lon="1.61017">
        <ele>221.411594</ele>
        <time>2026-08-28T16:51:30Z</time>
      </trkpt>
      <trkpt lat="43.70196" lon="1.6102">
        <ele>221.488957</ele>
        <time>2026-08-28T16:51:31Z</time>
      </trkpt>
      <trkpt lat="43.70194" lon="1.61022">
        <ele>221.564461</ele>
        <time>2026-08-28T16:51:32Z</time>
      </trkpt>
      <trkpt lat="43.70193" lon="1.61025">
        <ele>221.641787</ele>
        <time>2026-08-28T16:51:33Z</time>
      </trkpt>
      <trkpt lat="43.70191" lon="1.61028">
        <ele>221.723422</ele>
        <time>2026-08-28T16:51:34Z</time>
      </trkpt>
      <trkpt lat="43.70189" lon="1.61031">
        <ele>221.805056</ele>
        <time>2026-08-28T16:51:35Z</time>
      </trkpt>
      <trkpt lat="43.70187" lon="1.61033">
        <ele>221.879981</ele>
        <time>2026-08-28T16:51:36Z</time>
      </trkpt>
      <trkpt lat="43.70185" lon="1.61036">
        <ele>221.960077</ele>
        <time>2026-08-28T16:51:37Z</time>
      </trkpt>
      <trkpt lat="43.70183" lon="1.61039">
        <ele>222.046489</ele>
        <time>2026-08-28T16:51:38Z</time>
      </trkpt>
      <trkpt lat="43.70181" lon="1.61041">
        <ele>222.126585</ele>
        <time>2026-08-28T16:51:39Z</time>
      </trkpt>
      <trkpt lat="43.7018" lon="1.61044">
        <ele>222.20151</ele>
        <time>2026-08-28T16:51:40Z</time>
      </trkpt>
      <trkpt lat="43.70178" lon="1.61046">
        <ele>222.270664</ele>
        <time>2026-08-28T16:51:41Z</time>
      </trkpt>
      <trkpt lat="43.70176" lon="1.61048">
        <ele>222.341396</ele>
        <time>2026-08-28T16:51:42Z</time>
      </trkpt>
      <trkpt lat="43.70176" lon="1.61052">
        <ele>222.417223</ele>
        <time>2026-08-28T16:51:43Z</time>
      </trkpt>
      <trkpt lat="43.70175" lon="1.61055">
        <ele>222.491152</ele>
        <time>2026-08-28T16:51:44Z</time>
      </trkpt>
      <trkpt lat="43.70173" lon="1.61058">
        <ele>222.566931</ele>
        <time>2026-08-28T16:51:45Z</time>
      </trkpt>
      <trkpt lat="43.70172" lon="1.61061">
        <ele>222.638505</ele>
        <time>2026-08-28T16:51:46Z</time>
      </trkpt>
      <trkpt lat="43.70171" lon="1.61063">
        <ele>222.709028</ele>
        <time>2026-08-28T16:51:47Z</time>
      </trkpt>
      <trkpt lat="43.7017" lon="1.61066">
        <ele>222.779551</ele>
        <time>2026-08-28T16:51:48Z</time>
      </trkpt>
      <trkpt lat="43.70169" lon="1.61069">
        <ele>222.853834</ele>
        <time>2026-08-28T16:51:49Z</time>
      </trkpt>
      <trkpt lat="43.70168" lon="1.61072">
        <ele>222.921083</ele>
        <time>2026-08-28T16:51:50Z</time>
      </trkpt>
      <trkpt lat="43.70167" lon="1.61075">
        <ele>222.995476</ele>
        <time>2026-08-28T16:51:51Z</time>
      </trkpt>
      <trkpt lat="43.70166" lon="1.61078">
        <ele>223.060744</ele>
        <time>2026-08-28T16:51:52Z</time>
      </trkpt>
      <trkpt lat="43.70165" lon="1.61081">
        <ele>223.131108</ele>
        <time>2026-08-28T16:51:53Z</time>
      </trkpt>
      <trkpt lat="43.70164" lon="1.61084">
        <ele>223.200151</ele>
        <time>2026-08-28T16:51:54Z</time>
      </trkpt>
      <trkpt lat="43.70163" lon="1.61087">
        <ele>223.271724</ele>
        <time>2026-08-28T16:51:55Z</time>
      </trkpt>
      <trkpt lat="43.70162" lon="1.61089">
        <ele>223.335531</ele>
        <time>2026-08-28T16:51:56Z</time>
      </trkpt>
      <trkpt lat="43.70161" lon="1.61092">
        <ele>223.402678</ele>
        <time>2026-08-28T16:51:57Z</time>
      </trkpt>
      <trkpt lat="43.7016" lon="1.61095">
        <ele>223.473201</ele>
        <time>2026-08-28T16:51:58Z</time>
      </trkpt>
      <trkpt lat="43.70159" lon="1.61098">
        <ele>223.544775</ele>
        <time>2026-08-28T16:51:59Z</time>
      </trkpt>
      <trkpt lat="43.70158" lon="1.61101">
        <ele>223.615729</ele>
        <time>2026-08-28T16:52:00Z</time>
      </trkpt>
      <trkpt lat="43.70157" lon="1.61104">
        <ele>223.687354</ele>
        <time>2026-08-28T16:52:01Z</time>
      </trkpt>
      <trkpt lat="43.70156" lon="1.61107">
        <ele>223.757725</ele>
        <time>2026-08-28T16:52:02Z</time>
      </trkpt>
      <trkpt lat="43.70155" lon="1.6111">
        <ele>223.824872</ele>
        <time>2026-08-28T16:52:03Z</time>
      </trkpt>
      <trkpt lat="43.70154" lon="1.61112">
        <ele>223.893541</ele>
        <time>2026-08-28T16:52:04Z</time>
      </trkpt>
      <trkpt lat="43.70153" lon="1.61114">
        <ele>223.944459</ele>
        <time>2026-08-28T16:52:05Z</time>
      </trkpt>
      <trkpt lat="43.70152" lon="1.61116">
        <ele>223.981447</ele>
        <time>2026-08-28T16:52:06Z</time>
      </trkpt>
      <trkpt lat="43.70152" lon="1.61116">
        <ele>223.994447</ele>
        <time>2026-08-28T16:52:07Z</time>
      </trkpt>
      <trkpt lat="43.70153" lon="1.61116">
        <ele>224.009587</ele>
        <time>2026-08-28T16:52:08Z</time>
      </trkpt>
      <trkpt lat="43.70147" lon="1.61122">
        <ele>224.211644</ele>
        <time>2026-08-28T16:52:17Z</time>
      </trkpt>
      <trkpt lat="43.70144" lon="1.61122">
        <ele>224.30155</ele>
        <time>2026-08-28T16:52:18Z</time>
      </trkpt>
      <trkpt lat="43.70141" lon="1.61122">
        <ele>224.391561</ele>
        <time>2026-08-28T16:52:19Z</time>
      </trkpt>
      <trkpt lat="43.70139" lon="1.61124">
        <ele>224.474414</ele>
        <time>2026-08-28T16:52:20Z</time>
      </trkpt>
      <trkpt lat="43.70137" lon="1.61126">
        <ele>224.550053</ele>
        <time>2026-08-28T16:52:21Z</time>
      </trkpt>
      <trkpt lat="43.70137" lon="1.61129">
        <ele>224.615406</ele>
        <time>2026-08-28T16:52:22Z</time>
      </trkpt>
      <trkpt lat="43.70136" lon="1.61133">
        <ele>224.69611</ele>
        <time>2026-08-28T16:52:23Z</time>
      </trkpt>
      <trkpt lat="43.70135" lon="1.61136">
        <ele>224.777709</ele>
        <time>2026-08-28T16:52:24Z</time>
      </trkpt>
      <trkpt lat="43.70134" lon="1.6114">
        <ele>224.866407</ele>
        <time>2026-08-28T16:52:25Z</time>
      </trkpt>
      <trkpt lat="43.70133" lon="1.61144">
        <ele>224.957107</ele>
        <time>2026-08-28T16:52:26Z</time>
      </trkpt>
      <trkpt lat="43.70132" lon="1.61148">
        <ele>225.04078</ele>
        <time>2026-08-28T16:52:27Z</time>
      </trkpt>
      <trkpt lat="43.70132" lon="1.61152">
        <ele>225.127495</ele>
        <time>2026-08-28T16:52:28Z</time>
      </trkpt>
      <trkpt lat="43.70134" lon="1.61156">
        <ele>225.234671</ele>
        <time>2026-08-28T16:52:29Z</time>
      </trkpt>
      <trkpt lat="43.70137" lon="1.61158">
        <ele>225.335949</ele>
        <time>2026-08-28T16:52:30Z</time>
      </trkpt>
      <trkpt lat="43.7014" lon="1.6116">
        <ele>225.404191</ele>
        <time>2026-08-28T16:52:31Z</time>
      </trkpt>
      <trkpt lat="43.70141" lon="1.61165">
        <ele>225.416576</ele>
        <time>2026-08-28T16:52:32Z</time>
      </trkpt>
      <trkpt lat="43.70142" lon="1.61169">
        <ele>225.429118</ele>
        <time>2026-08-28T16:52:33Z</time>
      </trkpt>
      <trkpt lat="43.70141" lon="1.61174">
        <ele>225.44153</ele>
        <time>2026-08-28T16:52:34Z</time>
      </trkpt>
      <trkpt lat="43.70139" lon="1.61178">
        <ele>225.453915</ele>
        <time>2026-08-28T16:52:35Z</time>
      </trkpt>
      <trkpt lat="43.70138" lon="1.61183">
        <ele>225.467725</ele>
        <time>2026-08-28T16:52:36Z</time>
      </trkpt>
      <trkpt lat="43.70137" lon="1.61188">
        <ele>225.481515</ele>
        <time>2026-08-28T16:52:37Z</time>
      </trkpt>
      <trkpt lat="43.70136" lon="1.61193">
        <ele>225.494827</ele>
        <time>2026-08-28T16:52:38Z</time>
      </trkpt>
      <trkpt lat="43.70137" lon="1.61197">
        <ele>225.508008</ele>
        <time>2026-08-28T16:52:39Z</time>
      </trkpt>
      <trkpt lat="43.7014" lon="1.61201">
        <ele>225.521158</ele>
        <time>2026-08-28T16:52:40Z</time>
      </trkpt>
      <trkpt lat="43.70142" lon="1.61204">
        <ele>225.534316</ele>
        <time>2026-08-28T16:52:41Z</time>
      </trkpt>
      <trkpt lat="43.70146" lon="1.61207">
        <ele>225.547378</ele>
        <time>2026-08-28T16:52:42Z</time>
      </trkpt>
      <trkpt lat="43.70149" lon="1.61209">
        <ele>225.561024</ele>
        <time>2026-08-28T16:52:43Z</time>
      </trkpt>
      <trkpt lat="43.70152" lon="1.61212">
        <ele>225.574184</ele>
        <time>2026-08-28T16:52:44Z</time>
      </trkpt>
      <trkpt lat="43.70155" lon="1.61215">
        <ele>225.5875</ele>
        <time>2026-08-28T16:52:45Z</time>
      </trkpt>
      <trkpt lat="43.70157" lon="1.61218">
        <ele>225.600687</ele>
        <time>2026-08-28T16:52:46Z</time>
      </trkpt>
      <trkpt lat="43.7016" lon="1.61222">
        <ele>225.614476</ele>
        <time>2026-08-28T16:52:47Z</time>
      </trkpt>
      <trkpt lat="43.70163" lon="1.61225">
        <ele>225.627889</ele>
        <time>2026-08-28T16:52:48Z</time>
      </trkpt>
      <trkpt lat="43.70165" lon="1.61229">
        <ele>225.641246</ele>
        <time>2026-08-28T16:52:49Z</time>
      </trkpt>
      <trkpt lat="43.70167" lon="1.61234">
        <ele>225.654191</ele>
        <time>2026-08-28T16:52:50Z</time>
      </trkpt>
      <trkpt lat="43.70168" lon="1.61238">
        <ele>225.667362</ele>
        <time>2026-08-28T16:52:51Z</time>
      </trkpt>
      <trkpt lat="43.7017" lon="1.61242">
        <ele>225.681403</ele>
        <time>2026-08-28T16:52:52Z</time>
      </trkpt>
      <trkpt lat="43.70173" lon="1.61247">
        <ele>225.696711</ele>
        <time>2026-08-28T16:52:53Z</time>
      </trkpt>
      <trkpt lat="43.70175" lon="1.61252">
        <ele>225.711595</ele>
        <time>2026-08-28T16:52:54Z</time>
      </trkpt>
      <trkpt lat="43.70177" lon="1.61256">
        <ele>225.725411</ele>
        <time>2026-08-28T16:52:55Z</time>
      </trkpt>
      <trkpt lat="43.70179" lon="1.61261">
        <ele>225.739725</ele>
        <time>2026-08-28T16:52:56Z</time>
      </trkpt>
      <trkpt lat="43.70181" lon="1.61265">
        <ele>225.753316</ele>
        <time>2026-08-28T16:52:57Z</time>
      </trkpt>
      <trkpt lat="43.70183" lon="1.61269">
        <ele>225.766673</ele>
        <time>2026-08-28T16:52:58Z</time>
      </trkpt>
      <trkpt lat="43.70185" lon="1.61273">
        <ele>225.78003</ele>
        <time>2026-08-28T16:52:59Z</time>
      </trkpt>
      <trkpt lat="43.70187" lon="1.61277">
        <ele>225.792326</ele>
        <time>2026-08-28T16:53:00Z</time>
      </trkpt>
      <trkpt lat="43.7019" lon="1.6128">
        <ele>225.804769</ele>
        <time>2026-08-28T16:53:01Z</time>
      </trkpt>
      <trkpt lat="43.70192" lon="1.61284">
        <ele>225.817098</ele>
        <time>2026-08-28T16:53:02Z</time>
      </trkpt>
      <trkpt lat="43.70194" lon="1.61287">
        <ele>225.830177</ele>
        <time>2026-08-28T16:53:03Z</time>
      </trkpt>
      <trkpt lat="43.70197" lon="1.61291">
        <ele>225.845343</ele>
        <time>2026-08-28T16:53:04Z</time>
      </trkpt>
      <trkpt lat="43.70201" lon="1.61295">
        <ele>225.861755</ele>
        <time>2026-08-28T16:53:05Z</time>
      </trkpt>
      <trkpt lat="43.70205" lon="1.61299">
        <ele>225.879475</ele>
        <time>2026-08-28T16:53:06Z</time>
      </trkpt>
      <trkpt lat="43.70209" lon="1.61303">
        <ele>225.898078</ele>
        <time>2026-08-28T16:53:07Z</time>
      </trkpt>
      <trkpt lat="43.70213" lon="1.61308">
        <ele>225.917036</ele>
        <time>2026-08-28T16:53:08Z</time>
      </trkpt>
      <trkpt lat="43.70217" lon="1.61312">
        <ele>225.936447</ele>
        <time>2026-08-28T16:53:09Z</time>
      </trkpt>
      <trkpt lat="43.70221" lon="1.61316">
        <ele>225.955503</ele>
        <time>2026-08-28T16:53:10Z</time>
      </trkpt>
      <trkpt lat="43.70225" lon="1.61321">
        <ele>225.975082</ele>
        <time>2026-08-28T16:53:11Z</time>
      </trkpt>
      <trkpt lat="43.70229" lon="1.61324">
        <ele>225.992263</ele>
        <time>2026-08-28T16:53:12Z</time>
      </trkpt>
      <trkpt lat="43.70234" lon="1.61324">
        <ele>226.009914</ele>
        <time>2026-08-28T16:53:13Z</time>
      </trkpt>
      <trkpt lat="43.70238" lon="1.61322">
        <ele>226.025833</ele>
        <time>2026-08-28T16:53:14Z</time>
      </trkpt>
      <trkpt lat="43.70241" lon="1.61317">
        <ele>226.041465</ele>
        <time>2026-08-28T16:53:15Z</time>
      </trkpt>
      <trkpt lat="43.70244" lon="1.61313">
        <ele>226.05701</ele>
        <time>2026-08-28T16:53:16Z</time>
      </trkpt>
      <trkpt lat="43.70246" lon="1.61309">
        <ele>226.010252</ele>
        <time>2026-08-28T16:53:17Z</time>
      </trkpt>
      <trkpt lat="43.70249" lon="1.61306">
        <ele>225.940077</ele>
        <time>2026-08-28T16:53:18Z</time>
      </trkpt>
      <trkpt lat="43.70251" lon="1.61303">
        <ele>225.885184</ele>
        <time>2026-08-28T16:53:19Z</time>
      </trkpt>
      <trkpt lat="43.70252" lon="1.613">
        <ele>225.835521</ele>
        <time>2026-08-28T16:53:20Z</time>
      </trkpt>
      <trkpt lat="43.7025" lon="1.61297">
        <ele>225.793295</ele>
        <time>2026-08-28T16:53:21Z</time>
      </trkpt>
      <trkpt lat="43.70248" lon="1.61297">
        <ele>225.75371</ele>
        <time>2026-08-28T16:53:22Z</time>
      </trkpt>
      <trkpt lat="43.70248" lon="1.61297">
        <ele>225.736611</ele>
        <time>2026-08-28T16:53:23Z</time>
      </trkpt>
      <trkpt lat="43.70247" lon="1.61298">
        <ele>225.727462</ele>
        <time>2026-08-28T16:53:24Z</time>
      </trkpt>
      <trkpt lat="43.70247" lon="1.61298">
        <ele>225.721716</ele>
        <time>2026-08-28T16:53:25Z</time>
      </trkpt>
      <trkpt lat="43.70244" lon="1.61303">
        <ele>225.634965</ele>
        <time>2026-08-28T16:54:36Z</time>
      </trkpt>
      <trkpt lat="43.70243" lon="1.61306">
        <ele>225.591603</ele>
        <time>2026-08-28T16:54:37Z</time>
      </trkpt>
      <trkpt lat="43.70242" lon="1.61308">
        <ele>225.549267</ele>
        <time>2026-08-28T16:54:38Z</time>
      </trkpt>
      <trkpt lat="43.7024" lon="1.6131">
        <ele>225.509258</ele>
        <time>2026-08-28T16:54:39Z</time>
      </trkpt>
      <trkpt lat="43.70239" lon="1.61313">
        <ele>225.463609</ele>
        <time>2026-08-28T16:54:40Z</time>
      </trkpt>
      <trkpt lat="43.70238" lon="1.61315">
        <ele>225.421028</ele>
        <time>2026-08-28T16:54:41Z</time>
      </trkpt>
      <trkpt lat="43.70236" lon="1.61317">
        <ele>225.375282</ele>
        <time>2026-08-28T16:54:42Z</time>
      </trkpt>
      <trkpt lat="43.70235" lon="1.6132">
        <ele>225.329604</ele>
        <time>2026-08-28T16:54:43Z</time>
      </trkpt>
      <trkpt lat="43.70235" lon="1.61323">
        <ele>225.288724</ele>
        <time>2026-08-28T16:54:44Z</time>
      </trkpt>
      <trkpt lat="43.70236" lon="1.61326">
        <ele>225.243483</ele>
        <time>2026-08-28T16:54:45Z</time>
      </trkpt>
      <trkpt lat="43.70238" lon="1.61329">
        <ele>225.189664</ele>
        <time>2026-08-28T16:54:46Z</time>
      </trkpt>
      <trkpt lat="43.70239" lon="1.61332">
        <ele>225.135991</ele>
        <time>2026-08-28T16:54:47Z</time>
      </trkpt>
      <trkpt lat="43.70241" lon="1.61335">
        <ele>225.076173</ele>
        <time>2026-08-28T16:54:48Z</time>
      </trkpt>
      <trkpt lat="43.70244" lon="1.61338">
        <ele>225.005997</ele>
        <time>2026-08-28T16:54:49Z</time>
      </trkpt>
      <trkpt lat="43.70247" lon="1.61341">
        <ele>224.932211</ele>
        <time>2026-08-28T16:54:50Z</time>
      </trkpt>
      <trkpt lat="43.70251" lon="1.61345">
        <ele>224.845562</ele>
        <time>2026-08-28T16:54:51Z</time>
      </trkpt>
      <trkpt lat="43.70255" lon="1.61348">
        <ele>224.755015</ele>
        <time>2026-08-28T16:54:52Z</time>
      </trkpt>
      <trkpt lat="43.70259" lon="1.61352">
        <ele>224.659668</ele>
        <time>2026-08-28T16:54:53Z</time>
      </trkpt>
      <trkpt lat="43.70264" lon="1.61355">
        <ele>224.557008</ele>
        <time>2026-08-28T16:54:54Z</time>
      </trkpt>
      <trkpt lat="43.70269" lon="1.61358">
        <ele>224.450861</ele>
        <time>2026-08-28T16:54:55Z</time>
      </trkpt>
      <trkpt lat="43.70274" lon="1.61361">
        <ele>224.34399</ele>
        <time>2026-08-28T16:54:56Z</time>
      </trkpt>
      <trkpt lat="43.70279" lon="1.61365">
        <ele>224.230733</ele>
        <time>2026-08-28T16:54:57Z</time>
      </trkpt>
      <trkpt lat="43.70284" lon="1.61368">
        <ele>224.112817</ele>
        <time>2026-08-28T16:54:58Z</time>
      </trkpt>
      <trkpt lat="43.7029" lon="1.61372">
        <ele>223.997815</ele>
        <time>2026-08-28T16:54:59Z</time>
      </trkpt>
      <trkpt lat="43.70295" lon="1.61376">
        <ele>223.880444</ele>
        <time>2026-08-28T16:55:00Z</time>
      </trkpt>
      <trkpt lat="43.703" lon="1.61379">
        <ele>223.764814</ele>
        <time>2026-08-28T16:55:01Z</time>
      </trkpt>
      <trkpt lat="43.70306" lon="1.61383">
        <ele>223.642179</ele>
        <time>2026-08-28T16:55:02Z</time>
      </trkpt>
      <trkpt lat="43.70312" lon="1.61387">
        <ele>223.512941</ele>
        <time>2026-08-28T16:55:03Z</time>
      </trkpt>
      <trkpt lat="43.70318" lon="1.61392">
        <ele>223.38239</ele>
        <time>2026-08-28T16:55:04Z</time>
      </trkpt>
      <trkpt lat="43.70324" lon="1.61396">
        <ele>223.249042</ele>
        <time>2026-08-28T16:55:05Z</time>
      </trkpt>
      <trkpt lat="43.7033" lon="1.61401">
        <ele>223.112011</ele>
        <time>2026-08-28T16:55:06Z</time>
      </trkpt>
      <trkpt lat="43.70337" lon="1.61405">
        <ele>222.969804</ele>
        <time>2026-08-28T16:55:07Z</time>
      </trkpt>
      <trkpt lat="43.70343" lon="1.6141">
        <ele>222.821165</ele>
        <time>2026-08-28T16:55:08Z</time>
      </trkpt>
      <trkpt lat="43.7035" lon="1.61416">
        <ele>222.675617</ele>
        <time>2026-08-28T16:55:09Z</time>
      </trkpt>
      <trkpt lat="43.70356" lon="1.6142">
        <ele>222.533064</ele>
        <time>2026-08-28T16:55:10Z</time>
      </trkpt>
      <trkpt lat="43.70363" lon="1.61425">
        <ele>222.399851</ele>
        <time>2026-08-28T16:55:11Z</time>
      </trkpt>
      <trkpt lat="43.7037" lon="1.6143">
        <ele>222.269948</ele>
        <time>2026-08-28T16:55:12Z</time>
      </trkpt>
      <trkpt lat="43.70376" lon="1.61435">
        <ele>222.138882</ele>
        <time>2026-08-28T16:55:13Z</time>
      </trkpt>
      <trkpt lat="43.70383" lon="1.61439">
        <ele>222.006837</ele>
        <time>2026-08-28T16:55:14Z</time>
      </trkpt>
      <trkpt lat="43.7039" lon="1.61444">
        <ele>221.875415</ele>
        <time>2026-08-28T16:55:15Z</time>
      </trkpt>
      <trkpt lat="43.70397" lon="1.61448">
        <ele>221.746024</ele>
        <time>2026-08-28T16:55:16Z</time>
      </trkpt>
      <trkpt lat="43.70403" lon="1.61451">
        <ele>221.618493</ele>
        <time>2026-08-28T16:55:17Z</time>
      </trkpt>
      <trkpt lat="43.7041" lon="1.61454">
        <ele>221.493484</ele>
        <time>2026-08-28T16:55:18Z</time>
      </trkpt>
      <trkpt lat="43.70416" lon="1.61458">
        <ele>221.373429</ele>
        <time>2026-08-28T16:55:19Z</time>
      </trkpt>
      <trkpt lat="43.70423" lon="1.6146">
        <ele>221.250075</ele>
        <time>2026-08-28T16:55:20Z</time>
      </trkpt>
      <trkpt lat="43.7043" lon="1.61463">
        <ele>221.129098</ele>
        <time>2026-08-28T16:55:21Z</time>
      </trkpt>
      <trkpt lat="43.70437" lon="1.61465">
        <ele>221.007759</ele>
        <time>2026-08-28T16:55:22Z</time>
      </trkpt>
      <trkpt lat="43.70443" lon="1.61467">
        <ele>220.885821</ele>
        <time>2026-08-28T16:55:23Z</time>
      </trkpt>
      <trkpt lat="43.7045" lon="1.61469">
        <ele>220.764579</ele>
        <time>2026-08-28T16:55:24Z</time>
      </trkpt>
      <trkpt lat="43.70457" lon="1.6147">
        <ele>220.640598</ele>
        <time>2026-08-28T16:55:25Z</time>
      </trkpt>
      <trkpt lat="43.70464" lon="1.61471">
        <ele>220.522147</ele>
        <time>2026-08-28T16:55:26Z</time>
      </trkpt>
      <trkpt lat="43.70471" lon="1.61472">
        <ele>220.403826</ele>
        <time>2026-08-28T16:55:27Z</time>
      </trkpt>
      <trkpt lat="43.70477" lon="1.61472">
        <ele>220.287372</ele>
        <time>2026-08-28T16:55:28Z</time>
      </trkpt>
      <trkpt lat="43.70484" lon="1.61474">
        <ele>220.17385</ele>
        <time>2026-08-28T16:55:29Z</time>
      </trkpt>
      <trkpt lat="43.7049" lon="1.61475">
        <ele>220.061263</ele>
        <time>2026-08-28T16:55:30Z</time>
      </trkpt>
      <trkpt lat="43.70496" lon="1.61477">
        <ele>219.95431</ele>
        <time>2026-08-28T16:55:31Z</time>
      </trkpt>
      <trkpt lat="43.70502" lon="1.61478">
        <ele>219.851228</ele>
        <time>2026-08-28T16:55:32Z</time>
      </trkpt>
      <trkpt lat="43.70508" lon="1.61479">
        <ele>219.74448</ele>
        <time>2026-08-28T16:55:33Z</time>
      </trkpt>
      <trkpt lat="43.70514" lon="1.61481">
        <ele>219.637527</ele>
        <time>2026-08-28T16:55:34Z</time>
      </trkpt>
      <trkpt lat="43.7052" lon="1.61482">
        <ele>219.527622</ele>
        <time>2026-08-28T16:55:35Z</time>
      </trkpt>
      <trkpt lat="43.70526" lon="1.61484">
        <ele>219.422554</ele>
        <time>2026-08-28T16:55:36Z</time>
      </trkpt>
      <trkpt lat="43.70531" lon="1.61486">
        <ele>219.428324</ele>
        <time>2026-08-28T16:55:37Z</time>
      </trkpt>
      <trkpt lat="43.70537" lon="1.61488">
        <ele>219.469712</ele>
        <time>2026-08-28T16:55:38Z</time>
      </trkpt>
      <trkpt lat="43.70542" lon="1.6149">
        <ele>219.510404</ele>
        <time>2026-08-28T16:55:39Z</time>
      </trkpt>
      <trkpt lat="43.70548" lon="1.61492">
        <ele>219.549591</ele>
        <time>2026-08-28T16:55:40Z</time>
      </trkpt>
      <trkpt lat="43.70553" lon="1.61495">
        <ele>219.590465</ele>
        <time>2026-08-28T16:55:41Z</time>
      </trkpt>
      <trkpt lat="43.70558" lon="1.61497">
        <ele>219.628455</ele>
        <time>2026-08-28T16:55:42Z</time>
      </trkpt>
      <trkpt lat="43.70563" lon="1.615">
        <ele>219.666444</ele>
        <time>2026-08-28T16:55:43Z</time>
      </trkpt>
      <trkpt lat="43.70568" lon="1.61502">
        <ele>219.704948</ele>
        <time>2026-08-28T16:55:44Z</time>
      </trkpt>
      <trkpt lat="43.70573" lon="1.61504">
        <ele>219.743143</ele>
        <time>2026-08-28T16:55:45Z</time>
      </trkpt>
      <trkpt lat="43.70578" lon="1.61506">
        <ele>219.780285</ele>
        <time>2026-08-28T16:55:46Z</time>
      </trkpt>
      <trkpt lat="43.70583" lon="1.61509">
        <ele>219.818448</ele>
        <time>2026-08-28T16:55:47Z</time>
      </trkpt>
      <trkpt lat="43.70588" lon="1.61511">
        <ele>219.857963</ele>
        <time>2026-08-28T16:55:48Z</time>
      </trkpt>
      <trkpt lat="43.70593" lon="1.61514">
        <ele>219.895953</ele>
        <time>2026-08-28T16:55:49Z</time>
      </trkpt>
      <trkpt lat="43.70598" lon="1.61516">
        <ele>219.934968</ele>
        <time>2026-08-28T16:55:50Z</time>
      </trkpt>
      <trkpt lat="43.70603" lon="1.61519">
        <ele>219.972957</ele>
        <time>2026-08-28T16:55:51Z</time>
      </trkpt>
      <trkpt lat="43.70608" lon="1.61521">
        <ele>220.010946</ele>
        <time>2026-08-28T16:55:52Z</time>
      </trkpt>
      <trkpt lat="43.70613" lon="1.61524">
        <ele>220.047476</ele>
        <time>2026-08-28T16:55:53Z</time>
      </trkpt>
      <trkpt lat="43.70618" lon="1.61527">
        <ele>220.08467</ele>
        <time>2026-08-28T16:55:54Z</time>
      </trkpt>
      <trkpt lat="43.70623" lon="1.61529">
        <ele>220.121864</ele>
        <time>2026-08-28T16:55:55Z</time>
      </trkpt>
      <trkpt lat="43.70627" lon="1.61532">
        <ele>220.158596</ele>
        <time>2026-08-28T16:55:56Z</time>
      </trkpt>
      <trkpt lat="43.70632" lon="1.61535">
        <ele>220.197059</ele>
        <time>2026-08-28T16:55:57Z</time>
      </trkpt>
      <trkpt lat="43.70637" lon="1.61538">
        <ele>220.232916</ele>
        <time>2026-08-28T16:55:58Z</time>
      </trkpt>
      <trkpt lat="43.70641" lon="1.61541">
        <ele>220.268391</ele>
        <time>2026-08-28T16:55:59Z</time>
      </trkpt>
      <trkpt lat="43.70646" lon="1.61543">
        <ele>220.3036</ele>
        <time>2026-08-28T16:56:00Z</time>
      </trkpt>
      <trkpt lat="43.7065" lon="1.61546">
        <ele>220.339018</ele>
        <time>2026-08-28T16:56:01Z</time>
      </trkpt>
      <trkpt lat="43.70655" lon="1.61549">
        <ele>220.375548</ele>
        <time>2026-08-28T16:56:02Z</time>
      </trkpt>
      <trkpt lat="43.7066" lon="1.61552">
        <ele>220.411622</ele>
        <time>2026-08-28T16:56:03Z</time>
      </trkpt>
      <trkpt lat="43.70664" lon="1.61555">
        <ele>220.448777</ele>
        <time>2026-08-28T16:56:04Z</time>
      </trkpt>
      <trkpt lat="43.70669" lon="1.61557">
        <ele>220.485971</ele>
        <time>2026-08-28T16:56:05Z</time>
      </trkpt>
      <trkpt lat="43.70674" lon="1.6156">
        <ele>220.52164</ele>
        <time>2026-08-28T16:56:06Z</time>
      </trkpt>
      <trkpt lat="43.70678" lon="1.61563">
        <ele>220.556404</ele>
        <time>2026-08-28T16:56:07Z</time>
      </trkpt>
      <trkpt lat="43.70683" lon="1.61565">
        <ele>220.591613</ele>
        <time>2026-08-28T16:56:08Z</time>
      </trkpt>
      <trkpt lat="43.70688" lon="1.61569">
        <ele>220.630088</ele>
        <time>2026-08-28T16:56:09Z</time>
      </trkpt>
      <trkpt lat="43.70692" lon="1.61571">
        <ele>220.66748</ele>
        <time>2026-08-28T16:56:10Z</time>
      </trkpt>
      <trkpt lat="43.70697" lon="1.61574">
        <ele>220.741634</ele>
        <time>2026-08-28T16:56:11Z</time>
      </trkpt>
      <trkpt lat="43.70702" lon="1.61577">
        <ele>220.861545</ele>
        <time>2026-08-28T16:56:12Z</time>
      </trkpt>
      <trkpt lat="43.70707" lon="1.6158">
        <ele>220.978053</ele>
        <time>2026-08-28T16:56:13Z</time>
      </trkpt>
      <trkpt lat="43.70711" lon="1.61583">
        <ele>221.093936</ele>
        <time>2026-08-28T16:56:14Z</time>
      </trkpt>
      <trkpt lat="43.70716" lon="1.61585">
        <ele>221.200088</ele>
        <time>2026-08-28T16:56:15Z</time>
      </trkpt>
      <trkpt lat="43.7072" lon="1.61587">
        <ele>221.311514</ele>
        <time>2026-08-28T16:56:16Z</time>
      </trkpt>
      <trkpt lat="43.70725" lon="1.6159">
        <ele>221.433527</ele>
        <time>2026-08-28T16:56:17Z</time>
      </trkpt>
      <trkpt lat="43.7073" lon="1.61592">
        <ele>221.545504</ele>
        <time>2026-08-28T16:56:18Z</time>
      </trkpt>
      <trkpt lat="43.70734" lon="1.61595">
        <ele>221.661387</ele>
        <time>2026-08-28T16:56:19Z</time>
      </trkpt>
      <trkpt lat="43.70739" lon="1.61597">
        <ele>221.784191</ele>
        <time>2026-08-28T16:56:20Z</time>
      </trkpt>
      <trkpt lat="43.70744" lon="1.616">
        <ele>221.905353</ele>
        <time>2026-08-28T16:56:21Z</time>
      </trkpt>
      <trkpt lat="43.70749" lon="1.61602">
        <ele>222.018944</ele>
        <time>2026-08-28T16:56:22Z</time>
      </trkpt>
      <trkpt lat="43.70754" lon="1.61604">
        <ele>222.13037</ele>
        <time>2026-08-28T16:56:23Z</time>
      </trkpt>
      <trkpt lat="43.70758" lon="1.61606">
        <ele>222.239811</ele>
        <time>2026-08-28T16:56:24Z</time>
      </trkpt>
      <trkpt lat="43.70763" lon="1.61608">
        <ele>222.34584</ele>
        <time>2026-08-28T16:56:25Z</time>
      </trkpt>
      <trkpt lat="43.70767" lon="1.61609">
        <ele>222.449993</ele>
        <time>2026-08-28T16:56:26Z</time>
      </trkpt>
      <trkpt lat="43.70772" lon="1.61611">
        <ele>222.554146</ele>
        <time>2026-08-28T16:56:27Z</time>
      </trkpt>
      <trkpt lat="43.70776" lon="1.61613">
        <ele>222.658299</ele>
        <time>2026-08-28T16:56:28Z</time>
      </trkpt>
      <trkpt lat="43.7078" lon="1.61614">
        <ele>222.76166</ele>
        <time>2026-08-28T16:56:29Z</time>
      </trkpt>
      <trkpt lat="43.70785" lon="1.61615">
        <ele>222.866577</ele>
        <time>2026-08-28T16:56:30Z</time>
      </trkpt>
      <trkpt lat="43.70789" lon="1.61617">
        <ele>222.969579</ele>
        <time>2026-08-28T16:56:31Z</time>
      </trkpt>
      <trkpt lat="43.70794" lon="1.61617">
        <ele>223.071405</ele>
        <time>2026-08-28T16:56:32Z</time>
      </trkpt>
      <trkpt lat="43.70798" lon="1.61618">
        <ele>223.173002</ele>
        <time>2026-08-28T16:56:33Z</time>
      </trkpt>
      <trkpt lat="43.70802" lon="1.61619">
        <ele>223.271791</ele>
        <time>2026-08-28T16:56:34Z</time>
      </trkpt>
      <trkpt lat="43.70807" lon="1.61619">
        <ele>223.37058</ele>
        <time>2026-08-28T16:56:35Z</time>
      </trkpt>
      <trkpt lat="43.70811" lon="1.61619">
        <ele>223.466789</ele>
        <time>2026-08-28T16:56:36Z</time>
      </trkpt>
      <trkpt lat="43.70815" lon="1.6162">
        <ele>223.562998</ele>
        <time>2026-08-28T16:56:37Z</time>
      </trkpt>
      <trkpt lat="43.70819" lon="1.6162">
        <ele>223.655108</ele>
        <time>2026-08-28T16:56:38Z</time>
      </trkpt>
      <trkpt lat="43.70823" lon="1.61621">
        <ele>223.749335</ele>
        <time>2026-08-28T16:56:39Z</time>
      </trkpt>
      <trkpt lat="43.70827" lon="1.61621">
        <ele>223.841148</ele>
        <time>2026-08-28T16:56:40Z</time>
      </trkpt>
      <trkpt lat="43.70831" lon="1.61621">
        <ele>223.93057</ele>
        <time>2026-08-28T16:56:41Z</time>
      </trkpt>
      <trkpt lat="43.70835" lon="1.61622">
        <ele>224.01542</ele>
        <time>2026-08-28T16:56:42Z</time>
      </trkpt>
      <trkpt lat="43.70839" lon="1.61622">
        <ele>224.102431</ele>
        <time>2026-08-28T16:56:43Z</time>
      </trkpt>
      <trkpt lat="43.70842" lon="1.61622">
        <ele>224.187201</ele>
        <time>2026-08-28T16:56:44Z</time>
      </trkpt>
      <trkpt lat="43.70846" lon="1.61622">
        <ele>224.281079</ele>
        <time>2026-08-28T16:56:45Z</time>
      </trkpt>
      <trkpt lat="43.70851" lon="1.61622">
        <ele>224.377288</ele>
        <time>2026-08-28T16:56:46Z</time>
      </trkpt>
      <trkpt lat="43.70855" lon="1.61622">
        <ele>224.480321</ele>
        <time>2026-08-28T16:56:47Z</time>
      </trkpt>
      <trkpt lat="43.70859" lon="1.61622">
        <ele>224.576488</ele>
        <time>2026-08-28T16:56:48Z</time>
      </trkpt>
      <trkpt lat="43.70863" lon="1.61622">
        <ele>224.67035</ele>
        <time>2026-08-28T16:56:49Z</time>
      </trkpt>
      <trkpt lat="43.70868" lon="1.61622">
        <ele>224.768848</ele>
        <time>2026-08-28T16:56:50Z</time>
      </trkpt>
      <trkpt lat="43.70872" lon="1.61622">
        <ele>224.85188</ele>
        <time>2026-08-28T16:56:51Z</time>
      </trkpt>
      <trkpt lat="43.70876" lon="1.61622">
        <ele>224.924979</ele>
        <time>2026-08-28T16:56:52Z</time>
      </trkpt>
      <trkpt lat="43.70881" lon="1.61622">
        <ele>224.999735</ele>
        <time>2026-08-28T16:56:53Z</time>
      </trkpt>
      <trkpt lat="43.70885" lon="1.61621">
        <ele>225.074558</ele>
        <time>2026-08-28T16:56:54Z</time>
      </trkpt>
      <trkpt lat="43.7089" lon="1.61621">
        <ele>225.149574</ele>
        <time>2026-08-28T16:56:55Z</time>
      </trkpt>
      <trkpt lat="43.70895" lon="1.6162">
        <ele>225.226137</ele>
        <time>2026-08-28T16:56:56Z</time>
      </trkpt>
      <trkpt lat="43.70899" lon="1.61619">
        <ele>225.301153</ele>
        <time>2026-08-28T16:56:57Z</time>
      </trkpt>
      <trkpt lat="43.70904" lon="1.61619">
        <ele>225.37782</ele>
        <time>2026-08-28T16:56:58Z</time>
      </trkpt>
      <trkpt lat="43.70908" lon="1.61618">
        <ele>225.45273</ele>
        <time>2026-08-28T16:56:59Z</time>
      </trkpt>
      <trkpt lat="43.70913" lon="1.61618">
        <ele>225.529209</ele>
        <time>2026-08-28T16:57:00Z</time>
      </trkpt>
      <trkpt lat="43.70917" lon="1.61618">
        <ele>225.607234</ele>
        <time>2026-08-28T16:57:01Z</time>
      </trkpt>
      <trkpt lat="43.70922" lon="1.61618">
        <ele>225.683572</ele>
        <time>2026-08-28T16:57:02Z</time>
      </trkpt>
      <trkpt lat="43.70927" lon="1.61617">
        <ele>225.759985</ele>
        <time>2026-08-28T16:57:03Z</time>
      </trkpt>
      <trkpt lat="43.70931" lon="1.61617">
        <ele>225.838204</ele>
        <time>2026-08-28T16:57:04Z</time>
      </trkpt>
      <trkpt lat="43.70936" lon="1.61616">
        <ele>225.913027</ele>
        <time>2026-08-28T16:57:05Z</time>
      </trkpt>
      <trkpt lat="43.70941" lon="1.61616">
        <ele>225.992755</ele>
        <time>2026-08-28T16:57:06Z</time>
      </trkpt>
      <trkpt lat="43.70945" lon="1.61616">
        <ele>226.069423</ele>
        <time>2026-08-28T16:57:07Z</time>
      </trkpt>
      <trkpt lat="43.7095" lon="1.61615">
        <ele>226.147861</ele>
        <time>2026-08-28T16:57:08Z</time>
      </trkpt>
      <trkpt lat="43.70954" lon="1.61614">
        <ele>226.223145</ele>
        <time>2026-08-28T16:57:09Z</time>
      </trkpt>
      <trkpt lat="43.70959" lon="1.61614">
        <ele>226.296312</ele>
        <time>2026-08-28T16:57:10Z</time>
      </trkpt>
      <trkpt lat="43.70963" lon="1.61613">
        <ele>226.371595</ele>
        <time>2026-08-28T16:57:11Z</time>
      </trkpt>
      <trkpt lat="43.70968" lon="1.61612">
        <ele>226.444763</ele>
        <time>2026-08-28T16:57:12Z</time>
      </trkpt>
      <trkpt lat="43.70972" lon="1.61612">
        <ele>226.52143</ele>
        <time>2026-08-28T16:57:13Z</time>
      </trkpt>
      <trkpt lat="43.70977" lon="1.61611">
        <ele>226.594794</ele>
        <time>2026-08-28T16:57:14Z</time>
      </trkpt>
      <trkpt lat="43.70981" lon="1.61611">
        <ele>226.66465</ele>
        <time>2026-08-28T16:57:15Z</time>
      </trkpt>
      <trkpt lat="43.70985" lon="1.6161">
        <ele>226.737906</ele>
        <time>2026-08-28T16:57:16Z</time>
      </trkpt>
      <trkpt lat="43.7099" lon="1.6161">
        <ele>226.818129</ele>
        <time>2026-08-28T16:57:17Z</time>
      </trkpt>
      <trkpt lat="43.70995" lon="1.61609">
        <ele>226.898002</ele>
        <time>2026-08-28T16:57:18Z</time>
      </trkpt>
      <trkpt lat="43.71" lon="1.61608">
        <ele>226.977974</ele>
        <time>2026-08-28T16:57:19Z</time>
      </trkpt>
      <trkpt lat="43.71004" lon="1.61608">
        <ele>227.056293</ele>
        <time>2026-08-28T16:57:20Z</time>
      </trkpt>
      <trkpt lat="43.71009" lon="1.61607">
        <ele>227.134869</ele>
        <time>2026-08-28T16:57:21Z</time>
      </trkpt>
      <trkpt lat="43.71014" lon="1.61606">
        <ele>227.214841</ele>
        <time>2026-08-28T16:57:22Z</time>
      </trkpt>
      <trkpt lat="43.71019" lon="1.61606">
        <ele>227.296368</ele>
        <time>2026-08-28T16:57:23Z</time>
      </trkpt>
      <trkpt lat="43.71024" lon="1.61606">
        <ele>227.376097</ele>
        <time>2026-08-28T16:57:24Z</time>
      </trkpt>
      <trkpt lat="43.71028" lon="1.61605">
        <ele>227.45578</ele>
        <time>2026-08-28T16:57:25Z</time>
      </trkpt>
      <trkpt lat="43.71033" lon="1.61605">
        <ele>227.537096</ele>
        <time>2026-08-28T16:57:26Z</time>
      </trkpt>
      <trkpt lat="43.71038" lon="1.61605">
        <ele>227.620096</ele>
        <time>2026-08-28T16:57:27Z</time>
      </trkpt>
      <trkpt lat="43.71044" lon="1.61605">
        <ele>227.706456</ele>
        <time>2026-08-28T16:57:28Z</time>
      </trkpt>
      <trkpt lat="43.71049" lon="1.61605">
        <ele>227.791176</ele>
        <time>2026-08-28T16:57:29Z</time>
      </trkpt>
      <trkpt lat="43.71054" lon="1.61604">
        <ele>227.832862</ele>
        <time>2026-08-28T16:57:30Z</time>
      </trkpt>
      <trkpt lat="43.71059" lon="1.61604">
        <ele>227.872915</ele>
        <time>2026-08-28T16:57:31Z</time>
      </trkpt>
      <trkpt lat="43.71064" lon="1.61604">
        <ele>227.912967</ele>
        <time>2026-08-28T16:57:32Z</time>
      </trkpt>
      <trkpt lat="43.71069" lon="1.61604">
        <ele>227.952232</ele>
        <time>2026-08-28T16:57:33Z</time>
      </trkpt>
      <trkpt lat="43.71074" lon="1.61604">
        <ele>227.992284</ele>
        <time>2026-08-28T16:57:34Z</time>
      </trkpt>
      <trkpt lat="43.71079" lon="1.61605">
        <ele>228.030748</ele>
        <time>2026-08-28T16:57:35Z</time>
      </trkpt>
      <trkpt lat="43.71083" lon="1.61605">
        <ele>228.069351</ele>
        <time>2026-08-28T16:57:36Z</time>
      </trkpt>
      <trkpt lat="43.71088" lon="1.61606">
        <ele>228.107954</ele>
        <time>2026-08-28T16:57:37Z</time>
      </trkpt>
      <trkpt lat="43.71093" lon="1.61607">
        <ele>228.147473</ele>
        <time>2026-08-28T16:57:38Z</time>
      </trkpt>
      <trkpt lat="43.71098" lon="1.61607">
        <ele>228.187065</ele>
        <time>2026-08-28T16:57:39Z</time>
      </trkpt>
      <trkpt lat="43.71103" lon="1.61608">
        <ele>228.22886</ele>
        <time>2026-08-28T16:57:40Z</time>
      </trkpt>
      <trkpt lat="43.71108" lon="1.61608">
        <ele>228.269775</ele>
        <time>2026-08-28T16:57:41Z</time>
      </trkpt>
      <trkpt lat="43.71113" lon="1.61609">
        <ele>228.31009</ele>
        <time>2026-08-28T16:57:42Z</time>
      </trkpt>
      <trkpt lat="43.71118" lon="1.6161">
        <ele>228.350289</ele>
        <time>2026-08-28T16:57:43Z</time>
      </trkpt>
      <trkpt lat="43.71124" lon="1.6161">
        <ele>228.392882</ele>
        <time>2026-08-28T16:57:44Z</time>
      </trkpt>
      <trkpt lat="43.71129" lon="1.61611">
        <ele>228.434729</ele>
        <time>2026-08-28T16:57:45Z</time>
      </trkpt>
      <trkpt lat="43.71134" lon="1.61612">
        <ele>228.475909</ele>
        <time>2026-08-28T16:57:46Z</time>
      </trkpt>
      <trkpt lat="43.71139" lon="1.61613">
        <ele>228.516107</ele>
        <time>2026-08-28T16:57:47Z</time>
      </trkpt>
      <trkpt lat="43.71144" lon="1.61613">
        <ele>228.556306</ele>
        <time>2026-08-28T16:57:48Z</time>
      </trkpt>
      <trkpt lat="43.71149" lon="1.61614">
        <ele>228.595622</ele>
        <time>2026-08-28T16:57:49Z</time>
      </trkpt>
      <trkpt lat="43.71154" lon="1.61614">
        <ele>228.634177</ele>
        <time>2026-08-28T16:57:50Z</time>
      </trkpt>
      <trkpt lat="43.71158" lon="1.61615">
        <ele>228.67278</ele>
        <time>2026-08-28T16:57:51Z</time>
      </trkpt>
      <trkpt lat="43.71163" lon="1.61616">
        <ele>228.712371</ele>
        <time>2026-08-28T16:57:52Z</time>
      </trkpt>
      <trkpt lat="43.71168" lon="1.61617">
        <ele>228.752923</ele>
        <time>2026-08-28T16:57:53Z</time>
      </trkpt>
      <trkpt lat="43.71173" lon="1.61618">
        <ele>228.793387</ele>
        <time>2026-08-28T16:57:54Z</time>
      </trkpt>
      <trkpt lat="43.71178" lon="1.61619">
        <ele>228.832112</ele>
        <time>2026-08-28T16:57:55Z</time>
      </trkpt>
      <trkpt lat="43.71183" lon="1.61619">
        <ele>228.871703</ele>
        <time>2026-08-28T16:57:56Z</time>
      </trkpt>
      <trkpt lat="43.71188" lon="1.61621">
        <ele>228.908524</ele>
        <time>2026-08-28T16:57:57Z</time>
      </trkpt>
      <trkpt lat="43.71192" lon="1.61622">
        <ele>228.94613</ele>
        <time>2026-08-28T16:57:58Z</time>
      </trkpt>
      <trkpt lat="43.71196" lon="1.61623">
        <ele>228.981155</ele>
        <time>2026-08-28T16:57:59Z</time>
      </trkpt>
      <trkpt lat="43.71201" lon="1.61625">
        <ele>229.019663</ele>
        <time>2026-08-28T16:58:00Z</time>
      </trkpt>
      <trkpt lat="43.71206" lon="1.61626">
        <ele>229.060126</ele>
        <time>2026-08-28T16:58:01Z</time>
      </trkpt>
      <trkpt lat="43.71211" lon="1.61628">
        <ele>229.099812</ele>
        <time>2026-08-28T16:58:02Z</time>
      </trkpt>
      <trkpt lat="43.71216" lon="1.6163">
        <ele>229.140571</ele>
        <time>2026-08-28T16:58:03Z</time>
      </trkpt>
      <trkpt lat="43.71221" lon="1.61632">
        <ele>229.181834</ele>
        <time>2026-08-28T16:58:04Z</time>
      </trkpt>
      <trkpt lat="43.71226" lon="1.61634">
        <ele>229.224224</ele>
        <time>2026-08-28T16:58:05Z</time>
      </trkpt>
      <trkpt lat="43.71231" lon="1.61637">
        <ele>229.319123</ele>
        <time>2026-08-28T16:58:06Z</time>
      </trkpt>
      <trkpt lat="43.71236" lon="1.61639">
        <ele>229.422641</ele>
        <time>2026-08-28T16:58:07Z</time>
      </trkpt>
      <trkpt lat="43.71241" lon="1.61641">
        <ele>229.524335</ele>
        <time>2026-08-28T16:58:08Z</time>
      </trkpt>
      <trkpt lat="43.71245" lon="1.61644">
        <ele>229.624056</ele>
        <time>2026-08-28T16:58:09Z</time>
      </trkpt>
      <trkpt lat="43.7125" lon="1.61647">
        <ele>229.722012</ele>
        <time>2026-08-28T16:58:10Z</time>
      </trkpt>
      <trkpt lat="43.71254" lon="1.61651">
        <ele>229.820361</ele>
        <time>2026-08-28T16:58:11Z</time>
      </trkpt>
      <trkpt lat="43.71259" lon="1.61654">
        <ele>229.923791</ele>
        <time>2026-08-28T16:58:12Z</time>
      </trkpt>
      <trkpt lat="43.71264" lon="1.61658">
        <ele>230.027609</ele>
        <time>2026-08-28T16:58:13Z</time>
      </trkpt>
      <trkpt lat="43.71268" lon="1.61662">
        <ele>230.133095</ele>
        <time>2026-08-28T16:58:14Z</time>
      </trkpt>
      <trkpt lat="43.71273" lon="1.61665">
        <ele>230.228835</ele>
        <time>2026-08-28T16:58:15Z</time>
      </trkpt>
      <trkpt lat="43.71277" lon="1.61669">
        <ele>230.326079</ele>
        <time>2026-08-28T16:58:16Z</time>
      </trkpt>
      <trkpt lat="43.71281" lon="1.61673">
        <ele>230.427515</ele>
        <time>2026-08-28T16:58:17Z</time>
      </trkpt>
      <trkpt lat="43.71286" lon="1.61677">
        <ele>230.530312</ele>
        <time>2026-08-28T16:58:18Z</time>
      </trkpt>
      <trkpt lat="43.7129" lon="1.61682">
        <ele>230.632601</ele>
        <time>2026-08-28T16:58:19Z</time>
      </trkpt>
      <trkpt lat="43.71294" lon="1.61686">
        <ele>230.73375</ele>
        <time>2026-08-28T16:58:20Z</time>
      </trkpt>
      <trkpt lat="43.71298" lon="1.61691">
        <ele>230.837278</ele>
        <time>2026-08-28T16:58:21Z</time>
      </trkpt>
      <trkpt lat="43.71302" lon="1.61696">
        <ele>230.936987</ele>
        <time>2026-08-28T16:58:22Z</time>
      </trkpt>
      <trkpt lat="43.71305" lon="1.61701">
        <ele>231.035274</ele>
        <time>2026-08-28T16:58:23Z</time>
      </trkpt>
      <trkpt lat="43.71309" lon="1.61706">
        <ele>231.136482</ele>
        <time>2026-08-28T16:58:24Z</time>
      </trkpt>
      <trkpt lat="43.71313" lon="1.61711">
        <ele>231.233816</ele>
        <time>2026-08-28T16:58:25Z</time>
      </trkpt>
      <trkpt lat="43.71316" lon="1.61715">
        <ele>231.327452</ele>
        <time>2026-08-28T16:58:26Z</time>
      </trkpt>
      <trkpt lat="43.7132" lon="1.6172">
        <ele>231.423845</ele>
        <time>2026-08-28T16:58:27Z</time>
      </trkpt>
      <trkpt lat="43.71324" lon="1.61725">
        <ele>231.524069</ele>
        <time>2026-08-28T16:58:28Z</time>
      </trkpt>
      <trkpt lat="43.71327" lon="1.6173">
        <ele>231.622915</ele>
        <time>2026-08-28T16:58:29Z</time>
      </trkpt>
      <trkpt lat="43.71331" lon="1.61734">
        <ele>231.718936</ele>
        <time>2026-08-28T16:58:30Z</time>
      </trkpt>
      <trkpt lat="43.71335" lon="1.61738">
        <ele>231.811461</ele>
        <time>2026-08-28T16:58:31Z</time>
      </trkpt>
      <trkpt lat="43.71339" lon="1.61742">
        <ele>231.901504</ele>
        <time>2026-08-28T16:58:32Z</time>
      </trkpt>
      <trkpt lat="43.71343" lon="1.61745">
        <ele>231.991546</ele>
        <time>2026-08-28T16:58:33Z</time>
      </trkpt>
      <trkpt lat="43.71346" lon="1.61749">
        <ele>232.073667</ele>
        <time>2026-08-28T16:58:34Z</time>
      </trkpt>
      <trkpt lat="43.71349" lon="1.61752">
        <ele>232.149709</ele>
        <time>2026-08-28T16:58:35Z</time>
      </trkpt>
      <trkpt lat="43.71352" lon="1.61756">
        <ele>232.223779</ele>
        <time>2026-08-28T16:58:36Z</time>
      </trkpt>
      <trkpt lat="43.71354" lon="1.61759">
        <ele>232.289382</ele>
        <time>2026-08-28T16:58:37Z</time>
      </trkpt>
      <trkpt lat="43.71356" lon="1.61761">
        <ele>232.338785</ele>
        <time>2026-08-28T16:58:38Z</time>
      </trkpt>
      <trkpt lat="43.71359" lon="1.61762">
        <ele>232.382297</ele>
        <time>2026-08-28T16:58:39Z</time>
      </trkpt>
      <trkpt lat="43.71361" lon="1.61763">
        <ele>232.433162</ele>
        <time>2026-08-28T16:58:40Z</time>
      </trkpt>
      <trkpt lat="43.71364" lon="1.61762">
        <ele>232.494028</ele>
        <time>2026-08-28T16:58:41Z</time>
      </trkpt>
      <trkpt lat="43.71367" lon="1.6176">
        <ele>232.552205</ele>
        <time>2026-08-28T16:58:42Z</time>
      </trkpt>
      <trkpt lat="43.71369" lon="1.61755">
        <ele>232.631698</ele>
        <time>2026-08-28T16:58:43Z</time>
      </trkpt>
      <trkpt lat="43.71372" lon="1.61751">
        <ele>232.71004</ele>
        <time>2026-08-28T16:58:44Z</time>
      </trkpt>
      <trkpt lat="43.71374" lon="1.61746">
        <ele>232.740362</ele>
        <time>2026-08-28T16:58:45Z</time>
      </trkpt>
      <trkpt lat="43.71377" lon="1.61741">
        <ele>232.76503</ele>
        <time>2026-08-28T16:58:46Z</time>
      </trkpt>
      <trkpt lat="43.71379" lon="1.61737">
        <ele>232.789761</ele>
        <time>2026-08-28T16:58:47Z</time>
      </trkpt>
      <trkpt lat="43.71381" lon="1.61732">
        <ele>232.814796</ele>
        <time>2026-08-28T16:58:48Z</time>
      </trkpt>
      <trkpt lat="43.71384" lon="1.61727">
        <ele>232.843275</ele>
        <time>2026-08-28T16:58:49Z</time>
      </trkpt>
      <trkpt lat="43.71387" lon="1.61722">
        <ele>232.872319</ele>
        <time>2026-08-28T16:58:50Z</time>
      </trkpt>
      <trkpt lat="43.7139" lon="1.61718">
        <ele>232.900319</ele>
        <time>2026-08-28T16:58:51Z</time>
      </trkpt>
      <trkpt lat="43.71392" lon="1.61712">
        <ele>232.928989</ele>
        <time>2026-08-28T16:58:52Z</time>
      </trkpt>
      <trkpt lat="43.71395" lon="1.61707">
        <ele>232.958734</ele>
        <time>2026-08-28T16:58:53Z</time>
      </trkpt>
      <trkpt lat="43.71398" lon="1.61702">
        <ele>232.988625</ele>
        <time>2026-08-28T16:58:54Z</time>
      </trkpt>
      <trkpt lat="43.71401" lon="1.61696">
        <ele>233.018014</ele>
        <time>2026-08-28T16:58:55Z</time>
      </trkpt>
      <trkpt lat="43.71404" lon="1.61692">
        <ele>233.046756</ele>
        <time>2026-08-28T16:58:56Z</time>
      </trkpt>
      <trkpt lat="43.71407" lon="1.61686">
        <ele>233.076886</ele>
        <time>2026-08-28T16:58:57Z</time>
      </trkpt>
      <trkpt lat="43.7141" lon="1.61681">
        <ele>233.10772</ele>
        <time>2026-08-28T16:58:58Z</time>
      </trkpt>
      <trkpt lat="43.71413" lon="1.61675">
        <ele>233.139291</ele>
        <time>2026-08-28T16:58:59Z</time>
      </trkpt>
      <trkpt lat="43.71416" lon="1.6167">
        <ele>233.170131</ele>
        <time>2026-08-28T16:59:00Z</time>
      </trkpt>
      <trkpt lat="43.71419" lon="1.61664">
        <ele>233.200615</ele>
        <time>2026-08-28T16:59:01Z</time>
      </trkpt>
      <trkpt lat="43.71422" lon="1.61658">
        <ele>233.231832</ele>
        <time>2026-08-28T16:59:02Z</time>
      </trkpt>
      <trkpt lat="43.71425" lon="1.61652">
        <ele>233.263423</ele>
        <time>2026-08-28T16:59:03Z</time>
      </trkpt>
      <trkpt lat="43.71428" lon="1.61647">
        <ele>233.292806</ele>
        <time>2026-08-28T16:59:04Z</time>
      </trkpt>
      <trkpt lat="43.7143" lon="1.61642">
        <ele>233.322935</ele>
        <time>2026-08-28T16:59:05Z</time>
      </trkpt>
      <trkpt lat="43.71433" lon="1.61636">
        <ele>233.354901</ele>
        <time>2026-08-28T16:59:06Z</time>
      </trkpt>
      <trkpt lat="43.71435" lon="1.61629">
        <ele>233.38638</ele>
        <time>2026-08-28T16:59:07Z</time>
      </trkpt>
      <trkpt lat="43.71438" lon="1.61623">
        <ele>233.417293</ele>
        <time>2026-08-28T16:59:08Z</time>
      </trkpt>
      <trkpt lat="43.7144" lon="1.61617">
        <ele>233.448207</ele>
        <time>2026-08-28T16:59:09Z</time>
      </trkpt>
      <trkpt lat="43.71442" lon="1.6161">
        <ele>233.480074</ele>
        <time>2026-08-28T16:59:10Z</time>
      </trkpt>
      <trkpt lat="43.71444" lon="1.61604">
        <ele>233.51139</ele>
        <time>2026-08-28T16:59:11Z</time>
      </trkpt>
      <trkpt lat="43.71446" lon="1.61598">
        <ele>233.543256</ele>
        <time>2026-08-28T16:59:12Z</time>
      </trkpt>
      <trkpt lat="43.71448" lon="1.61591">
        <ele>233.57399</ele>
        <time>2026-08-28T16:59:13Z</time>
      </trkpt>
      <trkpt lat="43.71449" lon="1.61584">
        <ele>233.606066</ele>
        <time>2026-08-28T16:59:14Z</time>
      </trkpt>
      <trkpt lat="43.71451" lon="1.61577">
        <ele>233.640034</ele>
        <time>2026-08-28T16:59:15Z</time>
      </trkpt>
      <trkpt lat="43.71452" lon="1.6157">
        <ele>233.673321</ele>
        <time>2026-08-28T16:59:16Z</time>
      </trkpt>
      <trkpt lat="43.71454" lon="1.61563">
        <ele>233.70742</ele>
        <time>2026-08-28T16:59:17Z</time>
      </trkpt>
      <trkpt lat="43.71456" lon="1.61555">
        <ele>233.743002</ele>
        <time>2026-08-28T16:59:18Z</time>
      </trkpt>
      <trkpt lat="43.71458" lon="1.61548">
        <ele>233.77654</ele>
        <time>2026-08-28T16:59:19Z</time>
      </trkpt>
      <trkpt lat="43.71459" lon="1.61541">
        <ele>233.810077</ele>
        <time>2026-08-28T16:59:20Z</time>
      </trkpt>
      <trkpt lat="43.71461" lon="1.61534">
        <ele>233.806081</ele>
        <time>2026-08-28T16:59:21Z</time>
      </trkpt>
      <trkpt lat="43.71463" lon="1.61527">
        <ele>233.753712</ele>
        <time>2026-08-28T16:59:22Z</time>
      </trkpt>
      <trkpt lat="43.71464" lon="1.6152">
        <ele>233.702668</ele>
        <time>2026-08-28T16:59:23Z</time>
      </trkpt>
      <trkpt lat="43.71466" lon="1.61513">
        <ele>233.650268</ele>
        <time>2026-08-28T16:59:24Z</time>
      </trkpt>
      <trkpt lat="43.71468" lon="1.61506">
        <ele>233.597898</ele>
        <time>2026-08-28T16:59:25Z</time>
      </trkpt>
      <trkpt lat="43.7147" lon="1.61499">
        <ele>233.544843</ele>
        <time>2026-08-28T16:59:26Z</time>
      </trkpt>
      <trkpt lat="43.71472" lon="1.61492">
        <ele>233.490477</ele>
        <time>2026-08-28T16:59:27Z</time>
      </trkpt>
      <trkpt lat="43.71473" lon="1.61484">
        <ele>233.43656</ele>
        <time>2026-08-28T16:59:28Z</time>
      </trkpt>
      <trkpt lat="43.71476" lon="1.61477">
        <ele>233.382487</ele>
        <time>2026-08-28T16:59:29Z</time>
      </trkpt>
      <trkpt lat="43.71477" lon="1.6147">
        <ele>233.327454</ele>
        <time>2026-08-28T16:59:30Z</time>
      </trkpt>
      <trkpt lat="43.71479" lon="1.61462">
        <ele>233.274359</ele>
        <time>2026-08-28T16:59:31Z</time>
      </trkpt>
      <trkpt lat="43.71481" lon="1.61455">
        <ele>233.219629</ele>
        <time>2026-08-28T16:59:32Z</time>
      </trkpt>
      <trkpt lat="43.71483" lon="1.61448">
        <ele>233.166925</ele>
        <time>2026-08-28T16:59:33Z</time>
      </trkpt>
      <trkpt lat="43.71484" lon="1.61441">
        <ele>233.11422</ele>
        <time>2026-08-28T16:59:34Z</time>
      </trkpt>
      <trkpt lat="43.71487" lon="1.61434">
        <ele>233.060418</ele>
        <time>2026-08-28T16:59:35Z</time>
      </trkpt>
      <trkpt lat="43.71489" lon="1.61426">
        <ele>232.999459</ele>
        <time>2026-08-28T16:59:36Z</time>
      </trkpt>
      <trkpt lat="43.71492" lon="1.61418">
        <ele>232.933844</ele>
        <time>2026-08-28T16:59:37Z</time>
      </trkpt>
      <trkpt lat="43.71496" lon="1.6141">
        <ele>232.866599</ele>
        <time>2026-08-28T16:59:38Z</time>
      </trkpt>
      <trkpt lat="43.71499" lon="1.61401">
        <ele>232.797158</ele>
        <time>2026-08-28T16:59:39Z</time>
      </trkpt>
      <trkpt lat="43.71503" lon="1.61393">
        <ele>232.731396</ele>
        <time>2026-08-28T16:59:40Z</time>
      </trkpt>
      <trkpt lat="43.71507" lon="1.61386">
        <ele>232.666223</ele>
        <time>2026-08-28T16:59:41Z</time>
      </trkpt>
      <trkpt lat="43.71511" lon="1.61378">
        <ele>232.598812</ele>
        <time>2026-08-28T16:59:42Z</time>
      </trkpt>
      <trkpt lat="43.71515" lon="1.6137">
        <ele>232.531975</ele>
        <time>2026-08-28T16:59:43Z</time>
      </trkpt>
      <trkpt lat="43.71518" lon="1.61362">
        <ele>232.465673</ele>
        <time>2026-08-28T16:59:44Z</time>
      </trkpt>
      <trkpt lat="43.71522" lon="1.61354">
        <ele>232.398786</ele>
        <time>2026-08-28T16:59:45Z</time>
      </trkpt>
      <trkpt lat="43.71526" lon="1.61347">
        <ele>232.333068</ele>
        <time>2026-08-28T16:59:46Z</time>
      </trkpt>
      <trkpt lat="43.71529" lon="1.61339">
        <ele>232.267046</ele>
        <time>2026-08-28T16:59:47Z</time>
      </trkpt>
      <trkpt lat="43.71533" lon="1.61331">
        <ele>232.202239</ele>
        <time>2026-08-28T16:59:48Z</time>
      </trkpt>
      <trkpt lat="43.71536" lon="1.61322">
        <ele>232.134508</ele>
        <time>2026-08-28T16:59:49Z</time>
      </trkpt>
      <trkpt lat="43.71539" lon="1.61314">
        <ele>232.044611</ele>
        <time>2026-08-28T16:59:50Z</time>
      </trkpt>
      <trkpt lat="43.71542" lon="1.61306">
        <ele>231.770184</ele>
        <time>2026-08-28T16:59:51Z</time>
      </trkpt>
      <trkpt lat="43.71545" lon="1.61297">
        <ele>231.49481</ele>
        <time>2026-08-28T16:59:52Z</time>
      </trkpt>
      <trkpt lat="43.71548" lon="1.61289">
        <ele>231.219392</ele>
        <time>2026-08-28T16:59:53Z</time>
      </trkpt>
      <trkpt lat="43.71551" lon="1.61281">
        <ele>230.954704</ele>
        <time>2026-08-28T16:59:54Z</time>
      </trkpt>
      <trkpt lat="43.71554" lon="1.61272">
        <ele>230.686904</ele>
        <time>2026-08-28T16:59:55Z</time>
      </trkpt>
      <trkpt lat="43.71556" lon="1.61264">
        <ele>230.424546</ele>
        <time>2026-08-28T16:59:56Z</time>
      </trkpt>
      <trkpt lat="43.71558" lon="1.61256">
        <ele>230.163747</ele>
        <time>2026-08-28T16:59:57Z</time>
      </trkpt>
      <trkpt lat="43.71561" lon="1.61248">
        <ele>229.897076</ele>
        <time>2026-08-28T16:59:58Z</time>
      </trkpt>
      <trkpt lat="43.71563" lon="1.6124">
        <ele>229.652581</ele>
        <time>2026-08-28T16:59:59Z</time>
      </trkpt>
      <trkpt lat="43.71566" lon="1.61234">
        <ele>229.448873</ele>
        <time>2026-08-28T17:00:00Z</time>
      </trkpt>
      <trkpt lat="43.71571" lon="1.61233">
        <ele>229.22983</ele>
        <time>2026-08-28T17:00:01Z</time>
      </trkpt>
      <trkpt lat="43.71576" lon="1.61236">
        <ele>229.019833</ele>
        <time>2026-08-28T17:00:02Z</time>
      </trkpt>
      <trkpt lat="43.71579" lon="1.61242">
        <ele>228.813603</ele>
        <time>2026-08-28T17:00:03Z</time>
      </trkpt>
      <trkpt lat="43.71581" lon="1.61249">
        <ele>228.591283</ele>
        <time>2026-08-28T17:00:04Z</time>
      </trkpt>
      <trkpt lat="43.71583" lon="1.61255">
        <ele>228.376111</ele>
        <time>2026-08-28T17:00:05Z</time>
      </trkpt>
      <trkpt lat="43.71585" lon="1.61262">
        <ele>228.156957</ele>
        <time>2026-08-28T17:00:06Z</time>
      </trkpt>
      <trkpt lat="43.71587" lon="1.61268">
        <ele>227.969717</ele>
        <time>2026-08-28T17:00:07Z</time>
      </trkpt>
      <trkpt lat="43.71588" lon="1.61273">
        <ele>227.819991</ele>
        <time>2026-08-28T17:00:08Z</time>
      </trkpt>
      <trkpt lat="43.71589" lon="1.61277">
        <ele>227.710478</ele>
        <time>2026-08-28T17:00:09Z</time>
      </trkpt>
      <trkpt lat="43.7159" lon="1.61278">
        <ele>227.645656</ele>
        <time>2026-08-28T17:00:10Z</time>
      </trkpt>
      <trkpt lat="43.7159" lon="1.61279">
        <ele>227.636982</ele>
        <time>2026-08-28T17:00:11Z</time>
      </trkpt>
      <trkpt lat="43.71589" lon="1.61279">
        <ele>227.629813</ele>
        <time>2026-08-28T17:00:12Z</time>
      </trkpt>
      <trkpt lat="43.71589" lon="1.61292">
        <ele>227.246234</ele>
        <time>2026-08-28T17:01:16Z</time>
      </trkpt>
      <trkpt lat="43.71589" lon="1.61296">
        <ele>227.131265</ele>
        <time>2026-08-28T17:01:17Z</time>
      </trkpt>
      <trkpt lat="43.71589" lon="1.61301">
        <ele>226.977484</ele>
        <time>2026-08-28T17:01:18Z</time>
      </trkpt>
      <trkpt lat="43.7159" lon="1.61306">
        <ele>226.818087</ele>
        <time>2026-08-28T17:01:19Z</time>
      </trkpt>
      <trkpt lat="43.7159" lon="1.61312">
        <ele>226.661793</ele>
        <time>2026-08-28T17:01:20Z</time>
      </trkpt>
      <trkpt lat="43.7159" lon="1.61317">
        <ele>226.495905</ele>
        <time>2026-08-28T17:01:21Z</time>
      </trkpt>
      <trkpt lat="43.7159" lon="1.61322">
        <ele>226.339611</ele>
        <time>2026-08-28T17:01:22Z</time>
      </trkpt>
      <trkpt lat="43.7159" lon="1.61328">
        <ele>226.188769</ele>
        <time>2026-08-28T17:01:23Z</time>
      </trkpt>
      <trkpt lat="43.7159" lon="1.61334">
        <ele>226.005588</ele>
        <time>2026-08-28T17:01:24Z</time>
      </trkpt>
      <trkpt lat="43.7159" lon="1.6134">
        <ele>225.831612</ele>
        <time>2026-08-28T17:01:25Z</time>
      </trkpt>
      <trkpt lat="43.71591" lon="1.61346">
        <ele>225.644287</ele>
        <time>2026-08-28T17:01:26Z</time>
      </trkpt>
      <trkpt lat="43.71591" lon="1.61353">
        <ele>225.443661</ele>
        <time>2026-08-28T17:01:27Z</time>
      </trkpt>
      <trkpt lat="43.71591" lon="1.6136">
        <ele>225.237265</ele>
        <time>2026-08-28T17:01:28Z</time>
      </trkpt>
      <trkpt lat="43.7159" lon="1.61367">
        <ele>225.027922</ele>
        <time>2026-08-28T17:01:29Z</time>
      </trkpt>
      <trkpt lat="43.7159" lon="1.61374">
        <ele>224.815514</ele>
        <time>2026-08-28T17:01:30Z</time>
      </trkpt>
      <trkpt lat="43.7159" lon="1.61381">
        <ele>224.590036</ele>
        <time>2026-08-28T17:01:31Z</time>
      </trkpt>
      <trkpt lat="43.7159" lon="1.61389">
        <ele>224.338856</ele>
        <time>2026-08-28T17:01:32Z</time>
      </trkpt>
      <trkpt lat="43.7159" lon="1.61397">
        <ele>224.080904</ele>
        <time>2026-08-28T17:01:33Z</time>
      </trkpt>
      <trkpt lat="43.7159" lon="1.61404">
        <ele>223.833029</ele>
        <time>2026-08-28T17:01:34Z</time>
      </trkpt>
      <trkpt lat="43.7159" lon="1.61412">
        <ele>223.581808</ele>
        <time>2026-08-28T17:01:35Z</time>
      </trkpt>
      <trkpt lat="43.7159" lon="1.6142">
        <ele>223.307341</ele>
        <time>2026-08-28T17:01:36Z</time>
      </trkpt>
      <trkpt lat="43.7159" lon="1.61429">
        <ele>223.01316</ele>
        <time>2026-08-28T17:01:37Z</time>
      </trkpt>
      <trkpt lat="43.7159" lon="1.61438">
        <ele>222.695847</ele>
        <time>2026-08-28T17:01:38Z</time>
      </trkpt>
      <trkpt lat="43.7159" lon="1.61449">
        <ele>222.338439</ele>
        <time>2026-08-28T17:01:39Z</time>
      </trkpt>
      <trkpt lat="43.71591" lon="1.61461">
        <ele>221.954951</ele>
        <time>2026-08-28T17:01:40Z</time>
      </trkpt>
      <trkpt lat="43.71591" lon="1.61473">
        <ele>221.548204</ele>
        <time>2026-08-28T17:01:41Z</time>
      </trkpt>
      <trkpt lat="43.71591" lon="1.61486">
        <ele>221.128071</ele>
        <time>2026-08-28T17:01:42Z</time>
      </trkpt>
      <trkpt lat="43.71592" lon="1.615">
        <ele>220.671157</ele>
        <time>2026-08-28T17:01:43Z</time>
      </trkpt>
      <trkpt lat="43.71593" lon="1.61515">
        <ele>220.160862</ele>
        <time>2026-08-28T17:01:44Z</time>
      </trkpt>
      <trkpt lat="43.71596" lon="1.6153">
        <ele>219.647612</ele>
        <time>2026-08-28T17:01:45Z</time>
      </trkpt>
      <trkpt lat="43.71599" lon="1.61546">
        <ele>219.111259</ele>
        <time>2026-08-28T17:01:46Z</time>
      </trkpt>
      <trkpt lat="43.71604" lon="1.61561">
        <ele>218.548566</ele>
        <time>2026-08-28T17:01:47Z</time>
      </trkpt>
      <trkpt lat="43.71609" lon="1.61578">
        <ele>217.957032</ele>
        <time>2026-08-28T17:01:48Z</time>
      </trkpt>
      <trkpt lat="43.71615" lon="1.61594">
        <ele>217.34964</ele>
        <time>2026-08-28T17:01:49Z</time>
      </trkpt>
      <trkpt lat="43.71621" lon="1.61611">
        <ele>216.725322</ele>
        <time>2026-08-28T17:01:50Z</time>
      </trkpt>
      <trkpt lat="43.71627" lon="1.61629">
        <ele>215.807496</ele>
        <time>2026-08-28T17:01:51Z</time>
      </trkpt>
      <trkpt lat="43.71633" lon="1.61646">
        <ele>214.74708</ele>
        <time>2026-08-28T17:01:52Z</time>
      </trkpt>
      <trkpt lat="43.7164" lon="1.61664">
        <ele>213.643282</ele>
        <time>2026-08-28T17:01:53Z</time>
      </trkpt>
      <trkpt lat="43.71649" lon="1.61681">
        <ele>212.514383</ele>
        <time>2026-08-28T17:01:54Z</time>
      </trkpt>
      <trkpt lat="43.7166" lon="1.61695">
        <ele>211.389234</ele>
        <time>2026-08-28T17:01:55Z</time>
      </trkpt>
      <trkpt lat="43.71672" lon="1.61706">
        <ele>210.271697</ele>
        <time>2026-08-28T17:01:56Z</time>
      </trkpt>
      <trkpt lat="43.71684" lon="1.61717">
        <ele>209.199928</ele>
        <time>2026-08-28T17:01:57Z</time>
      </trkpt>
      <trkpt lat="43.71696" lon="1.61727">
        <ele>208.157416</ele>
        <time>2026-08-28T17:01:58Z</time>
      </trkpt>
      <trkpt lat="43.71707" lon="1.61736">
        <ele>207.194352</ele>
        <time>2026-08-28T17:01:59Z</time>
      </trkpt>
      <trkpt lat="43.71718" lon="1.61745">
        <ele>206.224569</ele>
        <time>2026-08-28T17:02:00Z</time>
      </trkpt>
      <trkpt lat="43.71729" lon="1.61754">
        <ele>205.293977</ele>
        <time>2026-08-28T17:02:01Z</time>
      </trkpt>
      <trkpt lat="43.71739" lon="1.61763">
        <ele>204.373412</ele>
        <time>2026-08-28T17:02:02Z</time>
      </trkpt>
      <trkpt lat="43.71749" lon="1.61772">
        <ele>203.497224</ele>
        <time>2026-08-28T17:02:03Z</time>
      </trkpt>
      <trkpt lat="43.71758" lon="1.61781">
        <ele>202.881954</ele>
        <time>2026-08-28T17:02:04Z</time>
      </trkpt>
      <trkpt lat="43.71767" lon="1.61789">
        <ele>202.637842</ele>
        <time>2026-08-28T17:02:05Z</time>
      </trkpt>
      <trkpt lat="43.71776" lon="1.61797">
        <ele>202.407318</ele>
        <time>2026-08-28T17:02:06Z</time>
      </trkpt>
      <trkpt lat="43.71785" lon="1.61804">
        <ele>202.185934</ele>
        <time>2026-08-28T17:02:07Z</time>
      </trkpt>
      <trkpt lat="43.71793" lon="1.61812">
        <ele>201.969986</ele>
        <time>2026-08-28T17:02:08Z</time>
      </trkpt>
      <trkpt lat="43.718" lon="1.61818">
        <ele>201.768493</ele>
        <time>2026-08-28T17:02:09Z</time>
      </trkpt>
      <trkpt lat="43.71807" lon="1.61825">
        <ele>201.59158</ele>
        <time>2026-08-28T17:02:10Z</time>
      </trkpt>
      <trkpt lat="43.71814" lon="1.6183">
        <ele>201.418256</ele>
        <time>2026-08-28T17:02:11Z</time>
      </trkpt>
      <trkpt lat="43.7182" lon="1.61836">
        <ele>201.259373</ele>
        <time>2026-08-28T17:02:12Z</time>
      </trkpt>
      <trkpt lat="43.71826" lon="1.61841">
        <ele>201.106054</ele>
        <time>2026-08-28T17:02:13Z</time>
      </trkpt>
      <trkpt lat="43.71831" lon="1.61846">
        <ele>200.957186</ele>
        <time>2026-08-28T17:02:14Z</time>
      </trkpt>
      <trkpt lat="43.71837" lon="1.61851">
        <ele>200.816466</ele>
        <time>2026-08-28T17:02:15Z</time>
      </trkpt>
      <trkpt lat="43.71842" lon="1.61855">
        <ele>200.688263</ele>
        <time>2026-08-28T17:02:16Z</time>
      </trkpt>
      <trkpt lat="43.71846" lon="1.61858">
        <ele>200.571277</ele>
        <time>2026-08-28T17:02:17Z</time>
      </trkpt>
      <trkpt lat="43.71851" lon="1.61861">
        <ele>200.467118</ele>
        <time>2026-08-28T17:02:18Z</time>
      </trkpt>
      <trkpt lat="43.71855" lon="1.61864">
        <ele>200.368692</ele>
        <time>2026-08-28T17:02:19Z</time>
      </trkpt>
      <trkpt lat="43.71858" lon="1.61867">
        <ele>200.275993</ele>
        <time>2026-08-28T17:02:20Z</time>
      </trkpt>
      <trkpt lat="43.71862" lon="1.6187">
        <ele>200.184457</ele>
        <time>2026-08-28T17:02:21Z</time>
      </trkpt>
      <trkpt lat="43.71866" lon="1.61872">
        <ele>200.094133</ele>
        <time>2026-08-28T17:02:22Z</time>
      </trkpt>
      <trkpt lat="43.7187" lon="1.61875">
        <ele>199.994523</ele>
        <time>2026-08-28T17:02:23Z</time>
      </trkpt>
      <trkpt lat="43.71874" lon="1.61878">
        <ele>199.889522</ele>
        <time>2026-08-28T17:02:24Z</time>
      </trkpt>
      <trkpt lat="43.71879" lon="1.61882">
        <ele>199.765619</ele>
        <time>2026-08-28T17:02:25Z</time>
      </trkpt>
      <trkpt lat="43.71884" lon="1.61886">
        <ele>199.634384</ele>
        <time>2026-08-28T17:02:26Z</time>
      </trkpt>
      <trkpt lat="43.71889" lon="1.6189">
        <ele>199.497328</ele>
        <time>2026-08-28T17:02:27Z</time>
      </trkpt>
      <trkpt lat="43.71895" lon="1.61895">
        <ele>199.354483</ele>
        <time>2026-08-28T17:02:28Z</time>
      </trkpt>
      <trkpt lat="43.71901" lon="1.61899">
        <ele>199.203474</ele>
        <time>2026-08-28T17:02:29Z</time>
      </trkpt>
      <trkpt lat="43.71907" lon="1.61904">
        <ele>199.042898</ele>
        <time>2026-08-28T17:02:30Z</time>
      </trkpt>
      <trkpt lat="43.71914" lon="1.61909">
        <ele>198.777933</ele>
        <time>2026-08-28T17:02:31Z</time>
      </trkpt>
      <trkpt lat="43.71921" lon="1.61914">
        <ele>198.473859</ele>
        <time>2026-08-28T17:02:32Z</time>
      </trkpt>
      <trkpt lat="43.71929" lon="1.6192">
        <ele>198.154631</ele>
        <time>2026-08-28T17:02:33Z</time>
      </trkpt>
      <trkpt lat="43.71936" lon="1.61925">
        <ele>197.825478</ele>
        <time>2026-08-28T17:02:34Z</time>
      </trkpt>
      <trkpt lat="43.71944" lon="1.61931">
        <ele>197.507567</ele>
        <time>2026-08-28T17:02:35Z</time>
      </trkpt>
      <trkpt lat="43.71952" lon="1.61937">
        <ele>197.169194</ele>
        <time>2026-08-28T17:02:36Z</time>
      </trkpt>
      <trkpt lat="43.7196" lon="1.61942">
        <ele>196.837977</ele>
        <time>2026-08-28T17:02:37Z</time>
      </trkpt>
      <trkpt lat="43.71967" lon="1.61948">
        <ele>196.502917</ele>
        <time>2026-08-28T17:02:38Z</time>
      </trkpt>
      <trkpt lat="43.71975" lon="1.61954">
        <ele>196.171699</ele>
        <time>2026-08-28T17:02:39Z</time>
      </trkpt>
      <trkpt lat="43.71983" lon="1.6196">
        <ele>195.845161</ele>
        <time>2026-08-28T17:02:40Z</time>
      </trkpt>
      <trkpt lat="43.7199" lon="1.61966">
        <ele>195.519978</ele>
        <time>2026-08-28T17:02:41Z</time>
      </trkpt>
      <trkpt lat="43.71997" lon="1.61971">
        <ele>195.20866</ele>
        <time>2026-08-28T17:02:42Z</time>
      </trkpt>
      <trkpt lat="43.72004" lon="1.61977">
        <ele>194.911199</ele>
        <time>2026-08-28T17:02:43Z</time>
      </trkpt>
      <trkpt lat="43.72011" lon="1.61982">
        <ele>194.610438</ele>
        <time>2026-08-28T17:02:44Z</time>
      </trkpt>
      <trkpt lat="43.72018" lon="1.61987">
        <ele>194.303042</ele>
        <time>2026-08-28T17:02:45Z</time>
      </trkpt>
      <trkpt lat="43.72026" lon="1.61993">
        <ele>193.993647</ele>
        <time>2026-08-28T17:02:46Z</time>
      </trkpt>
      <trkpt lat="43.72033" lon="1.61999">
        <ele>193.682875</ele>
        <time>2026-08-28T17:02:47Z</time>
      </trkpt>
      <trkpt lat="43.7204" lon="1.62005">
        <ele>193.37348</ele>
        <time>2026-08-28T17:02:48Z</time>
      </trkpt>
      <trkpt lat="43.72047" lon="1.6201">
        <ele>193.064796</ele>
        <time>2026-08-28T17:02:49Z</time>
      </trkpt>
      <trkpt lat="43.72054" lon="1.62016">
        <ele>192.752135</ele>
        <time>2026-08-28T17:02:50Z</time>
      </trkpt>
      <trkpt lat="43.72061" lon="1.62021">
        <ele>192.447367</ele>
        <time>2026-08-28T17:02:51Z</time>
      </trkpt>
      <trkpt lat="43.72068" lon="1.62027">
        <ele>192.121593</ele>
        <time>2026-08-28T17:02:52Z</time>
      </trkpt>
      <trkpt lat="43.72075" lon="1.62033">
        <ele>191.719605</ele>
        <time>2026-08-28T17:02:53Z</time>
      </trkpt>
      <trkpt lat="43.72081" lon="1.62039">
        <ele>191.313669</ele>
        <time>2026-08-28T17:02:54Z</time>
      </trkpt>
      <trkpt lat="43.72088" lon="1.62045">
        <ele>190.893186</ele>
        <time>2026-08-28T17:02:55Z</time>
      </trkpt>
      <trkpt lat="43.72095" lon="1.62051">
        <ele>190.478972</ele>
        <time>2026-08-28T17:02:56Z</time>
      </trkpt>
      <trkpt lat="43.72102" lon="1.62057">
        <ele>190.058489</ele>
        <time>2026-08-28T17:02:57Z</time>
      </trkpt>
      <trkpt lat="43.72109" lon="1.62064">
        <ele>189.633884</ele>
        <time>2026-08-28T17:02:58Z</time>
      </trkpt>
      <trkpt lat="43.72116" lon="1.62071">
        <ele>189.200954</ele>
        <time>2026-08-28T17:02:59Z</time>
      </trkpt>
      <trkpt lat="43.72123" lon="1.62077">
        <ele>188.776216</ele>
        <time>2026-08-28T17:03:00Z</time>
      </trkpt>
      <trkpt lat="43.7213" lon="1.62084">
        <ele>188.347459</ele>
        <time>2026-08-28T17:03:01Z</time>
      </trkpt>
      <trkpt lat="43.72137" lon="1.62091">
        <ele>187.918702</ele>
        <time>2026-08-28T17:03:02Z</time>
      </trkpt>
      <trkpt lat="43.72144" lon="1.62097">
        <ele>187.477396</ele>
        <time>2026-08-28T17:03:03Z</time>
      </trkpt>
      <trkpt lat="43.72151" lon="1.62104">
        <ele>187.038099</ele>
        <time>2026-08-28T17:03:04Z</time>
      </trkpt>
      <trkpt lat="43.72158" lon="1.62112">
        <ele>186.59003</ele>
        <time>2026-08-28T17:03:05Z</time>
      </trkpt>
      <trkpt lat="43.72165" lon="1.6212">
        <ele>186.12978</ele>
        <time>2026-08-28T17:03:06Z</time>
      </trkpt>
      <trkpt lat="43.72171" lon="1.62129">
        <ele>185.661027</ele>
        <time>2026-08-28T17:03:07Z</time>
      </trkpt>
      <trkpt lat="43.72178" lon="1.62138">
        <ele>185.184936</ele>
        <time>2026-08-28T17:03:08Z</time>
      </trkpt>
      <trkpt lat="43.72185" lon="1.62147">
        <ele>184.716184</ele>
        <time>2026-08-28T17:03:09Z</time>
      </trkpt>
      <trkpt lat="43.72191" lon="1.62156">
        <ele>184.224676</ele>
        <time>2026-08-28T17:03:10Z</time>
      </trkpt>
      <trkpt lat="43.72198" lon="1.62166">
        <ele>183.719751</ele>
        <time>2026-08-28T17:03:11Z</time>
      </trkpt>
      <trkpt lat="43.72206" lon="1.62176">
        <ele>183.20241</ele>
        <time>2026-08-28T17:03:12Z</time>
      </trkpt>
      <trkpt lat="43.72213" lon="1.62186">
        <ele>182.540011</ele>
        <time>2026-08-28T17:03:13Z</time>
      </trkpt>
      <trkpt lat="43.72221" lon="1.62197">
        <ele>181.817137</ele>
        <time>2026-08-28T17:03:14Z</time>
      </trkpt>
      <trkpt lat="43.72228" lon="1.62208">
        <ele>181.078044</ele>
        <time>2026-08-28T17:03:15Z</time>
      </trkpt>
      <trkpt lat="43.72236" lon="1.62219">
        <ele>180.312292</ele>
        <time>2026-08-28T17:03:16Z</time>
      </trkpt>
      <trkpt lat="43.72244" lon="1.62231">
        <ele>179.523337</ele>
        <time>2026-08-28T17:03:17Z</time>
      </trkpt>
      <trkpt lat="43.72253" lon="1.62243">
        <ele>178.72629</ele>
        <time>2026-08-28T17:03:18Z</time>
      </trkpt>
      <trkpt lat="43.72261" lon="1.62255">
        <ele>177.926914</ele>
        <time>2026-08-28T17:03:19Z</time>
      </trkpt>
      <trkpt lat="43.7227" lon="1.62267">
        <ele>177.108572</ele>
        <time>2026-08-28T17:03:20Z</time>
      </trkpt>
      <trkpt lat="43.72279" lon="1.62279">
        <ele>176.277259</ele>
        <time>2026-08-28T17:03:21Z</time>
      </trkpt>
      <trkpt lat="43.72288" lon="1.6229">
        <ele>175.444336</ele>
        <time>2026-08-28T17:03:22Z</time>
      </trkpt>
      <trkpt lat="43.72297" lon="1.62302">
        <ele>174.60819</ele>
        <time>2026-08-28T17:03:23Z</time>
      </trkpt>
      <trkpt lat="43.72307" lon="1.62313">
        <ele>173.772044</ele>
        <time>2026-08-28T17:03:24Z</time>
      </trkpt>
      <trkpt lat="43.72316" lon="1.62325">
        <ele>172.929116</ele>
        <time>2026-08-28T17:03:25Z</time>
      </trkpt>
      <trkpt lat="43.72326" lon="1.62336">
        <ele>172.094393</ele>
        <time>2026-08-28T17:03:26Z</time>
      </trkpt>
      <trkpt lat="43.72335" lon="1.62348">
        <ele>171.246429</ele>
        <time>2026-08-28T17:03:27Z</time>
      </trkpt>
      <trkpt lat="43.72345" lon="1.62359">
        <ele>170.413454</ele>
        <time>2026-08-28T17:03:28Z</time>
      </trkpt>
      <trkpt lat="43.72354" lon="1.62371">
        <ele>169.589207</ele>
        <time>2026-08-28T17:03:29Z</time>
      </trkpt>
      <trkpt lat="43.72364" lon="1.62383">
        <ele>168.74625</ele>
        <time>2026-08-28T17:03:30Z</time>
      </trkpt>
      <trkpt lat="43.72373" lon="1.62396">
        <ele>167.891325</ele>
        <time>2026-08-28T17:03:31Z</time>
      </trkpt>
      <trkpt lat="43.72382" lon="1.6241">
        <ele>167.021653</ele>
        <time>2026-08-28T17:03:32Z</time>
      </trkpt>
      <trkpt lat="43.72391" lon="1.62424">
        <ele>166.152672</ele>
        <time>2026-08-28T17:03:33Z</time>
      </trkpt>
      <trkpt lat="43.72399" lon="1.62439">
        <ele>165.295465</ele>
        <time>2026-08-28T17:03:34Z</time>
      </trkpt>
      <trkpt lat="43.72407" lon="1.62453">
        <ele>164.427785</ele>
        <time>2026-08-28T17:03:35Z</time>
      </trkpt>
      <trkpt lat="43.72415" lon="1.62468">
        <ele>163.567734</ele>
        <time>2026-08-28T17:03:36Z</time>
      </trkpt>
      <trkpt lat="43.72423" lon="1.62482">
        <ele>162.722242</ele>
        <time>2026-08-28T17:03:37Z</time>
      </trkpt>
      <trkpt lat="43.72431" lon="1.62496">
        <ele>161.896054</ele>
        <time>2026-08-28T17:03:38Z</time>
      </trkpt>
      <trkpt lat="43.72439" lon="1.6251">
        <ele>161.085154</ele>
        <time>2026-08-28T17:03:39Z</time>
      </trkpt>
      <trkpt lat="43.72446" lon="1.62523">
        <ele>160.300873</ele>
        <time>2026-08-28T17:03:40Z</time>
      </trkpt>
      <trkpt lat="43.72453" lon="1.62536">
        <ele>159.564201</ele>
        <time>2026-08-28T17:03:41Z</time>
      </trkpt>
      <trkpt lat="43.7246" lon="1.62548">
        <ele>159.37891</ele>
        <time>2026-08-28T17:03:42Z</time>
      </trkpt>
      <trkpt lat="43.72467" lon="1.6256">
        <ele>159.312245</ele>
        <time>2026-08-28T17:03:43Z</time>
      </trkpt>
      <trkpt lat="43.72473" lon="1.62571">
        <ele>159.248473</ele>
        <time>2026-08-28T17:03:44Z</time>
      </trkpt>
      <trkpt lat="43.72479" lon="1.62582">
        <ele>159.187942</ele>
        <time>2026-08-28T17:03:45Z</time>
      </trkpt>
      <trkpt lat="43.72484" lon="1.62593">
        <ele>159.129517</ele>
        <time>2026-08-28T17:03:46Z</time>
      </trkpt>
      <trkpt lat="43.72491" lon="1.62602">
        <ele>159.074565</ele>
        <time>2026-08-28T17:03:47Z</time>
      </trkpt>
      <trkpt lat="43.72497" lon="1.62609">
        <ele>159.024371</ele>
        <time>2026-08-28T17:03:48Z</time>
      </trkpt>
      <trkpt lat="43.72503" lon="1.62615">
        <ele>158.976315</ele>
        <time>2026-08-28T17:03:49Z</time>
      </trkpt>
      <trkpt lat="43.7251" lon="1.62621">
        <ele>158.926654</ele>
        <time>2026-08-28T17:03:50Z</time>
      </trkpt>
      <trkpt lat="43.72517" lon="1.62627">
        <ele>158.877893</ele>
        <time>2026-08-28T17:03:51Z</time>
      </trkpt>
      <trkpt lat="43.72524" lon="1.62632">
        <ele>158.828989</ele>
        <time>2026-08-28T17:03:52Z</time>
      </trkpt>
      <trkpt lat="43.7253" lon="1.62638">
        <ele>158.781414</ele>
        <time>2026-08-28T17:03:53Z</time>
      </trkpt>
      <trkpt lat="43.72537" lon="1.62644">
        <ele>158.734079</ele>
        <time>2026-08-28T17:03:54Z</time>
      </trkpt>
      <trkpt lat="43.72543" lon="1.62649">
        <ele>158.688956</ele>
        <time>2026-08-28T17:03:55Z</time>
      </trkpt>
      <trkpt lat="43.72549" lon="1.62655">
        <ele>158.645197</ele>
        <time>2026-08-28T17:03:56Z</time>
      </trkpt>
      <trkpt lat="43.72554" lon="1.6266">
        <ele>158.603688</ele>
        <time>2026-08-28T17:03:57Z</time>
      </trkpt>
      <trkpt lat="43.72559" lon="1.62666">
        <ele>158.563839</ele>
        <time>2026-08-28T17:03:58Z</time>
      </trkpt>
      <trkpt lat="43.72564" lon="1.62671">
        <ele>158.525583</ele>
        <time>2026-08-28T17:03:59Z</time>
      </trkpt>
      <trkpt lat="43.72569" lon="1.62677">
        <ele>158.487327</ele>
        <time>2026-08-28T17:04:00Z</time>
      </trkpt>
      <trkpt lat="43.72574" lon="1.62682">
        <ele>158.451264</ele>
        <time>2026-08-28T17:04:01Z</time>
      </trkpt>
      <trkpt lat="43.72578" lon="1.62687">
        <ele>158.416716</ele>
        <time>2026-08-28T17:04:02Z</time>
      </trkpt>
      <trkpt lat="43.72582" lon="1.62692">
        <ele>158.383681</ele>
        <time>2026-08-28T17:04:03Z</time>
      </trkpt>
      <trkpt lat="43.72586" lon="1.62696">
        <ele>158.352728</ele>
        <time>2026-08-28T17:04:04Z</time>
      </trkpt>
      <trkpt lat="43.72589" lon="1.627">
        <ele>158.407942</ele>
        <time>2026-08-28T17:04:05Z</time>
      </trkpt>
      <trkpt lat="43.72593" lon="1.62704">
        <ele>158.804757</ele>
        <time>2026-08-28T17:04:06Z</time>
      </trkpt>
      <trkpt lat="43.72596" lon="1.62708">
        <ele>159.196613</ele>
        <time>2026-08-28T17:04:07Z</time>
      </trkpt>
      <trkpt lat="43.72599" lon="1.62713">
        <ele>159.598957</ele>
        <time>2026-08-28T17:04:08Z</time>
      </trkpt>
      <trkpt lat="43.72602" lon="1.62716">
        <ele>159.944716</ele>
        <time>2026-08-28T17:04:09Z</time>
      </trkpt>
      <trkpt lat="43.72605" lon="1.6272">
        <ele>160.272738</ele>
        <time>2026-08-28T17:04:10Z</time>
      </trkpt>
      <trkpt lat="43.72607" lon="1.62723">
        <ele>160.565799</ele>
        <time>2026-08-28T17:04:11Z</time>
      </trkpt>
      <trkpt lat="43.72609" lon="1.62726">
        <ele>160.845386</ele>
        <time>2026-08-28T17:04:12Z</time>
      </trkpt>
      <trkpt lat="43.72611" lon="1.62728">
        <ele>161.102955</ele>
        <time>2026-08-28T17:04:13Z</time>
      </trkpt>
      <trkpt lat="43.72614" lon="1.62731">
        <ele>161.367177</ele>
        <time>2026-08-28T17:04:14Z</time>
      </trkpt>
      <trkpt lat="43.72616" lon="1.62734">
        <ele>161.643083</ele>
        <time>2026-08-28T17:04:15Z</time>
      </trkpt>
      <trkpt lat="43.72618" lon="1.62737">
        <ele>161.922669</ele>
        <time>2026-08-28T17:04:16Z</time>
      </trkpt>
      <trkpt lat="43.7262" lon="1.6274">
        <ele>162.17373</ele>
        <time>2026-08-28T17:04:17Z</time>
      </trkpt>
      <trkpt lat="43.72622" lon="1.62742">
        <ele>162.420301</ele>
        <time>2026-08-28T17:04:18Z</time>
      </trkpt>
      <trkpt lat="43.72624" lon="1.62745">
        <ele>162.660401</ele>
        <time>2026-08-28T17:04:19Z</time>
      </trkpt>
      <trkpt lat="43.72626" lon="1.62747">
        <ele>162.878895</ele>
        <time>2026-08-28T17:04:20Z</time>
      </trkpt>
      <trkpt lat="43.72628" lon="1.62749">
        <ele>163.10448</ele>
        <time>2026-08-28T17:04:21Z</time>
      </trkpt>
      <trkpt lat="43.7263" lon="1.62751">
        <ele>163.327085</ele>
        <time>2026-08-28T17:04:22Z</time>
      </trkpt>
      <trkpt lat="43.72632" lon="1.62753">
        <ele>163.578818</ele>
        <time>2026-08-28T17:04:23Z</time>
      </trkpt>
      <trkpt lat="43.72634" lon="1.62755">
        <ele>163.793191</ele>
        <time>2026-08-28T17:04:24Z</time>
      </trkpt>
      <trkpt lat="43.72636" lon="1.62757">
        <ele>164.002331</ele>
        <time>2026-08-28T17:04:25Z</time>
      </trkpt>
      <trkpt lat="43.72637" lon="1.6276">
        <ele>164.194059</ele>
        <time>2026-08-28T17:04:26Z</time>
      </trkpt>
      <trkpt lat="43.72639" lon="1.62762">
        <ele>164.394553</ele>
        <time>2026-08-28T17:04:27Z</time>
      </trkpt>
      <trkpt lat="43.7264" lon="1.62764">
        <ele>164.586281</ele>
        <time>2026-08-28T17:04:28Z</time>
      </trkpt>
      <trkpt lat="43.72642" lon="1.62766">
        <ele>164.773446</ele>
        <time>2026-08-28T17:04:29Z</time>
      </trkpt>
      <trkpt lat="43.72644" lon="1.62768">
        <ele>164.971594</ele>
        <time>2026-08-28T17:04:30Z</time>
      </trkpt>
      <trkpt lat="43.72645" lon="1.6277">
        <ele>165.183618</ele>
        <time>2026-08-28T17:04:31Z</time>
      </trkpt>
      <trkpt lat="43.72647" lon="1.62773">
        <ele>165.417414</ele>
        <time>2026-08-28T17:04:32Z</time>
      </trkpt>
      <trkpt lat="43.72649" lon="1.62775">
        <ele>165.635631</ele>
        <time>2026-08-28T17:04:33Z</time>
      </trkpt>
      <trkpt lat="43.7265" lon="1.62777">
        <ele>165.840391</ele>
        <time>2026-08-28T17:04:34Z</time>
      </trkpt>
      <trkpt lat="43.72652" lon="1.6278">
        <ele>166.054019</ele>
        <time>2026-08-28T17:04:35Z</time>
      </trkpt>
      <trkpt lat="43.72654" lon="1.62781">
        <ele>166.257438</ele>
        <time>2026-08-28T17:04:36Z</time>
      </trkpt>
      <trkpt lat="43.72655" lon="1.62784">
        <ele>166.442959</ele>
        <time>2026-08-28T17:04:37Z</time>
      </trkpt>
      <trkpt lat="43.72657" lon="1.62786">
        <ele>166.643453</ele>
        <time>2026-08-28T17:04:38Z</time>
      </trkpt>
      <trkpt lat="43.72659" lon="1.62788">
        <ele>166.857081</ele>
        <time>2026-08-28T17:04:39Z</time>
      </trkpt>
      <trkpt lat="43.7266" lon="1.6279">
        <ele>167.055228</ele>
        <time>2026-08-28T17:04:40Z</time>
      </trkpt>
      <trkpt lat="43.72662" lon="1.62792">
        <ele>167.231424</ele>
        <time>2026-08-28T17:04:41Z</time>
      </trkpt>
      <trkpt lat="43.72663" lon="1.62794">
        <ele>167.423761</ele>
        <time>2026-08-28T17:04:42Z</time>
      </trkpt>
      <trkpt lat="43.72665" lon="1.62795">
        <ele>167.605017</ele>
        <time>2026-08-28T17:04:43Z</time>
      </trkpt>
      <trkpt lat="43.72666" lon="1.62797">
        <ele>167.77026</ele>
        <time>2026-08-28T17:04:44Z</time>
      </trkpt>
      <trkpt lat="43.72668" lon="1.62799">
        <ele>167.944474</ele>
        <time>2026-08-28T17:04:45Z</time>
      </trkpt>
      <trkpt lat="43.72669" lon="1.62801">
        <ele>168.136811</ele>
        <time>2026-08-28T17:04:46Z</time>
      </trkpt>
      <trkpt lat="43.72671" lon="1.62803">
        <ele>168.330547</ele>
        <time>2026-08-28T17:04:47Z</time>
      </trkpt>
      <trkpt lat="43.72673" lon="1.62805">
        <ele>168.526945</ele>
        <time>2026-08-28T17:04:48Z</time>
      </trkpt>
      <trkpt lat="43.72674" lon="1.62807">
        <ele>168.707747</ele>
        <time>2026-08-28T17:04:49Z</time>
      </trkpt>
      <trkpt lat="43.72675" lon="1.62809">
        <ele>168.892276</ele>
        <time>2026-08-28T17:04:50Z</time>
      </trkpt>
      <trkpt lat="43.72677" lon="1.62811">
        <ele>169.052991</ele>
        <time>2026-08-28T17:04:51Z</time>
      </trkpt>
      <trkpt lat="43.72678" lon="1.62812">
        <ele>169.220351</ele>
        <time>2026-08-28T17:04:52Z</time>
      </trkpt>
      <trkpt lat="43.72679" lon="1.62814">
        <ele>169.396547</ele>
        <time>2026-08-28T17:04:53Z</time>
      </trkpt>
      <trkpt lat="43.72681" lon="1.62816">
        <ele>169.581828</ele>
        <time>2026-08-28T17:04:54Z</time>
      </trkpt>
      <trkpt lat="43.72682" lon="1.62818">
        <ele>169.758024</ele>
        <time>2026-08-28T17:04:55Z</time>
      </trkpt>
      <trkpt lat="43.72684" lon="1.6282">
        <ele>169.936423</ele>
        <time>2026-08-28T17:04:56Z</time>
      </trkpt>
      <trkpt lat="43.72685" lon="1.62822">
        <ele>170.119142</ele>
        <time>2026-08-28T17:04:57Z</time>
      </trkpt>
      <trkpt lat="43.72687" lon="1.62824">
        <ele>170.306307</ele>
        <time>2026-08-28T17:04:58Z</time>
      </trkpt>
      <trkpt lat="43.72688" lon="1.62826">
        <ele>170.487109</ele>
        <time>2026-08-28T17:04:59Z</time>
      </trkpt>
      <trkpt lat="43.72689" lon="1.62828">
        <ele>170.655901</ele>
        <time>2026-08-28T17:05:00Z</time>
      </trkpt>
      <trkpt lat="43.72691" lon="1.6283">
        <ele>170.83057</ele>
        <time>2026-08-28T17:05:01Z</time>
      </trkpt>
      <trkpt lat="43.72692" lon="1.62831">
        <ele>170.99793</ele>
        <time>2026-08-28T17:05:02Z</time>
      </trkpt>
      <trkpt lat="43.72694" lon="1.62833">
        <ele>171.165289</ele>
        <time>2026-08-28T17:05:03Z</time>
      </trkpt>
      <trkpt lat="43.72695" lon="1.62835">
        <ele>171.341485</ele>
        <time>2026-08-28T17:05:04Z</time>
      </trkpt>
      <trkpt lat="43.72696" lon="1.62837">
        <ele>171.526014</ele>
        <time>2026-08-28T17:05:05Z</time>
      </trkpt>
      <trkpt lat="43.72698" lon="1.62839">
        <ele>171.710542</ele>
        <time>2026-08-28T17:05:06Z</time>
      </trkpt>
      <trkpt lat="43.72699" lon="1.62841">
        <ele>171.891344</ele>
        <time>2026-08-28T17:05:07Z</time>
      </trkpt>
      <trkpt lat="43.727" lon="1.62844">
        <ele>172.060104</ele>
        <time>2026-08-28T17:05:08Z</time>
      </trkpt>
      <trkpt lat="43.72701" lon="1.62846">
        <ele>172.240905</ele>
        <time>2026-08-28T17:05:09Z</time>
      </trkpt>
      <trkpt lat="43.72703" lon="1.62848">
        <ele>172.410802</ele>
        <time>2026-08-28T17:05:10Z</time>
      </trkpt>
      <trkpt lat="43.72704" lon="1.62849">
        <ele>172.560534</ele>
        <time>2026-08-28T17:05:11Z</time>
      </trkpt>
      <trkpt lat="43.72705" lon="1.62851">
        <ele>172.714841</ele>
        <time>2026-08-28T17:05:12Z</time>
      </trkpt>
      <trkpt lat="43.72706" lon="1.62853">
        <ele>172.873859</ele>
        <time>2026-08-28T17:05:13Z</time>
      </trkpt>
      <trkpt lat="43.72707" lon="1.62854">
        <ele>173.016191</ele>
        <time>2026-08-28T17:05:14Z</time>
      </trkpt>
      <trkpt lat="43.72708" lon="1.62856">
        <ele>173.169176</ele>
        <time>2026-08-28T17:05:15Z</time>
      </trkpt>
      <trkpt lat="43.72709" lon="1.62858">
        <ele>173.316688</ele>
        <time>2026-08-28T17:05:16Z</time>
      </trkpt>
      <trkpt lat="43.7271" lon="1.6286">
        <ele>173.453902</ele>
        <time>2026-08-28T17:05:17Z</time>
      </trkpt>
      <trkpt lat="43.72711" lon="1.62862">
        <ele>173.601327</ele>
        <time>2026-08-28T17:05:18Z</time>
      </trkpt>
      <trkpt lat="43.72712" lon="1.62864">
        <ele>173.755634</ele>
        <time>2026-08-28T17:05:19Z</time>
      </trkpt>
      <trkpt lat="43.72713" lon="1.62866">
        <ele>173.913553</ele>
        <time>2026-08-28T17:05:20Z</time>
      </trkpt>
      <trkpt lat="43.72714" lon="1.62867">
        <ele>174.066177</ele>
        <time>2026-08-28T17:05:21Z</time>
      </trkpt>
      <trkpt lat="43.72715" lon="1.62869">
        <ele>174.208304</ele>
        <time>2026-08-28T17:05:22Z</time>
      </trkpt>
      <trkpt lat="43.72716" lon="1.62871">
        <ele>174.371502</ele>
        <time>2026-08-28T17:05:23Z</time>
      </trkpt>
      <trkpt lat="43.72717" lon="1.62873">
        <ele>174.522818</ele>
        <time>2026-08-28T17:05:24Z</time>
      </trkpt>
      <trkpt lat="43.72719" lon="1.62875">
        <ele>174.673952</ele>
        <time>2026-08-28T17:05:25Z</time>
      </trkpt>
      <trkpt lat="43.7272" lon="1.62877">
        <ele>174.792352</ele>
        <time>2026-08-28T17:05:26Z</time>
      </trkpt>
      <trkpt lat="43.72721" lon="1.62879">
        <ele>174.942656</ele>
        <time>2026-08-28T17:05:27Z</time>
      </trkpt>
      <trkpt lat="43.72722" lon="1.6288">
        <ele>175.061056</ele>
        <time>2026-08-28T17:05:28Z</time>
      </trkpt>
      <trkpt lat="43.72722" lon="1.62882">
        <ele>175.188692</ele>
        <time>2026-08-28T17:05:29Z</time>
      </trkpt>
      <trkpt lat="43.72723" lon="1.62884">
        <ele>175.318623</ele>
        <time>2026-08-28T17:05:30Z</time>
      </trkpt>
      <trkpt lat="43.72724" lon="1.62887">
        <ele>175.45992</ele>
        <time>2026-08-28T17:05:31Z</time>
      </trkpt>
      <trkpt lat="43.72725" lon="1.62889">
        <ele>175.589491</ele>
        <time>2026-08-28T17:05:32Z</time>
      </trkpt>
      <trkpt lat="43.72725" lon="1.6289">
        <ele>175.703469</ele>
        <time>2026-08-28T17:05:33Z</time>
      </trkpt>
      <trkpt lat="43.72726" lon="1.62892">
        <ele>175.818312</ele>
        <time>2026-08-28T17:05:34Z</time>
      </trkpt>
      <trkpt lat="43.72727" lon="1.62894">
        <ele>175.943163</ele>
        <time>2026-08-28T17:05:35Z</time>
      </trkpt>
      <trkpt lat="43.72728" lon="1.62897">
        <ele>176.086573</ele>
        <time>2026-08-28T17:05:36Z</time>
      </trkpt>
      <trkpt lat="43.72729" lon="1.62898">
        <ele>176.20955</ele>
        <time>2026-08-28T17:05:37Z</time>
      </trkpt>
      <trkpt lat="43.7273" lon="1.629">
        <ele>176.341992</ele>
        <time>2026-08-28T17:05:38Z</time>
      </trkpt>
      <trkpt lat="43.72731" lon="1.62902">
        <ele>176.497348</ele>
        <time>2026-08-28T17:05:39Z</time>
      </trkpt>
      <trkpt lat="43.72732" lon="1.62904">
        <ele>176.643397</ele>
        <time>2026-08-28T17:05:40Z</time>
      </trkpt>
      <trkpt lat="43.72733" lon="1.62906">
        <ele>176.766551</ele>
        <time>2026-08-28T17:05:41Z</time>
      </trkpt>
      <trkpt lat="43.72734" lon="1.62908">
        <ele>176.921907</ele>
        <time>2026-08-28T17:05:42Z</time>
      </trkpt>
      <trkpt lat="43.72736" lon="1.6291">
        <ele>177.077263</ele>
        <time>2026-08-28T17:05:43Z</time>
      </trkpt>
      <trkpt lat="43.72737" lon="1.62912">
        <ele>177.212526</ele>
        <time>2026-08-28T17:05:44Z</time>
      </trkpt>
      <trkpt lat="43.72738" lon="1.62913">
        <ele>177.340729</ele>
        <time>2026-08-28T17:05:45Z</time>
      </trkpt>
      <trkpt lat="43.72739" lon="1.62915">
        <ele>177.464804</ele>
        <time>2026-08-28T17:05:46Z</time>
      </trkpt>
      <trkpt lat="43.7274" lon="1.62917">
        <ele>177.588879</ele>
        <time>2026-08-28T17:05:47Z</time>
      </trkpt>
      <trkpt lat="43.72741" lon="1.62918">
        <ele>177.721321</ele>
        <time>2026-08-28T17:05:48Z</time>
      </trkpt>
      <trkpt lat="43.72743" lon="1.6292">
        <ele>177.854837</ele>
        <time>2026-08-28T17:05:49Z</time>
      </trkpt>
      <trkpt lat="43.72744" lon="1.62922">
        <ele>177.978912</ele>
        <time>2026-08-28T17:05:50Z</time>
      </trkpt>
      <trkpt lat="43.72745" lon="1.62923">
        <ele>178.098979</ele>
        <time>2026-08-28T17:05:51Z</time>
      </trkpt>
      <trkpt lat="43.72746" lon="1.62925">
        <ele>178.226539</ele>
        <time>2026-08-28T17:05:52Z</time>
      </trkpt>
      <trkpt lat="43.72747" lon="1.62927">
        <ele>178.376843</ele>
        <time>2026-08-28T17:05:53Z</time>
      </trkpt>
      <trkpt lat="43.72748" lon="1.62929">
        <ele>178.499819</ele>
        <time>2026-08-28T17:05:54Z</time>
      </trkpt>
      <trkpt lat="43.72749" lon="1.62931">
        <ele>178.622973</ele>
        <time>2026-08-28T17:05:55Z</time>
      </trkpt>
      <trkpt lat="43.7275" lon="1.62932">
        <ele>178.732509</ele>
        <time>2026-08-28T17:05:56Z</time>
      </trkpt>
      <trkpt lat="43.72751" lon="1.62934">
        <ele>178.852576</ele>
        <time>2026-08-28T17:05:57Z</time>
      </trkpt>
      <trkpt lat="43.72752" lon="1.62935">
        <ele>178.967235</ele>
        <time>2026-08-28T17:05:58Z</time>
      </trkpt>
      <trkpt lat="43.72753" lon="1.62937">
        <ele>179.085719</ele>
        <time>2026-08-28T17:05:59Z</time>
      </trkpt>
      <trkpt lat="43.72754" lon="1.62938">
        <ele>179.207748</ele>
        <time>2026-08-28T17:06:00Z</time>
      </trkpt>
      <trkpt lat="43.72755" lon="1.62939">
        <ele>179.329776</ele>
        <time>2026-08-28T17:06:01Z</time>
      </trkpt>
      <trkpt lat="43.72757" lon="1.62941">
        <ele>179.448261</ele>
        <time>2026-08-28T17:06:02Z</time>
      </trkpt>
      <trkpt lat="43.72758" lon="1.62942">
        <ele>179.601736</ele>
        <time>2026-08-28T17:06:03Z</time>
      </trkpt>
      <trkpt lat="43.7276" lon="1.62944">
        <ele>179.752869</ele>
        <time>2026-08-28T17:06:04Z</time>
      </trkpt>
      <trkpt lat="43.72761" lon="1.62946">
        <ele>179.916787</ele>
        <time>2026-08-28T17:06:05Z</time>
      </trkpt>
      <trkpt lat="43.72762" lon="1.62948">
        <ele>180.044857</ele>
        <time>2026-08-28T17:06:06Z</time>
      </trkpt>
      <trkpt lat="43.72764" lon="1.62949">
        <ele>180.169556</ele>
        <time>2026-08-28T17:06:07Z</time>
      </trkpt>
      <trkpt lat="43.72765" lon="1.6295">
        <ele>180.285192</ele>
        <time>2026-08-28T17:06:08Z</time>
      </trkpt>
      <trkpt lat="43.72766" lon="1.62951">
        <ele>180.40366</ele>
        <time>2026-08-28T17:06:09Z</time>
      </trkpt>
      <trkpt lat="43.72768" lon="1.62952">
        <ele>180.553914</ele>
        <time>2026-08-28T17:06:10Z</time>
      </trkpt>
      <trkpt lat="43.7277" lon="1.62954">
        <ele>180.716291</ele>
        <time>2026-08-28T17:06:11Z</time>
      </trkpt>
      <trkpt lat="43.72772" lon="1.62955">
        <ele>180.873041</ele>
        <time>2026-08-28T17:06:12Z</time>
      </trkpt>
      <trkpt lat="43.72774" lon="1.62957">
        <ele>181.049904</ele>
        <time>2026-08-28T17:06:13Z</time>
      </trkpt>
      <trkpt lat="43.72775" lon="1.62958">
        <ele>181.206655</ele>
        <time>2026-08-28T17:06:14Z</time>
      </trkpt>
      <trkpt lat="43.72777" lon="1.6296">
        <ele>181.36013</ele>
        <time>2026-08-28T17:06:15Z</time>
      </trkpt>
      <trkpt lat="43.72778" lon="1.62962">
        <ele>181.518228</ele>
        <time>2026-08-28T17:06:16Z</time>
      </trkpt>
      <trkpt lat="43.7278" lon="1.62964">
        <ele>181.677892</ele>
        <time>2026-08-28T17:06:17Z</time>
      </trkpt>
      <trkpt lat="43.72781" lon="1.62966">
        <ele>181.850552</ele>
        <time>2026-08-28T17:06:18Z</time>
      </trkpt>
      <trkpt lat="43.72783" lon="1.62967">
        <ele>182.010393</ele>
        <time>2026-08-28T17:06:19Z</time>
      </trkpt>
      <trkpt lat="43.72785" lon="1.62969">
        <ele>182.168492</ele>
        <time>2026-08-28T17:06:20Z</time>
      </trkpt>
      <trkpt lat="43.72786" lon="1.62971">
        <ele>182.302782</ele>
        <time>2026-08-28T17:06:21Z</time>
      </trkpt>
      <trkpt lat="43.72787" lon="1.62972">
        <ele>182.430853</ele>
        <time>2026-08-28T17:06:22Z</time>
      </trkpt>
      <trkpt lat="43.72789" lon="1.62974">
        <ele>182.566115</ele>
        <time>2026-08-28T17:06:23Z</time>
      </trkpt>
      <trkpt lat="43.7279" lon="1.62975">
        <ele>182.702894</ele>
        <time>2026-08-28T17:06:24Z</time>
      </trkpt>
      <trkpt lat="43.72791" lon="1.62977">
        <ele>182.853634</ele>
        <time>2026-08-28T17:06:25Z</time>
      </trkpt>
      <trkpt lat="43.72793" lon="1.62979">
        <ele>183.013949</ele>
        <time>2026-08-28T17:06:26Z</time>
      </trkpt>
      <trkpt lat="43.72794" lon="1.62981">
        <ele>183.162523</ele>
        <time>2026-08-28T17:06:27Z</time>
      </trkpt>
      <trkpt lat="43.72796" lon="1.62983">
        <ele>183.330153</ele>
        <time>2026-08-28T17:06:28Z</time>
      </trkpt>
      <trkpt lat="43.72798" lon="1.62985">
        <ele>183.509625</ele>
        <time>2026-08-28T17:06:29Z</time>
      </trkpt>
      <trkpt lat="43.72799" lon="1.62987">
        <ele>183.696338</ele>
        <time>2026-08-28T17:06:30Z</time>
      </trkpt>
      <trkpt lat="43.72801" lon="1.6299">
        <ele>183.909682</ele>
        <time>2026-08-28T17:06:31Z</time>
      </trkpt>
      <trkpt lat="43.72804" lon="1.62992">
        <ele>184.117898</ele>
        <time>2026-08-28T17:06:32Z</time>
      </trkpt>
      <trkpt lat="43.72806" lon="1.62994">
        <ele>184.323712</ele>
        <time>2026-08-28T17:06:33Z</time>
      </trkpt>
      <trkpt lat="43.72808" lon="1.62996">
        <ele>184.522346</ele>
        <time>2026-08-28T17:06:34Z</time>
      </trkpt>
      <trkpt lat="43.72809" lon="1.62999">
        <ele>184.714954</ele>
        <time>2026-08-28T17:06:35Z</time>
      </trkpt>
      <trkpt lat="43.72811" lon="1.63001">
        <ele>184.920768</ele>
        <time>2026-08-28T17:06:36Z</time>
      </trkpt>
      <trkpt lat="43.72814" lon="1.63004">
        <ele>185.139843</ele>
        <time>2026-08-28T17:06:37Z</time>
      </trkpt>
      <trkpt lat="43.72816" lon="1.63006">
        <ele>185.370739</ele>
        <time>2026-08-28T17:06:38Z</time>
      </trkpt>
      <trkpt lat="43.72818" lon="1.63009">
        <ele>185.595669</ele>
        <time>2026-08-28T17:06:39Z</time>
      </trkpt>
      <trkpt lat="43.7282" lon="1.63012">
        <ele>185.833832</ele>
        <time>2026-08-28T17:06:40Z</time>
      </trkpt>
      <trkpt lat="43.72823" lon="1.63015">
        <ele>186.075744</ele>
        <time>2026-08-28T17:06:41Z</time>
      </trkpt>
      <trkpt lat="43.72825" lon="1.63017">
        <ele>186.306399</ele>
        <time>2026-08-28T17:06:42Z</time>
      </trkpt>
      <trkpt lat="43.72827" lon="1.63021">
        <ele>186.550508</ele>
        <time>2026-08-28T17:06:43Z</time>
      </trkpt>
      <trkpt lat="43.72829" lon="1.63024">
        <ele>186.801952</ele>
        <time>2026-08-28T17:06:44Z</time>
      </trkpt>
      <trkpt lat="43.72832" lon="1.63026">
        <ele>187.058092</ele>
        <time>2026-08-28T17:06:45Z</time>
      </trkpt>
      <trkpt lat="43.72835" lon="1.63029">
        <ele>187.321282</ele>
        <time>2026-08-28T17:06:46Z</time>
      </trkpt>
      <trkpt lat="43.72837" lon="1.63032">
        <ele>187.596594</ele>
        <time>2026-08-28T17:06:47Z</time>
      </trkpt>
      <trkpt lat="43.7284" lon="1.63036">
        <ele>187.88621</ele>
        <time>2026-08-28T17:06:48Z</time>
      </trkpt>
      <trkpt lat="43.72843" lon="1.63039">
        <ele>188.210413</ele>
        <time>2026-08-28T17:06:49Z</time>
      </trkpt>
      <trkpt lat="43.72847" lon="1.63043">
        <ele>188.469252</ele>
        <time>2026-08-28T17:06:50Z</time>
      </trkpt>
      <trkpt lat="43.7285" lon="1.63047">
        <ele>188.438429</ele>
        <time>2026-08-28T17:06:51Z</time>
      </trkpt>
      <trkpt lat="43.72853" lon="1.6305">
        <ele>188.406782</ele>
        <time>2026-08-28T17:06:52Z</time>
      </trkpt>
      <trkpt lat="43.72857" lon="1.63054">
        <ele>188.374172</ele>
        <time>2026-08-28T17:06:53Z</time>
      </trkpt>
      <trkpt lat="43.72861" lon="1.63058">
        <ele>188.338879</ele>
        <time>2026-08-28T17:06:54Z</time>
      </trkpt>
      <trkpt lat="43.72865" lon="1.63062">
        <ele>188.30365</ele>
        <time>2026-08-28T17:06:55Z</time>
      </trkpt>
      <trkpt lat="43.72869" lon="1.63067">
        <ele>188.266893</ele>
        <time>2026-08-28T17:06:56Z</time>
      </trkpt>
      <trkpt lat="43.72873" lon="1.63071">
        <ele>188.230454</ele>
        <time>2026-08-28T17:06:57Z</time>
      </trkpt>
      <trkpt lat="43.72877" lon="1.63075">
        <ele>188.193372</ele>
        <time>2026-08-28T17:06:58Z</time>
      </trkpt>
      <trkpt lat="43.72881" lon="1.6308">
        <ele>188.155768</ele>
        <time>2026-08-28T17:06:59Z</time>
      </trkpt>
      <trkpt lat="43.72885" lon="1.63084">
        <ele>188.116954</ele>
        <time>2026-08-28T17:07:00Z</time>
      </trkpt>
      <trkpt lat="43.7289" lon="1.63088">
        <ele>188.076961</ele>
        <time>2026-08-28T17:07:01Z</time>
      </trkpt>
      <trkpt lat="43.72895" lon="1.63092">
        <ele>188.035048</ele>
        <time>2026-08-28T17:07:02Z</time>
      </trkpt>
      <trkpt lat="43.729" lon="1.63096">
        <ele>187.991486</ele>
        <time>2026-08-28T17:07:03Z</time>
      </trkpt>
      <trkpt lat="43.72906" lon="1.63099">
        <ele>187.947555</ele>
        <time>2026-08-28T17:07:04Z</time>
      </trkpt>
      <trkpt lat="43.72911" lon="1.63103">
        <ele>187.901865</ele>
        <time>2026-08-28T17:07:05Z</time>
      </trkpt>
      <trkpt lat="43.72917" lon="1.63107">
        <ele>187.855068</ele>
        <time>2026-08-28T17:07:06Z</time>
      </trkpt>
      <trkpt lat="43.72923" lon="1.6311">
        <ele>187.80908</ele>
        <time>2026-08-28T17:07:07Z</time>
      </trkpt>
      <trkpt lat="43.72929" lon="1.63113">
        <ele>187.763465</ele>
        <time>2026-08-28T17:07:08Z</time>
      </trkpt>
      <trkpt lat="43.72935" lon="1.63116">
        <ele>187.716413</ele>
        <time>2026-08-28T17:07:09Z</time>
      </trkpt>
      <trkpt lat="43.72941" lon="1.6312">
        <ele>187.668955</ele>
        <time>2026-08-28T17:07:10Z</time>
      </trkpt>
      <trkpt lat="43.72947" lon="1.63124">
        <ele>187.622161</ele>
        <time>2026-08-28T17:07:11Z</time>
      </trkpt>
      <trkpt lat="43.72953" lon="1.63127">
        <ele>187.576848</ele>
        <time>2026-08-28T17:07:12Z</time>
      </trkpt>
      <trkpt lat="43.72959" lon="1.6313">
        <ele>187.529796</ele>
        <time>2026-08-28T17:07:13Z</time>
      </trkpt>
      <trkpt lat="43.72964" lon="1.63134">
        <ele>187.483878</ele>
        <time>2026-08-28T17:07:14Z</time>
      </trkpt>
      <trkpt lat="43.7297" lon="1.63138">
        <ele>187.436427</ele>
        <time>2026-08-28T17:07:15Z</time>
      </trkpt>
      <trkpt lat="43.72976" lon="1.63142">
        <ele>187.390048</ele>
        <time>2026-08-28T17:07:16Z</time>
      </trkpt>
      <trkpt lat="43.72982" lon="1.63145">
        <ele>187.345237</ele>
        <time>2026-08-28T17:07:17Z</time>
      </trkpt>
      <trkpt lat="43.72987" lon="1.63148">
        <ele>187.300598</ele>
        <time>2026-08-28T17:07:18Z</time>
      </trkpt>
      <trkpt lat="43.72993" lon="1.63152">
        <ele>187.25461</ele>
        <time>2026-08-28T17:07:19Z</time>
      </trkpt>
      <trkpt lat="43.72999" lon="1.63155">
        <ele>187.210642</ele>
        <time>2026-08-28T17:07:20Z</time>
      </trkpt>
      <trkpt lat="43.73004" lon="1.63158">
        <ele>187.171191</ele>
        <time>2026-08-28T17:07:21Z</time>
      </trkpt>
      <trkpt lat="43.73009" lon="1.63162">
        <ele>187.23956</ele>
        <time>2026-08-28T17:07:22Z</time>
      </trkpt>
      <trkpt lat="43.73014" lon="1.63166">
        <ele>187.308775</ele>
        <time>2026-08-28T17:07:23Z</time>
      </trkpt>
      <trkpt lat="43.73019" lon="1.63171">
        <ele>187.378868</ele>
        <time>2026-08-28T17:07:24Z</time>
      </trkpt>
      <trkpt lat="43.73025" lon="1.63175">
        <ele>187.449409</ele>
        <time>2026-08-28T17:07:25Z</time>
      </trkpt>
      <trkpt lat="43.73029" lon="1.6318">
        <ele>187.517111</ele>
        <time>2026-08-28T17:07:26Z</time>
      </trkpt>
      <trkpt lat="43.73034" lon="1.63185">
        <ele>187.583511</ele>
        <time>2026-08-28T17:07:27Z</time>
      </trkpt>
      <trkpt lat="43.73038" lon="1.6319">
        <ele>187.647806</ele>
        <time>2026-08-28T17:07:28Z</time>
      </trkpt>
      <trkpt lat="43.73042" lon="1.63195">
        <ele>187.711238</ele>
        <time>2026-08-28T17:07:29Z</time>
      </trkpt>
      <trkpt lat="43.73045" lon="1.632">
        <ele>187.771814</ele>
        <time>2026-08-28T17:07:30Z</time>
      </trkpt>
      <trkpt lat="43.73049" lon="1.63205">
        <ele>187.831818</ele>
        <time>2026-08-28T17:07:31Z</time>
      </trkpt>
      <trkpt lat="43.73053" lon="1.6321">
        <ele>187.892971</ele>
        <time>2026-08-28T17:07:32Z</time>
      </trkpt>
      <trkpt lat="43.73057" lon="1.63215">
        <ele>187.951862</ele>
        <time>2026-08-28T17:07:33Z</time>
      </trkpt>
      <trkpt lat="43.7306" lon="1.6322">
        <ele>188.011346</ele>
        <time>2026-08-28T17:07:34Z</time>
      </trkpt>
      <trkpt lat="43.73064" lon="1.63225">
        <ele>188.070622</ele>
        <time>2026-08-28T17:07:35Z</time>
      </trkpt>
      <trkpt lat="43.73067" lon="1.6323">
        <ele>188.127268</ele>
        <time>2026-08-28T17:07:36Z</time>
      </trkpt>
      <trkpt lat="43.73071" lon="1.63235">
        <ele>188.184518</ele>
        <time>2026-08-28T17:07:37Z</time>
      </trkpt>
      <trkpt lat="43.73074" lon="1.6324">
        <ele>188.24238</ele>
        <time>2026-08-28T17:07:38Z</time>
      </trkpt>
      <trkpt lat="43.73077" lon="1.63245">
        <ele>188.296634</ele>
        <time>2026-08-28T17:07:39Z</time>
      </trkpt>
      <trkpt lat="43.7308" lon="1.6325">
        <ele>188.352923</ele>
        <time>2026-08-28T17:07:40Z</time>
      </trkpt>
      <trkpt lat="43.73084" lon="1.63255">
        <ele>188.410988</ele>
        <time>2026-08-28T17:07:41Z</time>
      </trkpt>
      <trkpt lat="43.73087" lon="1.63259">
        <ele>188.468238</ele>
        <time>2026-08-28T17:07:42Z</time>
      </trkpt>
      <trkpt lat="43.7309" lon="1.63264">
        <ele>188.522865</ele>
        <time>2026-08-28T17:07:43Z</time>
      </trkpt>
      <trkpt lat="43.73094" lon="1.63269">
        <ele>188.577492</ele>
        <time>2026-08-28T17:07:44Z</time>
      </trkpt>
      <trkpt lat="43.73097" lon="1.63273">
        <ele>188.6307</ele>
        <time>2026-08-28T17:07:45Z</time>
      </trkpt>
      <trkpt lat="43.731" lon="1.63278">
        <ele>188.684732</ele>
        <time>2026-08-28T17:07:46Z</time>
      </trkpt>
      <trkpt lat="43.73103" lon="1.63282">
        <ele>188.737128</ele>
        <time>2026-08-28T17:07:47Z</time>
      </trkpt>
      <trkpt lat="43.73107" lon="1.63286">
        <ele>188.789148</ele>
        <time>2026-08-28T17:07:48Z</time>
      </trkpt>
      <trkpt lat="43.7311" lon="1.63291">
        <ele>188.841544</ele>
        <time>2026-08-28T17:07:49Z</time>
      </trkpt>
      <trkpt lat="43.73113" lon="1.63296">
        <ele>188.897379</ele>
        <time>2026-08-28T17:07:50Z</time>
      </trkpt>
      <trkpt lat="43.73116" lon="1.633">
        <ele>188.952834</ele>
        <time>2026-08-28T17:07:51Z</time>
      </trkpt>
      <trkpt lat="43.7312" lon="1.63305">
        <ele>189.007981</ele>
        <time>2026-08-28T17:07:52Z</time>
      </trkpt>
      <trkpt lat="43.73123" lon="1.63309">
        <ele>189.06285</ele>
        <time>2026-08-28T17:07:53Z</time>
      </trkpt>
      <trkpt lat="43.73127" lon="1.63314">
        <ele>189.115713</ele>
        <time>2026-08-28T17:07:54Z</time>
      </trkpt>
      <trkpt lat="43.73129" lon="1.63318">
        <ele>189.165902</ele>
        <time>2026-08-28T17:07:55Z</time>
      </trkpt>
      <trkpt lat="43.73133" lon="1.63322">
        <ele>189.215912</ele>
        <time>2026-08-28T17:07:56Z</time>
      </trkpt>
      <trkpt lat="43.73136" lon="1.63326">
        <ele>189.264497</ele>
        <time>2026-08-28T17:07:57Z</time>
      </trkpt>
      <trkpt lat="43.73138" lon="1.6333">
        <ele>189.325252</ele>
        <time>2026-08-28T17:07:58Z</time>
      </trkpt>
      <trkpt lat="43.73141" lon="1.63334">
        <ele>189.385422</ele>
        <time>2026-08-28T17:07:59Z</time>
      </trkpt>
      <trkpt lat="43.73144" lon="1.63338">
        <ele>189.443536</ele>
        <time>2026-08-28T17:08:00Z</time>
      </trkpt>
      <trkpt lat="43.73147" lon="1.63341">
        <ele>189.499817</ele>
        <time>2026-08-28T17:08:01Z</time>
      </trkpt>
      <trkpt lat="43.73149" lon="1.63346">
        <ele>189.559987</ele>
        <time>2026-08-28T17:08:02Z</time>
      </trkpt>
      <trkpt lat="43.73152" lon="1.63349">
        <ele>189.616751</ele>
        <time>2026-08-28T17:08:03Z</time>
      </trkpt>
      <trkpt lat="43.73155" lon="1.63353">
        <ele>189.675231</ele>
        <time>2026-08-28T17:08:04Z</time>
      </trkpt>
      <trkpt lat="43.73158" lon="1.63356">
        <ele>189.730764</ele>
        <time>2026-08-28T17:08:05Z</time>
      </trkpt>
      <trkpt lat="43.73161" lon="1.6336">
        <ele>189.791812</ele>
        <time>2026-08-28T17:08:06Z</time>
      </trkpt>
      <trkpt lat="43.73163" lon="1.63364">
        <ele>189.851446</ele>
        <time>2026-08-28T17:08:07Z</time>
      </trkpt>
      <trkpt lat="43.73166" lon="1.63368">
        <ele>189.911395</ele>
        <time>2026-08-28T17:08:08Z</time>
      </trkpt>
      <trkpt lat="43.73169" lon="1.63372">
        <ele>189.97338</ele>
        <time>2026-08-28T17:08:09Z</time>
      </trkpt>
      <trkpt lat="43.73172" lon="1.63377">
        <ele>190.038998</ele>
        <time>2026-08-28T17:08:10Z</time>
      </trkpt>
      <trkpt lat="43.73175" lon="1.63381">
        <ele>190.108258</ele>
        <time>2026-08-28T17:08:11Z</time>
      </trkpt>
      <trkpt lat="43.73178" lon="1.63386">
        <ele>190.175696</ele>
        <time>2026-08-28T17:08:12Z</time>
      </trkpt>
      <trkpt lat="43.73181" lon="1.6339">
        <ele>190.240294</ele>
        <time>2026-08-28T17:08:13Z</time>
      </trkpt>
      <trkpt lat="43.73184" lon="1.63394">
        <ele>190.302907</ele>
        <time>2026-08-28T17:08:14Z</time>
      </trkpt>
      <trkpt lat="43.73187" lon="1.63399">
        <ele>190.366707</ele>
        <time>2026-08-28T17:08:15Z</time>
      </trkpt>
      <trkpt lat="43.7319" lon="1.63403">
        <ele>190.429719</ele>
        <time>2026-08-28T17:08:16Z</time>
      </trkpt>
      <trkpt lat="43.73193" lon="1.63408">
        <ele>190.494958</ele>
        <time>2026-08-28T17:08:17Z</time>
      </trkpt>
      <trkpt lat="43.73195" lon="1.63412">
        <ele>190.56103</ele>
        <time>2026-08-28T17:08:18Z</time>
      </trkpt>
      <trkpt lat="43.73198" lon="1.63417">
        <ele>190.62701</ele>
        <time>2026-08-28T17:08:19Z</time>
      </trkpt>
      <trkpt lat="43.73201" lon="1.63422">
        <ele>190.695625</ele>
        <time>2026-08-28T17:08:20Z</time>
      </trkpt>
      <trkpt lat="43.73203" lon="1.63428">
        <ele>190.765316</ele>
        <time>2026-08-28T17:08:21Z</time>
      </trkpt>
      <trkpt lat="43.73206" lon="1.63433">
        <ele>190.834879</ele>
        <time>2026-08-28T17:08:22Z</time>
      </trkpt>
      <trkpt lat="43.73208" lon="1.63438">
        <ele>190.905264</ele>
        <time>2026-08-28T17:08:23Z</time>
      </trkpt>
      <trkpt lat="43.73211" lon="1.63444">
        <ele>190.976077</ele>
        <time>2026-08-28T17:08:24Z</time>
      </trkpt>
      <trkpt lat="43.73213" lon="1.6345">
        <ele>191.045785</ele>
        <time>2026-08-28T17:08:25Z</time>
      </trkpt>
      <trkpt lat="43.73215" lon="1.63456">
        <ele>191.113873</ele>
        <time>2026-08-28T17:08:26Z</time>
      </trkpt>
      <trkpt lat="43.73216" lon="1.63461">
        <ele>191.180758</ele>
        <time>2026-08-28T17:08:27Z</time>
      </trkpt>
      <trkpt lat="43.73218" lon="1.63467">
        <ele>191.248098</ele>
        <time>2026-08-28T17:08:28Z</time>
      </trkpt>
      <trkpt lat="43.73219" lon="1.63473">
        <ele>191.312373</ele>
        <time>2026-08-28T17:08:29Z</time>
      </trkpt>
      <trkpt lat="43.7322" lon="1.63478">
        <ele>191.372616</ele>
        <time>2026-08-28T17:08:30Z</time>
      </trkpt>
      <trkpt lat="43.73222" lon="1.63483">
        <ele>191.431387</ele>
        <time>2026-08-28T17:08:31Z</time>
      </trkpt>
      <trkpt lat="43.73223" lon="1.63488">
        <ele>191.487659</ele>
        <time>2026-08-28T17:08:32Z</time>
      </trkpt>
      <trkpt lat="43.73224" lon="1.63493">
        <ele>191.544351</ele>
        <time>2026-08-28T17:08:33Z</time>
      </trkpt>
      <trkpt lat="43.73224" lon="1.63498">
        <ele>191.59534</ele>
        <time>2026-08-28T17:08:34Z</time>
      </trkpt>
      <trkpt lat="43.73225" lon="1.63502">
        <ele>191.645606</ele>
        <time>2026-08-28T17:08:35Z</time>
      </trkpt>
      <trkpt lat="43.73226" lon="1.63507">
        <ele>191.694174</ele>
        <time>2026-08-28T17:08:36Z</time>
      </trkpt>
      <trkpt lat="43.73227" lon="1.63511">
        <ele>191.747221</ele>
        <time>2026-08-28T17:08:37Z</time>
      </trkpt>
      <trkpt lat="43.73229" lon="1.63516">
        <ele>191.807018</ele>
        <time>2026-08-28T17:08:38Z</time>
      </trkpt>
      <trkpt lat="43.73233" lon="1.63519">
        <ele>191.870626</ele>
        <time>2026-08-28T17:08:39Z</time>
      </trkpt>
      <trkpt lat="43.73237" lon="1.63523">
        <ele>191.942956</ele>
        <time>2026-08-28T17:08:40Z</time>
      </trkpt>
      <trkpt lat="43.7324" lon="1.63528">
        <ele>191.883215</ele>
        <time>2026-08-28T17:08:41Z</time>
      </trkpt>
      <trkpt lat="43.73244" lon="1.63533">
        <ele>191.75821</ele>
        <time>2026-08-28T17:08:42Z</time>
      </trkpt>
      <trkpt lat="43.73248" lon="1.63538">
        <ele>191.627384</ele>
        <time>2026-08-28T17:08:43Z</time>
      </trkpt>
      <trkpt lat="43.73253" lon="1.63543">
        <ele>191.488979</ele>
        <time>2026-08-28T17:08:44Z</time>
      </trkpt>
      <trkpt lat="43.73257" lon="1.63549">
        <ele>191.350947</ele>
        <time>2026-08-28T17:08:45Z</time>
      </trkpt>
      <trkpt lat="43.73262" lon="1.63554">
        <ele>191.203544</ele>
        <time>2026-08-28T17:08:46Z</time>
      </trkpt>
      <trkpt lat="43.73267" lon="1.63559">
        <ele>191.046891</ele>
        <time>2026-08-28T17:08:47Z</time>
      </trkpt>
      <trkpt lat="43.73273" lon="1.63566">
        <ele>190.88038</ele>
        <time>2026-08-28T17:08:48Z</time>
      </trkpt>
      <trkpt lat="43.73278" lon="1.63572">
        <ele>190.70693</ele>
        <time>2026-08-28T17:08:49Z</time>
      </trkpt>
      <trkpt lat="43.73284" lon="1.63579">
        <ele>190.52785</ele>
        <time>2026-08-28T17:08:50Z</time>
      </trkpt>
      <trkpt lat="43.73289" lon="1.63586">
        <ele>190.35168</ele>
        <time>2026-08-28T17:08:51Z</time>
      </trkpt>
      <trkpt lat="43.73295" lon="1.63594">
        <ele>190.168432</ele>
        <time>2026-08-28T17:08:52Z</time>
      </trkpt>
      <trkpt lat="43.73299" lon="1.63602">
        <ele>189.984642</ele>
        <time>2026-08-28T17:08:53Z</time>
      </trkpt>
      <trkpt lat="43.73304" lon="1.63611">
        <ele>189.801054</ele>
        <time>2026-08-28T17:08:54Z</time>
      </trkpt>
      <trkpt lat="43.73308" lon="1.6362">
        <ele>189.612995</ele>
        <time>2026-08-28T17:08:55Z</time>
      </trkpt>
      <trkpt lat="43.73312" lon="1.6363">
        <ele>189.425932</ele>
        <time>2026-08-28T17:08:56Z</time>
      </trkpt>
      <trkpt lat="43.73316" lon="1.63639">
        <ele>189.241547</ele>
        <time>2026-08-28T17:08:57Z</time>
      </trkpt>
      <trkpt lat="43.73319" lon="1.63648">
        <ele>189.060631</ele>
        <time>2026-08-28T17:08:58Z</time>
      </trkpt>
      <trkpt lat="43.73323" lon="1.63658">
        <ele>188.87406</ele>
        <time>2026-08-28T17:08:59Z</time>
      </trkpt>
      <trkpt lat="43.73326" lon="1.63667">
        <ele>188.697933</ele>
        <time>2026-08-28T17:09:00Z</time>
      </trkpt>
      <trkpt lat="43.7333" lon="1.63676">
        <ele>188.524392</ele>
        <time>2026-08-28T17:09:01Z</time>
      </trkpt>
      <trkpt lat="43.73333" lon="1.63686">
        <ele>188.348768</ele>
        <time>2026-08-28T17:09:02Z</time>
      </trkpt>
      <trkpt lat="43.73336" lon="1.63695">
        <ele>188.177233</ele>
        <time>2026-08-28T17:09:03Z</time>
      </trkpt>
      <trkpt lat="43.7334" lon="1.63703">
        <ele>188.006156</ele>
        <time>2026-08-28T17:09:04Z</time>
      </trkpt>
      <trkpt lat="43.73345" lon="1.63709">
        <ele>187.839232</ele>
        <time>2026-08-28T17:09:05Z</time>
      </trkpt>
      <trkpt lat="43.73352" lon="1.63713">
        <ele>187.673912</ele>
        <time>2026-08-28T17:09:06Z</time>
      </trkpt>
      <trkpt lat="43.73358" lon="1.63716">
        <ele>187.520499</ele>
        <time>2026-08-28T17:09:07Z</time>
      </trkpt>
      <trkpt lat="43.73365" lon="1.63718">
        <ele>187.366069</ele>
        <time>2026-08-28T17:09:08Z</time>
      </trkpt>
      <trkpt lat="43.73371" lon="1.63719">
        <ele>187.220447</ele>
        <time>2026-08-28T17:09:09Z</time>
      </trkpt>
      <trkpt lat="43.73377" lon="1.63721">
        <ele>187.070266</ele>
        <time>2026-08-28T17:09:10Z</time>
      </trkpt>
      <trkpt lat="43.73383" lon="1.63721">
        <ele>186.933597</ele>
        <time>2026-08-28T17:09:11Z</time>
      </trkpt>
      <trkpt lat="43.73389" lon="1.63724">
        <ele>186.796686</ele>
        <time>2026-08-28T17:09:12Z</time>
      </trkpt>
      <trkpt lat="43.73394" lon="1.63728">
        <ele>186.660227</ele>
        <time>2026-08-28T17:09:13Z</time>
      </trkpt>
      <trkpt lat="43.73399" lon="1.63732">
        <ele>186.524188</ele>
        <time>2026-08-28T17:09:14Z</time>
      </trkpt>
      <trkpt lat="43.73403" lon="1.63738">
        <ele>186.386386</ele>
        <time>2026-08-28T17:09:15Z</time>
      </trkpt>
      <trkpt lat="43.73407" lon="1.63744">
        <ele>186.254932</ele>
        <time>2026-08-28T17:09:16Z</time>
      </trkpt>
      <trkpt lat="43.73409" lon="1.63751">
        <ele>186.126985</ele>
        <time>2026-08-28T17:09:17Z</time>
      </trkpt>
      <trkpt lat="43.73412" lon="1.63757">
        <ele>186.000925</ele>
        <time>2026-08-28T17:09:18Z</time>
      </trkpt>
      <trkpt lat="43.73415" lon="1.63763">
        <ele>185.881336</ele>
        <time>2026-08-28T17:09:19Z</time>
      </trkpt>
      <trkpt lat="43.73417" lon="1.63769">
        <ele>185.782857</ele>
        <time>2026-08-28T17:09:20Z</time>
      </trkpt>
      <trkpt lat="43.73419" lon="1.63772">
        <ele>185.702748</ele>
        <time>2026-08-28T17:09:21Z</time>
      </trkpt>
      <trkpt lat="43.73423" lon="1.63771">
        <ele>185.619306</ele>
        <time>2026-08-28T17:09:22Z</time>
      </trkpt>
      <trkpt lat="43.73427" lon="1.63769">
        <ele>185.527998</ele>
        <time>2026-08-28T17:09:23Z</time>
      </trkpt>
      <trkpt lat="43.7343" lon="1.63768">
        <ele>185.449464</ele>
        <time>2026-08-28T17:09:24Z</time>
      </trkpt>
      <trkpt lat="43.73433" lon="1.63768">
        <ele>185.374751</ele>
        <time>2026-08-28T17:09:25Z</time>
      </trkpt>
      <trkpt lat="43.73436" lon="1.63768">
        <ele>185.298401</ele>
        <time>2026-08-28T17:09:26Z</time>
      </trkpt>
      <trkpt lat="43.7344" lon="1.63768">
        <ele>185.216804</ele>
        <time>2026-08-28T17:09:27Z</time>
      </trkpt>
      <trkpt lat="43.73443" lon="1.6377">
        <ele>185.126416</ele>
        <time>2026-08-28T17:09:28Z</time>
      </trkpt>
      <trkpt lat="43.73447" lon="1.63772">
        <ele>185.043852</ele>
        <time>2026-08-28T17:09:29Z</time>
      </trkpt>
      <trkpt lat="43.7345" lon="1.63773">
        <ele>184.980584</ele>
        <time>2026-08-28T17:09:30Z</time>
      </trkpt>
      <trkpt lat="43.73453" lon="1.63772">
        <ele>184.90416</ele>
        <time>2026-08-28T17:09:31Z</time>
      </trkpt>
      <trkpt lat="43.73456" lon="1.63769">
        <ele>184.825087</ele>
        <time>2026-08-28T17:09:32Z</time>
      </trkpt>
      <trkpt lat="43.73457" lon="1.63767">
        <ele>184.766467</ele>
        <time>2026-08-28T17:09:33Z</time>
      </trkpt>
      <trkpt lat="43.73459" lon="1.63764">
        <ele>184.700648</ele>
        <time>2026-08-28T17:09:34Z</time>
      </trkpt>
      <trkpt lat="43.73462" lon="1.63762">
        <ele>184.633108</ele>
        <time>2026-08-28T17:09:35Z</time>
      </trkpt>
      <trkpt lat="43.73464" lon="1.6376">
        <ele>184.565846</ele>
        <time>2026-08-28T17:09:36Z</time>
      </trkpt>
      <trkpt lat="43.73467" lon="1.63758">
        <ele>184.490195</ele>
        <time>2026-08-28T17:09:37Z</time>
      </trkpt>
      <trkpt lat="43.7347" lon="1.63757">
        <ele>184.414215</ele>
        <time>2026-08-28T17:09:38Z</time>
      </trkpt>
      <trkpt lat="43.73474" lon="1.63755">
        <ele>184.332978</ele>
        <time>2026-08-28T17:09:39Z</time>
      </trkpt>
      <trkpt lat="43.73477" lon="1.63753">
        <ele>184.252616</ele>
        <time>2026-08-28T17:09:40Z</time>
      </trkpt>
      <trkpt lat="43.7348" lon="1.63752">
        <ele>184.166536</ele>
        <time>2026-08-28T17:09:41Z</time>
      </trkpt>
      <trkpt lat="43.73484" lon="1.6375">
        <ele>184.078276</ele>
        <time>2026-08-28T17:09:42Z</time>
      </trkpt>
      <trkpt lat="43.73488" lon="1.63748">
        <ele>183.977696</ele>
        <time>2026-08-28T17:09:43Z</time>
      </trkpt>
      <trkpt lat="43.73492" lon="1.63746">
        <ele>183.878179</ele>
        <time>2026-08-28T17:09:44Z</time>
      </trkpt>
      <trkpt lat="43.73496" lon="1.63745">
        <ele>183.783823</ele>
        <time>2026-08-28T17:09:45Z</time>
      </trkpt>
      <trkpt lat="43.735" lon="1.63744">
        <ele>183.692605</ele>
        <time>2026-08-28T17:09:46Z</time>
      </trkpt>
      <trkpt lat="43.73504" lon="1.63743">
        <ele>183.606526</ele>
        <time>2026-08-28T17:09:47Z</time>
      </trkpt>
      <trkpt lat="43.73508" lon="1.63741">
        <ele>183.488977</ele>
        <time>2026-08-28T17:09:48Z</time>
      </trkpt>
      <trkpt lat="43.73512" lon="1.6374">
        <ele>183.292088</ele>
        <time>2026-08-28T17:09:49Z</time>
      </trkpt>
      <trkpt lat="43.73516" lon="1.63739">
        <ele>183.11406</ele>
        <time>2026-08-28T17:09:50Z</time>
      </trkpt>
      <trkpt lat="43.73519" lon="1.63737">
        <ele>182.94849</ele>
        <time>2026-08-28T17:09:51Z</time>
      </trkpt>
      <trkpt lat="43.73523" lon="1.63736">
        <ele>182.788312</ele>
        <time>2026-08-28T17:09:52Z</time>
      </trkpt>
      <trkpt lat="43.73526" lon="1.63736">
        <ele>182.639265</ele>
        <time>2026-08-28T17:09:53Z</time>
      </trkpt>
      <trkpt lat="43.7353" lon="1.63737">
        <ele>182.446248</ele>
        <time>2026-08-28T17:09:54Z</time>
      </trkpt>
      <trkpt lat="43.73535" lon="1.63738">
        <ele>182.241381</ele>
        <time>2026-08-28T17:09:55Z</time>
      </trkpt>
      <trkpt lat="43.73539" lon="1.63739">
        <ele>182.036514</ele>
        <time>2026-08-28T17:09:56Z</time>
      </trkpt>
      <trkpt lat="43.73543" lon="1.6374">
        <ele>181.84014</ele>
        <time>2026-08-28T17:09:57Z</time>
      </trkpt>
      <trkpt lat="43.73548" lon="1.63741">
        <ele>181.626312</ele>
        <time>2026-08-28T17:09:58Z</time>
      </trkpt>
      <trkpt lat="43.73553" lon="1.63741">
        <ele>181.416534</ele>
        <time>2026-08-28T17:09:59Z</time>
      </trkpt>
      <trkpt lat="43.73557" lon="1.63743">
        <ele>181.208265</ele>
        <time>2026-08-28T17:10:00Z</time>
      </trkpt>
      <trkpt lat="43.73562" lon="1.63744">
        <ele>180.98908</ele>
        <time>2026-08-28T17:10:01Z</time>
      </trkpt>
      <trkpt lat="43.73567" lon="1.63745">
        <ele>180.742119</ele>
        <time>2026-08-28T17:10:02Z</time>
      </trkpt>
      <trkpt lat="43.73573" lon="1.63746">
        <ele>180.476808</ele>
        <time>2026-08-28T17:10:03Z</time>
      </trkpt>
      <trkpt lat="43.73579" lon="1.63748">
        <ele>180.215403</ele>
        <time>2026-08-28T17:10:04Z</time>
      </trkpt>
      <trkpt lat="43.73584" lon="1.63749">
        <ele>179.978527</ele>
        <time>2026-08-28T17:10:05Z</time>
      </trkpt>
      <trkpt lat="43.73588" lon="1.6375">
        <ele>179.777184</ele>
        <time>2026-08-28T17:10:06Z</time>
      </trkpt>
      <trkpt lat="43.73591" lon="1.63753">
        <ele>179.631155</ele>
        <time>2026-08-28T17:10:07Z</time>
      </trkpt>
      <trkpt lat="43.73592" lon="1.63757">
        <ele>179.519121</ele>
        <time>2026-08-28T17:10:08Z</time>
      </trkpt>
      <trkpt lat="43.73593" lon="1.63757">
        <ele>179.453833</ele>
        <time>2026-08-28T17:10:09Z</time>
      </trkpt>
      <trkpt lat="43.73596" lon="1.63756">
        <ele>179.325353</ele>
        <time>2026-08-28T17:10:10Z</time>
      </trkpt>
      <trkpt lat="43.73599" lon="1.63757">
        <ele>179.17602</ele>
        <time>2026-08-28T17:10:11Z</time>
      </trkpt>
      <trkpt lat="43.73603" lon="1.63757">
        <ele>179.004431</ele>
        <time>2026-08-28T17:10:12Z</time>
      </trkpt>
      <trkpt lat="43.73607" lon="1.63757">
        <ele>178.814667</ele>
        <time>2026-08-28T17:10:13Z</time>
      </trkpt>
      <trkpt lat="43.73612" lon="1.63757">
        <ele>178.606954</ele>
        <time>2026-08-28T17:10:14Z</time>
      </trkpt>
      <trkpt lat="43.73616" lon="1.63757">
        <ele>178.3941</ele>
        <time>2026-08-28T17:10:15Z</time>
      </trkpt>
      <trkpt lat="43.73621" lon="1.63758">
        <ele>178.174914</ele>
        <time>2026-08-28T17:10:16Z</time>
      </trkpt>
      <trkpt lat="43.73625" lon="1.6376">
        <ele>177.976378</ele>
        <time>2026-08-28T17:10:17Z</time>
      </trkpt>
      <trkpt lat="43.73629" lon="1.63762">
        <ele>177.820404</ele>
        <time>2026-08-28T17:10:18Z</time>
      </trkpt>
      <trkpt lat="43.73631" lon="1.63763">
        <ele>177.706244</ele>
        <time>2026-08-28T17:10:19Z</time>
      </trkpt>
      <trkpt lat="43.73633" lon="1.63764">
        <ele>177.609065</ele>
        <time>2026-08-28T17:10:20Z</time>
      </trkpt>
      <trkpt lat="43.73635" lon="1.63766">
        <ele>177.492827</ele>
        <time>2026-08-28T17:10:21Z</time>
      </trkpt>
      <trkpt lat="43.73638" lon="1.63768">
        <ele>177.359053</ele>
        <time>2026-08-28T17:10:22Z</time>
      </trkpt>
      <trkpt lat="43.73641" lon="1.6377">
        <ele>177.206479</ele>
        <time>2026-08-28T17:10:23Z</time>
      </trkpt>
      <trkpt lat="43.73644" lon="1.63773">
        <ele>177.036605</ele>
        <time>2026-08-28T17:10:24Z</time>
      </trkpt>
      <trkpt lat="43.73648" lon="1.63775">
        <ele>176.843877</ele>
        <time>2026-08-28T17:10:25Z</time>
      </trkpt>
      <trkpt lat="43.73652" lon="1.63778">
        <ele>176.634766</ele>
        <time>2026-08-28T17:10:26Z</time>
      </trkpt>
      <trkpt lat="43.73657" lon="1.63781">
        <ele>176.411823</ele>
        <time>2026-08-28T17:10:27Z</time>
      </trkpt>
      <trkpt lat="43.73661" lon="1.63784">
        <ele>176.19724</ele>
        <time>2026-08-28T17:10:28Z</time>
      </trkpt>
      <trkpt lat="43.73666" lon="1.63787">
        <ele>175.956241</ele>
        <time>2026-08-28T17:10:29Z</time>
      </trkpt>
      <trkpt lat="43.7367" lon="1.63791">
        <ele>175.706545</ele>
        <time>2026-08-28T17:10:30Z</time>
      </trkpt>
      <trkpt lat="43.73675" lon="1.63795">
        <ele>175.459487</ele>
        <time>2026-08-28T17:10:31Z</time>
      </trkpt>
      <trkpt lat="43.7368" lon="1.63799">
        <ele>175.281412</ele>
        <time>2026-08-28T17:10:32Z</time>
      </trkpt>
      <trkpt lat="43.73685" lon="1.63802">
        <ele>175.113727</ele>
        <time>2026-08-28T17:10:33Z</time>
      </trkpt>
      <trkpt lat="43.73691" lon="1.63804">
        <ele>174.940685</ele>
        <time>2026-08-28T17:10:34Z</time>
      </trkpt>
      <trkpt lat="43.73697" lon="1.63807">
        <ele>174.757234</ele>
        <time>2026-08-28T17:10:35Z</time>
      </trkpt>
      <trkpt lat="43.73703" lon="1.63811">
        <ele>174.574886</ele>
        <time>2026-08-28T17:10:36Z</time>
      </trkpt>
      <trkpt lat="43.73709" lon="1.63814">
        <ele>174.389054</ele>
        <time>2026-08-28T17:10:37Z</time>
      </trkpt>
      <trkpt lat="43.73714" lon="1.63817">
        <ele>174.207088</ele>
        <time>2026-08-28T17:10:38Z</time>
      </trkpt>
      <trkpt lat="43.7372" lon="1.6382">
        <ele>174.029792</ele>
        <time>2026-08-28T17:10:39Z</time>
      </trkpt>
      <trkpt lat="43.73726" lon="1.63823">
        <ele>173.847143</ele>
        <time>2026-08-28T17:10:40Z</time>
      </trkpt>
      <trkpt lat="43.73732" lon="1.63826">
        <ele>173.665129</ele>
        <time>2026-08-28T17:10:41Z</time>
      </trkpt>
      <trkpt lat="43.73738" lon="1.63829">
        <ele>173.487299</ele>
        <time>2026-08-28T17:10:42Z</time>
      </trkpt>
      <trkpt lat="43.73744" lon="1.63832">
        <ele>173.307305</ele>
        <time>2026-08-28T17:10:43Z</time>
      </trkpt>
      <trkpt lat="43.7375" lon="1.63834">
        <ele>173.131443</ele>
        <time>2026-08-28T17:10:44Z</time>
      </trkpt>
      <trkpt lat="43.73755" lon="1.63837">
        <ele>172.958722</ele>
        <time>2026-08-28T17:10:45Z</time>
      </trkpt>
      <trkpt lat="43.7376" lon="1.63841">
        <ele>172.788667</ele>
        <time>2026-08-28T17:10:46Z</time>
      </trkpt>
      <trkpt lat="43.73766" lon="1.63844">
        <ele>172.622175</ele>
        <time>2026-08-28T17:10:47Z</time>
      </trkpt>
      <trkpt lat="43.73771" lon="1.63847">
        <ele>172.45043</ele>
        <time>2026-08-28T17:10:48Z</time>
      </trkpt>
      <trkpt lat="43.73776" lon="1.6385">
        <ele>172.286199</ele>
        <time>2026-08-28T17:10:49Z</time>
      </trkpt>
      <trkpt lat="43.73782" lon="1.63853">
        <ele>172.11236</ele>
        <time>2026-08-28T17:10:50Z</time>
      </trkpt>
      <trkpt lat="43.73787" lon="1.63857">
        <ele>171.938841</ele>
        <time>2026-08-28T17:10:51Z</time>
      </trkpt>
      <trkpt lat="43.73793" lon="1.6386">
        <ele>171.767952</ele>
        <time>2026-08-28T17:10:52Z</time>
      </trkpt>
      <trkpt lat="43.73798" lon="1.63863">
        <ele>171.598838</ele>
        <time>2026-08-28T17:10:53Z</time>
      </trkpt>
      <trkpt lat="43.73803" lon="1.63866">
        <ele>171.439219</ele>
        <time>2026-08-28T17:10:54Z</time>
      </trkpt>
      <trkpt lat="43.73808" lon="1.6387">
        <ele>171.280537</ele>
        <time>2026-08-28T17:10:55Z</time>
      </trkpt>
      <trkpt lat="43.73813" lon="1.63873">
        <ele>171.131494</ele>
        <time>2026-08-28T17:10:56Z</time>
      </trkpt>
      <trkpt lat="43.73817" lon="1.63876">
        <ele>170.981497</ele>
        <time>2026-08-28T17:10:57Z</time>
      </trkpt>
      <trkpt lat="43.73822" lon="1.63879">
        <ele>170.832525</ele>
        <time>2026-08-28T17:10:58Z</time>
      </trkpt>
      <trkpt lat="43.73826" lon="1.63881">
        <ele>170.694049</ele>
        <time>2026-08-28T17:10:59Z</time>
      </trkpt>
      <trkpt lat="43.73831" lon="1.63884">
        <ele>170.557223</ele>
        <time>2026-08-28T17:11:00Z</time>
      </trkpt>
      <trkpt lat="43.73835" lon="1.63887">
        <ele>170.429056</ele>
        <time>2026-08-28T17:11:01Z</time>
      </trkpt>
      <trkpt lat="43.73838" lon="1.6389">
        <ele>170.316603</ele>
        <time>2026-08-28T17:11:02Z</time>
      </trkpt>
      <trkpt lat="43.73841" lon="1.63891">
        <ele>170.219953</ele>
        <time>2026-08-28T17:11:03Z</time>
      </trkpt>
      <trkpt lat="43.73844" lon="1.63889">
        <ele>170.1901</ele>
        <time>2026-08-28T17:11:04Z</time>
      </trkpt>
      <trkpt lat="43.73846" lon="1.63885">
        <ele>170.170261</ele>
        <time>2026-08-28T17:11:05Z</time>
      </trkpt>
      <trkpt lat="43.73847" lon="1.63881">
        <ele>170.15068</ele>
        <time>2026-08-28T17:11:06Z</time>
      </trkpt>
      <trkpt lat="43.73849" lon="1.63877">
        <ele>170.12875</ele>
        <time>2026-08-28T17:11:07Z</time>
      </trkpt>
      <trkpt lat="43.7385" lon="1.63872">
        <ele>170.104153</ele>
        <time>2026-08-28T17:11:08Z</time>
      </trkpt>
      <trkpt lat="43.73852" lon="1.63867">
        <ele>170.07847</ele>
        <time>2026-08-28T17:11:09Z</time>
      </trkpt>
      <trkpt lat="43.73854" lon="1.63862">
        <ele>170.052786</ele>
        <time>2026-08-28T17:11:10Z</time>
      </trkpt>
      <trkpt lat="43.73856" lon="1.63856">
        <ele>170.026418</ele>
        <time>2026-08-28T17:11:11Z</time>
      </trkpt>
      <trkpt lat="43.73857" lon="1.63851">
        <ele>170.000031</ele>
        <time>2026-08-28T17:11:12Z</time>
      </trkpt>
      <trkpt lat="43.73858" lon="1.63846">
        <ele>169.975761</ele>
        <time>2026-08-28T17:11:13Z</time>
      </trkpt>
      <trkpt lat="43.7386" lon="1.63842">
        <ele>169.954154</ele>
        <time>2026-08-28T17:11:14Z</time>
      </trkpt>
      <trkpt lat="43.73863" lon="1.63839">
        <ele>169.932538</ele>
        <time>2026-08-28T17:11:15Z</time>
      </trkpt>
      <trkpt lat="43.73866" lon="1.6384">
        <ele>169.913728</ele>
        <time>2026-08-28T17:11:16Z</time>
      </trkpt>
      <trkpt lat="43.73869" lon="1.63841">
        <ele>169.894003</ele>
        <time>2026-08-28T17:11:17Z</time>
      </trkpt>
      <trkpt lat="43.73872" lon="1.63843">
        <ele>169.87312</ele>
        <time>2026-08-28T17:11:18Z</time>
      </trkpt>
      <trkpt lat="43.73875" lon="1.63845">
        <ele>169.850372</ele>
        <time>2026-08-28T17:11:19Z</time>
      </trkpt>
      <trkpt lat="43.73879" lon="1.63847">
        <ele>169.826671</ele>
        <time>2026-08-28T17:11:20Z</time>
      </trkpt>
      <trkpt lat="43.73883" lon="1.6385">
        <ele>169.798964</ele>
        <time>2026-08-28T17:11:21Z</time>
      </trkpt>
      <trkpt lat="43.73887" lon="1.63852">
        <ele>169.773167</ele>
        <time>2026-08-28T17:11:22Z</time>
      </trkpt>
      <trkpt lat="43.7389" lon="1.63854">
        <ele>169.749092</ele>
        <time>2026-08-28T17:11:23Z</time>
      </trkpt>
      <trkpt lat="43.73894" lon="1.63857">
        <ele>169.723867</ele>
        <time>2026-08-28T17:11:24Z</time>
      </trkpt>
      <trkpt lat="43.73897" lon="1.63859">
        <ele>169.699199</ele>
        <time>2026-08-28T17:11:25Z</time>
      </trkpt>
      <trkpt lat="43.73901" lon="1.63861">
        <ele>169.673224</ele>
        <time>2026-08-28T17:11:26Z</time>
      </trkpt>
      <trkpt lat="43.73905" lon="1.63864">
        <ele>169.647598</ele>
        <time>2026-08-28T17:11:27Z</time>
      </trkpt>
      <trkpt lat="43.73908" lon="1.63866">
        <ele>169.622572</ele>
        <time>2026-08-28T17:11:28Z</time>
      </trkpt>
      <trkpt lat="43.73912" lon="1.63868">
        <ele>169.596597</ele>
        <time>2026-08-28T17:11:29Z</time>
      </trkpt>
      <trkpt lat="43.73916" lon="1.63868">
        <ele>169.570258</ele>
        <time>2026-08-28T17:11:30Z</time>
      </trkpt>
      <trkpt lat="43.7392" lon="1.63866">
        <ele>169.544098</ele>
        <time>2026-08-28T17:11:31Z</time>
      </trkpt>
      <trkpt lat="43.73923" lon="1.63862">
        <ele>169.5186</ele>
        <time>2026-08-28T17:11:32Z</time>
      </trkpt>
      <trkpt lat="43.73927" lon="1.63858">
        <ele>169.491897</ele>
        <time>2026-08-28T17:11:33Z</time>
      </trkpt>
      <trkpt lat="43.7393" lon="1.63854">
        <ele>169.463856</ele>
        <time>2026-08-28T17:11:34Z</time>
      </trkpt>
      <trkpt lat="43.73933" lon="1.6385">
        <ele>169.435614</ele>
        <time>2026-08-28T17:11:35Z</time>
      </trkpt>
      <trkpt lat="43.73937" lon="1.63847">
        <ele>169.408126</ele>
        <time>2026-08-28T17:11:36Z</time>
      </trkpt>
      <trkpt lat="43.73941" lon="1.63847">
        <ele>169.381196</ele>
        <time>2026-08-28T17:11:37Z</time>
      </trkpt>
      <trkpt lat="43.73945" lon="1.63849">
        <ele>169.356568</ele>
        <time>2026-08-28T17:11:38Z</time>
      </trkpt>
      <trkpt lat="43.73948" lon="1.63852">
        <ele>169.330803</ele>
        <time>2026-08-28T17:11:39Z</time>
      </trkpt>
      <trkpt lat="43.73951" lon="1.63856">
        <ele>169.305024</ele>
        <time>2026-08-28T17:11:40Z</time>
      </trkpt>
      <trkpt lat="43.73954" lon="1.63861">
        <ele>169.278978</ele>
        <time>2026-08-28T17:11:41Z</time>
      </trkpt>
      <trkpt lat="43.73956" lon="1.63865">
        <ele>169.252906</ele>
        <time>2026-08-28T17:11:42Z</time>
      </trkpt>
      <trkpt lat="43.73959" lon="1.6387">
        <ele>169.22612</ele>
        <time>2026-08-28T17:11:43Z</time>
      </trkpt>
      <trkpt lat="43.73961" lon="1.63875">
        <ele>169.198975</ele>
        <time>2026-08-28T17:11:44Z</time>
      </trkpt>
      <trkpt lat="43.73965" lon="1.6388">
        <ele>169.170178</ele>
        <time>2026-08-28T17:11:45Z</time>
      </trkpt>
      <trkpt lat="43.73968" lon="1.63884">
        <ele>169.141046</ele>
        <time>2026-08-28T17:11:46Z</time>
      </trkpt>
      <trkpt lat="43.73971" lon="1.63889">
        <ele>169.111064</ele>
        <time>2026-08-28T17:11:47Z</time>
      </trkpt>
      <trkpt lat="43.73974" lon="1.63894">
        <ele>169.082346</ele>
        <time>2026-08-28T17:11:48Z</time>
      </trkpt>
      <trkpt lat="43.73977" lon="1.63899">
        <ele>169.0361</ele>
        <time>2026-08-28T17:11:49Z</time>
      </trkpt>
      <trkpt lat="43.7398" lon="1.63904">
        <ele>168.989518</ele>
        <time>2026-08-28T17:11:50Z</time>
      </trkpt>
      <trkpt lat="43.73984" lon="1.63908">
        <ele>168.943299</ele>
        <time>2026-08-28T17:11:51Z</time>
      </trkpt>
      <trkpt lat="43.73987" lon="1.63913">
        <ele>168.897079</ele>
        <time>2026-08-28T17:11:52Z</time>
      </trkpt>
      <trkpt lat="43.7399" lon="1.63918">
        <ele>168.851018</ele>
        <time>2026-08-28T17:11:53Z</time>
      </trkpt>
      <trkpt lat="43.73994" lon="1.63923">
        <ele>168.803612</ele>
        <time>2026-08-28T17:11:54Z</time>
      </trkpt>
      <trkpt lat="43.73997" lon="1.63928">
        <ele>168.757679</ele>
        <time>2026-08-28T17:11:55Z</time>
      </trkpt>
      <trkpt lat="43.73999" lon="1.63932">
        <ele>168.714172</ele>
        <time>2026-08-28T17:11:56Z</time>
      </trkpt>
      <trkpt lat="43.74002" lon="1.63938">
        <ele>168.668435</ele>
        <time>2026-08-28T17:11:57Z</time>
      </trkpt>
      <trkpt lat="43.74005" lon="1.63942">
        <ele>168.624847</ele>
        <time>2026-08-28T17:11:58Z</time>
      </trkpt>
      <trkpt lat="43.74008" lon="1.63946">
        <ele>168.586901</ele>
        <time>2026-08-28T17:11:59Z</time>
      </trkpt>
      <trkpt lat="43.7401" lon="1.6395">
        <ele>168.549477</ele>
        <time>2026-08-28T17:12:00Z</time>
      </trkpt>
      <trkpt lat="43.74013" lon="1.63954">
        <ele>168.514517</ele>
        <time>2026-08-28T17:12:01Z</time>
      </trkpt>
      <trkpt lat="43.74015" lon="1.63958">
        <ele>168.480214</ele>
        <time>2026-08-28T17:12:02Z</time>
      </trkpt>
      <trkpt lat="43.74017" lon="1.63962">
        <ele>168.443305</ele>
        <time>2026-08-28T17:12:03Z</time>
      </trkpt>
      <trkpt lat="43.7402" lon="1.63965">
        <ele>168.405458</ele>
        <time>2026-08-28T17:12:04Z</time>
      </trkpt>
      <trkpt lat="43.74024" lon="1.63968">
        <ele>168.366474</ele>
        <time>2026-08-28T17:12:05Z</time>
      </trkpt>
      <trkpt lat="43.74028" lon="1.63969">
        <ele>168.327146</ele>
        <time>2026-08-28T17:12:06Z</time>
      </trkpt>
      <trkpt lat="43.74032" lon="1.63969">
        <ele>168.288843</ele>
        <time>2026-08-28T17:12:07Z</time>
      </trkpt>
      <trkpt lat="43.74035" lon="1.63967">
        <ele>168.248903</ele>
        <time>2026-08-28T17:12:08Z</time>
      </trkpt>
      <trkpt lat="43.74039" lon="1.63964">
        <ele>168.210129</ele>
        <time>2026-08-28T17:12:09Z</time>
      </trkpt>
      <trkpt lat="43.74043" lon="1.63962">
        <ele>168.16906</ele>
        <time>2026-08-28T17:12:10Z</time>
      </trkpt>
      <trkpt lat="43.74047" lon="1.63959">
        <ele>168.126805</ele>
        <time>2026-08-28T17:12:11Z</time>
      </trkpt>
      <trkpt lat="43.74051" lon="1.63956">
        <ele>168.083669</ele>
        <time>2026-08-28T17:12:12Z</time>
      </trkpt>
      <trkpt lat="43.74054" lon="1.63954">
        <ele>168.041648</ele>
        <time>2026-08-28T17:12:13Z</time>
      </trkpt>
      <trkpt lat="43.74058" lon="1.63951">
        <ele>167.99724</ele>
        <time>2026-08-28T17:12:14Z</time>
      </trkpt>
      <trkpt lat="43.74062" lon="1.63947">
        <ele>167.950944</ele>
        <time>2026-08-28T17:12:15Z</time>
      </trkpt>
      <trkpt lat="43.74067" lon="1.63944">
        <ele>167.90345</ele>
        <time>2026-08-28T17:12:16Z</time>
      </trkpt>
      <trkpt lat="43.74071" lon="1.63941">
        <ele>167.857505</ele>
        <time>2026-08-28T17:12:17Z</time>
      </trkpt>
      <trkpt lat="43.74075" lon="1.63938">
        <ele>167.813953</ele>
        <time>2026-08-28T17:12:18Z</time>
      </trkpt>
      <trkpt lat="43.74078" lon="1.63935">
        <ele>167.771596</ele>
        <time>2026-08-28T17:12:19Z</time>
      </trkpt>
      <trkpt lat="43.74082" lon="1.63932">
        <ele>167.731959</ele>
        <time>2026-08-28T17:12:20Z</time>
      </trkpt>
      <trkpt lat="43.74085" lon="1.63929">
        <ele>167.692976</ele>
        <time>2026-08-28T17:12:21Z</time>
      </trkpt>
      <trkpt lat="43.74089" lon="1.63928">
        <ele>167.659484</ele>
        <time>2026-08-28T17:12:22Z</time>
      </trkpt>
      <trkpt lat="43.74092" lon="1.63929">
        <ele>167.625234</ele>
        <time>2026-08-28T17:12:23Z</time>
      </trkpt>
      <trkpt lat="43.74095" lon="1.63933">
        <ele>167.58706</ele>
        <time>2026-08-28T17:12:24Z</time>
      </trkpt>
      <trkpt lat="43.74097" lon="1.63937">
        <ele>167.547842</ele>
        <time>2026-08-28T17:12:25Z</time>
      </trkpt>
      <trkpt lat="43.74099" lon="1.63943">
        <ele>167.504059</ele>
        <time>2026-08-28T17:12:26Z</time>
      </trkpt>
      <trkpt lat="43.74101" lon="1.63949">
        <ele>167.456818</ele>
        <time>2026-08-28T17:12:27Z</time>
      </trkpt>
      <trkpt lat="43.74103" lon="1.63956">
        <ele>167.407039</ele>
        <time>2026-08-28T17:12:28Z</time>
      </trkpt>
      <trkpt lat="43.74105" lon="1.63962">
        <ele>167.353668</ele>
        <time>2026-08-28T17:12:29Z</time>
      </trkpt>
      <trkpt lat="43.74108" lon="1.63969">
        <ele>167.343566</ele>
        <time>2026-08-28T17:12:30Z</time>
      </trkpt>
      <trkpt lat="43.74111" lon="1.63977">
        <ele>167.382631</ele>
        <time>2026-08-28T17:12:31Z</time>
      </trkpt>
      <trkpt lat="43.74114" lon="1.63984">
        <ele>167.421288</ele>
        <time>2026-08-28T17:12:32Z</time>
      </trkpt>
      <trkpt lat="43.74116" lon="1.63992">
        <ele>167.460353</ele>
        <time>2026-08-28T17:12:33Z</time>
      </trkpt>
      <trkpt lat="43.74119" lon="1.63999">
        <ele>167.498954</ele>
        <time>2026-08-28T17:12:34Z</time>
      </trkpt>
      <trkpt lat="43.74122" lon="1.64006">
        <ele>167.537423</ele>
        <time>2026-08-28T17:12:35Z</time>
      </trkpt>
      <trkpt lat="43.74124" lon="1.64013">
        <ele>167.573106</ele>
        <time>2026-08-28T17:12:36Z</time>
      </trkpt>
      <trkpt lat="43.74126" lon="1.6402">
        <ele>167.607527</ele>
        <time>2026-08-28T17:12:37Z</time>
      </trkpt>
      <trkpt lat="43.74129" lon="1.64027">
        <ele>167.641256</ele>
        <time>2026-08-28T17:12:38Z</time>
      </trkpt>
      <trkpt lat="43.74131" lon="1.64033">
        <ele>167.673185</ele>
        <time>2026-08-28T17:12:39Z</time>
      </trkpt>
      <trkpt lat="43.74133" lon="1.64039">
        <ele>167.706233</ele>
        <time>2026-08-28T17:12:40Z</time>
      </trkpt>
      <trkpt lat="43.74136" lon="1.64045">
        <ele>167.738776</ele>
        <time>2026-08-28T17:12:41Z</time>
      </trkpt>
      <trkpt lat="43.74138" lon="1.64051">
        <ele>167.769999</ele>
        <time>2026-08-28T17:12:42Z</time>
      </trkpt>
      <trkpt lat="43.7414" lon="1.64057">
        <ele>167.798986</ele>
        <time>2026-08-28T17:12:43Z</time>
      </trkpt>
      <trkpt lat="43.74142" lon="1.64062">
        <ele>167.828565</ele>
        <time>2026-08-28T17:12:44Z</time>
      </trkpt>
      <trkpt lat="43.74144" lon="1.64068">
        <ele>167.856857</ele>
        <time>2026-08-28T17:12:45Z</time>
      </trkpt>
      <trkpt lat="43.74147" lon="1.64072">
        <ele>167.88472</ele>
        <time>2026-08-28T17:12:46Z</time>
      </trkpt>
      <trkpt lat="43.7415" lon="1.64076">
        <ele>167.912414</ele>
        <time>2026-08-28T17:12:47Z</time>
      </trkpt>
      <trkpt lat="43.74154" lon="1.6408">
        <ele>167.940406</ele>
        <time>2026-08-28T17:12:48Z</time>
      </trkpt>
      <trkpt lat="43.74158" lon="1.64082">
        <ele>167.967058</ele>
        <time>2026-08-28T17:12:49Z</time>
      </trkpt>
      <trkpt lat="43.74161" lon="1.64085">
        <ele>167.993513</ele>
        <time>2026-08-28T17:12:50Z</time>
      </trkpt>
      <trkpt lat="43.74165" lon="1.64087">
        <ele>168.020151</ele>
        <time>2026-08-28T17:12:51Z</time>
      </trkpt>
      <trkpt lat="43.74169" lon="1.64089">
        <ele>168.045836</ele>
        <time>2026-08-28T17:12:52Z</time>
      </trkpt>
      <trkpt lat="43.74173" lon="1.64091">
        <ele>168.072391</ele>
        <time>2026-08-28T17:12:53Z</time>
      </trkpt>
      <trkpt lat="43.74177" lon="1.64093">
        <ele>168.100036</ele>
        <time>2026-08-28T17:12:54Z</time>
      </trkpt>
      <trkpt lat="43.74181" lon="1.64095">
        <ele>168.127682</ele>
        <time>2026-08-28T17:12:55Z</time>
      </trkpt>
      <trkpt lat="43.74185" lon="1.64097">
        <ele>168.15576</ele>
        <time>2026-08-28T17:12:56Z</time>
      </trkpt>
      <trkpt lat="43.74189" lon="1.641">
        <ele>168.183365</ele>
        <time>2026-08-28T17:12:57Z</time>
      </trkpt>
      <trkpt lat="43.74193" lon="1.64102">
        <ele>168.211286</ele>
        <time>2026-08-28T17:12:58Z</time>
      </trkpt>
      <trkpt lat="43.74197" lon="1.64104">
        <ele>168.238164</ele>
        <time>2026-08-28T17:12:59Z</time>
      </trkpt>
      <trkpt lat="43.74201" lon="1.64106">
        <ele>168.263848</ele>
        <time>2026-08-28T17:13:00Z</time>
      </trkpt>
      <trkpt lat="43.74204" lon="1.64108">
        <ele>168.290898</ele>
        <time>2026-08-28T17:13:01Z</time>
      </trkpt>
      <trkpt lat="43.74209" lon="1.64111">
        <ele>168.319908</ele>
        <time>2026-08-28T17:13:02Z</time>
      </trkpt>
      <trkpt lat="43.74213" lon="1.64113">
        <ele>168.350046</ele>
        <time>2026-08-28T17:13:03Z</time>
      </trkpt>
      <trkpt lat="43.74217" lon="1.64116">
        <ele>168.381735</ele>
        <time>2026-08-28T17:13:04Z</time>
      </trkpt>
      <trkpt lat="43.74222" lon="1.64118">
        <ele>168.411099</ele>
        <time>2026-08-28T17:13:05Z</time>
      </trkpt>
      <trkpt lat="43.74226" lon="1.64121">
        <ele>168.440878</ele>
        <time>2026-08-28T17:13:06Z</time>
      </trkpt>
      <trkpt lat="43.7423" lon="1.64123">
        <ele>168.471606</ele>
        <time>2026-08-28T17:13:07Z</time>
      </trkpt>
      <trkpt lat="43.74234" lon="1.64126">
        <ele>168.507031</ele>
        <time>2026-08-28T17:13:08Z</time>
      </trkpt>
      <trkpt lat="43.74238" lon="1.64129">
        <ele>168.543882</ele>
        <time>2026-08-28T17:13:09Z</time>
      </trkpt>
      <trkpt lat="43.74242" lon="1.64131">
        <ele>168.582295</ele>
        <time>2026-08-28T17:13:10Z</time>
      </trkpt>
      <trkpt lat="43.74247" lon="1.64133">
        <ele>168.620227</ele>
        <time>2026-08-28T17:13:11Z</time>
      </trkpt>
      <trkpt lat="43.74251" lon="1.64136">
        <ele>168.661802</ele>
        <time>2026-08-28T17:13:12Z</time>
      </trkpt>
      <trkpt lat="43.74256" lon="1.64138">
        <ele>168.703612</ele>
        <time>2026-08-28T17:13:13Z</time>
      </trkpt>
      <trkpt lat="43.7426" lon="1.64141">
        <ele>168.747243</ele>
        <time>2026-08-28T17:13:14Z</time>
      </trkpt>
      <trkpt lat="43.74265" lon="1.64144">
        <ele>168.793261</ele>
        <time>2026-08-28T17:13:15Z</time>
      </trkpt>
      <trkpt lat="43.7427" lon="1.64146">
        <ele>168.840068</ele>
        <time>2026-08-28T17:13:16Z</time>
      </trkpt>
      <trkpt lat="43.74276" lon="1.64149">
        <ele>168.888889</ele>
        <time>2026-08-28T17:13:17Z</time>
      </trkpt>
      <trkpt lat="43.74281" lon="1.64151">
        <ele>168.936294</ele>
        <time>2026-08-28T17:13:18Z</time>
      </trkpt>
      <trkpt lat="43.74286" lon="1.64154">
        <ele>168.983493</ele>
        <time>2026-08-28T17:13:19Z</time>
      </trkpt>
      <trkpt lat="43.74291" lon="1.64156">
        <ele>169.03031</ele>
        <time>2026-08-28T17:13:20Z</time>
      </trkpt>
      <trkpt lat="43.74297" lon="1.6416">
        <ele>169.078855</ele>
        <time>2026-08-28T17:13:21Z</time>
      </trkpt>
      <trkpt lat="43.74301" lon="1.64162">
        <ele>169.123516</ele>
        <time>2026-08-28T17:13:22Z</time>
      </trkpt>
      <trkpt lat="43.74306" lon="1.64165">
        <ele>169.167388</ele>
        <time>2026-08-28T17:13:23Z</time>
      </trkpt>
      <trkpt lat="43.74311" lon="1.64168">
        <ele>169.209949</ele>
        <time>2026-08-28T17:13:24Z</time>
      </trkpt>
      <trkpt lat="43.74315" lon="1.64171">
        <ele>169.251524</ele>
        <time>2026-08-28T17:13:25Z</time>
      </trkpt>
      <trkpt lat="43.74319" lon="1.64173">
        <ele>169.292305</ele>
        <time>2026-08-28T17:13:26Z</time>
      </trkpt>
      <trkpt lat="43.74324" lon="1.64176">
        <ele>169.331235</ele>
        <time>2026-08-28T17:13:27Z</time>
      </trkpt>
      <trkpt lat="43.74328" lon="1.64178">
        <ele>169.370164</ele>
        <time>2026-08-28T17:13:28Z</time>
      </trkpt>
      <trkpt lat="43.74332" lon="1.64181">
        <ele>169.407302</ele>
        <time>2026-08-28T17:13:29Z</time>
      </trkpt>
      <trkpt lat="43.74336" lon="1.64183">
        <ele>169.444786</ele>
        <time>2026-08-28T17:13:30Z</time>
      </trkpt>
      <trkpt lat="43.7434" lon="1.64185">
        <ele>169.480666</ele>
        <time>2026-08-28T17:13:31Z</time>
      </trkpt>
      <trkpt lat="43.74343" lon="1.64187">
        <ele>169.515983</ele>
        <time>2026-08-28T17:13:32Z</time>
      </trkpt>
      <trkpt lat="43.74347" lon="1.64189">
        <ele>169.55027</ele>
        <time>2026-08-28T17:13:33Z</time>
      </trkpt>
      <trkpt lat="43.74351" lon="1.64191">
        <ele>169.585128</ele>
        <time>2026-08-28T17:13:34Z</time>
      </trkpt>
      <trkpt lat="43.74355" lon="1.64193">
        <ele>169.62021</ele>
        <time>2026-08-28T17:13:35Z</time>
      </trkpt>
      <trkpt lat="43.74359" lon="1.64196">
        <ele>169.655771</ele>
        <time>2026-08-28T17:13:36Z</time>
      </trkpt>
      <trkpt lat="43.74362" lon="1.64197">
        <ele>169.68859</ele>
        <time>2026-08-28T17:13:37Z</time>
      </trkpt>
      <trkpt lat="43.74366" lon="1.64198">
        <ele>169.719482</ele>
        <time>2026-08-28T17:13:38Z</time>
      </trkpt>
      <trkpt lat="43.74369" lon="1.64197">
        <ele>169.749593</ele>
        <time>2026-08-28T17:13:39Z</time>
      </trkpt>
      <trkpt lat="43.74373" lon="1.64197">
        <ele>169.780516</ele>
        <time>2026-08-28T17:13:40Z</time>
      </trkpt>
      <trkpt lat="43.74376" lon="1.64196">
        <ele>169.811778</ele>
        <time>2026-08-28T17:13:41Z</time>
      </trkpt>
      <trkpt lat="43.7438" lon="1.64195">
        <ele>169.84384</ele>
        <time>2026-08-28T17:13:42Z</time>
      </trkpt>
      <trkpt lat="43.74384" lon="1.64193">
        <ele>169.878128</ele>
        <time>2026-08-28T17:13:43Z</time>
      </trkpt>
      <trkpt lat="43.74387" lon="1.64191">
        <ele>169.911388</ele>
        <time>2026-08-28T17:13:44Z</time>
      </trkpt>
      <trkpt lat="43.74391" lon="1.64188">
        <ele>169.946948</ele>
        <time>2026-08-28T17:13:45Z</time>
      </trkpt>
      <trkpt lat="43.74395" lon="1.64186">
        <ele>169.984064</ele>
        <time>2026-08-28T17:13:46Z</time>
      </trkpt>
      <trkpt lat="43.74399" lon="1.64183">
        <ele>170.020687</ele>
        <time>2026-08-28T17:13:47Z</time>
      </trkpt>
      <trkpt lat="43.74402" lon="1.64181">
        <ele>170.008544</ele>
        <time>2026-08-28T17:13:48Z</time>
      </trkpt>
      <trkpt lat="43.74406" lon="1.64178">
        <ele>169.991892</ele>
        <time>2026-08-28T17:13:49Z</time>
      </trkpt>
      <trkpt lat="43.74409" lon="1.64176">
        <ele>169.975615</ele>
        <time>2026-08-28T17:13:50Z</time>
      </trkpt>
      <trkpt lat="43.74413" lon="1.64174">
        <ele>169.960099</ele>
        <time>2026-08-28T17:13:51Z</time>
      </trkpt>
      <trkpt lat="43.74416" lon="1.64172">
        <ele>169.944834</ele>
        <time>2026-08-28T17:13:52Z</time>
      </trkpt>
      <trkpt lat="43.74419" lon="1.64169">
        <ele>169.930542</ele>
        <time>2026-08-28T17:13:53Z</time>
      </trkpt>
      <trkpt lat="43.74422" lon="1.64167">
        <ele>169.916413</ele>
        <time>2026-08-28T17:13:54Z</time>
      </trkpt>
      <trkpt lat="43.74426" lon="1.64165">
        <ele>169.901133</ele>
        <time>2026-08-28T17:13:55Z</time>
      </trkpt>
      <trkpt lat="43.74429" lon="1.64163">
        <ele>169.88612</ele>
        <time>2026-08-28T17:13:56Z</time>
      </trkpt>
      <trkpt lat="43.74432" lon="1.64161">
        <ele>169.871488</ele>
        <time>2026-08-28T17:13:57Z</time>
      </trkpt>
      <trkpt lat="43.74436" lon="1.64159">
        <ele>169.855583</ele>
        <time>2026-08-28T17:13:58Z</time>
      </trkpt>
      <trkpt lat="43.74439" lon="1.64156">
        <ele>169.838791</ele>
        <time>2026-08-28T17:13:59Z</time>
      </trkpt>
      <trkpt lat="43.74442" lon="1.64153">
        <ele>169.823114</ele>
        <time>2026-08-28T17:14:00Z</time>
      </trkpt>
      <trkpt lat="43.74446" lon="1.64151">
        <ele>169.806833</ele>
        <time>2026-08-28T17:14:01Z</time>
      </trkpt>
      <trkpt lat="43.74449" lon="1.64149">
        <ele>169.790553</ele>
        <time>2026-08-28T17:14:02Z</time>
      </trkpt>
      <trkpt lat="43.74453" lon="1.64147">
        <ele>169.774106</ele>
        <time>2026-08-28T17:14:03Z</time>
      </trkpt>
      <trkpt lat="43.74457" lon="1.64145">
        <ele>169.757324</ele>
        <time>2026-08-28T17:14:04Z</time>
      </trkpt>
      <trkpt lat="43.7446" lon="1.64143">
        <ele>169.740543</ele>
        <time>2026-08-28T17:14:05Z</time>
      </trkpt>
      <trkpt lat="43.74464" lon="1.6414">
        <ele>169.722093</ele>
        <time>2026-08-28T17:14:06Z</time>
      </trkpt>
      <trkpt lat="43.74469" lon="1.64137">
        <ele>169.702025</ele>
        <time>2026-08-28T17:14:07Z</time>
      </trkpt>
      <trkpt lat="43.74473" lon="1.64134">
        <ele>169.68168</ele>
        <time>2026-08-28T17:14:08Z</time>
      </trkpt>
      <trkpt lat="43.74477" lon="1.6413">
        <ele>169.660737</ele>
        <time>2026-08-28T17:14:09Z</time>
      </trkpt>
      <trkpt lat="43.74482" lon="1.64127">
        <ele>169.637986</ele>
        <time>2026-08-28T17:14:10Z</time>
      </trkpt>
      <trkpt lat="43.74487" lon="1.64123">
        <ele>169.614725</ele>
        <time>2026-08-28T17:14:11Z</time>
      </trkpt>
      <trkpt lat="43.74492" lon="1.64119">
        <ele>169.591681</ele>
        <time>2026-08-28T17:14:12Z</time>
      </trkpt>
      <trkpt lat="43.74496" lon="1.64116">
        <ele>169.569853</ele>
        <time>2026-08-28T17:14:13Z</time>
      </trkpt>
      <trkpt lat="43.74502" lon="1.64114">
        <ele>169.546705</ele>
        <time>2026-08-28T17:14:14Z</time>
      </trkpt>
      <trkpt lat="43.74507" lon="1.64112">
        <ele>169.523691</ele>
        <time>2026-08-28T17:14:15Z</time>
      </trkpt>
      <trkpt lat="43.74513" lon="1.64112">
        <ele>169.500611</ele>
        <time>2026-08-28T17:14:16Z</time>
      </trkpt>
      <trkpt lat="43.74518" lon="1.6411">
        <ele>169.476485</ele>
        <time>2026-08-28T17:14:17Z</time>
      </trkpt>
      <trkpt lat="43.74525" lon="1.64109">
        <ele>169.450666</ele>
        <time>2026-08-28T17:14:18Z</time>
      </trkpt>
      <trkpt lat="43.74531" lon="1.64108">
        <ele>169.424239</ele>
        <time>2026-08-28T17:14:19Z</time>
      </trkpt>
      <trkpt lat="43.74537" lon="1.64107">
        <ele>169.398315</ele>
        <time>2026-08-28T17:14:20Z</time>
      </trkpt>
      <trkpt lat="43.74543" lon="1.64106">
        <ele>169.372391</ele>
        <time>2026-08-28T17:14:21Z</time>
      </trkpt>
      <trkpt lat="43.74549" lon="1.64105">
        <ele>169.347686</ele>
        <time>2026-08-28T17:14:22Z</time>
      </trkpt>
      <trkpt lat="43.74555" lon="1.64105">
        <ele>169.324694</ele>
        <time>2026-08-28T17:14:23Z</time>
      </trkpt>
      <trkpt lat="43.7456" lon="1.64105">
        <ele>169.304264</ele>
        <time>2026-08-28T17:14:24Z</time>
      </trkpt>
      <trkpt lat="43.74564" lon="1.64106">
        <ele>169.285035</ele>
        <time>2026-08-28T17:14:25Z</time>
      </trkpt>
      <trkpt lat="43.74568" lon="1.64107">
        <ele>169.275546</ele>
        <time>2026-08-28T17:14:26Z</time>
      </trkpt>
      <trkpt lat="43.74572" lon="1.64108">
        <ele>169.27966</ele>
        <time>2026-08-28T17:14:27Z</time>
      </trkpt>
      <trkpt lat="43.74575" lon="1.6411">
        <ele>169.284024</ele>
        <time>2026-08-28T17:14:28Z</time>
      </trkpt>
      <trkpt lat="43.74579" lon="1.64112">
        <ele>169.288322</ele>
        <time>2026-08-28T17:14:29Z</time>
      </trkpt>
      <trkpt lat="43.74582" lon="1.64115">
        <ele>169.292554</ele>
        <time>2026-08-28T17:14:30Z</time>
      </trkpt>
      <trkpt lat="43.74585" lon="1.64117">
        <ele>169.297063</ele>
        <time>2026-08-28T17:14:31Z</time>
      </trkpt>
      <trkpt lat="43.74589" lon="1.6412">
        <ele>169.301434</ele>
        <time>2026-08-28T17:14:32Z</time>
      </trkpt>
      <trkpt lat="43.74592" lon="1.64122">
        <ele>169.305868</ele>
        <time>2026-08-28T17:14:33Z</time>
      </trkpt>
      <trkpt lat="43.74596" lon="1.64126">
        <ele>169.310489</ele>
        <time>2026-08-28T17:14:34Z</time>
      </trkpt>
      <trkpt lat="43.74599" lon="1.64129">
        <ele>169.315066</ele>
        <time>2026-08-28T17:14:35Z</time>
      </trkpt>
      <trkpt lat="43.74602" lon="1.64131">
        <ele>169.319364</ele>
        <time>2026-08-28T17:14:36Z</time>
      </trkpt>
      <trkpt lat="43.74606" lon="1.64134">
        <ele>169.323773</ele>
        <time>2026-08-28T17:14:37Z</time>
      </trkpt>
      <trkpt lat="43.74609" lon="1.64137">
        <ele>169.328346</ele>
        <time>2026-08-28T17:14:38Z</time>
      </trkpt>
      <trkpt lat="43.74613" lon="1.64139">
        <ele>169.333333</ele>
        <time>2026-08-28T17:14:39Z</time>
      </trkpt>
      <trkpt lat="43.74617" lon="1.64143">
        <ele>169.338717</ele>
        <time>2026-08-28T17:14:40Z</time>
      </trkpt>
      <trkpt lat="43.74621" lon="1.64146">
        <ele>169.34424</ele>
        <time>2026-08-28T17:14:41Z</time>
      </trkpt>
      <trkpt lat="43.74626" lon="1.64149">
        <ele>169.350116</ele>
        <time>2026-08-28T17:14:42Z</time>
      </trkpt>
      <trkpt lat="43.74631" lon="1.64152">
        <ele>169.35627</ele>
        <time>2026-08-28T17:14:43Z</time>
      </trkpt>
      <trkpt lat="43.74636" lon="1.64154">
        <ele>169.362198</ele>
        <time>2026-08-28T17:14:44Z</time>
      </trkpt>
      <trkpt lat="43.74641" lon="1.64157">
        <ele>169.368238</ele>
        <time>2026-08-28T17:14:45Z</time>
      </trkpt>
      <trkpt lat="43.74646" lon="1.64159">
        <ele>169.374167</ele>
        <time>2026-08-28T17:14:46Z</time>
      </trkpt>
      <trkpt lat="43.74651" lon="1.64162">
        <ele>169.38029</ele>
        <time>2026-08-28T17:14:47Z</time>
      </trkpt>
      <trkpt lat="43.74656" lon="1.64164">
        <ele>169.386006</ele>
        <time>2026-08-28T17:14:48Z</time>
      </trkpt>
      <trkpt lat="43.7466" lon="1.64167">
        <ele>169.39161</ele>
        <time>2026-08-28T17:14:49Z</time>
      </trkpt>
      <trkpt lat="43.74665" lon="1.6417">
        <ele>169.397178</ele>
        <time>2026-08-28T17:14:50Z</time>
      </trkpt>
      <trkpt lat="43.74669" lon="1.64174">
        <ele>169.402786</ele>
        <time>2026-08-28T17:14:51Z</time>
      </trkpt>
      <trkpt lat="43.74673" lon="1.64178">
        <ele>169.408345</ele>
        <time>2026-08-28T17:14:52Z</time>
      </trkpt>
      <trkpt lat="43.74676" lon="1.64183">
        <ele>169.413824</ele>
        <time>2026-08-28T17:14:53Z</time>
      </trkpt>
      <trkpt lat="43.74679" lon="1.64188">
        <ele>169.419318</ele>
        <time>2026-08-28T17:14:54Z</time>
      </trkpt>
      <trkpt lat="43.74682" lon="1.64193">
        <ele>169.424586</ele>
        <time>2026-08-28T17:14:55Z</time>
      </trkpt>
      <trkpt lat="43.74685" lon="1.64197">
        <ele>169.429581</ele>
        <time>2026-08-28T17:14:56Z</time>
      </trkpt>
      <trkpt lat="43.74688" lon="1.64202">
        <ele>169.434622</ele>
        <time>2026-08-28T17:14:57Z</time>
      </trkpt>
      <trkpt lat="43.74692" lon="1.64207">
        <ele>169.440313</ele>
        <time>2026-08-28T17:14:58Z</time>
      </trkpt>
      <trkpt lat="43.74695" lon="1.64212">
        <ele>169.445928</ele>
        <time>2026-08-28T17:14:59Z</time>
      </trkpt>
      <trkpt lat="43.74698" lon="1.64217">
        <ele>169.45168</ele>
        <time>2026-08-28T17:15:00Z</time>
      </trkpt>
      <trkpt lat="43.74702" lon="1.64222">
        <ele>169.457219</ele>
        <time>2026-08-28T17:15:01Z</time>
      </trkpt>
      <trkpt lat="43.74705" lon="1.64227">
        <ele>169.462623</ele>
        <time>2026-08-28T17:15:02Z</time>
      </trkpt>
      <trkpt lat="43.74708" lon="1.64232">
        <ele>169.468254</ele>
        <time>2026-08-28T17:15:03Z</time>
      </trkpt>
      <trkpt lat="43.74712" lon="1.64237">
        <ele>169.473872</ele>
        <time>2026-08-28T17:15:04Z</time>
      </trkpt>
      <trkpt lat="43.74716" lon="1.64242">
        <ele>169.480122</ele>
        <time>2026-08-28T17:15:05Z</time>
      </trkpt>
      <trkpt lat="43.7472" lon="1.64245">
        <ele>169.487437</ele>
        <time>2026-08-28T17:15:06Z</time>
      </trkpt>
      <trkpt lat="43.74724" lon="1.64249">
        <ele>169.49423</ele>
        <time>2026-08-28T17:15:07Z</time>
      </trkpt>
      <trkpt lat="43.74728" lon="1.64251">
        <ele>169.500862</ele>
        <time>2026-08-28T17:15:08Z</time>
      </trkpt>
      <trkpt lat="43.74732" lon="1.64254">
        <ele>169.507405</ele>
        <time>2026-08-28T17:15:09Z</time>
      </trkpt>
      <trkpt lat="43.74736" lon="1.64256">
        <ele>169.514087</ele>
        <time>2026-08-28T17:15:10Z</time>
      </trkpt>
      <trkpt lat="43.7474" lon="1.64258">
        <ele>169.520618</ele>
        <time>2026-08-28T17:15:11Z</time>
      </trkpt>
      <trkpt lat="43.74745" lon="1.6426">
        <ele>169.527395</ele>
        <time>2026-08-28T17:15:12Z</time>
      </trkpt>
      <trkpt lat="43.74749" lon="1.64262">
        <ele>169.533686</ele>
        <time>2026-08-28T17:15:13Z</time>
      </trkpt>
      <trkpt lat="43.74753" lon="1.64265">
        <ele>169.540565</ele>
        <time>2026-08-28T17:15:14Z</time>
      </trkpt>
      <trkpt lat="43.74757" lon="1.64267">
        <ele>169.546718</ele>
        <time>2026-08-28T17:15:15Z</time>
      </trkpt>
      <trkpt lat="43.74761" lon="1.64269">
        <ele>169.552834</ele>
        <time>2026-08-28T17:15:16Z</time>
      </trkpt>
      <trkpt lat="43.74765" lon="1.64271">
        <ele>169.558976</ele>
        <time>2026-08-28T17:15:17Z</time>
      </trkpt>
      <trkpt lat="43.74768" lon="1.64274">
        <ele>169.564719</ele>
        <time>2026-08-28T17:15:18Z</time>
      </trkpt>
      <trkpt lat="43.7477" lon="1.64278">
        <ele>169.570435</ele>
        <time>2026-08-28T17:15:19Z</time>
      </trkpt>
      <trkpt lat="43.74773" lon="1.64282">
        <ele>169.575701</ele>
        <time>2026-08-28T17:15:20Z</time>
      </trkpt>
      <trkpt lat="43.74774" lon="1.64286">
        <ele>169.581028</ele>
        <time>2026-08-28T17:15:21Z</time>
      </trkpt>
      <trkpt lat="43.74775" lon="1.64291">
        <ele>169.586193</ele>
        <time>2026-08-28T17:15:22Z</time>
      </trkpt>
      <trkpt lat="43.74775" lon="1.64296">
        <ele>169.59108</ele>
        <time>2026-08-28T17:15:23Z</time>
      </trkpt>
      <trkpt lat="43.74775" lon="1.643">
        <ele>169.596149</ele>
        <time>2026-08-28T17:15:24Z</time>
      </trkpt>
      <trkpt lat="43.74773" lon="1.64305">
        <ele>169.601499</ele>
        <time>2026-08-28T17:15:25Z</time>
      </trkpt>
      <trkpt lat="43.74772" lon="1.6431">
        <ele>169.606899</ele>
        <time>2026-08-28T17:15:26Z</time>
      </trkpt>
      <trkpt lat="43.7477" lon="1.64314">
        <ele>169.612227</ele>
        <time>2026-08-28T17:15:27Z</time>
      </trkpt>
      <trkpt lat="43.74769" lon="1.64319">
        <ele>169.617598</ele>
        <time>2026-08-28T17:15:28Z</time>
      </trkpt>
      <trkpt lat="43.74767" lon="1.64324">
        <ele>169.623117</ele>
        <time>2026-08-28T17:15:29Z</time>
      </trkpt>
      <trkpt lat="43.74766" lon="1.64328">
        <ele>169.628517</ele>
        <time>2026-08-28T17:15:30Z</time>
      </trkpt>
      <trkpt lat="43.74764" lon="1.64333">
        <ele>169.633624</ele>
        <time>2026-08-28T17:15:31Z</time>
      </trkpt>
      <trkpt lat="43.74763" lon="1.64338">
        <ele>169.639201</ele>
        <time>2026-08-28T17:15:32Z</time>
      </trkpt>
      <trkpt lat="43.74763" lon="1.64343">
        <ele>169.644742</ele>
        <time>2026-08-28T17:15:33Z</time>
      </trkpt>
      <trkpt lat="43.74764" lon="1.64348">
        <ele>169.650315</ele>
        <time>2026-08-28T17:15:34Z</time>
      </trkpt>
      <trkpt lat="43.74764" lon="1.64353">
        <ele>169.655891</ele>
        <time>2026-08-28T17:15:35Z</time>
      </trkpt>
      <trkpt lat="43.74766" lon="1.64358">
        <ele>169.661488</ele>
        <time>2026-08-28T17:15:36Z</time>
      </trkpt>
      <trkpt lat="43.74767" lon="1.64364">
        <ele>169.667783</ele>
        <time>2026-08-28T17:15:37Z</time>
      </trkpt>
      <trkpt lat="43.74769" lon="1.64369">
        <ele>169.674137</ele>
        <time>2026-08-28T17:15:38Z</time>
      </trkpt>
      <trkpt lat="43.7477" lon="1.64375">
        <ele>169.680482</ele>
        <time>2026-08-28T17:15:39Z</time>
      </trkpt>
      <trkpt lat="43.74772" lon="1.6438">
        <ele>169.686627</ele>
        <time>2026-08-28T17:15:40Z</time>
      </trkpt>
      <trkpt lat="43.74773" lon="1.64386">
        <ele>169.693178</ele>
        <time>2026-08-28T17:15:41Z</time>
      </trkpt>
      <trkpt lat="43.74775" lon="1.64392">
        <ele>169.699826</ele>
        <time>2026-08-28T17:15:42Z</time>
      </trkpt>
      <trkpt lat="43.74777" lon="1.64397">
        <ele>169.706083</ele>
        <time>2026-08-28T17:15:43Z</time>
      </trkpt>
      <trkpt lat="43.74778" lon="1.64403">
        <ele>169.712382</ele>
        <time>2026-08-28T17:15:44Z</time>
      </trkpt>
      <trkpt lat="43.7478" lon="1.64408">
        <ele>169.718576</ele>
        <time>2026-08-28T17:15:45Z</time>
      </trkpt>
      <trkpt lat="43.74781" lon="1.64414">
        <ele>169.725171</ele>
        <time>2026-08-28T17:15:46Z</time>
      </trkpt>
      <trkpt lat="43.74783" lon="1.64419">
        <ele>169.731217</ele>
        <time>2026-08-28T17:15:47Z</time>
      </trkpt>
      <trkpt lat="43.74784" lon="1.64425">
        <ele>169.737412</ele>
        <time>2026-08-28T17:15:48Z</time>
      </trkpt>
      <trkpt lat="43.74786" lon="1.6443">
        <ele>169.717524</ele>
        <time>2026-08-28T17:15:49Z</time>
      </trkpt>
      <trkpt lat="43.74787" lon="1.64436">
        <ele>169.561353</ele>
        <time>2026-08-28T17:15:50Z</time>
      </trkpt>
      <trkpt lat="43.74789" lon="1.64441">
        <ele>169.394769</ele>
        <time>2026-08-28T17:15:51Z</time>
      </trkpt>
      <trkpt lat="43.7479" lon="1.64447">
        <ele>169.221605</ele>
        <time>2026-08-28T17:15:52Z</time>
      </trkpt>
      <trkpt lat="43.74791" lon="1.64453">
        <ele>169.042487</ele>
        <time>2026-08-28T17:15:53Z</time>
      </trkpt>
      <trkpt lat="43.74791" lon="1.6446">
        <ele>168.852472</ele>
        <time>2026-08-28T17:15:54Z</time>
      </trkpt>
      <trkpt lat="43.74791" lon="1.64467">
        <ele>168.656281</ele>
        <time>2026-08-28T17:15:55Z</time>
      </trkpt>
      <trkpt lat="43.74789" lon="1.64474">
        <ele>168.442924</ele>
        <time>2026-08-28T17:15:56Z</time>
      </trkpt>
      <trkpt lat="43.74788" lon="1.64482">
        <ele>168.226342</ele>
        <time>2026-08-28T17:15:57Z</time>
      </trkpt>
      <trkpt lat="43.74786" lon="1.64489">
        <ele>168.007297</ele>
        <time>2026-08-28T17:15:58Z</time>
      </trkpt>
      <trkpt lat="43.74783" lon="1.64497">
        <ele>167.776068</ele>
        <time>2026-08-28T17:15:59Z</time>
      </trkpt>
      <trkpt lat="43.7478" lon="1.64504">
        <ele>167.533869</ele>
        <time>2026-08-28T17:16:00Z</time>
      </trkpt>
      <trkpt lat="43.74778" lon="1.64513">
        <ele>167.273843</ele>
        <time>2026-08-28T17:16:01Z</time>
      </trkpt>
      <trkpt lat="43.74775" lon="1.64522">
        <ele>166.998305</ele>
        <time>2026-08-28T17:16:02Z</time>
      </trkpt>
      <trkpt lat="43.74773" lon="1.64531">
        <ele>166.725485</ele>
        <time>2026-08-28T17:16:03Z</time>
      </trkpt>
      <trkpt lat="43.74771" lon="1.64542">
        <ele>166.432626</ele>
        <time>2026-08-28T17:16:04Z</time>
      </trkpt>
      <trkpt lat="43.74768" lon="1.64552">
        <ele>166.112465</ele>
        <time>2026-08-28T17:16:05Z</time>
      </trkpt>
      <trkpt lat="43.74764" lon="1.64563">
        <ele>165.782412</ele>
        <time>2026-08-28T17:16:06Z</time>
      </trkpt>
      <trkpt lat="43.7476" lon="1.64574">
        <ele>165.433133</ele>
        <time>2026-08-28T17:16:07Z</time>
      </trkpt>
      <trkpt lat="43.74756" lon="1.64584">
        <ele>165.119004</ele>
        <time>2026-08-28T17:16:08Z</time>
      </trkpt>
      <trkpt lat="43.74751" lon="1.64595">
        <ele>164.748046</ele>
        <time>2026-08-28T17:16:09Z</time>
      </trkpt>
      <trkpt lat="43.74748" lon="1.64606">
        <ele>164.409611</ele>
        <time>2026-08-28T17:16:10Z</time>
      </trkpt>
      <trkpt lat="43.74744" lon="1.64618">
        <ele>164.040999</ele>
        <time>2026-08-28T17:16:11Z</time>
      </trkpt>
      <trkpt lat="43.74741" lon="1.64631">
        <ele>163.673313</ele>
        <time>2026-08-28T17:16:12Z</time>
      </trkpt>
      <trkpt lat="43.74739" lon="1.64645">
        <ele>163.277232</ele>
        <time>2026-08-28T17:16:13Z</time>
      </trkpt>
      <trkpt lat="43.74737" lon="1.64659">
        <ele>162.886771</ele>
        <time>2026-08-28T17:16:14Z</time>
      </trkpt>
      <trkpt lat="43.74734" lon="1.64673">
        <ele>162.487673</ele>
        <time>2026-08-28T17:16:15Z</time>
      </trkpt>
      <trkpt lat="43.74731" lon="1.64687">
        <ele>162.092498</ele>
        <time>2026-08-28T17:16:16Z</time>
      </trkpt>
      <trkpt lat="43.74726" lon="1.647">
        <ele>161.715185</ele>
        <time>2026-08-28T17:16:17Z</time>
      </trkpt>
      <trkpt lat="43.74722" lon="1.64713">
        <ele>161.348898</ele>
        <time>2026-08-28T17:16:18Z</time>
      </trkpt>
      <trkpt lat="43.74718" lon="1.64725">
        <ele>160.983475</ele>
        <time>2026-08-28T17:16:19Z</time>
      </trkpt>
      <trkpt lat="43.74715" lon="1.64737">
        <ele>160.645875</ele>
        <time>2026-08-28T17:16:20Z</time>
      </trkpt>
      <trkpt lat="43.74711" lon="1.64748">
        <ele>160.325081</ele>
        <time>2026-08-28T17:16:21Z</time>
      </trkpt>
      <trkpt lat="43.74707" lon="1.64758">
        <ele>160.016845</ele>
        <time>2026-08-28T17:16:22Z</time>
      </trkpt>
      <trkpt lat="43.74702" lon="1.64768">
        <ele>159.704847</ele>
        <time>2026-08-28T17:16:23Z</time>
      </trkpt>
      <trkpt lat="43.74698" lon="1.64777">
        <ele>159.411889</ele>
        <time>2026-08-28T17:16:24Z</time>
      </trkpt>
      <trkpt lat="43.74694" lon="1.64786">
        <ele>159.123948</ele>
        <time>2026-08-28T17:16:25Z</time>
      </trkpt>
      <trkpt lat="43.74689" lon="1.64795">
        <ele>158.84676</ele>
        <time>2026-08-28T17:16:26Z</time>
      </trkpt>
      <trkpt lat="43.74685" lon="1.64803">
        <ele>158.580328</ele>
        <time>2026-08-28T17:16:27Z</time>
      </trkpt>
      <trkpt lat="43.74681" lon="1.64811">
        <ele>158.321816</ele>
        <time>2026-08-28T17:16:28Z</time>
      </trkpt>
      <trkpt lat="43.74678" lon="1.6482">
        <ele>158.06231</ele>
        <time>2026-08-28T17:16:29Z</time>
      </trkpt>
      <trkpt lat="43.74676" lon="1.64829">
        <ele>157.796741</ele>
        <time>2026-08-28T17:16:30Z</time>
      </trkpt>
      <trkpt lat="43.74674" lon="1.64839">
        <ele>157.527848</ele>
        <time>2026-08-28T17:16:31Z</time>
      </trkpt>
      <trkpt lat="43.74673" lon="1.64849">
        <ele>157.26826</ele>
        <time>2026-08-28T17:16:32Z</time>
      </trkpt>
      <trkpt lat="43.74671" lon="1.64859">
        <ele>157.002395</ele>
        <time>2026-08-28T17:16:33Z</time>
      </trkpt>
      <trkpt lat="43.74668" lon="1.64867">
        <ele>156.747522</ele>
        <time>2026-08-28T17:16:34Z</time>
      </trkpt>
      <trkpt lat="43.74664" lon="1.64876">
        <ele>156.491261</ele>
        <time>2026-08-28T17:16:35Z</time>
      </trkpt>
      <trkpt lat="43.7466" lon="1.64883">
        <ele>156.237642</ele>
        <time>2026-08-28T17:16:36Z</time>
      </trkpt>
      <trkpt lat="43.74656" lon="1.64891">
        <ele>156.159162</ele>
        <time>2026-08-28T17:16:37Z</time>
      </trkpt>
      <trkpt lat="43.74651" lon="1.64898">
        <ele>156.111668</ele>
        <time>2026-08-28T17:16:38Z</time>
      </trkpt>
      <trkpt lat="43.74646" lon="1.64905">
        <ele>156.065581</ele>
        <time>2026-08-28T17:16:39Z</time>
      </trkpt>
      <trkpt lat="43.74642" lon="1.64912">
        <ele>156.018796</ele>
        <time>2026-08-28T17:16:40Z</time>
      </trkpt>
      <trkpt lat="43.74637" lon="1.64918">
        <ele>155.972566</ele>
        <time>2026-08-28T17:16:41Z</time>
      </trkpt>
      <trkpt lat="43.74633" lon="1.64925">
        <ele>155.93027</ele>
        <time>2026-08-28T17:16:42Z</time>
      </trkpt>
      <trkpt lat="43.74628" lon="1.64931">
        <ele>155.886215</ele>
        <time>2026-08-28T17:16:43Z</time>
      </trkpt>
      <trkpt lat="43.74623" lon="1.64936">
        <ele>155.845646</ele>
        <time>2026-08-28T17:16:44Z</time>
      </trkpt>
      <trkpt lat="43.74619" lon="1.64941">
        <ele>155.804753</ele>
        <time>2026-08-28T17:16:45Z</time>
      </trkpt>
      <trkpt lat="43.74615" lon="1.64947">
        <ele>155.767709</ele>
        <time>2026-08-28T17:16:46Z</time>
      </trkpt>
      <trkpt lat="43.74611" lon="1.64952">
        <ele>155.729783</ele>
        <time>2026-08-28T17:16:47Z</time>
      </trkpt>
      <trkpt lat="43.74607" lon="1.64957">
        <ele>155.694042</ele>
        <time>2026-08-28T17:16:48Z</time>
      </trkpt>
      <trkpt lat="43.74603" lon="1.64962">
        <ele>155.657496</ele>
        <time>2026-08-28T17:16:49Z</time>
      </trkpt>
      <trkpt lat="43.74599" lon="1.64967">
        <ele>155.619616</ele>
        <time>2026-08-28T17:16:50Z</time>
      </trkpt>
      <trkpt lat="43.74595" lon="1.64972">
        <ele>155.58273</ele>
        <time>2026-08-28T17:16:51Z</time>
      </trkpt>
      <trkpt lat="43.74591" lon="1.64977">
        <ele>155.547353</ele>
        <time>2026-08-28T17:16:52Z</time>
      </trkpt>
      <trkpt lat="43.74588" lon="1.64982">
        <ele>155.512961</ele>
        <time>2026-08-28T17:16:53Z</time>
      </trkpt>
      <trkpt lat="43.74584" lon="1.64987">
        <ele>155.480575</ele>
        <time>2026-08-28T17:16:54Z</time>
      </trkpt>
      <trkpt lat="43.74581" lon="1.64991">
        <ele>155.448185</ele>
        <time>2026-08-28T17:16:55Z</time>
      </trkpt>
      <trkpt lat="43.74577" lon="1.64995">
        <ele>155.419256</ele>
        <time>2026-08-28T17:16:56Z</time>
      </trkpt>
      <trkpt lat="43.74575" lon="1.64998">
        <ele>155.394892</ele>
        <time>2026-08-28T17:16:57Z</time>
      </trkpt>
      <trkpt lat="43.74573" lon="1.65001">
        <ele>155.375368</ele>
        <time>2026-08-28T17:16:58Z</time>
      </trkpt>
      <trkpt lat="43.74571" lon="1.65003">
        <ele>155.359175</ele>
        <time>2026-08-28T17:16:59Z</time>
      </trkpt>
      <trkpt lat="43.7457" lon="1.65005">
        <ele>155.343926</ele>
        <time>2026-08-28T17:17:00Z</time>
      </trkpt>
      <trkpt lat="43.74568" lon="1.65008">
        <ele>155.326358</ele>
        <time>2026-08-28T17:17:01Z</time>
      </trkpt>
      <trkpt lat="43.74567" lon="1.65012">
        <ele>155.305933</ele>
        <time>2026-08-28T17:17:02Z</time>
      </trkpt>
      <trkpt lat="43.74567" lon="1.65017">
        <ele>155.282764</ele>
        <time>2026-08-28T17:17:03Z</time>
      </trkpt>
      <trkpt lat="43.74569" lon="1.65022">
        <ele>155.25522</ele>
        <time>2026-08-28T17:17:04Z</time>
      </trkpt>
      <trkpt lat="43.7457" lon="1.65028">
        <ele>155.224108</ele>
        <time>2026-08-28T17:17:05Z</time>
      </trkpt>
      <trkpt lat="43.74572" lon="1.65035">
        <ele>155.189852</ele>
        <time>2026-08-28T17:17:06Z</time>
      </trkpt>
      <trkpt lat="43.74573" lon="1.65042">
        <ele>155.15375</ele>
        <time>2026-08-28T17:17:07Z</time>
      </trkpt>
      <trkpt lat="43.74576" lon="1.65048">
        <ele>155.117358</ele>
        <time>2026-08-28T17:17:08Z</time>
      </trkpt>
      <trkpt lat="43.74578" lon="1.65056">
        <ele>155.078477</ele>
        <time>2026-08-28T17:17:09Z</time>
      </trkpt>
      <trkpt lat="43.74579" lon="1.65064">
        <ele>155.037912</ele>
        <time>2026-08-28T17:17:10Z</time>
      </trkpt>
      <trkpt lat="43.7458" lon="1.65072">
        <ele>154.997222</ele>
        <time>2026-08-28T17:17:11Z</time>
      </trkpt>
      <trkpt lat="43.74582" lon="1.6508">
        <ele>154.897292</ele>
        <time>2026-08-28T17:17:12Z</time>
      </trkpt>
      <trkpt lat="43.74585" lon="1.65089">
        <ele>154.719248</ele>
        <time>2026-08-28T17:17:13Z</time>
      </trkpt>
      <trkpt lat="43.74588" lon="1.65097">
        <ele>154.532211</ele>
        <time>2026-08-28T17:17:14Z</time>
      </trkpt>
      <trkpt lat="43.7459" lon="1.65106">
        <ele>154.343367</ele>
        <time>2026-08-28T17:17:15Z</time>
      </trkpt>
      <trkpt lat="43.74593" lon="1.65116">
        <ele>154.148094</ele>
        <time>2026-08-28T17:17:16Z</time>
      </trkpt>
      <trkpt lat="43.74596" lon="1.65125">
        <ele>153.950315</ele>
        <time>2026-08-28T17:17:17Z</time>
      </trkpt>
      <trkpt lat="43.74599" lon="1.65134">
        <ele>153.761872</ele>
        <time>2026-08-28T17:17:18Z</time>
      </trkpt>
      <trkpt lat="43.74602" lon="1.65143">
        <ele>153.57201</ele>
        <time>2026-08-28T17:17:19Z</time>
      </trkpt>
      <trkpt lat="43.74604" lon="1.65152">
        <ele>153.375792</ele>
        <time>2026-08-28T17:17:20Z</time>
      </trkpt>
      <trkpt lat="43.74607" lon="1.65162">
        <ele>153.175896</ele>
        <time>2026-08-28T17:17:21Z</time>
      </trkpt>
      <trkpt lat="43.7461" lon="1.65171">
        <ele>152.980465</ele>
        <time>2026-08-28T17:17:22Z</time>
      </trkpt>
      <trkpt lat="43.74613" lon="1.6518">
        <ele>152.778014</ele>
        <time>2026-08-28T17:17:23Z</time>
      </trkpt>
      <trkpt lat="43.74616" lon="1.6519">
        <ele>152.576697</ele>
        <time>2026-08-28T17:17:24Z</time>
      </trkpt>
      <trkpt lat="43.74619" lon="1.65199">
        <ele>152.373081</ele>
        <time>2026-08-28T17:17:25Z</time>
      </trkpt>
      <trkpt lat="43.74623" lon="1.65208">
        <ele>152.161891</ele>
        <time>2026-08-28T17:17:26Z</time>
      </trkpt>
      <trkpt lat="43.74627" lon="1.65218">
        <ele>151.947695</ele>
        <time>2026-08-28T17:17:27Z</time>
      </trkpt>
      <trkpt lat="43.7463" lon="1.65228">
        <ele>151.739395</ele>
        <time>2026-08-28T17:17:28Z</time>
      </trkpt>
      <trkpt lat="43.74634" lon="1.65237">
        <ele>151.526127</ele>
        <time>2026-08-28T17:17:29Z</time>
      </trkpt>
      <trkpt lat="43.74638" lon="1.65246">
        <ele>151.323032</ele>
        <time>2026-08-28T17:17:30Z</time>
      </trkpt>
      <trkpt lat="43.74642" lon="1.65255">
        <ele>151.119937</ele>
        <time>2026-08-28T17:17:31Z</time>
      </trkpt>
      <trkpt lat="43.74645" lon="1.65265">
        <ele>150.916495</ele>
        <time>2026-08-28T17:17:32Z</time>
      </trkpt>
      <trkpt lat="43.74649" lon="1.65273">
        <ele>150.718668</ele>
        <time>2026-08-28T17:17:33Z</time>
      </trkpt>
      <trkpt lat="43.74653" lon="1.65281">
        <ele>150.524284</ele>
        <time>2026-08-28T17:17:34Z</time>
      </trkpt>
      <trkpt lat="43.74658" lon="1.6529">
        <ele>150.325256</ele>
        <time>2026-08-28T17:17:35Z</time>
      </trkpt>
      <trkpt lat="43.74662" lon="1.65298">
        <ele>150.127751</ele>
        <time>2026-08-28T17:17:36Z</time>
      </trkpt>
      <trkpt lat="43.74666" lon="1.65307">
        <ele>150.007541</ele>
        <time>2026-08-28T17:17:37Z</time>
      </trkpt>
      <trkpt lat="43.7467" lon="1.65315">
        <ele>149.888428</ele>
        <time>2026-08-28T17:17:38Z</time>
      </trkpt>
      <trkpt lat="43.74674" lon="1.65323">
        <ele>149.770276</ele>
        <time>2026-08-28T17:17:39Z</time>
      </trkpt>
      <trkpt lat="43.74678" lon="1.65331">
        <ele>149.654011</ele>
        <time>2026-08-28T17:17:40Z</time>
      </trkpt>
      <trkpt lat="43.74683" lon="1.65339">
        <ele>149.537768</ele>
        <time>2026-08-28T17:17:41Z</time>
      </trkpt>
      <trkpt lat="43.74687" lon="1.65347">
        <ele>149.427242</ele>
        <time>2026-08-28T17:17:42Z</time>
      </trkpt>
      <trkpt lat="43.74691" lon="1.65354">
        <ele>149.314769</ele>
        <time>2026-08-28T17:17:43Z</time>
      </trkpt>
      <trkpt lat="43.74695" lon="1.65362">
        <ele>149.196517</ele>
        <time>2026-08-28T17:17:44Z</time>
      </trkpt>
      <trkpt lat="43.747" lon="1.6537">
        <ele>149.078164</ele>
        <time>2026-08-28T17:17:45Z</time>
      </trkpt>
      <trkpt lat="43.74705" lon="1.65378">
        <ele>148.95787</ele>
        <time>2026-08-28T17:17:46Z</time>
      </trkpt>
      <trkpt lat="43.74709" lon="1.65385">
        <ele>148.845071</ele>
        <time>2026-08-28T17:17:47Z</time>
      </trkpt>
      <trkpt lat="43.74714" lon="1.65392">
        <ele>148.72683</ele>
        <time>2026-08-28T17:17:48Z</time>
      </trkpt>
      <trkpt lat="43.74718" lon="1.654">
        <ele>148.616116</ele>
        <time>2026-08-28T17:17:49Z</time>
      </trkpt>
      <trkpt lat="43.74723" lon="1.65406">
        <ele>148.512907</ele>
        <time>2026-08-28T17:17:50Z</time>
      </trkpt>
      <trkpt lat="43.74727" lon="1.65413">
        <ele>148.401886</ele>
        <time>2026-08-28T17:17:51Z</time>
      </trkpt>
      <trkpt lat="43.74732" lon="1.65421">
        <ele>148.286726</ele>
        <time>2026-08-28T17:17:52Z</time>
      </trkpt>
      <trkpt lat="43.74737" lon="1.65427">
        <ele>148.178628</ele>
        <time>2026-08-28T17:17:53Z</time>
      </trkpt>
      <trkpt lat="43.74741" lon="1.65434">
        <ele>148.066878</ele>
        <time>2026-08-28T17:17:54Z</time>
      </trkpt>
      <trkpt lat="43.74746" lon="1.65441">
        <ele>147.955128</ele>
        <time>2026-08-28T17:17:55Z</time>
      </trkpt>
      <trkpt lat="43.74751" lon="1.65448">
        <ele>147.839914</ele>
        <time>2026-08-28T17:17:56Z</time>
      </trkpt>
      <trkpt lat="43.74756" lon="1.65454">
        <ele>147.72911</ele>
        <time>2026-08-28T17:17:57Z</time>
      </trkpt>
      <trkpt lat="43.74761" lon="1.65461">
        <ele>147.61432</ele>
        <time>2026-08-28T17:17:58Z</time>
      </trkpt>
      <trkpt lat="43.74767" lon="1.65467">
        <ele>147.498287</ele>
        <time>2026-08-28T17:17:59Z</time>
      </trkpt>
      <trkpt lat="43.74772" lon="1.65474">
        <ele>147.379509</ele>
        <time>2026-08-28T17:18:00Z</time>
      </trkpt>
      <trkpt lat="43.74777" lon="1.65481">
        <ele>147.26032</ele>
        <time>2026-08-28T17:18:01Z</time>
      </trkpt>
      <trkpt lat="43.74782" lon="1.65488">
        <ele>147.130049</ele>
        <time>2026-08-28T17:18:02Z</time>
      </trkpt>
      <trkpt lat="43.74788" lon="1.65494">
        <ele>146.984414</ele>
        <time>2026-08-28T17:18:03Z</time>
      </trkpt>
      <trkpt lat="43.74793" lon="1.65501">
        <ele>146.834929</ele>
        <time>2026-08-28T17:18:04Z</time>
      </trkpt>
      <trkpt lat="43.74799" lon="1.65506">
        <ele>146.688437</ele>
        <time>2026-08-28T17:18:05Z</time>
      </trkpt>
      <trkpt lat="43.74804" lon="1.65512">
        <ele>146.544392</ele>
        <time>2026-08-28T17:18:06Z</time>
      </trkpt>
      <trkpt lat="43.7481" lon="1.65518">
        <ele>146.397084</ele>
        <time>2026-08-28T17:18:07Z</time>
      </trkpt>
      <trkpt lat="43.74815" lon="1.65523">
        <ele>146.253193</ele>
        <time>2026-08-28T17:18:08Z</time>
      </trkpt>
      <trkpt lat="43.74821" lon="1.65529">
        <ele>146.110199</ele>
        <time>2026-08-28T17:18:09Z</time>
      </trkpt>
      <trkpt lat="43.74826" lon="1.65535">
        <ele>145.964483</ele>
        <time>2026-08-28T17:18:10Z</time>
      </trkpt>
      <trkpt lat="43.74832" lon="1.6554">
        <ele>145.82325</ele>
        <time>2026-08-28T17:18:11Z</time>
      </trkpt>
      <trkpt lat="43.74837" lon="1.65545">
        <ele>145.681142</ele>
        <time>2026-08-28T17:18:12Z</time>
      </trkpt>
      <trkpt lat="43.74843" lon="1.65551">
        <ele>145.535548</ele>
        <time>2026-08-28T17:18:13Z</time>
      </trkpt>
      <trkpt lat="43.74848" lon="1.65556">
        <ele>145.395949</ele>
        <time>2026-08-28T17:18:14Z</time>
      </trkpt>
      <trkpt lat="43.74854" lon="1.65562">
        <ele>145.25375</ele>
        <time>2026-08-28T17:18:15Z</time>
      </trkpt>
      <trkpt lat="43.74859" lon="1.65568">
        <ele>145.108034</ele>
        <time>2026-08-28T17:18:16Z</time>
      </trkpt>
      <trkpt lat="43.74864" lon="1.65574">
        <ele>144.958805</ele>
        <time>2026-08-28T17:18:17Z</time>
      </trkpt>
      <trkpt lat="43.7487" lon="1.65581">
        <ele>144.807993</ele>
        <time>2026-08-28T17:18:18Z</time>
      </trkpt>
      <trkpt lat="43.74875" lon="1.65587">
        <ele>144.659769</ele>
        <time>2026-08-28T17:18:19Z</time>
      </trkpt>
      <trkpt lat="43.74881" lon="1.65593">
        <ele>144.511242</ele>
        <time>2026-08-28T17:18:20Z</time>
      </trkpt>
      <trkpt lat="43.74886" lon="1.656">
        <ele>144.360999</ele>
        <time>2026-08-28T17:18:21Z</time>
      </trkpt>
      <trkpt lat="43.74891" lon="1.65606">
        <ele>144.213143</ele>
        <time>2026-08-28T17:18:22Z</time>
      </trkpt>
      <trkpt lat="43.74897" lon="1.65613">
        <ele>144.057152</ele>
        <time>2026-08-28T17:18:23Z</time>
      </trkpt>
      <trkpt lat="43.74903" lon="1.6562">
        <ele>143.895979</ele>
        <time>2026-08-28T17:18:24Z</time>
      </trkpt>
      <trkpt lat="43.74908" lon="1.65627">
        <ele>143.737487</ele>
        <time>2026-08-28T17:18:25Z</time>
      </trkpt>
      <trkpt lat="43.74914" lon="1.65633">
        <ele>143.585407</ele>
        <time>2026-08-28T17:18:26Z</time>
      </trkpt>
      <trkpt lat="43.7492" lon="1.6564">
        <ele>143.418421</ele>
        <time>2026-08-28T17:18:27Z</time>
      </trkpt>
      <trkpt lat="43.74926" lon="1.65647">
        <ele>143.149271</ele>
        <time>2026-08-28T17:18:28Z</time>
      </trkpt>
      <trkpt lat="43.74932" lon="1.65655">
        <ele>142.859625</ele>
        <time>2026-08-28T17:18:29Z</time>
      </trkpt>
      <trkpt lat="43.74938" lon="1.65663">
        <ele>142.570893</ele>
        <time>2026-08-28T17:18:30Z</time>
      </trkpt>
      <trkpt lat="43.74944" lon="1.6567">
        <ele>142.281248</ele>
        <time>2026-08-28T17:18:31Z</time>
      </trkpt>
      <trkpt lat="43.74951" lon="1.65677">
        <ele>141.990678</ele>
        <time>2026-08-28T17:18:32Z</time>
      </trkpt>
      <trkpt lat="43.74958" lon="1.65684">
        <ele>141.702645</ele>
        <time>2026-08-28T17:18:33Z</time>
      </trkpt>
      <trkpt lat="43.74964" lon="1.65692">
        <ele>141.415609</ele>
        <time>2026-08-28T17:18:34Z</time>
      </trkpt>
      <trkpt lat="43.7497" lon="1.65698">
        <ele>141.14279</ele>
        <time>2026-08-28T17:18:35Z</time>
      </trkpt>
      <trkpt lat="43.74976" lon="1.65705">
        <ele>140.866652</ele>
        <time>2026-08-28T17:18:36Z</time>
      </trkpt>
      <trkpt lat="43.74983" lon="1.65712">
        <ele>140.56687</ele>
        <time>2026-08-28T17:18:37Z</time>
      </trkpt>
      <trkpt lat="43.7499" lon="1.6572">
        <ele>140.260035</ele>
        <time>2026-08-28T17:18:38Z</time>
      </trkpt>
      <trkpt lat="43.74997" lon="1.65728">
        <ele>139.944155</ele>
        <time>2026-08-28T17:18:39Z</time>
      </trkpt>
      <trkpt lat="43.75004" lon="1.65736">
        <ele>139.614203</ele>
        <time>2026-08-28T17:18:40Z</time>
      </trkpt>
      <trkpt lat="43.75011" lon="1.65743">
        <ele>139.29321</ele>
        <time>2026-08-28T17:18:41Z</time>
      </trkpt>
      <trkpt lat="43.75019" lon="1.65751">
        <ele>138.978057</ele>
        <time>2026-08-28T17:18:42Z</time>
      </trkpt>
      <trkpt lat="43.75026" lon="1.65759">
        <ele>138.658289</ele>
        <time>2026-08-28T17:18:43Z</time>
      </trkpt>
      <trkpt lat="43.75033" lon="1.65766">
        <ele>138.331875</ele>
        <time>2026-08-28T17:18:44Z</time>
      </trkpt>
      <trkpt lat="43.75041" lon="1.65773">
        <ele>138.004028</ele>
        <time>2026-08-28T17:18:45Z</time>
      </trkpt>
      <trkpt lat="43.75049" lon="1.65781">
        <ele>137.680494</ele>
        <time>2026-08-28T17:18:46Z</time>
      </trkpt>
      <trkpt lat="43.75056" lon="1.65788">
        <ele>137.361221</ele>
        <time>2026-08-28T17:18:47Z</time>
      </trkpt>
      <trkpt lat="43.75064" lon="1.65795">
        <ele>137.050255</ele>
        <time>2026-08-28T17:18:48Z</time>
      </trkpt>
      <trkpt lat="43.75071" lon="1.65802">
        <ele>136.766854</ele>
        <time>2026-08-28T17:18:49Z</time>
      </trkpt>
      <trkpt lat="43.75079" lon="1.65809">
        <ele>136.479553</ele>
        <time>2026-08-28T17:18:50Z</time>
      </trkpt>
      <trkpt lat="43.75086" lon="1.65816">
        <ele>136.197308</ele>
        <time>2026-08-28T17:18:51Z</time>
      </trkpt>
      <trkpt lat="43.75094" lon="1.65823">
        <ele>135.917806</ele>
        <time>2026-08-28T17:18:52Z</time>
      </trkpt>
      <trkpt lat="43.751" lon="1.6583">
        <ele>135.642888</ele>
        <time>2026-08-28T17:18:53Z</time>
      </trkpt>
      <trkpt lat="43.75107" lon="1.65837">
        <ele>135.367137</ele>
        <time>2026-08-28T17:18:54Z</time>
      </trkpt>
      <trkpt lat="43.75114" lon="1.65844">
        <ele>135.099333</ele>
        <time>2026-08-28T17:18:55Z</time>
      </trkpt>
      <trkpt lat="43.75121" lon="1.65851">
        <ele>134.837814</ele>
        <time>2026-08-28T17:18:56Z</time>
      </trkpt>
      <trkpt lat="43.75128" lon="1.65857">
        <ele>134.573909</ele>
        <time>2026-08-28T17:18:57Z</time>
      </trkpt>
      <trkpt lat="43.75135" lon="1.65863">
        <ele>134.317694</ele>
        <time>2026-08-28T17:18:58Z</time>
      </trkpt>
      <trkpt lat="43.75141" lon="1.6587">
        <ele>134.071949</ele>
        <time>2026-08-28T17:18:59Z</time>
      </trkpt>
      <trkpt lat="43.75148" lon="1.65876">
        <ele>133.818452</ele>
        <time>2026-08-28T17:19:00Z</time>
      </trkpt>
      <trkpt lat="43.75154" lon="1.65882">
        <ele>133.562335</ele>
        <time>2026-08-28T17:19:01Z</time>
      </trkpt>
      <trkpt lat="43.75161" lon="1.65889">
        <ele>133.31402</ele>
        <time>2026-08-28T17:19:02Z</time>
      </trkpt>
      <trkpt lat="43.75167" lon="1.65895">
        <ele>133.069605</ele>
        <time>2026-08-28T17:19:03Z</time>
      </trkpt>
      <trkpt lat="43.75173" lon="1.65901">
        <ele>132.830368</ele>
        <time>2026-08-28T17:19:04Z</time>
      </trkpt>
      <trkpt lat="43.75179" lon="1.65907">
        <ele>132.592471</ele>
        <time>2026-08-28T17:19:05Z</time>
      </trkpt>
      <trkpt lat="43.75186" lon="1.65913">
        <ele>132.347923</ele>
        <time>2026-08-28T17:19:06Z</time>
      </trkpt>
      <trkpt lat="43.75192" lon="1.65919">
        <ele>132.103376</ele>
        <time>2026-08-28T17:19:07Z</time>
      </trkpt>
      <trkpt lat="43.75198" lon="1.65926">
        <ele>131.857631</ele>
        <time>2026-08-28T17:19:08Z</time>
      </trkpt>
      <trkpt lat="43.75204" lon="1.65933">
        <ele>131.609986</ele>
        <time>2026-08-28T17:19:09Z</time>
      </trkpt>
      <trkpt lat="43.7521" lon="1.65939">
        <ele>131.398967</ele>
        <time>2026-08-28T17:19:10Z</time>
      </trkpt>
      <trkpt lat="43.75217" lon="1.65945">
        <ele>131.289441</ele>
        <time>2026-08-28T17:19:11Z</time>
      </trkpt>
      <trkpt lat="43.75224" lon="1.6595">
        <ele>131.178412</ele>
        <time>2026-08-28T17:19:12Z</time>
      </trkpt>
      <trkpt lat="43.75231" lon="1.65955">
        <ele>131.06695</ele>
        <time>2026-08-28T17:19:13Z</time>
      </trkpt>
      <trkpt lat="43.75238" lon="1.65959">
        <ele>130.955755</ele>
        <time>2026-08-28T17:19:14Z</time>
      </trkpt>
      <trkpt lat="43.75246" lon="1.65962">
        <ele>130.846255</ele>
        <time>2026-08-28T17:19:15Z</time>
      </trkpt>
      <trkpt lat="43.75253" lon="1.65964">
        <ele>130.740859</ele>
        <time>2026-08-28T17:19:16Z</time>
      </trkpt>
      <trkpt lat="43.7526" lon="1.65965">
        <ele>130.640536</ele>
        <time>2026-08-28T17:19:17Z</time>
      </trkpt>
      <trkpt lat="43.75265" lon="1.65967">
        <ele>130.565697</ele>
        <time>2026-08-28T17:19:18Z</time>
      </trkpt>
      <trkpt lat="43.75269" lon="1.65968">
        <ele>130.506903</ele>
        <time>2026-08-28T17:19:19Z</time>
      </trkpt>
      <trkpt lat="43.75272" lon="1.65969">
        <ele>130.460205</ele>
        <time>2026-08-28T17:19:20Z</time>
      </trkpt>
      <trkpt lat="43.75276" lon="1.6597">
        <ele>130.412972</ele>
        <time>2026-08-28T17:19:21Z</time>
      </trkpt>
      <trkpt lat="43.75279" lon="1.65973">
        <ele>130.358803</ele>
        <time>2026-08-28T17:19:22Z</time>
      </trkpt>
      <trkpt lat="43.75281" lon="1.65978">
        <ele>130.298159</ele>
        <time>2026-08-28T17:19:23Z</time>
      </trkpt>
      <trkpt lat="43.75284" lon="1.65983">
        <ele>130.23414</ele>
        <time>2026-08-28T17:19:24Z</time>
      </trkpt>
      <trkpt lat="43.75288" lon="1.65987">
        <ele>130.168762</ele>
        <time>2026-08-28T17:19:25Z</time>
      </trkpt>
      <trkpt lat="43.75291" lon="1.65989">
        <ele>130.107004</ele>
        <time>2026-08-28T17:19:26Z</time>
      </trkpt>
      <trkpt lat="43.75295" lon="1.65991">
        <ele>130.04857</ele>
        <time>2026-08-28T17:19:27Z</time>
      </trkpt>
      <trkpt lat="43.753" lon="1.65991">
        <ele>129.989076</ele>
        <time>2026-08-28T17:19:28Z</time>
      </trkpt>
      <trkpt lat="43.75304" lon="1.6599">
        <ele>129.928717</ele>
        <time>2026-08-28T17:19:29Z</time>
      </trkpt>
      <trkpt lat="43.75308" lon="1.65988">
        <ele>129.86246</ele>
        <time>2026-08-28T17:19:30Z</time>
      </trkpt>
      <trkpt lat="43.75312" lon="1.65985">
        <ele>129.797251</ele>
        <time>2026-08-28T17:19:31Z</time>
      </trkpt>
      <trkpt lat="43.75317" lon="1.65982">
        <ele>129.724338</ele>
        <time>2026-08-28T17:19:32Z</time>
      </trkpt>
      <trkpt lat="43.75321" lon="1.65978">
        <ele>129.65315</ele>
        <time>2026-08-28T17:19:33Z</time>
      </trkpt>
      <trkpt lat="43.75326" lon="1.65976">
        <ele>129.577504</ele>
        <time>2026-08-28T17:19:34Z</time>
      </trkpt>
      <trkpt lat="43.75332" lon="1.65975">
        <ele>129.498645</ele>
        <time>2026-08-28T17:19:35Z</time>
      </trkpt>
      <trkpt lat="43.75337" lon="1.65976">
        <ele>129.422583</ele>
        <time>2026-08-28T17:19:36Z</time>
      </trkpt>
      <trkpt lat="43.75342" lon="1.65978">
        <ele>129.352411</ele>
        <time>2026-08-28T17:19:37Z</time>
      </trkpt>
      <trkpt lat="43.75348" lon="1.65979">
        <ele>129.273553</ele>
        <time>2026-08-28T17:19:38Z</time>
      </trkpt>
      <trkpt lat="43.75353" lon="1.6598">
        <ele>129.192957</ele>
        <time>2026-08-28T17:19:39Z</time>
      </trkpt>
      <trkpt lat="43.75359" lon="1.65982">
        <ele>129.106416</ele>
        <time>2026-08-28T17:19:40Z</time>
      </trkpt>
      <trkpt lat="43.75365" lon="1.65983">
        <ele>129.021265</ele>
        <time>2026-08-28T17:19:41Z</time>
      </trkpt>
      <trkpt lat="43.75371" lon="1.65985">
        <ele>128.937504</ele>
        <time>2026-08-28T17:19:42Z</time>
      </trkpt>
      <trkpt lat="43.75376" lon="1.65987">
        <ele>128.854103</ele>
        <time>2026-08-28T17:19:43Z</time>
      </trkpt>
      <trkpt lat="43.75382" lon="1.65989">
        <ele>128.762083</ele>
        <time>2026-08-28T17:19:44Z</time>
      </trkpt>
      <trkpt lat="43.75388" lon="1.65991">
        <ele>128.669776</ele>
        <time>2026-08-28T17:19:45Z</time>
      </trkpt>
      <trkpt lat="43.75394" lon="1.65993">
        <ele>128.57627</ele>
        <time>2026-08-28T17:19:46Z</time>
      </trkpt>
      <trkpt lat="43.754" lon="1.65995">
        <ele>128.480709</ele>
        <time>2026-08-28T17:19:47Z</time>
      </trkpt>
      <trkpt lat="43.75406" lon="1.65997">
        <ele>128.387472</ele>
        <time>2026-08-28T17:19:48Z</time>
      </trkpt>
      <trkpt lat="43.75412" lon="1.66">
        <ele>128.291911</ele>
        <time>2026-08-28T17:19:49Z</time>
      </trkpt>
      <trkpt lat="43.75418" lon="1.66002">
        <ele>128.19635</ele>
        <time>2026-08-28T17:19:50Z</time>
      </trkpt>
      <trkpt lat="43.75424" lon="1.66004">
        <ele>128.099868</ele>
        <time>2026-08-28T17:19:51Z</time>
      </trkpt>
      <trkpt lat="43.7543" lon="1.66006">
        <ele>128.006632</ele>
        <time>2026-08-28T17:19:52Z</time>
      </trkpt>
      <trkpt lat="43.75436" lon="1.66008">
        <ele>127.916375</ele>
        <time>2026-08-28T17:19:53Z</time>
      </trkpt>
      <trkpt lat="43.75441" lon="1.6601">
        <ele>127.822586</ele>
        <time>2026-08-28T17:19:54Z</time>
      </trkpt>
      <trkpt lat="43.75447" lon="1.66013">
        <ele>127.728504</ele>
        <time>2026-08-28T17:19:55Z</time>
      </trkpt>
      <trkpt lat="43.75453" lon="1.66015">
        <ele>127.632533</ele>
        <time>2026-08-28T17:19:56Z</time>
      </trkpt>
      <trkpt lat="43.7546" lon="1.66016">
        <ele>127.535925</ele>
        <time>2026-08-28T17:19:57Z</time>
      </trkpt>
      <trkpt lat="43.75466" lon="1.66017">
        <ele>127.437184</ele>
        <time>2026-08-28T17:19:58Z</time>
      </trkpt>
      <trkpt lat="43.75472" lon="1.66017">
        <ele>127.338892</ele>
        <time>2026-08-28T17:19:59Z</time>
      </trkpt>
      <trkpt lat="43.75479" lon="1.66017">
        <ele>127.235956</ele>
        <time>2026-08-28T17:20:00Z</time>
      </trkpt>
      <trkpt lat="43.75486" lon="1.66016">
        <ele>127.130736</ele>
        <time>2026-08-28T17:20:01Z</time>
      </trkpt>
      <trkpt lat="43.75493" lon="1.66014">
        <ele>127.020494</ele>
        <time>2026-08-28T17:20:02Z</time>
      </trkpt>
      <trkpt lat="43.755" lon="1.66012">
        <ele>126.904972</ele>
        <time>2026-08-28T17:20:03Z</time>
      </trkpt>
      <trkpt lat="43.75508" lon="1.6601">
        <ele>126.788993</ele>
        <time>2026-08-28T17:20:04Z</time>
      </trkpt>
      <trkpt lat="43.75515" lon="1.66006">
        <ele>126.674383</ele>
        <time>2026-08-28T17:20:05Z</time>
      </trkpt>
      <trkpt lat="43.75522" lon="1.66002">
        <ele>126.559563</ele>
        <time>2026-08-28T17:20:06Z</time>
      </trkpt>
      <trkpt lat="43.75529" lon="1.65998">
        <ele>126.444815</ele>
        <time>2026-08-28T17:20:07Z</time>
      </trkpt>
      <trkpt lat="43.75536" lon="1.65994">
        <ele>126.328996</ele>
        <time>2026-08-28T17:20:08Z</time>
      </trkpt>
      <trkpt lat="43.75543" lon="1.6599">
        <ele>126.209498</ele>
        <time>2026-08-28T17:20:09Z</time>
      </trkpt>
      <trkpt lat="43.7555" lon="1.65986">
        <ele>126.050384</ele>
        <time>2026-08-28T17:20:10Z</time>
      </trkpt>
      <trkpt lat="43.75557" lon="1.65981">
        <ele>125.761875</ele>
        <time>2026-08-28T17:20:11Z</time>
      </trkpt>
      <trkpt lat="43.75564" lon="1.65976">
        <ele>125.469633</ele>
        <time>2026-08-28T17:20:12Z</time>
      </trkpt>
      <trkpt lat="43.75571" lon="1.65971">
        <ele>125.173622</ele>
        <time>2026-08-28T17:20:13Z</time>
      </trkpt>
      <trkpt lat="43.75578" lon="1.65965">
        <ele>124.886527</ele>
        <time>2026-08-28T17:20:14Z</time>
      </trkpt>
      <trkpt lat="43.75585" lon="1.6596">
        <ele>124.597496</ele>
        <time>2026-08-28T17:20:15Z</time>
      </trkpt>
      <trkpt lat="43.75592" lon="1.65956">
        <ele>124.316694</ele>
        <time>2026-08-28T17:20:16Z</time>
      </trkpt>
      <trkpt lat="43.75599" lon="1.65951">
        <ele>124.035893</ele>
        <time>2026-08-28T17:20:17Z</time>
      </trkpt>
      <trkpt lat="43.75606" lon="1.65946">
        <ele>123.750505</ele>
        <time>2026-08-28T17:20:18Z</time>
      </trkpt>
      <trkpt lat="43.75613" lon="1.65941">
        <ele>123.467866</ele>
        <time>2026-08-28T17:20:19Z</time>
      </trkpt>
      <trkpt lat="43.7562" lon="1.65936">
        <ele>123.185721</ele>
        <time>2026-08-28T17:20:20Z</time>
      </trkpt>
      <trkpt lat="43.75627" lon="1.65932">
        <ele>122.909325</ele>
        <time>2026-08-28T17:20:21Z</time>
      </trkpt>
      <trkpt lat="43.75634" lon="1.65928">
        <ele>122.637159</ele>
        <time>2026-08-28T17:20:22Z</time>
      </trkpt>
      <trkpt lat="43.7564" lon="1.65924">
        <ele>122.373728</ele>
        <time>2026-08-28T17:20:23Z</time>
      </trkpt>
      <trkpt lat="43.75647" lon="1.65921">
        <ele>122.137309</ele>
        <time>2026-08-28T17:20:24Z</time>
      </trkpt>
      <trkpt lat="43.75652" lon="1.65918">
        <ele>121.939573</ele>
        <time>2026-08-28T17:20:25Z</time>
      </trkpt>
      <trkpt lat="43.75656" lon="1.65917">
        <ele>121.787625</ele>
        <time>2026-08-28T17:20:26Z</time>
      </trkpt>
      <trkpt lat="43.75658" lon="1.65919">
        <ele>121.679847</ele>
        <time>2026-08-28T17:20:27Z</time>
      </trkpt>
      <trkpt lat="43.75659" lon="1.65923">
        <ele>121.566125</ele>
        <time>2026-08-28T17:20:28Z</time>
      </trkpt>
      <trkpt lat="43.75659" lon="1.65927">
        <ele>121.462607</ele>
        <time>2026-08-28T17:20:29Z</time>
      </trkpt>
      <trkpt lat="43.75659" lon="1.65931">
        <ele>121.35749</ele>
        <time>2026-08-28T17:20:30Z</time>
      </trkpt>
      <trkpt lat="43.7566" lon="1.65935">
        <ele>121.25172</ele>
        <time>2026-08-28T17:20:31Z</time>
      </trkpt>
      <trkpt lat="43.75663" lon="1.65936">
        <ele>121.133848</ele>
        <time>2026-08-28T17:20:32Z</time>
      </trkpt>
      <trkpt lat="43.75667" lon="1.65935">
        <ele>121.005533</ele>
        <time>2026-08-28T17:20:33Z</time>
      </trkpt>
      <trkpt lat="43.75671" lon="1.65935">
        <ele>120.86303</ele>
        <time>2026-08-28T17:20:34Z</time>
      </trkpt>
      <trkpt lat="43.75674" lon="1.65934">
        <ele>120.734715</ele>
        <time>2026-08-28T17:20:35Z</time>
      </trkpt>
      <trkpt lat="43.75678" lon="1.65933">
        <ele>120.602449</ele>
        <time>2026-08-28T17:20:36Z</time>
      </trkpt>
      <trkpt lat="43.75681" lon="1.65932">
        <ele>120.473383</ele>
        <time>2026-08-28T17:20:37Z</time>
      </trkpt>
      <trkpt lat="43.75685" lon="1.65932">
        <ele>120.333117</ele>
        <time>2026-08-28T17:20:38Z</time>
      </trkpt>
      <trkpt lat="43.75689" lon="1.65931">
        <ele>120.183113</ele>
        <time>2026-08-28T17:20:39Z</time>
      </trkpt>
      <trkpt lat="43.75693" lon="1.6593">
        <ele>120.036068</ele>
        <time>2026-08-28T17:20:40Z</time>
      </trkpt>
      <trkpt lat="43.75697" lon="1.65929">
        <ele>119.888625</ele>
        <time>2026-08-28T17:20:41Z</time>
      </trkpt>
      <trkpt lat="43.75701" lon="1.65929">
        <ele>119.741932</ele>
        <time>2026-08-28T17:20:42Z</time>
      </trkpt>
      <trkpt lat="43.75705" lon="1.65928">
        <ele>119.594887</ele>
        <time>2026-08-28T17:20:43Z</time>
      </trkpt>
      <trkpt lat="43.75709" lon="1.65927">
        <ele>119.545229</ele>
        <time>2026-08-28T17:20:44Z</time>
      </trkpt>
      <trkpt lat="43.75713" lon="1.65926">
        <ele>119.511356</ele>
        <time>2026-08-28T17:20:45Z</time>
      </trkpt>
      <trkpt lat="43.75718" lon="1.65925">
        <ele>119.475778</ele>
        <time>2026-08-28T17:20:46Z</time>
      </trkpt>
      <trkpt lat="43.75722" lon="1.65924">
        <ele>119.441905</ele>
        <time>2026-08-28T17:20:47Z</time>
      </trkpt>
      <trkpt lat="43.75726" lon="1.65923">
        <ele>119.406502</ele>
        <time>2026-08-28T17:20:48Z</time>
      </trkpt>
      <trkpt lat="43.7573" lon="1.65922">
        <ele>119.371624</ele>
        <time>2026-08-28T17:20:49Z</time>
      </trkpt>
      <trkpt lat="43.75735" lon="1.65921">
        <ele>119.336507</ele>
        <time>2026-08-28T17:20:50Z</time>
      </trkpt>
      <trkpt lat="43.75739" lon="1.6592">
        <ele>119.29922</ele>
        <time>2026-08-28T17:20:51Z</time>
      </trkpt>
      <trkpt lat="43.75744" lon="1.65918">
        <ele>119.261826</ele>
        <time>2026-08-28T17:20:52Z</time>
      </trkpt>
      <trkpt lat="43.75748" lon="1.65917">
        <ele>119.224637</ele>
        <time>2026-08-28T17:20:53Z</time>
      </trkpt>
      <trkpt lat="43.75753" lon="1.65916">
        <ele>119.187243</ele>
        <time>2026-08-28T17:20:54Z</time>
      </trkpt>
      <trkpt lat="43.75757" lon="1.65915">
        <ele>119.148934</ele>
        <time>2026-08-28T17:20:55Z</time>
      </trkpt>
      <trkpt lat="43.75762" lon="1.65913">
        <ele>119.109578</ele>
        <time>2026-08-28T17:20:56Z</time>
      </trkpt>
      <trkpt lat="43.75767" lon="1.65912">
        <ele>119.070683</ele>
        <time>2026-08-28T17:20:57Z</time>
      </trkpt>
      <trkpt lat="43.75771" lon="1.65911">
        <ele>119.030079</ele>
        <time>2026-08-28T17:20:58Z</time>
      </trkpt>
      <trkpt lat="43.75776" lon="1.6591">
        <ele>118.99017</ele>
        <time>2026-08-28T17:20:59Z</time>
      </trkpt>
      <trkpt lat="43.75781" lon="1.65908">
        <ele>118.950261</ele>
        <time>2026-08-28T17:21:00Z</time>
      </trkpt>
      <trkpt lat="43.75786" lon="1.65907">
        <ele>118.91146</ele>
        <time>2026-08-28T17:21:01Z</time>
      </trkpt>
      <trkpt lat="43.7579" lon="1.65906">
        <ele>118.874976</ele>
        <time>2026-08-28T17:21:02Z</time>
      </trkpt>
      <trkpt lat="43.75794" lon="1.65905">
        <ele>118.839183</ele>
        <time>2026-08-28T17:21:03Z</time>
      </trkpt>
      <trkpt lat="43.75798" lon="1.65904">
        <ele>118.80853</ele>
        <time>2026-08-28T17:21:04Z</time>
      </trkpt>
      <trkpt lat="43.75801" lon="1.65904">
        <ele>118.784604</ele>
        <time>2026-08-28T17:21:05Z</time>
      </trkpt>
      <trkpt lat="43.75804" lon="1.65903">
        <ele>118.757159</ele>
        <time>2026-08-28T17:21:06Z</time>
      </trkpt>
      <trkpt lat="43.75808" lon="1.65902">
        <ele>118.728668</ele>
        <time>2026-08-28T17:21:07Z</time>
      </trkpt>
      <trkpt lat="43.75812" lon="1.65901">
        <ele>118.696579</ele>
        <time>2026-08-28T17:21:08Z</time>
      </trkpt>
      <trkpt lat="43.75816" lon="1.659">
        <ele>118.664317</ele>
        <time>2026-08-28T17:21:09Z</time>
      </trkpt>
      <trkpt lat="43.7582" lon="1.65899">
        <ele>118.630444</ele>
        <time>2026-08-28T17:21:10Z</time>
      </trkpt>
      <trkpt lat="43.75824" lon="1.65898">
        <ele>118.595042</ele>
        <time>2026-08-28T17:21:11Z</time>
      </trkpt>
      <trkpt lat="43.75828" lon="1.65897">
        <ele>118.557648</ele>
        <time>2026-08-28T17:21:12Z</time>
      </trkpt>
      <trkpt lat="43.75833" lon="1.65896">
        <ele>118.520138</ele>
        <time>2026-08-28T17:21:13Z</time>
      </trkpt>
      <trkpt lat="43.75838" lon="1.65895">
        <ele>118.482143</ele>
        <time>2026-08-28T17:21:14Z</time>
      </trkpt>
      <trkpt lat="43.75842" lon="1.65894">
        <ele>118.44555</ele>
        <time>2026-08-28T17:21:15Z</time>
      </trkpt>
      <trkpt lat="43.75847" lon="1.65892">
        <ele>118.407119</ele>
        <time>2026-08-28T17:21:16Z</time>
      </trkpt>
      <trkpt lat="43.75851" lon="1.65891">
        <ele>118.369726</ele>
        <time>2026-08-28T17:21:17Z</time>
      </trkpt>
      <trkpt lat="43.75856" lon="1.6589">
        <ele>118.332776</ele>
        <time>2026-08-28T17:21:18Z</time>
      </trkpt>
      <trkpt lat="43.7586" lon="1.65889">
        <ele>118.294868</ele>
        <time>2026-08-28T17:21:19Z</time>
      </trkpt>
      <trkpt lat="43.75865" lon="1.65889">
        <ele>118.256152</ele>
        <time>2026-08-28T17:21:20Z</time>
      </trkpt>
      <trkpt lat="43.75869" lon="1.65887">
        <ele>118.217956</ele>
        <time>2026-08-28T17:21:21Z</time>
      </trkpt>
      <trkpt lat="43.75874" lon="1.65886">
        <ele>118.178257</ele>
        <time>2026-08-28T17:21:22Z</time>
      </trkpt>
      <trkpt lat="43.75879" lon="1.65885">
        <ele>118.138649</ele>
        <time>2026-08-28T17:21:23Z</time>
      </trkpt>
      <trkpt lat="43.75884" lon="1.65884">
        <ele>118.100011</ele>
        <time>2026-08-28T17:21:24Z</time>
      </trkpt>
      <trkpt lat="43.75888" lon="1.65884">
        <ele>118.063619</ele>
        <time>2026-08-28T17:21:25Z</time>
      </trkpt>
      <trkpt lat="43.75893" lon="1.65883">
        <ele>118.023905</ele>
        <time>2026-08-28T17:21:26Z</time>
      </trkpt>
      <trkpt lat="43.75898" lon="1.65882">
        <ele>117.984893</ele>
        <time>2026-08-28T17:21:27Z</time>
      </trkpt>
      <trkpt lat="43.75903" lon="1.6588">
        <ele>117.947143</ele>
        <time>2026-08-28T17:21:28Z</time>
      </trkpt>
      <trkpt lat="43.75907" lon="1.65879">
        <ele>117.911583</ele>
        <time>2026-08-28T17:21:29Z</time>
      </trkpt>
      <trkpt lat="43.75912" lon="1.65877">
        <ele>117.875126</ele>
        <time>2026-08-28T17:21:30Z</time>
      </trkpt>
      <trkpt lat="43.75916" lon="1.65876">
        <ele>117.842119</ele>
        <time>2026-08-28T17:21:31Z</time>
      </trkpt>
      <trkpt lat="43.7592" lon="1.65875">
        <ele>117.813199</ele>
        <time>2026-08-28T17:21:32Z</time>
      </trkpt>
      <trkpt lat="43.75922" lon="1.65874">
        <ele>117.789008</ele>
        <time>2026-08-28T17:21:33Z</time>
      </trkpt>
      <trkpt lat="43.75925" lon="1.65872">
        <ele>117.765852</ele>
        <time>2026-08-28T17:21:34Z</time>
      </trkpt>
      <trkpt lat="43.75929" lon="1.65871">
        <ele>117.737704</ele>
        <time>2026-08-28T17:21:35Z</time>
      </trkpt>
      <trkpt lat="43.75932" lon="1.65871">
        <ele>117.712397</ele>
        <time>2026-08-28T17:21:36Z</time>
      </trkpt>
      <trkpt lat="43.75935" lon="1.6587">
        <ele>117.686181</ele>
        <time>2026-08-28T17:21:37Z</time>
      </trkpt>
      <trkpt lat="43.75938" lon="1.65869">
        <ele>117.661527</ele>
        <time>2026-08-28T17:21:38Z</time>
      </trkpt>
      <trkpt lat="43.75941" lon="1.6587">
        <ele>117.640851</ele>
        <time>2026-08-28T17:21:39Z</time>
      </trkpt>
      <trkpt lat="43.75944" lon="1.6587">
        <ele>117.613278</ele>
        <time>2026-08-28T17:21:40Z</time>
      </trkpt>
      <trkpt lat="43.75947" lon="1.65869">
        <ele>117.588696</ele>
        <time>2026-08-28T17:21:41Z</time>
      </trkpt>
      <trkpt lat="43.75951" lon="1.65869">
        <ele>117.556397</ele>
        <time>2026-08-28T17:21:42Z</time>
      </trkpt>
      <trkpt lat="43.75955" lon="1.65868">
        <ele>117.524017</ele>
        <time>2026-08-28T17:21:43Z</time>
      </trkpt>
      <trkpt lat="43.7596" lon="1.65867">
        <ele>117.488897</ele>
        <time>2026-08-28T17:21:44Z</time>
      </trkpt>
      <trkpt lat="43.75964" lon="1.65865">
        <ele>117.455495</ele>
        <time>2026-08-28T17:21:45Z</time>
      </trkpt>
      <trkpt lat="43.75968" lon="1.65864">
        <ele>117.41976</ele>
        <time>2026-08-28T17:21:46Z</time>
      </trkpt>
      <trkpt lat="43.75973" lon="1.65864">
        <ele>117.385104</ele>
        <time>2026-08-28T17:21:47Z</time>
      </trkpt>
      <trkpt lat="43.75977" lon="1.65861">
        <ele>117.348388</ele>
        <time>2026-08-28T17:21:48Z</time>
      </trkpt>
      <trkpt lat="43.75982" lon="1.6586">
        <ele>117.30898</ele>
        <time>2026-08-28T17:21:49Z</time>
      </trkpt>
      <trkpt lat="43.75988" lon="1.65859">
        <ele>117.263071</ele>
        <time>2026-08-28T17:21:50Z</time>
      </trkpt>
      <trkpt lat="43.75993" lon="1.65858">
        <ele>117.217474</ele>
        <time>2026-08-28T17:21:51Z</time>
      </trkpt>
      <trkpt lat="43.75999" lon="1.65857">
        <ele>117.176198</ele>
        <time>2026-08-28T17:21:52Z</time>
      </trkpt>
      <trkpt lat="43.76004" lon="1.65856">
        <ele>117.134921</ele>
        <time>2026-08-28T17:21:53Z</time>
      </trkpt>
      <trkpt lat="43.76009" lon="1.65855">
        <ele>117.092081</ele>
        <time>2026-08-28T17:21:54Z</time>
      </trkpt>
      <trkpt lat="43.76015" lon="1.65854">
        <ele>117.049241</ele>
        <time>2026-08-28T17:21:55Z</time>
      </trkpt>
      <trkpt lat="43.7602" lon="1.65853">
        <ele>117.007183</ele>
        <time>2026-08-28T17:21:56Z</time>
      </trkpt>
      <trkpt lat="43.76025" lon="1.65852">
        <ele>116.966613</ele>
        <time>2026-08-28T17:21:57Z</time>
      </trkpt>
      <trkpt lat="43.7603" lon="1.65851">
        <ele>116.927514</ele>
        <time>2026-08-28T17:21:58Z</time>
      </trkpt>
      <trkpt lat="43.76035" lon="1.6585">
        <ele>116.886562</ele>
        <time>2026-08-28T17:21:59Z</time>
      </trkpt>
      <trkpt lat="43.7604" lon="1.65848">
        <ele>116.846909</ele>
        <time>2026-08-28T17:22:00Z</time>
      </trkpt>
      <trkpt lat="43.76045" lon="1.65847">
        <ele>116.807715</ele>
        <time>2026-08-28T17:22:01Z</time>
      </trkpt>
      <trkpt lat="43.7605" lon="1.65846">
        <ele>116.768419</ele>
        <time>2026-08-28T17:22:02Z</time>
      </trkpt>
      <trkpt lat="43.76054" lon="1.65844">
        <ele>116.730668</ele>
        <time>2026-08-28T17:22:03Z</time>
      </trkpt>
      <trkpt lat="43.76059" lon="1.65843">
        <ele>116.692435</ele>
        <time>2026-08-28T17:22:04Z</time>
      </trkpt>
      <trkpt lat="43.76064" lon="1.65842">
        <ele>116.66394</ele>
        <time>2026-08-28T17:22:05Z</time>
      </trkpt>
      <trkpt lat="43.76068" lon="1.65841">
        <ele>116.635392</ele>
        <time>2026-08-28T17:22:06Z</time>
      </trkpt>
      <trkpt lat="43.76073" lon="1.6584">
        <ele>116.606225</ele>
        <time>2026-08-28T17:22:07Z</time>
      </trkpt>
      <trkpt lat="43.76077" lon="1.65839">
        <ele>116.575672</ele>
        <time>2026-08-28T17:22:08Z</time>
      </trkpt>
      <trkpt lat="43.76082" lon="1.65838">
        <ele>116.54565</ele>
        <time>2026-08-28T17:22:09Z</time>
      </trkpt>
      <trkpt lat="43.76087" lon="1.65837">
        <ele>116.515097</ele>
        <time>2026-08-28T17:22:10Z</time>
      </trkpt>
      <trkpt lat="43.76092" lon="1.65835">
        <ele>116.484544</ele>
        <time>2026-08-28T17:22:11Z</time>
      </trkpt>
      <trkpt lat="43.76096" lon="1.65834">
        <ele>116.454758</ele>
        <time>2026-08-28T17:22:12Z</time>
      </trkpt>
      <trkpt lat="43.76101" lon="1.65833">
        <ele>116.426374</ele>
        <time>2026-08-28T17:22:13Z</time>
      </trkpt>
      <trkpt lat="43.76105" lon="1.65832">
        <ele>116.397751</ele>
        <time>2026-08-28T17:22:14Z</time>
      </trkpt>
      <trkpt lat="43.76109" lon="1.65831">
        <ele>116.371501</ele>
        <time>2026-08-28T17:22:15Z</time>
      </trkpt>
      <trkpt lat="43.76114" lon="1.65829">
        <ele>116.345252</ele>
        <time>2026-08-28T17:22:16Z</time>
      </trkpt>
      <trkpt lat="43.76118" lon="1.65828">
        <ele>116.318905</ele>
        <time>2026-08-28T17:22:17Z</time>
      </trkpt>
      <trkpt lat="43.76121" lon="1.65827">
        <ele>116.294756</ele>
        <time>2026-08-28T17:22:18Z</time>
      </trkpt>
      <trkpt lat="43.76125" lon="1.65826">
        <ele>116.270845</ele>
        <time>2026-08-28T17:22:19Z</time>
      </trkpt>
      <trkpt lat="43.76129" lon="1.65825">
        <ele>116.248625</ele>
        <time>2026-08-28T17:22:20Z</time>
      </trkpt>
      <trkpt lat="43.76132" lon="1.65824">
        <ele>116.227713</ele>
        <time>2026-08-28T17:22:21Z</time>
      </trkpt>
      <trkpt lat="43.76134" lon="1.65824">
        <ele>116.212653</ele>
        <time>2026-08-28T17:22:22Z</time>
      </trkpt>
      <trkpt lat="43.76136" lon="1.65824">
        <ele>116.203213</ele>
        <time>2026-08-28T17:22:23Z</time>
      </trkpt>
      <trkpt lat="43.76137" lon="1.65824">
        <ele>116.196933</ele>
        <time>2026-08-28T17:22:24Z</time>
      </trkpt>
      <trkpt lat="43.76138" lon="1.65823">
        <ele>116.190752</ele>
        <time>2026-08-28T17:22:25Z</time>
      </trkpt>
      <trkpt lat="43.76139" lon="1.65823">
        <ele>116.185114</ele>
        <time>2026-08-28T17:22:26Z</time>
      </trkpt>
      <trkpt lat="43.7614" lon="1.65822">
        <ele>116.174219</ele>
        <time>2026-08-28T17:22:27Z</time>
      </trkpt>
      <trkpt lat="43.76142" lon="1.65822">
        <ele>116.161659</ele>
        <time>2026-08-28T17:22:28Z</time>
      </trkpt>
      <trkpt lat="43.76144" lon="1.65821">
        <ele>116.14951</ele>
        <time>2026-08-28T17:22:29Z</time>
      </trkpt>
      <trkpt lat="43.76146" lon="1.6582">
        <ele>116.132303</ele>
        <time>2026-08-28T17:22:30Z</time>
      </trkpt>
      <trkpt lat="43.7615" lon="1.6582">
        <ele>116.109749</ele>
        <time>2026-08-28T17:22:31Z</time>
      </trkpt>
      <trkpt lat="43.76153" lon="1.6582">
        <ele>116.087821</ele>
        <time>2026-08-28T17:22:32Z</time>
      </trkpt>
      <trkpt lat="43.76157" lon="1.6582">
        <ele>116.062765</ele>
        <time>2026-08-28T17:22:33Z</time>
      </trkpt>
      <trkpt lat="43.76161" lon="1.65819">
        <ele>116.037638</ele>
        <time>2026-08-28T17:22:34Z</time>
      </trkpt>
      <trkpt lat="43.76165" lon="1.65817">
        <ele>116.013219</ele>
        <time>2026-08-28T17:22:35Z</time>
      </trkpt>
      <trkpt lat="43.76169" lon="1.65816">
        <ele>115.987482</ele>
        <time>2026-08-28T17:22:36Z</time>
      </trkpt>
      <trkpt lat="43.76173" lon="1.65814">
        <ele>115.961845</ele>
        <time>2026-08-28T17:22:37Z</time>
      </trkpt>
      <trkpt lat="43.76177" lon="1.65814">
        <ele>115.93591</ele>
        <time>2026-08-28T17:22:38Z</time>
      </trkpt>
      <trkpt lat="43.76181" lon="1.65814">
        <ele>115.910224</ele>
        <time>2026-08-28T17:22:39Z</time>
      </trkpt>
      <trkpt lat="43.76186" lon="1.65813">
        <ele>115.883228</ele>
        <time>2026-08-28T17:22:40Z</time>
      </trkpt>
      <trkpt lat="43.7619" lon="1.65812">
        <ele>115.856366</ele>
        <time>2026-08-28T17:22:41Z</time>
      </trkpt>
      <trkpt lat="43.76194" lon="1.65811">
        <ele>115.82787</ele>
        <time>2026-08-28T17:22:42Z</time>
      </trkpt>
      <trkpt lat="43.76199" lon="1.65809">
        <ele>115.798652</ele>
        <time>2026-08-28T17:22:43Z</time>
      </trkpt>
      <trkpt lat="43.76203" lon="1.65807">
        <ele>115.769659</ele>
        <time>2026-08-28T17:22:44Z</time>
      </trkpt>
      <trkpt lat="43.76208" lon="1.65806">
        <ele>115.741111</ele>
        <time>2026-08-28T17:22:45Z</time>
      </trkpt>
      <trkpt lat="43.76212" lon="1.65805">
        <ele>115.713251</ele>
        <time>2026-08-28T17:22:46Z</time>
      </trkpt>
      <trkpt lat="43.76216" lon="1.65805">
        <ele>115.687374</ele>
        <time>2026-08-28T17:22:47Z</time>
      </trkpt>
      <trkpt lat="43.7622" lon="1.65804">
        <ele>115.66068</ele>
        <time>2026-08-28T17:22:48Z</time>
      </trkpt>
      <trkpt lat="43.76225" lon="1.65803">
        <ele>115.63282</ele>
        <time>2026-08-28T17:22:49Z</time>
      </trkpt>
      <trkpt lat="43.76229" lon="1.65802">
        <ele>115.60434</ele>
        <time>2026-08-28T17:22:50Z</time>
      </trkpt>
      <trkpt lat="43.76234" lon="1.65801">
        <ele>115.575299</ele>
        <time>2026-08-28T17:22:51Z</time>
      </trkpt>
      <trkpt lat="43.76239" lon="1.658">
        <ele>115.552275</ele>
        <time>2026-08-28T17:22:52Z</time>
      </trkpt>
      <trkpt lat="43.76243" lon="1.65799">
        <ele>115.533326</ele>
        <time>2026-08-28T17:22:53Z</time>
      </trkpt>
      <trkpt lat="43.76248" lon="1.65798">
        <ele>115.513543</ele>
        <time>2026-08-28T17:22:54Z</time>
      </trkpt>
      <trkpt lat="43.76253" lon="1.65797">
        <ele>115.493809</ele>
        <time>2026-08-28T17:22:55Z</time>
      </trkpt>
      <trkpt lat="43.76258" lon="1.65795">
        <ele>115.473408</ele>
        <time>2026-08-28T17:22:56Z</time>
      </trkpt>
      <trkpt lat="43.76263" lon="1.65793">
        <ele>115.453307</ele>
        <time>2026-08-28T17:22:57Z</time>
      </trkpt>
      <trkpt lat="43.76268" lon="1.65792">
        <ele>115.432868</ele>
        <time>2026-08-28T17:22:58Z</time>
      </trkpt>
      <trkpt lat="43.76273" lon="1.65792">
        <ele>115.412177</ele>
        <time>2026-08-28T17:22:59Z</time>
      </trkpt>
      <trkpt lat="43.76278" lon="1.65791">
        <ele>115.39122</ele>
        <time>2026-08-28T17:23:00Z</time>
      </trkpt>
      <trkpt lat="43.76283" lon="1.65789">
        <ele>115.370881</ele>
        <time>2026-08-28T17:23:01Z</time>
      </trkpt>
      <trkpt lat="43.76288" lon="1.65788">
        <ele>115.351881</ele>
        <time>2026-08-28T17:23:02Z</time>
      </trkpt>
      <trkpt lat="43.76293" lon="1.65787">
        <ele>115.332931</ele>
        <time>2026-08-28T17:23:03Z</time>
      </trkpt>
      <trkpt lat="43.76296" lon="1.65787">
        <ele>115.318594</ele>
        <time>2026-08-28T17:23:04Z</time>
      </trkpt>
      <trkpt lat="43.76298" lon="1.65789">
        <ele>115.307004</ele>
        <time>2026-08-28T17:23:05Z</time>
      </trkpt>
      <trkpt lat="43.76298" lon="1.65793">
        <ele>115.297233</ele>
        <time>2026-08-28T17:23:06Z</time>
      </trkpt>
      <trkpt lat="43.76296" lon="1.65796">
        <ele>115.285746</ele>
        <time>2026-08-28T17:23:07Z</time>
      </trkpt>
      <trkpt lat="43.76295" lon="1.65801">
        <ele>115.272648</ele>
        <time>2026-08-28T17:23:08Z</time>
      </trkpt>
      <trkpt lat="43.76294" lon="1.65805">
        <ele>115.259015</ele>
        <time>2026-08-28T17:23:09Z</time>
      </trkpt>
      <trkpt lat="43.76292" lon="1.65809">
        <ele>115.244524</ele>
        <time>2026-08-28T17:23:10Z</time>
      </trkpt>
      <trkpt lat="43.7629" lon="1.65814">
        <ele>115.22925</ele>
        <time>2026-08-28T17:23:11Z</time>
      </trkpt>
      <trkpt lat="43.76289" lon="1.65819">
        <ele>115.213705</ele>
        <time>2026-08-28T17:23:12Z</time>
      </trkpt>
      <trkpt lat="43.76287" lon="1.65825">
        <ele>115.196146</ele>
        <time>2026-08-28T17:23:13Z</time>
      </trkpt>
      <trkpt lat="43.76286" lon="1.65831">
        <ele>115.177908</ele>
        <time>2026-08-28T17:23:14Z</time>
      </trkpt>
      <trkpt lat="43.76284" lon="1.65837">
        <ele>115.158571</ele>
        <time>2026-08-28T17:23:15Z</time>
      </trkpt>
      <trkpt lat="43.76282" lon="1.65843">
        <ele>115.139761</ele>
        <time>2026-08-28T17:23:16Z</time>
      </trkpt>
      <trkpt lat="43.7628" lon="1.65849">
        <ele>115.122055</ele>
        <time>2026-08-28T17:23:17Z</time>
      </trkpt>
      <trkpt lat="43.76279" lon="1.65854">
        <ele>115.105297</ele>
        <time>2026-08-28T17:23:18Z</time>
      </trkpt>
      <trkpt lat="43.76277" lon="1.6586">
        <ele>115.087738</ele>
        <time>2026-08-28T17:23:19Z</time>
      </trkpt>
      <trkpt lat="43.76276" lon="1.65866">
        <ele>115.069361</ele>
        <time>2026-08-28T17:23:20Z</time>
      </trkpt>
      <trkpt lat="43.76274" lon="1.65871">
        <ele>115.051424</ele>
        <time>2026-08-28T17:23:21Z</time>
      </trkpt>
      <trkpt lat="43.7627" lon="1.65875">
        <ele>115.033872</ele>
        <time>2026-08-28T17:23:22Z</time>
      </trkpt>
      <trkpt lat="43.76267" lon="1.65878">
        <ele>115.01811</ele>
        <time>2026-08-28T17:23:23Z</time>
      </trkpt>
      <trkpt lat="43.76263" lon="1.6588">
        <ele>115.003423</ele>
        <time>2026-08-28T17:23:24Z</time>
      </trkpt>
      <trkpt lat="43.7626" lon="1.65882">
        <ele>114.988955</ele>
        <time>2026-08-28T17:23:25Z</time>
      </trkpt>
      <trkpt lat="43.76257" lon="1.65885">
        <ele>114.975809</ele>
        <time>2026-08-28T17:23:26Z</time>
      </trkpt>
      <trkpt lat="43.76256" lon="1.65888">
        <ele>114.964633</ele>
        <time>2026-08-28T17:23:27Z</time>
      </trkpt>
      <trkpt lat="43.76256" lon="1.65891">
        <ele>114.95398</ele>
        <time>2026-08-28T17:23:28Z</time>
      </trkpt>
      <trkpt lat="43.76257" lon="1.65894">
        <ele>114.943882</ele>
        <time>2026-08-28T17:23:29Z</time>
      </trkpt>
      <trkpt lat="43.76259" lon="1.65897">
        <ele>114.933658</ele>
        <time>2026-08-28T17:23:30Z</time>
      </trkpt>
      <trkpt lat="43.76261" lon="1.65899">
        <ele>114.9243</ele>
        <time>2026-08-28T17:23:31Z</time>
      </trkpt>
      <trkpt lat="43.76262" lon="1.65901">
        <ele>114.915536</ele>
        <time>2026-08-28T17:23:32Z</time>
      </trkpt>
      <trkpt lat="43.76265" lon="1.65903">
        <ele>114.905228</ele>
        <time>2026-08-28T17:23:33Z</time>
      </trkpt>
      <trkpt lat="43.76267" lon="1.65905">
        <ele>114.894279</ele>
        <time>2026-08-28T17:23:34Z</time>
      </trkpt>
      <trkpt lat="43.7627" lon="1.65906">
        <ele>114.882237</ele>
        <time>2026-08-28T17:23:35Z</time>
      </trkpt>
      <trkpt lat="43.76273" lon="1.65908">
        <ele>114.869182</ele>
        <time>2026-08-28T17:23:36Z</time>
      </trkpt>
      <trkpt lat="43.76276" lon="1.65908">
        <ele>114.855863</ele>
        <time>2026-08-28T17:23:37Z</time>
      </trkpt>
      <trkpt lat="43.7628" lon="1.65909">
        <ele>114.847046</ele>
        <time>2026-08-28T17:23:38Z</time>
      </trkpt>
      <trkpt lat="43.76283" lon="1.6591">
        <ele>114.84306</ele>
        <time>2026-08-28T17:23:39Z</time>
      </trkpt>
      <trkpt lat="43.76287" lon="1.65911">
        <ele>114.839019</ele>
        <time>2026-08-28T17:23:40Z</time>
      </trkpt>
      <trkpt lat="43.76291" lon="1.65912">
        <ele>114.834657</ele>
        <time>2026-08-28T17:23:41Z</time>
      </trkpt>
      <trkpt lat="43.76296" lon="1.65914">
        <ele>114.83002</ele>
        <time>2026-08-28T17:23:42Z</time>
      </trkpt>
      <trkpt lat="43.763" lon="1.65917">
        <ele>114.825123</ele>
        <time>2026-08-28T17:23:43Z</time>
      </trkpt>
      <trkpt lat="43.76305" lon="1.65921">
        <ele>114.819323</ele>
        <time>2026-08-28T17:23:44Z</time>
      </trkpt>
      <trkpt lat="43.76308" lon="1.65927">
        <ele>114.813538</ele>
        <time>2026-08-28T17:23:45Z</time>
      </trkpt>
      <trkpt lat="43.76311" lon="1.65934">
        <ele>114.807509</ele>
        <time>2026-08-28T17:23:46Z</time>
      </trkpt>
      <trkpt lat="43.76313" lon="1.65942">
        <ele>114.801448</ele>
        <time>2026-08-28T17:23:47Z</time>
      </trkpt>
      <trkpt lat="43.76314" lon="1.65949">
        <ele>114.795663</ele>
        <time>2026-08-28T17:23:48Z</time>
      </trkpt>
      <trkpt lat="43.76316" lon="1.65957">
        <ele>114.789949</ele>
        <time>2026-08-28T17:23:49Z</time>
      </trkpt>
      <trkpt lat="43.76318" lon="1.65964">
        <ele>114.784102</ele>
        <time>2026-08-28T17:23:50Z</time>
      </trkpt>
      <trkpt lat="43.7632" lon="1.65971">
        <ele>114.778467</ele>
        <time>2026-08-28T17:23:51Z</time>
      </trkpt>
      <trkpt lat="43.76322" lon="1.65978">
        <ele>114.772759</ele>
        <time>2026-08-28T17:23:52Z</time>
      </trkpt>
      <trkpt lat="43.76324" lon="1.65985">
        <ele>114.766956</ele>
        <time>2026-08-28T17:23:53Z</time>
      </trkpt>
      <trkpt lat="43.76327" lon="1.65992">
        <ele>114.76121</ele>
        <time>2026-08-28T17:23:54Z</time>
      </trkpt>
      <trkpt lat="43.7633" lon="1.65998">
        <ele>114.7555</ele>
        <time>2026-08-28T17:23:55Z</time>
      </trkpt>
      <trkpt lat="43.76333" lon="1.66004">
        <ele>114.749716</ele>
        <time>2026-08-28T17:23:56Z</time>
      </trkpt>
      <trkpt lat="43.76337" lon="1.6601">
        <ele>114.743976</ele>
        <time>2026-08-28T17:23:57Z</time>
      </trkpt>
      <trkpt lat="43.76341" lon="1.66015">
        <ele>114.73813</ele>
        <time>2026-08-28T17:23:58Z</time>
      </trkpt>
      <trkpt lat="43.76345" lon="1.66021">
        <ele>114.73221</ele>
        <time>2026-08-28T17:23:59Z</time>
      </trkpt>
      <trkpt lat="43.76349" lon="1.66026">
        <ele>114.726368</ele>
        <time>2026-08-28T17:24:00Z</time>
      </trkpt>
      <trkpt lat="43.76354" lon="1.66031">
        <ele>114.720702</ele>
        <time>2026-08-28T17:24:01Z</time>
      </trkpt>
      <trkpt lat="43.76358" lon="1.66036">
        <ele>114.715007</ele>
        <time>2026-08-28T17:24:02Z</time>
      </trkpt>
      <trkpt lat="43.76362" lon="1.66041">
        <ele>114.709241</ele>
        <time>2026-08-28T17:24:03Z</time>
      </trkpt>
      <trkpt lat="43.76366" lon="1.66046">
        <ele>114.703373</ele>
        <time>2026-08-28T17:24:04Z</time>
      </trkpt>
      <trkpt lat="43.7637" lon="1.66052">
        <ele>114.697403</ele>
        <time>2026-08-28T17:24:05Z</time>
      </trkpt>
      <trkpt lat="43.76374" lon="1.66057">
        <ele>114.69161</ele>
        <time>2026-08-28T17:24:06Z</time>
      </trkpt>
      <trkpt lat="43.76379" lon="1.66062">
        <ele>114.685742</ele>
        <time>2026-08-28T17:24:07Z</time>
      </trkpt>
      <trkpt lat="43.76382" lon="1.66068">
        <ele>114.679862</ele>
        <time>2026-08-28T17:24:08Z</time>
      </trkpt>
      <trkpt lat="43.76386" lon="1.66073">
        <ele>114.674178</ele>
        <time>2026-08-28T17:24:09Z</time>
      </trkpt>
      <trkpt lat="43.7639" lon="1.66079">
        <ele>114.668393</ele>
        <time>2026-08-28T17:24:10Z</time>
      </trkpt>
      <trkpt lat="43.76393" lon="1.66085">
        <ele>114.662733</ele>
        <time>2026-08-28T17:24:11Z</time>
      </trkpt>
      <trkpt lat="43.76397" lon="1.66091">
        <ele>114.660395</ele>
        <time>2026-08-28T17:24:12Z</time>
      </trkpt>
      <trkpt lat="43.764" lon="1.66097">
        <ele>114.658366</ele>
        <time>2026-08-28T17:24:13Z</time>
      </trkpt>
      <trkpt lat="43.76404" lon="1.66103">
        <ele>114.656424</ele>
        <time>2026-08-28T17:24:14Z</time>
      </trkpt>
      <trkpt lat="43.76407" lon="1.66108">
        <ele>114.654568</ele>
        <time>2026-08-28T17:24:15Z</time>
      </trkpt>
      <trkpt lat="43.7641" lon="1.66114">
        <ele>114.65267</ele>
        <time>2026-08-28T17:24:16Z</time>
      </trkpt>
      <trkpt lat="43.76413" lon="1.6612">
        <ele>114.650815</ele>
        <time>2026-08-28T17:24:17Z</time>
      </trkpt>
      <trkpt lat="43.76416" lon="1.66125">
        <ele>114.649044</ele>
        <time>2026-08-28T17:24:18Z</time>
      </trkpt>
      <trkpt lat="43.76419" lon="1.66131">
        <ele>114.647295</ele>
        <time>2026-08-28T17:24:19Z</time>
      </trkpt>
      <trkpt lat="43.76421" lon="1.66136">
        <ele>114.645567</ele>
        <time>2026-08-28T17:24:20Z</time>
      </trkpt>
      <trkpt lat="43.76424" lon="1.66142">
        <ele>114.643816</ele>
        <time>2026-08-28T17:24:21Z</time>
      </trkpt>
      <trkpt lat="43.76426" lon="1.66147">
        <ele>114.642087</ele>
        <time>2026-08-28T17:24:22Z</time>
      </trkpt>
      <trkpt lat="43.76429" lon="1.66153">
        <ele>114.640357</ele>
        <time>2026-08-28T17:24:23Z</time>
      </trkpt>
      <trkpt lat="43.76431" lon="1.66158">
        <ele>114.638667</ele>
        <time>2026-08-28T17:24:24Z</time>
      </trkpt>
      <trkpt lat="43.76433" lon="1.66164">
        <ele>114.63696</ele>
        <time>2026-08-28T17:24:25Z</time>
      </trkpt>
      <trkpt lat="43.76435" lon="1.6617">
        <ele>114.635229</ele>
        <time>2026-08-28T17:24:26Z</time>
      </trkpt>
      <trkpt lat="43.76438" lon="1.66176">
        <ele>114.633516</ele>
        <time>2026-08-28T17:24:27Z</time>
      </trkpt>
      <trkpt lat="43.7644" lon="1.66182">
        <ele>114.631776</ele>
        <time>2026-08-28T17:24:28Z</time>
      </trkpt>
      <trkpt lat="43.76442" lon="1.66187">
        <ele>114.630035</ele>
        <time>2026-08-28T17:24:29Z</time>
      </trkpt>
      <trkpt lat="43.76444" lon="1.66193">
        <ele>114.628352</ele>
        <time>2026-08-28T17:24:30Z</time>
      </trkpt>
      <trkpt lat="43.76446" lon="1.66199">
        <ele>114.626676</ele>
        <time>2026-08-28T17:24:31Z</time>
      </trkpt>
      <trkpt lat="43.76448" lon="1.66205">
        <ele>114.624938</ele>
        <time>2026-08-28T17:24:32Z</time>
      </trkpt>
      <trkpt lat="43.7645" lon="1.66211">
        <ele>114.623152</ele>
        <time>2026-08-28T17:24:33Z</time>
      </trkpt>
      <trkpt lat="43.76452" lon="1.66217">
        <ele>114.621389</ele>
        <time>2026-08-28T17:24:34Z</time>
      </trkpt>
      <trkpt lat="43.76454" lon="1.66223">
        <ele>114.619588</ele>
        <time>2026-08-28T17:24:35Z</time>
      </trkpt>
      <trkpt lat="43.76457" lon="1.66229">
        <ele>114.617801</ele>
        <time>2026-08-28T17:24:36Z</time>
      </trkpt>
      <trkpt lat="43.76459" lon="1.66235">
        <ele>114.615978</ele>
        <time>2026-08-28T17:24:37Z</time>
      </trkpt>
      <trkpt lat="43.76461" lon="1.66242">
        <ele>114.614066</ele>
        <time>2026-08-28T17:24:38Z</time>
      </trkpt>
      <trkpt lat="43.76463" lon="1.66249">
        <ele>114.612061</ele>
        <time>2026-08-28T17:24:39Z</time>
      </trkpt>
      <trkpt lat="43.76465" lon="1.66256">
        <ele>114.610032</ele>
        <time>2026-08-28T17:24:40Z</time>
      </trkpt>
      <trkpt lat="43.76467" lon="1.66263">
        <ele>114.608038</ele>
        <time>2026-08-28T17:24:41Z</time>
      </trkpt>
      <trkpt lat="43.76469" lon="1.6627">
        <ele>114.606269</ele>
        <time>2026-08-28T17:24:42Z</time>
      </trkpt>
      <trkpt lat="43.7647" lon="1.66275">
        <ele>114.604858</ele>
        <time>2026-08-28T17:24:43Z</time>
      </trkpt>
      <trkpt lat="43.76471" lon="1.66278">
        <ele>114.604014</ele>
        <time>2026-08-28T17:24:44Z</time>
      </trkpt>
      <trkpt lat="43.76471" lon="1.6628">
        <ele>114.603417</ele>
        <time>2026-08-28T17:24:45Z</time>
      </trkpt>
      <trkpt lat="43.76472" lon="1.66283">
        <ele>114.602601</ele>
        <time>2026-08-28T17:24:46Z</time>
      </trkpt>
      <trkpt lat="43.76475" lon="1.66284">
        <ele>114.601464</ele>
        <time>2026-08-28T17:24:47Z</time>
      </trkpt>
      <trkpt lat="43.76479" lon="1.66284">
        <ele>114.600185</ele>
        <time>2026-08-28T17:24:48Z</time>
      </trkpt>
      <trkpt lat="43.76483" lon="1.66283">
        <ele>114.598755</ele>
        <time>2026-08-28T17:24:49Z</time>
      </trkpt>
      <trkpt lat="43.76487" lon="1.66282">
        <ele>114.597247</ele>
        <time>2026-08-28T17:24:50Z</time>
      </trkpt>
      <trkpt lat="43.76491" lon="1.66282">
        <ele>114.561278</ele>
        <time>2026-08-28T17:24:51Z</time>
      </trkpt>
      <trkpt lat="43.76496" lon="1.66281">
        <ele>114.504351</ele>
        <time>2026-08-28T17:24:52Z</time>
      </trkpt>
      <trkpt lat="43.76501" lon="1.66281">
        <ele>114.446274</ele>
        <time>2026-08-28T17:24:53Z</time>
      </trkpt>
      <trkpt lat="43.76506" lon="1.6628">
        <ele>114.388196</ele>
        <time>2026-08-28T17:24:54Z</time>
      </trkpt>
      <trkpt lat="43.76511" lon="1.6628">
        <ele>114.330408</ele>
        <time>2026-08-28T17:24:55Z</time>
      </trkpt>
      <trkpt lat="43.76516" lon="1.6628">
        <ele>114.272625</ele>
        <time>2026-08-28T17:24:56Z</time>
      </trkpt>
      <trkpt lat="43.76521" lon="1.6628">
        <ele>114.212526</ele>
        <time>2026-08-28T17:24:57Z</time>
      </trkpt>
      <trkpt lat="43.76527" lon="1.6628">
        <ele>114.15127</ele>
        <time>2026-08-28T17:24:58Z</time>
      </trkpt>
      <trkpt lat="43.76532" lon="1.6628">
        <ele>114.088815</ele>
        <time>2026-08-28T17:24:59Z</time>
      </trkpt>
      <trkpt lat="43.76537" lon="1.6628">
        <ele>114.027543</ele>
        <time>2026-08-28T17:25:00Z</time>
      </trkpt>
      <trkpt lat="43.76543" lon="1.66279">
        <ele>113.965048</ele>
        <time>2026-08-28T17:25:01Z</time>
      </trkpt>
      <trkpt lat="43.76548" lon="1.6628">
        <ele>113.903748</ele>
        <time>2026-08-28T17:25:02Z</time>
      </trkpt>
      <trkpt lat="43.76554" lon="1.6628">
        <ele>113.841337</ele>
        <time>2026-08-28T17:25:03Z</time>
      </trkpt>
      <trkpt lat="43.76559" lon="1.66279">
        <ele>113.778843</ele>
        <time>2026-08-28T17:25:04Z</time>
      </trkpt>
      <trkpt lat="43.76564" lon="1.66279">
        <ele>113.716348</ele>
        <time>2026-08-28T17:25:05Z</time>
      </trkpt>
      <trkpt lat="43.7657" lon="1.66279">
        <ele>113.655008</ele>
        <time>2026-08-28T17:25:06Z</time>
      </trkpt>
      <trkpt lat="43.76575" lon="1.66278">
        <ele>113.591425</ele>
        <time>2026-08-28T17:25:07Z</time>
      </trkpt>
      <trkpt lat="43.76581" lon="1.66278">
        <ele>113.527667</ele>
        <time>2026-08-28T17:25:08Z</time>
      </trkpt>
      <trkpt lat="43.76586" lon="1.66277">
        <ele>113.46397</ele>
        <time>2026-08-28T17:25:09Z</time>
      </trkpt>
      <trkpt lat="43.76592" lon="1.66277">
        <ele>113.400321</ele>
        <time>2026-08-28T17:25:10Z</time>
      </trkpt>
      <trkpt lat="43.76597" lon="1.66276">
        <ele>113.336624</ele>
        <time>2026-08-28T17:25:11Z</time>
      </trkpt>
      <trkpt lat="43.76603" lon="1.66276">
        <ele>113.273768</ele>
        <time>2026-08-28T17:25:12Z</time>
      </trkpt>
      <trkpt lat="43.76608" lon="1.66275">
        <ele>113.209939</ele>
        <time>2026-08-28T17:25:13Z</time>
      </trkpt>
      <trkpt lat="43.76614" lon="1.66274">
        <ele>113.146291</ele>
        <time>2026-08-28T17:25:14Z</time>
      </trkpt>
      <trkpt lat="43.76619" lon="1.66274">
        <ele>113.083835</ele>
        <time>2026-08-28T17:25:15Z</time>
      </trkpt>
      <trkpt lat="43.76624" lon="1.66273">
        <ele>113.025668</ele>
        <time>2026-08-28T17:25:16Z</time>
      </trkpt>
      <trkpt lat="43.76629" lon="1.66272">
        <ele>112.969443</ele>
        <time>2026-08-28T17:25:17Z</time>
      </trkpt>
      <trkpt lat="43.76634" lon="1.66271">
        <ele>112.913217</ele>
        <time>2026-08-28T17:25:18Z</time>
      </trkpt>
      <trkpt lat="43.76638" lon="1.6627">
        <ele>112.860673</ele>
        <time>2026-08-28T17:25:19Z</time>
      </trkpt>
      <trkpt lat="43.76642" lon="1.6627">
        <ele>112.80949</ele>
        <time>2026-08-28T17:25:20Z</time>
      </trkpt>
      <trkpt lat="43.76647" lon="1.66269">
        <ele>112.758532</ele>
        <time>2026-08-28T17:25:21Z</time>
      </trkpt>
      <trkpt lat="43.76651" lon="1.66269">
        <ele>112.708811</ele>
        <time>2026-08-28T17:25:22Z</time>
      </trkpt>
      <trkpt lat="43.76656" lon="1.66269">
        <ele>112.656746</ele>
        <time>2026-08-28T17:25:23Z</time>
      </trkpt>
      <trkpt lat="43.7666" lon="1.66268">
        <ele>112.60803</ele>
        <time>2026-08-28T17:25:24Z</time>
      </trkpt>
      <trkpt lat="43.76664" lon="1.66268">
        <ele>112.558085</ele>
        <time>2026-08-28T17:25:25Z</time>
      </trkpt>
      <trkpt lat="43.76668" lon="1.6627">
        <ele>112.512847</ele>
        <time>2026-08-28T17:25:26Z</time>
      </trkpt>
      <trkpt lat="43.76672" lon="1.66274">
        <ele>112.487806</ele>
        <time>2026-08-28T17:25:27Z</time>
      </trkpt>
      <trkpt lat="43.76674" lon="1.66279">
        <ele>112.460225</ele>
        <time>2026-08-28T17:25:28Z</time>
      </trkpt>
      <trkpt lat="43.76675" lon="1.66286">
        <ele>112.431709</ele>
        <time>2026-08-28T17:25:29Z</time>
      </trkpt>
      <trkpt lat="43.76676" lon="1.66293">
        <ele>112.402663</ele>
        <time>2026-08-28T17:25:30Z</time>
      </trkpt>
      <trkpt lat="43.76677" lon="1.663">
        <ele>112.373737</ele>
        <time>2026-08-28T17:25:31Z</time>
      </trkpt>
      <trkpt lat="43.76678" lon="1.66307">
        <ele>112.34347</ele>
        <time>2026-08-28T17:25:32Z</time>
      </trkpt>
      <trkpt lat="43.7668" lon="1.66314">
        <ele>112.311857</ele>
        <time>2026-08-28T17:25:33Z</time>
      </trkpt>
      <trkpt lat="43.76681" lon="1.66322">
        <ele>112.279837</ele>
        <time>2026-08-28T17:25:34Z</time>
      </trkpt>
      <trkpt lat="43.76682" lon="1.66329">
        <ele>112.247951</ele>
        <time>2026-08-28T17:25:35Z</time>
      </trkpt>
      <trkpt lat="43.76683" lon="1.66336">
        <ele>112.216207</ele>
        <time>2026-08-28T17:25:36Z</time>
      </trkpt>
      <trkpt lat="43.76685" lon="1.66344">
        <ele>112.182007</ele>
        <time>2026-08-28T17:25:37Z</time>
      </trkpt>
      <trkpt lat="43.76687" lon="1.66352">
        <ele>112.14708</ele>
        <time>2026-08-28T17:25:38Z</time>
      </trkpt>
      <trkpt lat="43.76689" lon="1.6636">
        <ele>112.11312</ele>
        <time>2026-08-28T17:25:39Z</time>
      </trkpt>
      <trkpt lat="43.7669" lon="1.66368">
        <ele>112.079214</ele>
        <time>2026-08-28T17:25:40Z</time>
      </trkpt>
      <trkpt lat="43.76691" lon="1.66376">
        <ele>112.045034</ele>
        <time>2026-08-28T17:25:41Z</time>
      </trkpt>
      <trkpt lat="43.76693" lon="1.66384">
        <ele>112.010318</ele>
        <time>2026-08-28T17:25:42Z</time>
      </trkpt>
      <trkpt lat="43.76694" lon="1.66392">
        <ele>111.974758</ele>
        <time>2026-08-28T17:25:43Z</time>
      </trkpt>
      <trkpt lat="43.76696" lon="1.66401">
        <ele>111.938951</ele>
        <time>2026-08-28T17:25:44Z</time>
      </trkpt>
      <trkpt lat="43.76697" lon="1.66408">
        <ele>111.904903</ele>
        <time>2026-08-28T17:25:45Z</time>
      </trkpt>
      <trkpt lat="43.76699" lon="1.66416">
        <ele>111.870855</ele>
        <time>2026-08-28T17:25:46Z</time>
      </trkpt>
      <trkpt lat="43.767" lon="1.66425">
        <ele>111.835596</ele>
        <time>2026-08-28T17:25:47Z</time>
      </trkpt>
      <trkpt lat="43.76702" lon="1.66433">
        <ele>111.798431</ele>
        <time>2026-08-28T17:25:48Z</time>
      </trkpt>
      <trkpt lat="43.76704" lon="1.66442">
        <ele>111.761109</ele>
        <time>2026-08-28T17:25:49Z</time>
      </trkpt>
      <trkpt lat="43.76706" lon="1.6645">
        <ele>111.723787</ele>
        <time>2026-08-28T17:25:50Z</time>
      </trkpt>
      <trkpt lat="43.76707" lon="1.66459">
        <ele>111.687024</ele>
        <time>2026-08-28T17:25:51Z</time>
      </trkpt>
      <trkpt lat="43.76709" lon="1.66467">
        <ele>111.650813</ele>
        <time>2026-08-28T17:25:52Z</time>
      </trkpt>
      <trkpt lat="43.76711" lon="1.66475">
        <ele>111.615253</ele>
        <time>2026-08-28T17:25:53Z</time>
      </trkpt>
      <trkpt lat="43.76712" lon="1.66484">
        <ele>111.580094</ele>
        <time>2026-08-28T17:25:54Z</time>
      </trkpt>
      <trkpt lat="43.76714" lon="1.66492">
        <ele>111.544835</ele>
        <time>2026-08-28T17:25:55Z</time>
      </trkpt>
      <trkpt lat="43.76715" lon="1.665">
        <ele>111.507958</ele>
        <time>2026-08-28T17:25:56Z</time>
      </trkpt>
      <trkpt lat="43.76717" lon="1.66509">
        <ele>111.473245</ele>
        <time>2026-08-28T17:25:57Z</time>
      </trkpt>
      <trkpt lat="43.76719" lon="1.66517">
        <ele>111.443256</ele>
        <time>2026-08-28T17:25:58Z</time>
      </trkpt>
      <trkpt lat="43.76721" lon="1.66525">
        <ele>111.412929</ele>
        <time>2026-08-28T17:25:59Z</time>
      </trkpt>
      <trkpt lat="43.76722" lon="1.66533">
        <ele>111.382602</ele>
        <time>2026-08-28T17:26:00Z</time>
      </trkpt>
      <trkpt lat="43.76724" lon="1.66542">
        <ele>111.351259</ele>
        <time>2026-08-28T17:26:01Z</time>
      </trkpt>
      <trkpt lat="43.76725" lon="1.6655">
        <ele>111.320842</ele>
        <time>2026-08-28T17:26:02Z</time>
      </trkpt>
      <trkpt lat="43.76727" lon="1.66559">
        <ele>111.290644</ele>
        <time>2026-08-28T17:26:03Z</time>
      </trkpt>
      <trkpt lat="43.76729" lon="1.66567">
        <ele>111.26125</ele>
        <time>2026-08-28T17:26:04Z</time>
      </trkpt>
      <trkpt lat="43.7673" lon="1.66575">
        <ele>111.230372</ele>
        <time>2026-08-28T17:26:05Z</time>
      </trkpt>
      <trkpt lat="43.76732" lon="1.66584">
        <ele>111.199368</ele>
        <time>2026-08-28T17:26:06Z</time>
      </trkpt>
      <trkpt lat="43.76733" lon="1.66592">
        <ele>111.168491</ele>
        <time>2026-08-28T17:26:07Z</time>
      </trkpt>
      <trkpt lat="43.76735" lon="1.66601">
        <ele>111.137016</ele>
        <time>2026-08-28T17:26:08Z</time>
      </trkpt>
      <trkpt lat="43.76738" lon="1.66609">
        <ele>111.105914</ele>
        <time>2026-08-28T17:26:09Z</time>
      </trkpt>
      <trkpt lat="43.76741" lon="1.66617">
        <ele>111.075698</ele>
        <time>2026-08-28T17:26:10Z</time>
      </trkpt>
      <trkpt lat="43.76743" lon="1.66624">
        <ele>111.045925</ele>
        <time>2026-08-28T17:26:11Z</time>
      </trkpt>
      <trkpt lat="43.76746" lon="1.66632">
        <ele>111.016888</ele>
        <time>2026-08-28T17:26:12Z</time>
      </trkpt>
      <trkpt lat="43.76748" lon="1.6664">
        <ele>110.987212</ele>
        <time>2026-08-28T17:26:13Z</time>
      </trkpt>
      <trkpt lat="43.76751" lon="1.66647">
        <ele>110.957013</ele>
        <time>2026-08-28T17:26:14Z</time>
      </trkpt>
      <trkpt lat="43.76754" lon="1.66655">
        <ele>110.926079</ele>
        <time>2026-08-28T17:26:15Z</time>
      </trkpt>
      <trkpt lat="43.76757" lon="1.66663">
        <ele>110.894782</ele>
        <time>2026-08-28T17:26:16Z</time>
      </trkpt>
      <trkpt lat="43.7676" lon="1.66671">
        <ele>110.862558</ele>
        <time>2026-08-28T17:26:17Z</time>
      </trkpt>
      <trkpt lat="43.76763" lon="1.66679">
        <ele>110.830644</ele>
        <time>2026-08-28T17:26:18Z</time>
      </trkpt>
      <trkpt lat="43.76766" lon="1.66687">
        <ele>110.798014</ele>
        <time>2026-08-28T17:26:19Z</time>
      </trkpt>
      <trkpt lat="43.7677" lon="1.66695">
        <ele>110.766539</ele>
        <time>2026-08-28T17:26:20Z</time>
      </trkpt>
      <trkpt lat="43.76773" lon="1.66703">
        <ele>110.734625</ele>
        <time>2026-08-28T17:26:21Z</time>
      </trkpt>
      <trkpt lat="43.76776" lon="1.66711">
        <ele>110.702785</ele>
        <time>2026-08-28T17:26:22Z</time>
      </trkpt>
      <trkpt lat="43.76779" lon="1.66719">
        <ele>110.670945</ele>
        <time>2026-08-28T17:26:23Z</time>
      </trkpt>
      <trkpt lat="43.76782" lon="1.66726">
        <ele>110.640106</ele>
        <time>2026-08-28T17:26:24Z</time>
      </trkpt>
      <trkpt lat="43.76785" lon="1.66734">
        <ele>110.60881</ele>
        <time>2026-08-28T17:26:25Z</time>
      </trkpt>
      <trkpt lat="43.76788" lon="1.66742">
        <ele>110.591041</ele>
        <time>2026-08-28T17:26:26Z</time>
      </trkpt>
      <trkpt lat="43.76791" lon="1.6675">
        <ele>110.575296</ele>
        <time>2026-08-28T17:26:27Z</time>
      </trkpt>
      <trkpt lat="43.76794" lon="1.66758">
        <ele>110.559015</ele>
        <time>2026-08-28T17:26:28Z</time>
      </trkpt>
      <trkpt lat="43.76797" lon="1.66766">
        <ele>110.543427</ele>
        <time>2026-08-28T17:26:29Z</time>
      </trkpt>
      <trkpt lat="43.768" lon="1.66774">
        <ele>110.528038</ele>
        <time>2026-08-28T17:26:30Z</time>
      </trkpt>
      <trkpt lat="43.76803" lon="1.66782">
        <ele>110.512685</ele>
        <time>2026-08-28T17:26:31Z</time>
      </trkpt>
      <trkpt lat="43.76806" lon="1.66789">
        <ele>110.497485</ele>
        <time>2026-08-28T17:26:32Z</time>
      </trkpt>
      <trkpt lat="43.76809" lon="1.66797">
        <ele>110.481552</ele>
        <time>2026-08-28T17:26:33Z</time>
      </trkpt>
      <trkpt lat="43.76813" lon="1.66805">
        <ele>110.465347</ele>
        <time>2026-08-28T17:26:34Z</time>
      </trkpt>
      <trkpt lat="43.76816" lon="1.66813">
        <ele>110.448835</ele>
        <time>2026-08-28T17:26:35Z</time>
      </trkpt>
      <trkpt lat="43.76819" lon="1.66821">
        <ele>110.432979</ele>
        <time>2026-08-28T17:26:36Z</time>
      </trkpt>
      <trkpt lat="43.76822" lon="1.66829">
        <ele>110.417279</ele>
        <time>2026-08-28T17:26:37Z</time>
      </trkpt>
      <trkpt lat="43.76825" lon="1.66837">
        <ele>110.401193</ele>
        <time>2026-08-28T17:26:38Z</time>
      </trkpt>
      <trkpt lat="43.76828" lon="1.66845">
        <ele>110.385338</ele>
        <time>2026-08-28T17:26:39Z</time>
      </trkpt>
      <trkpt lat="43.76831" lon="1.66853">
        <ele>110.369739</ele>
        <time>2026-08-28T17:26:40Z</time>
      </trkpt>
      <trkpt lat="43.76835" lon="1.66861">
        <ele>110.353807</ele>
        <time>2026-08-28T17:26:41Z</time>
      </trkpt>
      <trkpt lat="43.76838" lon="1.66868">
        <ele>110.337875</ele>
        <time>2026-08-28T17:26:42Z</time>
      </trkpt>
      <trkpt lat="43.76841" lon="1.66876">
        <ele>110.322214</ele>
        <time>2026-08-28T17:26:43Z</time>
      </trkpt>
      <trkpt lat="43.76844" lon="1.66884">
        <ele>110.306202</ele>
        <time>2026-08-28T17:26:44Z</time>
      </trkpt>
      <trkpt lat="43.76847" lon="1.66892">
        <ele>110.290658</ele>
        <time>2026-08-28T17:26:45Z</time>
      </trkpt>
      <trkpt lat="43.7685" lon="1.669">
        <ele>110.27507</ele>
        <time>2026-08-28T17:26:46Z</time>
      </trkpt>
      <trkpt lat="43.76853" lon="1.66908">
        <ele>110.259325</ele>
        <time>2026-08-28T17:26:47Z</time>
      </trkpt>
      <trkpt lat="43.76856" lon="1.66916">
        <ele>110.243738</ele>
        <time>2026-08-28T17:26:48Z</time>
      </trkpt>
      <trkpt lat="43.76859" lon="1.66924">
        <ele>110.227882</ele>
        <time>2026-08-28T17:26:49Z</time>
      </trkpt>
      <trkpt lat="43.76862" lon="1.66932">
        <ele>110.212607</ele>
        <time>2026-08-28T17:26:50Z</time>
      </trkpt>
      <trkpt lat="43.76865" lon="1.66939">
        <ele>110.197372</ele>
        <time>2026-08-28T17:26:51Z</time>
      </trkpt>
      <trkpt lat="43.76867" lon="1.66947">
        <ele>110.182408</ele>
        <time>2026-08-28T17:26:52Z</time>
      </trkpt>
      <trkpt lat="43.7687" lon="1.66954">
        <ele>110.167557</ele>
        <time>2026-08-28T17:26:53Z</time>
      </trkpt>
      <trkpt lat="43.76873" lon="1.66962">
        <ele>110.136062</ele>
        <time>2026-08-28T17:26:54Z</time>
      </trkpt>
      <trkpt lat="43.76876" lon="1.6697">
        <ele>110.102857</ele>
        <time>2026-08-28T17:26:55Z</time>
      </trkpt>
      <trkpt lat="43.76879" lon="1.66977">
        <ele>110.069982</ele>
        <time>2026-08-28T17:26:56Z</time>
      </trkpt>
      <trkpt lat="43.76882" lon="1.66985">
        <ele>110.037768</ele>
        <time>2026-08-28T17:26:57Z</time>
      </trkpt>
      <trkpt lat="43.76885" lon="1.66992">
        <ele>110.005948</ele>
        <time>2026-08-28T17:26:58Z</time>
      </trkpt>
      <trkpt lat="43.76888" lon="1.66999">
        <ele>109.974451</ele>
        <time>2026-08-28T17:26:59Z</time>
      </trkpt>
      <trkpt lat="43.76891" lon="1.67007">
        <ele>109.942852</ele>
        <time>2026-08-28T17:27:00Z</time>
      </trkpt>
      <trkpt lat="43.76894" lon="1.67015">
        <ele>109.910638</ele>
        <time>2026-08-28T17:27:01Z</time>
      </trkpt>
      <trkpt lat="43.76897" lon="1.67022">
        <ele>109.878672</ele>
        <time>2026-08-28T17:27:02Z</time>
      </trkpt>
      <trkpt lat="43.769" lon="1.6703">
        <ele>109.846171</ele>
        <time>2026-08-28T17:27:03Z</time>
      </trkpt>
      <trkpt lat="43.76903" lon="1.67038">
        <ele>109.812538</ele>
        <time>2026-08-28T17:27:04Z</time>
      </trkpt>
      <trkpt lat="43.76906" lon="1.67046">
        <ele>109.779664</ele>
        <time>2026-08-28T17:27:05Z</time>
      </trkpt>
      <trkpt lat="43.76909" lon="1.67054">
        <ele>109.744886</ele>
        <time>2026-08-28T17:27:06Z</time>
      </trkpt>
      <trkpt lat="43.76912" lon="1.67062">
        <ele>109.710109</ele>
        <time>2026-08-28T17:27:07Z</time>
      </trkpt>
      <trkpt lat="43.76915" lon="1.6707">
        <ele>109.676327</ele>
        <time>2026-08-28T17:27:08Z</time>
      </trkpt>
      <trkpt lat="43.76918" lon="1.67078">
        <ele>109.64262</ele>
        <time>2026-08-28T17:27:09Z</time>
      </trkpt>
      <trkpt lat="43.76921" lon="1.67085">
        <ele>109.609347</ele>
        <time>2026-08-28T17:27:10Z</time>
      </trkpt>
      <trkpt lat="43.76924" lon="1.67093">
        <ele>109.576507</ele>
        <time>2026-08-28T17:27:11Z</time>
      </trkpt>
      <trkpt lat="43.76927" lon="1.67101">
        <ele>109.543442</ele>
        <time>2026-08-28T17:27:12Z</time>
      </trkpt>
      <trkpt lat="43.7693" lon="1.67109">
        <ele>109.510898</ele>
        <time>2026-08-28T17:27:13Z</time>
      </trkpt>
      <trkpt lat="43.76933" lon="1.67116">
        <ele>109.477774</ele>
        <time>2026-08-28T17:27:14Z</time>
      </trkpt>
      <trkpt lat="43.76936" lon="1.67124">
        <ele>109.445476</ele>
        <time>2026-08-28T17:27:15Z</time>
      </trkpt>
      <trkpt lat="43.76939" lon="1.67132">
        <ele>109.413314</ele>
        <time>2026-08-28T17:27:16Z</time>
      </trkpt>
      <trkpt lat="43.76942" lon="1.67139">
        <ele>109.380684</ele>
        <time>2026-08-28T17:27:17Z</time>
      </trkpt>
      <trkpt lat="43.76945" lon="1.67147">
        <ele>109.346978</ele>
        <time>2026-08-28T17:27:18Z</time>
      </trkpt>
      <trkpt lat="43.76948" lon="1.67155">
        <ele>109.313853</ele>
        <time>2026-08-28T17:27:19Z</time>
      </trkpt>
      <trkpt lat="43.76951" lon="1.67162">
        <ele>109.28098</ele>
        <time>2026-08-28T17:27:20Z</time>
      </trkpt>
      <trkpt lat="43.76954" lon="1.6717">
        <ele>109.247775</ele>
        <time>2026-08-28T17:27:21Z</time>
      </trkpt>
      <trkpt lat="43.76957" lon="1.67178">
        <ele>109.22998</ele>
        <time>2026-08-28T17:27:22Z</time>
      </trkpt>
      <trkpt lat="43.7696" lon="1.67186">
        <ele>109.228896</ele>
        <time>2026-08-28T17:27:23Z</time>
      </trkpt>
      <trkpt lat="43.76963" lon="1.67194">
        <ele>109.227787</ele>
        <time>2026-08-28T17:27:24Z</time>
      </trkpt>
      <trkpt lat="43.76966" lon="1.67202">
        <ele>109.226708</ele>
        <time>2026-08-28T17:27:25Z</time>
      </trkpt>
      <trkpt lat="43.76969" lon="1.67209">
        <ele>109.225648</ele>
        <time>2026-08-28T17:27:26Z</time>
      </trkpt>
      <trkpt lat="43.76972" lon="1.67217">
        <ele>109.224585</ele>
        <time>2026-08-28T17:27:27Z</time>
      </trkpt>
      <trkpt lat="43.76975" lon="1.67225">
        <ele>109.223497</ele>
        <time>2026-08-28T17:27:28Z</time>
      </trkpt>
      <trkpt lat="43.76978" lon="1.67233">
        <ele>109.222372</ele>
        <time>2026-08-28T17:27:29Z</time>
      </trkpt>
      <trkpt lat="43.7698" lon="1.67241">
        <ele>109.221284</ele>
        <time>2026-08-28T17:27:30Z</time>
      </trkpt>
      <trkpt lat="43.76983" lon="1.67249">
        <ele>109.22018</ele>
        <time>2026-08-28T17:27:31Z</time>
      </trkpt>
      <trkpt lat="43.76986" lon="1.67257">
        <ele>109.21908</ele>
        <time>2026-08-28T17:27:32Z</time>
      </trkpt>
      <trkpt lat="43.7699" lon="1.67265">
        <ele>109.21799</ele>
        <time>2026-08-28T17:27:33Z</time>
      </trkpt>
      <trkpt lat="43.76993" lon="1.67273">
        <ele>109.216879</ele>
        <time>2026-08-28T17:27:34Z</time>
      </trkpt>
      <trkpt lat="43.76996" lon="1.6728">
        <ele>109.215791</ele>
        <time>2026-08-28T17:27:35Z</time>
      </trkpt>
      <trkpt lat="43.76999" lon="1.67288">
        <ele>109.214712</ele>
        <time>2026-08-28T17:27:36Z</time>
      </trkpt>
      <trkpt lat="43.77002" lon="1.67296">
        <ele>109.21366</ele>
        <time>2026-08-28T17:27:37Z</time>
      </trkpt>
      <trkpt lat="43.77005" lon="1.67303">
        <ele>109.212597</ele>
        <time>2026-08-28T17:27:38Z</time>
      </trkpt>
      <trkpt lat="43.77008" lon="1.67311">
        <ele>109.211537</ele>
        <time>2026-08-28T17:27:39Z</time>
      </trkpt>
      <trkpt lat="43.77011" lon="1.67319">
        <ele>109.210445</ele>
        <time>2026-08-28T17:27:40Z</time>
      </trkpt>
      <trkpt lat="43.77014" lon="1.67327">
        <ele>109.209376</ele>
        <time>2026-08-28T17:27:41Z</time>
      </trkpt>
      <trkpt lat="43.77017" lon="1.67334">
        <ele>109.208316</ele>
        <time>2026-08-28T17:27:42Z</time>
      </trkpt>
      <trkpt lat="43.7702" lon="1.67342">
        <ele>109.207237</ele>
        <time>2026-08-28T17:27:43Z</time>
      </trkpt>
      <trkpt lat="43.77023" lon="1.6735">
        <ele>109.206147</ele>
        <time>2026-08-28T17:27:44Z</time>
      </trkpt>
      <trkpt lat="43.77026" lon="1.67358">
        <ele>109.205055</ele>
        <time>2026-08-28T17:27:45Z</time>
      </trkpt>
      <trkpt lat="43.77029" lon="1.67366">
        <ele>109.203952</ele>
        <time>2026-08-28T17:27:46Z</time>
      </trkpt>
      <trkpt lat="43.77032" lon="1.67374">
        <ele>109.202856</ele>
        <time>2026-08-28T17:27:47Z</time>
      </trkpt>
      <trkpt lat="43.77035" lon="1.67381">
        <ele>109.201782</ele>
        <time>2026-08-28T17:27:48Z</time>
      </trkpt>
      <trkpt lat="43.77038" lon="1.67389">
        <ele>109.2007</ele>
        <time>2026-08-28T17:27:49Z</time>
      </trkpt>
      <trkpt lat="43.77041" lon="1.67397">
        <ele>109.198807</ele>
        <time>2026-08-28T17:27:50Z</time>
      </trkpt>
      <trkpt lat="43.77044" lon="1.67404">
        <ele>109.19532</ele>
        <time>2026-08-28T17:27:51Z</time>
      </trkpt>
      <trkpt lat="43.77047" lon="1.67412">
        <ele>109.191887</ele>
        <time>2026-08-28T17:27:52Z</time>
      </trkpt>
      <trkpt lat="43.7705" lon="1.6742">
        <ele>109.188445</ele>
        <time>2026-08-28T17:27:53Z</time>
      </trkpt>
      <trkpt lat="43.77053" lon="1.67427">
        <ele>109.185011</ele>
        <time>2026-08-28T17:27:54Z</time>
      </trkpt>
      <trkpt lat="43.77056" lon="1.67435">
        <ele>109.181517</ele>
        <time>2026-08-28T17:27:55Z</time>
      </trkpt>
      <trkpt lat="43.77059" lon="1.67443">
        <ele>109.178075</ele>
        <time>2026-08-28T17:27:56Z</time>
      </trkpt>
      <trkpt lat="43.77062" lon="1.67451">
        <ele>109.174572</ele>
        <time>2026-08-28T17:27:57Z</time>
      </trkpt>
      <trkpt lat="43.77065" lon="1.67459">
        <ele>109.170973</ele>
        <time>2026-08-28T17:27:58Z</time>
      </trkpt>
      <trkpt lat="43.77068" lon="1.67466">
        <ele>109.167452</ele>
        <time>2026-08-28T17:27:59Z</time>
      </trkpt>
      <trkpt lat="43.77071" lon="1.67474">
        <ele>109.164061</ele>
        <time>2026-08-28T17:28:00Z</time>
      </trkpt>
      <trkpt lat="43.77074" lon="1.67481">
        <ele>109.160593</ele>
        <time>2026-08-28T17:28:01Z</time>
      </trkpt>
      <trkpt lat="43.77077" lon="1.67489">
        <ele>109.157019</ele>
        <time>2026-08-28T17:28:02Z</time>
      </trkpt>
      <trkpt lat="43.77081" lon="1.67497">
        <ele>109.153394</ele>
        <time>2026-08-28T17:28:03Z</time>
      </trkpt>
      <trkpt lat="43.77084" lon="1.67505">
        <ele>109.149804</ele>
        <time>2026-08-28T17:28:04Z</time>
      </trkpt>
      <trkpt lat="43.77087" lon="1.67513">
        <ele>109.146205</ele>
        <time>2026-08-28T17:28:05Z</time>
      </trkpt>
      <trkpt lat="43.7709" lon="1.67521">
        <ele>109.142656</ele>
        <time>2026-08-28T17:28:06Z</time>
      </trkpt>
      <trkpt lat="43.77093" lon="1.67529">
        <ele>109.139107</ele>
        <time>2026-08-28T17:28:07Z</time>
      </trkpt>
      <trkpt lat="43.77097" lon="1.67536">
        <ele>109.135551</ele>
        <time>2026-08-28T17:28:08Z</time>
      </trkpt>
      <trkpt lat="43.771" lon="1.67544">
        <ele>109.132003</ele>
        <time>2026-08-28T17:28:09Z</time>
      </trkpt>
      <trkpt lat="43.77102" lon="1.67552">
        <ele>109.128562</ele>
        <time>2026-08-28T17:28:10Z</time>
      </trkpt>
      <trkpt lat="43.77105" lon="1.6756">
        <ele>109.125073</ele>
        <time>2026-08-28T17:28:11Z</time>
      </trkpt>
      <trkpt lat="43.77108" lon="1.67567">
        <ele>109.121856</ele>
        <time>2026-08-28T17:28:12Z</time>
      </trkpt>
      <trkpt lat="43.77111" lon="1.67573">
        <ele>109.119091</ele>
        <time>2026-08-28T17:28:13Z</time>
      </trkpt>
      <trkpt lat="43.77113" lon="1.67578">
        <ele>109.116841</ele>
        <time>2026-08-28T17:28:14Z</time>
      </trkpt>
      <trkpt lat="43.77114" lon="1.67582">
        <ele>109.114828</ele>
        <time>2026-08-28T17:28:15Z</time>
      </trkpt>
      <trkpt lat="43.77116" lon="1.67587">
        <ele>109.11283</ele>
        <time>2026-08-28T17:28:16Z</time>
      </trkpt>
      <trkpt lat="43.77118" lon="1.67591">
        <ele>109.110865</ele>
        <time>2026-08-28T17:28:17Z</time>
      </trkpt>
      <trkpt lat="43.7712" lon="1.67596">
        <ele>109.108739</ele>
        <time>2026-08-28T17:28:18Z</time>
      </trkpt>
      <trkpt lat="43.7712" lon="1.67601">
        <ele>109.106588</ele>
        <time>2026-08-28T17:28:19Z</time>
      </trkpt>
      <trkpt lat="43.7712" lon="1.67607">
        <ele>109.104362</ele>
        <time>2026-08-28T17:28:20Z</time>
      </trkpt>
      <trkpt lat="43.7712" lon="1.67613">
        <ele>109.101943</ele>
        <time>2026-08-28T17:28:21Z</time>
      </trkpt>
      <trkpt lat="43.77121" lon="1.67619">
        <ele>109.098848</ele>
        <time>2026-08-28T17:28:22Z</time>
      </trkpt>
      <trkpt lat="43.77123" lon="1.67625">
        <ele>109.095157</ele>
        <time>2026-08-28T17:28:23Z</time>
      </trkpt>
      <trkpt lat="43.77126" lon="1.67629">
        <ele>109.091379</ele>
        <time>2026-08-28T17:28:24Z</time>
      </trkpt>
      <trkpt lat="43.7713" lon="1.67634">
        <ele>109.087335</ele>
        <time>2026-08-28T17:28:25Z</time>
      </trkpt>
      <trkpt lat="43.77134" lon="1.6764">
        <ele>109.083191</ele>
        <time>2026-08-28T17:28:26Z</time>
      </trkpt>
      <trkpt lat="43.77137" lon="1.67646">
        <ele>109.078922</ele>
        <time>2026-08-28T17:28:27Z</time>
      </trkpt>
      <trkpt lat="43.77139" lon="1.67654">
        <ele>109.074384</ele>
        <time>2026-08-28T17:28:28Z</time>
      </trkpt>
      <trkpt lat="43.77141" lon="1.67661">
        <ele>109.069928</ele>
        <time>2026-08-28T17:28:29Z</time>
      </trkpt>
      <trkpt lat="43.77144" lon="1.67668">
        <ele>109.065325</ele>
        <time>2026-08-28T17:28:30Z</time>
      </trkpt>
      <trkpt lat="43.77147" lon="1.67675">
        <ele>109.060762</ele>
        <time>2026-08-28T17:28:31Z</time>
      </trkpt>
      <trkpt lat="43.7715" lon="1.67683">
        <ele>109.056032</ele>
        <time>2026-08-28T17:28:32Z</time>
      </trkpt>
      <trkpt lat="43.77153" lon="1.6769">
        <ele>109.05137</ele>
        <time>2026-08-28T17:28:33Z</time>
      </trkpt>
      <trkpt lat="43.77156" lon="1.67697">
        <ele>109.046746</ele>
        <time>2026-08-28T17:28:34Z</time>
      </trkpt>
      <trkpt lat="43.77159" lon="1.67704">
        <ele>109.042151</ele>
        <time>2026-08-28T17:28:35Z</time>
      </trkpt>
      <trkpt lat="43.77162" lon="1.67711">
        <ele>109.037539</ele>
        <time>2026-08-28T17:28:36Z</time>
      </trkpt>
      <trkpt lat="43.77165" lon="1.67719">
        <ele>109.032865</ele>
        <time>2026-08-28T17:28:37Z</time>
      </trkpt>
      <trkpt lat="43.77168" lon="1.67726">
        <ele>109.028214</ele>
        <time>2026-08-28T17:28:38Z</time>
      </trkpt>
      <trkpt lat="43.77171" lon="1.67733">
        <ele>109.023668</ele>
        <time>2026-08-28T17:28:39Z</time>
      </trkpt>
      <trkpt lat="43.77174" lon="1.6774">
        <ele>109.019288</ele>
        <time>2026-08-28T17:28:40Z</time>
      </trkpt>
      <trkpt lat="43.77177" lon="1.67747">
        <ele>109.014898</ele>
        <time>2026-08-28T17:28:41Z</time>
      </trkpt>
      <trkpt lat="43.77179" lon="1.67754">
        <ele>109.010458</ele>
        <time>2026-08-28T17:28:42Z</time>
      </trkpt>
      <trkpt lat="43.77182" lon="1.67761">
        <ele>109.006038</ele>
        <time>2026-08-28T17:28:43Z</time>
      </trkpt>
      <trkpt lat="43.77185" lon="1.67768">
        <ele>109.001426</ele>
        <time>2026-08-28T17:28:44Z</time>
      </trkpt>
      <trkpt lat="43.77188" lon="1.67774">
        <ele>108.997154</ele>
        <time>2026-08-28T17:28:45Z</time>
      </trkpt>
      <trkpt lat="43.77193" lon="1.67777">
        <ele>108.993354</ele>
        <time>2026-08-28T17:28:46Z</time>
      </trkpt>
      <trkpt lat="43.77197" lon="1.67777">
        <ele>108.989635</ele>
        <time>2026-08-28T17:28:47Z</time>
      </trkpt>
      <trkpt lat="43.77202" lon="1.67774">
        <ele>108.986024</ele>
        <time>2026-08-28T17:28:48Z</time>
      </trkpt>
      <trkpt lat="43.77205" lon="1.67771">
        <ele>108.982673</ele>
        <time>2026-08-28T17:28:49Z</time>
      </trkpt>
      <trkpt lat="43.77209" lon="1.67768">
        <ele>108.979446</ele>
        <time>2026-08-28T17:28:50Z</time>
      </trkpt>
      <trkpt lat="43.77213" lon="1.67765">
        <ele>108.975934</ele>
        <time>2026-08-28T17:28:51Z</time>
      </trkpt>
      <trkpt lat="43.77216" lon="1.67761">
        <ele>108.972558</ele>
        <time>2026-08-28T17:28:52Z</time>
      </trkpt>
      <trkpt lat="43.7722" lon="1.67758">
        <ele>108.969303</ele>
        <time>2026-08-28T17:28:53Z</time>
      </trkpt>
      <trkpt lat="43.77223" lon="1.67754">
        <ele>108.965641</ele>
        <time>2026-08-28T17:28:54Z</time>
      </trkpt>
      <trkpt lat="43.77227" lon="1.6775">
        <ele>108.96222</ele>
        <time>2026-08-28T17:28:55Z</time>
      </trkpt>
      <trkpt lat="43.7723" lon="1.67746">
        <ele>108.977298</ele>
        <time>2026-08-28T17:28:56Z</time>
      </trkpt>
      <trkpt lat="43.77233" lon="1.67742">
        <ele>108.995761</ele>
        <time>2026-08-28T17:28:57Z</time>
      </trkpt>
      <trkpt lat="43.77237" lon="1.67738">
        <ele>109.014537</ele>
        <time>2026-08-28T17:28:58Z</time>
      </trkpt>
      <trkpt lat="43.7724" lon="1.67735">
        <ele>109.032703</ele>
        <time>2026-08-28T17:28:59Z</time>
      </trkpt>
      <trkpt lat="43.77244" lon="1.67732">
        <ele>109.05143</ele>
        <time>2026-08-28T17:29:00Z</time>
      </trkpt>
      <trkpt lat="43.77248" lon="1.67729">
        <ele>109.070337</ele>
        <time>2026-08-28T17:29:01Z</time>
      </trkpt>
      <trkpt lat="43.77253" lon="1.67727">
        <ele>109.089719</ele>
        <time>2026-08-28T17:29:02Z</time>
      </trkpt>
      <trkpt lat="43.77258" lon="1.67726">
        <ele>109.109981</ele>
        <time>2026-08-28T17:29:03Z</time>
      </trkpt>
      <trkpt lat="43.77263" lon="1.67727">
        <ele>109.130978</ele>
        <time>2026-08-28T17:29:04Z</time>
      </trkpt>
      <trkpt lat="43.77268" lon="1.67728">
        <ele>109.152284</ele>
        <time>2026-08-28T17:29:05Z</time>
      </trkpt>
      <trkpt lat="43.77273" lon="1.67731">
        <ele>109.174928</ele>
        <time>2026-08-28T17:29:06Z</time>
      </trkpt>
      <trkpt lat="43.77278" lon="1.67733">
        <ele>109.196675</ele>
        <time>2026-08-28T17:29:07Z</time>
      </trkpt>
      <trkpt lat="43.77283" lon="1.67736">
        <ele>109.218422</ele>
        <time>2026-08-28T17:29:08Z</time>
      </trkpt>
      <trkpt lat="43.77287" lon="1.67738">
        <ele>109.239389</ele>
        <time>2026-08-28T17:29:09Z</time>
      </trkpt>
      <trkpt lat="43.77292" lon="1.67741">
        <ele>109.26008</ele>
        <time>2026-08-28T17:29:10Z</time>
      </trkpt>
      <trkpt lat="43.77296" lon="1.67744">
        <ele>109.280751</ele>
        <time>2026-08-28T17:29:11Z</time>
      </trkpt>
      <trkpt lat="43.77301" lon="1.67746">
        <ele>109.301421</ele>
        <time>2026-08-28T17:29:12Z</time>
      </trkpt>
      <trkpt lat="43.77305" lon="1.67749">
        <ele>109.321209</ele>
        <time>2026-08-28T17:29:13Z</time>
      </trkpt>
      <trkpt lat="43.77309" lon="1.67752">
        <ele>109.340754</ele>
        <time>2026-08-28T17:29:14Z</time>
      </trkpt>
      <trkpt lat="43.77314" lon="1.67755">
        <ele>109.361959</ele>
        <time>2026-08-28T17:29:15Z</time>
      </trkpt>
      <trkpt lat="43.77318" lon="1.67759">
        <ele>109.382798</ele>
        <time>2026-08-28T17:29:16Z</time>
      </trkpt>
      <trkpt lat="43.77323" lon="1.67762">
        <ele>109.403724</ele>
        <time>2026-08-28T17:29:17Z</time>
      </trkpt>
      <trkpt lat="43.77327" lon="1.67766">
        <ele>109.424269</ele>
        <time>2026-08-28T17:29:18Z</time>
      </trkpt>
      <trkpt lat="43.77331" lon="1.6777">
        <ele>109.445162</ele>
        <time>2026-08-28T17:29:19Z</time>
      </trkpt>
      <trkpt lat="43.77335" lon="1.67774">
        <ele>109.46625</ele>
        <time>2026-08-28T17:29:20Z</time>
      </trkpt>
      <trkpt lat="43.77339" lon="1.67779">
        <ele>109.488608</ele>
        <time>2026-08-28T17:29:21Z</time>
      </trkpt>
      <trkpt lat="43.77343" lon="1.67784">
        <ele>109.510349</ele>
        <time>2026-08-28T17:29:22Z</time>
      </trkpt>
      <trkpt lat="43.77346" lon="1.6779">
        <ele>109.532672</ele>
        <time>2026-08-28T17:29:23Z</time>
      </trkpt>
      <trkpt lat="43.7735" lon="1.67795">
        <ele>109.555137</ele>
        <time>2026-08-28T17:29:24Z</time>
      </trkpt>
      <trkpt lat="43.77353" lon="1.67802">
        <ele>109.577568</ele>
        <time>2026-08-28T17:29:25Z</time>
      </trkpt>
      <trkpt lat="43.77356" lon="1.67808">
        <ele>109.599814</ele>
        <time>2026-08-28T17:29:26Z</time>
      </trkpt>
      <trkpt lat="43.77358" lon="1.67814">
        <ele>109.620775</ele>
        <time>2026-08-28T17:29:27Z</time>
      </trkpt>
      <trkpt lat="43.7736" lon="1.67821">
        <ele>109.642362</ele>
        <time>2026-08-28T17:29:28Z</time>
      </trkpt>
      <trkpt lat="43.77362" lon="1.67827">
        <ele>109.663501</ele>
        <time>2026-08-28T17:29:29Z</time>
      </trkpt>
      <trkpt lat="43.77364" lon="1.67833">
        <ele>109.684196</ele>
        <time>2026-08-28T17:29:30Z</time>
      </trkpt>
      <trkpt lat="43.77366" lon="1.67839">
        <ele>109.70479</ele>
        <time>2026-08-28T17:29:31Z</time>
      </trkpt>
      <trkpt lat="43.77368" lon="1.67846">
        <ele>109.72555</ele>
        <time>2026-08-28T17:29:32Z</time>
      </trkpt>
      <trkpt lat="43.7737" lon="1.67852">
        <ele>109.747239</ele>
        <time>2026-08-28T17:29:33Z</time>
      </trkpt>
      <trkpt lat="43.77372" lon="1.67859">
        <ele>109.76951</ele>
        <time>2026-08-28T17:29:34Z</time>
      </trkpt>
      <trkpt lat="43.77374" lon="1.67866">
        <ele>109.792225</ele>
        <time>2026-08-28T17:29:35Z</time>
      </trkpt>
      <trkpt lat="43.77375" lon="1.67872">
        <ele>109.81347</ele>
        <time>2026-08-28T17:29:36Z</time>
      </trkpt>
      <trkpt lat="43.77377" lon="1.67879">
        <ele>109.835449</ele>
        <time>2026-08-28T17:29:37Z</time>
      </trkpt>
      <trkpt lat="43.77378" lon="1.67886">
        <ele>109.857463</ele>
        <time>2026-08-28T17:29:38Z</time>
      </trkpt>
      <trkpt lat="43.77379" lon="1.67892">
        <ele>109.878005</ele>
        <time>2026-08-28T17:29:39Z</time>
      </trkpt>
      <trkpt lat="43.7738" lon="1.67899">
        <ele>109.899161</ele>
        <time>2026-08-28T17:29:40Z</time>
      </trkpt>
      <trkpt lat="43.7738" lon="1.67906">
        <ele>109.922005</ele>
        <time>2026-08-28T17:29:41Z</time>
      </trkpt>
      <trkpt lat="43.77381" lon="1.67913">
        <ele>109.944473</ele>
        <time>2026-08-28T17:29:42Z</time>
      </trkpt>
      <trkpt lat="43.77381" lon="1.67921">
        <ele>109.967839</ele>
        <time>2026-08-28T17:29:43Z</time>
      </trkpt>
      <trkpt lat="43.77381" lon="1.67928">
        <ele>109.990728</ele>
        <time>2026-08-28T17:29:44Z</time>
      </trkpt>
      <trkpt lat="43.77383" lon="1.67935">
        <ele>110.013476</ele>
        <time>2026-08-28T17:29:45Z</time>
      </trkpt>
      <trkpt lat="43.77385" lon="1.67941">
        <ele>110.035277</ele>
        <time>2026-08-28T17:29:46Z</time>
      </trkpt>
      <trkpt lat="43.77388" lon="1.67946">
        <ele>110.055237</ele>
        <time>2026-08-28T17:29:47Z</time>
      </trkpt>
      <trkpt lat="43.7739" lon="1.67951">
        <ele>110.073705</ele>
        <time>2026-08-28T17:29:48Z</time>
      </trkpt>
      <trkpt lat="43.77393" lon="1.67955">
        <ele>110.091245</ele>
        <time>2026-08-28T17:29:49Z</time>
      </trkpt>
      <trkpt lat="43.77396" lon="1.67958">
        <ele>110.107583</ele>
        <time>2026-08-28T17:29:50Z</time>
      </trkpt>
      <trkpt lat="43.77399" lon="1.67961">
        <ele>110.12365</ele>
        <time>2026-08-28T17:29:51Z</time>
      </trkpt>
      <trkpt lat="43.77402" lon="1.67964">
        <ele>110.13825</ele>
        <time>2026-08-28T17:29:52Z</time>
      </trkpt>
      <trkpt lat="43.77404" lon="1.67967">
        <ele>110.15246</ele>
        <time>2026-08-28T17:29:53Z</time>
      </trkpt>
      <trkpt lat="43.77407" lon="1.6797">
        <ele>110.165765</ele>
        <time>2026-08-28T17:29:54Z</time>
      </trkpt>
      <trkpt lat="43.77409" lon="1.67972">
        <ele>110.179105</ele>
        <time>2026-08-28T17:29:55Z</time>
      </trkpt>
      <trkpt lat="43.77411" lon="1.67975">
        <ele>110.191305</ele>
        <time>2026-08-28T17:29:56Z</time>
      </trkpt>
      <trkpt lat="43.77413" lon="1.67979">
        <ele>110.204043</ele>
        <time>2026-08-28T17:29:57Z</time>
      </trkpt>
      <trkpt lat="43.77414" lon="1.67983">
        <ele>110.217143</ele>
        <time>2026-08-28T17:29:58Z</time>
      </trkpt>
      <trkpt lat="43.77415" lon="1.67986">
        <ele>110.229962</ele>
        <time>2026-08-28T17:29:59Z</time>
      </trkpt>
      <trkpt lat="43.77417" lon="1.67989">
        <ele>110.240575</ele>
        <time>2026-08-28T17:30:00Z</time>
      </trkpt>
      <trkpt lat="43.77418" lon="1.67992">
        <ele>110.251456</ele>
        <time>2026-08-28T17:30:01Z</time>
      </trkpt>
      <trkpt lat="43.7742" lon="1.67994">
        <ele>110.26193</ele>
        <time>2026-08-28T17:30:02Z</time>
      </trkpt>
      <trkpt lat="43.77422" lon="1.67997">
        <ele>110.272628</ele>
        <time>2026-08-28T17:30:03Z</time>
      </trkpt>
      <trkpt lat="43.77423" lon="1.67999">
        <ele>110.282882</ele>
        <time>2026-08-28T17:30:04Z</time>
      </trkpt>
      <trkpt lat="43.77425" lon="1.68001">
        <ele>110.293058</ele>
        <time>2026-08-28T17:30:05Z</time>
      </trkpt>
      <trkpt lat="43.77427" lon="1.68003">
        <ele>110.303522</ele>
        <time>2026-08-28T17:30:06Z</time>
      </trkpt>
      <trkpt lat="43.77429" lon="1.68004">
        <ele>110.313994</ele>
        <time>2026-08-28T17:30:07Z</time>
      </trkpt>
      <trkpt lat="43.77432" lon="1.68002">
        <ele>110.324833</ele>
        <time>2026-08-28T17:30:08Z</time>
      </trkpt>
      <trkpt lat="43.77434" lon="1.68001">
        <ele>110.334823</ele>
        <time>2026-08-28T17:30:09Z</time>
      </trkpt>
      <trkpt lat="43.77436" lon="1.68001">
        <ele>110.344751</ele>
        <time>2026-08-28T17:30:10Z</time>
      </trkpt>
      <trkpt lat="43.77439" lon="1.68002">
        <ele>110.354718</ele>
        <time>2026-08-28T17:30:11Z</time>
      </trkpt>
      <trkpt lat="43.77441" lon="1.68002">
        <ele>110.363347</ele>
        <time>2026-08-28T17:30:12Z</time>
      </trkpt>
      <trkpt lat="43.77442" lon="1.68001">
        <ele>110.370313</ele>
        <time>2026-08-28T17:30:13Z</time>
      </trkpt>
      <trkpt lat="43.77444" lon="1.68002">
        <ele>110.376426</ele>
        <time>2026-08-28T17:30:14Z</time>
      </trkpt>
      <trkpt lat="43.77445" lon="1.68002">
        <ele>110.384492</ele>
        <time>2026-08-28T17:30:15Z</time>
      </trkpt>
      <trkpt lat="43.77448" lon="1.68004">
        <ele>110.395728</ele>
        <time>2026-08-28T17:30:16Z</time>
      </trkpt>
      <trkpt lat="43.7745" lon="1.68006">
        <ele>110.408507</ele>
        <time>2026-08-28T17:30:17Z</time>
      </trkpt>
      <trkpt lat="43.77453" lon="1.68009">
        <ele>110.421516</ele>
        <time>2026-08-28T17:30:18Z</time>
      </trkpt>
      <trkpt lat="43.77455" lon="1.68012">
        <ele>110.434311</ele>
        <time>2026-08-28T17:30:19Z</time>
      </trkpt>
      <trkpt lat="43.77457" lon="1.68014">
        <ele>110.446259</ele>
        <time>2026-08-28T17:30:20Z</time>
      </trkpt>
      <trkpt lat="43.77459" lon="1.68016">
        <ele>110.456825</ele>
        <time>2026-08-28T17:30:21Z</time>
      </trkpt>
      <trkpt lat="43.7746" lon="1.68018">
        <ele>110.467122</ele>
        <time>2026-08-28T17:30:22Z</time>
      </trkpt>
      <trkpt lat="43.77462" lon="1.6802">
        <ele>110.47635</ele>
        <time>2026-08-28T17:30:23Z</time>
      </trkpt>
      <trkpt lat="43.77464" lon="1.68022">
        <ele>110.485443</ele>
        <time>2026-08-28T17:30:24Z</time>
      </trkpt>
      <trkpt lat="43.77465" lon="1.68025">
        <ele>110.48035</ele>
        <time>2026-08-28T17:30:25Z</time>
      </trkpt>
      <trkpt lat="43.77466" lon="1.68027">
        <ele>110.472727</ele>
        <time>2026-08-28T17:30:26Z</time>
      </trkpt>
      <trkpt lat="43.77468" lon="1.68029">
        <ele>110.463935</ele>
        <time>2026-08-28T17:30:27Z</time>
      </trkpt>
      <trkpt lat="43.7747" lon="1.68032">
        <ele>110.453796</ele>
        <time>2026-08-28T17:30:28Z</time>
      </trkpt>
      <trkpt lat="43.77473" lon="1.68033">
        <ele>110.443825</ele>
        <time>2026-08-28T17:30:29Z</time>
      </trkpt>
      <trkpt lat="43.77475" lon="1.68035">
        <ele>110.435816</ele>
        <time>2026-08-28T17:30:30Z</time>
      </trkpt>
      <trkpt lat="43.77476" lon="1.68036">
        <ele>110.42856</ele>
        <time>2026-08-28T17:30:31Z</time>
      </trkpt>
      <trkpt lat="43.77478" lon="1.68036">
        <ele>110.4231</ele>
        <time>2026-08-28T17:30:32Z</time>
      </trkpt>
      <trkpt lat="43.77479" lon="1.68036">
        <ele>110.419035</ele>
        <time>2026-08-28T17:30:33Z</time>
      </trkpt>
      <trkpt lat="43.77479" lon="1.68036">
        <ele>110.418154</ele>
        <time>2026-08-28T17:30:34Z</time>
      </trkpt>
      <trkpt lat="43.77479" lon="1.68037">
        <ele>110.415509</ele>
        <time>2026-08-28T17:30:35Z</time>
      </trkpt>
      <trkpt lat="43.77479" lon="1.68041">
        <ele>110.403632</ele>
        <time>2026-08-28T17:34:26Z</time>
      </trkpt>
      <trkpt lat="43.7748" lon="1.68044">
        <ele>110.394769</ele>
        <time>2026-08-28T17:34:27Z</time>
      </trkpt>
      <trkpt lat="43.77481" lon="1.68047">
        <ele>110.385893</ele>
        <time>2026-08-28T17:34:28Z</time>
      </trkpt>
      <trkpt lat="43.7748" lon="1.68051">
        <ele>110.376271</ele>
        <time>2026-08-28T17:34:29Z</time>
      </trkpt>
      <trkpt lat="43.77479" lon="1.68053">
        <ele>110.367419</ele>
        <time>2026-08-28T17:34:30Z</time>
      </trkpt>
      <trkpt lat="43.77476" lon="1.68054">
        <ele>110.358597</ele>
        <time>2026-08-28T17:34:31Z</time>
      </trkpt>
      <trkpt lat="43.77473" lon="1.68055">
        <ele>110.347771</ele>
        <time>2026-08-28T17:34:32Z</time>
      </trkpt>
      <trkpt lat="43.77471" lon="1.68059">
        <ele>110.336224</ele>
        <time>2026-08-28T17:34:33Z</time>
      </trkpt>
      <trkpt lat="43.7747" lon="1.68063">
        <ele>110.325055</ele>
        <time>2026-08-28T17:34:34Z</time>
      </trkpt>
      <trkpt lat="43.77471" lon="1.68068">
        <ele>110.312329</ele>
        <time>2026-08-28T17:34:35Z</time>
      </trkpt>
      <trkpt lat="43.77472" lon="1.68072">
        <ele>110.299845</ele>
        <time>2026-08-28T17:34:36Z</time>
      </trkpt>
      <trkpt lat="43.77475" lon="1.68075">
        <ele>110.2889</ele>
        <time>2026-08-28T17:34:37Z</time>
      </trkpt>
      <trkpt lat="43.77477" lon="1.68077">
        <ele>110.27889</ele>
        <time>2026-08-28T17:34:38Z</time>
      </trkpt>
      <trkpt lat="43.77479" lon="1.6808">
        <ele>110.267869</ele>
        <time>2026-08-28T17:34:39Z</time>
      </trkpt>
      <trkpt lat="43.77482" lon="1.68083">
        <ele>110.256752</ele>
        <time>2026-08-28T17:34:40Z</time>
      </trkpt>
      <trkpt lat="43.77484" lon="1.68085">
        <ele>110.246587</ele>
        <time>2026-08-28T17:34:41Z</time>
      </trkpt>
      <trkpt lat="43.77485" lon="1.68089">
        <ele>110.235914</ele>
        <time>2026-08-28T17:34:42Z</time>
      </trkpt>
      <trkpt lat="43.77487" lon="1.68092">
        <ele>110.225869</ele>
        <time>2026-08-28T17:34:43Z</time>
      </trkpt>
      <trkpt lat="43.77488" lon="1.68095">
        <ele>110.216018</ele>
        <time>2026-08-28T17:34:44Z</time>
      </trkpt>
      <trkpt lat="43.77488" lon="1.68099">
        <ele>110.205896</ele>
        <time>2026-08-28T17:34:45Z</time>
      </trkpt>
      <trkpt lat="43.77489" lon="1.68104">
        <ele>110.19434</ele>
        <time>2026-08-28T17:34:46Z</time>
      </trkpt>
      <trkpt lat="43.77489" lon="1.68108">
        <ele>110.182704</ele>
        <time>2026-08-28T17:34:47Z</time>
      </trkpt>
      <trkpt lat="43.77489" lon="1.68113">
        <ele>110.170747</ele>
        <time>2026-08-28T17:34:48Z</time>
      </trkpt>
      <trkpt lat="43.77488" lon="1.68117">
        <ele>110.158362</ele>
        <time>2026-08-28T17:34:49Z</time>
      </trkpt>
      <trkpt lat="43.77487" lon="1.68122">
        <ele>110.146705</ele>
        <time>2026-08-28T17:34:50Z</time>
      </trkpt>
      <trkpt lat="43.77486" lon="1.68126">
        <ele>110.134445</ele>
        <time>2026-08-28T17:34:51Z</time>
      </trkpt>
      <trkpt lat="43.77486" lon="1.68131">
        <ele>110.121536</ele>
        <time>2026-08-28T17:34:52Z</time>
      </trkpt>
      <trkpt lat="43.77486" lon="1.68136">
        <ele>110.107946</ele>
        <time>2026-08-28T17:34:53Z</time>
      </trkpt>
      <trkpt lat="43.77487" lon="1.68142">
        <ele>110.093559</ele>
        <time>2026-08-28T17:34:54Z</time>
      </trkpt>
      <trkpt lat="43.77488" lon="1.68147">
        <ele>110.078501</ele>
        <time>2026-08-28T17:34:55Z</time>
      </trkpt>
      <trkpt lat="43.77488" lon="1.68153">
        <ele>110.064044</ele>
        <time>2026-08-28T17:34:56Z</time>
      </trkpt>
      <trkpt lat="43.77488" lon="1.68158">
        <ele>110.050139</ele>
        <time>2026-08-28T17:34:57Z</time>
      </trkpt>
      <trkpt lat="43.77487" lon="1.68163">
        <ele>110.036296</ele>
        <time>2026-08-28T17:34:58Z</time>
      </trkpt>
      <trkpt lat="43.77485" lon="1.68169">
        <ele>110.021361</ele>
        <time>2026-08-28T17:34:59Z</time>
      </trkpt>
      <trkpt lat="43.77484" lon="1.68174">
        <ele>110.007129</ele>
        <time>2026-08-28T17:35:00Z</time>
      </trkpt>
      <trkpt lat="43.77483" lon="1.68179">
        <ele>109.993171</ele>
        <time>2026-08-28T17:35:01Z</time>
      </trkpt>
      <trkpt lat="43.77482" lon="1.68185">
        <ele>109.978969</ele>
        <time>2026-08-28T17:35:02Z</time>
      </trkpt>
      <trkpt lat="43.7748" lon="1.6819">
        <ele>109.964881</ele>
        <time>2026-08-28T17:35:03Z</time>
      </trkpt>
      <trkpt lat="43.77479" lon="1.68195">
        <ele>109.950578</ele>
        <time>2026-08-28T17:35:04Z</time>
      </trkpt>
      <trkpt lat="43.77478" lon="1.68201">
        <ele>109.935007</ele>
        <time>2026-08-28T17:35:05Z</time>
      </trkpt>
      <trkpt lat="43.77477" lon="1.68207">
        <ele>109.918865</ele>
        <time>2026-08-28T17:35:06Z</time>
      </trkpt>
      <trkpt lat="43.77476" lon="1.68213">
        <ele>109.901886</ele>
        <time>2026-08-28T17:35:07Z</time>
      </trkpt>
      <trkpt lat="43.77475" lon="1.6822">
        <ele>109.885378</ele>
        <time>2026-08-28T17:35:08Z</time>
      </trkpt>
      <trkpt lat="43.77474" lon="1.68226">
        <ele>109.868731</ele>
        <time>2026-08-28T17:35:09Z</time>
      </trkpt>
      <trkpt lat="43.77473" lon="1.68232">
        <ele>109.852916</ele>
        <time>2026-08-28T17:35:10Z</time>
      </trkpt>
      <trkpt lat="43.77472" lon="1.68238">
        <ele>109.833941</ele>
        <time>2026-08-28T17:35:11Z</time>
      </trkpt>
      <trkpt lat="43.77471" lon="1.68244">
        <ele>109.812518</ele>
        <time>2026-08-28T17:35:12Z</time>
      </trkpt>
      <trkpt lat="43.7747" lon="1.6825">
        <ele>109.790465</ele>
        <time>2026-08-28T17:35:13Z</time>
      </trkpt>
      <trkpt lat="43.7747" lon="1.68257">
        <ele>109.767358</ele>
        <time>2026-08-28T17:35:14Z</time>
      </trkpt>
      <trkpt lat="43.77469" lon="1.68263">
        <ele>109.743777</ele>
        <time>2026-08-28T17:35:15Z</time>
      </trkpt>
      <trkpt lat="43.77468" lon="1.6827">
        <ele>109.719833</ele>
        <time>2026-08-28T17:35:16Z</time>
      </trkpt>
      <trkpt lat="43.77467" lon="1.68276">
        <ele>109.69841</ele>
        <time>2026-08-28T17:35:17Z</time>
      </trkpt>
      <trkpt lat="43.77465" lon="1.68282">
        <ele>109.675135</ele>
        <time>2026-08-28T17:35:18Z</time>
      </trkpt>
      <trkpt lat="43.77464" lon="1.68288">
        <ele>109.652445</ele>
        <time>2026-08-28T17:35:19Z</time>
      </trkpt>
      <trkpt lat="43.77463" lon="1.68294">
        <ele>109.629071</ele>
        <time>2026-08-28T17:35:20Z</time>
      </trkpt>
      <trkpt lat="43.77462" lon="1.683">
        <ele>109.609706</ele>
        <time>2026-08-28T17:35:21Z</time>
      </trkpt>
      <trkpt lat="43.77461" lon="1.68305">
        <ele>109.590552</ele>
        <time>2026-08-28T17:35:22Z</time>
      </trkpt>
      <trkpt lat="43.77459" lon="1.6831">
        <ele>109.569919</ele>
        <time>2026-08-28T17:35:23Z</time>
      </trkpt>
      <trkpt lat="43.77458" lon="1.68315">
        <ele>109.551293</ele>
        <time>2026-08-28T17:35:24Z</time>
      </trkpt>
      <trkpt lat="43.77457" lon="1.68321">
        <ele>109.530344</ele>
        <time>2026-08-28T17:35:25Z</time>
      </trkpt>
      <trkpt lat="43.77456" lon="1.68326">
        <ele>109.51119</ele>
        <time>2026-08-28T17:35:26Z</time>
      </trkpt>
      <trkpt lat="43.77455" lon="1.68331">
        <ele>109.493051</ele>
        <time>2026-08-28T17:35:27Z</time>
      </trkpt>
      <trkpt lat="43.77452" lon="1.68335">
        <ele>109.474616</ele>
        <time>2026-08-28T17:35:28Z</time>
      </trkpt>
      <trkpt lat="43.77449" lon="1.68338">
        <ele>109.456705</ele>
        <time>2026-08-28T17:35:29Z</time>
      </trkpt>
      <trkpt lat="43.77446" lon="1.6834">
        <ele>109.441005</ele>
        <time>2026-08-28T17:35:30Z</time>
      </trkpt>
      <trkpt lat="43.77445" lon="1.68345">
        <ele>109.424973</ele>
        <time>2026-08-28T17:35:31Z</time>
      </trkpt>
      <trkpt lat="43.77446" lon="1.68349">
        <ele>109.408247</ele>
        <time>2026-08-28T17:35:32Z</time>
      </trkpt>
      <trkpt lat="43.77448" lon="1.68354">
        <ele>109.390294</ele>
        <time>2026-08-28T17:35:33Z</time>
      </trkpt>
      <trkpt lat="43.77448" lon="1.68358">
        <ele>109.375726</ele>
        <time>2026-08-28T17:35:34Z</time>
      </trkpt>
      <trkpt lat="43.77447" lon="1.68362">
        <ele>109.36074</ele>
        <time>2026-08-28T17:35:35Z</time>
      </trkpt>
      <trkpt lat="43.77444" lon="1.68365">
        <ele>109.344527</ele>
        <time>2026-08-28T17:35:36Z</time>
      </trkpt>
      <trkpt lat="43.77442" lon="1.68366">
        <ele>109.332959</ele>
        <time>2026-08-28T17:35:37Z</time>
      </trkpt>
      <trkpt lat="43.77441" lon="1.68368">
        <ele>109.324073</ele>
        <time>2026-08-28T17:35:38Z</time>
      </trkpt>
      <trkpt lat="43.7744" lon="1.6837">
        <ele>109.318088</ele>
        <time>2026-08-28T17:35:39Z</time>
      </trkpt>
      <trkpt lat="43.7744" lon="1.68371">
        <ele>109.314906</ele>
        <time>2026-08-28T17:35:40Z</time>
      </trkpt>
      <trkpt lat="43.7744" lon="1.68371">
        <ele>109.314046</ele>
        <time>2026-08-28T17:35:41Z</time>
      </trkpt>
      <trkpt lat="43.77439" lon="1.6838">
        <ele>109.281502</ele>
        <time>2026-08-28T17:35:57Z</time>
      </trkpt>
      <trkpt lat="43.77439" lon="1.68383">
        <ele>109.269129</ele>
        <time>2026-08-28T17:35:58Z</time>
      </trkpt>
      <trkpt lat="43.77439" lon="1.68387">
        <ele>109.257372</ele>
        <time>2026-08-28T17:35:59Z</time>
      </trkpt>
      <trkpt lat="43.77438" lon="1.68391">
        <ele>109.240754</ele>
        <time>2026-08-28T17:36:00Z</time>
      </trkpt>
      <trkpt lat="43.77437" lon="1.68396">
        <ele>109.222538</ele>
        <time>2026-08-28T17:36:01Z</time>
      </trkpt>
      <trkpt lat="43.77436" lon="1.68402">
        <ele>109.202947</ele>
        <time>2026-08-28T17:36:02Z</time>
      </trkpt>
      <trkpt lat="43.77435" lon="1.68407">
        <ele>109.182212</ele>
        <time>2026-08-28T17:36:03Z</time>
      </trkpt>
      <trkpt lat="43.77434" lon="1.68413">
        <ele>109.160444</ele>
        <time>2026-08-28T17:36:04Z</time>
      </trkpt>
      <trkpt lat="43.77433" lon="1.68419">
        <ele>109.139819</ele>
        <time>2026-08-28T17:36:05Z</time>
      </trkpt>
      <trkpt lat="43.77433" lon="1.68425">
        <ele>109.11938</ele>
        <time>2026-08-28T17:36:06Z</time>
      </trkpt>
      <trkpt lat="43.77431" lon="1.6843">
        <ele>109.099206</ele>
        <time>2026-08-28T17:36:07Z</time>
      </trkpt>
      <trkpt lat="43.7743" lon="1.68435">
        <ele>109.080087</ele>
        <time>2026-08-28T17:36:08Z</time>
      </trkpt>
      <trkpt lat="43.77429" lon="1.68441">
        <ele>109.059629</ele>
        <time>2026-08-28T17:36:09Z</time>
      </trkpt>
      <trkpt lat="43.77427" lon="1.68446">
        <ele>109.040163</ele>
        <time>2026-08-28T17:36:10Z</time>
      </trkpt>
      <trkpt lat="43.77426" lon="1.68451">
        <ele>109.020376</ele>
        <time>2026-08-28T17:36:11Z</time>
      </trkpt>
      <trkpt lat="43.77425" lon="1.68456">
        <ele>109.001236</ele>
        <time>2026-08-28T17:36:12Z</time>
      </trkpt>
      <trkpt lat="43.77424" lon="1.68462">
        <ele>108.980265</ele>
        <time>2026-08-28T17:36:13Z</time>
      </trkpt>
      <trkpt lat="43.77423" lon="1.68468">
        <ele>108.9686</ele>
        <time>2026-08-28T17:36:14Z</time>
      </trkpt>
      <trkpt lat="43.77422" lon="1.68474">
        <ele>108.993223</ele>
        <time>2026-08-28T17:36:15Z</time>
      </trkpt>
      <trkpt lat="43.77422" lon="1.6848">
        <ele>109.01833</ele>
        <time>2026-08-28T17:36:16Z</time>
      </trkpt>
      <trkpt lat="43.77421" lon="1.68485">
        <ele>109.042644</ele>
        <time>2026-08-28T17:36:17Z</time>
      </trkpt>
      <trkpt lat="43.7742" lon="1.68491">
        <ele>109.06611</ele>
        <time>2026-08-28T17:36:18Z</time>
      </trkpt>
      <trkpt lat="43.7742" lon="1.68496">
        <ele>109.089087</ele>
        <time>2026-08-28T17:36:19Z</time>
      </trkpt>
      <trkpt lat="43.77419" lon="1.68502">
        <ele>109.11387</ele>
        <time>2026-08-28T17:36:20Z</time>
      </trkpt>
      <trkpt lat="43.77418" lon="1.68508">
        <ele>109.139798</ele>
        <time>2026-08-28T17:36:21Z</time>
      </trkpt>
      <trkpt lat="43.77417" lon="1.68514">
        <ele>109.164253</ele>
        <time>2026-08-28T17:36:22Z</time>
      </trkpt>
      <trkpt lat="43.77416" lon="1.6852">
        <ele>109.18951</ele>
        <time>2026-08-28T17:36:23Z</time>
      </trkpt>
      <trkpt lat="43.77415" lon="1.68526">
        <ele>109.213824</ele>
        <time>2026-08-28T17:36:24Z</time>
      </trkpt>
      <trkpt lat="43.77414" lon="1.68531">
        <ele>109.2377</ele>
        <time>2026-08-28T17:36:25Z</time>
      </trkpt>
      <trkpt lat="43.77414" lon="1.68537">
        <ele>109.2615</ele>
        <time>2026-08-28T17:36:26Z</time>
      </trkpt>
      <trkpt lat="43.77413" lon="1.68543">
        <ele>109.285376</ele>
        <time>2026-08-28T17:36:27Z</time>
      </trkpt>
      <trkpt lat="43.77412" lon="1.68548">
        <ele>109.308022</ele>
        <time>2026-08-28T17:36:28Z</time>
      </trkpt>
      <trkpt lat="43.77412" lon="1.68554">
        <ele>109.330848</ele>
        <time>2026-08-28T17:36:29Z</time>
      </trkpt>
      <trkpt lat="43.77412" lon="1.6856">
        <ele>109.357382</ele>
        <time>2026-08-28T17:36:30Z</time>
      </trkpt>
      <trkpt lat="43.77412" lon="1.68566">
        <ele>109.380771</ele>
        <time>2026-08-28T17:36:31Z</time>
      </trkpt>
      <trkpt lat="43.77411" lon="1.6857">
        <ele>109.401044</ele>
        <time>2026-08-28T17:36:32Z</time>
      </trkpt>
      <trkpt lat="43.77409" lon="1.68574">
        <ele>109.419636</ele>
        <time>2026-08-28T17:36:33Z</time>
      </trkpt>
      <trkpt lat="43.77407" lon="1.68577">
        <ele>109.437491</ele>
        <time>2026-08-28T17:36:34Z</time>
      </trkpt>
      <trkpt lat="43.77404" lon="1.6858">
        <ele>109.4559</ele>
        <time>2026-08-28T17:36:35Z</time>
      </trkpt>
      <trkpt lat="43.77401" lon="1.6858">
        <ele>109.474437</ele>
        <time>2026-08-28T17:36:36Z</time>
      </trkpt>
      <trkpt lat="43.77398" lon="1.68579">
        <ele>109.490769</ele>
        <time>2026-08-28T17:36:37Z</time>
      </trkpt>
      <trkpt lat="43.77396" lon="1.68577">
        <ele>109.504732</ele>
        <time>2026-08-28T17:36:38Z</time>
      </trkpt>
      <trkpt lat="43.77395" lon="1.68574">
        <ele>109.516683</ele>
        <time>2026-08-28T17:36:39Z</time>
      </trkpt>
      <trkpt lat="43.77395" lon="1.68572">
        <ele>109.525896</ele>
        <time>2026-08-28T17:36:40Z</time>
      </trkpt>
      <trkpt lat="43.77394" lon="1.68571">
        <ele>109.53229</ele>
        <time>2026-08-28T17:36:41Z</time>
      </trkpt>
      <trkpt lat="43.77393" lon="1.68571">
        <ele>109.535278</ele>
        <time>2026-08-28T17:36:42Z</time>
      </trkpt>
      <trkpt lat="43.77393" lon="1.6857">
        <ele>109.541521</ele>
        <time>2026-08-28T17:36:43Z</time>
      </trkpt>
      <trkpt lat="43.77383" lon="1.68588">
        <ele>109.638023</ele>
        <time>2026-08-28T17:50:31Z</time>
      </trkpt>
      <trkpt lat="43.77381" lon="1.68588">
        <ele>109.647999</ele>
        <time>2026-08-28T17:50:32Z</time>
      </trkpt>
      <trkpt lat="43.77379" lon="1.68587">
        <ele>109.660231</ele>
        <time>2026-08-28T17:50:33Z</time>
      </trkpt>
      <trkpt lat="43.77377" lon="1.68587">
        <ele>109.671779</ele>
        <time>2026-08-28T17:50:34Z</time>
      </trkpt>
      <trkpt lat="43.77375" lon="1.68588">
        <ele>109.683766</ele>
        <time>2026-08-28T17:50:35Z</time>
      </trkpt>
      <trkpt lat="43.77373" lon="1.6859">
        <ele>109.699343</ele>
        <time>2026-08-28T17:50:36Z</time>
      </trkpt>
      <trkpt lat="43.77372" lon="1.68593">
        <ele>109.714149</ele>
        <time>2026-08-28T17:50:37Z</time>
      </trkpt>
      <trkpt lat="43.77371" lon="1.68597">
        <ele>109.731303</ele>
        <time>2026-08-28T17:50:38Z</time>
      </trkpt>
      <trkpt lat="43.7737" lon="1.68602">
        <ele>109.751232</ele>
        <time>2026-08-28T17:50:39Z</time>
      </trkpt>
      <trkpt lat="43.77371" lon="1.68607">
        <ele>109.771989</ele>
        <time>2026-08-28T17:50:40Z</time>
      </trkpt>
      <trkpt lat="43.77371" lon="1.68612">
        <ele>109.793958</ele>
        <time>2026-08-28T17:50:41Z</time>
      </trkpt>
      <trkpt lat="43.7737" lon="1.68618">
        <ele>109.815376</ele>
        <time>2026-08-28T17:50:42Z</time>
      </trkpt>
      <trkpt lat="43.77368" lon="1.68622">
        <ele>109.837666</ele>
        <time>2026-08-28T17:50:43Z</time>
      </trkpt>
      <trkpt lat="43.77366" lon="1.68627">
        <ele>109.859184</ele>
        <time>2026-08-28T17:50:44Z</time>
      </trkpt>
      <trkpt lat="43.77364" lon="1.68631">
        <ele>109.880037</ele>
        <time>2026-08-28T17:50:45Z</time>
      </trkpt>
      <trkpt lat="43.77362" lon="1.68635">
        <ele>109.900274</ele>
        <time>2026-08-28T17:50:46Z</time>
      </trkpt>
      <trkpt lat="43.7736" lon="1.68639">
        <ele>109.921128</ele>
        <time>2026-08-28T17:50:47Z</time>
      </trkpt>
      <trkpt lat="43.77358" lon="1.68643">
        <ele>109.942451</ele>
        <time>2026-08-28T17:50:48Z</time>
      </trkpt>
      <trkpt lat="43.77356" lon="1.68647">
        <ele>109.96234</ele>
        <time>2026-08-28T17:50:49Z</time>
      </trkpt>
      <trkpt lat="43.77354" lon="1.68652">
        <ele>109.98654</ele>
        <time>2026-08-28T17:50:50Z</time>
      </trkpt>
      <trkpt lat="43.77351" lon="1.68657">
        <ele>109.988824</ele>
        <time>2026-08-28T17:50:51Z</time>
      </trkpt>
      <trkpt lat="43.77348" lon="1.68663">
        <ele>109.977474</ele>
        <time>2026-08-28T17:50:52Z</time>
      </trkpt>
      <trkpt lat="43.77346" lon="1.68669">
        <ele>109.96511</ele>
        <time>2026-08-28T17:50:53Z</time>
      </trkpt>
      <trkpt lat="43.77343" lon="1.68675">
        <ele>109.953016</ele>
        <time>2026-08-28T17:50:54Z</time>
      </trkpt>
      <trkpt lat="43.7734" lon="1.68681">
        <ele>109.940682</ele>
        <time>2026-08-28T17:50:55Z</time>
      </trkpt>
      <trkpt lat="43.77337" lon="1.68687">
        <ele>109.928211</ele>
        <time>2026-08-28T17:50:56Z</time>
      </trkpt>
      <trkpt lat="43.77334" lon="1.68692">
        <ele>109.916424</ele>
        <time>2026-08-28T17:50:57Z</time>
      </trkpt>
      <trkpt lat="43.77331" lon="1.68697">
        <ele>109.904654</ele>
        <time>2026-08-28T17:50:58Z</time>
      </trkpt>
      <trkpt lat="43.77329" lon="1.68703">
        <ele>109.893445</ele>
        <time>2026-08-28T17:50:59Z</time>
      </trkpt>
      <trkpt lat="43.77326" lon="1.68708">
        <ele>109.881951</ele>
        <time>2026-08-28T17:51:00Z</time>
      </trkpt>
      <trkpt lat="43.77323" lon="1.68714">
        <ele>109.870741</ele>
        <time>2026-08-28T17:51:01Z</time>
      </trkpt>
      <trkpt lat="43.77321" lon="1.68719">
        <ele>109.859457</ele>
        <time>2026-08-28T17:51:02Z</time>
      </trkpt>
      <trkpt lat="43.77318" lon="1.68725">
        <ele>109.848079</ele>
        <time>2026-08-28T17:51:03Z</time>
      </trkpt>
      <trkpt lat="43.77316" lon="1.6873">
        <ele>109.836825</ele>
        <time>2026-08-28T17:51:04Z</time>
      </trkpt>
      <trkpt lat="43.77313" lon="1.68736">
        <ele>109.825026</ele>
        <time>2026-08-28T17:51:05Z</time>
      </trkpt>
      <trkpt lat="43.77311" lon="1.68742">
        <ele>109.813521</ele>
        <time>2026-08-28T17:51:06Z</time>
      </trkpt>
      <trkpt lat="43.77308" lon="1.68747">
        <ele>109.80259</ele>
        <time>2026-08-28T17:51:07Z</time>
      </trkpt>
      <trkpt lat="43.77306" lon="1.68752">
        <ele>109.791801</ele>
        <time>2026-08-28T17:51:08Z</time>
      </trkpt>
      <trkpt lat="43.77303" lon="1.68757">
        <ele>109.781689</ele>
        <time>2026-08-28T17:51:09Z</time>
      </trkpt>
      <trkpt lat="43.773" lon="1.6876">
        <ele>109.771822</ele>
        <time>2026-08-28T17:51:10Z</time>
      </trkpt>
      <trkpt lat="43.77296" lon="1.68764">
        <ele>109.761295</ele>
        <time>2026-08-28T17:51:11Z</time>
      </trkpt>
      <trkpt lat="43.77292" lon="1.68767">
        <ele>109.750372</ele>
        <time>2026-08-28T17:51:12Z</time>
      </trkpt>
      <trkpt lat="43.77289" lon="1.68771">
        <ele>109.73955</ele>
        <time>2026-08-28T17:51:13Z</time>
      </trkpt>
      <trkpt lat="43.77285" lon="1.68774">
        <ele>109.729217</ele>
        <time>2026-08-28T17:51:14Z</time>
      </trkpt>
      <trkpt lat="43.77281" lon="1.68777">
        <ele>109.719042</ele>
        <time>2026-08-28T17:51:15Z</time>
      </trkpt>
      <trkpt lat="43.77277" lon="1.6878">
        <ele>109.708657</ele>
        <time>2026-08-28T17:51:16Z</time>
      </trkpt>
      <trkpt lat="43.77274" lon="1.68783">
        <ele>109.698063</ele>
        <time>2026-08-28T17:51:17Z</time>
      </trkpt>
      <trkpt lat="43.7727" lon="1.68786">
        <ele>109.688301</ele>
        <time>2026-08-28T17:51:18Z</time>
      </trkpt>
      <trkpt lat="43.77266" lon="1.68788">
        <ele>109.678952</ele>
        <time>2026-08-28T17:51:19Z</time>
      </trkpt>
      <trkpt lat="43.77263" lon="1.68789">
        <ele>109.669895</ele>
        <time>2026-08-28T17:51:20Z</time>
      </trkpt>
      <trkpt lat="43.77259" lon="1.6879">
        <ele>109.661453</ele>
        <time>2026-08-28T17:51:21Z</time>
      </trkpt>
      <trkpt lat="43.77256" lon="1.68793">
        <ele>109.653161</ele>
        <time>2026-08-28T17:51:22Z</time>
      </trkpt>
      <trkpt lat="43.77254" lon="1.68796">
        <ele>109.64501</ele>
        <time>2026-08-28T17:51:23Z</time>
      </trkpt>
      <trkpt lat="43.77252" lon="1.688">
        <ele>109.636718</ele>
        <time>2026-08-28T17:51:24Z</time>
      </trkpt>
      <trkpt lat="43.77251" lon="1.68805">
        <ele>109.627858</ele>
        <time>2026-08-28T17:51:25Z</time>
      </trkpt>
      <trkpt lat="43.7725" lon="1.6881">
        <ele>109.618617</ele>
        <time>2026-08-28T17:51:26Z</time>
      </trkpt>
      <trkpt lat="43.7725" lon="1.68816">
        <ele>109.608203</ele>
        <time>2026-08-28T17:51:27Z</time>
      </trkpt>
      <trkpt lat="43.77249" lon="1.68822">
        <ele>109.598419</ele>
        <time>2026-08-28T17:51:28Z</time>
      </trkpt>
      <trkpt lat="43.77249" lon="1.68828">
        <ele>109.587638</ele>
        <time>2026-08-28T17:51:29Z</time>
      </trkpt>
      <trkpt lat="43.77248" lon="1.68834">
        <ele>109.577257</ele>
        <time>2026-08-28T17:51:30Z</time>
      </trkpt>
      <trkpt lat="43.77248" lon="1.6884">
        <ele>109.567049</ele>
        <time>2026-08-28T17:51:31Z</time>
      </trkpt>
      <trkpt lat="43.77248" lon="1.68846">
        <ele>109.579366</ele>
        <time>2026-08-28T17:51:32Z</time>
      </trkpt>
      <trkpt lat="43.77247" lon="1.68853">
        <ele>109.596511</ele>
        <time>2026-08-28T17:51:33Z</time>
      </trkpt>
      <trkpt lat="43.77247" lon="1.6886">
        <ele>109.614319</ele>
        <time>2026-08-28T17:51:34Z</time>
      </trkpt>
      <trkpt lat="43.77247" lon="1.68867">
        <ele>109.632858</ele>
        <time>2026-08-28T17:51:35Z</time>
      </trkpt>
      <trkpt lat="43.77247" lon="1.68874">
        <ele>109.650127</ele>
        <time>2026-08-28T17:51:36Z</time>
      </trkpt>
      <trkpt lat="43.77247" lon="1.68881">
        <ele>109.667649</ele>
        <time>2026-08-28T17:51:37Z</time>
      </trkpt>
      <trkpt lat="43.77247" lon="1.68888">
        <ele>109.684755</ele>
        <time>2026-08-28T17:51:38Z</time>
      </trkpt>
      <trkpt lat="43.77249" lon="1.68894">
        <ele>109.701843</ele>
        <time>2026-08-28T17:51:39Z</time>
      </trkpt>
      <trkpt lat="43.7725" lon="1.689">
        <ele>109.717036</ele>
        <time>2026-08-28T17:51:40Z</time>
      </trkpt>
      <trkpt lat="43.77252" lon="1.68905">
        <ele>109.731945</ele>
        <time>2026-08-28T17:51:41Z</time>
      </trkpt>
      <trkpt lat="43.77255" lon="1.6891">
        <ele>109.747832</ele>
        <time>2026-08-28T17:51:42Z</time>
      </trkpt>
      <trkpt lat="43.77257" lon="1.68915">
        <ele>109.764337</ele>
        <time>2026-08-28T17:51:43Z</time>
      </trkpt>
      <trkpt lat="43.7726" lon="1.68921">
        <ele>109.781862</ele>
        <time>2026-08-28T17:51:44Z</time>
      </trkpt>
      <trkpt lat="43.77262" lon="1.68927">
        <ele>109.798444</ele>
        <time>2026-08-28T17:51:45Z</time>
      </trkpt>
      <trkpt lat="43.77264" lon="1.68933">
        <ele>109.814537</ele>
        <time>2026-08-28T17:51:46Z</time>
      </trkpt>
      <trkpt lat="43.77267" lon="1.68938">
        <ele>109.831119</ele>
        <time>2026-08-28T17:51:47Z</time>
      </trkpt>
      <trkpt lat="43.77269" lon="1.68945">
        <ele>109.848224</ele>
        <time>2026-08-28T17:51:48Z</time>
      </trkpt>
      <trkpt lat="43.7727" lon="1.6895">
        <ele>109.864356</ele>
        <time>2026-08-28T17:51:49Z</time>
      </trkpt>
      <trkpt lat="43.77271" lon="1.68956">
        <ele>109.87836</ele>
        <time>2026-08-28T17:51:50Z</time>
      </trkpt>
      <trkpt lat="43.77272" lon="1.68961">
        <ele>109.891482</ele>
        <time>2026-08-28T17:51:51Z</time>
      </trkpt>
      <trkpt lat="43.77273" lon="1.68967">
        <ele>109.9063</ele>
        <time>2026-08-28T17:51:52Z</time>
      </trkpt>
      <trkpt lat="43.77274" lon="1.68972">
        <ele>109.921109</ele>
        <time>2026-08-28T17:51:53Z</time>
      </trkpt>
      <trkpt lat="43.77276" lon="1.68978">
        <ele>109.936404</ele>
        <time>2026-08-28T17:51:54Z</time>
      </trkpt>
      <trkpt lat="43.77277" lon="1.68984">
        <ele>109.952288</ele>
        <time>2026-08-28T17:51:55Z</time>
      </trkpt>
      <trkpt lat="43.77278" lon="1.6899">
        <ele>109.968099</ele>
        <time>2026-08-28T17:51:56Z</time>
      </trkpt>
      <trkpt lat="43.77279" lon="1.68995">
        <ele>109.982503</ele>
        <time>2026-08-28T17:51:57Z</time>
      </trkpt>
      <trkpt lat="43.7728" lon="1.69001">
        <ele>109.998093</ele>
        <time>2026-08-28T17:51:58Z</time>
      </trkpt>
      <trkpt lat="43.77279" lon="1.69007">
        <ele>110.01362</ele>
        <time>2026-08-28T17:51:59Z</time>
      </trkpt>
      <trkpt lat="43.7728" lon="1.69014">
        <ele>110.031157</ele>
        <time>2026-08-28T17:52:00Z</time>
      </trkpt>
      <trkpt lat="43.7728" lon="1.69021">
        <ele>110.048736</ele>
        <time>2026-08-28T17:52:01Z</time>
      </trkpt>
      <trkpt lat="43.7728" lon="1.69029">
        <ele>110.067528</ele>
        <time>2026-08-28T17:52:02Z</time>
      </trkpt>
      <trkpt lat="43.7728" lon="1.69035">
        <ele>110.084634</ele>
        <time>2026-08-28T17:52:03Z</time>
      </trkpt>
      <trkpt lat="43.77279" lon="1.69042">
        <ele>110.102719</ele>
        <time>2026-08-28T17:52:04Z</time>
      </trkpt>
      <trkpt lat="43.77279" lon="1.69049">
        <ele>110.120369</ele>
        <time>2026-08-28T17:52:05Z</time>
      </trkpt>
      <trkpt lat="43.77278" lon="1.69057">
        <ele>110.13899</ele>
        <time>2026-08-28T17:52:06Z</time>
      </trkpt>
      <trkpt lat="43.77277" lon="1.69063">
        <ele>110.155386</ele>
        <time>2026-08-28T17:52:07Z</time>
      </trkpt>
      <trkpt lat="43.77275" lon="1.69069">
        <ele>110.172957</ele>
        <time>2026-08-28T17:52:08Z</time>
      </trkpt>
      <trkpt lat="43.77274" lon="1.69076">
        <ele>110.18917</ele>
        <time>2026-08-28T17:52:09Z</time>
      </trkpt>
      <trkpt lat="43.77274" lon="1.69083">
        <ele>110.2145</ele>
        <time>2026-08-28T17:52:10Z</time>
      </trkpt>
      <trkpt lat="43.77273" lon="1.69089">
        <ele>110.247096</ele>
        <time>2026-08-28T17:52:11Z</time>
      </trkpt>
      <trkpt lat="43.77273" lon="1.69096">
        <ele>110.278627</ele>
        <time>2026-08-28T17:52:12Z</time>
      </trkpt>
      <trkpt lat="43.77273" lon="1.69103">
        <ele>110.311953</ele>
        <time>2026-08-28T17:52:13Z</time>
      </trkpt>
      <trkpt lat="43.77273" lon="1.6911">
        <ele>110.34481</ele>
        <time>2026-08-28T17:52:14Z</time>
      </trkpt>
      <trkpt lat="43.77273" lon="1.69118">
        <ele>110.38001</ele>
        <time>2026-08-28T17:52:15Z</time>
      </trkpt>
      <trkpt lat="43.77273" lon="1.69125">
        <ele>110.413317</ele>
        <time>2026-08-28T17:52:16Z</time>
      </trkpt>
      <trkpt lat="43.77272" lon="1.69132">
        <ele>110.445375</ele>
        <time>2026-08-28T17:52:17Z</time>
      </trkpt>
      <trkpt lat="43.77272" lon="1.69139">
        <ele>110.478437</ele>
        <time>2026-08-28T17:52:18Z</time>
      </trkpt>
      <trkpt lat="43.77271" lon="1.69145">
        <ele>110.510188</ele>
        <time>2026-08-28T17:52:19Z</time>
      </trkpt>
      <trkpt lat="43.7727" lon="1.69152">
        <ele>110.542965</ele>
        <time>2026-08-28T17:52:20Z</time>
      </trkpt>
      <trkpt lat="43.77269" lon="1.69159">
        <ele>110.574816</ele>
        <time>2026-08-28T17:52:21Z</time>
      </trkpt>
      <trkpt lat="43.77269" lon="1.69166">
        <ele>110.606779</ele>
        <time>2026-08-28T17:52:22Z</time>
      </trkpt>
      <trkpt lat="43.77268" lon="1.69173">
        <ele>110.640019</ele>
        <time>2026-08-28T17:52:23Z</time>
      </trkpt>
      <trkpt lat="43.77267" lon="1.6918">
        <ele>110.675678</ele>
        <time>2026-08-28T17:52:24Z</time>
      </trkpt>
      <trkpt lat="43.77266" lon="1.69188">
        <ele>110.711336</ele>
        <time>2026-08-28T17:52:25Z</time>
      </trkpt>
      <trkpt lat="43.77265" lon="1.69195">
        <ele>110.748127</ele>
        <time>2026-08-28T17:52:26Z</time>
      </trkpt>
      <trkpt lat="43.77265" lon="1.69203">
        <ele>110.783867</ele>
        <time>2026-08-28T17:52:27Z</time>
      </trkpt>
      <trkpt lat="43.77264" lon="1.6921">
        <ele>110.819063</ele>
        <time>2026-08-28T17:52:28Z</time>
      </trkpt>
      <trkpt lat="43.77263" lon="1.69218">
        <ele>110.854621</ele>
        <time>2026-08-28T17:52:29Z</time>
      </trkpt>
      <trkpt lat="43.77262" lon="1.69226">
        <ele>110.890643</ele>
        <time>2026-08-28T17:52:30Z</time>
      </trkpt>
      <trkpt lat="43.77262" lon="1.69234">
        <ele>110.928772</ele>
        <time>2026-08-28T17:52:31Z</time>
      </trkpt>
      <trkpt lat="43.77261" lon="1.69241">
        <ele>110.965499</ele>
        <time>2026-08-28T17:52:32Z</time>
      </trkpt>
      <trkpt lat="43.77261" lon="1.69249">
        <ele>111.002756</ele>
        <time>2026-08-28T17:52:33Z</time>
      </trkpt>
      <trkpt lat="43.7726" lon="1.69258">
        <ele>111.041484</ele>
        <time>2026-08-28T17:52:34Z</time>
      </trkpt>
      <trkpt lat="43.77259" lon="1.69266">
        <ele>111.079745</ele>
        <time>2026-08-28T17:52:35Z</time>
      </trkpt>
      <trkpt lat="43.77259" lon="1.69274">
        <ele>111.117076</ele>
        <time>2026-08-28T17:52:36Z</time>
      </trkpt>
      <trkpt lat="43.77259" lon="1.69281">
        <ele>111.154151</ele>
        <time>2026-08-28T17:52:37Z</time>
      </trkpt>
      <trkpt lat="43.77258" lon="1.69289">
        <ele>111.191294</ele>
        <time>2026-08-28T17:52:38Z</time>
      </trkpt>
      <trkpt lat="43.77258" lon="1.69297">
        <ele>111.228551</ele>
        <time>2026-08-28T17:52:39Z</time>
      </trkpt>
      <trkpt lat="43.77257" lon="1.69305">
        <ele>111.26663</ele>
        <time>2026-08-28T17:52:40Z</time>
      </trkpt>
      <trkpt lat="43.77257" lon="1.69313">
        <ele>111.304202</ele>
        <time>2026-08-28T17:52:41Z</time>
      </trkpt>
      <trkpt lat="43.77257" lon="1.69321">
        <ele>111.342243</ele>
        <time>2026-08-28T17:52:42Z</time>
      </trkpt>
      <trkpt lat="43.77256" lon="1.69329">
        <ele>111.36254</ele>
        <time>2026-08-28T17:52:43Z</time>
      </trkpt>
      <trkpt lat="43.77255" lon="1.69338">
        <ele>111.351622</ele>
        <time>2026-08-28T17:52:44Z</time>
      </trkpt>
      <trkpt lat="43.77254" lon="1.69345">
        <ele>111.341146</ele>
        <time>2026-08-28T17:52:45Z</time>
      </trkpt>
      <trkpt lat="43.77251" lon="1.69353">
        <ele>111.3297</ele>
        <time>2026-08-28T17:52:46Z</time>
      </trkpt>
      <trkpt lat="43.7725" lon="1.69362">
        <ele>111.31771</ele>
        <time>2026-08-28T17:52:47Z</time>
      </trkpt>
      <trkpt lat="43.77249" lon="1.69371">
        <ele>111.30584</ele>
        <time>2026-08-28T17:52:48Z</time>
      </trkpt>
      <trkpt lat="43.77248" lon="1.69379">
        <ele>111.294498</ele>
        <time>2026-08-28T17:52:49Z</time>
      </trkpt>
      <trkpt lat="43.77247" lon="1.69387">
        <ele>111.284015</ele>
        <time>2026-08-28T17:52:50Z</time>
      </trkpt>
      <trkpt lat="43.77245" lon="1.69394">
        <ele>111.273714</ele>
        <time>2026-08-28T17:52:51Z</time>
      </trkpt>
      <trkpt lat="43.77244" lon="1.69402">
        <ele>111.26298</ele>
        <time>2026-08-28T17:52:52Z</time>
      </trkpt>
      <trkpt lat="43.77243" lon="1.6941">
        <ele>111.251727</ele>
        <time>2026-08-28T17:52:53Z</time>
      </trkpt>
      <trkpt lat="43.77241" lon="1.69419">
        <ele>111.240253</ele>
        <time>2026-08-28T17:52:54Z</time>
      </trkpt>
      <trkpt lat="43.7724" lon="1.69427">
        <ele>111.228589</ele>
        <time>2026-08-28T17:52:55Z</time>
      </trkpt>
      <trkpt lat="43.77239" lon="1.69435">
        <ele>111.217712</ele>
        <time>2026-08-28T17:52:56Z</time>
      </trkpt>
      <trkpt lat="43.77238" lon="1.69443">
        <ele>111.206669</ele>
        <time>2026-08-28T17:52:57Z</time>
      </trkpt>
      <trkpt lat="43.77237" lon="1.69452">
        <ele>111.195399</ele>
        <time>2026-08-28T17:52:58Z</time>
      </trkpt>
      <trkpt lat="43.77236" lon="1.6946">
        <ele>111.184161</ele>
        <time>2026-08-28T17:52:59Z</time>
      </trkpt>
      <trkpt lat="43.77235" lon="1.69468">
        <ele>111.172602</ele>
        <time>2026-08-28T17:53:00Z</time>
      </trkpt>
      <trkpt lat="43.77235" lon="1.69477">
        <ele>111.160813</ele>
        <time>2026-08-28T17:53:01Z</time>
      </trkpt>
      <trkpt lat="43.77234" lon="1.69486">
        <ele>111.148904</ele>
        <time>2026-08-28T17:53:02Z</time>
      </trkpt>
      <trkpt lat="43.77234" lon="1.69495">
        <ele>111.136745</ele>
        <time>2026-08-28T17:53:03Z</time>
      </trkpt>
      <trkpt lat="43.77234" lon="1.69505">
        <ele>111.124189</ele>
        <time>2026-08-28T17:53:04Z</time>
      </trkpt>
      <trkpt lat="43.77234" lon="1.69514">
        <ele>111.111763</ele>
        <time>2026-08-28T17:53:05Z</time>
      </trkpt>
      <trkpt lat="43.77235" lon="1.69523">
        <ele>111.099337</ele>
        <time>2026-08-28T17:53:06Z</time>
      </trkpt>
      <trkpt lat="43.77234" lon="1.69533">
        <ele>111.086377</ele>
        <time>2026-08-28T17:53:07Z</time>
      </trkpt>
      <trkpt lat="43.77235" lon="1.69542">
        <ele>111.073811</ele>
        <time>2026-08-28T17:53:08Z</time>
      </trkpt>
      <trkpt lat="43.77235" lon="1.69551">
        <ele>111.061652</ele>
        <time>2026-08-28T17:53:09Z</time>
      </trkpt>
      <trkpt lat="43.77235" lon="1.6956">
        <ele>111.049898</ele>
        <time>2026-08-28T17:53:10Z</time>
      </trkpt>
      <trkpt lat="43.77235" lon="1.69569">
        <ele>111.037998</ele>
        <time>2026-08-28T17:53:11Z</time>
      </trkpt>
      <trkpt lat="43.77235" lon="1.69578">
        <ele>111.029639</ele>
        <time>2026-08-28T17:53:12Z</time>
      </trkpt>
      <trkpt lat="43.77235" lon="1.69588">
        <ele>111.023037</ele>
        <time>2026-08-28T17:53:13Z</time>
      </trkpt>
      <trkpt lat="43.77234" lon="1.69597">
        <ele>111.016372</ele>
        <time>2026-08-28T17:53:14Z</time>
      </trkpt>
      <trkpt lat="43.77233" lon="1.69607">
        <ele>111.009624</ele>
        <time>2026-08-28T17:53:15Z</time>
      </trkpt>
      <trkpt lat="43.77232" lon="1.69616">
        <ele>111.002843</ele>
        <time>2026-08-28T17:53:16Z</time>
      </trkpt>
      <trkpt lat="43.7723" lon="1.69626">
        <ele>110.996363</ele>
        <time>2026-08-28T17:53:17Z</time>
      </trkpt>
      <trkpt lat="43.77229" lon="1.69634">
        <ele>110.989972</ele>
        <time>2026-08-28T17:53:18Z</time>
      </trkpt>
      <trkpt lat="43.77227" lon="1.69643">
        <ele>110.983529</ele>
        <time>2026-08-28T17:53:19Z</time>
      </trkpt>
      <trkpt lat="43.77225" lon="1.69652">
        <ele>110.977339</ele>
        <time>2026-08-28T17:53:20Z</time>
      </trkpt>
      <trkpt lat="43.77223" lon="1.69661">
        <ele>110.970989</ele>
        <time>2026-08-28T17:53:21Z</time>
      </trkpt>
      <trkpt lat="43.77221" lon="1.69669">
        <ele>110.96484</ele>
        <time>2026-08-28T17:53:22Z</time>
      </trkpt>
      <trkpt lat="43.7722" lon="1.69678">
        <ele>110.958717</ele>
        <time>2026-08-28T17:53:23Z</time>
      </trkpt>
      <trkpt lat="43.77218" lon="1.69686">
        <ele>110.952686</ele>
        <time>2026-08-28T17:53:24Z</time>
      </trkpt>
      <trkpt lat="43.77216" lon="1.69695">
        <ele>110.946403</ele>
        <time>2026-08-28T17:53:25Z</time>
      </trkpt>
      <trkpt lat="43.77215" lon="1.69704">
        <ele>110.940146</ele>
        <time>2026-08-28T17:53:26Z</time>
      </trkpt>
      <trkpt lat="43.77213" lon="1.69712">
        <ele>110.933873</ele>
        <time>2026-08-28T17:53:27Z</time>
      </trkpt>
      <trkpt lat="43.77211" lon="1.69721">
        <ele>110.927563</ele>
        <time>2026-08-28T17:53:28Z</time>
      </trkpt>
      <trkpt lat="43.77209" lon="1.69729">
        <ele>110.921347</ele>
        <time>2026-08-28T17:53:29Z</time>
      </trkpt>
      <trkpt lat="43.77207" lon="1.69738">
        <ele>110.915397</ele>
        <time>2026-08-28T17:53:30Z</time>
      </trkpt>
      <trkpt lat="43.77205" lon="1.69746">
        <ele>110.909701</ele>
        <time>2026-08-28T17:53:31Z</time>
      </trkpt>
      <trkpt lat="43.77204" lon="1.69754">
        <ele>110.903911</ele>
        <time>2026-08-28T17:53:32Z</time>
      </trkpt>
      <trkpt lat="43.77202" lon="1.69762">
        <ele>110.897895</ele>
        <time>2026-08-28T17:53:33Z</time>
      </trkpt>
      <trkpt lat="43.772" lon="1.6977">
        <ele>110.892048</ele>
        <time>2026-08-28T17:53:34Z</time>
      </trkpt>
      <trkpt lat="43.77198" lon="1.69778">
        <ele>110.886004</ele>
        <time>2026-08-28T17:53:35Z</time>
      </trkpt>
      <trkpt lat="43.77196" lon="1.69787">
        <ele>110.879693</ele>
        <time>2026-08-28T17:53:36Z</time>
      </trkpt>
      <trkpt lat="43.77194" lon="1.69795">
        <ele>110.873477</ele>
        <time>2026-08-28T17:53:37Z</time>
      </trkpt>
      <trkpt lat="43.77193" lon="1.69804">
        <ele>110.867394</ele>
        <time>2026-08-28T17:53:38Z</time>
      </trkpt>
      <trkpt lat="43.77191" lon="1.69812">
        <ele>110.86143</ele>
        <time>2026-08-28T17:53:39Z</time>
      </trkpt>
      <trkpt lat="43.77189" lon="1.6982">
        <ele>110.858705</ele>
        <time>2026-08-28T17:53:40Z</time>
      </trkpt>
      <trkpt lat="43.77187" lon="1.69828">
        <ele>110.856393</ele>
        <time>2026-08-28T17:53:41Z</time>
      </trkpt>
      <trkpt lat="43.77185" lon="1.69836">
        <ele>110.854005</ele>
        <time>2026-08-28T17:53:42Z</time>
      </trkpt>
      <trkpt lat="43.77183" lon="1.69844">
        <ele>110.851734</ele>
        <time>2026-08-28T17:53:43Z</time>
      </trkpt>
      <trkpt lat="43.77181" lon="1.69852">
        <ele>110.849358</ele>
        <time>2026-08-28T17:53:44Z</time>
      </trkpt>
      <trkpt lat="43.77179" lon="1.6986">
        <ele>110.846891</ele>
        <time>2026-08-28T17:53:45Z</time>
      </trkpt>
      <trkpt lat="43.77177" lon="1.69869">
        <ele>110.844332</ele>
        <time>2026-08-28T17:53:46Z</time>
      </trkpt>
      <trkpt lat="43.77174" lon="1.69877">
        <ele>110.841773</ele>
        <time>2026-08-28T17:53:47Z</time>
      </trkpt>
      <trkpt lat="43.77172" lon="1.69886">
        <ele>110.839162</ele>
        <time>2026-08-28T17:53:48Z</time>
      </trkpt>
      <trkpt lat="43.7717" lon="1.69895">
        <ele>110.836485</ele>
        <time>2026-08-28T17:53:49Z</time>
      </trkpt>
      <trkpt lat="43.77167" lon="1.69904">
        <ele>110.833886</ele>
        <time>2026-08-28T17:53:50Z</time>
      </trkpt>
      <trkpt lat="43.77165" lon="1.69912">
        <ele>110.831354</ele>
        <time>2026-08-28T17:53:51Z</time>
      </trkpt>
      <trkpt lat="43.77163" lon="1.69921">
        <ele>110.828833</ele>
        <time>2026-08-28T17:53:52Z</time>
      </trkpt>
      <trkpt lat="43.7716" lon="1.69929">
        <ele>110.826366</ele>
        <time>2026-08-28T17:53:53Z</time>
      </trkpt>
      <trkpt lat="43.77158" lon="1.69937">
        <ele>110.823912</ele>
        <time>2026-08-28T17:53:54Z</time>
      </trkpt>
      <trkpt lat="43.77156" lon="1.69945">
        <ele>110.82151</ele>
        <time>2026-08-28T17:53:55Z</time>
      </trkpt>
      <trkpt lat="43.77154" lon="1.69954">
        <ele>110.81907</ele>
        <time>2026-08-28T17:53:56Z</time>
      </trkpt>
      <trkpt lat="43.77152" lon="1.69962">
        <ele>110.816589</ele>
        <time>2026-08-28T17:53:57Z</time>
      </trkpt>
      <trkpt lat="43.77149" lon="1.6997">
        <ele>110.814043</ele>
        <time>2026-08-28T17:53:58Z</time>
      </trkpt>
      <trkpt lat="43.77147" lon="1.69979">
        <ele>110.81151</ele>
        <time>2026-08-28T17:53:59Z</time>
      </trkpt>
      <trkpt lat="43.77145" lon="1.69987">
        <ele>110.808977</ele>
        <time>2026-08-28T17:54:00Z</time>
      </trkpt>
      <trkpt lat="43.77143" lon="1.69996">
        <ele>110.806378</ele>
        <time>2026-08-28T17:54:01Z</time>
      </trkpt>
      <trkpt lat="43.7714" lon="1.70005">
        <ele>110.803754</ele>
        <time>2026-08-28T17:54:02Z</time>
      </trkpt>
      <trkpt lat="43.77138" lon="1.70014">
        <ele>110.801169</ele>
        <time>2026-08-28T17:54:03Z</time>
      </trkpt>
      <trkpt lat="43.77136" lon="1.70022">
        <ele>110.798622</ele>
        <time>2026-08-28T17:54:04Z</time>
      </trkpt>
      <trkpt lat="43.77133" lon="1.70031">
        <ele>110.796168</ele>
        <time>2026-08-28T17:54:05Z</time>
      </trkpt>
      <trkpt lat="43.77131" lon="1.70039">
        <ele>110.793596</ele>
        <time>2026-08-28T17:54:06Z</time>
      </trkpt>
      <trkpt lat="43.77129" lon="1.70048">
        <ele>110.792665</ele>
        <time>2026-08-28T17:54:07Z</time>
      </trkpt>
      <trkpt lat="43.77127" lon="1.70056">
        <ele>110.804979</ele>
        <time>2026-08-28T17:54:08Z</time>
      </trkpt>
      <trkpt lat="43.77125" lon="1.70064">
        <ele>110.81697</ele>
        <time>2026-08-28T17:54:09Z</time>
      </trkpt>
      <trkpt lat="43.77122" lon="1.70072">
        <ele>110.829091</ele>
        <time>2026-08-28T17:54:10Z</time>
      </trkpt>
      <trkpt lat="43.7712" lon="1.7008">
        <ele>110.841339</ele>
        <time>2026-08-28T17:54:11Z</time>
      </trkpt>
      <trkpt lat="43.77118" lon="1.70089">
        <ele>110.853918</ele>
        <time>2026-08-28T17:54:12Z</time>
      </trkpt>
      <trkpt lat="43.77116" lon="1.70097">
        <ele>110.866766</ele>
        <time>2026-08-28T17:54:13Z</time>
      </trkpt>
      <trkpt lat="43.77113" lon="1.70105">
        <ele>110.879296</ele>
        <time>2026-08-28T17:54:14Z</time>
      </trkpt>
      <trkpt lat="43.7711" lon="1.70114">
        <ele>110.892161</ele>
        <time>2026-08-28T17:54:15Z</time>
      </trkpt>
      <trkpt lat="43.77108" lon="1.70122">
        <ele>110.904691</ele>
        <time>2026-08-28T17:54:16Z</time>
      </trkpt>
      <trkpt lat="43.77105" lon="1.7013">
        <ele>110.917298</ele>
        <time>2026-08-28T17:54:17Z</time>
      </trkpt>
      <trkpt lat="43.77103" lon="1.70138">
        <ele>110.929561</ele>
        <time>2026-08-28T17:54:18Z</time>
      </trkpt>
      <trkpt lat="43.771" lon="1.70146">
        <ele>110.942126</ele>
        <time>2026-08-28T17:54:19Z</time>
      </trkpt>
      <trkpt lat="43.77097" lon="1.70154">
        <ele>110.954685</ele>
        <time>2026-08-28T17:54:20Z</time>
      </trkpt>
      <trkpt lat="43.77094" lon="1.70162">
        <ele>110.967791</ele>
        <time>2026-08-28T17:54:21Z</time>
      </trkpt>
      <trkpt lat="43.77091" lon="1.7017">
        <ele>110.980393</ele>
        <time>2026-08-28T17:54:22Z</time>
      </trkpt>
      <trkpt lat="43.77088" lon="1.70178">
        <ele>110.992833</ele>
        <time>2026-08-28T17:54:23Z</time>
      </trkpt>
      <trkpt lat="43.77085" lon="1.70186">
        <ele>111.005121</ele>
        <time>2026-08-28T17:54:24Z</time>
      </trkpt>
      <trkpt lat="43.77082" lon="1.70193">
        <ele>111.017506</ele>
        <time>2026-08-28T17:54:25Z</time>
      </trkpt>
      <trkpt lat="43.77079" lon="1.70201">
        <ele>111.030039</ele>
        <time>2026-08-28T17:54:26Z</time>
      </trkpt>
      <trkpt lat="43.77076" lon="1.70209">
        <ele>111.042356</ele>
        <time>2026-08-28T17:54:27Z</time>
      </trkpt>
      <trkpt lat="43.77073" lon="1.70217">
        <ele>111.054797</ele>
        <time>2026-08-28T17:54:28Z</time>
      </trkpt>
      <trkpt lat="43.77069" lon="1.70224">
        <ele>111.067303</ele>
        <time>2026-08-28T17:54:29Z</time>
      </trkpt>
      <trkpt lat="43.77066" lon="1.70232">
        <ele>111.079744</ele>
        <time>2026-08-28T17:54:30Z</time>
      </trkpt>
      <trkpt lat="43.77063" lon="1.7024">
        <ele>111.092434</ele>
        <time>2026-08-28T17:54:31Z</time>
      </trkpt>
      <trkpt lat="43.7706" lon="1.70248">
        <ele>111.105431</ele>
        <time>2026-08-28T17:54:32Z</time>
      </trkpt>
      <trkpt lat="43.77057" lon="1.70256">
        <ele>111.117748</ele>
        <time>2026-08-28T17:54:33Z</time>
      </trkpt>
      <trkpt lat="43.77055" lon="1.70264">
        <ele>111.129925</ele>
        <time>2026-08-28T17:54:34Z</time>
      </trkpt>
      <trkpt lat="43.77052" lon="1.70271">
        <ele>111.141988</ele>
        <time>2026-08-28T17:54:35Z</time>
      </trkpt>
      <trkpt lat="43.77049" lon="1.70279">
        <ele>111.146722</ele>
        <time>2026-08-28T17:54:36Z</time>
      </trkpt>
      <trkpt lat="43.77046" lon="1.70287">
        <ele>111.151491</ele>
        <time>2026-08-28T17:54:37Z</time>
      </trkpt>
      <trkpt lat="43.77044" lon="1.70294">
        <ele>111.15626</ele>
        <time>2026-08-28T17:54:38Z</time>
      </trkpt>
      <trkpt lat="43.77041" lon="1.70302">
        <ele>111.161079</ele>
        <time>2026-08-28T17:54:39Z</time>
      </trkpt>
      <trkpt lat="43.77038" lon="1.7031">
        <ele>111.165814</ele>
        <time>2026-08-28T17:54:40Z</time>
      </trkpt>
      <trkpt lat="43.77035" lon="1.70317">
        <ele>111.170619</ele>
        <time>2026-08-28T17:54:41Z</time>
      </trkpt>
      <trkpt lat="43.77033" lon="1.70325">
        <ele>111.175353</ele>
        <time>2026-08-28T17:54:42Z</time>
      </trkpt>
      <trkpt lat="43.7703" lon="1.70332">
        <ele>111.180108</ele>
        <time>2026-08-28T17:54:43Z</time>
      </trkpt>
      <trkpt lat="43.77027" lon="1.7034">
        <ele>111.184901</ele>
        <time>2026-08-28T17:54:44Z</time>
      </trkpt>
      <trkpt lat="43.77024" lon="1.70347">
        <ele>111.189792</ele>
        <time>2026-08-28T17:54:45Z</time>
      </trkpt>
      <trkpt lat="43.77021" lon="1.70355">
        <ele>111.194866</ele>
        <time>2026-08-28T17:54:46Z</time>
      </trkpt>
      <trkpt lat="43.77017" lon="1.70364">
        <ele>111.199991</ele>
        <time>2026-08-28T17:54:47Z</time>
      </trkpt>
      <trkpt lat="43.77014" lon="1.70372">
        <ele>111.205066</ele>
        <time>2026-08-28T17:54:48Z</time>
      </trkpt>
      <trkpt lat="43.77011" lon="1.7038">
        <ele>111.21019</ele>
        <time>2026-08-28T17:54:49Z</time>
      </trkpt>
      <trkpt lat="43.77008" lon="1.70388">
        <ele>111.2154</ele>
        <time>2026-08-28T17:54:50Z</time>
      </trkpt>
      <trkpt lat="43.77005" lon="1.70396">
        <ele>111.220538</ele>
        <time>2026-08-28T17:54:51Z</time>
      </trkpt>
      <trkpt lat="43.77002" lon="1.70404">
        <ele>111.225677</ele>
        <time>2026-08-28T17:54:52Z</time>
      </trkpt>
      <trkpt lat="43.76999" lon="1.70412">
        <ele>111.230801</ele>
        <time>2026-08-28T17:54:53Z</time>
      </trkpt>
      <trkpt lat="43.76996" lon="1.7042">
        <ele>111.235876</ele>
        <time>2026-08-28T17:54:54Z</time>
      </trkpt>
      <trkpt lat="43.76993" lon="1.70428">
        <ele>111.241</ele>
        <time>2026-08-28T17:54:55Z</time>
      </trkpt>
      <trkpt lat="43.7699" lon="1.70437">
        <ele>111.246089</ele>
        <time>2026-08-28T17:54:56Z</time>
      </trkpt>
      <trkpt lat="43.76987" lon="1.70445">
        <ele>111.251127</ele>
        <time>2026-08-28T17:54:57Z</time>
      </trkpt>
      <trkpt lat="43.76984" lon="1.70453">
        <ele>111.25624</ele>
        <time>2026-08-28T17:54:58Z</time>
      </trkpt>
      <trkpt lat="43.76981" lon="1.7046">
        <ele>111.26113</ele>
        <time>2026-08-28T17:54:59Z</time>
      </trkpt>
      <trkpt lat="43.76977" lon="1.70468">
        <ele>111.266058</ele>
        <time>2026-08-28T17:55:00Z</time>
      </trkpt>
      <trkpt lat="43.76974" lon="1.70476">
        <ele>111.270899</ele>
        <time>2026-08-28T17:55:01Z</time>
      </trkpt>
      <trkpt lat="43.76971" lon="1.70483">
        <ele>111.275963</ele>
        <time>2026-08-28T17:55:02Z</time>
      </trkpt>
      <trkpt lat="43.76969" lon="1.70491">
        <ele>111.280848</ele>
        <time>2026-08-28T17:55:03Z</time>
      </trkpt>
      <trkpt lat="43.76966" lon="1.70499">
        <ele>111.254452</ele>
        <time>2026-08-28T17:55:04Z</time>
      </trkpt>
      <trkpt lat="43.76963" lon="1.70507">
        <ele>111.225247</ele>
        <time>2026-08-28T17:55:05Z</time>
      </trkpt>
      <trkpt lat="43.76959" lon="1.70515">
        <ele>111.195175</ele>
        <time>2026-08-28T17:55:06Z</time>
      </trkpt>
      <trkpt lat="43.76956" lon="1.70523">
        <ele>111.165022</ele>
        <time>2026-08-28T17:55:07Z</time>
      </trkpt>
      <trkpt lat="43.76953" lon="1.70531">
        <ele>111.135161</ele>
        <time>2026-08-28T17:55:08Z</time>
      </trkpt>
      <trkpt lat="43.76951" lon="1.70539">
        <ele>111.10609</ele>
        <time>2026-08-28T17:55:09Z</time>
      </trkpt>
      <trkpt lat="43.76948" lon="1.70547">
        <ele>111.07702</ele>
        <time>2026-08-28T17:55:10Z</time>
      </trkpt>
      <trkpt lat="43.76945" lon="1.70555">
        <ele>111.047858</ele>
        <time>2026-08-28T17:55:11Z</time>
      </trkpt>
      <trkpt lat="43.76942" lon="1.70563">
        <ele>111.018891</ele>
        <time>2026-08-28T17:55:12Z</time>
      </trkpt>
      <trkpt lat="43.7694" lon="1.70571">
        <ele>110.989995</ele>
        <time>2026-08-28T17:55:13Z</time>
      </trkpt>
      <trkpt lat="43.76937" lon="1.7058">
        <ele>110.960317</ele>
        <time>2026-08-28T17:55:14Z</time>
      </trkpt>
      <trkpt lat="43.76934" lon="1.70588">
        <ele>110.928824</ele>
        <time>2026-08-28T17:55:15Z</time>
      </trkpt>
      <trkpt lat="43.76932" lon="1.70598">
        <ele>110.896886</ele>
        <time>2026-08-28T17:55:16Z</time>
      </trkpt>
      <trkpt lat="43.7693" lon="1.70607">
        <ele>110.86449</ele>
        <time>2026-08-28T17:55:17Z</time>
      </trkpt>
      <trkpt lat="43.76927" lon="1.70616">
        <ele>110.832402</ele>
        <time>2026-08-28T17:55:18Z</time>
      </trkpt>
      <trkpt lat="43.76925" lon="1.70625">
        <ele>110.800466</ele>
        <time>2026-08-28T17:55:19Z</time>
      </trkpt>
      <trkpt lat="43.76923" lon="1.70635">
        <ele>110.768364</ele>
        <time>2026-08-28T17:55:20Z</time>
      </trkpt>
      <trkpt lat="43.76921" lon="1.70644">
        <ele>110.737161</ele>
        <time>2026-08-28T17:55:21Z</time>
      </trkpt>
      <trkpt lat="43.76919" lon="1.70653">
        <ele>110.705016</ele>
        <time>2026-08-28T17:55:22Z</time>
      </trkpt>
      <trkpt lat="43.76917" lon="1.70663">
        <ele>110.67291</ele>
        <time>2026-08-28T17:55:23Z</time>
      </trkpt>
      <trkpt lat="43.76915" lon="1.70672">
        <ele>110.640805</ele>
        <time>2026-08-28T17:55:24Z</time>
      </trkpt>
      <trkpt lat="43.76914" lon="1.70682">
        <ele>110.608166</ele>
        <time>2026-08-28T17:55:25Z</time>
      </trkpt>
      <trkpt lat="43.76912" lon="1.70691">
        <ele>110.575946</ele>
        <time>2026-08-28T17:55:26Z</time>
      </trkpt>
      <trkpt lat="43.76911" lon="1.70701">
        <ele>110.542764</ele>
        <time>2026-08-28T17:55:27Z</time>
      </trkpt>
      <trkpt lat="43.76909" lon="1.70711">
        <ele>110.509835</ele>
        <time>2026-08-28T17:55:28Z</time>
      </trkpt>
      <trkpt lat="43.76908" lon="1.70721">
        <ele>110.476005</ele>
        <time>2026-08-28T17:55:29Z</time>
      </trkpt>
      <trkpt lat="43.76907" lon="1.70732">
        <ele>110.458622</ele>
        <time>2026-08-28T17:55:30Z</time>
      </trkpt>
      <trkpt lat="43.76906" lon="1.70742">
        <ele>110.450217</ele>
        <time>2026-08-28T17:55:31Z</time>
      </trkpt>
      <trkpt lat="43.76905" lon="1.70752">
        <ele>110.442034</ele>
        <time>2026-08-28T17:55:32Z</time>
      </trkpt>
      <trkpt lat="43.76905" lon="1.70763">
        <ele>110.433546</ele>
        <time>2026-08-28T17:55:33Z</time>
      </trkpt>
      <trkpt lat="43.76905" lon="1.70774">
        <ele>110.424744</ele>
        <time>2026-08-28T17:55:34Z</time>
      </trkpt>
      <trkpt lat="43.76904" lon="1.70785">
        <ele>110.415782</ele>
        <time>2026-08-28T17:55:35Z</time>
      </trkpt>
      <trkpt lat="43.76904" lon="1.70796">
        <ele>110.406968</ele>
        <time>2026-08-28T17:55:36Z</time>
      </trkpt>
      <trkpt lat="43.76903" lon="1.70807">
        <ele>110.398366</ele>
        <time>2026-08-28T17:55:37Z</time>
      </trkpt>
      <trkpt lat="43.76902" lon="1.70817">
        <ele>110.389855</ele>
        <time>2026-08-28T17:55:38Z</time>
      </trkpt>
      <trkpt lat="43.76901" lon="1.70828">
        <ele>110.381275</ele>
        <time>2026-08-28T17:55:39Z</time>
      </trkpt>
      <trkpt lat="43.76901" lon="1.70839">
        <ele>110.372852</ele>
        <time>2026-08-28T17:55:40Z</time>
      </trkpt>
      <trkpt lat="43.76901" lon="1.70849">
        <ele>110.364296</ele>
        <time>2026-08-28T17:55:41Z</time>
      </trkpt>
      <trkpt lat="43.769" lon="1.7086">
        <ele>110.355897</ele>
        <time>2026-08-28T17:55:42Z</time>
      </trkpt>
      <trkpt lat="43.769" lon="1.7087">
        <ele>110.347888</ele>
        <time>2026-08-28T17:55:43Z</time>
      </trkpt>
      <trkpt lat="43.769" lon="1.7088">
        <ele>110.339725</ele>
        <time>2026-08-28T17:55:44Z</time>
      </trkpt>
      <trkpt lat="43.76899" lon="1.7089">
        <ele>110.331311</ele>
        <time>2026-08-28T17:55:45Z</time>
      </trkpt>
      <trkpt lat="43.76899" lon="1.70901">
        <ele>110.323234</ele>
        <time>2026-08-28T17:55:46Z</time>
      </trkpt>
      <trkpt lat="43.76899" lon="1.70912">
        <ele>110.314431</ele>
        <time>2026-08-28T17:55:47Z</time>
      </trkpt>
      <trkpt lat="43.76899" lon="1.70922">
        <ele>110.305869</ele>
        <time>2026-08-28T17:55:48Z</time>
      </trkpt>
      <trkpt lat="43.76898" lon="1.70933">
        <ele>110.297301</ele>
        <time>2026-08-28T17:55:49Z</time>
      </trkpt>
      <trkpt lat="43.76898" lon="1.70943">
        <ele>110.289365</ele>
        <time>2026-08-28T17:55:50Z</time>
      </trkpt>
      <trkpt lat="43.76897" lon="1.70952">
        <ele>110.281748</ele>
        <time>2026-08-28T17:55:51Z</time>
      </trkpt>
      <trkpt lat="43.76897" lon="1.70962">
        <ele>110.274362</ele>
        <time>2026-08-28T17:55:52Z</time>
      </trkpt>
      <trkpt lat="43.76896" lon="1.70971">
        <ele>110.266832</ele>
        <time>2026-08-28T17:55:53Z</time>
      </trkpt>
      <trkpt lat="43.76896" lon="1.7098">
        <ele>110.305127</ele>
        <time>2026-08-28T17:55:54Z</time>
      </trkpt>
      <trkpt lat="43.76895" lon="1.7099">
        <ele>110.357734</ele>
        <time>2026-08-28T17:55:55Z</time>
      </trkpt>
      <trkpt lat="43.76895" lon="1.70999">
        <ele>110.410187</ele>
        <time>2026-08-28T17:55:56Z</time>
      </trkpt>
      <trkpt lat="43.76895" lon="1.71009">
        <ele>110.463153</ele>
        <time>2026-08-28T17:55:57Z</time>
      </trkpt>
      <trkpt lat="43.76894" lon="1.71018">
        <ele>110.516254</ele>
        <time>2026-08-28T17:55:58Z</time>
      </trkpt>
      <trkpt lat="43.76894" lon="1.71028">
        <ele>110.570417</ele>
        <time>2026-08-28T17:55:59Z</time>
      </trkpt>
      <trkpt lat="43.76893" lon="1.71037">
        <ele>110.622629</ele>
        <time>2026-08-28T17:56:00Z</time>
      </trkpt>
      <trkpt lat="43.76893" lon="1.71046">
        <ele>110.67234</ele>
        <time>2026-08-28T17:56:01Z</time>
      </trkpt>
      <trkpt lat="43.76892" lon="1.71055">
        <ele>110.724277</ele>
        <time>2026-08-28T17:56:02Z</time>
      </trkpt>
      <trkpt lat="43.76892" lon="1.71064">
        <ele>110.774108</ele>
        <time>2026-08-28T17:56:03Z</time>
      </trkpt>
      <trkpt lat="43.76891" lon="1.71073">
        <ele>110.825049</ele>
        <time>2026-08-28T17:56:04Z</time>
      </trkpt>
      <trkpt lat="43.76891" lon="1.71083">
        <ele>110.878706</ele>
        <time>2026-08-28T17:56:05Z</time>
      </trkpt>
      <trkpt lat="43.7689" lon="1.71092">
        <ele>110.931313</ele>
        <time>2026-08-28T17:56:06Z</time>
      </trkpt>
      <trkpt lat="43.7689" lon="1.71102">
        <ele>110.982137</ele>
        <time>2026-08-28T17:56:07Z</time>
      </trkpt>
      <trkpt lat="43.76889" lon="1.7111">
        <ele>111.031249</ele>
        <time>2026-08-28T17:56:08Z</time>
      </trkpt>
      <trkpt lat="43.76889" lon="1.71119">
        <ele>111.080459</ele>
        <time>2026-08-28T17:56:09Z</time>
      </trkpt>
      <trkpt lat="43.76888" lon="1.71128">
        <ele>111.13184</ele>
        <time>2026-08-28T17:56:10Z</time>
      </trkpt>
      <trkpt lat="43.76888" lon="1.71138">
        <ele>111.18322</ele>
        <time>2026-08-28T17:56:11Z</time>
      </trkpt>
      <trkpt lat="43.76888" lon="1.71147">
        <ele>111.236788</ele>
        <time>2026-08-28T17:56:12Z</time>
      </trkpt>
      <trkpt lat="43.76887" lon="1.71157">
        <ele>111.289333</ele>
        <time>2026-08-28T17:56:13Z</time>
      </trkpt>
      <trkpt lat="43.76887" lon="1.71166">
        <ele>111.341201</ele>
        <time>2026-08-28T17:56:14Z</time>
      </trkpt>
      <trkpt lat="43.76887" lon="1.71176">
        <ele>111.396526</ele>
        <time>2026-08-28T17:56:15Z</time>
      </trkpt>
      <trkpt lat="43.76886" lon="1.71185">
        <ele>111.449387</ele>
        <time>2026-08-28T17:56:16Z</time>
      </trkpt>
      <trkpt lat="43.76885" lon="1.71195">
        <ele>111.501841</ele>
        <time>2026-08-28T17:56:17Z</time>
      </trkpt>
      <trkpt lat="43.76885" lon="1.71204">
        <ele>111.553181</ele>
        <time>2026-08-28T17:56:18Z</time>
      </trkpt>
      <trkpt lat="43.76885" lon="1.71213">
        <ele>111.60517</ele>
        <time>2026-08-28T17:56:19Z</time>
      </trkpt>
      <trkpt lat="43.76884" lon="1.71222">
        <ele>111.653816</ele>
        <time>2026-08-28T17:56:20Z</time>
      </trkpt>
      <trkpt lat="43.76884" lon="1.71232">
        <ele>111.658296</ele>
        <time>2026-08-28T17:56:21Z</time>
      </trkpt>
      <trkpt lat="43.76883" lon="1.71241">
        <ele>111.662684</ele>
        <time>2026-08-28T17:56:22Z</time>
      </trkpt>
      <trkpt lat="43.76883" lon="1.7125">
        <ele>111.667259</ele>
        <time>2026-08-28T17:56:23Z</time>
      </trkpt>
      <trkpt lat="43.76883" lon="1.7126">
        <ele>111.671849</ele>
        <time>2026-08-28T17:56:24Z</time>
      </trkpt>
      <trkpt lat="43.76882" lon="1.71269">
        <ele>111.676301</ele>
        <time>2026-08-28T17:56:25Z</time>
      </trkpt>
      <trkpt lat="43.76881" lon="1.71278">
        <ele>111.680761</ele>
        <time>2026-08-28T17:56:26Z</time>
      </trkpt>
      <trkpt lat="43.76881" lon="1.71288">
        <ele>111.685293</ele>
        <time>2026-08-28T17:56:27Z</time>
      </trkpt>
      <trkpt lat="43.7688" lon="1.71297">
        <ele>111.689878</ele>
        <time>2026-08-28T17:56:28Z</time>
      </trkpt>
      <trkpt lat="43.7688" lon="1.71306">
        <ele>111.694362</ele>
        <time>2026-08-28T17:56:29Z</time>
      </trkpt>
      <trkpt lat="43.7688" lon="1.71316">
        <ele>111.698791</ele>
        <time>2026-08-28T17:56:30Z</time>
      </trkpt>
      <trkpt lat="43.7688" lon="1.71325">
        <ele>111.703173</ele>
        <time>2026-08-28T17:56:31Z</time>
      </trkpt>
      <trkpt lat="43.76879" lon="1.71334">
        <ele>111.707603</ele>
        <time>2026-08-28T17:56:32Z</time>
      </trkpt>
      <trkpt lat="43.76879" lon="1.71343">
        <ele>111.712079</ele>
        <time>2026-08-28T17:56:33Z</time>
      </trkpt>
      <trkpt lat="43.76879" lon="1.71352">
        <ele>111.716515</ele>
        <time>2026-08-28T17:56:34Z</time>
      </trkpt>
      <trkpt lat="43.76878" lon="1.71361">
        <ele>111.720913</ele>
        <time>2026-08-28T17:56:35Z</time>
      </trkpt>
      <trkpt lat="43.76878" lon="1.7137">
        <ele>111.725264</ele>
        <time>2026-08-28T17:56:36Z</time>
      </trkpt>
      <trkpt lat="43.76877" lon="1.7138">
        <ele>111.72979</ele>
        <time>2026-08-28T17:56:37Z</time>
      </trkpt>
      <trkpt lat="43.76877" lon="1.71389">
        <ele>111.734268</ele>
        <time>2026-08-28T17:56:38Z</time>
      </trkpt>
      <trkpt lat="43.76877" lon="1.71398">
        <ele>111.738652</ele>
        <time>2026-08-28T17:56:39Z</time>
      </trkpt>
      <trkpt lat="43.76877" lon="1.71407">
        <ele>111.742848</ele>
        <time>2026-08-28T17:56:40Z</time>
      </trkpt>
      <trkpt lat="43.76876" lon="1.71416">
        <ele>111.747193</ele>
        <time>2026-08-28T17:56:41Z</time>
      </trkpt>
      <trkpt lat="43.76876" lon="1.71425">
        <ele>111.751382</ele>
        <time>2026-08-28T17:56:42Z</time>
      </trkpt>
      <trkpt lat="43.76875" lon="1.71433">
        <ele>111.755583</ele>
        <time>2026-08-28T17:56:43Z</time>
      </trkpt>
      <trkpt lat="43.76875" lon="1.71443">
        <ele>111.760019</ele>
        <time>2026-08-28T17:56:44Z</time>
      </trkpt>
      <trkpt lat="43.76875" lon="1.71451">
        <ele>111.764211</ele>
        <time>2026-08-28T17:56:45Z</time>
      </trkpt>
      <trkpt lat="43.76874" lon="1.7146">
        <ele>111.768455</ele>
        <time>2026-08-28T17:56:46Z</time>
      </trkpt>
      <trkpt lat="43.76874" lon="1.71469">
        <ele>111.772848</ele>
        <time>2026-08-28T17:56:47Z</time>
      </trkpt>
      <trkpt lat="43.76874" lon="1.71478">
        <ele>111.785411</ele>
        <time>2026-08-28T17:56:48Z</time>
      </trkpt>
      <trkpt lat="43.76873" lon="1.71486">
        <ele>111.798771</ele>
        <time>2026-08-28T17:56:49Z</time>
      </trkpt>
      <trkpt lat="43.76873" lon="1.71494">
        <ele>111.81162</ele>
        <time>2026-08-28T17:56:50Z</time>
      </trkpt>
      <trkpt lat="43.76873" lon="1.71502">
        <ele>111.825113</ele>
        <time>2026-08-28T17:56:51Z</time>
      </trkpt>
      <trkpt lat="43.76873" lon="1.71511">
        <ele>111.838781</ele>
        <time>2026-08-28T17:56:52Z</time>
      </trkpt>
      <trkpt lat="43.76872" lon="1.71519">
        <ele>111.851006</ele>
        <time>2026-08-28T17:56:53Z</time>
      </trkpt>
      <trkpt lat="43.76871" lon="1.71526">
        <ele>111.863758</ele>
        <time>2026-08-28T17:56:54Z</time>
      </trkpt>
      <trkpt lat="43.76868" lon="1.71533">
        <ele>111.876526</ele>
        <time>2026-08-28T17:56:55Z</time>
      </trkpt>
      <trkpt lat="43.76863" lon="1.71538">
        <ele>111.889562</ele>
        <time>2026-08-28T17:56:56Z</time>
      </trkpt>
      <trkpt lat="43.76858" lon="1.71542">
        <ele>111.903378</ele>
        <time>2026-08-28T17:56:57Z</time>
      </trkpt>
      <trkpt lat="43.76852" lon="1.71545">
        <ele>111.917093</ele>
        <time>2026-08-28T17:56:58Z</time>
      </trkpt>
      <trkpt lat="43.76846" lon="1.71548">
        <ele>111.930773</ele>
        <time>2026-08-28T17:56:59Z</time>
      </trkpt>
      <trkpt lat="43.76841" lon="1.71552">
        <ele>111.944714</ele>
        <time>2026-08-28T17:57:00Z</time>
      </trkpt>
      <trkpt lat="43.76836" lon="1.71557">
        <ele>111.958613</ele>
        <time>2026-08-28T17:57:01Z</time>
      </trkpt>
      <trkpt lat="43.76831" lon="1.71562">
        <ele>111.972299</ele>
        <time>2026-08-28T17:57:02Z</time>
      </trkpt>
      <trkpt lat="43.76826" lon="1.71568">
        <ele>111.986146</ele>
        <time>2026-08-28T17:57:03Z</time>
      </trkpt>
      <trkpt lat="43.76822" lon="1.71575">
        <ele>112.000304</ele>
        <time>2026-08-28T17:57:04Z</time>
      </trkpt>
      <trkpt lat="43.76818" lon="1.71582">
        <ele>112.014632</ele>
        <time>2026-08-28T17:57:05Z</time>
      </trkpt>
      <trkpt lat="43.76815" lon="1.7159">
        <ele>112.028875</ele>
        <time>2026-08-28T17:57:06Z</time>
      </trkpt>
      <trkpt lat="43.76812" lon="1.71598">
        <ele>112.043496</ele>
        <time>2026-08-28T17:57:07Z</time>
      </trkpt>
      <trkpt lat="43.7681" lon="1.71606">
        <ele>112.057774</ele>
        <time>2026-08-28T17:57:08Z</time>
      </trkpt>
      <trkpt lat="43.76808" lon="1.71614">
        <ele>112.071675</ele>
        <time>2026-08-28T17:57:09Z</time>
      </trkpt>
      <trkpt lat="43.76806" lon="1.71622">
        <ele>112.085201</ele>
        <time>2026-08-28T17:57:10Z</time>
      </trkpt>
      <trkpt lat="43.76804" lon="1.71631">
        <ele>112.099186</ele>
        <time>2026-08-28T17:57:11Z</time>
      </trkpt>
      <trkpt lat="43.76802" lon="1.71639">
        <ele>112.113477</ele>
        <time>2026-08-28T17:57:12Z</time>
      </trkpt>
      <trkpt lat="43.768" lon="1.71648">
        <ele>112.128075</ele>
        <time>2026-08-28T17:57:13Z</time>
      </trkpt>
      <trkpt lat="43.76799" lon="1.71656">
        <ele>112.141931</ele>
        <time>2026-08-28T17:57:14Z</time>
      </trkpt>
      <trkpt lat="43.76797" lon="1.71664">
        <ele>112.155754</ele>
        <time>2026-08-28T17:57:15Z</time>
      </trkpt>
      <trkpt lat="43.76794" lon="1.71672">
        <ele>112.169698</ele>
        <time>2026-08-28T17:57:16Z</time>
      </trkpt>
      <trkpt lat="43.76791" lon="1.7168">
        <ele>112.196181</ele>
        <time>2026-08-28T17:57:17Z</time>
      </trkpt>
      <trkpt lat="43.76787" lon="1.71687">
        <ele>112.227877</ele>
        <time>2026-08-28T17:57:18Z</time>
      </trkpt>
      <trkpt lat="43.76784" lon="1.71694">
        <ele>112.260132</ele>
        <time>2026-08-28T17:57:19Z</time>
      </trkpt>
      <trkpt lat="43.7678" lon="1.71701">
        <ele>112.290967</ele>
        <time>2026-08-28T17:57:20Z</time>
      </trkpt>
      <trkpt lat="43.76776" lon="1.71706">
        <ele>112.321411</ele>
        <time>2026-08-28T17:57:21Z</time>
      </trkpt>
      <trkpt lat="43.76771" lon="1.71712">
        <ele>112.353361</ele>
        <time>2026-08-28T17:57:22Z</time>
      </trkpt>
      <trkpt lat="43.76766" lon="1.71718">
        <ele>112.385463</ele>
        <time>2026-08-28T17:57:23Z</time>
      </trkpt>
      <trkpt lat="43.76761" lon="1.71724">
        <ele>112.417272</ele>
        <time>2026-08-28T17:57:24Z</time>
      </trkpt>
      <trkpt lat="43.76756" lon="1.71729">
        <ele>112.449273</ele>
        <time>2026-08-28T17:57:25Z</time>
      </trkpt>
      <trkpt lat="43.76751" lon="1.71734">
        <ele>112.481312</ele>
        <time>2026-08-28T17:57:26Z</time>
      </trkpt>
      <trkpt lat="43.76746" lon="1.7174">
        <ele>112.512641</ele>
        <time>2026-08-28T17:57:27Z</time>
      </trkpt>
      <trkpt lat="43.76742" lon="1.71745">
        <ele>112.543589</ele>
        <time>2026-08-28T17:57:28Z</time>
      </trkpt>
      <trkpt lat="43.76737" lon="1.71751">
        <ele>112.57527</ele>
        <time>2026-08-28T17:57:29Z</time>
      </trkpt>
      <trkpt lat="43.76733" lon="1.71757">
        <ele>112.606951</ele>
        <time>2026-08-28T17:57:30Z</time>
      </trkpt>
      <trkpt lat="43.76728" lon="1.71763">
        <ele>112.638769</ele>
        <time>2026-08-28T17:57:31Z</time>
      </trkpt>
      <trkpt lat="43.76723" lon="1.71769">
        <ele>112.67045</ele>
        <time>2026-08-28T17:57:32Z</time>
      </trkpt>
      <trkpt lat="43.76719" lon="1.71775">
        <ele>112.702018</ele>
        <time>2026-08-28T17:57:33Z</time>
      </trkpt>
      <trkpt lat="43.76714" lon="1.71781">
        <ele>112.734207</ele>
        <time>2026-08-28T17:57:34Z</time>
      </trkpt>
      <trkpt lat="43.76709" lon="1.71787">
        <ele>112.767006</ele>
        <time>2026-08-28T17:57:35Z</time>
      </trkpt>
      <trkpt lat="43.76705" lon="1.71793">
        <ele>112.799187</ele>
        <time>2026-08-28T17:57:36Z</time>
      </trkpt>
      <trkpt lat="43.767" lon="1.71799">
        <ele>112.831735</ele>
        <time>2026-08-28T17:57:37Z</time>
      </trkpt>
      <trkpt lat="43.76695" lon="1.71805">
        <ele>112.863545</ele>
        <time>2026-08-28T17:57:38Z</time>
      </trkpt>
      <trkpt lat="43.76691" lon="1.7181">
        <ele>112.894874</ele>
        <time>2026-08-28T17:57:39Z</time>
      </trkpt>
      <trkpt lat="43.76686" lon="1.71816">
        <ele>112.926203</ele>
        <time>2026-08-28T17:57:40Z</time>
      </trkpt>
      <trkpt lat="43.76681" lon="1.71822">
        <ele>112.95715</ele>
        <time>2026-08-28T17:57:41Z</time>
      </trkpt>
      <trkpt lat="43.76677" lon="1.71828">
        <ele>112.98834</ele>
        <time>2026-08-28T17:57:42Z</time>
      </trkpt>
      <trkpt lat="43.76672" lon="1.71833">
        <ele>113.018668</ele>
        <time>2026-08-28T17:57:43Z</time>
      </trkpt>
      <trkpt lat="43.76668" lon="1.71839">
        <ele>113.048864</ele>
        <time>2026-08-28T17:57:44Z</time>
      </trkpt>
      <trkpt lat="43.76664" lon="1.71845">
        <ele>113.08023</ele>
        <time>2026-08-28T17:57:45Z</time>
      </trkpt>
      <trkpt lat="43.76659" lon="1.71851">
        <ele>113.10095</ele>
        <time>2026-08-28T17:57:46Z</time>
      </trkpt>
      <trkpt lat="43.76655" lon="1.71857">
        <ele>113.120527</ele>
        <time>2026-08-28T17:57:47Z</time>
      </trkpt>
      <trkpt lat="43.7665" lon="1.71864">
        <ele>113.140264</ele>
        <time>2026-08-28T17:57:48Z</time>
      </trkpt>
      <trkpt lat="43.76646" lon="1.7187">
        <ele>113.159623</ele>
        <time>2026-08-28T17:57:49Z</time>
      </trkpt>
      <trkpt lat="43.76642" lon="1.71876">
        <ele>113.17974</ele>
        <time>2026-08-28T17:57:50Z</time>
      </trkpt>
      <trkpt lat="43.76637" lon="1.71883">
        <ele>113.200181</ele>
        <time>2026-08-28T17:57:51Z</time>
      </trkpt>
      <trkpt lat="43.76633" lon="1.71889">
        <ele>113.220245</ele>
        <time>2026-08-28T17:57:52Z</time>
      </trkpt>
      <trkpt lat="43.76628" lon="1.71896">
        <ele>113.239604</ele>
        <time>2026-08-28T17:57:53Z</time>
      </trkpt>
      <trkpt lat="43.76624" lon="1.71902">
        <ele>113.258872</ele>
        <time>2026-08-28T17:57:54Z</time>
      </trkpt>
      <trkpt lat="43.7662" lon="1.71909">
        <ele>113.278683</ele>
        <time>2026-08-28T17:57:55Z</time>
      </trkpt>
      <trkpt lat="43.76616" lon="1.71915">
        <ele>113.298911</ele>
        <time>2026-08-28T17:57:56Z</time>
      </trkpt>
      <trkpt lat="43.76611" lon="1.71922">
        <ele>113.318892</ele>
        <time>2026-08-28T17:57:57Z</time>
      </trkpt>
      <trkpt lat="43.76607" lon="1.71929">
        <ele>113.339454</ele>
        <time>2026-08-28T17:57:58Z</time>
      </trkpt>
      <trkpt lat="43.76603" lon="1.71935">
        <ele>113.35906</ele>
        <time>2026-08-28T17:57:59Z</time>
      </trkpt>
      <trkpt lat="43.76599" lon="1.71942">
        <ele>113.378536</ele>
        <time>2026-08-28T17:58:00Z</time>
      </trkpt>
      <trkpt lat="43.76594" lon="1.71948">
        <ele>113.398554</ele>
        <time>2026-08-28T17:58:01Z</time>
      </trkpt>
      <trkpt lat="43.7659" lon="1.71955">
        <ele>113.418197</ele>
        <time>2026-08-28T17:58:02Z</time>
      </trkpt>
      <trkpt lat="43.76586" lon="1.71961">
        <ele>113.437296</ele>
        <time>2026-08-28T17:58:03Z</time>
      </trkpt>
      <trkpt lat="43.76582" lon="1.71967">
        <ele>113.455852</ele>
        <time>2026-08-28T17:58:04Z</time>
      </trkpt>
      <trkpt lat="43.76578" lon="1.71974">
        <ele>113.474744</ele>
        <time>2026-08-28T17:58:05Z</time>
      </trkpt>
      <trkpt lat="43.76574" lon="1.7198">
        <ele>113.493134</ele>
        <time>2026-08-28T17:58:06Z</time>
      </trkpt>
      <trkpt lat="43.7657" lon="1.71986">
        <ele>113.511524</ele>
        <time>2026-08-28T17:58:07Z</time>
      </trkpt>
      <trkpt lat="43.76566" lon="1.71991">
        <ele>113.529537</ele>
        <time>2026-08-28T17:58:08Z</time>
      </trkpt>
      <trkpt lat="43.76563" lon="1.71998">
        <ele>113.548</ele>
        <time>2026-08-28T17:58:09Z</time>
      </trkpt>
      <trkpt lat="43.76559" lon="1.72004">
        <ele>113.565742</ele>
        <time>2026-08-28T17:58:10Z</time>
      </trkpt>
      <trkpt lat="43.76556" lon="1.72009">
        <ele>113.580583</ele>
        <time>2026-08-28T17:58:11Z</time>
      </trkpt>
      <trkpt lat="43.76553" lon="1.72014">
        <ele>113.595595</ele>
        <time>2026-08-28T17:58:12Z</time>
      </trkpt>
      <trkpt lat="43.7655" lon="1.72019">
        <ele>113.609765</ele>
        <time>2026-08-28T17:58:13Z</time>
      </trkpt>
      <trkpt lat="43.76547" lon="1.72023">
        <ele>113.622979</ele>
        <time>2026-08-28T17:58:14Z</time>
      </trkpt>
      <trkpt lat="43.76543" lon="1.72028">
        <ele>113.639863</ele>
        <time>2026-08-28T17:58:15Z</time>
      </trkpt>
      <trkpt lat="43.76539" lon="1.72032">
        <ele>113.651724</ele>
        <time>2026-08-28T17:58:16Z</time>
      </trkpt>
      <trkpt lat="43.76535" lon="1.72035">
        <ele>113.662258</ele>
        <time>2026-08-28T17:58:17Z</time>
      </trkpt>
      <trkpt lat="43.7653" lon="1.7204">
        <ele>113.674396</ele>
        <time>2026-08-28T17:58:18Z</time>
      </trkpt>
      <trkpt lat="43.76526" lon="1.72044">
        <ele>113.684663</ele>
        <time>2026-08-28T17:58:19Z</time>
      </trkpt>
      <trkpt lat="43.76524" lon="1.7205">
        <ele>113.694634</ele>
        <time>2026-08-28T17:58:20Z</time>
      </trkpt>
      <trkpt lat="43.76524" lon="1.72056">
        <ele>113.704959</ele>
        <time>2026-08-28T17:58:21Z</time>
      </trkpt>
      <trkpt lat="43.76523" lon="1.72062">
        <ele>113.714839</ele>
        <time>2026-08-28T17:58:22Z</time>
      </trkpt>
      <trkpt lat="43.76521" lon="1.72068">
        <ele>113.724991</ele>
        <time>2026-08-28T17:58:23Z</time>
      </trkpt>
      <trkpt lat="43.76518" lon="1.72073">
        <ele>113.73512</ele>
        <time>2026-08-28T17:58:24Z</time>
      </trkpt>
      <trkpt lat="43.76515" lon="1.72078">
        <ele>113.746051</ele>
        <time>2026-08-28T17:58:25Z</time>
      </trkpt>
      <trkpt lat="43.76511" lon="1.72083">
        <ele>113.757358</ele>
        <time>2026-08-28T17:58:26Z</time>
      </trkpt>
      <trkpt lat="43.76507" lon="1.72088">
        <ele>113.769267</ele>
        <time>2026-08-28T17:58:27Z</time>
      </trkpt>
      <trkpt lat="43.76503" lon="1.72094">
        <ele>113.781596</ele>
        <time>2026-08-28T17:58:28Z</time>
      </trkpt>
      <trkpt lat="43.76499" lon="1.72099">
        <ele>113.793705</ele>
        <time>2026-08-28T17:58:29Z</time>
      </trkpt>
      <trkpt lat="43.76495" lon="1.72104">
        <ele>113.805656</ele>
        <time>2026-08-28T17:58:30Z</time>
      </trkpt>
      <trkpt lat="43.76492" lon="1.7211">
        <ele>113.817235</ele>
        <time>2026-08-28T17:58:31Z</time>
      </trkpt>
      <trkpt lat="43.76489" lon="1.72115">
        <ele>113.82839</ele>
        <time>2026-08-28T17:58:32Z</time>
      </trkpt>
      <trkpt lat="43.76486" lon="1.72121">
        <ele>113.839302</ele>
        <time>2026-08-28T17:58:33Z</time>
      </trkpt>
      <trkpt lat="43.76482" lon="1.72126">
        <ele>113.850415</ele>
        <time>2026-08-28T17:58:34Z</time>
      </trkpt>
      <trkpt lat="43.76478" lon="1.72132">
        <ele>113.862736</ele>
        <time>2026-08-28T17:58:35Z</time>
      </trkpt>
      <trkpt lat="43.76475" lon="1.72137">
        <ele>113.87446</ele>
        <time>2026-08-28T17:58:36Z</time>
      </trkpt>
      <trkpt lat="43.76471" lon="1.72143">
        <ele>113.886635</ele>
        <time>2026-08-28T17:58:37Z</time>
      </trkpt>
      <trkpt lat="43.76467" lon="1.72148">
        <ele>113.898259</ele>
        <time>2026-08-28T17:58:38Z</time>
      </trkpt>
      <trkpt lat="43.76463" lon="1.72153">
        <ele>113.910322</ele>
        <time>2026-08-28T17:58:39Z</time>
      </trkpt>
      <trkpt lat="43.76459" lon="1.72159">
        <ele>113.922079</ele>
        <time>2026-08-28T17:58:40Z</time>
      </trkpt>
      <trkpt lat="43.76456" lon="1.72164">
        <ele>113.93361</ele>
        <time>2026-08-28T17:58:41Z</time>
      </trkpt>
      <trkpt lat="43.76452" lon="1.72169">
        <ele>113.945784</ele>
        <time>2026-08-28T17:58:42Z</time>
      </trkpt>
      <trkpt lat="43.76448" lon="1.72175">
        <ele>113.95789</ele>
        <time>2026-08-28T17:58:43Z</time>
      </trkpt>
      <trkpt lat="43.76445" lon="1.72181">
        <ele>113.97009</ele>
        <time>2026-08-28T17:58:44Z</time>
      </trkpt>
      <trkpt lat="43.76441" lon="1.72187">
        <ele>113.982607</ele>
        <time>2026-08-28T17:58:45Z</time>
      </trkpt>
      <trkpt lat="43.76437" lon="1.72192">
        <ele>113.994559</ele>
        <time>2026-08-28T17:58:46Z</time>
      </trkpt>
      <trkpt lat="43.76433" lon="1.72197">
        <ele>114.006719</ele>
        <time>2026-08-28T17:58:47Z</time>
      </trkpt>
      <trkpt lat="43.76428" lon="1.72202">
        <ele>114.01863</ele>
        <time>2026-08-28T17:58:48Z</time>
      </trkpt>
      <trkpt lat="43.76424" lon="1.72207">
        <ele>114.03063</ele>
        <time>2026-08-28T17:58:49Z</time>
      </trkpt>
      <trkpt lat="43.7642" lon="1.72213">
        <ele>114.039725</ele>
        <time>2026-08-28T17:58:50Z</time>
      </trkpt>
      <trkpt lat="43.76417" lon="1.72218">
        <ele>114.045565</ele>
        <time>2026-08-28T17:58:51Z</time>
      </trkpt>
      <trkpt lat="43.76413" lon="1.72224">
        <ele>114.051277</ele>
        <time>2026-08-28T17:58:52Z</time>
      </trkpt>
      <trkpt lat="43.76409" lon="1.72229">
        <ele>114.056736</ele>
        <time>2026-08-28T17:58:53Z</time>
      </trkpt>
      <trkpt lat="43.76406" lon="1.72235">
        <ele>114.062364</ele>
        <time>2026-08-28T17:58:54Z</time>
      </trkpt>
      <trkpt lat="43.76402" lon="1.7224">
        <ele>114.067822</ele>
        <time>2026-08-28T17:58:55Z</time>
      </trkpt>
      <trkpt lat="43.76399" lon="1.72246">
        <ele>114.073394</ele>
        <time>2026-08-28T17:58:56Z</time>
      </trkpt>
      <trkpt lat="43.76396" lon="1.72251">
        <ele>114.078669</ele>
        <time>2026-08-28T17:58:57Z</time>
      </trkpt>
      <trkpt lat="43.76392" lon="1.72256">
        <ele>114.084271</ele>
        <time>2026-08-28T17:58:58Z</time>
      </trkpt>
      <trkpt lat="43.76388" lon="1.72262">
        <ele>114.08989</ele>
        <time>2026-08-28T17:58:59Z</time>
      </trkpt>
      <trkpt lat="43.76385" lon="1.72268">
        <ele>114.095562</ele>
        <time>2026-08-28T17:59:00Z</time>
      </trkpt>
      <trkpt lat="43.76382" lon="1.72273">
        <ele>114.101204</ele>
        <time>2026-08-28T17:59:01Z</time>
      </trkpt>
      <trkpt lat="43.76378" lon="1.72278">
        <ele>114.106725</ele>
        <time>2026-08-28T17:59:02Z</time>
      </trkpt>
      <trkpt lat="43.76374" lon="1.72283">
        <ele>114.112267</ele>
        <time>2026-08-28T17:59:03Z</time>
      </trkpt>
      <trkpt lat="43.7637" lon="1.72288">
        <ele>114.117731</ele>
        <time>2026-08-28T17:59:04Z</time>
      </trkpt>
      <trkpt lat="43.76367" lon="1.72293">
        <ele>114.123134</ele>
        <time>2026-08-28T17:59:05Z</time>
      </trkpt>
      <trkpt lat="43.76363" lon="1.72299">
        <ele>114.128719</ele>
        <time>2026-08-28T17:59:06Z</time>
      </trkpt>
      <trkpt lat="43.7636" lon="1.72304">
        <ele>114.134279</ele>
        <time>2026-08-28T17:59:07Z</time>
      </trkpt>
      <trkpt lat="43.76356" lon="1.7231">
        <ele>114.139937</ele>
        <time>2026-08-28T17:59:08Z</time>
      </trkpt>
      <trkpt lat="43.76352" lon="1.72315">
        <ele>114.145741</ele>
        <time>2026-08-28T17:59:09Z</time>
      </trkpt>
      <trkpt lat="43.76348" lon="1.72321">
        <ele>114.151637</ele>
        <time>2026-08-28T17:59:10Z</time>
      </trkpt>
      <trkpt lat="43.76344" lon="1.72327">
        <ele>114.157716</ele>
        <time>2026-08-28T17:59:11Z</time>
      </trkpt>
      <trkpt lat="43.7634" lon="1.72332">
        <ele>114.163628</ele>
        <time>2026-08-28T17:59:12Z</time>
      </trkpt>
      <trkpt lat="43.76337" lon="1.72338">
        <ele>114.169487</ele>
        <time>2026-08-28T17:59:13Z</time>
      </trkpt>
      <trkpt lat="43.76333" lon="1.72344">
        <ele>114.175495</ele>
        <time>2026-08-28T17:59:14Z</time>
      </trkpt>
      <trkpt lat="43.76329" lon="1.72349">
        <ele>114.181609</ele>
        <time>2026-08-28T17:59:15Z</time>
      </trkpt>
      <trkpt lat="43.76325" lon="1.72355">
        <ele>114.187577</ele>
        <time>2026-08-28T17:59:16Z</time>
      </trkpt>
      <trkpt lat="43.76321" lon="1.72361">
        <ele>114.1936</ele>
        <time>2026-08-28T17:59:17Z</time>
      </trkpt>
      <trkpt lat="43.76317" lon="1.72367">
        <ele>114.199608</ele>
        <time>2026-08-28T17:59:18Z</time>
      </trkpt>
      <trkpt lat="43.76313" lon="1.72373">
        <ele>114.205687</ele>
        <time>2026-08-28T17:59:19Z</time>
      </trkpt>
      <trkpt lat="43.76309" lon="1.72378">
        <ele>114.211696</ele>
        <time>2026-08-28T17:59:20Z</time>
      </trkpt>
      <trkpt lat="43.76306" lon="1.72384">
        <ele>114.217521</ele>
        <time>2026-08-28T17:59:21Z</time>
      </trkpt>
      <trkpt lat="43.76302" lon="1.7239">
        <ele>114.223488</ele>
        <time>2026-08-28T17:59:22Z</time>
      </trkpt>
      <trkpt lat="43.76298" lon="1.72396">
        <ele>114.230509</ele>
        <time>2026-08-28T17:59:23Z</time>
      </trkpt>
      <trkpt lat="43.76293" lon="1.72402">
        <ele>114.238573</ele>
        <time>2026-08-28T17:59:24Z</time>
      </trkpt>
      <trkpt lat="43.76289" lon="1.72408">
        <ele>114.24657</ele>
        <time>2026-08-28T17:59:25Z</time>
      </trkpt>
      <trkpt lat="43.76285" lon="1.72413">
        <ele>114.254274</ele>
        <time>2026-08-28T17:59:26Z</time>
      </trkpt>
      <trkpt lat="43.76281" lon="1.72419">
        <ele>114.261752</ele>
        <time>2026-08-28T17:59:27Z</time>
      </trkpt>
      <trkpt lat="43.76277" lon="1.72424">
        <ele>114.268953</ele>
        <time>2026-08-28T17:59:28Z</time>
      </trkpt>
      <trkpt lat="43.76273" lon="1.7243">
        <ele>114.276046</ele>
        <time>2026-08-28T17:59:29Z</time>
      </trkpt>
      <trkpt lat="43.7627" lon="1.72436">
        <ele>114.283297</ele>
        <time>2026-08-28T17:59:30Z</time>
      </trkpt>
      <trkpt lat="43.76266" lon="1.72441">
        <ele>114.290636</ele>
        <time>2026-08-28T17:59:31Z</time>
      </trkpt>
      <trkpt lat="43.76262" lon="1.72447">
        <ele>114.297888</ele>
        <time>2026-08-28T17:59:32Z</time>
      </trkpt>
      <trkpt lat="43.76258" lon="1.72452">
        <ele>114.304983</ele>
        <time>2026-08-28T17:59:33Z</time>
      </trkpt>
      <trkpt lat="43.76254" lon="1.72457">
        <ele>114.311979</ele>
        <time>2026-08-28T17:59:34Z</time>
      </trkpt>
      <trkpt lat="43.7625" lon="1.72461">
        <ele>114.318717</ele>
        <time>2026-08-28T17:59:35Z</time>
      </trkpt>
      <trkpt lat="43.76247" lon="1.72466">
        <ele>114.324879</ele>
        <time>2026-08-28T17:59:36Z</time>
      </trkpt>
      <trkpt lat="43.76243" lon="1.7247">
        <ele>114.330687</ele>
        <time>2026-08-28T17:59:37Z</time>
      </trkpt>
      <trkpt lat="43.7624" lon="1.72474">
        <ele>114.336334</ele>
        <time>2026-08-28T17:59:38Z</time>
      </trkpt>
      <trkpt lat="43.76237" lon="1.72478">
        <ele>114.341982</ele>
        <time>2026-08-28T17:59:39Z</time>
      </trkpt>
      <trkpt lat="43.76234" lon="1.72482">
        <ele>114.347544</ele>
        <time>2026-08-28T17:59:40Z</time>
      </trkpt>
      <trkpt lat="43.7623" lon="1.72485">
        <ele>114.353038</ele>
        <time>2026-08-28T17:59:41Z</time>
      </trkpt>
      <trkpt lat="43.76227" lon="1.72489">
        <ele>114.358399</ele>
        <time>2026-08-28T17:59:42Z</time>
      </trkpt>
      <trkpt lat="43.76224" lon="1.72493">
        <ele>114.36363</ele>
        <time>2026-08-28T17:59:43Z</time>
      </trkpt>
      <trkpt lat="43.76222" lon="1.72497">
        <ele>114.368721</ele>
        <time>2026-08-28T17:59:44Z</time>
      </trkpt>
      <trkpt lat="43.76219" lon="1.725">
        <ele>114.373791</ele>
        <time>2026-08-28T17:59:45Z</time>
      </trkpt>
      <trkpt lat="43.76216" lon="1.72504">
        <ele>114.378567</ele>
        <time>2026-08-28T17:59:46Z</time>
      </trkpt>
      <trkpt lat="43.76214" lon="1.72508">
        <ele>114.383729</ele>
        <time>2026-08-28T17:59:47Z</time>
      </trkpt>
      <trkpt lat="43.76211" lon="1.72512">
        <ele>114.388999</ele>
        <time>2026-08-28T17:59:48Z</time>
      </trkpt>
      <trkpt lat="43.76208" lon="1.72516">
        <ele>114.394233</ele>
        <time>2026-08-28T17:59:49Z</time>
      </trkpt>
      <trkpt lat="43.76206" lon="1.7252">
        <ele>114.399395</ele>
        <time>2026-08-28T17:59:50Z</time>
      </trkpt>
      <trkpt lat="43.76203" lon="1.72525">
        <ele>114.404733</ele>
        <time>2026-08-28T17:59:51Z</time>
      </trkpt>
      <trkpt lat="43.762" lon="1.72529">
        <ele>114.410231</ele>
        <time>2026-08-28T17:59:52Z</time>
      </trkpt>
      <trkpt lat="43.76197" lon="1.72533">
        <ele>114.415638</ele>
        <time>2026-08-28T17:59:53Z</time>
      </trkpt>
      <trkpt lat="43.76195" lon="1.72537">
        <ele>114.420888</ele>
        <time>2026-08-28T17:59:54Z</time>
      </trkpt>
      <trkpt lat="43.76192" lon="1.72541">
        <ele>114.426226</ele>
        <time>2026-08-28T17:59:55Z</time>
      </trkpt>
      <trkpt lat="43.76189" lon="1.72545">
        <ele>114.431337</ele>
        <time>2026-08-28T17:59:56Z</time>
      </trkpt>
      <trkpt lat="43.76186" lon="1.72549">
        <ele>114.436767</ele>
        <time>2026-08-28T17:59:57Z</time>
      </trkpt>
      <trkpt lat="43.76183" lon="1.72553">
        <ele>114.442063</ele>
        <time>2026-08-28T17:59:58Z</time>
      </trkpt>
      <trkpt lat="43.7618" lon="1.72557">
        <ele>114.447293</ele>
        <time>2026-08-28T17:59:59Z</time>
      </trkpt>
      <trkpt lat="43.76178" lon="1.72561">
        <ele>114.452336</ele>
        <time>2026-08-28T18:00:00Z</time>
      </trkpt>
      <trkpt lat="43.76175" lon="1.72565">
        <ele>114.457447</ele>
        <time>2026-08-28T18:00:01Z</time>
      </trkpt>
      <trkpt lat="43.76173" lon="1.72569">
        <ele>114.463567</ele>
        <time>2026-08-28T18:00:02Z</time>
      </trkpt>
      <trkpt lat="43.7617" lon="1.72572">
        <ele>114.475596</ele>
        <time>2026-08-28T18:00:03Z</time>
      </trkpt>
      <trkpt lat="43.76168" lon="1.72576">
        <ele>114.488449</ele>
        <time>2026-08-28T18:00:04Z</time>
      </trkpt>
      <trkpt lat="43.76165" lon="1.72581">
        <ele>114.501046</ele>
        <time>2026-08-28T18:00:05Z</time>
      </trkpt>
      <trkpt lat="43.76163" lon="1.72585">
        <ele>114.513643</ele>
        <time>2026-08-28T18:00:06Z</time>
      </trkpt>
      <trkpt lat="43.7616" lon="1.72589">
        <ele>114.525463</ele>
        <time>2026-08-28T18:00:07Z</time>
      </trkpt>
      <trkpt lat="43.76158" lon="1.72593">
        <ele>114.537881</ele>
        <time>2026-08-28T18:00:08Z</time>
      </trkpt>
      <trkpt lat="43.76155" lon="1.72597">
        <ele>114.550271</ele>
        <time>2026-08-28T18:00:09Z</time>
      </trkpt>
      <trkpt lat="43.76153" lon="1.72601">
        <ele>114.562904</ele>
        <time>2026-08-28T18:00:10Z</time>
      </trkpt>
      <trkpt lat="43.7615" lon="1.72604">
        <ele>114.575324</ele>
        <time>2026-08-28T18:00:11Z</time>
      </trkpt>
      <trkpt lat="43.76147" lon="1.72608">
        <ele>114.588133</ele>
        <time>2026-08-28T18:00:12Z</time>
      </trkpt>
      <trkpt lat="43.76145" lon="1.72612">
        <ele>114.60073</ele>
        <time>2026-08-28T18:00:13Z</time>
      </trkpt>
      <trkpt lat="43.76142" lon="1.72616">
        <ele>114.613583</ele>
        <time>2026-08-28T18:00:14Z</time>
      </trkpt>
      <trkpt lat="43.7614" lon="1.72621">
        <ele>114.626783</ele>
        <time>2026-08-28T18:00:15Z</time>
      </trkpt>
      <trkpt lat="43.76137" lon="1.72625">
        <ele>114.64016</ele>
        <time>2026-08-28T18:00:16Z</time>
      </trkpt>
      <trkpt lat="43.76135" lon="1.72629">
        <ele>114.652163</ele>
        <time>2026-08-28T18:00:17Z</time>
      </trkpt>
      <trkpt lat="43.76132" lon="1.72633">
        <ele>114.664371</ele>
        <time>2026-08-28T18:00:18Z</time>
      </trkpt>
      <trkpt lat="43.7613" lon="1.72637">
        <ele>114.676831</ele>
        <time>2026-08-28T18:00:19Z</time>
      </trkpt>
      <trkpt lat="43.76127" lon="1.72641">
        <ele>114.689428</ele>
        <time>2026-08-28T18:00:20Z</time>
      </trkpt>
      <trkpt lat="43.76125" lon="1.72645">
        <ele>114.701846</ele>
        <time>2026-08-28T18:00:21Z</time>
      </trkpt>
      <trkpt lat="43.76122" lon="1.72649">
        <ele>114.714135</ele>
        <time>2026-08-28T18:00:22Z</time>
      </trkpt>
      <trkpt lat="43.7612" lon="1.72653">
        <ele>114.726322</ele>
        <time>2026-08-28T18:00:23Z</time>
      </trkpt>
      <trkpt lat="43.76117" lon="1.72657">
        <ele>114.73839</ele>
        <time>2026-08-28T18:00:24Z</time>
      </trkpt>
      <trkpt lat="43.76114" lon="1.7266">
        <ele>114.750738</ele>
        <time>2026-08-28T18:00:25Z</time>
      </trkpt>
      <trkpt lat="43.76112" lon="1.72664">
        <ele>114.762589</ele>
        <time>2026-08-28T18:00:26Z</time>
      </trkpt>
      <trkpt lat="43.7611" lon="1.72668">
        <ele>114.774656</ele>
        <time>2026-08-28T18:00:27Z</time>
      </trkpt>
      <trkpt lat="43.76107" lon="1.72671">
        <ele>114.785422</ele>
        <time>2026-08-28T18:00:28Z</time>
      </trkpt>
      <trkpt lat="43.76105" lon="1.72674">
        <ele>114.796091</ele>
        <time>2026-08-28T18:00:29Z</time>
      </trkpt>
      <trkpt lat="43.76103" lon="1.72678">
        <ele>114.807027</ele>
        <time>2026-08-28T18:00:30Z</time>
      </trkpt>
      <trkpt lat="43.761" lon="1.72681">
        <ele>114.817793</ele>
        <time>2026-08-28T18:00:31Z</time>
      </trkpt>
      <trkpt lat="43.76098" lon="1.72684">
        <ele>114.829258</ele>
        <time>2026-08-28T18:00:32Z</time>
      </trkpt>
      <trkpt lat="43.76095" lon="1.72688">
        <ele>114.840649</ele>
        <time>2026-08-28T18:00:33Z</time>
      </trkpt>
      <trkpt lat="43.76093" lon="1.72691">
        <ele>114.85204</ele>
        <time>2026-08-28T18:00:34Z</time>
      </trkpt>
      <trkpt lat="43.7609" lon="1.72694">
        <ele>114.862469</ele>
        <time>2026-08-28T18:00:35Z</time>
      </trkpt>
      <trkpt lat="43.76087" lon="1.72695">
        <ele>114.872705</ele>
        <time>2026-08-28T18:00:36Z</time>
      </trkpt>
      <trkpt lat="43.76084" lon="1.72697">
        <ele>114.883459</ele>
        <time>2026-08-28T18:00:37Z</time>
      </trkpt>
      <trkpt lat="43.76081" lon="1.72697">
        <ele>114.893956</ele>
        <time>2026-08-28T18:00:38Z</time>
      </trkpt>
      <trkpt lat="43.76078" lon="1.72698">
        <ele>114.90436</ele>
        <time>2026-08-28T18:00:39Z</time>
      </trkpt>
      <trkpt lat="43.76074" lon="1.72698">
        <ele>114.914535</ele>
        <time>2026-08-28T18:00:40Z</time>
      </trkpt>
      <trkpt lat="43.76071" lon="1.727">
        <ele>114.925443</ele>
        <time>2026-08-28T18:00:41Z</time>
      </trkpt>
      <trkpt lat="43.76068" lon="1.72701">
        <ele>114.936281</ele>
        <time>2026-08-28T18:00:42Z</time>
      </trkpt>
      <trkpt lat="43.76065" lon="1.72703">
        <ele>114.947398</ele>
        <time>2026-08-28T18:00:43Z</time>
      </trkpt>
      <trkpt lat="43.76062" lon="1.72706">
        <ele>114.95838</ele>
        <time>2026-08-28T18:00:44Z</time>
      </trkpt>
      <trkpt lat="43.76059" lon="1.72709">
        <ele>114.970008</ele>
        <time>2026-08-28T18:00:45Z</time>
      </trkpt>
      <trkpt lat="43.76057" lon="1.72712">
        <ele>114.981715</ele>
        <time>2026-08-28T18:00:46Z</time>
      </trkpt>
      <trkpt lat="43.76054" lon="1.72716">
        <ele>114.994063</ele>
        <time>2026-08-28T18:00:47Z</time>
      </trkpt>
      <trkpt lat="43.76051" lon="1.7272">
        <ele>115.006916</ele>
        <time>2026-08-28T18:00:48Z</time>
      </trkpt>
      <trkpt lat="43.76049" lon="1.72724">
        <ele>115.01955</ele>
        <time>2026-08-28T18:00:49Z</time>
      </trkpt>
      <trkpt lat="43.76046" lon="1.72727">
        <ele>115.031502</ele>
        <time>2026-08-28T18:00:50Z</time>
      </trkpt>
      <trkpt lat="43.76043" lon="1.72731">
        <ele>115.043226</ele>
        <time>2026-08-28T18:00:51Z</time>
      </trkpt>
      <trkpt lat="43.76041" lon="1.72734">
        <ele>115.059643</ele>
        <time>2026-08-28T18:00:52Z</time>
      </trkpt>
      <trkpt lat="43.76038" lon="1.72737">
        <ele>115.078728</ele>
        <time>2026-08-28T18:00:53Z</time>
      </trkpt>
      <trkpt lat="43.76036" lon="1.7274">
        <ele>115.097564</ele>
        <time>2026-08-28T18:00:54Z</time>
      </trkpt>
      <trkpt lat="43.76034" lon="1.72743">
        <ele>115.116926</ele>
        <time>2026-08-28T18:00:55Z</time>
      </trkpt>
      <trkpt lat="43.76032" lon="1.72747">
        <ele>115.13426</ele>
        <time>2026-08-28T18:00:56Z</time>
      </trkpt>
      <trkpt lat="43.7603" lon="1.7275">
        <ele>115.151419</ele>
        <time>2026-08-28T18:00:57Z</time>
      </trkpt>
      <trkpt lat="43.76027" lon="1.72752">
        <ele>115.167868</ele>
        <time>2026-08-28T18:00:58Z</time>
      </trkpt>
      <trkpt lat="43.76025" lon="1.72755">
        <ele>115.184043</ele>
        <time>2026-08-28T18:00:59Z</time>
      </trkpt>
      <trkpt lat="43.76024" lon="1.72758">
        <ele>115.20038</ele>
        <time>2026-08-28T18:01:00Z</time>
      </trkpt>
      <trkpt lat="43.76023" lon="1.72761">
        <ele>115.212757</ele>
        <time>2026-08-28T18:01:01Z</time>
      </trkpt>
      <trkpt lat="43.76023" lon="1.72762">
        <ele>115.216497</ele>
        <time>2026-08-28T18:01:02Z</time>
      </trkpt>
      <trkpt lat="43.76023" lon="1.72762">
        <ele>115.21937</ele>
        <time>2026-08-28T18:01:03Z</time>
      </trkpt>
      <trkpt lat="43.76023" lon="1.72762">
        <ele>115.221501</ele>
        <time>2026-08-28T18:01:04Z</time>
      </trkpt>
      <trkpt lat="43.76075" lon="1.7278">
        <ele>115.524115</ele>
        <time>2026-08-28T18:06:08Z</time>
      </trkpt>
      <trkpt lat="43.76073" lon="1.72782">
        <ele>115.535957</ele>
        <time>2026-08-28T18:06:09Z</time>
      </trkpt>
      <trkpt lat="43.76071" lon="1.72784">
        <ele>115.548914</ele>
        <time>2026-08-28T18:06:10Z</time>
      </trkpt>
      <trkpt lat="43.7607" lon="1.72787">
        <ele>115.562263</ele>
        <time>2026-08-28T18:06:11Z</time>
      </trkpt>
      <trkpt lat="43.76068" lon="1.72789">
        <ele>115.575379</ele>
        <time>2026-08-28T18:06:12Z</time>
      </trkpt>
      <trkpt lat="43.76067" lon="1.72791">
        <ele>115.588335</ele>
        <time>2026-08-28T18:06:13Z</time>
      </trkpt>
      <trkpt lat="43.76065" lon="1.72793">
        <ele>115.601852</ele>
        <time>2026-08-28T18:06:14Z</time>
      </trkpt>
      <trkpt lat="43.76063" lon="1.72796">
        <ele>115.615937</ele>
        <time>2026-08-28T18:06:15Z</time>
      </trkpt>
      <trkpt lat="43.76061" lon="1.72798">
        <ele>115.629592</ele>
        <time>2026-08-28T18:06:16Z</time>
      </trkpt>
      <trkpt lat="43.7606" lon="1.728">
        <ele>115.64059</ele>
        <time>2026-08-28T18:06:17Z</time>
      </trkpt>
      <trkpt lat="43.76059" lon="1.72801">
        <ele>115.646926</ele>
        <time>2026-08-28T18:06:18Z</time>
      </trkpt>
      <trkpt lat="43.76059" lon="1.72803">
        <ele>115.653968</ele>
        <time>2026-08-28T18:06:19Z</time>
      </trkpt>
      <trkpt lat="43.76058" lon="1.72805">
        <ele>115.663468</ele>
        <time>2026-08-28T18:06:20Z</time>
      </trkpt>
      <trkpt lat="43.76058" lon="1.72806">
        <ele>115.671007</ele>
        <time>2026-08-28T18:06:21Z</time>
      </trkpt>
      <trkpt lat="43.76056" lon="1.72809">
        <ele>115.683003</ele>
        <time>2026-08-28T18:06:22Z</time>
      </trkpt>
      <trkpt lat="43.76055" lon="1.72812">
        <ele>115.697322</ele>
        <time>2026-08-28T18:06:23Z</time>
      </trkpt>
      <trkpt lat="43.76053" lon="1.72814">
        <ele>115.712114</ele>
        <time>2026-08-28T18:06:24Z</time>
      </trkpt>
      <trkpt lat="43.76051" lon="1.72817">
        <ele>115.727598</ele>
        <time>2026-08-28T18:06:25Z</time>
      </trkpt>
      <trkpt lat="43.76049" lon="1.72819">
        <ele>115.742224</ele>
        <time>2026-08-28T18:06:26Z</time>
      </trkpt>
      <trkpt lat="43.76047" lon="1.72822">
        <ele>115.75685</ele>
        <time>2026-08-28T18:06:27Z</time>
      </trkpt>
      <trkpt lat="43.76045" lon="1.72824">
        <ele>115.770935</ele>
        <time>2026-08-28T18:06:28Z</time>
      </trkpt>
      <trkpt lat="43.76044" lon="1.72826">
        <ele>115.784051</ele>
        <time>2026-08-28T18:06:29Z</time>
      </trkpt>
      <trkpt lat="43.76043" lon="1.72828">
        <ele>115.793525</ele>
        <time>2026-08-28T18:06:30Z</time>
      </trkpt>
      <trkpt lat="43.76041" lon="1.7283">
        <ele>115.806911</ele>
        <time>2026-08-28T18:06:31Z</time>
      </trkpt>
      <trkpt lat="43.76039" lon="1.72832">
        <ele>115.818381</ele>
        <time>2026-08-28T18:06:32Z</time>
      </trkpt>
      <trkpt lat="43.76037" lon="1.72833">
        <ele>115.831008</ele>
        <time>2026-08-28T18:06:33Z</time>
      </trkpt>
      <trkpt lat="43.76035" lon="1.72835">
        <ele>115.845739</ele>
        <time>2026-08-28T18:06:34Z</time>
      </trkpt>
      <trkpt lat="43.76033" lon="1.72838">
        <ele>115.860931</ele>
        <time>2026-08-28T18:06:35Z</time>
      </trkpt>
      <trkpt lat="43.76031" lon="1.72841">
        <ele>115.876816</ele>
        <time>2026-08-28T18:06:36Z</time>
      </trkpt>
      <trkpt lat="43.7603" lon="1.72844">
        <ele>115.891481</ele>
        <time>2026-08-28T18:06:37Z</time>
      </trkpt>
      <trkpt lat="43.76028" lon="1.72846">
        <ele>115.90647</ele>
        <time>2026-08-28T18:06:38Z</time>
      </trkpt>
      <trkpt lat="43.76026" lon="1.72849">
        <ele>115.922176</ele>
        <time>2026-08-28T18:06:39Z</time>
      </trkpt>
      <trkpt lat="43.76025" lon="1.72852">
        <ele>115.936387</ele>
        <time>2026-08-28T18:06:40Z</time>
      </trkpt>
      <trkpt lat="43.76023" lon="1.72854">
        <ele>115.950194</ele>
        <time>2026-08-28T18:06:41Z</time>
      </trkpt>
      <trkpt lat="43.76021" lon="1.72857">
        <ele>115.965944</ele>
        <time>2026-08-28T18:06:42Z</time>
      </trkpt>
      <trkpt lat="43.76019" lon="1.7286">
        <ele>115.982811</ele>
        <time>2026-08-28T18:06:43Z</time>
      </trkpt>
      <trkpt lat="43.76017" lon="1.72863">
        <ele>115.999199</ele>
        <time>2026-08-28T18:06:44Z</time>
      </trkpt>
      <trkpt lat="43.76015" lon="1.72865">
        <ele>116.014801</ele>
        <time>2026-08-28T18:06:45Z</time>
      </trkpt>
      <trkpt lat="43.76013" lon="1.72868">
        <ele>116.032182</ele>
        <time>2026-08-28T18:06:46Z</time>
      </trkpt>
      <trkpt lat="43.76011" lon="1.72871">
        <ele>116.050033</ele>
        <time>2026-08-28T18:06:47Z</time>
      </trkpt>
      <trkpt lat="43.76009" lon="1.72875">
        <ele>116.066692</ele>
        <time>2026-08-28T18:06:48Z</time>
      </trkpt>
      <trkpt lat="43.76007" lon="1.72878">
        <ele>116.078835</ele>
        <time>2026-08-28T18:06:49Z</time>
      </trkpt>
      <trkpt lat="43.76005" lon="1.7288">
        <ele>116.089866</ele>
        <time>2026-08-28T18:06:50Z</time>
      </trkpt>
      <trkpt lat="43.76002" lon="1.72883">
        <ele>116.101087</ele>
        <time>2026-08-28T18:06:51Z</time>
      </trkpt>
      <trkpt lat="43.76" lon="1.72886">
        <ele>116.112779</ele>
        <time>2026-08-28T18:06:52Z</time>
      </trkpt>
      <trkpt lat="43.75998" lon="1.72889">
        <ele>116.125225</ele>
        <time>2026-08-28T18:06:53Z</time>
      </trkpt>
      <trkpt lat="43.75996" lon="1.72892">
        <ele>116.137388</ele>
        <time>2026-08-28T18:06:54Z</time>
      </trkpt>
      <trkpt lat="43.75993" lon="1.72895">
        <ele>116.149743</ele>
        <time>2026-08-28T18:06:55Z</time>
      </trkpt>
      <trkpt lat="43.75991" lon="1.72898">
        <ele>116.161298</ele>
        <time>2026-08-28T18:06:56Z</time>
      </trkpt>
      <trkpt lat="43.75989" lon="1.72901">
        <ele>116.172391</ele>
        <time>2026-08-28T18:06:57Z</time>
      </trkpt>
      <trkpt lat="43.75988" lon="1.72904">
        <ele>116.1821</ele>
        <time>2026-08-28T18:06:58Z</time>
      </trkpt>
      <trkpt lat="43.75986" lon="1.72907">
        <ele>116.19252</ele>
        <time>2026-08-28T18:06:59Z</time>
      </trkpt>
      <trkpt lat="43.75984" lon="1.72909">
        <ele>116.202235</ele>
        <time>2026-08-28T18:07:00Z</time>
      </trkpt>
      <trkpt lat="43.75982" lon="1.72912">
        <ele>116.212987</ele>
        <time>2026-08-28T18:07:01Z</time>
      </trkpt>
      <trkpt lat="43.7598" lon="1.72914">
        <ele>116.222912</ele>
        <time>2026-08-28T18:07:02Z</time>
      </trkpt>
      <trkpt lat="43.75979" lon="1.72917">
        <ele>116.232621</ele>
        <time>2026-08-28T18:07:03Z</time>
      </trkpt>
      <trkpt lat="43.75977" lon="1.7292">
        <ele>116.24279</ele>
        <time>2026-08-28T18:07:04Z</time>
      </trkpt>
      <trkpt lat="43.75975" lon="1.72923">
        <ele>116.255481</ele>
        <time>2026-08-28T18:07:05Z</time>
      </trkpt>
      <trkpt lat="43.75973" lon="1.72927">
        <ele>116.26813</ele>
        <time>2026-08-28T18:07:06Z</time>
      </trkpt>
      <trkpt lat="43.7597" lon="1.7293">
        <ele>116.280955</ele>
        <time>2026-08-28T18:07:07Z</time>
      </trkpt>
      <trkpt lat="43.75968" lon="1.72933">
        <ele>116.293506</ele>
        <time>2026-08-28T18:07:08Z</time>
      </trkpt>
      <trkpt lat="43.75966" lon="1.72937">
        <ele>116.306255</ele>
        <time>2026-08-28T18:07:09Z</time>
      </trkpt>
      <trkpt lat="43.75964" lon="1.7294">
        <ele>116.318537</ele>
        <time>2026-08-28T18:07:10Z</time>
      </trkpt>
      <trkpt lat="43.75962" lon="1.72942">
        <ele>116.328752</ele>
        <time>2026-08-28T18:07:11Z</time>
      </trkpt>
      <trkpt lat="43.7596" lon="1.72945">
        <ele>116.338501</ele>
        <time>2026-08-28T18:07:12Z</time>
      </trkpt>
      <trkpt lat="43.75958" lon="1.72948">
        <ele>116.349918</ele>
        <time>2026-08-28T18:07:13Z</time>
      </trkpt>
      <trkpt lat="43.75956" lon="1.72951">
        <ele>116.360478</ele>
        <time>2026-08-28T18:07:14Z</time>
      </trkpt>
      <trkpt lat="43.75954" lon="1.72954">
        <ele>116.372092</ele>
        <time>2026-08-28T18:07:15Z</time>
      </trkpt>
      <trkpt lat="43.75952" lon="1.72957">
        <ele>116.383395</ele>
        <time>2026-08-28T18:07:16Z</time>
      </trkpt>
      <trkpt lat="43.7595" lon="1.72959">
        <ele>116.392681</ele>
        <time>2026-08-28T18:07:17Z</time>
      </trkpt>
      <trkpt lat="43.75949" lon="1.72961">
        <ele>116.401043</ele>
        <time>2026-08-28T18:07:18Z</time>
      </trkpt>
      <trkpt lat="43.75947" lon="1.72965">
        <ele>116.413528</ele>
        <time>2026-08-28T18:07:19Z</time>
      </trkpt>
      <trkpt lat="43.75945" lon="1.72968">
        <ele>116.425965</ele>
        <time>2026-08-28T18:07:20Z</time>
      </trkpt>
      <trkpt lat="43.75943" lon="1.72972">
        <ele>116.438614</ele>
        <time>2026-08-28T18:07:21Z</time>
      </trkpt>
      <trkpt lat="43.75941" lon="1.72975">
        <ele>116.45017</ele>
        <time>2026-08-28T18:07:22Z</time>
      </trkpt>
      <trkpt lat="43.75939" lon="1.72978">
        <ele>116.462607</ele>
        <time>2026-08-28T18:07:23Z</time>
      </trkpt>
      <trkpt lat="43.75936" lon="1.72982">
        <ele>116.475717</ele>
        <time>2026-08-28T18:07:24Z</time>
      </trkpt>
      <trkpt lat="43.75934" lon="1.72985">
        <ele>116.488871</ele>
        <time>2026-08-28T18:07:25Z</time>
      </trkpt>
      <trkpt lat="43.75932" lon="1.72988">
        <ele>116.501226</ele>
        <time>2026-08-28T18:07:26Z</time>
      </trkpt>
      <trkpt lat="43.7593" lon="1.72991">
        <ele>116.512729</ele>
        <time>2026-08-28T18:07:27Z</time>
      </trkpt>
      <trkpt lat="43.75928" lon="1.72993">
        <ele>116.522736</ele>
        <time>2026-08-28T18:07:28Z</time>
      </trkpt>
      <trkpt lat="43.75926" lon="1.72995">
        <ele>116.530849</ele>
        <time>2026-08-28T18:07:29Z</time>
      </trkpt>
      <trkpt lat="43.75924" lon="1.72997">
        <ele>116.538963</ele>
        <time>2026-08-28T18:07:30Z</time>
      </trkpt>
      <trkpt lat="43.75923" lon="1.73">
        <ele>116.548581</ele>
        <time>2026-08-28T18:07:31Z</time>
      </trkpt>
      <trkpt lat="43.75921" lon="1.73002">
        <ele>116.558594</ele>
        <time>2026-08-28T18:07:32Z</time>
      </trkpt>
      <trkpt lat="43.75919" lon="1.73006">
        <ele>116.572571</ele>
        <time>2026-08-28T18:07:33Z</time>
      </trkpt>
      <trkpt lat="43.75916" lon="1.7301">
        <ele>116.585522</ele>
        <time>2026-08-28T18:07:34Z</time>
      </trkpt>
      <trkpt lat="43.75914" lon="1.73013">
        <ele>116.598817</ele>
        <time>2026-08-28T18:07:35Z</time>
      </trkpt>
      <trkpt lat="43.75912" lon="1.73016">
        <ele>116.60986</ele>
        <time>2026-08-28T18:07:36Z</time>
      </trkpt>
      <trkpt lat="43.75911" lon="1.73019">
        <ele>116.6207</ele>
        <time>2026-08-28T18:07:37Z</time>
      </trkpt>
      <trkpt lat="43.75909" lon="1.73023">
        <ele>116.632215</ele>
        <time>2026-08-28T18:07:38Z</time>
      </trkpt>
      <trkpt lat="43.75907" lon="1.73026">
        <ele>116.643935</ele>
        <time>2026-08-28T18:07:39Z</time>
      </trkpt>
      <trkpt lat="43.75905" lon="1.73029">
        <ele>116.654993</ele>
        <time>2026-08-28T18:07:40Z</time>
      </trkpt>
      <trkpt lat="43.75903" lon="1.73033">
        <ele>116.668776</ele>
        <time>2026-08-28T18:07:41Z</time>
      </trkpt>
      <trkpt lat="43.75901" lon="1.73036">
        <ele>116.681058</ele>
        <time>2026-08-28T18:07:42Z</time>
      </trkpt>
      <trkpt lat="43.75899" lon="1.73039">
        <ele>116.692474</ele>
        <time>2026-08-28T18:07:43Z</time>
      </trkpt>
      <trkpt lat="43.75897" lon="1.73043">
        <ele>116.704494</ele>
        <time>2026-08-28T18:07:44Z</time>
      </trkpt>
      <trkpt lat="43.75895" lon="1.73045">
        <ele>116.713964</ele>
        <time>2026-08-28T18:07:45Z</time>
      </trkpt>
      <trkpt lat="43.75893" lon="1.73049">
        <ele>116.72846</ele>
        <time>2026-08-28T18:07:46Z</time>
      </trkpt>
      <trkpt lat="43.75891" lon="1.73052">
        <ele>116.739763</ele>
        <time>2026-08-28T18:07:47Z</time>
      </trkpt>
      <trkpt lat="43.75889" lon="1.73055">
        <ele>116.751066</ele>
        <time>2026-08-28T18:07:48Z</time>
      </trkpt>
      <trkpt lat="43.75887" lon="1.73058">
        <ele>116.762474</ele>
        <time>2026-08-28T18:07:49Z</time>
      </trkpt>
      <trkpt lat="43.75884" lon="1.73061">
        <ele>116.773637</ele>
        <time>2026-08-28T18:07:50Z</time>
      </trkpt>
      <trkpt lat="43.75882" lon="1.73063">
        <ele>116.783925</ele>
        <time>2026-08-28T18:07:51Z</time>
      </trkpt>
      <trkpt lat="43.7588" lon="1.73066">
        <ele>116.792292</ele>
        <time>2026-08-28T18:07:52Z</time>
      </trkpt>
      <trkpt lat="43.75879" lon="1.73068">
        <ele>116.801287</ele>
        <time>2026-08-28T18:07:53Z</time>
      </trkpt>
      <trkpt lat="43.75878" lon="1.73071">
        <ele>116.809235</ele>
        <time>2026-08-28T18:07:54Z</time>
      </trkpt>
      <trkpt lat="43.75876" lon="1.73074">
        <ele>116.817414</ele>
        <time>2026-08-28T18:07:55Z</time>
      </trkpt>
      <trkpt lat="43.75875" lon="1.73076">
        <ele>116.826707</ele>
        <time>2026-08-28T18:07:56Z</time>
      </trkpt>
      <trkpt lat="43.75873" lon="1.73079">
        <ele>116.836619</ele>
        <time>2026-08-28T18:07:57Z</time>
      </trkpt>
      <trkpt lat="43.7587" lon="1.73082">
        <ele>116.847832</ele>
        <time>2026-08-28T18:07:58Z</time>
      </trkpt>
      <trkpt lat="43.75868" lon="1.73086">
        <ele>116.860197</ele>
        <time>2026-08-28T18:07:59Z</time>
      </trkpt>
      <trkpt lat="43.75866" lon="1.73089">
        <ele>116.871784</ele>
        <time>2026-08-28T18:08:00Z</time>
      </trkpt>
      <trkpt lat="43.75864" lon="1.73092">
        <ele>116.882703</ele>
        <time>2026-08-28T18:08:01Z</time>
      </trkpt>
      <trkpt lat="43.75862" lon="1.73095">
        <ele>116.893391</ele>
        <time>2026-08-28T18:08:02Z</time>
      </trkpt>
      <trkpt lat="43.7586" lon="1.73099">
        <ele>116.905648</ele>
        <time>2026-08-28T18:08:03Z</time>
      </trkpt>
      <trkpt lat="43.75857" lon="1.73102">
        <ele>116.917235</ele>
        <time>2026-08-28T18:08:04Z</time>
      </trkpt>
      <trkpt lat="43.75855" lon="1.73105">
        <ele>116.929935</ele>
        <time>2026-08-28T18:08:05Z</time>
      </trkpt>
      <trkpt lat="43.75852" lon="1.73108">
        <ele>116.942565</ele>
        <time>2026-08-28T18:08:06Z</time>
      </trkpt>
      <trkpt lat="43.75849" lon="1.73111">
        <ele>116.954655</ele>
        <time>2026-08-28T18:08:07Z</time>
      </trkpt>
      <trkpt lat="43.75847" lon="1.73114">
        <ele>116.967082</ele>
        <time>2026-08-28T18:08:08Z</time>
      </trkpt>
      <trkpt lat="43.75845" lon="1.73118">
        <ele>116.97777</ele>
        <time>2026-08-28T18:08:09Z</time>
      </trkpt>
      <trkpt lat="43.75843" lon="1.7312">
        <ele>116.988007</ele>
        <time>2026-08-28T18:08:10Z</time>
      </trkpt>
      <trkpt lat="43.7584" lon="1.73123">
        <ele>116.998948</ele>
        <time>2026-08-28T18:08:11Z</time>
      </trkpt>
      <trkpt lat="43.75838" lon="1.73126">
        <ele>117.009799</ele>
        <time>2026-08-28T18:08:12Z</time>
      </trkpt>
      <trkpt lat="43.75836" lon="1.73129">
        <ele>117.020145</ele>
        <time>2026-08-28T18:08:13Z</time>
      </trkpt>
      <trkpt lat="43.75834" lon="1.73132">
        <ele>117.030924</ele>
        <time>2026-08-28T18:08:14Z</time>
      </trkpt>
      <trkpt lat="43.75832" lon="1.73135">
        <ele>117.041161</ele>
        <time>2026-08-28T18:08:15Z</time>
      </trkpt>
      <trkpt lat="43.7583" lon="1.73137">
        <ele>117.050128</ele>
        <time>2026-08-28T18:08:16Z</time>
      </trkpt>
      <trkpt lat="43.75828" lon="1.73138">
        <ele>117.058454</ele>
        <time>2026-08-28T18:08:17Z</time>
      </trkpt>
      <trkpt lat="43.75826" lon="1.7314">
        <ele>117.067277</ele>
        <time>2026-08-28T18:08:18Z</time>
      </trkpt>
      <trkpt lat="43.75824" lon="1.73142">
        <ele>117.075081</ele>
        <time>2026-08-28T18:08:19Z</time>
      </trkpt>
      <trkpt lat="43.75822" lon="1.73144">
        <ele>117.085834</ele>
        <time>2026-08-28T18:08:20Z</time>
      </trkpt>
      <trkpt lat="43.75819" lon="1.73146">
        <ele>117.096148</ele>
        <time>2026-08-28T18:08:21Z</time>
      </trkpt>
      <trkpt lat="43.75817" lon="1.73148">
        <ele>117.106436</ele>
        <time>2026-08-28T18:08:22Z</time>
      </trkpt>
      <trkpt lat="43.75815" lon="1.73151">
        <ele>117.117111</ele>
        <time>2026-08-28T18:08:23Z</time>
      </trkpt>
      <trkpt lat="43.75813" lon="1.73154">
        <ele>117.126353</ele>
        <time>2026-08-28T18:08:24Z</time>
      </trkpt>
      <trkpt lat="43.75811" lon="1.73157">
        <ele>117.137132</ele>
        <time>2026-08-28T18:08:25Z</time>
      </trkpt>
      <trkpt lat="43.75809" lon="1.7316">
        <ele>117.147666</ele>
        <time>2026-08-28T18:08:26Z</time>
      </trkpt>
      <trkpt lat="43.75806" lon="1.73163">
        <ele>117.158954</ele>
        <time>2026-08-28T18:08:27Z</time>
      </trkpt>
      <trkpt lat="43.75804" lon="1.73166">
        <ele>117.170772</ele>
        <time>2026-08-28T18:08:28Z</time>
      </trkpt>
      <trkpt lat="43.75802" lon="1.73169">
        <ele>117.181884</ele>
        <time>2026-08-28T18:08:29Z</time>
      </trkpt>
      <trkpt lat="43.75799" lon="1.73172">
        <ele>117.194047</ele>
        <time>2026-08-28T18:08:30Z</time>
      </trkpt>
      <trkpt lat="43.75797" lon="1.73175">
        <ele>117.204341</ele>
        <time>2026-08-28T18:08:31Z</time>
      </trkpt>
      <trkpt lat="43.75796" lon="1.73178">
        <ele>117.213368</ele>
        <time>2026-08-28T18:08:32Z</time>
      </trkpt>
      <trkpt lat="43.75794" lon="1.7318">
        <ele>117.222476</ele>
        <time>2026-08-28T18:08:33Z</time>
      </trkpt>
      <trkpt lat="43.75792" lon="1.73184">
        <ele>117.235116</ele>
        <time>2026-08-28T18:08:34Z</time>
      </trkpt>
      <trkpt lat="43.7579" lon="1.73187">
        <ele>117.246515</ele>
        <time>2026-08-28T18:08:35Z</time>
      </trkpt>
      <trkpt lat="43.75787" lon="1.7319">
        <ele>117.257294</ele>
        <time>2026-08-28T18:08:36Z</time>
      </trkpt>
      <trkpt lat="43.75785" lon="1.73194">
        <ele>117.270086</ele>
        <time>2026-08-28T18:08:37Z</time>
      </trkpt>
      <trkpt lat="43.75782" lon="1.73198">
        <ele>117.284024</ele>
        <time>2026-08-28T18:08:38Z</time>
      </trkpt>
      <trkpt lat="43.7578" lon="1.73202">
        <ele>117.297343</ele>
        <time>2026-08-28T18:08:39Z</time>
      </trkpt>
      <trkpt lat="43.75777" lon="1.73205">
        <ele>117.310605</ele>
        <time>2026-08-28T18:08:40Z</time>
      </trkpt>
      <trkpt lat="43.75775" lon="1.73209">
        <ele>117.324359</ele>
        <time>2026-08-28T18:08:41Z</time>
      </trkpt>
      <trkpt lat="43.75772" lon="1.73213">
        <ele>117.338674</ele>
        <time>2026-08-28T18:08:42Z</time>
      </trkpt>
      <trkpt lat="43.7577" lon="1.73218">
        <ele>117.353107</ele>
        <time>2026-08-28T18:08:43Z</time>
      </trkpt>
      <trkpt lat="43.75767" lon="1.73222">
        <ele>117.367149</ele>
        <time>2026-08-28T18:08:44Z</time>
      </trkpt>
      <trkpt lat="43.75765" lon="1.73226">
        <ele>117.37955</ele>
        <time>2026-08-28T18:08:45Z</time>
      </trkpt>
      <trkpt lat="43.75762" lon="1.73229">
        <ele>117.393056</ele>
        <time>2026-08-28T18:08:46Z</time>
      </trkpt>
      <trkpt lat="43.7576" lon="1.73233">
        <ele>117.404749</ele>
        <time>2026-08-28T18:08:47Z</time>
      </trkpt>
      <trkpt lat="43.75757" lon="1.73236">
        <ele>117.415053</ele>
        <time>2026-08-28T18:08:48Z</time>
      </trkpt>
      <trkpt lat="43.75755" lon="1.73239">
        <ele>117.424257</ele>
        <time>2026-08-28T18:08:49Z</time>
      </trkpt>
      <trkpt lat="43.75752" lon="1.73242">
        <ele>117.433192</ele>
        <time>2026-08-28T18:08:50Z</time>
      </trkpt>
      <trkpt lat="43.7575" lon="1.73246">
        <ele>117.442929</ele>
        <time>2026-08-28T18:08:51Z</time>
      </trkpt>
      <trkpt lat="43.75747" lon="1.73249">
        <ele>117.452133</ele>
        <time>2026-08-28T18:08:52Z</time>
      </trkpt>
      <trkpt lat="43.75745" lon="1.73253">
        <ele>117.462301</ele>
        <time>2026-08-28T18:08:53Z</time>
      </trkpt>
      <trkpt lat="43.75742" lon="1.73256">
        <ele>117.472578</ele>
        <time>2026-08-28T18:08:54Z</time>
      </trkpt>
      <trkpt lat="43.75739" lon="1.73261">
        <ele>117.484984</ele>
        <time>2026-08-28T18:08:55Z</time>
      </trkpt>
      <trkpt lat="43.75737" lon="1.73265">
        <ele>117.49605</ele>
        <time>2026-08-28T18:08:56Z</time>
      </trkpt>
      <trkpt lat="43.75734" lon="1.73269">
        <ele>117.506218</ele>
        <time>2026-08-28T18:08:57Z</time>
      </trkpt>
      <trkpt lat="43.75732" lon="1.73272">
        <ele>117.515816</ele>
        <time>2026-08-28T18:08:58Z</time>
      </trkpt>
      <trkpt lat="43.75729" lon="1.73276">
        <ele>117.526585</ele>
        <time>2026-08-28T18:08:59Z</time>
      </trkpt>
      <trkpt lat="43.75727" lon="1.7328">
        <ele>117.537959</ele>
        <time>2026-08-28T18:09:00Z</time>
      </trkpt>
      <trkpt lat="43.75724" lon="1.73284">
        <ele>117.548515</ele>
        <time>2026-08-28T18:09:01Z</time>
      </trkpt>
      <trkpt lat="43.7572" lon="1.73289">
        <ele>117.562264</ele>
        <time>2026-08-28T18:09:02Z</time>
      </trkpt>
      <trkpt lat="43.75718" lon="1.73292">
        <ele>117.572624</ele>
        <time>2026-08-28T18:09:03Z</time>
      </trkpt>
      <trkpt lat="43.75715" lon="1.73296">
        <ele>117.583379</ele>
        <time>2026-08-28T18:09:04Z</time>
      </trkpt>
      <trkpt lat="43.75712" lon="1.733">
        <ele>117.593455</ele>
        <time>2026-08-28T18:09:05Z</time>
      </trkpt>
      <trkpt lat="43.75709" lon="1.73304">
        <ele>117.605643</ele>
        <time>2026-08-28T18:09:06Z</time>
      </trkpt>
      <trkpt lat="43.75706" lon="1.73308">
        <ele>117.618171</ele>
        <time>2026-08-28T18:09:07Z</time>
      </trkpt>
      <trkpt lat="43.75702" lon="1.73311">
        <ele>117.629885</ele>
        <time>2026-08-28T18:09:08Z</time>
      </trkpt>
      <trkpt lat="43.75699" lon="1.73316">
        <ele>117.642139</ele>
        <time>2026-08-28T18:09:09Z</time>
      </trkpt>
      <trkpt lat="43.75696" lon="1.7332">
        <ele>117.653985</ele>
        <time>2026-08-28T18:09:10Z</time>
      </trkpt>
      <trkpt lat="43.75694" lon="1.73324">
        <ele>117.664563</ele>
        <time>2026-08-28T18:09:11Z</time>
      </trkpt>
      <trkpt lat="43.75691" lon="1.73328">
        <ele>117.675861</ele>
        <time>2026-08-28T18:09:12Z</time>
      </trkpt>
      <trkpt lat="43.75688" lon="1.73332">
        <ele>117.686326</ele>
        <time>2026-08-28T18:09:13Z</time>
      </trkpt>
      <trkpt lat="43.75686" lon="1.73336">
        <ele>117.696609</ele>
        <time>2026-08-28T18:09:14Z</time>
      </trkpt>
      <trkpt lat="43.75683" lon="1.7334">
        <ele>117.707744</ele>
        <time>2026-08-28T18:09:15Z</time>
      </trkpt>
      <trkpt lat="43.75681" lon="1.73344">
        <ele>117.71806</ele>
        <time>2026-08-28T18:09:16Z</time>
      </trkpt>
      <trkpt lat="43.75678" lon="1.73348">
        <ele>117.728902</ele>
        <time>2026-08-28T18:09:17Z</time>
      </trkpt>
      <trkpt lat="43.75675" lon="1.73351">
        <ele>117.739458</ele>
        <time>2026-08-28T18:09:18Z</time>
      </trkpt>
      <trkpt lat="43.75673" lon="1.73355">
        <ele>117.750692</ele>
        <time>2026-08-28T18:09:19Z</time>
      </trkpt>
      <trkpt lat="43.7567" lon="1.73359">
        <ele>117.761157</ele>
        <time>2026-08-28T18:09:20Z</time>
      </trkpt>
      <trkpt lat="43.75667" lon="1.73363">
        <ele>117.772481</ele>
        <time>2026-08-28T18:09:21Z</time>
      </trkpt>
      <trkpt lat="43.75665" lon="1.73367">
        <ele>117.782313</ele>
        <time>2026-08-28T18:09:22Z</time>
      </trkpt>
      <trkpt lat="43.75663" lon="1.7337">
        <ele>117.790941</ele>
        <time>2026-08-28T18:09:23Z</time>
      </trkpt>
      <trkpt lat="43.75661" lon="1.73374">
        <ele>117.800073</ele>
        <time>2026-08-28T18:09:24Z</time>
      </trkpt>
      <trkpt lat="43.75659" lon="1.73377">
        <ele>117.808314</ele>
        <time>2026-08-28T18:09:25Z</time>
      </trkpt>
      <trkpt lat="43.75656" lon="1.73381">
        <ele>117.819708</ele>
        <time>2026-08-28T18:09:26Z</time>
      </trkpt>
      <trkpt lat="43.75654" lon="1.73385">
        <ele>117.830127</ele>
        <time>2026-08-28T18:09:27Z</time>
      </trkpt>
      <trkpt lat="43.75651" lon="1.73389">
        <ele>117.840927</ele>
        <time>2026-08-28T18:09:28Z</time>
      </trkpt>
      <trkpt lat="43.75649" lon="1.73393">
        <ele>117.851363</ele>
        <time>2026-08-28T18:09:29Z</time>
      </trkpt>
      <trkpt lat="43.75646" lon="1.73397">
        <ele>117.86144</ele>
        <time>2026-08-28T18:09:30Z</time>
      </trkpt>
      <trkpt lat="43.75644" lon="1.734">
        <ele>117.871516</ele>
        <time>2026-08-28T18:09:31Z</time>
      </trkpt>
      <trkpt lat="43.75641" lon="1.73404">
        <ele>117.882631</ele>
        <time>2026-08-28T18:09:32Z</time>
      </trkpt>
      <trkpt lat="43.75637" lon="1.73407">
        <ele>117.894404</ele>
        <time>2026-08-28T18:09:33Z</time>
      </trkpt>
      <trkpt lat="43.75634" lon="1.73411">
        <ele>117.905113</ele>
        <time>2026-08-28T18:09:34Z</time>
      </trkpt>
      <trkpt lat="43.75631" lon="1.73415">
        <ele>117.912607</ele>
        <time>2026-08-28T18:09:35Z</time>
      </trkpt>
      <trkpt lat="43.75629" lon="1.73419">
        <ele>117.919155</ele>
        <time>2026-08-28T18:09:36Z</time>
      </trkpt>
      <trkpt lat="43.75626" lon="1.73423">
        <ele>117.926736</ele>
        <time>2026-08-28T18:09:37Z</time>
      </trkpt>
      <trkpt lat="43.75623" lon="1.73427">
        <ele>117.933751</ele>
        <time>2026-08-28T18:09:38Z</time>
      </trkpt>
      <trkpt lat="43.7562" lon="1.7343">
        <ele>117.940766</ele>
        <time>2026-08-28T18:09:39Z</time>
      </trkpt>
      <trkpt lat="43.75618" lon="1.73434">
        <ele>117.947586</ele>
        <time>2026-08-28T18:09:40Z</time>
      </trkpt>
      <trkpt lat="43.75615" lon="1.73438">
        <ele>117.95381</ele>
        <time>2026-08-28T18:09:41Z</time>
      </trkpt>
      <trkpt lat="43.75613" lon="1.73441">
        <ele>117.959493</ele>
        <time>2026-08-28T18:09:42Z</time>
      </trkpt>
      <trkpt lat="43.7561" lon="1.73444">
        <ele>117.96573</ele>
        <time>2026-08-28T18:09:43Z</time>
      </trkpt>
      <trkpt lat="43.75608" lon="1.73448">
        <ele>117.972005</ele>
        <time>2026-08-28T18:09:44Z</time>
      </trkpt>
      <trkpt lat="43.75604" lon="1.73452">
        <ele>117.979852</ele>
        <time>2026-08-28T18:09:45Z</time>
      </trkpt>
      <trkpt lat="43.75601" lon="1.73455">
        <ele>117.987395</ele>
        <time>2026-08-28T18:09:46Z</time>
      </trkpt>
      <trkpt lat="43.75598" lon="1.73459">
        <ele>117.994678</ele>
        <time>2026-08-28T18:09:47Z</time>
      </trkpt>
      <trkpt lat="43.75594" lon="1.73462">
        <ele>118.0027</ele>
        <time>2026-08-28T18:09:48Z</time>
      </trkpt>
      <trkpt lat="43.75591" lon="1.73466">
        <ele>118.010682</ele>
        <time>2026-08-28T18:09:49Z</time>
      </trkpt>
      <trkpt lat="43.75587" lon="1.7347">
        <ele>118.018704</ele>
        <time>2026-08-28T18:09:50Z</time>
      </trkpt>
      <trkpt lat="43.75584" lon="1.73474">
        <ele>118.027044</ele>
        <time>2026-08-28T18:09:51Z</time>
      </trkpt>
      <trkpt lat="43.7558" lon="1.73478">
        <ele>118.035466</ele>
        <time>2026-08-28T18:09:52Z</time>
      </trkpt>
      <trkpt lat="43.75577" lon="1.73482">
        <ele>118.042705</ele>
        <time>2026-08-28T18:09:53Z</time>
      </trkpt>
      <trkpt lat="43.75574" lon="1.73486">
        <ele>118.049659</ele>
        <time>2026-08-28T18:09:54Z</time>
      </trkpt>
      <trkpt lat="43.75572" lon="1.73489">
        <ele>118.055935</ele>
        <time>2026-08-28T18:09:55Z</time>
      </trkpt>
      <trkpt lat="43.75568" lon="1.73492">
        <ele>118.063294</ele>
        <time>2026-08-28T18:09:56Z</time>
      </trkpt>
      <trkpt lat="43.75566" lon="1.73496">
        <ele>118.069653</ele>
        <time>2026-08-28T18:09:57Z</time>
      </trkpt>
      <trkpt lat="43.75563" lon="1.73499">
        <ele>118.07703</ele>
        <time>2026-08-28T18:09:58Z</time>
      </trkpt>
      <trkpt lat="43.75559" lon="1.73504">
        <ele>118.085622</ele>
        <time>2026-08-28T18:09:59Z</time>
      </trkpt>
      <trkpt lat="43.75555" lon="1.73508">
        <ele>118.09388</ele>
        <time>2026-08-28T18:10:00Z</time>
      </trkpt>
      <trkpt lat="43.75552" lon="1.73512">
        <ele>118.102359</ele>
        <time>2026-08-28T18:10:01Z</time>
      </trkpt>
      <trkpt lat="43.75548" lon="1.73516">
        <ele>118.110746</ele>
        <time>2026-08-28T18:10:02Z</time>
      </trkpt>
      <trkpt lat="43.75544" lon="1.73519">
        <ele>118.119133</ele>
        <time>2026-08-28T18:10:03Z</time>
      </trkpt>
      <trkpt lat="43.7554" lon="1.73523">
        <ele>118.127739</ele>
        <time>2026-08-28T18:10:04Z</time>
      </trkpt>
      <trkpt lat="43.75536" lon="1.73527">
        <ele>118.13651</ele>
        <time>2026-08-28T18:10:05Z</time>
      </trkpt>
      <trkpt lat="43.75532" lon="1.7353">
        <ele>118.14541</ele>
        <time>2026-08-28T18:10:06Z</time>
      </trkpt>
      <trkpt lat="43.75528" lon="1.73534">
        <ele>118.154096</ele>
        <time>2026-08-28T18:10:07Z</time>
      </trkpt>
      <trkpt lat="43.75524" lon="1.73538">
        <ele>118.162562</ele>
        <time>2026-08-28T18:10:08Z</time>
      </trkpt>
      <trkpt lat="43.7552" lon="1.73541">
        <ele>118.170507</ele>
        <time>2026-08-28T18:10:09Z</time>
      </trkpt>
      <trkpt lat="43.75516" lon="1.73544">
        <ele>118.178398</ele>
        <time>2026-08-28T18:10:10Z</time>
      </trkpt>
      <trkpt lat="43.75512" lon="1.73547">
        <ele>118.186136</ele>
        <time>2026-08-28T18:10:11Z</time>
      </trkpt>
      <trkpt lat="43.75509" lon="1.7355">
        <ele>118.193807</ele>
        <time>2026-08-28T18:10:12Z</time>
      </trkpt>
      <trkpt lat="43.75505" lon="1.73553">
        <ele>118.20157</ele>
        <time>2026-08-28T18:10:13Z</time>
      </trkpt>
      <trkpt lat="43.75501" lon="1.73556">
        <ele>118.209709</ele>
        <time>2026-08-28T18:10:14Z</time>
      </trkpt>
      <trkpt lat="43.75497" lon="1.73559">
        <ele>118.217848</ele>
        <time>2026-08-28T18:10:15Z</time>
      </trkpt>
      <trkpt lat="43.75493" lon="1.73562">
        <ele>118.225434</ele>
        <time>2026-08-28T18:10:16Z</time>
      </trkpt>
      <trkpt lat="43.7549" lon="1.73566">
        <ele>118.229866</ele>
        <time>2026-08-28T18:10:17Z</time>
      </trkpt>
      <trkpt lat="43.75486" lon="1.73569">
        <ele>118.234348</ele>
        <time>2026-08-28T18:10:18Z</time>
      </trkpt>
      <trkpt lat="43.75482" lon="1.73572">
        <ele>118.238668</ele>
        <time>2026-08-28T18:10:19Z</time>
      </trkpt>
      <trkpt lat="43.75479" lon="1.73574">
        <ele>118.242775</ele>
        <time>2026-08-28T18:10:20Z</time>
      </trkpt>
      <trkpt lat="43.75475" lon="1.73578">
        <ele>118.246827</ele>
        <time>2026-08-28T18:10:21Z</time>
      </trkpt>
      <trkpt lat="43.75472" lon="1.73581">
        <ele>118.251089</ele>
        <time>2026-08-28T18:10:22Z</time>
      </trkpt>
      <trkpt lat="43.75468" lon="1.73584">
        <ele>118.255483</ele>
        <time>2026-08-28T18:10:23Z</time>
      </trkpt>
      <trkpt lat="43.75465" lon="1.73587">
        <ele>118.25983</ele>
        <time>2026-08-28T18:10:24Z</time>
      </trkpt>
      <trkpt lat="43.75461" lon="1.73591">
        <ele>118.264383</ele>
        <time>2026-08-28T18:10:25Z</time>
      </trkpt>
      <trkpt lat="43.75457" lon="1.73594">
        <ele>118.26898</ele>
        <time>2026-08-28T18:10:26Z</time>
      </trkpt>
      <trkpt lat="43.75453" lon="1.73597">
        <ele>118.273663</ele>
        <time>2026-08-28T18:10:27Z</time>
      </trkpt>
      <trkpt lat="43.75449" lon="1.73601">
        <ele>118.278761</ele>
        <time>2026-08-28T18:10:28Z</time>
      </trkpt>
      <trkpt lat="43.75445" lon="1.73604">
        <ele>118.283654</ele>
        <time>2026-08-28T18:10:29Z</time>
      </trkpt>
      <trkpt lat="43.75441" lon="1.73607">
        <ele>118.288241</ele>
        <time>2026-08-28T18:10:30Z</time>
      </trkpt>
      <trkpt lat="43.75437" lon="1.7361">
        <ele>118.292598</ele>
        <time>2026-08-28T18:10:31Z</time>
      </trkpt>
      <trkpt lat="43.75433" lon="1.73613">
        <ele>118.29708</ele>
        <time>2026-08-28T18:10:32Z</time>
      </trkpt>
      <trkpt lat="43.75429" lon="1.73616">
        <ele>118.301634</ele>
        <time>2026-08-28T18:10:33Z</time>
      </trkpt>
      <trkpt lat="43.75426" lon="1.7362">
        <ele>118.306229</ele>
        <time>2026-08-28T18:10:34Z</time>
      </trkpt>
      <trkpt lat="43.75421" lon="1.73623">
        <ele>118.311202</ele>
        <time>2026-08-28T18:10:35Z</time>
      </trkpt>
      <trkpt lat="43.75417" lon="1.73627">
        <ele>118.316197</ele>
        <time>2026-08-28T18:10:36Z</time>
      </trkpt>
      <trkpt lat="43.75413" lon="1.73629">
        <ele>118.320785</ele>
        <time>2026-08-28T18:10:37Z</time>
      </trkpt>
      <trkpt lat="43.75409" lon="1.73632">
        <ele>118.325105</ele>
        <time>2026-08-28T18:10:38Z</time>
      </trkpt>
      <trkpt lat="43.75406" lon="1.73635">
        <ele>118.329425</ele>
        <time>2026-08-28T18:10:39Z</time>
      </trkpt>
      <trkpt lat="43.75402" lon="1.73638">
        <ele>118.333765</ele>
        <time>2026-08-28T18:10:40Z</time>
      </trkpt>
      <trkpt lat="43.75398" lon="1.73641">
        <ele>118.338246</ele>
        <time>2026-08-28T18:10:41Z</time>
      </trkpt>
      <trkpt lat="43.75394" lon="1.73644">
        <ele>118.342586</ele>
        <time>2026-08-28T18:10:42Z</time>
      </trkpt>
      <trkpt lat="43.7539" lon="1.73646">
        <ele>118.347199</ele>
        <time>2026-08-28T18:10:43Z</time>
      </trkpt>
      <trkpt lat="43.75386" lon="1.73649">
        <ele>118.35209</ele>
        <time>2026-08-28T18:10:44Z</time>
      </trkpt>
      <trkpt lat="43.75382" lon="1.73652">
        <ele>118.356764</ele>
        <time>2026-08-28T18:10:45Z</time>
      </trkpt>
      <trkpt lat="43.75377" lon="1.73654">
        <ele>118.361719</ele>
        <time>2026-08-28T18:10:46Z</time>
      </trkpt>
      <trkpt lat="43.75373" lon="1.73657">
        <ele>118.366472</ele>
        <time>2026-08-28T18:10:47Z</time>
      </trkpt>
      <trkpt lat="43.75369" lon="1.73659">
        <ele>118.370535</ele>
        <time>2026-08-28T18:10:48Z</time>
      </trkpt>
      <trkpt lat="43.75365" lon="1.73661">
        <ele>118.374872</ele>
        <time>2026-08-28T18:10:49Z</time>
      </trkpt>
      <trkpt lat="43.75361" lon="1.73664">
        <ele>118.379361</ele>
        <time>2026-08-28T18:10:50Z</time>
      </trkpt>
      <trkpt lat="43.75357" lon="1.73666">
        <ele>118.383698</ele>
        <time>2026-08-28T18:10:51Z</time>
      </trkpt>
      <trkpt lat="43.75353" lon="1.73669">
        <ele>118.388588</ele>
        <time>2026-08-28T18:10:52Z</time>
      </trkpt>
      <trkpt lat="43.75349" lon="1.73671">
        <ele>118.393083</ele>
        <time>2026-08-28T18:10:53Z</time>
      </trkpt>
      <trkpt lat="43.75344" lon="1.73674">
        <ele>118.397822</ele>
        <time>2026-08-28T18:10:54Z</time>
      </trkpt>
      <trkpt lat="43.7534" lon="1.73676">
        <ele>118.402404</ele>
        <time>2026-08-28T18:10:55Z</time>
      </trkpt>
      <trkpt lat="43.75336" lon="1.73679">
        <ele>118.406834</ele>
        <time>2026-08-28T18:10:56Z</time>
      </trkpt>
      <trkpt lat="43.75333" lon="1.73681">
        <ele>118.41806</ele>
        <time>2026-08-28T18:10:57Z</time>
      </trkpt>
      <trkpt lat="43.75328" lon="1.73684">
        <ele>118.432833</ele>
        <time>2026-08-28T18:10:58Z</time>
      </trkpt>
      <trkpt lat="43.75325" lon="1.73686">
        <ele>118.447006</ele>
        <time>2026-08-28T18:10:59Z</time>
      </trkpt>
      <trkpt lat="43.75321" lon="1.73689">
        <ele>118.461201</ele>
        <time>2026-08-28T18:11:00Z</time>
      </trkpt>
      <trkpt lat="43.75317" lon="1.73692">
        <ele>118.476277</ele>
        <time>2026-08-28T18:11:01Z</time>
      </trkpt>
      <trkpt lat="43.75313" lon="1.73695">
        <ele>118.491227</ele>
        <time>2026-08-28T18:11:02Z</time>
      </trkpt>
      <trkpt lat="43.75309" lon="1.73698">
        <ele>118.506812</ele>
        <time>2026-08-28T18:11:03Z</time>
      </trkpt>
      <trkpt lat="43.75304" lon="1.73701">
        <ele>118.521888</ele>
        <time>2026-08-28T18:11:04Z</time>
      </trkpt>
      <trkpt lat="43.753" lon="1.73704">
        <ele>118.537584</ele>
        <time>2026-08-28T18:11:05Z</time>
      </trkpt>
      <trkpt lat="43.75296" lon="1.73707">
        <ele>118.552989</ele>
        <time>2026-08-28T18:11:06Z</time>
      </trkpt>
      <trkpt lat="43.75292" lon="1.7371">
        <ele>118.567939</ele>
        <time>2026-08-28T18:11:07Z</time>
      </trkpt>
      <trkpt lat="43.75288" lon="1.73713">
        <ele>118.582606</ele>
        <time>2026-08-28T18:11:08Z</time>
      </trkpt>
      <trkpt lat="43.75285" lon="1.73717">
        <ele>118.597167</ele>
        <time>2026-08-28T18:11:09Z</time>
      </trkpt>
      <trkpt lat="43.75282" lon="1.73721">
        <ele>118.611475</ele>
        <time>2026-08-28T18:11:10Z</time>
      </trkpt>
      <trkpt lat="43.75279" lon="1.73726">
        <ele>118.626019</ele>
        <time>2026-08-28T18:11:11Z</time>
      </trkpt>
      <trkpt lat="43.75276" lon="1.73731">
        <ele>118.641403</ele>
        <time>2026-08-28T18:11:12Z</time>
      </trkpt>
      <trkpt lat="43.75272" lon="1.73735">
        <ele>118.656751</ele>
        <time>2026-08-28T18:11:13Z</time>
      </trkpt>
      <trkpt lat="43.75269" lon="1.7374">
        <ele>118.672364</ele>
        <time>2026-08-28T18:11:14Z</time>
      </trkpt>
      <trkpt lat="43.75266" lon="1.73744">
        <ele>118.688208</ele>
        <time>2026-08-28T18:11:15Z</time>
      </trkpt>
      <trkpt lat="43.75262" lon="1.73748">
        <ele>118.703175</ele>
        <time>2026-08-28T18:11:16Z</time>
      </trkpt>
      <trkpt lat="43.75259" lon="1.73752">
        <ele>118.717275</ele>
        <time>2026-08-28T18:11:17Z</time>
      </trkpt>
      <trkpt lat="43.75255" lon="1.73754">
        <ele>118.7302</ele>
        <time>2026-08-28T18:11:18Z</time>
      </trkpt>
      <trkpt lat="43.75252" lon="1.73756">
        <ele>118.742121</ele>
        <time>2026-08-28T18:11:19Z</time>
      </trkpt>
      <trkpt lat="43.75248" lon="1.73757">
        <ele>118.753213</ele>
        <time>2026-08-28T18:11:20Z</time>
      </trkpt>
      <trkpt lat="43.75245" lon="1.73756">
        <ele>118.763936</ele>
        <time>2026-08-28T18:11:21Z</time>
      </trkpt>
      <trkpt lat="43.75243" lon="1.73755">
        <ele>118.773319</ele>
        <time>2026-08-28T18:11:22Z</time>
      </trkpt>
      <trkpt lat="43.75241" lon="1.73752">
        <ele>118.78277</ele>
        <time>2026-08-28T18:11:23Z</time>
      </trkpt>
      <trkpt lat="43.75239" lon="1.73748">
        <ele>118.792521</ele>
        <time>2026-08-28T18:11:24Z</time>
      </trkpt>
      <trkpt lat="43.75238" lon="1.73744">
        <ele>118.802272</ele>
        <time>2026-08-28T18:11:25Z</time>
      </trkpt>
      <trkpt lat="43.75237" lon="1.7374">
        <ele>118.813138</ele>
        <time>2026-08-28T18:11:26Z</time>
      </trkpt>
      <trkpt lat="43.75236" lon="1.73735">
        <ele>118.825726</ele>
        <time>2026-08-28T18:11:27Z</time>
      </trkpt>
      <trkpt lat="43.75235" lon="1.7373">
        <ele>118.838503</ele>
        <time>2026-08-28T18:11:28Z</time>
      </trkpt>
      <trkpt lat="43.75234" lon="1.73726">
        <ele>118.849261</ele>
        <time>2026-08-28T18:11:29Z</time>
      </trkpt>
      <trkpt lat="43.75233" lon="1.73721">
        <ele>118.860704</ele>
        <time>2026-08-28T18:11:30Z</time>
      </trkpt>
      <trkpt lat="43.75232" lon="1.73716">
        <ele>118.872578</ele>
        <time>2026-08-28T18:11:31Z</time>
      </trkpt>
      <trkpt lat="43.7523" lon="1.73712">
        <ele>118.883429</ele>
        <time>2026-08-28T18:11:32Z</time>
      </trkpt>
      <trkpt lat="43.75228" lon="1.73709">
        <ele>118.894182</ele>
        <time>2026-08-28T18:11:33Z</time>
      </trkpt>
      <trkpt lat="43.75225" lon="1.73709">
        <ele>118.903772</ele>
        <time>2026-08-28T18:11:34Z</time>
      </trkpt>
      <trkpt lat="43.75222" lon="1.73711">
        <ele>118.912773</ele>
        <time>2026-08-28T18:11:35Z</time>
      </trkpt>
      <trkpt lat="43.7522" lon="1.73714">
        <ele>118.924163</ele>
        <time>2026-08-28T18:11:36Z</time>
      </trkpt>
      <trkpt lat="43.75217" lon="1.73716">
        <ele>118.934513</ele>
        <time>2026-08-28T18:11:37Z</time>
      </trkpt>
      <trkpt lat="43.75214" lon="1.73719">
        <ele>118.944844</ele>
        <time>2026-08-28T18:11:38Z</time>
      </trkpt>
      <trkpt lat="43.75212" lon="1.73721">
        <ele>118.955962</ele>
        <time>2026-08-28T18:11:39Z</time>
      </trkpt>
      <trkpt lat="43.75209" lon="1.73724">
        <ele>118.96776</ele>
        <time>2026-08-28T18:11:40Z</time>
      </trkpt>
      <trkpt lat="43.75206" lon="1.73727">
        <ele>118.979419</ele>
        <time>2026-08-28T18:11:41Z</time>
      </trkpt>
      <trkpt lat="43.75203" lon="1.73729">
        <ele>118.991371</ele>
        <time>2026-08-28T18:11:42Z</time>
      </trkpt>
      <trkpt lat="43.752" lon="1.73732">
        <ele>119.001478</ele>
        <time>2026-08-28T18:11:43Z</time>
      </trkpt>
      <trkpt lat="43.75197" lon="1.73735">
        <ele>119.003851</ele>
        <time>2026-08-28T18:11:44Z</time>
      </trkpt>
      <trkpt lat="43.75195" lon="1.73737">
        <ele>119.006312</ele>
        <time>2026-08-28T18:11:45Z</time>
      </trkpt>
      <trkpt lat="43.75191" lon="1.7374">
        <ele>119.008849</ele>
        <time>2026-08-28T18:11:46Z</time>
      </trkpt>
      <trkpt lat="43.75188" lon="1.73742">
        <ele>119.011316</ele>
        <time>2026-08-28T18:11:47Z</time>
      </trkpt>
      <trkpt lat="43.75185" lon="1.73744">
        <ele>119.013807</ele>
        <time>2026-08-28T18:11:48Z</time>
      </trkpt>
      <trkpt lat="43.75182" lon="1.73745">
        <ele>119.016319</ele>
        <time>2026-08-28T18:11:49Z</time>
      </trkpt>
      <trkpt lat="43.75179" lon="1.73747">
        <ele>119.018786</ele>
        <time>2026-08-28T18:11:50Z</time>
      </trkpt>
      <trkpt lat="43.75176" lon="1.73749">
        <ele>119.021191</ele>
        <time>2026-08-28T18:11:51Z</time>
      </trkpt>
      <trkpt lat="43.75172" lon="1.73751">
        <ele>119.023836</ele>
        <time>2026-08-28T18:11:52Z</time>
      </trkpt>
      <trkpt lat="43.75169" lon="1.73753">
        <ele>119.026281</ele>
        <time>2026-08-28T18:11:53Z</time>
      </trkpt>
      <trkpt lat="43.75166" lon="1.73755">
        <ele>119.028773</ele>
        <time>2026-08-28T18:11:54Z</time>
      </trkpt>
      <trkpt lat="43.75163" lon="1.73757">
        <ele>119.03124</ele>
        <time>2026-08-28T18:11:55Z</time>
      </trkpt>
      <trkpt lat="43.7516" lon="1.73759">
        <ele>119.033729</ele>
        <time>2026-08-28T18:11:56Z</time>
      </trkpt>
      <trkpt lat="43.75157" lon="1.73761">
        <ele>119.036219</ele>
        <time>2026-08-28T18:11:57Z</time>
      </trkpt>
      <trkpt lat="43.75154" lon="1.73763">
        <ele>119.03873</ele>
        <time>2026-08-28T18:11:58Z</time>
      </trkpt>
      <trkpt lat="43.7515" lon="1.73765">
        <ele>119.041263</ele>
        <time>2026-08-28T18:11:59Z</time>
      </trkpt>
      <trkpt lat="43.75147" lon="1.73767">
        <ele>119.043665</ele>
        <time>2026-08-28T18:12:00Z</time>
      </trkpt>
      <trkpt lat="43.75144" lon="1.73769">
        <ele>119.046132</ele>
        <time>2026-08-28T18:12:01Z</time>
      </trkpt>
      <trkpt lat="43.75141" lon="1.73771">
        <ele>119.048621</ele>
        <time>2026-08-28T18:12:02Z</time>
      </trkpt>
      <trkpt lat="43.75138" lon="1.73773">
        <ele>119.051222</ele>
        <time>2026-08-28T18:12:03Z</time>
      </trkpt>
      <trkpt lat="43.75134" lon="1.73775">
        <ele>119.053995</ele>
        <time>2026-08-28T18:12:04Z</time>
      </trkpt>
      <trkpt lat="43.75131" lon="1.73778">
        <ele>119.056767</ele>
        <time>2026-08-28T18:12:05Z</time>
      </trkpt>
      <trkpt lat="43.75127" lon="1.7378">
        <ele>119.059499</ele>
        <time>2026-08-28T18:12:06Z</time>
      </trkpt>
      <trkpt lat="43.75124" lon="1.73782">
        <ele>119.06201</ele>
        <time>2026-08-28T18:12:07Z</time>
      </trkpt>
      <trkpt lat="43.75121" lon="1.73784">
        <ele>119.064717</ele>
        <time>2026-08-28T18:12:08Z</time>
      </trkpt>
      <trkpt lat="43.75118" lon="1.73786">
        <ele>119.067272</ele>
        <time>2026-08-28T18:12:09Z</time>
      </trkpt>
      <trkpt lat="43.75114" lon="1.73788">
        <ele>119.069763</ele>
        <time>2026-08-28T18:12:10Z</time>
      </trkpt>
      <trkpt lat="43.75111" lon="1.7379">
        <ele>119.072318</ele>
        <time>2026-08-28T18:12:11Z</time>
      </trkpt>
      <trkpt lat="43.75108" lon="1.73792">
        <ele>119.074785</ele>
        <time>2026-08-28T18:12:12Z</time>
      </trkpt>
      <trkpt lat="43.75105" lon="1.73794">
        <ele>119.077404</ele>
        <time>2026-08-28T18:12:13Z</time>
      </trkpt>
      <trkpt lat="43.75102" lon="1.73796">
        <ele>119.079937</ele>
        <time>2026-08-28T18:12:14Z</time>
      </trkpt>
      <trkpt lat="43.75098" lon="1.73798">
        <ele>119.082557</ele>
        <time>2026-08-28T18:12:15Z</time>
      </trkpt>
      <trkpt lat="43.75095" lon="1.738">
        <ele>119.085242</ele>
        <time>2026-08-28T18:12:16Z</time>
      </trkpt>
      <trkpt lat="43.75092" lon="1.73802">
        <ele>119.087843</ele>
        <time>2026-08-28T18:12:17Z</time>
      </trkpt>
      <trkpt lat="43.75089" lon="1.73805">
        <ele>119.090444</ele>
        <time>2026-08-28T18:12:18Z</time>
      </trkpt>
      <trkpt lat="43.75085" lon="1.73807">
        <ele>119.093069</ele>
        <time>2026-08-28T18:12:19Z</time>
      </trkpt>
      <trkpt lat="43.75082" lon="1.73809">
        <ele>119.095668</ele>
        <time>2026-08-28T18:12:20Z</time>
      </trkpt>
      <trkpt lat="43.75079" lon="1.73811">
        <ele>119.098028</ele>
        <time>2026-08-28T18:12:21Z</time>
      </trkpt>
      <trkpt lat="43.75076" lon="1.73813">
        <ele>119.10054</ele>
        <time>2026-08-28T18:12:22Z</time>
      </trkpt>
      <trkpt lat="43.75072" lon="1.73815">
        <ele>119.103252</ele>
        <time>2026-08-28T18:12:23Z</time>
      </trkpt>
      <trkpt lat="43.75069" lon="1.73817">
        <ele>119.106098</ele>
        <time>2026-08-28T18:12:24Z</time>
      </trkpt>
      <trkpt lat="43.75065" lon="1.73819">
        <ele>119.108983</ele>
        <time>2026-08-28T18:12:25Z</time>
      </trkpt>
      <trkpt lat="43.75061" lon="1.73821">
        <ele>119.111801</ele>
        <time>2026-08-28T18:12:26Z</time>
      </trkpt>
      <trkpt lat="43.75058" lon="1.73823">
        <ele>119.114508</ele>
        <time>2026-08-28T18:12:27Z</time>
      </trkpt>
      <trkpt lat="43.75055" lon="1.73825">
        <ele>119.117128</ele>
        <time>2026-08-28T18:12:28Z</time>
      </trkpt>
      <trkpt lat="43.75052" lon="1.73828">
        <ele>119.119729</ele>
        <time>2026-08-28T18:12:29Z</time>
      </trkpt>
      <trkpt lat="43.75048" lon="1.7383">
        <ele>119.122266</ele>
        <time>2026-08-28T18:12:30Z</time>
      </trkpt>
      <trkpt lat="43.75045" lon="1.73832">
        <ele>119.124667</ele>
        <time>2026-08-28T18:12:31Z</time>
      </trkpt>
      <trkpt lat="43.75042" lon="1.73834">
        <ele>119.127092</ele>
        <time>2026-08-28T18:12:32Z</time>
      </trkpt>
      <trkpt lat="43.75039" lon="1.73836">
        <ele>119.129517</ele>
        <time>2026-08-28T18:12:33Z</time>
      </trkpt>
      <trkpt lat="43.75036" lon="1.73838">
        <ele>119.136702</ele>
        <time>2026-08-28T18:12:34Z</time>
      </trkpt>
      <trkpt lat="43.75033" lon="1.73841">
        <ele>119.149931</ele>
        <time>2026-08-28T18:12:35Z</time>
      </trkpt>
      <trkpt lat="43.7503" lon="1.73843">
        <ele>119.161782</ele>
        <time>2026-08-28T18:12:36Z</time>
      </trkpt>
      <trkpt lat="43.75027" lon="1.73845">
        <ele>119.174306</ele>
        <time>2026-08-28T18:12:37Z</time>
      </trkpt>
      <trkpt lat="43.75024" lon="1.73847">
        <ele>119.18695</ele>
        <time>2026-08-28T18:12:38Z</time>
      </trkpt>
      <trkpt lat="43.75021" lon="1.73849">
        <ele>119.199931</ele>
        <time>2026-08-28T18:12:39Z</time>
      </trkpt>
      <trkpt lat="43.75018" lon="1.73851">
        <ele>119.213374</ele>
        <time>2026-08-28T18:12:40Z</time>
      </trkpt>
      <trkpt lat="43.75015" lon="1.73852">
        <ele>119.225818</ele>
        <time>2026-08-28T18:12:41Z</time>
      </trkpt>
      <trkpt lat="43.75012" lon="1.73854">
        <ele>119.239261</ele>
        <time>2026-08-28T18:12:42Z</time>
      </trkpt>
      <trkpt lat="43.75008" lon="1.73856">
        <ele>119.252125</ele>
        <time>2026-08-28T18:12:43Z</time>
      </trkpt>
      <trkpt lat="43.75005" lon="1.73858">
        <ele>119.266818</ele>
        <time>2026-08-28T18:12:44Z</time>
      </trkpt>
      <trkpt lat="43.75002" lon="1.7386">
        <ele>119.280257</ele>
        <time>2026-08-28T18:12:45Z</time>
      </trkpt>
      <trkpt lat="43.74998" lon="1.73863">
        <ele>119.294406</ele>
        <time>2026-08-28T18:12:46Z</time>
      </trkpt>
      <trkpt lat="43.74995" lon="1.73865">
        <ele>119.308302</ele>
        <time>2026-08-28T18:12:47Z</time>
      </trkpt>
      <trkpt lat="43.74992" lon="1.73868">
        <ele>119.321662</ele>
        <time>2026-08-28T18:12:48Z</time>
      </trkpt>
      <trkpt lat="43.74989" lon="1.73869">
        <ele>119.335353</ele>
        <time>2026-08-28T18:12:49Z</time>
      </trkpt>
      <trkpt lat="43.74985" lon="1.73872">
        <ele>119.350499</ele>
        <time>2026-08-28T18:12:50Z</time>
      </trkpt>
      <trkpt lat="43.74981" lon="1.73874">
        <ele>119.365193</ele>
        <time>2026-08-28T18:12:51Z</time>
      </trkpt>
      <trkpt lat="43.74978" lon="1.73876">
        <ele>119.37959</ele>
        <time>2026-08-28T18:12:52Z</time>
      </trkpt>
      <trkpt lat="43.74974" lon="1.73878">
        <ele>119.393831</ele>
        <time>2026-08-28T18:12:53Z</time>
      </trkpt>
      <trkpt lat="43.74971" lon="1.73879">
        <ele>119.407075</ele>
        <time>2026-08-28T18:12:54Z</time>
      </trkpt>
      <trkpt lat="43.74968" lon="1.73881">
        <ele>119.420416</ele>
        <time>2026-08-28T18:12:55Z</time>
      </trkpt>
      <trkpt lat="43.74964" lon="1.73883">
        <ele>119.433859</ele>
        <time>2026-08-28T18:12:56Z</time>
      </trkpt>
      <trkpt lat="43.74961" lon="1.73885">
        <ele>119.447179</ele>
        <time>2026-08-28T18:12:57Z</time>
      </trkpt>
      <trkpt lat="43.74958" lon="1.73888">
        <ele>119.461328</ele>
        <time>2026-08-28T18:12:58Z</time>
      </trkpt>
      <trkpt lat="43.74954" lon="1.7389">
        <ele>119.475225</ele>
        <time>2026-08-28T18:12:59Z</time>
      </trkpt>
      <trkpt lat="43.74951" lon="1.73892">
        <ele>119.488545</ele>
        <time>2026-08-28T18:13:00Z</time>
      </trkpt>
      <trkpt lat="43.74948" lon="1.73894">
        <ele>119.501774</ele>
        <time>2026-08-28T18:13:01Z</time>
      </trkpt>
      <trkpt lat="43.74945" lon="1.73897">
        <ele>119.516007</ele>
        <time>2026-08-28T18:13:02Z</time>
      </trkpt>
      <trkpt lat="43.74941" lon="1.73899">
        <ele>119.530156</ele>
        <time>2026-08-28T18:13:03Z</time>
      </trkpt>
      <trkpt lat="43.74938" lon="1.73902">
        <ele>119.544637</ele>
        <time>2026-08-28T18:13:04Z</time>
      </trkpt>
      <trkpt lat="43.74935" lon="1.73904">
        <ele>119.558878</ele>
        <time>2026-08-28T18:13:05Z</time>
      </trkpt>
      <trkpt lat="43.74931" lon="1.73906">
        <ele>119.572539</ele>
        <time>2026-08-28T18:13:06Z</time>
      </trkpt>
      <trkpt lat="43.74928" lon="1.73908">
        <ele>119.586434</ele>
        <time>2026-08-28T18:13:07Z</time>
      </trkpt>
      <trkpt lat="43.74925" lon="1.7391">
        <ele>119.59964</ele>
        <time>2026-08-28T18:13:08Z</time>
      </trkpt>
      <trkpt lat="43.74922" lon="1.73912">
        <ele>119.612621</ele>
        <time>2026-08-28T18:13:09Z</time>
      </trkpt>
      <trkpt lat="43.74918" lon="1.73913">
        <ele>119.625513</ele>
        <time>2026-08-28T18:13:10Z</time>
      </trkpt>
      <trkpt lat="43.74915" lon="1.73916">
        <ele>119.638282</ele>
        <time>2026-08-28T18:13:11Z</time>
      </trkpt>
      <trkpt lat="43.74912" lon="1.73917">
        <ele>119.65058</ele>
        <time>2026-08-28T18:13:12Z</time>
      </trkpt>
      <trkpt lat="43.74909" lon="1.73919">
        <ele>119.662989</ele>
        <time>2026-08-28T18:13:13Z</time>
      </trkpt>
      <trkpt lat="43.74906" lon="1.73922">
        <ele>119.676427</ele>
        <time>2026-08-28T18:13:14Z</time>
      </trkpt>
      <trkpt lat="43.74903" lon="1.73924">
        <ele>119.689633</ele>
        <time>2026-08-28T18:13:15Z</time>
      </trkpt>
      <trkpt lat="43.749" lon="1.73925">
        <ele>119.702877</ele>
        <time>2026-08-28T18:13:16Z</time>
      </trkpt>
      <trkpt lat="43.74897" lon="1.73928">
        <ele>119.716106</ele>
        <time>2026-08-28T18:13:17Z</time>
      </trkpt>
      <trkpt lat="43.74893" lon="1.7393">
        <ele>119.729668</ele>
        <time>2026-08-28T18:13:18Z</time>
      </trkpt>
      <trkpt lat="43.7489" lon="1.73932">
        <ele>119.745036</ele>
        <time>2026-08-28T18:13:19Z</time>
      </trkpt>
      <trkpt lat="43.74886" lon="1.73935">
        <ele>119.760065</ele>
        <time>2026-08-28T18:13:20Z</time>
      </trkpt>
      <trkpt lat="43.74883" lon="1.73937">
        <ele>119.774675</ele>
        <time>2026-08-28T18:13:21Z</time>
      </trkpt>
      <trkpt lat="43.74879" lon="1.73939">
        <ele>119.788451</ele>
        <time>2026-08-28T18:13:22Z</time>
      </trkpt>
      <trkpt lat="43.74876" lon="1.73942">
        <ele>119.80168</ele>
        <time>2026-08-28T18:13:23Z</time>
      </trkpt>
      <trkpt lat="43.74873" lon="1.73944">
        <ele>119.823026</ele>
        <time>2026-08-28T18:13:24Z</time>
      </trkpt>
      <trkpt lat="43.74871" lon="1.73945">
        <ele>119.853501</ele>
        <time>2026-08-28T18:13:25Z</time>
      </trkpt>
      <trkpt lat="43.74868" lon="1.73947">
        <ele>119.886066</ele>
        <time>2026-08-28T18:13:26Z</time>
      </trkpt>
      <trkpt lat="43.74865" lon="1.7395">
        <ele>119.919418</ele>
        <time>2026-08-28T18:13:27Z</time>
      </trkpt>
      <trkpt lat="43.74862" lon="1.73952">
        <ele>119.954356</ele>
        <time>2026-08-28T18:13:28Z</time>
      </trkpt>
      <trkpt lat="43.74859" lon="1.73954">
        <ele>119.988727</ele>
        <time>2026-08-28T18:13:29Z</time>
      </trkpt>
      <trkpt lat="43.74855" lon="1.73956">
        <ele>120.023995</ele>
        <time>2026-08-28T18:13:30Z</time>
      </trkpt>
      <trkpt lat="43.74852" lon="1.73959">
        <ele>120.061998</ele>
        <time>2026-08-28T18:13:31Z</time>
      </trkpt>
      <trkpt lat="43.74848" lon="1.73961">
        <ele>120.099375</ele>
        <time>2026-08-28T18:13:32Z</time>
      </trkpt>
      <trkpt lat="43.74845" lon="1.73963">
        <ele>120.135227</ele>
        <time>2026-08-28T18:13:33Z</time>
      </trkpt>
      <trkpt lat="43.74842" lon="1.73965">
        <ele>120.169884</ele>
        <time>2026-08-28T18:13:34Z</time>
      </trkpt>
      <trkpt lat="43.74839" lon="1.73967">
        <ele>120.200986</ele>
        <time>2026-08-28T18:13:35Z</time>
      </trkpt>
      <trkpt lat="43.74836" lon="1.73969">
        <ele>120.234452</ele>
        <time>2026-08-28T18:13:36Z</time>
      </trkpt>
      <trkpt lat="43.74833" lon="1.73971">
        <ele>120.269732</ele>
        <time>2026-08-28T18:13:37Z</time>
      </trkpt>
      <trkpt lat="43.7483" lon="1.73973">
        <ele>120.30439</ele>
        <time>2026-08-28T18:13:38Z</time>
      </trkpt>
      <trkpt lat="43.74826" lon="1.73975">
        <ele>120.33995</ele>
        <time>2026-08-28T18:13:39Z</time>
      </trkpt>
      <trkpt lat="43.74823" lon="1.73977">
        <ele>120.374707</ele>
        <time>2026-08-28T18:13:40Z</time>
      </trkpt>
      <trkpt lat="43.7482" lon="1.73978">
        <ele>120.408173</ele>
        <time>2026-08-28T18:13:41Z</time>
      </trkpt>
      <trkpt lat="43.74816" lon="1.7398">
        <ele>120.444787</ele>
        <time>2026-08-28T18:13:42Z</time>
      </trkpt>
      <trkpt lat="43.74813" lon="1.73982">
        <ele>120.481643</ele>
        <time>2026-08-28T18:13:43Z</time>
      </trkpt>
      <trkpt lat="43.74809" lon="1.73984">
        <ele>120.518394</ele>
        <time>2026-08-28T18:13:44Z</time>
      </trkpt>
      <trkpt lat="43.74806" lon="1.73986">
        <ele>120.55486</ele>
        <time>2026-08-28T18:13:45Z</time>
      </trkpt>
      <trkpt lat="43.74803" lon="1.73988">
        <ele>120.590793</ele>
        <time>2026-08-28T18:13:46Z</time>
      </trkpt>
      <trkpt lat="43.74799" lon="1.7399">
        <ele>120.630542</ele>
        <time>2026-08-28T18:13:47Z</time>
      </trkpt>
      <trkpt lat="43.74795" lon="1.73992">
        <ele>120.670876</ele>
        <time>2026-08-28T18:13:48Z</time>
      </trkpt>
      <trkpt lat="43.74792" lon="1.73995">
        <ele>120.709754</ele>
        <time>2026-08-28T18:13:49Z</time>
      </trkpt>
      <trkpt lat="43.74788" lon="1.73997">
        <ele>120.747427</ele>
        <time>2026-08-28T18:13:50Z</time>
      </trkpt>
      <trkpt lat="43.74785" lon="1.74">
        <ele>120.786869</ele>
        <time>2026-08-28T18:13:51Z</time>
      </trkpt>
      <trkpt lat="43.74781" lon="1.74002">
        <ele>120.825714</ele>
        <time>2026-08-28T18:13:52Z</time>
      </trkpt>
      <trkpt lat="43.74778" lon="1.74005">
        <ele>120.863196</ele>
        <time>2026-08-28T18:13:53Z</time>
      </trkpt>
      <trkpt lat="43.74775" lon="1.74007">
        <ele>120.899122</ele>
        <time>2026-08-28T18:13:54Z</time>
      </trkpt>
      <trkpt lat="43.74771" lon="1.7401">
        <ele>120.937328</ele>
        <time>2026-08-28T18:13:55Z</time>
      </trkpt>
      <trkpt lat="43.74768" lon="1.74013">
        <ele>120.976696</ele>
        <time>2026-08-28T18:13:56Z</time>
      </trkpt>
      <trkpt lat="43.74764" lon="1.74015">
        <ele>121.016445</ele>
        <time>2026-08-28T18:13:57Z</time>
      </trkpt>
      <trkpt lat="43.74761" lon="1.74017">
        <ele>121.056195</ele>
        <time>2026-08-28T18:13:58Z</time>
      </trkpt>
      <trkpt lat="43.74757" lon="1.74019">
        <ele>121.095404</ele>
        <time>2026-08-28T18:13:59Z</time>
      </trkpt>
      <trkpt lat="43.74753" lon="1.74022">
        <ele>121.13396</ele>
        <time>2026-08-28T18:14:00Z</time>
      </trkpt>
      <trkpt lat="43.7475" lon="1.74024">
        <ele>121.169812</ele>
        <time>2026-08-28T18:14:01Z</time>
      </trkpt>
      <trkpt lat="43.74747" lon="1.74026">
        <ele>121.205372</ele>
        <time>2026-08-28T18:14:02Z</time>
      </trkpt>
      <trkpt lat="43.74744" lon="1.74028">
        <ele>121.239742</ele>
        <time>2026-08-28T18:14:03Z</time>
      </trkpt>
      <trkpt lat="43.7474" lon="1.74029">
        <ele>121.274755</ele>
        <time>2026-08-28T18:14:04Z</time>
      </trkpt>
      <trkpt lat="43.74737" lon="1.74031">
        <ele>121.308589</ele>
        <time>2026-08-28T18:14:05Z</time>
      </trkpt>
      <trkpt lat="43.74734" lon="1.74033">
        <ele>121.341154</ele>
        <time>2026-08-28T18:14:06Z</time>
      </trkpt>
      <trkpt lat="43.74731" lon="1.74035">
        <ele>121.374988</ele>
        <time>2026-08-28T18:14:07Z</time>
      </trkpt>
      <trkpt lat="43.74728" lon="1.74036">
        <ele>121.403075</ele>
        <time>2026-08-28T18:14:08Z</time>
      </trkpt>
      <trkpt lat="43.74726" lon="1.74038">
        <ele>121.428783</ele>
        <time>2026-08-28T18:14:09Z</time>
      </trkpt>
      <trkpt lat="43.74724" lon="1.74039">
        <ele>121.452804</ele>
        <time>2026-08-28T18:14:10Z</time>
      </trkpt>
      <trkpt lat="43.74722" lon="1.7404">
        <ele>121.475511</ele>
        <time>2026-08-28T18:14:11Z</time>
      </trkpt>
      <trkpt lat="43.7472" lon="1.74041">
        <ele>121.497322</ele>
        <time>2026-08-28T18:14:12Z</time>
      </trkpt>
      <trkpt lat="43.74718" lon="1.74043">
        <ele>121.518243</ele>
        <time>2026-08-28T18:14:13Z</time>
      </trkpt>
      <trkpt lat="43.74716" lon="1.74044">
        <ele>121.541251</ele>
        <time>2026-08-28T18:14:14Z</time>
      </trkpt>
      <trkpt lat="43.74713" lon="1.74046">
        <ele>121.565633</ele>
        <time>2026-08-28T18:14:15Z</time>
      </trkpt>
      <trkpt lat="43.74712" lon="1.74048">
        <ele>121.586748</ele>
        <time>2026-08-28T18:14:16Z</time>
      </trkpt>
      <trkpt lat="43.7471" lon="1.7405">
        <ele>121.604881</ele>
        <time>2026-08-28T18:14:17Z</time>
      </trkpt>
      <trkpt lat="43.74707" lon="1.74051">
        <ele>121.622799</ele>
        <time>2026-08-28T18:14:18Z</time>
      </trkpt>
      <trkpt lat="43.74706" lon="1.74053">
        <ele>121.639088</ele>
        <time>2026-08-28T18:14:19Z</time>
      </trkpt>
      <trkpt lat="43.74704" lon="1.74055">
        <ele>121.656009</ele>
        <time>2026-08-28T18:14:20Z</time>
      </trkpt>
      <trkpt lat="43.74702" lon="1.74056">
        <ele>121.672</ele>
        <time>2026-08-28T18:14:21Z</time>
      </trkpt>
      <trkpt lat="43.747" lon="1.74057">
        <ele>121.685354</ele>
        <time>2026-08-28T18:14:22Z</time>
      </trkpt>
      <trkpt lat="43.747" lon="1.74058">
        <ele>121.689382</ele>
        <time>2026-08-28T18:14:23Z</time>
      </trkpt>
      <trkpt lat="43.747" lon="1.74058">
        <ele>121.691167</ele>
        <time>2026-08-28T18:14:24Z</time>
      </trkpt>
      <trkpt lat="43.747" lon="1.74057">
        <ele>121.695986</ele>
        <time>2026-08-28T18:14:25Z</time>
      </trkpt>
      <trkpt lat="43.74698" lon="1.74061">
        <ele>121.720165</ele>
        <time>2026-08-28T18:14:39Z</time>
      </trkpt>
      <trkpt lat="43.74697" lon="1.74063">
        <ele>121.735204</ele>
        <time>2026-08-28T18:14:40Z</time>
      </trkpt>
      <trkpt lat="43.74695" lon="1.74064">
        <ele>121.750139</ele>
        <time>2026-08-28T18:14:41Z</time>
      </trkpt>
      <trkpt lat="43.74694" lon="1.74066">
        <ele>121.763372</ele>
        <time>2026-08-28T18:14:42Z</time>
      </trkpt>
      <trkpt lat="43.74692" lon="1.74067">
        <ele>121.777241</ele>
        <time>2026-08-28T18:14:43Z</time>
      </trkpt>
      <trkpt lat="43.7469" lon="1.74068">
        <ele>121.792417</ele>
        <time>2026-08-28T18:14:44Z</time>
      </trkpt>
      <trkpt lat="43.74689" lon="1.7407">
        <ele>121.806682</ele>
        <time>2026-08-28T18:14:45Z</time>
      </trkpt>
      <trkpt lat="43.74686" lon="1.74071">
        <ele>121.824167</ele>
        <time>2026-08-28T18:14:46Z</time>
      </trkpt>
      <trkpt lat="43.74684" lon="1.74072">
        <ele>121.841363</ele>
        <time>2026-08-28T18:14:47Z</time>
      </trkpt>
      <trkpt lat="43.74682" lon="1.74073">
        <ele>121.859463</ele>
        <time>2026-08-28T18:14:48Z</time>
      </trkpt>
      <trkpt lat="43.7468" lon="1.74075">
        <ele>121.877139</ele>
        <time>2026-08-28T18:14:49Z</time>
      </trkpt>
      <trkpt lat="43.74678" lon="1.74076">
        <ele>121.89516</ele>
        <time>2026-08-28T18:14:50Z</time>
      </trkpt>
      <trkpt lat="43.74676" lon="1.74076">
        <ele>121.910006</ele>
        <time>2026-08-28T18:14:51Z</time>
      </trkpt>
      <trkpt lat="43.74674" lon="1.74077">
        <ele>121.923982</ele>
        <time>2026-08-28T18:14:52Z</time>
      </trkpt>
      <trkpt lat="43.74672" lon="1.74077">
        <ele>121.938348</ele>
        <time>2026-08-28T18:14:53Z</time>
      </trkpt>
      <trkpt lat="43.7467" lon="1.74077">
        <ele>121.95555</ele>
        <time>2026-08-28T18:14:54Z</time>
      </trkpt>
      <trkpt lat="43.74667" lon="1.74076">
        <ele>121.973523</ele>
        <time>2026-08-28T18:14:55Z</time>
      </trkpt>
      <trkpt lat="43.74665" lon="1.74076">
        <ele>121.991753</ele>
        <time>2026-08-28T18:14:56Z</time>
      </trkpt>
      <trkpt lat="43.74663" lon="1.74076">
        <ele>122.004473</ele>
        <time>2026-08-28T18:14:57Z</time>
      </trkpt>
      <trkpt lat="43.74661" lon="1.74077">
        <ele>122.01828</ele>
        <time>2026-08-28T18:14:58Z</time>
      </trkpt>
      <trkpt lat="43.74659" lon="1.74078">
        <ele>122.035945</ele>
        <time>2026-08-28T18:14:59Z</time>
      </trkpt>
      <trkpt lat="43.74657" lon="1.7408">
        <ele>122.055695</ele>
        <time>2026-08-28T18:15:00Z</time>
      </trkpt>
      <trkpt lat="43.74654" lon="1.74082">
        <ele>122.07719</ele>
        <time>2026-08-28T18:15:01Z</time>
      </trkpt>
      <trkpt lat="43.74652" lon="1.74083">
        <ele>122.098387</ele>
        <time>2026-08-28T18:15:02Z</time>
      </trkpt>
      <trkpt lat="43.7465" lon="1.74085">
        <ele>122.116573</ele>
        <time>2026-08-28T18:15:03Z</time>
      </trkpt>
      <trkpt lat="43.74647" lon="1.74086">
        <ele>122.135144</ele>
        <time>2026-08-28T18:15:04Z</time>
      </trkpt>
      <trkpt lat="43.74645" lon="1.74087">
        <ele>122.155107</ele>
        <time>2026-08-28T18:15:05Z</time>
      </trkpt>
      <trkpt lat="43.74643" lon="1.74089">
        <ele>122.173678</ele>
        <time>2026-08-28T18:15:06Z</time>
      </trkpt>
      <trkpt lat="43.7464" lon="1.7409">
        <ele>122.193362</ele>
        <time>2026-08-28T18:15:07Z</time>
      </trkpt>
      <trkpt lat="43.74638" lon="1.74091">
        <ele>122.211038</ele>
        <time>2026-08-28T18:15:08Z</time>
      </trkpt>
      <trkpt lat="43.74636" lon="1.74093">
        <ele>122.230043</ele>
        <time>2026-08-28T18:15:09Z</time>
      </trkpt>
      <trkpt lat="43.74633" lon="1.74094">
        <ele>122.249728</ele>
        <time>2026-08-28T18:15:10Z</time>
      </trkpt>
      <trkpt lat="43.74631" lon="1.74096">
        <ele>122.27128</ele>
        <time>2026-08-28T18:15:11Z</time>
      </trkpt>
      <trkpt lat="43.74628" lon="1.74097">
        <ele>122.292336</ele>
        <time>2026-08-28T18:15:12Z</time>
      </trkpt>
      <trkpt lat="43.74626" lon="1.74099">
        <ele>122.312741</ele>
        <time>2026-08-28T18:15:13Z</time>
      </trkpt>
      <trkpt lat="43.74623" lon="1.74101">
        <ele>122.333044</ele>
        <time>2026-08-28T18:15:14Z</time>
      </trkpt>
      <trkpt lat="43.74621" lon="1.74103">
        <ele>122.353712</ele>
        <time>2026-08-28T18:15:15Z</time>
      </trkpt>
      <trkpt lat="43.74618" lon="1.74105">
        <ele>122.376353</ele>
        <time>2026-08-28T18:15:16Z</time>
      </trkpt>
      <trkpt lat="43.74616" lon="1.74107">
        <ele>122.397577</ele>
        <time>2026-08-28T18:15:17Z</time>
      </trkpt>
      <trkpt lat="43.74613" lon="1.74109">
        <ele>122.417599</ele>
        <time>2026-08-28T18:15:18Z</time>
      </trkpt>
      <trkpt lat="43.74611" lon="1.74111">
        <ele>122.439183</ele>
        <time>2026-08-28T18:15:19Z</time>
      </trkpt>
      <trkpt lat="43.74608" lon="1.74112">
        <ele>122.460453</ele>
        <time>2026-08-28T18:15:20Z</time>
      </trkpt>
      <trkpt lat="43.74606" lon="1.74114">
        <ele>122.481307</ele>
        <time>2026-08-28T18:15:21Z</time>
      </trkpt>
      <trkpt lat="43.74603" lon="1.74115">
        <ele>122.503055</ele>
        <time>2026-08-28T18:15:22Z</time>
      </trkpt>
      <trkpt lat="43.746" lon="1.74117">
        <ele>122.524803</ele>
        <time>2026-08-28T18:15:23Z</time>
      </trkpt>
      <trkpt lat="43.74598" lon="1.74119">
        <ele>122.546975</ele>
        <time>2026-08-28T18:15:24Z</time>
      </trkpt>
      <trkpt lat="43.74595" lon="1.7412">
        <ele>122.569601</ele>
        <time>2026-08-28T18:15:25Z</time>
      </trkpt>
      <trkpt lat="43.74592" lon="1.74122">
        <ele>122.592242</ele>
        <time>2026-08-28T18:15:26Z</time>
      </trkpt>
      <trkpt lat="43.74589" lon="1.74124">
        <ele>122.61422</ele>
        <time>2026-08-28T18:15:27Z</time>
      </trkpt>
      <trkpt lat="43.74587" lon="1.74125">
        <ele>122.635715</ele>
        <time>2026-08-28T18:15:28Z</time>
      </trkpt>
      <trkpt lat="43.74584" lon="1.74127">
        <ele>122.656984</ele>
        <time>2026-08-28T18:15:29Z</time>
      </trkpt>
      <trkpt lat="43.74581" lon="1.74129">
        <ele>122.680062</ele>
        <time>2026-08-28T18:15:30Z</time>
      </trkpt>
      <trkpt lat="43.74579" lon="1.74131">
        <ele>122.703614</ele>
        <time>2026-08-28T18:15:31Z</time>
      </trkpt>
      <trkpt lat="43.74576" lon="1.74132">
        <ele>122.726756</ele>
        <time>2026-08-28T18:15:32Z</time>
      </trkpt>
      <trkpt lat="43.74573" lon="1.74134">
        <ele>122.7506</ele>
        <time>2026-08-28T18:15:33Z</time>
      </trkpt>
      <trkpt lat="43.7457" lon="1.74135">
        <ele>122.775042</ele>
        <time>2026-08-28T18:15:34Z</time>
      </trkpt>
      <trkpt lat="43.74567" lon="1.74137">
        <ele>122.798583</ele>
        <time>2026-08-28T18:15:35Z</time>
      </trkpt>
      <trkpt lat="43.74564" lon="1.74139">
        <ele>122.821726</ele>
        <time>2026-08-28T18:15:36Z</time>
      </trkpt>
      <trkpt lat="43.74561" lon="1.7414">
        <ele>122.844868</ele>
        <time>2026-08-28T18:15:37Z</time>
      </trkpt>
      <trkpt lat="43.74558" lon="1.74141">
        <ele>122.866237</ele>
        <time>2026-08-28T18:15:38Z</time>
      </trkpt>
      <trkpt lat="43.74555" lon="1.74143">
        <ele>122.890468</ele>
        <time>2026-08-28T18:15:39Z</time>
      </trkpt>
      <trkpt lat="43.74552" lon="1.74145">
        <ele>122.914844</ele>
        <time>2026-08-28T18:15:40Z</time>
      </trkpt>
      <trkpt lat="43.74549" lon="1.74145">
        <ele>122.939687</ele>
        <time>2026-08-28T18:15:41Z</time>
      </trkpt>
      <trkpt lat="43.74546" lon="1.74145">
        <ele>122.9654</ele>
        <time>2026-08-28T18:15:42Z</time>
      </trkpt>
      <trkpt lat="43.74543" lon="1.74145">
        <ele>122.990259</ele>
        <time>2026-08-28T18:15:43Z</time>
      </trkpt>
      <trkpt lat="43.7454" lon="1.74145">
        <ele>123.014317</ele>
        <time>2026-08-28T18:15:44Z</time>
      </trkpt>
      <trkpt lat="43.74537" lon="1.74145">
        <ele>123.035993</ele>
        <time>2026-08-28T18:15:45Z</time>
      </trkpt>
      <trkpt lat="43.74534" lon="1.74146">
        <ele>123.059307</ele>
        <time>2026-08-28T18:15:46Z</time>
      </trkpt>
      <trkpt lat="43.74531" lon="1.74147">
        <ele>123.084187</ele>
        <time>2026-08-28T18:15:47Z</time>
      </trkpt>
      <trkpt lat="43.74528" lon="1.74149">
        <ele>123.109304</ele>
        <time>2026-08-28T18:15:48Z</time>
      </trkpt>
      <trkpt lat="43.74525" lon="1.74151">
        <ele>123.137377</ele>
        <time>2026-08-28T18:15:49Z</time>
      </trkpt>
      <trkpt lat="43.74522" lon="1.74154">
        <ele>123.169222</ele>
        <time>2026-08-28T18:15:50Z</time>
      </trkpt>
      <trkpt lat="43.74518" lon="1.74157">
        <ele>123.201774</ele>
        <time>2026-08-28T18:15:51Z</time>
      </trkpt>
      <trkpt lat="43.74515" lon="1.74159">
        <ele>123.233808</ele>
        <time>2026-08-28T18:15:52Z</time>
      </trkpt>
      <trkpt lat="43.74511" lon="1.74161">
        <ele>123.266324</ele>
        <time>2026-08-28T18:15:53Z</time>
      </trkpt>
      <trkpt lat="43.74507" lon="1.74164">
        <ele>123.298614</ele>
        <time>2026-08-28T18:15:54Z</time>
      </trkpt>
      <trkpt lat="43.74504" lon="1.74166">
        <ele>123.330903</ele>
        <time>2026-08-28T18:15:55Z</time>
      </trkpt>
      <trkpt lat="43.745" lon="1.74169">
        <ele>123.361963</ele>
        <time>2026-08-28T18:15:56Z</time>
      </trkpt>
      <trkpt lat="43.74497" lon="1.74171">
        <ele>123.39278</ele>
        <time>2026-08-28T18:15:57Z</time>
      </trkpt>
      <trkpt lat="43.74493" lon="1.74173">
        <ele>123.42292</ele>
        <time>2026-08-28T18:15:58Z</time>
      </trkpt>
      <trkpt lat="43.7449" lon="1.74175">
        <ele>123.453276</ele>
        <time>2026-08-28T18:15:59Z</time>
      </trkpt>
      <trkpt lat="43.74486" lon="1.74176">
        <ele>123.483209</ele>
        <time>2026-08-28T18:16:00Z</time>
      </trkpt>
      <trkpt lat="43.74483" lon="1.74178">
        <ele>123.513349</ele>
        <time>2026-08-28T18:16:01Z</time>
      </trkpt>
      <trkpt lat="43.74479" lon="1.7418">
        <ele>123.54393</ele>
        <time>2026-08-28T18:16:02Z</time>
      </trkpt>
      <trkpt lat="43.74476" lon="1.74183">
        <ele>123.574795</ele>
        <time>2026-08-28T18:16:03Z</time>
      </trkpt>
      <trkpt lat="43.74472" lon="1.74185">
        <ele>123.606369</ele>
        <time>2026-08-28T18:16:04Z</time>
      </trkpt>
      <trkpt lat="43.74469" lon="1.74188">
        <ele>123.63681</ele>
        <time>2026-08-28T18:16:05Z</time>
      </trkpt>
      <trkpt lat="43.74466" lon="1.7419">
        <ele>123.667407</ele>
        <time>2026-08-28T18:16:06Z</time>
      </trkpt>
      <trkpt lat="43.74462" lon="1.74193">
        <ele>123.697849</ele>
        <time>2026-08-28T18:16:07Z</time>
      </trkpt>
      <trkpt lat="43.74459" lon="1.74196">
        <ele>123.728713</ele>
        <time>2026-08-28T18:16:08Z</time>
      </trkpt>
      <trkpt lat="43.74456" lon="1.74198">
        <ele>123.758171</ele>
        <time>2026-08-28T18:16:09Z</time>
      </trkpt>
      <trkpt lat="43.74453" lon="1.742">
        <ele>123.787791</ele>
        <time>2026-08-28T18:16:10Z</time>
      </trkpt>
      <trkpt lat="43.74449" lon="1.74203">
        <ele>123.819105</ele>
        <time>2026-08-28T18:16:11Z</time>
      </trkpt>
      <trkpt lat="43.74446" lon="1.74205">
        <ele>123.849921</ele>
        <time>2026-08-28T18:16:12Z</time>
      </trkpt>
      <trkpt lat="43.74442" lon="1.74207">
        <ele>123.880738</ele>
        <time>2026-08-28T18:16:13Z</time>
      </trkpt>
      <trkpt lat="43.74439" lon="1.74209">
        <ele>123.91132</ele>
        <time>2026-08-28T18:16:14Z</time>
      </trkpt>
      <trkpt lat="43.74435" lon="1.74211">
        <ele>123.940503</ele>
        <time>2026-08-28T18:16:15Z</time>
      </trkpt>
      <trkpt lat="43.74432" lon="1.74213">
        <ele>123.970997</ele>
        <time>2026-08-28T18:16:16Z</time>
      </trkpt>
      <trkpt lat="43.74428" lon="1.74214">
        <ele>124.002073</ele>
        <time>2026-08-28T18:16:17Z</time>
      </trkpt>
      <trkpt lat="43.74424" lon="1.74216">
        <ele>124.032676</ele>
        <time>2026-08-28T18:16:18Z</time>
      </trkpt>
      <trkpt lat="43.74421" lon="1.74217">
        <ele>124.062503</ele>
        <time>2026-08-28T18:16:19Z</time>
      </trkpt>
      <trkpt lat="43.74417" lon="1.74218">
        <ele>124.092969</ele>
        <time>2026-08-28T18:16:20Z</time>
      </trkpt>
      <trkpt lat="43.74413" lon="1.74219">
        <ele>124.121876</ele>
        <time>2026-08-28T18:16:21Z</time>
      </trkpt>
      <trkpt lat="43.7441" lon="1.7422">
        <ele>124.151312</ele>
        <time>2026-08-28T18:16:22Z</time>
      </trkpt>
      <trkpt lat="43.74406" lon="1.74221">
        <ele>124.182322</ele>
        <time>2026-08-28T18:16:23Z</time>
      </trkpt>
      <trkpt lat="43.74402" lon="1.74222">
        <ele>124.212126</ele>
        <time>2026-08-28T18:16:24Z</time>
      </trkpt>
      <trkpt lat="43.74399" lon="1.74222">
        <ele>124.241079</ele>
        <time>2026-08-28T18:16:25Z</time>
      </trkpt>
      <trkpt lat="43.74395" lon="1.74223">
        <ele>124.270033</ele>
        <time>2026-08-28T18:16:26Z</time>
      </trkpt>
      <trkpt lat="43.74391" lon="1.74223">
        <ele>124.298946</ele>
        <time>2026-08-28T18:16:27Z</time>
      </trkpt>
      <trkpt lat="43.74388" lon="1.74223">
        <ele>124.326204</ele>
        <time>2026-08-28T18:16:28Z</time>
      </trkpt>
      <trkpt lat="43.74385" lon="1.74223">
        <ele>124.350261</ele>
        <time>2026-08-28T18:16:29Z</time>
      </trkpt>
      <trkpt lat="43.74382" lon="1.74223">
        <ele>124.370925</ele>
        <time>2026-08-28T18:16:30Z</time>
      </trkpt>
      <trkpt lat="43.74379" lon="1.74223">
        <ele>124.378015</ele>
        <time>2026-08-28T18:16:31Z</time>
      </trkpt>
      <trkpt lat="43.74376" lon="1.74223">
        <ele>124.385342</ele>
        <time>2026-08-28T18:16:32Z</time>
      </trkpt>
      <trkpt lat="43.74374" lon="1.74224">
        <ele>124.391887</ele>
        <time>2026-08-28T18:16:33Z</time>
      </trkpt>
      <trkpt lat="43.74371" lon="1.74225">
        <ele>124.398834</ele>
        <time>2026-08-28T18:16:34Z</time>
      </trkpt>
      <trkpt lat="43.74368" lon="1.74226">
        <ele>124.4051</ele>
        <time>2026-08-28T18:16:35Z</time>
      </trkpt>
      <trkpt lat="43.74367" lon="1.74228">
        <ele>124.409686</ele>
        <time>2026-08-28T18:16:36Z</time>
      </trkpt>
      <trkpt lat="43.74367" lon="1.74229">
        <ele>124.412342</ele>
        <time>2026-08-28T18:16:37Z</time>
      </trkpt>
      <trkpt lat="43.74368" lon="1.7423">
        <ele>124.413932</ele>
        <time>2026-08-28T18:16:38Z</time>
      </trkpt>
      <trkpt lat="43.74368" lon="1.7423">
        <ele>124.414233</ele>
        <time>2026-08-28T18:16:39Z</time>
      </trkpt>
      <trkpt lat="43.74367" lon="1.7423">
        <ele>124.414836</ele>
        <time>2026-08-28T18:16:40Z</time>
      </trkpt>
      <trkpt lat="43.74367" lon="1.74237">
        <ele>124.427378</ele>
        <time>2026-08-28T18:17:35Z</time>
      </trkpt>
      <trkpt lat="43.74367" lon="1.7424">
        <ele>124.431692</ele>
        <time>2026-08-28T18:17:36Z</time>
      </trkpt>
      <trkpt lat="43.74368" lon="1.74243">
        <ele>124.437333</ele>
        <time>2026-08-28T18:17:37Z</time>
      </trkpt>
      <trkpt lat="43.74369" lon="1.74246">
        <ele>124.443268</ele>
        <time>2026-08-28T18:17:38Z</time>
      </trkpt>
      <trkpt lat="43.74371" lon="1.74249">
        <ele>124.450146</ele>
        <time>2026-08-28T18:17:39Z</time>
      </trkpt>
      <trkpt lat="43.74372" lon="1.74253">
        <ele>124.457301</ele>
        <time>2026-08-28T18:17:40Z</time>
      </trkpt>
      <trkpt lat="43.74373" lon="1.74256">
        <ele>124.464034</ele>
        <time>2026-08-28T18:17:41Z</time>
      </trkpt>
      <trkpt lat="43.74374" lon="1.7426">
        <ele>124.470976</ele>
        <time>2026-08-28T18:17:42Z</time>
      </trkpt>
      <trkpt lat="43.74375" lon="1.74263">
        <ele>124.478234</ele>
        <time>2026-08-28T18:17:43Z</time>
      </trkpt>
      <trkpt lat="43.74377" lon="1.74267">
        <ele>124.485917</ele>
        <time>2026-08-28T18:17:44Z</time>
      </trkpt>
      <trkpt lat="43.74378" lon="1.74271">
        <ele>124.493467</ele>
        <time>2026-08-28T18:17:45Z</time>
      </trkpt>
      <trkpt lat="43.74379" lon="1.74275">
        <ele>124.501271</ele>
        <time>2026-08-28T18:17:46Z</time>
      </trkpt>
      <trkpt lat="43.74381" lon="1.74279">
        <ele>124.509336</ele>
        <time>2026-08-28T18:17:47Z</time>
      </trkpt>
      <trkpt lat="43.74382" lon="1.74283">
        <ele>124.516722</ele>
        <time>2026-08-28T18:17:48Z</time>
      </trkpt>
      <trkpt lat="43.74383" lon="1.74287">
        <ele>124.524987</ele>
        <time>2026-08-28T18:17:49Z</time>
      </trkpt>
      <trkpt lat="43.74385" lon="1.74292">
        <ele>124.533449</ele>
        <time>2026-08-28T18:17:50Z</time>
      </trkpt>
      <trkpt lat="43.74386" lon="1.74297">
        <ele>124.542674</ele>
        <time>2026-08-28T18:17:51Z</time>
      </trkpt>
      <trkpt lat="43.74388" lon="1.74302">
        <ele>124.552062</ele>
        <time>2026-08-28T18:17:52Z</time>
      </trkpt>
      <trkpt lat="43.74389" lon="1.74306">
        <ele>124.560706</ele>
        <time>2026-08-28T18:17:53Z</time>
      </trkpt>
      <trkpt lat="43.7439" lon="1.74311">
        <ele>124.568919</ele>
        <time>2026-08-28T18:17:54Z</time>
      </trkpt>
      <trkpt lat="43.74391" lon="1.74315">
        <ele>124.577142</ele>
        <time>2026-08-28T18:17:55Z</time>
      </trkpt>
      <trkpt lat="43.74392" lon="1.74318">
        <ele>124.58297</ele>
        <time>2026-08-28T18:17:56Z</time>
      </trkpt>
      <trkpt lat="43.74394" lon="1.74318">
        <ele>124.586881</ele>
        <time>2026-08-28T18:17:57Z</time>
      </trkpt>
      <trkpt lat="43.74394" lon="1.74316">
        <ele>124.590712</ele>
        <time>2026-08-28T18:17:58Z</time>
      </trkpt>
      <trkpt lat="43.74394" lon="1.74314">
        <ele>124.594203</ele>
        <time>2026-08-28T18:17:59Z</time>
      </trkpt>
      <trkpt lat="43.74392" lon="1.74312">
        <ele>124.598524</ele>
        <time>2026-08-28T18:18:00Z</time>
      </trkpt>
      <trkpt lat="43.74391" lon="1.7431">
        <ele>124.603819</ele>
        <time>2026-08-28T18:18:01Z</time>
      </trkpt>
      <trkpt lat="43.7439" lon="1.74306">
        <ele>124.610401</ele>
        <time>2026-08-28T18:18:02Z</time>
      </trkpt>
      <trkpt lat="43.74388" lon="1.74304">
        <ele>124.617347</ele>
        <time>2026-08-28T18:18:03Z</time>
      </trkpt>
      <trkpt lat="43.74385" lon="1.74302">
        <ele>124.624972</ele>
        <time>2026-08-28T18:18:04Z</time>
      </trkpt>
      <trkpt lat="43.74381" lon="1.74303">
        <ele>124.63377</ele>
        <time>2026-08-28T18:18:05Z</time>
      </trkpt>
      <trkpt lat="43.74377" lon="1.74304">
        <ele>124.643764</ele>
        <time>2026-08-28T18:18:06Z</time>
      </trkpt>
      <trkpt lat="43.74373" lon="1.74305">
        <ele>124.654094</ele>
        <time>2026-08-28T18:18:07Z</time>
      </trkpt>
      <trkpt lat="43.74368" lon="1.74306">
        <ele>124.665044</ele>
        <time>2026-08-28T18:18:08Z</time>
      </trkpt>
      <trkpt lat="43.74364" lon="1.74308">
        <ele>124.676532</ele>
        <time>2026-08-28T18:18:09Z</time>
      </trkpt>
      <trkpt lat="43.7436" lon="1.7431">
        <ele>124.688062</ele>
        <time>2026-08-28T18:18:10Z</time>
      </trkpt>
      <trkpt lat="43.74356" lon="1.74314">
        <ele>124.699555</ele>
        <time>2026-08-28T18:18:11Z</time>
      </trkpt>
      <trkpt lat="43.74352" lon="1.74317">
        <ele>124.71111</ele>
        <time>2026-08-28T18:18:12Z</time>
      </trkpt>
      <trkpt lat="43.74348" lon="1.7432">
        <ele>124.722056</ele>
        <time>2026-08-28T18:18:13Z</time>
      </trkpt>
      <trkpt lat="43.74343" lon="1.74322">
        <ele>124.732995</ele>
        <time>2026-08-28T18:18:14Z</time>
      </trkpt>
      <trkpt lat="43.74339" lon="1.74325">
        <ele>124.744675</ele>
        <time>2026-08-28T18:18:15Z</time>
      </trkpt>
      <trkpt lat="43.74335" lon="1.74328">
        <ele>124.756058</ele>
        <time>2026-08-28T18:18:16Z</time>
      </trkpt>
      <trkpt lat="43.74331" lon="1.74331">
        <ele>124.767599</ele>
        <time>2026-08-28T18:18:17Z</time>
      </trkpt>
      <trkpt lat="43.74327" lon="1.74334">
        <ele>124.778686</ele>
        <time>2026-08-28T18:18:18Z</time>
      </trkpt>
      <trkpt lat="43.74323" lon="1.74337">
        <ele>124.789667</ele>
        <time>2026-08-28T18:18:19Z</time>
      </trkpt>
      <trkpt lat="43.74319" lon="1.7434">
        <ele>124.800534</ele>
        <time>2026-08-28T18:18:20Z</time>
      </trkpt>
      <trkpt lat="43.74315" lon="1.74342">
        <ele>124.813449</ele>
        <time>2026-08-28T18:18:21Z</time>
      </trkpt>
      <trkpt lat="43.74311" lon="1.74344">
        <ele>124.839972</ele>
        <time>2026-08-28T18:18:22Z</time>
      </trkpt>
      <trkpt lat="43.74308" lon="1.74346">
        <ele>124.866836</ele>
        <time>2026-08-28T18:18:23Z</time>
      </trkpt>
      <trkpt lat="43.74304" lon="1.74347">
        <ele>124.893999</ele>
        <time>2026-08-28T18:18:24Z</time>
      </trkpt>
      <trkpt lat="43.743" lon="1.74349">
        <ele>124.921802</ele>
        <time>2026-08-28T18:18:25Z</time>
      </trkpt>
      <trkpt lat="43.74296" lon="1.74351">
        <ele>124.951685</ele>
        <time>2026-08-28T18:18:26Z</time>
      </trkpt>
      <trkpt lat="43.74292" lon="1.74354">
        <ele>124.980961</ele>
        <time>2026-08-28T18:18:27Z</time>
      </trkpt>
      <trkpt lat="43.74288" lon="1.74356">
        <ele>125.00901</ele>
        <time>2026-08-28T18:18:28Z</time>
      </trkpt>
      <trkpt lat="43.74284" lon="1.74358">
        <ele>125.037311</ele>
        <time>2026-08-28T18:18:29Z</time>
      </trkpt>
      <trkpt lat="43.7428" lon="1.7436">
        <ele>125.06561</ele>
        <time>2026-08-28T18:18:30Z</time>
      </trkpt>
      <trkpt lat="43.74276" lon="1.74362">
        <ele>125.094092</ele>
        <time>2026-08-28T18:18:31Z</time>
      </trkpt>
      <trkpt lat="43.74273" lon="1.74365">
        <ele>125.121432</ele>
        <time>2026-08-28T18:18:32Z</time>
      </trkpt>
      <trkpt lat="43.7427" lon="1.74368">
        <ele>125.147585</ele>
        <time>2026-08-28T18:18:33Z</time>
      </trkpt>
      <trkpt lat="43.74266" lon="1.7437">
        <ele>125.174609</ele>
        <time>2026-08-28T18:18:34Z</time>
      </trkpt>
      <trkpt lat="43.74262" lon="1.74373">
        <ele>125.205147</ele>
        <time>2026-08-28T18:18:35Z</time>
      </trkpt>
      <trkpt lat="43.74258" lon="1.74376">
        <ele>125.234423</ele>
        <time>2026-08-28T18:18:36Z</time>
      </trkpt>
      <trkpt lat="43.74254" lon="1.74379">
        <ele>125.26452</ele>
        <time>2026-08-28T18:18:37Z</time>
      </trkpt>
      <trkpt lat="43.7425" lon="1.74381">
        <ele>125.293587</ele>
        <time>2026-08-28T18:18:38Z</time>
      </trkpt>
      <trkpt lat="43.74246" lon="1.74384">
        <ele>125.322255</ele>
        <time>2026-08-28T18:18:39Z</time>
      </trkpt>
      <trkpt lat="43.74242" lon="1.74386">
        <ele>125.351937</ele>
        <time>2026-08-28T18:18:40Z</time>
      </trkpt>
      <trkpt lat="43.74239" lon="1.74389">
        <ele>125.379783</ele>
        <time>2026-08-28T18:18:41Z</time>
      </trkpt>
      <trkpt lat="43.74235" lon="1.74391">
        <ele>125.406397</ele>
        <time>2026-08-28T18:18:42Z</time>
      </trkpt>
      <trkpt lat="43.74231" lon="1.74393">
        <ele>125.434242</ele>
        <time>2026-08-28T18:18:43Z</time>
      </trkpt>
      <trkpt lat="43.74228" lon="1.74396">
        <ele>125.462697</ele>
        <time>2026-08-28T18:18:44Z</time>
      </trkpt>
      <trkpt lat="43.74224" lon="1.74398">
        <ele>125.489561</ele>
        <time>2026-08-28T18:18:45Z</time>
      </trkpt>
      <trkpt lat="43.7422" lon="1.744">
        <ele>125.516992</ele>
        <time>2026-08-28T18:18:46Z</time>
      </trkpt>
      <trkpt lat="43.74216" lon="1.74402">
        <ele>125.544849</ele>
        <time>2026-08-28T18:18:47Z</time>
      </trkpt>
      <trkpt lat="43.74213" lon="1.74404">
        <ele>125.571712</ele>
        <time>2026-08-28T18:18:48Z</time>
      </trkpt>
      <trkpt lat="43.74209" lon="1.74406">
        <ele>125.598402</ele>
        <time>2026-08-28T18:18:49Z</time>
      </trkpt>
      <trkpt lat="43.74205" lon="1.74408">
        <ele>125.625897</ele>
        <time>2026-08-28T18:18:50Z</time>
      </trkpt>
      <trkpt lat="43.74202" lon="1.7441">
        <ele>125.65276</ele>
        <time>2026-08-28T18:18:51Z</time>
      </trkpt>
      <trkpt lat="43.74198" lon="1.74412">
        <ele>125.678995</ele>
        <time>2026-08-28T18:18:52Z</time>
      </trkpt>
      <trkpt lat="43.74194" lon="1.74414">
        <ele>125.704604</ele>
        <time>2026-08-28T18:18:53Z</time>
      </trkpt>
      <trkpt lat="43.74191" lon="1.74416">
        <ele>125.731293</ele>
        <time>2026-08-28T18:18:54Z</time>
      </trkpt>
      <trkpt lat="43.74187" lon="1.74418">
        <ele>125.758109</ele>
        <time>2026-08-28T18:18:55Z</time>
      </trkpt>
      <trkpt lat="43.74184" lon="1.74421">
        <ele>125.785132</ele>
        <time>2026-08-28T18:18:56Z</time>
      </trkpt>
      <trkpt lat="43.7418" lon="1.74424">
        <ele>125.812231</ele>
        <time>2026-08-28T18:18:57Z</time>
      </trkpt>
      <trkpt lat="43.74177" lon="1.74426">
        <ele>125.838988</ele>
        <time>2026-08-28T18:18:58Z</time>
      </trkpt>
      <trkpt lat="43.74173" lon="1.74429">
        <ele>125.866086</ele>
        <time>2026-08-28T18:18:59Z</time>
      </trkpt>
      <trkpt lat="43.7417" lon="1.74432">
        <ele>125.893326</ele>
        <time>2026-08-28T18:19:00Z</time>
      </trkpt>
      <trkpt lat="43.74166" lon="1.74434">
        <ele>125.92096</ele>
        <time>2026-08-28T18:19:01Z</time>
      </trkpt>
      <trkpt lat="43.74162" lon="1.74436">
        <ele>125.946998</ele>
        <time>2026-08-28T18:19:02Z</time>
      </trkpt>
      <trkpt lat="43.74159" lon="1.74439">
        <ele>125.972092</ele>
        <time>2026-08-28T18:19:03Z</time>
      </trkpt>
      <trkpt lat="43.74156" lon="1.74441">
        <ele>125.996043</ele>
        <time>2026-08-28T18:19:04Z</time>
      </trkpt>
      <trkpt lat="43.74153" lon="1.74443">
        <ele>126.019604</ele>
        <time>2026-08-28T18:19:05Z</time>
      </trkpt>
      <trkpt lat="43.7415" lon="1.74446">
        <ele>126.030291</ele>
        <time>2026-08-28T18:19:06Z</time>
      </trkpt>
      <trkpt lat="43.74147" lon="1.74448">
        <ele>126.036866</ele>
        <time>2026-08-28T18:19:07Z</time>
      </trkpt>
      <trkpt lat="43.74144" lon="1.7445">
        <ele>126.043882</ele>
        <time>2026-08-28T18:19:08Z</time>
      </trkpt>
      <trkpt lat="43.7414" lon="1.74453">
        <ele>126.051307</ele>
        <time>2026-08-28T18:19:09Z</time>
      </trkpt>
      <trkpt lat="43.74137" lon="1.74455">
        <ele>126.058973</ele>
        <time>2026-08-28T18:19:10Z</time>
      </trkpt>
      <trkpt lat="43.74134" lon="1.74458">
        <ele>126.066617</ele>
        <time>2026-08-28T18:19:11Z</time>
      </trkpt>
      <trkpt lat="43.7413" lon="1.74461">
        <ele>126.074427</ele>
        <time>2026-08-28T18:19:12Z</time>
      </trkpt>
      <trkpt lat="43.74127" lon="1.74464">
        <ele>126.082237</ele>
        <time>2026-08-28T18:19:13Z</time>
      </trkpt>
      <trkpt lat="43.74124" lon="1.74467">
        <ele>126.089834</ele>
        <time>2026-08-28T18:19:14Z</time>
      </trkpt>
      <trkpt lat="43.7412" lon="1.74469">
        <ele>126.09719</ele>
        <time>2026-08-28T18:19:15Z</time>
      </trkpt>
      <trkpt lat="43.74117" lon="1.74472">
        <ele>126.104353</ele>
        <time>2026-08-28T18:19:16Z</time>
      </trkpt>
      <trkpt lat="43.74114" lon="1.74475">
        <ele>126.111365</ele>
        <time>2026-08-28T18:19:17Z</time>
      </trkpt>
      <trkpt lat="43.74112" lon="1.74478">
        <ele>126.118466</ele>
        <time>2026-08-28T18:19:18Z</time>
      </trkpt>
      <trkpt lat="43.74109" lon="1.74481">
        <ele>126.125622</ele>
        <time>2026-08-28T18:19:19Z</time>
      </trkpt>
      <trkpt lat="43.74105" lon="1.74484">
        <ele>126.132912</ele>
        <time>2026-08-28T18:19:20Z</time>
      </trkpt>
      <trkpt lat="43.74102" lon="1.74486">
        <ele>126.140315</ele>
        <time>2026-08-28T18:19:21Z</time>
      </trkpt>
      <trkpt lat="43.74099" lon="1.74489">
        <ele>126.148277</ele>
        <time>2026-08-28T18:19:22Z</time>
      </trkpt>
      <trkpt lat="43.74095" lon="1.74493">
        <ele>126.156403</ele>
        <time>2026-08-28T18:19:23Z</time>
      </trkpt>
      <trkpt lat="43.74092" lon="1.74495">
        <ele>126.164213</ele>
        <time>2026-08-28T18:19:24Z</time>
      </trkpt>
      <trkpt lat="43.74088" lon="1.74498">
        <ele>126.172098</ele>
        <time>2026-08-28T18:19:25Z</time>
      </trkpt>
      <trkpt lat="43.74085" lon="1.74501">
        <ele>126.179983</ele>
        <time>2026-08-28T18:19:26Z</time>
      </trkpt>
      <trkpt lat="43.74081" lon="1.74504">
        <ele>126.188201</ele>
        <time>2026-08-28T18:19:27Z</time>
      </trkpt>
      <trkpt lat="43.74078" lon="1.74508">
        <ele>126.196163</ele>
        <time>2026-08-28T18:19:28Z</time>
      </trkpt>
      <trkpt lat="43.74075" lon="1.74511">
        <ele>126.204365</ele>
        <time>2026-08-28T18:19:29Z</time>
      </trkpt>
      <trkpt lat="43.74071" lon="1.74514">
        <ele>126.212809</ele>
        <time>2026-08-28T18:19:30Z</time>
      </trkpt>
      <trkpt lat="43.74068" lon="1.74517">
        <ele>126.220609</ele>
        <time>2026-08-28T18:19:31Z</time>
      </trkpt>
      <trkpt lat="43.74064" lon="1.7452">
        <ele>126.228659</ele>
        <time>2026-08-28T18:19:32Z</time>
      </trkpt>
      <trkpt lat="43.74061" lon="1.74524">
        <ele>126.237272</ele>
        <time>2026-08-28T18:19:33Z</time>
      </trkpt>
      <trkpt lat="43.74057" lon="1.74528">
        <ele>126.245667</ele>
        <time>2026-08-28T18:19:34Z</time>
      </trkpt>
      <trkpt lat="43.74054" lon="1.74532">
        <ele>126.254607</ele>
        <time>2026-08-28T18:19:35Z</time>
      </trkpt>
      <trkpt lat="43.7405" lon="1.74536">
        <ele>126.263547</ele>
        <time>2026-08-28T18:19:36Z</time>
      </trkpt>
      <trkpt lat="43.74047" lon="1.74539">
        <ele>126.271991</ele>
        <time>2026-08-28T18:19:37Z</time>
      </trkpt>
      <trkpt lat="43.74043" lon="1.74543">
        <ele>126.279967</ele>
        <time>2026-08-28T18:19:38Z</time>
      </trkpt>
      <trkpt lat="43.7404" lon="1.74546">
        <ele>126.287373</ele>
        <time>2026-08-28T18:19:39Z</time>
      </trkpt>
      <trkpt lat="43.74038" lon="1.74549">
        <ele>126.294325</ele>
        <time>2026-08-28T18:19:40Z</time>
      </trkpt>
      <trkpt lat="43.74035" lon="1.74552">
        <ele>126.301336</ele>
        <time>2026-08-28T18:19:41Z</time>
      </trkpt>
      <trkpt lat="43.74032" lon="1.74555">
        <ele>126.308333</ele>
        <time>2026-08-28T18:19:42Z</time>
      </trkpt>
      <trkpt lat="43.74029" lon="1.74558">
        <ele>126.315654</ele>
        <time>2026-08-28T18:19:43Z</time>
      </trkpt>
      <trkpt lat="43.74026" lon="1.74561">
        <ele>126.322817</ele>
        <time>2026-08-28T18:19:44Z</time>
      </trkpt>
      <trkpt lat="43.74023" lon="1.74564">
        <ele>126.330055</ele>
        <time>2026-08-28T18:19:45Z</time>
      </trkpt>
      <trkpt lat="43.7402" lon="1.74567">
        <ele>126.33722</ele>
        <time>2026-08-28T18:19:46Z</time>
      </trkpt>
      <trkpt lat="43.74017" lon="1.7457">
        <ele>126.344171</ele>
        <time>2026-08-28T18:19:47Z</time>
      </trkpt>
      <trkpt lat="43.74015" lon="1.74573">
        <ele>126.35055</ele>
        <time>2026-08-28T18:19:48Z</time>
      </trkpt>
      <trkpt lat="43.74012" lon="1.74576">
        <ele>126.35717</ele>
        <time>2026-08-28T18:19:49Z</time>
      </trkpt>
      <trkpt lat="43.7401" lon="1.74579">
        <ele>126.364165</ele>
        <time>2026-08-28T18:19:50Z</time>
      </trkpt>
      <trkpt lat="43.74007" lon="1.74583">
        <ele>126.37116</ele>
        <time>2026-08-28T18:19:51Z</time>
      </trkpt>
      <trkpt lat="43.74004" lon="1.74586">
        <ele>126.371881</ele>
        <time>2026-08-28T18:19:52Z</time>
      </trkpt>
      <trkpt lat="43.74002" lon="1.74589">
        <ele>126.34731</ele>
        <time>2026-08-28T18:19:53Z</time>
      </trkpt>
      <trkpt lat="43.73999" lon="1.74593">
        <ele>126.322738</ele>
        <time>2026-08-28T18:19:54Z</time>
      </trkpt>
      <trkpt lat="43.73997" lon="1.74596">
        <ele>126.299371</ele>
        <time>2026-08-28T18:19:55Z</time>
      </trkpt>
      <trkpt lat="43.73995" lon="1.74599">
        <ele>126.278057</ele>
        <time>2026-08-28T18:19:56Z</time>
      </trkpt>
      <trkpt lat="43.73993" lon="1.74602">
        <ele>126.257701</ele>
        <time>2026-08-28T18:19:57Z</time>
      </trkpt>
      <trkpt lat="43.73991" lon="1.74604">
        <ele>126.238101</ele>
        <time>2026-08-28T18:19:58Z</time>
      </trkpt>
      <trkpt lat="43.73989" lon="1.74607">
        <ele>126.218647</ele>
        <time>2026-08-28T18:19:59Z</time>
      </trkpt>
      <trkpt lat="43.73988" lon="1.74611">
        <ele>126.198369</ele>
        <time>2026-08-28T18:20:00Z</time>
      </trkpt>
      <trkpt lat="43.73986" lon="1.74614">
        <ele>126.176838</ele>
        <time>2026-08-28T18:20:01Z</time>
      </trkpt>
      <trkpt lat="43.73984" lon="1.74617">
        <ele>126.158222</ele>
        <time>2026-08-28T18:20:02Z</time>
      </trkpt>
      <trkpt lat="43.73984" lon="1.7462">
        <ele>126.143408</ele>
        <time>2026-08-28T18:20:03Z</time>
      </trkpt>
      <trkpt lat="43.73984" lon="1.74623">
        <ele>126.126511</ele>
        <time>2026-08-28T18:20:04Z</time>
      </trkpt>
      <trkpt lat="43.73985" lon="1.74627">
        <ele>126.107927</ele>
        <time>2026-08-28T18:20:05Z</time>
      </trkpt>
      <trkpt lat="43.73985" lon="1.74631">
        <ele>126.086081</ele>
        <time>2026-08-28T18:20:06Z</time>
      </trkpt>
      <trkpt lat="43.73986" lon="1.74636">
        <ele>126.062947</ele>
        <time>2026-08-28T18:20:07Z</time>
      </trkpt>
      <trkpt lat="43.73986" lon="1.74641">
        <ele>126.036377</ele>
        <time>2026-08-28T18:20:08Z</time>
      </trkpt>
      <trkpt lat="43.73986" lon="1.74646">
        <ele>126.009508</ele>
        <time>2026-08-28T18:20:09Z</time>
      </trkpt>
      <trkpt lat="43.73987" lon="1.74651">
        <ele>125.982938</ele>
        <time>2026-08-28T18:20:10Z</time>
      </trkpt>
      <trkpt lat="43.73987" lon="1.74656">
        <ele>125.955447</ele>
        <time>2026-08-28T18:20:11Z</time>
      </trkpt>
      <trkpt lat="43.73988" lon="1.74662">
        <ele>125.926449</ele>
        <time>2026-08-28T18:20:12Z</time>
      </trkpt>
      <trkpt lat="43.73989" lon="1.74668">
        <ele>125.897822</ele>
        <time>2026-08-28T18:20:13Z</time>
      </trkpt>
      <trkpt lat="43.7399" lon="1.74672">
        <ele>125.872822</ele>
        <time>2026-08-28T18:20:14Z</time>
      </trkpt>
      <trkpt lat="43.73991" lon="1.74677">
        <ele>125.847868</ele>
        <time>2026-08-28T18:20:15Z</time>
      </trkpt>
      <trkpt lat="43.73992" lon="1.74682">
        <ele>125.822379</ele>
        <time>2026-08-28T18:20:16Z</time>
      </trkpt>
      <trkpt lat="43.73993" lon="1.74687">
        <ele>125.793752</ele>
        <time>2026-08-28T18:20:17Z</time>
      </trkpt>
      <trkpt lat="43.73994" lon="1.74693">
        <ele>125.765308</ele>
        <time>2026-08-28T18:20:18Z</time>
      </trkpt>
      <trkpt lat="43.73995" lon="1.74697">
        <ele>125.741773</ele>
        <time>2026-08-28T18:20:19Z</time>
      </trkpt>
      <trkpt lat="43.73995" lon="1.74701">
        <ele>125.71973</ele>
        <time>2026-08-28T18:20:20Z</time>
      </trkpt>
      <trkpt lat="43.73995" lon="1.74705">
        <ele>125.699272</ele>
        <time>2026-08-28T18:20:21Z</time>
      </trkpt>
      <trkpt lat="43.73996" lon="1.7471">
        <ele>125.676223</ele>
        <time>2026-08-28T18:20:22Z</time>
      </trkpt>
      <trkpt lat="43.73997" lon="1.74714">
        <ele>125.6522</ele>
        <time>2026-08-28T18:20:23Z</time>
      </trkpt>
      <trkpt lat="43.73997" lon="1.74719">
        <ele>125.625939</ele>
        <time>2026-08-28T18:20:24Z</time>
      </trkpt>
      <trkpt lat="43.73997" lon="1.74724">
        <ele>125.601916</ele>
        <time>2026-08-28T18:20:25Z</time>
      </trkpt>
      <trkpt lat="43.73998" lon="1.74729">
        <ele>125.57793</ele>
        <time>2026-08-28T18:20:26Z</time>
      </trkpt>
      <trkpt lat="43.73999" lon="1.74733">
        <ele>125.554581</ele>
        <time>2026-08-28T18:20:27Z</time>
      </trkpt>
      <trkpt lat="43.73999" lon="1.74737">
        <ele>125.533554</ele>
        <time>2026-08-28T18:20:28Z</time>
      </trkpt>
      <trkpt lat="43.74" lon="1.74741">
        <ele>125.512554</ele>
        <time>2026-08-28T18:20:29Z</time>
      </trkpt>
      <trkpt lat="43.74" lon="1.74745">
        <ele>125.490561</ele>
        <time>2026-08-28T18:20:30Z</time>
      </trkpt>
      <trkpt lat="43.74001" lon="1.7475">
        <ele>125.469534</ele>
        <time>2026-08-28T18:20:31Z</time>
      </trkpt>
      <trkpt lat="43.74001" lon="1.74753">
        <ele>125.44994</ele>
        <time>2026-08-28T18:20:32Z</time>
      </trkpt>
      <trkpt lat="43.74001" lon="1.74757">
        <ele>125.4305</ele>
        <time>2026-08-28T18:20:33Z</time>
      </trkpt>
      <trkpt lat="43.74001" lon="1.74761">
        <ele>125.409568</ele>
        <time>2026-08-28T18:20:34Z</time>
      </trkpt>
      <trkpt lat="43.74001" lon="1.74765">
        <ele>125.389049</ele>
        <time>2026-08-28T18:20:35Z</time>
      </trkpt>
      <trkpt lat="43.74002" lon="1.7477">
        <ele>125.366826</ele>
        <time>2026-08-28T18:20:36Z</time>
      </trkpt>
      <trkpt lat="43.74002" lon="1.74774">
        <ele>125.344275</ele>
        <time>2026-08-28T18:20:37Z</time>
      </trkpt>
      <trkpt lat="43.74003" lon="1.74778">
        <ele>125.321648</ele>
        <time>2026-08-28T18:20:38Z</time>
      </trkpt>
      <trkpt lat="43.74003" lon="1.74783">
        <ele>125.299929</ele>
        <time>2026-08-28T18:20:39Z</time>
      </trkpt>
      <trkpt lat="43.74004" lon="1.74787">
        <ele>125.277706</ele>
        <time>2026-08-28T18:20:40Z</time>
      </trkpt>
      <trkpt lat="43.74004" lon="1.74791">
        <ele>125.258708</ele>
        <time>2026-08-28T18:20:41Z</time>
      </trkpt>
      <trkpt lat="43.74004" lon="1.74795">
        <ele>125.237492</ele>
        <time>2026-08-28T18:20:42Z</time>
      </trkpt>
      <trkpt lat="43.74005" lon="1.74799">
        <ele>125.213351</ele>
        <time>2026-08-28T18:20:43Z</time>
      </trkpt>
      <trkpt lat="43.74006" lon="1.74804">
        <ele>125.187489</ele>
        <time>2026-08-28T18:20:44Z</time>
      </trkpt>
      <trkpt lat="43.74006" lon="1.74809">
        <ele>125.162239</ele>
        <time>2026-08-28T18:20:45Z</time>
      </trkpt>
      <trkpt lat="43.74007" lon="1.74814">
        <ele>125.135049</ele>
        <time>2026-08-28T18:20:46Z</time>
      </trkpt>
      <trkpt lat="43.74007" lon="1.74819">
        <ele>125.110064</ele>
        <time>2026-08-28T18:20:47Z</time>
      </trkpt>
      <trkpt lat="43.74008" lon="1.74824">
        <ele>125.095824</ele>
        <time>2026-08-28T18:20:48Z</time>
      </trkpt>
      <trkpt lat="43.74008" lon="1.74829">
        <ele>125.084189</ele>
        <time>2026-08-28T18:20:49Z</time>
      </trkpt>
      <trkpt lat="43.74009" lon="1.74834">
        <ele>125.07231</ele>
        <time>2026-08-28T18:20:50Z</time>
      </trkpt>
      <trkpt lat="43.74009" lon="1.74838">
        <ele>125.061487</ele>
        <time>2026-08-28T18:20:51Z</time>
      </trkpt>
      <trkpt lat="43.74009" lon="1.74842">
        <ele>125.050916</ele>
        <time>2026-08-28T18:20:52Z</time>
      </trkpt>
      <trkpt lat="43.74009" lon="1.74847">
        <ele>125.040836</ele>
        <time>2026-08-28T18:20:53Z</time>
      </trkpt>
      <trkpt lat="43.74009" lon="1.74851">
        <ele>125.030478</ele>
        <time>2026-08-28T18:20:54Z</time>
      </trkpt>
      <trkpt lat="43.7401" lon="1.74855">
        <ele>125.018524</ele>
        <time>2026-08-28T18:20:55Z</time>
      </trkpt>
      <trkpt lat="43.74011" lon="1.7486">
        <ele>125.007378</ele>
        <time>2026-08-28T18:20:56Z</time>
      </trkpt>
      <trkpt lat="43.74011" lon="1.74865">
        <ele>124.994968</ele>
        <time>2026-08-28T18:20:57Z</time>
      </trkpt>
      <trkpt lat="43.74012" lon="1.7487">
        <ele>124.982844</ele>
        <time>2026-08-28T18:20:58Z</time>
      </trkpt>
      <trkpt lat="43.74012" lon="1.74875">
        <ele>124.970301</ele>
        <time>2026-08-28T18:20:59Z</time>
      </trkpt>
      <trkpt lat="43.74012" lon="1.7488">
        <ele>124.958503</ele>
        <time>2026-08-28T18:21:00Z</time>
      </trkpt>
      <trkpt lat="43.74013" lon="1.74884">
        <ele>124.946393</ele>
        <time>2026-08-28T18:21:01Z</time>
      </trkpt>
      <trkpt lat="43.74014" lon="1.74889">
        <ele>124.935238</ele>
        <time>2026-08-28T18:21:02Z</time>
      </trkpt>
      <trkpt lat="43.74014" lon="1.74893">
        <ele>124.924862</ele>
        <time>2026-08-28T18:21:03Z</time>
      </trkpt>
      <trkpt lat="43.74015" lon="1.74897">
        <ele>124.914818</ele>
        <time>2026-08-28T18:21:04Z</time>
      </trkpt>
      <trkpt lat="43.74015" lon="1.74901">
        <ele>124.904838</ele>
        <time>2026-08-28T18:21:05Z</time>
      </trkpt>
      <trkpt lat="43.74016" lon="1.74905">
        <ele>124.894179</ele>
        <time>2026-08-28T18:21:06Z</time>
      </trkpt>
      <trkpt lat="43.74016" lon="1.7491">
        <ele>124.882986</ele>
        <time>2026-08-28T18:21:07Z</time>
      </trkpt>
      <trkpt lat="43.74017" lon="1.74914">
        <ele>124.87163</ele>
        <time>2026-08-28T18:21:08Z</time>
      </trkpt>
      <trkpt lat="43.74017" lon="1.74919">
        <ele>124.860301</ele>
        <time>2026-08-28T18:21:09Z</time>
      </trkpt>
      <trkpt lat="43.74017" lon="1.74924">
        <ele>124.848971</ele>
        <time>2026-08-28T18:21:10Z</time>
      </trkpt>
      <trkpt lat="43.74017" lon="1.74929">
        <ele>124.83666</ele>
        <time>2026-08-28T18:21:11Z</time>
      </trkpt>
      <trkpt lat="43.74018" lon="1.74934">
        <ele>124.823559</ele>
        <time>2026-08-28T18:21:12Z</time>
      </trkpt>
      <trkpt lat="43.74018" lon="1.74939">
        <ele>124.811435</ele>
        <time>2026-08-28T18:21:13Z</time>
      </trkpt>
      <trkpt lat="43.74018" lon="1.74943">
        <ele>124.7998</ele>
        <time>2026-08-28T18:21:14Z</time>
      </trkpt>
      <trkpt lat="43.74019" lon="1.74948">
        <ele>124.788445</ele>
        <time>2026-08-28T18:21:15Z</time>
      </trkpt>
      <trkpt lat="43.74019" lon="1.74952">
        <ele>124.778342</ele>
        <time>2026-08-28T18:21:16Z</time>
      </trkpt>
      <trkpt lat="43.74019" lon="1.74955">
        <ele>124.771807</ele>
        <time>2026-08-28T18:21:17Z</time>
      </trkpt>
      <trkpt lat="43.7402" lon="1.74956">
        <ele>124.768167</ele>
        <time>2026-08-28T18:21:18Z</time>
      </trkpt>
      <trkpt lat="43.7402" lon="1.74956">
        <ele>124.767164</ele>
        <time>2026-08-28T18:21:19Z</time>
      </trkpt>
      <trkpt lat="43.74025" lon="1.74966">
        <ele>124.737394</ele>
        <time>2026-08-28T18:21:59Z</time>
      </trkpt>
      <trkpt lat="43.74025" lon="1.74968">
        <ele>124.732372</ele>
        <time>2026-08-28T18:22:00Z</time>
      </trkpt>
      <trkpt lat="43.74025" lon="1.74971">
        <ele>124.726141</ele>
        <time>2026-08-28T18:22:01Z</time>
      </trkpt>
      <trkpt lat="43.74025" lon="1.74973">
        <ele>124.719713</ele>
        <time>2026-08-28T18:22:02Z</time>
      </trkpt>
      <trkpt lat="43.74025" lon="1.74976">
        <ele>124.714048</ele>
        <time>2026-08-28T18:22:03Z</time>
      </trkpt>
      <trkpt lat="43.74025" lon="1.74979">
        <ele>124.705627</ele>
        <time>2026-08-28T18:22:04Z</time>
      </trkpt>
      <trkpt lat="43.74025" lon="1.74982">
        <ele>124.69822</ele>
        <time>2026-08-28T18:22:05Z</time>
      </trkpt>
      <trkpt lat="43.74025" lon="1.74984">
        <ele>124.692065</ele>
        <time>2026-08-28T18:22:06Z</time>
      </trkpt>
      <trkpt lat="43.74026" lon="1.74986">
        <ele>124.687523</ele>
        <time>2026-08-28T18:22:07Z</time>
      </trkpt>
      <trkpt lat="43.74026" lon="1.74987">
        <ele>124.684328</ele>
        <time>2026-08-28T18:22:08Z</time>
      </trkpt>
      <trkpt lat="43.74027" lon="1.74988">
        <ele>124.681809</ele>
        <time>2026-08-28T18:22:09Z</time>
      </trkpt>
      <trkpt lat="43.74027" lon="1.74988">
        <ele>124.680362</ele>
        <time>2026-08-28T18:22:10Z</time>
      </trkpt>
      <trkpt lat="43.74028" lon="1.74988">
        <ele>124.678262</ele>
        <time>2026-08-28T18:22:11Z</time>
      </trkpt>
      <trkpt lat="43.74035" lon="1.74991">
        <ele>124.653659</ele>
        <time>2026-08-28T18:22:29Z</time>
      </trkpt>
      <trkpt lat="43.74036" lon="1.74992">
        <ele>124.647489</ele>
        <time>2026-08-28T18:22:30Z</time>
      </trkpt>
      <trkpt lat="43.74038" lon="1.74992">
        <ele>124.641019</ele>
        <time>2026-08-28T18:22:31Z</time>
      </trkpt>
      <trkpt lat="43.74041" lon="1.74992">
        <ele>124.633177</ele>
        <time>2026-08-28T18:22:32Z</time>
      </trkpt>
      <trkpt lat="43.74043" lon="1.74992">
        <ele>124.626031</ele>
        <time>2026-08-28T18:22:33Z</time>
      </trkpt>
      <trkpt lat="43.74044" lon="1.74992">
        <ele>124.619886</ele>
        <time>2026-08-28T18:22:34Z</time>
      </trkpt>
      <trkpt lat="43.74046" lon="1.74992">
        <ele>124.614392</ele>
        <time>2026-08-28T18:22:35Z</time>
      </trkpt>
      <trkpt lat="43.74047" lon="1.74992">
        <ele>124.609968</ele>
        <time>2026-08-28T18:22:36Z</time>
      </trkpt>
      <trkpt lat="43.74048" lon="1.74992">
        <ele>124.607246</ele>
        <time>2026-08-28T18:22:37Z</time>
      </trkpt>
      <trkpt lat="43.74049" lon="1.74992">
        <ele>124.605527</ele>
        <time>2026-08-28T18:22:38Z</time>
      </trkpt>
      <trkpt lat="43.74048" lon="1.74992">
        <ele>124.604477</ele>
        <time>2026-08-28T18:22:39Z</time>
      </trkpt>
      <trkpt lat="43.74054" lon="1.74991">
        <ele>124.585735</ele>
        <time>2026-08-28T18:22:45Z</time>
      </trkpt>
      <trkpt lat="43.74055" lon="1.74991">
        <ele>124.581865</ele>
        <time>2026-08-28T18:22:46Z</time>
      </trkpt>
      <trkpt lat="43.74056" lon="1.74991">
        <ele>124.57738</ele>
        <time>2026-08-28T18:22:47Z</time>
      </trkpt>
      <trkpt lat="43.74058" lon="1.74991">
        <ele>124.57295</ele>
        <time>2026-08-28T18:22:48Z</time>
      </trkpt>
      <trkpt lat="43.74059" lon="1.74991">
        <ele>124.568519</ele>
        <time>2026-08-28T18:22:49Z</time>
      </trkpt>
      <trkpt lat="43.74059" lon="1.74991">
        <ele>124.566477</ele>
        <time>2026-08-28T18:22:50Z</time>
      </trkpt>
      <trkpt lat="43.7406" lon="1.74991">
        <ele>124.563744</ele>
        <time>2026-08-28T18:22:51Z</time>
      </trkpt>
      <trkpt lat="43.74061" lon="1.74991">
        <ele>124.560332</ele>
        <time>2026-08-28T18:22:52Z</time>
      </trkpt>
      <trkpt lat="43.74062" lon="1.7499">
        <ele>124.557839</ele>
        <time>2026-08-28T18:22:53Z</time>
      </trkpt>
      <trkpt lat="43.74062" lon="1.7499">
        <ele>124.556789</ele>
        <time>2026-08-28T18:22:54Z</time>
      </trkpt>
      <trkpt lat="43.74062" lon="1.7499">
        <ele>124.555805</ele>
        <time>2026-08-28T18:22:55Z</time>
      </trkpt>
      <trkpt lat="43.74063" lon="1.7499">
        <ele>124.554086</ele>
        <time>2026-08-28T18:22:56Z</time>
      </trkpt>
      <trkpt lat="43.74066" lon="1.74989">
        <ele>124.541774</ele>
        <time>2026-08-28T18:23:04Z</time>
      </trkpt>
      <trkpt lat="43.74068" lon="1.74989">
        <ele>124.53667</ele>
        <time>2026-08-28T18:23:05Z</time>
      </trkpt>
      <trkpt lat="43.7407" lon="1.74989">
        <ele>124.52918</ele>
        <time>2026-08-28T18:23:06Z</time>
      </trkpt>
      <trkpt lat="43.74072" lon="1.74989">
        <ele>124.521292</ele>
        <time>2026-08-28T18:23:07Z</time>
      </trkpt>
      <trkpt lat="43.74075" lon="1.74989">
        <ele>124.513125</ele>
        <time>2026-08-28T18:23:08Z</time>
      </trkpt>
      <trkpt lat="43.74077" lon="1.74989">
        <ele>124.505602</ele>
        <time>2026-08-28T18:23:09Z</time>
      </trkpt>
      <trkpt lat="43.74079" lon="1.74989">
        <ele>124.49776</ele>
        <time>2026-08-28T18:23:10Z</time>
      </trkpt>
      <trkpt lat="43.74082" lon="1.74988">
        <ele>124.49548</ele>
        <time>2026-08-28T18:23:11Z</time>
      </trkpt>
      <trkpt lat="43.74084" lon="1.74988">
        <ele>124.497114</ele>
        <time>2026-08-28T18:23:12Z</time>
      </trkpt>
      <trkpt lat="43.74087" lon="1.74988">
        <ele>124.498617</ele>
        <time>2026-08-28T18:23:13Z</time>
      </trkpt>
      <trkpt lat="43.74089" lon="1.74988">
        <ele>124.49999</ele>
        <time>2026-08-28T18:23:14Z</time>
      </trkpt>
      <trkpt lat="43.7409" lon="1.74988">
        <ele>124.501103</ele>
        <time>2026-08-28T18:23:15Z</time>
      </trkpt>
      <trkpt lat="43.74092" lon="1.74987">
        <ele>124.502228</ele>
        <time>2026-08-28T18:23:16Z</time>
      </trkpt>
      <trkpt lat="43.74094" lon="1.74987">
        <ele>124.503353</ele>
        <time>2026-08-28T18:23:17Z</time>
      </trkpt>
      <trkpt lat="43.74095" lon="1.74987">
        <ele>124.504398</ele>
        <time>2026-08-28T18:23:18Z</time>
      </trkpt>
      <trkpt lat="43.74097" lon="1.74987">
        <ele>124.505182</ele>
        <time>2026-08-28T18:23:19Z</time>
      </trkpt>
      <trkpt lat="43.74098" lon="1.74986">
        <ele>124.506036</ele>
        <time>2026-08-28T18:23:20Z</time>
      </trkpt>
      <trkpt lat="43.74099" lon="1.74986">
        <ele>124.507024</ele>
        <time>2026-08-28T18:23:21Z</time>
      </trkpt>
      <trkpt lat="43.74101" lon="1.74986">
        <ele>124.508077</ele>
        <time>2026-08-28T18:23:22Z</time>
      </trkpt>
      <trkpt lat="43.74103" lon="1.74986">
        <ele>124.509131</ele>
        <time>2026-08-28T18:23:23Z</time>
      </trkpt>
      <trkpt lat="43.74104" lon="1.74985">
        <ele>124.510055</ele>
        <time>2026-08-28T18:23:24Z</time>
      </trkpt>
      <trkpt lat="43.74105" lon="1.74985">
        <ele>124.510973</ele>
        <time>2026-08-28T18:23:25Z</time>
      </trkpt>
      <trkpt lat="43.74106" lon="1.74985">
        <ele>124.511627</ele>
        <time>2026-08-28T18:23:26Z</time>
      </trkpt>
      <trkpt lat="43.74107" lon="1.74985">
        <ele>124.512351</ele>
        <time>2026-08-28T18:23:27Z</time>
      </trkpt>
      <trkpt lat="43.74109" lon="1.74986">
        <ele>124.513322</ele>
        <time>2026-08-28T18:23:28Z</time>
      </trkpt>
      <trkpt lat="43.7411" lon="1.74987">
        <ele>124.514316</ele>
        <time>2026-08-28T18:23:29Z</time>
      </trkpt>
      <trkpt lat="43.74112" lon="1.74988">
        <ele>124.515503</ele>
        <time>2026-08-28T18:23:30Z</time>
      </trkpt>
      <trkpt lat="43.74114" lon="1.74989">
        <ele>124.516829</ele>
        <time>2026-08-28T18:23:31Z</time>
      </trkpt>
      <trkpt lat="43.74115" lon="1.7499">
        <ele>124.517768</ele>
        <time>2026-08-28T18:23:32Z</time>
      </trkpt>
      <trkpt lat="43.74117" lon="1.74991">
        <ele>124.519039</ele>
        <time>2026-08-28T18:23:33Z</time>
      </trkpt>
      <trkpt lat="43.74119" lon="1.74991">
        <ele>124.520347</ele>
        <time>2026-08-28T18:23:34Z</time>
      </trkpt>
      <trkpt lat="43.74121" lon="1.74991">
        <ele>124.521653</ele>
        <time>2026-08-28T18:23:35Z</time>
      </trkpt>
      <trkpt lat="43.74123" lon="1.74991">
        <ele>124.522959</ele>
        <time>2026-08-28T18:23:36Z</time>
      </trkpt>
      <trkpt lat="43.74124" lon="1.74992">
        <ele>124.523965</ele>
        <time>2026-08-28T18:23:37Z</time>
      </trkpt>
      <trkpt lat="43.74126" lon="1.74992">
        <ele>124.524972</ele>
        <time>2026-08-28T18:23:38Z</time>
      </trkpt>
      <trkpt lat="43.74128" lon="1.74993">
        <ele>124.526219</ele>
        <time>2026-08-28T18:23:39Z</time>
      </trkpt>
      <trkpt lat="43.74129" lon="1.74993">
        <ele>124.527458</ele>
        <time>2026-08-28T18:23:40Z</time>
      </trkpt>
      <trkpt lat="43.74131" lon="1.74993">
        <ele>124.528804</ele>
        <time>2026-08-28T18:23:41Z</time>
      </trkpt>
      <trkpt lat="43.74134" lon="1.74994">
        <ele>124.530277</ele>
        <time>2026-08-28T18:23:42Z</time>
      </trkpt>
      <trkpt lat="43.74136" lon="1.74995">
        <ele>124.531635</ele>
        <time>2026-08-28T18:23:43Z</time>
      </trkpt>
      <trkpt lat="43.74138" lon="1.74995">
        <ele>124.532897</ele>
        <time>2026-08-28T18:23:44Z</time>
      </trkpt>
      <trkpt lat="43.74139" lon="1.74996">
        <ele>124.534104</ele>
        <time>2026-08-28T18:23:45Z</time>
      </trkpt>
      <trkpt lat="43.74141" lon="1.74997">
        <ele>124.535186</ele>
        <time>2026-08-28T18:23:46Z</time>
      </trkpt>
      <trkpt lat="43.74142" lon="1.74998">
        <ele>124.536099</ele>
        <time>2026-08-28T18:23:47Z</time>
      </trkpt>
      <trkpt lat="43.74143" lon="1.74999">
        <ele>124.53699</ele>
        <time>2026-08-28T18:23:48Z</time>
      </trkpt>
      <trkpt lat="43.74144" lon="1.74999">
        <ele>124.537745</ele>
        <time>2026-08-28T18:23:49Z</time>
      </trkpt>
      <trkpt lat="43.74146" lon="1.75">
        <ele>124.538752</ele>
        <time>2026-08-28T18:23:50Z</time>
      </trkpt>
      <trkpt lat="43.74148" lon="1.75">
        <ele>124.539833</ele>
        <time>2026-08-28T18:23:51Z</time>
      </trkpt>
      <trkpt lat="43.74149" lon="1.75001">
        <ele>124.541004</ele>
        <time>2026-08-28T18:23:52Z</time>
      </trkpt>
      <trkpt lat="43.74151" lon="1.75002">
        <ele>124.542161</ele>
        <time>2026-08-28T18:23:53Z</time>
      </trkpt>
      <trkpt lat="43.74153" lon="1.75003">
        <ele>124.54341</ele>
        <time>2026-08-28T18:23:54Z</time>
      </trkpt>
      <trkpt lat="43.74155" lon="1.75003">
        <ele>124.544593</ele>
        <time>2026-08-28T18:23:55Z</time>
      </trkpt>
      <trkpt lat="43.74156" lon="1.75003">
        <ele>124.545775</ele>
        <time>2026-08-28T18:23:56Z</time>
      </trkpt>
      <trkpt lat="43.74158" lon="1.75004">
        <ele>124.547162</ele>
        <time>2026-08-28T18:23:57Z</time>
      </trkpt>
      <trkpt lat="43.74161" lon="1.75005">
        <ele>124.548783</ele>
        <time>2026-08-28T18:23:58Z</time>
      </trkpt>
      <trkpt lat="43.74163" lon="1.75007">
        <ele>124.550462</ele>
        <time>2026-08-28T18:23:59Z</time>
      </trkpt>
      <trkpt lat="43.74165" lon="1.75009">
        <ele>124.55234</ele>
        <time>2026-08-28T18:24:00Z</time>
      </trkpt>
      <trkpt lat="43.74168" lon="1.75011">
        <ele>124.554328</ele>
        <time>2026-08-28T18:24:01Z</time>
      </trkpt>
      <trkpt lat="43.74171" lon="1.75013">
        <ele>124.556442</ele>
        <time>2026-08-28T18:24:02Z</time>
      </trkpt>
      <trkpt lat="43.74174" lon="1.75015">
        <ele>124.558535</ele>
        <time>2026-08-28T18:24:03Z</time>
      </trkpt>
      <trkpt lat="43.74177" lon="1.75017">
        <ele>124.560648</ele>
        <time>2026-08-28T18:24:04Z</time>
      </trkpt>
      <trkpt lat="43.7418" lon="1.7502">
        <ele>124.563001</ele>
        <time>2026-08-28T18:24:05Z</time>
      </trkpt>
      <trkpt lat="43.74183" lon="1.75022">
        <ele>124.565429</ele>
        <time>2026-08-28T18:24:06Z</time>
      </trkpt>
      <trkpt lat="43.74187" lon="1.75024">
        <ele>124.567878</ele>
        <time>2026-08-28T18:24:07Z</time>
      </trkpt>
      <trkpt lat="43.7419" lon="1.75026">
        <ele>124.570367</ele>
        <time>2026-08-28T18:24:08Z</time>
      </trkpt>
      <trkpt lat="43.74194" lon="1.75028">
        <ele>124.573097</ele>
        <time>2026-08-28T18:24:09Z</time>
      </trkpt>
      <trkpt lat="43.74198" lon="1.7503">
        <ele>124.575749</ele>
        <time>2026-08-28T18:24:10Z</time>
      </trkpt>
      <trkpt lat="43.74202" lon="1.75033">
        <ele>124.578419</ele>
        <time>2026-08-28T18:24:11Z</time>
      </trkpt>
      <trkpt lat="43.74205" lon="1.75034">
        <ele>124.581116</ele>
        <time>2026-08-28T18:24:12Z</time>
      </trkpt>
      <trkpt lat="43.74209" lon="1.75036">
        <ele>124.583798</ele>
        <time>2026-08-28T18:24:13Z</time>
      </trkpt>
      <trkpt lat="43.74213" lon="1.75038">
        <ele>124.586485</ele>
        <time>2026-08-28T18:24:14Z</time>
      </trkpt>
      <trkpt lat="43.74217" lon="1.75041">
        <ele>124.58917</ele>
        <time>2026-08-28T18:24:15Z</time>
      </trkpt>
      <trkpt lat="43.74221" lon="1.75043">
        <ele>124.591857</ele>
        <time>2026-08-28T18:24:16Z</time>
      </trkpt>
      <trkpt lat="43.74224" lon="1.75045">
        <ele>124.594466</ele>
        <time>2026-08-28T18:24:17Z</time>
      </trkpt>
      <trkpt lat="43.74228" lon="1.75047">
        <ele>124.597086</ele>
        <time>2026-08-28T18:24:18Z</time>
      </trkpt>
      <trkpt lat="43.74232" lon="1.75048">
        <ele>124.599576</ele>
        <time>2026-08-28T18:24:19Z</time>
      </trkpt>
      <trkpt lat="43.74236" lon="1.7505">
        <ele>124.602167</ele>
        <time>2026-08-28T18:24:20Z</time>
      </trkpt>
      <trkpt lat="43.74239" lon="1.75052">
        <ele>124.604773</ele>
        <time>2026-08-28T18:24:21Z</time>
      </trkpt>
      <trkpt lat="43.74243" lon="1.75053">
        <ele>124.607464</ele>
        <time>2026-08-28T18:24:22Z</time>
      </trkpt>
      <trkpt lat="43.74248" lon="1.75054">
        <ele>124.610253</ele>
        <time>2026-08-28T18:24:23Z</time>
      </trkpt>
      <trkpt lat="43.74252" lon="1.75055">
        <ele>124.604612</ele>
        <time>2026-08-28T18:24:24Z</time>
      </trkpt>
      <trkpt lat="43.74256" lon="1.75056">
        <ele>124.587882</ele>
        <time>2026-08-28T18:24:25Z</time>
      </trkpt>
      <trkpt lat="43.7426" lon="1.75057">
        <ele>124.571388</ele>
        <time>2026-08-28T18:24:26Z</time>
      </trkpt>
      <trkpt lat="43.74264" lon="1.75058">
        <ele>124.554213</ele>
        <time>2026-08-28T18:24:27Z</time>
      </trkpt>
      <trkpt lat="43.74268" lon="1.75059">
        <ele>124.537038</ele>
        <time>2026-08-28T18:24:28Z</time>
      </trkpt>
      <trkpt lat="43.74273" lon="1.7506">
        <ele>124.519553</ele>
        <time>2026-08-28T18:24:29Z</time>
      </trkpt>
      <trkpt lat="43.74277" lon="1.75061">
        <ele>124.502505</ele>
        <time>2026-08-28T18:24:30Z</time>
      </trkpt>
      <trkpt lat="43.74281" lon="1.75061">
        <ele>124.485154</ele>
        <time>2026-08-28T18:24:31Z</time>
      </trkpt>
      <trkpt lat="43.74286" lon="1.75061">
        <ele>124.467009</ele>
        <time>2026-08-28T18:24:32Z</time>
      </trkpt>
      <trkpt lat="43.7429" lon="1.75062">
        <ele>124.450476</ele>
        <time>2026-08-28T18:24:33Z</time>
      </trkpt>
      <trkpt lat="43.74294" lon="1.75062">
        <ele>124.433487</ele>
        <time>2026-08-28T18:24:34Z</time>
      </trkpt>
      <trkpt lat="43.74298" lon="1.75062">
        <ele>124.416119</ele>
        <time>2026-08-28T18:24:35Z</time>
      </trkpt>
      <trkpt lat="43.74302" lon="1.75063">
        <ele>124.39878</ele>
        <time>2026-08-28T18:24:36Z</time>
      </trkpt>
      <trkpt lat="43.74307" lon="1.75062">
        <ele>124.380221</ele>
        <time>2026-08-28T18:24:37Z</time>
      </trkpt>
      <trkpt lat="43.74312" lon="1.75062">
        <ele>124.360857</ele>
        <time>2026-08-28T18:24:38Z</time>
      </trkpt>
      <trkpt lat="43.74317" lon="1.75062">
        <ele>124.340673</ele>
        <time>2026-08-28T18:24:39Z</time>
      </trkpt>
      <trkpt lat="43.74322" lon="1.75062">
        <ele>124.320924</ele>
        <time>2026-08-28T18:24:40Z</time>
      </trkpt>
      <trkpt lat="43.74327" lon="1.75063">
        <ele>124.300362</ele>
        <time>2026-08-28T18:24:41Z</time>
      </trkpt>
      <trkpt lat="43.74332" lon="1.75063">
        <ele>124.279757</ele>
        <time>2026-08-28T18:24:42Z</time>
      </trkpt>
      <trkpt lat="43.74337" lon="1.75063">
        <ele>124.259599</ele>
        <time>2026-08-28T18:24:43Z</time>
      </trkpt>
      <trkpt lat="43.74342" lon="1.75062">
        <ele>124.239314</ele>
        <time>2026-08-28T18:24:44Z</time>
      </trkpt>
      <trkpt lat="43.74347" lon="1.75061">
        <ele>124.218911</ele>
        <time>2026-08-28T18:24:45Z</time>
      </trkpt>
      <trkpt lat="43.74352" lon="1.75059">
        <ele>124.199095</ele>
        <time>2026-08-28T18:24:46Z</time>
      </trkpt>
      <trkpt lat="43.74356" lon="1.75056">
        <ele>124.179689</ele>
        <time>2026-08-28T18:24:47Z</time>
      </trkpt>
      <trkpt lat="43.7436" lon="1.75051">
        <ele>124.159227</ele>
        <time>2026-08-28T18:24:48Z</time>
      </trkpt>
      <trkpt lat="43.74363" lon="1.75046">
        <ele>124.13821</ele>
        <time>2026-08-28T18:24:49Z</time>
      </trkpt>
      <trkpt lat="43.74365" lon="1.7504">
        <ele>124.117988</ele>
        <time>2026-08-28T18:24:50Z</time>
      </trkpt>
      <trkpt lat="43.74368" lon="1.75033">
        <ele>124.097436</ele>
        <time>2026-08-28T18:24:51Z</time>
      </trkpt>
      <trkpt lat="43.7437" lon="1.75027">
        <ele>124.076538</ele>
        <time>2026-08-28T18:24:52Z</time>
      </trkpt>
      <trkpt lat="43.74372" lon="1.7502">
        <ele>124.054845</ele>
        <time>2026-08-28T18:24:53Z</time>
      </trkpt>
      <trkpt lat="43.74374" lon="1.75013">
        <ele>124.03262</ele>
        <time>2026-08-28T18:24:54Z</time>
      </trkpt>
      <trkpt lat="43.74377" lon="1.75006">
        <ele>124.01076</ele>
        <time>2026-08-28T18:24:55Z</time>
      </trkpt>
      <trkpt lat="43.74379" lon="1.75">
        <ele>123.989683</ele>
        <time>2026-08-28T18:24:56Z</time>
      </trkpt>
      <trkpt lat="43.74382" lon="1.74994">
        <ele>123.968914</ele>
        <time>2026-08-28T18:24:57Z</time>
      </trkpt>
      <trkpt lat="43.74386" lon="1.74989">
        <ele>123.948763</ele>
        <time>2026-08-28T18:24:58Z</time>
      </trkpt>
      <trkpt lat="43.74389" lon="1.74984">
        <ele>123.927794</ele>
        <time>2026-08-28T18:24:59Z</time>
      </trkpt>
      <trkpt lat="43.74393" lon="1.74979">
        <ele>123.906864</ele>
        <time>2026-08-28T18:25:00Z</time>
      </trkpt>
      <trkpt lat="43.74397" lon="1.74974">
        <ele>123.885315</ele>
        <time>2026-08-28T18:25:01Z</time>
      </trkpt>
      <trkpt lat="43.74401" lon="1.7497">
        <ele>123.85688</ele>
        <time>2026-08-28T18:25:02Z</time>
      </trkpt>
      <trkpt lat="43.74405" lon="1.74965">
        <ele>123.828445</ele>
        <time>2026-08-28T18:25:03Z</time>
      </trkpt>
      <trkpt lat="43.74409" lon="1.7496">
        <ele>123.800102</ele>
        <time>2026-08-28T18:25:04Z</time>
      </trkpt>
      <trkpt lat="43.74414" lon="1.74956">
        <ele>123.772089</ele>
        <time>2026-08-28T18:25:05Z</time>
      </trkpt>
      <trkpt lat="43.74418" lon="1.74951">
        <ele>123.744492</ele>
        <time>2026-08-28T18:25:06Z</time>
      </trkpt>
      <trkpt lat="43.74421" lon="1.74947">
        <ele>123.717309</ele>
        <time>2026-08-28T18:25:07Z</time>
      </trkpt>
      <trkpt lat="43.74425" lon="1.74942">
        <ele>123.689468</ele>
        <time>2026-08-28T18:25:08Z</time>
      </trkpt>
      <trkpt lat="43.74429" lon="1.74938">
        <ele>123.661871</ele>
        <time>2026-08-28T18:25:09Z</time>
      </trkpt>
      <trkpt lat="43.74433" lon="1.74933">
        <ele>123.634275</ele>
        <time>2026-08-28T18:25:10Z</time>
      </trkpt>
      <trkpt lat="43.74437" lon="1.74929">
        <ele>123.607092</ele>
        <time>2026-08-28T18:25:11Z</time>
      </trkpt>
      <trkpt lat="43.74441" lon="1.74924">
        <ele>123.580065</ele>
        <time>2026-08-28T18:25:12Z</time>
      </trkpt>
      <trkpt lat="43.74445" lon="1.7492">
        <ele>123.553038</ele>
        <time>2026-08-28T18:25:13Z</time>
      </trkpt>
      <trkpt lat="43.74449" lon="1.74915">
        <ele>123.525234</ele>
        <time>2026-08-28T18:25:14Z</time>
      </trkpt>
      <trkpt lat="43.74452" lon="1.7491">
        <ele>123.497819</ele>
        <time>2026-08-28T18:25:15Z</time>
      </trkpt>
      <trkpt lat="43.74456" lon="1.74905">
        <ele>123.472191</ele>
        <time>2026-08-28T18:25:16Z</time>
      </trkpt>
      <trkpt lat="43.74459" lon="1.749">
        <ele>123.446281</ele>
        <time>2026-08-28T18:25:17Z</time>
      </trkpt>
      <trkpt lat="43.74462" lon="1.74895">
        <ele>123.419565</ele>
        <time>2026-08-28T18:25:18Z</time>
      </trkpt>
      <trkpt lat="43.74465" lon="1.74889">
        <ele>123.392584</ele>
        <time>2026-08-28T18:25:19Z</time>
      </trkpt>
      <trkpt lat="43.74469" lon="1.74884">
        <ele>123.365813</ele>
        <time>2026-08-28T18:25:20Z</time>
      </trkpt>
      <trkpt lat="43.74473" lon="1.7488">
        <ele>123.33863</ele>
        <time>2026-08-28T18:25:21Z</time>
      </trkpt>
      <trkpt lat="43.74477" lon="1.74876">
        <ele>123.311266</ele>
        <time>2026-08-28T18:25:22Z</time>
      </trkpt>
      <trkpt lat="43.74482" lon="1.74873">
        <ele>123.28303</ele>
        <time>2026-08-28T18:25:23Z</time>
      </trkpt>
      <trkpt lat="43.74487" lon="1.74873">
        <ele>123.256614</ele>
        <time>2026-08-28T18:25:24Z</time>
      </trkpt>
      <trkpt lat="43.74492" lon="1.74873">
        <ele>123.22962</ele>
        <time>2026-08-28T18:25:25Z</time>
      </trkpt>
      <trkpt lat="43.74497" lon="1.74875">
        <ele>123.202891</ele>
        <time>2026-08-28T18:25:26Z</time>
      </trkpt>
      <trkpt lat="43.74502" lon="1.74878">
        <ele>123.174157</ele>
        <time>2026-08-28T18:25:27Z</time>
      </trkpt>
      <trkpt lat="43.74506" lon="1.74881">
        <ele>123.146118</ele>
        <time>2026-08-28T18:25:28Z</time>
      </trkpt>
      <trkpt lat="43.74511" lon="1.74884">
        <ele>123.118231</ele>
        <time>2026-08-28T18:25:29Z</time>
      </trkpt>
      <trkpt lat="43.74516" lon="1.74887">
        <ele>123.091816</ele>
        <time>2026-08-28T18:25:30Z</time>
      </trkpt>
      <trkpt lat="43.7452" lon="1.74889">
        <ele>123.065402</ele>
        <time>2026-08-28T18:25:31Z</time>
      </trkpt>
      <trkpt lat="43.74525" lon="1.74892">
        <ele>123.038652</ele>
        <time>2026-08-28T18:25:32Z</time>
      </trkpt>
      <trkpt lat="43.74529" lon="1.74895">
        <ele>123.01159</ele>
        <time>2026-08-28T18:25:33Z</time>
      </trkpt>
      <trkpt lat="43.74534" lon="1.74898">
        <ele>122.984346</ele>
        <time>2026-08-28T18:25:34Z</time>
      </trkpt>
      <trkpt lat="43.74539" lon="1.749">
        <ele>122.956607</ele>
        <time>2026-08-28T18:25:35Z</time>
      </trkpt>
      <trkpt lat="43.74544" lon="1.74903">
        <ele>122.928076</ele>
        <time>2026-08-28T18:25:36Z</time>
      </trkpt>
      <trkpt lat="43.74549" lon="1.74906">
        <ele>122.909747</ele>
        <time>2026-08-28T18:25:37Z</time>
      </trkpt>
      <trkpt lat="43.74553" lon="1.74909">
        <ele>122.893256</ele>
        <time>2026-08-28T18:25:38Z</time>
      </trkpt>
      <trkpt lat="43.74558" lon="1.74911">
        <ele>122.876634</ele>
        <time>2026-08-28T18:25:39Z</time>
      </trkpt>
      <trkpt lat="43.74563" lon="1.74914">
        <ele>122.86039</ele>
        <time>2026-08-28T18:25:40Z</time>
      </trkpt>
      <trkpt lat="43.74568" lon="1.74916">
        <ele>122.843307</ele>
        <time>2026-08-28T18:25:41Z</time>
      </trkpt>
      <trkpt lat="43.74573" lon="1.74919">
        <ele>122.826008</ele>
        <time>2026-08-28T18:25:42Z</time>
      </trkpt>
      <trkpt lat="43.74578" lon="1.74922">
        <ele>122.809221</ele>
        <time>2026-08-28T18:25:43Z</time>
      </trkpt>
      <trkpt lat="43.74583" lon="1.74924">
        <ele>122.792815</ele>
        <time>2026-08-28T18:25:44Z</time>
      </trkpt>
      <trkpt lat="43.74588" lon="1.74927">
        <ele>122.776324</ele>
        <time>2026-08-28T18:25:45Z</time>
      </trkpt>
      <trkpt lat="43.74593" lon="1.7493">
        <ele>122.759069</ele>
        <time>2026-08-28T18:25:46Z</time>
      </trkpt>
      <trkpt lat="43.74598" lon="1.74933">
        <ele>122.742196</ele>
        <time>2026-08-28T18:25:47Z</time>
      </trkpt>
      <trkpt lat="43.74602" lon="1.74935">
        <ele>122.72579</ele>
        <time>2026-08-28T18:25:48Z</time>
      </trkpt>
      <trkpt lat="43.74607" lon="1.74938">
        <ele>122.709383</ele>
        <time>2026-08-28T18:25:49Z</time>
      </trkpt>
      <trkpt lat="43.74612" lon="1.7494">
        <ele>122.693357</ele>
        <time>2026-08-28T18:25:50Z</time>
      </trkpt>
      <trkpt lat="43.74617" lon="1.74943">
        <ele>122.676778</ele>
        <time>2026-08-28T18:25:51Z</time>
      </trkpt>
      <trkpt lat="43.74621" lon="1.74946">
        <ele>122.660668</ele>
        <time>2026-08-28T18:25:52Z</time>
      </trkpt>
      <trkpt lat="43.74626" lon="1.74949">
        <ele>122.643614</ele>
        <time>2026-08-28T18:25:53Z</time>
      </trkpt>
      <trkpt lat="43.74631" lon="1.74951">
        <ele>122.626911</ele>
        <time>2026-08-28T18:25:54Z</time>
      </trkpt>
      <trkpt lat="43.74636" lon="1.74954">
        <ele>122.609828</ele>
        <time>2026-08-28T18:25:55Z</time>
      </trkpt>
      <trkpt lat="43.74641" lon="1.74957">
        <ele>122.592529</ele>
        <time>2026-08-28T18:25:56Z</time>
      </trkpt>
      <trkpt lat="43.74646" lon="1.7496">
        <ele>122.575476</ele>
        <time>2026-08-28T18:25:57Z</time>
      </trkpt>
      <trkpt lat="43.74651" lon="1.74963">
        <ele>122.558806</ele>
        <time>2026-08-28T18:25:58Z</time>
      </trkpt>
      <trkpt lat="43.74656" lon="1.74965">
        <ele>122.542103</ele>
        <time>2026-08-28T18:25:59Z</time>
      </trkpt>
      <trkpt lat="43.74661" lon="1.74968">
        <ele>122.524935</ele>
        <time>2026-08-28T18:26:00Z</time>
      </trkpt>
      <trkpt lat="43.74666" lon="1.74971">
        <ele>122.508062</ele>
        <time>2026-08-28T18:26:01Z</time>
      </trkpt>
      <trkpt lat="43.74671" lon="1.74974">
        <ele>122.490807</ele>
        <time>2026-08-28T18:26:02Z</time>
      </trkpt>
      <trkpt lat="43.74675" lon="1.74977">
        <ele>122.474428</ele>
        <time>2026-08-28T18:26:03Z</time>
      </trkpt>
      <trkpt lat="43.7468" lon="1.7498">
        <ele>122.457466</ele>
        <time>2026-08-28T18:26:04Z</time>
      </trkpt>
      <trkpt lat="43.74685" lon="1.74983">
        <ele>122.440413</ele>
        <time>2026-08-28T18:26:05Z</time>
      </trkpt>
      <trkpt lat="43.7469" lon="1.74986">
        <ele>122.423841</ele>
        <time>2026-08-28T18:26:06Z</time>
      </trkpt>
      <trkpt lat="43.74695" lon="1.74988">
        <ele>122.407555</ele>
        <time>2026-08-28T18:26:07Z</time>
      </trkpt>
      <trkpt lat="43.74699" lon="1.74991">
        <ele>122.391149</ele>
        <time>2026-08-28T18:26:08Z</time>
      </trkpt>
      <trkpt lat="43.74704" lon="1.74994">
        <ele>122.37477</ele>
        <time>2026-08-28T18:26:09Z</time>
      </trkpt>
      <trkpt lat="43.74709" lon="1.74997">
        <ele>122.358101</ele>
        <time>2026-08-28T18:26:10Z</time>
      </trkpt>
      <trkpt lat="43.74714" lon="1.75">
        <ele>122.340961</ele>
        <time>2026-08-28T18:26:11Z</time>
      </trkpt>
      <trkpt lat="43.74718" lon="1.75003">
        <ele>122.32327</ele>
        <time>2026-08-28T18:26:12Z</time>
      </trkpt>
      <trkpt lat="43.74723" lon="1.75006">
        <ele>122.305475</ele>
        <time>2026-08-28T18:26:13Z</time>
      </trkpt>
      <trkpt lat="43.74728" lon="1.75009">
        <ele>122.287065</ele>
        <time>2026-08-28T18:26:14Z</time>
      </trkpt>
      <trkpt lat="43.74733" lon="1.75012">
        <ele>122.269145</ele>
        <time>2026-08-28T18:26:15Z</time>
      </trkpt>
      <trkpt lat="43.74738" lon="1.75015">
        <ele>122.251349</ele>
        <time>2026-08-28T18:26:16Z</time>
      </trkpt>
      <trkpt lat="43.74743" lon="1.75017">
        <ele>122.23365</ele>
        <time>2026-08-28T18:26:17Z</time>
      </trkpt>
      <trkpt lat="43.74747" lon="1.7502">
        <ele>122.215542</ele>
        <time>2026-08-28T18:26:18Z</time>
      </trkpt>
      <trkpt lat="43.74752" lon="1.75023">
        <ele>122.197746</ele>
        <time>2026-08-28T18:26:19Z</time>
      </trkpt>
      <trkpt lat="43.74757" lon="1.75026">
        <ele>122.179326</ele>
        <time>2026-08-28T18:26:20Z</time>
      </trkpt>
      <trkpt lat="43.74762" lon="1.75029">
        <ele>122.160608</ele>
        <time>2026-08-28T18:26:21Z</time>
      </trkpt>
      <trkpt lat="43.74767" lon="1.75032">
        <ele>122.141682</ele>
        <time>2026-08-28T18:26:22Z</time>
      </trkpt>
      <trkpt lat="43.74772" lon="1.75036">
        <ele>122.122553</ele>
        <time>2026-08-28T18:26:23Z</time>
      </trkpt>
      <trkpt lat="43.74777" lon="1.75039">
        <ele>122.103514</ele>
        <time>2026-08-28T18:26:24Z</time>
      </trkpt>
      <trkpt lat="43.74782" lon="1.75042">
        <ele>122.085094</ele>
        <time>2026-08-28T18:26:25Z</time>
      </trkpt>
      <trkpt lat="43.74788" lon="1.75045">
        <ele>122.066135</ele>
        <time>2026-08-28T18:26:26Z</time>
      </trkpt>
      <trkpt lat="43.74793" lon="1.75048">
        <ele>122.047519</ele>
        <time>2026-08-28T18:26:27Z</time>
      </trkpt>
      <trkpt lat="43.74797" lon="1.75051">
        <ele>122.030321</ele>
        <time>2026-08-28T18:26:28Z</time>
      </trkpt>
      <trkpt lat="43.74802" lon="1.75053">
        <ele>122.012257</ele>
        <time>2026-08-28T18:26:29Z</time>
      </trkpt>
      <trkpt lat="43.74807" lon="1.75055">
        <ele>121.994106</ele>
        <time>2026-08-28T18:26:30Z</time>
      </trkpt>
      <trkpt lat="43.74813" lon="1.75057">
        <ele>121.975893</ele>
        <time>2026-08-28T18:26:31Z</time>
      </trkpt>
      <trkpt lat="43.74818" lon="1.75059">
        <ele>121.957679</ele>
        <time>2026-08-28T18:26:32Z</time>
      </trkpt>
      <trkpt lat="43.74823" lon="1.75061">
        <ele>121.938862</ele>
        <time>2026-08-28T18:26:33Z</time>
      </trkpt>
      <trkpt lat="43.74829" lon="1.75062">
        <ele>121.920147</ele>
        <time>2026-08-28T18:26:34Z</time>
      </trkpt>
      <trkpt lat="43.74834" lon="1.75063">
        <ele>121.902904</ele>
        <time>2026-08-28T18:26:35Z</time>
      </trkpt>
      <trkpt lat="43.74839" lon="1.75065">
        <ele>121.885284</ele>
        <time>2026-08-28T18:26:36Z</time>
      </trkpt>
      <trkpt lat="43.74844" lon="1.75066">
        <ele>121.867329</ele>
        <time>2026-08-28T18:26:37Z</time>
      </trkpt>
      <trkpt lat="43.74849" lon="1.75067">
        <ele>121.848409</ele>
        <time>2026-08-28T18:26:38Z</time>
      </trkpt>
      <trkpt lat="43.74855" lon="1.75069">
        <ele>121.829695</ele>
        <time>2026-08-28T18:26:39Z</time>
      </trkpt>
      <trkpt lat="43.7486" lon="1.7507">
        <ele>121.812028</ele>
        <time>2026-08-28T18:26:40Z</time>
      </trkpt>
      <trkpt lat="43.74865" lon="1.75071">
        <ele>121.794825</ele>
        <time>2026-08-28T18:26:41Z</time>
      </trkpt>
      <trkpt lat="43.7487" lon="1.75072">
        <ele>121.777204</ele>
        <time>2026-08-28T18:26:42Z</time>
      </trkpt>
      <trkpt lat="43.74875" lon="1.75074">
        <ele>121.75982</ele>
        <time>2026-08-28T18:26:43Z</time>
      </trkpt>
      <trkpt lat="43.7488" lon="1.75076">
        <ele>121.741996</ele>
        <time>2026-08-28T18:26:44Z</time>
      </trkpt>
      <trkpt lat="43.74885" lon="1.75077">
        <ele>121.73429</ele>
        <time>2026-08-28T18:26:45Z</time>
      </trkpt>
      <trkpt lat="43.74891" lon="1.75078">
        <ele>121.727619</ele>
        <time>2026-08-28T18:26:46Z</time>
      </trkpt>
      <trkpt lat="43.74896" lon="1.75079">
        <ele>121.720935</ele>
        <time>2026-08-28T18:26:47Z</time>
      </trkpt>
      <trkpt lat="43.74902" lon="1.7508">
        <ele>121.714005</ele>
        <time>2026-08-28T18:26:48Z</time>
      </trkpt>
      <trkpt lat="43.74907" lon="1.75081">
        <ele>121.707334</ele>
        <time>2026-08-28T18:26:49Z</time>
      </trkpt>
      <trkpt lat="43.74912" lon="1.75082">
        <ele>121.700541</ele>
        <time>2026-08-28T18:26:50Z</time>
      </trkpt>
      <trkpt lat="43.74918" lon="1.75084">
        <ele>121.693841</ele>
        <time>2026-08-28T18:26:51Z</time>
      </trkpt>
      <trkpt lat="43.74923" lon="1.75085">
        <ele>121.686986</ele>
        <time>2026-08-28T18:26:52Z</time>
      </trkpt>
      <trkpt lat="43.74929" lon="1.75086">
        <ele>121.679946</ele>
        <time>2026-08-28T18:26:53Z</time>
      </trkpt>
      <trkpt lat="43.74934" lon="1.75087">
        <ele>121.672646</ele>
        <time>2026-08-28T18:26:54Z</time>
      </trkpt>
      <trkpt lat="43.7494" lon="1.75089">
        <ele>121.665224</ele>
        <time>2026-08-28T18:26:55Z</time>
      </trkpt>
      <trkpt lat="43.74946" lon="1.75089">
        <ele>121.658093</ele>
        <time>2026-08-28T18:26:56Z</time>
      </trkpt>
      <trkpt lat="43.74951" lon="1.7509">
        <ele>121.651199</ele>
        <time>2026-08-28T18:26:57Z</time>
      </trkpt>
      <trkpt lat="43.74957" lon="1.75091">
        <ele>121.644332</ele>
        <time>2026-08-28T18:26:58Z</time>
      </trkpt>
      <trkpt lat="43.74962" lon="1.75091">
        <ele>121.637472</ele>
        <time>2026-08-28T18:26:59Z</time>
      </trkpt>
      <trkpt lat="43.74968" lon="1.75092">
        <ele>121.630493</ele>
        <time>2026-08-28T18:27:00Z</time>
      </trkpt>
      <trkpt lat="43.74974" lon="1.75092">
        <ele>121.623494</ele>
        <time>2026-08-28T18:27:01Z</time>
      </trkpt>
      <trkpt lat="43.74979" lon="1.75094">
        <ele>121.616441</ele>
        <time>2026-08-28T18:27:02Z</time>
      </trkpt>
      <trkpt lat="43.74985" lon="1.75095">
        <ele>121.60951</ele>
        <time>2026-08-28T18:27:03Z</time>
      </trkpt>
      <trkpt lat="43.7499" lon="1.75097">
        <ele>121.602618</ele>
        <time>2026-08-28T18:27:04Z</time>
      </trkpt>
      <trkpt lat="43.74996" lon="1.75098">
        <ele>121.595622</ele>
        <time>2026-08-28T18:27:05Z</time>
      </trkpt>
      <trkpt lat="43.75001" lon="1.75099">
        <ele>121.588555</ele>
        <time>2026-08-28T18:27:06Z</time>
      </trkpt>
      <trkpt lat="43.75007" lon="1.75101">
        <ele>121.581638</ele>
        <time>2026-08-28T18:27:07Z</time>
      </trkpt>
      <trkpt lat="43.75012" lon="1.75102">
        <ele>121.574953</ele>
        <time>2026-08-28T18:27:08Z</time>
      </trkpt>
      <trkpt lat="43.75017" lon="1.75103">
        <ele>121.568115</ele>
        <time>2026-08-28T18:27:09Z</time>
      </trkpt>
      <trkpt lat="43.75023" lon="1.75105">
        <ele>121.561222</ele>
        <time>2026-08-28T18:27:10Z</time>
      </trkpt>
      <trkpt lat="43.75028" lon="1.75106">
        <ele>121.554384</ele>
        <time>2026-08-28T18:27:11Z</time>
      </trkpt>
      <trkpt lat="43.75033" lon="1.75108">
        <ele>121.547875</ele>
        <time>2026-08-28T18:27:12Z</time>
      </trkpt>
      <trkpt lat="43.75038" lon="1.75109">
        <ele>121.541508</ele>
        <time>2026-08-28T18:27:13Z</time>
      </trkpt>
      <trkpt lat="43.75044" lon="1.75111">
        <ele>121.534774</ele>
        <time>2026-08-28T18:27:14Z</time>
      </trkpt>
      <trkpt lat="43.75049" lon="1.75112">
        <ele>121.528425</ele>
        <time>2026-08-28T18:27:15Z</time>
      </trkpt>
      <trkpt lat="43.75053" lon="1.75114">
        <ele>121.522319</ele>
        <time>2026-08-28T18:27:16Z</time>
      </trkpt>
      <trkpt lat="43.75058" lon="1.75115">
        <ele>121.512298</ele>
        <time>2026-08-28T18:27:17Z</time>
      </trkpt>
      <trkpt lat="43.75063" lon="1.75116">
        <ele>121.461998</ele>
        <time>2026-08-28T18:27:18Z</time>
      </trkpt>
      <trkpt lat="43.75068" lon="1.75117">
        <ele>121.410559</ele>
        <time>2026-08-28T18:27:19Z</time>
      </trkpt>
      <trkpt lat="43.75073" lon="1.75118">
        <ele>121.357182</ele>
        <time>2026-08-28T18:27:20Z</time>
      </trkpt>
      <trkpt lat="43.75079" lon="1.7512">
        <ele>121.300385</ele>
        <time>2026-08-28T18:27:21Z</time>
      </trkpt>
      <trkpt lat="43.75084" lon="1.75121">
        <ele>121.242296</ele>
        <time>2026-08-28T18:27:22Z</time>
      </trkpt>
      <trkpt lat="43.7509" lon="1.75122">
        <ele>121.184812</ele>
        <time>2026-08-28T18:27:23Z</time>
      </trkpt>
      <trkpt lat="43.75095" lon="1.75123">
        <ele>121.128356</ele>
        <time>2026-08-28T18:27:24Z</time>
      </trkpt>
      <trkpt lat="43.75101" lon="1.75124">
        <ele>121.067789</ele>
        <time>2026-08-28T18:27:25Z</time>
      </trkpt>
      <trkpt lat="43.75107" lon="1.75125">
        <ele>121.008044</ele>
        <time>2026-08-28T18:27:26Z</time>
      </trkpt>
      <trkpt lat="43.75112" lon="1.75126">
        <ele>120.949432</ele>
        <time>2026-08-28T18:27:27Z</time>
      </trkpt>
      <trkpt lat="43.75117" lon="1.75127">
        <ele>120.894262</ele>
        <time>2026-08-28T18:27:28Z</time>
      </trkpt>
      <trkpt lat="43.75123" lon="1.75128">
        <ele>120.840122</ele>
        <time>2026-08-28T18:27:29Z</time>
      </trkpt>
      <trkpt lat="43.75128" lon="1.75129">
        <ele>120.783845</ele>
        <time>2026-08-28T18:27:30Z</time>
      </trkpt>
      <trkpt lat="43.75133" lon="1.7513">
        <ele>120.729335</ele>
        <time>2026-08-28T18:27:31Z</time>
      </trkpt>
      <trkpt lat="43.75139" lon="1.7513">
        <ele>120.67423</ele>
        <time>2026-08-28T18:27:32Z</time>
      </trkpt>
      <trkpt lat="43.75144" lon="1.75131">
        <ele>120.619263</ele>
        <time>2026-08-28T18:27:33Z</time>
      </trkpt>
      <trkpt lat="43.75149" lon="1.75131">
        <ele>120.564296</ele>
        <time>2026-08-28T18:27:34Z</time>
      </trkpt>
      <trkpt lat="43.75154" lon="1.75131">
        <ele>120.509247</ele>
        <time>2026-08-28T18:27:35Z</time>
      </trkpt>
      <trkpt lat="43.7516" lon="1.75132">
        <ele>120.452013</ele>
        <time>2026-08-28T18:27:36Z</time>
      </trkpt>
      <trkpt lat="43.75166" lon="1.75133">
        <ele>120.391794</ele>
        <time>2026-08-28T18:27:37Z</time>
      </trkpt>
      <trkpt lat="43.75172" lon="1.75133">
        <ele>120.329614</ele>
        <time>2026-08-28T18:27:38Z</time>
      </trkpt>
      <trkpt lat="43.75177" lon="1.75133">
        <ele>120.270529</ele>
        <time>2026-08-28T18:27:39Z</time>
      </trkpt>
      <trkpt lat="43.75182" lon="1.75134">
        <ele>120.219697</ele>
        <time>2026-08-28T18:27:40Z</time>
      </trkpt>
      <trkpt lat="43.75186" lon="1.75138">
        <ele>120.171937</ele>
        <time>2026-08-28T18:27:41Z</time>
      </trkpt>
      <trkpt lat="43.75189" lon="1.75142">
        <ele>120.12748</ele>
        <time>2026-08-28T18:27:42Z</time>
      </trkpt>
      <trkpt lat="43.75191" lon="1.75147">
        <ele>120.084318</ele>
        <time>2026-08-28T18:27:43Z</time>
      </trkpt>
      <trkpt lat="43.75192" lon="1.75153">
        <ele>120.040411</ele>
        <time>2026-08-28T18:27:44Z</time>
      </trkpt>
      <trkpt lat="43.75193" lon="1.75159">
        <ele>119.997958</ele>
        <time>2026-08-28T18:27:45Z</time>
      </trkpt>
      <trkpt lat="43.75194" lon="1.75165">
        <ele>119.950815</ele>
        <time>2026-08-28T18:27:46Z</time>
      </trkpt>
      <trkpt lat="43.75194" lon="1.7517">
        <ele>119.908439</ele>
        <time>2026-08-28T18:27:47Z</time>
      </trkpt>
      <trkpt lat="43.75195" lon="1.75177">
        <ele>119.860393</ele>
        <time>2026-08-28T18:27:48Z</time>
      </trkpt>
      <trkpt lat="43.75196" lon="1.75183">
        <ele>119.813572</ele>
        <time>2026-08-28T18:27:49Z</time>
      </trkpt>
      <trkpt lat="43.75198" lon="1.75189">
        <ele>119.762628</ele>
        <time>2026-08-28T18:27:50Z</time>
      </trkpt>
      <trkpt lat="43.75199" lon="1.75196">
        <ele>119.71215</ele>
        <time>2026-08-28T18:27:51Z</time>
      </trkpt>
      <trkpt lat="43.752" lon="1.75203">
        <ele>119.660221</ele>
        <time>2026-08-28T18:27:52Z</time>
      </trkpt>
      <trkpt lat="43.75201" lon="1.75209">
        <ele>119.619607</ele>
        <time>2026-08-28T18:27:53Z</time>
      </trkpt>
      <trkpt lat="43.75202" lon="1.75216">
        <ele>119.579918</ele>
        <time>2026-08-28T18:27:54Z</time>
      </trkpt>
      <trkpt lat="43.75203" lon="1.75222">
        <ele>119.53985</ele>
        <time>2026-08-28T18:27:55Z</time>
      </trkpt>
      <trkpt lat="43.75204" lon="1.75229">
        <ele>119.497945</ele>
        <time>2026-08-28T18:27:56Z</time>
      </trkpt>
      <trkpt lat="43.75205" lon="1.75237">
        <ele>119.453941</ele>
        <time>2026-08-28T18:27:57Z</time>
      </trkpt>
      <trkpt lat="43.75206" lon="1.75244">
        <ele>119.410282</ele>
        <time>2026-08-28T18:27:58Z</time>
      </trkpt>
      <trkpt lat="43.75208" lon="1.75252">
        <ele>119.3653</ele>
        <time>2026-08-28T18:27:59Z</time>
      </trkpt>
      <trkpt lat="43.75209" lon="1.75259">
        <ele>119.322943</ele>
        <time>2026-08-28T18:28:00Z</time>
      </trkpt>
      <trkpt lat="43.7521" lon="1.75265">
        <ele>119.281904</ele>
        <time>2026-08-28T18:28:01Z</time>
      </trkpt>
      <trkpt lat="43.75211" lon="1.75272">
        <ele>119.242215</ele>
        <time>2026-08-28T18:28:02Z</time>
      </trkpt>
      <trkpt lat="43.75212" lon="1.75279">
        <ele>119.200828</ele>
        <time>2026-08-28T18:28:03Z</time>
      </trkpt>
      <trkpt lat="43.75213" lon="1.75286">
        <ele>119.156925</ele>
        <time>2026-08-28T18:28:04Z</time>
      </trkpt>
      <trkpt lat="43.75214" lon="1.75294">
        <ele>119.113501</ele>
        <time>2026-08-28T18:28:05Z</time>
      </trkpt>
      <trkpt lat="43.75215" lon="1.75301">
        <ele>119.06974</ele>
        <time>2026-08-28T18:28:06Z</time>
      </trkpt>
      <trkpt lat="43.75216" lon="1.75308">
        <ele>119.029685</ele>
        <time>2026-08-28T18:28:07Z</time>
      </trkpt>
      <trkpt lat="43.75217" lon="1.75315">
        <ele>118.988797</ele>
        <time>2026-08-28T18:28:08Z</time>
      </trkpt>
      <trkpt lat="43.75218" lon="1.75322">
        <ele>118.946451</ele>
        <time>2026-08-28T18:28:09Z</time>
      </trkpt>
      <trkpt lat="43.75219" lon="1.75329">
        <ele>118.902549</ele>
        <time>2026-08-28T18:28:10Z</time>
      </trkpt>
      <trkpt lat="43.75219" lon="1.75337">
        <ele>118.857761</ele>
        <time>2026-08-28T18:28:11Z</time>
      </trkpt>
      <trkpt lat="43.7522" lon="1.75344">
        <ele>118.816741</ele>
        <time>2026-08-28T18:28:12Z</time>
      </trkpt>
      <trkpt lat="43.7522" lon="1.7535">
        <ele>118.778827</ele>
        <time>2026-08-28T18:28:13Z</time>
      </trkpt>
      <trkpt lat="43.7522" lon="1.75356">
        <ele>118.743829</ele>
        <time>2026-08-28T18:28:14Z</time>
      </trkpt>
      <trkpt lat="43.7522" lon="1.75363">
        <ele>118.70571</ele>
        <time>2026-08-28T18:28:15Z</time>
      </trkpt>
      <trkpt lat="43.7522" lon="1.75368">
        <ele>118.673716</ele>
        <time>2026-08-28T18:28:16Z</time>
      </trkpt>
      <trkpt lat="43.75223" lon="1.75373">
        <ele>118.638708</ele>
        <time>2026-08-28T18:28:17Z</time>
      </trkpt>
      <trkpt lat="43.75227" lon="1.75377">
        <ele>118.600865</ele>
        <time>2026-08-28T18:28:18Z</time>
      </trkpt>
      <trkpt lat="43.75231" lon="1.75379">
        <ele>118.56305</ele>
        <time>2026-08-28T18:28:19Z</time>
      </trkpt>
      <trkpt lat="43.75236" lon="1.75379">
        <ele>118.527294</ele>
        <time>2026-08-28T18:28:20Z</time>
      </trkpt>
      <trkpt lat="43.7524" lon="1.7538">
        <ele>118.493068</ele>
        <time>2026-08-28T18:28:21Z</time>
      </trkpt>
      <trkpt lat="43.75244" lon="1.75382">
        <ele>118.453778</ele>
        <time>2026-08-28T18:28:22Z</time>
      </trkpt>
      <trkpt lat="43.75249" lon="1.75385">
        <ele>118.41247</ele>
        <time>2026-08-28T18:28:23Z</time>
      </trkpt>
      <trkpt lat="43.75254" lon="1.75388">
        <ele>118.371389</ele>
        <time>2026-08-28T18:28:24Z</time>
      </trkpt>
      <trkpt lat="43.75258" lon="1.75391">
        <ele>118.331067</ele>
        <time>2026-08-28T18:28:25Z</time>
      </trkpt>
      <trkpt lat="43.75263" lon="1.75394">
        <ele>118.291209</ele>
        <time>2026-08-28T18:28:26Z</time>
      </trkpt>
      <trkpt lat="43.75267" lon="1.75397">
        <ele>118.248665</ele>
        <time>2026-08-28T18:28:27Z</time>
      </trkpt>
      <trkpt lat="43.75272" lon="1.754">
        <ele>118.208097</ele>
        <time>2026-08-28T18:28:28Z</time>
      </trkpt>
      <trkpt lat="43.75277" lon="1.75403">
        <ele>118.185166</ele>
        <time>2026-08-28T18:28:29Z</time>
      </trkpt>
      <trkpt lat="43.75281" lon="1.75405">
        <ele>118.167041</ele>
        <time>2026-08-28T18:28:30Z</time>
      </trkpt>
      <trkpt lat="43.75286" lon="1.75408">
        <ele>118.148608</ele>
        <time>2026-08-28T18:28:31Z</time>
      </trkpt>
      <trkpt lat="43.7529" lon="1.75411">
        <ele>118.130174</ele>
        <time>2026-08-28T18:28:32Z</time>
      </trkpt>
      <trkpt lat="43.75295" lon="1.75413">
        <ele>118.111395</ele>
        <time>2026-08-28T18:28:33Z</time>
      </trkpt>
      <trkpt lat="43.75299" lon="1.75416">
        <ele>118.091921</ele>
        <time>2026-08-28T18:28:34Z</time>
      </trkpt>
      <trkpt lat="43.75304" lon="1.75419">
        <ele>118.07274</ele>
        <time>2026-08-28T18:28:35Z</time>
      </trkpt>
      <trkpt lat="43.75309" lon="1.75421">
        <ele>118.054004</ele>
        <time>2026-08-28T18:28:36Z</time>
      </trkpt>
      <trkpt lat="43.75313" lon="1.75423">
        <ele>118.036326</ele>
        <time>2026-08-28T18:28:37Z</time>
      </trkpt>
      <trkpt lat="43.75318" lon="1.75426">
        <ele>118.01869</ele>
        <time>2026-08-28T18:28:38Z</time>
      </trkpt>
      <trkpt lat="43.75322" lon="1.75428">
        <ele>118.000944</ele>
        <time>2026-08-28T18:28:39Z</time>
      </trkpt>
      <trkpt lat="43.75326" lon="1.75432">
        <ele>117.982657</ele>
        <time>2026-08-28T18:28:40Z</time>
      </trkpt>
      <trkpt lat="43.7533" lon="1.75436">
        <ele>117.965196</ele>
        <time>2026-08-28T18:28:41Z</time>
      </trkpt>
      <trkpt lat="43.75334" lon="1.75439">
        <ele>117.946629</ele>
        <time>2026-08-28T18:28:42Z</time>
      </trkpt>
      <trkpt lat="43.75338" lon="1.75442">
        <ele>117.929199</ele>
        <time>2026-08-28T18:28:43Z</time>
      </trkpt>
      <trkpt lat="43.75343" lon="1.75445">
        <ele>117.910185</ele>
        <time>2026-08-28T18:28:44Z</time>
      </trkpt>
      <trkpt lat="43.75347" lon="1.75449">
        <ele>117.891171</ele>
        <time>2026-08-28T18:28:45Z</time>
      </trkpt>
      <trkpt lat="43.75352" lon="1.75452">
        <ele>117.870849</ele>
        <time>2026-08-28T18:28:46Z</time>
      </trkpt>
      <trkpt lat="43.75357" lon="1.75456">
        <ele>117.84997</ele>
        <time>2026-08-28T18:28:47Z</time>
      </trkpt>
      <trkpt lat="43.75361" lon="1.7546">
        <ele>117.831031</ele>
        <time>2026-08-28T18:28:48Z</time>
      </trkpt>
      <trkpt lat="43.75366" lon="1.75463">
        <ele>117.811762</ele>
        <time>2026-08-28T18:28:49Z</time>
      </trkpt>
      <trkpt lat="43.7537" lon="1.75467">
        <ele>117.791767</ele>
        <time>2026-08-28T18:28:50Z</time>
      </trkpt>
      <trkpt lat="43.75375" lon="1.7547">
        <ele>117.771835</ele>
        <time>2026-08-28T18:28:51Z</time>
      </trkpt>
      <trkpt lat="43.75379" lon="1.75473">
        <ele>117.752723</ele>
        <time>2026-08-28T18:28:52Z</time>
      </trkpt>
      <trkpt lat="43.75384" lon="1.75477">
        <ele>117.733251</ele>
        <time>2026-08-28T18:28:53Z</time>
      </trkpt>
      <trkpt lat="43.75389" lon="1.7548">
        <ele>117.713851</ele>
        <time>2026-08-28T18:28:54Z</time>
      </trkpt>
      <trkpt lat="43.75393" lon="1.75484">
        <ele>117.693529</ele>
        <time>2026-08-28T18:28:55Z</time>
      </trkpt>
      <trkpt lat="43.75398" lon="1.75488">
        <ele>117.673396</ele>
        <time>2026-08-28T18:28:56Z</time>
      </trkpt>
      <trkpt lat="43.75402" lon="1.75491">
        <ele>117.653401</ele>
        <time>2026-08-28T18:28:57Z</time>
      </trkpt>
      <trkpt lat="43.75407" lon="1.75495">
        <ele>117.63354</ele>
        <time>2026-08-28T18:28:58Z</time>
      </trkpt>
      <trkpt lat="43.75412" lon="1.75498">
        <ele>117.613941</ele>
        <time>2026-08-28T18:28:59Z</time>
      </trkpt>
      <trkpt lat="43.75416" lon="1.75502">
        <ele>117.594009</ele>
        <time>2026-08-28T18:29:00Z</time>
      </trkpt>
      <trkpt lat="43.75421" lon="1.75505">
        <ele>117.573491</ele>
        <time>2026-08-28T18:29:01Z</time>
      </trkpt>
      <trkpt lat="43.75426" lon="1.75509">
        <ele>117.552929</ele>
        <time>2026-08-28T18:29:02Z</time>
      </trkpt>
      <trkpt lat="43.7543" lon="1.75514">
        <ele>117.532841</ele>
        <time>2026-08-28T18:29:03Z</time>
      </trkpt>
      <trkpt lat="43.75435" lon="1.75518">
        <ele>117.521412</ele>
        <time>2026-08-28T18:29:04Z</time>
      </trkpt>
      <trkpt lat="43.75439" lon="1.75521">
        <ele>117.516532</ele>
        <time>2026-08-28T18:29:05Z</time>
      </trkpt>
      <trkpt lat="43.75444" lon="1.75526">
        <ele>117.511622</ele>
        <time>2026-08-28T18:29:06Z</time>
      </trkpt>
      <trkpt lat="43.75448" lon="1.7553">
        <ele>117.506736</ele>
        <time>2026-08-28T18:29:07Z</time>
      </trkpt>
      <trkpt lat="43.75452" lon="1.75535">
        <ele>117.501974</ele>
        <time>2026-08-28T18:29:08Z</time>
      </trkpt>
      <trkpt lat="43.75456" lon="1.7554">
        <ele>117.497098</ele>
        <time>2026-08-28T18:29:09Z</time>
      </trkpt>
      <trkpt lat="43.7546" lon="1.75545">
        <ele>117.491995</ele>
        <time>2026-08-28T18:29:10Z</time>
      </trkpt>
      <trkpt lat="43.75464" lon="1.7555">
        <ele>117.486937</ele>
        <time>2026-08-28T18:29:11Z</time>
      </trkpt>
      <trkpt lat="43.75468" lon="1.75555">
        <ele>117.481879</ele>
        <time>2026-08-28T18:29:12Z</time>
      </trkpt>
      <trkpt lat="43.75471" lon="1.7556">
        <ele>117.477062</ele>
        <time>2026-08-28T18:29:13Z</time>
      </trkpt>
      <trkpt lat="43.75475" lon="1.75565">
        <ele>117.471982</ele>
        <time>2026-08-28T18:29:14Z</time>
      </trkpt>
      <trkpt lat="43.7548" lon="1.75571">
        <ele>117.466789</ele>
        <time>2026-08-28T18:29:15Z</time>
      </trkpt>
      <trkpt lat="43.75483" lon="1.75576">
        <ele>117.461842</ele>
        <time>2026-08-28T18:29:16Z</time>
      </trkpt>
      <trkpt lat="43.75487" lon="1.75581">
        <ele>117.45683</ele>
        <time>2026-08-28T18:29:17Z</time>
      </trkpt>
      <trkpt lat="43.75491" lon="1.75586">
        <ele>117.452043</ele>
        <time>2026-08-28T18:29:18Z</time>
      </trkpt>
      <trkpt lat="43.75495" lon="1.75591">
        <ele>117.447076</ele>
        <time>2026-08-28T18:29:19Z</time>
      </trkpt>
      <trkpt lat="43.75499" lon="1.75596">
        <ele>117.442243</ele>
        <time>2026-08-28T18:29:20Z</time>
      </trkpt>
      <trkpt lat="43.75502" lon="1.75601">
        <ele>117.437474</ele>
        <time>2026-08-28T18:29:21Z</time>
      </trkpt>
      <trkpt lat="43.75506" lon="1.75606">
        <ele>117.43264</ele>
        <time>2026-08-28T18:29:22Z</time>
      </trkpt>
      <trkpt lat="43.7551" lon="1.75612">
        <ele>117.427694</ele>
        <time>2026-08-28T18:29:23Z</time>
      </trkpt>
      <trkpt lat="43.75513" lon="1.75617">
        <ele>117.422747</ele>
        <time>2026-08-28T18:29:24Z</time>
      </trkpt>
      <trkpt lat="43.75517" lon="1.75621">
        <ele>117.417933</ele>
        <time>2026-08-28T18:29:25Z</time>
      </trkpt>
      <trkpt lat="43.75521" lon="1.75626">
        <ele>117.413352</ele>
        <time>2026-08-28T18:29:26Z</time>
      </trkpt>
      <trkpt lat="43.75525" lon="1.75631">
        <ele>117.408678</ele>
        <time>2026-08-28T18:29:27Z</time>
      </trkpt>
      <trkpt lat="43.75528" lon="1.75636">
        <ele>117.403988</ele>
        <time>2026-08-28T18:29:28Z</time>
      </trkpt>
      <trkpt lat="43.75531" lon="1.75641">
        <ele>117.399347</ele>
        <time>2026-08-28T18:29:29Z</time>
      </trkpt>
      <trkpt lat="43.75535" lon="1.75647">
        <ele>117.394545</ele>
        <time>2026-08-28T18:29:30Z</time>
      </trkpt>
      <trkpt lat="43.75539" lon="1.75652">
        <ele>117.389532</ele>
        <time>2026-08-28T18:29:31Z</time>
      </trkpt>
      <trkpt lat="43.75542" lon="1.75658">
        <ele>117.384472</ele>
        <time>2026-08-28T18:29:32Z</time>
      </trkpt>
      <trkpt lat="43.75547" lon="1.75663">
        <ele>117.379344</ele>
        <time>2026-08-28T18:29:33Z</time>
      </trkpt>
      <trkpt lat="43.75551" lon="1.75667">
        <ele>117.3744</ele>
        <time>2026-08-28T18:29:34Z</time>
      </trkpt>
      <trkpt lat="43.75555" lon="1.75672">
        <ele>117.369479</ele>
        <time>2026-08-28T18:29:35Z</time>
      </trkpt>
      <trkpt lat="43.75559" lon="1.75678">
        <ele>117.364444</ele>
        <time>2026-08-28T18:29:36Z</time>
      </trkpt>
      <trkpt lat="43.75562" lon="1.75682">
        <ele>117.359637</ele>
        <time>2026-08-28T18:29:37Z</time>
      </trkpt>
      <trkpt lat="43.75566" lon="1.75687">
        <ele>117.347235</ele>
        <time>2026-08-28T18:29:38Z</time>
      </trkpt>
      <trkpt lat="43.7557" lon="1.75692">
        <ele>117.331422</ele>
        <time>2026-08-28T18:29:39Z</time>
      </trkpt>
      <trkpt lat="43.75574" lon="1.75697">
        <ele>117.315298</ele>
        <time>2026-08-28T18:29:40Z</time>
      </trkpt>
      <trkpt lat="43.75578" lon="1.75702">
        <ele>117.299182</ele>
        <time>2026-08-28T18:29:41Z</time>
      </trkpt>
      <trkpt lat="43.75582" lon="1.75707">
        <ele>117.282503</ele>
        <time>2026-08-28T18:29:42Z</time>
      </trkpt>
      <trkpt lat="43.75586" lon="1.75712">
        <ele>117.264959</ele>
        <time>2026-08-28T18:29:43Z</time>
      </trkpt>
      <trkpt lat="43.7559" lon="1.75717">
        <ele>117.247937</ele>
        <time>2026-08-28T18:29:44Z</time>
      </trkpt>
      <trkpt lat="43.75594" lon="1.75722">
        <ele>117.230765</ele>
        <time>2026-08-28T18:29:45Z</time>
      </trkpt>
      <trkpt lat="43.75599" lon="1.75727">
        <ele>117.213278</ele>
        <time>2026-08-28T18:29:46Z</time>
      </trkpt>
      <trkpt lat="43.75603" lon="1.75732">
        <ele>117.195119</ele>
        <time>2026-08-28T18:29:47Z</time>
      </trkpt>
      <trkpt lat="43.75607" lon="1.75738">
        <ele>117.177633</ele>
        <time>2026-08-28T18:29:48Z</time>
      </trkpt>
      <trkpt lat="43.75612" lon="1.75743">
        <ele>117.160526</ele>
        <time>2026-08-28T18:29:49Z</time>
      </trkpt>
      <trkpt lat="43.75616" lon="1.75747">
        <ele>117.143563</ele>
        <time>2026-08-28T18:29:50Z</time>
      </trkpt>
      <trkpt lat="43.7562" lon="1.75752">
        <ele>117.126364</ele>
        <time>2026-08-28T18:29:51Z</time>
      </trkpt>
      <trkpt lat="43.75624" lon="1.75757">
        <ele>117.109021</ele>
        <time>2026-08-28T18:29:52Z</time>
      </trkpt>
      <trkpt lat="43.75629" lon="1.75763">
        <ele>117.091389</ele>
        <time>2026-08-28T18:29:53Z</time>
      </trkpt>
      <trkpt lat="43.75633" lon="1.75767">
        <ele>117.074088</ele>
        <time>2026-08-28T18:29:54Z</time>
      </trkpt>
      <trkpt lat="43.75637" lon="1.75772">
        <ele>117.057506</ele>
        <time>2026-08-28T18:29:55Z</time>
      </trkpt>
      <trkpt lat="43.75641" lon="1.75776">
        <ele>117.041866</ele>
        <time>2026-08-28T18:29:56Z</time>
      </trkpt>
      <trkpt lat="43.75645" lon="1.75781">
        <ele>117.025046</ele>
        <time>2026-08-28T18:29:57Z</time>
      </trkpt>
      <trkpt lat="43.7565" lon="1.75786">
        <ele>117.008227</ele>
        <time>2026-08-28T18:29:58Z</time>
      </trkpt>
      <trkpt lat="43.75654" lon="1.75791">
        <ele>116.991281</ele>
        <time>2026-08-28T18:29:59Z</time>
      </trkpt>
      <trkpt lat="43.75658" lon="1.75796">
        <ele>116.974559</ele>
        <time>2026-08-28T18:30:00Z</time>
      </trkpt>
      <trkpt lat="43.75661" lon="1.75802">
        <ele>116.958215</ele>
        <time>2026-08-28T18:30:01Z</time>
      </trkpt>
      <trkpt lat="43.75665" lon="1.75806">
        <ele>116.94195</ele>
        <time>2026-08-28T18:30:02Z</time>
      </trkpt>
      <trkpt lat="43.75669" lon="1.75811">
        <ele>116.925684</ele>
        <time>2026-08-28T18:30:03Z</time>
      </trkpt>
      <trkpt lat="43.75673" lon="1.75816">
        <ele>116.909481</ele>
        <time>2026-08-28T18:30:04Z</time>
      </trkpt>
      <trkpt lat="43.75678" lon="1.75821">
        <ele>116.892309</ele>
        <time>2026-08-28T18:30:05Z</time>
      </trkpt>
      <trkpt lat="43.75682" lon="1.75826">
        <ele>116.875287</ele>
        <time>2026-08-28T18:30:06Z</time>
      </trkpt>
      <trkpt lat="43.75686" lon="1.75831">
        <ele>116.858493</ele>
        <time>2026-08-28T18:30:07Z</time>
      </trkpt>
      <trkpt lat="43.75689" lon="1.75836">
        <ele>116.842149</ele>
        <time>2026-08-28T18:30:08Z</time>
      </trkpt>
      <trkpt lat="43.75693" lon="1.75841">
        <ele>116.825505</ele>
        <time>2026-08-28T18:30:09Z</time>
      </trkpt>
      <trkpt lat="43.75697" lon="1.75846">
        <ele>116.80856</ele>
        <time>2026-08-28T18:30:10Z</time>
      </trkpt>
      <trkpt lat="43.75702" lon="1.75851">
        <ele>116.800654</ele>
        <time>2026-08-28T18:30:11Z</time>
      </trkpt>
      <trkpt lat="43.75706" lon="1.75856">
        <ele>116.797799</ele>
        <time>2026-08-28T18:30:12Z</time>
      </trkpt>
      <trkpt lat="43.7571" lon="1.75862">
        <ele>116.794881</ele>
        <time>2026-08-28T18:30:13Z</time>
      </trkpt>
      <trkpt lat="43.75713" lon="1.75867">
        <ele>116.792053</ele>
        <time>2026-08-28T18:30:14Z</time>
      </trkpt>
      <trkpt lat="43.75717" lon="1.75872">
        <ele>116.789235</ele>
        <time>2026-08-28T18:30:15Z</time>
      </trkpt>
      <trkpt lat="43.75721" lon="1.75877">
        <ele>116.786406</ele>
        <time>2026-08-28T18:30:16Z</time>
      </trkpt>
      <trkpt lat="43.75725" lon="1.75882">
        <ele>116.783625</ele>
        <time>2026-08-28T18:30:17Z</time>
      </trkpt>
      <trkpt lat="43.7573" lon="1.75886">
        <ele>116.780851</ele>
        <time>2026-08-28T18:30:18Z</time>
      </trkpt>
      <trkpt lat="43.75733" lon="1.75892">
        <ele>116.778033</ele>
        <time>2026-08-28T18:30:19Z</time>
      </trkpt>
      <trkpt lat="43.75737" lon="1.75897">
        <ele>116.775332</ele>
        <time>2026-08-28T18:30:20Z</time>
      </trkpt>
      <trkpt lat="43.75741" lon="1.75901">
        <ele>116.772511</ele>
        <time>2026-08-28T18:30:21Z</time>
      </trkpt>
      <trkpt lat="43.75745" lon="1.75906">
        <ele>116.769778</ele>
        <time>2026-08-28T18:30:22Z</time>
      </trkpt>
      <trkpt lat="43.7575" lon="1.7591">
        <ele>116.767045</ele>
        <time>2026-08-28T18:30:23Z</time>
      </trkpt>
      <trkpt lat="43.75754" lon="1.75915">
        <ele>116.76416</ele>
        <time>2026-08-28T18:30:24Z</time>
      </trkpt>
      <trkpt lat="43.75758" lon="1.7592">
        <ele>116.761355</ele>
        <time>2026-08-28T18:30:25Z</time>
      </trkpt>
      <trkpt lat="43.75762" lon="1.75925">
        <ele>116.75854</ele>
        <time>2026-08-28T18:30:26Z</time>
      </trkpt>
      <trkpt lat="43.75766" lon="1.7593">
        <ele>116.755646</ele>
        <time>2026-08-28T18:30:27Z</time>
      </trkpt>
      <trkpt lat="43.75771" lon="1.75935">
        <ele>116.752753</ele>
        <time>2026-08-28T18:30:28Z</time>
      </trkpt>
      <trkpt lat="43.75775" lon="1.75939">
        <ele>116.750003</ele>
        <time>2026-08-28T18:30:29Z</time>
      </trkpt>
      <trkpt lat="43.75779" lon="1.75943">
        <ele>116.747232</ele>
        <time>2026-08-28T18:30:30Z</time>
      </trkpt>
      <trkpt lat="43.75784" lon="1.75947">
        <ele>116.744458</ele>
        <time>2026-08-28T18:30:31Z</time>
      </trkpt>
      <trkpt lat="43.75788" lon="1.75951">
        <ele>116.741687</ele>
        <time>2026-08-28T18:30:32Z</time>
      </trkpt>
      <trkpt lat="43.75792" lon="1.75956">
        <ele>116.738917</ele>
        <time>2026-08-28T18:30:33Z</time>
      </trkpt>
      <trkpt lat="43.75797" lon="1.7596">
        <ele>116.736082</ele>
        <time>2026-08-28T18:30:34Z</time>
      </trkpt>
      <trkpt lat="43.75801" lon="1.75964">
        <ele>116.733203</ele>
        <time>2026-08-28T18:30:35Z</time>
      </trkpt>
      <trkpt lat="43.75806" lon="1.75968">
        <ele>116.730366</ele>
        <time>2026-08-28T18:30:36Z</time>
      </trkpt>
      <trkpt lat="43.75811" lon="1.75972">
        <ele>116.727523</ele>
        <time>2026-08-28T18:30:37Z</time>
      </trkpt>
      <trkpt lat="43.75815" lon="1.75976">
        <ele>116.724749</ele>
        <time>2026-08-28T18:30:38Z</time>
      </trkpt>
      <trkpt lat="43.7582" lon="1.7598">
        <ele>116.721868</ele>
        <time>2026-08-28T18:30:39Z</time>
      </trkpt>
      <trkpt lat="43.75825" lon="1.75984">
        <ele>116.718979</ele>
        <time>2026-08-28T18:30:40Z</time>
      </trkpt>
      <trkpt lat="43.75829" lon="1.75988">
        <ele>116.716121</ele>
        <time>2026-08-28T18:30:41Z</time>
      </trkpt>
      <trkpt lat="43.75834" lon="1.75991">
        <ele>116.713177</ele>
        <time>2026-08-28T18:30:42Z</time>
      </trkpt>
      <trkpt lat="43.75839" lon="1.75995">
        <ele>116.710251</ele>
        <time>2026-08-28T18:30:43Z</time>
      </trkpt>
      <trkpt lat="43.75844" lon="1.76">
        <ele>116.70094</ele>
        <time>2026-08-28T18:30:44Z</time>
      </trkpt>
      <trkpt lat="43.75848" lon="1.76004">
        <ele>116.681638</ele>
        <time>2026-08-28T18:30:45Z</time>
      </trkpt>
      <trkpt lat="43.75853" lon="1.76008">
        <ele>116.66277</ele>
        <time>2026-08-28T18:30:46Z</time>
      </trkpt>
      <trkpt lat="43.75857" lon="1.76012">
        <ele>116.644204</ele>
        <time>2026-08-28T18:30:47Z</time>
      </trkpt>
      <trkpt lat="43.75861" lon="1.76016">
        <ele>116.625339</ele>
        <time>2026-08-28T18:30:48Z</time>
      </trkpt>
      <trkpt lat="43.75866" lon="1.76021">
        <ele>116.606337</ele>
        <time>2026-08-28T18:30:49Z</time>
      </trkpt>
      <trkpt lat="43.7587" lon="1.76025">
        <ele>116.587046</ele>
        <time>2026-08-28T18:30:50Z</time>
      </trkpt>
      <trkpt lat="43.75874" lon="1.76029">
        <ele>116.568625</ele>
        <time>2026-08-28T18:30:51Z</time>
      </trkpt>
      <trkpt lat="43.75879" lon="1.76033">
        <ele>116.550042</ele>
        <time>2026-08-28T18:30:52Z</time>
      </trkpt>
      <trkpt lat="43.75883" lon="1.76038">
        <ele>116.53233</ele>
        <time>2026-08-28T18:30:53Z</time>
      </trkpt>
      <trkpt lat="43.75886" lon="1.76042">
        <ele>116.514785</ele>
        <time>2026-08-28T18:30:54Z</time>
      </trkpt>
      <trkpt lat="43.7589" lon="1.76046">
        <ele>116.498444</ele>
        <time>2026-08-28T18:30:55Z</time>
      </trkpt>
      <trkpt lat="43.75894" lon="1.76051">
        <ele>116.480259</ele>
        <time>2026-08-28T18:30:56Z</time>
      </trkpt>
      <trkpt lat="43.75898" lon="1.76056">
        <ele>116.461416</ele>
        <time>2026-08-28T18:30:57Z</time>
      </trkpt>
      <trkpt lat="43.75902" lon="1.76061">
        <ele>116.441873</ele>
        <time>2026-08-28T18:30:58Z</time>
      </trkpt>
      <trkpt lat="43.75906" lon="1.76065">
        <ele>116.422543</ele>
        <time>2026-08-28T18:30:59Z</time>
      </trkpt>
      <trkpt lat="43.75911" lon="1.7607">
        <ele>116.402958</ele>
        <time>2026-08-28T18:31:00Z</time>
      </trkpt>
      <trkpt lat="43.75915" lon="1.76074">
        <ele>116.383521</ele>
        <time>2026-08-28T18:31:01Z</time>
      </trkpt>
      <trkpt lat="43.7592" lon="1.76078">
        <ele>116.364446</ele>
        <time>2026-08-28T18:31:02Z</time>
      </trkpt>
      <trkpt lat="43.75924" lon="1.76082">
        <ele>116.345874</ele>
        <time>2026-08-28T18:31:03Z</time>
      </trkpt>
      <trkpt lat="43.75929" lon="1.76086">
        <ele>116.328311</ele>
        <time>2026-08-28T18:31:04Z</time>
      </trkpt>
      <trkpt lat="43.75932" lon="1.7609">
        <ele>116.311772</ele>
        <time>2026-08-28T18:31:05Z</time>
      </trkpt>
      <trkpt lat="43.75936" lon="1.76093">
        <ele>116.295817</ele>
        <time>2026-08-28T18:31:06Z</time>
      </trkpt>
      <trkpt lat="43.7594" lon="1.76097">
        <ele>116.280868</ele>
        <time>2026-08-28T18:31:07Z</time>
      </trkpt>
      <trkpt lat="43.75942" lon="1.761">
        <ele>116.266955</ele>
        <time>2026-08-28T18:31:08Z</time>
      </trkpt>
      <trkpt lat="43.75945" lon="1.76104">
        <ele>116.2538</ele>
        <time>2026-08-28T18:31:09Z</time>
      </trkpt>
      <trkpt lat="43.75947" lon="1.76108">
        <ele>116.242643</ele>
        <time>2026-08-28T18:31:10Z</time>
      </trkpt>
      <trkpt lat="43.75949" lon="1.76111">
        <ele>116.232051</ele>
        <time>2026-08-28T18:31:11Z</time>
      </trkpt>
      <trkpt lat="43.75951" lon="1.76114">
        <ele>116.219566</ele>
        <time>2026-08-28T18:31:12Z</time>
      </trkpt>
      <trkpt lat="43.75954" lon="1.76117">
        <ele>116.207811</ele>
        <time>2026-08-28T18:31:13Z</time>
      </trkpt>
      <trkpt lat="43.75958" lon="1.76119">
        <ele>116.194638</ele>
        <time>2026-08-28T18:31:14Z</time>
      </trkpt>
      <trkpt lat="43.75961" lon="1.7612">
        <ele>116.180962</ele>
        <time>2026-08-28T18:31:15Z</time>
      </trkpt>
      <trkpt lat="43.75966" lon="1.76122">
        <ele>116.165291</ele>
        <time>2026-08-28T18:31:16Z</time>
      </trkpt>
      <trkpt lat="43.7597" lon="1.76124">
        <ele>116.149954</ele>
        <time>2026-08-28T18:31:17Z</time>
      </trkpt>
      <trkpt lat="43.75974" lon="1.76127">
        <ele>116.133923</ele>
        <time>2026-08-28T18:31:18Z</time>
      </trkpt>
      <trkpt lat="43.75978" lon="1.76129">
        <ele>116.118253</ele>
        <time>2026-08-28T18:31:19Z</time>
      </trkpt>
      <trkpt lat="43.75983" lon="1.76131">
        <ele>116.101498</ele>
        <time>2026-08-28T18:31:20Z</time>
      </trkpt>
      <trkpt lat="43.75987" lon="1.76132">
        <ele>116.085448</ele>
        <time>2026-08-28T18:31:21Z</time>
      </trkpt>
      <trkpt lat="43.75991" lon="1.76134">
        <ele>116.062478</ele>
        <time>2026-08-28T18:31:22Z</time>
      </trkpt>
      <trkpt lat="43.75995" lon="1.76136">
        <ele>116.021099</ele>
        <time>2026-08-28T18:31:23Z</time>
      </trkpt>
      <trkpt lat="43.75999" lon="1.76138">
        <ele>115.982641</ele>
        <time>2026-08-28T18:31:24Z</time>
      </trkpt>
      <trkpt lat="43.76003" lon="1.7614">
        <ele>115.939004</ele>
        <time>2026-08-28T18:31:25Z</time>
      </trkpt>
      <trkpt lat="43.76008" lon="1.76143">
        <ele>115.894702</ele>
        <time>2026-08-28T18:31:26Z</time>
      </trkpt>
      <trkpt lat="43.76013" lon="1.76145">
        <ele>115.846353</ele>
        <time>2026-08-28T18:31:27Z</time>
      </trkpt>
      <trkpt lat="43.76017" lon="1.76148">
        <ele>115.797372</ele>
        <time>2026-08-28T18:31:28Z</time>
      </trkpt>
      <trkpt lat="43.76022" lon="1.76151">
        <ele>115.745501</ele>
        <time>2026-08-28T18:31:29Z</time>
      </trkpt>
      <trkpt lat="43.76027" lon="1.76153">
        <ele>115.693103</ele>
        <time>2026-08-28T18:31:30Z</time>
      </trkpt>
      <trkpt lat="43.76032" lon="1.76156">
        <ele>115.642263</ele>
        <time>2026-08-28T18:31:31Z</time>
      </trkpt>
      <trkpt lat="43.76037" lon="1.76159">
        <ele>115.590923</ele>
        <time>2026-08-28T18:31:32Z</time>
      </trkpt>
      <trkpt lat="43.76043" lon="1.76161">
        <ele>115.538296</ele>
        <time>2026-08-28T18:31:33Z</time>
      </trkpt>
      <trkpt lat="43.76048" lon="1.76164">
        <ele>115.486563</ele>
        <time>2026-08-28T18:31:34Z</time>
      </trkpt>
      <trkpt lat="43.76053" lon="1.76166">
        <ele>115.434387</ele>
        <time>2026-08-28T18:31:35Z</time>
      </trkpt>
      <trkpt lat="43.76058" lon="1.76169">
        <ele>115.382424</ele>
        <time>2026-08-28T18:31:36Z</time>
      </trkpt>
      <trkpt lat="43.76063" lon="1.76171">
        <ele>115.330026</ele>
        <time>2026-08-28T18:31:37Z</time>
      </trkpt>
      <trkpt lat="43.76069" lon="1.76174">
        <ele>115.277629</ele>
        <time>2026-08-28T18:31:38Z</time>
      </trkpt>
      <trkpt lat="43.76074" lon="1.76176">
        <ele>115.224105</ele>
        <time>2026-08-28T18:31:39Z</time>
      </trkpt>
      <trkpt lat="43.76079" lon="1.76179">
        <ele>115.171478</ele>
        <time>2026-08-28T18:31:40Z</time>
      </trkpt>
      <trkpt lat="43.76084" lon="1.76181">
        <ele>115.119081</ele>
        <time>2026-08-28T18:31:41Z</time>
      </trkpt>
      <trkpt lat="43.7609" lon="1.76184">
        <ele>115.065783</ele>
        <time>2026-08-28T18:31:42Z</time>
      </trkpt>
      <trkpt lat="43.76095" lon="1.76186">
        <ele>115.010891</ele>
        <time>2026-08-28T18:31:43Z</time>
      </trkpt>
      <trkpt lat="43.761" lon="1.76189">
        <ele>114.956691</ele>
        <time>2026-08-28T18:31:44Z</time>
      </trkpt>
      <trkpt lat="43.76106" lon="1.76191">
        <ele>114.900468</ele>
        <time>2026-08-28T18:31:45Z</time>
      </trkpt>
      <trkpt lat="43.76111" lon="1.76194">
        <ele>114.846689</ele>
        <time>2026-08-28T18:31:46Z</time>
      </trkpt>
      <trkpt lat="43.76116" lon="1.76196">
        <ele>114.796315</ele>
        <time>2026-08-28T18:31:47Z</time>
      </trkpt>
      <trkpt lat="43.76122" lon="1.76198">
        <ele>114.745467</ele>
        <time>2026-08-28T18:31:48Z</time>
      </trkpt>
      <trkpt lat="43.76127" lon="1.762">
        <ele>114.69441</ele>
        <time>2026-08-28T18:31:49Z</time>
      </trkpt>
      <trkpt lat="43.76132" lon="1.76203">
        <ele>114.642234</ele>
        <time>2026-08-28T18:31:50Z</time>
      </trkpt>
      <trkpt lat="43.76137" lon="1.76205">
        <ele>114.592526</ele>
        <time>2026-08-28T18:31:51Z</time>
      </trkpt>
      <trkpt lat="43.76142" lon="1.76208">
        <ele>114.543208</ele>
        <time>2026-08-28T18:31:52Z</time>
      </trkpt>
      <trkpt lat="43.76146" lon="1.76211">
        <ele>114.493258</ele>
        <time>2026-08-28T18:31:53Z</time>
      </trkpt>
      <trkpt lat="43.76152" lon="1.76213">
        <ele>114.440631</ele>
        <time>2026-08-28T18:31:54Z</time>
      </trkpt>
      <trkpt lat="43.76157" lon="1.76216">
        <ele>114.388898</ele>
        <time>2026-08-28T18:31:55Z</time>
      </trkpt>
      <trkpt lat="43.76162" lon="1.76218">
        <ele>114.35804</ele>
        <time>2026-08-28T18:31:56Z</time>
      </trkpt>
      <trkpt lat="43.76167" lon="1.76221">
        <ele>114.350022</ele>
        <time>2026-08-28T18:31:57Z</time>
      </trkpt>
      <trkpt lat="43.76172" lon="1.76223">
        <ele>114.342071</ele>
        <time>2026-08-28T18:31:58Z</time>
      </trkpt>
      <trkpt lat="43.76177" lon="1.76225">
        <ele>114.333977</ele>
        <time>2026-08-28T18:31:59Z</time>
      </trkpt>
      <trkpt lat="43.76183" lon="1.76228">
        <ele>114.325571</ele>
        <time>2026-08-28T18:32:00Z</time>
      </trkpt>
      <trkpt lat="43.76188" lon="1.7623">
        <ele>114.31692</ele>
        <time>2026-08-28T18:32:01Z</time>
      </trkpt>
      <trkpt lat="43.76193" lon="1.76233">
        <ele>114.308691</ele>
        <time>2026-08-28T18:32:02Z</time>
      </trkpt>
      <trkpt lat="43.76198" lon="1.76236">
        <ele>114.300602</ele>
        <time>2026-08-28T18:32:03Z</time>
      </trkpt>
      <trkpt lat="43.76204" lon="1.76238">
        <ele>114.292408</ele>
        <time>2026-08-28T18:32:04Z</time>
      </trkpt>
      <trkpt lat="43.76209" lon="1.76241">
        <ele>114.284179</ele>
        <time>2026-08-28T18:32:05Z</time>
      </trkpt>
      <trkpt lat="43.76214" lon="1.76243">
        <ele>114.276053</ele>
        <time>2026-08-28T18:32:06Z</time>
      </trkpt>
      <trkpt lat="43.76219" lon="1.76245">
        <ele>114.267753</ele>
        <time>2026-08-28T18:32:07Z</time>
      </trkpt>
      <trkpt lat="43.76225" lon="1.76248">
        <ele>114.259231</ele>
        <time>2026-08-28T18:32:08Z</time>
      </trkpt>
      <trkpt lat="43.7623" lon="1.7625">
        <ele>114.250679</ele>
        <time>2026-08-28T18:32:09Z</time>
      </trkpt>
      <trkpt lat="43.76236" lon="1.76252">
        <ele>114.242063</ele>
        <time>2026-08-28T18:32:10Z</time>
      </trkpt>
      <trkpt lat="43.76241" lon="1.76255">
        <ele>114.233588</ele>
        <time>2026-08-28T18:32:11Z</time>
      </trkpt>
      <trkpt lat="43.76247" lon="1.76257">
        <ele>114.225239</ele>
        <time>2026-08-28T18:32:12Z</time>
      </trkpt>
      <trkpt lat="43.76252" lon="1.76259">
        <ele>114.216622</ele>
        <time>2026-08-28T18:32:13Z</time>
      </trkpt>
      <trkpt lat="43.76257" lon="1.76262">
        <ele>114.208702</ele>
        <time>2026-08-28T18:32:14Z</time>
      </trkpt>
      <trkpt lat="43.76262" lon="1.76264">
        <ele>114.200649</ele>
        <time>2026-08-28T18:32:15Z</time>
      </trkpt>
      <trkpt lat="43.76267" lon="1.76267">
        <ele>114.192736</ele>
        <time>2026-08-28T18:32:16Z</time>
      </trkpt>
      <trkpt lat="43.76272" lon="1.7627">
        <ele>114.185033</ele>
        <time>2026-08-28T18:32:17Z</time>
      </trkpt>
      <trkpt lat="43.76276" lon="1.76273">
        <ele>114.177533</ele>
        <time>2026-08-28T18:32:18Z</time>
      </trkpt>
      <trkpt lat="43.76281" lon="1.76277">
        <ele>114.169538</ele>
        <time>2026-08-28T18:32:19Z</time>
      </trkpt>
      <trkpt lat="43.76286" lon="1.76281">
        <ele>114.161071</ele>
        <time>2026-08-28T18:32:20Z</time>
      </trkpt>
      <trkpt lat="43.76291" lon="1.76284">
        <ele>114.152763</ele>
        <time>2026-08-28T18:32:21Z</time>
      </trkpt>
      <trkpt lat="43.76296" lon="1.76288">
        <ele>114.144586</ele>
        <time>2026-08-28T18:32:22Z</time>
      </trkpt>
      <trkpt lat="43.763" lon="1.76291">
        <ele>114.136773</ele>
        <time>2026-08-28T18:32:23Z</time>
      </trkpt>
      <trkpt lat="43.76305" lon="1.76295">
        <ele>114.128725</ele>
        <time>2026-08-28T18:32:24Z</time>
      </trkpt>
      <trkpt lat="43.76309" lon="1.76299">
        <ele>114.120766</ele>
        <time>2026-08-28T18:32:25Z</time>
      </trkpt>
      <trkpt lat="43.76314" lon="1.76303">
        <ele>114.113004</ele>
        <time>2026-08-28T18:32:26Z</time>
      </trkpt>
      <trkpt lat="43.76318" lon="1.76307">
        <ele>114.104925</ele>
        <time>2026-08-28T18:32:27Z</time>
      </trkpt>
      <trkpt lat="43.76323" lon="1.76311">
        <ele>114.097007</ele>
        <time>2026-08-28T18:32:28Z</time>
      </trkpt>
      <trkpt lat="43.76328" lon="1.76314">
        <ele>114.022849</ele>
        <time>2026-08-28T18:32:29Z</time>
      </trkpt>
      <trkpt lat="43.76332" lon="1.76318">
        <ele>113.909875</ele>
        <time>2026-08-28T18:32:30Z</time>
      </trkpt>
      <trkpt lat="43.76336" lon="1.76322">
        <ele>113.795653</ele>
        <time>2026-08-28T18:32:31Z</time>
      </trkpt>
      <trkpt lat="43.76341" lon="1.76326">
        <ele>113.685387</ele>
        <time>2026-08-28T18:32:32Z</time>
      </trkpt>
      <trkpt lat="43.76345" lon="1.76329">
        <ele>113.576157</ele>
        <time>2026-08-28T18:32:33Z</time>
      </trkpt>
      <trkpt lat="43.76349" lon="1.76332">
        <ele>113.474964</ele>
        <time>2026-08-28T18:32:34Z</time>
      </trkpt>
      <trkpt lat="43.76353" lon="1.76336">
        <ele>113.366402</ele>
        <time>2026-08-28T18:32:35Z</time>
      </trkpt>
      <trkpt lat="43.76357" lon="1.76339">
        <ele>113.265951</ele>
        <time>2026-08-28T18:32:36Z</time>
      </trkpt>
      <trkpt lat="43.76361" lon="1.76343">
        <ele>113.169223</ele>
        <time>2026-08-28T18:32:37Z</time>
      </trkpt>
      <trkpt lat="43.76364" lon="1.76345">
        <ele>113.076067</ele>
        <time>2026-08-28T18:32:38Z</time>
      </trkpt>
      <trkpt lat="43.76368" lon="1.76348">
        <ele>112.984753</ele>
        <time>2026-08-28T18:32:39Z</time>
      </trkpt>
      <trkpt lat="43.76371" lon="1.76351">
        <ele>112.89344</ele>
        <time>2026-08-28T18:32:40Z</time>
      </trkpt>
      <trkpt lat="43.76374" lon="1.76354">
        <ele>112.810317</ele>
        <time>2026-08-28T18:32:41Z</time>
      </trkpt>
      <trkpt lat="43.76378" lon="1.76357">
        <ele>112.726264</ele>
        <time>2026-08-28T18:32:42Z</time>
      </trkpt>
      <trkpt lat="43.76381" lon="1.7636">
        <ele>112.64848</ele>
        <time>2026-08-28T18:32:43Z</time>
      </trkpt>
      <trkpt lat="43.76384" lon="1.76362">
        <ele>112.576554</ele>
        <time>2026-08-28T18:32:44Z</time>
      </trkpt>
      <trkpt lat="43.76386" lon="1.76364">
        <ele>112.505003</ele>
        <time>2026-08-28T18:32:45Z</time>
      </trkpt>
      <trkpt lat="43.76389" lon="1.76367">
        <ele>112.428919</ele>
        <time>2026-08-28T18:32:46Z</time>
      </trkpt>
      <trkpt lat="43.76392" lon="1.7637">
        <ele>112.348508</ele>
        <time>2026-08-28T18:32:47Z</time>
      </trkpt>
      <trkpt lat="43.76396" lon="1.76374">
        <ele>112.252735</ele>
        <time>2026-08-28T18:32:48Z</time>
      </trkpt>
      <trkpt lat="43.76399" lon="1.76377">
        <ele>112.15243</ele>
        <time>2026-08-28T18:32:49Z</time>
      </trkpt>
      <trkpt lat="43.76403" lon="1.76382">
        <ele>112.046374</ele>
        <time>2026-08-28T18:32:50Z</time>
      </trkpt>
      <trkpt lat="43.76407" lon="1.76386">
        <ele>111.930624</ele>
        <time>2026-08-28T18:32:51Z</time>
      </trkpt>
      <trkpt lat="43.76412" lon="1.76391">
        <ele>111.806743</ele>
        <time>2026-08-28T18:32:52Z</time>
      </trkpt>
      <trkpt lat="43.76416" lon="1.76395">
        <ele>111.6811</ele>
        <time>2026-08-28T18:32:53Z</time>
      </trkpt>
      <trkpt lat="43.76421" lon="1.764">
        <ele>111.555515</ele>
        <time>2026-08-28T18:32:54Z</time>
      </trkpt>
      <trkpt lat="43.76426" lon="1.76404">
        <ele>111.433535</ele>
        <time>2026-08-28T18:32:55Z</time>
      </trkpt>
      <trkpt lat="43.7643" lon="1.76408">
        <ele>111.317884</ele>
        <time>2026-08-28T18:32:56Z</time>
      </trkpt>
      <trkpt lat="43.76434" lon="1.76413">
        <ele>111.207991</ele>
        <time>2026-08-28T18:32:57Z</time>
      </trkpt>
      <trkpt lat="43.76436" lon="1.76418">
        <ele>111.103743</ele>
        <time>2026-08-28T18:32:58Z</time>
      </trkpt>
      <trkpt lat="43.7644" lon="1.76423">
        <ele>110.99318</ele>
        <time>2026-08-28T18:32:59Z</time>
      </trkpt>
      <trkpt lat="43.76445" lon="1.76427">
        <ele>110.878362</ele>
        <time>2026-08-28T18:33:00Z</time>
      </trkpt>
      <trkpt lat="43.7645" lon="1.7643">
        <ele>110.751287</ele>
        <time>2026-08-28T18:33:01Z</time>
      </trkpt>
      <trkpt lat="43.76456" lon="1.76433">
        <ele>110.606943</ele>
        <time>2026-08-28T18:33:02Z</time>
      </trkpt>
      <trkpt lat="43.76463" lon="1.76435">
        <ele>110.45019</ele>
        <time>2026-08-28T18:33:03Z</time>
      </trkpt>
      <trkpt lat="43.7647" lon="1.76437">
        <ele>110.303444</ele>
        <time>2026-08-28T18:33:04Z</time>
      </trkpt>
      <trkpt lat="43.76476" lon="1.76438">
        <ele>110.161501</ele>
        <time>2026-08-28T18:33:05Z</time>
      </trkpt>
      <trkpt lat="43.76483" lon="1.76439">
        <ele>110.128897</ele>
        <time>2026-08-28T18:33:06Z</time>
      </trkpt>
      <trkpt lat="43.76489" lon="1.76439">
        <ele>110.115169</ele>
        <time>2026-08-28T18:33:07Z</time>
      </trkpt>
      <trkpt lat="43.76495" lon="1.7644">
        <ele>110.102264</ele>
        <time>2026-08-28T18:33:08Z</time>
      </trkpt>
      <trkpt lat="43.76501" lon="1.76441">
        <ele>110.089577</ele>
        <time>2026-08-28T18:33:09Z</time>
      </trkpt>
      <trkpt lat="43.76506" lon="1.76442">
        <ele>110.077457</ele>
        <time>2026-08-28T18:33:10Z</time>
      </trkpt>
      <trkpt lat="43.76512" lon="1.76443">
        <ele>110.065284</ele>
        <time>2026-08-28T18:33:11Z</time>
      </trkpt>
      <trkpt lat="43.76517" lon="1.76444">
        <ele>110.054264</ele>
        <time>2026-08-28T18:33:12Z</time>
      </trkpt>
      <trkpt lat="43.76521" lon="1.76445">
        <ele>110.043698</ele>
        <time>2026-08-28T18:33:13Z</time>
      </trkpt>
      <trkpt lat="43.76526" lon="1.76446">
        <ele>110.033295</ele>
        <time>2026-08-28T18:33:14Z</time>
      </trkpt>
      <trkpt lat="43.7653" lon="1.76448">
        <ele>110.024139</ele>
        <time>2026-08-28T18:33:15Z</time>
      </trkpt>
      <trkpt lat="43.76534" lon="1.76449">
        <ele>110.015689</ele>
        <time>2026-08-28T18:33:16Z</time>
      </trkpt>
      <trkpt lat="43.76538" lon="1.7645">
        <ele>110.007537</ele>
        <time>2026-08-28T18:33:17Z</time>
      </trkpt>
      <trkpt lat="43.76541" lon="1.76451">
        <ele>109.999146</ele>
        <time>2026-08-28T18:33:18Z</time>
      </trkpt>
      <trkpt lat="43.76545" lon="1.76452">
        <ele>109.991333</ele>
        <time>2026-08-28T18:33:19Z</time>
      </trkpt>
      <trkpt lat="43.76548" lon="1.76452">
        <ele>109.984735</ele>
        <time>2026-08-28T18:33:20Z</time>
      </trkpt>
      <trkpt lat="43.7655" lon="1.76453">
        <ele>109.980034</ele>
        <time>2026-08-28T18:33:21Z</time>
      </trkpt>
      <trkpt lat="43.76551" lon="1.76453">
        <ele>109.977403</ele>
        <time>2026-08-28T18:33:22Z</time>
      </trkpt>
      <trkpt lat="43.76551" lon="1.76453">
        <ele>109.976866</ele>
        <time>2026-08-28T18:33:23Z</time>
      </trkpt>
      <trkpt lat="43.76551" lon="1.76453">
        <ele>109.97606</ele>
        <time>2026-08-28T18:33:24Z</time>
      </trkpt>
      <trkpt lat="43.76559" lon="1.76453">
        <ele>109.959046</ele>
        <time>2026-08-28T18:34:59Z</time>
      </trkpt>
      <trkpt lat="43.76562" lon="1.76453">
        <ele>109.953386</ele>
        <time>2026-08-28T18:35:00Z</time>
      </trkpt>
      <trkpt lat="43.76564" lon="1.76453">
        <ele>109.947727</ele>
        <time>2026-08-28T18:35:01Z</time>
      </trkpt>
      <trkpt lat="43.76567" lon="1.76453">
        <ele>109.941344</ele>
        <time>2026-08-28T18:35:02Z</time>
      </trkpt>
      <trkpt lat="43.7657" lon="1.76454">
        <ele>109.935087</ele>
        <time>2026-08-28T18:35:03Z</time>
      </trkpt>
      <trkpt lat="43.76573" lon="1.76455">
        <ele>109.927842</ele>
        <time>2026-08-28T18:35:04Z</time>
      </trkpt>
      <trkpt lat="43.76576" lon="1.76455">
        <ele>109.921192</ele>
        <time>2026-08-28T18:35:05Z</time>
      </trkpt>
      <trkpt lat="43.7658" lon="1.76456">
        <ele>109.91375</ele>
        <time>2026-08-28T18:35:06Z</time>
      </trkpt>
      <trkpt lat="43.76583" lon="1.76457">
        <ele>109.906457</ele>
        <time>2026-08-28T18:35:07Z</time>
      </trkpt>
      <trkpt lat="43.76586" lon="1.76458">
        <ele>109.899104</ele>
        <time>2026-08-28T18:35:08Z</time>
      </trkpt>
      <trkpt lat="43.76589" lon="1.76459">
        <ele>109.892006</ele>
        <time>2026-08-28T18:35:09Z</time>
      </trkpt>
      <trkpt lat="43.76593" lon="1.7646">
        <ele>109.884579</ele>
        <time>2026-08-28T18:35:10Z</time>
      </trkpt>
      <trkpt lat="43.76596" lon="1.76461">
        <ele>109.87692</ele>
        <time>2026-08-28T18:35:11Z</time>
      </trkpt>
      <trkpt lat="43.76599" lon="1.76461">
        <ele>109.87036</ele>
        <time>2026-08-28T18:35:12Z</time>
      </trkpt>
      <trkpt lat="43.76602" lon="1.76462">
        <ele>109.863252</ele>
        <time>2026-08-28T18:35:13Z</time>
      </trkpt>
      <trkpt lat="43.76605" lon="1.76463">
        <ele>109.856497</ele>
        <time>2026-08-28T18:35:14Z</time>
      </trkpt>
      <trkpt lat="43.76608" lon="1.76465">
        <ele>109.850629</ele>
        <time>2026-08-28T18:35:15Z</time>
      </trkpt>
      <trkpt lat="43.7661" lon="1.76466">
        <ele>109.845074</ele>
        <time>2026-08-28T18:35:16Z</time>
      </trkpt>
      <trkpt lat="43.76612" lon="1.76467">
        <ele>109.840592</ele>
        <time>2026-08-28T18:35:17Z</time>
      </trkpt>
      <trkpt lat="43.76614" lon="1.76469">
        <ele>109.836173</ele>
        <time>2026-08-28T18:35:18Z</time>
      </trkpt>
      <trkpt lat="43.76616" lon="1.76469">
        <ele>109.831179</ele>
        <time>2026-08-28T18:35:19Z</time>
      </trkpt>
      <trkpt lat="43.76618" lon="1.76471">
        <ele>109.825469</ele>
        <time>2026-08-28T18:35:20Z</time>
      </trkpt>
      <trkpt lat="43.76621" lon="1.76472">
        <ele>109.820635</ele>
        <time>2026-08-28T18:35:21Z</time>
      </trkpt>
      <trkpt lat="43.76623" lon="1.76472">
        <ele>109.816211</ele>
        <time>2026-08-28T18:35:22Z</time>
      </trkpt>
      <trkpt lat="43.76625" lon="1.76472">
        <ele>109.811166</ele>
        <time>2026-08-28T18:35:23Z</time>
      </trkpt>
      <trkpt lat="43.76627" lon="1.76473">
        <ele>109.806354</ele>
        <time>2026-08-28T18:35:24Z</time>
      </trkpt>
      <trkpt lat="43.76629" lon="1.76473">
        <ele>109.801473</ele>
        <time>2026-08-28T18:35:25Z</time>
      </trkpt>
      <trkpt lat="43.76632" lon="1.76474">
        <ele>109.79619</ele>
        <time>2026-08-28T18:35:26Z</time>
      </trkpt>
      <trkpt lat="43.76634" lon="1.76474">
        <ele>109.790495</ele>
        <time>2026-08-28T18:35:27Z</time>
      </trkpt>
      <trkpt lat="43.76637" lon="1.76475">
        <ele>109.785428</ele>
        <time>2026-08-28T18:35:28Z</time>
      </trkpt>
      <trkpt lat="43.76639" lon="1.76476">
        <ele>109.780476</ele>
        <time>2026-08-28T18:35:29Z</time>
      </trkpt>
      <trkpt lat="43.76641" lon="1.76476">
        <ele>109.775026</ele>
        <time>2026-08-28T18:35:30Z</time>
      </trkpt>
      <trkpt lat="43.76643" lon="1.76476">
        <ele>109.770145</ele>
        <time>2026-08-28T18:35:31Z</time>
      </trkpt>
      <trkpt lat="43.76646" lon="1.76477">
        <ele>109.765264</ele>
        <time>2026-08-28T18:35:32Z</time>
      </trkpt>
      <trkpt lat="43.76648" lon="1.76477">
        <ele>109.759334</ele>
        <time>2026-08-28T18:35:33Z</time>
      </trkpt>
      <trkpt lat="43.76651" lon="1.76478">
        <ele>109.754101</ele>
        <time>2026-08-28T18:35:34Z</time>
      </trkpt>
      <trkpt lat="43.76654" lon="1.76478">
        <ele>109.769325</ele>
        <time>2026-08-28T18:35:35Z</time>
      </trkpt>
      <trkpt lat="43.76656" lon="1.76477">
        <ele>109.837079</ele>
        <time>2026-08-28T18:35:36Z</time>
      </trkpt>
      <trkpt lat="43.76657" lon="1.76475">
        <ele>109.890461</ele>
        <time>2026-08-28T18:35:37Z</time>
      </trkpt>
      <trkpt lat="43.76659" lon="1.76473">
        <ele>109.962314</ele>
        <time>2026-08-28T18:35:38Z</time>
      </trkpt>
      <trkpt lat="43.76659" lon="1.76469">
        <ele>110.028269</ele>
        <time>2026-08-28T18:35:39Z</time>
      </trkpt>
      <trkpt lat="43.76659" lon="1.76467">
        <ele>110.080795</ele>
        <time>2026-08-28T18:35:40Z</time>
      </trkpt>
      <trkpt lat="43.76658" lon="1.76465">
        <ele>110.136361</ele>
        <time>2026-08-28T18:35:41Z</time>
      </trkpt>
      <trkpt lat="43.76656" lon="1.76463">
        <ele>110.194906</ele>
        <time>2026-08-28T18:35:42Z</time>
      </trkpt>
      <trkpt lat="43.76654" lon="1.76462">
        <ele>110.246742</ele>
        <time>2026-08-28T18:35:43Z</time>
      </trkpt>
      <trkpt lat="43.76652" lon="1.76461">
        <ele>110.303524</ele>
        <time>2026-08-28T18:35:44Z</time>
      </trkpt>
      <trkpt lat="43.76651" lon="1.76459">
        <ele>110.353494</ele>
        <time>2026-08-28T18:35:45Z</time>
      </trkpt>
      <trkpt lat="43.76649" lon="1.76458">
        <ele>110.404741</ele>
        <time>2026-08-28T18:35:46Z</time>
      </trkpt>
      <trkpt lat="43.76647" lon="1.76457">
        <ele>110.464907</ele>
        <time>2026-08-28T18:35:47Z</time>
      </trkpt>
      <trkpt lat="43.76645" lon="1.76456">
        <ele>110.519767</ele>
        <time>2026-08-28T18:35:48Z</time>
      </trkpt>
      <trkpt lat="43.76644" lon="1.76455">
        <ele>110.571013</ele>
        <time>2026-08-28T18:35:49Z</time>
      </trkpt>
      <trkpt lat="43.76642" lon="1.76453">
        <ele>110.627171</ele>
        <time>2026-08-28T18:35:50Z</time>
      </trkpt>
      <trkpt lat="43.76641" lon="1.76451">
        <ele>110.679904</ele>
        <time>2026-08-28T18:35:51Z</time>
      </trkpt>
      <trkpt lat="43.76641" lon="1.76448">
        <ele>110.743981</ele>
        <time>2026-08-28T18:35:52Z</time>
      </trkpt>
      <trkpt lat="43.76641" lon="1.76444">
        <ele>110.809872</ele>
        <time>2026-08-28T18:35:53Z</time>
      </trkpt>
      <trkpt lat="43.76641" lon="1.76441">
        <ele>110.869785</ele>
        <time>2026-08-28T18:35:54Z</time>
      </trkpt>
      <trkpt lat="43.76642" lon="1.76438">
        <ele>110.9351</ele>
        <time>2026-08-28T18:35:55Z</time>
      </trkpt>
      <trkpt lat="43.76642" lon="1.76435">
        <ele>110.993999</ele>
        <time>2026-08-28T18:35:56Z</time>
      </trkpt>
      <trkpt lat="43.76643" lon="1.76433">
        <ele>111.048452</ele>
        <time>2026-08-28T18:35:57Z</time>
      </trkpt>
      <trkpt lat="43.76644" lon="1.7643">
        <ele>111.101185</ele>
        <time>2026-08-28T18:35:58Z</time>
      </trkpt>
      <trkpt lat="43.76644" lon="1.76427">
        <ele>111.173426</ele>
        <time>2026-08-28T18:35:59Z</time>
      </trkpt>
      <trkpt lat="43.76645" lon="1.76423">
        <ele>111.248568</ele>
        <time>2026-08-28T18:36:00Z</time>
      </trkpt>
      <trkpt lat="43.76646" lon="1.7642">
        <ele>111.310499</ele>
        <time>2026-08-28T18:36:01Z</time>
      </trkpt>
      <trkpt lat="43.76647" lon="1.76417">
        <ele>111.378592</ele>
        <time>2026-08-28T18:36:02Z</time>
      </trkpt>
      <trkpt lat="43.76648" lon="1.76414">
        <ele>111.445713</ele>
        <time>2026-08-28T18:36:03Z</time>
      </trkpt>
      <trkpt lat="43.76649" lon="1.76411">
        <ele>111.513268</ele>
        <time>2026-08-28T18:36:04Z</time>
      </trkpt>
      <trkpt lat="43.7665" lon="1.76408">
        <ele>111.585509</ele>
        <time>2026-08-28T18:36:05Z</time>
      </trkpt>
      <trkpt lat="43.76651" lon="1.76404">
        <ele>111.669091</ele>
        <time>2026-08-28T18:36:06Z</time>
      </trkpt>
      <trkpt lat="43.76652" lon="1.764">
        <ele>111.750769</ele>
        <time>2026-08-28T18:36:07Z</time>
      </trkpt>
      <trkpt lat="43.76653" lon="1.76396">
        <ele>111.842734</ele>
        <time>2026-08-28T18:36:08Z</time>
      </trkpt>
      <trkpt lat="43.76654" lon="1.76391">
        <ele>111.936661</ele>
        <time>2026-08-28T18:36:09Z</time>
      </trkpt>
      <trkpt lat="43.76655" lon="1.76387">
        <ele>112.031437</ele>
        <time>2026-08-28T18:36:10Z</time>
      </trkpt>
      <trkpt lat="43.76656" lon="1.76382">
        <ele>112.120565</ele>
        <time>2026-08-28T18:36:11Z</time>
      </trkpt>
      <trkpt lat="43.76658" lon="1.76378">
        <ele>112.211724</ele>
        <time>2026-08-28T18:36:12Z</time>
      </trkpt>
      <trkpt lat="43.76659" lon="1.76374">
        <ele>112.301831</ele>
        <time>2026-08-28T18:36:13Z</time>
      </trkpt>
      <trkpt lat="43.7666" lon="1.7637">
        <ele>112.394827</ele>
        <time>2026-08-28T18:36:14Z</time>
      </trkpt>
      <trkpt lat="43.76661" lon="1.76365">
        <ele>112.488656</ele>
        <time>2026-08-28T18:36:15Z</time>
      </trkpt>
      <trkpt lat="43.76663" lon="1.76361">
        <ele>112.581652</ele>
        <time>2026-08-28T18:36:16Z</time>
      </trkpt>
      <trkpt lat="43.76664" lon="1.76357">
        <ele>112.678341</ele>
        <time>2026-08-28T18:36:17Z</time>
      </trkpt>
      <trkpt lat="43.76665" lon="1.76352">
        <ele>112.77123</ele>
        <time>2026-08-28T18:36:18Z</time>
      </trkpt>
      <trkpt lat="43.76665" lon="1.76349">
        <ele>112.839114</ele>
        <time>2026-08-28T18:36:19Z</time>
      </trkpt>
      <trkpt lat="43.76666" lon="1.76346">
        <ele>112.905816</ele>
        <time>2026-08-28T18:36:20Z</time>
      </trkpt>
      <trkpt lat="43.76667" lon="1.76342">
        <ele>112.979054</ele>
        <time>2026-08-28T18:36:21Z</time>
      </trkpt>
      <trkpt lat="43.76668" lon="1.76339">
        <ele>113.045732</ele>
        <time>2026-08-28T18:36:22Z</time>
      </trkpt>
      <trkpt lat="43.7667" lon="1.76336">
        <ele>113.128368</ele>
        <time>2026-08-28T18:36:23Z</time>
      </trkpt>
      <trkpt lat="43.76671" lon="1.76332">
        <ele>113.217849</ele>
        <time>2026-08-28T18:36:24Z</time>
      </trkpt>
      <trkpt lat="43.76673" lon="1.76328">
        <ele>113.31258</ele>
        <time>2026-08-28T18:36:25Z</time>
      </trkpt>
      <trkpt lat="43.76675" lon="1.76323">
        <ele>113.413894</ele>
        <time>2026-08-28T18:36:26Z</time>
      </trkpt>
      <trkpt lat="43.76676" lon="1.76319">
        <ele>113.516166</ele>
        <time>2026-08-28T18:36:27Z</time>
      </trkpt>
      <trkpt lat="43.76679" lon="1.76315">
        <ele>113.619737</ele>
        <time>2026-08-28T18:36:28Z</time>
      </trkpt>
      <trkpt lat="43.76681" lon="1.76311">
        <ele>113.711229</ele>
        <time>2026-08-28T18:36:29Z</time>
      </trkpt>
      <trkpt lat="43.76683" lon="1.76308">
        <ele>113.787303</ele>
        <time>2026-08-28T18:36:30Z</time>
      </trkpt>
      <trkpt lat="43.76684" lon="1.76305">
        <ele>113.87145</ele>
        <time>2026-08-28T18:36:31Z</time>
      </trkpt>
      <trkpt lat="43.76686" lon="1.76301">
        <ele>113.966961</ele>
        <time>2026-08-28T18:36:32Z</time>
      </trkpt>
      <trkpt lat="43.76688" lon="1.76297">
        <ele>114.059296</ele>
        <time>2026-08-28T18:36:33Z</time>
      </trkpt>
      <trkpt lat="43.7669" lon="1.76293">
        <ele>114.155347</ele>
        <time>2026-08-28T18:36:34Z</time>
      </trkpt>
      <trkpt lat="43.76692" lon="1.76288">
        <ele>114.265604</ele>
        <time>2026-08-28T18:36:35Z</time>
      </trkpt>
      <trkpt lat="43.76694" lon="1.76283">
        <ele>114.37132</ele>
        <time>2026-08-28T18:36:36Z</time>
      </trkpt>
      <trkpt lat="43.76695" lon="1.76279">
        <ele>114.477492</ele>
        <time>2026-08-28T18:36:37Z</time>
      </trkpt>
      <trkpt lat="43.76697" lon="1.76274">
        <ele>114.581149</ele>
        <time>2026-08-28T18:36:38Z</time>
      </trkpt>
      <trkpt lat="43.76699" lon="1.76269">
        <ele>114.689047</ele>
        <time>2026-08-28T18:36:39Z</time>
      </trkpt>
      <trkpt lat="43.767" lon="1.76265">
        <ele>114.712761</ele>
        <time>2026-08-28T18:36:40Z</time>
      </trkpt>
      <trkpt lat="43.76702" lon="1.76259">
        <ele>114.703897</ele>
        <time>2026-08-28T18:36:41Z</time>
      </trkpt>
      <trkpt lat="43.76703" lon="1.76254">
        <ele>114.695261</ele>
        <time>2026-08-28T18:36:42Z</time>
      </trkpt>
      <trkpt lat="43.76705" lon="1.76249">
        <ele>114.686559</ele>
        <time>2026-08-28T18:36:43Z</time>
      </trkpt>
      <trkpt lat="43.76707" lon="1.76245">
        <ele>114.678379</ele>
        <time>2026-08-28T18:36:44Z</time>
      </trkpt>
      <trkpt lat="43.76708" lon="1.7624">
        <ele>114.670098</ele>
        <time>2026-08-28T18:36:45Z</time>
      </trkpt>
      <trkpt lat="43.7671" lon="1.76235">
        <ele>114.661777</ele>
        <time>2026-08-28T18:36:46Z</time>
      </trkpt>
      <trkpt lat="43.76712" lon="1.76231">
        <ele>114.653837</ele>
        <time>2026-08-28T18:36:47Z</time>
      </trkpt>
      <trkpt lat="43.76713" lon="1.76227">
        <ele>114.646421</ele>
        <time>2026-08-28T18:36:48Z</time>
      </trkpt>
      <trkpt lat="43.76715" lon="1.76222">
        <ele>114.638431</ele>
        <time>2026-08-28T18:36:49Z</time>
      </trkpt>
      <trkpt lat="43.76716" lon="1.76218">
        <ele>114.630906</ele>
        <time>2026-08-28T18:36:50Z</time>
      </trkpt>
      <trkpt lat="43.76717" lon="1.76213">
        <ele>114.623381</ele>
        <time>2026-08-28T18:36:51Z</time>
      </trkpt>
      <trkpt lat="43.76719" lon="1.7621">
        <ele>114.616628</ele>
        <time>2026-08-28T18:36:52Z</time>
      </trkpt>
      <trkpt lat="43.7672" lon="1.76205">
        <ele>114.609395</ele>
        <time>2026-08-28T18:36:53Z</time>
      </trkpt>
      <trkpt lat="43.76721" lon="1.76201">
        <ele>114.602685</ele>
        <time>2026-08-28T18:36:54Z</time>
      </trkpt>
      <trkpt lat="43.76722" lon="1.76198">
        <ele>114.595975</ele>
        <time>2026-08-28T18:36:55Z</time>
      </trkpt>
      <trkpt lat="43.76724" lon="1.76194">
        <ele>114.589081</ele>
        <time>2026-08-28T18:36:56Z</time>
      </trkpt>
      <trkpt lat="43.76725" lon="1.7619">
        <ele>114.582425</ele>
        <time>2026-08-28T18:36:57Z</time>
      </trkpt>
      <trkpt lat="43.76726" lon="1.76186">
        <ele>114.574958</ele>
        <time>2026-08-28T18:36:58Z</time>
      </trkpt>
      <trkpt lat="43.76728" lon="1.76181">
        <ele>114.567337</ele>
        <time>2026-08-28T18:36:59Z</time>
      </trkpt>
      <trkpt lat="43.7673" lon="1.76177">
        <ele>114.559222</ele>
        <time>2026-08-28T18:37:00Z</time>
      </trkpt>
      <trkpt lat="43.76732" lon="1.76173">
        <ele>114.551355</ele>
        <time>2026-08-28T18:37:01Z</time>
      </trkpt>
      <trkpt lat="43.76734" lon="1.76168">
        <ele>114.542829</ele>
        <time>2026-08-28T18:37:02Z</time>
      </trkpt>
      <trkpt lat="43.76735" lon="1.76163">
        <ele>114.534649</ele>
        <time>2026-08-28T18:37:03Z</time>
      </trkpt>
      <trkpt lat="43.76737" lon="1.76159">
        <ele>114.526124</ele>
        <time>2026-08-28T18:37:04Z</time>
      </trkpt>
      <trkpt lat="43.76739" lon="1.76154">
        <ele>114.517624</ele>
        <time>2026-08-28T18:37:05Z</time>
      </trkpt>
      <trkpt lat="43.76741" lon="1.76149">
        <ele>114.509343</ele>
        <time>2026-08-28T18:37:06Z</time>
      </trkpt>
      <trkpt lat="43.76743" lon="1.76145">
        <ele>114.500781</ele>
        <time>2026-08-28T18:37:07Z</time>
      </trkpt>
      <trkpt lat="43.76745" lon="1.7614">
        <ele>114.4927</ele>
        <time>2026-08-28T18:37:08Z</time>
      </trkpt>
      <trkpt lat="43.76746" lon="1.76136">
        <ele>114.48494</ele>
        <time>2026-08-28T18:37:09Z</time>
      </trkpt>
      <trkpt lat="43.76748" lon="1.76131">
        <ele>114.477474</ele>
        <time>2026-08-28T18:37:10Z</time>
      </trkpt>
      <trkpt lat="43.76749" lon="1.76127">
        <ele>114.469772</ele>
        <time>2026-08-28T18:37:11Z</time>
      </trkpt>
      <trkpt lat="43.76751" lon="1.76123">
        <ele>114.462355</ele>
        <time>2026-08-28T18:37:12Z</time>
      </trkpt>
      <trkpt lat="43.76752" lon="1.76118">
        <ele>114.454415</ele>
        <time>2026-08-28T18:37:13Z</time>
      </trkpt>
      <trkpt lat="43.76754" lon="1.76114">
        <ele>114.446377</ele>
        <time>2026-08-28T18:37:14Z</time>
      </trkpt>
      <trkpt lat="43.76756" lon="1.76109">
        <ele>114.438234</ele>
        <time>2026-08-28T18:37:15Z</time>
      </trkpt>
      <trkpt lat="43.76758" lon="1.76105">
        <ele>114.430119</ele>
        <time>2026-08-28T18:37:16Z</time>
      </trkpt>
      <trkpt lat="43.76759" lon="1.761">
        <ele>114.421698</ele>
        <time>2026-08-28T18:37:17Z</time>
      </trkpt>
      <trkpt lat="43.76761" lon="1.76096">
        <ele>114.413519</ele>
        <time>2026-08-28T18:37:18Z</time>
      </trkpt>
      <trkpt lat="43.76763" lon="1.76091">
        <ele>114.405339</ele>
        <time>2026-08-28T18:37:19Z</time>
      </trkpt>
      <trkpt lat="43.76764" lon="1.76087">
        <ele>114.397494</ele>
        <time>2026-08-28T18:37:20Z</time>
      </trkpt>
      <trkpt lat="43.76766" lon="1.76083">
        <ele>114.390394</ele>
        <time>2026-08-28T18:37:21Z</time>
      </trkpt>
      <trkpt lat="43.76767" lon="1.76079">
        <ele>114.383306</ele>
        <time>2026-08-28T18:37:22Z</time>
      </trkpt>
      <trkpt lat="43.76769" lon="1.76074">
        <ele>114.375747</ele>
        <time>2026-08-28T18:37:23Z</time>
      </trkpt>
      <trkpt lat="43.7677" lon="1.7607">
        <ele>114.368045</ele>
        <time>2026-08-28T18:37:24Z</time>
      </trkpt>
      <trkpt lat="43.76772" lon="1.76066">
        <ele>114.360486</ele>
        <time>2026-08-28T18:37:25Z</time>
      </trkpt>
      <trkpt lat="43.76773" lon="1.76061">
        <ele>114.352927</ele>
        <time>2026-08-28T18:37:26Z</time>
      </trkpt>
      <trkpt lat="43.76775" lon="1.76057">
        <ele>114.345271</ele>
        <time>2026-08-28T18:37:27Z</time>
      </trkpt>
      <trkpt lat="43.76776" lon="1.76053">
        <ele>114.337894</ele>
        <time>2026-08-28T18:37:28Z</time>
      </trkpt>
      <trkpt lat="43.76778" lon="1.76049">
        <ele>114.330026</ele>
        <time>2026-08-28T18:37:29Z</time>
      </trkpt>
      <trkpt lat="43.7678" lon="1.76044">
        <ele>114.325063</ele>
        <time>2026-08-28T18:37:30Z</time>
      </trkpt>
      <trkpt lat="43.76782" lon="1.76041">
        <ele>114.330897</ele>
        <time>2026-08-28T18:37:31Z</time>
      </trkpt>
      <trkpt lat="43.76784" lon="1.76036">
        <ele>114.337308</ele>
        <time>2026-08-28T18:37:32Z</time>
      </trkpt>
      <trkpt lat="43.76785" lon="1.76031">
        <ele>114.343845</ele>
        <time>2026-08-28T18:37:33Z</time>
      </trkpt>
      <trkpt lat="43.76786" lon="1.76026">
        <ele>114.350744</ele>
        <time>2026-08-28T18:37:34Z</time>
      </trkpt>
      <trkpt lat="43.76788" lon="1.76021">
        <ele>114.357006</ele>
        <time>2026-08-28T18:37:35Z</time>
      </trkpt>
      <trkpt lat="43.76789" lon="1.76017">
        <ele>114.3622</ele>
        <time>2026-08-28T18:37:36Z</time>
      </trkpt>
      <trkpt lat="43.7679" lon="1.76013">
        <ele>114.367512</ele>
        <time>2026-08-28T18:37:37Z</time>
      </trkpt>
      <trkpt lat="43.76791" lon="1.76009">
        <ele>114.373347</ele>
        <time>2026-08-28T18:37:38Z</time>
      </trkpt>
      <trkpt lat="43.76792" lon="1.76004">
        <ele>114.37907</ele>
        <time>2026-08-28T18:37:39Z</time>
      </trkpt>
      <trkpt lat="43.76793" lon="1.76">
        <ele>114.384557</ele>
        <time>2026-08-28T18:37:40Z</time>
      </trkpt>
      <trkpt lat="43.76794" lon="1.75996">
        <ele>114.389886</ele>
        <time>2026-08-28T18:37:41Z</time>
      </trkpt>
      <trkpt lat="43.76796" lon="1.75992">
        <ele>114.395513</ele>
        <time>2026-08-28T18:37:42Z</time>
      </trkpt>
      <trkpt lat="43.76797" lon="1.75989">
        <ele>114.400653</ele>
        <time>2026-08-28T18:37:43Z</time>
      </trkpt>
      <trkpt lat="43.76799" lon="1.75985">
        <ele>114.405572</ele>
        <time>2026-08-28T18:37:44Z</time>
      </trkpt>
      <trkpt lat="43.76799" lon="1.75981">
        <ele>114.41067</ele>
        <time>2026-08-28T18:37:45Z</time>
      </trkpt>
      <trkpt lat="43.768" lon="1.75978">
        <ele>114.4147</ele>
        <time>2026-08-28T18:37:46Z</time>
      </trkpt>
      <trkpt lat="43.768" lon="1.75974">
        <ele>114.41973</ele>
        <time>2026-08-28T18:37:47Z</time>
      </trkpt>
      <trkpt lat="43.76802" lon="1.7597">
        <ele>114.426105</ele>
        <time>2026-08-28T18:37:48Z</time>
      </trkpt>
      <trkpt lat="43.76803" lon="1.75965">
        <ele>114.432481</ele>
        <time>2026-08-28T18:37:49Z</time>
      </trkpt>
      <trkpt lat="43.76805" lon="1.7596">
        <ele>114.439338</ele>
        <time>2026-08-28T18:37:50Z</time>
      </trkpt>
      <trkpt lat="43.76808" lon="1.75955">
        <ele>114.447205</ele>
        <time>2026-08-28T18:37:51Z</time>
      </trkpt>
      <trkpt lat="43.7681" lon="1.75949">
        <ele>114.454983</ele>
        <time>2026-08-28T18:37:52Z</time>
      </trkpt>
      <trkpt lat="43.76812" lon="1.75944">
        <ele>114.462548</ele>
        <time>2026-08-28T18:37:53Z</time>
      </trkpt>
      <trkpt lat="43.76814" lon="1.75939">
        <ele>114.469369</ele>
        <time>2026-08-28T18:37:54Z</time>
      </trkpt>
      <trkpt lat="43.76817" lon="1.75934">
        <ele>114.477016</ele>
        <time>2026-08-28T18:37:55Z</time>
      </trkpt>
      <trkpt lat="43.76819" lon="1.7593">
        <ele>114.483891</ele>
        <time>2026-08-28T18:37:56Z</time>
      </trkpt>
      <trkpt lat="43.76821" lon="1.75925">
        <ele>114.491261</ele>
        <time>2026-08-28T18:37:57Z</time>
      </trkpt>
      <trkpt lat="43.76823" lon="1.75919">
        <ele>114.499471</ele>
        <time>2026-08-28T18:37:58Z</time>
      </trkpt>
      <trkpt lat="43.76826" lon="1.75913">
        <ele>114.507872</ele>
        <time>2026-08-28T18:37:59Z</time>
      </trkpt>
      <trkpt lat="43.76828" lon="1.75907">
        <ele>114.516297</ele>
        <time>2026-08-28T18:38:00Z</time>
      </trkpt>
      <trkpt lat="43.7683" lon="1.75901">
        <ele>114.524015</ele>
        <time>2026-08-28T18:38:01Z</time>
      </trkpt>
      <trkpt lat="43.76831" lon="1.75895">
        <ele>114.531426</ele>
        <time>2026-08-28T18:38:02Z</time>
      </trkpt>
      <trkpt lat="43.76833" lon="1.75889">
        <ele>114.539131</ele>
        <time>2026-08-28T18:38:03Z</time>
      </trkpt>
      <trkpt lat="43.76834" lon="1.75884">
        <ele>114.546529</ele>
        <time>2026-08-28T18:38:04Z</time>
      </trkpt>
      <trkpt lat="43.76835" lon="1.75877">
        <ele>114.554532</ele>
        <time>2026-08-28T18:38:05Z</time>
      </trkpt>
      <trkpt lat="43.76836" lon="1.75871">
        <ele>114.562136</ele>
        <time>2026-08-28T18:38:06Z</time>
      </trkpt>
      <trkpt lat="43.76837" lon="1.75865">
        <ele>114.56986</ele>
        <time>2026-08-28T18:38:07Z</time>
      </trkpt>
      <trkpt lat="43.76838" lon="1.7586">
        <ele>114.577395</ele>
        <time>2026-08-28T18:38:08Z</time>
      </trkpt>
      <trkpt lat="43.7684" lon="1.75854">
        <ele>114.585161</ele>
        <time>2026-08-28T18:38:09Z</time>
      </trkpt>
      <trkpt lat="43.76842" lon="1.75848">
        <ele>114.592879</ele>
        <time>2026-08-28T18:38:10Z</time>
      </trkpt>
      <trkpt lat="43.76843" lon="1.75843">
        <ele>114.600121</ele>
        <time>2026-08-28T18:38:11Z</time>
      </trkpt>
      <trkpt lat="43.76845" lon="1.75838">
        <ele>114.60661</ele>
        <time>2026-08-28T18:38:12Z</time>
      </trkpt>
      <trkpt lat="43.76846" lon="1.75833">
        <ele>114.613406</ele>
        <time>2026-08-28T18:38:13Z</time>
      </trkpt>
      <trkpt lat="43.76848" lon="1.75827">
        <ele>114.620829</ele>
        <time>2026-08-28T18:38:14Z</time>
      </trkpt>
      <trkpt lat="43.7685" lon="1.75821">
        <ele>114.628767</ele>
        <time>2026-08-28T18:38:15Z</time>
      </trkpt>
      <trkpt lat="43.76851" lon="1.75816">
        <ele>114.649626</ele>
        <time>2026-08-28T18:38:16Z</time>
      </trkpt>
      <trkpt lat="43.76854" lon="1.7581">
        <ele>114.686919</ele>
        <time>2026-08-28T18:38:17Z</time>
      </trkpt>
      <trkpt lat="43.76855" lon="1.75804">
        <ele>114.723201</ele>
        <time>2026-08-28T18:38:18Z</time>
      </trkpt>
      <trkpt lat="43.76857" lon="1.75798">
        <ele>114.758921</ele>
        <time>2026-08-28T18:38:19Z</time>
      </trkpt>
      <trkpt lat="43.76858" lon="1.75793">
        <ele>114.78774</ele>
        <time>2026-08-28T18:38:20Z</time>
      </trkpt>
      <trkpt lat="43.76859" lon="1.75788">
        <ele>114.816023</ele>
        <time>2026-08-28T18:38:21Z</time>
      </trkpt>
      <trkpt lat="43.7686" lon="1.75783">
        <ele>114.845342</ele>
        <time>2026-08-28T18:38:22Z</time>
      </trkpt>
      <trkpt lat="43.76861" lon="1.75777">
        <ele>114.878149</ele>
        <time>2026-08-28T18:38:23Z</time>
      </trkpt>
      <trkpt lat="43.76862" lon="1.75772">
        <ele>114.910002</ele>
        <time>2026-08-28T18:38:24Z</time>
      </trkpt>
      <trkpt lat="43.76863" lon="1.75767">
        <ele>114.939488</ele>
        <time>2026-08-28T18:38:25Z</time>
      </trkpt>
      <trkpt lat="43.76864" lon="1.75762">
        <ele>114.96952</ele>
        <time>2026-08-28T18:38:26Z</time>
      </trkpt>
      <trkpt lat="43.76865" lon="1.75756">
        <ele>115.000646</ele>
        <time>2026-08-28T18:38:27Z</time>
      </trkpt>
      <trkpt lat="43.76866" lon="1.75751">
        <ele>115.032706</ele>
        <time>2026-08-28T18:38:28Z</time>
      </trkpt>
      <trkpt lat="43.76867" lon="1.75745">
        <ele>115.06587</ele>
        <time>2026-08-28T18:38:29Z</time>
      </trkpt>
      <trkpt lat="43.76868" lon="1.75739">
        <ele>115.098814</ele>
        <time>2026-08-28T18:38:30Z</time>
      </trkpt>
      <trkpt lat="43.76869" lon="1.75733">
        <ele>115.133037</ele>
        <time>2026-08-28T18:38:31Z</time>
      </trkpt>
      <trkpt lat="43.7687" lon="1.75728">
        <ele>115.161565</ele>
        <time>2026-08-28T18:38:32Z</time>
      </trkpt>
      <trkpt lat="43.76872" lon="1.75723">
        <ele>115.192493</ele>
        <time>2026-08-28T18:38:33Z</time>
      </trkpt>
      <trkpt lat="43.76873" lon="1.75718">
        <ele>115.224464</ele>
        <time>2026-08-28T18:38:34Z</time>
      </trkpt>
      <trkpt lat="43.76874" lon="1.75712">
        <ele>115.259877</ele>
        <time>2026-08-28T18:38:35Z</time>
      </trkpt>
      <trkpt lat="43.76876" lon="1.75706">
        <ele>115.29647</ele>
        <time>2026-08-28T18:38:36Z</time>
      </trkpt>
      <trkpt lat="43.76877" lon="1.757">
        <ele>115.332149</ele>
        <time>2026-08-28T18:38:37Z</time>
      </trkpt>
      <trkpt lat="43.76878" lon="1.75694">
        <ele>115.364372</ele>
        <time>2026-08-28T18:38:38Z</time>
      </trkpt>
      <trkpt lat="43.76879" lon="1.75688">
        <ele>115.397535</ele>
        <time>2026-08-28T18:38:39Z</time>
      </trkpt>
      <trkpt lat="43.76879" lon="1.75683">
        <ele>115.430341</ele>
        <time>2026-08-28T18:38:40Z</time>
      </trkpt>
      <trkpt lat="43.7688" lon="1.75677">
        <ele>115.464361</ele>
        <time>2026-08-28T18:38:41Z</time>
      </trkpt>
      <trkpt lat="43.76881" lon="1.75671">
        <ele>115.498778</ele>
        <time>2026-08-28T18:38:42Z</time>
      </trkpt>
      <trkpt lat="43.76882" lon="1.75665">
        <ele>115.530087</ele>
        <time>2026-08-28T18:38:43Z</time>
      </trkpt>
      <trkpt lat="43.76882" lon="1.7566">
        <ele>115.559549</ele>
        <time>2026-08-28T18:38:44Z</time>
      </trkpt>
      <trkpt lat="43.76883" lon="1.75655">
        <ele>115.587946</ele>
        <time>2026-08-28T18:38:45Z</time>
      </trkpt>
      <trkpt lat="43.76884" lon="1.7565">
        <ele>115.615612</ele>
        <time>2026-08-28T18:38:46Z</time>
      </trkpt>
      <trkpt lat="43.76885" lon="1.75644">
        <ele>115.64893</ele>
        <time>2026-08-28T18:38:47Z</time>
      </trkpt>
      <trkpt lat="43.76886" lon="1.75639">
        <ele>115.682421</ele>
        <time>2026-08-28T18:38:48Z</time>
      </trkpt>
      <trkpt lat="43.76887" lon="1.75633">
        <ele>115.714274</ele>
        <time>2026-08-28T18:38:49Z</time>
      </trkpt>
      <trkpt lat="43.76888" lon="1.75627">
        <ele>115.746886</ele>
        <time>2026-08-28T18:38:50Z</time>
      </trkpt>
      <trkpt lat="43.76888" lon="1.75621">
        <ele>115.781462</ele>
        <time>2026-08-28T18:38:51Z</time>
      </trkpt>
      <trkpt lat="43.76889" lon="1.75614">
        <ele>115.821265</ele>
        <time>2026-08-28T18:38:52Z</time>
      </trkpt>
      <trkpt lat="43.7689" lon="1.75609">
        <ele>115.855373</ele>
        <time>2026-08-28T18:38:53Z</time>
      </trkpt>
      <trkpt lat="43.76892" lon="1.75603">
        <ele>115.891142</ele>
        <time>2026-08-28T18:38:54Z</time>
      </trkpt>
      <trkpt lat="43.76894" lon="1.75597">
        <ele>115.928767</ele>
        <time>2026-08-28T18:38:55Z</time>
      </trkpt>
      <trkpt lat="43.76895" lon="1.7559">
        <ele>115.965543</ele>
        <time>2026-08-28T18:38:56Z</time>
      </trkpt>
      <trkpt lat="43.76896" lon="1.75583">
        <ele>116.003766</ele>
        <time>2026-08-28T18:38:57Z</time>
      </trkpt>
      <trkpt lat="43.76896" lon="1.75576">
        <ele>116.003977</ele>
        <time>2026-08-28T18:38:58Z</time>
      </trkpt>
      <trkpt lat="43.76896" lon="1.7557">
        <ele>115.920344</ele>
        <time>2026-08-28T18:38:59Z</time>
      </trkpt>
      <trkpt lat="43.76897" lon="1.75565">
        <ele>115.852961</ele>
        <time>2026-08-28T18:39:00Z</time>
      </trkpt>
      <trkpt lat="43.76897" lon="1.7556">
        <ele>115.795556</ele>
        <time>2026-08-28T18:39:01Z</time>
      </trkpt>
      <trkpt lat="43.76898" lon="1.75556">
        <ele>115.7346</ele>
        <time>2026-08-28T18:39:02Z</time>
      </trkpt>
      <trkpt lat="43.76898" lon="1.75551">
        <ele>115.67437</ele>
        <time>2026-08-28T18:39:03Z</time>
      </trkpt>
      <trkpt lat="43.76898" lon="1.75548">
        <ele>115.625583</ele>
        <time>2026-08-28T18:39:04Z</time>
      </trkpt>
      <trkpt lat="43.76899" lon="1.75544">
        <ele>115.578361</ele>
        <time>2026-08-28T18:39:05Z</time>
      </trkpt>
      <trkpt lat="43.769" lon="1.75541">
        <ele>115.528585</ele>
        <time>2026-08-28T18:39:06Z</time>
      </trkpt>
      <trkpt lat="43.76901" lon="1.75537">
        <ele>115.476435</ele>
        <time>2026-08-28T18:39:07Z</time>
      </trkpt>
      <trkpt lat="43.76902" lon="1.75532">
        <ele>115.415544</ele>
        <time>2026-08-28T18:39:08Z</time>
      </trkpt>
      <trkpt lat="43.76903" lon="1.75528">
        <ele>115.356635</ele>
        <time>2026-08-28T18:39:09Z</time>
      </trkpt>
      <trkpt lat="43.76904" lon="1.75523">
        <ele>115.295332</ele>
        <time>2026-08-28T18:39:10Z</time>
      </trkpt>
      <trkpt lat="43.76905" lon="1.75518">
        <ele>115.221656</ele>
        <time>2026-08-28T18:39:11Z</time>
      </trkpt>
      <trkpt lat="43.76907" lon="1.75513">
        <ele>115.144838</ele>
        <time>2026-08-28T18:39:12Z</time>
      </trkpt>
      <trkpt lat="43.76908" lon="1.75507">
        <ele>115.062393</ele>
        <time>2026-08-28T18:39:13Z</time>
      </trkpt>
      <trkpt lat="43.76909" lon="1.755">
        <ele>114.978362</ele>
        <time>2026-08-28T18:39:14Z</time>
      </trkpt>
      <trkpt lat="43.76911" lon="1.75494">
        <ele>114.891858</ele>
        <time>2026-08-28T18:39:15Z</time>
      </trkpt>
      <trkpt lat="43.76912" lon="1.75488">
        <ele>114.810874</ele>
        <time>2026-08-28T18:39:16Z</time>
      </trkpt>
      <trkpt lat="43.76913" lon="1.75483">
        <ele>114.744778</ele>
        <time>2026-08-28T18:39:17Z</time>
      </trkpt>
      <trkpt lat="43.76914" lon="1.75478">
        <ele>114.678683</ele>
        <time>2026-08-28T18:39:18Z</time>
      </trkpt>
      <trkpt lat="43.76915" lon="1.75474">
        <ele>114.619195</ele>
        <time>2026-08-28T18:39:19Z</time>
      </trkpt>
      <trkpt lat="43.76916" lon="1.7547">
        <ele>114.561505</ele>
        <time>2026-08-28T18:39:20Z</time>
      </trkpt>
      <trkpt lat="43.76917" lon="1.75466">
        <ele>114.504863</ele>
        <time>2026-08-28T18:39:21Z</time>
      </trkpt>
      <trkpt lat="43.76918" lon="1.75461">
        <ele>114.442219</ele>
        <time>2026-08-28T18:39:22Z</time>
      </trkpt>
      <trkpt lat="43.76919" lon="1.75456">
        <ele>114.373502</ele>
        <time>2026-08-28T18:39:23Z</time>
      </trkpt>
      <trkpt lat="43.7692" lon="1.75452">
        <ele>114.312713</ele>
        <time>2026-08-28T18:39:24Z</time>
      </trkpt>
      <trkpt lat="43.76922" lon="1.75448">
        <ele>114.254222</ele>
        <time>2026-08-28T18:39:25Z</time>
      </trkpt>
      <trkpt lat="43.76923" lon="1.75443">
        <ele>114.191019</ele>
        <time>2026-08-28T18:39:26Z</time>
      </trkpt>
      <trkpt lat="43.76925" lon="1.75438">
        <ele>114.121721</ele>
        <time>2026-08-28T18:39:27Z</time>
      </trkpt>
      <trkpt lat="43.76926" lon="1.75433">
        <ele>114.046811</ele>
        <time>2026-08-28T18:39:28Z</time>
      </trkpt>
      <trkpt lat="43.76927" lon="1.75428">
        <ele>113.975053</ele>
        <time>2026-08-28T18:39:29Z</time>
      </trkpt>
      <trkpt lat="43.76928" lon="1.75422">
        <ele>113.901891</ele>
        <time>2026-08-28T18:39:30Z</time>
      </trkpt>
      <trkpt lat="43.76929" lon="1.75416">
        <ele>113.820539</ele>
        <time>2026-08-28T18:39:31Z</time>
      </trkpt>
      <trkpt lat="43.76929" lon="1.7541">
        <ele>113.737891</ele>
        <time>2026-08-28T18:39:32Z</time>
      </trkpt>
      <trkpt lat="43.7693" lon="1.75403">
        <ele>113.65265</ele>
        <time>2026-08-28T18:39:33Z</time>
      </trkpt>
      <trkpt lat="43.7693" lon="1.75397">
        <ele>113.570477</ele>
        <time>2026-08-28T18:39:34Z</time>
      </trkpt>
      <trkpt lat="43.7693" lon="1.75392">
        <ele>113.496895</ele>
        <time>2026-08-28T18:39:35Z</time>
      </trkpt>
      <trkpt lat="43.76931" lon="1.75386">
        <ele>113.419536</ele>
        <time>2026-08-28T18:39:36Z</time>
      </trkpt>
      <trkpt lat="43.76931" lon="1.75379">
        <ele>113.32954</ele>
        <time>2026-08-28T18:39:37Z</time>
      </trkpt>
      <trkpt lat="43.76932" lon="1.75372">
        <ele>113.237618</ele>
        <time>2026-08-28T18:39:38Z</time>
      </trkpt>
      <trkpt lat="43.76933" lon="1.75365">
        <ele>113.148048</ele>
        <time>2026-08-28T18:39:39Z</time>
      </trkpt>
      <trkpt lat="43.76933" lon="1.75358">
        <ele>113.06151</ele>
        <time>2026-08-28T18:39:40Z</time>
      </trkpt>
      <trkpt lat="43.76934" lon="1.75351">
        <ele>112.967509</ele>
        <time>2026-08-28T18:39:41Z</time>
      </trkpt>
      <trkpt lat="43.76935" lon="1.75345">
        <ele>112.876226</ele>
        <time>2026-08-28T18:39:42Z</time>
      </trkpt>
      <trkpt lat="43.76936" lon="1.75337">
        <ele>112.780011</ele>
        <time>2026-08-28T18:39:43Z</time>
      </trkpt>
      <trkpt lat="43.76937" lon="1.75329">
        <ele>112.699557</ele>
        <time>2026-08-28T18:39:44Z</time>
      </trkpt>
      <trkpt lat="43.76937" lon="1.7532">
        <ele>112.611945</ele>
        <time>2026-08-28T18:39:45Z</time>
      </trkpt>
      <trkpt lat="43.76938" lon="1.75311">
        <ele>112.523323</ele>
        <time>2026-08-28T18:39:46Z</time>
      </trkpt>
      <trkpt lat="43.76939" lon="1.75303">
        <ele>112.443035</ele>
        <time>2026-08-28T18:39:47Z</time>
      </trkpt>
      <trkpt lat="43.76941" lon="1.75296">
        <ele>112.37283</ele>
        <time>2026-08-28T18:39:48Z</time>
      </trkpt>
      <trkpt lat="43.76942" lon="1.75289">
        <ele>112.310101</ele>
        <time>2026-08-28T18:39:49Z</time>
      </trkpt>
      <trkpt lat="43.76943" lon="1.75283">
        <ele>112.252366</ele>
        <time>2026-08-28T18:39:50Z</time>
      </trkpt>
      <trkpt lat="43.76945" lon="1.75277">
        <ele>112.190312</ele>
        <time>2026-08-28T18:39:51Z</time>
      </trkpt>
      <trkpt lat="43.76946" lon="1.75272">
        <ele>112.13052</ele>
        <time>2026-08-28T18:39:52Z</time>
      </trkpt>
      <trkpt lat="43.76947" lon="1.75266">
        <ele>112.073109</ele>
        <time>2026-08-28T18:39:53Z</time>
      </trkpt>
      <trkpt lat="43.76948" lon="1.7526">
        <ele>112.013168</ele>
        <time>2026-08-28T18:39:54Z</time>
      </trkpt>
      <trkpt lat="43.76949" lon="1.75253">
        <ele>111.952279</ele>
        <time>2026-08-28T18:39:55Z</time>
      </trkpt>
      <trkpt lat="43.76949" lon="1.75247">
        <ele>111.893961</ele>
        <time>2026-08-28T18:39:56Z</time>
      </trkpt>
      <trkpt lat="43.7695" lon="1.75241">
        <ele>111.835095</ele>
        <time>2026-08-28T18:39:57Z</time>
      </trkpt>
      <trkpt lat="43.7695" lon="1.75236">
        <ele>111.77919</ele>
        <time>2026-08-28T18:39:58Z</time>
      </trkpt>
      <trkpt lat="43.76951" lon="1.75229">
        <ele>111.718027</ele>
        <time>2026-08-28T18:39:59Z</time>
      </trkpt>
      <trkpt lat="43.76951" lon="1.75223">
        <ele>111.658201</ele>
        <time>2026-08-28T18:40:00Z</time>
      </trkpt>
      <trkpt lat="43.76951" lon="1.75216">
        <ele>111.587717</ele>
        <time>2026-08-28T18:40:01Z</time>
      </trkpt>
      <trkpt lat="43.76952" lon="1.75208">
        <ele>111.514908</ele>
        <time>2026-08-28T18:40:02Z</time>
      </trkpt>
      <trkpt lat="43.76953" lon="1.75201">
        <ele>111.44382</ele>
        <time>2026-08-28T18:40:03Z</time>
      </trkpt>
      <trkpt lat="43.76954" lon="1.75193">
        <ele>111.369256</ele>
        <time>2026-08-28T18:40:04Z</time>
      </trkpt>
      <trkpt lat="43.76954" lon="1.75186">
        <ele>111.293582</ele>
        <time>2026-08-28T18:40:05Z</time>
      </trkpt>
      <trkpt lat="43.76955" lon="1.75178">
        <ele>111.222494</ele>
        <time>2026-08-28T18:40:06Z</time>
      </trkpt>
      <trkpt lat="43.76956" lon="1.75172">
        <ele>111.158774</ele>
        <time>2026-08-28T18:40:07Z</time>
      </trkpt>
      <trkpt lat="43.76957" lon="1.75166">
        <ele>111.105681</ele>
        <time>2026-08-28T18:40:08Z</time>
      </trkpt>
      <trkpt lat="43.76958" lon="1.75161">
        <ele>111.05403</ele>
        <time>2026-08-28T18:40:09Z</time>
      </trkpt>
      <trkpt lat="43.76958" lon="1.75156">
        <ele>111.008467</ele>
        <time>2026-08-28T18:40:10Z</time>
      </trkpt>
      <trkpt lat="43.76958" lon="1.75153">
        <ele>110.970706</ele>
        <time>2026-08-28T18:40:11Z</time>
      </trkpt>
      <trkpt lat="43.76959" lon="1.75149">
        <ele>110.939439</ele>
        <time>2026-08-28T18:40:12Z</time>
      </trkpt>
      <trkpt lat="43.76959" lon="1.75146">
        <ele>110.905741</ele>
        <time>2026-08-28T18:40:13Z</time>
      </trkpt>
      <trkpt lat="43.7696" lon="1.75143">
        <ele>110.871286</ele>
        <time>2026-08-28T18:40:14Z</time>
      </trkpt>
      <trkpt lat="43.76961" lon="1.7514">
        <ele>110.839118</ele>
        <time>2026-08-28T18:40:15Z</time>
      </trkpt>
      <trkpt lat="43.76962" lon="1.75136">
        <ele>110.805712</ele>
        <time>2026-08-28T18:40:16Z</time>
      </trkpt>
      <trkpt lat="43.76963" lon="1.75133">
        <ele>110.7739</ele>
        <time>2026-08-28T18:40:17Z</time>
      </trkpt>
      <trkpt lat="43.76963" lon="1.7513">
        <ele>110.743929</ele>
        <time>2026-08-28T18:40:18Z</time>
      </trkpt>
      <trkpt lat="43.76964" lon="1.75127">
        <ele>110.713816</ele>
        <time>2026-08-28T18:40:19Z</time>
      </trkpt>
      <trkpt lat="43.76964" lon="1.75124">
        <ele>110.684174</ele>
        <time>2026-08-28T18:40:20Z</time>
      </trkpt>
      <trkpt lat="43.76965" lon="1.75121">
        <ele>110.65171</ele>
        <time>2026-08-28T18:40:21Z</time>
      </trkpt>
      <trkpt lat="43.76965" lon="1.75117">
        <ele>110.615816</ele>
        <time>2026-08-28T18:40:22Z</time>
      </trkpt>
      <trkpt lat="43.76966" lon="1.75113">
        <ele>110.578991</ele>
        <time>2026-08-28T18:40:23Z</time>
      </trkpt>
      <trkpt lat="43.76967" lon="1.75109">
        <ele>110.538008</ele>
        <time>2026-08-28T18:40:24Z</time>
      </trkpt>
      <trkpt lat="43.76967" lon="1.75105">
        <ele>110.49913</ele>
        <time>2026-08-28T18:40:25Z</time>
      </trkpt>
      <trkpt lat="43.76968" lon="1.75102">
        <ele>110.463559</ele>
        <time>2026-08-28T18:40:26Z</time>
      </trkpt>
      <trkpt lat="43.76968" lon="1.75098">
        <ele>110.428695</ele>
        <time>2026-08-28T18:40:27Z</time>
      </trkpt>
      <trkpt lat="43.76969" lon="1.75094">
        <ele>110.388734</ele>
        <time>2026-08-28T18:40:28Z</time>
      </trkpt>
      <trkpt lat="43.7697" lon="1.7509">
        <ele>110.392252</ele>
        <time>2026-08-28T18:40:29Z</time>
      </trkpt>
      <trkpt lat="43.76971" lon="1.75085">
        <ele>110.399998</ele>
        <time>2026-08-28T18:40:30Z</time>
      </trkpt>
      <trkpt lat="43.76971" lon="1.75081">
        <ele>110.407236</ele>
        <time>2026-08-28T18:40:31Z</time>
      </trkpt>
      <trkpt lat="43.76972" lon="1.75077">
        <ele>110.413105</ele>
        <time>2026-08-28T18:40:32Z</time>
      </trkpt>
      <trkpt lat="43.76972" lon="1.75073">
        <ele>110.418803</ele>
        <time>2026-08-28T18:40:33Z</time>
      </trkpt>
      <trkpt lat="43.76972" lon="1.7507">
        <ele>110.425159</ele>
        <time>2026-08-28T18:40:34Z</time>
      </trkpt>
      <trkpt lat="43.76973" lon="1.75066">
        <ele>110.431621</ele>
        <time>2026-08-28T18:40:35Z</time>
      </trkpt>
      <trkpt lat="43.76974" lon="1.75062">
        <ele>110.437518</ele>
        <time>2026-08-28T18:40:36Z</time>
      </trkpt>
      <trkpt lat="43.76975" lon="1.75059">
        <ele>110.443436</ele>
        <time>2026-08-28T18:40:37Z</time>
      </trkpt>
      <trkpt lat="43.76976" lon="1.75055">
        <ele>110.449761</ele>
        <time>2026-08-28T18:40:38Z</time>
      </trkpt>
      <trkpt lat="43.76977" lon="1.75051">
        <ele>110.456378</ele>
        <time>2026-08-28T18:40:39Z</time>
      </trkpt>
      <trkpt lat="43.76977" lon="1.75047">
        <ele>110.462955</ele>
        <time>2026-08-28T18:40:40Z</time>
      </trkpt>
      <trkpt lat="43.76977" lon="1.75044">
        <ele>110.467936</ele>
        <time>2026-08-28T18:40:41Z</time>
      </trkpt>
      <trkpt lat="43.76977" lon="1.7504">
        <ele>110.474045</ele>
        <time>2026-08-28T18:40:42Z</time>
      </trkpt>
      <trkpt lat="43.76978" lon="1.75036">
        <ele>110.480903</ele>
        <time>2026-08-28T18:40:43Z</time>
      </trkpt>
      <trkpt lat="43.76978" lon="1.75032">
        <ele>110.486747</ele>
        <time>2026-08-28T18:40:44Z</time>
      </trkpt>
      <trkpt lat="43.76978" lon="1.75029">
        <ele>110.491827</ele>
        <time>2026-08-28T18:40:45Z</time>
      </trkpt>
      <trkpt lat="43.76978" lon="1.75025">
        <ele>110.497874</ele>
        <time>2026-08-28T18:40:46Z</time>
      </trkpt>
      <trkpt lat="43.76978" lon="1.75021">
        <ele>110.504678</ele>
        <time>2026-08-28T18:40:47Z</time>
      </trkpt>
      <trkpt lat="43.76977" lon="1.75016">
        <ele>110.512299</ele>
        <time>2026-08-28T18:40:48Z</time>
      </trkpt>
      <trkpt lat="43.76977" lon="1.7501">
        <ele>110.52084</ele>
        <time>2026-08-28T18:40:49Z</time>
      </trkpt>
      <trkpt lat="43.76977" lon="1.75005">
        <ele>110.529223</ele>
        <time>2026-08-28T18:40:50Z</time>
      </trkpt>
      <trkpt lat="43.76977" lon="1.74999">
        <ele>110.538837</ele>
        <time>2026-08-28T18:40:51Z</time>
      </trkpt>
      <trkpt lat="43.76976" lon="1.74993">
        <ele>110.548997</ele>
        <time>2026-08-28T18:40:52Z</time>
      </trkpt>
      <trkpt lat="43.76976" lon="1.74986">
        <ele>110.559022</ele>
        <time>2026-08-28T18:40:53Z</time>
      </trkpt>
      <trkpt lat="43.76975" lon="1.74981">
        <ele>110.568238</ele>
        <time>2026-08-28T18:40:54Z</time>
      </trkpt>
      <trkpt lat="43.76975" lon="1.74975">
        <ele>110.577277</ele>
        <time>2026-08-28T18:40:55Z</time>
      </trkpt>
      <trkpt lat="43.76975" lon="1.74969">
        <ele>110.585988</ele>
        <time>2026-08-28T18:40:56Z</time>
      </trkpt>
      <trkpt lat="43.76975" lon="1.74964">
        <ele>110.594224</ele>
        <time>2026-08-28T18:40:57Z</time>
      </trkpt>
      <trkpt lat="43.76976" lon="1.74959">
        <ele>110.602522</ele>
        <time>2026-08-28T18:40:58Z</time>
      </trkpt>
      <trkpt lat="43.76976" lon="1.74955">
        <ele>110.608852</ele>
        <time>2026-08-28T18:40:59Z</time>
      </trkpt>
      <trkpt lat="43.76977" lon="1.7495">
        <ele>110.616288</ele>
        <time>2026-08-28T18:41:00Z</time>
      </trkpt>
      <trkpt lat="43.76978" lon="1.74946">
        <ele>110.623618</ele>
        <time>2026-08-28T18:41:01Z</time>
      </trkpt>
      <trkpt lat="43.76978" lon="1.74941">
        <ele>110.631519</ele>
        <time>2026-08-28T18:41:02Z</time>
      </trkpt>
      <trkpt lat="43.76979" lon="1.74936">
        <ele>110.639068</ele>
        <time>2026-08-28T18:41:03Z</time>
      </trkpt>
      <trkpt lat="43.76979" lon="1.74931">
        <ele>110.647477</ele>
        <time>2026-08-28T18:41:04Z</time>
      </trkpt>
      <trkpt lat="43.76979" lon="1.74926">
        <ele>110.656043</ele>
        <time>2026-08-28T18:41:05Z</time>
      </trkpt>
      <trkpt lat="43.7698" lon="1.74921">
        <ele>110.664122</ele>
        <time>2026-08-28T18:41:06Z</time>
      </trkpt>
      <trkpt lat="43.7698" lon="1.74916">
        <ele>110.6719</ele>
        <time>2026-08-28T18:41:07Z</time>
      </trkpt>
      <trkpt lat="43.76981" lon="1.74911">
        <ele>110.679181</ele>
        <time>2026-08-28T18:41:08Z</time>
      </trkpt>
      <trkpt lat="43.76981" lon="1.74906">
        <ele>110.686926</ele>
        <time>2026-08-28T18:41:09Z</time>
      </trkpt>
      <trkpt lat="43.76982" lon="1.74901">
        <ele>110.694704</ele>
        <time>2026-08-28T18:41:10Z</time>
      </trkpt>
      <trkpt lat="43.76982" lon="1.74897">
        <ele>110.702254</ele>
        <time>2026-08-28T18:41:11Z</time>
      </trkpt>
      <trkpt lat="43.76983" lon="1.74892">
        <ele>110.709959</ele>
        <time>2026-08-28T18:41:12Z</time>
      </trkpt>
      <trkpt lat="43.76984" lon="1.74887">
        <ele>110.718263</ele>
        <time>2026-08-28T18:41:13Z</time>
      </trkpt>
      <trkpt lat="43.76985" lon="1.74882">
        <ele>110.726413</ele>
        <time>2026-08-28T18:41:14Z</time>
      </trkpt>
      <trkpt lat="43.76985" lon="1.74877">
        <ele>110.733742</ele>
        <time>2026-08-28T18:41:15Z</time>
      </trkpt>
      <trkpt lat="43.76986" lon="1.74873">
        <ele>110.74138</ele>
        <time>2026-08-28T18:41:16Z</time>
      </trkpt>
      <trkpt lat="43.76987" lon="1.74867">
        <ele>110.749634</ele>
        <time>2026-08-28T18:41:17Z</time>
      </trkpt>
      <trkpt lat="43.76987" lon="1.74863">
        <ele>110.756625</ele>
        <time>2026-08-28T18:41:18Z</time>
      </trkpt>
      <trkpt lat="43.76987" lon="1.74858">
        <ele>110.76422</ele>
        <time>2026-08-28T18:41:19Z</time>
      </trkpt>
      <trkpt lat="43.76988" lon="1.74853">
        <ele>110.772361</ele>
        <time>2026-08-28T18:41:20Z</time>
      </trkpt>
      <trkpt lat="43.76988" lon="1.74848">
        <ele>110.789267</ele>
        <time>2026-08-28T18:41:21Z</time>
      </trkpt>
      <trkpt lat="43.76988" lon="1.74843">
        <ele>110.884782</ele>
        <time>2026-08-28T18:41:22Z</time>
      </trkpt>
      <trkpt lat="43.76988" lon="1.74837">
        <ele>110.98396</ele>
        <time>2026-08-28T18:41:23Z</time>
      </trkpt>
      <trkpt lat="43.76989" lon="1.74833">
        <ele>111.060091</ele>
        <time>2026-08-28T18:41:24Z</time>
      </trkpt>
      <trkpt lat="43.7699" lon="1.74829">
        <ele>111.149911</ele>
        <time>2026-08-28T18:41:25Z</time>
      </trkpt>
      <trkpt lat="43.7699" lon="1.74824">
        <ele>111.236716</ele>
        <time>2026-08-28T18:41:26Z</time>
      </trkpt>
      <trkpt lat="43.76991" lon="1.74819">
        <ele>111.320596</ele>
        <time>2026-08-28T18:41:27Z</time>
      </trkpt>
      <trkpt lat="43.76991" lon="1.74814">
        <ele>111.412343</ele>
        <time>2026-08-28T18:41:28Z</time>
      </trkpt>
      <trkpt lat="43.76992" lon="1.74809">
        <ele>111.505761</ele>
        <time>2026-08-28T18:41:29Z</time>
      </trkpt>
      <trkpt lat="43.76993" lon="1.74805">
        <ele>111.596723</ele>
        <time>2026-08-28T18:41:30Z</time>
      </trkpt>
      <trkpt lat="43.76993" lon="1.74801">
        <ele>111.66647</ele>
        <time>2026-08-28T18:41:31Z</time>
      </trkpt>
      <trkpt lat="43.76993" lon="1.74796">
        <ele>111.751453</ele>
        <time>2026-08-28T18:41:32Z</time>
      </trkpt>
      <trkpt lat="43.76993" lon="1.74792">
        <ele>111.823168</ele>
        <time>2026-08-28T18:41:33Z</time>
      </trkpt>
      <trkpt lat="43.76994" lon="1.74789">
        <ele>111.887816</ele>
        <time>2026-08-28T18:41:34Z</time>
      </trkpt>
      <trkpt lat="43.76995" lon="1.74785">
        <ele>111.968865</ele>
        <time>2026-08-28T18:41:35Z</time>
      </trkpt>
      <trkpt lat="43.76997" lon="1.74782">
        <ele>112.042056</ele>
        <time>2026-08-28T18:41:36Z</time>
      </trkpt>
      <trkpt lat="43.76999" lon="1.7478">
        <ele>112.105773</ele>
        <time>2026-08-28T18:41:37Z</time>
      </trkpt>
      <trkpt lat="43.77001" lon="1.74779">
        <ele>112.157338</ele>
        <time>2026-08-28T18:41:38Z</time>
      </trkpt>
      <trkpt lat="43.77003" lon="1.74778">
        <ele>112.203969</ele>
        <time>2026-08-28T18:41:39Z</time>
      </trkpt>
      <trkpt lat="43.77005" lon="1.74778">
        <ele>112.267892</ele>
        <time>2026-08-28T18:41:40Z</time>
      </trkpt>
      <trkpt lat="43.77008" lon="1.74778">
        <ele>112.336473</ele>
        <time>2026-08-28T18:41:41Z</time>
      </trkpt>
      <trkpt lat="43.77011" lon="1.74779">
        <ele>112.408744</ele>
        <time>2026-08-28T18:41:42Z</time>
      </trkpt>
      <trkpt lat="43.77013" lon="1.74779">
        <ele>112.476395</ele>
        <time>2026-08-28T18:41:43Z</time>
      </trkpt>
      <trkpt lat="43.77016" lon="1.7478">
        <ele>112.544936</ele>
        <time>2026-08-28T18:41:44Z</time>
      </trkpt>
      <trkpt lat="43.77019" lon="1.74781">
        <ele>112.616423</ele>
        <time>2026-08-28T18:41:45Z</time>
      </trkpt>
      <trkpt lat="43.77021" lon="1.74783">
        <ele>112.691435</ele>
        <time>2026-08-28T18:41:46Z</time>
      </trkpt>
      <trkpt lat="43.77024" lon="1.74784">
        <ele>112.762922</ele>
        <time>2026-08-28T18:41:47Z</time>
      </trkpt>
      <trkpt lat="43.77027" lon="1.74784">
        <ele>112.842429</ele>
        <time>2026-08-28T18:41:48Z</time>
      </trkpt>
      <trkpt lat="43.7703" lon="1.74785">
        <ele>112.909706</ele>
        <time>2026-08-28T18:41:49Z</time>
      </trkpt>
      <trkpt lat="43.77033" lon="1.74786">
        <ele>112.995511</ele>
        <time>2026-08-28T18:41:50Z</time>
      </trkpt>
      <trkpt lat="43.77036" lon="1.74787">
        <ele>113.070523</ele>
        <time>2026-08-28T18:41:51Z</time>
      </trkpt>
      <trkpt lat="43.77038" lon="1.74789">
        <ele>113.14138</ele>
        <time>2026-08-28T18:41:52Z</time>
      </trkpt>
      <trkpt lat="43.77041" lon="1.74789">
        <ele>113.21309</ele>
        <time>2026-08-28T18:41:53Z</time>
      </trkpt>
      <trkpt lat="43.77044" lon="1.74788">
        <ele>113.284577</ele>
        <time>2026-08-28T18:41:54Z</time>
      </trkpt>
      <trkpt lat="43.77046" lon="1.74786">
        <ele>113.347239</ele>
        <time>2026-08-28T18:41:55Z</time>
      </trkpt>
      <trkpt lat="43.77047" lon="1.74784">
        <ele>113.401024</ele>
        <time>2026-08-28T18:41:56Z</time>
      </trkpt>
      <trkpt lat="43.77048" lon="1.74781">
        <ele>113.457886</ele>
        <time>2026-08-28T18:41:57Z</time>
      </trkpt>
      <trkpt lat="43.7705" lon="1.74779">
        <ele>113.521833</ele>
        <time>2026-08-28T18:41:58Z</time>
      </trkpt>
      <trkpt lat="43.77051" lon="1.74776">
        <ele>113.582873</ele>
        <time>2026-08-28T18:41:59Z</time>
      </trkpt>
      <trkpt lat="43.77053" lon="1.74773">
        <ele>113.639471</ele>
        <time>2026-08-28T18:42:00Z</time>
      </trkpt>
      <trkpt lat="43.77054" lon="1.7477">
        <ele>113.708097</ele>
        <time>2026-08-28T18:42:01Z</time>
      </trkpt>
      <trkpt lat="43.77055" lon="1.74767">
        <ele>113.778111</ele>
        <time>2026-08-28T18:42:02Z</time>
      </trkpt>
      <trkpt lat="43.77056" lon="1.74763">
        <ele>113.842813</ele>
        <time>2026-08-28T18:42:03Z</time>
      </trkpt>
      <trkpt lat="43.77057" lon="1.74761">
        <ele>113.896343</ele>
        <time>2026-08-28T18:42:04Z</time>
      </trkpt>
      <trkpt lat="43.77058" lon="1.74758">
        <ele>113.953284</ele>
        <time>2026-08-28T18:42:05Z</time>
      </trkpt>
      <trkpt lat="43.77058" lon="1.74755">
        <ele>114.015396</ele>
        <time>2026-08-28T18:42:06Z</time>
      </trkpt>
      <trkpt lat="43.77059" lon="1.74752">
        <ele>114.072494</ele>
        <time>2026-08-28T18:42:07Z</time>
      </trkpt>
      <trkpt lat="43.7706" lon="1.74748">
        <ele>114.139831</ele>
        <time>2026-08-28T18:42:08Z</time>
      </trkpt>
      <trkpt lat="43.77061" lon="1.74745">
        <ele>114.204345</ele>
        <time>2026-08-28T18:42:09Z</time>
      </trkpt>
      <trkpt lat="43.77062" lon="1.74742">
        <ele>114.26886</ele>
        <time>2026-08-28T18:42:10Z</time>
      </trkpt>
      <trkpt lat="43.77064" lon="1.74738">
        <ele>114.349543</ele>
        <time>2026-08-28T18:42:11Z</time>
      </trkpt>
      <trkpt lat="43.77066" lon="1.74734">
        <ele>114.43946</ele>
        <time>2026-08-28T18:42:12Z</time>
      </trkpt>
      <trkpt lat="43.77068" lon="1.74729">
        <ele>114.540601</ele>
        <time>2026-08-28T18:42:13Z</time>
      </trkpt>
      <trkpt lat="43.7707" lon="1.74726">
        <ele>114.629832</ele>
        <time>2026-08-28T18:42:14Z</time>
      </trkpt>
      <trkpt lat="43.77072" lon="1.74721">
        <ele>114.715313</ele>
        <time>2026-08-28T18:42:15Z</time>
      </trkpt>
      <trkpt lat="43.77073" lon="1.74718">
        <ele>114.794417</ele>
        <time>2026-08-28T18:42:16Z</time>
      </trkpt>
      <trkpt lat="43.77075" lon="1.74714">
        <ele>114.880864</ele>
        <time>2026-08-28T18:42:17Z</time>
      </trkpt>
      <trkpt lat="43.77077" lon="1.7471">
        <ele>114.961178</ele>
        <time>2026-08-28T18:42:18Z</time>
      </trkpt>
      <trkpt lat="43.77079" lon="1.74707">
        <ele>115.032569</ele>
        <time>2026-08-28T18:42:19Z</time>
      </trkpt>
      <trkpt lat="43.7708" lon="1.74704">
        <ele>115.10246</ele>
        <time>2026-08-28T18:42:20Z</time>
      </trkpt>
      <trkpt lat="43.77082" lon="1.74701">
        <ele>115.172601</ele>
        <time>2026-08-28T18:42:21Z</time>
      </trkpt>
      <trkpt lat="43.77084" lon="1.74698">
        <ele>115.238305</ele>
        <time>2026-08-28T18:42:22Z</time>
      </trkpt>
      <trkpt lat="43.77085" lon="1.74695">
        <ele>115.30226</ele>
        <time>2026-08-28T18:42:23Z</time>
      </trkpt>
      <trkpt lat="43.77086" lon="1.74692">
        <ele>115.365676</ele>
        <time>2026-08-28T18:42:24Z</time>
      </trkpt>
      <trkpt lat="43.77087" lon="1.7469">
        <ele>115.458649</ele>
        <time>2026-08-28T18:42:25Z</time>
      </trkpt>
      <trkpt lat="43.77088" lon="1.74686">
        <ele>115.563775</ele>
        <time>2026-08-28T18:42:26Z</time>
      </trkpt>
      <trkpt lat="43.7709" lon="1.74682">
        <ele>115.694128</ele>
        <time>2026-08-28T18:42:27Z</time>
      </trkpt>
      <trkpt lat="43.77091" lon="1.74679">
        <ele>115.817436</ele>
        <time>2026-08-28T18:42:28Z</time>
      </trkpt>
      <trkpt lat="43.77092" lon="1.74674">
        <ele>115.948725</ele>
        <time>2026-08-28T18:42:29Z</time>
      </trkpt>
      <trkpt lat="43.77092" lon="1.7467">
        <ele>116.092327</ele>
        <time>2026-08-28T18:42:30Z</time>
      </trkpt>
      <trkpt lat="43.77094" lon="1.74665">
        <ele>116.246839</ele>
        <time>2026-08-28T18:42:31Z</time>
      </trkpt>
      <trkpt lat="43.77095" lon="1.7466">
        <ele>116.383384</ele>
        <time>2026-08-28T18:42:32Z</time>
      </trkpt>
      <trkpt lat="43.77096" lon="1.74656">
        <ele>116.506166</ele>
        <time>2026-08-28T18:42:33Z</time>
      </trkpt>
      <trkpt lat="43.77097" lon="1.74653">
        <ele>116.615422</ele>
        <time>2026-08-28T18:42:34Z</time>
      </trkpt>
      <trkpt lat="43.77098" lon="1.74649">
        <ele>116.720287</ele>
        <time>2026-08-28T18:42:35Z</time>
      </trkpt>
      <trkpt lat="43.77099" lon="1.74646">
        <ele>116.833549</ele>
        <time>2026-08-28T18:42:36Z</time>
      </trkpt>
      <trkpt lat="43.771" lon="1.74642">
        <ele>116.963237</ele>
        <time>2026-08-28T18:42:37Z</time>
      </trkpt>
      <trkpt lat="43.77101" lon="1.74637">
        <ele>117.095713</ele>
        <time>2026-08-28T18:42:38Z</time>
      </trkpt>
      <trkpt lat="43.77102" lon="1.74633">
        <ele>117.227026</ele>
        <time>2026-08-28T18:42:39Z</time>
      </trkpt>
      <trkpt lat="43.77103" lon="1.74629">
        <ele>117.358563</ele>
        <time>2026-08-28T18:42:40Z</time>
      </trkpt>
      <trkpt lat="43.77105" lon="1.74625">
        <ele>117.502323</ele>
        <time>2026-08-28T18:42:41Z</time>
      </trkpt>
      <trkpt lat="43.77107" lon="1.74621">
        <ele>117.659246</ele>
        <time>2026-08-28T18:42:42Z</time>
      </trkpt>
      <trkpt lat="43.77109" lon="1.74617">
        <ele>117.79952</ele>
        <time>2026-08-28T18:42:43Z</time>
      </trkpt>
      <trkpt lat="43.77112" lon="1.74614">
        <ele>117.934817</ele>
        <time>2026-08-28T18:42:44Z</time>
      </trkpt>
      <trkpt lat="43.77115" lon="1.7461">
        <ele>118.081062</ele>
        <time>2026-08-28T18:42:45Z</time>
      </trkpt>
      <trkpt lat="43.77117" lon="1.74608">
        <ele>118.193524</ele>
        <time>2026-08-28T18:42:46Z</time>
      </trkpt>
      <trkpt lat="43.77119" lon="1.74606">
        <ele>118.287011</ele>
        <time>2026-08-28T18:42:47Z</time>
      </trkpt>
      <trkpt lat="43.77121" lon="1.74604">
        <ele>118.390254</ele>
        <time>2026-08-28T18:42:48Z</time>
      </trkpt>
      <trkpt lat="43.77123" lon="1.74603">
        <ele>118.48739</ele>
        <time>2026-08-28T18:42:49Z</time>
      </trkpt>
      <trkpt lat="43.77125" lon="1.74602">
        <ele>118.567713</ele>
        <time>2026-08-28T18:42:50Z</time>
      </trkpt>
      <trkpt lat="43.77126" lon="1.74601">
        <ele>118.645202</ele>
        <time>2026-08-28T18:42:51Z</time>
      </trkpt>
      <trkpt lat="43.77128" lon="1.74599">
        <ele>118.72904</ele>
        <time>2026-08-28T18:42:52Z</time>
      </trkpt>
      <trkpt lat="43.7713" lon="1.74598">
        <ele>118.823689</ele>
        <time>2026-08-28T18:42:53Z</time>
      </trkpt>
      <trkpt lat="43.77133" lon="1.74597">
        <ele>118.927312</ele>
        <time>2026-08-28T18:42:54Z</time>
      </trkpt>
      <trkpt lat="43.77136" lon="1.74596">
        <ele>119.044044</ele>
        <time>2026-08-28T18:42:55Z</time>
      </trkpt>
      <trkpt lat="43.77138" lon="1.74594">
        <ele>119.142368</ele>
        <time>2026-08-28T18:42:56Z</time>
      </trkpt>
      <trkpt lat="43.7714" lon="1.74592">
        <ele>119.232532</ele>
        <time>2026-08-28T18:42:57Z</time>
      </trkpt>
      <trkpt lat="43.77141" lon="1.74591">
        <ele>119.318126</ele>
        <time>2026-08-28T18:42:58Z</time>
      </trkpt>
      <trkpt lat="43.77142" lon="1.74588">
        <ele>119.399026</ele>
        <time>2026-08-28T18:42:59Z</time>
      </trkpt>
      <trkpt lat="43.77143" lon="1.74585">
        <ele>119.494508</ele>
        <time>2026-08-28T18:43:00Z</time>
      </trkpt>
      <trkpt lat="43.77145" lon="1.74582">
        <ele>119.602179</ele>
        <time>2026-08-28T18:43:01Z</time>
      </trkpt>
      <trkpt lat="43.77146" lon="1.74579">
        <ele>119.707918</ele>
        <time>2026-08-28T18:43:02Z</time>
      </trkpt>
      <trkpt lat="43.77147" lon="1.74576">
        <ele>119.815575</ele>
        <time>2026-08-28T18:43:03Z</time>
      </trkpt>
      <trkpt lat="43.77148" lon="1.74572">
        <ele>119.927813</ele>
        <time>2026-08-28T18:43:04Z</time>
      </trkpt>
      <trkpt lat="43.7715" lon="1.74569">
        <ele>120.045145</ele>
        <time>2026-08-28T18:43:05Z</time>
      </trkpt>
      <trkpt lat="43.77151" lon="1.74565">
        <ele>120.157082</ele>
        <time>2026-08-28T18:43:06Z</time>
      </trkpt>
      <trkpt lat="43.77151" lon="1.74562">
        <ele>120.246544</ele>
        <time>2026-08-28T18:43:07Z</time>
      </trkpt>
      <trkpt lat="43.77151" lon="1.74559">
        <ele>120.340383</ele>
        <time>2026-08-28T18:43:08Z</time>
      </trkpt>
      <trkpt lat="43.77152" lon="1.74556">
        <ele>120.435648</ele>
        <time>2026-08-28T18:43:09Z</time>
      </trkpt>
      <trkpt lat="43.77153" lon="1.74553">
        <ele>120.533265</ele>
        <time>2026-08-28T18:43:10Z</time>
      </trkpt>
      <trkpt lat="43.77155" lon="1.7455">
        <ele>120.645006</ele>
        <time>2026-08-28T18:43:11Z</time>
      </trkpt>
      <trkpt lat="43.77156" lon="1.74547">
        <ele>120.753356</ele>
        <time>2026-08-28T18:43:12Z</time>
      </trkpt>
      <trkpt lat="43.77157" lon="1.74543">
        <ele>120.885811</ele>
        <time>2026-08-28T18:43:13Z</time>
      </trkpt>
      <trkpt lat="43.77158" lon="1.74538">
        <ele>121.024562</ele>
        <time>2026-08-28T18:43:14Z</time>
      </trkpt>
      <trkpt lat="43.77158" lon="1.74533">
        <ele>121.180196</ele>
        <time>2026-08-28T18:43:15Z</time>
      </trkpt>
      <trkpt lat="43.77159" lon="1.74527">
        <ele>121.339018</ele>
        <time>2026-08-28T18:43:16Z</time>
      </trkpt>
      <trkpt lat="43.77159" lon="1.74522">
        <ele>121.500356</ele>
        <time>2026-08-28T18:43:17Z</time>
      </trkpt>
      <trkpt lat="43.77159" lon="1.74517">
        <ele>121.657098</ele>
        <time>2026-08-28T18:43:18Z</time>
      </trkpt>
      <trkpt lat="43.7716" lon="1.74513">
        <ele>121.781642</ele>
        <time>2026-08-28T18:43:19Z</time>
      </trkpt>
      <trkpt lat="43.77161" lon="1.74509">
        <ele>121.897494</ele>
        <time>2026-08-28T18:43:20Z</time>
      </trkpt>
      <trkpt lat="43.77162" lon="1.74505">
        <ele>122.008471</ele>
        <time>2026-08-28T18:43:21Z</time>
      </trkpt>
      <trkpt lat="43.77163" lon="1.74502">
        <ele>122.120408</ele>
        <time>2026-08-28T18:43:22Z</time>
      </trkpt>
      <trkpt lat="43.77164" lon="1.74499">
        <ele>122.223852</ele>
        <time>2026-08-28T18:43:23Z</time>
      </trkpt>
      <trkpt lat="43.77165" lon="1.74495">
        <ele>122.334231</ele>
        <time>2026-08-28T18:43:24Z</time>
      </trkpt>
      <trkpt lat="43.77166" lon="1.74492">
        <ele>122.42514</ele>
        <time>2026-08-28T18:43:25Z</time>
      </trkpt>
      <trkpt lat="43.77168" lon="1.7449">
        <ele>122.503611</ele>
        <time>2026-08-28T18:43:26Z</time>
      </trkpt>
      <trkpt lat="43.77169" lon="1.74488">
        <ele>122.598928</ele>
        <time>2026-08-28T18:43:27Z</time>
      </trkpt>
      <trkpt lat="43.7717" lon="1.74485">
        <ele>122.664573</ele>
        <time>2026-08-28T18:43:28Z</time>
      </trkpt>
      <trkpt lat="43.77171" lon="1.74481">
        <ele>122.686917</ele>
        <time>2026-08-28T18:43:29Z</time>
      </trkpt>
      <trkpt lat="43.77172" lon="1.74478">
        <ele>122.710831</ele>
        <time>2026-08-28T18:43:30Z</time>
      </trkpt>
      <trkpt lat="43.77173" lon="1.74474">
        <ele>122.736626</ele>
        <time>2026-08-28T18:43:31Z</time>
      </trkpt>
      <trkpt lat="43.77174" lon="1.74471">
        <ele>122.764302</ele>
        <time>2026-08-28T18:43:32Z</time>
      </trkpt>
      <trkpt lat="43.77175" lon="1.74466">
        <ele>122.794247</ele>
        <time>2026-08-28T18:43:33Z</time>
      </trkpt>
      <trkpt lat="43.77176" lon="1.74461">
        <ele>122.829357</ele>
        <time>2026-08-28T18:43:34Z</time>
      </trkpt>
      <trkpt lat="43.77177" lon="1.74456">
        <ele>122.866877</ele>
        <time>2026-08-28T18:43:35Z</time>
      </trkpt>
      <trkpt lat="43.77178" lon="1.74451">
        <ele>122.900688</ele>
        <time>2026-08-28T18:43:36Z</time>
      </trkpt>
      <trkpt lat="43.77179" lon="1.74447">
        <ele>122.933227</ele>
        <time>2026-08-28T18:43:37Z</time>
      </trkpt>
      <trkpt lat="43.77181" lon="1.74442">
        <ele>122.967196</ele>
        <time>2026-08-28T18:43:38Z</time>
      </trkpt>
      <trkpt lat="43.77182" lon="1.74436">
        <ele>123.010122</ele>
        <time>2026-08-28T18:43:39Z</time>
      </trkpt>
      <trkpt lat="43.77183" lon="1.74428">
        <ele>123.059105</ele>
        <time>2026-08-28T18:43:40Z</time>
      </trkpt>
      <trkpt lat="43.77184" lon="1.74422">
        <ele>123.105918</ele>
        <time>2026-08-28T18:43:41Z</time>
      </trkpt>
      <trkpt lat="43.77186" lon="1.74416">
        <ele>123.147748</ele>
        <time>2026-08-28T18:43:42Z</time>
      </trkpt>
      <trkpt lat="43.77188" lon="1.74411">
        <ele>123.183918</ele>
        <time>2026-08-28T18:43:43Z</time>
      </trkpt>
      <trkpt lat="43.77189" lon="1.74407">
        <ele>123.213795</ele>
        <time>2026-08-28T18:43:44Z</time>
      </trkpt>
      <trkpt lat="43.77189" lon="1.74403">
        <ele>123.241552</ele>
        <time>2026-08-28T18:43:45Z</time>
      </trkpt>
      <trkpt lat="43.77191" lon="1.74399">
        <ele>123.26831</ele>
        <time>2026-08-28T18:43:46Z</time>
      </trkpt>
      <trkpt lat="43.77192" lon="1.74395">
        <ele>123.297277</ele>
        <time>2026-08-28T18:43:47Z</time>
      </trkpt>
      <trkpt lat="43.77193" lon="1.74391">
        <ele>123.327154</ele>
        <time>2026-08-28T18:43:48Z</time>
      </trkpt>
      <trkpt lat="43.77195" lon="1.74387">
        <ele>123.359688</ele>
        <time>2026-08-28T18:43:49Z</time>
      </trkpt>
      <trkpt lat="43.77197" lon="1.74383">
        <ele>123.392846</ele>
        <time>2026-08-28T18:43:50Z</time>
      </trkpt>
      <trkpt lat="43.77199" lon="1.74379">
        <ele>123.425919</ele>
        <time>2026-08-28T18:43:51Z</time>
      </trkpt>
      <trkpt lat="43.77202" lon="1.74375">
        <ele>123.463888</ele>
        <time>2026-08-28T18:43:52Z</time>
      </trkpt>
      <trkpt lat="43.77204" lon="1.7437">
        <ele>123.505092</ele>
        <time>2026-08-28T18:43:53Z</time>
      </trkpt>
      <trkpt lat="43.77207" lon="1.74365">
        <ele>123.545801</ele>
        <time>2026-08-28T18:43:54Z</time>
      </trkpt>
      <trkpt lat="43.77209" lon="1.7436">
        <ele>123.583258</ele>
        <time>2026-08-28T18:43:55Z</time>
      </trkpt>
      <trkpt lat="43.77212" lon="1.74356">
        <ele>123.617508</ele>
        <time>2026-08-28T18:43:56Z</time>
      </trkpt>
      <trkpt lat="43.77215" lon="1.74353">
        <ele>123.654026</ele>
        <time>2026-08-28T18:43:57Z</time>
      </trkpt>
      <trkpt lat="43.77218" lon="1.74349">
        <ele>123.691067</ele>
        <time>2026-08-28T18:43:58Z</time>
      </trkpt>
      <trkpt lat="43.77221" lon="1.74346">
        <ele>123.72495</ele>
        <time>2026-08-28T18:43:59Z</time>
      </trkpt>
      <trkpt lat="43.77223" lon="1.74344">
        <ele>123.753507</ele>
        <time>2026-08-28T18:44:00Z</time>
      </trkpt>
      <trkpt lat="43.77225" lon="1.74341">
        <ele>123.777583</ele>
        <time>2026-08-28T18:44:01Z</time>
      </trkpt>
      <trkpt lat="43.77227" lon="1.74339">
        <ele>123.800941</ele>
        <time>2026-08-28T18:44:02Z</time>
      </trkpt>
      <trkpt lat="43.77228" lon="1.74336">
        <ele>123.822785</ele>
        <time>2026-08-28T18:44:03Z</time>
      </trkpt>
      <trkpt lat="43.7723" lon="1.74334">
        <ele>123.846142</ele>
        <time>2026-08-28T18:44:04Z</time>
      </trkpt>
      <trkpt lat="43.77232" lon="1.74331">
        <ele>123.87023</ele>
        <time>2026-08-28T18:44:05Z</time>
      </trkpt>
      <trkpt lat="43.77233" lon="1.74328">
        <ele>123.895743</ele>
        <time>2026-08-28T18:44:06Z</time>
      </trkpt>
      <trkpt lat="43.77235" lon="1.74325">
        <ele>123.920194</ele>
        <time>2026-08-28T18:44:07Z</time>
      </trkpt>
      <trkpt lat="43.77236" lon="1.74321">
        <ele>123.946271</ele>
        <time>2026-08-28T18:44:08Z</time>
      </trkpt>
      <trkpt lat="43.77238" lon="1.74318">
        <ele>123.975686</ele>
        <time>2026-08-28T18:44:09Z</time>
      </trkpt>
      <trkpt lat="43.77241" lon="1.74315">
        <ele>124.009266</ele>
        <time>2026-08-28T18:44:10Z</time>
      </trkpt>
      <trkpt lat="43.77244" lon="1.74311">
        <ele>124.043791</ele>
        <time>2026-08-28T18:44:11Z</time>
      </trkpt>
      <trkpt lat="43.77246" lon="1.74308">
        <ele>124.077142</ele>
        <time>2026-08-28T18:44:12Z</time>
      </trkpt>
      <trkpt lat="43.77249" lon="1.74304">
        <ele>124.112016</ele>
        <time>2026-08-28T18:44:13Z</time>
      </trkpt>
      <trkpt lat="43.77251" lon="1.743">
        <ele>124.147267</ele>
        <time>2026-08-28T18:44:14Z</time>
      </trkpt>
      <trkpt lat="43.77253" lon="1.74295">
        <ele>124.182035</ele>
        <time>2026-08-28T18:44:15Z</time>
      </trkpt>
      <trkpt lat="43.77255" lon="1.74291">
        <ele>124.214571</ele>
        <time>2026-08-28T18:44:16Z</time>
      </trkpt>
      <trkpt lat="43.77257" lon="1.74287">
        <ele>124.250361</ele>
        <time>2026-08-28T18:44:17Z</time>
      </trkpt>
      <trkpt lat="43.7726" lon="1.74283">
        <ele>124.283478</ele>
        <time>2026-08-28T18:44:18Z</time>
      </trkpt>
      <trkpt lat="43.77262" lon="1.7428">
        <ele>124.314332</ele>
        <time>2026-08-28T18:44:19Z</time>
      </trkpt>
      <trkpt lat="43.77265" lon="1.74277">
        <ele>124.357062</ele>
        <time>2026-08-28T18:44:20Z</time>
      </trkpt>
      <trkpt lat="43.77267" lon="1.74274">
        <ele>124.398196</ele>
        <time>2026-08-28T18:44:21Z</time>
      </trkpt>
      <trkpt lat="43.7727" lon="1.74271">
        <ele>124.436601</ele>
        <time>2026-08-28T18:44:22Z</time>
      </trkpt>
      <trkpt lat="43.77272" lon="1.74268">
        <ele>124.474075</ele>
        <time>2026-08-28T18:44:23Z</time>
      </trkpt>
      <trkpt lat="43.77274" lon="1.74264">
        <ele>124.517861</ele>
        <time>2026-08-28T18:44:24Z</time>
      </trkpt>
      <trkpt lat="43.77276" lon="1.7426">
        <ele>124.561493</ele>
        <time>2026-08-28T18:44:25Z</time>
      </trkpt>
      <trkpt lat="43.77279" lon="1.74256">
        <ele>124.609761</ele>
        <time>2026-08-28T18:44:26Z</time>
      </trkpt>
      <trkpt lat="43.77282" lon="1.74252">
        <ele>124.662745</ele>
        <time>2026-08-28T18:44:27Z</time>
      </trkpt>
      <trkpt lat="43.77285" lon="1.74249">
        <ele>124.707835</ele>
        <time>2026-08-28T18:44:28Z</time>
      </trkpt>
      <trkpt lat="43.77288" lon="1.74246">
        <ele>124.755328</ele>
        <time>2026-08-28T18:44:29Z</time>
      </trkpt>
      <trkpt lat="43.7729" lon="1.74244">
        <ele>124.792944</ele>
        <time>2026-08-28T18:44:30Z</time>
      </trkpt>
      <trkpt lat="43.77293" lon="1.74241">
        <ele>124.833789</ele>
        <time>2026-08-28T18:44:31Z</time>
      </trkpt>
      <trkpt lat="43.77295" lon="1.74239">
        <ele>124.867052</ele>
        <time>2026-08-28T18:44:32Z</time>
      </trkpt>
      <trkpt lat="43.77298" lon="1.74238">
        <ele>124.899757</ele>
        <time>2026-08-28T18:44:33Z</time>
      </trkpt>
      <trkpt lat="43.77301" lon="1.74237">
        <ele>124.939076</ele>
        <time>2026-08-28T18:44:34Z</time>
      </trkpt>
      <trkpt lat="43.77304" lon="1.74235">
        <ele>124.981037</ele>
        <time>2026-08-28T18:44:35Z</time>
      </trkpt>
      <trkpt lat="43.77307" lon="1.74234">
        <ele>125.018325</ele>
        <time>2026-08-28T18:44:36Z</time>
      </trkpt>
      <trkpt lat="43.7731" lon="1.74232">
        <ele>125.056667</ele>
        <time>2026-08-28T18:44:37Z</time>
      </trkpt>
      <trkpt lat="43.77312" lon="1.7423">
        <ele>125.097313</ele>
        <time>2026-08-28T18:44:38Z</time>
      </trkpt>
      <trkpt lat="43.77316" lon="1.74227">
        <ele>125.144327</ele>
        <time>2026-08-28T18:44:39Z</time>
      </trkpt>
      <trkpt lat="43.77319" lon="1.74224">
        <ele>125.198216</ele>
        <time>2026-08-28T18:44:40Z</time>
      </trkpt>
      <trkpt lat="43.77323" lon="1.7422">
        <ele>125.254899</ele>
        <time>2026-08-28T18:44:41Z</time>
      </trkpt>
      <trkpt lat="43.77327" lon="1.74217">
        <ele>125.313353</ele>
        <time>2026-08-28T18:44:42Z</time>
      </trkpt>
      <trkpt lat="43.77331" lon="1.74214">
        <ele>125.366974</ele>
        <time>2026-08-28T18:44:43Z</time>
      </trkpt>
      <trkpt lat="43.77334" lon="1.7421">
        <ele>125.420594</ele>
        <time>2026-08-28T18:44:44Z</time>
      </trkpt>
      <trkpt lat="43.77338" lon="1.74206">
        <ele>125.47322</ele>
        <time>2026-08-28T18:44:45Z</time>
      </trkpt>
      <trkpt lat="43.7734" lon="1.74203">
        <ele>125.521033</ele>
        <time>2026-08-28T18:44:46Z</time>
      </trkpt>
      <trkpt lat="43.77343" lon="1.74199">
        <ele>125.566989</ele>
        <time>2026-08-28T18:44:47Z</time>
      </trkpt>
      <trkpt lat="43.77345" lon="1.74194">
        <ele>125.61798</ele>
        <time>2026-08-28T18:44:48Z</time>
      </trkpt>
      <trkpt lat="43.77348" lon="1.7419">
        <ele>125.673321</ele>
        <time>2026-08-28T18:44:49Z</time>
      </trkpt>
      <trkpt lat="43.77351" lon="1.74185">
        <ele>125.725676</ele>
        <time>2026-08-28T18:44:50Z</time>
      </trkpt>
      <trkpt lat="43.77353" lon="1.7418">
        <ele>125.772978</ele>
        <time>2026-08-28T18:44:51Z</time>
      </trkpt>
      <trkpt lat="43.77355" lon="1.74176">
        <ele>125.821031</ele>
        <time>2026-08-28T18:44:52Z</time>
      </trkpt>
      <trkpt lat="43.77357" lon="1.74171">
        <ele>125.868559</ele>
        <time>2026-08-28T18:44:53Z</time>
      </trkpt>
      <trkpt lat="43.77358" lon="1.74167">
        <ele>125.914904</ele>
        <time>2026-08-28T18:44:54Z</time>
      </trkpt>
      <trkpt lat="43.7736" lon="1.74162">
        <ele>125.963659</ele>
        <time>2026-08-28T18:44:55Z</time>
      </trkpt>
      <trkpt lat="43.77362" lon="1.74157">
        <ele>126.012965</ele>
        <time>2026-08-28T18:44:56Z</time>
      </trkpt>
      <trkpt lat="43.77364" lon="1.74153">
        <ele>126.058777</ele>
        <time>2026-08-28T18:44:57Z</time>
      </trkpt>
      <trkpt lat="43.77367" lon="1.7415">
        <ele>126.099281</ele>
        <time>2026-08-28T18:44:58Z</time>
      </trkpt>
      <trkpt lat="43.77369" lon="1.74148">
        <ele>126.134264</ele>
        <time>2026-08-28T18:44:59Z</time>
      </trkpt>
      <trkpt lat="43.77372" lon="1.74149">
        <ele>126.169088</ele>
        <time>2026-08-28T18:45:00Z</time>
      </trkpt>
      <trkpt lat="43.77374" lon="1.7415">
        <ele>126.198857</ele>
        <time>2026-08-28T18:45:01Z</time>
      </trkpt>
      <trkpt lat="43.77375" lon="1.74153">
        <ele>126.228491</ele>
        <time>2026-08-28T18:45:02Z</time>
      </trkpt>
      <trkpt lat="43.77376" lon="1.74157">
        <ele>126.261812</ele>
        <time>2026-08-28T18:45:03Z</time>
      </trkpt>
      <trkpt lat="43.77376" lon="1.74161">
        <ele>126.297336</ele>
        <time>2026-08-28T18:45:04Z</time>
      </trkpt>
      <trkpt lat="43.77378" lon="1.74164">
        <ele>126.334053</ele>
        <time>2026-08-28T18:45:05Z</time>
      </trkpt>
      <trkpt lat="43.77378" lon="1.74168">
        <ele>126.370095</ele>
        <time>2026-08-28T18:45:06Z</time>
      </trkpt>
      <trkpt lat="43.77379" lon="1.74173">
        <ele>126.409051</ele>
        <time>2026-08-28T18:45:07Z</time>
      </trkpt>
      <trkpt lat="43.7738" lon="1.74177">
        <ele>126.450065</ele>
        <time>2026-08-28T18:45:08Z</time>
      </trkpt>
      <trkpt lat="43.77381" lon="1.74181">
        <ele>126.490134</ele>
        <time>2026-08-28T18:45:09Z</time>
      </trkpt>
      <trkpt lat="43.77382" lon="1.74185">
        <ele>126.528946</ele>
        <time>2026-08-28T18:45:10Z</time>
      </trkpt>
      <trkpt lat="43.77383" lon="1.74189">
        <ele>126.620625</ele>
        <time>2026-08-28T18:45:11Z</time>
      </trkpt>
      <trkpt lat="43.77383" lon="1.74193">
        <ele>126.777556</ele>
        <time>2026-08-28T18:45:12Z</time>
      </trkpt>
      <trkpt lat="43.77384" lon="1.74196">
        <ele>126.922431</ele>
        <time>2026-08-28T18:45:13Z</time>
      </trkpt>
      <trkpt lat="43.77384" lon="1.742">
        <ele>127.097982</ele>
        <time>2026-08-28T18:45:14Z</time>
      </trkpt>
      <trkpt lat="43.77385" lon="1.74204">
        <ele>127.276175</ele>
        <time>2026-08-28T18:45:15Z</time>
      </trkpt>
      <trkpt lat="43.77385" lon="1.74208">
        <ele>127.433651</ele>
        <time>2026-08-28T18:45:16Z</time>
      </trkpt>
      <trkpt lat="43.77386" lon="1.74212">
        <ele>127.601066</ele>
        <time>2026-08-28T18:45:17Z</time>
      </trkpt>
      <trkpt lat="43.77387" lon="1.74216">
        <ele>127.766936</ele>
        <time>2026-08-28T18:45:18Z</time>
      </trkpt>
      <trkpt lat="43.77388" lon="1.7422">
        <ele>127.954746</ele>
        <time>2026-08-28T18:45:19Z</time>
      </trkpt>
      <trkpt lat="43.77389" lon="1.74224">
        <ele>128.137783</ele>
        <time>2026-08-28T18:45:20Z</time>
      </trkpt>
      <trkpt lat="43.77389" lon="1.74229">
        <ele>128.327172</ele>
        <time>2026-08-28T18:45:21Z</time>
      </trkpt>
      <trkpt lat="43.7739" lon="1.74233">
        <ele>128.528112</ele>
        <time>2026-08-28T18:45:22Z</time>
      </trkpt>
      <trkpt lat="43.77391" lon="1.74237">
        <ele>128.709359</ele>
        <time>2026-08-28T18:45:23Z</time>
      </trkpt>
      <trkpt lat="43.77392" lon="1.74241">
        <ele>128.902305</ele>
        <time>2026-08-28T18:45:24Z</time>
      </trkpt>
      <trkpt lat="43.77393" lon="1.74246">
        <ele>129.085342</ele>
        <time>2026-08-28T18:45:25Z</time>
      </trkpt>
      <trkpt lat="43.77394" lon="1.74249">
        <ele>129.255313</ele>
        <time>2026-08-28T18:45:26Z</time>
      </trkpt>
      <trkpt lat="43.77395" lon="1.74254">
        <ele>129.43903</ele>
        <time>2026-08-28T18:45:27Z</time>
      </trkpt>
      <trkpt lat="43.77396" lon="1.74258">
        <ele>129.622067</ele>
        <time>2026-08-28T18:45:28Z</time>
      </trkpt>
      <trkpt lat="43.77397" lon="1.74262">
        <ele>129.811784</ele>
        <time>2026-08-28T18:45:29Z</time>
      </trkpt>
      <trkpt lat="43.77399" lon="1.74265">
        <ele>129.979488</ele>
        <time>2026-08-28T18:45:30Z</time>
      </trkpt>
      <trkpt lat="43.774" lon="1.74269">
        <ele>130.151041</ele>
        <time>2026-08-28T18:45:31Z</time>
      </trkpt>
      <trkpt lat="43.77401" lon="1.74273">
        <ele>130.324212</ele>
        <time>2026-08-28T18:45:32Z</time>
      </trkpt>
      <trkpt lat="43.77402" lon="1.74277">
        <ele>130.499763</ele>
        <time>2026-08-28T18:45:33Z</time>
      </trkpt>
      <trkpt lat="43.77403" lon="1.74281">
        <ele>130.704759</ele>
        <time>2026-08-28T18:45:34Z</time>
      </trkpt>
      <trkpt lat="43.77404" lon="1.74285">
        <ele>130.881849</ele>
        <time>2026-08-28T18:45:35Z</time>
      </trkpt>
      <trkpt lat="43.77405" lon="1.74289">
        <ele>131.051078</ele>
        <time>2026-08-28T18:45:36Z</time>
      </trkpt>
      <trkpt lat="43.77407" lon="1.74293">
        <ele>131.242901</ele>
        <time>2026-08-28T18:45:37Z</time>
      </trkpt>
      <trkpt lat="43.77408" lon="1.74297">
        <ele>131.422204</ele>
        <time>2026-08-28T18:45:38Z</time>
      </trkpt>
      <trkpt lat="43.77409" lon="1.743">
        <ele>131.585345</ele>
        <time>2026-08-28T18:45:39Z</time>
      </trkpt>
      <trkpt lat="43.7741" lon="1.74304">
        <ele>131.752759</ele>
        <time>2026-08-28T18:45:40Z</time>
      </trkpt>
      <trkpt lat="43.77411" lon="1.74308">
        <ele>131.931553</ele>
        <time>2026-08-28T18:45:41Z</time>
      </trkpt>
      <trkpt lat="43.77412" lon="1.74312">
        <ele>132.118601</ele>
        <time>2026-08-28T18:45:42Z</time>
      </trkpt>
      <trkpt lat="43.77413" lon="1.74316">
        <ele>132.298232</ele>
        <time>2026-08-28T18:45:43Z</time>
      </trkpt>
      <trkpt lat="43.77415" lon="1.7432">
        <ele>132.500736</ele>
        <time>2026-08-28T18:45:44Z</time>
      </trkpt>
      <trkpt lat="43.77416" lon="1.74323">
        <ele>132.663457</ele>
        <time>2026-08-28T18:45:45Z</time>
      </trkpt>
      <trkpt lat="43.77418" lon="1.74327">
        <ele>132.829926</ele>
        <time>2026-08-28T18:45:46Z</time>
      </trkpt>
      <trkpt lat="43.77419" lon="1.7433">
        <ele>132.983655</ele>
        <time>2026-08-28T18:45:47Z</time>
      </trkpt>
      <trkpt lat="43.7742" lon="1.74333">
        <ele>133.122892</ele>
        <time>2026-08-28T18:45:48Z</time>
      </trkpt>
      <trkpt lat="43.7742" lon="1.74337">
        <ele>133.266119</ele>
        <time>2026-08-28T18:45:49Z</time>
      </trkpt>
      <trkpt lat="43.77421" lon="1.7434">
        <ele>133.43929</ele>
        <time>2026-08-28T18:45:50Z</time>
      </trkpt>
      <trkpt lat="43.77422" lon="1.74344">
        <ele>133.606703</ele>
        <time>2026-08-28T18:45:51Z</time>
      </trkpt>
      <trkpt lat="43.77423" lon="1.74348">
        <ele>133.786333</ele>
        <time>2026-08-28T18:45:52Z</time>
      </trkpt>
      <trkpt lat="43.77424" lon="1.74353">
        <ele>133.970049</ele>
        <time>2026-08-28T18:45:53Z</time>
      </trkpt>
      <trkpt lat="43.77425" lon="1.74357">
        <ele>134.155577</ele>
        <time>2026-08-28T18:45:54Z</time>
      </trkpt>
      <trkpt lat="43.77426" lon="1.74361">
        <ele>134.343584</ele>
        <time>2026-08-28T18:45:55Z</time>
      </trkpt>
      <trkpt lat="43.77428" lon="1.74365">
        <ele>134.540751</ele>
        <time>2026-08-28T18:45:56Z</time>
      </trkpt>
      <trkpt lat="43.77429" lon="1.7437">
        <ele>134.755592</ele>
        <time>2026-08-28T18:45:57Z</time>
      </trkpt>
      <trkpt lat="43.7743" lon="1.74374">
        <ele>134.954729</ele>
        <time>2026-08-28T18:45:58Z</time>
      </trkpt>
      <trkpt lat="43.77431" lon="1.74378">
        <ele>135.143693</ele>
        <time>2026-08-28T18:45:59Z</time>
      </trkpt>
      <trkpt lat="43.77432" lon="1.74383">
        <ele>135.33074</ele>
        <time>2026-08-28T18:46:00Z</time>
      </trkpt>
      <trkpt lat="43.77433" lon="1.74387">
        <ele>135.528921</ele>
        <time>2026-08-28T18:46:01Z</time>
      </trkpt>
      <trkpt lat="43.77435" lon="1.7439">
        <ele>135.71752</ele>
        <time>2026-08-28T18:46:02Z</time>
      </trkpt>
      <trkpt lat="43.77438" lon="1.74393">
        <ele>135.898232</ele>
        <time>2026-08-28T18:46:03Z</time>
      </trkpt>
      <trkpt lat="43.77441" lon="1.74394">
        <ele>136.074355</ele>
        <time>2026-08-28T18:46:04Z</time>
      </trkpt>
      <trkpt lat="43.77443" lon="1.74393">
        <ele>136.198014</ele>
        <time>2026-08-28T18:46:05Z</time>
      </trkpt>
      <trkpt lat="43.77444" lon="1.74392">
        <ele>136.307077</ele>
        <time>2026-08-28T18:46:06Z</time>
      </trkpt>
      <trkpt lat="43.77445" lon="1.74389">
        <ele>136.436706</ele>
        <time>2026-08-28T18:46:07Z</time>
      </trkpt>
      <trkpt lat="43.77446" lon="1.74385">
        <ele>136.60204</ele>
        <time>2026-08-28T18:46:08Z</time>
      </trkpt>
      <trkpt lat="43.77448" lon="1.74382">
        <ele>136.768509</ele>
        <time>2026-08-28T18:46:09Z</time>
      </trkpt>
      <trkpt lat="43.77449" lon="1.74378">
        <ele>136.945597</ele>
        <time>2026-08-28T18:46:10Z</time>
      </trkpt>
      <trkpt lat="43.7745" lon="1.74373">
        <ele>137.131225</ele>
        <time>2026-08-28T18:46:11Z</time>
      </trkpt>
      <trkpt lat="43.77451" lon="1.74369">
        <ele>137.260219</ele>
        <time>2026-08-28T18:46:12Z</time>
      </trkpt>
      <trkpt lat="43.77452" lon="1.74365">
        <ele>137.381382</ele>
        <time>2026-08-28T18:46:13Z</time>
      </trkpt>
      <trkpt lat="43.77454" lon="1.74362">
        <ele>137.50076</ele>
        <time>2026-08-28T18:46:14Z</time>
      </trkpt>
      <trkpt lat="43.77456" lon="1.74359">
        <ele>137.610783</ele>
        <time>2026-08-28T18:46:15Z</time>
      </trkpt>
      <trkpt lat="43.77458" lon="1.74356">
        <ele>137.725955</ele>
        <time>2026-08-28T18:46:16Z</time>
      </trkpt>
      <trkpt lat="43.7746" lon="1.74353">
        <ele>137.842675</ele>
        <time>2026-08-28T18:46:17Z</time>
      </trkpt>
      <trkpt lat="43.77462" lon="1.7435">
        <ele>137.954611</ele>
        <time>2026-08-28T18:46:18Z</time>
      </trkpt>
      <trkpt lat="43.77464" lon="1.74348">
        <ele>138.0526</ele>
        <time>2026-08-28T18:46:19Z</time>
      </trkpt>
      <trkpt lat="43.77466" lon="1.74346">
        <ele>138.150589</ele>
        <time>2026-08-28T18:46:20Z</time>
      </trkpt>
      <trkpt lat="43.77468" lon="1.74345">
        <ele>138.240816</ele>
        <time>2026-08-28T18:46:21Z</time>
      </trkpt>
      <trkpt lat="43.77471" lon="1.74344">
        <ele>138.334986</ele>
        <time>2026-08-28T18:46:22Z</time>
      </trkpt>
      <trkpt lat="43.77473" lon="1.74343">
        <ele>138.418748</ele>
        <time>2026-08-28T18:46:23Z</time>
      </trkpt>
      <trkpt lat="43.77475" lon="1.74343">
        <ele>138.493184</ele>
        <time>2026-08-28T18:46:24Z</time>
      </trkpt>
      <trkpt lat="43.77477" lon="1.74343">
        <ele>138.579171</ele>
        <time>2026-08-28T18:46:25Z</time>
      </trkpt>
      <trkpt lat="43.7748" lon="1.74343">
        <ele>138.696397</ele>
        <time>2026-08-28T18:46:26Z</time>
      </trkpt>
      <trkpt lat="43.77483" lon="1.74343">
        <ele>138.805922</ele>
        <time>2026-08-28T18:46:27Z</time>
      </trkpt>
      <trkpt lat="43.77485" lon="1.74343">
        <ele>138.919768</ele>
        <time>2026-08-28T18:46:28Z</time>
      </trkpt>
      <trkpt lat="43.77488" lon="1.74343">
        <ele>139.036994</ele>
        <time>2026-08-28T18:46:29Z</time>
      </trkpt>
      <trkpt lat="43.77492" lon="1.74343">
        <ele>139.165936</ele>
        <time>2026-08-28T18:46:30Z</time>
      </trkpt>
      <trkpt lat="43.77495" lon="1.74343">
        <ele>139.298784</ele>
        <time>2026-08-28T18:46:31Z</time>
      </trkpt>
      <trkpt lat="43.77498" lon="1.74342">
        <ele>139.420178</ele>
        <time>2026-08-28T18:46:32Z</time>
      </trkpt>
      <trkpt lat="43.77501" lon="1.74342">
        <ele>139.545214</ele>
        <time>2026-08-28T18:46:33Z</time>
      </trkpt>
      <trkpt lat="43.77505" lon="1.74342">
        <ele>139.674249</ele>
        <time>2026-08-28T18:46:34Z</time>
      </trkpt>
      <trkpt lat="43.77508" lon="1.74342">
        <ele>139.796166</ele>
        <time>2026-08-28T18:46:35Z</time>
      </trkpt>
      <trkpt lat="43.77511" lon="1.74341">
        <ele>139.910012</ele>
        <time>2026-08-28T18:46:36Z</time>
      </trkpt>
      <trkpt lat="43.77514" lon="1.74341">
        <ele>140.031406</ele>
        <time>2026-08-28T18:46:37Z</time>
      </trkpt>
      <trkpt lat="43.77517" lon="1.74341">
        <ele>140.148598</ele>
        <time>2026-08-28T18:46:38Z</time>
      </trkpt>
      <trkpt lat="43.7752" lon="1.74341">
        <ele>140.273889</ele>
        <time>2026-08-28T18:46:39Z</time>
      </trkpt>
      <trkpt lat="43.77524" lon="1.7434">
        <ele>140.411656</ele>
        <time>2026-08-28T18:46:40Z</time>
      </trkpt>
      <trkpt lat="43.77527" lon="1.7434">
        <ele>140.548845</ele>
        <time>2026-08-28T18:46:41Z</time>
      </trkpt>
      <trkpt lat="43.7753" lon="1.74339">
        <ele>140.67926</ele>
        <time>2026-08-28T18:46:42Z</time>
      </trkpt>
      <trkpt lat="43.77534" lon="1.74339">
        <ele>140.808294</ele>
        <time>2026-08-28T18:46:43Z</time>
      </trkpt>
      <trkpt lat="43.77537" lon="1.74338">
        <ele>140.93532</ele>
        <time>2026-08-28T18:46:44Z</time>
      </trkpt>
      <trkpt lat="43.77541" lon="1.74337">
        <ele>141.082583</ele>
        <time>2026-08-28T18:46:45Z</time>
      </trkpt>
      <trkpt lat="43.77543" lon="1.74336">
        <ele>141.191762</ele>
        <time>2026-08-28T18:46:46Z</time>
      </trkpt>
      <trkpt lat="43.77546" lon="1.74336">
        <ele>141.293954</ele>
        <time>2026-08-28T18:46:47Z</time>
      </trkpt>
      <trkpt lat="43.77547" lon="1.74335">
        <ele>141.350728</ele>
        <time>2026-08-28T18:46:48Z</time>
      </trkpt>
      <trkpt lat="43.77547" lon="1.74334">
        <ele>141.374608</ele>
        <time>2026-08-28T18:46:49Z</time>
      </trkpt>
      <trkpt lat="43.77548" lon="1.74334">
        <ele>141.395894</ele>
        <time>2026-08-28T18:46:50Z</time>
      </trkpt>
      <trkpt lat="43.77552" lon="1.74339">
        <ele>141.611078</ele>
        <time>2026-08-28T18:47:58Z</time>
      </trkpt>
      <trkpt lat="43.77554" lon="1.74338">
        <ele>141.691018</ele>
        <time>2026-08-28T18:47:59Z</time>
      </trkpt>
      <trkpt lat="43.77557" lon="1.74338">
        <ele>141.781042</ele>
        <time>2026-08-28T18:48:00Z</time>
      </trkpt>
      <trkpt lat="43.7756" lon="1.74338">
        <ele>141.894644</ele>
        <time>2026-08-28T18:48:01Z</time>
      </trkpt>
      <trkpt lat="43.77562" lon="1.74338">
        <ele>142.000154</ele>
        <time>2026-08-28T18:48:02Z</time>
      </trkpt>
      <trkpt lat="43.77565" lon="1.74338">
        <ele>142.117651</ele>
        <time>2026-08-28T18:48:03Z</time>
      </trkpt>
      <trkpt lat="43.77568" lon="1.74338">
        <ele>142.234877</ele>
        <time>2026-08-28T18:48:04Z</time>
      </trkpt>
      <trkpt lat="43.77571" lon="1.74337">
        <ele>142.3565</ele>
        <time>2026-08-28T18:48:05Z</time>
      </trkpt>
      <trkpt lat="43.77574" lon="1.74336">
        <ele>142.475344</ele>
        <time>2026-08-28T18:48:06Z</time>
      </trkpt>
      <trkpt lat="43.77577" lon="1.74336">
        <ele>142.586491</ele>
        <time>2026-08-28T18:48:07Z</time>
      </trkpt>
      <trkpt lat="43.7758" lon="1.74336">
        <ele>142.680921</ele>
        <time>2026-08-28T18:48:08Z</time>
      </trkpt>
      <trkpt lat="43.77582" lon="1.74336">
        <ele>142.778744</ele>
        <time>2026-08-28T18:48:09Z</time>
      </trkpt>
      <trkpt lat="43.77585" lon="1.74335">
        <ele>142.87838</ele>
        <time>2026-08-28T18:48:10Z</time>
      </trkpt>
      <trkpt lat="43.77587" lon="1.74335">
        <ele>142.989527</ele>
        <time>2026-08-28T18:48:11Z</time>
      </trkpt>
      <trkpt lat="43.7759" lon="1.74334">
        <ele>143.100208</ele>
        <time>2026-08-28T18:48:12Z</time>
      </trkpt>
      <trkpt lat="43.77593" lon="1.74334">
        <ele>143.229397</ele>
        <time>2026-08-28T18:48:13Z</time>
      </trkpt>
      <trkpt lat="43.77596" lon="1.74334">
        <ele>143.346623</ele>
        <time>2026-08-28T18:48:14Z</time>
      </trkpt>
      <trkpt lat="43.776" lon="1.74334">
        <ele>143.475811</ele>
        <time>2026-08-28T18:48:15Z</time>
      </trkpt>
      <trkpt lat="43.77603" lon="1.74334">
        <ele>143.604846</ele>
        <time>2026-08-28T18:48:16Z</time>
      </trkpt>
      <trkpt lat="43.77606" lon="1.74334">
        <ele>143.729978</ele>
        <time>2026-08-28T18:48:17Z</time>
      </trkpt>
      <trkpt lat="43.77609" lon="1.74334">
        <ele>143.855015</ele>
        <time>2026-08-28T18:48:18Z</time>
      </trkpt>
      <trkpt lat="43.77612" lon="1.74334">
        <ele>143.972512</ele>
        <time>2026-08-28T18:48:19Z</time>
      </trkpt>
      <trkpt lat="43.77616" lon="1.74335">
        <ele>144.097644</ele>
        <time>2026-08-28T18:48:20Z</time>
      </trkpt>
      <trkpt lat="43.77619" lon="1.74335">
        <ele>144.152403</ele>
        <time>2026-08-28T18:48:21Z</time>
      </trkpt>
      <trkpt lat="43.77622" lon="1.74335">
        <ele>144.199524</ele>
        <time>2026-08-28T18:48:22Z</time>
      </trkpt>
      <trkpt lat="43.77626" lon="1.74335">
        <ele>144.249511</ele>
        <time>2026-08-28T18:48:23Z</time>
      </trkpt>
      <trkpt lat="43.77629" lon="1.74335">
        <ele>144.298103</ele>
        <time>2026-08-28T18:48:24Z</time>
      </trkpt>
      <trkpt lat="43.77632" lon="1.74335">
        <ele>144.347043</ele>
        <time>2026-08-28T18:48:25Z</time>
      </trkpt>
      <trkpt lat="43.77636" lon="1.74336">
        <ele>144.395984</ele>
        <time>2026-08-28T18:48:26Z</time>
      </trkpt>
      <trkpt lat="43.77639" lon="1.74336">
        <ele>144.441688</ele>
        <time>2026-08-28T18:48:27Z</time>
      </trkpt>
      <trkpt lat="43.77642" lon="1.74336">
        <ele>144.481683</ele>
        <time>2026-08-28T18:48:28Z</time>
      </trkpt>
      <trkpt lat="43.77644" lon="1.74336">
        <ele>144.518822</ele>
        <time>2026-08-28T18:48:29Z</time>
      </trkpt>
      <trkpt lat="43.77647" lon="1.74336">
        <ele>144.553231</ele>
        <time>2026-08-28T18:48:30Z</time>
      </trkpt>
      <trkpt lat="43.77649" lon="1.74335">
        <ele>144.587562</ele>
        <time>2026-08-28T18:48:31Z</time>
      </trkpt>
      <trkpt lat="43.77651" lon="1.74336">
        <ele>144.619128</ele>
        <time>2026-08-28T18:48:32Z</time>
      </trkpt>
      <trkpt lat="43.77654" lon="1.74335">
        <ele>144.652034</ele>
        <time>2026-08-28T18:48:33Z</time>
      </trkpt>
      <trkpt lat="43.77656" lon="1.74335">
        <ele>144.687791</ele>
        <time>2026-08-28T18:48:34Z</time>
      </trkpt>
      <trkpt lat="43.77658" lon="1.74335">
        <ele>144.720648</ele>
        <time>2026-08-28T18:48:35Z</time>
      </trkpt>
      <trkpt lat="43.77661" lon="1.74335">
        <ele>144.75498</ele>
        <time>2026-08-28T18:48:36Z</time>
      </trkpt>
      <trkpt lat="43.77663" lon="1.74335">
        <ele>144.789496</ele>
        <time>2026-08-28T18:48:37Z</time>
      </trkpt>
      <trkpt lat="43.77666" lon="1.74335">
        <ele>144.828269</ele>
        <time>2026-08-28T18:48:38Z</time>
      </trkpt>
      <trkpt lat="43.77669" lon="1.74334">
        <ele>144.865623</ele>
        <time>2026-08-28T18:48:39Z</time>
      </trkpt>
      <trkpt lat="43.77671" lon="1.74334">
        <ele>144.903104</ele>
        <time>2026-08-28T18:48:40Z</time>
      </trkpt>
      <trkpt lat="43.77674" lon="1.74333">
        <ele>144.942</ele>
        <time>2026-08-28T18:48:41Z</time>
      </trkpt>
      <trkpt lat="43.77677" lon="1.74332">
        <ele>144.984033</ele>
        <time>2026-08-28T18:48:42Z</time>
      </trkpt>
      <trkpt lat="43.7768" lon="1.74331">
        <ele>145.028346</ele>
        <time>2026-08-28T18:48:43Z</time>
      </trkpt>
      <trkpt lat="43.77683" lon="1.7433">
        <ele>145.071563</ele>
        <time>2026-08-28T18:48:44Z</time>
      </trkpt>
      <trkpt lat="43.77685" lon="1.74329">
        <ele>145.110989</ele>
        <time>2026-08-28T18:48:45Z</time>
      </trkpt>
      <trkpt lat="43.77686" lon="1.74328">
        <ele>145.129224</ele>
        <time>2026-08-28T18:48:46Z</time>
      </trkpt>
      <trkpt lat="43.77687" lon="1.74328">
        <ele>145.142239</ele>
        <time>2026-08-28T18:48:47Z</time>
      </trkpt>
      <trkpt lat="43.77688" lon="1.74328">
        <ele>145.155131</ele>
        <time>2026-08-28T18:48:48Z</time>
      </trkpt>
      <trkpt lat="43.77689" lon="1.74328">
        <ele>145.173808</ele>
        <time>2026-08-28T18:48:49Z</time>
      </trkpt>
      <trkpt lat="43.77691" lon="1.74328">
        <ele>145.192626</ele>
        <time>2026-08-28T18:48:50Z</time>
      </trkpt>
      <trkpt lat="43.77692" lon="1.74328">
        <ele>145.21407</ele>
        <time>2026-08-28T18:48:51Z</time>
      </trkpt>
      <trkpt lat="43.77694" lon="1.74327">
        <ele>145.245903</ele>
        <time>2026-08-28T18:48:52Z</time>
      </trkpt>
      <trkpt lat="43.77697" lon="1.74326">
        <ele>145.280648</ele>
        <time>2026-08-28T18:48:53Z</time>
      </trkpt>
      <trkpt lat="43.777" lon="1.74325">
        <ele>145.326897</ele>
        <time>2026-08-28T18:48:54Z</time>
      </trkpt>
      <trkpt lat="43.77703" lon="1.74324">
        <ele>145.369333</ele>
        <time>2026-08-28T18:48:55Z</time>
      </trkpt>
      <trkpt lat="43.77705" lon="1.74324">
        <ele>145.40697</ele>
        <time>2026-08-28T18:48:56Z</time>
      </trkpt>
      <trkpt lat="43.77708" lon="1.74323">
        <ele>145.445647</ele>
        <time>2026-08-28T18:48:57Z</time>
      </trkpt>
      <trkpt lat="43.77711" lon="1.74322">
        <ele>145.49085</ele>
        <time>2026-08-28T18:48:58Z</time>
      </trkpt>
      <trkpt lat="43.77714" lon="1.7432">
        <ele>145.534504</ele>
        <time>2026-08-28T18:48:59Z</time>
      </trkpt>
      <trkpt lat="43.77716" lon="1.7432">
        <ele>145.567747</ele>
        <time>2026-08-28T18:49:00Z</time>
      </trkpt>
      <trkpt lat="43.77718" lon="1.7432">
        <ele>145.600605</ele>
        <time>2026-08-28T18:49:01Z</time>
      </trkpt>
      <trkpt lat="43.77721" lon="1.74319">
        <ele>145.63489</ele>
        <time>2026-08-28T18:49:02Z</time>
      </trkpt>
      <trkpt lat="43.77723" lon="1.74318">
        <ele>145.668288</ele>
        <time>2026-08-28T18:49:03Z</time>
      </trkpt>
      <trkpt lat="43.77726" lon="1.74317">
        <ele>145.708505</ele>
        <time>2026-08-28T18:49:04Z</time>
      </trkpt>
      <trkpt lat="43.77728" lon="1.74316">
        <ele>145.748692</ele>
        <time>2026-08-28T18:49:05Z</time>
      </trkpt>
      <trkpt lat="43.77732" lon="1.74315">
        <ele>145.798547</ele>
        <time>2026-08-28T18:49:06Z</time>
      </trkpt>
      <trkpt lat="43.77735" lon="1.74314">
        <ele>145.849377</ele>
        <time>2026-08-28T18:49:07Z</time>
      </trkpt>
      <trkpt lat="43.77739" lon="1.74312">
        <ele>145.901396</ele>
        <time>2026-08-28T18:49:08Z</time>
      </trkpt>
      <trkpt lat="43.77742" lon="1.74311">
        <ele>145.950678</ele>
        <time>2026-08-28T18:49:09Z</time>
      </trkpt>
      <trkpt lat="43.77746" lon="1.7431">
        <ele>146.006708</ele>
        <time>2026-08-28T18:49:10Z</time>
      </trkpt>
      <trkpt lat="43.7775" lon="1.7431">
        <ele>146.068418</ele>
        <time>2026-08-28T18:49:11Z</time>
      </trkpt>
      <trkpt lat="43.77754" lon="1.74309">
        <ele>146.123466</ele>
        <time>2026-08-28T18:49:12Z</time>
      </trkpt>
      <trkpt lat="43.77758" lon="1.74308">
        <ele>146.1757</ele>
        <time>2026-08-28T18:49:13Z</time>
      </trkpt>
      <trkpt lat="43.77761" lon="1.74307">
        <ele>146.2258</ele>
        <time>2026-08-28T18:49:14Z</time>
      </trkpt>
      <trkpt lat="43.77764" lon="1.74306">
        <ele>146.266112</ele>
        <time>2026-08-28T18:49:15Z</time>
      </trkpt>
      <trkpt lat="43.77767" lon="1.74305">
        <ele>146.315743</ele>
        <time>2026-08-28T18:49:16Z</time>
      </trkpt>
      <trkpt lat="43.77771" lon="1.74305">
        <ele>146.371773</ele>
        <time>2026-08-28T18:49:17Z</time>
      </trkpt>
      <trkpt lat="43.77775" lon="1.74304">
        <ele>146.424966</ele>
        <time>2026-08-28T18:49:18Z</time>
      </trkpt>
      <trkpt lat="43.77778" lon="1.74303">
        <ele>146.470416</ele>
        <time>2026-08-28T18:49:19Z</time>
      </trkpt>
      <trkpt lat="43.7778" lon="1.74302">
        <ele>146.509319</ele>
        <time>2026-08-28T18:49:20Z</time>
      </trkpt>
      <trkpt lat="43.77782" lon="1.743">
        <ele>146.534593</ele>
        <time>2026-08-28T18:49:21Z</time>
      </trkpt>
      <trkpt lat="43.77782" lon="1.74299">
        <ele>146.5463</ele>
        <time>2026-08-28T18:49:22Z</time>
      </trkpt>
      <trkpt lat="43.77782" lon="1.74299">
        <ele>146.551649</ele>
        <time>2026-08-28T18:49:23Z</time>
      </trkpt>
      <trkpt lat="43.77782" lon="1.74298">
        <ele>146.556013</ele>
        <time>2026-08-28T18:49:24Z</time>
      </trkpt>
      <trkpt lat="43.7779" lon="1.74298">
        <ele>146.671691</ele>
        <time>2026-08-28T18:49:45Z</time>
      </trkpt>
      <trkpt lat="43.77793" lon="1.74298">
        <ele>146.595088</ele>
        <time>2026-08-28T18:49:46Z</time>
      </trkpt>
      <trkpt lat="43.77796" lon="1.74298">
        <ele>146.469433</ele>
        <time>2026-08-28T18:49:47Z</time>
      </trkpt>
      <trkpt lat="43.77798" lon="1.74298">
        <ele>146.352076</ele>
        <time>2026-08-28T18:49:48Z</time>
      </trkpt>
      <trkpt lat="43.77802" lon="1.74298">
        <ele>146.203997</ele>
        <time>2026-08-28T18:49:49Z</time>
      </trkpt>
      <trkpt lat="43.77805" lon="1.74299">
        <ele>146.043675</ele>
        <time>2026-08-28T18:49:50Z</time>
      </trkpt>
      <trkpt lat="43.77809" lon="1.74301">
        <ele>145.874062</ele>
        <time>2026-08-28T18:49:51Z</time>
      </trkpt>
      <trkpt lat="43.77812" lon="1.74302">
        <ele>145.710769</ele>
        <time>2026-08-28T18:49:52Z</time>
      </trkpt>
      <trkpt lat="43.77815" lon="1.74304">
        <ele>145.553272</ele>
        <time>2026-08-28T18:49:53Z</time>
      </trkpt>
      <trkpt lat="43.77819" lon="1.74307">
        <ele>145.376748</ele>
        <time>2026-08-28T18:49:54Z</time>
      </trkpt>
      <trkpt lat="43.77822" lon="1.74309">
        <ele>145.227296</ele>
        <time>2026-08-28T18:49:55Z</time>
      </trkpt>
      <trkpt lat="43.77825" lon="1.74312">
        <ele>145.055763</ele>
        <time>2026-08-28T18:49:56Z</time>
      </trkpt>
      <trkpt lat="43.77828" lon="1.74316">
        <ele>144.884369</ele>
        <time>2026-08-28T18:49:57Z</time>
      </trkpt>
      <trkpt lat="43.77831" lon="1.74319">
        <ele>144.713916</ele>
        <time>2026-08-28T18:49:58Z</time>
      </trkpt>
      <trkpt lat="43.77833" lon="1.74322">
        <ele>144.553451</ele>
        <time>2026-08-28T18:49:59Z</time>
      </trkpt>
      <trkpt lat="43.77836" lon="1.74325">
        <ele>144.394859</ele>
        <time>2026-08-28T18:50:00Z</time>
      </trkpt>
      <trkpt lat="43.77839" lon="1.74328">
        <ele>144.226944</ele>
        <time>2026-08-28T18:50:01Z</time>
      </trkpt>
      <trkpt lat="43.77842" lon="1.74331">
        <ele>144.069759</ele>
        <time>2026-08-28T18:50:02Z</time>
      </trkpt>
      <trkpt lat="43.77844" lon="1.74335">
        <ele>143.917044</ele>
        <time>2026-08-28T18:50:03Z</time>
      </trkpt>
      <trkpt lat="43.77847" lon="1.74338">
        <ele>143.761789</ele>
        <time>2026-08-28T18:50:04Z</time>
      </trkpt>
      <trkpt lat="43.77849" lon="1.74341">
        <ele>143.620993</ele>
        <time>2026-08-28T18:50:05Z</time>
      </trkpt>
      <trkpt lat="43.77851" lon="1.74344">
        <ele>143.479258</ele>
        <time>2026-08-28T18:50:06Z</time>
      </trkpt>
      <trkpt lat="43.77853" lon="1.74347">
        <ele>143.339723</ele>
        <time>2026-08-28T18:50:07Z</time>
      </trkpt>
      <trkpt lat="43.77856" lon="1.7435">
        <ele>143.196839</ele>
        <time>2026-08-28T18:50:08Z</time>
      </trkpt>
      <trkpt lat="43.77858" lon="1.74353">
        <ele>143.069997</ele>
        <time>2026-08-28T18:50:09Z</time>
      </trkpt>
      <trkpt lat="43.77859" lon="1.74356">
        <ele>142.954335</ele>
        <time>2026-08-28T18:50:10Z</time>
      </trkpt>
      <trkpt lat="43.7786" lon="1.74359">
        <ele>142.853152</ele>
        <time>2026-08-28T18:50:11Z</time>
      </trkpt>
      <trkpt lat="43.77861" lon="1.74362">
        <ele>142.750265</ele>
        <time>2026-08-28T18:50:12Z</time>
      </trkpt>
      <trkpt lat="43.77862" lon="1.74365">
        <ele>142.632067</ele>
        <time>2026-08-28T18:50:13Z</time>
      </trkpt>
      <trkpt lat="43.77864" lon="1.74368">
        <ele>142.508195</ele>
        <time>2026-08-28T18:50:14Z</time>
      </trkpt>
      <trkpt lat="43.77866" lon="1.74371">
        <ele>142.375158</ele>
        <time>2026-08-28T18:50:15Z</time>
      </trkpt>
      <trkpt lat="43.77869" lon="1.74374">
        <ele>142.213369</ele>
        <time>2026-08-28T18:50:16Z</time>
      </trkpt>
      <trkpt lat="43.77872" lon="1.74378">
        <ele>142.033945</ele>
        <time>2026-08-28T18:50:17Z</time>
      </trkpt>
      <trkpt lat="43.77875" lon="1.74381">
        <ele>141.85808</ele>
        <time>2026-08-28T18:50:18Z</time>
      </trkpt>
      <trkpt lat="43.77877" lon="1.74385">
        <ele>141.681194</ele>
        <time>2026-08-28T18:50:19Z</time>
      </trkpt>
      <trkpt lat="43.7788" lon="1.74389">
        <ele>141.5098</ele>
        <time>2026-08-28T18:50:20Z</time>
      </trkpt>
      <trkpt lat="43.77883" lon="1.74393">
        <ele>141.312023</ele>
        <time>2026-08-28T18:50:21Z</time>
      </trkpt>
      <trkpt lat="43.77886" lon="1.74399">
        <ele>141.091209</ele>
        <time>2026-08-28T18:50:22Z</time>
      </trkpt>
      <trkpt lat="43.77888" lon="1.74405">
        <ele>140.862629</ele>
        <time>2026-08-28T18:50:23Z</time>
      </trkpt>
      <trkpt lat="43.77888" lon="1.74412">
        <ele>140.632261</ele>
        <time>2026-08-28T18:50:24Z</time>
      </trkpt>
      <trkpt lat="43.77887" lon="1.74419">
        <ele>140.420007</ele>
        <time>2026-08-28T18:50:25Z</time>
      </trkpt>
      <trkpt lat="43.77887" lon="1.74426">
        <ele>140.202989</ele>
        <time>2026-08-28T18:50:26Z</time>
      </trkpt>
      <trkpt lat="43.77887" lon="1.74433">
        <ele>139.969498</ele>
        <time>2026-08-28T18:50:27Z</time>
      </trkpt>
      <trkpt lat="43.77886" lon="1.7444">
        <ele>139.740598</ele>
        <time>2026-08-28T18:50:28Z</time>
      </trkpt>
      <trkpt lat="43.77885" lon="1.74447">
        <ele>139.496744</ele>
        <time>2026-08-28T18:50:29Z</time>
      </trkpt>
      <trkpt lat="43.77884" lon="1.74454">
        <ele>139.271027</ele>
        <time>2026-08-28T18:50:30Z</time>
      </trkpt>
      <trkpt lat="43.77882" lon="1.7446">
        <ele>139.056156</ele>
        <time>2026-08-28T18:50:31Z</time>
      </trkpt>
      <trkpt lat="43.77881" lon="1.74466">
        <ele>138.879801</ele>
        <time>2026-08-28T18:50:32Z</time>
      </trkpt>
      <trkpt lat="43.77881" lon="1.7447">
        <ele>138.723743</ele>
        <time>2026-08-28T18:50:33Z</time>
      </trkpt>
      <trkpt lat="43.7788" lon="1.74476">
        <ele>138.588724</ele>
        <time>2026-08-28T18:50:34Z</time>
      </trkpt>
      <trkpt lat="43.77879" lon="1.74481">
        <ele>138.523003</ele>
        <time>2026-08-28T18:50:35Z</time>
      </trkpt>
      <trkpt lat="43.77877" lon="1.74486">
        <ele>138.460713</ele>
        <time>2026-08-28T18:50:36Z</time>
      </trkpt>
      <trkpt lat="43.77876" lon="1.74491">
        <ele>138.394527</ele>
        <time>2026-08-28T18:50:37Z</time>
      </trkpt>
      <trkpt lat="43.77874" lon="1.74496">
        <ele>138.324366</ele>
        <time>2026-08-28T18:50:38Z</time>
      </trkpt>
      <trkpt lat="43.77872" lon="1.74501">
        <ele>138.254206</ele>
        <time>2026-08-28T18:50:39Z</time>
      </trkpt>
      <trkpt lat="43.7787" lon="1.74506">
        <ele>138.185048</ele>
        <time>2026-08-28T18:50:40Z</time>
      </trkpt>
      <trkpt lat="43.77869" lon="1.74511">
        <ele>138.12107</ele>
        <time>2026-08-28T18:50:41Z</time>
      </trkpt>
      <trkpt lat="43.77867" lon="1.74516">
        <ele>138.05886</ele>
        <time>2026-08-28T18:50:42Z</time>
      </trkpt>
      <trkpt lat="43.77866" lon="1.7452">
        <ele>138.007823</ele>
        <time>2026-08-28T18:50:43Z</time>
      </trkpt>
      <trkpt lat="43.77865" lon="1.74524">
        <ele>137.950628</ele>
        <time>2026-08-28T18:50:44Z</time>
      </trkpt>
      <trkpt lat="43.77864" lon="1.74529">
        <ele>137.895709</ele>
        <time>2026-08-28T18:50:45Z</time>
      </trkpt>
      <trkpt lat="43.77863" lon="1.74533">
        <ele>137.843052</ele>
        <time>2026-08-28T18:50:46Z</time>
      </trkpt>
      <trkpt lat="43.77861" lon="1.74537">
        <ele>137.786266</ele>
        <time>2026-08-28T18:50:47Z</time>
      </trkpt>
      <trkpt lat="43.7786" lon="1.74541">
        <ele>137.729643</ele>
        <time>2026-08-28T18:50:48Z</time>
      </trkpt>
      <trkpt lat="43.77859" lon="1.74546">
        <ele>137.672857</ele>
        <time>2026-08-28T18:50:49Z</time>
      </trkpt>
      <trkpt lat="43.77857" lon="1.7455">
        <ele>137.61247</ele>
        <time>2026-08-28T18:50:50Z</time>
      </trkpt>
      <trkpt lat="43.77855" lon="1.74555">
        <ele>137.550259</ele>
        <time>2026-08-28T18:50:51Z</time>
      </trkpt>
      <trkpt lat="43.77854" lon="1.74559">
        <ele>137.487271</ele>
        <time>2026-08-28T18:50:52Z</time>
      </trkpt>
      <trkpt lat="43.77852" lon="1.74564">
        <ele>137.423986</ele>
        <time>2026-08-28T18:50:53Z</time>
      </trkpt>
      <trkpt lat="43.7785" lon="1.74569">
        <ele>137.355965</ele>
        <time>2026-08-28T18:50:54Z</time>
      </trkpt>
      <trkpt lat="43.77849" lon="1.74573">
        <ele>137.299341</ele>
        <time>2026-08-28T18:50:55Z</time>
      </trkpt>
      <trkpt lat="43.77848" lon="1.74578">
        <ele>137.242107</ele>
        <time>2026-08-28T18:50:56Z</time>
      </trkpt>
      <trkpt lat="43.77846" lon="1.74581">
        <ele>137.192881</ele>
        <time>2026-08-28T18:50:57Z</time>
      </trkpt>
      <trkpt lat="43.77845" lon="1.74584">
        <ele>137.153771</ele>
        <time>2026-08-28T18:50:58Z</time>
      </trkpt>
      <trkpt lat="43.77845" lon="1.74587">
        <ele>137.11696</ele>
        <time>2026-08-28T18:50:59Z</time>
      </trkpt>
      <trkpt lat="43.77843" lon="1.74591">
        <ele>137.072756</ele>
        <time>2026-08-28T18:51:00Z</time>
      </trkpt>
      <trkpt lat="43.77842" lon="1.74594">
        <ele>137.031881</ele>
        <time>2026-08-28T18:51:01Z</time>
      </trkpt>
      <trkpt lat="43.7784" lon="1.74597">
        <ele>136.983046</ele>
        <time>2026-08-28T18:51:02Z</time>
      </trkpt>
      <trkpt lat="43.77839" lon="1.746">
        <ele>136.93812</ele>
        <time>2026-08-28T18:51:03Z</time>
      </trkpt>
      <trkpt lat="43.77838" lon="1.74603">
        <ele>136.892864</ele>
        <time>2026-08-28T18:51:04Z</time>
      </trkpt>
      <trkpt lat="43.77837" lon="1.74606">
        <ele>136.850196</ele>
        <time>2026-08-28T18:51:05Z</time>
      </trkpt>
      <trkpt lat="43.77835" lon="1.74609">
        <ele>136.811821</ele>
        <time>2026-08-28T18:51:06Z</time>
      </trkpt>
      <trkpt lat="43.77835" lon="1.74612">
        <ele>136.779263</ele>
        <time>2026-08-28T18:51:07Z</time>
      </trkpt>
      <trkpt lat="43.77834" lon="1.74615">
        <ele>136.741262</ele>
        <time>2026-08-28T18:51:08Z</time>
      </trkpt>
      <trkpt lat="43.77833" lon="1.74617">
        <ele>136.710821</ele>
        <time>2026-08-28T18:51:09Z</time>
      </trkpt>
      <trkpt lat="43.77832" lon="1.74619">
        <ele>136.681422</ele>
        <time>2026-08-28T18:51:10Z</time>
      </trkpt>
      <trkpt lat="43.77831" lon="1.74622">
        <ele>136.640328</ele>
        <time>2026-08-28T18:51:11Z</time>
      </trkpt>
      <trkpt lat="43.77829" lon="1.74626">
        <ele>136.589291</ele>
        <time>2026-08-28T18:51:12Z</time>
      </trkpt>
      <trkpt lat="43.77828" lon="1.74629">
        <ele>136.54373</ele>
        <time>2026-08-28T18:51:13Z</time>
      </trkpt>
      <trkpt lat="43.77828" lon="1.74632">
        <ele>136.502663</ele>
        <time>2026-08-28T18:51:14Z</time>
      </trkpt>
      <trkpt lat="43.77827" lon="1.74636">
        <ele>136.461319</ele>
        <time>2026-08-28T18:51:15Z</time>
      </trkpt>
      <trkpt lat="43.77826" lon="1.74639">
        <ele>136.419197</ele>
        <time>2026-08-28T18:51:16Z</time>
      </trkpt>
      <trkpt lat="43.77824" lon="1.74642">
        <ele>136.368305</ele>
        <time>2026-08-28T18:51:17Z</time>
      </trkpt>
      <trkpt lat="43.77823" lon="1.74646">
        <ele>136.32522</ele>
        <time>2026-08-28T18:51:18Z</time>
      </trkpt>
      <trkpt lat="43.77822" lon="1.74649">
        <ele>136.284713</ele>
        <time>2026-08-28T18:51:19Z</time>
      </trkpt>
      <trkpt lat="43.77821" lon="1.74652">
        <ele>136.238849</ele>
        <time>2026-08-28T18:51:20Z</time>
      </trkpt>
      <trkpt lat="43.7782" lon="1.74656">
        <ele>136.192204</ele>
        <time>2026-08-28T18:51:21Z</time>
      </trkpt>
      <trkpt lat="43.77818" lon="1.74659">
        <ele>136.144236</ele>
        <time>2026-08-28T18:51:22Z</time>
      </trkpt>
      <trkpt lat="43.77817" lon="1.74663">
        <ele>136.0965</ele>
        <time>2026-08-28T18:51:23Z</time>
      </trkpt>
      <trkpt lat="43.77817" lon="1.74665">
        <ele>136.061964</ele>
        <time>2026-08-28T18:51:24Z</time>
      </trkpt>
      <trkpt lat="43.77815" lon="1.74668">
        <ele>136.015924</ele>
        <time>2026-08-28T18:51:25Z</time>
      </trkpt>
      <trkpt lat="43.77813" lon="1.74671">
        <ele>135.964446</ele>
        <time>2026-08-28T18:51:26Z</time>
      </trkpt>
      <trkpt lat="43.7781" lon="1.74675">
        <ele>135.909482</ele>
        <time>2026-08-28T18:51:27Z</time>
      </trkpt>
      <trkpt lat="43.77808" lon="1.74677">
        <ele>135.860879</ele>
        <time>2026-08-28T18:51:28Z</time>
      </trkpt>
      <trkpt lat="43.77806" lon="1.7468">
        <ele>135.810607</ele>
        <time>2026-08-28T18:51:29Z</time>
      </trkpt>
      <trkpt lat="43.77804" lon="1.74683">
        <ele>135.762385</ele>
        <time>2026-08-28T18:51:30Z</time>
      </trkpt>
      <trkpt lat="43.77802" lon="1.74686">
        <ele>135.712508</ele>
        <time>2026-08-28T18:51:31Z</time>
      </trkpt>
      <trkpt lat="43.778" lon="1.74689">
        <ele>135.665648</ele>
        <time>2026-08-28T18:51:32Z</time>
      </trkpt>
      <trkpt lat="43.77799" lon="1.74693">
        <ele>135.618528</ele>
        <time>2026-08-28T18:51:33Z</time>
      </trkpt>
      <trkpt lat="43.77797" lon="1.74697">
        <ele>135.667204</ele>
        <time>2026-08-28T18:51:34Z</time>
      </trkpt>
      <trkpt lat="43.77795" lon="1.747">
        <ele>135.719915</ele>
        <time>2026-08-28T18:51:35Z</time>
      </trkpt>
      <trkpt lat="43.77794" lon="1.74704">
        <ele>135.771616</ele>
        <time>2026-08-28T18:51:36Z</time>
      </trkpt>
      <trkpt lat="43.77792" lon="1.74707">
        <ele>135.823263</ele>
        <time>2026-08-28T18:51:37Z</time>
      </trkpt>
      <trkpt lat="43.7779" lon="1.74711">
        <ele>135.875316</ele>
        <time>2026-08-28T18:51:38Z</time>
      </trkpt>
      <trkpt lat="43.77789" lon="1.74715">
        <ele>135.927946</ele>
        <time>2026-08-28T18:51:39Z</time>
      </trkpt>
      <trkpt lat="43.77787" lon="1.74718">
        <ele>135.981593</ele>
        <time>2026-08-28T18:51:40Z</time>
      </trkpt>
      <trkpt lat="43.77785" lon="1.74722">
        <ele>136.032323</ele>
        <time>2026-08-28T18:51:41Z</time>
      </trkpt>
      <trkpt lat="43.77783" lon="1.74725">
        <ele>136.082996</ele>
        <time>2026-08-28T18:51:42Z</time>
      </trkpt>
      <trkpt lat="43.77782" lon="1.74728">
        <ele>136.123436</ele>
        <time>2026-08-28T18:51:43Z</time>
      </trkpt>
      <trkpt lat="43.77781" lon="1.74732">
        <ele>136.175065</ele>
        <time>2026-08-28T18:51:44Z</time>
      </trkpt>
      <trkpt lat="43.77779" lon="1.74736">
        <ele>136.22634</ele>
        <time>2026-08-28T18:51:45Z</time>
      </trkpt>
      <trkpt lat="43.77777" lon="1.7474">
        <ele>136.283165</ele>
        <time>2026-08-28T18:51:46Z</time>
      </trkpt>
      <trkpt lat="43.77776" lon="1.74744">
        <ele>136.336789</ele>
        <time>2026-08-28T18:51:47Z</time>
      </trkpt>
      <trkpt lat="43.77774" lon="1.74747">
        <ele>136.385567</ele>
        <time>2026-08-28T18:51:48Z</time>
      </trkpt>
      <trkpt lat="43.77772" lon="1.74751">
        <ele>136.439296</ele>
        <time>2026-08-28T18:51:49Z</time>
      </trkpt>
      <trkpt lat="43.77771" lon="1.74754">
        <ele>136.484782</ele>
        <time>2026-08-28T18:51:50Z</time>
      </trkpt>
      <trkpt lat="43.77769" lon="1.74758">
        <ele>136.544252</ele>
        <time>2026-08-28T18:51:51Z</time>
      </trkpt>
      <trkpt lat="43.77767" lon="1.74762">
        <ele>136.598877</ele>
        <time>2026-08-28T18:51:52Z</time>
      </trkpt>
      <trkpt lat="43.77765" lon="1.74765">
        <ele>136.651587</ele>
        <time>2026-08-28T18:51:53Z</time>
      </trkpt>
      <trkpt lat="43.77763" lon="1.74769">
        <ele>136.705571</ele>
        <time>2026-08-28T18:51:54Z</time>
      </trkpt>
      <trkpt lat="43.77761" lon="1.74772">
        <ele>136.756244</ele>
        <time>2026-08-28T18:51:55Z</time>
      </trkpt>
      <trkpt lat="43.7776" lon="1.74776">
        <ele>136.807945</ele>
        <time>2026-08-28T18:51:56Z</time>
      </trkpt>
      <trkpt lat="43.77758" lon="1.74779">
        <ele>136.86254</ele>
        <time>2026-08-28T18:51:57Z</time>
      </trkpt>
      <trkpt lat="43.77756" lon="1.74783">
        <ele>136.919059</ele>
        <time>2026-08-28T18:51:58Z</time>
      </trkpt>
      <trkpt lat="43.77754" lon="1.74787">
        <ele>136.967838</ele>
        <time>2026-08-28T18:51:59Z</time>
      </trkpt>
      <trkpt lat="43.77753" lon="1.7479">
        <ele>137.017794</ele>
        <time>2026-08-28T18:52:00Z</time>
      </trkpt>
      <trkpt lat="43.77751" lon="1.74794">
        <ele>137.070425</ele>
        <time>2026-08-28T18:52:01Z</time>
      </trkpt>
      <trkpt lat="43.77749" lon="1.74797">
        <ele>137.124073</ele>
        <time>2026-08-28T18:52:02Z</time>
      </trkpt>
      <trkpt lat="43.77747" lon="1.74801">
        <ele>137.172992</ele>
        <time>2026-08-28T18:52:03Z</time>
      </trkpt>
      <trkpt lat="43.77746" lon="1.74803">
        <ele>137.207648</ele>
        <time>2026-08-28T18:52:04Z</time>
      </trkpt>
      <trkpt lat="43.77745" lon="1.74806">
        <ele>137.2476</ele>
        <time>2026-08-28T18:52:05Z</time>
      </trkpt>
      <trkpt lat="43.77743" lon="1.74809">
        <ele>137.296324</ele>
        <time>2026-08-28T18:52:06Z</time>
      </trkpt>
      <trkpt lat="43.77741" lon="1.74813">
        <ele>137.349194</ele>
        <time>2026-08-28T18:52:07Z</time>
      </trkpt>
      <trkpt lat="43.77739" lon="1.74816">
        <ele>137.398989</ele>
        <time>2026-08-28T18:52:08Z</time>
      </trkpt>
      <trkpt lat="43.77737" lon="1.74819">
        <ele>137.450637</ele>
        <time>2026-08-28T18:52:09Z</time>
      </trkpt>
      <trkpt lat="43.77736" lon="1.74823">
        <ele>137.502689</ele>
        <time>2026-08-28T18:52:10Z</time>
      </trkpt>
      <trkpt lat="43.77734" lon="1.74827">
        <ele>137.559339</ele>
        <time>2026-08-28T18:52:11Z</time>
      </trkpt>
      <trkpt lat="43.77732" lon="1.74831">
        <ele>137.615858</ele>
        <time>2026-08-28T18:52:12Z</time>
      </trkpt>
      <trkpt lat="43.77731" lon="1.74835">
        <ele>137.66686</ele>
        <time>2026-08-28T18:52:13Z</time>
      </trkpt>
      <trkpt lat="43.77729" lon="1.74838">
        <ele>137.714517</ele>
        <time>2026-08-28T18:52:14Z</time>
      </trkpt>
      <trkpt lat="43.77728" lon="1.74843">
        <ele>137.778486</ele>
        <time>2026-08-28T18:52:15Z</time>
      </trkpt>
      <trkpt lat="43.77726" lon="1.74848">
        <ele>137.840248</ele>
        <time>2026-08-28T18:52:16Z</time>
      </trkpt>
      <trkpt lat="43.77725" lon="1.74853">
        <ele>137.90499</ele>
        <time>2026-08-28T18:52:17Z</time>
      </trkpt>
      <trkpt lat="43.77723" lon="1.74857">
        <ele>137.964461</ele>
        <time>2026-08-28T18:52:18Z</time>
      </trkpt>
      <trkpt lat="43.77721" lon="1.74861">
        <ele>138.025053</ele>
        <time>2026-08-28T18:52:19Z</time>
      </trkpt>
      <trkpt lat="43.77719" lon="1.74865">
        <ele>138.085646</ele>
        <time>2026-08-28T18:52:20Z</time>
      </trkpt>
      <trkpt lat="43.77717" lon="1.74869">
        <ele>138.144349</ele>
        <time>2026-08-28T18:52:21Z</time>
      </trkpt>
      <trkpt lat="43.77715" lon="1.74873">
        <ele>138.19698</ele>
        <time>2026-08-28T18:52:22Z</time>
      </trkpt>
      <trkpt lat="43.77713" lon="1.74877">
        <ele>138.254852</ele>
        <time>2026-08-28T18:52:23Z</time>
      </trkpt>
      <trkpt lat="43.77712" lon="1.74882">
        <ele>138.313335</ele>
        <time>2026-08-28T18:52:24Z</time>
      </trkpt>
      <trkpt lat="43.77711" lon="1.74886">
        <ele>138.368165</ele>
        <time>2026-08-28T18:52:25Z</time>
      </trkpt>
      <trkpt lat="43.7771" lon="1.74891">
        <ele>138.428084</ele>
        <time>2026-08-28T18:52:26Z</time>
      </trkpt>
      <trkpt lat="43.77709" lon="1.74895">
        <ele>138.481894</ele>
        <time>2026-08-28T18:52:27Z</time>
      </trkpt>
      <trkpt lat="43.77707" lon="1.74899">
        <ele>138.539035</ele>
        <time>2026-08-28T18:52:28Z</time>
      </trkpt>
      <trkpt lat="43.77706" lon="1.74904">
        <ele>138.595625</ele>
        <time>2026-08-28T18:52:29Z</time>
      </trkpt>
      <trkpt lat="43.77705" lon="1.74908">
        <ele>138.619</ele>
        <time>2026-08-28T18:52:30Z</time>
      </trkpt>
      <trkpt lat="43.77704" lon="1.74914">
        <ele>138.635867</ele>
        <time>2026-08-28T18:52:31Z</time>
      </trkpt>
      <trkpt lat="43.77702" lon="1.74919">
        <ele>138.650044</ele>
        <time>2026-08-28T18:52:32Z</time>
      </trkpt>
      <trkpt lat="43.77701" lon="1.74923">
        <ele>138.662988</ele>
        <time>2026-08-28T18:52:33Z</time>
      </trkpt>
      <trkpt lat="43.77699" lon="1.74927">
        <ele>138.676085</ele>
        <time>2026-08-28T18:52:34Z</time>
      </trkpt>
      <trkpt lat="43.77698" lon="1.74933">
        <ele>138.691627</ele>
        <time>2026-08-28T18:52:35Z</time>
      </trkpt>
      <trkpt lat="43.77697" lon="1.74938">
        <ele>138.706382</ele>
        <time>2026-08-28T18:52:36Z</time>
      </trkpt>
      <trkpt lat="43.77695" lon="1.74942">
        <ele>138.721314</ele>
        <time>2026-08-28T18:52:37Z</time>
      </trkpt>
      <trkpt lat="43.77693" lon="1.74947">
        <ele>138.736659</ele>
        <time>2026-08-28T18:52:38Z</time>
      </trkpt>
      <trkpt lat="43.77692" lon="1.74952">
        <ele>138.751255</ele>
        <time>2026-08-28T18:52:39Z</time>
      </trkpt>
      <trkpt lat="43.7769" lon="1.74957">
        <ele>138.765432</ele>
        <time>2026-08-28T18:52:40Z</time>
      </trkpt>
      <trkpt lat="43.77689" lon="1.74961">
        <ele>138.779609</ele>
        <time>2026-08-28T18:52:41Z</time>
      </trkpt>
      <trkpt lat="43.77687" lon="1.74966">
        <ele>138.79424</ele>
        <time>2026-08-28T18:52:42Z</time>
      </trkpt>
      <trkpt lat="43.77686" lon="1.74971">
        <ele>138.808872</ele>
        <time>2026-08-28T18:52:43Z</time>
      </trkpt>
      <trkpt lat="43.77685" lon="1.74976">
        <ele>138.823239</ele>
        <time>2026-08-28T18:52:44Z</time>
      </trkpt>
      <trkpt lat="43.77683" lon="1.74981">
        <ele>138.837355</ele>
        <time>2026-08-28T18:52:45Z</time>
      </trkpt>
      <trkpt lat="43.77682" lon="1.74985">
        <ele>138.851623</ele>
        <time>2026-08-28T18:52:46Z</time>
      </trkpt>
      <trkpt lat="43.7768" lon="1.7499">
        <ele>138.86515</ele>
        <time>2026-08-28T18:52:47Z</time>
      </trkpt>
      <trkpt lat="43.77678" lon="1.74994">
        <ele>138.879385</ele>
        <time>2026-08-28T18:52:48Z</time>
      </trkpt>
      <trkpt lat="43.77676" lon="1.74999">
        <ele>138.894497</ele>
        <time>2026-08-28T18:52:49Z</time>
      </trkpt>
      <trkpt lat="43.77674" lon="1.75003">
        <ele>138.90887</ele>
        <time>2026-08-28T18:52:50Z</time>
      </trkpt>
      <trkpt lat="43.77673" lon="1.75008">
        <ele>138.922845</ele>
        <time>2026-08-28T18:52:51Z</time>
      </trkpt>
      <trkpt lat="43.77672" lon="1.75013">
        <ele>138.936442</ele>
        <time>2026-08-28T18:52:52Z</time>
      </trkpt>
      <trkpt lat="43.77672" lon="1.75018">
        <ele>138.950373</ele>
        <time>2026-08-28T18:52:53Z</time>
      </trkpt>
      <trkpt lat="43.77673" lon="1.75022">
        <ele>138.963079</ele>
        <time>2026-08-28T18:52:54Z</time>
      </trkpt>
      <trkpt lat="43.77675" lon="1.75026">
        <ele>138.974798</ele>
        <time>2026-08-28T18:52:55Z</time>
      </trkpt>
      <trkpt lat="43.77677" lon="1.75027">
        <ele>138.985702</ele>
        <time>2026-08-28T18:52:56Z</time>
      </trkpt>
      <trkpt lat="43.7768" lon="1.75029">
        <ele>138.998738</ele>
        <time>2026-08-28T18:52:57Z</time>
      </trkpt>
      <trkpt lat="43.77684" lon="1.7503">
        <ele>139.013364</ele>
        <time>2026-08-28T18:52:58Z</time>
      </trkpt>
      <trkpt lat="43.77688" lon="1.75032">
        <ele>139.029603</ele>
        <time>2026-08-28T18:52:59Z</time>
      </trkpt>
      <trkpt lat="43.77692" lon="1.75034">
        <ele>139.044418</ele>
        <time>2026-08-28T18:53:00Z</time>
      </trkpt>
      <trkpt lat="43.77696" lon="1.75036">
        <ele>139.060679</ele>
        <time>2026-08-28T18:53:01Z</time>
      </trkpt>
      <trkpt lat="43.77699" lon="1.75037">
        <ele>139.074942</ele>
        <time>2026-08-28T18:53:02Z</time>
      </trkpt>
      <trkpt lat="43.77703" lon="1.7504">
        <ele>139.09078</ele>
        <time>2026-08-28T18:53:03Z</time>
      </trkpt>
      <trkpt lat="43.77707" lon="1.75041">
        <ele>139.106345</ele>
        <time>2026-08-28T18:53:04Z</time>
      </trkpt>
      <trkpt lat="43.7771" lon="1.75043">
        <ele>139.119627</ele>
        <time>2026-08-28T18:53:05Z</time>
      </trkpt>
      <trkpt lat="43.77713" lon="1.75045">
        <ele>139.13396</ele>
        <time>2026-08-28T18:53:06Z</time>
      </trkpt>
      <trkpt lat="43.77717" lon="1.75048">
        <ele>139.148088</ele>
        <time>2026-08-28T18:53:07Z</time>
      </trkpt>
      <trkpt lat="43.77719" lon="1.75051">
        <ele>139.160809</ele>
        <time>2026-08-28T18:53:08Z</time>
      </trkpt>
      <trkpt lat="43.7772" lon="1.75055">
        <ele>139.172654</ele>
        <time>2026-08-28T18:53:09Z</time>
      </trkpt>
      <trkpt lat="43.7772" lon="1.75059">
        <ele>139.184593</ele>
        <time>2026-08-28T18:53:10Z</time>
      </trkpt>
      <trkpt lat="43.7772" lon="1.75063">
        <ele>139.196832</ele>
        <time>2026-08-28T18:53:11Z</time>
      </trkpt>
      <trkpt lat="43.77718" lon="1.75066">
        <ele>139.208236</ele>
        <time>2026-08-28T18:53:12Z</time>
      </trkpt>
      <trkpt lat="43.77716" lon="1.75068">
        <ele>139.216995</ele>
        <time>2026-08-28T18:53:13Z</time>
      </trkpt>
      <trkpt lat="43.77715" lon="1.75071">
        <ele>139.226001</ele>
        <time>2026-08-28T18:53:14Z</time>
      </trkpt>
      <trkpt lat="43.77713" lon="1.75073">
        <ele>139.235231</ele>
        <time>2026-08-28T18:53:15Z</time>
      </trkpt>
      <trkpt lat="43.77712" lon="1.75076">
        <ele>139.244081</ele>
        <time>2026-08-28T18:53:16Z</time>
      </trkpt>
      <trkpt lat="43.77711" lon="1.75079">
        <ele>139.253986</ele>
        <time>2026-08-28T18:53:17Z</time>
      </trkpt>
      <trkpt lat="43.77709" lon="1.75082">
        <ele>139.264342</ele>
        <time>2026-08-28T18:53:18Z</time>
      </trkpt>
      <trkpt lat="43.77707" lon="1.75085">
        <ele>139.273801</ele>
        <time>2026-08-28T18:53:19Z</time>
      </trkpt>
      <trkpt lat="43.77706" lon="1.75088">
        <ele>139.284162</ele>
        <time>2026-08-28T18:53:20Z</time>
      </trkpt>
      <trkpt lat="43.77705" lon="1.75091">
        <ele>139.29359</ele>
        <time>2026-08-28T18:53:21Z</time>
      </trkpt>
      <trkpt lat="43.77703" lon="1.75094">
        <ele>139.336512</ele>
        <time>2026-08-28T18:53:22Z</time>
      </trkpt>
      <trkpt lat="43.77702" lon="1.75098">
        <ele>139.420948</ele>
        <time>2026-08-28T18:53:23Z</time>
      </trkpt>
      <trkpt lat="43.777" lon="1.75102">
        <ele>139.510379</ele>
        <time>2026-08-28T18:53:24Z</time>
      </trkpt>
      <trkpt lat="43.77699" lon="1.75106">
        <ele>139.59721</ele>
        <time>2026-08-28T18:53:25Z</time>
      </trkpt>
      <trkpt lat="43.77697" lon="1.75109">
        <ele>139.682763</ele>
        <time>2026-08-28T18:53:26Z</time>
      </trkpt>
      <trkpt lat="43.77695" lon="1.75112">
        <ele>139.766528</ele>
        <time>2026-08-28T18:53:27Z</time>
      </trkpt>
      <trkpt lat="43.77694" lon="1.75115">
        <ele>139.83664</ele>
        <time>2026-08-28T18:53:28Z</time>
      </trkpt>
      <trkpt lat="43.77693" lon="1.75118">
        <ele>139.9111</ele>
        <time>2026-08-28T18:53:29Z</time>
      </trkpt>
      <trkpt lat="43.77691" lon="1.75122">
        <ele>139.994811</ele>
        <time>2026-08-28T18:53:30Z</time>
      </trkpt>
      <trkpt lat="43.7769" lon="1.75125">
        <ele>140.085373</ele>
        <time>2026-08-28T18:53:31Z</time>
      </trkpt>
      <trkpt lat="43.77688" lon="1.75129">
        <ele>140.1742</ele>
        <time>2026-08-28T18:53:32Z</time>
      </trkpt>
      <trkpt lat="43.77686" lon="1.75132">
        <ele>140.262933</ele>
        <time>2026-08-28T18:53:33Z</time>
      </trkpt>
      <trkpt lat="43.77685" lon="1.75136">
        <ele>140.343457</ele>
        <time>2026-08-28T18:53:34Z</time>
      </trkpt>
      <trkpt lat="43.77684" lon="1.75139">
        <ele>140.417917</ele>
        <time>2026-08-28T18:53:35Z</time>
      </trkpt>
      <trkpt lat="43.77682" lon="1.75142">
        <ele>140.491582</ele>
        <time>2026-08-28T18:53:36Z</time>
      </trkpt>
      <trkpt lat="43.77681" lon="1.75145">
        <ele>140.56193</ele>
        <time>2026-08-28T18:53:37Z</time>
      </trkpt>
      <trkpt lat="43.77679" lon="1.75147">
        <ele>140.629053</ele>
        <time>2026-08-28T18:53:38Z</time>
      </trkpt>
      <trkpt lat="43.77678" lon="1.7515">
        <ele>140.702815</ele>
        <time>2026-08-28T18:53:39Z</time>
      </trkpt>
      <trkpt lat="43.77677" lon="1.75153">
        <ele>140.779751</ele>
        <time>2026-08-28T18:53:40Z</time>
      </trkpt>
      <trkpt lat="43.77675" lon="1.75157">
        <ele>140.853779</ele>
        <time>2026-08-28T18:53:41Z</time>
      </trkpt>
      <trkpt lat="43.77674" lon="1.7516">
        <ele>140.935818</ele>
        <time>2026-08-28T18:53:42Z</time>
      </trkpt>
      <trkpt lat="43.77672" lon="1.75163">
        <ele>141.013081</ele>
        <time>2026-08-28T18:53:43Z</time>
      </trkpt>
      <trkpt lat="43.77671" lon="1.75166">
        <ele>141.085118</ele>
        <time>2026-08-28T18:53:44Z</time>
      </trkpt>
      <trkpt lat="43.77669" lon="1.75169">
        <ele>141.165642</ele>
        <time>2026-08-28T18:53:45Z</time>
      </trkpt>
      <trkpt lat="43.77667" lon="1.75173">
        <ele>141.256066</ele>
        <time>2026-08-28T18:53:46Z</time>
      </trkpt>
      <trkpt lat="43.77665" lon="1.75177">
        <ele>141.368721</ele>
        <time>2026-08-28T18:53:47Z</time>
      </trkpt>
      <trkpt lat="43.77664" lon="1.75181">
        <ele>141.455553</ele>
        <time>2026-08-28T18:53:48Z</time>
      </trkpt>
      <trkpt lat="43.77662" lon="1.75185">
        <ele>141.540957</ele>
        <time>2026-08-28T18:53:49Z</time>
      </trkpt>
      <trkpt lat="43.77661" lon="1.75188">
        <ele>141.623103</ele>
        <time>2026-08-28T18:53:50Z</time>
      </trkpt>
      <trkpt lat="43.77659" lon="1.7519">
        <ele>141.691745</ele>
        <time>2026-08-28T18:53:51Z</time>
      </trkpt>
      <trkpt lat="43.77657" lon="1.75194">
        <ele>141.783875</ele>
        <time>2026-08-28T18:53:52Z</time>
      </trkpt>
      <trkpt lat="43.77656" lon="1.75198">
        <ele>141.876502</ele>
        <time>2026-08-28T18:53:53Z</time>
      </trkpt>
      <trkpt lat="43.77654" lon="1.75202">
        <ele>141.962762</ele>
        <time>2026-08-28T18:53:54Z</time>
      </trkpt>
      <trkpt lat="43.77653" lon="1.75205">
        <ele>142.041546</ele>
        <time>2026-08-28T18:53:55Z</time>
      </trkpt>
      <trkpt lat="43.77651" lon="1.75208">
        <ele>142.127088</ele>
        <time>2026-08-28T18:53:56Z</time>
      </trkpt>
      <trkpt lat="43.7765" lon="1.75212">
        <ele>142.215915</ele>
        <time>2026-08-28T18:53:57Z</time>
      </trkpt>
      <trkpt lat="43.77648" lon="1.75215">
        <ele>142.301458</ele>
        <time>2026-08-28T18:53:58Z</time>
      </trkpt>
      <trkpt lat="43.77646" lon="1.75219">
        <ele>142.392292</ele>
        <time>2026-08-28T18:53:59Z</time>
      </trkpt>
      <trkpt lat="43.77644" lon="1.75223">
        <ele>142.480387</ele>
        <time>2026-08-28T18:54:00Z</time>
      </trkpt>
      <trkpt lat="43.77642" lon="1.75226">
        <ele>142.58085</ele>
        <time>2026-08-28T18:54:01Z</time>
      </trkpt>
      <trkpt lat="43.7764" lon="1.7523">
        <ele>142.683049</ele>
        <time>2026-08-28T18:54:02Z</time>
      </trkpt>
      <trkpt lat="43.77638" lon="1.75234">
        <ele>142.773474</ele>
        <time>2026-08-28T18:54:03Z</time>
      </trkpt>
      <trkpt lat="43.77636" lon="1.75238">
        <ele>142.890722</ele>
        <time>2026-08-28T18:54:04Z</time>
      </trkpt>
      <trkpt lat="43.77634" lon="1.75243">
        <ele>142.995152</ele>
        <time>2026-08-28T18:54:05Z</time>
      </trkpt>
      <trkpt lat="43.77632" lon="1.75247">
        <ele>143.103195</ele>
        <time>2026-08-28T18:54:06Z</time>
      </trkpt>
      <trkpt lat="43.77631" lon="1.75252">
        <ele>143.200827</ele>
        <time>2026-08-28T18:54:07Z</time>
      </trkpt>
      <trkpt lat="43.77629" lon="1.75256">
        <ele>143.297586</ele>
        <time>2026-08-28T18:54:08Z</time>
      </trkpt>
      <trkpt lat="43.77627" lon="1.7526">
        <ele>143.393169</ele>
        <time>2026-08-28T18:54:09Z</time>
      </trkpt>
      <trkpt lat="43.77626" lon="1.75264">
        <ele>143.483108</ele>
        <time>2026-08-28T18:54:10Z</time>
      </trkpt>
      <trkpt lat="43.77624" lon="1.75267">
        <ele>143.572168</ele>
        <time>2026-08-28T18:54:11Z</time>
      </trkpt>
      <trkpt lat="43.77622" lon="1.75272">
        <ele>143.677792</ele>
        <time>2026-08-28T18:54:12Z</time>
      </trkpt>
      <trkpt lat="43.77621" lon="1.75275">
        <ele>143.766851</ele>
        <time>2026-08-28T18:54:13Z</time>
      </trkpt>
      <trkpt lat="43.77619" lon="1.75279">
        <ele>143.859163</ele>
        <time>2026-08-28T18:54:14Z</time>
      </trkpt>
      <trkpt lat="43.77617" lon="1.75283">
        <ele>143.946458</ele>
        <time>2026-08-28T18:54:15Z</time>
      </trkpt>
      <trkpt lat="43.77616" lon="1.75286">
        <ele>144.031858</ele>
        <time>2026-08-28T18:54:16Z</time>
      </trkpt>
      <trkpt lat="43.77614" lon="1.7529">
        <ele>144.127302</ele>
        <time>2026-08-28T18:54:17Z</time>
      </trkpt>
      <trkpt lat="43.77612" lon="1.75293">
        <ele>144.206749</ele>
        <time>2026-08-28T18:54:18Z</time>
      </trkpt>
      <trkpt lat="43.77611" lon="1.75296">
        <ele>144.280778</ele>
        <time>2026-08-28T18:54:19Z</time>
      </trkpt>
      <trkpt lat="43.7761" lon="1.753">
        <ele>144.370224</ele>
        <time>2026-08-28T18:54:20Z</time>
      </trkpt>
      <trkpt lat="43.77609" lon="1.75304">
        <ele>144.452871</ele>
        <time>2026-08-28T18:54:21Z</time>
      </trkpt>
      <trkpt lat="43.77607" lon="1.75307">
        <ele>144.606715</ele>
        <time>2026-08-28T18:54:22Z</time>
      </trkpt>
      <trkpt lat="43.77605" lon="1.75311">
        <ele>144.751282</ele>
        <time>2026-08-28T18:54:23Z</time>
      </trkpt>
      <trkpt lat="43.77604" lon="1.75315">
        <ele>144.883603</ele>
        <time>2026-08-28T18:54:24Z</time>
      </trkpt>
      <trkpt lat="43.77603" lon="1.75319">
        <ele>145.011337</ele>
        <time>2026-08-28T18:54:25Z</time>
      </trkpt>
      <trkpt lat="43.77602" lon="1.75323">
        <ele>145.155904</ele>
        <time>2026-08-28T18:54:26Z</time>
      </trkpt>
      <trkpt lat="43.776" lon="1.75327">
        <ele>145.307123</ele>
        <time>2026-08-28T18:54:27Z</time>
      </trkpt>
      <trkpt lat="43.77598" lon="1.7533">
        <ele>145.450383</ele>
        <time>2026-08-28T18:54:28Z</time>
      </trkpt>
      <trkpt lat="43.77596" lon="1.75333">
        <ele>145.580738</ele>
        <time>2026-08-28T18:54:29Z</time>
      </trkpt>
      <trkpt lat="43.77594" lon="1.75337">
        <ele>145.72928</ele>
        <time>2026-08-28T18:54:30Z</time>
      </trkpt>
      <trkpt lat="43.77593" lon="1.75341">
        <ele>145.873195</ele>
        <time>2026-08-28T18:54:31Z</time>
      </trkpt>
      <trkpt lat="43.77592" lon="1.75344">
        <ele>145.999956</ele>
        <time>2026-08-28T18:54:32Z</time>
      </trkpt>
      <trkpt lat="43.7759" lon="1.75347">
        <ele>146.106483</ele>
        <time>2026-08-28T18:54:33Z</time>
      </trkpt>
      <trkpt lat="43.77589" lon="1.7535">
        <ele>146.221559</ele>
        <time>2026-08-28T18:54:34Z</time>
      </trkpt>
      <trkpt lat="43.77588" lon="1.75354">
        <ele>146.363142</ele>
        <time>2026-08-28T18:54:35Z</time>
      </trkpt>
      <trkpt lat="43.77587" lon="1.75358">
        <ele>146.490877</ele>
        <time>2026-08-28T18:54:36Z</time>
      </trkpt>
      <trkpt lat="43.77586" lon="1.75362">
        <ele>146.645197</ele>
        <time>2026-08-28T18:54:37Z</time>
      </trkpt>
      <trkpt lat="43.77585" lon="1.75366">
        <ele>146.754509</ele>
        <time>2026-08-28T18:54:38Z</time>
      </trkpt>
      <trkpt lat="43.77584" lon="1.75369">
        <ele>146.862613</ele>
        <time>2026-08-28T18:54:39Z</time>
      </trkpt>
      <trkpt lat="43.77584" lon="1.75372">
        <ele>146.968862</ele>
        <time>2026-08-28T18:54:40Z</time>
      </trkpt>
      <trkpt lat="43.77583" lon="1.75375">
        <ele>147.072009</ele>
        <time>2026-08-28T18:54:41Z</time>
      </trkpt>
      <trkpt lat="43.77581" lon="1.75378">
        <ele>147.199584</ele>
        <time>2026-08-28T18:54:42Z</time>
      </trkpt>
      <trkpt lat="43.7758" lon="1.75381">
        <ele>147.324699</ele>
        <time>2026-08-28T18:54:43Z</time>
      </trkpt>
      <trkpt lat="43.77578" lon="1.75384">
        <ele>147.444926</ele>
        <time>2026-08-28T18:54:44Z</time>
      </trkpt>
      <trkpt lat="43.77576" lon="1.75386">
        <ele>147.558992</ele>
        <time>2026-08-28T18:54:45Z</time>
      </trkpt>
      <trkpt lat="43.77574" lon="1.7539">
        <ele>147.710205</ele>
        <time>2026-08-28T18:54:46Z</time>
      </trkpt>
      <trkpt lat="43.77573" lon="1.75394">
        <ele>147.845897</ele>
        <time>2026-08-28T18:54:47Z</time>
      </trkpt>
      <trkpt lat="43.77573" lon="1.75397">
        <ele>147.960407</ele>
        <time>2026-08-28T18:54:48Z</time>
      </trkpt>
      <trkpt lat="43.77572" lon="1.75401">
        <ele>148.079226</ele>
        <time>2026-08-28T18:54:49Z</time>
      </trkpt>
      <trkpt lat="43.77571" lon="1.75405">
        <ele>148.206961</ele>
        <time>2026-08-28T18:54:50Z</time>
      </trkpt>
      <trkpt lat="43.7757" lon="1.75408">
        <ele>148.316273</ele>
        <time>2026-08-28T18:54:51Z</time>
      </trkpt>
      <trkpt lat="43.77569" lon="1.75411">
        <ele>148.450049</ele>
        <time>2026-08-28T18:54:52Z</time>
      </trkpt>
      <trkpt lat="43.77567" lon="1.75415">
        <ele>148.581736</ele>
        <time>2026-08-28T18:54:53Z</time>
      </trkpt>
      <trkpt lat="43.77566" lon="1.75418">
        <ele>148.698446</ele>
        <time>2026-08-28T18:54:54Z</time>
      </trkpt>
      <trkpt lat="43.77564" lon="1.75421">
        <ele>148.826498</ele>
        <time>2026-08-28T18:54:55Z</time>
      </trkpt>
      <trkpt lat="43.77563" lon="1.75424">
        <ele>148.951317</ele>
        <time>2026-08-28T18:54:56Z</time>
      </trkpt>
      <trkpt lat="43.77561" lon="1.75427">
        <ele>149.073406</ele>
        <time>2026-08-28T18:54:57Z</time>
      </trkpt>
      <trkpt lat="43.7756" lon="1.75431">
        <ele>149.213989</ele>
        <time>2026-08-28T18:54:58Z</time>
      </trkpt>
      <trkpt lat="43.77558" lon="1.75434">
        <ele>149.360017</ele>
        <time>2026-08-28T18:54:59Z</time>
      </trkpt>
      <trkpt lat="43.77555" lon="1.75438">
        <ele>149.509383</ele>
        <time>2026-08-28T18:55:00Z</time>
      </trkpt>
      <trkpt lat="43.77554" lon="1.75441">
        <ele>149.639529</ele>
        <time>2026-08-28T18:55:01Z</time>
      </trkpt>
      <trkpt lat="43.77551" lon="1.75444">
        <ele>149.779422</ele>
        <time>2026-08-28T18:55:02Z</time>
      </trkpt>
      <trkpt lat="43.7755" lon="1.75447">
        <ele>149.900447</ele>
        <time>2026-08-28T18:55:03Z</time>
      </trkpt>
      <trkpt lat="43.77548" lon="1.75449">
        <ele>150.020134</ele>
        <time>2026-08-28T18:55:04Z</time>
      </trkpt>
      <trkpt lat="43.77546" lon="1.75452">
        <ele>150.145608</ele>
        <time>2026-08-28T18:55:05Z</time>
      </trkpt>
      <trkpt lat="43.77544" lon="1.75455">
        <ele>150.262318</ele>
        <time>2026-08-28T18:55:06Z</time>
      </trkpt>
      <trkpt lat="43.77544" lon="1.75457">
        <ele>150.350346</ele>
        <time>2026-08-28T18:55:07Z</time>
      </trkpt>
      <trkpt lat="43.77543" lon="1.75461">
        <ele>150.46734</ele>
        <time>2026-08-28T18:55:08Z</time>
      </trkpt>
      <trkpt lat="43.77543" lon="1.75464">
        <ele>150.566426</ele>
        <time>2026-08-28T18:55:09Z</time>
      </trkpt>
      <trkpt lat="43.77542" lon="1.75467">
        <ele>150.674131</ele>
        <time>2026-08-28T18:55:10Z</time>
      </trkpt>
      <trkpt lat="43.77541" lon="1.7547">
        <ele>150.792101</ele>
        <time>2026-08-28T18:55:11Z</time>
      </trkpt>
      <trkpt lat="43.7754" lon="1.75473">
        <ele>150.906178</ele>
        <time>2026-08-28T18:55:12Z</time>
      </trkpt>
      <trkpt lat="43.77539" lon="1.75477">
        <ele>151.029332</ele>
        <time>2026-08-28T18:55:13Z</time>
      </trkpt>
      <trkpt lat="43.7754" lon="1.75481">
        <ele>151.174421</ele>
        <time>2026-08-28T18:55:14Z</time>
      </trkpt>
      <trkpt lat="43.7754" lon="1.75485">
        <ele>151.299074</ele>
        <time>2026-08-28T18:55:15Z</time>
      </trkpt>
      <trkpt lat="43.77539" lon="1.75489">
        <ele>151.440097</ele>
        <time>2026-08-28T18:55:16Z</time>
      </trkpt>
      <trkpt lat="43.77538" lon="1.75495">
        <ele>151.616372</ele>
        <time>2026-08-28T18:55:17Z</time>
      </trkpt>
      <trkpt lat="43.77538" lon="1.75501">
        <ele>151.811989</ele>
        <time>2026-08-28T18:55:18Z</time>
      </trkpt>
      <trkpt lat="43.77537" lon="1.75508">
        <ele>152.047723</ele>
        <time>2026-08-28T18:55:19Z</time>
      </trkpt>
      <trkpt lat="43.77537" lon="1.75515">
        <ele>152.289868</ele>
        <time>2026-08-28T18:55:20Z</time>
      </trkpt>
      <trkpt lat="43.77537" lon="1.75523">
        <ele>152.542153</ele>
        <time>2026-08-28T18:55:21Z</time>
      </trkpt>
      <trkpt lat="43.77537" lon="1.7553">
        <ele>152.511422</ele>
        <time>2026-08-28T18:55:22Z</time>
      </trkpt>
      <trkpt lat="43.77537" lon="1.75539">
        <ele>152.397107</ele>
        <time>2026-08-28T18:55:23Z</time>
      </trkpt>
      <trkpt lat="43.77538" lon="1.75548">
        <ele>152.264614</ele>
        <time>2026-08-28T18:55:24Z</time>
      </trkpt>
      <trkpt lat="43.77538" lon="1.75558">
        <ele>152.12644</ele>
        <time>2026-08-28T18:55:25Z</time>
      </trkpt>
      <trkpt lat="43.77538" lon="1.75567">
        <ele>151.998219</ele>
        <time>2026-08-28T18:55:26Z</time>
      </trkpt>
      <trkpt lat="43.77539" lon="1.75576">
        <ele>151.877988</ele>
        <time>2026-08-28T18:55:27Z</time>
      </trkpt>
      <trkpt lat="43.77541" lon="1.75583">
        <ele>151.771195</ele>
        <time>2026-08-28T18:55:28Z</time>
      </trkpt>
      <trkpt lat="43.77542" lon="1.75589">
        <ele>151.678243</ele>
        <time>2026-08-28T18:55:29Z</time>
      </trkpt>
      <trkpt lat="43.77543" lon="1.75595">
        <ele>151.603561</ele>
        <time>2026-08-28T18:55:30Z</time>
      </trkpt>
      <trkpt lat="43.77545" lon="1.75598">
        <ele>151.54656</ele>
        <time>2026-08-28T18:55:31Z</time>
      </trkpt>
      <trkpt lat="43.77546" lon="1.75602">
        <ele>151.48927</ele>
        <time>2026-08-28T18:55:32Z</time>
      </trkpt>
      <trkpt lat="43.77548" lon="1.75605">
        <ele>151.438336</ele>
        <time>2026-08-28T18:55:33Z</time>
      </trkpt>
      <trkpt lat="43.77549" lon="1.75607">
        <ele>151.398758</ele>
        <time>2026-08-28T18:55:34Z</time>
      </trkpt>
      <trkpt lat="43.7755" lon="1.75609">
        <ele>151.371604</ele>
        <time>2026-08-28T18:55:35Z</time>
      </trkpt>
      <trkpt lat="43.7755" lon="1.7561">
        <ele>151.35119</ele>
        <time>2026-08-28T18:55:36Z</time>
      </trkpt>
      <trkpt lat="43.77551" lon="1.75611">
        <ele>151.326332</ele>
        <time>2026-08-28T18:55:37Z</time>
      </trkpt>
      <trkpt lat="43.77547" lon="1.75612">
        <ele>151.248403</ele>
        <time>2026-08-28T18:55:48Z</time>
      </trkpt>
      <trkpt lat="43.77547" lon="1.75615">
        <ele>151.211998</ele>
        <time>2026-08-28T18:55:49Z</time>
      </trkpt>
      <trkpt lat="43.77547" lon="1.75617">
        <ele>151.173014</ele>
        <time>2026-08-28T18:55:50Z</time>
      </trkpt>
      <trkpt lat="43.77547" lon="1.7562">
        <ele>151.13403</ele>
        <time>2026-08-28T18:55:51Z</time>
      </trkpt>
      <trkpt lat="43.77547" lon="1.75623">
        <ele>151.09624</ele>
        <time>2026-08-28T18:55:52Z</time>
      </trkpt>
      <trkpt lat="43.77547" lon="1.75626">
        <ele>151.054427</ele>
        <time>2026-08-28T18:55:53Z</time>
      </trkpt>
      <trkpt lat="43.77547" lon="1.7563">
        <ele>150.995665</ele>
        <time>2026-08-28T18:55:54Z</time>
      </trkpt>
      <trkpt lat="43.77548" lon="1.75635">
        <ele>150.931359</ele>
        <time>2026-08-28T18:55:55Z</time>
      </trkpt>
      <trkpt lat="43.77548" lon="1.7564">
        <ele>150.864501</ele>
        <time>2026-08-28T18:55:56Z</time>
      </trkpt>
      <trkpt lat="43.77548" lon="1.75644">
        <ele>150.796034</ele>
        <time>2026-08-28T18:55:57Z</time>
      </trkpt>
      <trkpt lat="43.77549" lon="1.7565">
        <ele>150.720229</ele>
        <time>2026-08-28T18:55:58Z</time>
      </trkpt>
      <trkpt lat="43.77551" lon="1.75655">
        <ele>150.634834</ele>
        <time>2026-08-28T18:55:59Z</time>
      </trkpt>
      <trkpt lat="43.77553" lon="1.75661">
        <ele>150.548211</ele>
        <time>2026-08-28T18:56:00Z</time>
      </trkpt>
      <trkpt lat="43.77554" lon="1.75667">
        <ele>150.459464</ele>
        <time>2026-08-28T18:56:01Z</time>
      </trkpt>
      <trkpt lat="43.77555" lon="1.75674">
        <ele>150.361841</ele>
        <time>2026-08-28T18:56:02Z</time>
      </trkpt>
      <trkpt lat="43.77556" lon="1.75681">
        <ele>150.256245</ele>
        <time>2026-08-28T18:56:03Z</time>
      </trkpt>
      <trkpt lat="43.77557" lon="1.75688">
        <ele>150.156076</ele>
        <time>2026-08-28T18:56:04Z</time>
      </trkpt>
      <trkpt lat="43.77558" lon="1.75696">
        <ele>150.051838</ele>
        <time>2026-08-28T18:56:05Z</time>
      </trkpt>
      <trkpt lat="43.77559" lon="1.75702">
        <ele>149.958322</ele>
        <time>2026-08-28T18:56:06Z</time>
      </trkpt>
      <trkpt lat="43.77561" lon="1.75707">
        <ele>149.880988</ele>
        <time>2026-08-28T18:56:07Z</time>
      </trkpt>
      <trkpt lat="43.77561" lon="1.75713">
        <ele>149.805601</ele>
        <time>2026-08-28T18:56:08Z</time>
      </trkpt>
      <trkpt lat="43.77563" lon="1.75718">
        <ele>149.725606</ele>
        <time>2026-08-28T18:56:09Z</time>
      </trkpt>
      <trkpt lat="43.77563" lon="1.75723">
        <ele>149.656706</ele>
        <time>2026-08-28T18:56:10Z</time>
      </trkpt>
      <trkpt lat="43.77564" lon="1.75727">
        <ele>149.593191</ele>
        <time>2026-08-28T18:56:11Z</time>
      </trkpt>
      <trkpt lat="43.77565" lon="1.75732">
        <ele>149.526376</ele>
        <time>2026-08-28T18:56:12Z</time>
      </trkpt>
      <trkpt lat="43.77565" lon="1.75737">
        <ele>149.459296</ele>
        <time>2026-08-28T18:56:13Z</time>
      </trkpt>
      <trkpt lat="43.77566" lon="1.75742">
        <ele>149.393844</ele>
        <time>2026-08-28T18:56:14Z</time>
      </trkpt>
      <trkpt lat="43.77567" lon="1.75745">
        <ele>149.341935</ele>
        <time>2026-08-28T18:56:15Z</time>
      </trkpt>
      <trkpt lat="43.77568" lon="1.7575">
        <ele>149.274454</ele>
        <time>2026-08-28T18:56:16Z</time>
      </trkpt>
      <trkpt lat="43.77569" lon="1.75754">
        <ele>149.207569</ele>
        <time>2026-08-28T18:56:17Z</time>
      </trkpt>
      <trkpt lat="43.7757" lon="1.75759">
        <ele>149.132267</ele>
        <time>2026-08-28T18:56:18Z</time>
      </trkpt>
      <trkpt lat="43.77571" lon="1.75764">
        <ele>149.476903</ele>
        <time>2026-08-28T18:56:19Z</time>
      </trkpt>
      <trkpt lat="43.77573" lon="1.7577">
        <ele>149.885722</ele>
        <time>2026-08-28T18:56:20Z</time>
      </trkpt>
      <trkpt lat="43.77574" lon="1.75776">
        <ele>150.296185</ele>
        <time>2026-08-28T18:56:21Z</time>
      </trkpt>
      <trkpt lat="43.77574" lon="1.7578">
        <ele>150.639988</ele>
        <time>2026-08-28T18:56:22Z</time>
      </trkpt>
      <trkpt lat="43.77575" lon="1.75786">
        <ele>151.037364</ele>
        <time>2026-08-28T18:56:23Z</time>
      </trkpt>
      <trkpt lat="43.77575" lon="1.75792">
        <ele>151.451931</ele>
        <time>2026-08-28T18:56:24Z</time>
      </trkpt>
      <trkpt lat="43.77575" lon="1.75797">
        <ele>151.838175</ele>
        <time>2026-08-28T18:56:25Z</time>
      </trkpt>
      <trkpt lat="43.77574" lon="1.75802">
        <ele>152.176206</ele>
        <time>2026-08-28T18:56:26Z</time>
      </trkpt>
      <trkpt lat="43.77574" lon="1.75806">
        <ele>152.515813</ele>
        <time>2026-08-28T18:56:27Z</time>
      </trkpt>
      <trkpt lat="43.77573" lon="1.7581">
        <ele>152.817003</ele>
        <time>2026-08-28T18:56:28Z</time>
      </trkpt>
      <trkpt lat="43.77572" lon="1.75814">
        <ele>153.057955</ele>
        <time>2026-08-28T18:56:29Z</time>
      </trkpt>
      <trkpt lat="43.77571" lon="1.75817">
        <ele>153.289106</ele>
        <time>2026-08-28T18:56:30Z</time>
      </trkpt>
      <trkpt lat="43.7757" lon="1.7582">
        <ele>153.543753</ele>
        <time>2026-08-28T18:56:31Z</time>
      </trkpt>
      <trkpt lat="43.77569" lon="1.75823">
        <ele>153.803919</ele>
        <time>2026-08-28T18:56:32Z</time>
      </trkpt>
      <trkpt lat="43.77568" lon="1.75826">
        <ele>154.013526</ele>
        <time>2026-08-28T18:56:33Z</time>
      </trkpt>
      <trkpt lat="43.77567" lon="1.75828">
        <ele>154.221186</ele>
        <time>2026-08-28T18:56:34Z</time>
      </trkpt>
      <trkpt lat="43.77566" lon="1.75831">
        <ele>154.412634</ele>
        <time>2026-08-28T18:56:35Z</time>
      </trkpt>
      <trkpt lat="43.77565" lon="1.75834">
        <ele>154.638225</ele>
        <time>2026-08-28T18:56:36Z</time>
      </trkpt>
      <trkpt lat="43.77564" lon="1.75837">
        <ele>154.889223</ele>
        <time>2026-08-28T18:56:37Z</time>
      </trkpt>
      <trkpt lat="43.77564" lon="1.7584">
        <ele>155.087555</ele>
        <time>2026-08-28T18:56:38Z</time>
      </trkpt>
      <trkpt lat="43.77563" lon="1.75842">
        <ele>155.26747</ele>
        <time>2026-08-28T18:56:39Z</time>
      </trkpt>
      <trkpt lat="43.77562" lon="1.75844">
        <ele>155.451644</ele>
        <time>2026-08-28T18:56:40Z</time>
      </trkpt>
      <trkpt lat="43.77562" lon="1.75847">
        <ele>155.636226</ele>
        <time>2026-08-28T18:56:41Z</time>
      </trkpt>
      <trkpt lat="43.77561" lon="1.75849">
        <ele>155.821487</ele>
        <time>2026-08-28T18:56:42Z</time>
      </trkpt>
      <trkpt lat="43.77561" lon="1.75853">
        <ele>156.049391</ele>
        <time>2026-08-28T18:56:43Z</time>
      </trkpt>
      <trkpt lat="43.77562" lon="1.75855">
        <ele>156.203492</ele>
        <time>2026-08-28T18:56:44Z</time>
      </trkpt>
      <trkpt lat="43.77563" lon="1.75857">
        <ele>156.394282</ele>
        <time>2026-08-28T18:56:45Z</time>
      </trkpt>
      <trkpt lat="43.77563" lon="1.7586">
        <ele>156.585072</ele>
        <time>2026-08-28T18:56:46Z</time>
      </trkpt>
      <trkpt lat="43.77564" lon="1.75862">
        <ele>156.772418</ele>
        <time>2026-08-28T18:56:47Z</time>
      </trkpt>
      <trkpt lat="43.77564" lon="1.75864">
        <ele>156.936368</ele>
        <time>2026-08-28T18:56:48Z</time>
      </trkpt>
      <trkpt lat="43.77563" lon="1.75866">
        <ele>157.066979</ele>
        <time>2026-08-28T18:56:49Z</time>
      </trkpt>
      <trkpt lat="43.77563" lon="1.75868">
        <ele>157.209626</ele>
        <time>2026-08-28T18:56:50Z</time>
      </trkpt>
      <trkpt lat="43.77563" lon="1.7587">
        <ele>157.359373</ele>
        <time>2026-08-28T18:56:51Z</time>
      </trkpt>
      <trkpt lat="43.77563" lon="1.75873">
        <ele>157.537257</ele>
        <time>2026-08-28T18:56:52Z</time>
      </trkpt>
      <trkpt lat="43.77563" lon="1.75875">
        <ele>157.708309</ele>
        <time>2026-08-28T18:56:53Z</time>
      </trkpt>
      <trkpt lat="43.77563" lon="1.75878">
        <ele>157.880211</ele>
        <time>2026-08-28T18:56:54Z</time>
      </trkpt>
      <trkpt lat="43.77563" lon="1.7588">
        <ele>158.022518</ele>
        <time>2026-08-28T18:56:55Z</time>
      </trkpt>
      <trkpt lat="43.77563" lon="1.75882">
        <ele>158.174836</ele>
        <time>2026-08-28T18:56:56Z</time>
      </trkpt>
      <trkpt lat="43.77563" lon="1.75884">
        <ele>158.327155</ele>
        <time>2026-08-28T18:56:57Z</time>
      </trkpt>
      <trkpt lat="43.77563" lon="1.75886">
        <ele>158.498207</ele>
        <time>2026-08-28T18:56:58Z</time>
      </trkpt>
      <trkpt lat="43.77563" lon="1.75888">
        <ele>158.650526</ele>
        <time>2026-08-28T18:56:59Z</time>
      </trkpt>
      <trkpt lat="43.77563" lon="1.7589">
        <ele>158.792833</ele>
        <time>2026-08-28T18:57:00Z</time>
      </trkpt>
      <trkpt lat="43.77563" lon="1.75892">
        <ele>158.906678</ele>
        <time>2026-08-28T18:57:01Z</time>
      </trkpt>
      <trkpt lat="43.77563" lon="1.75894">
        <ele>159.027639</ele>
        <time>2026-08-28T18:57:02Z</time>
      </trkpt>
      <trkpt lat="43.77563" lon="1.75896">
        <ele>159.177386</ele>
        <time>2026-08-28T18:57:03Z</time>
      </trkpt>
      <trkpt lat="43.77563" lon="1.75898">
        <ele>159.341335</ele>
        <time>2026-08-28T18:57:04Z</time>
      </trkpt>
      <trkpt lat="43.77563" lon="1.759">
        <ele>159.465856</ele>
        <time>2026-08-28T18:57:05Z</time>
      </trkpt>
      <trkpt lat="43.77563" lon="1.75901">
        <ele>159.580127</ele>
        <time>2026-08-28T18:57:06Z</time>
      </trkpt>
      <trkpt lat="43.77563" lon="1.75903">
        <ele>159.709711</ele>
        <time>2026-08-28T18:57:07Z</time>
      </trkpt>
      <trkpt lat="43.77563" lon="1.75905">
        <ele>159.837787</ele>
        <time>2026-08-28T18:57:08Z</time>
      </trkpt>
      <trkpt lat="43.77563" lon="1.75907">
        <ele>159.969231</ele>
        <time>2026-08-28T18:57:09Z</time>
      </trkpt>
      <trkpt lat="43.77563" lon="1.75909">
        <ele>160.112896</ele>
        <time>2026-08-28T18:57:10Z</time>
      </trkpt>
      <trkpt lat="43.77563" lon="1.75911">
        <ele>160.251282</ele>
        <time>2026-08-28T18:57:11Z</time>
      </trkpt>
      <trkpt lat="43.77562" lon="1.75913">
        <ele>160.396628</ele>
        <time>2026-08-28T18:57:12Z</time>
      </trkpt>
      <trkpt lat="43.77562" lon="1.75915">
        <ele>160.554401</ele>
        <time>2026-08-28T18:57:13Z</time>
      </trkpt>
      <trkpt lat="43.77563" lon="1.75917">
        <ele>160.712174</ele>
        <time>2026-08-28T18:57:14Z</time>
      </trkpt>
      <trkpt lat="43.77563" lon="1.75919">
        <ele>160.869022</ele>
        <time>2026-08-28T18:57:15Z</time>
      </trkpt>
      <trkpt lat="43.77562" lon="1.75921">
        <ele>161.025869</ele>
        <time>2026-08-28T18:57:16Z</time>
      </trkpt>
      <trkpt lat="43.77563" lon="1.75923">
        <ele>161.169534</ele>
        <time>2026-08-28T18:57:17Z</time>
      </trkpt>
      <trkpt lat="43.77563" lon="1.75926">
        <ele>161.327308</ele>
        <time>2026-08-28T18:57:18Z</time>
      </trkpt>
      <trkpt lat="43.77563" lon="1.75928">
        <ele>161.472653</ele>
        <time>2026-08-28T18:57:19Z</time>
      </trkpt>
      <trkpt lat="43.77562" lon="1.7593">
        <ele>161.635337</ele>
        <time>2026-08-28T18:57:20Z</time>
      </trkpt>
      <trkpt lat="43.77561" lon="1.75932">
        <ele>161.812934</ele>
        <time>2026-08-28T18:57:21Z</time>
      </trkpt>
      <trkpt lat="43.77561" lon="1.75934">
        <ele>161.990668</ele>
        <time>2026-08-28T18:57:22Z</time>
      </trkpt>
      <trkpt lat="43.7756" lon="1.75936">
        <ele>162.170584</ele>
        <time>2026-08-28T18:57:23Z</time>
      </trkpt>
      <trkpt lat="43.77559" lon="1.75938">
        <ele>162.338265</ele>
        <time>2026-08-28T18:57:24Z</time>
      </trkpt>
      <trkpt lat="43.77558" lon="1.75941">
        <ele>162.505597</ele>
        <time>2026-08-28T18:57:25Z</time>
      </trkpt>
      <trkpt lat="43.77557" lon="1.75943">
        <ele>162.672891</ele>
        <time>2026-08-28T18:57:26Z</time>
      </trkpt>
      <trkpt lat="43.77556" lon="1.75944">
        <ele>162.840186</ele>
        <time>2026-08-28T18:57:27Z</time>
      </trkpt>
      <trkpt lat="43.77556" lon="1.75946">
        <ele>162.981251</ele>
        <time>2026-08-28T18:57:28Z</time>
      </trkpt>
      <trkpt lat="43.77555" lon="1.75949">
        <ele>163.173677</ele>
        <time>2026-08-28T18:57:29Z</time>
      </trkpt>
      <trkpt lat="43.77554" lon="1.75951">
        <ele>163.348945</ele>
        <time>2026-08-28T18:57:30Z</time>
      </trkpt>
      <trkpt lat="43.77553" lon="1.75953">
        <ele>163.523264</ele>
        <time>2026-08-28T18:57:31Z</time>
      </trkpt>
      <trkpt lat="43.77552" lon="1.75954">
        <ele>163.650299</ele>
        <time>2026-08-28T18:57:32Z</time>
      </trkpt>
      <trkpt lat="43.77551" lon="1.75956">
        <ele>163.823395</ele>
        <time>2026-08-28T18:57:33Z</time>
      </trkpt>
      <trkpt lat="43.7755" lon="1.75958">
        <ele>163.994457</ele>
        <time>2026-08-28T18:57:34Z</time>
      </trkpt>
      <trkpt lat="43.77549" lon="1.7596">
        <ele>164.167553</ele>
        <time>2026-08-28T18:57:35Z</time>
      </trkpt>
      <trkpt lat="43.77548" lon="1.75963">
        <ele>164.371676</ele>
        <time>2026-08-28T18:57:36Z</time>
      </trkpt>
      <trkpt lat="43.77548" lon="1.75965">
        <ele>164.515567</ele>
        <time>2026-08-28T18:57:37Z</time>
      </trkpt>
      <trkpt lat="43.77547" lon="1.75967">
        <ele>164.68451</ele>
        <time>2026-08-28T18:57:38Z</time>
      </trkpt>
      <trkpt lat="43.77546" lon="1.75969">
        <ele>164.869537</ele>
        <time>2026-08-28T18:57:39Z</time>
      </trkpt>
      <trkpt lat="43.77545" lon="1.75971">
        <ele>165.026035</ele>
        <time>2026-08-28T18:57:40Z</time>
      </trkpt>
      <trkpt lat="43.77544" lon="1.75973">
        <ele>165.210635</ele>
        <time>2026-08-28T18:57:41Z</time>
      </trkpt>
      <trkpt lat="43.77543" lon="1.75975">
        <ele>165.396882</ele>
        <time>2026-08-28T18:57:42Z</time>
      </trkpt>
      <trkpt lat="43.77541" lon="1.75977">
        <ele>165.593703</ele>
        <time>2026-08-28T18:57:43Z</time>
      </trkpt>
      <trkpt lat="43.7754" lon="1.75979">
        <ele>165.813236</ele>
        <time>2026-08-28T18:57:44Z</time>
      </trkpt>
      <trkpt lat="43.77539" lon="1.75981">
        <ele>165.974923</ele>
        <time>2026-08-28T18:57:45Z</time>
      </trkpt>
      <trkpt lat="43.77538" lon="1.75983">
        <ele>166.130709</ele>
        <time>2026-08-28T18:57:46Z</time>
      </trkpt>
      <trkpt lat="43.77537" lon="1.75985">
        <ele>166.311858</ele>
        <time>2026-08-28T18:57:47Z</time>
      </trkpt>
      <trkpt lat="43.77536" lon="1.75987">
        <ele>166.474542</ele>
        <time>2026-08-28T18:57:48Z</time>
      </trkpt>
      <trkpt lat="43.77536" lon="1.75988">
        <ele>166.595019</ele>
        <time>2026-08-28T18:57:49Z</time>
      </trkpt>
      <trkpt lat="43.77535" lon="1.7599">
        <ele>166.753164</ele>
        <time>2026-08-28T18:57:50Z</time>
      </trkpt>
      <trkpt lat="43.77534" lon="1.75993">
        <ele>166.878231</ele>
        <time>2026-08-28T18:57:51Z</time>
      </trkpt>
      <trkpt lat="43.77534" lon="1.75995">
        <ele>166.94446</ele>
        <time>2026-08-28T18:57:52Z</time>
      </trkpt>
      <trkpt lat="43.77533" lon="1.75997">
        <ele>167.007095</ele>
        <time>2026-08-28T18:57:53Z</time>
      </trkpt>
      <trkpt lat="43.77532" lon="1.75999">
        <ele>167.06357</ele>
        <time>2026-08-28T18:57:54Z</time>
      </trkpt>
      <trkpt lat="43.77532" lon="1.76001">
        <ele>167.12123</ele>
        <time>2026-08-28T18:57:55Z</time>
      </trkpt>
      <trkpt lat="43.77531" lon="1.76003">
        <ele>167.183145</ele>
        <time>2026-08-28T18:57:56Z</time>
      </trkpt>
      <trkpt lat="43.7753" lon="1.76006">
        <ele>167.249717</ele>
        <time>2026-08-28T18:57:57Z</time>
      </trkpt>
      <trkpt lat="43.77529" lon="1.76009">
        <ele>167.336843</ele>
        <time>2026-08-28T18:57:58Z</time>
      </trkpt>
      <trkpt lat="43.77529" lon="1.76011">
        <ele>167.405541</ele>
        <time>2026-08-28T18:57:59Z</time>
      </trkpt>
      <trkpt lat="43.77528" lon="1.76014">
        <ele>167.483822</ele>
        <time>2026-08-28T18:58:00Z</time>
      </trkpt>
      <trkpt lat="43.77527" lon="1.76017">
        <ele>167.57624</ele>
        <time>2026-08-28T18:58:01Z</time>
      </trkpt>
      <trkpt lat="43.77525" lon="1.7602">
        <ele>167.667476</ele>
        <time>2026-08-28T18:58:02Z</time>
      </trkpt>
      <trkpt lat="43.77524" lon="1.76023">
        <ele>167.742663</ele>
        <time>2026-08-28T18:58:03Z</time>
      </trkpt>
      <trkpt lat="43.77524" lon="1.76026">
        <ele>167.823616</ele>
        <time>2026-08-28T18:58:04Z</time>
      </trkpt>
      <trkpt lat="43.77523" lon="1.76028">
        <ele>167.894136</ele>
        <time>2026-08-28T18:58:05Z</time>
      </trkpt>
      <trkpt lat="43.77522" lon="1.7603">
        <ele>167.954279</ele>
        <time>2026-08-28T18:58:06Z</time>
      </trkpt>
      <trkpt lat="43.77522" lon="1.76032">
        <ele>168.00693</ele>
        <time>2026-08-28T18:58:07Z</time>
      </trkpt>
      <trkpt lat="43.77522" lon="1.76034">
        <ele>168.062164</ele>
        <time>2026-08-28T18:58:08Z</time>
      </trkpt>
      <trkpt lat="43.77522" lon="1.76036">
        <ele>168.117399</ele>
        <time>2026-08-28T18:58:09Z</time>
      </trkpt>
      <trkpt lat="43.77521" lon="1.76039">
        <ele>168.18269</ele>
        <time>2026-08-28T18:58:10Z</time>
      </trkpt>
      <trkpt lat="43.77521" lon="1.76042">
        <ele>168.26092</ele>
        <time>2026-08-28T18:58:11Z</time>
      </trkpt>
      <trkpt lat="43.77521" lon="1.76045">
        <ele>168.345065</ele>
        <time>2026-08-28T18:58:12Z</time>
      </trkpt>
      <trkpt lat="43.77521" lon="1.76049">
        <ele>168.447338</ele>
        <time>2026-08-28T18:58:13Z</time>
      </trkpt>
      <trkpt lat="43.77521" lon="1.76053">
        <ele>168.543889</ele>
        <time>2026-08-28T18:58:14Z</time>
      </trkpt>
      <trkpt lat="43.77521" lon="1.76056">
        <ele>168.629941</ele>
        <time>2026-08-28T18:58:15Z</time>
      </trkpt>
      <trkpt lat="43.7752" lon="1.76059">
        <ele>168.722345</ele>
        <time>2026-08-28T18:58:16Z</time>
      </trkpt>
      <trkpt lat="43.7752" lon="1.76063">
        <ele>168.816843</ele>
        <time>2026-08-28T18:58:17Z</time>
      </trkpt>
      <trkpt lat="43.77519" lon="1.76067">
        <ele>168.923376</ele>
        <time>2026-08-28T18:58:18Z</time>
      </trkpt>
      <trkpt lat="43.77519" lon="1.76071">
        <ele>169.027357</ele>
        <time>2026-08-28T18:58:19Z</time>
      </trkpt>
      <trkpt lat="43.77518" lon="1.76075">
        <ele>169.128073</ele>
        <time>2026-08-28T18:58:20Z</time>
      </trkpt>
      <trkpt lat="43.77517" lon="1.76078">
        <ele>169.228788</ele>
        <time>2026-08-28T18:58:21Z</time>
      </trkpt>
      <trkpt lat="43.77516" lon="1.76082">
        <ele>169.330599</ele>
        <time>2026-08-28T18:58:22Z</time>
      </trkpt>
      <trkpt lat="43.77515" lon="1.76086">
        <ele>169.432534</ele>
        <time>2026-08-28T18:58:23Z</time>
      </trkpt>
      <trkpt lat="43.77514" lon="1.7609">
        <ele>169.541715</ele>
        <time>2026-08-28T18:58:24Z</time>
      </trkpt>
      <trkpt lat="43.77513" lon="1.76093">
        <ele>169.649636</ele>
        <time>2026-08-28T18:58:25Z</time>
      </trkpt>
      <trkpt lat="43.77512" lon="1.76097">
        <ele>169.750218</ele>
        <time>2026-08-28T18:58:26Z</time>
      </trkpt>
      <trkpt lat="43.77511" lon="1.761">
        <ele>169.844648</ele>
        <time>2026-08-28T18:58:27Z</time>
      </trkpt>
      <trkpt lat="43.7751" lon="1.76104">
        <ele>169.951405</ele>
        <time>2026-08-28T18:58:28Z</time>
      </trkpt>
      <trkpt lat="43.77509" lon="1.76108">
        <ele>170.050748</ele>
        <time>2026-08-28T18:58:29Z</time>
      </trkpt>
      <trkpt lat="43.77509" lon="1.76112">
        <ele>170.149634</ele>
        <time>2026-08-28T18:58:30Z</time>
      </trkpt>
      <trkpt lat="43.77508" lon="1.76115">
        <ele>170.248977</ele>
        <time>2026-08-28T18:58:31Z</time>
      </trkpt>
      <trkpt lat="43.77507" lon="1.76119">
        <ele>170.346197</ele>
        <time>2026-08-28T18:58:32Z</time>
      </trkpt>
      <trkpt lat="43.77506" lon="1.76123">
        <ele>170.459045</ele>
        <time>2026-08-28T18:58:33Z</time>
      </trkpt>
      <trkpt lat="43.77505" lon="1.76127">
        <ele>170.569426</ele>
        <time>2026-08-28T18:58:34Z</time>
      </trkpt>
      <trkpt lat="43.77504" lon="1.76131">
        <ele>170.679807</ele>
        <time>2026-08-28T18:58:35Z</time>
      </trkpt>
      <trkpt lat="43.77503" lon="1.76134">
        <ele>170.765652</ele>
        <time>2026-08-28T18:58:36Z</time>
      </trkpt>
      <trkpt lat="43.77503" lon="1.76136">
        <ele>170.814763</ele>
        <time>2026-08-28T18:58:37Z</time>
      </trkpt>
      <trkpt lat="43.77502" lon="1.76137">
        <ele>170.848657</ele>
        <time>2026-08-28T18:58:38Z</time>
      </trkpt>
      <trkpt lat="43.77503" lon="1.76137">
        <ele>170.859801</ele>
        <time>2026-08-28T18:58:39Z</time>
      </trkpt>
      <trkpt lat="43.77499" lon="1.76144">
        <ele>171.096664</ele>
        <time>2026-08-28T18:59:13Z</time>
      </trkpt>
      <trkpt lat="43.77498" lon="1.76147">
        <ele>171.16797</ele>
        <time>2026-08-28T18:59:14Z</time>
      </trkpt>
      <trkpt lat="43.77497" lon="1.7615">
        <ele>171.251092</ele>
        <time>2026-08-28T18:59:15Z</time>
      </trkpt>
      <trkpt lat="43.77496" lon="1.76152">
        <ele>171.325899</ele>
        <time>2026-08-28T18:59:16Z</time>
      </trkpt>
      <trkpt lat="43.77496" lon="1.76155">
        <ele>171.404422</ele>
        <time>2026-08-28T18:59:17Z</time>
      </trkpt>
      <trkpt lat="43.77495" lon="1.76158">
        <ele>171.490585</ele>
        <time>2026-08-28T18:59:18Z</time>
      </trkpt>
      <trkpt lat="43.77494" lon="1.76162">
        <ele>171.587805</ele>
        <time>2026-08-28T18:59:19Z</time>
      </trkpt>
      <trkpt lat="43.77493" lon="1.76166">
        <ele>171.698554</ele>
        <time>2026-08-28T18:59:20Z</time>
      </trkpt>
      <trkpt lat="43.77492" lon="1.7617">
        <ele>171.810299</ele>
        <time>2026-08-28T18:59:21Z</time>
      </trkpt>
      <trkpt lat="43.77492" lon="1.76174">
        <ele>171.924503</ele>
        <time>2026-08-28T18:59:22Z</time>
      </trkpt>
      <trkpt lat="43.77491" lon="1.76178">
        <ele>172.035252</ele>
        <time>2026-08-28T18:59:23Z</time>
      </trkpt>
      <trkpt lat="43.7749" lon="1.76183">
        <ele>172.152741</ele>
        <time>2026-08-28T18:59:24Z</time>
      </trkpt>
      <trkpt lat="43.77489" lon="1.76188">
        <ele>172.279537</ele>
        <time>2026-08-28T18:59:25Z</time>
      </trkpt>
      <trkpt lat="43.77489" lon="1.76192">
        <ele>172.409137</ele>
        <time>2026-08-28T18:59:26Z</time>
      </trkpt>
      <trkpt lat="43.77488" lon="1.76197">
        <ele>172.538182</ele>
        <time>2026-08-28T18:59:27Z</time>
      </trkpt>
      <trkpt lat="43.77487" lon="1.76202">
        <ele>172.672555</ele>
        <time>2026-08-28T18:59:28Z</time>
      </trkpt>
      <trkpt lat="43.77486" lon="1.76207">
        <ele>172.801392</ele>
        <time>2026-08-28T18:59:29Z</time>
      </trkpt>
      <trkpt lat="43.77485" lon="1.76212">
        <ele>172.930711</ele>
        <time>2026-08-28T18:59:30Z</time>
      </trkpt>
      <trkpt lat="43.77484" lon="1.76216">
        <ele>173.054989</ele>
        <time>2026-08-28T18:59:31Z</time>
      </trkpt>
      <trkpt lat="43.77483" lon="1.76221">
        <ele>173.190281</ele>
        <time>2026-08-28T18:59:32Z</time>
      </trkpt>
      <trkpt lat="43.77482" lon="1.76227">
        <ele>173.329721</ele>
        <time>2026-08-28T18:59:33Z</time>
      </trkpt>
      <trkpt lat="43.77481" lon="1.76232">
        <ele>173.350595</ele>
        <time>2026-08-28T18:59:34Z</time>
      </trkpt>
      <trkpt lat="43.77481" lon="1.76237">
        <ele>173.355937</ele>
        <time>2026-08-28T18:59:35Z</time>
      </trkpt>
      <trkpt lat="43.7748" lon="1.76242">
        <ele>173.361279</ele>
        <time>2026-08-28T18:59:36Z</time>
      </trkpt>
      <trkpt lat="43.77479" lon="1.76247">
        <ele>173.366198</ele>
        <time>2026-08-28T18:59:37Z</time>
      </trkpt>
      <trkpt lat="43.77479" lon="1.76252">
        <ele>173.371196</ele>
        <time>2026-08-28T18:59:38Z</time>
      </trkpt>
      <trkpt lat="43.77478" lon="1.76257">
        <ele>173.376214</ele>
        <time>2026-08-28T18:59:39Z</time>
      </trkpt>
      <trkpt lat="43.77477" lon="1.76262">
        <ele>173.381396</ele>
        <time>2026-08-28T18:59:40Z</time>
      </trkpt>
      <trkpt lat="43.77476" lon="1.76267">
        <ele>173.386441</ele>
        <time>2026-08-28T18:59:41Z</time>
      </trkpt>
      <trkpt lat="43.77476" lon="1.76271">
        <ele>173.391139</ele>
        <time>2026-08-28T18:59:42Z</time>
      </trkpt>
      <trkpt lat="43.77475" lon="1.76276">
        <ele>173.395703</ele>
        <time>2026-08-28T18:59:43Z</time>
      </trkpt>
      <trkpt lat="43.77475" lon="1.7628">
        <ele>173.40035</ele>
        <time>2026-08-28T18:59:44Z</time>
      </trkpt>
      <trkpt lat="43.77474" lon="1.76285">
        <ele>173.404968</ele>
        <time>2026-08-28T18:59:45Z</time>
      </trkpt>
      <trkpt lat="43.77473" lon="1.76289">
        <ele>173.410051</ele>
        <time>2026-08-28T18:59:46Z</time>
      </trkpt>
      <trkpt lat="43.77472" lon="1.76294">
        <ele>173.414863</ele>
        <time>2026-08-28T18:59:47Z</time>
      </trkpt>
      <trkpt lat="43.77471" lon="1.76299">
        <ele>173.420035</ele>
        <time>2026-08-28T18:59:48Z</time>
      </trkpt>
      <trkpt lat="43.77471" lon="1.76304">
        <ele>173.424955</ele>
        <time>2026-08-28T18:59:49Z</time>
      </trkpt>
      <trkpt lat="43.7747" lon="1.76308">
        <ele>173.429476</ele>
        <time>2026-08-28T18:59:50Z</time>
      </trkpt>
      <trkpt lat="43.77469" lon="1.76313">
        <ele>173.434353</ele>
        <time>2026-08-28T18:59:51Z</time>
      </trkpt>
      <trkpt lat="43.77469" lon="1.76318">
        <ele>173.439229</ele>
        <time>2026-08-28T18:59:52Z</time>
      </trkpt>
      <trkpt lat="43.77468" lon="1.76322">
        <ele>173.443627</ele>
        <time>2026-08-28T18:59:53Z</time>
      </trkpt>
      <trkpt lat="43.77468" lon="1.76327">
        <ele>173.448275</ele>
        <time>2026-08-28T18:59:54Z</time>
      </trkpt>
      <trkpt lat="43.77468" lon="1.76331">
        <ele>173.452853</ele>
        <time>2026-08-28T18:59:55Z</time>
      </trkpt>
      <trkpt lat="43.77468" lon="1.76337">
        <ele>173.458717</ele>
        <time>2026-08-28T18:59:56Z</time>
      </trkpt>
      <trkpt lat="43.77467" lon="1.76342">
        <ele>173.463875</ele>
        <time>2026-08-28T18:59:57Z</time>
      </trkpt>
      <trkpt lat="43.77467" lon="1.76347">
        <ele>173.468919</ele>
        <time>2026-08-28T18:59:58Z</time>
      </trkpt>
      <trkpt lat="43.77466" lon="1.76351">
        <ele>173.473517</ele>
        <time>2026-08-28T18:59:59Z</time>
      </trkpt>
      <trkpt lat="43.77465" lon="1.76356">
        <ele>173.478647</ele>
        <time>2026-08-28T19:00:00Z</time>
      </trkpt>
      <trkpt lat="43.77464" lon="1.76361">
        <ele>173.483872</ele>
        <time>2026-08-28T19:00:01Z</time>
      </trkpt>
      <trkpt lat="43.77463" lon="1.76366">
        <ele>173.489054</ele>
        <time>2026-08-28T19:00:02Z</time>
      </trkpt>
      <trkpt lat="43.77461" lon="1.76371">
        <ele>173.494759</ele>
        <time>2026-08-28T19:00:03Z</time>
      </trkpt>
      <trkpt lat="43.7746" lon="1.76377">
        <ele>173.500602</ele>
        <time>2026-08-28T19:00:04Z</time>
      </trkpt>
      <trkpt lat="43.77459" lon="1.76382">
        <ele>173.506638</ele>
        <time>2026-08-28T19:00:05Z</time>
      </trkpt>
      <trkpt lat="43.77457" lon="1.76388">
        <ele>173.512387</ele>
        <time>2026-08-28T19:00:06Z</time>
      </trkpt>
      <trkpt lat="43.77456" lon="1.76394">
        <ele>173.518846</ele>
        <time>2026-08-28T19:00:07Z</time>
      </trkpt>
      <trkpt lat="43.77454" lon="1.764">
        <ele>173.5254</ele>
        <time>2026-08-28T19:00:08Z</time>
      </trkpt>
      <trkpt lat="43.77452" lon="1.76406">
        <ele>173.531764</ele>
        <time>2026-08-28T19:00:09Z</time>
      </trkpt>
      <trkpt lat="43.77451" lon="1.76412">
        <ele>173.537954</ele>
        <time>2026-08-28T19:00:10Z</time>
      </trkpt>
      <trkpt lat="43.7745" lon="1.76417">
        <ele>173.543917</ele>
        <time>2026-08-28T19:00:11Z</time>
      </trkpt>
      <trkpt lat="43.77449" lon="1.76423">
        <ele>173.550007</ele>
        <time>2026-08-28T19:00:12Z</time>
      </trkpt>
      <trkpt lat="43.77449" lon="1.76429">
        <ele>173.555604</ele>
        <time>2026-08-28T19:00:13Z</time>
      </trkpt>
      <trkpt lat="43.77448" lon="1.76434">
        <ele>173.56067</ele>
        <time>2026-08-28T19:00:14Z</time>
      </trkpt>
      <trkpt lat="43.77448" lon="1.7644">
        <ele>173.567046</ele>
        <time>2026-08-28T19:00:15Z</time>
      </trkpt>
      <trkpt lat="43.77448" lon="1.76447">
        <ele>173.573717</ele>
        <time>2026-08-28T19:00:16Z</time>
      </trkpt>
      <trkpt lat="43.77448" lon="1.76453">
        <ele>173.580281</ele>
        <time>2026-08-28T19:00:17Z</time>
      </trkpt>
      <trkpt lat="43.77448" lon="1.76459">
        <ele>173.586668</ele>
        <time>2026-08-28T19:00:18Z</time>
      </trkpt>
      <trkpt lat="43.77449" lon="1.76465">
        <ele>173.592065</ele>
        <time>2026-08-28T19:00:19Z</time>
      </trkpt>
      <trkpt lat="43.77449" lon="1.76471">
        <ele>173.596222</ele>
        <time>2026-08-28T19:00:20Z</time>
      </trkpt>
      <trkpt lat="43.77449" lon="1.76478">
        <ele>173.591193</ele>
        <time>2026-08-28T19:00:21Z</time>
      </trkpt>
      <trkpt lat="43.77449" lon="1.76484">
        <ele>173.586008</ele>
        <time>2026-08-28T19:00:22Z</time>
      </trkpt>
      <trkpt lat="43.77449" lon="1.76491">
        <ele>173.580509</ele>
        <time>2026-08-28T19:00:23Z</time>
      </trkpt>
      <trkpt lat="43.7745" lon="1.76499">
        <ele>173.574691</ele>
        <time>2026-08-28T19:00:24Z</time>
      </trkpt>
      <trkpt lat="43.7745" lon="1.76506">
        <ele>173.568959</ele>
        <time>2026-08-28T19:00:25Z</time>
      </trkpt>
      <trkpt lat="43.77449" lon="1.76513">
        <ele>173.563385</ele>
        <time>2026-08-28T19:00:26Z</time>
      </trkpt>
      <trkpt lat="43.77449" lon="1.7652">
        <ele>173.557951</ele>
        <time>2026-08-28T19:00:27Z</time>
      </trkpt>
      <trkpt lat="43.77449" lon="1.76527">
        <ele>173.552687</ele>
        <time>2026-08-28T19:00:28Z</time>
      </trkpt>
      <trkpt lat="43.77448" lon="1.76533">
        <ele>173.547511</ele>
        <time>2026-08-28T19:00:29Z</time>
      </trkpt>
      <trkpt lat="43.77447" lon="1.76539">
        <ele>173.542424</ele>
        <time>2026-08-28T19:00:30Z</time>
      </trkpt>
      <trkpt lat="43.77446" lon="1.76546">
        <ele>173.53728</ele>
        <time>2026-08-28T19:00:31Z</time>
      </trkpt>
      <trkpt lat="43.77444" lon="1.76551">
        <ele>173.532588</ele>
        <time>2026-08-28T19:00:32Z</time>
      </trkpt>
      <trkpt lat="43.77443" lon="1.76557">
        <ele>173.527881</ele>
        <time>2026-08-28T19:00:33Z</time>
      </trkpt>
      <trkpt lat="43.77442" lon="1.76562">
        <ele>173.523451</ele>
        <time>2026-08-28T19:00:34Z</time>
      </trkpt>
      <trkpt lat="43.7744" lon="1.76567">
        <ele>173.519314</ele>
        <time>2026-08-28T19:00:35Z</time>
      </trkpt>
      <trkpt lat="43.7744" lon="1.76573">
        <ele>173.515141</ele>
        <time>2026-08-28T19:00:36Z</time>
      </trkpt>
      <trkpt lat="43.77438" lon="1.76578">
        <ele>173.510706</ele>
        <time>2026-08-28T19:00:37Z</time>
      </trkpt>
      <trkpt lat="43.77436" lon="1.76583">
        <ele>173.505942</ele>
        <time>2026-08-28T19:00:38Z</time>
      </trkpt>
      <trkpt lat="43.77434" lon="1.76589">
        <ele>173.501038</ele>
        <time>2026-08-28T19:00:39Z</time>
      </trkpt>
      <trkpt lat="43.77432" lon="1.76594">
        <ele>173.496343</ele>
        <time>2026-08-28T19:00:40Z</time>
      </trkpt>
      <trkpt lat="43.7743" lon="1.76599">
        <ele>173.491666</ele>
        <time>2026-08-28T19:00:41Z</time>
      </trkpt>
      <trkpt lat="43.77428" lon="1.76605">
        <ele>173.486989</ele>
        <time>2026-08-28T19:00:42Z</time>
      </trkpt>
      <trkpt lat="43.77426" lon="1.7661">
        <ele>173.48246</ele>
        <time>2026-08-28T19:00:43Z</time>
      </trkpt>
      <trkpt lat="43.77423" lon="1.76614">
        <ele>173.477997</ele>
        <time>2026-08-28T19:00:44Z</time>
      </trkpt>
      <trkpt lat="43.77421" lon="1.76618">
        <ele>173.473641</ele>
        <time>2026-08-28T19:00:45Z</time>
      </trkpt>
      <trkpt lat="43.77418" lon="1.76622">
        <ele>173.469301</ele>
        <time>2026-08-28T19:00:46Z</time>
      </trkpt>
      <trkpt lat="43.77415" lon="1.76626">
        <ele>173.464881</ele>
        <time>2026-08-28T19:00:47Z</time>
      </trkpt>
      <trkpt lat="43.77412" lon="1.76629">
        <ele>173.460967</ele>
        <time>2026-08-28T19:00:48Z</time>
      </trkpt>
      <trkpt lat="43.77409" lon="1.76632">
        <ele>173.457168</ele>
        <time>2026-08-28T19:00:49Z</time>
      </trkpt>
      <trkpt lat="43.77407" lon="1.76633">
        <ele>173.454008</ele>
        <time>2026-08-28T19:00:50Z</time>
      </trkpt>
      <trkpt lat="43.77404" lon="1.76635">
        <ele>173.451147</ele>
        <time>2026-08-28T19:00:51Z</time>
      </trkpt>
      <trkpt lat="43.77402" lon="1.76637">
        <ele>173.448376</ele>
        <time>2026-08-28T19:00:52Z</time>
      </trkpt>
      <trkpt lat="43.774" lon="1.76639">
        <ele>173.445874</ele>
        <time>2026-08-28T19:00:53Z</time>
      </trkpt>
      <trkpt lat="43.77399" lon="1.76641">
        <ele>173.443413</ele>
        <time>2026-08-28T19:00:54Z</time>
      </trkpt>
      <trkpt lat="43.77397" lon="1.76643">
        <ele>173.440731</ele>
        <time>2026-08-28T19:00:55Z</time>
      </trkpt>
      <trkpt lat="43.77394" lon="1.76645">
        <ele>173.437827</ele>
        <time>2026-08-28T19:00:56Z</time>
      </trkpt>
      <trkpt lat="43.77392" lon="1.76647">
        <ele>173.435028</ele>
        <time>2026-08-28T19:00:57Z</time>
      </trkpt>
      <trkpt lat="43.7739" lon="1.76648">
        <ele>173.432133</ele>
        <time>2026-08-28T19:00:58Z</time>
      </trkpt>
      <trkpt lat="43.77388" lon="1.7665">
        <ele>173.429431</ele>
        <time>2026-08-28T19:00:59Z</time>
      </trkpt>
      <trkpt lat="43.77386" lon="1.76651">
        <ele>173.426995</ele>
        <time>2026-08-28T19:01:00Z</time>
      </trkpt>
      <trkpt lat="43.77384" lon="1.76653">
        <ele>173.424582</ele>
        <time>2026-08-28T19:01:01Z</time>
      </trkpt>
      <trkpt lat="43.77381" lon="1.76654">
        <ele>173.421857</ele>
        <time>2026-08-28T19:01:02Z</time>
      </trkpt>
      <trkpt lat="43.77379" lon="1.76656">
        <ele>173.418961</ele>
        <time>2026-08-28T19:01:03Z</time>
      </trkpt>
      <trkpt lat="43.77377" lon="1.76658">
        <ele>173.416143</ele>
        <time>2026-08-28T19:01:04Z</time>
      </trkpt>
      <trkpt lat="43.77374" lon="1.76659">
        <ele>173.413309</ele>
        <time>2026-08-28T19:01:05Z</time>
      </trkpt>
      <trkpt lat="43.77372" lon="1.76661">
        <ele>173.410356</ele>
        <time>2026-08-28T19:01:06Z</time>
      </trkpt>
      <trkpt lat="43.7737" lon="1.76663">
        <ele>173.407293</ele>
        <time>2026-08-28T19:01:07Z</time>
      </trkpt>
      <trkpt lat="43.77367" lon="1.76666">
        <ele>173.403847</ele>
        <time>2026-08-28T19:01:08Z</time>
      </trkpt>
      <trkpt lat="43.77364" lon="1.76668">
        <ele>173.403463</ele>
        <time>2026-08-28T19:01:09Z</time>
      </trkpt>
      <trkpt lat="43.77361" lon="1.7667">
        <ele>173.408495</ele>
        <time>2026-08-28T19:01:10Z</time>
      </trkpt>
      <trkpt lat="43.77359" lon="1.76673">
        <ele>173.41352</ele>
        <time>2026-08-28T19:01:11Z</time>
      </trkpt>
      <trkpt lat="43.77356" lon="1.76675">
        <ele>173.418671</ele>
        <time>2026-08-28T19:01:12Z</time>
      </trkpt>
      <trkpt lat="43.77353" lon="1.76678">
        <ele>173.423949</ele>
        <time>2026-08-28T19:01:13Z</time>
      </trkpt>
      <trkpt lat="43.7735" lon="1.7668">
        <ele>173.429222</ele>
        <time>2026-08-28T19:01:14Z</time>
      </trkpt>
      <trkpt lat="43.77347" lon="1.76683">
        <ele>173.434066</ele>
        <time>2026-08-28T19:01:15Z</time>
      </trkpt>
      <trkpt lat="43.77344" lon="1.76685">
        <ele>173.439286</ele>
        <time>2026-08-28T19:01:16Z</time>
      </trkpt>
      <trkpt lat="43.77342" lon="1.76688">
        <ele>173.444251</ele>
        <time>2026-08-28T19:01:17Z</time>
      </trkpt>
      <trkpt lat="43.77339" lon="1.76691">
        <ele>173.449284</ele>
        <time>2026-08-28T19:01:18Z</time>
      </trkpt>
      <trkpt lat="43.77337" lon="1.76693">
        <ele>173.454129</ele>
        <time>2026-08-28T19:01:19Z</time>
      </trkpt>
      <trkpt lat="43.77334" lon="1.76696">
        <ele>173.4593</ele>
        <time>2026-08-28T19:01:20Z</time>
      </trkpt>
      <trkpt lat="43.77332" lon="1.76699">
        <ele>173.464543</ele>
        <time>2026-08-28T19:01:21Z</time>
      </trkpt>
      <trkpt lat="43.77329" lon="1.76702">
        <ele>173.469832</ele>
        <time>2026-08-28T19:01:22Z</time>
      </trkpt>
      <trkpt lat="43.77326" lon="1.76705">
        <ele>173.475003</ele>
        <time>2026-08-28T19:01:23Z</time>
      </trkpt>
      <trkpt lat="43.77324" lon="1.76708">
        <ele>173.480158</ele>
        <time>2026-08-28T19:01:24Z</time>
      </trkpt>
      <trkpt lat="43.77321" lon="1.76711">
        <ele>173.485435</ele>
        <time>2026-08-28T19:01:25Z</time>
      </trkpt>
      <trkpt lat="43.77318" lon="1.76714">
        <ele>173.490526</ele>
        <time>2026-08-28T19:01:26Z</time>
      </trkpt>
      <trkpt lat="43.77316" lon="1.76717">
        <ele>173.495936</ele>
        <time>2026-08-28T19:01:27Z</time>
      </trkpt>
      <trkpt lat="43.77313" lon="1.7672">
        <ele>173.501295</ele>
        <time>2026-08-28T19:01:28Z</time>
      </trkpt>
      <trkpt lat="43.7731" lon="1.76724">
        <ele>173.506684</ele>
        <time>2026-08-28T19:01:29Z</time>
      </trkpt>
      <trkpt lat="43.77308" lon="1.76726">
        <ele>173.511838</ele>
        <time>2026-08-28T19:01:30Z</time>
      </trkpt>
      <trkpt lat="43.77305" lon="1.76729">
        <ele>173.516705</ele>
        <time>2026-08-28T19:01:31Z</time>
      </trkpt>
      <trkpt lat="43.77302" lon="1.76732">
        <ele>173.521995</ele>
        <time>2026-08-28T19:01:32Z</time>
      </trkpt>
      <trkpt lat="43.773" lon="1.76735">
        <ele>173.527526</ele>
        <time>2026-08-28T19:01:33Z</time>
      </trkpt>
      <trkpt lat="43.77297" lon="1.76738">
        <ele>173.532869</ele>
        <time>2026-08-28T19:01:34Z</time>
      </trkpt>
      <trkpt lat="43.77294" lon="1.7674">
        <ele>173.538243</ele>
        <time>2026-08-28T19:01:35Z</time>
      </trkpt>
      <trkpt lat="43.77291" lon="1.76743">
        <ele>173.543405</ele>
        <time>2026-08-28T19:01:36Z</time>
      </trkpt>
      <trkpt lat="43.77288" lon="1.76745">
        <ele>173.548645</ele>
        <time>2026-08-28T19:01:37Z</time>
      </trkpt>
      <trkpt lat="43.77285" lon="1.76747">
        <ele>173.553885</ele>
        <time>2026-08-28T19:01:38Z</time>
      </trkpt>
      <trkpt lat="43.77282" lon="1.7675">
        <ele>173.559208</ele>
        <time>2026-08-28T19:01:39Z</time>
      </trkpt>
      <trkpt lat="43.77278" lon="1.76752">
        <ele>173.564769</ele>
        <time>2026-08-28T19:01:40Z</time>
      </trkpt>
      <trkpt lat="43.77275" lon="1.76755">
        <ele>173.570438</ele>
        <time>2026-08-28T19:01:41Z</time>
      </trkpt>
      <trkpt lat="43.77272" lon="1.76758">
        <ele>173.57647</ele>
        <time>2026-08-28T19:01:42Z</time>
      </trkpt>
      <trkpt lat="43.77268" lon="1.76761">
        <ele>173.582818</ele>
        <time>2026-08-28T19:01:43Z</time>
      </trkpt>
      <trkpt lat="43.77265" lon="1.76764">
        <ele>173.5891</ele>
        <time>2026-08-28T19:01:44Z</time>
      </trkpt>
      <trkpt lat="43.77262" lon="1.76767">
        <ele>173.594884</ele>
        <time>2026-08-28T19:01:45Z</time>
      </trkpt>
      <trkpt lat="43.77258" lon="1.7677">
        <ele>173.601045</ele>
        <time>2026-08-28T19:01:46Z</time>
      </trkpt>
      <trkpt lat="43.77255" lon="1.76773">
        <ele>173.607205</ele>
        <time>2026-08-28T19:01:47Z</time>
      </trkpt>
      <trkpt lat="43.77252" lon="1.76776">
        <ele>173.613237</ele>
        <time>2026-08-28T19:01:48Z</time>
      </trkpt>
      <trkpt lat="43.77249" lon="1.76779">
        <ele>173.61908</ele>
        <time>2026-08-28T19:01:49Z</time>
      </trkpt>
      <trkpt lat="43.77245" lon="1.76781">
        <ele>173.624828</ele>
        <time>2026-08-28T19:01:50Z</time>
      </trkpt>
      <trkpt lat="43.77242" lon="1.76784">
        <ele>173.630988</ele>
        <time>2026-08-28T19:01:51Z</time>
      </trkpt>
      <trkpt lat="43.77239" lon="1.76787">
        <ele>173.637208</ele>
        <time>2026-08-28T19:01:52Z</time>
      </trkpt>
      <trkpt lat="43.77235" lon="1.76791">
        <ele>173.64332</ele>
        <time>2026-08-28T19:01:53Z</time>
      </trkpt>
      <trkpt lat="43.77232" lon="1.76795">
        <ele>173.649502</ele>
        <time>2026-08-28T19:01:54Z</time>
      </trkpt>
      <trkpt lat="43.77229" lon="1.76798">
        <ele>173.655614</ele>
        <time>2026-08-28T19:01:55Z</time>
      </trkpt>
      <trkpt lat="43.77226" lon="1.76801">
        <ele>173.661657</ele>
        <time>2026-08-28T19:01:56Z</time>
      </trkpt>
      <trkpt lat="43.77223" lon="1.76805">
        <ele>173.66758</ele>
        <time>2026-08-28T19:01:57Z</time>
      </trkpt>
      <trkpt lat="43.7722" lon="1.76808">
        <ele>173.673677</ele>
        <time>2026-08-28T19:01:58Z</time>
      </trkpt>
      <trkpt lat="43.77217" lon="1.76812">
        <ele>173.661919</ele>
        <time>2026-08-28T19:01:59Z</time>
      </trkpt>
      <trkpt lat="43.77214" lon="1.76815">
        <ele>173.635124</ele>
        <time>2026-08-28T19:02:00Z</time>
      </trkpt>
      <trkpt lat="43.77211" lon="1.76818">
        <ele>173.609214</ele>
        <time>2026-08-28T19:02:01Z</time>
      </trkpt>
      <trkpt lat="43.77208" lon="1.76821">
        <ele>173.586095</ele>
        <time>2026-08-28T19:02:02Z</time>
      </trkpt>
      <trkpt lat="43.77205" lon="1.76823">
        <ele>173.562371</ele>
        <time>2026-08-28T19:02:03Z</time>
      </trkpt>
      <trkpt lat="43.77202" lon="1.76825">
        <ele>173.53981</ele>
        <time>2026-08-28T19:02:04Z</time>
      </trkpt>
      <trkpt lat="43.77199" lon="1.76828">
        <ele>173.515855</ele>
        <time>2026-08-28T19:02:05Z</time>
      </trkpt>
      <trkpt lat="43.77196" lon="1.76831">
        <ele>173.489895</ele>
        <time>2026-08-28T19:02:06Z</time>
      </trkpt>
      <trkpt lat="43.77193" lon="1.76835">
        <ele>173.46286</ele>
        <time>2026-08-28T19:02:07Z</time>
      </trkpt>
      <trkpt lat="43.7719" lon="1.76838">
        <ele>173.435639</ele>
        <time>2026-08-28T19:02:08Z</time>
      </trkpt>
      <trkpt lat="43.77186" lon="1.76842">
        <ele>173.404577</ele>
        <time>2026-08-28T19:02:09Z</time>
      </trkpt>
      <trkpt lat="43.77183" lon="1.76846">
        <ele>173.375496</ele>
        <time>2026-08-28T19:02:10Z</time>
      </trkpt>
      <trkpt lat="43.7718" lon="1.7685">
        <ele>173.347116</ele>
        <time>2026-08-28T19:02:11Z</time>
      </trkpt>
      <trkpt lat="43.77177" lon="1.76854">
        <ele>173.320219</ele>
        <time>2026-08-28T19:02:12Z</time>
      </trkpt>
      <trkpt lat="43.77174" lon="1.76858">
        <ele>173.292137</ele>
        <time>2026-08-28T19:02:13Z</time>
      </trkpt>
      <trkpt lat="43.77171" lon="1.76861">
        <ele>173.26639</ele>
        <time>2026-08-28T19:02:14Z</time>
      </trkpt>
      <trkpt lat="43.77167" lon="1.76864">
        <ele>173.23592</ele>
        <time>2026-08-28T19:02:15Z</time>
      </trkpt>
      <trkpt lat="43.77162" lon="1.76867">
        <ele>173.201673</ele>
        <time>2026-08-28T19:02:16Z</time>
      </trkpt>
      <trkpt lat="43.77158" lon="1.76871">
        <ele>173.168121</ele>
        <time>2026-08-28T19:02:17Z</time>
      </trkpt>
      <trkpt lat="43.77154" lon="1.76874">
        <ele>173.134446</ele>
        <time>2026-08-28T19:02:18Z</time>
      </trkpt>
      <trkpt lat="43.77149" lon="1.76877">
        <ele>173.099564</ele>
        <time>2026-08-28T19:02:19Z</time>
      </trkpt>
      <trkpt lat="43.77144" lon="1.7688">
        <ele>173.064459</ele>
        <time>2026-08-28T19:02:20Z</time>
      </trkpt>
      <trkpt lat="43.7714" lon="1.76883">
        <ele>173.02979</ele>
        <time>2026-08-28T19:02:21Z</time>
      </trkpt>
      <trkpt lat="43.77135" lon="1.76886">
        <ele>172.995337</ele>
        <time>2026-08-28T19:02:22Z</time>
      </trkpt>
      <trkpt lat="43.77131" lon="1.76889">
        <ele>172.960834</ele>
        <time>2026-08-28T19:02:23Z</time>
      </trkpt>
      <trkpt lat="43.77126" lon="1.76892">
        <ele>172.928208</ele>
        <time>2026-08-28T19:02:24Z</time>
      </trkpt>
      <trkpt lat="43.77122" lon="1.76895">
        <ele>172.894897</ele>
        <time>2026-08-28T19:02:25Z</time>
      </trkpt>
      <trkpt lat="43.77118" lon="1.76898">
        <ele>172.863007</ele>
        <time>2026-08-28T19:02:26Z</time>
      </trkpt>
      <trkpt lat="43.77114" lon="1.76901">
        <ele>172.832031</ele>
        <time>2026-08-28T19:02:27Z</time>
      </trkpt>
      <trkpt lat="43.7711" lon="1.76904">
        <ele>172.801475</ele>
        <time>2026-08-28T19:02:28Z</time>
      </trkpt>
      <trkpt lat="43.77106" lon="1.76906">
        <ele>172.771739</ele>
        <time>2026-08-28T19:02:29Z</time>
      </trkpt>
      <trkpt lat="43.77102" lon="1.76909">
        <ele>172.743016</ele>
        <time>2026-08-28T19:02:30Z</time>
      </trkpt>
      <trkpt lat="43.77098" lon="1.76911">
        <ele>172.713279</ele>
        <time>2026-08-28T19:02:31Z</time>
      </trkpt>
      <trkpt lat="43.77094" lon="1.76914">
        <ele>172.684471</ele>
        <time>2026-08-28T19:02:32Z</time>
      </trkpt>
      <trkpt lat="43.7709" lon="1.76917">
        <ele>172.654705</ele>
        <time>2026-08-28T19:02:33Z</time>
      </trkpt>
      <trkpt lat="43.77086" lon="1.76919">
        <ele>172.624552</ele>
        <time>2026-08-28T19:02:34Z</time>
      </trkpt>
      <trkpt lat="43.77082" lon="1.76922">
        <ele>172.593959</ele>
        <time>2026-08-28T19:02:35Z</time>
      </trkpt>
      <trkpt lat="43.77078" lon="1.76925">
        <ele>172.563365</ele>
        <time>2026-08-28T19:02:36Z</time>
      </trkpt>
      <trkpt lat="43.77074" lon="1.76928">
        <ele>172.532192</ele>
        <time>2026-08-28T19:02:37Z</time>
      </trkpt>
      <trkpt lat="43.7707" lon="1.7693">
        <ele>172.501215</ele>
        <time>2026-08-28T19:02:38Z</time>
      </trkpt>
      <trkpt lat="43.77066" lon="1.76933">
        <ele>172.469415</ele>
        <time>2026-08-28T19:02:39Z</time>
      </trkpt>
      <trkpt lat="43.77061" lon="1.76937">
        <ele>172.472709</ele>
        <time>2026-08-28T19:02:40Z</time>
      </trkpt>
      <trkpt lat="43.77057" lon="1.7694">
        <ele>172.495941</ele>
        <time>2026-08-28T19:02:41Z</time>
      </trkpt>
      <trkpt lat="43.77053" lon="1.76944">
        <ele>172.519532</ele>
        <time>2026-08-28T19:02:42Z</time>
      </trkpt>
      <trkpt lat="43.77048" lon="1.76946">
        <ele>172.544281</ele>
        <time>2026-08-28T19:02:43Z</time>
      </trkpt>
      <trkpt lat="43.77043" lon="1.76948">
        <ele>172.570228</ele>
        <time>2026-08-28T19:02:44Z</time>
      </trkpt>
      <trkpt lat="43.77037" lon="1.76949">
        <ele>172.597034</ele>
        <time>2026-08-28T19:02:45Z</time>
      </trkpt>
      <trkpt lat="43.77031" lon="1.7695">
        <ele>172.624126</ele>
        <time>2026-08-28T19:02:46Z</time>
      </trkpt>
      <trkpt lat="43.77026" lon="1.7695">
        <ele>172.651623</ele>
        <time>2026-08-28T19:02:47Z</time>
      </trkpt>
      <trkpt lat="43.7702" lon="1.76951">
        <ele>172.678383</ele>
        <time>2026-08-28T19:02:48Z</time>
      </trkpt>
      <trkpt lat="43.77015" lon="1.76953">
        <ele>172.705091</ele>
        <time>2026-08-28T19:02:49Z</time>
      </trkpt>
      <trkpt lat="43.7701" lon="1.76956">
        <ele>172.729776</ele>
        <time>2026-08-28T19:02:50Z</time>
      </trkpt>
      <trkpt lat="43.77005" lon="1.76959">
        <ele>172.754406</ele>
        <time>2026-08-28T19:02:51Z</time>
      </trkpt>
      <trkpt lat="43.77001" lon="1.76964">
        <ele>172.779201</ele>
        <time>2026-08-28T19:02:52Z</time>
      </trkpt>
      <trkpt lat="43.76997" lon="1.76968">
        <ele>172.803121</ele>
        <time>2026-08-28T19:02:53Z</time>
      </trkpt>
      <trkpt lat="43.76994" lon="1.76973">
        <ele>172.825675</ele>
        <time>2026-08-28T19:02:54Z</time>
      </trkpt>
      <trkpt lat="43.76992" lon="1.76979">
        <ele>172.846541</ele>
        <time>2026-08-28T19:02:55Z</time>
      </trkpt>
      <trkpt lat="43.76991" lon="1.76984">
        <ele>172.865952</ele>
        <time>2026-08-28T19:02:56Z</time>
      </trkpt>
      <trkpt lat="43.76991" lon="1.7699">
        <ele>172.884989</ele>
        <time>2026-08-28T19:02:57Z</time>
      </trkpt>
      <trkpt lat="43.7699" lon="1.76995">
        <ele>172.902886</ele>
        <time>2026-08-28T19:02:58Z</time>
      </trkpt>
      <trkpt lat="43.76989" lon="1.77">
        <ele>172.920431</ele>
        <time>2026-08-28T19:02:59Z</time>
      </trkpt>
      <trkpt lat="43.76988" lon="1.77003">
        <ele>172.934655</ele>
        <time>2026-08-28T19:03:00Z</time>
      </trkpt>
      <trkpt lat="43.76985" lon="1.77006">
        <ele>172.948817</ele>
        <time>2026-08-28T19:03:01Z</time>
      </trkpt>
      <trkpt lat="43.76983" lon="1.77008">
        <ele>172.961729</ele>
        <time>2026-08-28T19:03:02Z</time>
      </trkpt>
      <trkpt lat="43.7698" lon="1.77009">
        <ele>172.973429</ele>
        <time>2026-08-28T19:03:03Z</time>
      </trkpt>
      <trkpt lat="43.76978" lon="1.77008">
        <ele>172.983127</ele>
        <time>2026-08-28T19:03:04Z</time>
      </trkpt>
      <trkpt lat="43.76976" lon="1.77007">
        <ele>172.993826</ele>
        <time>2026-08-28T19:03:05Z</time>
      </trkpt>
      <trkpt lat="43.76974" lon="1.77006">
        <ele>173.003343</ele>
        <time>2026-08-28T19:03:06Z</time>
      </trkpt>
      <trkpt lat="43.76972" lon="1.77005">
        <ele>173.016969</ele>
        <time>2026-08-28T19:03:07Z</time>
      </trkpt>
      <trkpt lat="43.76969" lon="1.77004">
        <ele>173.031204</ele>
        <time>2026-08-28T19:03:08Z</time>
      </trkpt>
      <trkpt lat="43.76966" lon="1.77005">
        <ele>173.04429</ele>
        <time>2026-08-28T19:03:09Z</time>
      </trkpt>
      <trkpt lat="43.76964" lon="1.77008">
        <ele>173.057778</ele>
        <time>2026-08-28T19:03:10Z</time>
      </trkpt>
      <trkpt lat="43.76961" lon="1.7701">
        <ele>173.073561</ele>
        <time>2026-08-28T19:03:11Z</time>
      </trkpt>
      <trkpt lat="43.76958" lon="1.77013">
        <ele>173.090155</ele>
        <time>2026-08-28T19:03:12Z</time>
      </trkpt>
      <trkpt lat="43.76954" lon="1.77014">
        <ele>173.108792</ele>
        <time>2026-08-28T19:03:13Z</time>
      </trkpt>
      <trkpt lat="43.76951" lon="1.77014">
        <ele>173.123992</ele>
        <time>2026-08-28T19:03:14Z</time>
      </trkpt>
      <trkpt lat="43.76948" lon="1.77013">
        <ele>173.138411</ele>
        <time>2026-08-28T19:03:15Z</time>
      </trkpt>
      <trkpt lat="43.76945" lon="1.77012">
        <ele>173.15522</ele>
        <time>2026-08-28T19:03:16Z</time>
      </trkpt>
      <trkpt lat="43.76942" lon="1.77009">
        <ele>173.172578</ele>
        <time>2026-08-28T19:03:17Z</time>
      </trkpt>
      <trkpt lat="43.76939" lon="1.77007">
        <ele>173.186511</ele>
        <time>2026-08-28T19:03:18Z</time>
      </trkpt>
      <trkpt lat="43.76936" lon="1.77006">
        <ele>173.203082</ele>
        <time>2026-08-28T19:03:19Z</time>
      </trkpt>
      <trkpt lat="43.76932" lon="1.77004">
        <ele>173.219543</ele>
        <time>2026-08-28T19:03:20Z</time>
      </trkpt>
      <trkpt lat="43.76929" lon="1.77003">
        <ele>173.238366</ele>
        <time>2026-08-28T19:03:21Z</time>
      </trkpt>
      <trkpt lat="43.76925" lon="1.77001">
        <ele>173.25792</ele>
        <time>2026-08-28T19:03:22Z</time>
      </trkpt>
      <trkpt lat="43.76921" lon="1.77">
        <ele>173.276011</ele>
        <time>2026-08-28T19:03:23Z</time>
      </trkpt>
      <trkpt lat="43.76917" lon="1.76999">
        <ele>173.294738</ele>
        <time>2026-08-28T19:03:24Z</time>
      </trkpt>
      <trkpt lat="43.76913" lon="1.76997">
        <ele>173.31308</ele>
        <time>2026-08-28T19:03:25Z</time>
      </trkpt>
      <trkpt lat="43.7691" lon="1.76995">
        <ele>173.331279</ele>
        <time>2026-08-28T19:03:26Z</time>
      </trkpt>
      <trkpt lat="43.76906" lon="1.76993">
        <ele>173.352012</ele>
        <time>2026-08-28T19:03:27Z</time>
      </trkpt>
      <trkpt lat="43.76903" lon="1.76991">
        <ele>173.371186</ele>
        <time>2026-08-28T19:03:28Z</time>
      </trkpt>
      <trkpt lat="43.76899" lon="1.7699">
        <ele>173.389872</ele>
        <time>2026-08-28T19:03:29Z</time>
      </trkpt>
      <trkpt lat="43.76896" lon="1.76989">
        <ele>173.405904</ele>
        <time>2026-08-28T19:03:30Z</time>
      </trkpt>
      <trkpt lat="43.76893" lon="1.76989">
        <ele>173.420768</ele>
        <time>2026-08-28T19:03:31Z</time>
      </trkpt>
      <trkpt lat="43.7689" lon="1.76987">
        <ele>173.43929</ele>
        <time>2026-08-28T19:03:32Z</time>
      </trkpt>
      <trkpt lat="43.76887" lon="1.76985">
        <ele>173.455079</ele>
        <time>2026-08-28T19:03:33Z</time>
      </trkpt>
      <trkpt lat="43.76884" lon="1.76984">
        <ele>173.471952</ele>
        <time>2026-08-28T19:03:34Z</time>
      </trkpt>
      <trkpt lat="43.7688" lon="1.76982">
        <ele>173.491875</ele>
        <time>2026-08-28T19:03:35Z</time>
      </trkpt>
      <trkpt lat="43.76877" lon="1.7698">
        <ele>173.512961</ele>
        <time>2026-08-28T19:03:36Z</time>
      </trkpt>
      <trkpt lat="43.76873" lon="1.76978">
        <ele>173.531541</ele>
        <time>2026-08-28T19:03:37Z</time>
      </trkpt>
      <trkpt lat="43.7687" lon="1.76977">
        <ele>173.548772</ele>
        <time>2026-08-28T19:03:38Z</time>
      </trkpt>
      <trkpt lat="43.76867" lon="1.76976">
        <ele>173.563234</ele>
        <time>2026-08-28T19:03:39Z</time>
      </trkpt>
      <trkpt lat="43.76864" lon="1.76974">
        <ele>173.578213</ele>
        <time>2026-08-28T19:03:40Z</time>
      </trkpt>
      <trkpt lat="43.76862" lon="1.76973">
        <ele>173.59305</ele>
        <time>2026-08-28T19:03:41Z</time>
      </trkpt>
      <trkpt lat="43.76859" lon="1.76971">
        <ele>173.608233</ele>
        <time>2026-08-28T19:03:42Z</time>
      </trkpt>
      <trkpt lat="43.76856" lon="1.76969">
        <ele>173.623541</ele>
        <time>2026-08-28T19:03:43Z</time>
      </trkpt>
      <trkpt lat="43.76854" lon="1.76966">
        <ele>173.638639</ele>
        <time>2026-08-28T19:03:44Z</time>
      </trkpt>
      <trkpt lat="43.76851" lon="1.76966">
        <ele>173.652586</ele>
        <time>2026-08-28T19:03:45Z</time>
      </trkpt>
      <trkpt lat="43.76849" lon="1.76967">
        <ele>173.665552</ele>
        <time>2026-08-28T19:03:46Z</time>
      </trkpt>
      <trkpt lat="43.76848" lon="1.76971">
        <ele>173.680289</ele>
        <time>2026-08-28T19:03:47Z</time>
      </trkpt>
      <trkpt lat="43.76848" lon="1.76975">
        <ele>173.695766</ele>
        <time>2026-08-28T19:03:48Z</time>
      </trkpt>
      <trkpt lat="43.76848" lon="1.7698">
        <ele>173.713562</ele>
        <time>2026-08-28T19:03:49Z</time>
      </trkpt>
      <trkpt lat="43.76848" lon="1.76985">
        <ele>173.731638</ele>
        <time>2026-08-28T19:03:50Z</time>
      </trkpt>
      <trkpt lat="43.76849" lon="1.7699">
        <ele>173.750851</ele>
        <time>2026-08-28T19:03:51Z</time>
      </trkpt>
      <trkpt lat="43.76849" lon="1.76995">
        <ele>173.770478</ele>
        <time>2026-08-28T19:03:52Z</time>
      </trkpt>
      <trkpt lat="43.76849" lon="1.77001">
        <ele>173.792629</ele>
        <time>2026-08-28T19:03:53Z</time>
      </trkpt>
      <trkpt lat="43.76849" lon="1.77007">
        <ele>173.812886</ele>
        <time>2026-08-28T19:03:54Z</time>
      </trkpt>
      <trkpt lat="43.76849" lon="1.77012">
        <ele>173.833549</ele>
        <time>2026-08-28T19:03:55Z</time>
      </trkpt>
      <trkpt lat="43.76848" lon="1.77018">
        <ele>173.852762</ele>
        <time>2026-08-28T19:03:56Z</time>
      </trkpt>
      <trkpt lat="43.76848" lon="1.77022">
        <ele>173.870448</ele>
        <time>2026-08-28T19:03:57Z</time>
      </trkpt>
      <trkpt lat="43.76848" lon="1.77029">
        <ele>173.893289</ele>
        <time>2026-08-28T19:03:58Z</time>
      </trkpt>
      <trkpt lat="43.76848" lon="1.77035">
        <ele>173.916147</ele>
        <time>2026-08-28T19:03:59Z</time>
      </trkpt>
      <trkpt lat="43.76848" lon="1.77041">
        <ele>173.938982</ele>
        <time>2026-08-28T19:04:00Z</time>
      </trkpt>
      <trkpt lat="43.76848" lon="1.77047">
        <ele>173.961868</ele>
        <time>2026-08-28T19:04:01Z</time>
      </trkpt>
      <trkpt lat="43.76847" lon="1.77054">
        <ele>173.985121</ele>
        <time>2026-08-28T19:04:02Z</time>
      </trkpt>
      <trkpt lat="43.76847" lon="1.7706">
        <ele>174.008526</ele>
        <time>2026-08-28T19:04:03Z</time>
      </trkpt>
      <trkpt lat="43.76846" lon="1.77066">
        <ele>174.032235</ele>
        <time>2026-08-28T19:04:04Z</time>
      </trkpt>
      <trkpt lat="43.76845" lon="1.77072">
        <ele>174.055876</ele>
        <time>2026-08-28T19:04:05Z</time>
      </trkpt>
      <trkpt lat="43.76844" lon="1.77079">
        <ele>174.079273</ele>
        <time>2026-08-28T19:04:06Z</time>
      </trkpt>
      <trkpt lat="43.76843" lon="1.77085">
        <ele>174.103626</ele>
        <time>2026-08-28T19:04:07Z</time>
      </trkpt>
      <trkpt lat="43.76842" lon="1.77091">
        <ele>174.127267</ele>
        <time>2026-08-28T19:04:08Z</time>
      </trkpt>
      <trkpt lat="43.7684" lon="1.77097">
        <ele>174.15135</ele>
        <time>2026-08-28T19:04:09Z</time>
      </trkpt>
      <trkpt lat="43.76839" lon="1.77104">
        <ele>174.175253</ele>
        <time>2026-08-28T19:04:10Z</time>
      </trkpt>
      <trkpt lat="43.76837" lon="1.7711">
        <ele>174.200206</ele>
        <time>2026-08-28T19:04:11Z</time>
      </trkpt>
      <trkpt lat="43.76835" lon="1.77116">
        <ele>174.224802</ele>
        <time>2026-08-28T19:04:12Z</time>
      </trkpt>
      <trkpt lat="43.76833" lon="1.77122">
        <ele>174.216798</ele>
        <time>2026-08-28T19:04:13Z</time>
      </trkpt>
      <trkpt lat="43.76832" lon="1.77128">
        <ele>174.20485</ele>
        <time>2026-08-28T19:04:14Z</time>
      </trkpt>
      <trkpt lat="43.76831" lon="1.77134">
        <ele>174.19282</ele>
        <time>2026-08-28T19:04:15Z</time>
      </trkpt>
      <trkpt lat="43.76829" lon="1.7714">
        <ele>174.180431</ele>
        <time>2026-08-28T19:04:16Z</time>
      </trkpt>
      <trkpt lat="43.76827" lon="1.77146">
        <ele>174.167585</ele>
        <time>2026-08-28T19:04:17Z</time>
      </trkpt>
      <trkpt lat="43.76826" lon="1.77152">
        <ele>174.154376</ele>
        <time>2026-08-28T19:04:18Z</time>
      </trkpt>
      <trkpt lat="43.76824" lon="1.77159">
        <ele>174.141257</ele>
        <time>2026-08-28T19:04:19Z</time>
      </trkpt>
      <trkpt lat="43.76822" lon="1.77165">
        <ele>174.128138</ele>
        <time>2026-08-28T19:04:20Z</time>
      </trkpt>
      <trkpt lat="43.76821" lon="1.77171">
        <ele>174.115202</ele>
        <time>2026-08-28T19:04:21Z</time>
      </trkpt>
      <trkpt lat="43.76819" lon="1.77178">
        <ele>174.10272</ele>
        <time>2026-08-28T19:04:22Z</time>
      </trkpt>
      <trkpt lat="43.76818" lon="1.77184">
        <ele>174.089784</ele>
        <time>2026-08-28T19:04:23Z</time>
      </trkpt>
      <trkpt lat="43.76816" lon="1.7719">
        <ele>174.077119</ele>
        <time>2026-08-28T19:04:24Z</time>
      </trkpt>
      <trkpt lat="43.76814" lon="1.77196">
        <ele>174.064548</ele>
        <time>2026-08-28T19:04:25Z</time>
      </trkpt>
      <trkpt lat="43.76813" lon="1.77202">
        <ele>174.051244</ele>
        <time>2026-08-28T19:04:26Z</time>
      </trkpt>
      <trkpt lat="43.76811" lon="1.77209">
        <ele>174.03812</ele>
        <time>2026-08-28T19:04:27Z</time>
      </trkpt>
      <trkpt lat="43.76809" lon="1.77215">
        <ele>174.024729</ele>
        <time>2026-08-28T19:04:28Z</time>
      </trkpt>
      <trkpt lat="43.76807" lon="1.77222">
        <ele>174.011605</ele>
        <time>2026-08-28T19:04:29Z</time>
      </trkpt>
      <trkpt lat="43.76806" lon="1.77228">
        <ele>173.998396</ele>
        <time>2026-08-28T19:04:30Z</time>
      </trkpt>
      <trkpt lat="43.76804" lon="1.77234">
        <ele>173.984956</ele>
        <time>2026-08-28T19:04:31Z</time>
      </trkpt>
      <trkpt lat="43.76802" lon="1.7724">
        <ele>173.971802</ele>
        <time>2026-08-28T19:04:32Z</time>
      </trkpt>
      <trkpt lat="43.768" lon="1.77247">
        <ele>173.958649</ele>
        <time>2026-08-28T19:04:33Z</time>
      </trkpt>
      <trkpt lat="43.76798" lon="1.77253">
        <ele>173.945781</ele>
        <time>2026-08-28T19:04:34Z</time>
      </trkpt>
      <trkpt lat="43.76796" lon="1.77259">
        <ele>173.933213</ele>
        <time>2026-08-28T19:04:35Z</time>
      </trkpt>
      <trkpt lat="43.76793" lon="1.77264">
        <ele>173.920472</ele>
        <time>2026-08-28T19:04:36Z</time>
      </trkpt>
      <trkpt lat="43.76791" lon="1.77271">
        <ele>173.907264</ele>
        <time>2026-08-28T19:04:37Z</time>
      </trkpt>
      <trkpt lat="43.76789" lon="1.77276">
        <ele>173.89418</ele>
        <time>2026-08-28T19:04:38Z</time>
      </trkpt>
      <trkpt lat="43.76786" lon="1.77282">
        <ele>173.880957</ele>
        <time>2026-08-28T19:04:39Z</time>
      </trkpt>
      <trkpt lat="43.76783" lon="1.77288">
        <ele>173.867914</ele>
        <time>2026-08-28T19:04:40Z</time>
      </trkpt>
      <trkpt lat="43.76781" lon="1.77293">
        <ele>173.85535</ele>
        <time>2026-08-28T19:04:41Z</time>
      </trkpt>
      <trkpt lat="43.76778" lon="1.77298">
        <ele>173.842609</ele>
        <time>2026-08-28T19:04:42Z</time>
      </trkpt>
      <trkpt lat="43.76775" lon="1.77303">
        <ele>173.829867</ele>
        <time>2026-08-28T19:04:43Z</time>
      </trkpt>
      <trkpt lat="43.76772" lon="1.77308">
        <ele>173.817445</ele>
        <time>2026-08-28T19:04:44Z</time>
      </trkpt>
      <trkpt lat="43.76769" lon="1.77313">
        <ele>173.806136</ele>
        <time>2026-08-28T19:04:45Z</time>
      </trkpt>
      <trkpt lat="43.76767" lon="1.77318">
        <ele>173.794653</ele>
        <time>2026-08-28T19:04:46Z</time>
      </trkpt>
      <trkpt lat="43.76765" lon="1.77323">
        <ele>173.784004</ele>
        <time>2026-08-28T19:04:47Z</time>
      </trkpt>
      <trkpt lat="43.76764" lon="1.77328">
        <ele>173.774618</ele>
        <time>2026-08-28T19:04:48Z</time>
      </trkpt>
      <trkpt lat="43.76763" lon="1.77331">
        <ele>173.766965</ele>
        <time>2026-08-28T19:04:49Z</time>
      </trkpt>
      <trkpt lat="43.76763" lon="1.77335">
        <ele>173.760054</ele>
        <time>2026-08-28T19:04:50Z</time>
      </trkpt>
      <trkpt lat="43.76761" lon="1.77338">
        <ele>173.752193</ele>
        <time>2026-08-28T19:04:51Z</time>
      </trkpt>
      <trkpt lat="43.76759" lon="1.77341">
        <ele>173.744131</ele>
        <time>2026-08-28T19:04:52Z</time>
      </trkpt>
      <trkpt lat="43.76757" lon="1.77343">
        <ele>173.703954</ele>
        <time>2026-08-28T19:04:53Z</time>
      </trkpt>
      <trkpt lat="43.76755" lon="1.77345">
        <ele>173.668311</ele>
        <time>2026-08-28T19:04:54Z</time>
      </trkpt>
      <trkpt lat="43.76752" lon="1.77347">
        <ele>173.622135</ele>
        <time>2026-08-28T19:04:55Z</time>
      </trkpt>
      <trkpt lat="43.76749" lon="1.77348">
        <ele>173.571632</ele>
        <time>2026-08-28T19:04:56Z</time>
      </trkpt>
      <trkpt lat="43.76745" lon="1.77351">
        <ele>173.517357</ele>
        <time>2026-08-28T19:04:57Z</time>
      </trkpt>
      <trkpt lat="43.76742" lon="1.77353">
        <ele>173.462618</ele>
        <time>2026-08-28T19:04:58Z</time>
      </trkpt>
      <trkpt lat="43.76739" lon="1.77356">
        <ele>173.406558</ele>
        <time>2026-08-28T19:04:59Z</time>
      </trkpt>
      <trkpt lat="43.76735" lon="1.77358">
        <ele>173.353159</ele>
        <time>2026-08-28T19:05:00Z</time>
      </trkpt>
      <trkpt lat="43.76731" lon="1.7736">
        <ele>173.296556</ele>
        <time>2026-08-28T19:05:01Z</time>
      </trkpt>
      <trkpt lat="43.76727" lon="1.77362">
        <ele>173.235197</ele>
        <time>2026-08-28T19:05:02Z</time>
      </trkpt>
      <trkpt lat="43.76723" lon="1.77364">
        <ele>173.167085</ele>
        <time>2026-08-28T19:05:03Z</time>
      </trkpt>
      <trkpt lat="43.76718" lon="1.77367">
        <ele>173.098283</ele>
        <time>2026-08-28T19:05:04Z</time>
      </trkpt>
      <trkpt lat="43.76714" lon="1.77369">
        <ele>173.028344</ele>
        <time>2026-08-28T19:05:05Z</time>
      </trkpt>
      <trkpt lat="43.76709" lon="1.77372">
        <ele>172.954032</ele>
        <time>2026-08-28T19:05:06Z</time>
      </trkpt>
      <trkpt lat="43.76704" lon="1.77374">
        <ele>172.880104</ele>
        <time>2026-08-28T19:05:07Z</time>
      </trkpt>
      <trkpt lat="43.767" lon="1.77377">
        <ele>172.808031</ele>
        <time>2026-08-28T19:05:08Z</time>
      </trkpt>
      <trkpt lat="43.76695" lon="1.7738">
        <ele>172.73076</ele>
        <time>2026-08-28T19:05:09Z</time>
      </trkpt>
      <trkpt lat="43.7669" lon="1.77383">
        <ele>172.651681</ele>
        <time>2026-08-28T19:05:10Z</time>
      </trkpt>
      <trkpt lat="43.76684" lon="1.77386">
        <ele>172.569555</ele>
        <time>2026-08-28T19:05:11Z</time>
      </trkpt>
      <trkpt lat="43.76679" lon="1.77389">
        <ele>172.48514</ele>
        <time>2026-08-28T19:05:12Z</time>
      </trkpt>
      <trkpt lat="43.76673" lon="1.77392">
        <ele>172.394649</ele>
        <time>2026-08-28T19:05:13Z</time>
      </trkpt>
      <trkpt lat="43.76667" lon="1.77394">
        <ele>172.307764</ele>
        <time>2026-08-28T19:05:14Z</time>
      </trkpt>
      <trkpt lat="43.76661" lon="1.77396">
        <ele>172.222032</ele>
        <time>2026-08-28T19:05:15Z</time>
      </trkpt>
      <trkpt lat="43.76655" lon="1.77397">
        <ele>172.135798</ele>
        <time>2026-08-28T19:05:16Z</time>
      </trkpt>
      <trkpt lat="43.7665" lon="1.77398">
        <ele>172.051829</ele>
        <time>2026-08-28T19:05:17Z</time>
      </trkpt>
      <trkpt lat="43.76644" lon="1.77399">
        <ele>171.966975</ele>
        <time>2026-08-28T19:05:18Z</time>
      </trkpt>
      <trkpt lat="43.76638" lon="1.77399">
        <ele>171.880858</ele>
        <time>2026-08-28T19:05:19Z</time>
      </trkpt>
      <trkpt lat="43.76632" lon="1.77399">
        <ele>171.793142</ele>
        <time>2026-08-28T19:05:20Z</time>
      </trkpt>
      <trkpt lat="43.76625" lon="1.77398">
        <ele>171.705256</ele>
        <time>2026-08-28T19:05:21Z</time>
      </trkpt>
      <trkpt lat="43.76619" lon="1.77397">
        <ele>171.613084</ele>
        <time>2026-08-28T19:05:22Z</time>
      </trkpt>
      <trkpt lat="43.76613" lon="1.77396">
        <ele>171.52652</ele>
        <time>2026-08-28T19:05:23Z</time>
      </trkpt>
      <trkpt lat="43.76607" lon="1.77395">
        <ele>171.442245</ele>
        <time>2026-08-28T19:05:24Z</time>
      </trkpt>
      <trkpt lat="43.76601" lon="1.77394">
        <ele>171.352451</ele>
        <time>2026-08-28T19:05:25Z</time>
      </trkpt>
      <trkpt lat="43.76595" lon="1.77392">
        <ele>171.263587</ele>
        <time>2026-08-28T19:05:26Z</time>
      </trkpt>
      <trkpt lat="43.76589" lon="1.7739">
        <ele>171.175305</ele>
        <time>2026-08-28T19:05:27Z</time>
      </trkpt>
      <trkpt lat="43.76583" lon="1.77389">
        <ele>171.149484</ele>
        <time>2026-08-28T19:05:28Z</time>
      </trkpt>
      <trkpt lat="43.76578" lon="1.77387">
        <ele>171.133047</ele>
        <time>2026-08-28T19:05:29Z</time>
      </trkpt>
      <trkpt lat="43.76573" lon="1.77385">
        <ele>171.116673</ele>
        <time>2026-08-28T19:05:30Z</time>
      </trkpt>
      <trkpt lat="43.76568" lon="1.77383">
        <ele>171.09976</ele>
        <time>2026-08-28T19:05:31Z</time>
      </trkpt>
      <trkpt lat="43.76562" lon="1.77381">
        <ele>171.082398</ele>
        <time>2026-08-28T19:05:32Z</time>
      </trkpt>
      <trkpt lat="43.76556" lon="1.77379">
        <ele>171.063878</ele>
        <time>2026-08-28T19:05:33Z</time>
      </trkpt>
      <trkpt lat="43.7655" lon="1.77377">
        <ele>171.04396</ele>
        <time>2026-08-28T19:05:34Z</time>
      </trkpt>
      <trkpt lat="43.76544" lon="1.77375">
        <ele>171.023179</ele>
        <time>2026-08-28T19:05:35Z</time>
      </trkpt>
      <trkpt lat="43.76537" lon="1.77373">
        <ele>171.0018</ele>
        <time>2026-08-28T19:05:36Z</time>
      </trkpt>
      <trkpt lat="43.7653" lon="1.77371">
        <ele>170.979577</ele>
        <time>2026-08-28T19:05:37Z</time>
      </trkpt>
      <trkpt lat="43.76523" lon="1.7737">
        <ele>170.95834</ele>
        <time>2026-08-28T19:05:38Z</time>
      </trkpt>
      <trkpt lat="43.76516" lon="1.77368">
        <ele>170.936767</ele>
        <time>2026-08-28T19:05:39Z</time>
      </trkpt>
      <trkpt lat="43.76509" lon="1.77365">
        <ele>170.914425</ele>
        <time>2026-08-28T19:05:40Z</time>
      </trkpt>
      <trkpt lat="43.76502" lon="1.77362">
        <ele>170.892572</ele>
        <time>2026-08-28T19:05:41Z</time>
      </trkpt>
      <trkpt lat="43.76496" lon="1.7736">
        <ele>170.871952</ele>
        <time>2026-08-28T19:05:42Z</time>
      </trkpt>
      <trkpt lat="43.7649" lon="1.77358">
        <ele>170.852383</ele>
        <time>2026-08-28T19:05:43Z</time>
      </trkpt>
      <trkpt lat="43.76484" lon="1.77357">
        <ele>170.8329</ele>
        <time>2026-08-28T19:05:44Z</time>
      </trkpt>
      <trkpt lat="43.76477" lon="1.77355">
        <ele>170.81333</ele>
        <time>2026-08-28T19:05:45Z</time>
      </trkpt>
      <trkpt lat="43.76471" lon="1.77354">
        <ele>170.794908</ele>
        <time>2026-08-28T19:05:46Z</time>
      </trkpt>
      <trkpt lat="43.76465" lon="1.77352">
        <ele>170.776147</ele>
        <time>2026-08-28T19:05:47Z</time>
      </trkpt>
      <trkpt lat="43.7646" lon="1.77351">
        <ele>170.758397</ele>
        <time>2026-08-28T19:05:48Z</time>
      </trkpt>
      <trkpt lat="43.76454" lon="1.7735">
        <ele>170.740368</ele>
        <time>2026-08-28T19:05:49Z</time>
      </trkpt>
      <trkpt lat="43.76449" lon="1.77349">
        <ele>170.723396</ele>
        <time>2026-08-28T19:05:50Z</time>
      </trkpt>
      <trkpt lat="43.76444" lon="1.77347">
        <ele>170.707491</ele>
        <time>2026-08-28T19:05:51Z</time>
      </trkpt>
      <trkpt lat="43.7644" lon="1.77346">
        <ele>170.695751</ele>
        <time>2026-08-28T19:05:52Z</time>
      </trkpt>
      <trkpt lat="43.76437" lon="1.77346">
        <ele>170.685554</ele>
        <time>2026-08-28T19:05:53Z</time>
      </trkpt>
      <trkpt lat="43.76434" lon="1.77346">
        <ele>170.676904</ele>
        <time>2026-08-28T19:05:54Z</time>
      </trkpt>
      <trkpt lat="43.76432" lon="1.77346">
        <ele>170.671273</ele>
        <time>2026-08-28T19:05:55Z</time>
      </trkpt>
      <trkpt lat="43.76431" lon="1.77345">
        <ele>170.667201</ele>
        <time>2026-08-28T19:05:56Z</time>
      </trkpt>
      <trkpt lat="43.76429" lon="1.77345">
        <ele>170.66313</ele>
        <time>2026-08-28T19:05:57Z</time>
      </trkpt>
      <trkpt lat="43.76429" lon="1.77345">
        <ele>170.661073</ele>
        <time>2026-08-28T19:05:58Z</time>
      </trkpt>
      <trkpt lat="43.76429" lon="1.77344">
        <ele>170.660162</ele>
        <time>2026-08-28T19:05:59Z</time>
      </trkpt>
      <trkpt lat="43.76428" lon="1.77344">
        <ele>170.657738</ele>
        <time>2026-08-28T19:06:00Z</time>
      </trkpt>
      <trkpt lat="43.76427" lon="1.77343">
        <ele>170.654815</ele>
        <time>2026-08-28T19:06:01Z</time>
      </trkpt>
      <trkpt lat="43.76426" lon="1.77343">
        <ele>170.652607</ele>
        <time>2026-08-28T19:06:02Z</time>
      </trkpt>
      <trkpt lat="43.76426" lon="1.77343">
        <ele>170.650753</ele>
        <time>2026-08-28T19:06:03Z</time>
      </trkpt>
      <trkpt lat="43.76426" lon="1.77343">
        <ele>170.650307</ele>
        <time>2026-08-28T19:06:04Z</time>
      </trkpt>
      <trkpt lat="43.76425" lon="1.77343">
        <ele>170.648783</ele>
        <time>2026-08-28T19:06:05Z</time>
      </trkpt>
      <trkpt lat="43.76422" lon="1.77346">
        <ele>170.63588</ele>
        <time>2026-08-28T19:06:33Z</time>
      </trkpt>
      <trkpt lat="43.7642" lon="1.77346">
        <ele>170.62986</ele>
        <time>2026-08-28T19:06:34Z</time>
      </trkpt>
      <trkpt lat="43.76418" lon="1.77347">
        <ele>170.625393</ele>
        <time>2026-08-28T19:06:35Z</time>
      </trkpt>
      <trkpt lat="43.76417" lon="1.77348">
        <ele>170.621084</ele>
        <time>2026-08-28T19:06:36Z</time>
      </trkpt>
      <trkpt lat="43.76416" lon="1.77348">
        <ele>170.617508</ele>
        <time>2026-08-28T19:06:37Z</time>
      </trkpt>
      <trkpt lat="43.76415" lon="1.77349">
        <ele>170.612739</ele>
        <time>2026-08-28T19:06:38Z</time>
      </trkpt>
      <trkpt lat="43.76412" lon="1.7735">
        <ele>170.616106</ele>
        <time>2026-08-28T19:06:39Z</time>
      </trkpt>
      <trkpt lat="43.7641" lon="1.77352">
        <ele>170.627665</ele>
        <time>2026-08-28T19:06:40Z</time>
      </trkpt>
      <trkpt lat="43.76407" lon="1.77355">
        <ele>170.642546</ele>
        <time>2026-08-28T19:06:41Z</time>
      </trkpt>
      <trkpt lat="43.76404" lon="1.77357">
        <ele>170.656948</ele>
        <time>2026-08-28T19:06:42Z</time>
      </trkpt>
      <trkpt lat="43.764" lon="1.77359">
        <ele>170.673385</ele>
        <time>2026-08-28T19:06:43Z</time>
      </trkpt>
      <trkpt lat="43.76397" lon="1.77361">
        <ele>170.688219</ele>
        <time>2026-08-28T19:06:44Z</time>
      </trkpt>
      <trkpt lat="43.76394" lon="1.77363">
        <ele>170.703114</ele>
        <time>2026-08-28T19:06:45Z</time>
      </trkpt>
      <trkpt lat="43.76391" lon="1.77365">
        <ele>170.716042</ele>
        <time>2026-08-28T19:06:46Z</time>
      </trkpt>
      <trkpt lat="43.76389" lon="1.77367">
        <ele>170.72918</ele>
        <time>2026-08-28T19:06:47Z</time>
      </trkpt>
      <trkpt lat="43.76386" lon="1.77369">
        <ele>170.74195</ele>
        <time>2026-08-28T19:06:48Z</time>
      </trkpt>
      <trkpt lat="43.76384" lon="1.77372">
        <ele>170.754333</ele>
        <time>2026-08-28T19:06:49Z</time>
      </trkpt>
      <trkpt lat="43.76381" lon="1.77373">
        <ele>170.766433</ele>
        <time>2026-08-28T19:06:50Z</time>
      </trkpt>
      <trkpt lat="43.76378" lon="1.77375">
        <ele>170.780072</ele>
        <time>2026-08-28T19:06:51Z</time>
      </trkpt>
      <trkpt lat="43.76375" lon="1.77377">
        <ele>170.794004</ele>
        <time>2026-08-28T19:06:52Z</time>
      </trkpt>
      <trkpt lat="43.76372" lon="1.77378">
        <ele>170.807365</ele>
        <time>2026-08-28T19:06:53Z</time>
      </trkpt>
      <trkpt lat="43.76369" lon="1.7738">
        <ele>170.820594</ele>
        <time>2026-08-28T19:06:54Z</time>
      </trkpt>
      <trkpt lat="43.76367" lon="1.77382">
        <ele>170.832282</ele>
        <time>2026-08-28T19:06:55Z</time>
      </trkpt>
      <trkpt lat="43.76365" lon="1.77384">
        <ele>170.843454</ele>
        <time>2026-08-28T19:06:56Z</time>
      </trkpt>
      <trkpt lat="43.76362" lon="1.77385">
        <ele>170.85527</ele>
        <time>2026-08-28T19:06:57Z</time>
      </trkpt>
      <trkpt lat="43.76359" lon="1.77387">
        <ele>170.868926</ele>
        <time>2026-08-28T19:06:58Z</time>
      </trkpt>
      <trkpt lat="43.76356" lon="1.77388">
        <ele>170.882287</ele>
        <time>2026-08-28T19:06:59Z</time>
      </trkpt>
      <trkpt lat="43.76354" lon="1.7739">
        <ele>170.894693</ele>
        <time>2026-08-28T19:07:00Z</time>
      </trkpt>
      <trkpt lat="43.76351" lon="1.77392">
        <ele>170.906764</ele>
        <time>2026-08-28T19:07:01Z</time>
      </trkpt>
      <trkpt lat="43.76349" lon="1.77392">
        <ele>170.91737</ele>
        <time>2026-08-28T19:07:02Z</time>
      </trkpt>
      <trkpt lat="43.76347" lon="1.7739">
        <ele>170.92679</ele>
        <time>2026-08-28T19:07:03Z</time>
      </trkpt>
      <trkpt lat="43.76345" lon="1.77388">
        <ele>170.936286</ele>
        <time>2026-08-28T19:07:04Z</time>
      </trkpt>
      <trkpt lat="43.76344" lon="1.77385">
        <ele>170.946485</ele>
        <time>2026-08-28T19:07:05Z</time>
      </trkpt>
      <trkpt lat="43.76343" lon="1.77382">
        <ele>170.957205</ele>
        <time>2026-08-28T19:07:06Z</time>
      </trkpt>
      <trkpt lat="43.76341" lon="1.77379">
        <ele>170.969625</ele>
        <time>2026-08-28T19:07:07Z</time>
      </trkpt>
      <trkpt lat="43.76339" lon="1.77376">
        <ele>170.981299</ele>
        <time>2026-08-28T19:07:08Z</time>
      </trkpt>
      <trkpt lat="43.76338" lon="1.77373">
        <ele>170.991534</ele>
        <time>2026-08-28T19:07:09Z</time>
      </trkpt>
      <trkpt lat="43.76336" lon="1.77372">
        <ele>170.998861</ele>
        <time>2026-08-28T19:07:10Z</time>
      </trkpt>
      <trkpt lat="43.76336" lon="1.77371">
        <ele>171.000954</ele>
        <time>2026-08-28T19:07:11Z</time>
      </trkpt>
      <trkpt lat="43.76336" lon="1.77371">
        <ele>171.001379</ele>
        <time>2026-08-28T19:07:12Z</time>
      </trkpt>
      <trkpt lat="43.76335" lon="1.77371">
        <ele>171.00436</ele>
        <time>2026-08-28T19:07:13Z</time>
      </trkpt>
      <trkpt lat="43.76334" lon="1.77381">
        <ele>171.035654</ele>
        <time>2026-08-28T19:14:32Z</time>
      </trkpt>
      <trkpt lat="43.76335" lon="1.77382">
        <ele>171.041386</ele>
        <time>2026-08-28T19:14:33Z</time>
      </trkpt>
      <trkpt lat="43.76335" lon="1.77385">
        <ele>171.048879</ele>
        <time>2026-08-28T19:14:34Z</time>
      </trkpt>
      <trkpt lat="43.76336" lon="1.77387">
        <ele>171.056725</ele>
        <time>2026-08-28T19:14:35Z</time>
      </trkpt>
      <trkpt lat="43.76336" lon="1.7739">
        <ele>171.06457</ele>
        <time>2026-08-28T19:14:36Z</time>
      </trkpt>
      <trkpt lat="43.76336" lon="1.77391">
        <ele>171.070408</ele>
        <time>2026-08-28T19:14:37Z</time>
      </trkpt>
      <trkpt lat="43.76336" lon="1.77393">
        <ele>171.075328</ele>
        <time>2026-08-28T19:14:38Z</time>
      </trkpt>
      <trkpt lat="43.76336" lon="1.77395">
        <ele>171.080537</ele>
        <time>2026-08-28T19:14:39Z</time>
      </trkpt>
      <trkpt lat="43.76336" lon="1.77396">
        <ele>171.083299</ele>
        <time>2026-08-28T19:14:40Z</time>
      </trkpt>
      <trkpt lat="43.76337" lon="1.77395">
        <ele>171.08713</ele>
        <time>2026-08-28T19:14:41Z</time>
      </trkpt>
      <trkpt lat="43.76341" lon="1.77396">
        <ele>171.10768</ele>
        <time>2026-08-28T19:14:50Z</time>
      </trkpt>
      <trkpt lat="43.76344" lon="1.77398">
        <ele>171.118223</ele>
        <time>2026-08-28T19:14:51Z</time>
      </trkpt>
      <trkpt lat="43.76345" lon="1.77401">
        <ele>171.128689</ele>
        <time>2026-08-28T19:14:52Z</time>
      </trkpt>
      <trkpt lat="43.76347" lon="1.77403">
        <ele>171.140461</ele>
        <time>2026-08-28T19:14:53Z</time>
      </trkpt>
      <trkpt lat="43.7635" lon="1.77407">
        <ele>171.154597</ele>
        <time>2026-08-28T19:14:54Z</time>
      </trkpt>
      <trkpt lat="43.76352" lon="1.7741">
        <ele>171.16843</ele>
        <time>2026-08-28T19:14:55Z</time>
      </trkpt>
      <trkpt lat="43.76354" lon="1.77414">
        <ele>171.184082</ele>
        <time>2026-08-28T19:14:56Z</time>
      </trkpt>
      <trkpt lat="43.76357" lon="1.77418">
        <ele>171.202282</ele>
        <time>2026-08-28T19:14:57Z</time>
      </trkpt>
      <trkpt lat="43.7636" lon="1.77424">
        <ele>171.224742</ele>
        <time>2026-08-28T19:14:58Z</time>
      </trkpt>
      <trkpt lat="43.76363" lon="1.77431">
        <ele>171.250068</ele>
        <time>2026-08-28T19:14:59Z</time>
      </trkpt>
      <trkpt lat="43.76365" lon="1.77439">
        <ele>171.275914</ele>
        <time>2026-08-28T19:15:00Z</time>
      </trkpt>
      <trkpt lat="43.76367" lon="1.77447">
        <ele>171.300598</ele>
        <time>2026-08-28T19:15:01Z</time>
      </trkpt>
      <trkpt lat="43.76371" lon="1.77454">
        <ele>171.328956</ele>
        <time>2026-08-28T19:15:02Z</time>
      </trkpt>
      <trkpt lat="43.76376" lon="1.77461">
        <ele>171.359301</ele>
        <time>2026-08-28T19:15:03Z</time>
      </trkpt>
      <trkpt lat="43.76383" lon="1.77466">
        <ele>171.401553</ele>
        <time>2026-08-28T19:15:04Z</time>
      </trkpt>
      <trkpt lat="43.7639" lon="1.77471">
        <ele>171.452075</ele>
        <time>2026-08-28T19:15:05Z</time>
      </trkpt>
      <trkpt lat="43.76396" lon="1.77475">
        <ele>171.493039</ele>
        <time>2026-08-28T19:15:06Z</time>
      </trkpt>
      <trkpt lat="43.764" lon="1.77478">
        <ele>171.526607</ele>
        <time>2026-08-28T19:15:07Z</time>
      </trkpt>
      <trkpt lat="43.76405" lon="1.77481">
        <ele>171.563177</ele>
        <time>2026-08-28T19:15:08Z</time>
      </trkpt>
      <trkpt lat="43.7641" lon="1.77482">
        <ele>171.593711</ele>
        <time>2026-08-28T19:15:09Z</time>
      </trkpt>
      <trkpt lat="43.76414" lon="1.77482">
        <ele>171.621063</ele>
        <time>2026-08-28T19:15:10Z</time>
      </trkpt>
      <trkpt lat="43.76417" lon="1.77481">
        <ele>171.639658</ele>
        <time>2026-08-28T19:15:11Z</time>
      </trkpt>
      <trkpt lat="43.7642" lon="1.77482">
        <ele>171.659175</ele>
        <time>2026-08-28T19:15:12Z</time>
      </trkpt>
      <trkpt lat="43.76423" lon="1.77482">
        <ele>171.676735</ele>
        <time>2026-08-28T19:15:13Z</time>
      </trkpt>
      <trkpt lat="43.76425" lon="1.77481">
        <ele>171.69228</ele>
        <time>2026-08-28T19:15:14Z</time>
      </trkpt>
      <trkpt lat="43.76427" lon="1.7748">
        <ele>171.705674</ele>
        <time>2026-08-28T19:15:15Z</time>
      </trkpt>
      <trkpt lat="43.76429" lon="1.77479">
        <ele>171.720733</ele>
        <time>2026-08-28T19:15:16Z</time>
      </trkpt>
      <trkpt lat="43.76431" lon="1.77478">
        <ele>171.734679</ele>
        <time>2026-08-28T19:15:17Z</time>
      </trkpt>
      <trkpt lat="43.76433" lon="1.77477">
        <ele>171.746692</ele>
        <time>2026-08-28T19:15:18Z</time>
      </trkpt>
      <trkpt lat="43.76435" lon="1.77477">
        <ele>171.760382</ele>
        <time>2026-08-28T19:15:19Z</time>
      </trkpt>
      <trkpt lat="43.76436" lon="1.77477">
        <ele>171.768201</ele>
        <time>2026-08-28T19:15:20Z</time>
      </trkpt>
      <trkpt lat="43.76437" lon="1.77476">
        <ele>171.771957</ele>
        <time>2026-08-28T19:15:21Z</time>
      </trkpt>
      <trkpt lat="43.76437" lon="1.77476">
        <ele>171.773964</ele>
        <time>2026-08-28T19:15:22Z</time>
      </trkpt>
      <trkpt lat="43.76437" lon="1.77476">
        <ele>171.776782</ele>
        <time>2026-08-28T19:15:23Z</time>
      </trkpt>
      <trkpt lat="43.76445" lon="1.77484">
        <ele>171.840417</ele>
        <time>2026-08-28T19:15:51Z</time>
      </trkpt>
      <trkpt lat="43.76447" lon="1.77485">
        <ele>171.856164</ele>
        <time>2026-08-28T19:15:52Z</time>
      </trkpt>
      <trkpt lat="43.7645" lon="1.77487">
        <ele>171.874884</ele>
        <time>2026-08-28T19:15:53Z</time>
      </trkpt>
      <trkpt lat="43.76452" lon="1.7749">
        <ele>171.893981</ele>
        <time>2026-08-28T19:15:54Z</time>
      </trkpt>
      <trkpt lat="43.76454" lon="1.77493">
        <ele>171.912148</ele>
        <time>2026-08-28T19:15:55Z</time>
      </trkpt>
      <trkpt lat="43.76456" lon="1.77495">
        <ele>171.929857</ele>
        <time>2026-08-28T19:15:56Z</time>
      </trkpt>
      <trkpt lat="43.76458" lon="1.77498">
        <ele>171.950574</ele>
        <time>2026-08-28T19:15:57Z</time>
      </trkpt>
      <trkpt lat="43.76461" lon="1.77501">
        <ele>171.97063</ele>
        <time>2026-08-28T19:15:58Z</time>
      </trkpt>
      <trkpt lat="43.76463" lon="1.77503">
        <ele>171.988044</ele>
        <time>2026-08-28T19:15:59Z</time>
      </trkpt>
      <trkpt lat="43.76465" lon="1.77505">
        <ele>172.00695</ele>
        <time>2026-08-28T19:16:00Z</time>
      </trkpt>
      <trkpt lat="43.76467" lon="1.77507">
        <ele>172.024364</ele>
        <time>2026-08-28T19:16:01Z</time>
      </trkpt>
      <trkpt lat="43.76469" lon="1.7751">
        <ele>172.04141</ele>
        <time>2026-08-28T19:16:02Z</time>
      </trkpt>
      <trkpt lat="43.76471" lon="1.77512">
        <ele>172.056653</ele>
        <time>2026-08-28T19:16:03Z</time>
      </trkpt>
      <trkpt lat="43.76473" lon="1.77514">
        <ele>172.07147</ele>
        <time>2026-08-28T19:16:04Z</time>
      </trkpt>
      <trkpt lat="43.76474" lon="1.77516">
        <ele>172.083683</ele>
        <time>2026-08-28T19:16:05Z</time>
      </trkpt>
      <trkpt lat="43.76475" lon="1.77517">
        <ele>172.094995</ele>
        <time>2026-08-28T19:16:06Z</time>
      </trkpt>
      <trkpt lat="43.76477" lon="1.77518">
        <ele>172.107988</ele>
        <time>2026-08-28T19:16:07Z</time>
      </trkpt>
      <trkpt lat="43.76479" lon="1.7752">
        <ele>172.121192</ele>
        <time>2026-08-28T19:16:08Z</time>
      </trkpt>
      <trkpt lat="43.76481" lon="1.77522">
        <ele>172.136165</ele>
        <time>2026-08-28T19:16:09Z</time>
      </trkpt>
      <trkpt lat="43.76483" lon="1.77523">
        <ele>172.151125</ele>
        <time>2026-08-28T19:16:10Z</time>
      </trkpt>
      <trkpt lat="43.76485" lon="1.77524">
        <ele>172.166148</ele>
        <time>2026-08-28T19:16:11Z</time>
      </trkpt>
      <trkpt lat="43.76487" lon="1.77526">
        <ele>172.18231</ele>
        <time>2026-08-28T19:16:12Z</time>
      </trkpt>
      <trkpt lat="43.76489" lon="1.77528">
        <ele>172.198695</ele>
        <time>2026-08-28T19:16:13Z</time>
      </trkpt>
      <trkpt lat="43.76491" lon="1.7753">
        <ele>172.216405</ele>
        <time>2026-08-28T19:16:14Z</time>
      </trkpt>
      <trkpt lat="43.76493" lon="1.77532">
        <ele>172.231377</ele>
        <time>2026-08-28T19:16:15Z</time>
      </trkpt>
      <trkpt lat="43.76495" lon="1.77534">
        <ele>172.24744</ele>
        <time>2026-08-28T19:16:16Z</time>
      </trkpt>
      <trkpt lat="43.76497" lon="1.77536">
        <ele>172.261881</ele>
        <time>2026-08-28T19:16:17Z</time>
      </trkpt>
      <trkpt lat="43.765" lon="1.77538">
        <ele>172.279799</ele>
        <time>2026-08-28T19:16:18Z</time>
      </trkpt>
      <trkpt lat="43.76502" lon="1.7754">
        <ele>172.299143</ele>
        <time>2026-08-28T19:16:19Z</time>
      </trkpt>
      <trkpt lat="43.76505" lon="1.77542">
        <ele>172.321788</ele>
        <time>2026-08-28T19:16:20Z</time>
      </trkpt>
      <trkpt lat="43.76508" lon="1.77544">
        <ele>172.342279</ele>
        <time>2026-08-28T19:16:21Z</time>
      </trkpt>
      <trkpt lat="43.76511" lon="1.77546">
        <ele>172.362989</ele>
        <time>2026-08-28T19:16:22Z</time>
      </trkpt>
      <trkpt lat="43.76513" lon="1.77548">
        <ele>172.383324</ele>
        <time>2026-08-28T19:16:23Z</time>
      </trkpt>
      <trkpt lat="43.76516" lon="1.77551">
        <ele>172.402857</ele>
        <time>2026-08-28T19:16:24Z</time>
      </trkpt>
      <trkpt lat="43.76518" lon="1.77553">
        <ele>172.421874</ele>
        <time>2026-08-28T19:16:25Z</time>
      </trkpt>
      <trkpt lat="43.76521" lon="1.77556">
        <ele>172.442196</ele>
        <time>2026-08-28T19:16:26Z</time>
      </trkpt>
      <trkpt lat="43.76523" lon="1.77558">
        <ele>172.461462</ele>
        <time>2026-08-28T19:16:27Z</time>
      </trkpt>
      <trkpt lat="43.76526" lon="1.7756">
        <ele>172.482329</ele>
        <time>2026-08-28T19:16:28Z</time>
      </trkpt>
      <trkpt lat="43.76529" lon="1.77562">
        <ele>172.50282</ele>
        <time>2026-08-28T19:16:29Z</time>
      </trkpt>
      <trkpt lat="43.76532" lon="1.77564">
        <ele>172.523685</ele>
        <time>2026-08-28T19:16:30Z</time>
      </trkpt>
      <trkpt lat="43.76535" lon="1.77566">
        <ele>172.545783</ele>
        <time>2026-08-28T19:16:31Z</time>
      </trkpt>
      <trkpt lat="43.76538" lon="1.77568">
        <ele>172.588928</ele>
        <time>2026-08-28T19:16:32Z</time>
      </trkpt>
      <trkpt lat="43.76541" lon="1.77571">
        <ele>172.634204</ele>
        <time>2026-08-28T19:16:33Z</time>
      </trkpt>
      <trkpt lat="43.76544" lon="1.77573">
        <ele>172.673478</ele>
        <time>2026-08-28T19:16:34Z</time>
      </trkpt>
      <trkpt lat="43.76547" lon="1.77575">
        <ele>172.705872</ele>
        <time>2026-08-28T19:16:35Z</time>
      </trkpt>
      <trkpt lat="43.7655" lon="1.77577">
        <ele>172.742093</ele>
        <time>2026-08-28T19:16:36Z</time>
      </trkpt>
      <trkpt lat="43.76552" lon="1.77579">
        <ele>172.776544</ele>
        <time>2026-08-28T19:16:37Z</time>
      </trkpt>
      <trkpt lat="43.76555" lon="1.77581">
        <ele>172.812392</ele>
        <time>2026-08-28T19:16:38Z</time>
      </trkpt>
      <trkpt lat="43.76558" lon="1.77583">
        <ele>172.849404</ele>
        <time>2026-08-28T19:16:39Z</time>
      </trkpt>
      <trkpt lat="43.76561" lon="1.77585">
        <ele>172.886832</ele>
        <time>2026-08-28T19:16:40Z</time>
      </trkpt>
      <trkpt lat="43.76563" lon="1.77588">
        <ele>172.924195</ele>
        <time>2026-08-28T19:16:41Z</time>
      </trkpt>
      <trkpt lat="43.76565" lon="1.77591">
        <ele>172.95714</ele>
        <time>2026-08-28T19:16:42Z</time>
      </trkpt>
      <trkpt lat="43.76568" lon="1.77593">
        <ele>172.990086</ele>
        <time>2026-08-28T19:16:43Z</time>
      </trkpt>
      <trkpt lat="43.7657" lon="1.77596">
        <ele>173.025636</ele>
        <time>2026-08-28T19:16:44Z</time>
      </trkpt>
      <trkpt lat="43.76572" lon="1.77599">
        <ele>173.061186</ele>
        <time>2026-08-28T19:16:45Z</time>
      </trkpt>
      <trkpt lat="43.76575" lon="1.77601">
        <ele>173.092878</ele>
        <time>2026-08-28T19:16:46Z</time>
      </trkpt>
      <trkpt lat="43.76577" lon="1.77603">
        <ele>173.122767</ele>
        <time>2026-08-28T19:16:47Z</time>
      </trkpt>
      <trkpt lat="43.76578" lon="1.77605">
        <ele>173.145941</ele>
        <time>2026-08-28T19:16:48Z</time>
      </trkpt>
      <trkpt lat="43.76579" lon="1.77605">
        <ele>173.156584</ele>
        <time>2026-08-28T19:16:49Z</time>
      </trkpt>
      <trkpt lat="43.7658" lon="1.77606">
        <ele>173.163364</ele>
        <time>2026-08-28T19:16:50Z</time>
      </trkpt>
      <trkpt lat="43.76579" lon="1.77606">
        <ele>173.166911</ele>
        <time>2026-08-28T19:16:51Z</time>
      </trkpt>
      <trkpt lat="43.76583" lon="1.77608">
        <ele>173.215803</ele>
        <time>2026-08-28T19:17:37Z</time>
      </trkpt>
      <trkpt lat="43.76584" lon="1.77609">
        <ele>173.230932</ele>
        <time>2026-08-28T19:17:38Z</time>
      </trkpt>
      <trkpt lat="43.76586" lon="1.77609">
        <ele>173.250786</ele>
        <time>2026-08-28T19:17:39Z</time>
      </trkpt>
      <trkpt lat="43.76588" lon="1.77611">
        <ele>173.273961</ele>
        <time>2026-08-28T19:17:40Z</time>
      </trkpt>
      <trkpt lat="43.76589" lon="1.77613">
        <ele>173.297901</ele>
        <time>2026-08-28T19:17:41Z</time>
      </trkpt>
      <trkpt lat="43.76591" lon="1.77615">
        <ele>173.326628</ele>
        <time>2026-08-28T19:17:42Z</time>
      </trkpt>
      <trkpt lat="43.76593" lon="1.77618">
        <ele>173.360144</ele>
        <time>2026-08-28T19:17:43Z</time>
      </trkpt>
      <trkpt lat="43.76595" lon="1.77621">
        <ele>173.39382</ele>
        <time>2026-08-28T19:17:44Z</time>
      </trkpt>
      <trkpt lat="43.76596" lon="1.77625">
        <ele>173.429626</ele>
        <time>2026-08-28T19:17:45Z</time>
      </trkpt>
      <trkpt lat="43.76598" lon="1.77629">
        <ele>173.465979</ele>
        <time>2026-08-28T19:17:46Z</time>
      </trkpt>
      <trkpt lat="43.766" lon="1.77632">
        <ele>173.499769</ele>
        <time>2026-08-28T19:17:47Z</time>
      </trkpt>
      <trkpt lat="43.76602" lon="1.77636">
        <ele>173.536882</ele>
        <time>2026-08-28T19:17:48Z</time>
      </trkpt>
      <trkpt lat="43.76603" lon="1.77639">
        <ele>173.572594</ele>
        <time>2026-08-28T19:17:49Z</time>
      </trkpt>
      <trkpt lat="43.76605" lon="1.77643">
        <ele>173.608268</ele>
        <time>2026-08-28T19:17:50Z</time>
      </trkpt>
      <trkpt lat="43.76607" lon="1.77647">
        <ele>173.644621</ele>
        <time>2026-08-28T19:17:51Z</time>
      </trkpt>
      <trkpt lat="43.76608" lon="1.7765">
        <ele>173.67985</ele>
        <time>2026-08-28T19:17:52Z</time>
      </trkpt>
      <trkpt lat="43.7661" lon="1.77654">
        <ele>173.716259</ele>
        <time>2026-08-28T19:17:53Z</time>
      </trkpt>
      <trkpt lat="43.76612" lon="1.77658">
        <ele>173.752669</ele>
        <time>2026-08-28T19:17:54Z</time>
      </trkpt>
      <trkpt lat="43.76613" lon="1.77662">
        <ele>173.791203</ele>
        <time>2026-08-28T19:17:55Z</time>
      </trkpt>
      <trkpt lat="43.76614" lon="1.77665">
        <ele>173.822453</ele>
        <time>2026-08-28T19:17:56Z</time>
      </trkpt>
      <trkpt lat="43.76616" lon="1.77669">
        <ele>173.855372</ele>
        <time>2026-08-28T19:17:57Z</time>
      </trkpt>
      <trkpt lat="43.76617" lon="1.77672">
        <ele>173.888049</ele>
        <time>2026-08-28T19:17:58Z</time>
      </trkpt>
      <trkpt lat="43.76618" lon="1.77676">
        <ele>173.924735</ele>
        <time>2026-08-28T19:17:59Z</time>
      </trkpt>
      <trkpt lat="43.7662" lon="1.7768">
        <ele>173.961153</ele>
        <time>2026-08-28T19:18:00Z</time>
      </trkpt>
      <trkpt lat="43.76621" lon="1.77685">
        <ele>173.999811</ele>
        <time>2026-08-28T19:18:01Z</time>
      </trkpt>
      <trkpt lat="43.76622" lon="1.77689">
        <ele>174.040984</ele>
        <time>2026-08-28T19:18:02Z</time>
      </trkpt>
      <trkpt lat="43.76623" lon="1.77694">
        <ele>174.083156</ele>
        <time>2026-08-28T19:18:03Z</time>
      </trkpt>
      <trkpt lat="43.76624" lon="1.77698">
        <ele>174.119574</ele>
        <time>2026-08-28T19:18:04Z</time>
      </trkpt>
      <trkpt lat="43.76626" lon="1.77702">
        <ele>174.159967</ele>
        <time>2026-08-28T19:18:05Z</time>
      </trkpt>
      <trkpt lat="43.76629" lon="1.77706">
        <ele>174.200644</ele>
        <time>2026-08-28T19:18:06Z</time>
      </trkpt>
      <trkpt lat="43.76631" lon="1.77709">
        <ele>174.240089</ele>
        <time>2026-08-28T19:18:07Z</time>
      </trkpt>
      <trkpt lat="43.76634" lon="1.77712">
        <ele>174.28272</ele>
        <time>2026-08-28T19:18:08Z</time>
      </trkpt>
      <trkpt lat="43.76637" lon="1.77715">
        <ele>174.324783</ele>
        <time>2026-08-28T19:18:09Z</time>
      </trkpt>
      <trkpt lat="43.7664" lon="1.77718">
        <ele>174.368744</ele>
        <time>2026-08-28T19:18:10Z</time>
      </trkpt>
      <trkpt lat="43.76644" lon="1.77721">
        <ele>174.414589</ele>
        <time>2026-08-28T19:18:11Z</time>
      </trkpt>
      <trkpt lat="43.76647" lon="1.77724">
        <ele>174.46148</ele>
        <time>2026-08-28T19:18:12Z</time>
      </trkpt>
      <trkpt lat="43.76651" lon="1.77727">
        <ele>174.507143</ele>
        <time>2026-08-28T19:18:13Z</time>
      </trkpt>
      <trkpt lat="43.76654" lon="1.77729">
        <ele>174.552806</ele>
        <time>2026-08-28T19:18:14Z</time>
      </trkpt>
      <trkpt lat="43.76658" lon="1.77732">
        <ele>174.601173</ele>
        <time>2026-08-28T19:18:15Z</time>
      </trkpt>
      <trkpt lat="43.76662" lon="1.77734">
        <ele>174.566904</ele>
        <time>2026-08-28T19:18:16Z</time>
      </trkpt>
      <trkpt lat="43.76665" lon="1.77736">
        <ele>174.512337</ele>
        <time>2026-08-28T19:18:17Z</time>
      </trkpt>
      <trkpt lat="43.76669" lon="1.77739">
        <ele>174.460136</ele>
        <time>2026-08-28T19:18:18Z</time>
      </trkpt>
      <trkpt lat="43.76673" lon="1.77741">
        <ele>174.407528</ele>
        <time>2026-08-28T19:18:19Z</time>
      </trkpt>
      <trkpt lat="43.76677" lon="1.77743">
        <ele>174.351638</ele>
        <time>2026-08-28T19:18:20Z</time>
      </trkpt>
      <trkpt lat="43.76681" lon="1.77745">
        <ele>174.296968</ele>
        <time>2026-08-28T19:18:21Z</time>
      </trkpt>
      <trkpt lat="43.76685" lon="1.77747">
        <ele>174.242632</ele>
        <time>2026-08-28T19:18:22Z</time>
      </trkpt>
      <trkpt lat="43.76689" lon="1.77749">
        <ele>174.186742</ele>
        <time>2026-08-28T19:18:23Z</time>
      </trkpt>
      <trkpt lat="43.76693" lon="1.77752">
        <ele>174.128947</ele>
        <time>2026-08-28T19:18:24Z</time>
      </trkpt>
      <trkpt lat="43.76697" lon="1.77754">
        <ele>174.073057</ele>
        <time>2026-08-28T19:18:25Z</time>
      </trkpt>
      <trkpt lat="43.76701" lon="1.77756">
        <ele>174.017808</ele>
        <time>2026-08-28T19:18:26Z</time>
      </trkpt>
      <trkpt lat="43.76705" lon="1.77757">
        <ele>173.962559</ele>
        <time>2026-08-28T19:18:27Z</time>
      </trkpt>
      <trkpt lat="43.76709" lon="1.7776">
        <ele>173.904219</ele>
        <time>2026-08-28T19:18:28Z</time>
      </trkpt>
      <trkpt lat="43.76713" lon="1.77762">
        <ele>173.843994</ele>
        <time>2026-08-28T19:18:29Z</time>
      </trkpt>
      <trkpt lat="43.76718" lon="1.77764">
        <ele>173.781952</ele>
        <time>2026-08-28T19:18:30Z</time>
      </trkpt>
      <trkpt lat="43.76722" lon="1.77766">
        <ele>173.717133</ele>
        <time>2026-08-28T19:18:31Z</time>
      </trkpt>
      <trkpt lat="43.76727" lon="1.77768">
        <ele>173.652006</ele>
        <time>2026-08-28T19:18:32Z</time>
      </trkpt>
      <trkpt lat="43.76732" lon="1.77771">
        <ele>173.587483</ele>
        <time>2026-08-28T19:18:33Z</time>
      </trkpt>
      <trkpt lat="43.76737" lon="1.77772">
        <ele>173.523194</ele>
        <time>2026-08-28T19:18:34Z</time>
      </trkpt>
      <trkpt lat="43.76741" lon="1.77773">
        <ele>173.463322</ele>
        <time>2026-08-28T19:18:35Z</time>
      </trkpt>
      <trkpt lat="43.76746" lon="1.77774">
        <ele>173.404257</ele>
        <time>2026-08-28T19:18:36Z</time>
      </trkpt>
      <trkpt lat="43.7675" lon="1.77775">
        <ele>173.342268</ele>
        <time>2026-08-28T19:18:37Z</time>
      </trkpt>
      <trkpt lat="43.76755" lon="1.77776">
        <ele>173.280278</ele>
        <time>2026-08-28T19:18:38Z</time>
      </trkpt>
      <trkpt lat="43.7676" lon="1.77777">
        <ele>173.212843</ele>
        <time>2026-08-28T19:18:39Z</time>
      </trkpt>
      <trkpt lat="43.76765" lon="1.77778">
        <ele>173.14308</ele>
        <time>2026-08-28T19:18:40Z</time>
      </trkpt>
      <trkpt lat="43.76771" lon="1.77778">
        <ele>173.072126</ele>
        <time>2026-08-28T19:18:41Z</time>
      </trkpt>
      <trkpt lat="43.76777" lon="1.77779">
        <ele>172.994835</ele>
        <time>2026-08-28T19:18:42Z</time>
      </trkpt>
      <trkpt lat="43.76782" lon="1.77779">
        <ele>172.919058</ele>
        <time>2026-08-28T19:18:43Z</time>
      </trkpt>
      <trkpt lat="43.76788" lon="1.77779">
        <ele>172.841969</ele>
        <time>2026-08-28T19:18:44Z</time>
      </trkpt>
      <trkpt lat="43.76794" lon="1.77779">
        <ele>172.767475</ele>
        <time>2026-08-28T19:18:45Z</time>
      </trkpt>
      <trkpt lat="43.768" lon="1.7778">
        <ele>172.686274</ele>
        <time>2026-08-28T19:18:46Z</time>
      </trkpt>
      <trkpt lat="43.76807" lon="1.7778">
        <ele>172.603959</ele>
        <time>2026-08-28T19:18:47Z</time>
      </trkpt>
      <trkpt lat="43.76813" lon="1.7778">
        <ele>172.52165</ele>
        <time>2026-08-28T19:18:48Z</time>
      </trkpt>
      <trkpt lat="43.76819" lon="1.7778">
        <ele>172.437949</ele>
        <time>2026-08-28T19:18:49Z</time>
      </trkpt>
      <trkpt lat="43.76825" lon="1.77781">
        <ele>172.357801</ele>
        <time>2026-08-28T19:18:50Z</time>
      </trkpt>
      <trkpt lat="43.76831" lon="1.77783">
        <ele>172.280535</ele>
        <time>2026-08-28T19:18:51Z</time>
      </trkpt>
      <trkpt lat="43.76837" lon="1.77785">
        <ele>172.23741</ele>
        <time>2026-08-28T19:18:52Z</time>
      </trkpt>
      <trkpt lat="43.76843" lon="1.77788">
        <ele>172.206764</ele>
        <time>2026-08-28T19:18:53Z</time>
      </trkpt>
      <trkpt lat="43.76849" lon="1.7779">
        <ele>172.177087</ele>
        <time>2026-08-28T19:18:54Z</time>
      </trkpt>
      <trkpt lat="43.76854" lon="1.77793">
        <ele>172.148569</ele>
        <time>2026-08-28T19:18:55Z</time>
      </trkpt>
      <trkpt lat="43.7686" lon="1.77797">
        <ele>172.117148</ele>
        <time>2026-08-28T19:18:56Z</time>
      </trkpt>
      <trkpt lat="43.76866" lon="1.77802">
        <ele>172.084432</ele>
        <time>2026-08-28T19:18:57Z</time>
      </trkpt>
      <trkpt lat="43.76871" lon="1.77805">
        <ele>172.054271</ele>
        <time>2026-08-28T19:18:58Z</time>
      </trkpt>
      <trkpt lat="43.76877" lon="1.77809">
        <ele>172.025304</ele>
        <time>2026-08-28T19:18:59Z</time>
      </trkpt>
      <trkpt lat="43.76882" lon="1.77812">
        <ele>171.997236</ele>
        <time>2026-08-28T19:19:00Z</time>
      </trkpt>
      <trkpt lat="43.76887" lon="1.77816">
        <ele>171.970617</ele>
        <time>2026-08-28T19:19:01Z</time>
      </trkpt>
      <trkpt lat="43.76891" lon="1.7782">
        <ele>171.94415</ele>
        <time>2026-08-28T19:19:02Z</time>
      </trkpt>
      <trkpt lat="43.76895" lon="1.77824">
        <ele>171.918935</ele>
        <time>2026-08-28T19:19:03Z</time>
      </trkpt>
      <trkpt lat="43.76899" lon="1.77828">
        <ele>171.8944</ele>
        <time>2026-08-28T19:19:04Z</time>
      </trkpt>
      <trkpt lat="43.76903" lon="1.77833">
        <ele>171.86963</ele>
        <time>2026-08-28T19:19:05Z</time>
      </trkpt>
      <trkpt lat="43.76906" lon="1.77838">
        <ele>171.844611</ele>
        <time>2026-08-28T19:19:06Z</time>
      </trkpt>
      <trkpt lat="43.7691" lon="1.77843">
        <ele>171.819935</ele>
        <time>2026-08-28T19:19:07Z</time>
      </trkpt>
      <trkpt lat="43.76913" lon="1.77848">
        <ele>171.796706</ele>
        <time>2026-08-28T19:19:08Z</time>
      </trkpt>
      <trkpt lat="43.76917" lon="1.77853">
        <ele>171.773222</ele>
        <time>2026-08-28T19:19:09Z</time>
      </trkpt>
      <trkpt lat="43.7692" lon="1.77858">
        <ele>171.749601</ele>
        <time>2026-08-28T19:19:10Z</time>
      </trkpt>
      <trkpt lat="43.76923" lon="1.77863">
        <ele>171.72566</ele>
        <time>2026-08-28T19:19:11Z</time>
      </trkpt>
      <trkpt lat="43.76926" lon="1.77868">
        <ele>171.70225</ele>
        <time>2026-08-28T19:19:12Z</time>
      </trkpt>
      <trkpt lat="43.76929" lon="1.77872">
        <ele>171.679954</ele>
        <time>2026-08-28T19:19:13Z</time>
      </trkpt>
      <trkpt lat="43.76932" lon="1.77876">
        <ele>171.658434</ele>
        <time>2026-08-28T19:19:14Z</time>
      </trkpt>
      <trkpt lat="43.76936" lon="1.77881">
        <ele>171.636077</ele>
        <time>2026-08-28T19:19:15Z</time>
      </trkpt>
      <trkpt lat="43.76939" lon="1.77885">
        <ele>171.615285</ele>
        <time>2026-08-28T19:19:16Z</time>
      </trkpt>
      <trkpt lat="43.76942" lon="1.77889">
        <ele>171.594132</ele>
        <time>2026-08-28T19:19:17Z</time>
      </trkpt>
      <trkpt lat="43.76945" lon="1.77893">
        <ele>171.573199</ele>
        <time>2026-08-28T19:19:18Z</time>
      </trkpt>
      <trkpt lat="43.76948" lon="1.77896">
        <ele>171.55372</ele>
        <time>2026-08-28T19:19:19Z</time>
      </trkpt>
      <trkpt lat="43.76951" lon="1.779">
        <ele>171.534007</ele>
        <time>2026-08-28T19:19:20Z</time>
      </trkpt>
      <trkpt lat="43.76954" lon="1.77904">
        <ele>171.513393</ele>
        <time>2026-08-28T19:19:21Z</time>
      </trkpt>
      <trkpt lat="43.76958" lon="1.77908">
        <ele>171.492239</ele>
        <time>2026-08-28T19:19:22Z</time>
      </trkpt>
      <trkpt lat="43.76961" lon="1.77911">
        <ele>171.471783</ele>
        <time>2026-08-28T19:19:23Z</time>
      </trkpt>
      <trkpt lat="43.76964" lon="1.77915">
        <ele>171.449355</ele>
        <time>2026-08-28T19:19:24Z</time>
      </trkpt>
      <trkpt lat="43.76968" lon="1.77919">
        <ele>171.425328</ele>
        <time>2026-08-28T19:19:25Z</time>
      </trkpt>
      <trkpt lat="43.76972" lon="1.77923">
        <ele>171.401928</ele>
        <time>2026-08-28T19:19:26Z</time>
      </trkpt>
      <trkpt lat="43.76976" lon="1.77927">
        <ele>171.37873</ele>
        <time>2026-08-28T19:19:27Z</time>
      </trkpt>
      <trkpt lat="43.7698" lon="1.7793">
        <ele>171.442249</ele>
        <time>2026-08-28T19:19:28Z</time>
      </trkpt>
      <trkpt lat="43.76984" lon="1.77933">
        <ele>171.508666</ele>
        <time>2026-08-28T19:19:29Z</time>
      </trkpt>
      <trkpt lat="43.76988" lon="1.77936">
        <ele>171.574161</ele>
        <time>2026-08-28T19:19:30Z</time>
      </trkpt>
      <trkpt lat="43.76992" lon="1.77938">
        <ele>171.637471</ele>
        <time>2026-08-28T19:19:31Z</time>
      </trkpt>
      <trkpt lat="43.76996" lon="1.77941">
        <ele>171.701287</ele>
        <time>2026-08-28T19:19:32Z</time>
      </trkpt>
      <trkpt lat="43.77001" lon="1.77943">
        <ele>171.766067</ele>
        <time>2026-08-28T19:19:33Z</time>
      </trkpt>
      <trkpt lat="43.77005" lon="1.77945">
        <ele>171.832199</ele>
        <time>2026-08-28T19:19:34Z</time>
      </trkpt>
      <trkpt lat="43.77009" lon="1.77948">
        <ele>171.902146</ele>
        <time>2026-08-28T19:19:35Z</time>
      </trkpt>
      <trkpt lat="43.77014" lon="1.7795">
        <ele>171.965579</ele>
        <time>2026-08-28T19:19:36Z</time>
      </trkpt>
      <trkpt lat="43.77018" lon="1.77952">
        <ele>172.030693</ele>
        <time>2026-08-28T19:19:37Z</time>
      </trkpt>
      <trkpt lat="43.77022" lon="1.77954">
        <ele>172.093757</ele>
        <time>2026-08-28T19:19:38Z</time>
      </trkpt>
      <trkpt lat="43.77026" lon="1.77956">
        <ele>172.156821</ele>
        <time>2026-08-28T19:19:39Z</time>
      </trkpt>
      <trkpt lat="43.7703" lon="1.77958">
        <ele>172.217572</ele>
        <time>2026-08-28T19:19:40Z</time>
      </trkpt>
      <trkpt lat="43.77034" lon="1.7796">
        <ele>172.275662</ele>
        <time>2026-08-28T19:19:41Z</time>
      </trkpt>
      <trkpt lat="43.77037" lon="1.77962">
        <ele>172.33124</ele>
        <time>2026-08-28T19:19:42Z</time>
      </trkpt>
      <trkpt lat="43.77041" lon="1.77964">
        <ele>172.385102</ele>
        <time>2026-08-28T19:19:43Z</time>
      </trkpt>
      <trkpt lat="43.77044" lon="1.77966">
        <ele>172.438963</ele>
        <time>2026-08-28T19:19:44Z</time>
      </trkpt>
      <trkpt lat="43.77048" lon="1.77968">
        <ele>172.494921</ele>
        <time>2026-08-28T19:19:45Z</time>
      </trkpt>
      <trkpt lat="43.77052" lon="1.7797">
        <ele>172.552859</ele>
        <time>2026-08-28T19:19:46Z</time>
      </trkpt>
      <trkpt lat="43.77055" lon="1.77971">
        <ele>172.609098</ele>
        <time>2026-08-28T19:19:47Z</time>
      </trkpt>
      <trkpt lat="43.77059" lon="1.77973">
        <ele>172.665336</ele>
        <time>2026-08-28T19:19:48Z</time>
      </trkpt>
      <trkpt lat="43.77063" lon="1.77975">
        <ele>172.721255</ele>
        <time>2026-08-28T19:19:49Z</time>
      </trkpt>
      <trkpt lat="43.77066" lon="1.77976">
        <ele>172.773811</ele>
        <time>2026-08-28T19:19:50Z</time>
      </trkpt>
      <trkpt lat="43.7707" lon="1.77978">
        <ele>172.826983</ele>
        <time>2026-08-28T19:19:51Z</time>
      </trkpt>
      <trkpt lat="43.77073" lon="1.77979">
        <ele>172.878462</ele>
        <time>2026-08-28T19:19:52Z</time>
      </trkpt>
      <trkpt lat="43.77077" lon="1.77981">
        <ele>172.933678</ele>
        <time>2026-08-28T19:19:53Z</time>
      </trkpt>
      <trkpt lat="43.7708" lon="1.77983">
        <ele>172.989256</ele>
        <time>2026-08-28T19:19:54Z</time>
      </trkpt>
      <trkpt lat="43.77084" lon="1.77984">
        <ele>173.044127</ele>
        <time>2026-08-28T19:19:55Z</time>
      </trkpt>
      <trkpt lat="43.77088" lon="1.77986">
        <ele>173.104124</ele>
        <time>2026-08-28T19:19:56Z</time>
      </trkpt>
      <trkpt lat="43.77092" lon="1.77988">
        <ele>173.164799</ele>
        <time>2026-08-28T19:19:57Z</time>
      </trkpt>
      <trkpt lat="43.77096" lon="1.7799">
        <ele>173.227171</ele>
        <time>2026-08-28T19:19:58Z</time>
      </trkpt>
      <trkpt lat="43.771" lon="1.77992">
        <ele>173.294657</ele>
        <time>2026-08-28T19:19:59Z</time>
      </trkpt>
      <trkpt lat="43.77105" lon="1.77995">
        <ele>173.360788</ele>
        <time>2026-08-28T19:20:00Z</time>
      </trkpt>
      <trkpt lat="43.77109" lon="1.77997">
        <ele>173.424605</ele>
        <time>2026-08-28T19:20:01Z</time>
      </trkpt>
      <trkpt lat="43.77113" lon="1.77999">
        <ele>173.491883</ele>
        <time>2026-08-28T19:20:02Z</time>
      </trkpt>
      <trkpt lat="43.77117" lon="1.78002">
        <ele>173.557429</ele>
        <time>2026-08-28T19:20:03Z</time>
      </trkpt>
      <trkpt lat="43.77121" lon="1.78004">
        <ele>173.61991</ele>
        <time>2026-08-28T19:20:04Z</time>
      </trkpt>
      <trkpt lat="43.77125" lon="1.78006">
        <ele>173.682282</ele>
        <time>2026-08-28T19:20:05Z</time>
      </trkpt>
      <trkpt lat="43.77129" lon="1.78008">
        <ele>173.745346</ele>
        <time>2026-08-28T19:20:06Z</time>
      </trkpt>
      <trkpt lat="43.77133" lon="1.7801">
        <ele>173.805342</ele>
        <time>2026-08-28T19:20:07Z</time>
      </trkpt>
      <trkpt lat="43.77137" lon="1.78012">
        <ele>173.867055</ele>
        <time>2026-08-28T19:20:08Z</time>
      </trkpt>
      <trkpt lat="43.77141" lon="1.78014">
        <ele>173.92742</ele>
        <time>2026-08-28T19:20:09Z</time>
      </trkpt>
      <trkpt lat="43.77145" lon="1.78017">
        <ele>173.960238</ele>
        <time>2026-08-28T19:20:10Z</time>
      </trkpt>
      <trkpt lat="43.77149" lon="1.78019">
        <ele>173.921931</ele>
        <time>2026-08-28T19:20:11Z</time>
      </trkpt>
      <trkpt lat="43.77153" lon="1.78021">
        <ele>173.885749</ele>
        <time>2026-08-28T19:20:12Z</time>
      </trkpt>
      <trkpt lat="43.77157" lon="1.78023">
        <ele>173.848506</ele>
        <time>2026-08-28T19:20:13Z</time>
      </trkpt>
      <trkpt lat="43.77161" lon="1.78025">
        <ele>173.809706</ele>
        <time>2026-08-28T19:20:14Z</time>
      </trkpt>
      <trkpt lat="43.77165" lon="1.78028">
        <ele>173.769814</ele>
        <time>2026-08-28T19:20:15Z</time>
      </trkpt>
      <trkpt lat="43.77169" lon="1.78031">
        <ele>173.728542</ele>
        <time>2026-08-28T19:20:16Z</time>
      </trkpt>
      <trkpt lat="43.77173" lon="1.78034">
        <ele>173.688356</ele>
        <time>2026-08-28T19:20:17Z</time>
      </trkpt>
      <trkpt lat="43.77177" lon="1.78037">
        <ele>173.649257</ele>
        <time>2026-08-28T19:20:18Z</time>
      </trkpt>
      <trkpt lat="43.77181" lon="1.7804">
        <ele>173.60955</ele>
        <time>2026-08-28T19:20:19Z</time>
      </trkpt>
      <trkpt lat="43.77185" lon="1.78043">
        <ele>173.568434</ele>
        <time>2026-08-28T19:20:20Z</time>
      </trkpt>
      <trkpt lat="43.77189" lon="1.78046">
        <ele>173.525134</ele>
        <time>2026-08-28T19:20:21Z</time>
      </trkpt>
      <trkpt lat="43.77193" lon="1.7805">
        <ele>173.483246</ele>
        <time>2026-08-28T19:20:22Z</time>
      </trkpt>
      <trkpt lat="43.77197" lon="1.78053">
        <ele>173.441357</ele>
        <time>2026-08-28T19:20:23Z</time>
      </trkpt>
      <trkpt lat="43.77201" lon="1.78056">
        <ele>173.40087</ele>
        <time>2026-08-28T19:20:24Z</time>
      </trkpt>
      <trkpt lat="43.77205" lon="1.78059">
        <ele>173.363342</ele>
        <time>2026-08-28T19:20:25Z</time>
      </trkpt>
      <trkpt lat="43.77209" lon="1.78061">
        <ele>173.32503</ele>
        <time>2026-08-28T19:20:26Z</time>
      </trkpt>
      <trkpt lat="43.77213" lon="1.78064">
        <ele>173.285007</ele>
        <time>2026-08-28T19:20:27Z</time>
      </trkpt>
      <trkpt lat="43.77217" lon="1.78068">
        <ele>173.243119</ele>
        <time>2026-08-28T19:20:28Z</time>
      </trkpt>
      <trkpt lat="43.77221" lon="1.78071">
        <ele>173.200585</ele>
        <time>2026-08-28T19:20:29Z</time>
      </trkpt>
      <trkpt lat="43.77225" lon="1.78075">
        <ele>173.159222</ele>
        <time>2026-08-28T19:20:30Z</time>
      </trkpt>
      <trkpt lat="43.77229" lon="1.78078">
        <ele>173.118602</ele>
        <time>2026-08-28T19:20:31Z</time>
      </trkpt>
      <trkpt lat="43.77233" lon="1.78082">
        <ele>173.076886</ele>
        <time>2026-08-28T19:20:32Z</time>
      </trkpt>
      <trkpt lat="43.77236" lon="1.78085">
        <ele>173.036266</ele>
        <time>2026-08-28T19:20:33Z</time>
      </trkpt>
      <trkpt lat="43.7724" lon="1.78089">
        <ele>172.993071</ele>
        <time>2026-08-28T19:20:34Z</time>
      </trkpt>
      <trkpt lat="43.77244" lon="1.78093">
        <ele>172.950995</ele>
        <time>2026-08-28T19:20:35Z</time>
      </trkpt>
      <trkpt lat="43.77248" lon="1.78097">
        <ele>172.907588</ele>
        <time>2026-08-28T19:20:36Z</time>
      </trkpt>
      <trkpt lat="43.77252" lon="1.78102">
        <ele>172.86048</ele>
        <time>2026-08-28T19:20:37Z</time>
      </trkpt>
      <trkpt lat="43.77256" lon="1.78107">
        <ele>172.815356</ele>
        <time>2026-08-28T19:20:38Z</time>
      </trkpt>
      <trkpt lat="43.77259" lon="1.78112">
        <ele>172.769344</ele>
        <time>2026-08-28T19:20:39Z</time>
      </trkpt>
      <trkpt lat="43.77263" lon="1.78117">
        <ele>172.72288</ele>
        <time>2026-08-28T19:20:40Z</time>
      </trkpt>
      <trkpt lat="43.77267" lon="1.78122">
        <ele>172.673608</ele>
        <time>2026-08-28T19:20:41Z</time>
      </trkpt>
      <trkpt lat="43.77271" lon="1.78128">
        <ele>172.623275</ele>
        <time>2026-08-28T19:20:42Z</time>
      </trkpt>
      <trkpt lat="43.77275" lon="1.78135">
        <ele>172.570518</ele>
        <time>2026-08-28T19:20:43Z</time>
      </trkpt>
      <trkpt lat="43.77278" lon="1.78141">
        <ele>172.515281</ele>
        <time>2026-08-28T19:20:44Z</time>
      </trkpt>
      <trkpt lat="43.77282" lon="1.78149">
        <ele>172.45431</ele>
        <time>2026-08-28T19:20:45Z</time>
      </trkpt>
      <trkpt lat="43.77286" lon="1.78157">
        <ele>172.391772</ele>
        <time>2026-08-28T19:20:46Z</time>
      </trkpt>
      <trkpt lat="43.77291" lon="1.78166">
        <ele>172.24189</ele>
        <time>2026-08-28T19:20:47Z</time>
      </trkpt>
      <trkpt lat="43.77295" lon="1.78175">
        <ele>172.042699</ele>
        <time>2026-08-28T19:20:48Z</time>
      </trkpt>
      <trkpt lat="43.77299" lon="1.78185">
        <ele>171.831767</ele>
        <time>2026-08-28T19:20:49Z</time>
      </trkpt>
      <trkpt lat="43.77304" lon="1.78196">
        <ele>171.610621</ele>
        <time>2026-08-28T19:20:50Z</time>
      </trkpt>
      <trkpt lat="43.77309" lon="1.78207">
        <ele>171.371545</ele>
        <time>2026-08-28T19:20:51Z</time>
      </trkpt>
      <trkpt lat="43.77313" lon="1.78219">
        <ele>171.129683</ele>
        <time>2026-08-28T19:20:52Z</time>
      </trkpt>
      <trkpt lat="43.77319" lon="1.78231">
        <ele>170.874811</ele>
        <time>2026-08-28T19:20:53Z</time>
      </trkpt>
      <trkpt lat="43.77324" lon="1.78244">
        <ele>170.616106</ele>
        <time>2026-08-28T19:20:54Z</time>
      </trkpt>
      <trkpt lat="43.7733" lon="1.78256">
        <ele>170.349065</ele>
        <time>2026-08-28T19:20:55Z</time>
      </trkpt>
      <trkpt lat="43.77336" lon="1.78268">
        <ele>170.089359</ele>
        <time>2026-08-28T19:20:56Z</time>
      </trkpt>
      <trkpt lat="43.77342" lon="1.7828">
        <ele>169.837097</ele>
        <time>2026-08-28T19:20:57Z</time>
      </trkpt>
      <trkpt lat="43.77348" lon="1.78291">
        <ele>169.596416</ele>
        <time>2026-08-28T19:20:58Z</time>
      </trkpt>
      <trkpt lat="43.77353" lon="1.78301">
        <ele>169.371534</ele>
        <time>2026-08-28T19:20:59Z</time>
      </trkpt>
      <trkpt lat="43.77359" lon="1.7831">
        <ele>169.1495</ele>
        <time>2026-08-28T19:21:00Z</time>
      </trkpt>
      <trkpt lat="43.77365" lon="1.78317">
        <ele>168.945706</ele>
        <time>2026-08-28T19:21:01Z</time>
      </trkpt>
      <trkpt lat="43.77371" lon="1.78324">
        <ele>168.757885</ele>
        <time>2026-08-28T19:21:02Z</time>
      </trkpt>
      <trkpt lat="43.77376" lon="1.7833">
        <ele>168.601689</ele>
        <time>2026-08-28T19:21:03Z</time>
      </trkpt>
      <trkpt lat="43.77381" lon="1.78333">
        <ele>168.462614</ele>
        <time>2026-08-28T19:21:04Z</time>
      </trkpt>
      <trkpt lat="43.77386" lon="1.78336">
        <ele>168.33745</ele>
        <time>2026-08-28T19:21:05Z</time>
      </trkpt>
      <trkpt lat="43.7739" lon="1.78338">
        <ele>168.218575</ele>
        <time>2026-08-28T19:21:06Z</time>
      </trkpt>
      <trkpt lat="43.77394" lon="1.78339">
        <ele>168.119236</ele>
        <time>2026-08-28T19:21:07Z</time>
      </trkpt>
      <trkpt lat="43.77397" lon="1.78341">
        <ele>168.033765</ele>
        <time>2026-08-28T19:21:08Z</time>
      </trkpt>
      <trkpt lat="43.77401" lon="1.78342">
        <ele>167.942068</ele>
        <time>2026-08-28T19:21:09Z</time>
      </trkpt>
      <trkpt lat="43.77404" lon="1.78343">
        <ele>168.007916</ele>
        <time>2026-08-28T19:21:10Z</time>
      </trkpt>
      <trkpt lat="43.77408" lon="1.78345">
        <ele>168.151013</ele>
        <time>2026-08-28T19:21:11Z</time>
      </trkpt>
      <trkpt lat="43.77412" lon="1.78346">
        <ele>168.316333</ele>
        <time>2026-08-28T19:21:12Z</time>
      </trkpt>
      <trkpt lat="43.77416" lon="1.78348">
        <ele>168.489104</ele>
        <time>2026-08-28T19:21:13Z</time>
      </trkpt>
      <trkpt lat="43.7742" lon="1.78349">
        <ele>168.646338</ele>
        <time>2026-08-28T19:21:14Z</time>
      </trkpt>
      <trkpt lat="43.77424" lon="1.7835">
        <ele>168.790101</ele>
        <time>2026-08-28T19:21:15Z</time>
      </trkpt>
      <trkpt lat="43.77428" lon="1.78351">
        <ele>168.93031</ele>
        <time>2026-08-28T19:21:16Z</time>
      </trkpt>
      <trkpt lat="43.7743" lon="1.78352">
        <ele>169.038738</ele>
        <time>2026-08-28T19:21:17Z</time>
      </trkpt>
      <trkpt lat="43.77434" lon="1.78353">
        <ele>169.174069</ele>
        <time>2026-08-28T19:21:18Z</time>
      </trkpt>
      <trkpt lat="43.77437" lon="1.78354">
        <ele>169.284728</ele>
        <time>2026-08-28T19:21:19Z</time>
      </trkpt>
      <trkpt lat="43.7744" lon="1.78355">
        <ele>169.427103</ele>
        <time>2026-08-28T19:21:20Z</time>
      </trkpt>
      <trkpt lat="43.77443" lon="1.78356">
        <ele>169.544632</ele>
        <time>2026-08-28T19:21:21Z</time>
      </trkpt>
      <trkpt lat="43.77446" lon="1.78357">
        <ele>169.655291</ele>
        <time>2026-08-28T19:21:22Z</time>
      </trkpt>
      <trkpt lat="43.77449" lon="1.78359">
        <ele>169.774791</ele>
        <time>2026-08-28T19:21:23Z</time>
      </trkpt>
      <trkpt lat="43.77452" lon="1.7836">
        <ele>169.906871</ele>
        <time>2026-08-28T19:21:24Z</time>
      </trkpt>
      <trkpt lat="43.77455" lon="1.78362">
        <ele>170.022787</ele>
        <time>2026-08-28T19:21:25Z</time>
      </trkpt>
      <trkpt lat="43.77458" lon="1.78363">
        <ele>170.128573</ele>
        <time>2026-08-28T19:21:26Z</time>
      </trkpt>
      <trkpt lat="43.7746" lon="1.78364">
        <ele>170.241587</ele>
        <time>2026-08-28T19:21:27Z</time>
      </trkpt>
      <trkpt lat="43.77463" lon="1.78366">
        <ele>170.363648</ele>
        <time>2026-08-28T19:21:28Z</time>
      </trkpt>
      <trkpt lat="43.77467" lon="1.78367">
        <ele>170.492074</ele>
        <time>2026-08-28T19:21:29Z</time>
      </trkpt>
      <trkpt lat="43.7747" lon="1.78368">
        <ele>170.635171</ele>
        <time>2026-08-28T19:21:30Z</time>
      </trkpt>
      <trkpt lat="43.77473" lon="1.7837">
        <ele>170.759953</ele>
        <time>2026-08-28T19:21:31Z</time>
      </trkpt>
      <trkpt lat="43.77477" lon="1.78371">
        <ele>170.892869</ele>
        <time>2026-08-28T19:21:32Z</time>
      </trkpt>
      <trkpt lat="43.7748" lon="1.78373">
        <ele>171.028613</ele>
        <time>2026-08-28T19:21:33Z</time>
      </trkpt>
      <trkpt lat="43.77484" lon="1.78375">
        <ele>171.182707</ele>
        <time>2026-08-28T19:21:34Z</time>
      </trkpt>
      <trkpt lat="43.77487" lon="1.78377">
        <ele>171.332197</ele>
        <time>2026-08-28T19:21:35Z</time>
      </trkpt>
      <trkpt lat="43.77491" lon="1.78379">
        <ele>171.481688</ele>
        <time>2026-08-28T19:21:36Z</time>
      </trkpt>
      <trkpt lat="43.77495" lon="1.78381">
        <ele>171.624785</ele>
        <time>2026-08-28T19:21:37Z</time>
      </trkpt>
      <trkpt lat="43.77498" lon="1.78382">
        <ele>171.760529</ele>
        <time>2026-08-28T19:21:38Z</time>
      </trkpt>
      <trkpt lat="43.77501" lon="1.78383">
        <ele>171.889804</ele>
        <time>2026-08-28T19:21:39Z</time>
      </trkpt>
      <trkpt lat="43.77505" lon="1.78384">
        <ele>172.018012</ele>
        <time>2026-08-28T19:21:40Z</time>
      </trkpt>
      <trkpt lat="43.77508" lon="1.78385">
        <ele>172.139225</ele>
        <time>2026-08-28T19:21:41Z</time>
      </trkpt>
      <trkpt lat="43.77511" lon="1.78386">
        <ele>172.269793</ele>
        <time>2026-08-28T19:21:42Z</time>
      </trkpt>
      <trkpt lat="43.77514" lon="1.78387">
        <ele>172.393747</ele>
        <time>2026-08-28T19:21:43Z</time>
      </trkpt>
      <trkpt lat="43.77517" lon="1.78388">
        <ele>172.494132</ele>
        <time>2026-08-28T19:21:44Z</time>
      </trkpt>
      <trkpt lat="43.77519" lon="1.7839">
        <ele>172.608806</ele>
        <time>2026-08-28T19:21:45Z</time>
      </trkpt>
      <trkpt lat="43.77523" lon="1.78391">
        <ele>172.7387</ele>
        <time>2026-08-28T19:21:46Z</time>
      </trkpt>
      <trkpt lat="43.77525" lon="1.78393">
        <ele>172.852623</ele>
        <time>2026-08-28T19:21:47Z</time>
      </trkpt>
      <trkpt lat="43.77528" lon="1.78394">
        <ele>172.971091</ele>
        <time>2026-08-28T19:21:48Z</time>
      </trkpt>
      <trkpt lat="43.77532" lon="1.78395">
        <ele>173.103561</ele>
        <time>2026-08-28T19:21:49Z</time>
      </trkpt>
      <trkpt lat="43.77535" lon="1.78396">
        <ele>173.236476</ele>
        <time>2026-08-28T19:21:50Z</time>
      </trkpt>
      <trkpt lat="43.77538" lon="1.78398">
        <ele>173.367774</ele>
        <time>2026-08-28T19:21:51Z</time>
      </trkpt>
      <trkpt lat="43.77542" lon="1.78399">
        <ele>173.501577</ele>
        <time>2026-08-28T19:21:52Z</time>
      </trkpt>
      <trkpt lat="43.77545" lon="1.78401">
        <ele>173.636559</ele>
        <time>2026-08-28T19:21:53Z</time>
      </trkpt>
      <trkpt lat="43.77548" lon="1.78402">
        <ele>173.767857</ele>
        <time>2026-08-28T19:21:54Z</time>
      </trkpt>
      <trkpt lat="43.77551" lon="1.78403">
        <ele>173.894727</ele>
        <time>2026-08-28T19:21:55Z</time>
      </trkpt>
      <trkpt lat="43.77555" lon="1.78404">
        <ele>174.03149</ele>
        <time>2026-08-28T19:21:56Z</time>
      </trkpt>
      <trkpt lat="43.77558" lon="1.78406">
        <ele>174.164405</ele>
        <time>2026-08-28T19:21:57Z</time>
      </trkpt>
      <trkpt lat="43.77561" lon="1.78407">
        <ele>174.291276</ele>
        <time>2026-08-28T19:21:58Z</time>
      </trkpt>
      <trkpt lat="43.77565" lon="1.78408">
        <ele>174.413085</ele>
        <time>2026-08-28T19:21:59Z</time>
      </trkpt>
      <trkpt lat="43.77568" lon="1.78409">
        <ele>174.547359</ele>
        <time>2026-08-28T19:22:00Z</time>
      </trkpt>
      <trkpt lat="43.77571" lon="1.7841">
        <ele>174.683103</ele>
        <time>2026-08-28T19:22:01Z</time>
      </trkpt>
      <trkpt lat="43.77575" lon="1.78412">
        <ele>174.792215</ele>
        <time>2026-08-28T19:22:02Z</time>
      </trkpt>
      <trkpt lat="43.77578" lon="1.78414">
        <ele>174.734692</ele>
        <time>2026-08-28T19:22:03Z</time>
      </trkpt>
      <trkpt lat="43.77582" lon="1.78415">
        <ele>174.678312</ele>
        <time>2026-08-28T19:22:04Z</time>
      </trkpt>
      <trkpt lat="43.77586" lon="1.78417">
        <ele>174.623366</ele>
        <time>2026-08-28T19:22:05Z</time>
      </trkpt>
      <trkpt lat="43.77589" lon="1.78418">
        <ele>174.571606</ele>
        <time>2026-08-28T19:22:06Z</time>
      </trkpt>
      <trkpt lat="43.77592" lon="1.78419">
        <ele>174.517261</ele>
        <time>2026-08-28T19:22:07Z</time>
      </trkpt>
      <trkpt lat="43.77596" lon="1.78421">
        <ele>174.464641</ele>
        <time>2026-08-28T19:22:08Z</time>
      </trkpt>
      <trkpt lat="43.77599" lon="1.78422">
        <ele>174.412278</ele>
        <time>2026-08-28T19:22:09Z</time>
      </trkpt>
      <trkpt lat="43.77602" lon="1.78423">
        <ele>174.365448</ele>
        <time>2026-08-28T19:22:10Z</time>
      </trkpt>
      <trkpt lat="43.77605" lon="1.78424">
        <ele>174.318633</ele>
        <time>2026-08-28T19:22:11Z</time>
      </trkpt>
      <trkpt lat="43.77608" lon="1.78426">
        <ele>174.271817</ele>
        <time>2026-08-28T19:22:12Z</time>
      </trkpt>
      <trkpt lat="43.77612" lon="1.78428">
        <ele>174.213004</ele>
        <time>2026-08-28T19:22:13Z</time>
      </trkpt>
      <trkpt lat="43.77615" lon="1.7843">
        <ele>174.154191</ele>
        <time>2026-08-28T19:22:14Z</time>
      </trkpt>
      <trkpt lat="43.77619" lon="1.78431">
        <ele>174.096791</ele>
        <time>2026-08-28T19:22:15Z</time>
      </trkpt>
      <trkpt lat="43.77623" lon="1.78433">
        <ele>174.036202</ele>
        <time>2026-08-28T19:22:16Z</time>
      </trkpt>
      <trkpt lat="43.77627" lon="1.78435">
        <ele>173.975612</ele>
        <time>2026-08-28T19:22:17Z</time>
      </trkpt>
      <trkpt lat="43.7763" lon="1.78437">
        <ele>173.912458</ele>
        <time>2026-08-28T19:22:18Z</time>
      </trkpt>
      <trkpt lat="43.77634" lon="1.7844">
        <ele>173.849304</ele>
        <time>2026-08-28T19:22:19Z</time>
      </trkpt>
      <trkpt lat="43.77638" lon="1.78442">
        <ele>173.789738</ele>
        <time>2026-08-28T19:22:20Z</time>
      </trkpt>
      <trkpt lat="43.77642" lon="1.78444">
        <ele>173.725736</ele>
        <time>2026-08-28T19:22:21Z</time>
      </trkpt>
      <trkpt lat="43.77646" lon="1.78447">
        <ele>173.660823</ele>
        <time>2026-08-28T19:22:22Z</time>
      </trkpt>
      <trkpt lat="43.7765" lon="1.78449">
        <ele>173.595911</ele>
        <time>2026-08-28T19:22:23Z</time>
      </trkpt>
      <trkpt lat="43.77654" lon="1.78452">
        <ele>173.532347</ele>
        <time>2026-08-28T19:22:24Z</time>
      </trkpt>
      <trkpt lat="43.77658" lon="1.78454">
        <ele>173.466081</ele>
        <time>2026-08-28T19:22:25Z</time>
      </trkpt>
      <trkpt lat="43.77662" lon="1.78457">
        <ele>173.399347</ele>
        <time>2026-08-28T19:22:26Z</time>
      </trkpt>
      <trkpt lat="43.77666" lon="1.7846">
        <ele>173.33308</ele>
        <time>2026-08-28T19:22:27Z</time>
      </trkpt>
      <trkpt lat="43.7767" lon="1.78462">
        <ele>173.266814</ele>
        <time>2026-08-28T19:22:28Z</time>
      </trkpt>
      <trkpt lat="43.77673" lon="1.78465">
        <ele>173.200933</ele>
        <time>2026-08-28T19:22:29Z</time>
      </trkpt>
      <trkpt lat="43.77677" lon="1.78468">
        <ele>173.136483</ele>
        <time>2026-08-28T19:22:30Z</time>
      </trkpt>
      <trkpt lat="43.77681" lon="1.7847">
        <ele>173.0693</ele>
        <time>2026-08-28T19:22:31Z</time>
      </trkpt>
      <trkpt lat="43.77685" lon="1.78473">
        <ele>173.002395</ele>
        <time>2026-08-28T19:22:32Z</time>
      </trkpt>
      <trkpt lat="43.77689" lon="1.78476">
        <ele>172.93257</ele>
        <time>2026-08-28T19:22:33Z</time>
      </trkpt>
      <trkpt lat="43.77693" lon="1.7848">
        <ele>172.864128</ele>
        <time>2026-08-28T19:22:34Z</time>
      </trkpt>
      <trkpt lat="43.77697" lon="1.78484">
        <ele>172.794434</ele>
        <time>2026-08-28T19:22:35Z</time>
      </trkpt>
      <trkpt lat="43.77701" lon="1.78487">
        <ele>172.725993</ele>
        <time>2026-08-28T19:22:36Z</time>
      </trkpt>
      <trkpt lat="43.77704" lon="1.7849">
        <ele>172.659994</ele>
        <time>2026-08-28T19:22:37Z</time>
      </trkpt>
      <trkpt lat="43.77708" lon="1.78493">
        <ele>172.599535</ele>
        <time>2026-08-28T19:22:38Z</time>
      </trkpt>
      <trkpt lat="43.77711" lon="1.78496">
        <ele>172.538369</ele>
        <time>2026-08-28T19:22:39Z</time>
      </trkpt>
      <trkpt lat="43.77715" lon="1.78499">
        <ele>172.481602</ele>
        <time>2026-08-28T19:22:40Z</time>
      </trkpt>
      <trkpt lat="43.77718" lon="1.78502">
        <ele>172.424886</ele>
        <time>2026-08-28T19:22:41Z</time>
      </trkpt>
      <trkpt lat="43.77721" lon="1.78505">
        <ele>172.367543</ele>
        <time>2026-08-28T19:22:42Z</time>
      </trkpt>
      <trkpt lat="43.77724" lon="1.78508">
        <ele>172.310827</ele>
        <time>2026-08-28T19:22:43Z</time>
      </trkpt>
      <trkpt lat="43.77727" lon="1.78511">
        <ele>172.256476</ele>
        <time>2026-08-28T19:22:44Z</time>
      </trkpt>
      <trkpt lat="43.7773" lon="1.78513">
        <ele>172.204667</ele>
        <time>2026-08-28T19:22:45Z</time>
      </trkpt>
      <trkpt lat="43.77733" lon="1.78516">
        <ele>172.1535</ele>
        <time>2026-08-28T19:22:46Z</time>
      </trkpt>
      <trkpt lat="43.77736" lon="1.78519">
        <ele>172.08745</ele>
        <time>2026-08-28T19:22:47Z</time>
      </trkpt>
      <trkpt lat="43.77739" lon="1.78523">
        <ele>171.886017</ele>
        <time>2026-08-28T19:22:48Z</time>
      </trkpt>
      <trkpt lat="43.77741" lon="1.78526">
        <ele>171.698472</ele>
        <time>2026-08-28T19:22:49Z</time>
      </trkpt>
      <trkpt lat="43.77744" lon="1.7853">
        <ele>171.50851</ele>
        <time>2026-08-28T19:22:50Z</time>
      </trkpt>
      <trkpt lat="43.77747" lon="1.78533">
        <ele>171.312371</ele>
        <time>2026-08-28T19:22:51Z</time>
      </trkpt>
      <trkpt lat="43.7775" lon="1.78537">
        <ele>171.095272</ele>
        <time>2026-08-28T19:22:52Z</time>
      </trkpt>
      <trkpt lat="43.77753" lon="1.78541">
        <ele>170.895355</ele>
        <time>2026-08-28T19:22:53Z</time>
      </trkpt>
      <trkpt lat="43.77757" lon="1.78544">
        <ele>170.69442</ele>
        <time>2026-08-28T19:22:54Z</time>
      </trkpt>
      <trkpt lat="43.7776" lon="1.78547">
        <ele>170.495613</ele>
        <time>2026-08-28T19:22:55Z</time>
      </trkpt>
      <trkpt lat="43.77763" lon="1.7855">
        <ele>170.295584</ele>
        <time>2026-08-28T19:22:56Z</time>
      </trkpt>
      <trkpt lat="43.77767" lon="1.78552">
        <ele>170.095912</ele>
        <time>2026-08-28T19:22:57Z</time>
      </trkpt>
      <trkpt lat="43.77771" lon="1.78554">
        <ele>169.895876</ele>
        <time>2026-08-28T19:22:58Z</time>
      </trkpt>
      <trkpt lat="43.77775" lon="1.78556">
        <ele>169.686424</ele>
        <time>2026-08-28T19:22:59Z</time>
      </trkpt>
      <trkpt lat="43.77779" lon="1.78558">
        <ele>169.4746</ele>
        <time>2026-08-28T19:23:00Z</time>
      </trkpt>
      <trkpt lat="43.77783" lon="1.7856">
        <ele>169.255052</ele>
        <time>2026-08-28T19:23:01Z</time>
      </trkpt>
      <trkpt lat="43.77787" lon="1.78562">
        <ele>169.036604</ele>
        <time>2026-08-28T19:23:02Z</time>
      </trkpt>
      <trkpt lat="43.77791" lon="1.78564">
        <ele>168.815179</ele>
        <time>2026-08-28T19:23:03Z</time>
      </trkpt>
      <trkpt lat="43.77795" lon="1.78565">
        <ele>168.589996</ele>
        <time>2026-08-28T19:23:04Z</time>
      </trkpt>
      <trkpt lat="43.778" lon="1.78566">
        <ele>168.361007</ele>
        <time>2026-08-28T19:23:05Z</time>
      </trkpt>
      <trkpt lat="43.77805" lon="1.78567">
        <ele>168.115353</ele>
        <time>2026-08-28T19:23:06Z</time>
      </trkpt>
      <trkpt lat="43.7781" lon="1.78568">
        <ele>167.855935</ele>
        <time>2026-08-28T19:23:07Z</time>
      </trkpt>
      <trkpt lat="43.77815" lon="1.78569">
        <ele>167.569338</ele>
        <time>2026-08-28T19:23:08Z</time>
      </trkpt>
      <trkpt lat="43.77821" lon="1.78572">
        <ele>167.276645</ele>
        <time>2026-08-28T19:23:09Z</time>
      </trkpt>
      <trkpt lat="43.77826" lon="1.78574">
        <ele>166.990254</ele>
        <time>2026-08-28T19:23:10Z</time>
      </trkpt>
      <trkpt lat="43.77832" lon="1.78577">
        <ele>166.692544</ele>
        <time>2026-08-28T19:23:11Z</time>
      </trkpt>
      <trkpt lat="43.77837" lon="1.78579">
        <ele>166.436738</ele>
        <time>2026-08-28T19:23:12Z</time>
      </trkpt>
      <trkpt lat="43.77842" lon="1.78581">
        <ele>166.155904</ele>
        <time>2026-08-28T19:23:13Z</time>
      </trkpt>
      <trkpt lat="43.77848" lon="1.78584">
        <ele>165.854778</ele>
        <time>2026-08-28T19:23:14Z</time>
      </trkpt>
      <trkpt lat="43.77854" lon="1.78587">
        <ele>165.532252</ele>
        <time>2026-08-28T19:23:15Z</time>
      </trkpt>
      <trkpt lat="43.7786" lon="1.7859">
        <ele>165.199022</ele>
        <time>2026-08-28T19:23:16Z</time>
      </trkpt>
      <trkpt lat="43.77867" lon="1.78592">
        <ele>164.849552</ele>
        <time>2026-08-28T19:23:17Z</time>
      </trkpt>
      <trkpt lat="43.77873" lon="1.78594">
        <ele>164.50358</ele>
        <time>2026-08-28T19:23:18Z</time>
      </trkpt>
      <trkpt lat="43.7788" lon="1.78597">
        <ele>164.172328</ele>
        <time>2026-08-28T19:23:19Z</time>
      </trkpt>
      <trkpt lat="43.77886" lon="1.78598">
        <ele>163.841566</ele>
        <time>2026-08-28T19:23:20Z</time>
      </trkpt>
      <trkpt lat="43.77893" lon="1.78599">
        <ele>163.502173</ele>
        <time>2026-08-28T19:23:21Z</time>
      </trkpt>
      <trkpt lat="43.77899" lon="1.78599">
        <ele>163.179823</ele>
        <time>2026-08-28T19:23:22Z</time>
      </trkpt>
      <trkpt lat="43.77906" lon="1.786">
        <ele>162.867724</ele>
        <time>2026-08-28T19:23:23Z</time>
      </trkpt>
      <trkpt lat="43.77913" lon="1.78601">
        <ele>162.556901</ele>
        <time>2026-08-28T19:23:24Z</time>
      </trkpt>
      <trkpt lat="43.77919" lon="1.78601">
        <ele>162.242126</ele>
        <time>2026-08-28T19:23:25Z</time>
      </trkpt>
      <trkpt lat="43.77926" lon="1.78602">
        <ele>161.914372</ele>
        <time>2026-08-28T19:23:26Z</time>
      </trkpt>
      <trkpt lat="43.77934" lon="1.78602">
        <ele>161.563763</ele>
        <time>2026-08-28T19:23:27Z</time>
      </trkpt>
      <trkpt lat="43.77941" lon="1.78602">
        <ele>161.235856</ele>
        <time>2026-08-28T19:23:28Z</time>
      </trkpt>
      <trkpt lat="43.77948" lon="1.78601">
        <ele>160.940491</ele>
        <time>2026-08-28T19:23:29Z</time>
      </trkpt>
      <trkpt lat="43.77954" lon="1.78602">
        <ele>160.644994</ele>
        <time>2026-08-28T19:23:30Z</time>
      </trkpt>
      <trkpt lat="43.7796" lon="1.78602">
        <ele>160.368167</ele>
        <time>2026-08-28T19:23:31Z</time>
      </trkpt>
      <trkpt lat="43.77966" lon="1.78602">
        <ele>160.067896</ele>
        <time>2026-08-28T19:23:32Z</time>
      </trkpt>
      <trkpt lat="43.77974" lon="1.78603">
        <ele>159.731122</ele>
        <time>2026-08-28T19:23:33Z</time>
      </trkpt>
      <trkpt lat="43.77981" lon="1.78603">
        <ele>159.375574</ele>
        <time>2026-08-28T19:23:34Z</time>
      </trkpt>
      <trkpt lat="43.77988" lon="1.78603">
        <ele>159.052686</ele>
        <time>2026-08-28T19:23:35Z</time>
      </trkpt>
      <trkpt lat="43.77995" lon="1.78604">
        <ele>158.765766</ele>
        <time>2026-08-28T19:23:36Z</time>
      </trkpt>
      <trkpt lat="43.78002" lon="1.78604">
        <ele>158.437673</ele>
        <time>2026-08-28T19:23:37Z</time>
      </trkpt>
      <trkpt lat="43.78009" lon="1.78605">
        <ele>158.099912</ele>
        <time>2026-08-28T19:23:38Z</time>
      </trkpt>
      <trkpt lat="43.78017" lon="1.78606">
        <ele>157.744193</ele>
        <time>2026-08-28T19:23:39Z</time>
      </trkpt>
      <trkpt lat="43.78025" lon="1.78606">
        <ele>157.35669</ele>
        <time>2026-08-28T19:23:40Z</time>
      </trkpt>
      <trkpt lat="43.78034" lon="1.78607">
        <ele>156.939319</ele>
        <time>2026-08-28T19:23:41Z</time>
      </trkpt>
      <trkpt lat="43.78041" lon="1.78607">
        <ele>156.621043</ele>
        <time>2026-08-28T19:23:42Z</time>
      </trkpt>
      <trkpt lat="43.78048" lon="1.78607">
        <ele>156.28893</ele>
        <time>2026-08-28T19:23:43Z</time>
      </trkpt>
      <trkpt lat="43.78055" lon="1.78607">
        <ele>155.96143</ele>
        <time>2026-08-28T19:23:44Z</time>
      </trkpt>
      <trkpt lat="43.78063" lon="1.78608">
        <ele>155.585691</ele>
        <time>2026-08-28T19:23:45Z</time>
      </trkpt>
      <trkpt lat="43.78071" lon="1.7861">
        <ele>155.241797</ele>
        <time>2026-08-28T19:23:46Z</time>
      </trkpt>
      <trkpt lat="43.78077" lon="1.78613">
        <ele>154.948684</ele>
        <time>2026-08-28T19:23:47Z</time>
      </trkpt>
      <trkpt lat="43.78082" lon="1.78618">
        <ele>154.863896</ele>
        <time>2026-08-28T19:23:48Z</time>
      </trkpt>
      <trkpt lat="43.78087" lon="1.78623">
        <ele>155.225541</ele>
        <time>2026-08-28T19:23:49Z</time>
      </trkpt>
      <trkpt lat="43.78092" lon="1.78628">
        <ele>155.586847</ele>
        <time>2026-08-28T19:23:50Z</time>
      </trkpt>
      <trkpt lat="43.78097" lon="1.78632">
        <ele>155.898527</ele>
        <time>2026-08-28T19:23:51Z</time>
      </trkpt>
      <trkpt lat="43.78101" lon="1.78635">
        <ele>156.183608</ele>
        <time>2026-08-28T19:23:52Z</time>
      </trkpt>
      <trkpt lat="43.78106" lon="1.78637">
        <ele>156.458166</ele>
        <time>2026-08-28T19:23:53Z</time>
      </trkpt>
      <trkpt lat="43.7811" lon="1.78638">
        <ele>156.682033</ele>
        <time>2026-08-28T19:23:54Z</time>
      </trkpt>
      <trkpt lat="43.78113" lon="1.78638">
        <ele>156.866022</ele>
        <time>2026-08-28T19:23:55Z</time>
      </trkpt>
      <trkpt lat="43.78116" lon="1.78638">
        <ele>157.032593</ele>
        <time>2026-08-28T19:23:56Z</time>
      </trkpt>
      <trkpt lat="43.78118" lon="1.78638">
        <ele>157.173468</ele>
        <time>2026-08-28T19:23:57Z</time>
      </trkpt>
      <trkpt lat="43.7812" lon="1.78637">
        <ele>157.302259</ele>
        <time>2026-08-28T19:23:58Z</time>
      </trkpt>
      <trkpt lat="43.78123" lon="1.78637">
        <ele>157.441662</ele>
        <time>2026-08-28T19:23:59Z</time>
      </trkpt>
      <trkpt lat="43.78125" lon="1.78636">
        <ele>157.57403</ele>
        <time>2026-08-28T19:24:00Z</time>
      </trkpt>
      <trkpt lat="43.78127" lon="1.78636">
        <ele>157.700394</ele>
        <time>2026-08-28T19:24:01Z</time>
      </trkpt>
      <trkpt lat="43.78129" lon="1.78637">
        <ele>157.812327</ele>
        <time>2026-08-28T19:24:02Z</time>
      </trkpt>
      <trkpt lat="43.78131" lon="1.78637">
        <ele>157.922167</ele>
        <time>2026-08-28T19:24:03Z</time>
      </trkpt>
      <trkpt lat="43.78133" lon="1.78638">
        <ele>158.020602</ele>
        <time>2026-08-28T19:24:04Z</time>
      </trkpt>
      <trkpt lat="43.78135" lon="1.78638">
        <ele>158.130441</ele>
        <time>2026-08-28T19:24:05Z</time>
      </trkpt>
      <trkpt lat="43.78137" lon="1.78638">
        <ele>158.252831</ele>
        <time>2026-08-28T19:24:06Z</time>
      </trkpt>
      <trkpt lat="43.7814" lon="1.7864">
        <ele>158.422453</ele>
        <time>2026-08-28T19:24:07Z</time>
      </trkpt>
      <trkpt lat="43.78142" lon="1.78641">
        <ele>158.585325</ele>
        <time>2026-08-28T19:24:08Z</time>
      </trkpt>
      <trkpt lat="43.78145" lon="1.78642">
        <ele>158.759171</ele>
        <time>2026-08-28T19:24:09Z</time>
      </trkpt>
      <trkpt lat="43.78148" lon="1.78643">
        <ele>158.912553</ele>
        <time>2026-08-28T19:24:10Z</time>
      </trkpt>
      <trkpt lat="43.7815" lon="1.78644">
        <ele>159.052315</ele>
        <time>2026-08-28T19:24:11Z</time>
      </trkpt>
      <trkpt lat="43.78152" lon="1.78646">
        <ele>159.161909</ele>
        <time>2026-08-28T19:24:12Z</time>
      </trkpt>
      <trkpt lat="43.78154" lon="1.78647">
        <ele>159.271829</ele>
        <time>2026-08-28T19:24:13Z</time>
      </trkpt>
      <trkpt lat="43.78155" lon="1.78648">
        <ele>159.390111</ele>
        <time>2026-08-28T19:24:14Z</time>
      </trkpt>
      <trkpt lat="43.78157" lon="1.78649">
        <ele>159.515303</ele>
        <time>2026-08-28T19:24:15Z</time>
      </trkpt>
      <trkpt lat="43.78159" lon="1.7865">
        <ele>159.640919</ele>
        <time>2026-08-28T19:24:16Z</time>
      </trkpt>
      <trkpt lat="43.78161" lon="1.78652">
        <ele>159.778585</ele>
        <time>2026-08-28T19:24:17Z</time>
      </trkpt>
      <trkpt lat="43.78163" lon="1.78654">
        <ele>159.908507</ele>
        <time>2026-08-28T19:24:18Z</time>
      </trkpt>
      <trkpt lat="43.78165" lon="1.78656">
        <ele>160.047808</ele>
        <time>2026-08-28T19:24:19Z</time>
      </trkpt>
      <trkpt lat="43.78167" lon="1.78657">
        <ele>160.18752</ele>
        <time>2026-08-28T19:24:20Z</time>
      </trkpt>
      <trkpt lat="43.78169" lon="1.78659">
        <ele>160.319739</ele>
        <time>2026-08-28T19:24:21Z</time>
      </trkpt>
      <trkpt lat="43.78171" lon="1.78661">
        <ele>160.445209</ele>
        <time>2026-08-28T19:24:22Z</time>
      </trkpt>
      <trkpt lat="43.78173" lon="1.78662">
        <ele>160.578204</ele>
        <time>2026-08-28T19:24:23Z</time>
      </trkpt>
      <trkpt lat="43.78175" lon="1.78664">
        <ele>160.709408</ele>
        <time>2026-08-28T19:24:24Z</time>
      </trkpt>
      <trkpt lat="43.78177" lon="1.78667">
        <ele>160.851652</ele>
        <time>2026-08-28T19:24:25Z</time>
      </trkpt>
      <trkpt lat="43.78178" lon="1.78668">
        <ele>160.97456</ele>
        <time>2026-08-28T19:24:26Z</time>
      </trkpt>
      <trkpt lat="43.7818" lon="1.7867">
        <ele>161.107104</ele>
        <time>2026-08-28T19:24:27Z</time>
      </trkpt>
      <trkpt lat="43.78182" lon="1.78672">
        <ele>161.237027</ele>
        <time>2026-08-28T19:24:28Z</time>
      </trkpt>
      <trkpt lat="43.78184" lon="1.78674">
        <ele>161.364546</ele>
        <time>2026-08-28T19:24:29Z</time>
      </trkpt>
      <trkpt lat="43.78185" lon="1.78676">
        <ele>161.473291</ele>
        <time>2026-08-28T19:24:30Z</time>
      </trkpt>
      <trkpt lat="43.78187" lon="1.78677">
        <ele>161.579838</ele>
        <time>2026-08-28T19:24:31Z</time>
      </trkpt>
      <trkpt lat="43.78189" lon="1.78679">
        <ele>161.714621</ele>
        <time>2026-08-28T19:24:32Z</time>
      </trkpt>
      <trkpt lat="43.78191" lon="1.7868">
        <ele>161.85647</ele>
        <time>2026-08-28T19:24:33Z</time>
      </trkpt>
      <trkpt lat="43.78193" lon="1.78682">
        <ele>161.975045</ele>
        <time>2026-08-28T19:24:34Z</time>
      </trkpt>
      <trkpt lat="43.78195" lon="1.78683">
        <ele>162.122879</ele>
        <time>2026-08-28T19:24:35Z</time>
      </trkpt>
      <trkpt lat="43.78197" lon="1.78685">
        <ele>162.253361</ele>
        <time>2026-08-28T19:24:36Z</time>
      </trkpt>
      <trkpt lat="43.78199" lon="1.78686">
        <ele>162.403102</ele>
        <time>2026-08-28T19:24:37Z</time>
      </trkpt>
      <trkpt lat="43.78202" lon="1.78688">
        <ele>162.554339</ele>
        <time>2026-08-28T19:24:38Z</time>
      </trkpt>
      <trkpt lat="43.78203" lon="1.78691">
        <ele>162.69219</ele>
        <time>2026-08-28T19:24:39Z</time>
      </trkpt>
      <trkpt lat="43.78205" lon="1.78694">
        <ele>162.846861</ele>
        <time>2026-08-28T19:24:40Z</time>
      </trkpt>
      <trkpt lat="43.78206" lon="1.78697">
        <ele>162.986393</ele>
        <time>2026-08-28T19:24:41Z</time>
      </trkpt>
      <trkpt lat="43.78207" lon="1.787">
        <ele>163.111361</ele>
        <time>2026-08-28T19:24:42Z</time>
      </trkpt>
      <trkpt lat="43.78207" lon="1.78703">
        <ele>163.23285</ele>
        <time>2026-08-28T19:24:43Z</time>
      </trkpt>
      <trkpt lat="43.78208" lon="1.78705">
        <ele>163.348441</ele>
        <time>2026-08-28T19:24:44Z</time>
      </trkpt>
      <trkpt lat="43.78208" lon="1.78708">
        <ele>163.466806</ele>
        <time>2026-08-28T19:24:45Z</time>
      </trkpt>
      <trkpt lat="43.78208" lon="1.78711">
        <ele>163.588295</ele>
        <time>2026-08-28T19:24:46Z</time>
      </trkpt>
      <trkpt lat="43.78208" lon="1.78714">
        <ele>163.700409</ele>
        <time>2026-08-28T19:24:47Z</time>
      </trkpt>
      <trkpt lat="43.78208" lon="1.78717">
        <ele>163.820669</ele>
        <time>2026-08-28T19:24:48Z</time>
      </trkpt>
      <trkpt lat="43.78208" lon="1.78719">
        <ele>163.912082</ele>
        <time>2026-08-28T19:24:49Z</time>
      </trkpt>
      <trkpt lat="43.78209" lon="1.78721">
        <ele>164.002147</ele>
        <time>2026-08-28T19:24:50Z</time>
      </trkpt>
      <trkpt lat="43.78209" lon="1.78723">
        <ele>164.105654</ele>
        <time>2026-08-28T19:24:51Z</time>
      </trkpt>
      <trkpt lat="43.7821" lon="1.78726">
        <ele>164.230622</ele>
        <time>2026-08-28T19:24:52Z</time>
      </trkpt>
      <trkpt lat="43.78212" lon="1.78729">
        <ele>164.370154</ele>
        <time>2026-08-28T19:24:53Z</time>
      </trkpt>
      <trkpt lat="43.78213" lon="1.78732">
        <ele>164.499697</ele>
        <time>2026-08-28T19:24:54Z</time>
      </trkpt>
      <trkpt lat="43.78213" lon="1.78734">
        <ele>164.623021</ele>
        <time>2026-08-28T19:24:55Z</time>
      </trkpt>
      <trkpt lat="43.78215" lon="1.78737">
        <ele>164.750785</ele>
        <time>2026-08-28T19:24:56Z</time>
      </trkpt>
      <trkpt lat="43.78216" lon="1.7874">
        <ele>164.880328</ele>
        <time>2026-08-28T19:24:57Z</time>
      </trkpt>
      <trkpt lat="43.78217" lon="1.78743">
        <ele>165.042643</ele>
        <time>2026-08-28T19:24:58Z</time>
      </trkpt>
      <trkpt lat="43.78219" lon="1.78746">
        <ele>165.214525</ele>
        <time>2026-08-28T19:24:59Z</time>
      </trkpt>
      <trkpt lat="43.7822" lon="1.78749">
        <ele>165.395123</ele>
        <time>2026-08-28T19:25:00Z</time>
      </trkpt>
      <trkpt lat="43.78222" lon="1.78751">
        <ele>165.579892</ele>
        <time>2026-08-28T19:25:01Z</time>
      </trkpt>
      <trkpt lat="43.78224" lon="1.78753">
        <ele>165.737311</ele>
        <time>2026-08-28T19:25:02Z</time>
      </trkpt>
      <trkpt lat="43.78226" lon="1.78755">
        <ele>165.89122</ele>
        <time>2026-08-28T19:25:03Z</time>
      </trkpt>
      <trkpt lat="43.78227" lon="1.78757">
        <ele>166.055547</ele>
        <time>2026-08-28T19:25:04Z</time>
      </trkpt>
      <trkpt lat="43.78229" lon="1.7876">
        <ele>166.214597</ele>
        <time>2026-08-28T19:25:05Z</time>
      </trkpt>
      <trkpt lat="43.78231" lon="1.78761">
        <ele>166.378225</ele>
        <time>2026-08-28T19:25:06Z</time>
      </trkpt>
      <trkpt lat="43.78233" lon="1.78763">
        <ele>166.517708</ele>
        <time>2026-08-28T19:25:07Z</time>
      </trkpt>
      <trkpt lat="43.78235" lon="1.78764">
        <ele>166.675646</ele>
        <time>2026-08-28T19:25:08Z</time>
      </trkpt>
      <trkpt lat="43.78237" lon="1.78767">
        <ele>166.86511</ele>
        <time>2026-08-28T19:25:09Z</time>
      </trkpt>
      <trkpt lat="43.78239" lon="1.78768">
        <ele>167.028738</ele>
        <time>2026-08-28T19:25:10Z</time>
      </trkpt>
      <trkpt lat="43.78241" lon="1.78771">
        <ele>167.196357</ele>
        <time>2026-08-28T19:25:11Z</time>
      </trkpt>
      <trkpt lat="43.78242" lon="1.78773">
        <ele>167.363976</ele>
        <time>2026-08-28T19:25:12Z</time>
      </trkpt>
      <trkpt lat="43.78244" lon="1.78775">
        <ele>167.524705</ele>
        <time>2026-08-28T19:25:13Z</time>
      </trkpt>
      <trkpt lat="43.78246" lon="1.78777">
        <ele>167.680445</ele>
        <time>2026-08-28T19:25:14Z</time>
      </trkpt>
      <trkpt lat="43.78248" lon="1.78779">
        <ele>167.827601</ele>
        <time>2026-08-28T19:25:15Z</time>
      </trkpt>
      <trkpt lat="43.78249" lon="1.7878">
        <ele>167.966177</ele>
        <time>2026-08-28T19:25:16Z</time>
      </trkpt>
      <trkpt lat="43.7825" lon="1.78782">
        <ele>168.096177</ele>
        <time>2026-08-28T19:25:17Z</time>
      </trkpt>
      <trkpt lat="43.78252" lon="1.78784">
        <ele>168.233969</ele>
        <time>2026-08-28T19:25:18Z</time>
      </trkpt>
      <trkpt lat="43.78254" lon="1.78785">
        <ele>168.356534</ele>
        <time>2026-08-28T19:25:19Z</time>
      </trkpt>
      <trkpt lat="43.78255" lon="1.78786">
        <ele>168.471491</ele>
        <time>2026-08-28T19:25:20Z</time>
      </trkpt>
      <trkpt lat="43.78256" lon="1.78787">
        <ele>168.560697</ele>
        <time>2026-08-28T19:25:21Z</time>
      </trkpt>
      <trkpt lat="43.78257" lon="1.78787">
        <ele>168.63679</ele>
        <time>2026-08-28T19:25:22Z</time>
      </trkpt>
      <trkpt lat="43.78258" lon="1.78788">
        <ele>168.738268</ele>
        <time>2026-08-28T19:25:23Z</time>
      </trkpt>
      <trkpt lat="43.7826" lon="1.7879">
        <ele>168.861817</ele>
        <time>2026-08-28T19:25:24Z</time>
      </trkpt>
      <trkpt lat="43.78261" lon="1.78791">
        <ele>168.978054</ele>
        <time>2026-08-28T19:25:25Z</time>
      </trkpt>
      <trkpt lat="43.78263" lon="1.78792">
        <ele>169.11128</ele>
        <time>2026-08-28T19:25:26Z</time>
      </trkpt>
      <trkpt lat="43.78265" lon="1.78793">
        <ele>169.261535</ele>
        <time>2026-08-28T19:25:27Z</time>
      </trkpt>
      <trkpt lat="43.78267" lon="1.78794">
        <ele>169.413722</ele>
        <time>2026-08-28T19:25:28Z</time>
      </trkpt>
      <trkpt lat="43.78269" lon="1.78795">
        <ele>169.532231</ele>
        <time>2026-08-28T19:25:29Z</time>
      </trkpt>
      <trkpt lat="43.7827" lon="1.78796">
        <ele>169.64</ele>
        <time>2026-08-28T19:25:30Z</time>
      </trkpt>
      <trkpt lat="43.78271" lon="1.78797">
        <ele>169.740951</ele>
        <time>2026-08-28T19:25:31Z</time>
      </trkpt>
      <trkpt lat="43.78273" lon="1.78797">
        <ele>169.825344</ele>
        <time>2026-08-28T19:25:32Z</time>
      </trkpt>
      <trkpt lat="43.78274" lon="1.78797">
        <ele>169.931166</ele>
        <time>2026-08-28T19:25:33Z</time>
      </trkpt>
      <trkpt lat="43.78276" lon="1.78797">
        <ele>170.036024</ele>
        <time>2026-08-28T19:25:34Z</time>
      </trkpt>
      <trkpt lat="43.78278" lon="1.78797">
        <ele>170.176035</ele>
        <time>2026-08-28T19:25:35Z</time>
      </trkpt>
      <trkpt lat="43.7828" lon="1.78798">
        <ele>170.322868</ele>
        <time>2026-08-28T19:25:36Z</time>
      </trkpt>
      <trkpt lat="43.78282" lon="1.78799">
        <ele>170.469701</ele>
        <time>2026-08-28T19:25:37Z</time>
      </trkpt>
      <trkpt lat="43.78284" lon="1.788">
        <ele>170.628319</ele>
        <time>2026-08-28T19:25:38Z</time>
      </trkpt>
      <trkpt lat="43.78286" lon="1.78801">
        <ele>170.763735</ele>
        <time>2026-08-28T19:25:39Z</time>
      </trkpt>
      <trkpt lat="43.78287" lon="1.78803">
        <ele>170.898638</ele>
        <time>2026-08-28T19:25:40Z</time>
      </trkpt>
      <trkpt lat="43.78289" lon="1.78804">
        <ele>171.030781</ele>
        <time>2026-08-28T19:25:41Z</time>
      </trkpt>
      <trkpt lat="43.7829" lon="1.78806">
        <ele>171.171521</ele>
        <time>2026-08-28T19:25:42Z</time>
      </trkpt>
      <trkpt lat="43.78292" lon="1.78807">
        <ele>171.309617</ele>
        <time>2026-08-28T19:25:43Z</time>
      </trkpt>
      <trkpt lat="43.78293" lon="1.78809">
        <ele>171.434451</ele>
        <time>2026-08-28T19:25:44Z</time>
      </trkpt>
      <trkpt lat="43.78295" lon="1.78811">
        <ele>171.577765</ele>
        <time>2026-08-28T19:25:45Z</time>
      </trkpt>
      <trkpt lat="43.78295" lon="1.78813">
        <ele>171.685296</ele>
        <time>2026-08-28T19:25:46Z</time>
      </trkpt>
      <trkpt lat="43.78296" lon="1.78815">
        <ele>171.796174</ele>
        <time>2026-08-28T19:25:47Z</time>
      </trkpt>
      <trkpt lat="43.78297" lon="1.78817">
        <ele>171.923431</ele>
        <time>2026-08-28T19:25:48Z</time>
      </trkpt>
      <trkpt lat="43.78299" lon="1.78819">
        <ele>172.051778</ele>
        <time>2026-08-28T19:25:49Z</time>
      </trkpt>
      <trkpt lat="43.783" lon="1.7882">
        <ele>172.183972</ele>
        <time>2026-08-28T19:25:50Z</time>
      </trkpt>
      <trkpt lat="43.78302" lon="1.78822">
        <ele>172.339711</ele>
        <time>2026-08-28T19:25:51Z</time>
      </trkpt>
      <trkpt lat="43.78304" lon="1.78824">
        <ele>172.490196</ele>
        <time>2026-08-28T19:25:52Z</time>
      </trkpt>
      <trkpt lat="43.78305" lon="1.78826">
        <ele>172.627052</ele>
        <time>2026-08-28T19:25:53Z</time>
      </trkpt>
      <trkpt lat="43.78306" lon="1.78828">
        <ele>172.758931</ele>
        <time>2026-08-28T19:25:54Z</time>
      </trkpt>
      <trkpt lat="43.78307" lon="1.78831">
        <ele>172.899756</ele>
        <time>2026-08-28T19:25:55Z</time>
      </trkpt>
      <trkpt lat="43.78308" lon="1.78833">
        <ele>173.05167</ele>
        <time>2026-08-28T19:25:56Z</time>
      </trkpt>
      <trkpt lat="43.78309" lon="1.78836">
        <ele>173.219444</ele>
        <time>2026-08-28T19:25:57Z</time>
      </trkpt>
      <trkpt lat="43.78311" lon="1.78839">
        <ele>173.401034</ele>
        <time>2026-08-28T19:25:58Z</time>
      </trkpt>
      <trkpt lat="43.78313" lon="1.78841">
        <ele>173.596039</ele>
        <time>2026-08-28T19:25:59Z</time>
      </trkpt>
      <trkpt lat="43.78315" lon="1.78844">
        <ele>173.784146</ele>
        <time>2026-08-28T19:26:00Z</time>
      </trkpt>
      <trkpt lat="43.78317" lon="1.78846">
        <ele>173.965735</ele>
        <time>2026-08-28T19:26:01Z</time>
      </trkpt>
      <trkpt lat="43.78319" lon="1.78849">
        <ele>174.157987</ele>
        <time>2026-08-28T19:26:02Z</time>
      </trkpt>
      <trkpt lat="43.7832" lon="1.78853">
        <ele>174.358266</ele>
        <time>2026-08-28T19:26:03Z</time>
      </trkpt>
      <trkpt lat="43.78322" lon="1.78855">
        <ele>174.547261</ele>
        <time>2026-08-28T19:26:04Z</time>
      </trkpt>
      <trkpt lat="43.78324" lon="1.78858">
        <ele>174.718256</ele>
        <time>2026-08-28T19:26:05Z</time>
      </trkpt>
      <trkpt lat="43.78326" lon="1.78861">
        <ele>174.921783</ele>
        <time>2026-08-28T19:26:06Z</time>
      </trkpt>
      <trkpt lat="43.78328" lon="1.78863">
        <ele>175.144165</ele>
        <time>2026-08-28T19:26:07Z</time>
      </trkpt>
      <trkpt lat="43.78331" lon="1.78866">
        <ele>175.360053</ele>
        <time>2026-08-28T19:26:08Z</time>
      </trkpt>
      <trkpt lat="43.78333" lon="1.78868">
        <ele>175.56961</ele>
        <time>2026-08-28T19:26:09Z</time>
      </trkpt>
      <trkpt lat="43.78335" lon="1.78871">
        <ele>175.759709</ele>
        <time>2026-08-28T19:26:10Z</time>
      </trkpt>
      <trkpt lat="43.78338" lon="1.78873">
        <ele>175.929546</ele>
        <time>2026-08-28T19:26:11Z</time>
      </trkpt>
      <trkpt lat="43.78339" lon="1.78875">
        <ele>176.10054</ele>
        <time>2026-08-28T19:26:12Z</time>
      </trkpt>
      <trkpt lat="43.78341" lon="1.78878">
        <ele>176.295545</ele>
        <time>2026-08-28T19:26:13Z</time>
      </trkpt>
      <trkpt lat="43.78344" lon="1.78881">
        <ele>176.521974</ele>
        <time>2026-08-28T19:26:14Z</time>
      </trkpt>
      <trkpt lat="43.78346" lon="1.78884">
        <ele>176.74646</ele>
        <time>2026-08-28T19:26:15Z</time>
      </trkpt>
      <trkpt lat="43.78348" lon="1.78887">
        <ele>176.970539</ele>
        <time>2026-08-28T19:26:16Z</time>
      </trkpt>
      <trkpt lat="43.78351" lon="1.7889">
        <ele>177.200698</ele>
        <time>2026-08-28T19:26:17Z</time>
      </trkpt>
      <trkpt lat="43.78353" lon="1.78893">
        <ele>177.436978</ele>
        <time>2026-08-28T19:26:18Z</time>
      </trkpt>
      <trkpt lat="43.78355" lon="1.78896">
        <ele>177.638045</ele>
        <time>2026-08-28T19:26:19Z</time>
      </trkpt>
      <trkpt lat="43.78358" lon="1.78899">
        <ele>177.63309</ele>
        <time>2026-08-28T19:26:20Z</time>
      </trkpt>
      <trkpt lat="43.7836" lon="1.78903">
        <ele>177.628181</ele>
        <time>2026-08-28T19:26:21Z</time>
      </trkpt>
      <trkpt lat="43.78362" lon="1.78906">
        <ele>177.62318</ele>
        <time>2026-08-28T19:26:22Z</time>
      </trkpt>
      <trkpt lat="43.78365" lon="1.7891">
        <ele>177.618318</ele>
        <time>2026-08-28T19:26:23Z</time>
      </trkpt>
      <trkpt lat="43.78367" lon="1.78912">
        <ele>177.613558</ele>
        <time>2026-08-28T19:26:24Z</time>
      </trkpt>
      <trkpt lat="43.7837" lon="1.78915">
        <ele>177.608733</ele>
        <time>2026-08-28T19:26:25Z</time>
      </trkpt>
      <trkpt lat="43.78372" lon="1.78919">
        <ele>177.604143</ele>
        <time>2026-08-28T19:26:26Z</time>
      </trkpt>
      <trkpt lat="43.78375" lon="1.78922">
        <ele>177.599185</ele>
        <time>2026-08-28T19:26:27Z</time>
      </trkpt>
      <trkpt lat="43.78377" lon="1.78925">
        <ele>177.594116</ele>
        <time>2026-08-28T19:26:28Z</time>
      </trkpt>
      <trkpt lat="43.7838" lon="1.78928">
        <ele>177.588768</ele>
        <time>2026-08-28T19:26:29Z</time>
      </trkpt>
      <trkpt lat="43.78383" lon="1.78931">
        <ele>177.583242</ele>
        <time>2026-08-28T19:26:30Z</time>
      </trkpt>
      <trkpt lat="43.78386" lon="1.78934">
        <ele>177.57853</ele>
        <time>2026-08-28T19:26:31Z</time>
      </trkpt>
      <trkpt lat="43.78388" lon="1.78938">
        <ele>177.573569</ele>
        <time>2026-08-28T19:26:32Z</time>
      </trkpt>
      <trkpt lat="43.78391" lon="1.78941">
        <ele>177.568144</ele>
        <time>2026-08-28T19:26:33Z</time>
      </trkpt>
      <trkpt lat="43.78394" lon="1.78944">
        <ele>177.562298</ele>
        <time>2026-08-28T19:26:34Z</time>
      </trkpt>
      <trkpt lat="43.78397" lon="1.78948">
        <ele>177.556953</ele>
        <time>2026-08-28T19:26:35Z</time>
      </trkpt>
      <trkpt lat="43.78399" lon="1.78952">
        <ele>177.552031</ele>
        <time>2026-08-28T19:26:36Z</time>
      </trkpt>
      <trkpt lat="43.78402" lon="1.78955">
        <ele>177.546968</ele>
        <time>2026-08-28T19:26:37Z</time>
      </trkpt>
      <trkpt lat="43.78404" lon="1.78958">
        <ele>177.541763</ele>
        <time>2026-08-28T19:26:38Z</time>
      </trkpt>
      <trkpt lat="43.78407" lon="1.78962">
        <ele>177.536573</ele>
        <time>2026-08-28T19:26:39Z</time>
      </trkpt>
      <trkpt lat="43.78409" lon="1.78966">
        <ele>177.530957</ele>
        <time>2026-08-28T19:26:40Z</time>
      </trkpt>
      <trkpt lat="43.78412" lon="1.7897">
        <ele>177.524992</ele>
        <time>2026-08-28T19:26:41Z</time>
      </trkpt>
      <trkpt lat="43.78415" lon="1.78974">
        <ele>177.519704</ele>
        <time>2026-08-28T19:26:42Z</time>
      </trkpt>
      <trkpt lat="43.78417" lon="1.78977">
        <ele>177.514391</ele>
        <time>2026-08-28T19:26:43Z</time>
      </trkpt>
      <trkpt lat="43.7842" lon="1.78982">
        <ele>177.508458</ele>
        <time>2026-08-28T19:26:44Z</time>
      </trkpt>
      <trkpt lat="43.78422" lon="1.78987">
        <ele>177.502026</ele>
        <time>2026-08-28T19:26:45Z</time>
      </trkpt>
      <trkpt lat="43.78425" lon="1.78991">
        <ele>177.496158</ele>
        <time>2026-08-28T19:26:46Z</time>
      </trkpt>
      <trkpt lat="43.78428" lon="1.78995">
        <ele>177.490105</ele>
        <time>2026-08-28T19:26:47Z</time>
      </trkpt>
      <trkpt lat="43.78431" lon="1.78999">
        <ele>177.483811</ele>
        <time>2026-08-28T19:26:48Z</time>
      </trkpt>
      <trkpt lat="43.78434" lon="1.79004">
        <ele>177.477208</ele>
        <time>2026-08-28T19:26:49Z</time>
      </trkpt>
      <trkpt lat="43.78437" lon="1.79009">
        <ele>177.470817</ele>
        <time>2026-08-28T19:26:50Z</time>
      </trkpt>
      <trkpt lat="43.7844" lon="1.79013">
        <ele>177.464681</ele>
        <time>2026-08-28T19:26:51Z</time>
      </trkpt>
      <trkpt lat="43.78444" lon="1.79016">
        <ele>177.458918</ele>
        <time>2026-08-28T19:26:52Z</time>
      </trkpt>
      <trkpt lat="43.78446" lon="1.79019">
        <ele>177.453623</ele>
        <time>2026-08-28T19:26:53Z</time>
      </trkpt>
      <trkpt lat="43.78449" lon="1.79022">
        <ele>177.447995</ele>
        <time>2026-08-28T19:26:54Z</time>
      </trkpt>
      <trkpt lat="43.78452" lon="1.79026">
        <ele>177.442329</ele>
        <time>2026-08-28T19:26:55Z</time>
      </trkpt>
      <trkpt lat="43.78455" lon="1.7903">
        <ele>177.436631</ele>
        <time>2026-08-28T19:26:56Z</time>
      </trkpt>
      <trkpt lat="43.78458" lon="1.79034">
        <ele>177.430817</ele>
        <time>2026-08-28T19:26:57Z</time>
      </trkpt>
      <trkpt lat="43.78461" lon="1.79038">
        <ele>177.424517</ele>
        <time>2026-08-28T19:26:58Z</time>
      </trkpt>
      <trkpt lat="43.78464" lon="1.79042">
        <ele>177.418357</ele>
        <time>2026-08-28T19:26:59Z</time>
      </trkpt>
      <trkpt lat="43.78467" lon="1.79045">
        <ele>177.412464</ele>
        <time>2026-08-28T19:27:00Z</time>
      </trkpt>
      <trkpt lat="43.7847" lon="1.79049">
        <ele>177.406798</ele>
        <time>2026-08-28T19:27:01Z</time>
      </trkpt>
      <trkpt lat="43.78473" lon="1.79053">
        <ele>177.401382</ele>
        <time>2026-08-28T19:27:02Z</time>
      </trkpt>
      <trkpt lat="43.78475" lon="1.79055">
        <ele>177.396913</ele>
        <time>2026-08-28T19:27:03Z</time>
      </trkpt>
      <trkpt lat="43.78478" lon="1.79058">
        <ele>177.392266</ele>
        <time>2026-08-28T19:27:04Z</time>
      </trkpt>
      <trkpt lat="43.7848" lon="1.79062">
        <ele>177.387026</ele>
        <time>2026-08-28T19:27:05Z</time>
      </trkpt>
      <trkpt lat="43.78483" lon="1.79066">
        <ele>177.381772</ele>
        <time>2026-08-28T19:27:06Z</time>
      </trkpt>
      <trkpt lat="43.78485" lon="1.7907">
        <ele>177.389146</ele>
        <time>2026-08-28T19:27:07Z</time>
      </trkpt>
      <trkpt lat="43.78488" lon="1.79074">
        <ele>177.412788</ele>
        <time>2026-08-28T19:27:08Z</time>
      </trkpt>
      <trkpt lat="43.7849" lon="1.79078">
        <ele>177.434257</ele>
        <time>2026-08-28T19:27:09Z</time>
      </trkpt>
      <trkpt lat="43.78492" lon="1.79081">
        <ele>177.454313</ele>
        <time>2026-08-28T19:27:10Z</time>
      </trkpt>
      <trkpt lat="43.78495" lon="1.79083">
        <ele>177.472451</ele>
        <time>2026-08-28T19:27:11Z</time>
      </trkpt>
      <trkpt lat="43.78497" lon="1.79086">
        <ele>177.492119</ele>
        <time>2026-08-28T19:27:12Z</time>
      </trkpt>
      <trkpt lat="43.785" lon="1.79089">
        <ele>177.513402</ele>
        <time>2026-08-28T19:27:13Z</time>
      </trkpt>
      <trkpt lat="43.78503" lon="1.79093">
        <ele>177.538323</ele>
        <time>2026-08-28T19:27:14Z</time>
      </trkpt>
      <trkpt lat="43.78505" lon="1.79096">
        <ele>177.56113</ele>
        <time>2026-08-28T19:27:15Z</time>
      </trkpt>
      <trkpt lat="43.78508" lon="1.791">
        <ele>177.582947</ele>
        <time>2026-08-28T19:27:16Z</time>
      </trkpt>
      <trkpt lat="43.7851" lon="1.79104">
        <ele>177.605645</ele>
        <time>2026-08-28T19:27:17Z</time>
      </trkpt>
      <trkpt lat="43.78513" lon="1.79107">
        <ele>177.626763</ele>
        <time>2026-08-28T19:27:18Z</time>
      </trkpt>
      <trkpt lat="43.78515" lon="1.7911">
        <ele>177.647473</ele>
        <time>2026-08-28T19:27:19Z</time>
      </trkpt>
      <trkpt lat="43.78518" lon="1.79113">
        <ele>177.667368</ele>
        <time>2026-08-28T19:27:20Z</time>
      </trkpt>
      <trkpt lat="43.7852" lon="1.79115">
        <ele>177.68655</ele>
        <time>2026-08-28T19:27:21Z</time>
      </trkpt>
      <trkpt lat="43.78523" lon="1.79118">
        <ele>177.707367</ele>
        <time>2026-08-28T19:27:22Z</time>
      </trkpt>
      <trkpt lat="43.78525" lon="1.79122">
        <ele>177.728945</ele>
        <time>2026-08-28T19:27:23Z</time>
      </trkpt>
      <trkpt lat="43.78528" lon="1.79125">
        <ele>177.751671</ele>
        <time>2026-08-28T19:27:24Z</time>
      </trkpt>
      <trkpt lat="43.78531" lon="1.79128">
        <ele>177.77507</ele>
        <time>2026-08-28T19:27:25Z</time>
      </trkpt>
      <trkpt lat="43.78534" lon="1.79132">
        <ele>177.79953</ele>
        <time>2026-08-28T19:27:26Z</time>
      </trkpt>
      <trkpt lat="43.78536" lon="1.79136">
        <ele>177.824609</ele>
        <time>2026-08-28T19:27:27Z</time>
      </trkpt>
      <trkpt lat="43.78539" lon="1.79142">
        <ele>177.856216</ele>
        <time>2026-08-28T19:27:28Z</time>
      </trkpt>
      <trkpt lat="43.78542" lon="1.79146">
        <ele>177.880944</ele>
        <time>2026-08-28T19:27:29Z</time>
      </trkpt>
      <trkpt lat="43.78545" lon="1.7915">
        <ele>177.903751</ele>
        <time>2026-08-28T19:27:30Z</time>
      </trkpt>
      <trkpt lat="43.78547" lon="1.79153">
        <ele>177.925629</ele>
        <time>2026-08-28T19:27:31Z</time>
      </trkpt>
      <trkpt lat="43.7855" lon="1.79156">
        <ele>177.945988</ele>
        <time>2026-08-28T19:27:32Z</time>
      </trkpt>
      <trkpt lat="43.78552" lon="1.7916">
        <ele>177.968361</ele>
        <time>2026-08-28T19:27:33Z</time>
      </trkpt>
      <trkpt lat="43.78554" lon="1.79163">
        <ele>177.990308</ele>
        <time>2026-08-28T19:27:34Z</time>
      </trkpt>
      <trkpt lat="43.78557" lon="1.79167">
        <ele>178.011506</ele>
        <time>2026-08-28T19:27:35Z</time>
      </trkpt>
      <trkpt lat="43.78559" lon="1.79171">
        <ele>178.034533</ele>
        <time>2026-08-28T19:27:36Z</time>
      </trkpt>
      <trkpt lat="43.78562" lon="1.79174">
        <ele>178.057982</ele>
        <time>2026-08-28T19:27:37Z</time>
      </trkpt>
      <trkpt lat="43.78565" lon="1.79178">
        <ele>178.081749</ele>
        <time>2026-08-28T19:27:38Z</time>
      </trkpt>
      <trkpt lat="43.78568" lon="1.79181">
        <ele>178.107534</ele>
        <time>2026-08-28T19:27:39Z</time>
      </trkpt>
      <trkpt lat="43.78571" lon="1.79185">
        <ele>178.131869</ele>
        <time>2026-08-28T19:27:40Z</time>
      </trkpt>
      <trkpt lat="43.78574" lon="1.79189">
        <ele>178.155645</ele>
        <time>2026-08-28T19:27:41Z</time>
      </trkpt>
      <trkpt lat="43.78577" lon="1.79193">
        <ele>178.181478</ele>
        <time>2026-08-28T19:27:42Z</time>
      </trkpt>
      <trkpt lat="43.7858" lon="1.79196">
        <ele>178.20629</ele>
        <time>2026-08-28T19:27:43Z</time>
      </trkpt>
      <trkpt lat="43.78583" lon="1.792">
        <ele>178.231972</ele>
        <time>2026-08-28T19:27:44Z</time>
      </trkpt>
      <trkpt lat="43.78586" lon="1.79204">
        <ele>178.257953</ele>
        <time>2026-08-28T19:27:45Z</time>
      </trkpt>
      <trkpt lat="43.78589" lon="1.79207">
        <ele>178.280895</ele>
        <time>2026-08-28T19:27:46Z</time>
      </trkpt>
      <trkpt lat="43.78591" lon="1.79211">
        <ele>178.302013</ele>
        <time>2026-08-28T19:27:47Z</time>
      </trkpt>
      <trkpt lat="43.78594" lon="1.79213">
        <ele>178.321959</ele>
        <time>2026-08-28T19:27:48Z</time>
      </trkpt>
      <trkpt lat="43.78596" lon="1.79216">
        <ele>178.341904</ele>
        <time>2026-08-28T19:27:49Z</time>
      </trkpt>
      <trkpt lat="43.78599" lon="1.79219">
        <ele>178.361808</ele>
        <time>2026-08-28T19:27:50Z</time>
      </trkpt>
      <trkpt lat="43.78601" lon="1.79221">
        <ele>178.378641</ele>
        <time>2026-08-28T19:27:51Z</time>
      </trkpt>
      <trkpt lat="43.78603" lon="1.79223">
        <ele>178.393945</ele>
        <time>2026-08-28T19:27:52Z</time>
      </trkpt>
      <trkpt lat="43.78605" lon="1.79224">
        <ele>178.405423</ele>
        <time>2026-08-28T19:27:53Z</time>
      </trkpt>
      <trkpt lat="43.78606" lon="1.79225">
        <ele>178.412581</ele>
        <time>2026-08-28T19:27:54Z</time>
      </trkpt>
      <trkpt lat="43.78606" lon="1.79226">
        <ele>178.415403</ele>
        <time>2026-08-28T19:27:55Z</time>
      </trkpt>
      <trkpt lat="43.78606" lon="1.79225">
        <ele>178.417963</ele>
        <time>2026-08-28T19:27:56Z</time>
      </trkpt>
      <trkpt lat="43.78599" lon="1.79228">
        <ele>178.465675</ele>
        <time>2026-08-28T19:28:12Z</time>
      </trkpt>
      <trkpt lat="43.78598" lon="1.79231">
        <ele>178.479875</ele>
        <time>2026-08-28T19:28:13Z</time>
      </trkpt>
      <trkpt lat="43.78596" lon="1.79234">
        <ele>178.493902</ele>
        <time>2026-08-28T19:28:14Z</time>
      </trkpt>
      <trkpt lat="43.78595" lon="1.79238">
        <ele>178.491524</ele>
        <time>2026-08-28T19:28:15Z</time>
      </trkpt>
      <trkpt lat="43.78592" lon="1.79242">
        <ele>178.488677</ele>
        <time>2026-08-28T19:28:16Z</time>
      </trkpt>
      <trkpt lat="43.7859" lon="1.79247">
        <ele>178.485656</ele>
        <time>2026-08-28T19:28:17Z</time>
      </trkpt>
      <trkpt lat="43.78588" lon="1.79252">
        <ele>178.482547</ele>
        <time>2026-08-28T19:28:18Z</time>
      </trkpt>
      <trkpt lat="43.78586" lon="1.79257">
        <ele>178.479482</ele>
        <time>2026-08-28T19:28:19Z</time>
      </trkpt>
      <trkpt lat="43.78583" lon="1.79262">
        <ele>178.476158</ele>
        <time>2026-08-28T19:28:20Z</time>
      </trkpt>
      <trkpt lat="43.7858" lon="1.79267">
        <ele>178.472787</ele>
        <time>2026-08-28T19:28:21Z</time>
      </trkpt>
      <trkpt lat="43.78577" lon="1.79271">
        <ele>178.469529</ele>
        <time>2026-08-28T19:28:22Z</time>
      </trkpt>
      <trkpt lat="43.78574" lon="1.79276">
        <ele>178.466296</ele>
        <time>2026-08-28T19:28:23Z</time>
      </trkpt>
      <trkpt lat="43.7857" lon="1.7928">
        <ele>178.462862</ele>
        <time>2026-08-28T19:28:24Z</time>
      </trkpt>
      <trkpt lat="43.78567" lon="1.79284">
        <ele>178.459523</ele>
        <time>2026-08-28T19:28:25Z</time>
      </trkpt>
      <trkpt lat="43.78564" lon="1.79289">
        <ele>178.456136</ele>
        <time>2026-08-28T19:28:26Z</time>
      </trkpt>
      <trkpt lat="43.7856" lon="1.79294">
        <ele>178.452214</ele>
        <time>2026-08-28T19:28:27Z</time>
      </trkpt>
      <trkpt lat="43.78557" lon="1.79299">
        <ele>178.448738</ele>
        <time>2026-08-28T19:28:28Z</time>
      </trkpt>
      <trkpt lat="43.78553" lon="1.79304">
        <ele>178.445074</ele>
        <time>2026-08-28T19:28:29Z</time>
      </trkpt>
      <trkpt lat="43.7855" lon="1.79309">
        <ele>178.441528</ele>
        <time>2026-08-28T19:28:30Z</time>
      </trkpt>
      <trkpt lat="43.78548" lon="1.79314">
        <ele>178.438033</ele>
        <time>2026-08-28T19:28:31Z</time>
      </trkpt>
      <trkpt lat="43.78545" lon="1.79319">
        <ele>178.434582</ele>
        <time>2026-08-28T19:28:32Z</time>
      </trkpt>
      <trkpt lat="43.78542" lon="1.79325">
        <ele>178.430959</ele>
        <time>2026-08-28T19:28:33Z</time>
      </trkpt>
      <trkpt lat="43.78538" lon="1.7933">
        <ele>178.427277</ele>
        <time>2026-08-28T19:28:34Z</time>
      </trkpt>
      <trkpt lat="43.78535" lon="1.79335">
        <ele>178.423504</ele>
        <time>2026-08-28T19:28:35Z</time>
      </trkpt>
      <trkpt lat="43.78531" lon="1.7934">
        <ele>178.419748</ele>
        <time>2026-08-28T19:28:36Z</time>
      </trkpt>
      <trkpt lat="43.78528" lon="1.79345">
        <ele>178.416248</ele>
        <time>2026-08-28T19:28:37Z</time>
      </trkpt>
      <trkpt lat="43.78525" lon="1.79349">
        <ele>178.413117</ele>
        <time>2026-08-28T19:28:38Z</time>
      </trkpt>
      <trkpt lat="43.78522" lon="1.79353">
        <ele>178.410229</ele>
        <time>2026-08-28T19:28:39Z</time>
      </trkpt>
      <trkpt lat="43.7852" lon="1.79357">
        <ele>178.407098</ele>
        <time>2026-08-28T19:28:40Z</time>
      </trkpt>
      <trkpt lat="43.78516" lon="1.79361">
        <ele>178.40356</ele>
        <time>2026-08-28T19:28:41Z</time>
      </trkpt>
      <trkpt lat="43.78513" lon="1.79366">
        <ele>178.400085</ele>
        <time>2026-08-28T19:28:42Z</time>
      </trkpt>
      <trkpt lat="43.7851" lon="1.79371">
        <ele>178.396763</ele>
        <time>2026-08-28T19:28:43Z</time>
      </trkpt>
      <trkpt lat="43.78507" lon="1.79376">
        <ele>178.393642</ele>
        <time>2026-08-28T19:28:44Z</time>
      </trkpt>
      <trkpt lat="43.78504" lon="1.7938">
        <ele>178.390484</ele>
        <time>2026-08-28T19:28:45Z</time>
      </trkpt>
      <trkpt lat="43.78501" lon="1.79383">
        <ele>178.387271</ele>
        <time>2026-08-28T19:28:46Z</time>
      </trkpt>
      <trkpt lat="43.78497" lon="1.79387">
        <ele>178.38409</ele>
        <time>2026-08-28T19:28:47Z</time>
      </trkpt>
      <trkpt lat="43.78494" lon="1.79391">
        <ele>178.380846</ele>
        <time>2026-08-28T19:28:48Z</time>
      </trkpt>
      <trkpt lat="43.78491" lon="1.79394">
        <ele>178.377956</ele>
        <time>2026-08-28T19:28:49Z</time>
      </trkpt>
      <trkpt lat="43.78488" lon="1.79398">
        <ele>178.374786</ele>
        <time>2026-08-28T19:28:50Z</time>
      </trkpt>
      <trkpt lat="43.78485" lon="1.79404">
        <ele>178.371506</ele>
        <time>2026-08-28T19:28:51Z</time>
      </trkpt>
      <trkpt lat="43.78483" lon="1.79409">
        <ele>178.368087</ele>
        <time>2026-08-28T19:28:52Z</time>
      </trkpt>
      <trkpt lat="43.78482" lon="1.79415">
        <ele>178.364897</ele>
        <time>2026-08-28T19:28:53Z</time>
      </trkpt>
      <trkpt lat="43.78481" lon="1.7942">
        <ele>178.361982</ele>
        <time>2026-08-28T19:28:54Z</time>
      </trkpt>
      <trkpt lat="43.78479" lon="1.79426">
        <ele>178.320007</ele>
        <time>2026-08-28T19:28:55Z</time>
      </trkpt>
      <trkpt lat="43.78477" lon="1.79431">
        <ele>178.276066</ele>
        <time>2026-08-28T19:28:56Z</time>
      </trkpt>
      <trkpt lat="43.78474" lon="1.79436">
        <ele>178.228252</ele>
        <time>2026-08-28T19:28:57Z</time>
      </trkpt>
      <trkpt lat="43.7847" lon="1.79441">
        <ele>178.17904</ele>
        <time>2026-08-28T19:28:58Z</time>
      </trkpt>
      <trkpt lat="43.78467" lon="1.79446">
        <ele>178.131461</ele>
        <time>2026-08-28T19:28:59Z</time>
      </trkpt>
      <trkpt lat="43.78464" lon="1.7945">
        <ele>178.085942</ele>
        <time>2026-08-28T19:29:00Z</time>
      </trkpt>
      <trkpt lat="43.78461" lon="1.79455">
        <ele>178.039193</ele>
        <time>2026-08-28T19:29:01Z</time>
      </trkpt>
      <trkpt lat="43.78457" lon="1.79459">
        <ele>177.984118</ele>
        <time>2026-08-28T19:29:02Z</time>
      </trkpt>
      <trkpt lat="43.78453" lon="1.79464">
        <ele>177.930481</ele>
        <time>2026-08-28T19:29:03Z</time>
      </trkpt>
      <trkpt lat="43.78449" lon="1.79469">
        <ele>177.875407</ele>
        <time>2026-08-28T19:29:04Z</time>
      </trkpt>
      <trkpt lat="43.78445" lon="1.79473">
        <ele>177.8252</ele>
        <time>2026-08-28T19:29:05Z</time>
      </trkpt>
      <trkpt lat="43.78441" lon="1.79478">
        <ele>177.77107</ele>
        <time>2026-08-28T19:29:06Z</time>
      </trkpt>
      <trkpt lat="43.78437" lon="1.79484">
        <ele>177.714959</ele>
        <time>2026-08-28T19:29:07Z</time>
      </trkpt>
      <trkpt lat="43.78433" lon="1.79489">
        <ele>177.663463</ele>
        <time>2026-08-28T19:29:08Z</time>
      </trkpt>
      <trkpt lat="43.7843" lon="1.79494">
        <ele>177.612243</ele>
        <time>2026-08-28T19:29:09Z</time>
      </trkpt>
      <trkpt lat="43.78427" lon="1.795">
        <ele>177.558695</ele>
        <time>2026-08-28T19:29:10Z</time>
      </trkpt>
      <trkpt lat="43.78423" lon="1.79506">
        <ele>177.499952</ele>
        <time>2026-08-28T19:29:11Z</time>
      </trkpt>
      <trkpt lat="43.78419" lon="1.79512">
        <ele>177.437559</ele>
        <time>2026-08-28T19:29:12Z</time>
      </trkpt>
      <trkpt lat="43.78414" lon="1.79518">
        <ele>177.375746</ele>
        <time>2026-08-28T19:29:13Z</time>
      </trkpt>
      <trkpt lat="43.7841" lon="1.79523">
        <ele>177.318642</ele>
        <time>2026-08-28T19:29:14Z</time>
      </trkpt>
      <trkpt lat="43.78407" lon="1.79529">
        <ele>177.26388</ele>
        <time>2026-08-28T19:29:15Z</time>
      </trkpt>
      <trkpt lat="43.78404" lon="1.79535">
        <ele>177.211653</ele>
        <time>2026-08-28T19:29:16Z</time>
      </trkpt>
      <trkpt lat="43.784" lon="1.7954">
        <ele>177.160526</ele>
        <time>2026-08-28T19:29:17Z</time>
      </trkpt>
      <trkpt lat="43.78397" lon="1.79545">
        <ele>177.10796</ele>
        <time>2026-08-28T19:29:18Z</time>
      </trkpt>
      <trkpt lat="43.78394" lon="1.7955">
        <ele>177.057157</ele>
        <time>2026-08-28T19:29:19Z</time>
      </trkpt>
      <trkpt lat="43.7839" lon="1.79555">
        <ele>177.00742</ele>
        <time>2026-08-28T19:29:20Z</time>
      </trkpt>
      <trkpt lat="43.78387" lon="1.79561">
        <ele>176.953309</ele>
        <time>2026-08-28T19:29:21Z</time>
      </trkpt>
      <trkpt lat="43.78383" lon="1.79567">
        <ele>176.898433</ele>
        <time>2026-08-28T19:29:22Z</time>
      </trkpt>
      <trkpt lat="43.78379" lon="1.79572">
        <ele>176.841114</ele>
        <time>2026-08-28T19:29:23Z</time>
      </trkpt>
      <trkpt lat="43.78375" lon="1.79578">
        <ele>176.782229</ele>
        <time>2026-08-28T19:29:24Z</time>
      </trkpt>
      <trkpt lat="43.78371" lon="1.79583">
        <ele>176.724205</ele>
        <time>2026-08-28T19:29:25Z</time>
      </trkpt>
      <trkpt lat="43.78367" lon="1.79589">
        <ele>176.663043</ele>
        <time>2026-08-28T19:29:26Z</time>
      </trkpt>
      <trkpt lat="43.78363" lon="1.79595">
        <ele>176.604342</ele>
        <time>2026-08-28T19:29:27Z</time>
      </trkpt>
      <trkpt lat="43.78358" lon="1.79601">
        <ele>176.541949</ele>
        <time>2026-08-28T19:29:28Z</time>
      </trkpt>
      <trkpt lat="43.78355" lon="1.79606">
        <ele>176.580999</ele>
        <time>2026-08-28T19:29:29Z</time>
      </trkpt>
      <trkpt lat="43.78351" lon="1.79612">
        <ele>176.624147</ele>
        <time>2026-08-28T19:29:30Z</time>
      </trkpt>
      <trkpt lat="43.78348" lon="1.79617">
        <ele>176.662453</ele>
        <time>2026-08-28T19:29:31Z</time>
      </trkpt>
      <trkpt lat="43.78345" lon="1.79622">
        <ele>176.70503</ele>
        <time>2026-08-28T19:29:32Z</time>
      </trkpt>
      <trkpt lat="43.78342" lon="1.79627">
        <ele>176.747359</ele>
        <time>2026-08-28T19:29:33Z</time>
      </trkpt>
      <trkpt lat="43.78338" lon="1.79633">
        <ele>176.796071</ele>
        <time>2026-08-28T19:29:34Z</time>
      </trkpt>
      <trkpt lat="43.78334" lon="1.7964">
        <ele>176.84781</ele>
        <time>2026-08-28T19:29:35Z</time>
      </trkpt>
      <trkpt lat="43.78329" lon="1.79646">
        <ele>176.900854</ele>
        <time>2026-08-28T19:29:36Z</time>
      </trkpt>
      <trkpt lat="43.78325" lon="1.79652">
        <ele>176.950574</ele>
        <time>2026-08-28T19:29:37Z</time>
      </trkpt>
      <trkpt lat="43.78321" lon="1.79658">
        <ele>176.996944</ele>
        <time>2026-08-28T19:29:38Z</time>
      </trkpt>
      <trkpt lat="43.78317" lon="1.79663">
        <ele>177.041356</ele>
        <time>2026-08-28T19:29:39Z</time>
      </trkpt>
      <trkpt lat="43.78314" lon="1.79668">
        <ele>177.085591</ele>
        <time>2026-08-28T19:29:40Z</time>
      </trkpt>
      <trkpt lat="43.7831" lon="1.79674">
        <ele>177.129376</ele>
        <time>2026-08-28T19:29:41Z</time>
      </trkpt>
      <trkpt lat="43.78307" lon="1.79679">
        <ele>177.171705</ele>
        <time>2026-08-28T19:29:42Z</time>
      </trkpt>
      <trkpt lat="43.78304" lon="1.79684">
        <ele>177.210932</ele>
        <time>2026-08-28T19:29:43Z</time>
      </trkpt>
      <trkpt lat="43.78301" lon="1.79689">
        <ele>177.252523</ele>
        <time>2026-08-28T19:29:44Z</time>
      </trkpt>
      <trkpt lat="43.78298" lon="1.79694">
        <ele>177.292215</ele>
        <time>2026-08-28T19:29:45Z</time>
      </trkpt>
      <trkpt lat="43.78295" lon="1.79699">
        <ele>177.330521</ele>
        <time>2026-08-28T19:29:46Z</time>
      </trkpt>
      <trkpt lat="43.78292" lon="1.79704">
        <ele>177.369941</ele>
        <time>2026-08-28T19:29:47Z</time>
      </trkpt>
      <trkpt lat="43.78289" lon="1.79708">
        <ele>177.406606</ele>
        <time>2026-08-28T19:29:48Z</time>
      </trkpt>
      <trkpt lat="43.78286" lon="1.79712">
        <ele>177.443448</ele>
        <time>2026-08-28T19:29:49Z</time>
      </trkpt>
      <trkpt lat="43.78283" lon="1.79717">
        <ele>177.480404</ele>
        <time>2026-08-28T19:29:50Z</time>
      </trkpt>
      <trkpt lat="43.78279" lon="1.79721">
        <ele>177.517069</ele>
        <time>2026-08-28T19:29:51Z</time>
      </trkpt>
      <trkpt lat="43.78276" lon="1.79725">
        <ele>177.553912</ele>
        <time>2026-08-28T19:29:52Z</time>
      </trkpt>
      <trkpt lat="43.78273" lon="1.7973">
        <ele>177.591879</ele>
        <time>2026-08-28T19:29:53Z</time>
      </trkpt>
      <trkpt lat="43.78271" lon="1.79734">
        <ele>177.626185</ele>
        <time>2026-08-28T19:29:54Z</time>
      </trkpt>
      <trkpt lat="43.78268" lon="1.79739">
        <ele>177.664037</ele>
        <time>2026-08-28T19:29:55Z</time>
      </trkpt>
      <trkpt lat="43.78265" lon="1.79743">
        <ele>177.700117</ele>
        <time>2026-08-28T19:29:56Z</time>
      </trkpt>
      <trkpt lat="43.78261" lon="1.79748">
        <ele>177.737645</ele>
        <time>2026-08-28T19:29:57Z</time>
      </trkpt>
      <trkpt lat="43.78258" lon="1.79752">
        <ele>177.775174</ele>
        <time>2026-08-28T19:29:58Z</time>
      </trkpt>
      <trkpt lat="43.78256" lon="1.79757">
        <ele>177.811414</ele>
        <time>2026-08-28T19:29:59Z</time>
      </trkpt>
      <trkpt lat="43.78253" lon="1.79762">
        <ele>177.846173</ele>
        <time>2026-08-28T19:30:00Z</time>
      </trkpt>
      <trkpt lat="43.78251" lon="1.79767">
        <ele>177.881397</ele>
        <time>2026-08-28T19:30:01Z</time>
      </trkpt>
      <trkpt lat="43.78248" lon="1.79771">
        <ele>177.916335</ele>
        <time>2026-08-28T19:30:02Z</time>
      </trkpt>
      <trkpt lat="43.78245" lon="1.79775">
        <ele>177.949819</ele>
        <time>2026-08-28T19:30:03Z</time>
      </trkpt>
      <trkpt lat="43.78243" lon="1.79779">
        <ele>177.984311</ele>
        <time>2026-08-28T19:30:04Z</time>
      </trkpt>
      <trkpt lat="43.7824" lon="1.79783">
        <ele>178.016786</ele>
        <time>2026-08-28T19:30:05Z</time>
      </trkpt>
      <trkpt lat="43.78237" lon="1.79788">
        <ele>178.031918</ele>
        <time>2026-08-28T19:30:06Z</time>
      </trkpt>
      <trkpt lat="43.78235" lon="1.79793">
        <ele>178.001654</ele>
        <time>2026-08-28T19:30:07Z</time>
      </trkpt>
      <trkpt lat="43.78232" lon="1.79797">
        <ele>177.969169</ele>
        <time>2026-08-28T19:30:08Z</time>
      </trkpt>
      <trkpt lat="43.78229" lon="1.79801">
        <ele>177.937429</ele>
        <time>2026-08-28T19:30:09Z</time>
      </trkpt>
      <trkpt lat="43.78226" lon="1.79804">
        <ele>177.907862</ele>
        <time>2026-08-28T19:30:10Z</time>
      </trkpt>
      <trkpt lat="43.78223" lon="1.79809">
        <ele>177.873312</ele>
        <time>2026-08-28T19:30:11Z</time>
      </trkpt>
      <trkpt lat="43.7822" lon="1.79813">
        <ele>177.839371</ele>
        <time>2026-08-28T19:30:12Z</time>
      </trkpt>
      <trkpt lat="43.78217" lon="1.79818">
        <ele>177.80823</ele>
        <time>2026-08-28T19:30:13Z</time>
      </trkpt>
      <trkpt lat="43.78215" lon="1.79823">
        <ele>177.777071</ele>
        <time>2026-08-28T19:30:14Z</time>
      </trkpt>
      <trkpt lat="43.78213" lon="1.79826">
        <ele>177.753829</ele>
        <time>2026-08-28T19:30:15Z</time>
      </trkpt>
      <trkpt lat="43.78211" lon="1.79829">
        <ele>177.734971</ele>
        <time>2026-08-28T19:30:16Z</time>
      </trkpt>
      <trkpt lat="43.7821" lon="1.79832">
        <ele>177.714767</ele>
        <time>2026-08-28T19:30:17Z</time>
      </trkpt>
      <trkpt lat="43.78208" lon="1.79835">
        <ele>177.695284</ele>
        <time>2026-08-28T19:30:18Z</time>
      </trkpt>
      <trkpt lat="43.78206" lon="1.79837">
        <ele>177.674647</ele>
        <time>2026-08-28T19:30:19Z</time>
      </trkpt>
      <trkpt lat="43.78204" lon="1.7984">
        <ele>177.653467</ele>
        <time>2026-08-28T19:30:20Z</time>
      </trkpt>
      <trkpt lat="43.78202" lon="1.79843">
        <ele>177.632369</ele>
        <time>2026-08-28T19:30:21Z</time>
      </trkpt>
      <trkpt lat="43.782" lon="1.79845">
        <ele>177.609617</ele>
        <time>2026-08-28T19:30:22Z</time>
      </trkpt>
      <trkpt lat="43.78198" lon="1.79848">
        <ele>177.586489</ele>
        <time>2026-08-28T19:30:23Z</time>
      </trkpt>
      <trkpt lat="43.78195" lon="1.79851">
        <ele>177.564107</ele>
        <time>2026-08-28T19:30:24Z</time>
      </trkpt>
      <trkpt lat="43.78193" lon="1.79854">
        <ele>177.54161</ele>
        <time>2026-08-28T19:30:25Z</time>
      </trkpt>
      <trkpt lat="43.78191" lon="1.79856">
        <ele>177.519114</ele>
        <time>2026-08-28T19:30:26Z</time>
      </trkpt>
      <trkpt lat="43.78189" lon="1.79858">
        <ele>177.50113</ele>
        <time>2026-08-28T19:30:27Z</time>
      </trkpt>
      <trkpt lat="43.78188" lon="1.79861">
        <ele>177.487921</ele>
        <time>2026-08-28T19:30:28Z</time>
      </trkpt>
      <trkpt lat="43.78188" lon="1.79862">
        <ele>177.48126</ele>
        <time>2026-08-28T19:30:29Z</time>
      </trkpt>
      <trkpt lat="43.78188" lon="1.79862">
        <ele>177.480336</ele>
        <time>2026-08-28T19:30:30Z</time>
      </trkpt>
      <trkpt lat="43.78188" lon="1.79862">
        <ele>177.479587</ele>
        <time>2026-08-28T19:30:31Z</time>
      </trkpt>
      <trkpt lat="43.78195" lon="1.79861">
        <ele>177.42188</ele>
        <time>2026-08-28T19:31:57Z</time>
      </trkpt>
      <trkpt lat="43.78197" lon="1.79862">
        <ele>177.407152</ele>
        <time>2026-08-28T19:31:58Z</time>
      </trkpt>
      <trkpt lat="43.78199" lon="1.79863">
        <ele>177.392604</ele>
        <time>2026-08-28T19:31:59Z</time>
      </trkpt>
      <trkpt lat="43.78201" lon="1.79866">
        <ele>177.373471</ele>
        <time>2026-08-28T19:32:00Z</time>
      </trkpt>
      <trkpt lat="43.78203" lon="1.79868">
        <ele>177.353289</ele>
        <time>2026-08-28T19:32:01Z</time>
      </trkpt>
      <trkpt lat="43.78205" lon="1.79871">
        <ele>177.329089</ele>
        <time>2026-08-28T19:32:02Z</time>
      </trkpt>
      <trkpt lat="43.78207" lon="1.79875">
        <ele>177.30232</ele>
        <time>2026-08-28T19:32:03Z</time>
      </trkpt>
      <trkpt lat="43.78209" lon="1.79879">
        <ele>177.276873</ele>
        <time>2026-08-28T19:32:04Z</time>
      </trkpt>
      <trkpt lat="43.78211" lon="1.79883">
        <ele>177.250111</ele>
        <time>2026-08-28T19:32:05Z</time>
      </trkpt>
      <trkpt lat="43.78213" lon="1.79887">
        <ele>177.22376</ele>
        <time>2026-08-28T19:32:06Z</time>
      </trkpt>
      <trkpt lat="43.78215" lon="1.79892">
        <ele>177.195695</ele>
        <time>2026-08-28T19:32:07Z</time>
      </trkpt>
      <trkpt lat="43.78218" lon="1.79896">
        <ele>177.166181</ele>
        <time>2026-08-28T19:32:08Z</time>
      </trkpt>
      <trkpt lat="43.78221" lon="1.799">
        <ele>177.136166</ele>
        <time>2026-08-28T19:32:09Z</time>
      </trkpt>
      <trkpt lat="43.78223" lon="1.79904">
        <ele>177.103624</ele>
        <time>2026-08-28T19:32:10Z</time>
      </trkpt>
      <trkpt lat="43.78226" lon="1.79909">
        <ele>177.072305</ele>
        <time>2026-08-28T19:32:11Z</time>
      </trkpt>
      <trkpt lat="43.78229" lon="1.79913">
        <ele>177.040728</ele>
        <time>2026-08-28T19:32:12Z</time>
      </trkpt>
      <trkpt lat="43.78232" lon="1.79917">
        <ele>177.008242</ele>
        <time>2026-08-28T19:32:13Z</time>
      </trkpt>
      <trkpt lat="43.78235" lon="1.79921">
        <ele>176.978109</ele>
        <time>2026-08-28T19:32:14Z</time>
      </trkpt>
      <trkpt lat="43.78238" lon="1.79925">
        <ele>176.946369</ele>
        <time>2026-08-28T19:32:15Z</time>
      </trkpt>
      <trkpt lat="43.78242" lon="1.79929">
        <ele>176.913872</ele>
        <time>2026-08-28T19:32:16Z</time>
      </trkpt>
      <trkpt lat="43.78245" lon="1.79933">
        <ele>176.879557</ele>
        <time>2026-08-28T19:32:17Z</time>
      </trkpt>
      <trkpt lat="43.78248" lon="1.79938">
        <ele>176.843038</ele>
        <time>2026-08-28T19:32:18Z</time>
      </trkpt>
      <trkpt lat="43.78252" lon="1.79943">
        <ele>176.803399</ele>
        <time>2026-08-28T19:32:19Z</time>
      </trkpt>
      <trkpt lat="43.78255" lon="1.79948">
        <ele>176.766563</ele>
        <time>2026-08-28T19:32:20Z</time>
      </trkpt>
      <trkpt lat="43.78258" lon="1.79954">
        <ele>176.72751</ele>
        <time>2026-08-28T19:32:21Z</time>
      </trkpt>
      <trkpt lat="43.78262" lon="1.79959">
        <ele>176.696478</ele>
        <time>2026-08-28T19:32:22Z</time>
      </trkpt>
      <trkpt lat="43.78266" lon="1.79964">
        <ele>176.710284</ele>
        <time>2026-08-28T19:32:23Z</time>
      </trkpt>
      <trkpt lat="43.78271" lon="1.7997">
        <ele>176.72476</ele>
        <time>2026-08-28T19:32:24Z</time>
      </trkpt>
      <trkpt lat="43.78275" lon="1.79976">
        <ele>176.73947</ele>
        <time>2026-08-28T19:32:25Z</time>
      </trkpt>
      <trkpt lat="43.78279" lon="1.79982">
        <ele>176.754602</ele>
        <time>2026-08-28T19:32:26Z</time>
      </trkpt>
      <trkpt lat="43.78284" lon="1.79988">
        <ele>176.770702</ele>
        <time>2026-08-28T19:32:27Z</time>
      </trkpt>
      <trkpt lat="43.78289" lon="1.79994">
        <ele>176.787764</ele>
        <time>2026-08-28T19:32:28Z</time>
      </trkpt>
      <trkpt lat="43.78295" lon="1.80001">
        <ele>176.804825</ele>
        <time>2026-08-28T19:32:29Z</time>
      </trkpt>
      <trkpt lat="43.783" lon="1.80007">
        <ele>176.82195</ele>
        <time>2026-08-28T19:32:30Z</time>
      </trkpt>
      <trkpt lat="43.78305" lon="1.80013">
        <ele>176.837514</ele>
        <time>2026-08-28T19:32:31Z</time>
      </trkpt>
      <trkpt lat="43.78309" lon="1.80019">
        <ele>176.852715</ele>
        <time>2026-08-28T19:32:32Z</time>
      </trkpt>
      <trkpt lat="43.78313" lon="1.80024">
        <ele>176.866943</ele>
        <time>2026-08-28T19:32:33Z</time>
      </trkpt>
      <trkpt lat="43.78317" lon="1.80029">
        <ele>176.880327</ele>
        <time>2026-08-28T19:32:34Z</time>
      </trkpt>
      <trkpt lat="43.7832" lon="1.80035">
        <ele>176.892901</ele>
        <time>2026-08-28T19:32:35Z</time>
      </trkpt>
      <trkpt lat="43.78323" lon="1.80039">
        <ele>176.903919</ele>
        <time>2026-08-28T19:32:36Z</time>
      </trkpt>
      <trkpt lat="43.78326" lon="1.80043">
        <ele>176.913752</ele>
        <time>2026-08-28T19:32:37Z</time>
      </trkpt>
      <trkpt lat="43.78329" lon="1.80048">
        <ele>176.923585</ele>
        <time>2026-08-28T19:32:38Z</time>
      </trkpt>
      <trkpt lat="43.78331" lon="1.80052">
        <ele>176.93369</ele>
        <time>2026-08-28T19:32:39Z</time>
      </trkpt>
      <trkpt lat="43.78334" lon="1.80056">
        <ele>176.942663</ele>
        <time>2026-08-28T19:32:40Z</time>
      </trkpt>
      <trkpt lat="43.78336" lon="1.8006">
        <ele>176.951601</ele>
        <time>2026-08-28T19:32:41Z</time>
      </trkpt>
      <trkpt lat="43.78338" lon="1.80063">
        <ele>176.960478</ele>
        <time>2026-08-28T19:32:42Z</time>
      </trkpt>
      <trkpt lat="43.78341" lon="1.80067">
        <ele>176.968759</ele>
        <time>2026-08-28T19:32:43Z</time>
      </trkpt>
      <trkpt lat="43.78343" lon="1.8007">
        <ele>176.976742</ele>
        <time>2026-08-28T19:32:44Z</time>
      </trkpt>
      <trkpt lat="43.78345" lon="1.80073">
        <ele>176.985244</ele>
        <time>2026-08-28T19:32:45Z</time>
      </trkpt>
      <trkpt lat="43.78348" lon="1.80076">
        <ele>176.993387</ele>
        <time>2026-08-28T19:32:46Z</time>
      </trkpt>
      <trkpt lat="43.7835" lon="1.8008">
        <ele>177.001647</ele>
        <time>2026-08-28T19:32:47Z</time>
      </trkpt>
      <trkpt lat="43.78353" lon="1.80083">
        <ele>177.009726</ele>
        <time>2026-08-28T19:32:48Z</time>
      </trkpt>
      <trkpt lat="43.78355" lon="1.80086">
        <ele>177.017503</ele>
        <time>2026-08-28T19:32:49Z</time>
      </trkpt>
      <trkpt lat="43.78357" lon="1.80088">
        <ele>177.024925</ele>
        <time>2026-08-28T19:32:50Z</time>
      </trkpt>
      <trkpt lat="43.7836" lon="1.80091">
        <ele>177.033033</ele>
        <time>2026-08-28T19:32:51Z</time>
      </trkpt>
      <trkpt lat="43.78363" lon="1.80093">
        <ele>177.04093</ele>
        <time>2026-08-28T19:32:52Z</time>
      </trkpt>
      <trkpt lat="43.78366" lon="1.80095">
        <ele>177.048855</ele>
        <time>2026-08-28T19:32:53Z</time>
      </trkpt>
      <trkpt lat="43.78368" lon="1.80098">
        <ele>177.056511</ele>
        <time>2026-08-28T19:32:54Z</time>
      </trkpt>
      <trkpt lat="43.78371" lon="1.80101">
        <ele>177.064712</ele>
        <time>2026-08-28T19:32:55Z</time>
      </trkpt>
      <trkpt lat="43.78373" lon="1.80103">
        <ele>177.072807</ele>
        <time>2026-08-28T19:32:56Z</time>
      </trkpt>
      <trkpt lat="43.78376" lon="1.80106">
        <ele>177.079927</ele>
        <time>2026-08-28T19:32:57Z</time>
      </trkpt>
      <trkpt lat="43.78378" lon="1.80108">
        <ele>177.086607</ele>
        <time>2026-08-28T19:32:58Z</time>
      </trkpt>
      <trkpt lat="43.7838" lon="1.8011">
        <ele>177.093197</ele>
        <time>2026-08-28T19:32:59Z</time>
      </trkpt>
      <trkpt lat="43.78382" lon="1.80113">
        <ele>177.100373</ele>
        <time>2026-08-28T19:33:00Z</time>
      </trkpt>
      <trkpt lat="43.78384" lon="1.80116">
        <ele>177.107492</ele>
        <time>2026-08-28T19:33:01Z</time>
      </trkpt>
      <trkpt lat="43.78386" lon="1.80118">
        <ele>177.114426</ele>
        <time>2026-08-28T19:33:02Z</time>
      </trkpt>
      <trkpt lat="43.78389" lon="1.80121">
        <ele>177.121902</ele>
        <time>2026-08-28T19:33:03Z</time>
      </trkpt>
      <trkpt lat="43.78391" lon="1.80124">
        <ele>177.129707</ele>
        <time>2026-08-28T19:33:04Z</time>
      </trkpt>
      <trkpt lat="43.78394" lon="1.80127">
        <ele>177.141672</ele>
        <time>2026-08-28T19:33:05Z</time>
      </trkpt>
      <trkpt lat="43.78396" lon="1.8013">
        <ele>177.184876</ele>
        <time>2026-08-28T19:33:06Z</time>
      </trkpt>
      <trkpt lat="43.78398" lon="1.80133">
        <ele>177.229685</ele>
        <time>2026-08-28T19:33:07Z</time>
      </trkpt>
      <trkpt lat="43.784" lon="1.80136">
        <ele>177.272034</ele>
        <time>2026-08-28T19:33:08Z</time>
      </trkpt>
      <trkpt lat="43.78402" lon="1.80139">
        <ele>177.319495</ele>
        <time>2026-08-28T19:33:09Z</time>
      </trkpt>
      <trkpt lat="43.78405" lon="1.80143">
        <ele>177.367705</ele>
        <time>2026-08-28T19:33:10Z</time>
      </trkpt>
      <trkpt lat="43.78407" lon="1.80146">
        <ele>177.414976</ele>
        <time>2026-08-28T19:33:11Z</time>
      </trkpt>
      <trkpt lat="43.7841" lon="1.8015">
        <ele>177.465781</ele>
        <time>2026-08-28T19:33:12Z</time>
      </trkpt>
      <trkpt lat="43.78412" lon="1.80153">
        <ele>177.515919</ele>
        <time>2026-08-28T19:33:13Z</time>
      </trkpt>
      <trkpt lat="43.78415" lon="1.80156">
        <ele>177.56292</ele>
        <time>2026-08-28T19:33:14Z</time>
      </trkpt>
      <trkpt lat="43.78417" lon="1.80159">
        <ele>177.606124</ele>
        <time>2026-08-28T19:33:15Z</time>
      </trkpt>
      <trkpt lat="43.78419" lon="1.80162">
        <ele>177.653838</ele>
        <time>2026-08-28T19:33:16Z</time>
      </trkpt>
      <trkpt lat="43.78422" lon="1.80165">
        <ele>177.70571</ele>
        <time>2026-08-28T19:33:17Z</time>
      </trkpt>
      <trkpt lat="43.78425" lon="1.80169">
        <ele>177.763239</ele>
        <time>2026-08-28T19:33:18Z</time>
      </trkpt>
      <trkpt lat="43.78428" lon="1.80172">
        <ele>177.816193</ele>
        <time>2026-08-28T19:33:19Z</time>
      </trkpt>
      <trkpt lat="43.78431" lon="1.80176">
        <ele>177.868063</ele>
        <time>2026-08-28T19:33:20Z</time>
      </trkpt>
      <trkpt lat="43.78433" lon="1.80179">
        <ele>177.917976</ele>
        <time>2026-08-28T19:33:21Z</time>
      </trkpt>
      <trkpt lat="43.78435" lon="1.80183">
        <ele>177.963731</ele>
        <time>2026-08-28T19:33:22Z</time>
      </trkpt>
      <trkpt lat="43.78438" lon="1.80186">
        <ele>178.010032</ele>
        <time>2026-08-28T19:33:23Z</time>
      </trkpt>
      <trkpt lat="43.78441" lon="1.80189">
        <ele>178.059908</ele>
        <time>2026-08-28T19:33:24Z</time>
      </trkpt>
      <trkpt lat="43.78443" lon="1.80192">
        <ele>178.110358</ele>
        <time>2026-08-28T19:33:25Z</time>
      </trkpt>
      <trkpt lat="43.78446" lon="1.80195">
        <ele>178.160934</ele>
        <time>2026-08-28T19:33:26Z</time>
      </trkpt>
      <trkpt lat="43.78449" lon="1.80198">
        <ele>178.20914</ele>
        <time>2026-08-28T19:33:27Z</time>
      </trkpt>
      <trkpt lat="43.78452" lon="1.80201">
        <ele>178.259945</ele>
        <time>2026-08-28T19:33:28Z</time>
      </trkpt>
      <trkpt lat="43.78454" lon="1.80205">
        <ele>178.310395</ele>
        <time>2026-08-28T19:33:29Z</time>
      </trkpt>
      <trkpt lat="43.78457" lon="1.80208">
        <ele>178.359469</ele>
        <time>2026-08-28T19:33:30Z</time>
      </trkpt>
      <trkpt lat="43.78459" lon="1.80211">
        <ele>178.408194</ele>
        <time>2026-08-28T19:33:31Z</time>
      </trkpt>
      <trkpt lat="43.78462" lon="1.80214">
        <ele>178.455939</ele>
        <time>2026-08-28T19:33:32Z</time>
      </trkpt>
      <trkpt lat="43.78465" lon="1.80217">
        <ele>178.506514</ele>
        <time>2026-08-28T19:33:33Z</time>
      </trkpt>
      <trkpt lat="43.78467" lon="1.8022">
        <ele>178.55646</ele>
        <time>2026-08-28T19:33:34Z</time>
      </trkpt>
      <trkpt lat="43.7847" lon="1.80223">
        <ele>178.602927</ele>
        <time>2026-08-28T19:33:35Z</time>
      </trkpt>
      <trkpt lat="43.78473" lon="1.80226">
        <ele>178.64875</ele>
        <time>2026-08-28T19:33:36Z</time>
      </trkpt>
      <trkpt lat="43.78476" lon="1.80228">
        <ele>178.696414</ele>
        <time>2026-08-28T19:33:37Z</time>
      </trkpt>
      <trkpt lat="43.78479" lon="1.80231">
        <ele>178.74863</ele>
        <time>2026-08-28T19:33:38Z</time>
      </trkpt>
      <trkpt lat="43.78482" lon="1.80234">
        <ele>178.800943</ele>
        <time>2026-08-28T19:33:39Z</time>
      </trkpt>
      <trkpt lat="43.78485" lon="1.80238">
        <ele>178.857268</ele>
        <time>2026-08-28T19:33:40Z</time>
      </trkpt>
      <trkpt lat="43.78488" lon="1.80242">
        <ele>178.917044</ele>
        <time>2026-08-28T19:33:41Z</time>
      </trkpt>
      <trkpt lat="43.78491" lon="1.80246">
        <ele>178.982004</ele>
        <time>2026-08-28T19:33:42Z</time>
      </trkpt>
      <trkpt lat="43.78495" lon="1.80251">
        <ele>179.05353</ele>
        <time>2026-08-28T19:33:43Z</time>
      </trkpt>
      <trkpt lat="43.78498" lon="1.80255">
        <ele>179.123002</ele>
        <time>2026-08-28T19:33:44Z</time>
      </trkpt>
      <trkpt lat="43.78502" lon="1.8026">
        <ele>179.191147</ele>
        <time>2026-08-28T19:33:45Z</time>
      </trkpt>
      <trkpt lat="43.78506" lon="1.80264">
        <ele>179.260619</ele>
        <time>2026-08-28T19:33:46Z</time>
      </trkpt>
      <trkpt lat="43.7851" lon="1.80269">
        <ele>179.331452</ele>
        <time>2026-08-28T19:33:47Z</time>
      </trkpt>
      <trkpt lat="43.78513" lon="1.80274">
        <ele>179.402978</ele>
        <time>2026-08-28T19:33:48Z</time>
      </trkpt>
      <trkpt lat="43.78517" lon="1.80278">
        <ele>179.473126</ele>
        <time>2026-08-28T19:33:49Z</time>
      </trkpt>
      <trkpt lat="43.78521" lon="1.80283">
        <ele>179.545195</ele>
        <time>2026-08-28T19:33:50Z</time>
      </trkpt>
      <trkpt lat="43.78525" lon="1.80287">
        <ele>179.616399</ele>
        <time>2026-08-28T19:33:51Z</time>
      </trkpt>
      <trkpt lat="43.78529" lon="1.80292">
        <ele>179.678981</ele>
        <time>2026-08-28T19:33:52Z</time>
      </trkpt>
      <trkpt lat="43.78532" lon="1.80297">
        <ele>179.698929</ele>
        <time>2026-08-28T19:33:53Z</time>
      </trkpt>
      <trkpt lat="43.78536" lon="1.80303">
        <ele>179.718421</ele>
        <time>2026-08-28T19:33:54Z</time>
      </trkpt>
      <trkpt lat="43.7854" lon="1.80307">
        <ele>179.737352</ele>
        <time>2026-08-28T19:33:55Z</time>
      </trkpt>
      <trkpt lat="43.78543" lon="1.80311">
        <ele>179.752568</ele>
        <time>2026-08-28T19:33:56Z</time>
      </trkpt>
      <trkpt lat="43.78545" lon="1.80314">
        <ele>179.762355</ele>
        <time>2026-08-28T19:33:57Z</time>
      </trkpt>
      <trkpt lat="43.78545" lon="1.80315">
        <ele>179.765888</ele>
        <time>2026-08-28T19:33:58Z</time>
      </trkpt>
      <trkpt lat="43.78545" lon="1.80315">
        <ele>179.767775</ele>
        <time>2026-08-28T19:33:59Z</time>
      </trkpt>
      <trkpt lat="43.78545" lon="1.80315">
        <ele>179.768045</ele>
        <time>2026-08-28T19:34:00Z</time>
      </trkpt>
      <trkpt lat="43.78546" lon="1.80316">
        <ele>179.77271</ele>
        <time>2026-08-28T19:34:34Z</time>
      </trkpt>
      <trkpt lat="43.78548" lon="1.80319">
        <ele>179.781855</ele>
        <time>2026-08-28T19:34:35Z</time>
      </trkpt>
      <trkpt lat="43.7855" lon="1.80322">
        <ele>179.792668</ele>
        <time>2026-08-28T19:34:36Z</time>
      </trkpt>
      <trkpt lat="43.78552" lon="1.80324">
        <ele>179.803825</ele>
        <time>2026-08-28T19:34:37Z</time>
      </trkpt>
      <trkpt lat="43.78555" lon="1.80328">
        <ele>179.816191</ele>
        <time>2026-08-28T19:34:38Z</time>
      </trkpt>
      <trkpt lat="43.78557" lon="1.80331">
        <ele>179.829544</ele>
        <time>2026-08-28T19:34:39Z</time>
      </trkpt>
      <trkpt lat="43.7856" lon="1.80335">
        <ele>179.842755</ele>
        <time>2026-08-28T19:34:40Z</time>
      </trkpt>
      <trkpt lat="43.78562" lon="1.80338">
        <ele>179.855651</ele>
        <time>2026-08-28T19:34:41Z</time>
      </trkpt>
      <trkpt lat="43.78565" lon="1.80341">
        <ele>179.869278</ele>
        <time>2026-08-28T19:34:42Z</time>
      </trkpt>
      <trkpt lat="43.78568" lon="1.80344">
        <ele>179.88199</ele>
        <time>2026-08-28T19:34:43Z</time>
      </trkpt>
      <trkpt lat="43.7857" lon="1.80348">
        <ele>179.895074</ele>
        <time>2026-08-28T19:34:44Z</time>
      </trkpt>
      <trkpt lat="43.78573" lon="1.80351">
        <ele>179.908802</ele>
        <time>2026-08-28T19:34:45Z</time>
      </trkpt>
      <trkpt lat="43.78575" lon="1.80355">
        <ele>179.922155</ele>
        <time>2026-08-28T19:34:46Z</time>
      </trkpt>
      <trkpt lat="43.78578" lon="1.80358">
        <ele>179.936802</ele>
        <time>2026-08-28T19:34:47Z</time>
      </trkpt>
      <trkpt lat="43.78581" lon="1.80362">
        <ele>179.951803</ele>
        <time>2026-08-28T19:34:48Z</time>
      </trkpt>
      <trkpt lat="43.78584" lon="1.80365">
        <ele>179.967085</ele>
        <time>2026-08-28T19:34:49Z</time>
      </trkpt>
      <trkpt lat="43.78587" lon="1.80369">
        <ele>179.982366</ele>
        <time>2026-08-28T19:34:50Z</time>
      </trkpt>
      <trkpt lat="43.78591" lon="1.80373">
        <ele>179.998463</ele>
        <time>2026-08-28T19:34:51Z</time>
      </trkpt>
      <trkpt lat="43.78594" lon="1.80377">
        <ele>180.013644</ele>
        <time>2026-08-28T19:34:52Z</time>
      </trkpt>
      <trkpt lat="43.78597" lon="1.80381">
        <ele>180.029561</ele>
        <time>2026-08-28T19:34:53Z</time>
      </trkpt>
      <trkpt lat="43.786" lon="1.80385">
        <ele>180.04502</ele>
        <time>2026-08-28T19:34:54Z</time>
      </trkpt>
      <trkpt lat="43.78603" lon="1.80388">
        <ele>180.060126</ele>
        <time>2026-08-28T19:34:55Z</time>
      </trkpt>
      <trkpt lat="43.78606" lon="1.80392">
        <ele>180.075308</ele>
        <time>2026-08-28T19:34:56Z</time>
      </trkpt>
      <trkpt lat="43.78609" lon="1.80396">
        <ele>180.090031</ele>
        <time>2026-08-28T19:34:57Z</time>
      </trkpt>
      <trkpt lat="43.78612" lon="1.804">
        <ele>180.105396</ele>
        <time>2026-08-28T19:34:58Z</time>
      </trkpt>
      <trkpt lat="43.78615" lon="1.80404">
        <ele>180.121313</ele>
        <time>2026-08-28T19:34:59Z</time>
      </trkpt>
      <trkpt lat="43.78618" lon="1.80407">
        <ele>180.137512</ele>
        <time>2026-08-28T19:35:00Z</time>
      </trkpt>
      <trkpt lat="43.78622" lon="1.80411">
        <ele>180.153253</ele>
        <time>2026-08-28T19:35:01Z</time>
      </trkpt>
      <trkpt lat="43.78625" lon="1.80415">
        <ele>180.168434</ele>
        <time>2026-08-28T19:35:02Z</time>
      </trkpt>
      <trkpt lat="43.78628" lon="1.80419">
        <ele>180.184072</ele>
        <time>2026-08-28T19:35:03Z</time>
      </trkpt>
      <trkpt lat="43.78631" lon="1.80423">
        <ele>180.200266</ele>
        <time>2026-08-28T19:35:04Z</time>
      </trkpt>
      <trkpt lat="43.78634" lon="1.80427">
        <ele>180.216004</ele>
        <time>2026-08-28T19:35:05Z</time>
      </trkpt>
      <trkpt lat="43.78637" lon="1.80431">
        <ele>180.231065</ele>
        <time>2026-08-28T19:35:06Z</time>
      </trkpt>
      <trkpt lat="43.7864" lon="1.80434">
        <ele>180.247212</ele>
        <time>2026-08-28T19:35:07Z</time>
      </trkpt>
      <trkpt lat="43.78644" lon="1.80438">
        <ele>180.263697</ele>
        <time>2026-08-28T19:35:08Z</time>
      </trkpt>
      <trkpt lat="43.78647" lon="1.80442">
        <ele>180.280355</ele>
        <time>2026-08-28T19:35:09Z</time>
      </trkpt>
      <trkpt lat="43.78651" lon="1.80446">
        <ele>180.296381</ele>
        <time>2026-08-28T19:35:10Z</time>
      </trkpt>
      <trkpt lat="43.78654" lon="1.80449">
        <ele>180.312355</ele>
        <time>2026-08-28T19:35:11Z</time>
      </trkpt>
      <trkpt lat="43.78657" lon="1.80453">
        <ele>180.32775</ele>
        <time>2026-08-28T19:35:12Z</time>
      </trkpt>
      <trkpt lat="43.7866" lon="1.80456">
        <ele>180.341938</ele>
        <time>2026-08-28T19:35:13Z</time>
      </trkpt>
      <trkpt lat="43.78663" lon="1.8046">
        <ele>180.336081</ele>
        <time>2026-08-28T19:35:14Z</time>
      </trkpt>
      <trkpt lat="43.78666" lon="1.80462">
        <ele>180.321734</ele>
        <time>2026-08-28T19:35:15Z</time>
      </trkpt>
      <trkpt lat="43.7867" lon="1.80462">
        <ele>180.306469</ele>
        <time>2026-08-28T19:35:16Z</time>
      </trkpt>
      <trkpt lat="43.78673" lon="1.80461">
        <ele>180.293119</ele>
        <time>2026-08-28T19:35:17Z</time>
      </trkpt>
      <trkpt lat="43.78675" lon="1.80457">
        <ele>180.279094</ele>
        <time>2026-08-28T19:35:18Z</time>
      </trkpt>
      <trkpt lat="43.78677" lon="1.80454">
        <ele>180.266881</ele>
        <time>2026-08-28T19:35:19Z</time>
      </trkpt>
      <trkpt lat="43.78679" lon="1.80452">
        <ele>180.254653</ele>
        <time>2026-08-28T19:35:20Z</time>
      </trkpt>
      <trkpt lat="43.78682" lon="1.80449">
        <ele>180.240585</ele>
        <time>2026-08-28T19:35:21Z</time>
      </trkpt>
      <trkpt lat="43.78685" lon="1.80446">
        <ele>180.225555</ele>
        <time>2026-08-28T19:35:22Z</time>
      </trkpt>
      <trkpt lat="43.78688" lon="1.80442">
        <ele>180.210725</ele>
        <time>2026-08-28T19:35:23Z</time>
      </trkpt>
      <trkpt lat="43.7869" lon="1.80439">
        <ele>180.195792</ele>
        <time>2026-08-28T19:35:24Z</time>
      </trkpt>
      <trkpt lat="43.78693" lon="1.80435">
        <ele>180.180505</ele>
        <time>2026-08-28T19:35:25Z</time>
      </trkpt>
      <trkpt lat="43.78696" lon="1.80431">
        <ele>180.163008</ele>
        <time>2026-08-28T19:35:26Z</time>
      </trkpt>
      <trkpt lat="43.78698" lon="1.80427">
        <ele>180.146227</ele>
        <time>2026-08-28T19:35:27Z</time>
      </trkpt>
      <trkpt lat="43.78701" lon="1.80423">
        <ele>180.131587</ele>
        <time>2026-08-28T19:35:28Z</time>
      </trkpt>
      <trkpt lat="43.78704" lon="1.80419">
        <ele>180.114939</ele>
        <time>2026-08-28T19:35:29Z</time>
      </trkpt>
      <trkpt lat="43.78706" lon="1.80415">
        <ele>180.098261</ele>
        <time>2026-08-28T19:35:30Z</time>
      </trkpt>
      <trkpt lat="43.78709" lon="1.8041">
        <ele>180.081385</ele>
        <time>2026-08-28T19:35:31Z</time>
      </trkpt>
      <trkpt lat="43.78711" lon="1.80406">
        <ele>180.065226</ele>
        <time>2026-08-28T19:35:32Z</time>
      </trkpt>
      <trkpt lat="43.78713" lon="1.80401">
        <ele>180.047864</ele>
        <time>2026-08-28T19:35:33Z</time>
      </trkpt>
      <trkpt lat="43.78716" lon="1.80396">
        <ele>180.02809</ele>
        <time>2026-08-28T19:35:34Z</time>
      </trkpt>
      <trkpt lat="43.78719" lon="1.8039">
        <ele>180.007343</ele>
        <time>2026-08-28T19:35:35Z</time>
      </trkpt>
      <trkpt lat="43.78722" lon="1.80385">
        <ele>179.988503</ele>
        <time>2026-08-28T19:35:36Z</time>
      </trkpt>
      <trkpt lat="43.78725" lon="1.80381">
        <ele>179.969663</ele>
        <time>2026-08-28T19:35:37Z</time>
      </trkpt>
      <trkpt lat="43.78728" lon="1.80376">
        <ele>179.951667</ele>
        <time>2026-08-28T19:35:38Z</time>
      </trkpt>
      <trkpt lat="43.78731" lon="1.80372">
        <ele>179.934886</ele>
        <time>2026-08-28T19:35:39Z</time>
      </trkpt>
      <trkpt lat="43.78734" lon="1.80368">
        <ele>179.917318</ele>
        <time>2026-08-28T19:35:40Z</time>
      </trkpt>
      <trkpt lat="43.78737" lon="1.80364">
        <ele>179.900596</ele>
        <time>2026-08-28T19:35:41Z</time>
      </trkpt>
      <trkpt lat="43.7874" lon="1.80359">
        <ele>179.883315</ele>
        <time>2026-08-28T19:35:42Z</time>
      </trkpt>
      <trkpt lat="43.78742" lon="1.80356">
        <ele>179.86932</ele>
        <time>2026-08-28T19:35:43Z</time>
      </trkpt>
      <trkpt lat="43.78744" lon="1.80352">
        <ele>179.853967</ele>
        <time>2026-08-28T19:35:44Z</time>
      </trkpt>
      <trkpt lat="43.78747" lon="1.80348">
        <ele>179.836399</ele>
        <time>2026-08-28T19:35:45Z</time>
      </trkpt>
      <trkpt lat="43.7875" lon="1.80343">
        <ele>179.818793</ele>
        <time>2026-08-28T19:35:46Z</time>
      </trkpt>
      <trkpt lat="43.78753" lon="1.80338">
        <ele>179.799723</ele>
        <time>2026-08-28T19:35:47Z</time>
      </trkpt>
      <trkpt lat="43.78755" lon="1.80333">
        <ele>179.782124</ele>
        <time>2026-08-28T19:35:48Z</time>
      </trkpt>
      <trkpt lat="43.78758" lon="1.80329">
        <ele>179.764843</ele>
        <time>2026-08-28T19:35:49Z</time>
      </trkpt>
      <trkpt lat="43.78761" lon="1.80325">
        <ele>179.74949</ele>
        <time>2026-08-28T19:35:50Z</time>
      </trkpt>
      <trkpt lat="43.78763" lon="1.80322">
        <ele>179.736631</ele>
        <time>2026-08-28T19:35:51Z</time>
      </trkpt>
      <trkpt lat="43.78765" lon="1.80319">
        <ele>179.722502</ele>
        <time>2026-08-28T19:35:52Z</time>
      </trkpt>
      <trkpt lat="43.78768" lon="1.80316">
        <ele>179.709576</ele>
        <time>2026-08-28T19:35:53Z</time>
      </trkpt>
      <trkpt lat="43.7877" lon="1.80313">
        <ele>179.695223</ele>
        <time>2026-08-28T19:35:54Z</time>
      </trkpt>
      <trkpt lat="43.78772" lon="1.80309">
        <ele>179.68074</ele>
        <time>2026-08-28T19:35:55Z</time>
      </trkpt>
      <trkpt lat="43.78775" lon="1.80304">
        <ele>179.664587</ele>
        <time>2026-08-28T19:35:56Z</time>
      </trkpt>
      <trkpt lat="43.78777" lon="1.803">
        <ele>179.648426</ele>
        <time>2026-08-28T19:35:57Z</time>
      </trkpt>
      <trkpt lat="43.7878" lon="1.80296">
        <ele>179.632859</ele>
        <time>2026-08-28T19:35:58Z</time>
      </trkpt>
      <trkpt lat="43.78782" lon="1.80293">
        <ele>179.61662</ele>
        <time>2026-08-28T19:35:59Z</time>
      </trkpt>
      <trkpt lat="43.78785" lon="1.80289">
        <ele>179.593229</ele>
        <time>2026-08-28T19:36:00Z</time>
      </trkpt>
      <trkpt lat="43.78787" lon="1.80284">
        <ele>179.546655</ele>
        <time>2026-08-28T19:36:01Z</time>
      </trkpt>
      <trkpt lat="43.7879" lon="1.8028">
        <ele>179.50133</ele>
        <time>2026-08-28T19:36:02Z</time>
      </trkpt>
      <trkpt lat="43.78792" lon="1.80276">
        <ele>179.454041</ele>
        <time>2026-08-28T19:36:03Z</time>
      </trkpt>
      <trkpt lat="43.78795" lon="1.80272">
        <ele>179.404957</ele>
        <time>2026-08-28T19:36:04Z</time>
      </trkpt>
      <trkpt lat="43.78799" lon="1.80267">
        <ele>179.350227</ele>
        <time>2026-08-28T19:36:05Z</time>
      </trkpt>
      <trkpt lat="43.78802" lon="1.80263">
        <ele>179.295458</ele>
        <time>2026-08-28T19:36:06Z</time>
      </trkpt>
      <trkpt lat="43.78806" lon="1.80258">
        <ele>179.236414</ele>
        <time>2026-08-28T19:36:07Z</time>
      </trkpt>
      <trkpt lat="43.78809" lon="1.80253">
        <ele>179.175566</ele>
        <time>2026-08-28T19:36:08Z</time>
      </trkpt>
      <trkpt lat="43.78813" lon="1.80247">
        <ele>179.110481</ele>
        <time>2026-08-28T19:36:09Z</time>
      </trkpt>
      <trkpt lat="43.78816" lon="1.80241">
        <ele>179.043837</ele>
        <time>2026-08-28T19:36:10Z</time>
      </trkpt>
      <trkpt lat="43.78819" lon="1.80235">
        <ele>178.983579</ele>
        <time>2026-08-28T19:36:11Z</time>
      </trkpt>
      <trkpt lat="43.78823" lon="1.80229">
        <ele>178.92121</ele>
        <time>2026-08-28T19:36:12Z</time>
      </trkpt>
      <trkpt lat="43.78826" lon="1.80224">
        <ele>178.865547</ele>
        <time>2026-08-28T19:36:13Z</time>
      </trkpt>
      <trkpt lat="43.78829" lon="1.80219">
        <ele>178.812105</ele>
        <time>2026-08-28T19:36:14Z</time>
      </trkpt>
      <trkpt lat="43.78832" lon="1.80213">
        <ele>178.748777</ele>
        <time>2026-08-28T19:36:15Z</time>
      </trkpt>
      <trkpt lat="43.78836" lon="1.80208">
        <ele>178.68651</ele>
        <time>2026-08-28T19:36:16Z</time>
      </trkpt>
      <trkpt lat="43.7884" lon="1.80203">
        <ele>178.618312</ele>
        <time>2026-08-28T19:36:17Z</time>
      </trkpt>
      <trkpt lat="43.78844" lon="1.80197">
        <ele>178.553802</ele>
        <time>2026-08-28T19:36:18Z</time>
      </trkpt>
      <trkpt lat="43.78848" lon="1.80191">
        <ele>178.484986</ele>
        <time>2026-08-28T19:36:19Z</time>
      </trkpt>
      <trkpt lat="43.78852" lon="1.80186">
        <ele>178.41938</ele>
        <time>2026-08-28T19:36:20Z</time>
      </trkpt>
      <trkpt lat="43.78856" lon="1.8018">
        <ele>178.356504</ele>
        <time>2026-08-28T19:36:21Z</time>
      </trkpt>
      <trkpt lat="43.78859" lon="1.80175">
        <ele>178.298895</ele>
        <time>2026-08-28T19:36:22Z</time>
      </trkpt>
      <trkpt lat="43.78863" lon="1.80169">
        <ele>178.234783</ele>
        <time>2026-08-28T19:36:23Z</time>
      </trkpt>
      <trkpt lat="43.78866" lon="1.80165">
        <ele>178.178918</ele>
        <time>2026-08-28T19:36:24Z</time>
      </trkpt>
      <trkpt lat="43.7887" lon="1.80161">
        <ele>178.126476</ele>
        <time>2026-08-28T19:36:25Z</time>
      </trkpt>
      <trkpt lat="43.78873" lon="1.80157">
        <ele>178.071569</ele>
        <time>2026-08-28T19:36:26Z</time>
      </trkpt>
      <trkpt lat="43.78877" lon="1.80153">
        <ele>178.015404</ele>
        <time>2026-08-28T19:36:27Z</time>
      </trkpt>
      <trkpt lat="43.7888" lon="1.80148">
        <ele>177.959424</ele>
        <time>2026-08-28T19:36:28Z</time>
      </trkpt>
      <trkpt lat="43.78883" lon="1.80144">
        <ele>177.911294</ele>
        <time>2026-08-28T19:36:29Z</time>
      </trkpt>
      <trkpt lat="43.78886" lon="1.80139">
        <ele>177.855077</ele>
        <time>2026-08-28T19:36:30Z</time>
      </trkpt>
      <trkpt lat="43.78889" lon="1.80133">
        <ele>177.796147</ele>
        <time>2026-08-28T19:36:31Z</time>
      </trkpt>
      <trkpt lat="43.78892" lon="1.80128">
        <ele>177.739192</ele>
        <time>2026-08-28T19:36:32Z</time>
      </trkpt>
      <trkpt lat="43.78895" lon="1.80122">
        <ele>177.678934</ele>
        <time>2026-08-28T19:36:33Z</time>
      </trkpt>
      <trkpt lat="43.78898" lon="1.80116">
        <ele>177.615009</ele>
        <time>2026-08-28T19:36:34Z</time>
      </trkpt>
      <trkpt lat="43.78901" lon="1.80109">
        <ele>177.552406</ele>
        <time>2026-08-28T19:36:35Z</time>
      </trkpt>
      <trkpt lat="43.78904" lon="1.80103">
        <ele>177.487968</ele>
        <time>2026-08-28T19:36:36Z</time>
      </trkpt>
      <trkpt lat="43.78907" lon="1.80098">
        <ele>177.425461</ele>
        <time>2026-08-28T19:36:37Z</time>
      </trkpt>
      <trkpt lat="43.7891" lon="1.80093">
        <ele>177.362814</ele>
        <time>2026-08-28T19:36:38Z</time>
      </trkpt>
      <trkpt lat="43.78913" lon="1.80088">
        <ele>177.299299</ele>
        <time>2026-08-28T19:36:39Z</time>
      </trkpt>
      <trkpt lat="43.78916" lon="1.80083">
        <ele>177.238432</ele>
        <time>2026-08-28T19:36:40Z</time>
      </trkpt>
      <trkpt lat="43.78919" lon="1.80078">
        <ele>177.182118</ele>
        <time>2026-08-28T19:36:41Z</time>
      </trkpt>
      <trkpt lat="43.78922" lon="1.80074">
        <ele>177.129881</ele>
        <time>2026-08-28T19:36:42Z</time>
      </trkpt>
      <trkpt lat="43.78925" lon="1.80071">
        <ele>177.075964</ele>
        <time>2026-08-28T19:36:43Z</time>
      </trkpt>
      <trkpt lat="43.78928" lon="1.80068">
        <ele>177.025972</ele>
        <time>2026-08-28T19:36:44Z</time>
      </trkpt>
      <trkpt lat="43.78932" lon="1.80065">
        <ele>176.975075</ele>
        <time>2026-08-28T19:36:45Z</time>
      </trkpt>
      <trkpt lat="43.78935" lon="1.80062">
        <ele>176.920941</ele>
        <time>2026-08-28T19:36:46Z</time>
      </trkpt>
      <trkpt lat="43.78939" lon="1.80058">
        <ele>176.859405</ele>
        <time>2026-08-28T19:36:47Z</time>
      </trkpt>
      <trkpt lat="43.78942" lon="1.80053">
        <ele>176.79357</ele>
        <time>2026-08-28T19:36:48Z</time>
      </trkpt>
      <trkpt lat="43.78946" lon="1.80048">
        <ele>176.728792</ele>
        <time>2026-08-28T19:36:49Z</time>
      </trkpt>
      <trkpt lat="43.78948" lon="1.80042">
        <ele>176.666434</ele>
        <time>2026-08-28T19:36:50Z</time>
      </trkpt>
      <trkpt lat="43.78951" lon="1.80036">
        <ele>176.603299</ele>
        <time>2026-08-28T19:36:51Z</time>
      </trkpt>
      <trkpt lat="43.78954" lon="1.80031">
        <ele>176.540199</ele>
        <time>2026-08-28T19:36:52Z</time>
      </trkpt>
      <trkpt lat="43.78957" lon="1.80027">
        <ele>176.484341</ele>
        <time>2026-08-28T19:36:53Z</time>
      </trkpt>
      <trkpt lat="43.7896" lon="1.80022">
        <ele>176.427209</ele>
        <time>2026-08-28T19:36:54Z</time>
      </trkpt>
      <trkpt lat="43.78962" lon="1.80018">
        <ele>176.375179</ele>
        <time>2026-08-28T19:36:55Z</time>
      </trkpt>
      <trkpt lat="43.78965" lon="1.80013">
        <ele>176.318165</ele>
        <time>2026-08-28T19:36:56Z</time>
      </trkpt>
      <trkpt lat="43.78968" lon="1.80008">
        <ele>176.261115</ele>
        <time>2026-08-28T19:36:57Z</time>
      </trkpt>
      <trkpt lat="43.7897" lon="1.80003">
        <ele>176.206381</ele>
        <time>2026-08-28T19:36:58Z</time>
      </trkpt>
      <trkpt lat="43.78972" lon="1.79999">
        <ele>176.152281</ele>
        <time>2026-08-28T19:36:59Z</time>
      </trkpt>
      <trkpt lat="43.78975" lon="1.79994">
        <ele>176.103601</ele>
        <time>2026-08-28T19:37:00Z</time>
      </trkpt>
      <trkpt lat="43.78978" lon="1.7999">
        <ele>176.047536</ele>
        <time>2026-08-28T19:37:01Z</time>
      </trkpt>
      <trkpt lat="43.7898" lon="1.79985">
        <ele>175.990486</ele>
        <time>2026-08-28T19:37:02Z</time>
      </trkpt>
      <trkpt lat="43.78983" lon="1.7998">
        <ele>175.928694</ele>
        <time>2026-08-28T19:37:03Z</time>
      </trkpt>
      <trkpt lat="43.78987" lon="1.79976">
        <ele>175.862171</ele>
        <time>2026-08-28T19:37:04Z</time>
      </trkpt>
      <trkpt lat="43.78991" lon="1.7997">
        <ele>175.785392</ele>
        <time>2026-08-28T19:37:05Z</time>
      </trkpt>
      <trkpt lat="43.78996" lon="1.79963">
        <ele>175.696978</ele>
        <time>2026-08-28T19:37:06Z</time>
      </trkpt>
      <trkpt lat="43.79001" lon="1.79957">
        <ele>175.605319</ele>
        <time>2026-08-28T19:37:07Z</time>
      </trkpt>
      <trkpt lat="43.79006" lon="1.7995">
        <ele>175.518496</ele>
        <time>2026-08-28T19:37:08Z</time>
      </trkpt>
      <trkpt lat="43.79011" lon="1.79944">
        <ele>175.431672</ele>
        <time>2026-08-28T19:37:09Z</time>
      </trkpt>
      <trkpt lat="43.79016" lon="1.79939">
        <ele>175.354351</ele>
        <time>2026-08-28T19:37:10Z</time>
      </trkpt>
      <trkpt lat="43.7902" lon="1.79934">
        <ele>175.283037</ele>
        <time>2026-08-28T19:37:11Z</time>
      </trkpt>
      <trkpt lat="43.79023" lon="1.79928">
        <ele>175.218976</ele>
        <time>2026-08-28T19:37:12Z</time>
      </trkpt>
      <trkpt lat="43.79026" lon="1.79922">
        <ele>175.169525</ele>
        <time>2026-08-28T19:37:13Z</time>
      </trkpt>
      <trkpt lat="43.79029" lon="1.79916">
        <ele>175.188052</ele>
        <time>2026-08-28T19:37:14Z</time>
      </trkpt>
      <trkpt lat="43.79032" lon="1.79911">
        <ele>175.205552</ele>
        <time>2026-08-28T19:37:15Z</time>
      </trkpt>
      <trkpt lat="43.79035" lon="1.79905">
        <ele>175.22264</ele>
        <time>2026-08-28T19:37:16Z</time>
      </trkpt>
      <trkpt lat="43.79038" lon="1.799">
        <ele>175.23851</ele>
        <time>2026-08-28T19:37:17Z</time>
      </trkpt>
      <trkpt lat="43.7904" lon="1.79896">
        <ele>175.252196</ele>
        <time>2026-08-28T19:37:18Z</time>
      </trkpt>
      <trkpt lat="43.79043" lon="1.79893">
        <ele>175.265132</ele>
        <time>2026-08-28T19:37:19Z</time>
      </trkpt>
      <trkpt lat="43.79046" lon="1.79888">
        <ele>175.281044</ele>
        <time>2026-08-28T19:37:20Z</time>
      </trkpt>
      <trkpt lat="43.79049" lon="1.79884">
        <ele>175.295425</ele>
        <time>2026-08-28T19:37:21Z</time>
      </trkpt>
      <trkpt lat="43.79052" lon="1.7988">
        <ele>175.310553</ele>
        <time>2026-08-28T19:37:22Z</time>
      </trkpt>
      <trkpt lat="43.79055" lon="1.79875">
        <ele>175.325814</ele>
        <time>2026-08-28T19:37:23Z</time>
      </trkpt>
      <trkpt lat="43.79058" lon="1.79871">
        <ele>175.341835</ele>
        <time>2026-08-28T19:37:24Z</time>
      </trkpt>
      <trkpt lat="43.79061" lon="1.79865">
        <ele>175.357904</ele>
        <time>2026-08-28T19:37:25Z</time>
      </trkpt>
      <trkpt lat="43.79064" lon="1.7986">
        <ele>175.374987</ele>
        <time>2026-08-28T19:37:26Z</time>
      </trkpt>
      <trkpt lat="43.79067" lon="1.79854">
        <ele>175.391876</ele>
        <time>2026-08-28T19:37:27Z</time>
      </trkpt>
      <trkpt lat="43.79069" lon="1.79849">
        <ele>175.407945</ele>
        <time>2026-08-28T19:37:28Z</time>
      </trkpt>
      <trkpt lat="43.79072" lon="1.79844">
        <ele>175.422586</ele>
        <time>2026-08-28T19:37:29Z</time>
      </trkpt>
      <trkpt lat="43.79074" lon="1.7984">
        <ele>175.437227</ele>
        <time>2026-08-28T19:37:30Z</time>
      </trkpt>
      <trkpt lat="43.79077" lon="1.79835">
        <ele>175.450858</ele>
        <time>2026-08-28T19:37:31Z</time>
      </trkpt>
      <trkpt lat="43.79079" lon="1.79831">
        <ele>175.465341</ele>
        <time>2026-08-28T19:37:32Z</time>
      </trkpt>
      <trkpt lat="43.79082" lon="1.79826">
        <ele>175.480209</ele>
        <time>2026-08-28T19:37:33Z</time>
      </trkpt>
      <trkpt lat="43.79085" lon="1.79822">
        <ele>175.495571</ele>
        <time>2026-08-28T19:37:34Z</time>
      </trkpt>
      <trkpt lat="43.79088" lon="1.79818">
        <ele>175.51131</ele>
        <time>2026-08-28T19:37:35Z</time>
      </trkpt>
      <trkpt lat="43.79092" lon="1.79814">
        <ele>175.526284</ele>
        <time>2026-08-28T19:37:36Z</time>
      </trkpt>
      <trkpt lat="43.79095" lon="1.79809">
        <ele>175.542066</ele>
        <time>2026-08-28T19:37:37Z</time>
      </trkpt>
      <trkpt lat="43.79098" lon="1.79804">
        <ele>175.557847</ele>
        <time>2026-08-28T19:37:38Z</time>
      </trkpt>
      <trkpt lat="43.79101" lon="1.798">
        <ele>175.573353</ele>
        <time>2026-08-28T19:37:39Z</time>
      </trkpt>
      <trkpt lat="43.79104" lon="1.79795">
        <ele>175.5889</ele>
        <time>2026-08-28T19:37:40Z</time>
      </trkpt>
      <trkpt lat="43.79107" lon="1.79791">
        <ele>175.604319</ele>
        <time>2026-08-28T19:37:41Z</time>
      </trkpt>
      <trkpt lat="43.7911" lon="1.79786">
        <ele>175.619635</ele>
        <time>2026-08-28T19:37:42Z</time>
      </trkpt>
      <trkpt lat="43.79113" lon="1.79782">
        <ele>175.636396</ele>
        <time>2026-08-28T19:37:43Z</time>
      </trkpt>
      <trkpt lat="43.79117" lon="1.79777">
        <ele>175.65266</ele>
        <time>2026-08-28T19:37:44Z</time>
      </trkpt>
      <trkpt lat="43.7912" lon="1.79773">
        <ele>175.668399</ele>
        <time>2026-08-28T19:37:45Z</time>
      </trkpt>
      <trkpt lat="43.79123" lon="1.79768">
        <ele>175.684311</ele>
        <time>2026-08-28T19:37:46Z</time>
      </trkpt>
      <trkpt lat="43.79126" lon="1.79764">
        <ele>175.698706</ele>
        <time>2026-08-28T19:37:47Z</time>
      </trkpt>
      <trkpt lat="43.79129" lon="1.79759">
        <ele>175.715092</ele>
        <time>2026-08-28T19:37:48Z</time>
      </trkpt>
      <trkpt lat="43.79132" lon="1.79754">
        <ele>175.730982</ele>
        <time>2026-08-28T19:37:49Z</time>
      </trkpt>
      <trkpt lat="43.79135" lon="1.7975">
        <ele>175.745924</ele>
        <time>2026-08-28T19:37:50Z</time>
      </trkpt>
      <trkpt lat="43.79137" lon="1.79746">
        <ele>175.758968</ele>
        <time>2026-08-28T19:37:51Z</time>
      </trkpt>
      <trkpt lat="43.7914" lon="1.79742">
        <ele>175.773228</ele>
        <time>2026-08-28T19:37:52Z</time>
      </trkpt>
      <trkpt lat="43.79142" lon="1.79738">
        <ele>175.785444</ele>
        <time>2026-08-28T19:37:53Z</time>
      </trkpt>
      <trkpt lat="43.79144" lon="1.79735">
        <ele>175.809591</ele>
        <time>2026-08-28T19:37:54Z</time>
      </trkpt>
      <trkpt lat="43.79146" lon="1.79732">
        <ele>175.837067</ele>
        <time>2026-08-28T19:37:55Z</time>
      </trkpt>
      <trkpt lat="43.79148" lon="1.79729">
        <ele>175.869112</ele>
        <time>2026-08-28T19:37:56Z</time>
      </trkpt>
      <trkpt lat="43.7915" lon="1.79724">
        <ele>175.91392</ele>
        <time>2026-08-28T19:37:57Z</time>
      </trkpt>
      <trkpt lat="43.79153" lon="1.7972">
        <ele>175.953707</ele>
        <time>2026-08-28T19:37:58Z</time>
      </trkpt>
      <trkpt lat="43.79155" lon="1.79716">
        <ele>175.998616</ele>
        <time>2026-08-28T19:37:59Z</time>
      </trkpt>
      <trkpt lat="43.79158" lon="1.79712">
        <ele>176.044414</ele>
        <time>2026-08-28T19:38:00Z</time>
      </trkpt>
      <trkpt lat="43.79161" lon="1.79708">
        <ele>176.08992</ele>
        <time>2026-08-28T19:38:01Z</time>
      </trkpt>
      <trkpt lat="43.79164" lon="1.79703">
        <ele>176.137335</ele>
        <time>2026-08-28T19:38:02Z</time>
      </trkpt>
      <trkpt lat="43.79167" lon="1.79699">
        <ele>176.180488</ele>
        <time>2026-08-28T19:38:03Z</time>
      </trkpt>
      <trkpt lat="43.79169" lon="1.79695">
        <ele>176.222504</ele>
        <time>2026-08-28T19:38:04Z</time>
      </trkpt>
      <trkpt lat="43.79172" lon="1.79691">
        <ele>176.262887</ele>
        <time>2026-08-28T19:38:05Z</time>
      </trkpt>
      <trkpt lat="43.79174" lon="1.79687">
        <ele>176.304145</ele>
        <time>2026-08-28T19:38:06Z</time>
      </trkpt>
      <trkpt lat="43.79177" lon="1.79684">
        <ele>176.345402</ele>
        <time>2026-08-28T19:38:07Z</time>
      </trkpt>
      <trkpt lat="43.79179" lon="1.79679">
        <ele>176.388298</ele>
        <time>2026-08-28T19:38:08Z</time>
      </trkpt>
      <trkpt lat="43.79182" lon="1.79675">
        <ele>176.432392</ele>
        <time>2026-08-28T19:38:09Z</time>
      </trkpt>
      <trkpt lat="43.79184" lon="1.79671">
        <ele>176.473987</ele>
        <time>2026-08-28T19:38:10Z</time>
      </trkpt>
      <trkpt lat="43.79186" lon="1.79666">
        <ele>176.515519</ele>
        <time>2026-08-28T19:38:11Z</time>
      </trkpt>
      <trkpt lat="43.79189" lon="1.79663">
        <ele>176.561231</ele>
        <time>2026-08-28T19:38:12Z</time>
      </trkpt>
      <trkpt lat="43.79192" lon="1.79658">
        <ele>176.604963</ele>
        <time>2026-08-28T19:38:13Z</time>
      </trkpt>
      <trkpt lat="43.79195" lon="1.79654">
        <ele>176.652655</ele>
        <time>2026-08-28T19:38:14Z</time>
      </trkpt>
      <trkpt lat="43.79198" lon="1.7965">
        <ele>176.695999</ele>
        <time>2026-08-28T19:38:15Z</time>
      </trkpt>
      <trkpt lat="43.79201" lon="1.79646">
        <ele>176.74237</ele>
        <time>2026-08-28T19:38:16Z</time>
      </trkpt>
      <trkpt lat="43.79204" lon="1.79642">
        <ele>176.789703</ele>
        <time>2026-08-28T19:38:17Z</time>
      </trkpt>
      <trkpt lat="43.79206" lon="1.79638">
        <ele>176.830392</ele>
        <time>2026-08-28T19:38:18Z</time>
      </trkpt>
      <trkpt lat="43.79209" lon="1.79634">
        <ele>176.871649</ele>
        <time>2026-08-28T19:38:19Z</time>
      </trkpt>
      <trkpt lat="43.79212" lon="1.79631">
        <ele>176.917501</ele>
        <time>2026-08-28T19:38:20Z</time>
      </trkpt>
      <trkpt lat="43.79215" lon="1.79627">
        <ele>176.958959</ele>
        <time>2026-08-28T19:38:21Z</time>
      </trkpt>
      <trkpt lat="43.79218" lon="1.79623">
        <ele>177.001996</ele>
        <time>2026-08-28T19:38:22Z</time>
      </trkpt>
      <trkpt lat="43.79221" lon="1.7962">
        <ele>177.045652</ele>
        <time>2026-08-28T19:38:23Z</time>
      </trkpt>
      <trkpt lat="43.79224" lon="1.79616">
        <ele>177.090884</ele>
        <time>2026-08-28T19:38:24Z</time>
      </trkpt>
      <trkpt lat="43.79227" lon="1.79611">
        <ele>177.13569</ele>
        <time>2026-08-28T19:38:25Z</time>
      </trkpt>
      <trkpt lat="43.79229" lon="1.79606">
        <ele>177.188102</ele>
        <time>2026-08-28T19:38:26Z</time>
      </trkpt>
      <trkpt lat="43.79232" lon="1.796">
        <ele>177.244401</ele>
        <time>2026-08-28T19:38:27Z</time>
      </trkpt>
      <trkpt lat="43.79235" lon="1.79594">
        <ele>177.2982</ele>
        <time>2026-08-28T19:38:28Z</time>
      </trkpt>
      <trkpt lat="43.79237" lon="1.79589">
        <ele>177.346255</ele>
        <time>2026-08-28T19:38:29Z</time>
      </trkpt>
      <trkpt lat="43.7924" lon="1.79584">
        <ele>177.390455</ele>
        <time>2026-08-28T19:38:30Z</time>
      </trkpt>
      <trkpt lat="43.79242" lon="1.7958">
        <ele>177.435853</ele>
        <time>2026-08-28T19:38:31Z</time>
      </trkpt>
      <trkpt lat="43.79245" lon="1.79575">
        <ele>177.483872</ele>
        <time>2026-08-28T19:38:32Z</time>
      </trkpt>
      <trkpt lat="43.79248" lon="1.7957">
        <ele>177.533648</ele>
        <time>2026-08-28T19:38:33Z</time>
      </trkpt>
      <trkpt lat="43.79251" lon="1.79565">
        <ele>177.587205</ele>
        <time>2026-08-28T19:38:34Z</time>
      </trkpt>
      <trkpt lat="43.79255" lon="1.7956">
        <ele>177.642957</ele>
        <time>2026-08-28T19:38:35Z</time>
      </trkpt>
      <trkpt lat="43.79258" lon="1.79555">
        <ele>177.692545</ele>
        <time>2026-08-28T19:38:36Z</time>
      </trkpt>
      <trkpt lat="43.79261" lon="1.79551">
        <ele>177.740665</ele>
        <time>2026-08-28T19:38:37Z</time>
      </trkpt>
      <trkpt lat="43.79264" lon="1.79547">
        <ele>177.682522</ele>
        <time>2026-08-28T19:38:38Z</time>
      </trkpt>
      <trkpt lat="43.79268" lon="1.79541">
        <ele>177.576151</ele>
        <time>2026-08-28T19:38:39Z</time>
      </trkpt>
      <trkpt lat="43.79271" lon="1.79536">
        <ele>177.469779</ele>
        <time>2026-08-28T19:38:40Z</time>
      </trkpt>
      <trkpt lat="43.79274" lon="1.79531">
        <ele>177.360905</ele>
        <time>2026-08-28T19:38:41Z</time>
      </trkpt>
      <trkpt lat="43.79278" lon="1.79525">
        <ele>177.253142</ele>
        <time>2026-08-28T19:38:42Z</time>
      </trkpt>
      <trkpt lat="43.79282" lon="1.7952">
        <ele>177.140162</ele>
        <time>2026-08-28T19:38:43Z</time>
      </trkpt>
      <trkpt lat="43.79285" lon="1.79516">
        <ele>177.037808</ele>
        <time>2026-08-28T19:38:44Z</time>
      </trkpt>
      <trkpt lat="43.79289" lon="1.7951">
        <ele>176.929358</ele>
        <time>2026-08-28T19:38:45Z</time>
      </trkpt>
      <trkpt lat="43.79293" lon="1.79504">
        <ele>176.80821</ele>
        <time>2026-08-28T19:38:46Z</time>
      </trkpt>
      <trkpt lat="43.79297" lon="1.79499">
        <ele>176.686017</ele>
        <time>2026-08-28T19:38:47Z</time>
      </trkpt>
      <trkpt lat="43.79301" lon="1.79493">
        <ele>176.565904</ele>
        <time>2026-08-28T19:38:48Z</time>
      </trkpt>
      <trkpt lat="43.79305" lon="1.79487">
        <ele>176.447519</ele>
        <time>2026-08-28T19:38:49Z</time>
      </trkpt>
      <trkpt lat="43.79309" lon="1.79481">
        <ele>176.328151</ele>
        <time>2026-08-28T19:38:50Z</time>
      </trkpt>
      <trkpt lat="43.79312" lon="1.79475">
        <ele>176.20761</ele>
        <time>2026-08-28T19:38:51Z</time>
      </trkpt>
      <trkpt lat="43.79316" lon="1.79469">
        <ele>176.09261</ele>
        <time>2026-08-28T19:38:52Z</time>
      </trkpt>
      <trkpt lat="43.79319" lon="1.79462">
        <ele>175.975737</ele>
        <time>2026-08-28T19:38:53Z</time>
      </trkpt>
      <trkpt lat="43.79323" lon="1.79456">
        <ele>175.85766</ele>
        <time>2026-08-28T19:38:54Z</time>
      </trkpt>
      <trkpt lat="43.79327" lon="1.79451">
        <ele>175.744504</ele>
        <time>2026-08-28T19:38:55Z</time>
      </trkpt>
      <trkpt lat="43.79331" lon="1.79445">
        <ele>175.611542</ele>
        <time>2026-08-28T19:38:56Z</time>
      </trkpt>
      <trkpt lat="43.79336" lon="1.79438">
        <ele>175.473424</ele>
        <time>2026-08-28T19:38:57Z</time>
      </trkpt>
      <trkpt lat="43.7934" lon="1.79432">
        <ele>175.337539</ele>
        <time>2026-08-28T19:38:58Z</time>
      </trkpt>
      <trkpt lat="43.79344" lon="1.79424">
        <ele>175.202497</ele>
        <time>2026-08-28T19:38:59Z</time>
      </trkpt>
      <trkpt lat="43.79348" lon="1.79417">
        <ele>175.067384</ele>
        <time>2026-08-28T19:39:00Z</time>
      </trkpt>
      <trkpt lat="43.79352" lon="1.7941">
        <ele>174.928138</ele>
        <time>2026-08-28T19:39:01Z</time>
      </trkpt>
      <trkpt lat="43.79358" lon="1.79404">
        <ele>174.780772</ele>
        <time>2026-08-28T19:39:02Z</time>
      </trkpt>
      <trkpt lat="43.79363" lon="1.79397">
        <ele>174.630642</ele>
        <time>2026-08-28T19:39:03Z</time>
      </trkpt>
      <trkpt lat="43.79369" lon="1.7939">
        <ele>174.469589</ele>
        <time>2026-08-28T19:39:04Z</time>
      </trkpt>
      <trkpt lat="43.79374" lon="1.79382">
        <ele>174.305613</ele>
        <time>2026-08-28T19:39:05Z</time>
      </trkpt>
      <trkpt lat="43.7938" lon="1.79374">
        <ele>174.140577</ele>
        <time>2026-08-28T19:39:06Z</time>
      </trkpt>
      <trkpt lat="43.79385" lon="1.79367">
        <ele>173.978296</ele>
        <time>2026-08-28T19:39:07Z</time>
      </trkpt>
      <trkpt lat="43.79391" lon="1.79359">
        <ele>173.803509</ele>
        <time>2026-08-28T19:39:08Z</time>
      </trkpt>
      <trkpt lat="43.79396" lon="1.79351">
        <ele>173.636092</ele>
        <time>2026-08-28T19:39:09Z</time>
      </trkpt>
      <trkpt lat="43.79401" lon="1.79344">
        <ele>173.466254</ele>
        <time>2026-08-28T19:39:10Z</time>
      </trkpt>
      <trkpt lat="43.79405" lon="1.79336">
        <ele>173.311589</ele>
        <time>2026-08-28T19:39:11Z</time>
      </trkpt>
      <trkpt lat="43.79409" lon="1.79329">
        <ele>173.163392</ele>
        <time>2026-08-28T19:39:12Z</time>
      </trkpt>
      <trkpt lat="43.79413" lon="1.79322">
        <ele>173.020713</ele>
        <time>2026-08-28T19:39:13Z</time>
      </trkpt>
      <trkpt lat="43.79417" lon="1.79316">
        <ele>172.877707</ele>
        <time>2026-08-28T19:39:14Z</time>
      </trkpt>
      <trkpt lat="43.79421" lon="1.79309">
        <ele>172.741723</ele>
        <time>2026-08-28T19:39:15Z</time>
      </trkpt>
      <trkpt lat="43.79425" lon="1.79302">
        <ele>172.603894</ele>
        <time>2026-08-28T19:39:16Z</time>
      </trkpt>
      <trkpt lat="43.79429" lon="1.79296">
        <ele>172.467531</ele>
        <time>2026-08-28T19:39:17Z</time>
      </trkpt>
      <trkpt lat="43.79433" lon="1.7929">
        <ele>172.33364</ele>
        <time>2026-08-28T19:39:18Z</time>
      </trkpt>
      <trkpt lat="43.79437" lon="1.79284">
        <ele>172.197039</ele>
        <time>2026-08-28T19:39:19Z</time>
      </trkpt>
      <trkpt lat="43.79441" lon="1.79277">
        <ele>172.055272</ele>
        <time>2026-08-28T19:39:20Z</time>
      </trkpt>
      <trkpt lat="43.79444" lon="1.7927">
        <ele>171.9205</ele>
        <time>2026-08-28T19:39:21Z</time>
      </trkpt>
      <trkpt lat="43.79448" lon="1.79264">
        <ele>171.793635</ele>
        <time>2026-08-28T19:39:22Z</time>
      </trkpt>
      <trkpt lat="43.79452" lon="1.79259">
        <ele>171.673163</ele>
        <time>2026-08-28T19:39:23Z</time>
      </trkpt>
      <trkpt lat="43.79455" lon="1.79254">
        <ele>171.556501</ele>
        <time>2026-08-28T19:39:24Z</time>
      </trkpt>
      <trkpt lat="43.79459" lon="1.79247">
        <ele>171.417186</ele>
        <time>2026-08-28T19:39:25Z</time>
      </trkpt>
      <trkpt lat="43.79463" lon="1.79241">
        <ele>171.282276</ele>
        <time>2026-08-28T19:39:26Z</time>
      </trkpt>
      <trkpt lat="43.79468" lon="1.79236">
        <ele>171.146914</ele>
        <time>2026-08-28T19:39:27Z</time>
      </trkpt>
      <trkpt lat="43.79471" lon="1.7923">
        <ele>171.015731</ele>
        <time>2026-08-28T19:39:28Z</time>
      </trkpt>
      <trkpt lat="43.79475" lon="1.79223">
        <ele>170.891622</ele>
        <time>2026-08-28T19:39:29Z</time>
      </trkpt>
      <trkpt lat="43.79478" lon="1.79217">
        <ele>170.770166</ele>
        <time>2026-08-28T19:39:30Z</time>
      </trkpt>
      <trkpt lat="43.79481" lon="1.79212">
        <ele>170.660592</ele>
        <time>2026-08-28T19:39:31Z</time>
      </trkpt>
      <trkpt lat="43.79483" lon="1.79206">
        <ele>170.552004</ele>
        <time>2026-08-28T19:39:32Z</time>
      </trkpt>
      <trkpt lat="43.79486" lon="1.79201">
        <ele>170.450095</ele>
        <time>2026-08-28T19:39:33Z</time>
      </trkpt>
      <trkpt lat="43.79489" lon="1.79197">
        <ele>170.352732</ele>
        <time>2026-08-28T19:39:34Z</time>
      </trkpt>
      <trkpt lat="43.79492" lon="1.79193">
        <ele>170.259276</ele>
        <time>2026-08-28T19:39:35Z</time>
      </trkpt>
      <trkpt lat="43.79495" lon="1.79189">
        <ele>170.16176</ele>
        <time>2026-08-28T19:39:36Z</time>
      </trkpt>
      <trkpt lat="43.79498" lon="1.79185">
        <ele>170.058106</ele>
        <time>2026-08-28T19:39:37Z</time>
      </trkpt>
      <trkpt lat="43.79502" lon="1.7918">
        <ele>169.956971</ele>
        <time>2026-08-28T19:39:38Z</time>
      </trkpt>
      <trkpt lat="43.79505" lon="1.79175">
        <ele>169.940028</ele>
        <time>2026-08-28T19:39:39Z</time>
      </trkpt>
      <trkpt lat="43.79508" lon="1.79171">
        <ele>169.923892</ele>
        <time>2026-08-28T19:39:40Z</time>
      </trkpt>
      <trkpt lat="43.79511" lon="1.79168">
        <ele>169.90915</ele>
        <time>2026-08-28T19:39:41Z</time>
      </trkpt>
      <trkpt lat="43.79514" lon="1.79163">
        <ele>169.891997</ele>
        <time>2026-08-28T19:39:42Z</time>
      </trkpt>
      <trkpt lat="43.79517" lon="1.79159">
        <ele>169.875581</ele>
        <time>2026-08-28T19:39:43Z</time>
      </trkpt>
      <trkpt lat="43.79521" lon="1.79155">
        <ele>169.858228</ele>
        <time>2026-08-28T19:39:44Z</time>
      </trkpt>
      <trkpt lat="43.79524" lon="1.7915">
        <ele>169.839849</ele>
        <time>2026-08-28T19:39:45Z</time>
      </trkpt>
      <trkpt lat="43.79527" lon="1.79146">
        <ele>169.822849</ele>
        <time>2026-08-28T19:39:46Z</time>
      </trkpt>
      <trkpt lat="43.79531" lon="1.7914">
        <ele>169.802234</ele>
        <time>2026-08-28T19:39:47Z</time>
      </trkpt>
      <trkpt lat="43.79534" lon="1.79135">
        <ele>169.783003</ele>
        <time>2026-08-28T19:39:48Z</time>
      </trkpt>
      <trkpt lat="43.79538" lon="1.79129">
        <ele>169.762972</ele>
        <time>2026-08-28T19:39:49Z</time>
      </trkpt>
      <trkpt lat="43.79541" lon="1.79125">
        <ele>169.744133</ele>
        <time>2026-08-28T19:39:50Z</time>
      </trkpt>
      <trkpt lat="43.79545" lon="1.7912">
        <ele>169.725558</ele>
        <time>2026-08-28T19:39:51Z</time>
      </trkpt>
      <trkpt lat="43.79548" lon="1.79115">
        <ele>169.706983</ele>
        <time>2026-08-28T19:39:52Z</time>
      </trkpt>
      <trkpt lat="43.79552" lon="1.79109">
        <ele>169.686028</ele>
        <time>2026-08-28T19:39:53Z</time>
      </trkpt>
      <trkpt lat="43.79556" lon="1.79104">
        <ele>169.665418</ele>
        <time>2026-08-28T19:39:54Z</time>
      </trkpt>
      <trkpt lat="43.7956" lon="1.79098">
        <ele>169.645174</ele>
        <time>2026-08-28T19:39:55Z</time>
      </trkpt>
      <trkpt lat="43.79563" lon="1.79092">
        <ele>169.624566</ele>
        <time>2026-08-28T19:39:56Z</time>
      </trkpt>
      <trkpt lat="43.79566" lon="1.79087">
        <ele>169.605392</ele>
        <time>2026-08-28T19:39:57Z</time>
      </trkpt>
      <trkpt lat="43.7957" lon="1.79083">
        <ele>169.586287</ele>
        <time>2026-08-28T19:39:58Z</time>
      </trkpt>
      <trkpt lat="43.79574" lon="1.79077">
        <ele>169.566198</ele>
        <time>2026-08-28T19:39:59Z</time>
      </trkpt>
      <trkpt lat="43.79577" lon="1.79071">
        <ele>169.544589</ele>
        <time>2026-08-28T19:40:00Z</time>
      </trkpt>
      <trkpt lat="43.79581" lon="1.79066">
        <ele>169.524138</ele>
        <time>2026-08-28T19:40:01Z</time>
      </trkpt>
      <trkpt lat="43.79585" lon="1.79059">
        <ele>169.502118</ele>
        <time>2026-08-28T19:40:02Z</time>
      </trkpt>
      <trkpt lat="43.79588" lon="1.79054">
        <ele>169.48212</ele>
        <time>2026-08-28T19:40:03Z</time>
      </trkpt>
      <trkpt lat="43.79591" lon="1.79048">
        <ele>169.461058</ele>
        <time>2026-08-28T19:40:04Z</time>
      </trkpt>
      <trkpt lat="43.79595" lon="1.79042">
        <ele>169.441115</ele>
        <time>2026-08-28T19:40:05Z</time>
      </trkpt>
      <trkpt lat="43.79597" lon="1.79036">
        <ele>169.421833</ele>
        <time>2026-08-28T19:40:06Z</time>
      </trkpt>
      <trkpt lat="43.796" lon="1.79031">
        <ele>169.403881</ele>
        <time>2026-08-28T19:40:07Z</time>
      </trkpt>
      <trkpt lat="43.79604" lon="1.79025">
        <ele>169.383591</ele>
        <time>2026-08-28T19:40:08Z</time>
      </trkpt>
      <trkpt lat="43.79608" lon="1.79019">
        <ele>169.358519</ele>
        <time>2026-08-28T19:40:09Z</time>
      </trkpt>
      <trkpt lat="43.79613" lon="1.79013">
        <ele>169.335144</ele>
        <time>2026-08-28T19:40:10Z</time>
      </trkpt>
      <trkpt lat="43.79617" lon="1.79007">
        <ele>169.312763</ele>
        <time>2026-08-28T19:40:11Z</time>
      </trkpt>
      <trkpt lat="43.79621" lon="1.79001">
        <ele>169.290949</ele>
        <time>2026-08-28T19:40:12Z</time>
      </trkpt>
      <trkpt lat="43.79625" lon="1.78995">
        <ele>169.257429</ele>
        <time>2026-08-28T19:40:13Z</time>
      </trkpt>
      <trkpt lat="43.79628" lon="1.78989">
        <ele>169.209812</ele>
        <time>2026-08-28T19:40:14Z</time>
      </trkpt>
      <trkpt lat="43.79632" lon="1.78983">
        <ele>169.161176</ele>
        <time>2026-08-28T19:40:15Z</time>
      </trkpt>
      <trkpt lat="43.79636" lon="1.78978">
        <ele>169.117762</ele>
        <time>2026-08-28T19:40:16Z</time>
      </trkpt>
      <trkpt lat="43.7964" lon="1.78972">
        <ele>169.073396</ele>
        <time>2026-08-28T19:40:17Z</time>
      </trkpt>
      <trkpt lat="43.79643" lon="1.78967">
        <ele>169.027082</ele>
        <time>2026-08-28T19:40:18Z</time>
      </trkpt>
      <trkpt lat="43.79647" lon="1.78961">
        <ele>168.978006</ele>
        <time>2026-08-28T19:40:19Z</time>
      </trkpt>
      <trkpt lat="43.79651" lon="1.78955">
        <ele>168.929807</ele>
        <time>2026-08-28T19:40:20Z</time>
      </trkpt>
      <trkpt lat="43.79655" lon="1.7895">
        <ele>168.882421</ele>
        <time>2026-08-28T19:40:21Z</time>
      </trkpt>
      <trkpt lat="43.79659" lon="1.78944">
        <ele>168.83759</ele>
        <time>2026-08-28T19:40:22Z</time>
      </trkpt>
      <trkpt lat="43.79662" lon="1.78938">
        <ele>168.79523</ele>
        <time>2026-08-28T19:40:23Z</time>
      </trkpt>
      <trkpt lat="43.79665" lon="1.78933">
        <ele>168.749859</ele>
        <time>2026-08-28T19:40:24Z</time>
      </trkpt>
      <trkpt lat="43.79668" lon="1.78928">
        <ele>168.709499</ele>
        <time>2026-08-28T19:40:25Z</time>
      </trkpt>
      <trkpt lat="43.79672" lon="1.78922">
        <ele>168.665198</ele>
        <time>2026-08-28T19:40:26Z</time>
      </trkpt>
      <trkpt lat="43.79675" lon="1.78917">
        <ele>168.620495</ele>
        <time>2026-08-28T19:40:27Z</time>
      </trkpt>
      <trkpt lat="43.79679" lon="1.7891">
        <ele>168.571182</ele>
        <time>2026-08-28T19:40:28Z</time>
      </trkpt>
      <trkpt lat="43.79683" lon="1.78904">
        <ele>168.520054</ele>
        <time>2026-08-28T19:40:29Z</time>
      </trkpt>
      <trkpt lat="43.79687" lon="1.78898">
        <ele>168.469961</ele>
        <time>2026-08-28T19:40:30Z</time>
      </trkpt>
      <trkpt lat="43.79691" lon="1.78892">
        <ele>168.419552</ele>
        <time>2026-08-28T19:40:31Z</time>
      </trkpt>
      <trkpt lat="43.79695" lon="1.78885">
        <ele>168.36666</ele>
        <time>2026-08-28T19:40:32Z</time>
      </trkpt>
      <trkpt lat="43.79699" lon="1.78879">
        <ele>168.313867</ele>
        <time>2026-08-28T19:40:33Z</time>
      </trkpt>
      <trkpt lat="43.79703" lon="1.78872">
        <ele>168.260255</ele>
        <time>2026-08-28T19:40:34Z</time>
      </trkpt>
      <trkpt lat="43.79707" lon="1.78864">
        <ele>168.207152</ele>
        <time>2026-08-28T19:40:35Z</time>
      </trkpt>
      <trkpt lat="43.79711" lon="1.78857">
        <ele>168.15111</ele>
        <time>2026-08-28T19:40:36Z</time>
      </trkpt>
      <trkpt lat="43.79715" lon="1.7885">
        <ele>168.099397</ele>
        <time>2026-08-28T19:40:37Z</time>
      </trkpt>
      <trkpt lat="43.79719" lon="1.78844">
        <ele>168.047963</ele>
        <time>2026-08-28T19:40:38Z</time>
      </trkpt>
      <trkpt lat="43.79724" lon="1.78839">
        <ele>167.994065</ele>
        <time>2026-08-28T19:40:39Z</time>
      </trkpt>
      <trkpt lat="43.79729" lon="1.78833">
        <ele>167.937334</ele>
        <time>2026-08-28T19:40:40Z</time>
      </trkpt>
      <trkpt lat="43.79734" lon="1.78827">
        <ele>167.880226</ele>
        <time>2026-08-28T19:40:41Z</time>
      </trkpt>
      <trkpt lat="43.79739" lon="1.7882">
        <ele>167.821971</ele>
        <time>2026-08-28T19:40:42Z</time>
      </trkpt>
      <trkpt lat="43.79744" lon="1.78813">
        <ele>167.755218</ele>
        <time>2026-08-28T19:40:43Z</time>
      </trkpt>
      <trkpt lat="43.79748" lon="1.78806">
        <ele>167.617229</ele>
        <time>2026-08-28T19:40:44Z</time>
      </trkpt>
      <trkpt lat="43.79752" lon="1.78799">
        <ele>167.484235</ele>
        <time>2026-08-28T19:40:45Z</time>
      </trkpt>
      <trkpt lat="43.79755" lon="1.78791">
        <ele>167.344983</ele>
        <time>2026-08-28T19:40:46Z</time>
      </trkpt>
      <trkpt lat="43.79759" lon="1.78783">
        <ele>167.199536</ele>
        <time>2026-08-28T19:40:47Z</time>
      </trkpt>
      <trkpt lat="43.79763" lon="1.78775">
        <ele>167.051106</ele>
        <time>2026-08-28T19:40:48Z</time>
      </trkpt>
      <trkpt lat="43.79767" lon="1.78768">
        <ele>166.906806</ele>
        <time>2026-08-28T19:40:49Z</time>
      </trkpt>
      <trkpt lat="43.79771" lon="1.78761">
        <ele>166.77308</ele>
        <time>2026-08-28T19:40:50Z</time>
      </trkpt>
      <trkpt lat="43.79775" lon="1.78754">
        <ele>166.637053</ele>
        <time>2026-08-28T19:40:51Z</time>
      </trkpt>
      <trkpt lat="43.7978" lon="1.78747">
        <ele>166.495922</ele>
        <time>2026-08-28T19:40:52Z</time>
      </trkpt>
      <trkpt lat="43.79784" lon="1.7874">
        <ele>166.353854</ele>
        <time>2026-08-28T19:40:53Z</time>
      </trkpt>
      <trkpt lat="43.79789" lon="1.78733">
        <ele>166.199922</ele>
        <time>2026-08-28T19:40:54Z</time>
      </trkpt>
      <trkpt lat="43.79794" lon="1.78725">
        <ele>166.049058</ele>
        <time>2026-08-28T19:40:55Z</time>
      </trkpt>
      <trkpt lat="43.79798" lon="1.78718">
        <ele>165.900253</ele>
        <time>2026-08-28T19:40:56Z</time>
      </trkpt>
      <trkpt lat="43.79804" lon="1.78711">
        <ele>165.735906</ele>
        <time>2026-08-28T19:40:57Z</time>
      </trkpt>
      <trkpt lat="43.79809" lon="1.78704">
        <ele>165.581275</ele>
        <time>2026-08-28T19:40:58Z</time>
      </trkpt>
      <trkpt lat="43.79814" lon="1.78697">
        <ele>165.429891</ele>
        <time>2026-08-28T19:40:59Z</time>
      </trkpt>
      <trkpt lat="43.79819" lon="1.7869">
        <ele>165.285823</ele>
        <time>2026-08-28T19:41:00Z</time>
      </trkpt>
      <trkpt lat="43.79825" lon="1.78684">
        <ele>165.131299</ele>
        <time>2026-08-28T19:41:01Z</time>
      </trkpt>
      <trkpt lat="43.7983" lon="1.78677">
        <ele>164.981428</ele>
        <time>2026-08-28T19:41:02Z</time>
      </trkpt>
      <trkpt lat="43.79834" lon="1.7867">
        <ele>164.830853</ele>
        <time>2026-08-28T19:41:03Z</time>
      </trkpt>
      <trkpt lat="43.79839" lon="1.78663">
        <ele>164.683567</ele>
        <time>2026-08-28T19:41:04Z</time>
      </trkpt>
      <trkpt lat="43.79844" lon="1.78655">
        <ele>164.532475</ele>
        <time>2026-08-28T19:41:05Z</time>
      </trkpt>
      <trkpt lat="43.79849" lon="1.78648">
        <ele>164.381383</ele>
        <time>2026-08-28T19:41:06Z</time>
      </trkpt>
      <trkpt lat="43.79854" lon="1.78641">
        <ele>164.237766</ele>
        <time>2026-08-28T19:41:07Z</time>
      </trkpt>
      <trkpt lat="43.79858" lon="1.78635">
        <ele>164.105576</ele>
        <time>2026-08-28T19:41:08Z</time>
      </trkpt>
      <trkpt lat="43.79862" lon="1.78629">
        <ele>163.977459</ele>
        <time>2026-08-28T19:41:09Z</time>
      </trkpt>
      <trkpt lat="43.79867" lon="1.78623">
        <ele>163.811857</ele>
        <time>2026-08-28T19:41:10Z</time>
      </trkpt>
      <trkpt lat="43.79872" lon="1.78617">
        <ele>163.645535</ele>
        <time>2026-08-28T19:41:11Z</time>
      </trkpt>
      <trkpt lat="43.79876" lon="1.7861">
        <ele>163.476237</ele>
        <time>2026-08-28T19:41:12Z</time>
      </trkpt>
      <trkpt lat="43.79879" lon="1.78604">
        <ele>163.319646</ele>
        <time>2026-08-28T19:41:13Z</time>
      </trkpt>
      <trkpt lat="43.79883" lon="1.78597">
        <ele>163.170814</ele>
        <time>2026-08-28T19:41:14Z</time>
      </trkpt>
      <trkpt lat="43.79886" lon="1.7859">
        <ele>163.01726</ele>
        <time>2026-08-28T19:41:15Z</time>
      </trkpt>
      <trkpt lat="43.79889" lon="1.78584">
        <ele>162.862279</ele>
        <time>2026-08-28T19:41:16Z</time>
      </trkpt>
      <trkpt lat="43.79893" lon="1.78578">
        <ele>162.718077</ele>
        <time>2026-08-28T19:41:17Z</time>
      </trkpt>
      <trkpt lat="43.79896" lon="1.78572">
        <ele>162.575071</ele>
        <time>2026-08-28T19:41:18Z</time>
      </trkpt>
      <trkpt lat="43.799" lon="1.78566">
        <ele>162.425125</ele>
        <time>2026-08-28T19:41:19Z</time>
      </trkpt>
      <trkpt lat="43.79904" lon="1.7856">
        <ele>162.271558</ele>
        <time>2026-08-28T19:41:20Z</time>
      </trkpt>
      <trkpt lat="43.79908" lon="1.78555">
        <ele>162.124357</ele>
        <time>2026-08-28T19:41:21Z</time>
      </trkpt>
      <trkpt lat="43.79912" lon="1.78549">
        <ele>161.978429</ele>
        <time>2026-08-28T19:41:22Z</time>
      </trkpt>
      <trkpt lat="43.79915" lon="1.78542">
        <ele>161.829476</ele>
        <time>2026-08-28T19:41:23Z</time>
      </trkpt>
      <trkpt lat="43.79918" lon="1.78535">
        <ele>161.674475</ele>
        <time>2026-08-28T19:41:24Z</time>
      </trkpt>
      <trkpt lat="43.79921" lon="1.7853">
        <ele>161.540908</ele>
        <time>2026-08-28T19:41:25Z</time>
      </trkpt>
      <trkpt lat="43.79923" lon="1.78525">
        <ele>161.427401</ele>
        <time>2026-08-28T19:41:26Z</time>
      </trkpt>
      <trkpt lat="43.79926" lon="1.78519">
        <ele>161.305827</ele>
        <time>2026-08-28T19:41:27Z</time>
      </trkpt>
      <trkpt lat="43.79928" lon="1.78513">
        <ele>161.181391</ele>
        <time>2026-08-28T19:41:28Z</time>
      </trkpt>
      <trkpt lat="43.7993" lon="1.78508">
        <ele>161.057865</ele>
        <time>2026-08-28T19:41:29Z</time>
      </trkpt>
      <trkpt lat="43.79932" lon="1.78502">
        <ele>160.932684</ele>
        <time>2026-08-28T19:41:30Z</time>
      </trkpt>
      <trkpt lat="43.79935" lon="1.78495">
        <ele>160.797446</ele>
        <time>2026-08-28T19:41:31Z</time>
      </trkpt>
      <trkpt lat="43.79937" lon="1.7849">
        <ele>160.668295</ele>
        <time>2026-08-28T19:41:32Z</time>
      </trkpt>
      <trkpt lat="43.7994" lon="1.78483">
        <ele>160.527101</ele>
        <time>2026-08-28T19:41:33Z</time>
      </trkpt>
      <trkpt lat="43.79944" lon="1.78477">
        <ele>160.379855</ele>
        <time>2026-08-28T19:41:34Z</time>
      </trkpt>
      <trkpt lat="43.79946" lon="1.78469">
        <ele>160.219464</ele>
        <time>2026-08-28T19:41:35Z</time>
      </trkpt>
      <trkpt lat="43.79949" lon="1.78461">
        <ele>160.053503</ele>
        <time>2026-08-28T19:41:36Z</time>
      </trkpt>
      <trkpt lat="43.79951" lon="1.78453">
        <ele>159.879566</ele>
        <time>2026-08-28T19:41:37Z</time>
      </trkpt>
      <trkpt lat="43.79954" lon="1.78445">
        <ele>159.710797</ele>
        <time>2026-08-28T19:41:38Z</time>
      </trkpt>
      <trkpt lat="43.79956" lon="1.78437">
        <ele>159.558393</ele>
        <time>2026-08-28T19:41:39Z</time>
      </trkpt>
      <trkpt lat="43.79959" lon="1.7843">
        <ele>159.404653</ele>
        <time>2026-08-28T19:41:40Z</time>
      </trkpt>
      <trkpt lat="43.79963" lon="1.78425">
        <ele>159.258231</ele>
        <time>2026-08-28T19:41:41Z</time>
      </trkpt>
      <trkpt lat="43.79967" lon="1.78419">
        <ele>158.961408</ele>
        <time>2026-08-28T19:41:42Z</time>
      </trkpt>
      <trkpt lat="43.79969" lon="1.78411">
        <ele>158.616686</ele>
        <time>2026-08-28T19:41:43Z</time>
      </trkpt>
      <trkpt lat="43.79972" lon="1.78405">
        <ele>158.286865</ele>
        <time>2026-08-28T19:41:44Z</time>
      </trkpt>
      <trkpt lat="43.79975" lon="1.78397">
        <ele>157.935822</ele>
        <time>2026-08-28T19:41:45Z</time>
      </trkpt>
      <trkpt lat="43.79977" lon="1.78391">
        <ele>157.628847</ele>
        <time>2026-08-28T19:41:46Z</time>
      </trkpt>
      <trkpt lat="43.7998" lon="1.78384">
        <ele>157.325553</ele>
        <time>2026-08-28T19:41:47Z</time>
      </trkpt>
      <trkpt lat="43.79983" lon="1.78378">
        <ele>157.029401</ele>
        <time>2026-08-28T19:41:48Z</time>
      </trkpt>
      <trkpt lat="43.79985" lon="1.78372">
        <ele>156.734725</ele>
        <time>2026-08-28T19:41:49Z</time>
      </trkpt>
      <trkpt lat="43.79988" lon="1.78366">
        <ele>156.436351</ele>
        <time>2026-08-28T19:41:50Z</time>
      </trkpt>
      <trkpt lat="43.7999" lon="1.78359">
        <ele>156.135652</ele>
        <time>2026-08-28T19:41:51Z</time>
      </trkpt>
      <trkpt lat="43.79993" lon="1.78352">
        <ele>155.793093</ele>
        <time>2026-08-28T19:41:52Z</time>
      </trkpt>
      <trkpt lat="43.79995" lon="1.78345">
        <ele>155.465612</ele>
        <time>2026-08-28T19:41:53Z</time>
      </trkpt>
      <trkpt lat="43.79997" lon="1.78338">
        <ele>155.128149</ele>
        <time>2026-08-28T19:41:54Z</time>
      </trkpt>
      <trkpt lat="43.8" lon="1.78331">
        <ele>154.801026</ele>
        <time>2026-08-28T19:41:55Z</time>
      </trkpt>
      <trkpt lat="43.80002" lon="1.78323">
        <ele>154.460067</ele>
        <time>2026-08-28T19:41:56Z</time>
      </trkpt>
      <trkpt lat="43.80005" lon="1.78316">
        <ele>154.105908</ele>
        <time>2026-08-28T19:41:57Z</time>
      </trkpt>
      <trkpt lat="43.80008" lon="1.78308">
        <ele>153.739408</ele>
        <time>2026-08-28T19:41:58Z</time>
      </trkpt>
      <trkpt lat="43.80011" lon="1.78301">
        <ele>153.383915</ele>
        <time>2026-08-28T19:41:59Z</time>
      </trkpt>
      <trkpt lat="43.80014" lon="1.78294">
        <ele>153.045857</ele>
        <time>2026-08-28T19:42:00Z</time>
      </trkpt>
      <trkpt lat="43.80018" lon="1.78287">
        <ele>152.705851</ele>
        <time>2026-08-28T19:42:01Z</time>
      </trkpt>
      <trkpt lat="43.8002" lon="1.7828">
        <ele>152.375032</ele>
        <time>2026-08-28T19:42:02Z</time>
      </trkpt>
      <trkpt lat="43.80023" lon="1.78274">
        <ele>152.062391</ele>
        <time>2026-08-28T19:42:03Z</time>
      </trkpt>
      <trkpt lat="43.80027" lon="1.78268">
        <ele>151.756334</ele>
        <time>2026-08-28T19:42:04Z</time>
      </trkpt>
      <trkpt lat="43.80029" lon="1.78262">
        <ele>151.451532</ele>
        <time>2026-08-28T19:42:05Z</time>
      </trkpt>
      <trkpt lat="43.80033" lon="1.78256">
        <ele>151.135575</ele>
        <time>2026-08-28T19:42:06Z</time>
      </trkpt>
      <trkpt lat="43.80036" lon="1.7825">
        <ele>150.812745</ele>
        <time>2026-08-28T19:42:07Z</time>
      </trkpt>
      <trkpt lat="43.80038" lon="1.78244">
        <ele>150.516025</ele>
        <time>2026-08-28T19:42:08Z</time>
      </trkpt>
      <trkpt lat="43.8004" lon="1.78237">
        <ele>150.231586</ele>
        <time>2026-08-28T19:42:09Z</time>
      </trkpt>
      <trkpt lat="43.80042" lon="1.78231">
        <ele>149.93563</ele>
        <time>2026-08-28T19:42:10Z</time>
      </trkpt>
      <trkpt lat="43.80044" lon="1.78225">
        <ele>149.65501</ele>
        <time>2026-08-28T19:42:11Z</time>
      </trkpt>
      <trkpt lat="43.80046" lon="1.78219">
        <ele>149.385779</ele>
        <time>2026-08-28T19:42:12Z</time>
      </trkpt>
      <trkpt lat="43.80049" lon="1.78213">
        <ele>149.081817</ele>
        <time>2026-08-28T19:42:13Z</time>
      </trkpt>
      <trkpt lat="43.80051" lon="1.78206">
        <ele>148.776195</ele>
        <time>2026-08-28T19:42:14Z</time>
      </trkpt>
      <trkpt lat="43.80054" lon="1.78199">
        <ele>148.621665</ele>
        <time>2026-08-28T19:42:15Z</time>
      </trkpt>
      <trkpt lat="43.80056" lon="1.78193">
        <ele>148.48152</ele>
        <time>2026-08-28T19:42:16Z</time>
      </trkpt>
      <trkpt lat="43.80059" lon="1.78187">
        <ele>148.33468</ele>
        <time>2026-08-28T19:42:17Z</time>
      </trkpt>
      <trkpt lat="43.80061" lon="1.78181">
        <ele>148.188276</ele>
        <time>2026-08-28T19:42:18Z</time>
      </trkpt>
      <trkpt lat="43.80064" lon="1.78174">
        <ele>148.040052</ele>
        <time>2026-08-28T19:42:19Z</time>
      </trkpt>
      <trkpt lat="43.80066" lon="1.78167">
        <ele>147.886903</ele>
        <time>2026-08-28T19:42:20Z</time>
      </trkpt>
      <trkpt lat="43.80068" lon="1.7816">
        <ele>147.726392</ele>
        <time>2026-08-28T19:42:21Z</time>
      </trkpt>
      <trkpt lat="43.80071" lon="1.78153">
        <ele>147.546561</ele>
        <time>2026-08-28T19:42:22Z</time>
      </trkpt>
      <trkpt lat="43.80075" lon="1.78146">
        <ele>147.384914</ele>
        <time>2026-08-28T19:42:23Z</time>
      </trkpt>
      <trkpt lat="43.80077" lon="1.7814">
        <ele>147.229</ele>
        <time>2026-08-28T19:42:24Z</time>
      </trkpt>
      <trkpt lat="43.8008" lon="1.78133">
        <ele>147.067167</ele>
        <time>2026-08-28T19:42:25Z</time>
      </trkpt>
      <trkpt lat="43.80083" lon="1.78127">
        <ele>146.907052</ele>
        <time>2026-08-28T19:42:26Z</time>
      </trkpt>
      <trkpt lat="43.80087" lon="1.7812">
        <ele>146.748648</ele>
        <time>2026-08-28T19:42:27Z</time>
      </trkpt>
      <trkpt lat="43.80089" lon="1.78113">
        <ele>146.585966</ele>
        <time>2026-08-28T19:42:28Z</time>
      </trkpt>
      <trkpt lat="43.80092" lon="1.78107">
        <ele>146.430397</ele>
        <time>2026-08-28T19:42:29Z</time>
      </trkpt>
      <trkpt lat="43.80094" lon="1.781">
        <ele>146.279774</ele>
        <time>2026-08-28T19:42:30Z</time>
      </trkpt>
      <trkpt lat="43.80097" lon="1.78093">
        <ele>146.115678</ele>
        <time>2026-08-28T19:42:31Z</time>
      </trkpt>
      <trkpt lat="43.801" lon="1.78087">
        <ele>145.952118</ele>
        <time>2026-08-28T19:42:32Z</time>
      </trkpt>
      <trkpt lat="43.80103" lon="1.7808">
        <ele>145.79799</ele>
        <time>2026-08-28T19:42:33Z</time>
      </trkpt>
      <trkpt lat="43.80106" lon="1.78073">
        <ele>145.641153</ele>
        <time>2026-08-28T19:42:34Z</time>
      </trkpt>
      <trkpt lat="43.80108" lon="1.78066">
        <ele>145.484246</ele>
        <time>2026-08-28T19:42:35Z</time>
      </trkpt>
      <trkpt lat="43.8011" lon="1.7806">
        <ele>145.336702</ele>
        <time>2026-08-28T19:42:36Z</time>
      </trkpt>
      <trkpt lat="43.80112" lon="1.78054">
        <ele>145.195262</ele>
        <time>2026-08-28T19:42:37Z</time>
      </trkpt>
      <trkpt lat="43.80114" lon="1.78047">
        <ele>145.058958</ele>
        <time>2026-08-28T19:42:38Z</time>
      </trkpt>
      <trkpt lat="43.80116" lon="1.78041">
        <ele>144.917819</ele>
        <time>2026-08-28T19:42:39Z</time>
      </trkpt>
      <trkpt lat="43.80118" lon="1.78034">
        <ele>144.765006</ele>
        <time>2026-08-28T19:42:40Z</time>
      </trkpt>
      <trkpt lat="43.8012" lon="1.78028">
        <ele>144.618603</ele>
        <time>2026-08-28T19:42:41Z</time>
      </trkpt>
      <trkpt lat="43.80123" lon="1.78021">
        <ele>144.464475</ele>
        <time>2026-08-28T19:42:42Z</time>
      </trkpt>
      <trkpt lat="43.80125" lon="1.78015">
        <ele>144.310347</ele>
        <time>2026-08-28T19:42:43Z</time>
      </trkpt>
      <trkpt lat="43.80128" lon="1.78009">
        <ele>144.181486</ele>
        <time>2026-08-28T19:42:44Z</time>
      </trkpt>
      <trkpt lat="43.8013" lon="1.78005">
        <ele>144.073077</ele>
        <time>2026-08-28T19:42:45Z</time>
      </trkpt>
      <trkpt lat="43.80132" lon="1.78002">
        <ele>143.988073</ele>
        <time>2026-08-28T19:42:46Z</time>
      </trkpt>
      <trkpt lat="43.80132" lon="1.78">
        <ele>143.944232</ele>
        <time>2026-08-28T19:42:47Z</time>
      </trkpt>
      <trkpt lat="43.80133" lon="1.77998">
        <ele>143.905341</ele>
        <time>2026-08-28T19:42:48Z</time>
      </trkpt>
      <trkpt lat="43.80133" lon="1.77997">
        <ele>143.883007</ele>
        <time>2026-08-28T19:42:49Z</time>
      </trkpt>
      <trkpt lat="43.80133" lon="1.77996">
        <ele>143.859296</ele>
        <time>2026-08-28T19:42:50Z</time>
      </trkpt>
      <trkpt lat="43.80126" lon="1.78016">
        <ele>143.579725</ele>
        <time>2026-08-28T19:43:15Z</time>
      </trkpt>
      <trkpt lat="43.80125" lon="1.78017">
        <ele>143.565928</ele>
        <time>2026-08-28T19:43:16Z</time>
      </trkpt>
      <trkpt lat="43.80124" lon="1.78017">
        <ele>143.554548</ele>
        <time>2026-08-28T19:43:17Z</time>
      </trkpt>
      <trkpt lat="43.80124" lon="1.78018">
        <ele>143.547719</ele>
        <time>2026-08-28T19:43:18Z</time>
      </trkpt>
      <trkpt lat="43.80123" lon="1.78017">
        <ele>143.540821</ele>
        <time>2026-08-28T19:43:19Z</time>
      </trkpt>
      <trkpt lat="43.80123" lon="1.78016">
        <ele>143.533302</ele>
        <time>2026-08-28T19:43:20Z</time>
      </trkpt>
      <trkpt lat="43.80123" lon="1.78016">
        <ele>143.528433</ele>
        <time>2026-08-28T19:43:21Z</time>
      </trkpt>
      <trkpt lat="43.80123" lon="1.78016">
        <ele>143.523976</ele>
        <time>2026-08-28T19:43:22Z</time>
      </trkpt>
      <trkpt lat="43.80122" lon="1.78007">
        <ele>143.455332</ele>
        <time>2026-08-28T19:43:26Z</time>
      </trkpt>
      <trkpt lat="43.80122" lon="1.78004">
        <ele>143.43128</ele>
        <time>2026-08-28T19:43:27Z</time>
      </trkpt>
      <trkpt lat="43.80123" lon="1.78001">
        <ele>143.404706</ele>
        <time>2026-08-28T19:43:28Z</time>
      </trkpt>
      <trkpt lat="43.80123" lon="1.77997">
        <ele>143.375406</ele>
        <time>2026-08-28T19:43:29Z</time>
      </trkpt>
      <trkpt lat="43.80125" lon="1.77992">
        <ele>143.336122</ele>
        <time>2026-08-28T19:43:30Z</time>
      </trkpt>
      <trkpt lat="43.80127" lon="1.77988">
        <ele>143.296598</ele>
        <time>2026-08-28T19:43:31Z</time>
      </trkpt>
      <trkpt lat="43.80128" lon="1.77983">
        <ele>143.25434</ele>
        <time>2026-08-28T19:43:32Z</time>
      </trkpt>
      <trkpt lat="43.8013" lon="1.77978">
        <ele>143.212161</ele>
        <time>2026-08-28T19:43:33Z</time>
      </trkpt>
      <trkpt lat="43.80131" lon="1.77973">
        <ele>143.171775</ele>
        <time>2026-08-28T19:43:34Z</time>
      </trkpt>
      <trkpt lat="43.80131" lon="1.77968">
        <ele>143.132424</ele>
        <time>2026-08-28T19:43:35Z</time>
      </trkpt>
      <trkpt lat="43.80133" lon="1.77963">
        <ele>143.094358</ele>
        <time>2026-08-28T19:43:36Z</time>
      </trkpt>
      <trkpt lat="43.80135" lon="1.77959">
        <ele>143.054653</ele>
        <time>2026-08-28T19:43:37Z</time>
      </trkpt>
      <trkpt lat="43.80136" lon="1.77954">
        <ele>143.016356</ele>
        <time>2026-08-28T19:43:38Z</time>
      </trkpt>
      <trkpt lat="43.80139" lon="1.77951">
        <ele>142.976457</ele>
        <time>2026-08-28T19:43:39Z</time>
      </trkpt>
      <trkpt lat="43.80142" lon="1.77946">
        <ele>142.928683</ele>
        <time>2026-08-28T19:43:40Z</time>
      </trkpt>
      <trkpt lat="43.80145" lon="1.77941">
        <ele>142.879175</ele>
        <time>2026-08-28T19:43:41Z</time>
      </trkpt>
      <trkpt lat="43.80148" lon="1.77936">
        <ele>142.830698</ele>
        <time>2026-08-28T19:43:42Z</time>
      </trkpt>
      <trkpt lat="43.8015" lon="1.77932">
        <ele>142.788637</ele>
        <time>2026-08-28T19:43:43Z</time>
      </trkpt>
      <trkpt lat="43.80153" lon="1.77926">
        <ele>142.729116</ele>
        <time>2026-08-28T19:43:44Z</time>
      </trkpt>
      <trkpt lat="43.80157" lon="1.77918">
        <ele>142.664341</ele>
        <time>2026-08-28T19:43:45Z</time>
      </trkpt>
      <trkpt lat="43.8016" lon="1.77912">
        <ele>142.606078</ele>
        <time>2026-08-28T19:43:46Z</time>
      </trkpt>
      <trkpt lat="43.80163" lon="1.77906">
        <ele>142.550317</ele>
        <time>2026-08-28T19:43:47Z</time>
      </trkpt>
      <trkpt lat="43.80166" lon="1.77901">
        <ele>142.496819</ele>
        <time>2026-08-28T19:43:48Z</time>
      </trkpt>
      <trkpt lat="43.80168" lon="1.77895">
        <ele>142.445689</ele>
        <time>2026-08-28T19:43:49Z</time>
      </trkpt>
      <trkpt lat="43.8017" lon="1.77889">
        <ele>142.395888</ele>
        <time>2026-08-28T19:43:50Z</time>
      </trkpt>
      <trkpt lat="43.80283" lon="1.77624">
        <ele>140.803864</ele>
        <time>2026-08-29T06:05:35Z</time>
      </trkpt>
      <trkpt lat="43.80284" lon="1.7762">
        <ele>140.790657</ele>
        <time>2026-08-29T06:05:36Z</time>
      </trkpt>
      <trkpt lat="43.80286" lon="1.77616">
        <ele>140.777538</ele>
        <time>2026-08-29T06:05:37Z</time>
      </trkpt>
      <trkpt lat="43.80287" lon="1.77612">
        <ele>140.7643</ele>
        <time>2026-08-29T06:05:38Z</time>
      </trkpt>
      <trkpt lat="43.80289" lon="1.77607">
        <ele>140.750819</ele>
        <time>2026-08-29T06:05:39Z</time>
      </trkpt>
      <trkpt lat="43.80291" lon="1.77603">
        <ele>140.753614</ele>
        <time>2026-08-29T06:05:40Z</time>
      </trkpt>
      <trkpt lat="43.80292" lon="1.77598">
        <ele>140.760309</ele>
        <time>2026-08-29T06:05:41Z</time>
      </trkpt>
      <trkpt lat="43.80294" lon="1.77593">
        <ele>140.767218</ele>
        <time>2026-08-29T06:05:42Z</time>
      </trkpt>
      <trkpt lat="43.80295" lon="1.77589">
        <ele>140.774062</ele>
        <time>2026-08-29T06:05:43Z</time>
      </trkpt>
      <trkpt lat="43.80296" lon="1.77584">
        <ele>140.780539</ele>
        <time>2026-08-29T06:05:44Z</time>
      </trkpt>
      <trkpt lat="43.80297" lon="1.77579">
        <ele>140.786892</ele>
        <time>2026-08-29T06:05:45Z</time>
      </trkpt>
      <trkpt lat="43.80298" lon="1.77575">
        <ele>140.793059</ele>
        <time>2026-08-29T06:05:46Z</time>
      </trkpt>
      <trkpt lat="43.80299" lon="1.77571">
        <ele>140.798609</ele>
        <time>2026-08-29T06:05:47Z</time>
      </trkpt>
      <trkpt lat="43.80301" lon="1.77567">
        <ele>140.803976</ele>
        <time>2026-08-29T06:05:48Z</time>
      </trkpt>
      <trkpt lat="43.80302" lon="1.77563">
        <ele>140.809337</ele>
        <time>2026-08-29T06:05:49Z</time>
      </trkpt>
      <trkpt lat="43.80303" lon="1.7756">
        <ele>140.814299</ele>
        <time>2026-08-29T06:05:50Z</time>
      </trkpt>
      <trkpt lat="43.80304" lon="1.77557">
        <ele>140.819065</ele>
        <time>2026-08-29T06:05:51Z</time>
      </trkpt>
      <trkpt lat="43.80306" lon="1.77554">
        <ele>140.823129</ele>
        <time>2026-08-29T06:05:52Z</time>
      </trkpt>
      <trkpt lat="43.80307" lon="1.77551">
        <ele>140.828147</ele>
        <time>2026-08-29T06:05:53Z</time>
      </trkpt>
      <trkpt lat="43.80309" lon="1.77548">
        <ele>140.833371</ele>
        <time>2026-08-29T06:05:54Z</time>
      </trkpt>
      <trkpt lat="43.8031" lon="1.77544">
        <ele>140.839199</ele>
        <time>2026-08-29T06:05:55Z</time>
      </trkpt>
      <trkpt lat="43.80312" lon="1.7754">
        <ele>140.845405</ele>
        <time>2026-08-29T06:05:56Z</time>
      </trkpt>
      <trkpt lat="43.80315" lon="1.77538">
        <ele>140.851304</ele>
        <time>2026-08-29T06:05:57Z</time>
      </trkpt>
      <trkpt lat="43.80318" lon="1.77537">
        <ele>140.856236</ele>
        <time>2026-08-29T06:05:58Z</time>
      </trkpt>
      <trkpt lat="43.8032" lon="1.77539">
        <ele>140.860971</ele>
        <time>2026-08-29T06:05:59Z</time>
      </trkpt>
      <trkpt lat="43.80322" lon="1.77542">
        <ele>140.866204</ele>
        <time>2026-08-29T06:06:00Z</time>
      </trkpt>
      <trkpt lat="43.80324" lon="1.77545">
        <ele>140.871998</ele>
        <time>2026-08-29T06:06:01Z</time>
      </trkpt>
      <trkpt lat="43.80326" lon="1.77549">
        <ele>140.878301</ele>
        <time>2026-08-29T06:06:02Z</time>
      </trkpt>
      <trkpt lat="43.80329" lon="1.77552">
        <ele>140.884506</ele>
        <time>2026-08-29T06:06:03Z</time>
      </trkpt>
      <trkpt lat="43.80331" lon="1.77556">
        <ele>140.890781</ele>
        <time>2026-08-29T06:06:04Z</time>
      </trkpt>
      <trkpt lat="43.80333" lon="1.7756">
        <ele>140.897588</ele>
        <time>2026-08-29T06:06:05Z</time>
      </trkpt>
      <trkpt lat="43.80335" lon="1.77565">
        <ele>140.904285</ele>
        <time>2026-08-29T06:06:06Z</time>
      </trkpt>
      <trkpt lat="43.80337" lon="1.77569">
        <ele>140.910879</ele>
        <time>2026-08-29T06:06:07Z</time>
      </trkpt>
      <trkpt lat="43.80339" lon="1.77573">
        <ele>140.917363</ele>
        <time>2026-08-29T06:06:08Z</time>
      </trkpt>
      <trkpt lat="43.80342" lon="1.77577">
        <ele>140.923954</ele>
        <time>2026-08-29T06:06:09Z</time>
      </trkpt>
      <trkpt lat="43.80344" lon="1.7758">
        <ele>140.930341</ele>
        <time>2026-08-29T06:06:10Z</time>
      </trkpt>
      <trkpt lat="43.80346" lon="1.77584">
        <ele>140.936944</ele>
        <time>2026-08-29T06:06:11Z</time>
      </trkpt>
      <trkpt lat="43.80348" lon="1.77588">
        <ele>140.943546</ele>
        <time>2026-08-29T06:06:12Z</time>
      </trkpt>
      <trkpt lat="43.80351" lon="1.77592">
        <ele>140.950265</ele>
        <time>2026-08-29T06:06:13Z</time>
      </trkpt>
      <trkpt lat="43.80353" lon="1.77596">
        <ele>140.956868</ele>
        <time>2026-08-29T06:06:14Z</time>
      </trkpt>
      <trkpt lat="43.80356" lon="1.776">
        <ele>140.963905</ele>
        <time>2026-08-29T06:06:15Z</time>
      </trkpt>
      <trkpt lat="43.80358" lon="1.77604">
        <ele>140.970724</ele>
        <time>2026-08-29T06:06:16Z</time>
      </trkpt>
      <trkpt lat="43.8036" lon="1.77608">
        <ele>140.977327</ele>
        <time>2026-08-29T06:06:17Z</time>
      </trkpt>
      <trkpt lat="43.80362" lon="1.77612">
        <ele>140.98413</ele>
        <time>2026-08-29T06:06:18Z</time>
      </trkpt>
      <trkpt lat="43.80365" lon="1.77616">
        <ele>140.99095</ele>
        <time>2026-08-29T06:06:19Z</time>
      </trkpt>
      <trkpt lat="43.80367" lon="1.7762">
        <ele>140.997279</ele>
        <time>2026-08-29T06:06:20Z</time>
      </trkpt>
      <trkpt lat="43.80369" lon="1.77624">
        <ele>141.003557</ele>
        <time>2026-08-29T06:06:21Z</time>
      </trkpt>
      <trkpt lat="43.80371" lon="1.77628">
        <ele>141.010148</ele>
        <time>2026-08-29T06:06:22Z</time>
      </trkpt>
      <trkpt lat="43.80373" lon="1.77632">
        <ele>141.016741</ele>
        <time>2026-08-29T06:06:23Z</time>
      </trkpt>
      <trkpt lat="43.80375" lon="1.77636">
        <ele>141.023129</ele>
        <time>2026-08-29T06:06:24Z</time>
      </trkpt>
      <trkpt lat="43.80377" lon="1.7764">
        <ele>141.029613</ele>
        <time>2026-08-29T06:06:25Z</time>
      </trkpt>
      <trkpt lat="43.8038" lon="1.77644">
        <ele>141.036525</ele>
        <time>2026-08-29T06:06:26Z</time>
      </trkpt>
      <trkpt lat="43.80382" lon="1.77649">
        <ele>141.043542</ele>
        <time>2026-08-29T06:06:27Z</time>
      </trkpt>
      <trkpt lat="43.80384" lon="1.77653">
        <ele>141.050349</ele>
        <time>2026-08-29T06:06:28Z</time>
      </trkpt>
      <trkpt lat="43.80386" lon="1.77657">
        <ele>141.057168</ele>
        <time>2026-08-29T06:06:29Z</time>
      </trkpt>
      <trkpt lat="43.80389" lon="1.77661">
        <ele>141.063658</ele>
        <time>2026-08-29T06:06:30Z</time>
      </trkpt>
      <trkpt lat="43.80391" lon="1.77665">
        <ele>141.070249</ele>
        <time>2026-08-29T06:06:31Z</time>
      </trkpt>
      <trkpt lat="43.80393" lon="1.77668">
        <ele>141.087583</ele>
        <time>2026-08-29T06:06:32Z</time>
      </trkpt>
      <trkpt lat="43.80396" lon="1.77671">
        <ele>141.131921</ele>
        <time>2026-08-29T06:06:33Z</time>
      </trkpt>
      <trkpt lat="43.80398" lon="1.77674">
        <ele>141.174899</ele>
        <time>2026-08-29T06:06:34Z</time>
      </trkpt>
      <trkpt lat="43.804" lon="1.77677">
        <ele>141.21488</ele>
        <time>2026-08-29T06:06:35Z</time>
      </trkpt>
      <trkpt lat="43.80401" lon="1.7768">
        <ele>141.250908</ele>
        <time>2026-08-29T06:06:36Z</time>
      </trkpt>
      <trkpt lat="43.80402" lon="1.77684">
        <ele>141.286873</ele>
        <time>2026-08-29T06:06:37Z</time>
      </trkpt>
      <trkpt lat="43.80403" lon="1.77687">
        <ele>141.32008</ele>
        <time>2026-08-29T06:06:38Z</time>
      </trkpt>
      <trkpt lat="43.80404" lon="1.7769">
        <ele>141.355139</ele>
        <time>2026-08-29T06:06:39Z</time>
      </trkpt>
      <trkpt lat="43.80406" lon="1.77693">
        <ele>141.39204</ele>
        <time>2026-08-29T06:06:40Z</time>
      </trkpt>
      <trkpt lat="43.80408" lon="1.77696">
        <ele>141.433823</ele>
        <time>2026-08-29T06:06:41Z</time>
      </trkpt>
      <trkpt lat="43.80409" lon="1.77699">
        <ele>141.476243</ele>
        <time>2026-08-29T06:06:42Z</time>
      </trkpt>
      <trkpt lat="43.80411" lon="1.77702">
        <ele>141.517883</ele>
        <time>2026-08-29T06:06:43Z</time>
      </trkpt>
      <trkpt lat="43.80413" lon="1.77706">
        <ele>141.560277</ele>
        <time>2026-08-29T06:06:44Z</time>
      </trkpt>
      <trkpt lat="43.80415" lon="1.7771">
        <ele>141.605115</ele>
        <time>2026-08-29T06:06:45Z</time>
      </trkpt>
      <trkpt lat="43.80417" lon="1.77713">
        <ele>141.654068</ele>
        <time>2026-08-29T06:06:46Z</time>
      </trkpt>
      <trkpt lat="43.80419" lon="1.77717">
        <ele>141.70147</ele>
        <time>2026-08-29T06:06:47Z</time>
      </trkpt>
      <trkpt lat="43.80421" lon="1.77721">
        <ele>141.751175</ele>
        <time>2026-08-29T06:06:48Z</time>
      </trkpt>
      <trkpt lat="43.80423" lon="1.77726">
        <ele>141.805024</ele>
        <time>2026-08-29T06:06:49Z</time>
      </trkpt>
      <trkpt lat="43.80426" lon="1.7773">
        <ele>141.858032</ele>
        <time>2026-08-29T06:06:50Z</time>
      </trkpt>
      <trkpt lat="43.80428" lon="1.77734">
        <ele>141.908595</ele>
        <time>2026-08-29T06:06:51Z</time>
      </trkpt>
      <trkpt lat="43.80429" lon="1.77738">
        <ele>141.956819</ele>
        <time>2026-08-29T06:06:52Z</time>
      </trkpt>
      <trkpt lat="43.80431" lon="1.77743">
        <ele>142.007484</ele>
        <time>2026-08-29T06:06:53Z</time>
      </trkpt>
      <trkpt lat="43.80433" lon="1.77747">
        <ele>142.059008</ele>
        <time>2026-08-29T06:06:54Z</time>
      </trkpt>
      <trkpt lat="43.80435" lon="1.77752">
        <ele>142.112474</ele>
        <time>2026-08-29T06:06:55Z</time>
      </trkpt>
      <trkpt lat="43.80437" lon="1.77756">
        <ele>142.167302</ele>
        <time>2026-08-29T06:06:56Z</time>
      </trkpt>
      <trkpt lat="43.80439" lon="1.77761">
        <ele>142.221265</ele>
        <time>2026-08-29T06:06:57Z</time>
      </trkpt>
      <trkpt lat="43.80441" lon="1.77766">
        <ele>142.276813</ele>
        <time>2026-08-29T06:06:58Z</time>
      </trkpt>
      <trkpt lat="43.80443" lon="1.7777">
        <ele>142.333105</ele>
        <time>2026-08-29T06:06:59Z</time>
      </trkpt>
      <trkpt lat="43.80446" lon="1.77775">
        <ele>142.391783</ele>
        <time>2026-08-29T06:07:00Z</time>
      </trkpt>
      <trkpt lat="43.80448" lon="1.7778">
        <ele>142.449049</ele>
        <time>2026-08-29T06:07:01Z</time>
      </trkpt>
      <trkpt lat="43.8045" lon="1.77785">
        <ele>142.507181</ele>
        <time>2026-08-29T06:07:02Z</time>
      </trkpt>
      <trkpt lat="43.80452" lon="1.7779">
        <ele>142.562193</ele>
        <time>2026-08-29T06:07:03Z</time>
      </trkpt>
      <trkpt lat="43.80454" lon="1.77794">
        <ele>142.616888</ele>
        <time>2026-08-29T06:07:04Z</time>
      </trkpt>
      <trkpt lat="43.80456" lon="1.77799">
        <ele>142.672436</ele>
        <time>2026-08-29T06:07:05Z</time>
      </trkpt>
      <trkpt lat="43.80458" lon="1.77804">
        <ele>142.725541</ele>
        <time>2026-08-29T06:07:06Z</time>
      </trkpt>
      <trkpt lat="43.8046" lon="1.77808">
        <ele>142.780236</ele>
        <time>2026-08-29T06:07:07Z</time>
      </trkpt>
      <trkpt lat="43.80462" lon="1.77813">
        <ele>142.834932</ele>
        <time>2026-08-29T06:07:08Z</time>
      </trkpt>
      <trkpt lat="43.80464" lon="1.77817">
        <ele>142.889549</ele>
        <time>2026-08-29T06:07:09Z</time>
      </trkpt>
      <trkpt lat="43.80466" lon="1.77822">
        <ele>142.945096</ele>
        <time>2026-08-29T06:07:10Z</time>
      </trkpt>
      <trkpt lat="43.80469" lon="1.77827">
        <ele>143.002158</ele>
        <time>2026-08-29T06:07:11Z</time>
      </trkpt>
      <trkpt lat="43.80471" lon="1.77832">
        <ele>143.058053</ele>
        <time>2026-08-29T06:07:12Z</time>
      </trkpt>
      <trkpt lat="43.80473" lon="1.77837">
        <ele>143.113948</ele>
        <time>2026-08-29T06:07:13Z</time>
      </trkpt>
      <trkpt lat="43.80474" lon="1.77842">
        <ele>143.170751</ele>
        <time>2026-08-29T06:07:14Z</time>
      </trkpt>
      <trkpt lat="43.80477" lon="1.77847">
        <ele>143.229429</ele>
        <time>2026-08-29T06:07:15Z</time>
      </trkpt>
      <trkpt lat="43.80479" lon="1.77851">
        <ele>143.287418</ele>
        <time>2026-08-29T06:07:16Z</time>
      </trkpt>
      <trkpt lat="43.80481" lon="1.77856">
        <ele>143.343113</ele>
        <time>2026-08-29T06:07:17Z</time>
      </trkpt>
      <trkpt lat="43.80483" lon="1.77861">
        <ele>143.399008</ele>
        <time>2026-08-29T06:07:18Z</time>
      </trkpt>
      <trkpt lat="43.80485" lon="1.77866">
        <ele>143.45579</ele>
        <time>2026-08-29T06:07:19Z</time>
      </trkpt>
      <trkpt lat="43.80486" lon="1.77871">
        <ele>143.512838</ele>
        <time>2026-08-29T06:07:20Z</time>
      </trkpt>
      <trkpt lat="43.80488" lon="1.77876">
        <ele>143.568718</ele>
        <time>2026-08-29T06:07:21Z</time>
      </trkpt>
      <trkpt lat="43.8049" lon="1.77881">
        <ele>143.565272</ele>
        <time>2026-08-29T06:07:22Z</time>
      </trkpt>
      <trkpt lat="43.80492" lon="1.77886">
        <ele>143.5483</ele>
        <time>2026-08-29T06:07:23Z</time>
      </trkpt>
      <trkpt lat="43.80494" lon="1.77891">
        <ele>143.530632</ele>
        <time>2026-08-29T06:07:24Z</time>
      </trkpt>
      <trkpt lat="43.80496" lon="1.77896">
        <ele>143.51323</ele>
        <time>2026-08-29T06:07:25Z</time>
      </trkpt>
      <trkpt lat="43.80498" lon="1.77901">
        <ele>143.495075</ele>
        <time>2026-08-29T06:07:26Z</time>
      </trkpt>
      <trkpt lat="43.805" lon="1.77906">
        <ele>143.476654</ele>
        <time>2026-08-29T06:07:27Z</time>
      </trkpt>
      <trkpt lat="43.80503" lon="1.77911">
        <ele>143.459025</ele>
        <time>2026-08-29T06:07:28Z</time>
      </trkpt>
      <trkpt lat="43.80505" lon="1.77916">
        <ele>143.44109</ele>
        <time>2026-08-29T06:07:29Z</time>
      </trkpt>
      <trkpt lat="43.80507" lon="1.77921">
        <ele>143.423199</ele>
        <time>2026-08-29T06:07:30Z</time>
      </trkpt>
      <trkpt lat="43.80509" lon="1.77926">
        <ele>143.404324</ele>
        <time>2026-08-29T06:07:31Z</time>
      </trkpt>
      <trkpt lat="43.80512" lon="1.77931">
        <ele>143.385941</ele>
        <time>2026-08-29T06:07:32Z</time>
      </trkpt>
      <trkpt lat="43.80514" lon="1.77936">
        <ele>143.366805</ele>
        <time>2026-08-29T06:07:33Z</time>
      </trkpt>
      <trkpt lat="43.80516" lon="1.77941">
        <ele>143.349353</ele>
        <time>2026-08-29T06:07:34Z</time>
      </trkpt>
      <trkpt lat="43.80518" lon="1.77946">
        <ele>143.329723</ele>
        <time>2026-08-29T06:07:35Z</time>
      </trkpt>
      <trkpt lat="43.8052" lon="1.77952">
        <ele>143.311</ele>
        <time>2026-08-29T06:07:36Z</time>
      </trkpt>
      <trkpt lat="43.80523" lon="1.77957">
        <ele>143.291293</ele>
        <time>2026-08-29T06:07:37Z</time>
      </trkpt>
      <trkpt lat="43.80525" lon="1.77963">
        <ele>143.271526</ele>
        <time>2026-08-29T06:07:38Z</time>
      </trkpt>
      <trkpt lat="43.80527" lon="1.77968">
        <ele>143.251961</ele>
        <time>2026-08-29T06:07:39Z</time>
      </trkpt>
      <trkpt lat="43.80529" lon="1.77974">
        <ele>143.232194</ele>
        <time>2026-08-29T06:07:40Z</time>
      </trkpt>
      <trkpt lat="43.80531" lon="1.7798">
        <ele>143.211948</ele>
        <time>2026-08-29T06:07:41Z</time>
      </trkpt>
      <trkpt lat="43.80534" lon="1.77986">
        <ele>143.190886</ele>
        <time>2026-08-29T06:07:42Z</time>
      </trkpt>
      <trkpt lat="43.80536" lon="1.77991">
        <ele>143.170297</ele>
        <time>2026-08-29T06:07:43Z</time>
      </trkpt>
      <trkpt lat="43.80538" lon="1.77998">
        <ele>143.148685</ele>
        <time>2026-08-29T06:07:44Z</time>
      </trkpt>
      <trkpt lat="43.8054" lon="1.78004">
        <ele>143.127802</ele>
        <time>2026-08-29T06:07:45Z</time>
      </trkpt>
      <trkpt lat="43.80542" lon="1.7801">
        <ele>143.106661</ele>
        <time>2026-08-29T06:07:46Z</time>
      </trkpt>
      <trkpt lat="43.80545" lon="1.78017">
        <ele>143.083939</ele>
        <time>2026-08-29T06:07:47Z</time>
      </trkpt>
      <trkpt lat="43.80547" lon="1.78023">
        <ele>143.062519</ele>
        <time>2026-08-29T06:07:48Z</time>
      </trkpt>
      <trkpt lat="43.80548" lon="1.78029">
        <ele>143.041377</ele>
        <time>2026-08-29T06:07:49Z</time>
      </trkpt>
      <trkpt lat="43.8055" lon="1.78035">
        <ele>143.020494</ele>
        <time>2026-08-29T06:07:50Z</time>
      </trkpt>
      <trkpt lat="43.80552" lon="1.78042">
        <ele>142.999039</ele>
        <time>2026-08-29T06:07:51Z</time>
      </trkpt>
      <trkpt lat="43.80554" lon="1.78048">
        <ele>142.976782</ele>
        <time>2026-08-29T06:07:52Z</time>
      </trkpt>
      <trkpt lat="43.80557" lon="1.78055">
        <ele>142.954136</ele>
        <time>2026-08-29T06:07:53Z</time>
      </trkpt>
      <trkpt lat="43.80559" lon="1.78062">
        <ele>142.93039</ele>
        <time>2026-08-29T06:07:54Z</time>
      </trkpt>
      <trkpt lat="43.80561" lon="1.78069">
        <ele>142.906262</ele>
        <time>2026-08-29T06:07:55Z</time>
      </trkpt>
      <trkpt lat="43.80564" lon="1.78076">
        <ele>142.882135</ele>
        <time>2026-08-29T06:07:56Z</time>
      </trkpt>
      <trkpt lat="43.80566" lon="1.78083">
        <ele>142.85829</ele>
        <time>2026-08-29T06:07:57Z</time>
      </trkpt>
      <trkpt lat="43.80568" lon="1.7809">
        <ele>142.835644</ele>
        <time>2026-08-29T06:07:58Z</time>
      </trkpt>
      <trkpt lat="43.8057" lon="1.78096">
        <ele>142.813452</ele>
        <time>2026-08-29T06:07:59Z</time>
      </trkpt>
      <trkpt lat="43.80572" lon="1.78103">
        <ele>142.757733</ele>
        <time>2026-08-29T06:08:00Z</time>
      </trkpt>
      <trkpt lat="43.80574" lon="1.7811">
        <ele>142.685617</ele>
        <time>2026-08-29T06:08:01Z</time>
      </trkpt>
      <trkpt lat="43.80576" lon="1.78117">
        <ele>142.611143</ele>
        <time>2026-08-29T06:08:02Z</time>
      </trkpt>
      <trkpt lat="43.80578" lon="1.78123">
        <ele>142.538119</ele>
        <time>2026-08-29T06:08:03Z</time>
      </trkpt>
      <trkpt lat="43.8058" lon="1.7813">
        <ele>142.464708</ele>
        <time>2026-08-29T06:08:04Z</time>
      </trkpt>
      <trkpt lat="43.80583" lon="1.78137">
        <ele>142.389671</ele>
        <time>2026-08-29T06:08:05Z</time>
      </trkpt>
      <trkpt lat="43.80585" lon="1.78144">
        <ele>142.318459</ele>
        <time>2026-08-29T06:08:06Z</time>
      </trkpt>
      <trkpt lat="43.80587" lon="1.78151">
        <ele>142.244317</ele>
        <time>2026-08-29T06:08:07Z</time>
      </trkpt>
      <trkpt lat="43.80589" lon="1.78157">
        <ele>142.171645</ele>
        <time>2026-08-29T06:08:08Z</time>
      </trkpt>
      <trkpt lat="43.80591" lon="1.78164">
        <ele>142.101336</ele>
        <time>2026-08-29T06:08:09Z</time>
      </trkpt>
      <trkpt lat="43.80593" lon="1.7817">
        <ele>142.032099</ele>
        <time>2026-08-29T06:08:10Z</time>
      </trkpt>
      <trkpt lat="43.80595" lon="1.78177">
        <ele>141.963364</ele>
        <time>2026-08-29T06:08:11Z</time>
      </trkpt>
      <trkpt lat="43.80597" lon="1.78183">
        <ele>141.895041</ele>
        <time>2026-08-29T06:08:12Z</time>
      </trkpt>
      <trkpt lat="43.80599" lon="1.7819">
        <ele>141.822369</ele>
        <time>2026-08-29T06:08:13Z</time>
      </trkpt>
      <trkpt lat="43.80601" lon="1.78197">
        <ele>141.751299</ele>
        <time>2026-08-29T06:08:14Z</time>
      </trkpt>
      <trkpt lat="43.80603" lon="1.78203">
        <ele>141.678803</ele>
        <time>2026-08-29T06:08:15Z</time>
      </trkpt>
      <trkpt lat="43.80605" lon="1.7821">
        <ele>141.609566</ele>
        <time>2026-08-29T06:08:16Z</time>
      </trkpt>
      <trkpt lat="43.80607" lon="1.78216">
        <ele>141.541753</ele>
        <time>2026-08-29T06:08:17Z</time>
      </trkpt>
      <trkpt lat="43.80608" lon="1.78223">
        <ele>141.476257</ele>
        <time>2026-08-29T06:08:18Z</time>
      </trkpt>
      <trkpt lat="43.8061" lon="1.78229">
        <ele>141.407761</ele>
        <time>2026-08-29T06:08:19Z</time>
      </trkpt>
      <trkpt lat="43.8061" lon="1.78236">
        <ele>141.33942</ele>
        <time>2026-08-29T06:08:20Z</time>
      </trkpt>
      <trkpt lat="43.80609" lon="1.78243">
        <ele>141.269651</ele>
        <time>2026-08-29T06:08:21Z</time>
      </trkpt>
      <trkpt lat="43.80608" lon="1.7825">
        <ele>141.202368</ele>
        <time>2026-08-29T06:08:22Z</time>
      </trkpt>
      <trkpt lat="43.80606" lon="1.78256">
        <ele>141.136533</ele>
        <time>2026-08-29T06:08:23Z</time>
      </trkpt>
      <trkpt lat="43.80603" lon="1.78261">
        <ele>141.068485</ele>
        <time>2026-08-29T06:08:24Z</time>
      </trkpt>
      <trkpt lat="43.806" lon="1.78267">
        <ele>141.001205</ele>
        <time>2026-08-29T06:08:25Z</time>
      </trkpt>
      <trkpt lat="43.80597" lon="1.78272">
        <ele>140.928144</ele>
        <time>2026-08-29T06:08:26Z</time>
      </trkpt>
      <trkpt lat="43.80593" lon="1.78277">
        <ele>140.855756</ele>
        <time>2026-08-29T06:08:27Z</time>
      </trkpt>
      <trkpt lat="43.80589" lon="1.78282">
        <ele>140.784397</ele>
        <time>2026-08-29T06:08:28Z</time>
      </trkpt>
      <trkpt lat="43.80585" lon="1.78287">
        <ele>140.711335</ele>
        <time>2026-08-29T06:08:29Z</time>
      </trkpt>
      <trkpt lat="43.80581" lon="1.78292">
        <ele>140.641135</ele>
        <time>2026-08-29T06:08:30Z</time>
      </trkpt>
      <trkpt lat="43.80579" lon="1.78298">
        <ele>140.57441</ele>
        <time>2026-08-29T06:08:31Z</time>
      </trkpt>
      <trkpt lat="43.80578" lon="1.78305">
        <ele>140.505414</ele>
        <time>2026-08-29T06:08:32Z</time>
      </trkpt>
      <trkpt lat="43.80579" lon="1.78312">
        <ele>140.435645</ele>
        <time>2026-08-29T06:08:33Z</time>
      </trkpt>
      <trkpt lat="43.8058" lon="1.78318">
        <ele>140.377798</ele>
        <time>2026-08-29T06:08:34Z</time>
      </trkpt>
      <trkpt lat="43.80581" lon="1.78323">
        <ele>140.327486</ele>
        <time>2026-08-29T06:08:35Z</time>
      </trkpt>
      <trkpt lat="43.80583" lon="1.78328">
        <ele>140.286176</ele>
        <time>2026-08-29T06:08:36Z</time>
      </trkpt>
      <trkpt lat="43.80587" lon="1.78332">
        <ele>140.243642</ele>
        <time>2026-08-29T06:08:37Z</time>
      </trkpt>
      <trkpt lat="43.80591" lon="1.78334">
        <ele>140.202051</ele>
        <time>2026-08-29T06:08:38Z</time>
      </trkpt>
      <trkpt lat="43.80595" lon="1.78334">
        <ele>140.163119</ele>
        <time>2026-08-29T06:08:39Z</time>
      </trkpt>
      <trkpt lat="43.80599" lon="1.78333">
        <ele>140.120179</ele>
        <time>2026-08-29T06:08:40Z</time>
      </trkpt>
      <trkpt lat="43.80603" lon="1.7833">
        <ele>140.072324</ele>
        <time>2026-08-29T06:08:41Z</time>
      </trkpt>
      <trkpt lat="43.80607" lon="1.78326">
        <ele>140.023233</ele>
        <time>2026-08-29T06:08:42Z</time>
      </trkpt>
      <trkpt lat="43.80611" lon="1.78323">
        <ele>139.975821</ele>
        <time>2026-08-29T06:08:43Z</time>
      </trkpt>
      <trkpt lat="43.80616" lon="1.78319">
        <ele>139.925882</ele>
        <time>2026-08-29T06:08:44Z</time>
      </trkpt>
      <trkpt lat="43.8062" lon="1.78315">
        <ele>139.878471</ele>
        <time>2026-08-29T06:08:45Z</time>
      </trkpt>
      <trkpt lat="43.80624" lon="1.78312">
        <ele>139.824738</ele>
        <time>2026-08-29T06:08:46Z</time>
      </trkpt>
      <trkpt lat="43.80629" lon="1.78308">
        <ele>139.773443</ele>
        <time>2026-08-29T06:08:47Z</time>
      </trkpt>
      <trkpt lat="43.80633" lon="1.78305">
        <ele>139.723011</ele>
        <time>2026-08-29T06:08:48Z</time>
      </trkpt>
      <trkpt lat="43.80638" lon="1.78302">
        <ele>139.671574</ele>
        <time>2026-08-29T06:08:49Z</time>
      </trkpt>
      <trkpt lat="43.80643" lon="1.78299">
        <ele>139.621784</ele>
        <time>2026-08-29T06:08:50Z</time>
      </trkpt>
      <trkpt lat="43.80647" lon="1.78297">
        <ele>139.570123</ele>
        <time>2026-08-29T06:08:51Z</time>
      </trkpt>
      <trkpt lat="43.80652" lon="1.78295">
        <ele>139.518698</ele>
        <time>2026-08-29T06:08:52Z</time>
      </trkpt>
      <trkpt lat="43.80657" lon="1.78293">
        <ele>139.470555</ele>
        <time>2026-08-29T06:08:53Z</time>
      </trkpt>
      <trkpt lat="43.80662" lon="1.78291">
        <ele>139.422271</ele>
        <time>2026-08-29T06:08:54Z</time>
      </trkpt>
      <trkpt lat="43.80666" lon="1.78289">
        <ele>139.379297</ele>
        <time>2026-08-29T06:08:55Z</time>
      </trkpt>
      <trkpt lat="43.80671" lon="1.78286">
        <ele>139.320002</ele>
        <time>2026-08-29T06:08:56Z</time>
      </trkpt>
      <trkpt lat="43.80676" lon="1.78283">
        <ele>139.270212</ele>
        <time>2026-08-29T06:08:57Z</time>
      </trkpt>
      <trkpt lat="43.80681" lon="1.78281">
        <ele>139.219637</ele>
        <time>2026-08-29T06:08:58Z</time>
      </trkpt>
      <trkpt lat="43.80686" lon="1.78278">
        <ele>139.16375</ele>
        <time>2026-08-29T06:08:59Z</time>
      </trkpt>
      <trkpt lat="43.80691" lon="1.78275">
        <ele>139.108799</ele>
        <time>2026-08-29T06:09:00Z</time>
      </trkpt>
      <trkpt lat="43.80696" lon="1.78273">
        <ele>139.05994</ele>
        <time>2026-08-29T06:09:01Z</time>
      </trkpt>
      <trkpt lat="43.807" lon="1.78271">
        <ele>139.01015</ele>
        <time>2026-08-29T06:09:02Z</time>
      </trkpt>
      <trkpt lat="43.80705" lon="1.78268">
        <ele>138.96222</ele>
        <time>2026-08-29T06:09:03Z</time>
      </trkpt>
      <trkpt lat="43.80709" lon="1.78266">
        <ele>138.915585</ele>
        <time>2026-08-29T06:09:04Z</time>
      </trkpt>
      <trkpt lat="43.80713" lon="1.78263">
        <ele>138.870765</ele>
        <time>2026-08-29T06:09:05Z</time>
      </trkpt>
      <trkpt lat="43.80717" lon="1.78261">
        <ele>138.831021</ele>
        <time>2026-08-29T06:09:06Z</time>
      </trkpt>
      <trkpt lat="43.8072" lon="1.7826">
        <ele>138.797443</ele>
        <time>2026-08-29T06:09:07Z</time>
      </trkpt>
      <trkpt lat="43.80724" lon="1.78261">
        <ele>138.762292</ele>
        <time>2026-08-29T06:09:08Z</time>
      </trkpt>
      <trkpt lat="43.80727" lon="1.78263">
        <ele>138.723339</ele>
        <time>2026-08-29T06:09:09Z</time>
      </trkpt>
      <trkpt lat="43.8073" lon="1.78268">
        <ele>138.682007</ele>
        <time>2026-08-29T06:09:10Z</time>
      </trkpt>
      <trkpt lat="43.80731" lon="1.78273">
        <ele>138.642529</ele>
        <time>2026-08-29T06:09:11Z</time>
      </trkpt>
      <trkpt lat="43.80731" lon="1.78279">
        <ele>138.599787</ele>
        <time>2026-08-29T06:09:12Z</time>
      </trkpt>
      <trkpt lat="43.80732" lon="1.78285">
        <ele>138.558199</ele>
        <time>2026-08-29T06:09:13Z</time>
      </trkpt>
      <trkpt lat="43.80732" lon="1.78291">
        <ele>138.58703</ele>
        <time>2026-08-29T06:09:14Z</time>
      </trkpt>
      <trkpt lat="43.80732" lon="1.78296">
        <ele>138.61432</ele>
        <time>2026-08-29T06:09:15Z</time>
      </trkpt>
      <trkpt lat="43.80733" lon="1.78302">
        <ele>138.642422</ele>
        <time>2026-08-29T06:09:16Z</time>
      </trkpt>
      <trkpt lat="43.80733" lon="1.78307">
        <ele>138.670852</ele>
        <time>2026-08-29T06:09:17Z</time>
      </trkpt>
      <trkpt lat="43.80732" lon="1.78313">
        <ele>138.697956</ele>
        <time>2026-08-29T06:09:18Z</time>
      </trkpt>
      <trkpt lat="43.80732" lon="1.78318">
        <ele>138.725381</ele>
        <time>2026-08-29T06:09:19Z</time>
      </trkpt>
      <trkpt lat="43.80732" lon="1.78323">
        <ele>138.753202</ele>
        <time>2026-08-29T06:09:20Z</time>
      </trkpt>
      <trkpt lat="43.80731" lon="1.78329">
        <ele>138.780061</ele>
        <time>2026-08-29T06:09:21Z</time>
      </trkpt>
      <trkpt lat="43.80731" lon="1.78334">
        <ele>138.805912</ele>
        <time>2026-08-29T06:09:22Z</time>
      </trkpt>
      <trkpt lat="43.80731" lon="1.78339">
        <ele>138.832517</ele>
        <time>2026-08-29T06:09:23Z</time>
      </trkpt>
      <trkpt lat="43.8073" lon="1.78345">
        <ele>138.860339</ele>
        <time>2026-08-29T06:09:24Z</time>
      </trkpt>
      <trkpt lat="43.8073" lon="1.78351">
        <ele>138.891662</ele>
        <time>2026-08-29T06:09:25Z</time>
      </trkpt>
      <trkpt lat="43.8073" lon="1.78357">
        <ele>138.924567</ele>
        <time>2026-08-29T06:09:26Z</time>
      </trkpt>
      <trkpt lat="43.8073" lon="1.78364">
        <ele>138.957911</ele>
        <time>2026-08-29T06:09:27Z</time>
      </trkpt>
      <trkpt lat="43.8073" lon="1.78371">
        <ele>138.992294</ele>
        <time>2026-08-29T06:09:28Z</time>
      </trkpt>
      <trkpt lat="43.80731" lon="1.78377">
        <ele>139.025319</ele>
        <time>2026-08-29T06:09:29Z</time>
      </trkpt>
      <trkpt lat="43.80731" lon="1.78384">
        <ele>139.057773</ele>
        <time>2026-08-29T06:09:30Z</time>
      </trkpt>
      <trkpt lat="43.80732" lon="1.7839">
        <ele>139.089478</ele>
        <time>2026-08-29T06:09:31Z</time>
      </trkpt>
      <trkpt lat="43.80733" lon="1.78396">
        <ele>139.121428</ele>
        <time>2026-08-29T06:09:32Z</time>
      </trkpt>
      <trkpt lat="43.80734" lon="1.78402">
        <ele>139.15437</ele>
        <time>2026-08-29T06:09:33Z</time>
      </trkpt>
      <trkpt lat="43.80735" lon="1.78409">
        <ele>139.18844</ele>
        <time>2026-08-29T06:09:34Z</time>
      </trkpt>
      <trkpt lat="43.80735" lon="1.78416">
        <ele>139.222251</ele>
        <time>2026-08-29T06:09:35Z</time>
      </trkpt>
      <trkpt lat="43.80736" lon="1.78422">
        <ele>139.255454</ele>
        <time>2026-08-29T06:09:36Z</time>
      </trkpt>
      <trkpt lat="43.80737" lon="1.78429">
        <ele>139.288891</ele>
        <time>2026-08-29T06:09:37Z</time>
      </trkpt>
      <trkpt lat="43.80738" lon="1.78435">
        <ele>139.323113</ele>
        <time>2026-08-29T06:09:38Z</time>
      </trkpt>
      <trkpt lat="43.80739" lon="1.78442">
        <ele>139.358668</ele>
        <time>2026-08-29T06:09:39Z</time>
      </trkpt>
      <trkpt lat="43.80741" lon="1.78448">
        <ele>139.392887</ele>
        <time>2026-08-29T06:09:40Z</time>
      </trkpt>
      <trkpt lat="43.80742" lon="1.78455">
        <ele>139.425702</ele>
        <time>2026-08-29T06:09:41Z</time>
      </trkpt>
      <trkpt lat="43.80742" lon="1.7846">
        <ele>139.45201</ele>
        <time>2026-08-29T06:09:42Z</time>
      </trkpt>
      <trkpt lat="43.80743" lon="1.78465">
        <ele>139.478377</ele>
        <time>2026-08-29T06:09:43Z</time>
      </trkpt>
      <trkpt lat="43.80743" lon="1.7847">
        <ele>139.505393</ele>
        <time>2026-08-29T06:09:44Z</time>
      </trkpt>
      <trkpt lat="43.80744" lon="1.78476">
        <ele>139.533069</ele>
        <time>2026-08-29T06:09:45Z</time>
      </trkpt>
      <trkpt lat="43.80746" lon="1.7848">
        <ele>139.559495</ele>
        <time>2026-08-29T06:09:46Z</time>
      </trkpt>
      <trkpt lat="43.80747" lon="1.78486">
        <ele>139.589437</ele>
        <time>2026-08-29T06:09:47Z</time>
      </trkpt>
      <trkpt lat="43.80749" lon="1.78492">
        <ele>139.621294</ele>
        <time>2026-08-29T06:09:48Z</time>
      </trkpt>
      <trkpt lat="43.8075" lon="1.78499">
        <ele>139.656661</ele>
        <time>2026-08-29T06:09:49Z</time>
      </trkpt>
      <trkpt lat="43.80751" lon="1.78506">
        <ele>139.6922</ele>
        <time>2026-08-29T06:09:50Z</time>
      </trkpt>
      <trkpt lat="43.80753" lon="1.78512">
        <ele>139.728557</ele>
        <time>2026-08-29T06:09:51Z</time>
      </trkpt>
      <trkpt lat="43.80754" lon="1.78518">
        <ele>139.76016</ele>
        <time>2026-08-29T06:09:52Z</time>
      </trkpt>
      <trkpt lat="43.80756" lon="1.78524">
        <ele>139.789672</ele>
        <time>2026-08-29T06:09:53Z</time>
      </trkpt>
      <trkpt lat="43.80757" lon="1.78529">
        <ele>139.819574</ele>
        <time>2026-08-29T06:09:54Z</time>
      </trkpt>
      <trkpt lat="43.80757" lon="1.78535">
        <ele>139.90238</ele>
        <time>2026-08-29T06:09:55Z</time>
      </trkpt>
      <trkpt lat="43.80758" lon="1.78542">
        <ele>139.990486</ele>
        <time>2026-08-29T06:09:56Z</time>
      </trkpt>
      <trkpt lat="43.80759" lon="1.78548">
        <ele>140.079918</ele>
        <time>2026-08-29T06:09:57Z</time>
      </trkpt>
      <trkpt lat="43.8076" lon="1.78555">
        <ele>140.174663</ele>
        <time>2026-08-29T06:09:58Z</time>
      </trkpt>
      <trkpt lat="43.80761" lon="1.78562">
        <ele>140.264876</ele>
        <time>2026-08-29T06:09:59Z</time>
      </trkpt>
      <trkpt lat="43.80762" lon="1.78568">
        <ele>140.355088</ele>
        <time>2026-08-29T06:10:00Z</time>
      </trkpt>
      <trkpt lat="43.80763" lon="1.78574">
        <ele>140.437428</ele>
        <time>2026-08-29T06:10:01Z</time>
      </trkpt>
      <trkpt lat="43.80765" lon="1.7858">
        <ele>140.520784</ele>
        <time>2026-08-29T06:10:02Z</time>
      </trkpt>
      <trkpt lat="43.80766" lon="1.78586">
        <ele>140.60599</ele>
        <time>2026-08-29T06:10:03Z</time>
      </trkpt>
      <trkpt lat="43.80767" lon="1.78592">
        <ele>140.688435</ele>
        <time>2026-08-29T06:10:04Z</time>
      </trkpt>
      <trkpt lat="43.80769" lon="1.78598">
        <ele>140.777327</ele>
        <time>2026-08-29T06:10:05Z</time>
      </trkpt>
      <trkpt lat="43.80771" lon="1.78604">
        <ele>140.863759</ele>
        <time>2026-08-29T06:10:06Z</time>
      </trkpt>
      <trkpt lat="43.80772" lon="1.7861">
        <ele>140.949559</ele>
        <time>2026-08-29T06:10:07Z</time>
      </trkpt>
      <trkpt lat="43.80774" lon="1.78616">
        <ele>141.030942</ele>
        <time>2026-08-29T06:10:08Z</time>
      </trkpt>
      <trkpt lat="43.80775" lon="1.78622">
        <ele>141.118041</ele>
        <time>2026-08-29T06:10:09Z</time>
      </trkpt>
      <trkpt lat="43.80777" lon="1.78627">
        <ele>141.201942</ele>
        <time>2026-08-29T06:10:10Z</time>
      </trkpt>
      <trkpt lat="43.80779" lon="1.78633">
        <ele>141.282789</ele>
        <time>2026-08-29T06:10:11Z</time>
      </trkpt>
      <trkpt lat="43.8078" lon="1.78638">
        <ele>141.364172</ele>
        <time>2026-08-29T06:10:12Z</time>
      </trkpt>
      <trkpt lat="43.80782" lon="1.78644">
        <ele>141.448243</ele>
        <time>2026-08-29T06:10:13Z</time>
      </trkpt>
      <trkpt lat="43.80784" lon="1.7865">
        <ele>141.530334</ele>
        <time>2026-08-29T06:10:14Z</time>
      </trkpt>
      <trkpt lat="43.80785" lon="1.78655">
        <ele>141.609211</ele>
        <time>2026-08-29T06:10:15Z</time>
      </trkpt>
      <trkpt lat="43.80787" lon="1.78661">
        <ele>141.688088</ele>
        <time>2026-08-29T06:10:16Z</time>
      </trkpt>
      <trkpt lat="43.80789" lon="1.78666">
        <ele>141.770728</ele>
        <time>2026-08-29T06:10:17Z</time>
      </trkpt>
      <trkpt lat="43.8079" lon="1.78672">
        <ele>141.855253</ele>
        <time>2026-08-29T06:10:18Z</time>
      </trkpt>
      <trkpt lat="43.80792" lon="1.78678">
        <ele>141.941684</ele>
        <time>2026-08-29T06:10:19Z</time>
      </trkpt>
      <trkpt lat="43.80793" lon="1.78684">
        <ele>142.026273</ele>
        <time>2026-08-29T06:10:20Z</time>
      </trkpt>
      <trkpt lat="43.80795" lon="1.7869">
        <ele>142.107656</ele>
        <time>2026-08-29T06:10:21Z</time>
      </trkpt>
      <trkpt lat="43.80797" lon="1.78695">
        <ele>142.188368</ele>
        <time>2026-08-29T06:10:22Z</time>
      </trkpt>
      <trkpt lat="43.80798" lon="1.78701">
        <ele>142.267173</ele>
        <time>2026-08-29T06:10:23Z</time>
      </trkpt>
      <trkpt lat="43.80799" lon="1.78706">
        <ele>142.349153</ele>
        <time>2026-08-29T06:10:24Z</time>
      </trkpt>
      <trkpt lat="43.80801" lon="1.78712">
        <ele>142.432491</ele>
        <time>2026-08-29T06:10:25Z</time>
      </trkpt>
      <trkpt lat="43.80803" lon="1.78718">
        <ele>142.514472</ele>
        <time>2026-08-29T06:10:26Z</time>
      </trkpt>
      <trkpt lat="43.80804" lon="1.78724">
        <ele>142.600903</ele>
        <time>2026-08-29T06:10:27Z</time>
      </trkpt>
      <trkpt lat="43.80806" lon="1.7873">
        <ele>142.685427</ele>
        <time>2026-08-29T06:10:28Z</time>
      </trkpt>
      <trkpt lat="43.80807" lon="1.78735">
        <ele>142.763612</ele>
        <time>2026-08-29T06:10:29Z</time>
      </trkpt>
      <trkpt lat="43.80808" lon="1.78741">
        <ele>142.847741</ele>
        <time>2026-08-29T06:10:30Z</time>
      </trkpt>
      <trkpt lat="43.8081" lon="1.78747">
        <ele>142.929721</ele>
        <time>2026-08-29T06:10:31Z</time>
      </trkpt>
      <trkpt lat="43.80812" lon="1.78752">
        <ele>143.012555</ele>
        <time>2026-08-29T06:10:32Z</time>
      </trkpt>
      <trkpt lat="43.80814" lon="1.78758">
        <ele>143.099855</ele>
        <time>2026-08-29T06:10:33Z</time>
      </trkpt>
      <trkpt lat="43.80815" lon="1.78764">
        <ele>143.185165</ele>
        <time>2026-08-29T06:10:34Z</time>
      </trkpt>
      <trkpt lat="43.80817" lon="1.7877">
        <ele>143.20084</ele>
        <time>2026-08-29T06:10:35Z</time>
      </trkpt>
      <trkpt lat="43.80819" lon="1.78776">
        <ele>143.21616</ele>
        <time>2026-08-29T06:10:36Z</time>
      </trkpt>
      <trkpt lat="43.80821" lon="1.78782">
        <ele>143.232101</ele>
        <time>2026-08-29T06:10:37Z</time>
      </trkpt>
      <trkpt lat="43.80822" lon="1.78788">
        <ele>143.248006</ele>
        <time>2026-08-29T06:10:38Z</time>
      </trkpt>
      <trkpt lat="43.80824" lon="1.78794">
        <ele>143.26344</ele>
        <time>2026-08-29T06:10:39Z</time>
      </trkpt>
      <trkpt lat="43.80825" lon="1.788">
        <ele>143.278874</ele>
        <time>2026-08-29T06:10:40Z</time>
      </trkpt>
      <trkpt lat="43.80827" lon="1.78806">
        <ele>143.295363</ele>
        <time>2026-08-29T06:10:41Z</time>
      </trkpt>
      <trkpt lat="43.80829" lon="1.78812">
        <ele>143.311852</ele>
        <time>2026-08-29T06:10:42Z</time>
      </trkpt>
      <trkpt lat="43.80831" lon="1.78818">
        <ele>143.327756</ele>
        <time>2026-08-29T06:10:43Z</time>
      </trkpt>
      <trkpt lat="43.80832" lon="1.78824">
        <ele>143.343788</ele>
        <time>2026-08-29T06:10:44Z</time>
      </trkpt>
      <trkpt lat="43.80834" lon="1.7883">
        <ele>143.359571</ele>
        <time>2026-08-29T06:10:45Z</time>
      </trkpt>
      <trkpt lat="43.80835" lon="1.78836">
        <ele>143.375471</ele>
        <time>2026-08-29T06:10:46Z</time>
      </trkpt>
      <trkpt lat="43.80837" lon="1.78842">
        <ele>143.391022</ele>
        <time>2026-08-29T06:10:47Z</time>
      </trkpt>
      <trkpt lat="43.80839" lon="1.78848">
        <ele>143.406468</ele>
        <time>2026-08-29T06:10:48Z</time>
      </trkpt>
      <trkpt lat="43.8084" lon="1.78853">
        <ele>143.421558</ele>
        <time>2026-08-29T06:10:49Z</time>
      </trkpt>
      <trkpt lat="43.80842" lon="1.78859">
        <ele>143.437233</ele>
        <time>2026-08-29T06:10:50Z</time>
      </trkpt>
      <trkpt lat="43.80844" lon="1.78865">
        <ele>143.45281</ele>
        <time>2026-08-29T06:10:51Z</time>
      </trkpt>
      <trkpt lat="43.80846" lon="1.78871">
        <ele>143.467936</ele>
        <time>2026-08-29T06:10:52Z</time>
      </trkpt>
      <trkpt lat="43.80847" lon="1.78876">
        <ele>143.482472</ele>
        <time>2026-08-29T06:10:53Z</time>
      </trkpt>
      <trkpt lat="43.80849" lon="1.78882">
        <ele>143.497235</ele>
        <time>2026-08-29T06:10:54Z</time>
      </trkpt>
      <trkpt lat="43.80851" lon="1.78887">
        <ele>143.512812</ele>
        <time>2026-08-29T06:10:55Z</time>
      </trkpt>
      <trkpt lat="43.80853" lon="1.78894">
        <ele>143.529301</ele>
        <time>2026-08-29T06:10:56Z</time>
      </trkpt>
      <trkpt lat="43.80854" lon="1.789">
        <ele>143.54579</ele>
        <time>2026-08-29T06:10:57Z</time>
      </trkpt>
      <trkpt lat="43.80856" lon="1.78906">
        <ele>143.562508</ele>
        <time>2026-08-29T06:10:58Z</time>
      </trkpt>
      <trkpt lat="43.80858" lon="1.78913">
        <ele>143.579335</ele>
        <time>2026-08-29T06:10:59Z</time>
      </trkpt>
      <trkpt lat="43.8086" lon="1.78919">
        <ele>143.596625</ele>
        <time>2026-08-29T06:11:00Z</time>
      </trkpt>
      <trkpt lat="43.80861" lon="1.78926">
        <ele>143.614148</ele>
        <time>2026-08-29T06:11:01Z</time>
      </trkpt>
      <trkpt lat="43.80863" lon="1.78932">
        <ele>143.63172</ele>
        <time>2026-08-29T06:11:02Z</time>
      </trkpt>
      <trkpt lat="43.80865" lon="1.78939">
        <ele>143.648476</ele>
        <time>2026-08-29T06:11:03Z</time>
      </trkpt>
      <trkpt lat="43.80867" lon="1.78945">
        <ele>143.664869</ele>
        <time>2026-08-29T06:11:04Z</time>
      </trkpt>
      <trkpt lat="43.80869" lon="1.78951">
        <ele>143.681587</ele>
        <time>2026-08-29T06:11:05Z</time>
      </trkpt>
      <trkpt lat="43.80871" lon="1.78957">
        <ele>143.697369</ele>
        <time>2026-08-29T06:11:06Z</time>
      </trkpt>
      <trkpt lat="43.80872" lon="1.78963">
        <ele>143.713503</ele>
        <time>2026-08-29T06:11:07Z</time>
      </trkpt>
      <trkpt lat="43.80874" lon="1.78969">
        <ele>143.730098</ele>
        <time>2026-08-29T06:11:08Z</time>
      </trkpt>
      <trkpt lat="43.80876" lon="1.78976">
        <ele>143.746693</ele>
        <time>2026-08-29T06:11:09Z</time>
      </trkpt>
      <trkpt lat="43.80878" lon="1.78982">
        <ele>143.762827</ele>
        <time>2026-08-29T06:11:10Z</time>
      </trkpt>
      <trkpt lat="43.80879" lon="1.78988">
        <ele>143.779073</ele>
        <time>2026-08-29T06:11:11Z</time>
      </trkpt>
      <trkpt lat="43.80881" lon="1.78994">
        <ele>143.795552</ele>
        <time>2026-08-29T06:11:12Z</time>
      </trkpt>
      <trkpt lat="43.80883" lon="1.79001">
        <ele>143.804827</ele>
        <time>2026-08-29T06:11:13Z</time>
      </trkpt>
      <trkpt lat="43.80884" lon="1.79007">
        <ele>143.81106</ele>
        <time>2026-08-29T06:11:14Z</time>
      </trkpt>
      <trkpt lat="43.80886" lon="1.79013">
        <ele>143.817342</ele>
        <time>2026-08-29T06:11:15Z</time>
      </trkpt>
      <trkpt lat="43.80888" lon="1.79019">
        <ele>143.823801</ele>
        <time>2026-08-29T06:11:16Z</time>
      </trkpt>
      <trkpt lat="43.8089" lon="1.79026">
        <ele>143.830302</ele>
        <time>2026-08-29T06:11:17Z</time>
      </trkpt>
      <trkpt lat="43.80891" lon="1.79032">
        <ele>143.836803</ele>
        <time>2026-08-29T06:11:18Z</time>
      </trkpt>
      <trkpt lat="43.80893" lon="1.79038">
        <ele>143.843304</ele>
        <time>2026-08-29T06:11:19Z</time>
      </trkpt>
      <trkpt lat="43.80895" lon="1.79044">
        <ele>143.849448</ele>
        <time>2026-08-29T06:11:20Z</time>
      </trkpt>
      <trkpt lat="43.80896" lon="1.79051">
        <ele>143.85586</ele>
        <time>2026-08-29T06:11:21Z</time>
      </trkpt>
      <trkpt lat="43.80898" lon="1.79057">
        <ele>143.862182</ele>
        <time>2026-08-29T06:11:22Z</time>
      </trkpt>
      <trkpt lat="43.809" lon="1.79064">
        <ele>143.868909</ele>
        <time>2026-08-29T06:11:23Z</time>
      </trkpt>
      <trkpt lat="43.80901" lon="1.7907">
        <ele>143.875321</ele>
        <time>2026-08-29T06:11:24Z</time>
      </trkpt>
      <trkpt lat="43.80903" lon="1.79076">
        <ele>143.881691</ele>
        <time>2026-08-29T06:11:25Z</time>
      </trkpt>
      <trkpt lat="43.80905" lon="1.79083">
        <ele>143.888328</ele>
        <time>2026-08-29T06:11:26Z</time>
      </trkpt>
      <trkpt lat="43.80907" lon="1.79089">
        <ele>143.89519</ele>
        <time>2026-08-29T06:11:27Z</time>
      </trkpt>
      <trkpt lat="43.80909" lon="1.79096">
        <ele>143.902013</ele>
        <time>2026-08-29T06:11:28Z</time>
      </trkpt>
      <trkpt lat="43.80911" lon="1.79102">
        <ele>143.908522</ele>
        <time>2026-08-29T06:11:29Z</time>
      </trkpt>
      <trkpt lat="43.80912" lon="1.79108">
        <ele>143.914933</ele>
        <time>2026-08-29T06:11:30Z</time>
      </trkpt>
      <trkpt lat="43.80914" lon="1.79115">
        <ele>143.921524</ele>
        <time>2026-08-29T06:11:31Z</time>
      </trkpt>
      <trkpt lat="43.80916" lon="1.79121">
        <ele>143.92807</ele>
        <time>2026-08-29T06:11:32Z</time>
      </trkpt>
      <trkpt lat="43.80917" lon="1.79128">
        <ele>143.934797</ele>
        <time>2026-08-29T06:11:33Z</time>
      </trkpt>
      <trkpt lat="43.80919" lon="1.79135">
        <ele>143.941393</ele>
        <time>2026-08-29T06:11:34Z</time>
      </trkpt>
      <trkpt lat="43.8092" lon="1.79142">
        <ele>143.948211</ele>
        <time>2026-08-29T06:11:35Z</time>
      </trkpt>
      <trkpt lat="43.80922" lon="1.79148">
        <ele>143.954848</ele>
        <time>2026-08-29T06:11:36Z</time>
      </trkpt>
      <trkpt lat="43.80924" lon="1.79155">
        <ele>143.961759</ele>
        <time>2026-08-29T06:11:37Z</time>
      </trkpt>
      <trkpt lat="43.80926" lon="1.79161">
        <ele>143.968356</ele>
        <time>2026-08-29T06:11:38Z</time>
      </trkpt>
      <trkpt lat="43.80928" lon="1.79168">
        <ele>143.975081</ele>
        <time>2026-08-29T06:11:39Z</time>
      </trkpt>
      <trkpt lat="43.8093" lon="1.79174">
        <ele>143.981943</ele>
        <time>2026-08-29T06:11:40Z</time>
      </trkpt>
      <trkpt lat="43.80932" lon="1.79181">
        <ele>143.988758</ele>
        <time>2026-08-29T06:11:41Z</time>
      </trkpt>
      <trkpt lat="43.80934" lon="1.79188">
        <ele>143.99562</ele>
        <time>2026-08-29T06:11:42Z</time>
      </trkpt>
      <trkpt lat="43.80935" lon="1.79195">
        <ele>144.002435</ele>
        <time>2026-08-29T06:11:43Z</time>
      </trkpt>
      <trkpt lat="43.80937" lon="1.79201">
        <ele>144.008936</ele>
        <time>2026-08-29T06:11:44Z</time>
      </trkpt>
      <trkpt lat="43.80939" lon="1.79207">
        <ele>144.015445</ele>
        <time>2026-08-29T06:11:45Z</time>
      </trkpt>
      <trkpt lat="43.80941" lon="1.79214">
        <ele>144.021903</ele>
        <time>2026-08-29T06:11:46Z</time>
      </trkpt>
      <trkpt lat="43.80943" lon="1.7922">
        <ele>144.028412</ele>
        <time>2026-08-29T06:11:47Z</time>
      </trkpt>
      <trkpt lat="43.80945" lon="1.79226">
        <ele>144.034833</ele>
        <time>2026-08-29T06:11:48Z</time>
      </trkpt>
      <trkpt lat="43.80946" lon="1.79232">
        <ele>144.030188</ele>
        <time>2026-08-29T06:11:49Z</time>
      </trkpt>
      <trkpt lat="43.80948" lon="1.79239">
        <ele>144.017148</ele>
        <time>2026-08-29T06:11:50Z</time>
      </trkpt>
      <trkpt lat="43.8095" lon="1.79245">
        <ele>144.004285</ele>
        <time>2026-08-29T06:11:51Z</time>
      </trkpt>
      <trkpt lat="43.80952" lon="1.79252">
        <ele>143.990244</ele>
        <time>2026-08-29T06:11:52Z</time>
      </trkpt>
      <trkpt lat="43.80954" lon="1.79259">
        <ele>143.975951</ele>
        <time>2026-08-29T06:11:53Z</time>
      </trkpt>
      <trkpt lat="43.80956" lon="1.79266">
        <ele>143.961931</ele>
        <time>2026-08-29T06:11:54Z</time>
      </trkpt>
      <trkpt lat="43.80958" lon="1.79272">
        <ele>143.948265</ele>
        <time>2026-08-29T06:11:55Z</time>
      </trkpt>
      <trkpt lat="43.8096" lon="1.79279">
        <ele>143.934351</ele>
        <time>2026-08-29T06:11:56Z</time>
      </trkpt>
      <trkpt lat="43.80962" lon="1.79286">
        <ele>143.920437</ele>
        <time>2026-08-29T06:11:57Z</time>
      </trkpt>
      <trkpt lat="43.80965" lon="1.79292">
        <ele>143.906807</ele>
        <time>2026-08-29T06:11:58Z</time>
      </trkpt>
      <trkpt lat="43.80967" lon="1.79299">
        <ele>143.892777</ele>
        <time>2026-08-29T06:11:59Z</time>
      </trkpt>
      <trkpt lat="43.80969" lon="1.79305">
        <ele>143.878747</ele>
        <time>2026-08-29T06:12:00Z</time>
      </trkpt>
      <trkpt lat="43.80972" lon="1.79312">
        <ele>143.865054</ele>
        <time>2026-08-29T06:12:01Z</time>
      </trkpt>
      <trkpt lat="43.80974" lon="1.79318">
        <ele>143.851193</ele>
        <time>2026-08-29T06:12:02Z</time>
      </trkpt>
      <trkpt lat="43.80977" lon="1.79325">
        <ele>143.836625</ele>
        <time>2026-08-29T06:12:03Z</time>
      </trkpt>
      <trkpt lat="43.8098" lon="1.79331">
        <ele>143.822683</ele>
        <time>2026-08-29T06:12:04Z</time>
      </trkpt>
      <trkpt lat="43.80982" lon="1.79338">
        <ele>143.808445</ele>
        <time>2026-08-29T06:12:05Z</time>
      </trkpt>
      <trkpt lat="43.80985" lon="1.79344">
        <ele>143.794074</ele>
        <time>2026-08-29T06:12:06Z</time>
      </trkpt>
      <trkpt lat="43.80988" lon="1.79351">
        <ele>143.780028</ele>
        <time>2026-08-29T06:12:07Z</time>
      </trkpt>
      <trkpt lat="43.80991" lon="1.79357">
        <ele>143.765982</ele>
        <time>2026-08-29T06:12:08Z</time>
      </trkpt>
      <trkpt lat="43.80993" lon="1.79363">
        <ele>143.751873</ele>
        <time>2026-08-29T06:12:09Z</time>
      </trkpt>
      <trkpt lat="43.80996" lon="1.7937">
        <ele>143.737765</ele>
        <time>2026-08-29T06:12:10Z</time>
      </trkpt>
      <trkpt lat="43.80999" lon="1.79376">
        <ele>143.723691</ele>
        <time>2026-08-29T06:12:11Z</time>
      </trkpt>
      <trkpt lat="43.81001" lon="1.79383">
        <ele>143.709082</ele>
        <time>2026-08-29T06:12:12Z</time>
      </trkpt>
      <trkpt lat="43.81004" lon="1.7939">
        <ele>143.69425</ele>
        <time>2026-08-29T06:12:13Z</time>
      </trkpt>
      <trkpt lat="43.81007" lon="1.79397">
        <ele>143.678927</ele>
        <time>2026-08-29T06:12:14Z</time>
      </trkpt>
      <trkpt lat="43.8101" lon="1.79404">
        <ele>143.663011</ele>
        <time>2026-08-29T06:12:15Z</time>
      </trkpt>
      <trkpt lat="43.81013" lon="1.79411">
        <ele>143.64742</ele>
        <time>2026-08-29T06:12:16Z</time>
      </trkpt>
      <trkpt lat="43.81016" lon="1.79418">
        <ele>143.632588</ele>
        <time>2026-08-29T06:12:17Z</time>
      </trkpt>
      <trkpt lat="43.81019" lon="1.79424">
        <ele>143.61808</ele>
        <time>2026-08-29T06:12:18Z</time>
      </trkpt>
      <trkpt lat="43.81022" lon="1.79431">
        <ele>143.603411</ele>
        <time>2026-08-29T06:12:19Z</time>
      </trkpt>
      <trkpt lat="43.81025" lon="1.79437">
        <ele>143.589501</ele>
        <time>2026-08-29T06:12:20Z</time>
      </trkpt>
      <trkpt lat="43.81027" lon="1.79443">
        <ele>143.575937</ele>
        <time>2026-08-29T06:12:21Z</time>
      </trkpt>
      <trkpt lat="43.8103" lon="1.79449">
        <ele>143.566513</ele>
        <time>2026-08-29T06:12:22Z</time>
      </trkpt>
      <trkpt lat="43.81033" lon="1.79455">
        <ele>143.581149</ele>
        <time>2026-08-29T06:12:23Z</time>
      </trkpt>
      <trkpt lat="43.81036" lon="1.79461">
        <ele>143.595639</ele>
        <time>2026-08-29T06:12:24Z</time>
      </trkpt>
      <trkpt lat="43.81038" lon="1.79467">
        <ele>143.610299</ele>
        <time>2026-08-29T06:12:25Z</time>
      </trkpt>
      <trkpt lat="43.81041" lon="1.79474">
        <ele>143.624841</ele>
        <time>2026-08-29T06:12:26Z</time>
      </trkpt>
      <trkpt lat="43.81044" lon="1.7948">
        <ele>143.640018</ele>
        <time>2026-08-29T06:12:27Z</time>
      </trkpt>
      <trkpt lat="43.81047" lon="1.79486">
        <ele>143.655343</ele>
        <time>2026-08-29T06:12:28Z</time>
      </trkpt>
      <trkpt lat="43.8105" lon="1.79493">
        <ele>143.670693</ele>
        <time>2026-08-29T06:12:29Z</time>
      </trkpt>
      <trkpt lat="43.81052" lon="1.79499">
        <ele>143.686078</ele>
        <time>2026-08-29T06:12:30Z</time>
      </trkpt>
      <trkpt lat="43.81055" lon="1.79506">
        <ele>143.701326</ele>
        <time>2026-08-29T06:12:31Z</time>
      </trkpt>
      <trkpt lat="43.81058" lon="1.79512">
        <ele>143.716504</ele>
        <time>2026-08-29T06:12:32Z</time>
      </trkpt>
      <trkpt lat="43.8106" lon="1.79519">
        <ele>143.731854</ele>
        <time>2026-08-29T06:12:33Z</time>
      </trkpt>
      <trkpt lat="43.81063" lon="1.79525">
        <ele>143.746572</ele>
        <time>2026-08-29T06:12:34Z</time>
      </trkpt>
      <trkpt lat="43.81066" lon="1.79531">
        <ele>143.761385</ele>
        <time>2026-08-29T06:12:35Z</time>
      </trkpt>
      <trkpt lat="43.81069" lon="1.79537">
        <ele>143.775535</ele>
        <time>2026-08-29T06:12:36Z</time>
      </trkpt>
      <trkpt lat="43.81071" lon="1.79543">
        <ele>143.79022</ele>
        <time>2026-08-29T06:12:37Z</time>
      </trkpt>
      <trkpt lat="43.81074" lon="1.7955">
        <ele>143.805224</ele>
        <time>2026-08-29T06:12:38Z</time>
      </trkpt>
      <trkpt lat="43.81077" lon="1.79556">
        <ele>143.820207</ele>
        <time>2026-08-29T06:12:39Z</time>
      </trkpt>
      <trkpt lat="43.8108" lon="1.79562">
        <ele>143.834851</ele>
        <time>2026-08-29T06:12:40Z</time>
      </trkpt>
      <trkpt lat="43.81083" lon="1.79568">
        <ele>143.849159</ele>
        <time>2026-08-29T06:12:41Z</time>
      </trkpt>
      <trkpt lat="43.81086" lon="1.79574">
        <ele>143.863498</ele>
        <time>2026-08-29T06:12:42Z</time>
      </trkpt>
      <trkpt lat="43.81089" lon="1.79579">
        <ele>143.877807</ele>
        <time>2026-08-29T06:12:43Z</time>
      </trkpt>
      <trkpt lat="43.81091" lon="1.79585">
        <ele>143.891634</ele>
        <time>2026-08-29T06:12:44Z</time>
      </trkpt>
      <trkpt lat="43.81094" lon="1.79591">
        <ele>143.905616</ele>
        <time>2026-08-29T06:12:45Z</time>
      </trkpt>
      <trkpt lat="43.81097" lon="1.79597">
        <ele>143.919767</ele>
        <time>2026-08-29T06:12:46Z</time>
      </trkpt>
      <trkpt lat="43.81099" lon="1.79602">
        <ele>143.933613</ele>
        <time>2026-08-29T06:12:47Z</time>
      </trkpt>
      <trkpt lat="43.81102" lon="1.79608">
        <ele>143.94778</ele>
        <time>2026-08-29T06:12:48Z</time>
      </trkpt>
      <trkpt lat="43.81105" lon="1.79614">
        <ele>143.961654</ele>
        <time>2026-08-29T06:12:49Z</time>
      </trkpt>
      <trkpt lat="43.81108" lon="1.7962">
        <ele>143.97613</ele>
        <time>2026-08-29T06:12:50Z</time>
      </trkpt>
      <trkpt lat="43.8111" lon="1.79626">
        <ele>143.990943</ele>
        <time>2026-08-29T06:12:51Z</time>
      </trkpt>
      <trkpt lat="43.81113" lon="1.79632">
        <ele>144.005454</ele>
        <time>2026-08-29T06:12:52Z</time>
      </trkpt>
      <trkpt lat="43.81116" lon="1.79638">
        <ele>144.019944</ele>
        <time>2026-08-29T06:12:53Z</time>
      </trkpt>
      <trkpt lat="43.81119" lon="1.79644">
        <ele>144.034455</ele>
        <time>2026-08-29T06:12:54Z</time>
      </trkpt>
      <trkpt lat="43.81122" lon="1.79651">
        <ele>144.049268</ele>
        <time>2026-08-29T06:12:55Z</time>
      </trkpt>
      <trkpt lat="43.81124" lon="1.79657">
        <ele>144.063758</ele>
        <time>2026-08-29T06:12:56Z</time>
      </trkpt>
      <trkpt lat="43.81127" lon="1.79663">
        <ele>144.111655</ele>
        <time>2026-08-29T06:12:57Z</time>
      </trkpt>
      <trkpt lat="43.8113" lon="1.79669">
        <ele>144.18417</ele>
        <time>2026-08-29T06:12:58Z</time>
      </trkpt>
      <trkpt lat="43.81133" lon="1.79675">
        <ele>144.259095</ele>
        <time>2026-08-29T06:12:59Z</time>
      </trkpt>
      <trkpt lat="43.81136" lon="1.79681">
        <ele>144.33161</ele>
        <time>2026-08-29T06:13:00Z</time>
      </trkpt>
      <trkpt lat="43.81139" lon="1.79688">
        <ele>144.404125</ele>
        <time>2026-08-29T06:13:01Z</time>
      </trkpt>
      <trkpt lat="43.81141" lon="1.79694">
        <ele>144.474365</ele>
        <time>2026-08-29T06:13:02Z</time>
      </trkpt>
      <trkpt lat="43.81144" lon="1.797">
        <ele>144.544605</ele>
        <time>2026-08-29T06:13:03Z</time>
      </trkpt>
      <trkpt lat="43.81147" lon="1.79706">
        <ele>144.61379</ele>
        <time>2026-08-29T06:13:04Z</time>
      </trkpt>
      <trkpt lat="43.81149" lon="1.79711">
        <ele>144.679218</ele>
        <time>2026-08-29T06:13:05Z</time>
      </trkpt>
      <trkpt lat="43.81151" lon="1.79717">
        <ele>144.746199</ele>
        <time>2026-08-29T06:13:06Z</time>
      </trkpt>
      <trkpt lat="43.81154" lon="1.79723">
        <ele>144.81318</ele>
        <time>2026-08-29T06:13:07Z</time>
      </trkpt>
      <trkpt lat="43.81157" lon="1.79728">
        <ele>144.8792</ele>
        <time>2026-08-29T06:13:08Z</time>
      </trkpt>
      <trkpt lat="43.81159" lon="1.79734">
        <ele>144.947631</ele>
        <time>2026-08-29T06:13:09Z</time>
      </trkpt>
      <trkpt lat="43.81162" lon="1.7974">
        <ele>145.015994</ele>
        <time>2026-08-29T06:13:10Z</time>
      </trkpt>
      <trkpt lat="43.81165" lon="1.79746">
        <ele>145.08128</ele>
        <time>2026-08-29T06:13:11Z</time>
      </trkpt>
      <trkpt lat="43.81167" lon="1.79751">
        <ele>145.144819</ele>
        <time>2026-08-29T06:13:12Z</time>
      </trkpt>
      <trkpt lat="43.8117" lon="1.79757">
        <ele>145.214085</ele>
        <time>2026-08-29T06:13:13Z</time>
      </trkpt>
      <trkpt lat="43.81172" lon="1.79762">
        <ele>145.277808</ele>
        <time>2026-08-29T06:13:14Z</time>
      </trkpt>
      <trkpt lat="43.81174" lon="1.79768">
        <ele>145.3395</ele>
        <time>2026-08-29T06:13:15Z</time>
      </trkpt>
      <trkpt lat="43.81177" lon="1.79773">
        <ele>145.404074</ele>
        <time>2026-08-29T06:13:16Z</time>
      </trkpt>
      <trkpt lat="43.81179" lon="1.79779">
        <ele>145.467683</ele>
        <time>2026-08-29T06:13:17Z</time>
      </trkpt>
      <trkpt lat="43.81182" lon="1.79784">
        <ele>145.528999</ele>
        <time>2026-08-29T06:13:18Z</time>
      </trkpt>
      <trkpt lat="43.81184" lon="1.79789">
        <ele>145.589468</ele>
        <time>2026-08-29T06:13:19Z</time>
      </trkpt>
      <trkpt lat="43.81186" lon="1.79795">
        <ele>145.650087</ele>
        <time>2026-08-29T06:13:20Z</time>
      </trkpt>
      <trkpt lat="43.81188" lon="1.798">
        <ele>145.711403</ele>
        <time>2026-08-29T06:13:21Z</time>
      </trkpt>
      <trkpt lat="43.8119" lon="1.79805">
        <ele>145.76876</ele>
        <time>2026-08-29T06:13:22Z</time>
      </trkpt>
      <trkpt lat="43.81193" lon="1.7981">
        <ele>145.824412</ele>
        <time>2026-08-29T06:13:23Z</time>
      </trkpt>
      <trkpt lat="43.81195" lon="1.79815">
        <ele>145.881769</ele>
        <time>2026-08-29T06:13:24Z</time>
      </trkpt>
      <trkpt lat="43.81197" lon="1.7982">
        <ele>145.941531</ele>
        <time>2026-08-29T06:13:25Z</time>
      </trkpt>
      <trkpt lat="43.81199" lon="1.79825">
        <ele>145.998615</ele>
        <time>2026-08-29T06:13:26Z</time>
      </trkpt>
      <trkpt lat="43.81202" lon="1.79829">
        <ele>146.054893</ele>
        <time>2026-08-29T06:13:27Z</time>
      </trkpt>
      <trkpt lat="43.81204" lon="1.79834">
        <ele>146.111395</ele>
        <time>2026-08-29T06:13:28Z</time>
      </trkpt>
      <trkpt lat="43.81206" lon="1.79839">
        <ele>146.169283</ele>
        <time>2026-08-29T06:13:29Z</time>
      </trkpt>
      <trkpt lat="43.81208" lon="1.79843">
        <ele>146.22325</ele>
        <time>2026-08-29T06:13:30Z</time>
      </trkpt>
      <trkpt lat="43.81211" lon="1.79848">
        <ele>146.278727</ele>
        <time>2026-08-29T06:13:31Z</time>
      </trkpt>
      <trkpt lat="43.81213" lon="1.79853">
        <ele>146.338231</ele>
        <time>2026-08-29T06:13:32Z</time>
      </trkpt>
      <trkpt lat="43.81216" lon="1.79858">
        <ele>146.397856</ele>
        <time>2026-08-29T06:13:33Z</time>
      </trkpt>
      <trkpt lat="43.81219" lon="1.79863">
        <ele>146.461455</ele>
        <time>2026-08-29T06:13:34Z</time>
      </trkpt>
      <trkpt lat="43.81221" lon="1.79868">
        <ele>146.52583</ele>
        <time>2026-08-29T06:13:35Z</time>
      </trkpt>
      <trkpt lat="43.81224" lon="1.79873">
        <ele>146.61924</ele>
        <time>2026-08-29T06:13:36Z</time>
      </trkpt>
      <trkpt lat="43.81227" lon="1.79878">
        <ele>146.715782</ele>
        <time>2026-08-29T06:13:37Z</time>
      </trkpt>
      <trkpt lat="43.8123" lon="1.79882">
        <ele>146.811378</ele>
        <time>2026-08-29T06:13:38Z</time>
      </trkpt>
      <trkpt lat="43.81233" lon="1.79886">
        <ele>146.900151</ele>
        <time>2026-08-29T06:13:39Z</time>
      </trkpt>
      <trkpt lat="43.81235" lon="1.79891">
        <ele>146.98731</ele>
        <time>2026-08-29T06:13:40Z</time>
      </trkpt>
      <trkpt lat="43.81237" lon="1.79895">
        <ele>147.078416</ele>
        <time>2026-08-29T06:13:41Z</time>
      </trkpt>
      <trkpt lat="43.8124" lon="1.799">
        <ele>147.17342</ele>
        <time>2026-08-29T06:13:42Z</time>
      </trkpt>
      <trkpt lat="43.81242" lon="1.79905">
        <ele>147.27099</ele>
        <time>2026-08-29T06:13:43Z</time>
      </trkpt>
      <trkpt lat="43.81245" lon="1.7991">
        <ele>147.364658</ele>
        <time>2026-08-29T06:13:44Z</time>
      </trkpt>
      <trkpt lat="43.81247" lon="1.79914">
        <ele>147.459662</ele>
        <time>2026-08-29T06:13:45Z</time>
      </trkpt>
      <trkpt lat="43.8125" lon="1.79919">
        <ele>147.555257</ele>
        <time>2026-08-29T06:13:46Z</time>
      </trkpt>
      <trkpt lat="43.81252" lon="1.79925">
        <ele>147.650851</ele>
        <time>2026-08-29T06:13:47Z</time>
      </trkpt>
      <trkpt lat="43.81254" lon="1.7993">
        <ele>147.751229</ele>
        <time>2026-08-29T06:13:48Z</time>
      </trkpt>
      <trkpt lat="43.81257" lon="1.79935">
        <ele>147.848862</ele>
        <time>2026-08-29T06:13:49Z</time>
      </trkpt>
      <trkpt lat="43.81259" lon="1.7994">
        <ele>147.946431</ele>
        <time>2026-08-29T06:13:50Z</time>
      </trkpt>
      <trkpt lat="43.81262" lon="1.79945">
        <ele>148.039011</ele>
        <time>2026-08-29T06:13:51Z</time>
      </trkpt>
      <trkpt lat="43.81264" lon="1.79949">
        <ele>148.131393</ele>
        <time>2026-08-29T06:13:52Z</time>
      </trkpt>
      <trkpt lat="43.81267" lon="1.79954">
        <ele>148.227675</ele>
        <time>2026-08-29T06:13:53Z</time>
      </trkpt>
      <trkpt lat="43.81269" lon="1.79959">
        <ele>148.320057</ele>
        <time>2026-08-29T06:13:54Z</time>
      </trkpt>
      <trkpt lat="43.81272" lon="1.79963">
        <ele>148.417626</ele>
        <time>2026-08-29T06:13:55Z</time>
      </trkpt>
      <trkpt lat="43.81274" lon="1.79969">
        <ele>148.515469</ele>
        <time>2026-08-29T06:13:56Z</time>
      </trkpt>
      <trkpt lat="43.81276" lon="1.79974">
        <ele>148.608048</ele>
        <time>2026-08-29T06:13:57Z</time>
      </trkpt>
      <trkpt lat="43.81278" lon="1.79979">
        <ele>148.700123</ele>
        <time>2026-08-29T06:13:58Z</time>
      </trkpt>
      <trkpt lat="43.8128" lon="1.79984">
        <ele>148.795717</ele>
        <time>2026-08-29T06:13:59Z</time>
      </trkpt>
      <trkpt lat="43.81282" lon="1.79989">
        <ele>148.888761</ele>
        <time>2026-08-29T06:14:00Z</time>
      </trkpt>
      <trkpt lat="43.81284" lon="1.79994">
        <ele>148.984707</ele>
        <time>2026-08-29T06:14:01Z</time>
      </trkpt>
      <trkpt lat="43.81286" lon="1.8">
        <ele>149.084318</ele>
        <time>2026-08-29T06:14:02Z</time>
      </trkpt>
      <trkpt lat="43.81287" lon="1.80006">
        <ele>149.18178</ele>
        <time>2026-08-29T06:14:03Z</time>
      </trkpt>
      <trkpt lat="43.81289" lon="1.80011">
        <ele>149.279241</ele>
        <time>2026-08-29T06:14:04Z</time>
      </trkpt>
      <trkpt lat="43.8129" lon="1.80017">
        <ele>149.37808</ele>
        <time>2026-08-29T06:14:05Z</time>
      </trkpt>
      <trkpt lat="43.81292" lon="1.80023">
        <ele>149.477714</ele>
        <time>2026-08-29T06:14:06Z</time>
      </trkpt>
      <trkpt lat="43.81294" lon="1.80029">
        <ele>149.585772</ele>
        <time>2026-08-29T06:14:07Z</time>
      </trkpt>
      <trkpt lat="43.81295" lon="1.80035">
        <ele>149.687686</ele>
        <time>2026-08-29T06:14:08Z</time>
      </trkpt>
      <trkpt lat="43.81297" lon="1.80041">
        <ele>149.790445</ele>
        <time>2026-08-29T06:14:09Z</time>
      </trkpt>
      <trkpt lat="43.81299" lon="1.80047">
        <ele>149.893851</ele>
        <time>2026-08-29T06:14:10Z</time>
      </trkpt>
      <trkpt lat="43.81301" lon="1.80053">
        <ele>149.993663</ele>
        <time>2026-08-29T06:14:11Z</time>
      </trkpt>
      <trkpt lat="43.81303" lon="1.80058">
        <ele>150.090544</ele>
        <time>2026-08-29T06:14:12Z</time>
      </trkpt>
      <trkpt lat="43.81304" lon="1.80064">
        <ele>150.190895</ele>
        <time>2026-08-29T06:14:13Z</time>
      </trkpt>
      <trkpt lat="43.81305" lon="1.8007">
        <ele>150.283738</ele>
        <time>2026-08-29T06:14:14Z</time>
      </trkpt>
      <trkpt lat="43.81307" lon="1.80075">
        <ele>150.38062</ele>
        <time>2026-08-29T06:14:15Z</time>
      </trkpt>
      <trkpt lat="43.81309" lon="1.80081">
        <ele>150.480432</ele>
        <time>2026-08-29T06:14:16Z</time>
      </trkpt>
      <trkpt lat="43.81311" lon="1.80087">
        <ele>150.536942</ele>
        <time>2026-08-29T06:14:17Z</time>
      </trkpt>
      <trkpt lat="43.81313" lon="1.80093">
        <ele>150.529883</ele>
        <time>2026-08-29T06:14:18Z</time>
      </trkpt>
      <trkpt lat="43.81315" lon="1.80099">
        <ele>150.523144</ele>
        <time>2026-08-29T06:14:19Z</time>
      </trkpt>
      <trkpt lat="43.81317" lon="1.80105">
        <ele>150.516619</ele>
        <time>2026-08-29T06:14:20Z</time>
      </trkpt>
      <trkpt lat="43.81319" lon="1.8011">
        <ele>150.509937</ele>
        <time>2026-08-29T06:14:21Z</time>
      </trkpt>
      <trkpt lat="43.81321" lon="1.80116">
        <ele>150.503024</ele>
        <time>2026-08-29T06:14:22Z</time>
      </trkpt>
      <trkpt lat="43.81324" lon="1.80122">
        <ele>150.495861</ele>
        <time>2026-08-29T06:14:23Z</time>
      </trkpt>
      <trkpt lat="43.81326" lon="1.80128">
        <ele>150.488877</ele>
        <time>2026-08-29T06:14:24Z</time>
      </trkpt>
      <trkpt lat="43.81329" lon="1.80134">
        <ele>150.481714</ele>
        <time>2026-08-29T06:14:25Z</time>
      </trkpt>
      <trkpt lat="43.81331" lon="1.8014">
        <ele>150.474622</ele>
        <time>2026-08-29T06:14:26Z</time>
      </trkpt>
      <trkpt lat="43.81334" lon="1.80146">
        <ele>150.467407</ele>
        <time>2026-08-29T06:14:27Z</time>
      </trkpt>
      <trkpt lat="43.81337" lon="1.80151">
        <ele>150.460348</ele>
        <time>2026-08-29T06:14:28Z</time>
      </trkpt>
      <trkpt lat="43.81339" lon="1.80157">
        <ele>150.453556</ele>
        <time>2026-08-29T06:14:29Z</time>
      </trkpt>
      <trkpt lat="43.81342" lon="1.80162">
        <ele>150.447094</ele>
        <time>2026-08-29T06:14:30Z</time>
      </trkpt>
      <trkpt lat="43.81345" lon="1.80167">
        <ele>150.440638</ele>
        <time>2026-08-29T06:14:31Z</time>
      </trkpt>
      <trkpt lat="43.81348" lon="1.80172">
        <ele>150.433994</ele>
        <time>2026-08-29T06:14:32Z</time>
      </trkpt>
      <trkpt lat="43.81351" lon="1.80177">
        <ele>150.42712</ele>
        <time>2026-08-29T06:14:33Z</time>
      </trkpt>
      <trkpt lat="43.81353" lon="1.80182">
        <ele>150.420325</ele>
        <time>2026-08-29T06:14:34Z</time>
      </trkpt>
      <trkpt lat="43.81357" lon="1.80188">
        <ele>150.413028</ele>
        <time>2026-08-29T06:14:35Z</time>
      </trkpt>
      <trkpt lat="43.8136" lon="1.80193">
        <ele>150.406099</ele>
        <time>2026-08-29T06:14:36Z</time>
      </trkpt>
      <trkpt lat="43.81363" lon="1.80198">
        <ele>150.399135</ele>
        <time>2026-08-29T06:14:37Z</time>
      </trkpt>
      <trkpt lat="43.81365" lon="1.80203">
        <ele>150.392761</ele>
        <time>2026-08-29T06:14:38Z</time>
      </trkpt>
      <trkpt lat="43.81368" lon="1.80209">
        <ele>150.385963</ele>
        <time>2026-08-29T06:14:39Z</time>
      </trkpt>
      <trkpt lat="43.81371" lon="1.80214">
        <ele>150.379089</ele>
        <time>2026-08-29T06:14:40Z</time>
      </trkpt>
      <trkpt lat="43.81374" lon="1.8022">
        <ele>150.37196</ele>
        <time>2026-08-29T06:14:41Z</time>
      </trkpt>
      <trkpt lat="43.81377" lon="1.80226">
        <ele>150.364414</ele>
        <time>2026-08-29T06:14:42Z</time>
      </trkpt>
      <trkpt lat="43.8138" lon="1.80232">
        <ele>150.356952</ele>
        <time>2026-08-29T06:14:43Z</time>
      </trkpt>
      <trkpt lat="43.81383" lon="1.80238">
        <ele>150.349321</ele>
        <time>2026-08-29T06:14:44Z</time>
      </trkpt>
      <trkpt lat="43.81386" lon="1.80243">
        <ele>150.342024</ele>
        <time>2026-08-29T06:14:45Z</time>
      </trkpt>
      <trkpt lat="43.81389" lon="1.80249">
        <ele>150.334709</ele>
        <time>2026-08-29T06:14:46Z</time>
      </trkpt>
      <trkpt lat="43.81392" lon="1.80254">
        <ele>150.326991</ele>
        <time>2026-08-29T06:14:47Z</time>
      </trkpt>
      <trkpt lat="43.81396" lon="1.80261">
        <ele>150.319109</ele>
        <time>2026-08-29T06:14:48Z</time>
      </trkpt>
      <trkpt lat="43.81399" lon="1.80267">
        <ele>150.31055</ele>
        <time>2026-08-29T06:14:49Z</time>
      </trkpt>
      <trkpt lat="43.81403" lon="1.80274">
        <ele>150.301494</ele>
        <time>2026-08-29T06:14:50Z</time>
      </trkpt>
      <trkpt lat="43.81407" lon="1.80282">
        <ele>150.291853</ele>
        <time>2026-08-29T06:14:51Z</time>
      </trkpt>
      <trkpt lat="43.81411" lon="1.8029">
        <ele>150.282254</ele>
        <time>2026-08-29T06:14:52Z</time>
      </trkpt>
      <trkpt lat="43.81414" lon="1.80298">
        <ele>150.140534</ele>
        <time>2026-08-29T06:14:53Z</time>
      </trkpt>
      <trkpt lat="43.81417" lon="1.80306">
        <ele>149.993023</ele>
        <time>2026-08-29T06:14:54Z</time>
      </trkpt>
      <trkpt lat="43.81421" lon="1.80315">
        <ele>149.845752</ele>
        <time>2026-08-29T06:14:55Z</time>
      </trkpt>
      <trkpt lat="43.81425" lon="1.80323">
        <ele>149.694979</ele>
        <time>2026-08-29T06:14:56Z</time>
      </trkpt>
      <trkpt lat="43.81429" lon="1.80331">
        <ele>149.544354</ele>
        <time>2026-08-29T06:14:57Z</time>
      </trkpt>
      <trkpt lat="43.81432" lon="1.8034">
        <ele>149.392086</ele>
        <time>2026-08-29T06:14:58Z</time>
      </trkpt>
      <trkpt lat="43.81436" lon="1.80349">
        <ele>149.237429</ele>
        <time>2026-08-29T06:14:59Z</time>
      </trkpt>
      <trkpt lat="43.8144" lon="1.80357">
        <ele>149.082772</ele>
        <time>2026-08-29T06:15:00Z</time>
      </trkpt>
      <trkpt lat="43.81444" lon="1.80366">
        <ele>148.933109</ele>
        <time>2026-08-29T06:15:01Z</time>
      </trkpt>
      <trkpt lat="43.81447" lon="1.80374">
        <ele>148.78973</ele>
        <time>2026-08-29T06:15:02Z</time>
      </trkpt>
      <trkpt lat="43.81451" lon="1.80382">
        <ele>148.652447</ele>
        <time>2026-08-29T06:15:03Z</time>
      </trkpt>
      <trkpt lat="43.81454" lon="1.80389">
        <ele>148.515164</ele>
        <time>2026-08-29T06:15:04Z</time>
      </trkpt>
      <trkpt lat="43.81458" lon="1.80397">
        <ele>148.376582</ele>
        <time>2026-08-29T06:15:05Z</time>
      </trkpt>
      <trkpt lat="43.81461" lon="1.80405">
        <ele>148.236445</ele>
        <time>2026-08-29T06:15:06Z</time>
      </trkpt>
      <trkpt lat="43.81464" lon="1.80413">
        <ele>148.099163</ele>
        <time>2026-08-29T06:15:07Z</time>
      </trkpt>
      <trkpt lat="43.81468" lon="1.8042">
        <ele>147.960768</ele>
        <time>2026-08-29T06:15:08Z</time>
      </trkpt>
      <trkpt lat="43.81471" lon="1.80428">
        <ele>147.823264</ele>
        <time>2026-08-29T06:15:09Z</time>
      </trkpt>
      <trkpt lat="43.81474" lon="1.80436">
        <ele>147.689174</ele>
        <time>2026-08-29T06:15:10Z</time>
      </trkpt>
      <trkpt lat="43.81477" lon="1.80444">
        <ele>147.556409</ele>
        <time>2026-08-29T06:15:11Z</time>
      </trkpt>
      <trkpt lat="43.8148" lon="1.80451">
        <ele>147.426283</ele>
        <time>2026-08-29T06:15:12Z</time>
      </trkpt>
      <trkpt lat="43.81483" lon="1.80458">
        <ele>147.296884</ele>
        <time>2026-08-29T06:15:13Z</time>
      </trkpt>
      <trkpt lat="43.81486" lon="1.80466">
        <ele>147.169379</ele>
        <time>2026-08-29T06:15:14Z</time>
      </trkpt>
      <trkpt lat="43.81489" lon="1.80473">
        <ele>147.043179</ele>
        <time>2026-08-29T06:15:15Z</time>
      </trkpt>
      <trkpt lat="43.81492" lon="1.8048">
        <ele>146.918056</ele>
        <time>2026-08-29T06:15:16Z</time>
      </trkpt>
      <trkpt lat="43.81496" lon="1.80487">
        <ele>146.791855</ele>
        <time>2026-08-29T06:15:17Z</time>
      </trkpt>
      <trkpt lat="43.81499" lon="1.80494">
        <ele>146.664351</ele>
        <time>2026-08-29T06:15:18Z</time>
      </trkpt>
      <trkpt lat="43.81502" lon="1.80502">
        <ele>146.535271</ele>
        <time>2026-08-29T06:15:19Z</time>
      </trkpt>
      <trkpt lat="43.81505" lon="1.80509">
        <ele>146.483432</ele>
        <time>2026-08-29T06:15:20Z</time>
      </trkpt>
      <trkpt lat="43.81508" lon="1.80516">
        <ele>146.471302</ele>
        <time>2026-08-29T06:15:21Z</time>
      </trkpt>
      <trkpt lat="43.81511" lon="1.80523">
        <ele>146.458964</ele>
        <time>2026-08-29T06:15:22Z</time>
      </trkpt>
      <trkpt lat="43.81515" lon="1.80531">
        <ele>146.446745</ele>
        <time>2026-08-29T06:15:23Z</time>
      </trkpt>
      <trkpt lat="43.81518" lon="1.80538">
        <ele>146.434633</ele>
        <time>2026-08-29T06:15:24Z</time>
      </trkpt>
      <trkpt lat="43.81521" lon="1.80545">
        <ele>146.422625</ele>
        <time>2026-08-29T06:15:25Z</time>
      </trkpt>
      <trkpt lat="43.81524" lon="1.80552">
        <ele>146.410719</ele>
        <time>2026-08-29T06:15:26Z</time>
      </trkpt>
      <trkpt lat="43.81527" lon="1.80559">
        <ele>146.399176</ele>
        <time>2026-08-29T06:15:27Z</time>
      </trkpt>
      <trkpt lat="43.8153" lon="1.80566">
        <ele>146.387714</ele>
        <time>2026-08-29T06:15:28Z</time>
      </trkpt>
      <trkpt lat="43.81533" lon="1.80573">
        <ele>146.376153</ele>
        <time>2026-08-29T06:15:29Z</time>
      </trkpt>
      <trkpt lat="43.81537" lon="1.8058">
        <ele>146.364625</ele>
        <time>2026-08-29T06:15:30Z</time>
      </trkpt>
      <trkpt lat="43.8154" lon="1.80587">
        <ele>146.353096</ele>
        <time>2026-08-29T06:15:31Z</time>
      </trkpt>
      <trkpt lat="43.81543" lon="1.80593">
        <ele>146.341794</ele>
        <time>2026-08-29T06:15:32Z</time>
      </trkpt>
      <trkpt lat="43.81546" lon="1.806">
        <ele>146.330611</ele>
        <time>2026-08-29T06:15:33Z</time>
      </trkpt>
      <trkpt lat="43.81549" lon="1.80607">
        <ele>146.319149</ele>
        <time>2026-08-29T06:15:34Z</time>
      </trkpt>
      <trkpt lat="43.81552" lon="1.80614">
        <ele>146.307687</ele>
        <time>2026-08-29T06:15:35Z</time>
      </trkpt>
      <trkpt lat="43.81555" lon="1.80621">
        <ele>146.295978</ele>
        <time>2026-08-29T06:15:36Z</time>
      </trkpt>
      <trkpt lat="43.81558" lon="1.80628">
        <ele>146.284269</ele>
        <time>2026-08-29T06:15:37Z</time>
      </trkpt>
      <trkpt lat="43.8156" lon="1.80635">
        <ele>146.272903</ele>
        <time>2026-08-29T06:15:38Z</time>
      </trkpt>
      <trkpt lat="43.81563" lon="1.80642">
        <ele>146.261632</ele>
        <time>2026-08-29T06:15:39Z</time>
      </trkpt>
      <trkpt lat="43.81566" lon="1.8065">
        <ele>146.249923</ele>
        <time>2026-08-29T06:15:40Z</time>
      </trkpt>
      <trkpt lat="43.81569" lon="1.80657">
        <ele>146.238017</ele>
        <time>2026-08-29T06:15:41Z</time>
      </trkpt>
      <trkpt lat="43.81572" lon="1.80664">
        <ele>146.226369</ele>
        <time>2026-08-29T06:15:42Z</time>
      </trkpt>
      <trkpt lat="43.81575" lon="1.80671">
        <ele>146.214706</ele>
        <time>2026-08-29T06:15:43Z</time>
      </trkpt>
      <trkpt lat="43.81578" lon="1.80677">
        <ele>146.203284</ele>
        <time>2026-08-29T06:15:44Z</time>
      </trkpt>
      <trkpt lat="43.81582" lon="1.80685">
        <ele>146.191378</ele>
        <time>2026-08-29T06:15:45Z</time>
      </trkpt>
      <trkpt lat="43.81585" lon="1.80692">
        <ele>146.179128</ele>
        <time>2026-08-29T06:15:46Z</time>
      </trkpt>
      <trkpt lat="43.81588" lon="1.80699">
        <ele>146.16712</ele>
        <time>2026-08-29T06:15:47Z</time>
      </trkpt>
      <trkpt lat="43.81591" lon="1.80707">
        <ele>146.154887</ele>
        <time>2026-08-29T06:15:48Z</time>
      </trkpt>
      <trkpt lat="43.81594" lon="1.80714">
        <ele>146.143224</ele>
        <time>2026-08-29T06:15:49Z</time>
      </trkpt>
      <trkpt lat="43.81597" lon="1.80721">
        <ele>146.146154</ele>
        <time>2026-08-29T06:15:50Z</time>
      </trkpt>
      <trkpt lat="43.816" lon="1.80728">
        <ele>146.164477</ele>
        <time>2026-08-29T06:15:51Z</time>
      </trkpt>
      <trkpt lat="43.81604" lon="1.80735">
        <ele>146.182585</ele>
        <time>2026-08-29T06:15:52Z</time>
      </trkpt>
      <trkpt lat="43.81607" lon="1.80742">
        <ele>146.200011</ele>
        <time>2026-08-29T06:15:53Z</time>
      </trkpt>
      <trkpt lat="43.8161" lon="1.80749">
        <ele>146.217471</ele>
        <time>2026-08-29T06:15:54Z</time>
      </trkpt>
      <trkpt lat="43.81613" lon="1.80756">
        <ele>146.234897</ele>
        <time>2026-08-29T06:15:55Z</time>
      </trkpt>
      <trkpt lat="43.81616" lon="1.80763">
        <ele>146.25264</ele>
        <time>2026-08-29T06:15:56Z</time>
      </trkpt>
      <trkpt lat="43.81619" lon="1.8077">
        <ele>146.270066</ele>
        <time>2026-08-29T06:15:57Z</time>
      </trkpt>
      <trkpt lat="43.81622" lon="1.80777">
        <ele>146.287465</ele>
        <time>2026-08-29T06:15:58Z</time>
      </trkpt>
      <trkpt lat="43.81625" lon="1.80783">
        <ele>146.304522</ele>
        <time>2026-08-29T06:15:59Z</time>
      </trkpt>
      <trkpt lat="43.81628" lon="1.8079">
        <ele>146.321922</ele>
        <time>2026-08-29T06:16:00Z</time>
      </trkpt>
      <trkpt lat="43.81631" lon="1.80797">
        <ele>146.338795</ele>
        <time>2026-08-29T06:16:01Z</time>
      </trkpt>
      <trkpt lat="43.81634" lon="1.80804">
        <ele>146.356221</ele>
        <time>2026-08-29T06:16:02Z</time>
      </trkpt>
      <trkpt lat="43.81637" lon="1.8081">
        <ele>146.373438</ele>
        <time>2026-08-29T06:16:03Z</time>
      </trkpt>
      <trkpt lat="43.8164" lon="1.80817">
        <ele>146.390711</ele>
        <time>2026-08-29T06:16:04Z</time>
      </trkpt>
      <trkpt lat="43.81643" lon="1.80824">
        <ele>146.408883</ele>
        <time>2026-08-29T06:16:05Z</time>
      </trkpt>
      <trkpt lat="43.81646" lon="1.80832">
        <ele>146.426681</ele>
        <time>2026-08-29T06:16:06Z</time>
      </trkpt>
      <trkpt lat="43.81649" lon="1.80839">
        <ele>146.444518</ele>
        <time>2026-08-29T06:16:07Z</time>
      </trkpt>
      <trkpt lat="43.81652" lon="1.80846">
        <ele>146.461642</ele>
        <time>2026-08-29T06:16:08Z</time>
      </trkpt>
      <trkpt lat="43.81655" lon="1.80852">
        <ele>146.478883</ele>
        <time>2026-08-29T06:16:09Z</time>
      </trkpt>
      <trkpt lat="43.81657" lon="1.80859">
        <ele>146.495819</ele>
        <time>2026-08-29T06:16:10Z</time>
      </trkpt>
      <trkpt lat="43.8166" lon="1.80866">
        <ele>146.513245</ele>
        <time>2026-08-29T06:16:11Z</time>
      </trkpt>
      <trkpt lat="43.81664" lon="1.80873">
        <ele>146.530827</ele>
        <time>2026-08-29T06:16:12Z</time>
      </trkpt>
      <trkpt lat="43.81667" lon="1.8088">
        <ele>146.548389</ele>
        <time>2026-08-29T06:16:13Z</time>
      </trkpt>
      <trkpt lat="43.8167" lon="1.80886">
        <ele>146.565581</ele>
        <time>2026-08-29T06:16:14Z</time>
      </trkpt>
      <trkpt lat="43.81674" lon="1.80893">
        <ele>146.58278</ele>
        <time>2026-08-29T06:16:15Z</time>
      </trkpt>
      <trkpt lat="43.81677" lon="1.80899">
        <ele>146.599971</ele>
        <time>2026-08-29T06:16:16Z</time>
      </trkpt>
      <trkpt lat="43.81681" lon="1.80905">
        <ele>146.617375</ele>
        <time>2026-08-29T06:16:17Z</time>
      </trkpt>
      <trkpt lat="43.81684" lon="1.80911">
        <ele>146.633761</ele>
        <time>2026-08-29T06:16:18Z</time>
      </trkpt>
      <trkpt lat="43.81688" lon="1.80917">
        <ele>146.65067</ele>
        <time>2026-08-29T06:16:19Z</time>
      </trkpt>
      <trkpt lat="43.81692" lon="1.80923">
        <ele>146.668074</ele>
        <time>2026-08-29T06:16:20Z</time>
      </trkpt>
      <trkpt lat="43.81695" lon="1.80929">
        <ele>146.690762</ele>
        <time>2026-08-29T06:16:21Z</time>
      </trkpt>
      <trkpt lat="43.81699" lon="1.80935">
        <ele>146.719516</ele>
        <time>2026-08-29T06:16:22Z</time>
      </trkpt>
      <trkpt lat="43.81702" lon="1.80942">
        <ele>146.748904</ele>
        <time>2026-08-29T06:16:23Z</time>
      </trkpt>
      <trkpt lat="43.81706" lon="1.80947">
        <ele>146.777456</ele>
        <time>2026-08-29T06:16:24Z</time>
      </trkpt>
      <trkpt lat="43.8171" lon="1.80953">
        <ele>146.806343</ele>
        <time>2026-08-29T06:16:25Z</time>
      </trkpt>
      <trkpt lat="43.81714" lon="1.80959">
        <ele>146.835302</ele>
        <time>2026-08-29T06:16:26Z</time>
      </trkpt>
      <trkpt lat="43.81718" lon="1.80965">
        <ele>146.86373</ele>
        <time>2026-08-29T06:16:27Z</time>
      </trkpt>
      <trkpt lat="43.81722" lon="1.80971">
        <ele>146.893301</ele>
        <time>2026-08-29T06:16:28Z</time>
      </trkpt>
      <trkpt lat="43.81726" lon="1.80976">
        <ele>146.922958</ele>
        <time>2026-08-29T06:16:29Z</time>
      </trkpt>
      <trkpt lat="43.8173" lon="1.80982">
        <ele>146.952529</ele>
        <time>2026-08-29T06:16:30Z</time>
      </trkpt>
      <trkpt lat="43.81734" lon="1.80988">
        <ele>146.982287</ele>
        <time>2026-08-29T06:16:31Z</time>
      </trkpt>
      <trkpt lat="43.81738" lon="1.80994">
        <ele>147.012902</ele>
        <time>2026-08-29T06:16:32Z</time>
      </trkpt>
      <trkpt lat="43.81743" lon="1.80999">
        <ele>147.042654</ele>
        <time>2026-08-29T06:16:33Z</time>
      </trkpt>
      <trkpt lat="43.81748" lon="1.81004">
        <ele>147.073271</ele>
        <time>2026-08-29T06:16:34Z</time>
      </trkpt>
      <trkpt lat="43.81753" lon="1.81008">
        <ele>147.10263</ele>
        <time>2026-08-29T06:16:35Z</time>
      </trkpt>
      <trkpt lat="43.81758" lon="1.81012">
        <ele>147.131603</ele>
        <time>2026-08-29T06:16:36Z</time>
      </trkpt>
      <trkpt lat="43.81763" lon="1.81015">
        <ele>147.160405</ele>
        <time>2026-08-29T06:16:37Z</time>
      </trkpt>
      <trkpt lat="43.81768" lon="1.81018">
        <ele>147.189942</ele>
        <time>2026-08-29T06:16:38Z</time>
      </trkpt>
      <trkpt lat="43.81774" lon="1.8102">
        <ele>147.219509</ele>
        <time>2026-08-29T06:16:39Z</time>
      </trkpt>
      <trkpt lat="43.8178" lon="1.81022">
        <ele>147.248694</ele>
        <time>2026-08-29T06:16:40Z</time>
      </trkpt>
      <trkpt lat="43.81785" lon="1.81024">
        <ele>147.278064</ele>
        <time>2026-08-29T06:16:41Z</time>
      </trkpt>
      <trkpt lat="43.81791" lon="1.81025">
        <ele>147.30775</ele>
        <time>2026-08-29T06:16:42Z</time>
      </trkpt>
      <trkpt lat="43.81797" lon="1.81026">
        <ele>147.337385</ele>
        <time>2026-08-29T06:16:43Z</time>
      </trkpt>
      <trkpt lat="43.81802" lon="1.81027">
        <ele>147.366016</ele>
        <time>2026-08-29T06:16:44Z</time>
      </trkpt>
      <trkpt lat="43.81808" lon="1.81028">
        <ele>147.393701</ele>
        <time>2026-08-29T06:16:45Z</time>
      </trkpt>
      <trkpt lat="43.81813" lon="1.81029">
        <ele>147.42083</ele>
        <time>2026-08-29T06:16:46Z</time>
      </trkpt>
      <trkpt lat="43.81818" lon="1.8103">
        <ele>147.446812</ele>
        <time>2026-08-29T06:16:47Z</time>
      </trkpt>
      <trkpt lat="43.81823" lon="1.81031">
        <ele>147.471244</ele>
        <time>2026-08-29T06:16:48Z</time>
      </trkpt>
      <trkpt lat="43.81828" lon="1.81032">
        <ele>147.495764</ele>
        <time>2026-08-29T06:16:49Z</time>
      </trkpt>
      <trkpt lat="43.81833" lon="1.81033">
        <ele>147.519782</ele>
        <time>2026-08-29T06:16:50Z</time>
      </trkpt>
      <trkpt lat="43.81837" lon="1.81035">
        <ele>147.543531</ele>
        <time>2026-08-29T06:16:51Z</time>
      </trkpt>
      <trkpt lat="43.81839" lon="1.8104">
        <ele>147.565466</ele>
        <time>2026-08-29T06:16:52Z</time>
      </trkpt>
      <trkpt lat="43.8184" lon="1.81045">
        <ele>147.583115</ele>
        <time>2026-08-29T06:16:53Z</time>
      </trkpt>
      <trkpt lat="43.81838" lon="1.8105">
        <ele>147.627777</ele>
        <time>2026-08-29T06:16:54Z</time>
      </trkpt>
      <trkpt lat="43.81837" lon="1.81055">
        <ele>147.68457</ele>
        <time>2026-08-29T06:16:55Z</time>
      </trkpt>
      <trkpt lat="43.81836" lon="1.8106">
        <ele>147.739936</ele>
        <time>2026-08-29T06:16:56Z</time>
      </trkpt>
      <trkpt lat="43.81834" lon="1.81066">
        <ele>147.799594</ele>
        <time>2026-08-29T06:16:57Z</time>
      </trkpt>
      <trkpt lat="43.81833" lon="1.81071">
        <ele>147.861206</ele>
        <time>2026-08-29T06:16:58Z</time>
      </trkpt>
      <trkpt lat="43.81831" lon="1.81077">
        <ele>147.920864</ele>
        <time>2026-08-29T06:16:59Z</time>
      </trkpt>
      <trkpt lat="43.8183" lon="1.81082">
        <ele>147.976202</ele>
        <time>2026-08-29T06:17:00Z</time>
      </trkpt>
      <trkpt lat="43.81829" lon="1.81088">
        <ele>148.035348</ele>
        <time>2026-08-29T06:17:01Z</time>
      </trkpt>
      <trkpt lat="43.81827" lon="1.81093">
        <ele>148.094976</ele>
        <time>2026-08-29T06:17:02Z</time>
      </trkpt>
      <trkpt lat="43.81826" lon="1.81098">
        <ele>148.151374</ele>
        <time>2026-08-29T06:17:03Z</time>
      </trkpt>
      <trkpt lat="43.81824" lon="1.81104">
        <ele>148.212904</ele>
        <time>2026-08-29T06:17:04Z</time>
      </trkpt>
      <trkpt lat="43.81823" lon="1.81109">
        <ele>148.269237</ele>
        <time>2026-08-29T06:17:05Z</time>
      </trkpt>
      <trkpt lat="43.81821" lon="1.81115">
        <ele>148.330299</ele>
        <time>2026-08-29T06:17:06Z</time>
      </trkpt>
      <trkpt lat="43.8182" lon="1.81121">
        <ele>148.390877</ele>
        <time>2026-08-29T06:17:07Z</time>
      </trkpt>
      <trkpt lat="43.81818" lon="1.81126">
        <ele>148.450078</ele>
        <time>2026-08-29T06:17:08Z</time>
      </trkpt>
      <trkpt lat="43.81817" lon="1.81131">
        <ele>148.507809</ele>
        <time>2026-08-29T06:17:09Z</time>
      </trkpt>
      <trkpt lat="43.81816" lon="1.81137">
        <ele>148.56608</ele>
        <time>2026-08-29T06:17:10Z</time>
      </trkpt>
      <trkpt lat="43.81815" lon="1.81142">
        <ele>148.624351</ele>
        <time>2026-08-29T06:17:11Z</time>
      </trkpt>
      <trkpt lat="43.81813" lon="1.81148">
        <ele>148.684567</ele>
        <time>2026-08-29T06:17:12Z</time>
      </trkpt>
      <trkpt lat="43.81812" lon="1.81154">
        <ele>148.742447</ele>
        <time>2026-08-29T06:17:13Z</time>
      </trkpt>
      <trkpt lat="43.81811" lon="1.81159">
        <ele>148.802105</ele>
        <time>2026-08-29T06:17:14Z</time>
      </trkpt>
      <trkpt lat="43.8181" lon="1.81165">
        <ele>148.861348</ele>
        <time>2026-08-29T06:17:15Z</time>
      </trkpt>
      <trkpt lat="43.81809" lon="1.8117">
        <ele>148.921973</ele>
        <time>2026-08-29T06:17:16Z</time>
      </trkpt>
      <trkpt lat="43.81807" lon="1.81176">
        <ele>148.979703</ele>
        <time>2026-08-29T06:17:17Z</time>
      </trkpt>
      <trkpt lat="43.81806" lon="1.81182">
        <ele>149.042265</ele>
        <time>2026-08-29T06:17:18Z</time>
      </trkpt>
      <trkpt lat="43.81805" lon="1.81188">
        <ele>149.107742</ele>
        <time>2026-08-29T06:17:19Z</time>
      </trkpt>
      <trkpt lat="43.81803" lon="1.81194">
        <ele>149.168805</ele>
        <time>2026-08-29T06:17:20Z</time>
      </trkpt>
      <trkpt lat="43.81802" lon="1.812">
        <ele>149.236068</ele>
        <time>2026-08-29T06:17:21Z</time>
      </trkpt>
      <trkpt lat="43.818" lon="1.81207">
        <ele>149.308093</ele>
        <time>2026-08-29T06:17:22Z</time>
      </trkpt>
      <trkpt lat="43.81799" lon="1.81214">
        <ele>149.381058</ele>
        <time>2026-08-29T06:17:23Z</time>
      </trkpt>
      <trkpt lat="43.81798" lon="1.81221">
        <ele>149.458948</ele>
        <time>2026-08-29T06:17:24Z</time>
      </trkpt>
      <trkpt lat="43.81797" lon="1.81228">
        <ele>149.533193</ele>
        <time>2026-08-29T06:17:25Z</time>
      </trkpt>
      <trkpt lat="43.81797" lon="1.81236">
        <ele>149.608449</ele>
        <time>2026-08-29T06:17:26Z</time>
      </trkpt>
      <trkpt lat="43.81797" lon="1.81243">
        <ele>149.682694</ele>
        <time>2026-08-29T06:17:27Z</time>
      </trkpt>
      <trkpt lat="43.81797" lon="1.81251">
        <ele>149.758871</ele>
        <time>2026-08-29T06:17:28Z</time>
      </trkpt>
      <trkpt lat="43.81797" lon="1.81258">
        <ele>149.834944</ele>
        <time>2026-08-29T06:17:29Z</time>
      </trkpt>
      <trkpt lat="43.81798" lon="1.81265">
        <ele>149.909626</ele>
        <time>2026-08-29T06:17:30Z</time>
      </trkpt>
      <trkpt lat="43.81798" lon="1.81272">
        <ele>149.977704</ele>
        <time>2026-08-29T06:17:31Z</time>
      </trkpt>
      <trkpt lat="43.818" lon="1.8128">
        <ele>150.060336</ele>
        <time>2026-08-29T06:17:32Z</time>
      </trkpt>
      <trkpt lat="43.81801" lon="1.81287">
        <ele>150.130542</ele>
        <time>2026-08-29T06:17:33Z</time>
      </trkpt>
      <trkpt lat="43.81803" lon="1.81294">
        <ele>150.193994</ele>
        <time>2026-08-29T06:17:34Z</time>
      </trkpt>
      <trkpt lat="43.81806" lon="1.81301">
        <ele>150.258108</ele>
        <time>2026-08-29T06:17:35Z</time>
      </trkpt>
      <trkpt lat="43.81808" lon="1.81308">
        <ele>150.323262</ele>
        <time>2026-08-29T06:17:36Z</time>
      </trkpt>
      <trkpt lat="43.81811" lon="1.81315">
        <ele>150.388416</ele>
        <time>2026-08-29T06:17:37Z</time>
      </trkpt>
      <trkpt lat="43.81814" lon="1.81321">
        <ele>150.455252</ele>
        <time>2026-08-29T06:17:38Z</time>
      </trkpt>
      <trkpt lat="43.81817" lon="1.81328">
        <ele>150.523151</ele>
        <time>2026-08-29T06:17:39Z</time>
      </trkpt>
      <trkpt lat="43.81821" lon="1.81334">
        <ele>150.58904</ele>
        <time>2026-08-29T06:17:40Z</time>
      </trkpt>
      <trkpt lat="43.81824" lon="1.81341">
        <ele>150.656305</ele>
        <time>2026-08-29T06:17:41Z</time>
      </trkpt>
      <trkpt lat="43.81828" lon="1.81347">
        <ele>150.720235</ele>
        <time>2026-08-29T06:17:42Z</time>
      </trkpt>
      <trkpt lat="43.81831" lon="1.81352">
        <ele>150.780855</ele>
        <time>2026-08-29T06:17:43Z</time>
      </trkpt>
      <trkpt lat="43.81834" lon="1.81358">
        <ele>150.839908</ele>
        <time>2026-08-29T06:17:44Z</time>
      </trkpt>
      <trkpt lat="43.81837" lon="1.81363">
        <ele>150.898286</ele>
        <time>2026-08-29T06:17:45Z</time>
      </trkpt>
      <trkpt lat="43.8184" lon="1.81369">
        <ele>150.954629</ele>
        <time>2026-08-29T06:17:46Z</time>
      </trkpt>
      <trkpt lat="43.81843" lon="1.81374">
        <ele>151.009618</ele>
        <time>2026-08-29T06:17:47Z</time>
      </trkpt>
      <trkpt lat="43.81846" lon="1.81379">
        <ele>151.064599</ele>
        <time>2026-08-29T06:17:48Z</time>
      </trkpt>
      <trkpt lat="43.81849" lon="1.81385">
        <ele>151.120325</ele>
        <time>2026-08-29T06:17:49Z</time>
      </trkpt>
      <trkpt lat="43.81851" lon="1.8139">
        <ele>151.176287</ele>
        <time>2026-08-29T06:17:50Z</time>
      </trkpt>
      <trkpt lat="43.81854" lon="1.81396">
        <ele>151.232836</ele>
        <time>2026-08-29T06:17:51Z</time>
      </trkpt>
      <trkpt lat="43.81856" lon="1.81402">
        <ele>151.288515</ele>
        <time>2026-08-29T06:17:52Z</time>
      </trkpt>
      <trkpt lat="43.81859" lon="1.81407">
        <ele>151.343504</ele>
        <time>2026-08-29T06:17:53Z</time>
      </trkpt>
      <trkpt lat="43.81861" lon="1.81413">
        <ele>151.397205</ele>
        <time>2026-08-29T06:17:54Z</time>
      </trkpt>
      <trkpt lat="43.81864" lon="1.81418">
        <ele>151.45029</ele>
        <time>2026-08-29T06:17:55Z</time>
      </trkpt>
      <trkpt lat="43.81866" lon="1.81424">
        <ele>151.504806</ele>
        <time>2026-08-29T06:17:56Z</time>
      </trkpt>
      <trkpt lat="43.81869" lon="1.81429">
        <ele>151.561832</ele>
        <time>2026-08-29T06:17:57Z</time>
      </trkpt>
      <trkpt lat="43.81872" lon="1.81435">
        <ele>151.616239</ele>
        <time>2026-08-29T06:17:58Z</time>
      </trkpt>
      <trkpt lat="43.81874" lon="1.8144">
        <ele>151.671357</ele>
        <time>2026-08-29T06:17:59Z</time>
      </trkpt>
      <trkpt lat="43.81877" lon="1.81446">
        <ele>151.725765</ele>
        <time>2026-08-29T06:18:00Z</time>
      </trkpt>
      <trkpt lat="43.81879" lon="1.81451">
        <ele>151.778849</ele>
        <time>2026-08-29T06:18:01Z</time>
      </trkpt>
      <trkpt lat="43.81881" lon="1.81456">
        <ele>151.831848</ele>
        <time>2026-08-29T06:18:02Z</time>
      </trkpt>
      <trkpt lat="43.81884" lon="1.81462">
        <ele>151.884148</ele>
        <time>2026-08-29T06:18:03Z</time>
      </trkpt>
      <trkpt lat="43.81887" lon="1.81467">
        <ele>151.93642</ele>
        <time>2026-08-29T06:18:04Z</time>
      </trkpt>
      <trkpt lat="43.8189" lon="1.81472">
        <ele>151.990114</ele>
        <time>2026-08-29T06:18:05Z</time>
      </trkpt>
      <trkpt lat="43.81893" lon="1.81476">
        <ele>152.044813</ele>
        <time>2026-08-29T06:18:06Z</time>
      </trkpt>
      <trkpt lat="43.81896" lon="1.81482">
        <ele>152.102931</ele>
        <time>2026-08-29T06:18:07Z</time>
      </trkpt>
      <trkpt lat="43.819" lon="1.81486">
        <ele>152.161463</ele>
        <time>2026-08-29T06:18:08Z</time>
      </trkpt>
      <trkpt lat="43.81904" lon="1.81491">
        <ele>152.192692</ele>
        <time>2026-08-29T06:18:09Z</time>
      </trkpt>
      <trkpt lat="43.81907" lon="1.81496">
        <ele>152.167342</ele>
        <time>2026-08-29T06:18:10Z</time>
      </trkpt>
      <trkpt lat="43.81911" lon="1.815">
        <ele>152.141427</ele>
        <time>2026-08-29T06:18:11Z</time>
      </trkpt>
      <trkpt lat="43.81915" lon="1.81505">
        <ele>152.11505</ele>
        <time>2026-08-29T06:18:12Z</time>
      </trkpt>
      <trkpt lat="43.81919" lon="1.81509">
        <ele>152.089298</ele>
        <time>2026-08-29T06:18:13Z</time>
      </trkpt>
      <trkpt lat="43.81923" lon="1.81514">
        <ele>152.064403</ele>
        <time>2026-08-29T06:18:14Z</time>
      </trkpt>
      <trkpt lat="43.81927" lon="1.81518">
        <ele>152.039339</ele>
        <time>2026-08-29T06:18:15Z</time>
      </trkpt>
      <trkpt lat="43.8193" lon="1.81522">
        <ele>152.01536</ele>
        <time>2026-08-29T06:18:16Z</time>
      </trkpt>
      <trkpt lat="43.81934" lon="1.81527">
        <ele>151.990465</ele>
        <time>2026-08-29T06:18:17Z</time>
      </trkpt>
      <trkpt lat="43.81938" lon="1.81531">
        <ele>151.96415</ele>
        <time>2026-08-29T06:18:18Z</time>
      </trkpt>
      <trkpt lat="43.81942" lon="1.81536">
        <ele>151.938398</ele>
        <time>2026-08-29T06:18:19Z</time>
      </trkpt>
      <trkpt lat="43.81946" lon="1.8154">
        <ele>151.912171</ele>
        <time>2026-08-29T06:18:20Z</time>
      </trkpt>
      <trkpt lat="43.8195" lon="1.81545">
        <ele>151.885458</ele>
        <time>2026-08-29T06:18:21Z</time>
      </trkpt>
      <trkpt lat="43.81954" lon="1.8155">
        <ele>151.858123</ele>
        <time>2026-08-29T06:18:22Z</time>
      </trkpt>
      <trkpt lat="43.81958" lon="1.81555">
        <ele>151.831024</ele>
        <time>2026-08-29T06:18:23Z</time>
      </trkpt>
      <trkpt lat="43.81962" lon="1.81561">
        <ele>151.803306</ele>
        <time>2026-08-29T06:18:24Z</time>
      </trkpt>
      <trkpt lat="43.81966" lon="1.81566">
        <ele>151.775331</ele>
        <time>2026-08-29T06:18:25Z</time>
      </trkpt>
      <trkpt lat="43.8197" lon="1.81572">
        <ele>151.746119</ele>
        <time>2026-08-29T06:18:26Z</time>
      </trkpt>
      <trkpt lat="43.81974" lon="1.81577">
        <ele>151.717417</ele>
        <time>2026-08-29T06:18:27Z</time>
      </trkpt>
      <trkpt lat="43.81978" lon="1.81583">
        <ele>151.687686</ele>
        <time>2026-08-29T06:18:28Z</time>
      </trkpt>
      <trkpt lat="43.81982" lon="1.81589">
        <ele>151.656461</ele>
        <time>2026-08-29T06:18:29Z</time>
      </trkpt>
      <trkpt lat="43.81986" lon="1.81595">
        <ele>151.625588</ele>
        <time>2026-08-29T06:18:30Z</time>
      </trkpt>
      <trkpt lat="43.81991" lon="1.81601">
        <ele>151.594363</ele>
        <time>2026-08-29T06:18:31Z</time>
      </trkpt>
      <trkpt lat="43.81995" lon="1.81607">
        <ele>151.563138</ele>
        <time>2026-08-29T06:18:32Z</time>
      </trkpt>
      <trkpt lat="43.81999" lon="1.81613">
        <ele>151.532265</ele>
        <time>2026-08-29T06:18:33Z</time>
      </trkpt>
      <trkpt lat="43.82003" lon="1.8162">
        <ele>151.501127</ele>
        <time>2026-08-29T06:18:34Z</time>
      </trkpt>
      <trkpt lat="43.82007" lon="1.81626">
        <ele>151.469515</ele>
        <time>2026-08-29T06:18:35Z</time>
      </trkpt>
      <trkpt lat="43.82012" lon="1.81633">
        <ele>151.437626</ele>
        <time>2026-08-29T06:18:36Z</time>
      </trkpt>
      <trkpt lat="43.82016" lon="1.81639">
        <ele>151.405129</ele>
        <time>2026-08-29T06:18:37Z</time>
      </trkpt>
      <trkpt lat="43.8202" lon="1.81646">
        <ele>151.371746</ele>
        <time>2026-08-29T06:18:38Z</time>
      </trkpt>
      <trkpt lat="43.82024" lon="1.81653">
        <ele>151.338085</ele>
        <time>2026-08-29T06:18:39Z</time>
      </trkpt>
      <trkpt lat="43.82028" lon="1.81661">
        <ele>151.304522</ele>
        <time>2026-08-29T06:18:40Z</time>
      </trkpt>
      <trkpt lat="43.82032" lon="1.81668">
        <ele>151.29648</ele>
        <time>2026-08-29T06:18:41Z</time>
      </trkpt>
      <trkpt lat="43.82036" lon="1.81675">
        <ele>151.310755</ele>
        <time>2026-08-29T06:18:42Z</time>
      </trkpt>
      <trkpt lat="43.8204" lon="1.81683">
        <ele>151.325286</ele>
        <time>2026-08-29T06:18:43Z</time>
      </trkpt>
      <trkpt lat="43.82044" lon="1.8169">
        <ele>151.339688</ele>
        <time>2026-08-29T06:18:44Z</time>
      </trkpt>
      <trkpt lat="43.82047" lon="1.81698">
        <ele>151.353964</ele>
        <time>2026-08-29T06:18:45Z</time>
      </trkpt>
      <trkpt lat="43.82051" lon="1.81705">
        <ele>151.367993</ele>
        <time>2026-08-29T06:18:46Z</time>
      </trkpt>
      <trkpt lat="43.82054" lon="1.81713">
        <ele>151.382423</ele>
        <time>2026-08-29T06:18:47Z</time>
      </trkpt>
      <trkpt lat="43.82058" lon="1.8172">
        <ele>151.396706</ele>
        <time>2026-08-29T06:18:48Z</time>
      </trkpt>
      <trkpt lat="43.82062" lon="1.81728">
        <ele>151.410979</ele>
        <time>2026-08-29T06:18:49Z</time>
      </trkpt>
      <trkpt lat="43.82066" lon="1.81735">
        <ele>151.425275</ele>
        <time>2026-08-29T06:18:50Z</time>
      </trkpt>
      <trkpt lat="43.8207" lon="1.81742">
        <ele>151.439173</ele>
        <time>2026-08-29T06:18:51Z</time>
      </trkpt>
      <trkpt lat="43.82074" lon="1.81748">
        <ele>151.453838</ele>
        <time>2026-08-29T06:18:52Z</time>
      </trkpt>
      <trkpt lat="43.82079" lon="1.81755">
        <ele>151.468274</ele>
        <time>2026-08-29T06:18:53Z</time>
      </trkpt>
      <trkpt lat="43.82084" lon="1.81762">
        <ele>151.483205</ele>
        <time>2026-08-29T06:18:54Z</time>
      </trkpt>
      <trkpt lat="43.82088" lon="1.81768">
        <ele>151.498289</ele>
        <time>2026-08-29T06:18:55Z</time>
      </trkpt>
      <trkpt lat="43.82093" lon="1.81775">
        <ele>151.513246</ele>
        <time>2026-08-29T06:18:56Z</time>
      </trkpt>
      <trkpt lat="43.82098" lon="1.81781">
        <ele>151.528203</ele>
        <time>2026-08-29T06:18:57Z</time>
      </trkpt>
      <trkpt lat="43.82103" lon="1.81787">
        <ele>151.542572</ele>
        <time>2026-08-29T06:18:58Z</time>
      </trkpt>
      <trkpt lat="43.82108" lon="1.81793">
        <ele>151.556529</ele>
        <time>2026-08-29T06:18:59Z</time>
      </trkpt>
      <trkpt lat="43.82113" lon="1.81798">
        <ele>151.56982</ele>
        <time>2026-08-29T06:19:00Z</time>
      </trkpt>
      <trkpt lat="43.82117" lon="1.81803">
        <ele>151.582224</ele>
        <time>2026-08-29T06:19:01Z</time>
      </trkpt>
      <trkpt lat="43.82122" lon="1.81807">
        <ele>151.594607</ele>
        <time>2026-08-29T06:19:02Z</time>
      </trkpt>
      <trkpt lat="43.82126" lon="1.81812">
        <ele>151.606709</ele>
        <time>2026-08-29T06:19:03Z</time>
      </trkpt>
      <trkpt lat="43.82131" lon="1.81816">
        <ele>151.618992</ele>
        <time>2026-08-29T06:19:04Z</time>
      </trkpt>
      <trkpt lat="43.82135" lon="1.81821">
        <ele>151.63128</ele>
        <time>2026-08-29T06:19:05Z</time>
      </trkpt>
      <trkpt lat="43.8214" lon="1.81825">
        <ele>151.643217</ele>
        <time>2026-08-29T06:19:06Z</time>
      </trkpt>
      <trkpt lat="43.82144" lon="1.8183">
        <ele>151.654439</ele>
        <time>2026-08-29T06:19:07Z</time>
      </trkpt>
      <trkpt lat="43.82148" lon="1.81834">
        <ele>151.664916</ele>
        <time>2026-08-29T06:19:08Z</time>
      </trkpt>
      <trkpt lat="43.82152" lon="1.81838">
        <ele>151.675934</ele>
        <time>2026-08-29T06:19:09Z</time>
      </trkpt>
      <trkpt lat="43.82155" lon="1.81842">
        <ele>151.696142</ele>
        <time>2026-08-29T06:19:10Z</time>
      </trkpt>
      <trkpt lat="43.82159" lon="1.81846">
        <ele>151.74906</ele>
        <time>2026-08-29T06:19:11Z</time>
      </trkpt>
      <trkpt lat="43.82163" lon="1.81849">
        <ele>151.798743</ele>
        <time>2026-08-29T06:19:12Z</time>
      </trkpt>
      <trkpt lat="43.82167" lon="1.81852">
        <ele>151.847497</ele>
        <time>2026-08-29T06:19:13Z</time>
      </trkpt>
      <trkpt lat="43.8217" lon="1.81856">
        <ele>151.894872</ele>
        <time>2026-08-29T06:19:14Z</time>
      </trkpt>
      <trkpt lat="43.82173" lon="1.81859">
        <ele>151.939619</ele>
        <time>2026-08-29T06:19:15Z</time>
      </trkpt>
      <trkpt lat="43.82177" lon="1.81863">
        <ele>151.987921</ele>
        <time>2026-08-29T06:19:16Z</time>
      </trkpt>
      <trkpt lat="43.8218" lon="1.81866">
        <ele>152.030287</ele>
        <time>2026-08-29T06:19:17Z</time>
      </trkpt>
      <trkpt lat="43.82183" lon="1.81869">
        <ele>152.071772</ele>
        <time>2026-08-29T06:19:18Z</time>
      </trkpt>
      <trkpt lat="43.82186" lon="1.81873">
        <ele>152.118411</ele>
        <time>2026-08-29T06:19:19Z</time>
      </trkpt>
      <trkpt lat="43.82189" lon="1.81877">
        <ele>152.164195</ele>
        <time>2026-08-29T06:19:20Z</time>
      </trkpt>
      <trkpt lat="43.82192" lon="1.8188">
        <ele>152.213409</ele>
        <time>2026-08-29T06:19:21Z</time>
      </trkpt>
      <trkpt lat="43.82196" lon="1.81884">
        <ele>152.258671</ele>
        <time>2026-08-29T06:19:22Z</time>
      </trkpt>
      <trkpt lat="43.82199" lon="1.81887">
        <ele>152.30583</ele>
        <time>2026-08-29T06:19:23Z</time>
      </trkpt>
      <trkpt lat="43.82202" lon="1.81891">
        <ele>152.354712</ele>
        <time>2026-08-29T06:19:24Z</time>
      </trkpt>
      <trkpt lat="43.82206" lon="1.81895">
        <ele>152.405682</ele>
        <time>2026-08-29T06:19:25Z</time>
      </trkpt>
      <trkpt lat="43.82209" lon="1.819">
        <ele>152.462151</ele>
        <time>2026-08-29T06:19:26Z</time>
      </trkpt>
      <trkpt lat="43.82213" lon="1.81906">
        <ele>152.520928</ele>
        <time>2026-08-29T06:19:27Z</time>
      </trkpt>
      <trkpt lat="43.82216" lon="1.81911">
        <ele>152.580752</ele>
        <time>2026-08-29T06:19:28Z</time>
      </trkpt>
      <trkpt lat="43.8222" lon="1.81917">
        <ele>152.639365</ele>
        <time>2026-08-29T06:19:29Z</time>
      </trkpt>
      <trkpt lat="43.82224" lon="1.81922">
        <ele>152.702796</ele>
        <time>2026-08-29T06:19:30Z</time>
      </trkpt>
      <trkpt lat="43.82228" lon="1.81928">
        <ele>152.766226</ele>
        <time>2026-08-29T06:19:31Z</time>
      </trkpt>
      <trkpt lat="43.82232" lon="1.81934">
        <ele>152.832579</ele>
        <time>2026-08-29T06:19:32Z</time>
      </trkpt>
      <trkpt lat="43.82236" lon="1.8194">
        <ele>152.897365</ele>
        <time>2026-08-29T06:19:33Z</time>
      </trkpt>
      <trkpt lat="43.8224" lon="1.81945">
        <ele>152.96293</ele>
        <time>2026-08-29T06:19:34Z</time>
      </trkpt>
      <trkpt lat="43.82244" lon="1.81951">
        <ele>153.027351</ele>
        <time>2026-08-29T06:19:35Z</time>
      </trkpt>
      <trkpt lat="43.82248" lon="1.81957">
        <ele>153.094277</ele>
        <time>2026-08-29T06:19:36Z</time>
      </trkpt>
      <trkpt lat="43.82252" lon="1.81963">
        <ele>153.160311</ele>
        <time>2026-08-29T06:19:37Z</time>
      </trkpt>
      <trkpt lat="43.82256" lon="1.81969">
        <ele>153.226274</ele>
        <time>2026-08-29T06:19:38Z</time>
      </trkpt>
      <trkpt lat="43.8226" lon="1.81974">
        <ele>153.291061</ele>
        <time>2026-08-29T06:19:39Z</time>
      </trkpt>
      <trkpt lat="43.82265" lon="1.81981">
        <ele>153.360322</ele>
        <time>2026-08-29T06:19:40Z</time>
      </trkpt>
      <trkpt lat="43.82269" lon="1.81987">
        <ele>153.428692</ele>
        <time>2026-08-29T06:19:41Z</time>
      </trkpt>
      <trkpt lat="43.82273" lon="1.81993">
        <ele>153.501067</ele>
        <time>2026-08-29T06:19:42Z</time>
      </trkpt>
      <trkpt lat="43.82278" lon="1.82">
        <ele>153.571288</ele>
        <time>2026-08-29T06:19:43Z</time>
      </trkpt>
      <trkpt lat="43.82282" lon="1.82005">
        <ele>153.640612</ele>
        <time>2026-08-29T06:19:44Z</time>
      </trkpt>
      <trkpt lat="43.82286" lon="1.82012">
        <ele>153.660786</ele>
        <time>2026-08-29T06:19:45Z</time>
      </trkpt>
      <trkpt lat="43.8229" lon="1.82018">
        <ele>153.448693</ele>
        <time>2026-08-29T06:19:46Z</time>
      </trkpt>
      <trkpt lat="43.82294" lon="1.82025">
        <ele>153.222979</ele>
        <time>2026-08-29T06:19:47Z</time>
      </trkpt>
      <trkpt lat="43.82298" lon="1.82031">
        <ele>153.008696</ele>
        <time>2026-08-29T06:19:48Z</time>
      </trkpt>
      <trkpt lat="43.82302" lon="1.82038">
        <ele>152.784172</ele>
        <time>2026-08-29T06:19:49Z</time>
      </trkpt>
      <trkpt lat="43.82306" lon="1.82045">
        <ele>152.562124</ele>
        <time>2026-08-29T06:19:50Z</time>
      </trkpt>
      <trkpt lat="43.8231" lon="1.82053">
        <ele>152.33398</ele>
        <time>2026-08-29T06:19:51Z</time>
      </trkpt>
      <trkpt lat="43.82314" lon="1.82061">
        <ele>152.101604</ele>
        <time>2026-08-29T06:19:52Z</time>
      </trkpt>
      <trkpt lat="43.82318" lon="1.82068">
        <ele>151.871359</ele>
        <time>2026-08-29T06:19:53Z</time>
      </trkpt>
      <trkpt lat="43.82322" lon="1.82075">
        <ele>151.628272</ele>
        <time>2026-08-29T06:19:54Z</time>
      </trkpt>
      <trkpt lat="43.82327" lon="1.82083">
        <ele>151.379376</ele>
        <time>2026-08-29T06:19:55Z</time>
      </trkpt>
      <trkpt lat="43.82332" lon="1.82091">
        <ele>151.113869</ele>
        <time>2026-08-29T06:19:56Z</time>
      </trkpt>
      <trkpt lat="43.82337" lon="1.82099">
        <ele>150.842546</ele>
        <time>2026-08-29T06:19:57Z</time>
      </trkpt>
      <trkpt lat="43.82342" lon="1.82108">
        <ele>150.566438</ele>
        <time>2026-08-29T06:19:58Z</time>
      </trkpt>
      <trkpt lat="43.82347" lon="1.82116">
        <ele>150.287577</ele>
        <time>2026-08-29T06:19:59Z</time>
      </trkpt>
      <trkpt lat="43.82353" lon="1.82124">
        <ele>150.014234</ele>
        <time>2026-08-29T06:20:00Z</time>
      </trkpt>
      <trkpt lat="43.82358" lon="1.82132">
        <ele>149.730031</ele>
        <time>2026-08-29T06:20:01Z</time>
      </trkpt>
      <trkpt lat="43.82364" lon="1.8214">
        <ele>149.446176</ele>
        <time>2026-08-29T06:20:02Z</time>
      </trkpt>
      <trkpt lat="43.8237" lon="1.82148">
        <ele>149.153512</ele>
        <time>2026-08-29T06:20:03Z</time>
      </trkpt>
      <trkpt lat="43.82376" lon="1.82156">
        <ele>148.85592</ele>
        <time>2026-08-29T06:20:04Z</time>
      </trkpt>
      <trkpt lat="43.82382" lon="1.82165">
        <ele>148.552323</ele>
        <time>2026-08-29T06:20:05Z</time>
      </trkpt>
      <trkpt lat="43.82389" lon="1.82173">
        <ele>148.253976</ele>
        <time>2026-08-29T06:20:06Z</time>
      </trkpt>
      <trkpt lat="43.82395" lon="1.82181">
        <ele>147.95462</ele>
        <time>2026-08-29T06:20:07Z</time>
      </trkpt>
      <trkpt lat="43.82401" lon="1.8219">
        <ele>147.654534</ele>
        <time>2026-08-29T06:20:08Z</time>
      </trkpt>
      <trkpt lat="43.82407" lon="1.82198">
        <ele>147.402052</ele>
        <time>2026-08-29T06:20:09Z</time>
      </trkpt>
      <trkpt lat="43.82413" lon="1.82206">
        <ele>147.286334</ele>
        <time>2026-08-29T06:20:10Z</time>
      </trkpt>
      <trkpt lat="43.8242" lon="1.82215">
        <ele>147.168976</ele>
        <time>2026-08-29T06:20:11Z</time>
      </trkpt>
      <trkpt lat="43.82426" lon="1.82223">
        <ele>147.054595</ele>
        <time>2026-08-29T06:20:12Z</time>
      </trkpt>
      <trkpt lat="43.82433" lon="1.82231">
        <ele>146.937751</ele>
        <time>2026-08-29T06:20:13Z</time>
      </trkpt>
      <trkpt lat="43.8244" lon="1.82238">
        <ele>146.819563</ele>
        <time>2026-08-29T06:20:14Z</time>
      </trkpt>
      <trkpt lat="43.82447" lon="1.82245">
        <ele>146.699775</ele>
        <time>2026-08-29T06:20:15Z</time>
      </trkpt>
      <trkpt lat="43.82455" lon="1.82251">
        <ele>146.580483</ele>
        <time>2026-08-29T06:20:16Z</time>
      </trkpt>
      <trkpt lat="43.82463" lon="1.82256">
        <ele>146.461361</ele>
        <time>2026-08-29T06:20:17Z</time>
      </trkpt>
      <trkpt lat="43.82471" lon="1.8226">
        <ele>146.350624</ele>
        <time>2026-08-29T06:20:18Z</time>
      </trkpt>
      <trkpt lat="43.82478" lon="1.82263">
        <ele>146.240398</ele>
        <time>2026-08-29T06:20:19Z</time>
      </trkpt>
      <trkpt lat="43.82486" lon="1.82266">
        <ele>146.135965</ele>
        <time>2026-08-29T06:20:20Z</time>
      </trkpt>
      <trkpt lat="43.82493" lon="1.82268">
        <ele>146.037569</ele>
        <time>2026-08-29T06:20:21Z</time>
      </trkpt>
      <trkpt lat="43.825" lon="1.82269">
        <ele>145.945948</ele>
        <time>2026-08-29T06:20:22Z</time>
      </trkpt>
      <trkpt lat="43.82507" lon="1.82271">
        <ele>145.852464</ele>
        <time>2026-08-29T06:20:23Z</time>
      </trkpt>
      <trkpt lat="43.82513" lon="1.82272">
        <ele>145.764001</ele>
        <time>2026-08-29T06:20:24Z</time>
      </trkpt>
      <trkpt lat="43.82519" lon="1.82273">
        <ele>145.681146</ele>
        <time>2026-08-29T06:20:25Z</time>
      </trkpt>
      <trkpt lat="43.82525" lon="1.82275">
        <ele>145.604386</ele>
        <time>2026-08-29T06:20:26Z</time>
      </trkpt>
      <trkpt lat="43.82531" lon="1.82276">
        <ele>145.525658</ele>
        <time>2026-08-29T06:20:27Z</time>
      </trkpt>
      <trkpt lat="43.82537" lon="1.82278">
        <ele>145.448107</ele>
        <time>2026-08-29T06:20:28Z</time>
      </trkpt>
      <trkpt lat="43.82543" lon="1.82279">
        <ele>145.362598</ele>
        <time>2026-08-29T06:20:29Z</time>
      </trkpt>
      <trkpt lat="43.82548" lon="1.8228">
        <ele>145.289978</ele>
        <time>2026-08-29T06:20:30Z</time>
      </trkpt>
      <trkpt lat="43.82553" lon="1.82282">
        <ele>145.219041</ele>
        <time>2026-08-29T06:20:31Z</time>
      </trkpt>
      <trkpt lat="43.82558" lon="1.82283">
        <ele>145.152402</ele>
        <time>2026-08-29T06:20:32Z</time>
      </trkpt>
      <trkpt lat="43.82563" lon="1.82284">
        <ele>145.085035</ele>
        <time>2026-08-29T06:20:33Z</time>
      </trkpt>
      <trkpt lat="43.82568" lon="1.82286">
        <ele>145.021442</ele>
        <time>2026-08-29T06:20:34Z</time>
      </trkpt>
      <trkpt lat="43.82573" lon="1.82287">
        <ele>145.060758</ele>
        <time>2026-08-29T06:20:35Z</time>
      </trkpt>
      <trkpt lat="43.82578" lon="1.82289">
        <ele>145.102567</ele>
        <time>2026-08-29T06:20:36Z</time>
      </trkpt>
      <trkpt lat="43.82583" lon="1.82292">
        <ele>145.145937</ele>
        <time>2026-08-29T06:20:37Z</time>
      </trkpt>
      <trkpt lat="43.82588" lon="1.82294">
        <ele>145.188526</ele>
        <time>2026-08-29T06:20:38Z</time>
      </trkpt>
      <trkpt lat="43.82593" lon="1.82296">
        <ele>145.230335</ele>
        <time>2026-08-29T06:20:39Z</time>
      </trkpt>
      <trkpt lat="43.82598" lon="1.82298">
        <ele>145.274054</ele>
        <time>2026-08-29T06:20:40Z</time>
      </trkpt>
      <trkpt lat="43.82603" lon="1.823">
        <ele>145.316226</ele>
        <time>2026-08-29T06:20:41Z</time>
      </trkpt>
      <trkpt lat="43.82608" lon="1.82302">
        <ele>145.358815</ele>
        <time>2026-08-29T06:20:42Z</time>
      </trkpt>
      <trkpt lat="43.82612" lon="1.82305">
        <ele>145.400288</ele>
        <time>2026-08-29T06:20:43Z</time>
      </trkpt>
      <trkpt lat="43.82617" lon="1.82308">
        <ele>145.44026</ele>
        <time>2026-08-29T06:20:44Z</time>
      </trkpt>
      <trkpt lat="43.82621" lon="1.8231">
        <ele>145.480327</ele>
        <time>2026-08-29T06:20:45Z</time>
      </trkpt>
      <trkpt lat="43.82626" lon="1.82313">
        <ele>145.521281</ele>
        <time>2026-08-29T06:20:46Z</time>
      </trkpt>
      <trkpt lat="43.8263" lon="1.82316">
        <ele>145.559763</ele>
        <time>2026-08-29T06:20:47Z</time>
      </trkpt>
      <trkpt lat="43.82635" lon="1.82319">
        <ele>145.599479</ele>
        <time>2026-08-29T06:20:48Z</time>
      </trkpt>
      <trkpt lat="43.82639" lon="1.82322">
        <ele>145.642427</ele>
        <time>2026-08-29T06:20:49Z</time>
      </trkpt>
      <trkpt lat="43.82644" lon="1.82325">
        <ele>145.686369</ele>
        <time>2026-08-29T06:20:50Z</time>
      </trkpt>
      <trkpt lat="43.82649" lon="1.82328">
        <ele>145.725594</ele>
        <time>2026-08-29T06:20:51Z</time>
      </trkpt>
      <trkpt lat="43.82653" lon="1.82332">
        <ele>145.768948</ele>
        <time>2026-08-29T06:20:52Z</time>
      </trkpt>
      <trkpt lat="43.82658" lon="1.82335">
        <ele>145.81289</ele>
        <time>2026-08-29T06:20:53Z</time>
      </trkpt>
      <trkpt lat="43.82663" lon="1.82339">
        <ele>145.859162</ele>
        <time>2026-08-29T06:20:54Z</time>
      </trkpt>
      <trkpt lat="43.82668" lon="1.82344">
        <ele>145.912528</ele>
        <time>2026-08-29T06:20:55Z</time>
      </trkpt>
      <trkpt lat="43.82674" lon="1.82349">
        <ele>145.964821</ele>
        <time>2026-08-29T06:20:56Z</time>
      </trkpt>
      <trkpt lat="43.82679" lon="1.82354">
        <ele>146.016085</ele>
        <time>2026-08-29T06:20:57Z</time>
      </trkpt>
      <trkpt lat="43.82684" lon="1.82359">
        <ele>146.067041</ele>
        <time>2026-08-29T06:20:58Z</time>
      </trkpt>
      <trkpt lat="43.82689" lon="1.82364">
        <ele>146.117066</ele>
        <time>2026-08-29T06:20:59Z</time>
      </trkpt>
      <trkpt lat="43.82693" lon="1.8237">
        <ele>146.167833</ele>
        <time>2026-08-29T06:21:00Z</time>
      </trkpt>
      <trkpt lat="43.82699" lon="1.82376">
        <ele>146.225474</ele>
        <time>2026-08-29T06:21:01Z</time>
      </trkpt>
      <trkpt lat="43.82705" lon="1.82382">
        <ele>146.282813</ele>
        <time>2026-08-29T06:21:02Z</time>
      </trkpt>
      <trkpt lat="43.8271" lon="1.82387">
        <ele>146.339148</ele>
        <time>2026-08-29T06:21:03Z</time>
      </trkpt>
      <trkpt lat="43.82716" lon="1.82393">
        <ele>146.396134</ele>
        <time>2026-08-29T06:21:04Z</time>
      </trkpt>
      <trkpt lat="43.82722" lon="1.82399">
        <ele>146.454124</ele>
        <time>2026-08-29T06:21:05Z</time>
      </trkpt>
      <trkpt lat="43.82727" lon="1.82406">
        <ele>146.471456</ele>
        <time>2026-08-29T06:21:06Z</time>
      </trkpt>
      <trkpt lat="43.82732" lon="1.82412">
        <ele>146.435107</ele>
        <time>2026-08-29T06:21:07Z</time>
      </trkpt>
      <trkpt lat="43.82737" lon="1.82419">
        <ele>146.399256</ele>
        <time>2026-08-29T06:21:08Z</time>
      </trkpt>
      <trkpt lat="43.82742" lon="1.82425">
        <ele>146.36466</ele>
        <time>2026-08-29T06:21:09Z</time>
      </trkpt>
      <trkpt lat="43.82747" lon="1.82432">
        <ele>146.329054</ele>
        <time>2026-08-29T06:21:10Z</time>
      </trkpt>
      <trkpt lat="43.82752" lon="1.82438">
        <ele>146.293957</ele>
        <time>2026-08-29T06:21:11Z</time>
      </trkpt>
      <trkpt lat="43.82757" lon="1.82445">
        <ele>146.259112</ele>
        <time>2026-08-29T06:21:12Z</time>
      </trkpt>
      <trkpt lat="43.82762" lon="1.82451">
        <ele>146.224893</ele>
        <time>2026-08-29T06:21:13Z</time>
      </trkpt>
      <trkpt lat="43.82767" lon="1.82457">
        <ele>146.191173</ele>
        <time>2026-08-29T06:21:14Z</time>
      </trkpt>
      <trkpt lat="43.82772" lon="1.82463">
        <ele>146.157204</ele>
        <time>2026-08-29T06:21:15Z</time>
      </trkpt>
      <trkpt lat="43.82777" lon="1.82469">
        <ele>146.122856</ele>
        <time>2026-08-29T06:21:16Z</time>
      </trkpt>
      <trkpt lat="43.82782" lon="1.82476">
        <ele>146.089515</ele>
        <time>2026-08-29T06:21:17Z</time>
      </trkpt>
      <trkpt lat="43.82786" lon="1.82482">
        <ele>146.055923</ele>
        <time>2026-08-29T06:21:18Z</time>
      </trkpt>
      <trkpt lat="43.82791" lon="1.82488">
        <ele>146.022703</ele>
        <time>2026-08-29T06:21:19Z</time>
      </trkpt>
      <trkpt lat="43.82796" lon="1.82494">
        <ele>145.989738</ele>
        <time>2026-08-29T06:21:20Z</time>
      </trkpt>
      <trkpt lat="43.828" lon="1.825">
        <ele>145.958024</ele>
        <time>2026-08-29T06:21:21Z</time>
      </trkpt>
      <trkpt lat="43.82805" lon="1.82506">
        <ele>145.926813</ele>
        <time>2026-08-29T06:21:22Z</time>
      </trkpt>
      <trkpt lat="43.82809" lon="1.82511">
        <ele>145.895725</ele>
        <time>2026-08-29T06:21:23Z</time>
      </trkpt>
      <trkpt lat="43.82814" lon="1.82517">
        <ele>145.865008</ele>
        <time>2026-08-29T06:21:24Z</time>
      </trkpt>
      <trkpt lat="43.82818" lon="1.82523">
        <ele>145.834425</ele>
        <time>2026-08-29T06:21:25Z</time>
      </trkpt>
      <trkpt lat="43.82823" lon="1.82528">
        <ele>145.803951</ele>
        <time>2026-08-29T06:21:26Z</time>
      </trkpt>
      <trkpt lat="43.82827" lon="1.82533">
        <ele>145.773088</ele>
        <time>2026-08-29T06:21:27Z</time>
      </trkpt>
      <trkpt lat="43.82832" lon="1.82539">
        <ele>145.741742</ele>
        <time>2026-08-29T06:21:28Z</time>
      </trkpt>
      <trkpt lat="43.82837" lon="1.82544">
        <ele>145.710487</ele>
        <time>2026-08-29T06:21:29Z</time>
      </trkpt>
      <trkpt lat="43.82841" lon="1.8255">
        <ele>145.679384</ele>
        <time>2026-08-29T06:21:30Z</time>
      </trkpt>
      <trkpt lat="43.82846" lon="1.82556">
        <ele>145.648549</ele>
        <time>2026-08-29T06:21:31Z</time>
      </trkpt>
      <trkpt lat="43.8285" lon="1.82561">
        <ele>145.617586</ele>
        <time>2026-08-29T06:21:32Z</time>
      </trkpt>
      <trkpt lat="43.82854" lon="1.82567">
        <ele>145.587252</ele>
        <time>2026-08-29T06:21:33Z</time>
      </trkpt>
      <trkpt lat="43.82859" lon="1.82572">
        <ele>145.586562</ele>
        <time>2026-08-29T06:21:34Z</time>
      </trkpt>
      <trkpt lat="43.82864" lon="1.82578">
        <ele>145.654419</ele>
        <time>2026-08-29T06:21:35Z</time>
      </trkpt>
      <trkpt lat="43.82868" lon="1.82584">
        <ele>145.7204</ele>
        <time>2026-08-29T06:21:36Z</time>
      </trkpt>
      <trkpt lat="43.82872" lon="1.82589">
        <ele>145.786095</ele>
        <time>2026-08-29T06:21:37Z</time>
      </trkpt>
      <trkpt lat="43.82877" lon="1.82595">
        <ele>145.850739</ele>
        <time>2026-08-29T06:21:38Z</time>
      </trkpt>
      <trkpt lat="43.82881" lon="1.82601">
        <ele>145.916972</ele>
        <time>2026-08-29T06:21:39Z</time>
      </trkpt>
      <trkpt lat="43.82885" lon="1.82606">
        <ele>145.981861</ele>
        <time>2026-08-29T06:21:40Z</time>
      </trkpt>
      <trkpt lat="43.8289" lon="1.82612">
        <ele>146.046749</ele>
        <time>2026-08-29T06:21:41Z</time>
      </trkpt>
      <trkpt lat="43.82894" lon="1.82617">
        <ele>146.113258</ele>
        <time>2026-08-29T06:21:42Z</time>
      </trkpt>
      <trkpt lat="43.82899" lon="1.82623">
        <ele>146.179492</ele>
        <time>2026-08-29T06:21:43Z</time>
      </trkpt>
      <trkpt lat="43.82903" lon="1.82629">
        <ele>146.248172</ele>
        <time>2026-08-29T06:21:44Z</time>
      </trkpt>
      <trkpt lat="43.82908" lon="1.82635">
        <ele>146.319554</ele>
        <time>2026-08-29T06:21:45Z</time>
      </trkpt>
      <trkpt lat="43.82913" lon="1.82641">
        <ele>146.390638</ele>
        <time>2026-08-29T06:21:46Z</time>
      </trkpt>
      <trkpt lat="43.82918" lon="1.82647">
        <ele>146.461193</ele>
        <time>2026-08-29T06:21:47Z</time>
      </trkpt>
      <trkpt lat="43.82922" lon="1.82652">
        <ele>146.530399</ele>
        <time>2026-08-29T06:21:48Z</time>
      </trkpt>
      <trkpt lat="43.82927" lon="1.82658">
        <ele>146.59773</ele>
        <time>2026-08-29T06:21:49Z</time>
      </trkpt>
      <trkpt lat="43.82931" lon="1.82664">
        <ele>146.663424</ele>
        <time>2026-08-29T06:21:50Z</time>
      </trkpt>
      <trkpt lat="43.82936" lon="1.82669">
        <ele>146.727015</ele>
        <time>2026-08-29T06:21:51Z</time>
      </trkpt>
      <trkpt lat="43.8294" lon="1.82674">
        <ele>146.789479</ele>
        <time>2026-08-29T06:21:52Z</time>
      </trkpt>
      <trkpt lat="43.82944" lon="1.82679">
        <ele>146.851413</ele>
        <time>2026-08-29T06:21:53Z</time>
      </trkpt>
      <trkpt lat="43.82949" lon="1.82685">
        <ele>146.914695</ele>
        <time>2026-08-29T06:21:54Z</time>
      </trkpt>
      <trkpt lat="43.82953" lon="1.8269">
        <ele>146.978786</ele>
        <time>2026-08-29T06:21:55Z</time>
      </trkpt>
      <trkpt lat="43.82957" lon="1.82696">
        <ele>147.042598</ele>
        <time>2026-08-29T06:21:56Z</time>
      </trkpt>
      <trkpt lat="43.82961" lon="1.82701">
        <ele>147.10641</ele>
        <time>2026-08-29T06:21:57Z</time>
      </trkpt>
      <trkpt lat="43.82966" lon="1.82706">
        <ele>147.170001</ele>
        <time>2026-08-29T06:21:58Z</time>
      </trkpt>
      <trkpt lat="43.8297" lon="1.82712">
        <ele>147.233544</ele>
        <time>2026-08-29T06:21:59Z</time>
      </trkpt>
      <trkpt lat="43.82974" lon="1.82717">
        <ele>147.296009</ele>
        <time>2026-08-29T06:22:00Z</time>
      </trkpt>
      <trkpt lat="43.82979" lon="1.82722">
        <ele>147.359599</ele>
        <time>2026-08-29T06:22:01Z</time>
      </trkpt>
      <trkpt lat="43.82983" lon="1.82727">
        <ele>147.424542</ele>
        <time>2026-08-29T06:22:02Z</time>
      </trkpt>
      <trkpt lat="43.82988" lon="1.82733">
        <ele>147.491872</ele>
        <time>2026-08-29T06:22:03Z</time>
      </trkpt>
      <trkpt lat="43.82992" lon="1.82739">
        <ele>147.552773</ele>
        <time>2026-08-29T06:22:04Z</time>
      </trkpt>
      <trkpt lat="43.82997" lon="1.82745">
        <ele>147.589129</ele>
        <time>2026-08-29T06:22:05Z</time>
      </trkpt>
      <trkpt lat="43.83001" lon="1.8275">
        <ele>147.625195</ele>
        <time>2026-08-29T06:22:06Z</time>
      </trkpt>
      <trkpt lat="43.83006" lon="1.82756">
        <ele>147.660117</ele>
        <time>2026-08-29T06:22:07Z</time>
      </trkpt>
      <trkpt lat="43.8301" lon="1.82762">
        <ele>147.694616</ele>
        <time>2026-08-29T06:22:08Z</time>
      </trkpt>
      <trkpt lat="43.83014" lon="1.82767">
        <ele>147.728239</ele>
        <time>2026-08-29T06:22:09Z</time>
      </trkpt>
      <trkpt lat="43.83018" lon="1.82773">
        <ele>147.762295</ele>
        <time>2026-08-29T06:22:10Z</time>
      </trkpt>
      <trkpt lat="43.83023" lon="1.82778">
        <ele>147.796954</ele>
        <time>2026-08-29T06:22:11Z</time>
      </trkpt>
      <trkpt lat="43.83027" lon="1.82783">
        <ele>147.831296</ele>
        <time>2026-08-29T06:22:12Z</time>
      </trkpt>
      <trkpt lat="43.83032" lon="1.82789">
        <ele>147.866791</ele>
        <time>2026-08-29T06:22:13Z</time>
      </trkpt>
      <trkpt lat="43.83036" lon="1.82795">
        <ele>147.901421</ele>
        <time>2026-08-29T06:22:14Z</time>
      </trkpt>
      <trkpt lat="43.8304" lon="1.828">
        <ele>147.937059</ele>
        <time>2026-08-29T06:22:15Z</time>
      </trkpt>
      <trkpt lat="43.83045" lon="1.82806">
        <ele>147.972838</ele>
        <time>2026-08-29T06:22:16Z</time>
      </trkpt>
      <trkpt lat="43.83049" lon="1.82812">
        <ele>148.007613</ele>
        <time>2026-08-29T06:22:17Z</time>
      </trkpt>
      <trkpt lat="43.83054" lon="1.82817">
        <ele>148.043392</ele>
        <time>2026-08-29T06:22:18Z</time>
      </trkpt>
      <trkpt lat="43.83058" lon="1.82823">
        <ele>148.080465</ele>
        <time>2026-08-29T06:22:19Z</time>
      </trkpt>
      <trkpt lat="43.83063" lon="1.82829">
        <ele>148.117408</ele>
        <time>2026-08-29T06:22:20Z</time>
      </trkpt>
      <trkpt lat="43.83067" lon="1.82835">
        <ele>148.153474</ele>
        <time>2026-08-29T06:22:21Z</time>
      </trkpt>
      <trkpt lat="43.83072" lon="1.82841">
        <ele>148.190128</ele>
        <time>2026-08-29T06:22:22Z</time>
      </trkpt>
      <trkpt lat="43.83077" lon="1.82847">
        <ele>148.226782</ele>
        <time>2026-08-29T06:22:23Z</time>
      </trkpt>
      <trkpt lat="43.83081" lon="1.82852">
        <ele>148.262561</ele>
        <time>2026-08-29T06:22:24Z</time>
      </trkpt>
      <trkpt lat="43.83086" lon="1.82858">
        <ele>148.299059</ele>
        <time>2026-08-29T06:22:25Z</time>
      </trkpt>
      <trkpt lat="43.83091" lon="1.82864">
        <ele>148.335435</ele>
        <time>2026-08-29T06:22:26Z</time>
      </trkpt>
      <trkpt lat="43.83095" lon="1.82869">
        <ele>148.371369</ele>
        <time>2026-08-29T06:22:27Z</time>
      </trkpt>
      <trkpt lat="43.831" lon="1.82875">
        <ele>148.406429</ele>
        <time>2026-08-29T06:22:28Z</time>
      </trkpt>
      <trkpt lat="43.83104" lon="1.8288">
        <ele>148.441204</ele>
        <time>2026-08-29T06:22:29Z</time>
      </trkpt>
      <trkpt lat="43.83108" lon="1.82886">
        <ele>148.475259</ele>
        <time>2026-08-29T06:22:30Z</time>
      </trkpt>
      <trkpt lat="43.83112" lon="1.82891">
        <ele>148.508032</ele>
        <time>2026-08-29T06:22:31Z</time>
      </trkpt>
      <trkpt lat="43.83117" lon="1.82896">
        <ele>148.540974</ele>
        <time>2026-08-29T06:22:32Z</time>
      </trkpt>
      <trkpt lat="43.83121" lon="1.82901">
        <ele>148.574639</ele>
        <time>2026-08-29T06:22:33Z</time>
      </trkpt>
      <trkpt lat="43.83125" lon="1.82906">
        <ele>148.571509</ele>
        <time>2026-08-29T06:22:34Z</time>
      </trkpt>
      <trkpt lat="43.83129" lon="1.82912">
        <ele>148.45986</ele>
        <time>2026-08-29T06:22:35Z</time>
      </trkpt>
      <trkpt lat="43.83134" lon="1.82917">
        <ele>148.343289</ele>
        <time>2026-08-29T06:22:36Z</time>
      </trkpt>
      <trkpt lat="43.83139" lon="1.82923">
        <ele>148.223987</ele>
        <time>2026-08-29T06:22:37Z</time>
      </trkpt>
      <trkpt lat="43.83143" lon="1.82928">
        <ele>148.100776</ele>
        <time>2026-08-29T06:22:38Z</time>
      </trkpt>
      <trkpt lat="43.83148" lon="1.82934">
        <ele>147.977196</ele>
        <time>2026-08-29T06:22:39Z</time>
      </trkpt>
      <trkpt lat="43.83153" lon="1.8294">
        <ele>147.855075</ele>
        <time>2026-08-29T06:22:40Z</time>
      </trkpt>
      <trkpt lat="43.83157" lon="1.82945">
        <ele>147.734279</ele>
        <time>2026-08-29T06:22:41Z</time>
      </trkpt>
      <trkpt lat="43.83162" lon="1.82951">
        <ele>147.615898</ele>
        <time>2026-08-29T06:22:42Z</time>
      </trkpt>
      <trkpt lat="43.83167" lon="1.82956">
        <ele>147.498677</ele>
        <time>2026-08-29T06:22:43Z</time>
      </trkpt>
      <trkpt lat="43.83171" lon="1.82961">
        <ele>147.381457</ele>
        <time>2026-08-29T06:22:44Z</time>
      </trkpt>
      <trkpt lat="43.83176" lon="1.82966">
        <ele>147.263986</ele>
        <time>2026-08-29T06:22:45Z</time>
      </trkpt>
      <trkpt lat="43.8318" lon="1.82972">
        <ele>147.14763</ele>
        <time>2026-08-29T06:22:46Z</time>
      </trkpt>
      <trkpt lat="43.83185" lon="1.82977">
        <ele>147.033681</ele>
        <time>2026-08-29T06:22:47Z</time>
      </trkpt>
      <trkpt lat="43.83189" lon="1.82983">
        <ele>146.916792</ele>
        <time>2026-08-29T06:22:48Z</time>
      </trkpt>
      <trkpt lat="43.83194" lon="1.82988">
        <ele>146.795078</ele>
        <time>2026-08-29T06:22:49Z</time>
      </trkpt>
      <trkpt lat="43.83198" lon="1.82994">
        <ele>146.672</ele>
        <time>2026-08-29T06:22:50Z</time>
      </trkpt>
      <trkpt lat="43.83203" lon="1.83">
        <ele>146.544006</ele>
        <time>2026-08-29T06:22:51Z</time>
      </trkpt>
      <trkpt lat="43.83207" lon="1.83007">
        <ele>146.414592</ele>
        <time>2026-08-29T06:22:52Z</time>
      </trkpt>
      <trkpt lat="43.83212" lon="1.83014">
        <ele>146.286687</ele>
        <time>2026-08-29T06:22:53Z</time>
      </trkpt>
      <trkpt lat="43.83216" lon="1.83021">
        <ele>146.157993</ele>
        <time>2026-08-29T06:22:54Z</time>
      </trkpt>
      <trkpt lat="43.8322" lon="1.83029">
        <ele>146.025853</ele>
        <time>2026-08-29T06:22:55Z</time>
      </trkpt>
      <trkpt lat="43.83224" lon="1.83037">
        <ele>145.886785</ele>
        <time>2026-08-29T06:22:56Z</time>
      </trkpt>
      <trkpt lat="43.83228" lon="1.83046">
        <ele>145.739428</ele>
        <time>2026-08-29T06:22:57Z</time>
      </trkpt>
      <trkpt lat="43.83231" lon="1.83055">
        <ele>145.590688</ele>
        <time>2026-08-29T06:22:58Z</time>
      </trkpt>
      <trkpt lat="43.83235" lon="1.83064">
        <ele>145.444368</ele>
        <time>2026-08-29T06:22:59Z</time>
      </trkpt>
      <trkpt lat="43.83239" lon="1.83072">
        <ele>145.303243</ele>
        <time>2026-08-29T06:23:00Z</time>
      </trkpt>
      <trkpt lat="43.83242" lon="1.83081">
        <ele>145.161816</ele>
        <time>2026-08-29T06:23:01Z</time>
      </trkpt>
      <trkpt lat="43.83246" lon="1.8309">
        <ele>145.019795</ele>
        <time>2026-08-29T06:23:02Z</time>
      </trkpt>
      <trkpt lat="43.83249" lon="1.83099">
        <ele>144.882305</ele>
        <time>2026-08-29T06:23:03Z</time>
      </trkpt>
      <trkpt lat="43.83252" lon="1.83108">
        <ele>144.75505</ele>
        <time>2026-08-29T06:23:04Z</time>
      </trkpt>
      <trkpt lat="43.83254" lon="1.83115">
        <ele>144.642067</ele>
        <time>2026-08-29T06:23:05Z</time>
      </trkpt>
      <trkpt lat="43.83256" lon="1.83121">
        <ele>144.556809</ele>
        <time>2026-08-29T06:23:06Z</time>
      </trkpt>
      <trkpt lat="43.83257" lon="1.83125">
        <ele>144.498301</ele>
        <time>2026-08-29T06:23:07Z</time>
      </trkpt>
      <trkpt lat="43.83259" lon="1.83128">
        <ele>144.441964</ele>
        <time>2026-08-29T06:23:08Z</time>
      </trkpt>
      <trkpt lat="43.83262" lon="1.83131">
        <ele>144.377573</ele>
        <time>2026-08-29T06:23:09Z</time>
      </trkpt>
      <trkpt lat="43.83265" lon="1.8313">
        <ele>144.310371</ele>
        <time>2026-08-29T06:23:10Z</time>
      </trkpt>
      <trkpt lat="43.83269" lon="1.83128">
        <ele>144.235406</ele>
        <time>2026-08-29T06:23:11Z</time>
      </trkpt>
      <trkpt lat="43.83272" lon="1.83124">
        <ele>144.151469</ele>
        <time>2026-08-29T06:23:12Z</time>
      </trkpt>
      <trkpt lat="43.83276" lon="1.83121">
        <ele>144.062889</ele>
        <time>2026-08-29T06:23:13Z</time>
      </trkpt>
      <trkpt lat="43.83281" lon="1.83117">
        <ele>143.971266</ele>
        <time>2026-08-29T06:23:14Z</time>
      </trkpt>
      <trkpt lat="43.83285" lon="1.83114">
        <ele>143.881233</ele>
        <time>2026-08-29T06:23:15Z</time>
      </trkpt>
      <trkpt lat="43.83289" lon="1.8311">
        <ele>143.7912</ele>
        <time>2026-08-29T06:23:16Z</time>
      </trkpt>
      <trkpt lat="43.83292" lon="1.83106">
        <ele>143.69685</ele>
        <time>2026-08-29T06:23:17Z</time>
      </trkpt>
      <trkpt lat="43.83297" lon="1.83101">
        <ele>143.594949</ele>
        <time>2026-08-29T06:23:18Z</time>
      </trkpt>
      <trkpt lat="43.83301" lon="1.83097">
        <ele>143.50565</ele>
        <time>2026-08-29T06:23:19Z</time>
      </trkpt>
      <trkpt lat="43.83305" lon="1.83096">
        <ele>143.421235</ele>
        <time>2026-08-29T06:23:20Z</time>
      </trkpt>
      <trkpt lat="43.8331" lon="1.83095">
        <ele>143.326597</ele>
        <time>2026-08-29T06:23:21Z</time>
      </trkpt>
      <trkpt lat="43.83316" lon="1.83094">
        <ele>143.217755</ele>
        <time>2026-08-29T06:23:22Z</time>
      </trkpt>
      <trkpt lat="43.83321" lon="1.83092">
        <ele>143.102051</ele>
        <time>2026-08-29T06:23:23Z</time>
      </trkpt>
      <trkpt lat="43.83326" lon="1.83085">
        <ele>142.982945</ele>
        <time>2026-08-29T06:23:24Z</time>
      </trkpt>
      <trkpt lat="43.83332" lon="1.83081">
        <ele>142.852841</ele>
        <time>2026-08-29T06:23:25Z</time>
      </trkpt>
      <trkpt lat="43.83337" lon="1.83076">
        <ele>142.733187</ele>
        <time>2026-08-29T06:23:26Z</time>
      </trkpt>
      <trkpt lat="43.83343" lon="1.83071">
        <ele>142.602092</ele>
        <time>2026-08-29T06:23:27Z</time>
      </trkpt>
      <trkpt lat="43.83349" lon="1.83067">
        <ele>142.476887</ele>
        <time>2026-08-29T06:23:28Z</time>
      </trkpt>
      <trkpt lat="43.83354" lon="1.83062">
        <ele>142.356621</ele>
        <time>2026-08-29T06:23:29Z</time>
      </trkpt>
      <trkpt lat="43.83359" lon="1.83057">
        <ele>142.242491</ele>
        <time>2026-08-29T06:23:30Z</time>
      </trkpt>
      <trkpt lat="43.83364" lon="1.83053">
        <ele>142.130771</ele>
        <time>2026-08-29T06:23:31Z</time>
      </trkpt>
      <trkpt lat="43.83369" lon="1.83048">
        <ele>142.022156</ele>
        <time>2026-08-29T06:23:32Z</time>
      </trkpt>
      <trkpt lat="43.83373" lon="1.83044">
        <ele>141.917406</ele>
        <time>2026-08-29T06:23:33Z</time>
      </trkpt>
      <trkpt lat="43.83378" lon="1.83039">
        <ele>141.81184</ele>
        <time>2026-08-29T06:23:34Z</time>
      </trkpt>
      <trkpt lat="43.83383" lon="1.83036">
        <ele>141.710467</ele>
        <time>2026-08-29T06:23:35Z</time>
      </trkpt>
      <trkpt lat="43.83388" lon="1.83033">
        <ele>141.742698</ele>
        <time>2026-08-29T06:23:36Z</time>
      </trkpt>
      <trkpt lat="43.83393" lon="1.83031">
        <ele>141.851711</ele>
        <time>2026-08-29T06:23:37Z</time>
      </trkpt>
      <trkpt lat="43.83399" lon="1.83032">
        <ele>141.955165</ele>
        <time>2026-08-29T06:23:38Z</time>
      </trkpt>
      <trkpt lat="43.83403" lon="1.83035">
        <ele>142.055667</ele>
        <time>2026-08-29T06:23:39Z</time>
      </trkpt>
      <trkpt lat="43.83406" lon="1.8304">
        <ele>142.139977</ele>
        <time>2026-08-29T06:23:40Z</time>
      </trkpt>
      <trkpt lat="43.83406" lon="1.83045">
        <ele>142.217087</ele>
        <time>2026-08-29T06:23:41Z</time>
      </trkpt>
      <trkpt lat="43.83407" lon="1.83051">
        <ele>142.297055</ele>
        <time>2026-08-29T06:23:42Z</time>
      </trkpt>
      <trkpt lat="43.83407" lon="1.83057">
        <ele>142.375478</ele>
        <time>2026-08-29T06:23:43Z</time>
      </trkpt>
      <trkpt lat="43.83408" lon="1.83062">
        <ele>142.460626</ele>
        <time>2026-08-29T06:23:44Z</time>
      </trkpt>
      <trkpt lat="43.83408" lon="1.83068">
        <ele>142.540526</ele>
        <time>2026-08-29T06:23:45Z</time>
      </trkpt>
      <trkpt lat="43.83409" lon="1.83074">
        <ele>142.62708</ele>
        <time>2026-08-29T06:23:46Z</time>
      </trkpt>
      <trkpt lat="43.8341" lon="1.8308">
        <ele>142.712958</ele>
        <time>2026-08-29T06:23:47Z</time>
      </trkpt>
      <trkpt lat="43.83411" lon="1.83086">
        <ele>142.802041</ele>
        <time>2026-08-29T06:23:48Z</time>
      </trkpt>
      <trkpt lat="43.83412" lon="1.83092">
        <ele>142.891582</ele>
        <time>2026-08-29T06:23:49Z</time>
      </trkpt>
      <trkpt lat="43.83413" lon="1.83098">
        <ele>142.976505</ele>
        <time>2026-08-29T06:23:50Z</time>
      </trkpt>
      <trkpt lat="43.83414" lon="1.83104">
        <ele>143.064356</ele>
        <time>2026-08-29T06:23:51Z</time>
      </trkpt>
      <trkpt lat="43.83416" lon="1.8311">
        <ele>143.160413</ele>
        <time>2026-08-29T06:23:52Z</time>
      </trkpt>
      <trkpt lat="43.83417" lon="1.83117">
        <ele>143.254289</ele>
        <time>2026-08-29T06:23:53Z</time>
      </trkpt>
      <trkpt lat="43.83419" lon="1.83122">
        <ele>143.340694</ele>
        <time>2026-08-29T06:23:54Z</time>
      </trkpt>
      <trkpt lat="43.8342" lon="1.83128">
        <ele>143.427794</ele>
        <time>2026-08-29T06:23:55Z</time>
      </trkpt>
      <trkpt lat="43.83422" lon="1.83134">
        <ele>143.514316</ele>
        <time>2026-08-29T06:23:56Z</time>
      </trkpt>
      <trkpt lat="43.83424" lon="1.8314">
        <ele>143.60763</ele>
        <time>2026-08-29T06:23:57Z</time>
      </trkpt>
      <trkpt lat="43.83426" lon="1.83146">
        <ele>143.706462</ele>
        <time>2026-08-29T06:23:58Z</time>
      </trkpt>
      <trkpt lat="43.83428" lon="1.83152">
        <ele>143.806137</ele>
        <time>2026-08-29T06:23:59Z</time>
      </trkpt>
      <trkpt lat="43.8343" lon="1.83158">
        <ele>143.898553</ele>
        <time>2026-08-29T06:24:00Z</time>
      </trkpt>
      <trkpt lat="43.83433" lon="1.83164">
        <ele>143.994057</ele>
        <time>2026-08-29T06:24:01Z</time>
      </trkpt>
      <trkpt lat="43.83435" lon="1.8317">
        <ele>144.095516</ele>
        <time>2026-08-29T06:24:02Z</time>
      </trkpt>
      <trkpt lat="43.83437" lon="1.83176">
        <ele>144.195425</ele>
        <time>2026-08-29T06:24:03Z</time>
      </trkpt>
      <trkpt lat="43.8344" lon="1.83182">
        <ele>144.292441</ele>
        <time>2026-08-29T06:24:04Z</time>
      </trkpt>
      <trkpt lat="43.83444" lon="1.83187">
        <ele>144.39107</ele>
        <time>2026-08-29T06:24:05Z</time>
      </trkpt>
      <trkpt lat="43.83447" lon="1.83192">
        <ele>144.489964</ele>
        <time>2026-08-29T06:24:06Z</time>
      </trkpt>
      <trkpt lat="43.8345" lon="1.83197">
        <ele>144.586473</ele>
        <time>2026-08-29T06:24:07Z</time>
      </trkpt>
      <trkpt lat="43.83454" lon="1.83202">
        <ele>144.683295</ele>
        <time>2026-08-29T06:24:08Z</time>
      </trkpt>
      <trkpt lat="43.83458" lon="1.83206">
        <ele>144.782562</ele>
        <time>2026-08-29T06:24:09Z</time>
      </trkpt>
      <trkpt lat="43.83461" lon="1.83211">
        <ele>144.877774</ele>
        <time>2026-08-29T06:24:10Z</time>
      </trkpt>
      <trkpt lat="43.83465" lon="1.83216">
        <ele>144.972986</ele>
        <time>2026-08-29T06:24:11Z</time>
      </trkpt>
      <trkpt lat="43.83468" lon="1.8322">
        <ele>145.066498</ele>
        <time>2026-08-29T06:24:12Z</time>
      </trkpt>
      <trkpt lat="43.83472" lon="1.83224">
        <ele>145.156401</ele>
        <time>2026-08-29T06:24:13Z</time>
      </trkpt>
      <trkpt lat="43.83475" lon="1.83228">
        <ele>145.257961</ele>
        <time>2026-08-29T06:24:14Z</time>
      </trkpt>
      <trkpt lat="43.83478" lon="1.83233">
        <ele>145.379872</ele>
        <time>2026-08-29T06:24:15Z</time>
      </trkpt>
      <trkpt lat="43.83481" lon="1.83237">
        <ele>145.501193</ele>
        <time>2026-08-29T06:24:16Z</time>
      </trkpt>
      <trkpt lat="43.83485" lon="1.83241">
        <ele>145.625128</ele>
        <time>2026-08-29T06:24:17Z</time>
      </trkpt>
      <trkpt lat="43.83488" lon="1.83245">
        <ele>145.74842</ele>
        <time>2026-08-29T06:24:18Z</time>
      </trkpt>
      <trkpt lat="43.83491" lon="1.8325">
        <ele>145.871712</ele>
        <time>2026-08-29T06:24:19Z</time>
      </trkpt>
      <trkpt lat="43.83494" lon="1.83254">
        <ele>145.997005</ele>
        <time>2026-08-29T06:24:20Z</time>
      </trkpt>
      <trkpt lat="43.83498" lon="1.83258">
        <ele>146.118916</ele>
        <time>2026-08-29T06:24:21Z</time>
      </trkpt>
      <trkpt lat="43.83501" lon="1.83262">
        <ele>146.248296</ele>
        <time>2026-08-29T06:24:22Z</time>
      </trkpt>
      <trkpt lat="43.83504" lon="1.83267">
        <ele>146.37089</ele>
        <time>2026-08-29T06:24:23Z</time>
      </trkpt>
      <trkpt lat="43.83508" lon="1.83271">
        <ele>146.498213</ele>
        <time>2026-08-29T06:24:24Z</time>
      </trkpt>
      <trkpt lat="43.83511" lon="1.83275">
        <ele>146.623506</ele>
        <time>2026-08-29T06:24:25Z</time>
      </trkpt>
      <trkpt lat="43.83514" lon="1.83279">
        <ele>146.749493</ele>
        <time>2026-08-29T06:24:26Z</time>
      </trkpt>
      <trkpt lat="43.83518" lon="1.83283">
        <ele>146.868695</ele>
        <time>2026-08-29T06:24:27Z</time>
      </trkpt>
      <trkpt lat="43.83521" lon="1.83288">
        <ele>146.99263</ele>
        <time>2026-08-29T06:24:28Z</time>
      </trkpt>
      <trkpt lat="43.83524" lon="1.83292">
        <ele>147.116564</ele>
        <time>2026-08-29T06:24:29Z</time>
      </trkpt>
      <trkpt lat="43.83528" lon="1.83296">
        <ele>147.239932</ele>
        <time>2026-08-29T06:24:30Z</time>
      </trkpt>
      <trkpt lat="43.83531" lon="1.833">
        <ele>147.362525</ele>
        <time>2026-08-29T06:24:31Z</time>
      </trkpt>
      <trkpt lat="43.83534" lon="1.83304">
        <ele>147.485892</ele>
        <time>2026-08-29T06:24:32Z</time>
      </trkpt>
      <trkpt lat="43.83538" lon="1.83308">
        <ele>147.607978</ele>
        <time>2026-08-29T06:24:33Z</time>
      </trkpt>
      <trkpt lat="43.83541" lon="1.83312">
        <ele>147.732645</ele>
        <time>2026-08-29T06:24:34Z</time>
      </trkpt>
      <trkpt lat="43.83545" lon="1.83316">
        <ele>147.859413</ele>
        <time>2026-08-29T06:24:35Z</time>
      </trkpt>
      <trkpt lat="43.83548" lon="1.8332">
        <ele>147.984902</ele>
        <time>2026-08-29T06:24:36Z</time>
      </trkpt>
      <trkpt lat="43.83552" lon="1.83324">
        <ele>148.110889</ele>
        <time>2026-08-29T06:24:37Z</time>
      </trkpt>
      <trkpt lat="43.83555" lon="1.83329">
        <ele>148.239565</ele>
        <time>2026-08-29T06:24:38Z</time>
      </trkpt>
      <trkpt lat="43.83558" lon="1.83333">
        <ele>148.363499</ele>
        <time>2026-08-29T06:24:39Z</time>
      </trkpt>
      <trkpt lat="43.83561" lon="1.83337">
        <ele>148.482029</ele>
        <time>2026-08-29T06:24:40Z</time>
      </trkpt>
      <trkpt lat="43.83564" lon="1.83341">
        <ele>148.601946</ele>
        <time>2026-08-29T06:24:41Z</time>
      </trkpt>
      <trkpt lat="43.83568" lon="1.83346">
        <ele>148.728048</ele>
        <time>2026-08-29T06:24:42Z</time>
      </trkpt>
      <trkpt lat="43.83571" lon="1.8335">
        <ele>148.856106</ele>
        <time>2026-08-29T06:24:43Z</time>
      </trkpt>
      <trkpt lat="43.83574" lon="1.83354">
        <ele>148.980795</ele>
        <time>2026-08-29T06:24:44Z</time>
      </trkpt>
      <trkpt lat="43.83578" lon="1.83359">
        <ele>149.108859</ele>
        <time>2026-08-29T06:24:45Z</time>
      </trkpt>
      <trkpt lat="43.83581" lon="1.83363">
        <ele>149.234152</ele>
        <time>2026-08-29T06:24:46Z</time>
      </trkpt>
      <trkpt lat="43.83584" lon="1.83367">
        <ele>149.36221</ele>
        <time>2026-08-29T06:24:47Z</time>
      </trkpt>
      <trkpt lat="43.83587" lon="1.83372">
        <ele>149.489301</ele>
        <time>2026-08-29T06:24:48Z</time>
      </trkpt>
      <trkpt lat="43.8359" lon="1.83377">
        <ele>149.614927</ele>
        <time>2026-08-29T06:24:49Z</time>
      </trkpt>
      <trkpt lat="43.83594" lon="1.83382">
        <ele>149.748317</ele>
        <time>2026-08-29T06:24:50Z</time>
      </trkpt>
      <trkpt lat="43.83597" lon="1.83387">
        <ele>149.878102</ele>
        <time>2026-08-29T06:24:51Z</time>
      </trkpt>
      <trkpt lat="43.836" lon="1.83392">
        <ele>150.008166</ele>
        <time>2026-08-29T06:24:52Z</time>
      </trkpt>
      <trkpt lat="43.83603" lon="1.83397">
        <ele>150.136423</ele>
        <time>2026-08-29T06:24:53Z</time>
      </trkpt>
      <trkpt lat="43.83606" lon="1.83401">
        <ele>150.185214</ele>
        <time>2026-08-29T06:24:54Z</time>
      </trkpt>
      <trkpt lat="43.83609" lon="1.83406">
        <ele>150.161005</ele>
        <time>2026-08-29T06:24:55Z</time>
      </trkpt>
      <trkpt lat="43.83612" lon="1.83412">
        <ele>150.13555</ele>
        <time>2026-08-29T06:24:56Z</time>
      </trkpt>
      <trkpt lat="43.83614" lon="1.83417">
        <ele>150.110095</ele>
        <time>2026-08-29T06:24:57Z</time>
      </trkpt>
      <trkpt lat="43.83618" lon="1.83422">
        <ele>150.084266</ele>
        <time>2026-08-29T06:24:58Z</time>
      </trkpt>
      <trkpt lat="43.83621" lon="1.83427">
        <ele>150.056858</ele>
        <time>2026-08-29T06:24:59Z</time>
      </trkpt>
      <trkpt lat="43.83624" lon="1.83433">
        <ele>150.02919</ele>
        <time>2026-08-29T06:25:00Z</time>
      </trkpt>
      <trkpt lat="43.83627" lon="1.83439">
        <ele>150.000246</ele>
        <time>2026-08-29T06:25:01Z</time>
      </trkpt>
      <trkpt lat="43.83631" lon="1.83444">
        <ele>149.971302</ele>
        <time>2026-08-29T06:25:02Z</time>
      </trkpt>
      <trkpt lat="43.83634" lon="1.8345">
        <ele>149.942017</ele>
        <time>2026-08-29T06:25:03Z</time>
      </trkpt>
      <trkpt lat="43.83638" lon="1.83456">
        <ele>149.912134</ele>
        <time>2026-08-29T06:25:04Z</time>
      </trkpt>
      <trkpt lat="43.83641" lon="1.83462">
        <ele>149.88225</ele>
        <time>2026-08-29T06:25:05Z</time>
      </trkpt>
      <trkpt lat="43.83645" lon="1.83468">
        <ele>149.852367</ele>
        <time>2026-08-29T06:25:06Z</time>
      </trkpt>
      <trkpt lat="43.83648" lon="1.83474">
        <ele>149.821877</ele>
        <time>2026-08-29T06:25:07Z</time>
      </trkpt>
      <trkpt lat="43.83652" lon="1.83481">
        <ele>149.79014</ele>
        <time>2026-08-29T06:25:08Z</time>
      </trkpt>
      <trkpt lat="43.83656" lon="1.83488">
        <ele>149.758096</ele>
        <time>2026-08-29T06:25:09Z</time>
      </trkpt>
      <trkpt lat="43.83659" lon="1.83494">
        <ele>149.726029</ele>
        <time>2026-08-29T06:25:10Z</time>
      </trkpt>
      <trkpt lat="43.83663" lon="1.835">
        <ele>149.694266</ele>
        <time>2026-08-29T06:25:11Z</time>
      </trkpt>
      <trkpt lat="43.83667" lon="1.83507">
        <ele>149.662502</ele>
        <time>2026-08-29T06:25:12Z</time>
      </trkpt>
      <trkpt lat="43.8367" lon="1.83513">
        <ele>149.632013</ele>
        <time>2026-08-29T06:25:13Z</time>
      </trkpt>
      <trkpt lat="43.83674" lon="1.83519">
        <ele>149.60085</ele>
        <time>2026-08-29T06:25:14Z</time>
      </trkpt>
      <trkpt lat="43.83678" lon="1.83526">
        <ele>149.569087</ele>
        <time>2026-08-29T06:25:15Z</time>
      </trkpt>
      <trkpt lat="43.83681" lon="1.83532">
        <ele>149.536985</ele>
        <time>2026-08-29T06:25:16Z</time>
      </trkpt>
      <trkpt lat="43.83685" lon="1.83538">
        <ele>149.504482</ele>
        <time>2026-08-29T06:25:17Z</time>
      </trkpt>
      <trkpt lat="43.83689" lon="1.83545">
        <ele>149.472974</ele>
        <time>2026-08-29T06:25:18Z</time>
      </trkpt>
      <trkpt lat="43.83693" lon="1.83551">
        <ele>149.439967</ele>
        <time>2026-08-29T06:25:19Z</time>
      </trkpt>
      <trkpt lat="43.83697" lon="1.83558">
        <ele>149.406655</ele>
        <time>2026-08-29T06:25:20Z</time>
      </trkpt>
      <trkpt lat="43.83701" lon="1.83565">
        <ele>149.372401</ele>
        <time>2026-08-29T06:25:21Z</time>
      </trkpt>
      <trkpt lat="43.83705" lon="1.83572">
        <ele>149.338375</ele>
        <time>2026-08-29T06:25:22Z</time>
      </trkpt>
      <trkpt lat="43.83709" lon="1.83578">
        <ele>149.305633</ele>
        <time>2026-08-29T06:25:23Z</time>
      </trkpt>
      <trkpt lat="43.83712" lon="1.83585">
        <ele>149.272929</ele>
        <time>2026-08-29T06:25:24Z</time>
      </trkpt>
      <trkpt lat="43.83716" lon="1.83591">
        <ele>149.240558</ele>
        <time>2026-08-29T06:25:25Z</time>
      </trkpt>
      <trkpt lat="43.8372" lon="1.83598">
        <ele>149.203808</ele>
        <time>2026-08-29T06:25:26Z</time>
      </trkpt>
      <trkpt lat="43.83724" lon="1.83605">
        <ele>149.166215</ele>
        <time>2026-08-29T06:25:27Z</time>
      </trkpt>
      <trkpt lat="43.83727" lon="1.83612">
        <ele>149.128652</ele>
        <time>2026-08-29T06:25:28Z</time>
      </trkpt>
      <trkpt lat="43.83731" lon="1.83619">
        <ele>149.089278</ele>
        <time>2026-08-29T06:25:29Z</time>
      </trkpt>
      <trkpt lat="43.83735" lon="1.83625">
        <ele>149.050633</ele>
        <time>2026-08-29T06:25:30Z</time>
      </trkpt>
      <trkpt lat="43.83739" lon="1.83632">
        <ele>149.011988</ele>
        <time>2026-08-29T06:25:31Z</time>
      </trkpt>
      <trkpt lat="43.83743" lon="1.83639">
        <ele>148.973344</ele>
        <time>2026-08-29T06:25:32Z</time>
      </trkpt>
      <trkpt lat="43.83747" lon="1.83646">
        <ele>148.935018</ele>
        <time>2026-08-29T06:25:33Z</time>
      </trkpt>
      <trkpt lat="43.8375" lon="1.83653">
        <ele>148.896692</ele>
        <time>2026-08-29T06:25:34Z</time>
      </trkpt>
      <trkpt lat="43.83754" lon="1.83659">
        <ele>148.859396</ele>
        <time>2026-08-29T06:25:35Z</time>
      </trkpt>
      <trkpt lat="43.83758" lon="1.83666">
        <ele>148.821479</ele>
        <time>2026-08-29T06:25:36Z</time>
      </trkpt>
      <trkpt lat="43.83762" lon="1.83672">
        <ele>148.784269</ele>
        <time>2026-08-29T06:25:37Z</time>
      </trkpt>
      <trkpt lat="43.83766" lon="1.83679">
        <ele>148.747024</ele>
        <time>2026-08-29T06:25:38Z</time>
      </trkpt>
      <trkpt lat="43.83769" lon="1.83685">
        <ele>148.710164</ele>
        <time>2026-08-29T06:25:39Z</time>
      </trkpt>
      <trkpt lat="43.83773" lon="1.83692">
        <ele>148.673263</ele>
        <time>2026-08-29T06:25:40Z</time>
      </trkpt>
      <trkpt lat="43.83777" lon="1.83698">
        <ele>148.636363</ele>
        <time>2026-08-29T06:25:41Z</time>
      </trkpt>
      <trkpt lat="43.83781" lon="1.83705">
        <ele>148.599503</ele>
        <time>2026-08-29T06:25:42Z</time>
      </trkpt>
      <trkpt lat="43.83784" lon="1.83711">
        <ele>148.562668</ele>
        <time>2026-08-29T06:25:43Z</time>
      </trkpt>
      <trkpt lat="43.83788" lon="1.83718">
        <ele>148.525458</ele>
        <time>2026-08-29T06:25:44Z</time>
      </trkpt>
      <trkpt lat="43.83792" lon="1.83725">
        <ele>148.487895</ele>
        <time>2026-08-29T06:25:45Z</time>
      </trkpt>
      <trkpt lat="43.83795" lon="1.83731">
        <ele>148.45107</ele>
        <time>2026-08-29T06:25:46Z</time>
      </trkpt>
      <trkpt lat="43.83799" lon="1.83737">
        <ele>148.416373</ele>
        <time>2026-08-29T06:25:47Z</time>
      </trkpt>
      <trkpt lat="43.83802" lon="1.83744">
        <ele>148.380974</ele>
        <time>2026-08-29T06:25:48Z</time>
      </trkpt>
      <trkpt lat="43.83805" lon="1.8375">
        <ele>148.346315</ele>
        <time>2026-08-29T06:25:49Z</time>
      </trkpt>
      <trkpt lat="43.83809" lon="1.83756">
        <ele>148.310932</ele>
        <time>2026-08-29T06:25:50Z</time>
      </trkpt>
      <trkpt lat="43.83812" lon="1.83763">
        <ele>148.275548</ele>
        <time>2026-08-29T06:25:51Z</time>
      </trkpt>
      <trkpt lat="43.83816" lon="1.8377">
        <ele>148.238714</ele>
        <time>2026-08-29T06:25:52Z</time>
      </trkpt>
      <trkpt lat="43.83819" lon="1.83776">
        <ele>148.202203</ele>
        <time>2026-08-29T06:25:53Z</time>
      </trkpt>
      <trkpt lat="43.83823" lon="1.83783">
        <ele>148.164654</ele>
        <time>2026-08-29T06:25:54Z</time>
      </trkpt>
      <trkpt lat="43.83826" lon="1.83789">
        <ele>148.127829</ele>
        <time>2026-08-29T06:25:55Z</time>
      </trkpt>
      <trkpt lat="43.8383" lon="1.83796">
        <ele>148.126249</ele>
        <time>2026-08-29T06:25:56Z</time>
      </trkpt>
      <trkpt lat="43.83833" lon="1.83803">
        <ele>148.130392</ele>
        <time>2026-08-29T06:25:57Z</time>
      </trkpt>
      <trkpt lat="43.83837" lon="1.83809">
        <ele>148.134454</ele>
        <time>2026-08-29T06:25:58Z</time>
      </trkpt>
      <trkpt lat="43.8384" lon="1.83816">
        <ele>148.138475</ele>
        <time>2026-08-29T06:25:59Z</time>
      </trkpt>
      <trkpt lat="43.83844" lon="1.83823">
        <ele>148.142538</ele>
        <time>2026-08-29T06:26:00Z</time>
      </trkpt>
      <trkpt lat="43.83847" lon="1.8383">
        <ele>148.146764</ele>
        <time>2026-08-29T06:26:01Z</time>
      </trkpt>
      <trkpt lat="43.8385" lon="1.83836">
        <ele>148.150866</ele>
        <time>2026-08-29T06:26:02Z</time>
      </trkpt>
      <trkpt lat="43.83854" lon="1.83843">
        <ele>148.154969</ele>
        <time>2026-08-29T06:26:03Z</time>
      </trkpt>
      <trkpt lat="43.83857" lon="1.8385">
        <ele>148.159077</ele>
        <time>2026-08-29T06:26:04Z</time>
      </trkpt>
      <trkpt lat="43.8386" lon="1.83857">
        <ele>148.163307</ele>
        <time>2026-08-29T06:26:05Z</time>
      </trkpt>
      <trkpt lat="43.83863" lon="1.83864">
        <ele>148.1675</ele>
        <time>2026-08-29T06:26:06Z</time>
      </trkpt>
      <trkpt lat="43.83867" lon="1.83871">
        <ele>148.171724</ele>
        <time>2026-08-29T06:26:07Z</time>
      </trkpt>
      <trkpt lat="43.8387" lon="1.83878">
        <ele>148.175868</ele>
        <time>2026-08-29T06:26:08Z</time>
      </trkpt>
      <trkpt lat="43.83874" lon="1.83884">
        <ele>148.18001</ele>
        <time>2026-08-29T06:26:09Z</time>
      </trkpt>
      <trkpt lat="43.83877" lon="1.83891">
        <ele>148.184275</ele>
        <time>2026-08-29T06:26:10Z</time>
      </trkpt>
      <trkpt lat="43.83881" lon="1.83898">
        <ele>148.188541</ele>
        <time>2026-08-29T06:26:11Z</time>
      </trkpt>
      <trkpt lat="43.83884" lon="1.83905">
        <ele>148.192683</ele>
        <time>2026-08-29T06:26:12Z</time>
      </trkpt>
      <trkpt lat="43.83888" lon="1.83912">
        <ele>148.196745</ele>
        <time>2026-08-29T06:26:13Z</time>
      </trkpt>
      <trkpt lat="43.83891" lon="1.83918">
        <ele>148.200848</ele>
        <time>2026-08-29T06:26:14Z</time>
      </trkpt>
      <trkpt lat="43.83895" lon="1.83925">
        <ele>148.205072</ele>
        <time>2026-08-29T06:26:15Z</time>
      </trkpt>
      <trkpt lat="43.83898" lon="1.83932">
        <ele>148.209256</ele>
        <time>2026-08-29T06:26:16Z</time>
      </trkpt>
      <trkpt lat="43.83902" lon="1.83939">
        <ele>148.213399</ele>
        <time>2026-08-29T06:26:17Z</time>
      </trkpt>
      <trkpt lat="43.83905" lon="1.83945">
        <ele>148.217501</ele>
        <time>2026-08-29T06:26:18Z</time>
      </trkpt>
      <trkpt lat="43.83909" lon="1.83952">
        <ele>148.221645</ele>
        <time>2026-08-29T06:26:19Z</time>
      </trkpt>
      <trkpt lat="43.83913" lon="1.83959">
        <ele>148.225829</ele>
        <time>2026-08-29T06:26:20Z</time>
      </trkpt>
      <trkpt lat="43.83916" lon="1.83965">
        <ele>148.230097</ele>
        <time>2026-08-29T06:26:21Z</time>
      </trkpt>
      <trkpt lat="43.8392" lon="1.83972">
        <ele>148.234403</ele>
        <time>2026-08-29T06:26:22Z</time>
      </trkpt>
      <trkpt lat="43.83924" lon="1.83979">
        <ele>148.23879</ele>
        <time>2026-08-29T06:26:23Z</time>
      </trkpt>
      <trkpt lat="43.83927" lon="1.83987">
        <ele>148.243138</ele>
        <time>2026-08-29T06:26:24Z</time>
      </trkpt>
      <trkpt lat="43.83931" lon="1.83994">
        <ele>148.247525</ele>
        <time>2026-08-29T06:26:25Z</time>
      </trkpt>
      <trkpt lat="43.83935" lon="1.84001">
        <ele>148.252586</ele>
        <time>2026-08-29T06:26:26Z</time>
      </trkpt>
      <trkpt lat="43.83938" lon="1.84008">
        <ele>148.257803</ele>
        <time>2026-08-29T06:26:27Z</time>
      </trkpt>
      <trkpt lat="43.83942" lon="1.84015">
        <ele>148.262925</ele>
        <time>2026-08-29T06:26:28Z</time>
      </trkpt>
      <trkpt lat="43.83946" lon="1.84022">
        <ele>148.267904</ele>
        <time>2026-08-29T06:26:29Z</time>
      </trkpt>
      <trkpt lat="43.83949" lon="1.84028">
        <ele>148.272882</ele>
        <time>2026-08-29T06:26:30Z</time>
      </trkpt>
      <trkpt lat="43.83953" lon="1.84035">
        <ele>148.277861</ele>
        <time>2026-08-29T06:26:31Z</time>
      </trkpt>
      <trkpt lat="43.83956" lon="1.84042">
        <ele>148.282983</ele>
        <time>2026-08-29T06:26:32Z</time>
      </trkpt>
      <trkpt lat="43.8396" lon="1.84049">
        <ele>148.28801</ele>
        <time>2026-08-29T06:26:33Z</time>
      </trkpt>
      <trkpt lat="43.83963" lon="1.84056">
        <ele>148.292896</ele>
        <time>2026-08-29T06:26:34Z</time>
      </trkpt>
      <trkpt lat="43.83966" lon="1.84063">
        <ele>148.297783</ele>
        <time>2026-08-29T06:26:35Z</time>
      </trkpt>
      <trkpt lat="43.8397" lon="1.8407">
        <ele>148.302763</ele>
        <time>2026-08-29T06:26:36Z</time>
      </trkpt>
      <trkpt lat="43.83973" lon="1.84077">
        <ele>148.307605</ele>
        <time>2026-08-29T06:26:37Z</time>
      </trkpt>
      <trkpt lat="43.83976" lon="1.84084">
        <ele>148.312411</ele>
        <time>2026-08-29T06:26:38Z</time>
      </trkpt>
      <trkpt lat="43.83979" lon="1.84091">
        <ele>148.317259</ele>
        <time>2026-08-29T06:26:39Z</time>
      </trkpt>
      <trkpt lat="43.83982" lon="1.84098">
        <ele>148.322194</ele>
        <time>2026-08-29T06:26:40Z</time>
      </trkpt>
      <trkpt lat="43.83986" lon="1.84105">
        <ele>148.327085</ele>
        <time>2026-08-29T06:26:41Z</time>
      </trkpt>
      <trkpt lat="43.83989" lon="1.84112">
        <ele>148.331891</ele>
        <time>2026-08-29T06:26:42Z</time>
      </trkpt>
      <trkpt lat="43.83991" lon="1.84119">
        <ele>148.336707</ele>
        <time>2026-08-29T06:26:43Z</time>
      </trkpt>
      <trkpt lat="43.83994" lon="1.84126">
        <ele>148.341392</ele>
        <time>2026-08-29T06:26:44Z</time>
      </trkpt>
      <trkpt lat="43.83997" lon="1.84133">
        <ele>148.346091</ele>
        <time>2026-08-29T06:26:45Z</time>
      </trkpt>
      <trkpt lat="43.83999" lon="1.8414">
        <ele>148.350828</ele>
        <time>2026-08-29T06:26:46Z</time>
      </trkpt>
      <trkpt lat="43.84002" lon="1.84148">
        <ele>148.355618</ele>
        <time>2026-08-29T06:26:47Z</time>
      </trkpt>
      <trkpt lat="43.84005" lon="1.84155">
        <ele>148.360407</ele>
        <time>2026-08-29T06:26:48Z</time>
      </trkpt>
      <trkpt lat="43.84008" lon="1.84162">
        <ele>148.365249</ele>
        <time>2026-08-29T06:26:49Z</time>
      </trkpt>
      <trkpt lat="43.8401" lon="1.84169">
        <ele>148.370129</ele>
        <time>2026-08-29T06:26:50Z</time>
      </trkpt>
      <trkpt lat="43.84013" lon="1.84177">
        <ele>148.375061</ele>
        <time>2026-08-29T06:26:51Z</time>
      </trkpt>
      <trkpt lat="43.84016" lon="1.84184">
        <ele>148.379813</ele>
        <time>2026-08-29T06:26:52Z</time>
      </trkpt>
      <trkpt lat="43.84018" lon="1.84191">
        <ele>148.384707</ele>
        <time>2026-08-29T06:26:53Z</time>
      </trkpt>
      <trkpt lat="43.84021" lon="1.84199">
        <ele>148.389423</ele>
        <time>2026-08-29T06:26:54Z</time>
      </trkpt>
      <trkpt lat="43.84023" lon="1.84206">
        <ele>148.393998</ele>
        <time>2026-08-29T06:26:55Z</time>
      </trkpt>
      <trkpt lat="43.84026" lon="1.84213">
        <ele>148.422402</ele>
        <time>2026-08-29T06:26:56Z</time>
      </trkpt>
      <trkpt lat="43.84028" lon="1.8422">
        <ele>148.454844</ele>
        <time>2026-08-29T06:26:57Z</time>
      </trkpt>
      <trkpt lat="43.8403" lon="1.84227">
        <ele>148.487519</ele>
        <time>2026-08-29T06:26:58Z</time>
      </trkpt>
      <trkpt lat="43.84033" lon="1.84234">
        <ele>148.521067</ele>
        <time>2026-08-29T06:26:59Z</time>
      </trkpt>
      <trkpt lat="43.84035" lon="1.84241">
        <ele>148.554452</ele>
        <time>2026-08-29T06:27:00Z</time>
      </trkpt>
      <trkpt lat="43.84037" lon="1.84249">
        <ele>148.588666</ele>
        <time>2026-08-29T06:27:01Z</time>
      </trkpt>
      <trkpt lat="43.84039" lon="1.84257">
        <ele>148.624013</ele>
        <time>2026-08-29T06:27:02Z</time>
      </trkpt>
      <trkpt lat="43.84042" lon="1.84264">
        <ele>148.658393</ele>
        <time>2026-08-29T06:27:03Z</time>
      </trkpt>
      <trkpt lat="43.84044" lon="1.84272">
        <ele>148.693164</ele>
        <time>2026-08-29T06:27:04Z</time>
      </trkpt>
      <trkpt lat="43.84046" lon="1.84279">
        <ele>148.726844</ele>
        <time>2026-08-29T06:27:05Z</time>
      </trkpt>
      <trkpt lat="43.84048" lon="1.84286">
        <ele>148.758673</ele>
        <time>2026-08-29T06:27:06Z</time>
      </trkpt>
      <trkpt lat="43.8405" lon="1.84293">
        <ele>148.790729</ele>
        <time>2026-08-29T06:27:07Z</time>
      </trkpt>
      <trkpt lat="43.84053" lon="1.843">
        <ele>148.82264</ele>
        <time>2026-08-29T06:27:08Z</time>
      </trkpt>
      <trkpt lat="43.84055" lon="1.84307">
        <ele>148.855696</ele>
        <time>2026-08-29T06:27:09Z</time>
      </trkpt>
      <trkpt lat="43.84058" lon="1.84314">
        <ele>148.889951</ele>
        <time>2026-08-29T06:27:10Z</time>
      </trkpt>
      <trkpt lat="43.84061" lon="1.84322">
        <ele>148.924859</ele>
        <time>2026-08-29T06:27:11Z</time>
      </trkpt>
      <trkpt lat="43.84064" lon="1.84329">
        <ele>148.958386</ele>
        <time>2026-08-29T06:27:12Z</time>
      </trkpt>
      <trkpt lat="43.84067" lon="1.84336">
        <ele>148.992276</ele>
        <time>2026-08-29T06:27:13Z</time>
      </trkpt>
      <trkpt lat="43.8407" lon="1.84343">
        <ele>149.02646</ele>
        <time>2026-08-29T06:27:14Z</time>
      </trkpt>
      <trkpt lat="43.84073" lon="1.8435">
        <ele>149.060945</ele>
        <time>2026-08-29T06:27:15Z</time>
      </trkpt>
      <trkpt lat="43.84076" lon="1.84356">
        <ele>149.094315</ele>
        <time>2026-08-29T06:27:16Z</time>
      </trkpt>
      <trkpt lat="43.8408" lon="1.84362">
        <ele>149.126664</ele>
        <time>2026-08-29T06:27:17Z</time>
      </trkpt>
      <trkpt lat="43.84083" lon="1.84368">
        <ele>149.15943</ele>
        <time>2026-08-29T06:27:18Z</time>
      </trkpt>
      <trkpt lat="43.84087" lon="1.84374">
        <ele>149.19211</ele>
        <time>2026-08-29T06:27:19Z</time>
      </trkpt>
      <trkpt lat="43.84091" lon="1.84379">
        <ele>149.225166</ele>
        <time>2026-08-29T06:27:20Z</time>
      </trkpt>
      <trkpt lat="43.84096" lon="1.84384">
        <ele>149.257832</ele>
        <time>2026-08-29T06:27:21Z</time>
      </trkpt>
      <trkpt lat="43.841" lon="1.84389">
        <ele>149.290879</ele>
        <time>2026-08-29T06:27:22Z</time>
      </trkpt>
      <trkpt lat="43.84105" lon="1.84394">
        <ele>149.324644</ele>
        <time>2026-08-29T06:27:23Z</time>
      </trkpt>
      <trkpt lat="43.8411" lon="1.84399">
        <ele>149.359325</ele>
        <time>2026-08-29T06:27:24Z</time>
      </trkpt>
      <trkpt lat="43.84115" lon="1.84403">
        <ele>149.394006</ele>
        <time>2026-08-29T06:27:25Z</time>
      </trkpt>
      <trkpt lat="43.8412" lon="1.84408">
        <ele>149.428933</ele>
        <time>2026-08-29T06:27:26Z</time>
      </trkpt>
      <trkpt lat="43.84125" lon="1.84412">
        <ele>149.415542</ele>
        <time>2026-08-29T06:27:27Z</time>
      </trkpt>
      <trkpt lat="43.8413" lon="1.84417">
        <ele>149.375721</ele>
        <time>2026-08-29T06:27:28Z</time>
      </trkpt>
      <trkpt lat="43.84134" lon="1.84421">
        <ele>149.336674</ele>
        <time>2026-08-29T06:27:29Z</time>
      </trkpt>
      <trkpt lat="43.84139" lon="1.84425">
        <ele>149.297115</ele>
        <time>2026-08-29T06:27:30Z</time>
      </trkpt>
      <trkpt lat="43.84144" lon="1.84429">
        <ele>149.257357</ele>
        <time>2026-08-29T06:27:31Z</time>
      </trkpt>
      <trkpt lat="43.8415" lon="1.84432">
        <ele>149.218086</ele>
        <time>2026-08-29T06:27:32Z</time>
      </trkpt>
      <trkpt lat="43.84155" lon="1.84434">
        <ele>149.179704</ele>
        <time>2026-08-29T06:27:33Z</time>
      </trkpt>
      <trkpt lat="43.84161" lon="1.84435">
        <ele>149.141545</ele>
        <time>2026-08-29T06:27:34Z</time>
      </trkpt>
      <trkpt lat="43.84166" lon="1.84435">
        <ele>149.103748</ele>
        <time>2026-08-29T06:27:35Z</time>
      </trkpt>
      <trkpt lat="43.84172" lon="1.84435">
        <ele>149.063723</ele>
        <time>2026-08-29T06:27:36Z</time>
      </trkpt>
      <trkpt lat="43.84178" lon="1.84433">
        <ele>149.022775</ele>
        <time>2026-08-29T06:27:37Z</time>
      </trkpt>
      <trkpt lat="43.84184" lon="1.84432">
        <ele>148.980233</ele>
        <time>2026-08-29T06:27:38Z</time>
      </trkpt>
      <trkpt lat="43.8419" lon="1.8443">
        <ele>148.937858</ele>
        <time>2026-08-29T06:27:39Z</time>
      </trkpt>
      <trkpt lat="43.84196" lon="1.84427">
        <ele>148.896332</ele>
        <time>2026-08-29T06:27:40Z</time>
      </trkpt>
      <trkpt lat="43.84201" lon="1.84424">
        <ele>148.854567</ele>
        <time>2026-08-29T06:27:41Z</time>
      </trkpt>
      <trkpt lat="43.84207" lon="1.84419">
        <ele>148.81012</ele>
        <time>2026-08-29T06:27:42Z</time>
      </trkpt>
      <trkpt lat="43.84212" lon="1.84414">
        <ele>148.765493</ele>
        <time>2026-08-29T06:27:43Z</time>
      </trkpt>
      <trkpt lat="43.84218" lon="1.84409">
        <ele>148.719754</ele>
        <time>2026-08-29T06:27:44Z</time>
      </trkpt>
      <trkpt lat="43.84223" lon="1.84404">
        <ele>148.674607</ele>
        <time>2026-08-29T06:27:45Z</time>
      </trkpt>
      <trkpt lat="43.84228" lon="1.84399">
        <ele>148.631625</ele>
        <time>2026-08-29T06:27:46Z</time>
      </trkpt>
      <trkpt lat="43.84233" lon="1.84393">
        <ele>148.586539</ele>
        <time>2026-08-29T06:27:47Z</time>
      </trkpt>
      <trkpt lat="43.84238" lon="1.84387">
        <ele>148.542817</ele>
        <time>2026-08-29T06:27:48Z</time>
      </trkpt>
      <trkpt lat="43.84242" lon="1.84381">
        <ele>148.500452</ele>
        <time>2026-08-29T06:27:49Z</time>
      </trkpt>
      <trkpt lat="43.84247" lon="1.84375">
        <ele>148.456243</ele>
        <time>2026-08-29T06:27:50Z</time>
      </trkpt>
      <trkpt lat="43.84252" lon="1.84369">
        <ele>148.412452</ele>
        <time>2026-08-29T06:27:51Z</time>
      </trkpt>
      <trkpt lat="43.84256" lon="1.84362">
        <ele>148.367207</ele>
        <time>2026-08-29T06:27:52Z</time>
      </trkpt>
      <trkpt lat="43.8426" lon="1.84355">
        <ele>148.323056</ele>
        <time>2026-08-29T06:27:53Z</time>
      </trkpt>
      <trkpt lat="43.84265" lon="1.84349">
        <ele>148.280329</ele>
        <time>2026-08-29T06:27:54Z</time>
      </trkpt>
      <trkpt lat="43.84269" lon="1.84344">
        <ele>148.238806</ele>
        <time>2026-08-29T06:27:55Z</time>
      </trkpt>
      <trkpt lat="43.84274" lon="1.84338">
        <ele>148.223703</ele>
        <time>2026-08-29T06:27:56Z</time>
      </trkpt>
      <trkpt lat="43.84278" lon="1.84334">
        <ele>148.31138</ele>
        <time>2026-08-29T06:27:57Z</time>
      </trkpt>
      <trkpt lat="43.84283" lon="1.84331">
        <ele>148.396499</ele>
        <time>2026-08-29T06:27:58Z</time>
      </trkpt>
      <trkpt lat="43.84288" lon="1.8433">
        <ele>148.481248</ele>
        <time>2026-08-29T06:27:59Z</time>
      </trkpt>
      <trkpt lat="43.84293" lon="1.84332">
        <ele>148.564043</ele>
        <time>2026-08-29T06:28:00Z</time>
      </trkpt>
      <trkpt lat="43.84297" lon="1.84337">
        <ele>148.643496</ele>
        <time>2026-08-29T06:28:01Z</time>
      </trkpt>
      <trkpt lat="43.84299" lon="1.84343">
        <ele>148.725667</ele>
        <time>2026-08-29T06:28:02Z</time>
      </trkpt>
      <trkpt lat="43.84301" lon="1.84349">
        <ele>148.8002</ele>
        <time>2026-08-29T06:28:03Z</time>
      </trkpt>
      <trkpt lat="43.84301" lon="1.84354">
        <ele>148.86773</ele>
        <time>2026-08-29T06:28:04Z</time>
      </trkpt>
      <trkpt lat="43.843" lon="1.8436">
        <ele>148.930465</ele>
        <time>2026-08-29T06:28:05Z</time>
      </trkpt>
      <trkpt lat="43.84299" lon="1.84364">
        <ele>148.989243</ele>
        <time>2026-08-29T06:28:06Z</time>
      </trkpt>
      <trkpt lat="43.84296" lon="1.84368">
        <ele>149.056041</ele>
        <time>2026-08-29T06:28:07Z</time>
      </trkpt>
      <trkpt lat="43.84292" lon="1.84372">
        <ele>149.12654</ele>
        <time>2026-08-29T06:28:08Z</time>
      </trkpt>
      <trkpt lat="43.84288" lon="1.84376">
        <ele>149.19951</ele>
        <time>2026-08-29T06:28:09Z</time>
      </trkpt>
      <trkpt lat="43.84285" lon="1.84379">
        <ele>149.271273</ele>
        <time>2026-08-29T06:28:10Z</time>
      </trkpt>
      <trkpt lat="43.84282" lon="1.84383">
        <ele>149.340523</ele>
        <time>2026-08-29T06:28:11Z</time>
      </trkpt>
      <trkpt lat="43.84278" lon="1.84387">
        <ele>149.409035</ele>
        <time>2026-08-29T06:28:12Z</time>
      </trkpt>
      <trkpt lat="43.84275" lon="1.8439">
        <ele>149.474832</ele>
        <time>2026-08-29T06:28:13Z</time>
      </trkpt>
      <trkpt lat="43.84272" lon="1.84394">
        <ele>149.543894</ele>
        <time>2026-08-29T06:28:14Z</time>
      </trkpt>
      <trkpt lat="43.84268" lon="1.84398">
        <ele>149.615548</ele>
        <time>2026-08-29T06:28:15Z</time>
      </trkpt>
      <trkpt lat="43.84265" lon="1.84401">
        <ele>149.68406</ele>
        <time>2026-08-29T06:28:16Z</time>
      </trkpt>
      <trkpt lat="43.84261" lon="1.84405">
        <ele>149.753122</ele>
        <time>2026-08-29T06:28:17Z</time>
      </trkpt>
      <trkpt lat="43.84258" lon="1.84408">
        <ele>149.822315</ele>
        <time>2026-08-29T06:28:18Z</time>
      </trkpt>
      <trkpt lat="43.84254" lon="1.84411">
        <ele>149.889362</ele>
        <time>2026-08-29T06:28:19Z</time>
      </trkpt>
      <trkpt lat="43.84251" lon="1.84414">
        <ele>149.95769</ele>
        <time>2026-08-29T06:28:20Z</time>
      </trkpt>
      <trkpt lat="43.84247" lon="1.84417">
        <ele>150.022699</ele>
        <time>2026-08-29T06:28:21Z</time>
      </trkpt>
      <trkpt lat="43.84245" lon="1.84421">
        <ele>150.0876</ele>
        <time>2026-08-29T06:28:22Z</time>
      </trkpt>
      <trkpt lat="43.84242" lon="1.84425">
        <ele>150.151388</ele>
        <time>2026-08-29T06:28:23Z</time>
      </trkpt>
      <trkpt lat="43.84239" lon="1.84429">
        <ele>150.212672</ele>
        <time>2026-08-29T06:28:24Z</time>
      </trkpt>
      <trkpt lat="43.84236" lon="1.84432">
        <ele>150.275062</ele>
        <time>2026-08-29T06:28:25Z</time>
      </trkpt>
      <trkpt lat="43.84233" lon="1.84436">
        <ele>150.340746</ele>
        <time>2026-08-29T06:28:26Z</time>
      </trkpt>
      <trkpt lat="43.8423" lon="1.84439">
        <ele>150.407117</ele>
        <time>2026-08-29T06:28:27Z</time>
      </trkpt>
      <trkpt lat="43.84227" lon="1.84443">
        <ele>150.467869</ele>
        <time>2026-08-29T06:28:28Z</time>
      </trkpt>
      <trkpt lat="43.84225" lon="1.84448">
        <ele>150.528382</ele>
        <time>2026-08-29T06:28:29Z</time>
      </trkpt>
      <trkpt lat="43.84225" lon="1.84453">
        <ele>150.589972</ele>
        <time>2026-08-29T06:28:30Z</time>
      </trkpt>
      <trkpt lat="43.84224" lon="1.84458">
        <ele>150.652208</ele>
        <time>2026-08-29T06:28:31Z</time>
      </trkpt>
      <trkpt lat="43.84224" lon="1.84463">
        <ele>150.711676</ele>
        <time>2026-08-29T06:28:32Z</time>
      </trkpt>
      <trkpt lat="43.84224" lon="1.84469">
        <ele>150.781834</ele>
        <time>2026-08-29T06:28:33Z</time>
      </trkpt>
      <trkpt lat="43.84223" lon="1.84476">
        <ele>150.85563</ele>
        <time>2026-08-29T06:28:34Z</time>
      </trkpt>
      <trkpt lat="43.84222" lon="1.84482">
        <ele>150.937</ele>
        <time>2026-08-29T06:28:35Z</time>
      </trkpt>
      <trkpt lat="43.84221" lon="1.8449">
        <ele>151.026112</ele>
        <time>2026-08-29T06:28:36Z</time>
      </trkpt>
      <trkpt lat="43.8422" lon="1.84498">
        <ele>151.106098</ele>
        <time>2026-08-29T06:28:37Z</time>
      </trkpt>
      <trkpt lat="43.84218" lon="1.84507">
        <ele>151.077898</ele>
        <time>2026-08-29T06:28:38Z</time>
      </trkpt>
      <trkpt lat="43.84217" lon="1.84516">
        <ele>151.048069</ele>
        <time>2026-08-29T06:28:39Z</time>
      </trkpt>
      <trkpt lat="43.84215" lon="1.84526">
        <ele>151.016977</ele>
        <time>2026-08-29T06:28:40Z</time>
      </trkpt>
      <trkpt lat="43.84213" lon="1.84535">
        <ele>150.986429</ele>
        <time>2026-08-29T06:28:41Z</time>
      </trkpt>
      <trkpt lat="43.84211" lon="1.84544">
        <ele>150.956783</ele>
        <time>2026-08-29T06:28:42Z</time>
      </trkpt>
      <trkpt lat="43.84208" lon="1.84553">
        <ele>150.927199</ele>
        <time>2026-08-29T06:28:43Z</time>
      </trkpt>
      <trkpt lat="43.84206" lon="1.84562">
        <ele>150.898927</ele>
        <time>2026-08-29T06:28:44Z</time>
      </trkpt>
      <trkpt lat="43.84203" lon="1.8457">
        <ele>150.87061</ele>
        <time>2026-08-29T06:28:45Z</time>
      </trkpt>
      <trkpt lat="43.84201" lon="1.84578">
        <ele>150.844241</ele>
        <time>2026-08-29T06:28:46Z</time>
      </trkpt>
      <trkpt lat="43.84199" lon="1.84585">
        <ele>150.819219</ele>
        <time>2026-08-29T06:28:47Z</time>
      </trkpt>
      <trkpt lat="43.84197" lon="1.84593">
        <ele>150.794049</ele>
        <time>2026-08-29T06:28:48Z</time>
      </trkpt>
      <trkpt lat="43.84195" lon="1.84601">
        <ele>150.767841</ele>
        <time>2026-08-29T06:28:49Z</time>
      </trkpt>
      <trkpt lat="43.84193" lon="1.84608">
        <ele>150.741641</ele>
        <time>2026-08-29T06:28:50Z</time>
      </trkpt>
      <trkpt lat="43.84191" lon="1.84616">
        <ele>150.717636</ele>
        <time>2026-08-29T06:28:51Z</time>
      </trkpt>
      <trkpt lat="43.8419" lon="1.84623">
        <ele>150.692902</ele>
        <time>2026-08-29T06:28:52Z</time>
      </trkpt>
      <trkpt lat="43.84188" lon="1.84631">
        <ele>150.668727</ele>
        <time>2026-08-29T06:28:53Z</time>
      </trkpt>
      <trkpt lat="43.84187" lon="1.84638">
        <ele>150.644485</ele>
        <time>2026-08-29T06:28:54Z</time>
      </trkpt>
      <trkpt lat="43.84185" lon="1.84645">
        <ele>150.621454</ele>
        <time>2026-08-29T06:28:55Z</time>
      </trkpt>
      <trkpt lat="43.84185" lon="1.84653">
        <ele>150.598658</ele>
        <time>2026-08-29T06:28:56Z</time>
      </trkpt>
      <trkpt lat="43.84184" lon="1.8466">
        <ele>150.575924</ele>
        <time>2026-08-29T06:28:57Z</time>
      </trkpt>
      <trkpt lat="43.84183" lon="1.84667">
        <ele>150.552259</ele>
        <time>2026-08-29T06:28:58Z</time>
      </trkpt>
      <trkpt lat="43.84183" lon="1.84675">
        <ele>150.528472</ele>
        <time>2026-08-29T06:28:59Z</time>
      </trkpt>
      <trkpt lat="43.84184" lon="1.84682">
        <ele>150.505481</ele>
        <time>2026-08-29T06:29:00Z</time>
      </trkpt>
      <trkpt lat="43.84185" lon="1.8469">
        <ele>150.481747</ele>
        <time>2026-08-29T06:29:01Z</time>
      </trkpt>
      <trkpt lat="43.84187" lon="1.84697">
        <ele>150.457146</ele>
        <time>2026-08-29T06:29:02Z</time>
      </trkpt>
      <trkpt lat="43.84189" lon="1.84705">
        <ele>150.432114</ele>
        <time>2026-08-29T06:29:03Z</time>
      </trkpt>
      <trkpt lat="43.84191" lon="1.84712">
        <ele>150.406504</ele>
        <time>2026-08-29T06:29:04Z</time>
      </trkpt>
      <trkpt lat="43.84193" lon="1.8472">
        <ele>150.380451</ele>
        <time>2026-08-29T06:29:05Z</time>
      </trkpt>
      <trkpt lat="43.84195" lon="1.84728">
        <ele>150.354534</ele>
        <time>2026-08-29T06:29:06Z</time>
      </trkpt>
      <trkpt lat="43.84197" lon="1.84735">
        <ele>150.329602</ele>
        <time>2026-08-29T06:29:07Z</time>
      </trkpt>
      <trkpt lat="43.84199" lon="1.84743">
        <ele>150.31884</ele>
        <time>2026-08-29T06:29:08Z</time>
      </trkpt>
      <trkpt lat="43.84202" lon="1.8475">
        <ele>150.307771</ele>
        <time>2026-08-29T06:29:09Z</time>
      </trkpt>
      <trkpt lat="43.84204" lon="1.84758">
        <ele>150.296368</ele>
        <time>2026-08-29T06:29:10Z</time>
      </trkpt>
      <trkpt lat="43.84206" lon="1.84766">
        <ele>150.285089</ele>
        <time>2026-08-29T06:29:11Z</time>
      </trkpt>
      <trkpt lat="43.84209" lon="1.84774">
        <ele>150.273735</ele>
        <time>2026-08-29T06:29:12Z</time>
      </trkpt>
      <trkpt lat="43.84211" lon="1.84781">
        <ele>150.262598</ele>
        <time>2026-08-29T06:29:13Z</time>
      </trkpt>
      <trkpt lat="43.84213" lon="1.84789">
        <ele>150.251654</ele>
        <time>2026-08-29T06:29:14Z</time>
      </trkpt>
      <trkpt lat="43.84215" lon="1.84796">
        <ele>150.240711</ele>
        <time>2026-08-29T06:29:15Z</time>
      </trkpt>
      <trkpt lat="43.84217" lon="1.84804">
        <ele>150.229641</ele>
        <time>2026-08-29T06:29:16Z</time>
      </trkpt>
      <trkpt lat="43.84219" lon="1.84812">
        <ele>150.218443</ele>
        <time>2026-08-29T06:29:17Z</time>
      </trkpt>
      <trkpt lat="43.84221" lon="1.8482">
        <ele>150.207246</ele>
        <time>2026-08-29T06:29:18Z</time>
      </trkpt>
      <trkpt lat="43.84223" lon="1.84828">
        <ele>150.196557</ele>
        <time>2026-08-29T06:29:19Z</time>
      </trkpt>
      <trkpt lat="43.84225" lon="1.84835">
        <ele>150.185673</ele>
        <time>2026-08-29T06:29:20Z</time>
      </trkpt>
      <trkpt lat="43.84226" lon="1.84843">
        <ele>150.174917</ele>
        <time>2026-08-29T06:29:21Z</time>
      </trkpt>
      <trkpt lat="43.84228" lon="1.8485">
        <ele>150.164161</ele>
        <time>2026-08-29T06:29:22Z</time>
      </trkpt>
      <trkpt lat="43.8423" lon="1.84858">
        <ele>150.152776</ele>
        <time>2026-08-29T06:29:23Z</time>
      </trkpt>
      <trkpt lat="43.84232" lon="1.84866">
        <ele>150.141514</ele>
        <time>2026-08-29T06:29:24Z</time>
      </trkpt>
      <trkpt lat="43.84235" lon="1.84874">
        <ele>150.130358</ele>
        <time>2026-08-29T06:29:25Z</time>
      </trkpt>
      <trkpt lat="43.84237" lon="1.84882">
        <ele>150.118956</ele>
        <time>2026-08-29T06:29:26Z</time>
      </trkpt>
      <trkpt lat="43.8424" lon="1.8489">
        <ele>150.107375</ele>
        <time>2026-08-29T06:29:27Z</time>
      </trkpt>
      <trkpt lat="43.84242" lon="1.84898">
        <ele>150.095863</ele>
        <time>2026-08-29T06:29:28Z</time>
      </trkpt>
      <trkpt lat="43.84244" lon="1.84906">
        <ele>150.084283</ele>
        <time>2026-08-29T06:29:29Z</time>
      </trkpt>
      <trkpt lat="43.84246" lon="1.84914">
        <ele>150.072962</ele>
        <time>2026-08-29T06:29:30Z</time>
      </trkpt>
      <trkpt lat="43.84248" lon="1.84922">
        <ele>150.061509</ele>
        <time>2026-08-29T06:29:31Z</time>
      </trkpt>
      <trkpt lat="43.8425" lon="1.8493">
        <ele>150.050369</ele>
        <time>2026-08-29T06:29:32Z</time>
      </trkpt>
      <trkpt lat="43.84252" lon="1.84938">
        <ele>150.038916</ele>
        <time>2026-08-29T06:29:33Z</time>
      </trkpt>
      <trkpt lat="43.84254" lon="1.84945">
        <ele>150.028164</ele>
        <time>2026-08-29T06:29:34Z</time>
      </trkpt>
      <trkpt lat="43.84256" lon="1.84953">
        <ele>150.016966</ele>
        <time>2026-08-29T06:29:35Z</time>
      </trkpt>
      <trkpt lat="43.84258" lon="1.84961">
        <ele>150.005705</ele>
        <time>2026-08-29T06:29:36Z</time>
      </trkpt>
      <trkpt lat="43.8426" lon="1.84969">
        <ele>149.992962</ele>
        <time>2026-08-29T06:29:37Z</time>
      </trkpt>
      <trkpt lat="43.84262" lon="1.84977">
        <ele>149.944006</ele>
        <time>2026-08-29T06:29:38Z</time>
      </trkpt>
      <trkpt lat="43.84264" lon="1.84985">
        <ele>149.893965</ele>
        <time>2026-08-29T06:29:39Z</time>
      </trkpt>
      <trkpt lat="43.84267" lon="1.84994">
        <ele>149.842602</ele>
        <time>2026-08-29T06:29:40Z</time>
      </trkpt>
      <trkpt lat="43.84269" lon="1.85002">
        <ele>149.791499</ele>
        <time>2026-08-29T06:29:41Z</time>
      </trkpt>
      <trkpt lat="43.84271" lon="1.85011">
        <ele>149.739331</ele>
        <time>2026-08-29T06:29:42Z</time>
      </trkpt>
      <trkpt lat="43.84273" lon="1.8502">
        <ele>149.686359</ele>
        <time>2026-08-29T06:29:43Z</time>
      </trkpt>
      <trkpt lat="43.84276" lon="1.85029">
        <ele>149.632052</ele>
        <time>2026-08-29T06:29:44Z</time>
      </trkpt>
      <trkpt lat="43.84278" lon="1.85038">
        <ele>149.578004</ele>
        <time>2026-08-29T06:29:45Z</time>
      </trkpt>
      <trkpt lat="43.8428" lon="1.85047">
        <ele>149.523697</ele>
        <time>2026-08-29T06:29:46Z</time>
      </trkpt>
      <trkpt lat="43.84283" lon="1.85055">
        <ele>149.470719</ele>
        <time>2026-08-29T06:29:47Z</time>
      </trkpt>
      <trkpt lat="43.84285" lon="1.85064">
        <ele>149.417484</ele>
        <time>2026-08-29T06:29:48Z</time>
      </trkpt>
      <trkpt lat="43.84287" lon="1.85073">
        <ele>149.365304</ele>
        <time>2026-08-29T06:29:49Z</time>
      </trkpt>
      <trkpt lat="43.84289" lon="1.85082">
        <ele>149.311256</ele>
        <time>2026-08-29T06:29:50Z</time>
      </trkpt>
      <trkpt lat="43.84291" lon="1.85091">
        <ele>149.256129</ele>
        <time>2026-08-29T06:29:51Z</time>
      </trkpt>
      <trkpt lat="43.84294" lon="1.851">
        <ele>149.202619</ele>
        <time>2026-08-29T06:29:52Z</time>
      </trkpt>
      <trkpt lat="43.84296" lon="1.85108">
        <ele>149.150451</ele>
        <time>2026-08-29T06:29:53Z</time>
      </trkpt>
      <trkpt lat="43.84298" lon="1.85117">
        <ele>149.098272</ele>
        <time>2026-08-29T06:29:54Z</time>
      </trkpt>
      <trkpt lat="43.843" lon="1.85126">
        <ele>149.047708</ele>
        <time>2026-08-29T06:29:55Z</time>
      </trkpt>
      <trkpt lat="43.84302" lon="1.85134">
        <ele>148.996073</ele>
        <time>2026-08-29T06:29:56Z</time>
      </trkpt>
      <trkpt lat="43.84304" lon="1.85142">
        <ele>148.946046</ele>
        <time>2026-08-29T06:29:57Z</time>
      </trkpt>
      <trkpt lat="43.84306" lon="1.85151">
        <ele>148.896813</ele>
        <time>2026-08-29T06:29:58Z</time>
      </trkpt>
      <trkpt lat="43.84308" lon="1.85159">
        <ele>148.846973</ele>
        <time>2026-08-29T06:29:59Z</time>
      </trkpt>
      <trkpt lat="43.8431" lon="1.85167">
        <ele>148.796904</ele>
        <time>2026-08-29T06:30:00Z</time>
      </trkpt>
      <trkpt lat="43.84312" lon="1.85176">
        <ele>148.745203</ele>
        <time>2026-08-29T06:30:01Z</time>
      </trkpt>
      <trkpt lat="43.84314" lon="1.85184">
        <ele>148.694375</ele>
        <time>2026-08-29T06:30:02Z</time>
      </trkpt>
      <trkpt lat="43.84316" lon="1.85193">
        <ele>148.645625</ele>
        <time>2026-08-29T06:30:03Z</time>
      </trkpt>
      <trkpt lat="43.84318" lon="1.85201">
        <ele>148.596931</ele>
        <time>2026-08-29T06:30:04Z</time>
      </trkpt>
      <trkpt lat="43.8432" lon="1.85209">
        <ele>148.617878</ele>
        <time>2026-08-29T06:30:05Z</time>
      </trkpt>
      <trkpt lat="43.84322" lon="1.85217">
        <ele>148.690668</ele>
        <time>2026-08-29T06:30:06Z</time>
      </trkpt>
      <trkpt lat="43.84324" lon="1.85225">
        <ele>148.764271</ele>
        <time>2026-08-29T06:30:07Z</time>
      </trkpt>
      <trkpt lat="43.84326" lon="1.85233">
        <ele>148.835049</ele>
        <time>2026-08-29T06:30:08Z</time>
      </trkpt>
      <trkpt lat="43.84328" lon="1.8524">
        <ele>148.904599</ele>
        <time>2026-08-29T06:30:09Z</time>
      </trkpt>
      <trkpt lat="43.8433" lon="1.85248">
        <ele>148.972164</ele>
        <time>2026-08-29T06:30:10Z</time>
      </trkpt>
      <trkpt lat="43.84332" lon="1.85255">
        <ele>149.038932</ele>
        <time>2026-08-29T06:30:11Z</time>
      </trkpt>
      <trkpt lat="43.84334" lon="1.85262">
        <ele>149.1057</ele>
        <time>2026-08-29T06:30:12Z</time>
      </trkpt>
      <trkpt lat="43.84336" lon="1.85269">
        <ele>149.173265</ele>
        <time>2026-08-29T06:30:13Z</time>
      </trkpt>
      <trkpt lat="43.84338" lon="1.85277">
        <ele>149.240489</ele>
        <time>2026-08-29T06:30:14Z</time>
      </trkpt>
      <trkpt lat="43.84341" lon="1.85284">
        <ele>149.310242</ele>
        <time>2026-08-29T06:30:15Z</time>
      </trkpt>
      <trkpt lat="43.84343" lon="1.85292">
        <ele>149.383483</ele>
        <time>2026-08-29T06:30:16Z</time>
      </trkpt>
      <trkpt lat="43.84346" lon="1.853">
        <ele>149.46081</ele>
        <time>2026-08-29T06:30:17Z</time>
      </trkpt>
      <trkpt lat="43.84348" lon="1.85308">
        <ele>149.533612</ele>
        <time>2026-08-29T06:30:18Z</time>
      </trkpt>
      <trkpt lat="43.8435" lon="1.85316">
        <ele>149.604813</ele>
        <time>2026-08-29T06:30:19Z</time>
      </trkpt>
      <trkpt lat="43.84352" lon="1.85324">
        <ele>149.676815</ele>
        <time>2026-08-29T06:30:20Z</time>
      </trkpt>
      <trkpt lat="43.84355" lon="1.85331">
        <ele>149.745299</ele>
        <time>2026-08-29T06:30:21Z</time>
      </trkpt>
      <trkpt lat="43.84357" lon="1.85338">
        <ele>149.812864</ele>
        <time>2026-08-29T06:30:22Z</time>
      </trkpt>
      <trkpt lat="43.84359" lon="1.85345">
        <ele>149.880088</ele>
        <time>2026-08-29T06:30:23Z</time>
      </trkpt>
      <trkpt lat="43.84361" lon="1.85353">
        <ele>149.946855</ele>
        <time>2026-08-29T06:30:24Z</time>
      </trkpt>
      <trkpt lat="43.84363" lon="1.8536">
        <ele>150.013988</ele>
        <time>2026-08-29T06:30:25Z</time>
      </trkpt>
      <trkpt lat="43.84365" lon="1.85367">
        <ele>150.082352</ele>
        <time>2026-08-29T06:30:26Z</time>
      </trkpt>
      <trkpt lat="43.84367" lon="1.85374">
        <ele>150.148682</ele>
        <time>2026-08-29T06:30:27Z</time>
      </trkpt>
      <trkpt lat="43.84369" lon="1.85382">
        <ele>150.214193</ele>
        <time>2026-08-29T06:30:28Z</time>
      </trkpt>
      <trkpt lat="43.84371" lon="1.85389">
        <ele>150.280911</ele>
        <time>2026-08-29T06:30:29Z</time>
      </trkpt>
      <trkpt lat="43.84373" lon="1.85396">
        <ele>150.348044</ele>
        <time>2026-08-29T06:30:30Z</time>
      </trkpt>
      <trkpt lat="43.84375" lon="1.85404">
        <ele>150.415177</ele>
        <time>2026-08-29T06:30:31Z</time>
      </trkpt>
      <trkpt lat="43.84377" lon="1.85411">
        <ele>150.482309</ele>
        <time>2026-08-29T06:30:32Z</time>
      </trkpt>
      <trkpt lat="43.84379" lon="1.85418">
        <ele>150.550262</ele>
        <time>2026-08-29T06:30:33Z</time>
      </trkpt>
      <trkpt lat="43.8438" lon="1.85426">
        <ele>150.615772</ele>
        <time>2026-08-29T06:30:34Z</time>
      </trkpt>
      <trkpt lat="43.84382" lon="1.85433">
        <ele>150.680086</ele>
        <time>2026-08-29T06:30:35Z</time>
      </trkpt>
      <trkpt lat="43.84384" lon="1.8544">
        <ele>150.732687</ele>
        <time>2026-08-29T06:30:36Z</time>
      </trkpt>
      <trkpt lat="43.84386" lon="1.85447">
        <ele>150.763168</ele>
        <time>2026-08-29T06:30:37Z</time>
      </trkpt>
      <trkpt lat="43.84388" lon="1.85454">
        <ele>150.79477</ele>
        <time>2026-08-29T06:30:38Z</time>
      </trkpt>
      <trkpt lat="43.8439" lon="1.85462">
        <ele>150.826571</ele>
        <time>2026-08-29T06:30:39Z</time>
      </trkpt>
      <trkpt lat="43.84392" lon="1.85469">
        <ele>150.858172</ele>
        <time>2026-08-29T06:30:40Z</time>
      </trkpt>
      <trkpt lat="43.84394" lon="1.85477">
        <ele>150.89055</ele>
        <time>2026-08-29T06:30:41Z</time>
      </trkpt>
      <trkpt lat="43.84397" lon="1.85484">
        <ele>150.923509</ele>
        <time>2026-08-29T06:30:42Z</time>
      </trkpt>
      <trkpt lat="43.84399" lon="1.85492">
        <ele>150.955887</ele>
        <time>2026-08-29T06:30:43Z</time>
      </trkpt>
      <trkpt lat="43.84401" lon="1.85499">
        <ele>150.987688</ele>
        <time>2026-08-29T06:30:44Z</time>
      </trkpt>
      <trkpt lat="43.84403" lon="1.85506">
        <ele>151.018375</ele>
        <time>2026-08-29T06:30:45Z</time>
      </trkpt>
      <trkpt lat="43.84405" lon="1.85514">
        <ele>151.050231</ele>
        <time>2026-08-29T06:30:46Z</time>
      </trkpt>
      <trkpt lat="43.84408" lon="1.85521">
        <ele>151.081356</ele>
        <time>2026-08-29T06:30:47Z</time>
      </trkpt>
      <trkpt lat="43.8441" lon="1.85528">
        <ele>151.111094</ele>
        <time>2026-08-29T06:30:48Z</time>
      </trkpt>
      <trkpt lat="43.84412" lon="1.85535">
        <ele>151.142894</ele>
        <time>2026-08-29T06:30:49Z</time>
      </trkpt>
      <trkpt lat="43.84414" lon="1.85542">
        <ele>151.174695</ele>
        <time>2026-08-29T06:30:50Z</time>
      </trkpt>
      <trkpt lat="43.84416" lon="1.85549">
        <ele>151.205012</ele>
        <time>2026-08-29T06:30:51Z</time>
      </trkpt>
      <trkpt lat="43.84418" lon="1.85556">
        <ele>151.235121</ele>
        <time>2026-08-29T06:30:52Z</time>
      </trkpt>
      <trkpt lat="43.8442" lon="1.85563">
        <ele>151.26523</ele>
        <time>2026-08-29T06:30:53Z</time>
      </trkpt>
      <trkpt lat="43.84422" lon="1.85571">
        <ele>151.296132</ele>
        <time>2026-08-29T06:30:54Z</time>
      </trkpt>
      <trkpt lat="43.84424" lon="1.85578">
        <ele>151.327622</ele>
        <time>2026-08-29T06:30:55Z</time>
      </trkpt>
      <trkpt lat="43.84427" lon="1.85585">
        <ele>151.360168</ele>
        <time>2026-08-29T06:30:56Z</time>
      </trkpt>
      <trkpt lat="43.84429" lon="1.85593">
        <ele>151.392896</ele>
        <time>2026-08-29T06:30:57Z</time>
      </trkpt>
      <trkpt lat="43.84431" lon="1.85601">
        <ele>151.425069</ele>
        <time>2026-08-29T06:30:58Z</time>
      </trkpt>
      <trkpt lat="43.84433" lon="1.85608">
        <ele>151.457659</ele>
        <time>2026-08-29T06:30:59Z</time>
      </trkpt>
      <trkpt lat="43.84435" lon="1.85616">
        <ele>151.490011</ele>
        <time>2026-08-29T06:31:00Z</time>
      </trkpt>
      <trkpt lat="43.84437" lon="1.85623">
        <ele>151.522177</ele>
        <time>2026-08-29T06:31:01Z</time>
      </trkpt>
      <trkpt lat="43.84439" lon="1.85631">
        <ele>151.554184</ele>
        <time>2026-08-29T06:31:02Z</time>
      </trkpt>
      <trkpt lat="43.84441" lon="1.85638">
        <ele>151.585674</ele>
        <time>2026-08-29T06:31:03Z</time>
      </trkpt>
      <trkpt lat="43.84444" lon="1.85645">
        <ele>151.617682</ele>
        <time>2026-08-29T06:31:04Z</time>
      </trkpt>
      <trkpt lat="43.84446" lon="1.85653">
        <ele>151.650228</ele>
        <time>2026-08-29T06:31:05Z</time>
      </trkpt>
      <trkpt lat="43.84448" lon="1.8566">
        <ele>151.682773</ele>
        <time>2026-08-29T06:31:06Z</time>
      </trkpt>
      <trkpt lat="43.8445" lon="1.85668">
        <ele>151.714781</ele>
        <time>2026-08-29T06:31:07Z</time>
      </trkpt>
      <trkpt lat="43.84452" lon="1.85675">
        <ele>151.702291</ele>
        <time>2026-08-29T06:31:08Z</time>
      </trkpt>
      <trkpt lat="43.84454" lon="1.85683">
        <ele>151.686155</ele>
        <time>2026-08-29T06:31:09Z</time>
      </trkpt>
      <trkpt lat="43.84457" lon="1.8569">
        <ele>151.670391</ele>
        <time>2026-08-29T06:31:10Z</time>
      </trkpt>
      <trkpt lat="43.84459" lon="1.85697">
        <ele>151.654401</ele>
        <time>2026-08-29T06:31:11Z</time>
      </trkpt>
      <trkpt lat="43.84461" lon="1.85704">
        <ele>151.638893</ele>
        <time>2026-08-29T06:31:12Z</time>
      </trkpt>
      <trkpt lat="43.84464" lon="1.85711">
        <ele>151.622784</ele>
        <time>2026-08-29T06:31:13Z</time>
      </trkpt>
      <trkpt lat="43.84466" lon="1.85719">
        <ele>151.60702</ele>
        <time>2026-08-29T06:31:14Z</time>
      </trkpt>
      <trkpt lat="43.84468" lon="1.85726">
        <ele>151.590884</ele>
        <time>2026-08-29T06:31:15Z</time>
      </trkpt>
      <trkpt lat="43.8447" lon="1.85734">
        <ele>151.574082</ele>
        <time>2026-08-29T06:31:16Z</time>
      </trkpt>
      <trkpt lat="43.84473" lon="1.85741">
        <ele>151.557386</ele>
        <time>2026-08-29T06:31:17Z</time>
      </trkpt>
      <trkpt lat="43.84475" lon="1.85749">
        <ele>151.540024</ele>
        <time>2026-08-29T06:31:18Z</time>
      </trkpt>
      <trkpt lat="43.84477" lon="1.85757">
        <ele>151.52237</ele>
        <time>2026-08-29T06:31:19Z</time>
      </trkpt>
      <trkpt lat="43.8448" lon="1.85765">
        <ele>151.505195</ele>
        <time>2026-08-29T06:31:20Z</time>
      </trkpt>
      <trkpt lat="43.84482" lon="1.85773">
        <ele>151.487728</ele>
        <time>2026-08-29T06:31:21Z</time>
      </trkpt>
      <trkpt lat="43.84484" lon="1.85781">
        <ele>151.470179</ele>
        <time>2026-08-29T06:31:22Z</time>
      </trkpt>
      <trkpt lat="43.84487" lon="1.85789">
        <ele>151.452711</ele>
        <time>2026-08-29T06:31:23Z</time>
      </trkpt>
      <trkpt lat="43.84489" lon="1.85798">
        <ele>151.434974</ele>
        <time>2026-08-29T06:31:24Z</time>
      </trkpt>
      <trkpt lat="43.84491" lon="1.85806">
        <ele>151.417237</ele>
        <time>2026-08-29T06:31:25Z</time>
      </trkpt>
      <trkpt lat="43.84494" lon="1.85814">
        <ele>151.399688</ele>
        <time>2026-08-29T06:31:26Z</time>
      </trkpt>
      <trkpt lat="43.84496" lon="1.85822">
        <ele>151.382035</ele>
        <time>2026-08-29T06:31:27Z</time>
      </trkpt>
      <trkpt lat="43.84499" lon="1.8583">
        <ele>151.363977</ele>
        <time>2026-08-29T06:31:28Z</time>
      </trkpt>
      <trkpt lat="43.84501" lon="1.85838">
        <ele>151.346323</ele>
        <time>2026-08-29T06:31:29Z</time>
      </trkpt>
      <trkpt lat="43.84503" lon="1.85846">
        <ele>151.328856</ele>
        <time>2026-08-29T06:31:30Z</time>
      </trkpt>
      <trkpt lat="43.84506" lon="1.85854">
        <ele>151.311574</ele>
        <time>2026-08-29T06:31:31Z</time>
      </trkpt>
      <trkpt lat="43.84508" lon="1.85862">
        <ele>151.294107</ele>
        <time>2026-08-29T06:31:32Z</time>
      </trkpt>
      <trkpt lat="43.84511" lon="1.8587">
        <ele>151.276454</ele>
        <time>2026-08-29T06:31:33Z</time>
      </trkpt>
      <trkpt lat="43.84513" lon="1.85878">
        <ele>151.259092</ele>
        <time>2026-08-29T06:31:34Z</time>
      </trkpt>
      <trkpt lat="43.84515" lon="1.85886">
        <ele>151.241811</ele>
        <time>2026-08-29T06:31:35Z</time>
      </trkpt>
      <trkpt lat="43.84518" lon="1.85894">
        <ele>151.224823</ele>
        <time>2026-08-29T06:31:36Z</time>
      </trkpt>
      <trkpt lat="43.8452" lon="1.85902">
        <ele>151.198357</ele>
        <time>2026-08-29T06:31:37Z</time>
      </trkpt>
      <trkpt lat="43.84522" lon="1.8591">
        <ele>151.158071</ele>
        <time>2026-08-29T06:31:38Z</time>
      </trkpt>
      <trkpt lat="43.84525" lon="1.85919">
        <ele>151.118431</ele>
        <time>2026-08-29T06:31:39Z</time>
      </trkpt>
      <trkpt lat="43.84527" lon="1.85927">
        <ele>151.078144</ele>
        <time>2026-08-29T06:31:40Z</time>
      </trkpt>
      <trkpt lat="43.84529" lon="1.85935">
        <ele>151.038281</ele>
        <time>2026-08-29T06:31:41Z</time>
      </trkpt>
      <trkpt lat="43.84531" lon="1.85943">
        <ele>151.000134</ele>
        <time>2026-08-29T06:31:42Z</time>
      </trkpt>
      <trkpt lat="43.84534" lon="1.85951">
        <ele>150.961534</ele>
        <time>2026-08-29T06:31:43Z</time>
      </trkpt>
      <trkpt lat="43.84536" lon="1.85959">
        <ele>150.921858</ele>
        <time>2026-08-29T06:31:44Z</time>
      </trkpt>
      <trkpt lat="43.84538" lon="1.85967">
        <ele>150.883185</ele>
        <time>2026-08-29T06:31:45Z</time>
      </trkpt>
      <trkpt lat="43.84541" lon="1.85975">
        <ele>150.844345</ele>
        <time>2026-08-29T06:31:46Z</time>
      </trkpt>
      <trkpt lat="43.84543" lon="1.85983">
        <ele>150.805976</ele>
        <time>2026-08-29T06:31:47Z</time>
      </trkpt>
      <trkpt lat="43.84545" lon="1.8599">
        <ele>150.767796</ele>
        <time>2026-08-29T06:31:48Z</time>
      </trkpt>
      <trkpt lat="43.84548" lon="1.85998">
        <ele>150.728539</ele>
        <time>2026-08-29T06:31:49Z</time>
      </trkpt>
      <trkpt lat="43.8455" lon="1.86006">
        <ele>150.689451</ele>
        <time>2026-08-29T06:31:50Z</time>
      </trkpt>
      <trkpt lat="43.84553" lon="1.86014">
        <ele>150.649776</ele>
        <time>2026-08-29T06:31:51Z</time>
      </trkpt>
      <trkpt lat="43.84555" lon="1.86022">
        <ele>150.610936</ele>
        <time>2026-08-29T06:31:52Z</time>
      </trkpt>
      <trkpt lat="43.84558" lon="1.8603">
        <ele>150.570352</ele>
        <time>2026-08-29T06:31:53Z</time>
      </trkpt>
      <trkpt lat="43.8456" lon="1.86039">
        <ele>150.530676</ele>
        <time>2026-08-29T06:31:54Z</time>
      </trkpt>
      <trkpt lat="43.84563" lon="1.86047">
        <ele>150.489504</ele>
        <time>2026-08-29T06:31:55Z</time>
      </trkpt>
      <trkpt lat="43.84565" lon="1.86056">
        <ele>150.446591</ele>
        <time>2026-08-29T06:31:56Z</time>
      </trkpt>
      <trkpt lat="43.84568" lon="1.86064">
        <ele>150.405592</ele>
        <time>2026-08-29T06:31:57Z</time>
      </trkpt>
      <trkpt lat="43.84571" lon="1.86072">
        <ele>150.364338</ele>
        <time>2026-08-29T06:31:58Z</time>
      </trkpt>
      <trkpt lat="43.84573" lon="1.8608">
        <ele>150.323497</ele>
        <time>2026-08-29T06:31:59Z</time>
      </trkpt>
      <trkpt lat="43.84576" lon="1.86089">
        <ele>150.282243</ele>
        <time>2026-08-29T06:32:00Z</time>
      </trkpt>
      <trkpt lat="43.84579" lon="1.86097">
        <ele>150.23933</ele>
        <time>2026-08-29T06:32:01Z</time>
      </trkpt>
      <trkpt lat="43.84581" lon="1.86106">
        <ele>150.197319</ele>
        <time>2026-08-29T06:32:02Z</time>
      </trkpt>
      <trkpt lat="43.84584" lon="1.86114">
        <ele>150.156066</ele>
        <time>2026-08-29T06:32:03Z</time>
      </trkpt>
      <trkpt lat="43.84587" lon="1.86122">
        <ele>150.115636</ele>
        <time>2026-08-29T06:32:04Z</time>
      </trkpt>
      <trkpt lat="43.84589" lon="1.86131">
        <ele>150.082126</ele>
        <time>2026-08-29T06:32:05Z</time>
      </trkpt>
      <trkpt lat="43.84592" lon="1.86139">
        <ele>150.072172</ele>
        <time>2026-08-29T06:32:06Z</time>
      </trkpt>
      <trkpt lat="43.84595" lon="1.86147">
        <ele>150.062419</ele>
        <time>2026-08-29T06:32:07Z</time>
      </trkpt>
      <trkpt lat="43.84597" lon="1.86155">
        <ele>150.052931</ele>
        <time>2026-08-29T06:32:08Z</time>
      </trkpt>
      <trkpt lat="43.846" lon="1.86163">
        <ele>150.043303</ele>
        <time>2026-08-29T06:32:09Z</time>
      </trkpt>
      <trkpt lat="43.84602" lon="1.86171">
        <ele>150.03355</ele>
        <time>2026-08-29T06:32:10Z</time>
      </trkpt>
      <trkpt lat="43.84605" lon="1.86179">
        <ele>150.023659</ele>
        <time>2026-08-29T06:32:11Z</time>
      </trkpt>
      <trkpt lat="43.84608" lon="1.86187">
        <ele>150.013727</ele>
        <time>2026-08-29T06:32:12Z</time>
      </trkpt>
      <trkpt lat="43.8461" lon="1.86196">
        <ele>150.003795</ele>
        <time>2026-08-29T06:32:13Z</time>
      </trkpt>
      <trkpt lat="43.84613" lon="1.86204">
        <ele>149.994005</ele>
        <time>2026-08-29T06:32:14Z</time>
      </trkpt>
      <trkpt lat="43.84615" lon="1.86212">
        <ele>149.984447</ele>
        <time>2026-08-29T06:32:15Z</time>
      </trkpt>
      <trkpt lat="43.84617" lon="1.8622">
        <ele>149.974732</ele>
        <time>2026-08-29T06:32:16Z</time>
      </trkpt>
      <trkpt lat="43.84619" lon="1.86228">
        <ele>149.965529</ele>
        <time>2026-08-29T06:32:17Z</time>
      </trkpt>
      <trkpt lat="43.84622" lon="1.86236">
        <ele>149.956178</ele>
        <time>2026-08-29T06:32:18Z</time>
      </trkpt>
      <trkpt lat="43.84624" lon="1.86244">
        <ele>149.946674</ele>
        <time>2026-08-29T06:32:19Z</time>
      </trkpt>
      <trkpt lat="43.84626" lon="1.86252">
        <ele>149.937273</ele>
        <time>2026-08-29T06:32:20Z</time>
      </trkpt>
      <trkpt lat="43.84628" lon="1.8626">
        <ele>149.927868</ele>
        <time>2026-08-29T06:32:21Z</time>
      </trkpt>
      <trkpt lat="43.8463" lon="1.86268">
        <ele>149.91831</ele>
        <time>2026-08-29T06:32:22Z</time>
      </trkpt>
      <trkpt lat="43.84632" lon="1.86276">
        <ele>149.908647</ele>
        <time>2026-08-29T06:32:23Z</time>
      </trkpt>
      <trkpt lat="43.84634" lon="1.86285">
        <ele>149.898984</ele>
        <time>2026-08-29T06:32:24Z</time>
      </trkpt>
      <trkpt lat="43.84636" lon="1.86293">
        <ele>149.889634</ele>
        <time>2026-08-29T06:32:25Z</time>
      </trkpt>
      <trkpt lat="43.84638" lon="1.863">
        <ele>149.880544</ele>
        <time>2026-08-29T06:32:26Z</time>
      </trkpt>
      <trkpt lat="43.8464" lon="1.86308">
        <ele>149.871296</ele>
        <time>2026-08-29T06:32:27Z</time>
      </trkpt>
      <trkpt lat="43.84642" lon="1.86316">
        <ele>149.862309</ele>
        <time>2026-08-29T06:32:28Z</time>
      </trkpt>
      <trkpt lat="43.84644" lon="1.86323">
        <ele>149.853266</ele>
        <time>2026-08-29T06:32:29Z</time>
      </trkpt>
      <trkpt lat="43.84646" lon="1.86331">
        <ele>149.844021</ele>
        <time>2026-08-29T06:32:30Z</time>
      </trkpt>
      <trkpt lat="43.84648" lon="1.86339">
        <ele>149.834931</ele>
        <time>2026-08-29T06:32:31Z</time>
      </trkpt>
      <trkpt lat="43.8465" lon="1.86347">
        <ele>149.825531</ele>
        <time>2026-08-29T06:32:32Z</time>
      </trkpt>
      <trkpt lat="43.84652" lon="1.86355">
        <ele>149.815973</ele>
        <time>2026-08-29T06:32:33Z</time>
      </trkpt>
      <trkpt lat="43.84655" lon="1.86363">
        <ele>149.820457</ele>
        <time>2026-08-29T06:32:34Z</time>
      </trkpt>
      <trkpt lat="43.84657" lon="1.86372">
        <ele>149.857938</ele>
        <time>2026-08-29T06:32:35Z</time>
      </trkpt>
      <trkpt lat="43.84659" lon="1.8638">
        <ele>149.894624</ele>
        <time>2026-08-29T06:32:36Z</time>
      </trkpt>
      <trkpt lat="43.84661" lon="1.86387">
        <ele>149.928726</ele>
        <time>2026-08-29T06:32:37Z</time>
      </trkpt>
      <trkpt lat="43.84663" lon="1.86395">
        <ele>149.963044</ele>
        <time>2026-08-29T06:32:38Z</time>
      </trkpt>
      <trkpt lat="43.84665" lon="1.86402">
        <ele>149.996143</ele>
        <time>2026-08-29T06:32:39Z</time>
      </trkpt>
      <trkpt lat="43.84667" lon="1.8641">
        <ele>150.032038</ele>
        <time>2026-08-29T06:32:40Z</time>
      </trkpt>
      <trkpt lat="43.8467" lon="1.86418">
        <ele>150.067725</ele>
        <time>2026-08-29T06:32:41Z</time>
      </trkpt>
      <trkpt lat="43.84672" lon="1.86426">
        <ele>150.105017</ele>
        <time>2026-08-29T06:32:42Z</time>
      </trkpt>
      <trkpt lat="43.84674" lon="1.86434">
        <ele>150.1421</ele>
        <time>2026-08-29T06:32:43Z</time>
      </trkpt>
      <trkpt lat="43.84676" lon="1.86442">
        <ele>150.178983</ele>
        <time>2026-08-29T06:32:44Z</time>
      </trkpt>
      <trkpt lat="43.84678" lon="1.86451">
        <ele>150.217067</ele>
        <time>2026-08-29T06:32:45Z</time>
      </trkpt>
      <trkpt lat="43.84681" lon="1.86459">
        <ele>150.253753</ele>
        <time>2026-08-29T06:32:46Z</time>
      </trkpt>
      <trkpt lat="43.84683" lon="1.86467">
        <ele>150.290479</ele>
        <time>2026-08-29T06:32:47Z</time>
      </trkpt>
      <trkpt lat="43.84685" lon="1.86475">
        <ele>150.327771</ele>
        <time>2026-08-29T06:32:48Z</time>
      </trkpt>
      <trkpt lat="43.84688" lon="1.86483">
        <ele>150.365459</ele>
        <time>2026-08-29T06:32:49Z</time>
      </trkpt>
      <trkpt lat="43.8469" lon="1.86492">
        <ele>150.403038</ele>
        <time>2026-08-29T06:32:50Z</time>
      </trkpt>
      <trkpt lat="43.84693" lon="1.865">
        <ele>150.44086</ele>
        <time>2026-08-29T06:32:51Z</time>
      </trkpt>
      <trkpt lat="43.84695" lon="1.86508">
        <ele>150.479157</ele>
        <time>2026-08-29T06:32:52Z</time>
      </trkpt>
      <trkpt lat="43.84698" lon="1.86517">
        <ele>150.518242</ele>
        <time>2026-08-29T06:32:53Z</time>
      </trkpt>
      <trkpt lat="43.847" lon="1.86525">
        <ele>150.556919</ele>
        <time>2026-08-29T06:32:54Z</time>
      </trkpt>
      <trkpt lat="43.84702" lon="1.86533">
        <ele>150.592813</ele>
        <time>2026-08-29T06:32:55Z</time>
      </trkpt>
      <trkpt lat="43.84705" lon="1.86541">
        <ele>150.629148</ele>
        <time>2026-08-29T06:32:56Z</time>
      </trkpt>
      <trkpt lat="43.84707" lon="1.86549">
        <ele>150.664834</ele>
        <time>2026-08-29T06:32:57Z</time>
      </trkpt>
      <trkpt lat="43.84709" lon="1.86557">
        <ele>150.701717</ele>
        <time>2026-08-29T06:32:58Z</time>
      </trkpt>
      <trkpt lat="43.84711" lon="1.86565">
        <ele>150.73822</ele>
        <time>2026-08-29T06:32:59Z</time>
      </trkpt>
      <trkpt lat="43.84713" lon="1.86573">
        <ele>150.773154</ele>
        <time>2026-08-29T06:33:00Z</time>
      </trkpt>
      <trkpt lat="43.84716" lon="1.8658">
        <ele>150.806689</ele>
        <time>2026-08-29T06:33:01Z</time>
      </trkpt>
      <trkpt lat="43.84718" lon="1.86587">
        <ele>150.840615</ele>
        <time>2026-08-29T06:33:02Z</time>
      </trkpt>
      <trkpt lat="43.8472" lon="1.86595">
        <ele>150.876106</ele>
        <time>2026-08-29T06:33:03Z</time>
      </trkpt>
      <trkpt lat="43.84722" lon="1.86602">
        <ele>150.914659</ele>
        <time>2026-08-29T06:33:04Z</time>
      </trkpt>
      <trkpt lat="43.84724" lon="1.8661">
        <ele>150.954103</ele>
        <time>2026-08-29T06:33:05Z</time>
      </trkpt>
      <trkpt lat="43.84727" lon="1.86618">
        <ele>150.994692</ele>
        <time>2026-08-29T06:33:06Z</time>
      </trkpt>
      <trkpt lat="43.84729" lon="1.86626">
        <ele>151.034794</ele>
        <time>2026-08-29T06:33:07Z</time>
      </trkpt>
      <trkpt lat="43.84731" lon="1.86633">
        <ele>151.074214</ele>
        <time>2026-08-29T06:33:08Z</time>
      </trkpt>
      <trkpt lat="43.84733" lon="1.86641">
        <ele>151.114087</ele>
        <time>2026-08-29T06:33:09Z</time>
      </trkpt>
      <trkpt lat="43.84735" lon="1.86649">
        <ele>151.152838</ele>
        <time>2026-08-29T06:33:10Z</time>
      </trkpt>
      <trkpt lat="43.84737" lon="1.86656">
        <ele>151.192258</ele>
        <time>2026-08-29T06:33:11Z</time>
      </trkpt>
      <trkpt lat="43.84739" lon="1.86664">
        <ele>151.231256</ele>
        <time>2026-08-29T06:33:12Z</time>
      </trkpt>
      <trkpt lat="43.84741" lon="1.86671">
        <ele>151.269559</ele>
        <time>2026-08-29T06:33:13Z</time>
      </trkpt>
      <trkpt lat="43.84743" lon="1.86678">
        <ele>151.306967</ele>
        <time>2026-08-29T06:33:14Z</time>
      </trkpt>
      <trkpt lat="43.84745" lon="1.86686">
        <ele>151.34527</ele>
        <time>2026-08-29T06:33:15Z</time>
      </trkpt>
      <trkpt lat="43.84747" lon="1.86693">
        <ele>151.382678</ele>
        <time>2026-08-29T06:33:16Z</time>
      </trkpt>
      <trkpt lat="43.84749" lon="1.867">
        <ele>151.419392</ele>
        <time>2026-08-29T06:33:17Z</time>
      </trkpt>
      <trkpt lat="43.84752" lon="1.86707">
        <ele>151.457695</ele>
        <time>2026-08-29T06:33:18Z</time>
      </trkpt>
      <trkpt lat="43.84754" lon="1.86715">
        <ele>151.496209</ele>
        <time>2026-08-29T06:33:19Z</time>
      </trkpt>
      <trkpt lat="43.84755" lon="1.86722">
        <ele>151.534497</ele>
        <time>2026-08-29T06:33:20Z</time>
      </trkpt>
      <trkpt lat="43.84757" lon="1.8673">
        <ele>151.572332</ele>
        <time>2026-08-29T06:33:21Z</time>
      </trkpt>
      <trkpt lat="43.84759" lon="1.86738">
        <ele>151.61153</ele>
        <time>2026-08-29T06:33:22Z</time>
      </trkpt>
      <trkpt lat="43.84761" lon="1.86745">
        <ele>151.650273</ele>
        <time>2026-08-29T06:33:23Z</time>
      </trkpt>
      <trkpt lat="43.84763" lon="1.86753">
        <ele>151.690146</ele>
        <time>2026-08-29T06:33:24Z</time>
      </trkpt>
      <trkpt lat="43.84765" lon="1.86761">
        <ele>151.730289</ele>
        <time>2026-08-29T06:33:25Z</time>
      </trkpt>
      <trkpt lat="43.84768" lon="1.86768">
        <ele>151.768144</ele>
        <time>2026-08-29T06:33:26Z</time>
      </trkpt>
      <trkpt lat="43.8477" lon="1.86775">
        <ele>151.806251</ele>
        <time>2026-08-29T06:33:27Z</time>
      </trkpt>
      <trkpt lat="43.84772" lon="1.86783">
        <ele>151.844358</ele>
        <time>2026-08-29T06:33:28Z</time>
      </trkpt>
      <trkpt lat="43.84774" lon="1.8679">
        <ele>151.882466</ele>
        <time>2026-08-29T06:33:29Z</time>
      </trkpt>
      <trkpt lat="43.84776" lon="1.86797">
        <ele>151.921666</ele>
        <time>2026-08-29T06:33:30Z</time>
      </trkpt>
      <trkpt lat="43.84778" lon="1.86805">
        <ele>151.960633</ele>
        <time>2026-08-29T06:33:31Z</time>
      </trkpt>
      <trkpt lat="43.8478" lon="1.86813">
        <ele>151.999831</ele>
        <time>2026-08-29T06:33:32Z</time>
      </trkpt>
      <trkpt lat="43.84782" lon="1.86821">
        <ele>152.039704</ele>
        <time>2026-08-29T06:33:33Z</time>
      </trkpt>
      <trkpt lat="43.84784" lon="1.86829">
        <ele>152.056915</ele>
        <time>2026-08-29T06:33:34Z</time>
      </trkpt>
      <trkpt lat="43.84786" lon="1.86837">
        <ele>152.024869</ele>
        <time>2026-08-29T06:33:35Z</time>
      </trkpt>
      <trkpt lat="43.84789" lon="1.86844">
        <ele>151.993717</ele>
        <time>2026-08-29T06:33:36Z</time>
      </trkpt>
      <trkpt lat="43.84791" lon="1.86852">
        <ele>151.961501</ele>
        <time>2026-08-29T06:33:37Z</time>
      </trkpt>
      <trkpt lat="43.84793" lon="1.8686">
        <ele>151.929455</ele>
        <time>2026-08-29T06:33:38Z</time>
      </trkpt>
      <trkpt lat="43.84795" lon="1.86868">
        <ele>151.89616</ele>
        <time>2026-08-29T06:33:39Z</time>
      </trkpt>
      <trkpt lat="43.84798" lon="1.86876">
        <ele>151.86261</ele>
        <time>2026-08-29T06:33:40Z</time>
      </trkpt>
      <trkpt lat="43.84801" lon="1.86884">
        <ele>151.830878</ele>
        <time>2026-08-29T06:33:41Z</time>
      </trkpt>
      <trkpt lat="43.84805" lon="1.8689">
        <ele>151.799507</ele>
        <time>2026-08-29T06:33:42Z</time>
      </trkpt>
      <trkpt lat="43.84809" lon="1.86896">
        <ele>151.766744</ele>
        <time>2026-08-29T06:33:43Z</time>
      </trkpt>
      <trkpt lat="43.84815" lon="1.869">
        <ele>151.733686</ele>
        <time>2026-08-29T06:33:44Z</time>
      </trkpt>
      <trkpt lat="43.84821" lon="1.86904">
        <ele>151.700343</ele>
        <time>2026-08-29T06:33:45Z</time>
      </trkpt>
      <trkpt lat="43.84827" lon="1.86907">
        <ele>151.666382</ele>
        <time>2026-08-29T06:33:46Z</time>
      </trkpt>
      <trkpt lat="43.84833" lon="1.86909">
        <ele>151.632705</ele>
        <time>2026-08-29T06:33:47Z</time>
      </trkpt>
      <trkpt lat="43.84839" lon="1.86911">
        <ele>151.599304</ele>
        <time>2026-08-29T06:33:48Z</time>
      </trkpt>
      <trkpt lat="43.84845" lon="1.86913">
        <ele>151.566739</ele>
        <time>2026-08-29T06:33:49Z</time>
      </trkpt>
      <trkpt lat="43.84851" lon="1.86916">
        <ele>151.533667</ele>
        <time>2026-08-29T06:33:50Z</time>
      </trkpt>
      <trkpt lat="43.84857" lon="1.86918">
        <ele>151.500687</ele>
        <time>2026-08-29T06:33:51Z</time>
      </trkpt>
      <trkpt lat="43.84863" lon="1.8692">
        <ele>151.467708</ele>
        <time>2026-08-29T06:33:52Z</time>
      </trkpt>
      <trkpt lat="43.8487" lon="1.86922">
        <ele>151.434307</ele>
        <time>2026-08-29T06:33:53Z</time>
      </trkpt>
      <trkpt lat="43.84876" lon="1.86924">
        <ele>151.401069</ele>
        <time>2026-08-29T06:33:54Z</time>
      </trkpt>
      <trkpt lat="43.84882" lon="1.86926">
        <ele>151.367997</ele>
        <time>2026-08-29T06:33:55Z</time>
      </trkpt>
      <trkpt lat="43.84888" lon="1.86928">
        <ele>151.333715</ele>
        <time>2026-08-29T06:33:56Z</time>
      </trkpt>
      <trkpt lat="43.84895" lon="1.8693">
        <ele>151.299206</ele>
        <time>2026-08-29T06:33:57Z</time>
      </trkpt>
      <trkpt lat="43.84901" lon="1.86933">
        <ele>151.265022</ele>
        <time>2026-08-29T06:33:58Z</time>
      </trkpt>
      <trkpt lat="43.84907" lon="1.86935">
        <ele>151.230839</ele>
        <time>2026-08-29T06:33:59Z</time>
      </trkpt>
      <trkpt lat="43.84913" lon="1.86937">
        <ele>151.197258</ele>
        <time>2026-08-29T06:34:00Z</time>
      </trkpt>
      <trkpt lat="43.84919" lon="1.86939">
        <ele>151.164368</ele>
        <time>2026-08-29T06:34:01Z</time>
      </trkpt>
      <trkpt lat="43.84926" lon="1.86941">
        <ele>151.131478</ele>
        <time>2026-08-29T06:34:02Z</time>
      </trkpt>
      <trkpt lat="43.84932" lon="1.86943">
        <ele>151.067366</ele>
        <time>2026-08-29T06:34:03Z</time>
      </trkpt>
      <trkpt lat="43.84938" lon="1.86945">
        <ele>150.995223</ele>
        <time>2026-08-29T06:34:04Z</time>
      </trkpt>
      <trkpt lat="43.84944" lon="1.86947">
        <ele>150.919333</ele>
        <time>2026-08-29T06:34:05Z</time>
      </trkpt>
      <trkpt lat="43.84951" lon="1.86949">
        <ele>150.843443</ele>
        <time>2026-08-29T06:34:06Z</time>
      </trkpt>
      <trkpt lat="43.84957" lon="1.86952">
        <ele>150.766025</ele>
        <time>2026-08-29T06:34:07Z</time>
      </trkpt>
      <trkpt lat="43.84964" lon="1.86954">
        <ele>150.687494</ele>
        <time>2026-08-29T06:34:08Z</time>
      </trkpt>
      <trkpt lat="43.8497" lon="1.86957">
        <ele>150.612298</ele>
        <time>2026-08-29T06:34:09Z</time>
      </trkpt>
      <trkpt lat="43.84976" lon="1.86959">
        <ele>150.539948</ele>
        <time>2026-08-29T06:34:10Z</time>
      </trkpt>
      <trkpt lat="43.84982" lon="1.86962">
        <ele>150.467346</ele>
        <time>2026-08-29T06:34:11Z</time>
      </trkpt>
      <trkpt lat="43.84988" lon="1.86965">
        <ele>150.39593</ele>
        <time>2026-08-29T06:34:12Z</time>
      </trkpt>
      <trkpt lat="43.84994" lon="1.86969">
        <ele>150.319974</ele>
        <time>2026-08-29T06:34:13Z</time>
      </trkpt>
      <trkpt lat="43.84999" lon="1.86974">
        <ele>150.244277</ele>
        <time>2026-08-29T06:34:14Z</time>
      </trkpt>
      <trkpt lat="43.85005" lon="1.86978">
        <ele>150.167174</ele>
        <time>2026-08-29T06:34:15Z</time>
      </trkpt>
      <trkpt lat="43.85011" lon="1.86983">
        <ele>150.089856</ele>
        <time>2026-08-29T06:34:16Z</time>
      </trkpt>
      <trkpt lat="43.85017" lon="1.86988">
        <ele>150.010131</ele>
        <time>2026-08-29T06:34:17Z</time>
      </trkpt>
      <trkpt lat="43.85023" lon="1.86993">
        <ele>149.931963</ele>
        <time>2026-08-29T06:34:18Z</time>
      </trkpt>
      <trkpt lat="43.85029" lon="1.86997">
        <ele>149.85521</ele>
        <time>2026-08-29T06:34:19Z</time>
      </trkpt>
      <trkpt lat="43.85034" lon="1.87002">
        <ele>149.779118</ele>
        <time>2026-08-29T06:34:20Z</time>
      </trkpt>
      <trkpt lat="43.8504" lon="1.87006">
        <ele>149.704034</ele>
        <time>2026-08-29T06:34:21Z</time>
      </trkpt>
      <trkpt lat="43.85046" lon="1.87011">
        <ele>149.627132</ele>
        <time>2026-08-29T06:34:22Z</time>
      </trkpt>
      <trkpt lat="43.85052" lon="1.87015">
        <ele>149.551227</ele>
        <time>2026-08-29T06:34:23Z</time>
      </trkpt>
      <trkpt lat="43.85058" lon="1.8702">
        <ele>149.471914</ele>
        <time>2026-08-29T06:34:24Z</time>
      </trkpt>
      <trkpt lat="43.85064" lon="1.87025">
        <ele>149.39401</ele>
        <time>2026-08-29T06:34:25Z</time>
      </trkpt>
      <trkpt lat="43.8507" lon="1.87029">
        <ele>149.315102</ele>
        <time>2026-08-29T06:34:26Z</time>
      </trkpt>
      <trkpt lat="43.85076" lon="1.87034">
        <ele>149.236194</ele>
        <time>2026-08-29T06:34:27Z</time>
      </trkpt>
      <trkpt lat="43.85082" lon="1.87039">
        <ele>149.15688</ele>
        <time>2026-08-29T06:34:28Z</time>
      </trkpt>
      <trkpt lat="43.85087" lon="1.87043">
        <ele>149.078567</ele>
        <time>2026-08-29T06:34:29Z</time>
      </trkpt>
      <trkpt lat="43.85093" lon="1.87048">
        <ele>148.940047</ele>
        <time>2026-08-29T06:34:30Z</time>
      </trkpt>
      <trkpt lat="43.85099" lon="1.87053">
        <ele>148.773085</ele>
        <time>2026-08-29T06:34:31Z</time>
      </trkpt>
      <trkpt lat="43.85105" lon="1.87058">
        <ele>148.608162</ele>
        <time>2026-08-29T06:34:32Z</time>
      </trkpt>
      <trkpt lat="43.85111" lon="1.87063">
        <ele>148.442079</ele>
        <time>2026-08-29T06:34:33Z</time>
      </trkpt>
      <trkpt lat="43.85118" lon="1.87068">
        <ele>148.273545</ele>
        <time>2026-08-29T06:34:34Z</time>
      </trkpt>
      <trkpt lat="43.85124" lon="1.87072">
        <ele>148.105012</ele>
        <time>2026-08-29T06:34:35Z</time>
      </trkpt>
      <trkpt lat="43.8513" lon="1.87077">
        <ele>147.941487</ele>
        <time>2026-08-29T06:34:36Z</time>
      </trkpt>
      <trkpt lat="43.85136" lon="1.87082">
        <ele>147.777123</ele>
        <time>2026-08-29T06:34:37Z</time>
      </trkpt>
      <trkpt lat="43.85142" lon="1.87086">
        <ele>147.618603</ele>
        <time>2026-08-29T06:34:38Z</time>
      </trkpt>
      <trkpt lat="43.85147" lon="1.87091">
        <ele>147.459237</ele>
        <time>2026-08-29T06:34:39Z</time>
      </trkpt>
      <trkpt lat="43.85153" lon="1.87095">
        <ele>147.292792</ele>
        <time>2026-08-29T06:34:40Z</time>
      </trkpt>
      <trkpt lat="43.8516" lon="1.871">
        <ele>147.122582</ele>
        <time>2026-08-29T06:34:41Z</time>
      </trkpt>
      <trkpt lat="43.85166" lon="1.87105">
        <ele>146.950296</ele>
        <time>2026-08-29T06:34:42Z</time>
      </trkpt>
      <trkpt lat="43.85172" lon="1.8711">
        <ele>146.77675</ele>
        <time>2026-08-29T06:34:43Z</time>
      </trkpt>
      <trkpt lat="43.85179" lon="1.87115">
        <ele>146.605298</ele>
        <time>2026-08-29T06:34:44Z</time>
      </trkpt>
      <trkpt lat="43.85185" lon="1.8712">
        <ele>146.428008</ele>
        <time>2026-08-29T06:34:45Z</time>
      </trkpt>
      <trkpt lat="43.85192" lon="1.87125">
        <ele>146.240699</ele>
        <time>2026-08-29T06:34:46Z</time>
      </trkpt>
      <trkpt lat="43.85199" lon="1.8713">
        <ele>146.053797</ele>
        <time>2026-08-29T06:34:47Z</time>
      </trkpt>
      <trkpt lat="43.85206" lon="1.87136">
        <ele>145.860449</ele>
        <time>2026-08-29T06:34:48Z</time>
      </trkpt>
      <trkpt lat="43.85213" lon="1.87143">
        <ele>145.664344</ele>
        <time>2026-08-29T06:34:49Z</time>
      </trkpt>
      <trkpt lat="43.8522" lon="1.87148">
        <ele>145.470997</ele>
        <time>2026-08-29T06:34:50Z</time>
      </trkpt>
      <trkpt lat="43.85226" lon="1.87154">
        <ele>145.283702</ele>
        <time>2026-08-29T06:34:51Z</time>
      </trkpt>
      <trkpt lat="43.85232" lon="1.8716">
        <ele>145.102381</ele>
        <time>2026-08-29T06:34:52Z</time>
      </trkpt>
      <trkpt lat="43.85239" lon="1.87166">
        <ele>144.920959</ele>
        <time>2026-08-29T06:34:53Z</time>
      </trkpt>
      <trkpt lat="43.85245" lon="1.87172">
        <ele>144.78364</ele>
        <time>2026-08-29T06:34:54Z</time>
      </trkpt>
      <trkpt lat="43.85251" lon="1.87178">
        <ele>144.920182</ele>
        <time>2026-08-29T06:34:55Z</time>
      </trkpt>
      <trkpt lat="43.85257" lon="1.87184">
        <ele>145.05373</ele>
        <time>2026-08-29T06:34:56Z</time>
      </trkpt>
      <trkpt lat="43.85263" lon="1.8719">
        <ele>145.187277</ele>
        <time>2026-08-29T06:34:57Z</time>
      </trkpt>
      <trkpt lat="43.8527" lon="1.87195">
        <ele>145.325714</ele>
        <time>2026-08-29T06:34:58Z</time>
      </trkpt>
      <trkpt lat="43.85276" lon="1.87201">
        <ele>145.45924</ele>
        <time>2026-08-29T06:34:59Z</time>
      </trkpt>
      <trkpt lat="43.85281" lon="1.87206">
        <ele>145.583037</ele>
        <time>2026-08-29T06:35:00Z</time>
      </trkpt>
      <trkpt lat="43.85287" lon="1.87212">
        <ele>145.709024</ele>
        <time>2026-08-29T06:35:01Z</time>
      </trkpt>
      <trkpt lat="43.85292" lon="1.87216">
        <ele>145.826074</ele>
        <time>2026-08-29T06:35:02Z</time>
      </trkpt>
      <trkpt lat="43.85297" lon="1.87221">
        <ele>145.933399</ele>
        <time>2026-08-29T06:35:03Z</time>
      </trkpt>
      <trkpt lat="43.85302" lon="1.87225">
        <ele>146.035342</ele>
        <time>2026-08-29T06:35:04Z</time>
      </trkpt>
      <trkpt lat="43.85306" lon="1.87228">
        <ele>146.13147</ele>
        <time>2026-08-29T06:35:05Z</time>
      </trkpt>
      <trkpt lat="43.8531" lon="1.87232">
        <ele>146.217484</ele>
        <time>2026-08-29T06:35:06Z</time>
      </trkpt>
      <trkpt lat="43.85314" lon="1.87235">
        <ele>146.302729</ele>
        <time>2026-08-29T06:35:07Z</time>
      </trkpt>
      <trkpt lat="43.85317" lon="1.87239">
        <ele>146.378691</ele>
        <time>2026-08-29T06:35:08Z</time>
      </trkpt>
      <trkpt lat="43.8532" lon="1.87243">
        <ele>146.448793</ele>
        <time>2026-08-29T06:35:09Z</time>
      </trkpt>
      <trkpt lat="43.85323" lon="1.87246">
        <ele>146.512312</ele>
        <time>2026-08-29T06:35:10Z</time>
      </trkpt>
      <trkpt lat="43.85325" lon="1.87249">
        <ele>146.571311</ele>
        <time>2026-08-29T06:35:11Z</time>
      </trkpt>
      <trkpt lat="43.85328" lon="1.87251">
        <ele>146.623412</ele>
        <time>2026-08-29T06:35:12Z</time>
      </trkpt>
      <trkpt lat="43.8533" lon="1.87253">
        <ele>146.677998</ele>
        <time>2026-08-29T06:35:13Z</time>
      </trkpt>
      <trkpt lat="43.85333" lon="1.87253">
        <ele>146.735464</ele>
        <time>2026-08-29T06:35:14Z</time>
      </trkpt>
      <trkpt lat="43.85336" lon="1.87252">
        <ele>146.794212</ele>
        <time>2026-08-29T06:35:15Z</time>
      </trkpt>
      <trkpt lat="43.8534" lon="1.87252">
        <ele>146.86784</ele>
        <time>2026-08-29T06:35:16Z</time>
      </trkpt>
      <trkpt lat="43.85344" lon="1.87252">
        <ele>146.938219</ele>
        <time>2026-08-29T06:35:17Z</time>
      </trkpt>
      <trkpt lat="43.85348" lon="1.87254">
        <ele>147.004137</ele>
        <time>2026-08-29T06:35:18Z</time>
      </trkpt>
      <trkpt lat="43.85351" lon="1.87257">
        <ele>147.077034</ele>
        <time>2026-08-29T06:35:19Z</time>
      </trkpt>
      <trkpt lat="43.85354" lon="1.8726">
        <ele>147.147202</ele>
        <time>2026-08-29T06:35:20Z</time>
      </trkpt>
      <trkpt lat="43.85357" lon="1.87264">
        <ele>147.21913</ele>
        <time>2026-08-29T06:35:21Z</time>
      </trkpt>
      <trkpt lat="43.85359" lon="1.87268">
        <ele>147.291231</ele>
        <time>2026-08-29T06:35:22Z</time>
      </trkpt>
      <trkpt lat="43.85362" lon="1.87272">
        <ele>147.365991</ele>
        <time>2026-08-29T06:35:23Z</time>
      </trkpt>
      <trkpt lat="43.85365" lon="1.87276">
        <ele>147.441476</ele>
        <time>2026-08-29T06:35:24Z</time>
      </trkpt>
      <trkpt lat="43.85368" lon="1.87281">
        <ele>147.517817</ele>
        <time>2026-08-29T06:35:25Z</time>
      </trkpt>
      <trkpt lat="43.8537" lon="1.87285">
        <ele>147.598412</ele>
        <time>2026-08-29T06:35:26Z</time>
      </trkpt>
      <trkpt lat="43.85373" lon="1.87291">
        <ele>147.681101</ele>
        <time>2026-08-29T06:35:27Z</time>
      </trkpt>
      <trkpt lat="43.85376" lon="1.87295">
        <ele>147.761696</ele>
        <time>2026-08-29T06:35:28Z</time>
      </trkpt>
      <trkpt lat="43.85378" lon="1.873">
        <ele>147.847683</ele>
        <time>2026-08-29T06:35:29Z</time>
      </trkpt>
      <trkpt lat="43.85381" lon="1.87305">
        <ele>147.932633</ele>
        <time>2026-08-29T06:35:30Z</time>
      </trkpt>
      <trkpt lat="43.85384" lon="1.8731">
        <ele>148.011157</ele>
        <time>2026-08-29T06:35:31Z</time>
      </trkpt>
      <trkpt lat="43.85387" lon="1.87315">
        <ele>148.074372</ele>
        <time>2026-08-29T06:35:32Z</time>
      </trkpt>
      <trkpt lat="43.8539" lon="1.8732">
        <ele>148.099084</ele>
        <time>2026-08-29T06:35:33Z</time>
      </trkpt>
      <trkpt lat="43.85392" lon="1.87325">
        <ele>148.124087</ele>
        <time>2026-08-29T06:35:34Z</time>
      </trkpt>
      <trkpt lat="43.85396" lon="1.87329">
        <ele>148.149879</ele>
        <time>2026-08-29T06:35:35Z</time>
      </trkpt>
      <trkpt lat="43.85399" lon="1.87335">
        <ele>148.177307</ele>
        <time>2026-08-29T06:35:36Z</time>
      </trkpt>
      <trkpt lat="43.85402" lon="1.87339">
        <ele>148.203398</ele>
        <time>2026-08-29T06:35:37Z</time>
      </trkpt>
      <trkpt lat="43.85405" lon="1.87344">
        <ele>148.228224</ele>
        <time>2026-08-29T06:35:38Z</time>
      </trkpt>
      <trkpt lat="43.85408" lon="1.87349">
        <ele>148.252983</ele>
        <time>2026-08-29T06:35:39Z</time>
      </trkpt>
      <trkpt lat="43.85411" lon="1.87354">
        <ele>148.279327</ele>
        <time>2026-08-29T06:35:40Z</time>
      </trkpt>
      <trkpt lat="43.85414" lon="1.87359">
        <ele>148.305983</ele>
        <time>2026-08-29T06:35:41Z</time>
      </trkpt>
      <trkpt lat="43.85417" lon="1.87364">
        <ele>148.332327</ele>
        <time>2026-08-29T06:35:42Z</time>
      </trkpt>
      <trkpt lat="43.8542" lon="1.87369">
        <ele>148.359086</ele>
        <time>2026-08-29T06:35:43Z</time>
      </trkpt>
      <trkpt lat="43.85423" lon="1.87374">
        <ele>148.386401</ele>
        <time>2026-08-29T06:35:44Z</time>
      </trkpt>
      <trkpt lat="43.85426" lon="1.87379">
        <ele>148.41316</ele>
        <time>2026-08-29T06:35:45Z</time>
      </trkpt>
      <trkpt lat="43.8543" lon="1.87384">
        <ele>148.440669</ele>
        <time>2026-08-29T06:35:46Z</time>
      </trkpt>
      <trkpt lat="43.85433" lon="1.8739">
        <ele>148.469141</ele>
        <time>2026-08-29T06:35:47Z</time>
      </trkpt>
      <trkpt lat="43.85437" lon="1.87395">
        <ele>148.498284</ele>
        <time>2026-08-29T06:35:48Z</time>
      </trkpt>
      <trkpt lat="43.85441" lon="1.874">
        <ele>148.528485</ele>
        <time>2026-08-29T06:35:49Z</time>
      </trkpt>
      <trkpt lat="43.85444" lon="1.87405">
        <ele>148.557442</ele>
        <time>2026-08-29T06:35:50Z</time>
      </trkpt>
      <trkpt lat="43.85448" lon="1.8741">
        <ele>148.586118</ele>
        <time>2026-08-29T06:35:51Z</time>
      </trkpt>
      <trkpt lat="43.85452" lon="1.87416">
        <ele>148.615751</ele>
        <time>2026-08-29T06:35:52Z</time>
      </trkpt>
      <trkpt lat="43.85456" lon="1.87421">
        <ele>148.646592</ele>
        <time>2026-08-29T06:35:53Z</time>
      </trkpt>
      <trkpt lat="43.8546" lon="1.87426">
        <ele>148.677433</ele>
        <time>2026-08-29T06:35:54Z</time>
      </trkpt>
      <trkpt lat="43.85464" lon="1.87431">
        <ele>148.707594</ele>
        <time>2026-08-29T06:35:55Z</time>
      </trkpt>
      <trkpt lat="43.85468" lon="1.87436">
        <ele>148.736538</ele>
        <time>2026-08-29T06:35:56Z</time>
      </trkpt>
      <trkpt lat="43.85472" lon="1.87441">
        <ele>148.76534</ele>
        <time>2026-08-29T06:35:57Z</time>
      </trkpt>
      <trkpt lat="43.85476" lon="1.87446">
        <ele>148.796048</ele>
        <time>2026-08-29T06:35:58Z</time>
      </trkpt>
      <trkpt lat="43.8548" lon="1.87452">
        <ele>148.826827</ele>
        <time>2026-08-29T06:35:59Z</time>
      </trkpt>
      <trkpt lat="43.85483" lon="1.87457">
        <ele>148.856858</ele>
        <time>2026-08-29T06:36:00Z</time>
      </trkpt>
      <trkpt lat="43.85488" lon="1.87462">
        <ele>148.888378</ele>
        <time>2026-08-29T06:36:01Z</time>
      </trkpt>
      <trkpt lat="43.85492" lon="1.87467">
        <ele>148.918421</ele>
        <time>2026-08-29T06:36:02Z</time>
      </trkpt>
      <trkpt lat="43.85496" lon="1.87472">
        <ele>148.948855</ele>
        <time>2026-08-29T06:36:03Z</time>
      </trkpt>
      <trkpt lat="43.855" lon="1.87478">
        <ele>148.980241</ele>
        <time>2026-08-29T06:36:04Z</time>
      </trkpt>
      <trkpt lat="43.85504" lon="1.87483">
        <ele>149.010547</ele>
        <time>2026-08-29T06:36:05Z</time>
      </trkpt>
      <trkpt lat="43.85508" lon="1.87488">
        <ele>149.04059</ele>
        <time>2026-08-29T06:36:06Z</time>
      </trkpt>
      <trkpt lat="43.85512" lon="1.87492">
        <ele>149.062391</ele>
        <time>2026-08-29T06:36:07Z</time>
      </trkpt>
      <trkpt lat="43.85516" lon="1.87497">
        <ele>149.053419</ele>
        <time>2026-08-29T06:36:08Z</time>
      </trkpt>
      <trkpt lat="43.85521" lon="1.87502">
        <ele>149.044388</ele>
        <time>2026-08-29T06:36:09Z</time>
      </trkpt>
      <trkpt lat="43.85525" lon="1.87506">
        <ele>149.035361</ele>
        <time>2026-08-29T06:36:10Z</time>
      </trkpt>
      <trkpt lat="43.8553" lon="1.8751">
        <ele>149.0264</ele>
        <time>2026-08-29T06:36:11Z</time>
      </trkpt>
      <trkpt lat="43.85535" lon="1.87514">
        <ele>149.017025</ele>
        <time>2026-08-29T06:36:12Z</time>
      </trkpt>
      <trkpt lat="43.85539" lon="1.87518">
        <ele>149.007788</ele>
        <time>2026-08-29T06:36:13Z</time>
      </trkpt>
      <trkpt lat="43.85544" lon="1.87522">
        <ele>148.998538</ele>
        <time>2026-08-29T06:36:14Z</time>
      </trkpt>
      <trkpt lat="43.85549" lon="1.87526">
        <ele>148.989264</ele>
        <time>2026-08-29T06:36:15Z</time>
      </trkpt>
      <trkpt lat="43.85554" lon="1.8753">
        <ele>148.980104</ele>
        <time>2026-08-29T06:36:16Z</time>
      </trkpt>
      <trkpt lat="43.85559" lon="1.87533">
        <ele>148.970857</ele>
        <time>2026-08-29T06:36:17Z</time>
      </trkpt>
      <trkpt lat="43.85564" lon="1.87536">
        <ele>148.96156</ele>
        <time>2026-08-29T06:36:18Z</time>
      </trkpt>
      <trkpt lat="43.85569" lon="1.8754">
        <ele>148.952063</ele>
        <time>2026-08-29T06:36:19Z</time>
      </trkpt>
      <trkpt lat="43.85575" lon="1.87543">
        <ele>148.942665</ele>
        <time>2026-08-29T06:36:20Z</time>
      </trkpt>
      <trkpt lat="43.8558" lon="1.87546">
        <ele>148.933268</ele>
        <time>2026-08-29T06:36:21Z</time>
      </trkpt>
      <trkpt lat="43.85585" lon="1.8755">
        <ele>148.924016</ele>
        <time>2026-08-29T06:36:22Z</time>
      </trkpt>
      <trkpt lat="43.8559" lon="1.87553">
        <ele>148.914868</ele>
        <time>2026-08-29T06:36:23Z</time>
      </trkpt>
      <trkpt lat="43.85595" lon="1.87556">
        <ele>148.905721</ele>
        <time>2026-08-29T06:36:24Z</time>
      </trkpt>
      <trkpt lat="43.856" lon="1.87559">
        <ele>148.896674</ele>
        <time>2026-08-29T06:36:25Z</time>
      </trkpt>
      <trkpt lat="43.85605" lon="1.87563">
        <ele>148.887577</ele>
        <time>2026-08-29T06:36:26Z</time>
      </trkpt>
      <trkpt lat="43.8561" lon="1.87565">
        <ele>148.878713</ele>
        <time>2026-08-29T06:36:27Z</time>
      </trkpt>
      <trkpt lat="43.85615" lon="1.87568">
        <ele>148.86976</ele>
        <time>2026-08-29T06:36:28Z</time>
      </trkpt>
      <trkpt lat="43.8562" lon="1.87571">
        <ele>148.860762</ele>
        <time>2026-08-29T06:36:29Z</time>
      </trkpt>
      <trkpt lat="43.85625" lon="1.87575">
        <ele>148.851815</ele>
        <time>2026-08-29T06:36:30Z</time>
      </trkpt>
      <trkpt lat="43.8563" lon="1.87578">
        <ele>148.842518</ele>
        <time>2026-08-29T06:36:31Z</time>
      </trkpt>
      <trkpt lat="43.85635" lon="1.87581">
        <ele>148.833021</ele>
        <time>2026-08-29T06:36:32Z</time>
      </trkpt>
      <trkpt lat="43.8564" lon="1.87584">
        <ele>148.823519</ele>
        <time>2026-08-29T06:36:33Z</time>
      </trkpt>
      <trkpt lat="43.85645" lon="1.87588">
        <ele>148.814017</ele>
        <time>2026-08-29T06:36:34Z</time>
      </trkpt>
      <trkpt lat="43.85651" lon="1.87591">
        <ele>148.804269</ele>
        <time>2026-08-29T06:36:35Z</time>
      </trkpt>
      <trkpt lat="43.85656" lon="1.87594">
        <ele>148.794273</ele>
        <time>2026-08-29T06:36:36Z</time>
      </trkpt>
      <trkpt lat="43.85662" lon="1.87598">
        <ele>148.784326</ele>
        <time>2026-08-29T06:36:37Z</time>
      </trkpt>
      <trkpt lat="43.85667" lon="1.87601">
        <ele>148.774473</ele>
        <time>2026-08-29T06:36:38Z</time>
      </trkpt>
      <trkpt lat="43.85673" lon="1.87604">
        <ele>148.766134</ele>
        <time>2026-08-29T06:36:39Z</time>
      </trkpt>
      <trkpt lat="43.85678" lon="1.87607">
        <ele>148.762434</ele>
        <time>2026-08-29T06:36:40Z</time>
      </trkpt>
      <trkpt lat="43.85684" lon="1.8761">
        <ele>148.758571</ele>
        <time>2026-08-29T06:36:41Z</time>
      </trkpt>
      <trkpt lat="43.85689" lon="1.87613">
        <ele>148.754811</ele>
        <time>2026-08-29T06:36:42Z</time>
      </trkpt>
      <trkpt lat="43.85694" lon="1.87617">
        <ele>148.751054</ele>
        <time>2026-08-29T06:36:43Z</time>
      </trkpt>
      <trkpt lat="43.857" lon="1.8762">
        <ele>148.747394</ele>
        <time>2026-08-29T06:36:44Z</time>
      </trkpt>
      <trkpt lat="43.85705" lon="1.87623">
        <ele>148.743773</ele>
        <time>2026-08-29T06:36:45Z</time>
      </trkpt>
      <trkpt lat="43.8571" lon="1.87627">
        <ele>148.739996</ele>
        <time>2026-08-29T06:36:46Z</time>
      </trkpt>
      <trkpt lat="43.85715" lon="1.8763">
        <ele>148.736258</ele>
        <time>2026-08-29T06:36:47Z</time>
      </trkpt>
      <trkpt lat="43.85721" lon="1.87633">
        <ele>148.732498</ele>
        <time>2026-08-29T06:36:48Z</time>
      </trkpt>
      <trkpt lat="43.85726" lon="1.87636">
        <ele>148.728702</ele>
        <time>2026-08-29T06:36:49Z</time>
      </trkpt>
      <trkpt lat="43.85732" lon="1.8764">
        <ele>148.724905</ele>
        <time>2026-08-29T06:36:50Z</time>
      </trkpt>
      <trkpt lat="43.85737" lon="1.87643">
        <ele>148.721186</ele>
        <time>2026-08-29T06:36:51Z</time>
      </trkpt>
      <trkpt lat="43.85742" lon="1.87646">
        <ele>148.717467</ele>
        <time>2026-08-29T06:36:52Z</time>
      </trkpt>
      <trkpt lat="43.85747" lon="1.87649">
        <ele>148.713766</ele>
        <time>2026-08-29T06:36:53Z</time>
      </trkpt>
      <trkpt lat="43.85753" lon="1.87653">
        <ele>148.710009</ele>
        <time>2026-08-29T06:36:54Z</time>
      </trkpt>
      <trkpt lat="43.85758" lon="1.87656">
        <ele>148.706271</ele>
        <time>2026-08-29T06:36:55Z</time>
      </trkpt>
      <trkpt lat="43.85763" lon="1.87659">
        <ele>148.702533</ele>
        <time>2026-08-29T06:36:56Z</time>
      </trkpt>
      <trkpt lat="43.85769" lon="1.87663">
        <ele>148.698757</ele>
        <time>2026-08-29T06:36:57Z</time>
      </trkpt>
      <trkpt lat="43.85774" lon="1.87666">
        <ele>148.695</ele>
        <time>2026-08-29T06:36:58Z</time>
      </trkpt>
      <trkpt lat="43.85779" lon="1.8767">
        <ele>148.691165</ele>
        <time>2026-08-29T06:36:59Z</time>
      </trkpt>
      <trkpt lat="43.85785" lon="1.87673">
        <ele>148.68731</ele>
        <time>2026-08-29T06:37:00Z</time>
      </trkpt>
      <trkpt lat="43.8579" lon="1.87677">
        <ele>148.683435</ele>
        <time>2026-08-29T06:37:01Z</time>
      </trkpt>
      <trkpt lat="43.85795" lon="1.87681">
        <ele>148.679638</ele>
        <time>2026-08-29T06:37:02Z</time>
      </trkpt>
      <trkpt lat="43.85801" lon="1.87684">
        <ele>148.675822</ele>
        <time>2026-08-29T06:37:03Z</time>
      </trkpt>
      <trkpt lat="43.85806" lon="1.87688">
        <ele>148.671909</ele>
        <time>2026-08-29T06:37:04Z</time>
      </trkpt>
      <trkpt lat="43.85812" lon="1.87691">
        <ele>148.66819</ele>
        <time>2026-08-29T06:37:05Z</time>
      </trkpt>
      <trkpt lat="43.85817" lon="1.87695">
        <ele>148.664544</ele>
        <time>2026-08-29T06:37:06Z</time>
      </trkpt>
      <trkpt lat="43.85822" lon="1.87699">
        <ele>148.660876</ele>
        <time>2026-08-29T06:37:07Z</time>
      </trkpt>
      <trkpt lat="43.85827" lon="1.87702">
        <ele>148.657151</ele>
        <time>2026-08-29T06:37:08Z</time>
      </trkpt>
      <trkpt lat="43.85832" lon="1.87706">
        <ele>148.653414</ele>
        <time>2026-08-29T06:37:09Z</time>
      </trkpt>
      <trkpt lat="43.85837" lon="1.87711">
        <ele>148.655131</ele>
        <time>2026-08-29T06:37:10Z</time>
      </trkpt>
      <trkpt lat="43.85842" lon="1.87715">
        <ele>148.663133</ele>
        <time>2026-08-29T06:37:11Z</time>
      </trkpt>
      <trkpt lat="43.85846" lon="1.87719">
        <ele>148.671189</ele>
        <time>2026-08-29T06:37:12Z</time>
      </trkpt>
      <trkpt lat="43.85851" lon="1.87723">
        <ele>148.679311</ele>
        <time>2026-08-29T06:37:13Z</time>
      </trkpt>
      <trkpt lat="43.85856" lon="1.87727">
        <ele>148.687262</ele>
        <time>2026-08-29T06:37:14Z</time>
      </trkpt>
      <trkpt lat="43.85861" lon="1.87731">
        <ele>148.695214</ele>
        <time>2026-08-29T06:37:15Z</time>
      </trkpt>
      <trkpt lat="43.85866" lon="1.87735">
        <ele>148.703216</ele>
        <time>2026-08-29T06:37:16Z</time>
      </trkpt>
      <trkpt lat="43.85871" lon="1.87739">
        <ele>148.711288</ele>
        <time>2026-08-29T06:37:17Z</time>
      </trkpt>
      <trkpt lat="43.85876" lon="1.87743">
        <ele>148.719188</ele>
        <time>2026-08-29T06:37:18Z</time>
      </trkpt>
      <trkpt lat="43.85881" lon="1.87747">
        <ele>148.727179</ele>
        <time>2026-08-29T06:37:19Z</time>
      </trkpt>
      <trkpt lat="43.85886" lon="1.87752">
        <ele>148.735225</ele>
        <time>2026-08-29T06:37:20Z</time>
      </trkpt>
      <trkpt lat="43.8589" lon="1.87756">
        <ele>148.743271</ele>
        <time>2026-08-29T06:37:21Z</time>
      </trkpt>
      <trkpt lat="43.85895" lon="1.87761">
        <ele>148.751373</ele>
        <time>2026-08-29T06:37:22Z</time>
      </trkpt>
      <trkpt lat="43.859" lon="1.87765">
        <ele>148.759476</ele>
        <time>2026-08-29T06:37:23Z</time>
      </trkpt>
      <trkpt lat="43.85905" lon="1.8777">
        <ele>148.767462</ele>
        <time>2026-08-29T06:37:24Z</time>
      </trkpt>
      <trkpt lat="43.85909" lon="1.87774">
        <ele>148.775392</ele>
        <time>2026-08-29T06:37:25Z</time>
      </trkpt>
      <trkpt lat="43.85914" lon="1.87779">
        <ele>148.783097</ele>
        <time>2026-08-29T06:37:26Z</time>
      </trkpt>
      <trkpt lat="43.85918" lon="1.87783">
        <ele>148.791028</ele>
        <time>2026-08-29T06:37:27Z</time>
      </trkpt>
      <trkpt lat="43.85923" lon="1.87788">
        <ele>148.799017</ele>
        <time>2026-08-29T06:37:28Z</time>
      </trkpt>
      <trkpt lat="43.85928" lon="1.87793">
        <ele>148.806956</ele>
        <time>2026-08-29T06:37:29Z</time>
      </trkpt>
      <trkpt lat="43.85932" lon="1.87797">
        <ele>148.814943</ele>
        <time>2026-08-29T06:37:30Z</time>
      </trkpt>
      <trkpt lat="43.85937" lon="1.87802">
        <ele>148.823218</ele>
        <time>2026-08-29T06:37:31Z</time>
      </trkpt>
      <trkpt lat="43.85942" lon="1.87807">
        <ele>148.83144</ele>
        <time>2026-08-29T06:37:32Z</time>
      </trkpt>
      <trkpt lat="43.85947" lon="1.87812">
        <ele>148.839896</ele>
        <time>2026-08-29T06:37:33Z</time>
      </trkpt>
      <trkpt lat="43.85951" lon="1.87817">
        <ele>148.848119</ele>
        <time>2026-08-29T06:37:34Z</time>
      </trkpt>
      <trkpt lat="43.85956" lon="1.87822">
        <ele>148.856281</ele>
        <time>2026-08-29T06:37:35Z</time>
      </trkpt>
      <trkpt lat="43.85961" lon="1.87827">
        <ele>148.864443</ele>
        <time>2026-08-29T06:37:36Z</time>
      </trkpt>
      <trkpt lat="43.85965" lon="1.87831">
        <ele>148.872602</ele>
        <time>2026-08-29T06:37:37Z</time>
      </trkpt>
      <trkpt lat="43.8597" lon="1.87836">
        <ele>148.880933</ele>
        <time>2026-08-29T06:37:38Z</time>
      </trkpt>
      <trkpt lat="43.85975" lon="1.87841">
        <ele>148.88915</ele>
        <time>2026-08-29T06:37:39Z</time>
      </trkpt>
      <trkpt lat="43.8598" lon="1.87845">
        <ele>148.897252</ele>
        <time>2026-08-29T06:37:40Z</time>
      </trkpt>
      <trkpt lat="43.85985" lon="1.87849">
        <ele>148.916116</ele>
        <time>2026-08-29T06:37:41Z</time>
      </trkpt>
      <trkpt lat="43.85989" lon="1.87854">
        <ele>148.96211</ele>
        <time>2026-08-29T06:37:42Z</time>
      </trkpt>
      <trkpt lat="43.85994" lon="1.87858">
        <ele>149.008887</ele>
        <time>2026-08-29T06:37:43Z</time>
      </trkpt>
      <trkpt lat="43.85999" lon="1.87862">
        <ele>149.054572</ele>
        <time>2026-08-29T06:37:44Z</time>
      </trkpt>
      <trkpt lat="43.86004" lon="1.87866">
        <ele>149.099261</ele>
        <time>2026-08-29T06:37:45Z</time>
      </trkpt>
      <trkpt lat="43.86008" lon="1.8787">
        <ele>149.142576</ele>
        <time>2026-08-29T06:37:46Z</time>
      </trkpt>
      <trkpt lat="43.86013" lon="1.87874">
        <ele>149.184213</ele>
        <time>2026-08-29T06:37:47Z</time>
      </trkpt>
      <trkpt lat="43.86017" lon="1.87878">
        <ele>149.225702</ele>
        <time>2026-08-29T06:37:48Z</time>
      </trkpt>
      <trkpt lat="43.86018" lon="1.87884">
        <ele>149.259279</ele>
        <time>2026-08-29T06:37:49Z</time>
      </trkpt>
      <trkpt lat="43.86017" lon="1.87888">
        <ele>149.287044</ele>
        <time>2026-08-29T06:37:50Z</time>
      </trkpt>
      <trkpt lat="43.86016" lon="1.87893">
        <ele>149.315362</ele>
        <time>2026-08-29T06:37:51Z</time>
      </trkpt>
      <trkpt lat="43.86014" lon="1.87897">
        <ele>149.34193</ele>
        <time>2026-08-29T06:37:52Z</time>
      </trkpt>
      <trkpt lat="43.86012" lon="1.87901">
        <ele>149.368149</ele>
        <time>2026-08-29T06:37:53Z</time>
      </trkpt>
      <trkpt lat="43.8601" lon="1.87905">
        <ele>149.3957</ele>
        <time>2026-08-29T06:37:54Z</time>
      </trkpt>
      <trkpt lat="43.86009" lon="1.87909">
        <ele>149.425261</ele>
        <time>2026-08-29T06:37:55Z</time>
      </trkpt>
      <trkpt lat="43.86007" lon="1.87913">
        <ele>149.456149</ele>
        <time>2026-08-29T06:37:56Z</time>
      </trkpt>
      <trkpt lat="43.86005" lon="1.87918">
        <ele>149.487038</ele>
        <time>2026-08-29T06:37:57Z</time>
      </trkpt>
      <trkpt lat="43.86003" lon="1.87923">
        <ele>149.518682</ele>
        <time>2026-08-29T06:37:58Z</time>
      </trkpt>
      <trkpt lat="43.86002" lon="1.87928">
        <ele>149.552256</ele>
        <time>2026-08-29T06:37:59Z</time>
      </trkpt>
      <trkpt lat="43.86" lon="1.87934">
        <ele>149.587729</ele>
        <time>2026-08-29T06:38:00Z</time>
      </trkpt>
      <trkpt lat="43.85998" lon="1.87939">
        <ele>149.622384</ele>
        <time>2026-08-29T06:38:01Z</time>
      </trkpt>
      <trkpt lat="43.85996" lon="1.87945">
        <ele>149.658427</ele>
        <time>2026-08-29T06:38:02Z</time>
      </trkpt>
      <trkpt lat="43.85995" lon="1.8795">
        <ele>149.693335</ele>
        <time>2026-08-29T06:38:03Z</time>
      </trkpt>
      <trkpt lat="43.85993" lon="1.87956">
        <ele>149.726604</ele>
        <time>2026-08-29T06:38:04Z</time>
      </trkpt>
      <trkpt lat="43.85992" lon="1.87961">
        <ele>149.759586</ele>
        <time>2026-08-29T06:38:05Z</time>
      </trkpt>
      <trkpt lat="43.8599" lon="1.87966">
        <ele>149.794016</ele>
        <time>2026-08-29T06:38:06Z</time>
      </trkpt>
      <trkpt lat="43.85989" lon="1.87972">
        <ele>149.826999</ele>
        <time>2026-08-29T06:38:07Z</time>
      </trkpt>
      <trkpt lat="43.85988" lon="1.87977">
        <ele>149.860017</ele>
        <time>2026-08-29T06:38:08Z</time>
      </trkpt>
      <trkpt lat="43.85986" lon="1.87983">
        <ele>149.893368</ele>
        <time>2026-08-29T06:38:09Z</time>
      </trkpt>
      <trkpt lat="43.85985" lon="1.87989">
        <ele>149.929189</ele>
        <time>2026-08-29T06:38:10Z</time>
      </trkpt>
      <trkpt lat="43.85984" lon="1.87994">
        <ele>149.963886</ele>
        <time>2026-08-29T06:38:11Z</time>
      </trkpt>
      <trkpt lat="43.85983" lon="1.88">
        <ele>149.999145</ele>
        <time>2026-08-29T06:38:12Z</time>
      </trkpt>
      <trkpt lat="43.85982" lon="1.88006">
        <ele>150.035129</ele>
        <time>2026-08-29T06:38:13Z</time>
      </trkpt>
      <trkpt lat="43.85981" lon="1.88012">
        <ele>150.072084</ele>
        <time>2026-08-29T06:38:14Z</time>
      </trkpt>
      <trkpt lat="43.8598" lon="1.88019">
        <ele>150.109612</ele>
        <time>2026-08-29T06:38:15Z</time>
      </trkpt>
      <trkpt lat="43.85979" lon="1.88025">
        <ele>150.145841</ele>
        <time>2026-08-29T06:38:16Z</time>
      </trkpt>
      <trkpt lat="43.85979" lon="1.88031">
        <ele>150.181815</ele>
        <time>2026-08-29T06:38:17Z</time>
      </trkpt>
      <trkpt lat="43.85978" lon="1.88037">
        <ele>150.216895</ele>
        <time>2026-08-29T06:38:18Z</time>
      </trkpt>
      <trkpt lat="43.85977" lon="1.88042">
        <ele>150.250991</ele>
        <time>2026-08-29T06:38:19Z</time>
      </trkpt>
      <trkpt lat="43.85976" lon="1.88048">
        <ele>150.283946</ele>
        <time>2026-08-29T06:38:20Z</time>
      </trkpt>
      <trkpt lat="43.85975" lon="1.88053">
        <ele>150.313934</ele>
        <time>2026-08-29T06:38:21Z</time>
      </trkpt>
      <trkpt lat="43.85974" lon="1.88058">
        <ele>150.346722</ele>
        <time>2026-08-29T06:38:22Z</time>
      </trkpt>
      <trkpt lat="43.85973" lon="1.88064">
        <ele>150.374957</ele>
        <time>2026-08-29T06:38:23Z</time>
      </trkpt>
      <trkpt lat="43.85971" lon="1.88069">
        <ele>150.396613</ele>
        <time>2026-08-29T06:38:24Z</time>
      </trkpt>
      <trkpt lat="43.8597" lon="1.88073">
        <ele>150.415737</ele>
        <time>2026-08-29T06:38:25Z</time>
      </trkpt>
      <trkpt lat="43.8597" lon="1.88077">
        <ele>150.434718</ele>
        <time>2026-08-29T06:38:26Z</time>
      </trkpt>
      <trkpt lat="43.85969" lon="1.88082">
        <ele>150.452176</ele>
        <time>2026-08-29T06:38:27Z</time>
      </trkpt>
      <trkpt lat="43.85969" lon="1.88085">
        <ele>150.467565</ele>
        <time>2026-08-29T06:38:28Z</time>
      </trkpt>
      <trkpt lat="43.8597" lon="1.88089">
        <ele>150.483904</ele>
        <time>2026-08-29T06:38:29Z</time>
      </trkpt>
      <trkpt lat="43.8597" lon="1.88092">
        <ele>150.497374</ele>
        <time>2026-08-29T06:38:30Z</time>
      </trkpt>
      <trkpt lat="43.8597" lon="1.88095">
        <ele>150.507345</ele>
        <time>2026-08-29T06:38:31Z</time>
      </trkpt>
      <trkpt lat="43.85971" lon="1.88098">
        <ele>150.519309</ele>
        <time>2026-08-29T06:38:32Z</time>
      </trkpt>
      <trkpt lat="43.85971" lon="1.88101">
        <ele>150.532222</ele>
        <time>2026-08-29T06:38:33Z</time>
      </trkpt>
      <trkpt lat="43.85972" lon="1.88105">
        <ele>150.549168</ele>
        <time>2026-08-29T06:38:34Z</time>
      </trkpt>
      <trkpt lat="43.85972" lon="1.88109">
        <ele>150.567741</ele>
        <time>2026-08-29T06:38:35Z</time>
      </trkpt>
      <trkpt lat="43.85973" lon="1.88114">
        <ele>150.589019</ele>
        <time>2026-08-29T06:38:36Z</time>
      </trkpt>
      <trkpt lat="43.85973" lon="1.8812">
        <ele>150.612724</ele>
        <time>2026-08-29T06:38:37Z</time>
      </trkpt>
      <trkpt lat="43.85973" lon="1.88126">
        <ele>150.638879</ele>
        <time>2026-08-29T06:38:38Z</time>
      </trkpt>
      <trkpt lat="43.85973" lon="1.88133">
        <ele>150.66626</ele>
        <time>2026-08-29T06:38:39Z</time>
      </trkpt>
      <trkpt lat="43.85973" lon="1.88139">
        <ele>150.693372</ele>
        <time>2026-08-29T06:38:40Z</time>
      </trkpt>
      <trkpt lat="43.85972" lon="1.88146">
        <ele>150.721215</ele>
        <time>2026-08-29T06:38:41Z</time>
      </trkpt>
      <trkpt lat="43.85972" lon="1.88152">
        <ele>150.748175</ele>
        <time>2026-08-29T06:38:42Z</time>
      </trkpt>
      <trkpt lat="43.85973" lon="1.88159">
        <ele>150.774362</ele>
        <time>2026-08-29T06:38:43Z</time>
      </trkpt>
      <trkpt lat="43.85973" lon="1.88165">
        <ele>150.801953</ele>
        <time>2026-08-29T06:38:44Z</time>
      </trkpt>
      <trkpt lat="43.85974" lon="1.88172">
        <ele>150.830121</ele>
        <time>2026-08-29T06:38:45Z</time>
      </trkpt>
      <trkpt lat="43.85975" lon="1.88179">
        <ele>150.859561</ele>
        <time>2026-08-29T06:38:46Z</time>
      </trkpt>
      <trkpt lat="43.85976" lon="1.88186">
        <ele>150.887792</ele>
        <time>2026-08-29T06:38:47Z</time>
      </trkpt>
      <trkpt lat="43.85978" lon="1.88192">
        <ele>150.914418</ele>
        <time>2026-08-29T06:38:48Z</time>
      </trkpt>
      <trkpt lat="43.85979" lon="1.88198">
        <ele>150.941579</ele>
        <time>2026-08-29T06:38:49Z</time>
      </trkpt>
      <trkpt lat="43.8598" lon="1.88204">
        <ele>150.968217</ele>
        <time>2026-08-29T06:38:50Z</time>
      </trkpt>
      <trkpt lat="43.8598" lon="1.88211">
        <ele>150.994341</ele>
        <time>2026-08-29T06:38:51Z</time>
      </trkpt>
      <trkpt lat="43.85981" lon="1.88217">
        <ele>151.020698</ele>
        <time>2026-08-29T06:38:52Z</time>
      </trkpt>
      <trkpt lat="43.85982" lon="1.88223">
        <ele>151.047137</ele>
        <time>2026-08-29T06:38:53Z</time>
      </trkpt>
      <trkpt lat="43.85982" lon="1.8823">
        <ele>151.074895</ele>
        <time>2026-08-29T06:38:54Z</time>
      </trkpt>
      <trkpt lat="43.85983" lon="1.88236">
        <ele>151.102462</ele>
        <time>2026-08-29T06:38:55Z</time>
      </trkpt>
      <trkpt lat="43.85984" lon="1.88243">
        <ele>151.130952</ele>
        <time>2026-08-29T06:38:56Z</time>
      </trkpt>
      <trkpt lat="43.85985" lon="1.8825">
        <ele>151.159219</ele>
        <time>2026-08-29T06:38:57Z</time>
      </trkpt>
      <trkpt lat="43.85986" lon="1.88256">
        <ele>151.185751</ele>
        <time>2026-08-29T06:38:58Z</time>
      </trkpt>
      <trkpt lat="43.85987" lon="1.88263">
        <ele>151.213204</ele>
        <time>2026-08-29T06:38:59Z</time>
      </trkpt>
      <trkpt lat="43.85987" lon="1.88269">
        <ele>151.240462</ele>
        <time>2026-08-29T06:39:00Z</time>
      </trkpt>
      <trkpt lat="43.85988" lon="1.88276">
        <ele>151.268952</ele>
        <time>2026-08-29T06:39:01Z</time>
      </trkpt>
      <trkpt lat="43.85989" lon="1.88282">
        <ele>151.29601</ele>
        <time>2026-08-29T06:39:02Z</time>
      </trkpt>
      <trkpt lat="43.85989" lon="1.88289">
        <ele>151.323679</ele>
        <time>2026-08-29T06:39:03Z</time>
      </trkpt>
      <trkpt lat="43.8599" lon="1.88296">
        <ele>151.352505</ele>
        <time>2026-08-29T06:39:04Z</time>
      </trkpt>
      <trkpt lat="43.85991" lon="1.88303">
        <ele>151.380737</ele>
        <time>2026-08-29T06:39:05Z</time>
      </trkpt>
      <trkpt lat="43.85992" lon="1.88309">
        <ele>151.381693</ele>
        <time>2026-08-29T06:39:06Z</time>
      </trkpt>
      <trkpt lat="43.85994" lon="1.88316">
        <ele>151.352394</ele>
        <time>2026-08-29T06:39:07Z</time>
      </trkpt>
      <trkpt lat="43.85996" lon="1.88323">
        <ele>151.321773</ele>
        <time>2026-08-29T06:39:08Z</time>
      </trkpt>
      <trkpt lat="43.85997" lon="1.8833">
        <ele>151.291842</ele>
        <time>2026-08-29T06:39:09Z</time>
      </trkpt>
      <trkpt lat="43.85999" lon="1.88337">
        <ele>151.259616</ele>
        <time>2026-08-29T06:39:10Z</time>
      </trkpt>
      <trkpt lat="43.86" lon="1.88345">
        <ele>151.228009</ele>
        <time>2026-08-29T06:39:11Z</time>
      </trkpt>
      <trkpt lat="43.86002" lon="1.88352">
        <ele>151.195255</ele>
        <time>2026-08-29T06:39:12Z</time>
      </trkpt>
      <trkpt lat="43.86004" lon="1.8836">
        <ele>151.161921</ele>
        <time>2026-08-29T06:39:13Z</time>
      </trkpt>
      <trkpt lat="43.86006" lon="1.88367">
        <ele>151.128199</ele>
        <time>2026-08-29T06:39:14Z</time>
      </trkpt>
      <trkpt lat="43.86008" lon="1.88375">
        <ele>151.093894</ele>
        <time>2026-08-29T06:39:15Z</time>
      </trkpt>
      <trkpt lat="43.8601" lon="1.88383">
        <ele>151.060752</ele>
        <time>2026-08-29T06:39:16Z</time>
      </trkpt>
      <trkpt lat="43.86012" lon="1.8839">
        <ele>151.027217</ele>
        <time>2026-08-29T06:39:17Z</time>
      </trkpt>
      <trkpt lat="43.86014" lon="1.88398">
        <ele>150.99524</ele>
        <time>2026-08-29T06:39:18Z</time>
      </trkpt>
      <trkpt lat="43.86016" lon="1.88405">
        <ele>150.963621</ele>
        <time>2026-08-29T06:39:19Z</time>
      </trkpt>
      <trkpt lat="43.86018" lon="1.88412">
        <ele>150.933</ele>
        <time>2026-08-29T06:39:20Z</time>
      </trkpt>
      <trkpt lat="43.8602" lon="1.88419">
        <ele>150.90078</ele>
        <time>2026-08-29T06:39:21Z</time>
      </trkpt>
      <trkpt lat="43.86022" lon="1.88426">
        <ele>150.86878</ele>
        <time>2026-08-29T06:39:22Z</time>
      </trkpt>
      <trkpt lat="43.86024" lon="1.88434">
        <ele>150.836415</ele>
        <time>2026-08-29T06:39:23Z</time>
      </trkpt>
      <trkpt lat="43.86026" lon="1.88441">
        <ele>150.80405</ele>
        <time>2026-08-29T06:39:24Z</time>
      </trkpt>
      <trkpt lat="43.86028" lon="1.88448">
        <ele>150.771872</ele>
        <time>2026-08-29T06:39:25Z</time>
      </trkpt>
      <trkpt lat="43.8603" lon="1.88456">
        <ele>150.738912</ele>
        <time>2026-08-29T06:39:26Z</time>
      </trkpt>
      <trkpt lat="43.86032" lon="1.88464">
        <ele>150.70538</ele>
        <time>2026-08-29T06:39:27Z</time>
      </trkpt>
      <trkpt lat="43.86034" lon="1.88471">
        <ele>150.674371</ele>
        <time>2026-08-29T06:39:28Z</time>
      </trkpt>
      <trkpt lat="43.86035" lon="1.88478">
        <ele>150.64375</ele>
        <time>2026-08-29T06:39:29Z</time>
      </trkpt>
      <trkpt lat="43.86038" lon="1.88485">
        <ele>150.612665</ele>
        <time>2026-08-29T06:39:30Z</time>
      </trkpt>
      <trkpt lat="43.86039" lon="1.88491">
        <ele>150.585145</ele>
        <time>2026-08-29T06:39:31Z</time>
      </trkpt>
      <trkpt lat="43.86041" lon="1.88497">
        <ele>150.556628</ele>
        <time>2026-08-29T06:39:32Z</time>
      </trkpt>
      <trkpt lat="43.86043" lon="1.88503">
        <ele>150.530611</ele>
        <time>2026-08-29T06:39:33Z</time>
      </trkpt>
      <trkpt lat="43.86044" lon="1.88508">
        <ele>150.509658</ele>
        <time>2026-08-29T06:39:34Z</time>
      </trkpt>
      <trkpt lat="43.86046" lon="1.88511">
        <ele>150.493585</ele>
        <time>2026-08-29T06:39:35Z</time>
      </trkpt>
      <trkpt lat="43.86048" lon="1.88514">
        <ele>150.476137</ele>
        <time>2026-08-29T06:39:36Z</time>
      </trkpt>
      <trkpt lat="43.86051" lon="1.88517">
        <ele>150.455349</ele>
        <time>2026-08-29T06:39:37Z</time>
      </trkpt>
      <trkpt lat="43.86054" lon="1.8852">
        <ele>150.433649</ele>
        <time>2026-08-29T06:39:38Z</time>
      </trkpt>
      <trkpt lat="43.86056" lon="1.88525">
        <ele>150.412518</ele>
        <time>2026-08-29T06:39:39Z</time>
      </trkpt>
      <trkpt lat="43.86057" lon="1.88529">
        <ele>150.390484</ele>
        <time>2026-08-29T06:39:40Z</time>
      </trkpt>
      <trkpt lat="43.86059" lon="1.88535">
        <ele>150.36838</ele>
        <time>2026-08-29T06:39:41Z</time>
      </trkpt>
      <trkpt lat="43.8606" lon="1.88539">
        <ele>150.336495</ele>
        <time>2026-08-29T06:39:42Z</time>
      </trkpt>
      <trkpt lat="43.86062" lon="1.88545">
        <ele>150.30052</ele>
        <time>2026-08-29T06:39:43Z</time>
      </trkpt>
      <trkpt lat="43.86064" lon="1.8855">
        <ele>150.262106</ele>
        <time>2026-08-29T06:39:44Z</time>
      </trkpt>
      <trkpt lat="43.86066" lon="1.88556">
        <ele>150.22314</ele>
        <time>2026-08-29T06:39:45Z</time>
      </trkpt>
      <trkpt lat="43.86068" lon="1.88562">
        <ele>150.179544</ele>
        <time>2026-08-29T06:39:46Z</time>
      </trkpt>
      <trkpt lat="43.86069" lon="1.88568">
        <ele>150.140965</ele>
        <time>2026-08-29T06:39:47Z</time>
      </trkpt>
      <trkpt lat="43.86071" lon="1.88574">
        <ele>150.098491</ele>
        <time>2026-08-29T06:39:48Z</time>
      </trkpt>
      <trkpt lat="43.86072" lon="1.88581">
        <ele>150.053414</ele>
        <time>2026-08-29T06:39:49Z</time>
      </trkpt>
      <trkpt lat="43.86075" lon="1.88588">
        <ele>150.008818</ele>
        <time>2026-08-29T06:39:50Z</time>
      </trkpt>
      <trkpt lat="43.86077" lon="1.88594">
        <ele>149.963416</ele>
        <time>2026-08-29T06:39:51Z</time>
      </trkpt>
      <trkpt lat="43.86078" lon="1.88601">
        <ele>149.921596</ele>
        <time>2026-08-29T06:39:52Z</time>
      </trkpt>
      <trkpt lat="43.8608" lon="1.88607">
        <ele>149.878001</ele>
        <time>2026-08-29T06:39:53Z</time>
      </trkpt>
      <trkpt lat="43.86082" lon="1.88614">
        <ele>149.832939</ele>
        <time>2026-08-29T06:39:54Z</time>
      </trkpt>
      <trkpt lat="43.86084" lon="1.8862">
        <ele>149.789604</ele>
        <time>2026-08-29T06:39:55Z</time>
      </trkpt>
      <trkpt lat="43.86085" lon="1.88626">
        <ele>149.748074</ele>
        <time>2026-08-29T06:39:56Z</time>
      </trkpt>
      <trkpt lat="43.86087" lon="1.88633">
        <ele>149.705645</ele>
        <time>2026-08-29T06:39:57Z</time>
      </trkpt>
      <trkpt lat="43.86089" lon="1.88639">
        <ele>149.662311</ele>
        <time>2026-08-29T06:39:58Z</time>
      </trkpt>
      <trkpt lat="43.8609" lon="1.88645">
        <ele>149.624016</ele>
        <time>2026-08-29T06:39:59Z</time>
      </trkpt>
      <trkpt lat="43.86092" lon="1.88651">
        <ele>149.58307</ele>
        <time>2026-08-29T06:40:00Z</time>
      </trkpt>
      <trkpt lat="43.86093" lon="1.88657">
        <ele>149.542272</ele>
        <time>2026-08-29T06:40:01Z</time>
      </trkpt>
      <trkpt lat="43.86094" lon="1.88664">
        <ele>149.500659</ele>
        <time>2026-08-29T06:40:02Z</time>
      </trkpt>
      <trkpt lat="43.86095" lon="1.88671">
        <ele>149.456008</ele>
        <time>2026-08-29T06:40:03Z</time>
      </trkpt>
      <trkpt lat="43.86097" lon="1.88677">
        <ele>149.412681</ele>
        <time>2026-08-29T06:40:04Z</time>
      </trkpt>
      <trkpt lat="43.86098" lon="1.88684">
        <ele>149.370447</ele>
        <time>2026-08-29T06:40:05Z</time>
      </trkpt>
      <trkpt lat="43.86099" lon="1.8869">
        <ele>149.329446</ele>
        <time>2026-08-29T06:40:06Z</time>
      </trkpt>
      <trkpt lat="43.861" lon="1.88696">
        <ele>149.291897</ele>
        <time>2026-08-29T06:40:07Z</time>
      </trkpt>
      <trkpt lat="43.86101" lon="1.88701">
        <ele>149.259765</ele>
        <time>2026-08-29T06:40:08Z</time>
      </trkpt>
      <trkpt lat="43.86103" lon="1.88705">
        <ele>149.230813</ele>
        <time>2026-08-29T06:40:09Z</time>
      </trkpt>
      <trkpt lat="43.86106" lon="1.88707">
        <ele>149.204034</ele>
        <time>2026-08-29T06:40:10Z</time>
      </trkpt>
      <trkpt lat="43.86109" lon="1.88708">
        <ele>149.176071</ele>
        <time>2026-08-29T06:40:11Z</time>
      </trkpt>
      <trkpt lat="43.86112" lon="1.88707">
        <ele>149.146223</ele>
        <time>2026-08-29T06:40:12Z</time>
      </trkpt>
      <trkpt lat="43.86116" lon="1.88706">
        <ele>149.112237</ele>
        <time>2026-08-29T06:40:13Z</time>
      </trkpt>
      <trkpt lat="43.8612" lon="1.88704">
        <ele>149.075416</ele>
        <time>2026-08-29T06:40:14Z</time>
      </trkpt>
      <trkpt lat="43.86125" lon="1.88703">
        <ele>149.036756</ele>
        <time>2026-08-29T06:40:15Z</time>
      </trkpt>
      <trkpt lat="43.86129" lon="1.88701">
        <ele>148.993579</ele>
        <time>2026-08-29T06:40:16Z</time>
      </trkpt>
      <trkpt lat="43.86134" lon="1.88699">
        <ele>148.94902</ele>
        <time>2026-08-29T06:40:17Z</time>
      </trkpt>
      <trkpt lat="43.8614" lon="1.88698">
        <ele>148.903615</ele>
        <time>2026-08-29T06:40:18Z</time>
      </trkpt>
      <trkpt lat="43.86145" lon="1.88696">
        <ele>148.857363</ele>
        <time>2026-08-29T06:40:19Z</time>
      </trkpt>
      <trkpt lat="43.8615" lon="1.88694">
        <ele>148.809136</ele>
        <time>2026-08-29T06:40:20Z</time>
      </trkpt>
      <trkpt lat="43.86155" lon="1.88692">
        <ele>148.763075</ele>
        <time>2026-08-29T06:40:21Z</time>
      </trkpt>
      <trkpt lat="43.8616" lon="1.8869">
        <ele>148.720229</ele>
        <time>2026-08-29T06:40:22Z</time>
      </trkpt>
      <trkpt lat="43.86165" lon="1.88689">
        <ele>148.677971</ele>
        <time>2026-08-29T06:40:23Z</time>
      </trkpt>
      <trkpt lat="43.86171" lon="1.88687">
        <ele>148.63202</ele>
        <time>2026-08-29T06:40:24Z</time>
      </trkpt>
      <trkpt lat="43.86176" lon="1.88685">
        <ele>148.585251</ele>
        <time>2026-08-29T06:40:25Z</time>
      </trkpt>
      <trkpt lat="43.86181" lon="1.88684">
        <ele>148.538619</ele>
        <time>2026-08-29T06:40:26Z</time>
      </trkpt>
      <trkpt lat="43.86186" lon="1.88682">
        <ele>148.495266</ele>
        <time>2026-08-29T06:40:27Z</time>
      </trkpt>
      <trkpt lat="43.86192" lon="1.8868">
        <ele>148.449456</ele>
        <time>2026-08-29T06:40:28Z</time>
      </trkpt>
      <trkpt lat="43.86197" lon="1.88679">
        <ele>148.403645</ele>
        <time>2026-08-29T06:40:29Z</time>
      </trkpt>
      <trkpt lat="43.86202" lon="1.88677">
        <ele>148.357835</ele>
        <time>2026-08-29T06:40:30Z</time>
      </trkpt>
      <trkpt lat="43.86208" lon="1.88675">
        <ele>148.311203</ele>
        <time>2026-08-29T06:40:31Z</time>
      </trkpt>
      <trkpt lat="43.86213" lon="1.88673">
        <ele>148.263614</ele>
        <time>2026-08-29T06:40:32Z</time>
      </trkpt>
      <trkpt lat="43.86219" lon="1.88672">
        <ele>148.21629</ele>
        <time>2026-08-29T06:40:33Z</time>
      </trkpt>
      <trkpt lat="43.86224" lon="1.8867">
        <ele>148.168965</ele>
        <time>2026-08-29T06:40:34Z</time>
      </trkpt>
      <trkpt lat="43.8623" lon="1.88669">
        <ele>148.122703</ele>
        <time>2026-08-29T06:40:35Z</time>
      </trkpt>
      <trkpt lat="43.86235" lon="1.88668">
        <ele>148.076648</ele>
        <time>2026-08-29T06:40:36Z</time>
      </trkpt>
      <trkpt lat="43.86241" lon="1.88667">
        <ele>148.028337</ele>
        <time>2026-08-29T06:40:37Z</time>
      </trkpt>
      <trkpt lat="43.86246" lon="1.88666">
        <ele>147.980148</ele>
        <time>2026-08-29T06:40:38Z</time>
      </trkpt>
      <trkpt lat="43.86252" lon="1.88665">
        <ele>147.93033</ele>
        <time>2026-08-29T06:40:39Z</time>
      </trkpt>
      <trkpt lat="43.86258" lon="1.88665">
        <ele>147.879711</ele>
        <time>2026-08-29T06:40:40Z</time>
      </trkpt>
      <trkpt lat="43.86264" lon="1.88664">
        <ele>147.829052</ele>
        <time>2026-08-29T06:40:41Z</time>
      </trkpt>
      <trkpt lat="43.8627" lon="1.88663">
        <ele>147.779968</ele>
        <time>2026-08-29T06:40:42Z</time>
      </trkpt>
      <trkpt lat="43.86276" lon="1.88663">
        <ele>147.73015</ele>
        <time>2026-08-29T06:40:43Z</time>
      </trkpt>
      <trkpt lat="43.86282" lon="1.88662">
        <ele>147.679564</ele>
        <time>2026-08-29T06:40:44Z</time>
      </trkpt>
      <trkpt lat="43.86288" lon="1.88662">
        <ele>147.630687</ele>
        <time>2026-08-29T06:40:45Z</time>
      </trkpt>
      <trkpt lat="43.86294" lon="1.88662">
        <ele>147.580868</ele>
        <time>2026-08-29T06:40:46Z</time>
      </trkpt>
      <trkpt lat="43.863" lon="1.88661">
        <ele>147.530282</ele>
        <time>2026-08-29T06:40:47Z</time>
      </trkpt>
      <trkpt lat="43.86306" lon="1.88661">
        <ele>147.478856</ele>
        <time>2026-08-29T06:40:48Z</time>
      </trkpt>
      <trkpt lat="43.86312" lon="1.8866">
        <ele>147.429978</ele>
        <time>2026-08-29T06:40:49Z</time>
      </trkpt>
      <trkpt lat="43.86318" lon="1.8866">
        <ele>147.379436</ele>
        <time>2026-08-29T06:40:50Z</time>
      </trkpt>
      <trkpt lat="43.86324" lon="1.8866">
        <ele>147.32801</ele>
        <time>2026-08-29T06:40:51Z</time>
      </trkpt>
      <trkpt lat="43.8633" lon="1.88659">
        <ele>147.24709</ele>
        <time>2026-08-29T06:40:52Z</time>
      </trkpt>
      <trkpt lat="43.86336" lon="1.88658">
        <ele>147.078585</ele>
        <time>2026-08-29T06:40:53Z</time>
      </trkpt>
      <trkpt lat="43.86342" lon="1.88658">
        <ele>146.910823</ele>
        <time>2026-08-29T06:40:54Z</time>
      </trkpt>
      <trkpt lat="43.86348" lon="1.88657">
        <ele>146.745645</ele>
        <time>2026-08-29T06:40:55Z</time>
      </trkpt>
      <trkpt lat="43.86354" lon="1.88656">
        <ele>146.574826</ele>
        <time>2026-08-29T06:40:56Z</time>
      </trkpt>
      <trkpt lat="43.8636" lon="1.88655">
        <ele>146.40947</ele>
        <time>2026-08-29T06:40:57Z</time>
      </trkpt>
      <trkpt lat="43.86366" lon="1.88655">
        <ele>146.246639</ele>
        <time>2026-08-29T06:40:58Z</time>
      </trkpt>
      <trkpt lat="43.86372" lon="1.88654">
        <ele>146.086304</ele>
        <time>2026-08-29T06:40:59Z</time>
      </trkpt>
      <trkpt lat="43.86377" lon="1.88653">
        <ele>145.929138</ele>
        <time>2026-08-29T06:41:00Z</time>
      </trkpt>
      <trkpt lat="43.86383" lon="1.88652">
        <ele>145.785816</ele>
        <time>2026-08-29T06:41:01Z</time>
      </trkpt>
      <trkpt lat="43.86387" lon="1.88653">
        <ele>145.677664</ele>
        <time>2026-08-29T06:41:02Z</time>
      </trkpt>
      <trkpt lat="43.86389" lon="1.88656">
        <ele>145.583982</ele>
        <time>2026-08-29T06:41:03Z</time>
      </trkpt>
      <trkpt lat="43.8639" lon="1.88659">
        <ele>145.508973</ele>
        <time>2026-08-29T06:41:04Z</time>
      </trkpt>
      <trkpt lat="43.86388" lon="1.88663">
        <ele>145.427136</ele>
        <time>2026-08-29T06:41:05Z</time>
      </trkpt>
      <trkpt lat="43.86386" lon="1.88666">
        <ele>145.340079</ele>
        <time>2026-08-29T06:41:06Z</time>
      </trkpt>
      <trkpt lat="43.86384" lon="1.8867">
        <ele>145.238332</ele>
        <time>2026-08-29T06:41:07Z</time>
      </trkpt>
      <trkpt lat="43.86381" lon="1.88674">
        <ele>145.124274</ele>
        <time>2026-08-29T06:41:08Z</time>
      </trkpt>
      <trkpt lat="43.86378" lon="1.88679">
        <ele>145.000118</ele>
        <time>2026-08-29T06:41:09Z</time>
      </trkpt>
      <trkpt lat="43.86375" lon="1.88683">
        <ele>144.885516</ele>
        <time>2026-08-29T06:41:10Z</time>
      </trkpt>
      <trkpt lat="43.86372" lon="1.88688">
        <ele>144.759872</ele>
        <time>2026-08-29T06:41:11Z</time>
      </trkpt>
      <trkpt lat="43.86369" lon="1.88693">
        <ele>144.632727</ele>
        <time>2026-08-29T06:41:12Z</time>
      </trkpt>
      <trkpt lat="43.86366" lon="1.88698">
        <ele>144.505582</ele>
        <time>2026-08-29T06:41:13Z</time>
      </trkpt>
      <trkpt lat="43.86363" lon="1.88703">
        <ele>144.372403</ele>
        <time>2026-08-29T06:41:14Z</time>
      </trkpt>
      <trkpt lat="43.86361" lon="1.88709">
        <ele>144.242321</ele>
        <time>2026-08-29T06:41:15Z</time>
      </trkpt>
      <trkpt lat="43.86357" lon="1.88715">
        <ele>144.095736</ele>
        <time>2026-08-29T06:41:16Z</time>
      </trkpt>
      <trkpt lat="43.86354" lon="1.8872">
        <ele>143.947651</ele>
        <time>2026-08-29T06:41:17Z</time>
      </trkpt>
      <trkpt lat="43.8635" lon="1.88726">
        <ele>143.798405</ele>
        <time>2026-08-29T06:41:18Z</time>
      </trkpt>
      <trkpt lat="43.86345" lon="1.88731">
        <ele>143.635912</ele>
        <time>2026-08-29T06:41:19Z</time>
      </trkpt>
      <trkpt lat="43.86341" lon="1.88737">
        <ele>143.461736</ele>
        <time>2026-08-29T06:41:20Z</time>
      </trkpt>
      <trkpt lat="43.86336" lon="1.88743">
        <ele>143.282922</ele>
        <time>2026-08-29T06:41:21Z</time>
      </trkpt>
      <trkpt lat="43.86331" lon="1.88748">
        <ele>143.108282</ele>
        <time>2026-08-29T06:41:22Z</time>
      </trkpt>
      <trkpt lat="43.86326" lon="1.88755">
        <ele>142.916245</ele>
        <time>2026-08-29T06:41:23Z</time>
      </trkpt>
      <trkpt lat="43.86321" lon="1.88762">
        <ele>142.718972</ele>
        <time>2026-08-29T06:41:24Z</time>
      </trkpt>
      <trkpt lat="43.86316" lon="1.8877">
        <ele>142.518423</ele>
        <time>2026-08-29T06:41:25Z</time>
      </trkpt>
      <trkpt lat="43.86313" lon="1.88779">
        <ele>142.369829</ele>
        <time>2026-08-29T06:41:26Z</time>
      </trkpt>
      <trkpt lat="43.86309" lon="1.88789">
        <ele>142.436594</ele>
        <time>2026-08-29T06:41:27Z</time>
      </trkpt>
      <trkpt lat="43.86307" lon="1.88799">
        <ele>142.502821</ele>
        <time>2026-08-29T06:41:28Z</time>
      </trkpt>
      <trkpt lat="43.86305" lon="1.88809">
        <ele>142.572584</ele>
        <time>2026-08-29T06:41:29Z</time>
      </trkpt>
      <trkpt lat="43.86304" lon="1.8882">
        <ele>142.64297</ele>
        <time>2026-08-29T06:41:30Z</time>
      </trkpt>
      <trkpt lat="43.86302" lon="1.88831">
        <ele>142.715696</ele>
        <time>2026-08-29T06:41:31Z</time>
      </trkpt>
      <trkpt lat="43.86302" lon="1.88843">
        <ele>142.789349</ele>
        <time>2026-08-29T06:41:32Z</time>
      </trkpt>
      <trkpt lat="43.86302" lon="1.88855">
        <ele>142.867209</ele>
        <time>2026-08-29T06:41:33Z</time>
      </trkpt>
      <trkpt lat="43.86303" lon="1.88867">
        <ele>142.941789</ele>
        <time>2026-08-29T06:41:34Z</time>
      </trkpt>
      <trkpt lat="43.86304" lon="1.88878">
        <ele>143.012763</ele>
        <time>2026-08-29T06:41:35Z</time>
      </trkpt>
      <trkpt lat="43.86306" lon="1.88888">
        <ele>143.08231</ele>
        <time>2026-08-29T06:41:36Z</time>
      </trkpt>
      <trkpt lat="43.86307" lon="1.88897">
        <ele>143.141556</ele>
        <time>2026-08-29T06:41:37Z</time>
      </trkpt>
      <trkpt lat="43.86308" lon="1.88907">
        <ele>143.200624</ele>
        <time>2026-08-29T06:41:38Z</time>
      </trkpt>
      <trkpt lat="43.86309" lon="1.88915">
        <ele>143.255956</ele>
        <time>2026-08-29T06:41:39Z</time>
      </trkpt>
      <trkpt lat="43.8631" lon="1.88923">
        <ele>143.303742</ele>
        <time>2026-08-29T06:41:40Z</time>
      </trkpt>
      <trkpt lat="43.8631" lon="1.8893">
        <ele>143.347712</ele>
        <time>2026-08-29T06:41:41Z</time>
      </trkpt>
      <trkpt lat="43.8631" lon="1.88936">
        <ele>143.389735</ele>
        <time>2026-08-29T06:41:42Z</time>
      </trkpt>
      <trkpt lat="43.8631" lon="1.88942">
        <ele>143.424118</ele>
        <time>2026-08-29T06:41:43Z</time>
      </trkpt>
      <trkpt lat="43.8631" lon="1.88947">
        <ele>143.455954</ele>
        <time>2026-08-29T06:41:44Z</time>
      </trkpt>
      <trkpt lat="43.86309" lon="1.8895">
        <ele>143.481036</ele>
        <time>2026-08-29T06:41:45Z</time>
      </trkpt>
      <trkpt lat="43.86309" lon="1.88954">
        <ele>143.504563</ele>
        <time>2026-08-29T06:41:46Z</time>
      </trkpt>
      <trkpt lat="43.86308" lon="1.88957">
        <ele>143.527027</ele>
        <time>2026-08-29T06:41:47Z</time>
      </trkpt>
      <trkpt lat="43.86307" lon="1.88961">
        <ele>143.554964</ele>
        <time>2026-08-29T06:41:48Z</time>
      </trkpt>
      <trkpt lat="43.86305" lon="1.88965">
        <ele>143.583672</ele>
        <time>2026-08-29T06:41:49Z</time>
      </trkpt>
      <trkpt lat="43.86304" lon="1.8897">
        <ele>143.613515</ele>
        <time>2026-08-29T06:41:50Z</time>
      </trkpt>
      <trkpt lat="43.86302" lon="1.88974">
        <ele>143.642281</ele>
        <time>2026-08-29T06:41:51Z</time>
      </trkpt>
      <trkpt lat="43.86301" lon="1.88977">
        <ele>143.66666</ele>
        <time>2026-08-29T06:41:52Z</time>
      </trkpt>
      <trkpt lat="43.863" lon="1.8898">
        <ele>143.688403</ele>
        <time>2026-08-29T06:41:53Z</time>
      </trkpt>
      <trkpt lat="43.86298" lon="1.88983">
        <ele>143.714328</ele>
        <time>2026-08-29T06:41:54Z</time>
      </trkpt>
      <trkpt lat="43.86297" lon="1.88986">
        <ele>143.738088</ele>
        <time>2026-08-29T06:41:55Z</time>
      </trkpt>
      <trkpt lat="43.86294" lon="1.88989">
        <ele>143.763813</ele>
        <time>2026-08-29T06:41:56Z</time>
      </trkpt>
      <trkpt lat="43.86292" lon="1.88992">
        <ele>143.790423</ele>
        <time>2026-08-29T06:41:57Z</time>
      </trkpt>
      <trkpt lat="43.86289" lon="1.88995">
        <ele>143.819818</ele>
        <time>2026-08-29T06:41:58Z</time>
      </trkpt>
      <trkpt lat="43.86287" lon="1.88997">
        <ele>143.848888</ele>
        <time>2026-08-29T06:41:59Z</time>
      </trkpt>
      <trkpt lat="43.86284" lon="1.89">
        <ele>143.877195</ele>
        <time>2026-08-29T06:42:00Z</time>
      </trkpt>
      <trkpt lat="43.86282" lon="1.89003">
        <ele>143.907039</ele>
        <time>2026-08-29T06:42:01Z</time>
      </trkpt>
      <trkpt lat="43.8628" lon="1.89007">
        <ele>143.933434</ele>
        <time>2026-08-29T06:42:02Z</time>
      </trkpt>
      <trkpt lat="43.86278" lon="1.89009">
        <ele>144.014406</ele>
        <time>2026-08-29T06:42:03Z</time>
      </trkpt>
      <trkpt lat="43.86276" lon="1.89012">
        <ele>144.154772</ele>
        <time>2026-08-29T06:42:04Z</time>
      </trkpt>
      <trkpt lat="43.86274" lon="1.89015">
        <ele>144.298533</ele>
        <time>2026-08-29T06:42:05Z</time>
      </trkpt>
      <trkpt lat="43.86271" lon="1.89018">
        <ele>144.45527</ele>
        <time>2026-08-29T06:42:06Z</time>
      </trkpt>
      <trkpt lat="43.86269" lon="1.89021">
        <ele>144.622728</ele>
        <time>2026-08-29T06:42:07Z</time>
      </trkpt>
      <trkpt lat="43.86266" lon="1.89023">
        <ele>144.770226</ele>
        <time>2026-08-29T06:42:08Z</time>
      </trkpt>
      <trkpt lat="43.86264" lon="1.89026">
        <ele>144.9082</ele>
        <time>2026-08-29T06:42:09Z</time>
      </trkpt>
      <trkpt lat="43.86262" lon="1.89028">
        <ele>145.052144</ele>
        <time>2026-08-29T06:42:10Z</time>
      </trkpt>
      <trkpt lat="43.86259" lon="1.89031">
        <ele>145.209713</ele>
        <time>2026-08-29T06:42:11Z</time>
      </trkpt>
      <trkpt lat="43.86256" lon="1.89034">
        <ele>145.376044</ele>
        <time>2026-08-29T06:42:12Z</time>
      </trkpt>
      <trkpt lat="43.86253" lon="1.89037">
        <ele>145.561796</ele>
        <time>2026-08-29T06:42:13Z</time>
      </trkpt>
      <trkpt lat="43.86251" lon="1.89041">
        <ele>145.740048</ele>
        <time>2026-08-29T06:42:14Z</time>
      </trkpt>
      <trkpt lat="43.86248" lon="1.89044">
        <ele>145.90868</ele>
        <time>2026-08-29T06:42:15Z</time>
      </trkpt>
      <trkpt lat="43.86245" lon="1.89047">
        <ele>146.082035</ele>
        <time>2026-08-29T06:42:16Z</time>
      </trkpt>
      <trkpt lat="43.86243" lon="1.89051">
        <ele>146.242573</ele>
        <time>2026-08-29T06:42:17Z</time>
      </trkpt>
      <trkpt lat="43.86241" lon="1.89053">
        <ele>146.373303</ele>
        <time>2026-08-29T06:42:18Z</time>
      </trkpt>
      <trkpt lat="43.8624" lon="1.89056">
        <ele>146.507146</ele>
        <time>2026-08-29T06:42:19Z</time>
      </trkpt>
      <trkpt lat="43.86238" lon="1.89059">
        <ele>146.645006</ele>
        <time>2026-08-29T06:42:20Z</time>
      </trkpt>
      <trkpt lat="43.86235" lon="1.89062">
        <ele>146.800591</ele>
        <time>2026-08-29T06:42:21Z</time>
      </trkpt>
      <trkpt lat="43.86233" lon="1.89065">
        <ele>146.972882</ele>
        <time>2026-08-29T06:42:22Z</time>
      </trkpt>
      <trkpt lat="43.8623" lon="1.89069">
        <ele>147.165331</ele>
        <time>2026-08-29T06:42:23Z</time>
      </trkpt>
      <trkpt lat="43.86227" lon="1.89073">
        <ele>147.348566</ele>
        <time>2026-08-29T06:42:24Z</time>
      </trkpt>
      <trkpt lat="43.86224" lon="1.89076">
        <ele>147.524339</ele>
        <time>2026-08-29T06:42:25Z</time>
      </trkpt>
      <trkpt lat="43.86222" lon="1.8908">
        <ele>147.702566</ele>
        <time>2026-08-29T06:42:26Z</time>
      </trkpt>
      <trkpt lat="43.86219" lon="1.89084">
        <ele>147.906886</ele>
        <time>2026-08-29T06:42:27Z</time>
      </trkpt>
      <trkpt lat="43.86217" lon="1.89088">
        <ele>148.080425</ele>
        <time>2026-08-29T06:42:28Z</time>
      </trkpt>
      <trkpt lat="43.86214" lon="1.89092">
        <ele>148.26114</ele>
        <time>2026-08-29T06:42:29Z</time>
      </trkpt>
      <trkpt lat="43.86211" lon="1.89095">
        <ele>148.436913</ele>
        <time>2026-08-29T06:42:30Z</time>
      </trkpt>
      <trkpt lat="43.86209" lon="1.89099">
        <ele>148.60841</ele>
        <time>2026-08-29T06:42:31Z</time>
      </trkpt>
      <trkpt lat="43.86206" lon="1.89102">
        <ele>148.779385</ele>
        <time>2026-08-29T06:42:32Z</time>
      </trkpt>
      <trkpt lat="43.86204" lon="1.89105">
        <ele>148.938485</ele>
        <time>2026-08-29T06:42:33Z</time>
      </trkpt>
      <trkpt lat="43.86201" lon="1.89109">
        <ele>149.121345</ele>
        <time>2026-08-29T06:42:34Z</time>
      </trkpt>
      <trkpt lat="43.86199" lon="1.89112">
        <ele>149.280611</ele>
        <time>2026-08-29T06:42:35Z</time>
      </trkpt>
      <trkpt lat="43.86197" lon="1.89116">
        <ele>149.443023</ele>
        <time>2026-08-29T06:42:36Z</time>
      </trkpt>
      <trkpt lat="43.86194" lon="1.89119">
        <ele>149.620387</ele>
        <time>2026-08-29T06:42:37Z</time>
      </trkpt>
      <trkpt lat="43.86192" lon="1.89123">
        <ele>149.794971</ele>
        <time>2026-08-29T06:42:38Z</time>
      </trkpt>
      <trkpt lat="43.86189" lon="1.89126">
        <ele>149.971887</ele>
        <time>2026-08-29T06:42:39Z</time>
      </trkpt>
      <trkpt lat="43.86186" lon="1.89129">
        <ele>150.144179</ele>
        <time>2026-08-29T06:42:40Z</time>
      </trkpt>
      <trkpt lat="43.86183" lon="1.89132">
        <ele>150.326156</ele>
        <time>2026-08-29T06:42:41Z</time>
      </trkpt>
      <trkpt lat="43.8618" lon="1.89136">
        <ele>150.526043</ele>
        <time>2026-08-29T06:42:42Z</time>
      </trkpt>
      <trkpt lat="43.86177" lon="1.89139">
        <ele>150.711483</ele>
        <time>2026-08-29T06:42:43Z</time>
      </trkpt>
      <trkpt lat="43.86174" lon="1.89142">
        <ele>150.901662</ele>
        <time>2026-08-29T06:42:44Z</time>
      </trkpt>
      <trkpt lat="43.86172" lon="1.89146">
        <ele>151.06561</ele>
        <time>2026-08-29T06:42:45Z</time>
      </trkpt>
      <trkpt lat="43.86169" lon="1.89149">
        <ele>151.224711</ele>
        <time>2026-08-29T06:42:46Z</time>
      </trkpt>
      <trkpt lat="43.86167" lon="1.89152">
        <ele>151.381918</ele>
        <time>2026-08-29T06:42:47Z</time>
      </trkpt>
      <trkpt lat="43.86165" lon="1.89155">
        <ele>151.539124</ele>
        <time>2026-08-29T06:42:48Z</time>
      </trkpt>
      <trkpt lat="43.86163" lon="1.89159">
        <ele>151.696331</ele>
        <time>2026-08-29T06:42:49Z</time>
      </trkpt>
      <trkpt lat="43.8616" lon="1.89162">
        <ele>151.844794</ele>
        <time>2026-08-29T06:42:50Z</time>
      </trkpt>
      <trkpt lat="43.86158" lon="1.89165">
        <ele>152.003895</ele>
        <time>2026-08-29T06:42:51Z</time>
      </trkpt>
      <trkpt lat="43.86155" lon="1.89168">
        <ele>152.181259</ele>
        <time>2026-08-29T06:42:52Z</time>
      </trkpt>
      <trkpt lat="43.86153" lon="1.89172">
        <ele>152.340223</ele>
        <time>2026-08-29T06:42:53Z</time>
      </trkpt>
      <trkpt lat="43.86151" lon="1.89176">
        <ele>152.519178</ele>
        <time>2026-08-29T06:42:54Z</time>
      </trkpt>
      <trkpt lat="43.86149" lon="1.8918">
        <ele>152.695332</ele>
        <time>2026-08-29T06:42:55Z</time>
      </trkpt>
      <trkpt lat="43.86147" lon="1.89184">
        <ele>152.870048</ele>
        <time>2026-08-29T06:42:56Z</time>
      </trkpt>
      <trkpt lat="43.86145" lon="1.89188">
        <ele>153.053056</ele>
        <time>2026-08-29T06:42:57Z</time>
      </trkpt>
      <trkpt lat="43.86143" lon="1.89193">
        <ele>153.236065</ele>
        <time>2026-08-29T06:42:58Z</time>
      </trkpt>
      <trkpt lat="43.86141" lon="1.89197">
        <ele>153.408869</ele>
        <time>2026-08-29T06:42:59Z</time>
      </trkpt>
      <trkpt lat="43.8614" lon="1.89201">
        <ele>153.567744</ele>
        <time>2026-08-29T06:43:00Z</time>
      </trkpt>
      <trkpt lat="43.86138" lon="1.89205">
        <ele>153.726619</ele>
        <time>2026-08-29T06:43:01Z</time>
      </trkpt>
      <trkpt lat="43.86137" lon="1.89209">
        <ele>153.886475</ele>
        <time>2026-08-29T06:43:02Z</time>
      </trkpt>
      <trkpt lat="43.86135" lon="1.89213">
        <ele>154.054799</ele>
        <time>2026-08-29T06:43:03Z</time>
      </trkpt>
      <trkpt lat="43.86134" lon="1.89218">
        <ele>154.225623</ele>
        <time>2026-08-29T06:43:04Z</time>
      </trkpt>
      <trkpt lat="43.86133" lon="1.89223">
        <ele>154.399723</ele>
        <time>2026-08-29T06:43:05Z</time>
      </trkpt>
      <trkpt lat="43.86131" lon="1.89227">
        <ele>154.562199</ele>
        <time>2026-08-29T06:43:06Z</time>
      </trkpt>
      <trkpt lat="43.8613" lon="1.89231">
        <ele>154.729757</ele>
        <time>2026-08-29T06:43:07Z</time>
      </trkpt>
      <trkpt lat="43.86129" lon="1.89236">
        <ele>154.907142</ele>
        <time>2026-08-29T06:43:08Z</time>
      </trkpt>
      <trkpt lat="43.86127" lon="1.89241">
        <ele>155.087822</ele>
        <time>2026-08-29T06:43:09Z</time>
      </trkpt>
      <trkpt lat="43.86126" lon="1.89246">
        <ele>155.268502</ele>
        <time>2026-08-29T06:43:10Z</time>
      </trkpt>
      <trkpt lat="43.86125" lon="1.8925">
        <ele>155.43606</ele>
        <time>2026-08-29T06:43:11Z</time>
      </trkpt>
      <trkpt lat="43.86124" lon="1.89254">
        <ele>155.605127</ele>
        <time>2026-08-29T06:43:12Z</time>
      </trkpt>
      <trkpt lat="43.86122" lon="1.89259">
        <ele>155.779227</ele>
        <time>2026-08-29T06:43:13Z</time>
      </trkpt>
      <trkpt lat="43.86121" lon="1.89264">
        <ele>155.950052</ele>
        <time>2026-08-29T06:43:14Z</time>
      </trkpt>
      <trkpt lat="43.8612" lon="1.89268">
        <ele>156.115982</ele>
        <time>2026-08-29T06:43:15Z</time>
      </trkpt>
      <trkpt lat="43.86119" lon="1.89272">
        <ele>156.275191</ele>
        <time>2026-08-29T06:43:16Z</time>
      </trkpt>
      <trkpt lat="43.86118" lon="1.89277">
        <ele>156.440958</ele>
        <time>2026-08-29T06:43:17Z</time>
      </trkpt>
      <trkpt lat="43.86116" lon="1.89281">
        <ele>156.607212</ele>
        <time>2026-08-29T06:43:18Z</time>
      </trkpt>
      <trkpt lat="43.86115" lon="1.89285">
        <ele>156.76182</ele>
        <time>2026-08-29T06:43:19Z</time>
      </trkpt>
      <trkpt lat="43.86114" lon="1.89289">
        <ele>156.917745</ele>
        <time>2026-08-29T06:43:20Z</time>
      </trkpt>
      <trkpt lat="43.86113" lon="1.89293">
        <ele>157.07694</ele>
        <time>2026-08-29T06:43:21Z</time>
      </trkpt>
      <trkpt lat="43.86112" lon="1.89298">
        <ele>157.239506</ele>
        <time>2026-08-29T06:43:22Z</time>
      </trkpt>
      <trkpt lat="43.86111" lon="1.89302">
        <ele>157.390528</ele>
        <time>2026-08-29T06:43:23Z</time>
      </trkpt>
      <trkpt lat="43.8611" lon="1.89306">
        <ele>157.533409</ele>
        <time>2026-08-29T06:43:24Z</time>
      </trkpt>
      <trkpt lat="43.86109" lon="1.8931">
        <ele>157.67503</ele>
        <time>2026-08-29T06:43:25Z</time>
      </trkpt>
      <trkpt lat="43.86109" lon="1.89314">
        <ele>157.818999</ele>
        <time>2026-08-29T06:43:26Z</time>
      </trkpt>
      <trkpt lat="43.86108" lon="1.89318">
        <ele>157.973333</ele>
        <time>2026-08-29T06:43:27Z</time>
      </trkpt>
      <trkpt lat="43.86107" lon="1.89322">
        <ele>158.118377</ele>
        <time>2026-08-29T06:43:28Z</time>
      </trkpt>
      <trkpt lat="43.86106" lon="1.89326">
        <ele>158.274236</ele>
        <time>2026-08-29T06:43:29Z</time>
      </trkpt>
      <trkpt lat="43.86105" lon="1.89331">
        <ele>158.44836</ele>
        <time>2026-08-29T06:43:30Z</time>
      </trkpt>
      <trkpt lat="43.86105" lon="1.89335">
        <ele>158.600262</ele>
        <time>2026-08-29T06:43:31Z</time>
      </trkpt>
      <trkpt lat="43.86104" lon="1.89339">
        <ele>158.738467</ele>
        <time>2026-08-29T06:43:32Z</time>
      </trkpt>
      <trkpt lat="43.86103" lon="1.89343">
        <ele>158.880088</ele>
        <time>2026-08-29T06:43:33Z</time>
      </trkpt>
      <trkpt lat="43.86103" lon="1.89347">
        <ele>159.025132</ele>
        <time>2026-08-29T06:43:34Z</time>
      </trkpt>
      <trkpt lat="43.86102" lon="1.89351">
        <ele>159.174316</ele>
        <time>2026-08-29T06:43:35Z</time>
      </trkpt>
      <trkpt lat="43.86101" lon="1.89355">
        <ele>159.317197</ele>
        <time>2026-08-29T06:43:36Z</time>
      </trkpt>
      <trkpt lat="43.861" lon="1.89359">
        <ele>159.458818</ele>
        <time>2026-08-29T06:43:37Z</time>
      </trkpt>
      <trkpt lat="43.86099" lon="1.89363">
        <ele>159.607289</ele>
        <time>2026-08-29T06:43:38Z</time>
      </trkpt>
      <trkpt lat="43.86099" lon="1.89367">
        <ele>159.753562</ele>
        <time>2026-08-29T06:43:39Z</time>
      </trkpt>
      <trkpt lat="43.86098" lon="1.89371">
        <ele>159.902286</ele>
        <time>2026-08-29T06:43:40Z</time>
      </trkpt>
      <trkpt lat="43.86097" lon="1.89375">
        <ele>160.055362</ele>
        <time>2026-08-29T06:43:41Z</time>
      </trkpt>
      <trkpt lat="43.86097" lon="1.89379">
        <ele>160.200406</ele>
        <time>2026-08-29T06:43:42Z</time>
      </trkpt>
      <trkpt lat="43.86096" lon="1.89383">
        <ele>160.339901</ele>
        <time>2026-08-29T06:43:43Z</time>
      </trkpt>
      <trkpt lat="43.86095" lon="1.89387">
        <ele>160.472551</ele>
        <time>2026-08-29T06:43:44Z</time>
      </trkpt>
      <trkpt lat="43.86095" lon="1.8939">
        <ele>160.606188</ele>
        <time>2026-08-29T06:43:45Z</time>
      </trkpt>
      <trkpt lat="43.86094" lon="1.89394">
        <ele>160.747131</ele>
        <time>2026-08-29T06:43:46Z</time>
      </trkpt>
      <trkpt lat="43.86093" lon="1.89398">
        <ele>160.890012</ele>
        <time>2026-08-29T06:43:47Z</time>
      </trkpt>
      <trkpt lat="43.86093" lon="1.89402">
        <ele>161.023649</ele>
        <time>2026-08-29T06:43:48Z</time>
      </trkpt>
      <trkpt lat="43.86093" lon="1.89405">
        <ele>161.158973</ele>
        <time>2026-08-29T06:43:49Z</time>
      </trkpt>
      <trkpt lat="43.86094" lon="1.89409">
        <ele>161.311638</ele>
        <time>2026-08-29T06:43:50Z</time>
      </trkpt>
      <trkpt lat="43.86096" lon="1.89413">
        <ele>161.454946</ele>
        <time>2026-08-29T06:43:51Z</time>
      </trkpt>
      <trkpt lat="43.86098" lon="1.89417">
        <ele>161.365578</ele>
        <time>2026-08-29T06:43:52Z</time>
      </trkpt>
      <trkpt lat="43.86101" lon="1.8942">
        <ele>161.276381</ele>
        <time>2026-08-29T06:43:53Z</time>
      </trkpt>
      <trkpt lat="43.86103" lon="1.89423">
        <ele>161.185059</ele>
        <time>2026-08-29T06:43:54Z</time>
      </trkpt>
      <trkpt lat="43.86106" lon="1.89427">
        <ele>161.086919</ele>
        <time>2026-08-29T06:43:55Z</time>
      </trkpt>
      <trkpt lat="43.86109" lon="1.89431">
        <ele>160.976752</ele>
        <time>2026-08-29T06:43:56Z</time>
      </trkpt>
      <trkpt lat="43.86113" lon="1.89435">
        <ele>160.854666</ele>
        <time>2026-08-29T06:43:57Z</time>
      </trkpt>
      <trkpt lat="43.86117" lon="1.8944">
        <ele>160.716701</ele>
        <time>2026-08-29T06:43:58Z</time>
      </trkpt>
      <trkpt lat="43.86121" lon="1.89447">
        <ele>160.557167</ele>
        <time>2026-08-29T06:43:59Z</time>
      </trkpt>
      <trkpt lat="43.86125" lon="1.89454">
        <ele>160.390728</ele>
        <time>2026-08-29T06:44:00Z</time>
      </trkpt>
      <trkpt lat="43.86129" lon="1.89461">
        <ele>160.214853</ele>
        <time>2026-08-29T06:44:01Z</time>
      </trkpt>
      <trkpt lat="43.86133" lon="1.89468">
        <ele>160.048003</ele>
        <time>2026-08-29T06:44:02Z</time>
      </trkpt>
      <trkpt lat="43.86138" lon="1.89475">
        <ele>159.861248</ele>
        <time>2026-08-29T06:44:03Z</time>
      </trkpt>
      <trkpt lat="43.86144" lon="1.89481">
        <ele>159.672878</ele>
        <time>2026-08-29T06:44:04Z</time>
      </trkpt>
      <trkpt lat="43.86151" lon="1.89486">
        <ele>159.476703</ele>
        <time>2026-08-29T06:44:05Z</time>
      </trkpt>
      <trkpt lat="43.86158" lon="1.8949">
        <ele>159.269693</ele>
        <time>2026-08-29T06:44:06Z</time>
      </trkpt>
      <trkpt lat="43.86166" lon="1.89493">
        <ele>159.052709</ele>
        <time>2026-08-29T06:44:07Z</time>
      </trkpt>
      <trkpt lat="43.86175" lon="1.89495">
        <ele>158.830484</ele>
        <time>2026-08-29T06:44:08Z</time>
      </trkpt>
      <trkpt lat="43.86184" lon="1.89496">
        <ele>158.605419</ele>
        <time>2026-08-29T06:44:09Z</time>
      </trkpt>
      <trkpt lat="43.86192" lon="1.89498">
        <ele>158.375528</ele>
        <time>2026-08-29T06:44:10Z</time>
      </trkpt>
      <trkpt lat="43.86201" lon="1.895">
        <ele>158.151514</ele>
        <time>2026-08-29T06:44:11Z</time>
      </trkpt>
      <trkpt lat="43.8621" lon="1.89502">
        <ele>157.923897</ele>
        <time>2026-08-29T06:44:12Z</time>
      </trkpt>
      <trkpt lat="43.86218" lon="1.89504">
        <ele>157.693726</ele>
        <time>2026-08-29T06:44:13Z</time>
      </trkpt>
      <trkpt lat="43.86227" lon="1.89505">
        <ele>157.465008</ele>
        <time>2026-08-29T06:44:14Z</time>
      </trkpt>
      <trkpt lat="43.86236" lon="1.89506">
        <ele>157.240994</ele>
        <time>2026-08-29T06:44:15Z</time>
      </trkpt>
      <trkpt lat="43.86245" lon="1.89508">
        <ele>157.013659</ele>
        <time>2026-08-29T06:44:16Z</time>
      </trkpt>
      <trkpt lat="43.86253" lon="1.8951">
        <ele>156.801154</ele>
        <time>2026-08-29T06:44:17Z</time>
      </trkpt>
      <trkpt lat="43.8626" lon="1.89512">
        <ele>156.548918</ele>
        <time>2026-08-29T06:44:18Z</time>
      </trkpt>
      <trkpt lat="43.86267" lon="1.89514">
        <ele>156.308604</ele>
        <time>2026-08-29T06:44:19Z</time>
      </trkpt>
      <trkpt lat="43.86275" lon="1.89516">
        <ele>156.064215</ele>
        <time>2026-08-29T06:44:20Z</time>
      </trkpt>
      <trkpt lat="43.86282" lon="1.89518">
        <ele>155.82583</ele>
        <time>2026-08-29T06:44:21Z</time>
      </trkpt>
      <trkpt lat="43.86289" lon="1.8952">
        <ele>155.592873</ele>
        <time>2026-08-29T06:44:22Z</time>
      </trkpt>
      <trkpt lat="43.86296" lon="1.89522">
        <ele>155.350785</ele>
        <time>2026-08-29T06:44:23Z</time>
      </trkpt>
      <trkpt lat="43.86303" lon="1.89524">
        <ele>155.105477</ele>
        <time>2026-08-29T06:44:24Z</time>
      </trkpt>
      <trkpt lat="43.8631" lon="1.89526">
        <ele>154.856946</ele>
        <time>2026-08-29T06:44:25Z</time>
      </trkpt>
      <trkpt lat="43.86318" lon="1.89529">
        <ele>154.603686</ele>
        <time>2026-08-29T06:44:26Z</time>
      </trkpt>
      <trkpt lat="43.86326" lon="1.89531">
        <ele>154.341784</ele>
        <time>2026-08-29T06:44:27Z</time>
      </trkpt>
      <trkpt lat="43.86334" lon="1.89533">
        <ele>154.079883</ele>
        <time>2026-08-29T06:44:28Z</time>
      </trkpt>
      <trkpt lat="43.86341" lon="1.89536">
        <ele>153.813782</ele>
        <time>2026-08-29T06:44:29Z</time>
      </trkpt>
      <trkpt lat="43.86349" lon="1.89538">
        <ele>153.550894</ele>
        <time>2026-08-29T06:44:30Z</time>
      </trkpt>
      <trkpt lat="43.86357" lon="1.89541">
        <ele>153.284276</ele>
        <time>2026-08-29T06:44:31Z</time>
      </trkpt>
      <trkpt lat="43.86365" lon="1.89543">
        <ele>153.021891</ele>
        <time>2026-08-29T06:44:32Z</time>
      </trkpt>
      <trkpt lat="43.86373" lon="1.89545">
        <ele>152.759507</ele>
        <time>2026-08-29T06:44:33Z</time>
      </trkpt>
      <trkpt lat="43.8638" lon="1.89547">
        <ele>152.504051</ele>
        <time>2026-08-29T06:44:34Z</time>
      </trkpt>
      <trkpt lat="43.86388" lon="1.8955">
        <ele>152.254526</ele>
        <time>2026-08-29T06:44:35Z</time>
      </trkpt>
      <trkpt lat="43.86395" lon="1.89552">
        <ele>152.00821</ele>
        <time>2026-08-29T06:44:36Z</time>
      </trkpt>
      <trkpt lat="43.86402" lon="1.89554">
        <ele>151.761894</ele>
        <time>2026-08-29T06:44:37Z</time>
      </trkpt>
      <trkpt lat="43.86409" lon="1.89557">
        <ele>151.525195</ele>
        <time>2026-08-29T06:44:38Z</time>
      </trkpt>
      <trkpt lat="43.86416" lon="1.89559">
        <ele>151.288495</ele>
        <time>2026-08-29T06:44:39Z</time>
      </trkpt>
      <trkpt lat="43.86423" lon="1.89561">
        <ele>151.049626</ele>
        <time>2026-08-29T06:44:40Z</time>
      </trkpt>
      <trkpt lat="43.86431" lon="1.89563">
        <ele>150.870673</ele>
        <time>2026-08-29T06:44:41Z</time>
      </trkpt>
      <trkpt lat="43.86438" lon="1.89566">
        <ele>150.807871</ele>
        <time>2026-08-29T06:44:42Z</time>
      </trkpt>
      <trkpt lat="43.86444" lon="1.89568">
        <ele>150.745389</ele>
        <time>2026-08-29T06:44:43Z</time>
      </trkpt>
      <trkpt lat="43.86451" lon="1.89571">
        <ele>150.683058</ele>
        <time>2026-08-29T06:44:44Z</time>
      </trkpt>
      <trkpt lat="43.86458" lon="1.89573">
        <ele>150.620256</ele>
        <time>2026-08-29T06:44:45Z</time>
      </trkpt>
      <trkpt lat="43.86465" lon="1.89576">
        <ele>150.557925</ele>
        <time>2026-08-29T06:44:46Z</time>
      </trkpt>
      <trkpt lat="43.86472" lon="1.89578">
        <ele>150.496869</ele>
        <time>2026-08-29T06:44:47Z</time>
      </trkpt>
      <trkpt lat="43.86479" lon="1.8958">
        <ele>150.43694</ele>
        <time>2026-08-29T06:44:48Z</time>
      </trkpt>
      <trkpt lat="43.86485" lon="1.89582">
        <ele>150.379317</ele>
        <time>2026-08-29T06:44:49Z</time>
      </trkpt>
      <trkpt lat="43.86491" lon="1.89584">
        <ele>150.32183</ele>
        <time>2026-08-29T06:44:50Z</time>
      </trkpt>
      <trkpt lat="43.86498" lon="1.89586">
        <ele>150.263611</ele>
        <time>2026-08-29T06:44:51Z</time>
      </trkpt>
      <trkpt lat="43.86504" lon="1.89588">
        <ele>150.205846</ele>
        <time>2026-08-29T06:44:52Z</time>
      </trkpt>
      <trkpt lat="43.86511" lon="1.8959">
        <ele>150.148223</ele>
        <time>2026-08-29T06:44:53Z</time>
      </trkpt>
      <trkpt lat="43.86517" lon="1.89592">
        <ele>150.091002</ele>
        <time>2026-08-29T06:44:54Z</time>
      </trkpt>
      <trkpt lat="43.86523" lon="1.89594">
        <ele>150.033645</ele>
        <time>2026-08-29T06:44:55Z</time>
      </trkpt>
      <trkpt lat="43.8653" lon="1.89596">
        <ele>149.977147</ele>
        <time>2026-08-29T06:44:56Z</time>
      </trkpt>
      <trkpt lat="43.86536" lon="1.89598">
        <ele>149.922795</ele>
        <time>2026-08-29T06:44:57Z</time>
      </trkpt>
      <trkpt lat="43.86542" lon="1.896">
        <ele>149.869734</ele>
        <time>2026-08-29T06:44:58Z</time>
      </trkpt>
      <trkpt lat="43.86547" lon="1.89602">
        <ele>149.817933</ele>
        <time>2026-08-29T06:44:59Z</time>
      </trkpt>
      <trkpt lat="43.86553" lon="1.89603">
        <ele>149.766586</ele>
        <time>2026-08-29T06:45:00Z</time>
      </trkpt>
      <trkpt lat="43.86559" lon="1.89605">
        <ele>149.715795</ele>
        <time>2026-08-29T06:45:01Z</time>
      </trkpt>
      <trkpt lat="43.86564" lon="1.89607">
        <ele>149.665853</ele>
        <time>2026-08-29T06:45:02Z</time>
      </trkpt>
      <trkpt lat="43.8657" lon="1.8961">
        <ele>149.615748</ele>
        <time>2026-08-29T06:45:03Z</time>
      </trkpt>
      <trkpt lat="43.86575" lon="1.89612">
        <ele>149.563946</ele>
        <time>2026-08-29T06:45:04Z</time>
      </trkpt>
      <trkpt lat="43.86581" lon="1.89614">
        <ele>149.512993</ele>
        <time>2026-08-29T06:45:05Z</time>
      </trkpt>
      <trkpt lat="43.86586" lon="1.89616">
        <ele>149.462503</ele>
        <time>2026-08-29T06:45:06Z</time>
      </trkpt>
      <trkpt lat="43.86592" lon="1.89617">
        <ele>149.412151</ele>
        <time>2026-08-29T06:45:07Z</time>
      </trkpt>
      <trkpt lat="43.86598" lon="1.89619">
        <ele>149.36136</ele>
        <time>2026-08-29T06:45:08Z</time>
      </trkpt>
      <trkpt lat="43.86603" lon="1.89621">
        <ele>149.31285</ele>
        <time>2026-08-29T06:45:09Z</time>
      </trkpt>
      <trkpt lat="43.86609" lon="1.89622">
        <ele>149.289904</ele>
        <time>2026-08-29T06:45:10Z</time>
      </trkpt>
      <trkpt lat="43.86614" lon="1.89624">
        <ele>149.267697</ele>
        <time>2026-08-29T06:45:11Z</time>
      </trkpt>
      <trkpt lat="43.8662" lon="1.89626">
        <ele>149.244909</ele>
        <time>2026-08-29T06:45:12Z</time>
      </trkpt>
      <trkpt lat="43.86625" lon="1.89628">
        <ele>149.222444</ele>
        <time>2026-08-29T06:45:13Z</time>
      </trkpt>
      <trkpt lat="43.86631" lon="1.89629">
        <ele>149.199979</ele>
        <time>2026-08-29T06:45:14Z</time>
      </trkpt>
      <trkpt lat="43.86636" lon="1.89631">
        <ele>149.17783</ele>
        <time>2026-08-29T06:45:15Z</time>
      </trkpt>
      <trkpt lat="43.86641" lon="1.89633">
        <ele>149.155435</ele>
        <time>2026-08-29T06:45:16Z</time>
      </trkpt>
      <trkpt lat="43.86647" lon="1.89635">
        <ele>149.132647</ele>
        <time>2026-08-29T06:45:17Z</time>
      </trkpt>
      <trkpt lat="43.86652" lon="1.89637">
        <ele>149.109074</ele>
        <time>2026-08-29T06:45:18Z</time>
      </trkpt>
      <trkpt lat="43.86658" lon="1.89638">
        <ele>149.086018</ele>
        <time>2026-08-29T06:45:19Z</time>
      </trkpt>
      <trkpt lat="43.86664" lon="1.8964">
        <ele>149.061135</ele>
        <time>2026-08-29T06:45:20Z</time>
      </trkpt>
      <trkpt lat="43.8667" lon="1.89642">
        <ele>149.036251</ele>
        <time>2026-08-29T06:45:21Z</time>
      </trkpt>
      <trkpt lat="43.86676" lon="1.89645">
        <ele>149.011689</ele>
        <time>2026-08-29T06:45:22Z</time>
      </trkpt>
      <trkpt lat="43.86682" lon="1.89646">
        <ele>148.987264</ele>
        <time>2026-08-29T06:45:23Z</time>
      </trkpt>
      <trkpt lat="43.86688" lon="1.89648">
        <ele>148.963555</ele>
        <time>2026-08-29T06:45:24Z</time>
      </trkpt>
      <trkpt lat="43.86693" lon="1.89651">
        <ele>148.939773</ele>
        <time>2026-08-29T06:45:25Z</time>
      </trkpt>
      <trkpt lat="43.86699" lon="1.89653">
        <ele>148.916064</ele>
        <time>2026-08-29T06:45:26Z</time>
      </trkpt>
      <trkpt lat="43.86705" lon="1.89654">
        <ele>148.891704</ele>
        <time>2026-08-29T06:45:27Z</time>
      </trkpt>
      <trkpt lat="43.86711" lon="1.89657">
        <ele>148.867846</ele>
        <time>2026-08-29T06:45:28Z</time>
      </trkpt>
      <trkpt lat="43.86716" lon="1.89659">
        <ele>148.843674</ele>
        <time>2026-08-29T06:45:29Z</time>
      </trkpt>
      <trkpt lat="43.86722" lon="1.8966">
        <ele>148.819374</ele>
        <time>2026-08-29T06:45:30Z</time>
      </trkpt>
      <trkpt lat="43.86729" lon="1.89662">
        <ele>148.793547</ele>
        <time>2026-08-29T06:45:31Z</time>
      </trkpt>
      <trkpt lat="43.86735" lon="1.89664">
        <ele>148.76772</ele>
        <time>2026-08-29T06:45:32Z</time>
      </trkpt>
      <trkpt lat="43.86741" lon="1.89665">
        <ele>148.741894</ele>
        <time>2026-08-29T06:45:33Z</time>
      </trkpt>
      <trkpt lat="43.86747" lon="1.89667">
        <ele>148.716225</ele>
        <time>2026-08-29T06:45:34Z</time>
      </trkpt>
      <trkpt lat="43.86754" lon="1.89669">
        <ele>148.690097</ele>
        <time>2026-08-29T06:45:35Z</time>
      </trkpt>
      <trkpt lat="43.8676" lon="1.89671">
        <ele>148.663249</ele>
        <time>2026-08-29T06:45:36Z</time>
      </trkpt>
      <trkpt lat="43.86766" lon="1.89673">
        <ele>148.637311</ele>
        <time>2026-08-29T06:45:37Z</time>
      </trkpt>
      <trkpt lat="43.86773" lon="1.89675">
        <ele>148.611184</ele>
        <time>2026-08-29T06:45:38Z</time>
      </trkpt>
      <trkpt lat="43.86779" lon="1.89677">
        <ele>148.587275</ele>
        <time>2026-08-29T06:45:39Z</time>
      </trkpt>
      <trkpt lat="43.86785" lon="1.8968">
        <ele>148.574875</ele>
        <time>2026-08-29T06:45:40Z</time>
      </trkpt>
      <trkpt lat="43.86791" lon="1.89682">
        <ele>148.562284</ele>
        <time>2026-08-29T06:45:41Z</time>
      </trkpt>
      <trkpt lat="43.86797" lon="1.89684">
        <ele>148.549769</ele>
        <time>2026-08-29T06:45:42Z</time>
      </trkpt>
      <trkpt lat="43.86803" lon="1.89687">
        <ele>148.537599</ele>
        <time>2026-08-29T06:45:43Z</time>
      </trkpt>
      <trkpt lat="43.86809" lon="1.89689">
        <ele>148.525429</ele>
        <time>2026-08-29T06:45:44Z</time>
      </trkpt>
      <trkpt lat="43.86815" lon="1.89691">
        <ele>148.51345</ele>
        <time>2026-08-29T06:45:45Z</time>
      </trkpt>
      <trkpt lat="43.8682" lon="1.89693">
        <ele>148.502195</ele>
        <time>2026-08-29T06:45:46Z</time>
      </trkpt>
      <trkpt lat="43.86826" lon="1.89695">
        <ele>148.490905</ele>
        <time>2026-08-29T06:45:47Z</time>
      </trkpt>
      <trkpt lat="43.86831" lon="1.89697">
        <ele>148.479998</ele>
        <time>2026-08-29T06:45:48Z</time>
      </trkpt>
      <trkpt lat="43.86836" lon="1.89699">
        <ele>148.469202</ele>
        <time>2026-08-29T06:45:49Z</time>
      </trkpt>
      <trkpt lat="43.86841" lon="1.89701">
        <ele>148.458448</ele>
        <time>2026-08-29T06:45:50Z</time>
      </trkpt>
      <trkpt lat="43.86847" lon="1.89703">
        <ele>148.447923</ele>
        <time>2026-08-29T06:45:51Z</time>
      </trkpt>
      <trkpt lat="43.86852" lon="1.89705">
        <ele>148.437399</ele>
        <time>2026-08-29T06:45:52Z</time>
      </trkpt>
      <trkpt lat="43.86857" lon="1.89707">
        <ele>148.426875</ele>
        <time>2026-08-29T06:45:53Z</time>
      </trkpt>
      <trkpt lat="43.86862" lon="1.89709">
        <ele>148.416389</ele>
        <time>2026-08-29T06:45:54Z</time>
      </trkpt>
      <trkpt lat="43.86867" lon="1.89711">
        <ele>148.405711</ele>
        <time>2026-08-29T06:45:55Z</time>
      </trkpt>
      <trkpt lat="43.86872" lon="1.89713">
        <ele>148.394612</ele>
        <time>2026-08-29T06:45:56Z</time>
      </trkpt>
      <trkpt lat="43.86878" lon="1.89715">
        <ele>148.383093</ele>
        <time>2026-08-29T06:45:57Z</time>
      </trkpt>
      <trkpt lat="43.86884" lon="1.89718">
        <ele>148.371344</ele>
        <time>2026-08-29T06:45:58Z</time>
      </trkpt>
      <trkpt lat="43.86889" lon="1.8972">
        <ele>148.359747</ele>
        <time>2026-08-29T06:45:59Z</time>
      </trkpt>
      <trkpt lat="43.86895" lon="1.89722">
        <ele>148.347843</ele>
        <time>2026-08-29T06:46:00Z</time>
      </trkpt>
      <trkpt lat="43.86901" lon="1.89724">
        <ele>148.336246</ele>
        <time>2026-08-29T06:46:01Z</time>
      </trkpt>
      <trkpt lat="43.86906" lon="1.89727">
        <ele>148.324649</ele>
        <time>2026-08-29T06:46:02Z</time>
      </trkpt>
      <trkpt lat="43.86912" lon="1.89729">
        <ele>148.313473</ele>
        <time>2026-08-29T06:46:03Z</time>
      </trkpt>
      <trkpt lat="43.86917" lon="1.89731">
        <ele>148.302106</ele>
        <time>2026-08-29T06:46:04Z</time>
      </trkpt>
      <trkpt lat="43.86923" lon="1.89733">
        <ele>148.291079</ele>
        <time>2026-08-29T06:46:05Z</time>
      </trkpt>
      <trkpt lat="43.86928" lon="1.89735">
        <ele>148.279903</ele>
        <time>2026-08-29T06:46:06Z</time>
      </trkpt>
      <trkpt lat="43.86933" lon="1.89737">
        <ele>148.268804</ele>
        <time>2026-08-29T06:46:07Z</time>
      </trkpt>
      <trkpt lat="43.86939" lon="1.89739">
        <ele>148.258089</ele>
        <time>2026-08-29T06:46:08Z</time>
      </trkpt>
      <trkpt lat="43.86944" lon="1.89742">
        <ele>148.247143</ele>
        <time>2026-08-29T06:46:09Z</time>
      </trkpt>
      <trkpt lat="43.86949" lon="1.89744">
        <ele>148.236579</ele>
        <time>2026-08-29T06:46:10Z</time>
      </trkpt>
      <trkpt lat="43.86954" lon="1.89746">
        <ele>148.171371</ele>
        <time>2026-08-29T06:46:11Z</time>
      </trkpt>
      <trkpt lat="43.86959" lon="1.89748">
        <ele>148.071105</ele>
        <time>2026-08-29T06:46:12Z</time>
      </trkpt>
      <trkpt lat="43.86964" lon="1.8975">
        <ele>147.976475</ele>
        <time>2026-08-29T06:46:13Z</time>
      </trkpt>
      <trkpt lat="43.86968" lon="1.8975">
        <ele>147.897941</ele>
        <time>2026-08-29T06:46:14Z</time>
      </trkpt>
      <trkpt lat="43.86971" lon="1.89747">
        <ele>147.823441</ele>
        <time>2026-08-29T06:46:15Z</time>
      </trkpt>
      <trkpt lat="43.86973" lon="1.89743">
        <ele>147.750638</ele>
        <time>2026-08-29T06:46:16Z</time>
      </trkpt>
      <trkpt lat="43.86975" lon="1.89739">
        <ele>147.683344</ele>
        <time>2026-08-29T06:46:17Z</time>
      </trkpt>
      <trkpt lat="43.86975" lon="1.89736">
        <ele>147.64367</ele>
        <time>2026-08-29T06:46:18Z</time>
      </trkpt>
      <trkpt lat="43.86975" lon="1.89735">
        <ele>147.632146</ele>
        <time>2026-08-29T06:46:19Z</time>
      </trkpt>
      <trkpt lat="43.86975" lon="1.89735">
        <ele>147.629726</ele>
        <time>2026-08-29T06:46:20Z</time>
      </trkpt>
      <trkpt lat="43.86974" lon="1.8973">
        <ele>147.548206</ele>
        <time>2026-08-29T06:46:41Z</time>
      </trkpt>
      <trkpt lat="43.86974" lon="1.89726">
        <ele>147.490151</ele>
        <time>2026-08-29T06:46:42Z</time>
      </trkpt>
      <trkpt lat="43.86974" lon="1.89721">
        <ele>147.419147</ele>
        <time>2026-08-29T06:46:43Z</time>
      </trkpt>
      <trkpt lat="43.86973" lon="1.89715">
        <ele>147.343504</ele>
        <time>2026-08-29T06:46:44Z</time>
      </trkpt>
      <trkpt lat="43.86973" lon="1.89709">
        <ele>147.259182</ele>
        <time>2026-08-29T06:46:45Z</time>
      </trkpt>
      <trkpt lat="43.86972" lon="1.89703">
        <ele>147.1723</ele>
        <time>2026-08-29T06:46:46Z</time>
      </trkpt>
      <trkpt lat="43.86972" lon="1.89697">
        <ele>147.08295</ele>
        <time>2026-08-29T06:46:47Z</time>
      </trkpt>
      <trkpt lat="43.86971" lon="1.8969">
        <ele>146.985125</ele>
        <time>2026-08-29T06:46:48Z</time>
      </trkpt>
      <trkpt lat="43.86971" lon="1.89683">
        <ele>146.882931</ele>
        <time>2026-08-29T06:46:49Z</time>
      </trkpt>
      <trkpt lat="43.86971" lon="1.89676">
        <ele>146.782377</ele>
        <time>2026-08-29T06:46:50Z</time>
      </trkpt>
      <trkpt lat="43.86971" lon="1.89669">
        <ele>146.67905</ele>
        <time>2026-08-29T06:46:51Z</time>
      </trkpt>
      <trkpt lat="43.86971" lon="1.89661">
        <ele>146.571479</ele>
        <time>2026-08-29T06:46:52Z</time>
      </trkpt>
      <trkpt lat="43.86971" lon="1.89653">
        <ele>146.461096</ele>
        <time>2026-08-29T06:46:53Z</time>
      </trkpt>
      <trkpt lat="43.86971" lon="1.89645">
        <ele>146.349297</ele>
        <time>2026-08-29T06:46:54Z</time>
      </trkpt>
      <trkpt lat="43.86971" lon="1.89637">
        <ele>146.234601</ele>
        <time>2026-08-29T06:46:55Z</time>
      </trkpt>
      <trkpt lat="43.86971" lon="1.89629">
        <ele>146.121387</ele>
        <time>2026-08-29T06:46:56Z</time>
      </trkpt>
      <trkpt lat="43.86971" lon="1.89621">
        <ele>146.006758</ele>
        <time>2026-08-29T06:46:57Z</time>
      </trkpt>
      <trkpt lat="43.86971" lon="1.89613">
        <ele>145.890697</ele>
        <time>2026-08-29T06:46:58Z</time>
      </trkpt>
      <trkpt lat="43.86971" lon="1.89605">
        <ele>145.777483</ele>
        <time>2026-08-29T06:46:59Z</time>
      </trkpt>
      <trkpt lat="43.8697" lon="1.89597">
        <ele>145.664252</ele>
        <time>2026-08-29T06:47:00Z</time>
      </trkpt>
      <trkpt lat="43.8697" lon="1.89589">
        <ele>145.55097</ele>
        <time>2026-08-29T06:47:01Z</time>
      </trkpt>
      <trkpt lat="43.8697" lon="1.8958">
        <ele>145.432031</ele>
        <time>2026-08-29T06:47:02Z</time>
      </trkpt>
      <trkpt lat="43.8697" lon="1.89572">
        <ele>145.31301</ele>
        <time>2026-08-29T06:47:03Z</time>
      </trkpt>
      <trkpt lat="43.86969" lon="1.89563">
        <ele>145.191052</ele>
        <time>2026-08-29T06:47:04Z</time>
      </trkpt>
      <trkpt lat="43.86969" lon="1.89555">
        <ele>145.06627</ele>
        <time>2026-08-29T06:47:05Z</time>
      </trkpt>
      <trkpt lat="43.86968" lon="1.89546">
        <ele>144.94417</ele>
        <time>2026-08-29T06:47:06Z</time>
      </trkpt>
      <trkpt lat="43.86968" lon="1.89537">
        <ele>144.819248</ele>
        <time>2026-08-29T06:47:07Z</time>
      </trkpt>
      <trkpt lat="43.86967" lon="1.89529">
        <ele>144.700776</ele>
        <time>2026-08-29T06:47:08Z</time>
      </trkpt>
      <trkpt lat="43.86967" lon="1.89521">
        <ele>144.666921</ele>
        <time>2026-08-29T06:47:09Z</time>
      </trkpt>
      <trkpt lat="43.86966" lon="1.89513">
        <ele>144.633121</ele>
        <time>2026-08-29T06:47:10Z</time>
      </trkpt>
      <trkpt lat="43.86966" lon="1.89504">
        <ele>144.598377</ele>
        <time>2026-08-29T06:47:11Z</time>
      </trkpt>
      <trkpt lat="43.86965" lon="1.89496">
        <ele>144.563891</ele>
        <time>2026-08-29T06:47:12Z</time>
      </trkpt>
      <trkpt lat="43.86964" lon="1.89488">
        <ele>144.530133</ele>
        <time>2026-08-29T06:47:13Z</time>
      </trkpt>
      <trkpt lat="43.86962" lon="1.8948">
        <ele>144.497253</ele>
        <time>2026-08-29T06:47:14Z</time>
      </trkpt>
      <trkpt lat="43.86961" lon="1.89473">
        <ele>144.464639</ele>
        <time>2026-08-29T06:47:15Z</time>
      </trkpt>
      <trkpt lat="43.8696" lon="1.89465">
        <ele>144.431354</ele>
        <time>2026-08-29T06:47:16Z</time>
      </trkpt>
      <trkpt lat="43.86958" lon="1.89457">
        <ele>144.39874</ele>
        <time>2026-08-29T06:47:17Z</time>
      </trkpt>
      <trkpt lat="43.86957" lon="1.8945">
        <ele>144.365455</ele>
        <time>2026-08-29T06:47:18Z</time>
      </trkpt>
      <trkpt lat="43.86956" lon="1.89442">
        <ele>144.331764</ele>
        <time>2026-08-29T06:47:19Z</time>
      </trkpt>
      <trkpt lat="43.86954" lon="1.89434">
        <ele>144.299288</ele>
        <time>2026-08-29T06:47:20Z</time>
      </trkpt>
      <trkpt lat="43.86953" lon="1.89427">
        <ele>144.266675</ele>
        <time>2026-08-29T06:47:21Z</time>
      </trkpt>
      <trkpt lat="43.86952" lon="1.89418">
        <ele>144.232043</ele>
        <time>2026-08-29T06:47:22Z</time>
      </trkpt>
      <trkpt lat="43.8695" lon="1.89411">
        <ele>144.199026</ele>
        <time>2026-08-29T06:47:23Z</time>
      </trkpt>
      <trkpt lat="43.86949" lon="1.89403">
        <ele>144.167359</ele>
        <time>2026-08-29T06:47:24Z</time>
      </trkpt>
      <trkpt lat="43.86948" lon="1.89396">
        <ele>144.135418</ele>
        <time>2026-08-29T06:47:25Z</time>
      </trkpt>
      <trkpt lat="43.86946" lon="1.89388">
        <ele>144.10375</ele>
        <time>2026-08-29T06:47:26Z</time>
      </trkpt>
      <trkpt lat="43.86945" lon="1.89381">
        <ele>144.071275</ele>
        <time>2026-08-29T06:47:27Z</time>
      </trkpt>
      <trkpt lat="43.86944" lon="1.89374">
        <ele>144.040011</ele>
        <time>2026-08-29T06:47:28Z</time>
      </trkpt>
      <trkpt lat="43.86942" lon="1.89366">
        <ele>144.008604</ele>
        <time>2026-08-29T06:47:29Z</time>
      </trkpt>
      <trkpt lat="43.86941" lon="1.89359">
        <ele>143.97719</ele>
        <time>2026-08-29T06:47:30Z</time>
      </trkpt>
      <trkpt lat="43.8694" lon="1.89351">
        <ele>143.945249</ele>
        <time>2026-08-29T06:47:31Z</time>
      </trkpt>
      <trkpt lat="43.86939" lon="1.89344">
        <ele>143.912901</ele>
        <time>2026-08-29T06:47:32Z</time>
      </trkpt>
      <trkpt lat="43.86938" lon="1.89336">
        <ele>143.881598</ele>
        <time>2026-08-29T06:47:33Z</time>
      </trkpt>
      <trkpt lat="43.86937" lon="1.89329">
        <ele>143.850063</ele>
        <time>2026-08-29T06:47:34Z</time>
      </trkpt>
      <trkpt lat="43.86936" lon="1.89322">
        <ele>143.81876</ele>
        <time>2026-08-29T06:47:35Z</time>
      </trkpt>
      <trkpt lat="43.86935" lon="1.89314">
        <ele>143.787457</ele>
        <time>2026-08-29T06:47:36Z</time>
      </trkpt>
      <trkpt lat="43.86934" lon="1.89307">
        <ele>143.755228</ele>
        <time>2026-08-29T06:47:37Z</time>
      </trkpt>
      <trkpt lat="43.86932" lon="1.89299">
        <ele>143.722591</ele>
        <time>2026-08-29T06:47:38Z</time>
      </trkpt>
      <trkpt lat="43.86931" lon="1.89291">
        <ele>143.691288</ele>
        <time>2026-08-29T06:47:39Z</time>
      </trkpt>
      <trkpt lat="43.8693" lon="1.89284">
        <ele>143.618337</ele>
        <time>2026-08-29T06:47:40Z</time>
      </trkpt>
      <trkpt lat="43.86929" lon="1.89276">
        <ele>143.273236</ele>
        <time>2026-08-29T06:47:41Z</time>
      </trkpt>
      <trkpt lat="43.86927" lon="1.89269">
        <ele>142.935099</ele>
        <time>2026-08-29T06:47:42Z</time>
      </trkpt>
      <trkpt lat="43.86926" lon="1.89261">
        <ele>142.616544</ele>
        <time>2026-08-29T06:47:43Z</time>
      </trkpt>
      <trkpt lat="43.86925" lon="1.89254">
        <ele>142.304946</ele>
        <time>2026-08-29T06:47:44Z</time>
      </trkpt>
      <trkpt lat="43.86924" lon="1.89248">
        <ele>141.998977</ele>
        <time>2026-08-29T06:47:45Z</time>
      </trkpt>
      <trkpt lat="43.86922" lon="1.8924">
        <ele>141.67622</ele>
        <time>2026-08-29T06:47:46Z</time>
      </trkpt>
      <trkpt lat="43.86921" lon="1.89233">
        <ele>141.361864</ele>
        <time>2026-08-29T06:47:47Z</time>
      </trkpt>
      <trkpt lat="43.8692" lon="1.89226">
        <ele>141.043309</ele>
        <time>2026-08-29T06:47:48Z</time>
      </trkpt>
      <trkpt lat="43.86919" lon="1.89219">
        <ele>140.728513</ele>
        <time>2026-08-29T06:47:49Z</time>
      </trkpt>
      <trkpt lat="43.86916" lon="1.89213">
        <ele>140.422872</ele>
        <time>2026-08-29T06:47:50Z</time>
      </trkpt>
      <trkpt lat="43.86913" lon="1.89207">
        <ele>140.118206</ele>
        <time>2026-08-29T06:47:51Z</time>
      </trkpt>
      <trkpt lat="43.8691" lon="1.89202">
        <ele>139.825041</ele>
        <time>2026-08-29T06:47:52Z</time>
      </trkpt>
      <trkpt lat="43.86907" lon="1.89196">
        <ele>139.51033</ele>
        <time>2026-08-29T06:47:53Z</time>
      </trkpt>
      <trkpt lat="43.86904" lon="1.89189">
        <ele>139.168108</ele>
        <time>2026-08-29T06:47:54Z</time>
      </trkpt>
      <trkpt lat="43.86901" lon="1.89182">
        <ele>138.803955</ele>
        <time>2026-08-29T06:47:55Z</time>
      </trkpt>
      <trkpt lat="43.86897" lon="1.89174">
        <ele>138.411564</ele>
        <time>2026-08-29T06:47:56Z</time>
      </trkpt>
      <trkpt lat="43.86893" lon="1.89166">
        <ele>137.991357</ele>
        <time>2026-08-29T06:47:57Z</time>
      </trkpt>
      <trkpt lat="43.8689" lon="1.89159">
        <ele>137.592662</ele>
        <time>2026-08-29T06:47:58Z</time>
      </trkpt>
      <trkpt lat="43.86886" lon="1.89151">
        <ele>137.200659</ele>
        <time>2026-08-29T06:47:59Z</time>
      </trkpt>
      <trkpt lat="43.86882" lon="1.89144">
        <ele>136.805518</ele>
        <time>2026-08-29T06:48:00Z</time>
      </trkpt>
      <trkpt lat="43.86878" lon="1.89136">
        <ele>136.417314</ele>
        <time>2026-08-29T06:48:01Z</time>
      </trkpt>
      <trkpt lat="43.86876" lon="1.89128">
        <ele>136.031159</ele>
        <time>2026-08-29T06:48:02Z</time>
      </trkpt>
      <trkpt lat="43.86874" lon="1.89118">
        <ele>135.607722</ele>
        <time>2026-08-29T06:48:03Z</time>
      </trkpt>
      <trkpt lat="43.86874" lon="1.89108">
        <ele>135.157975</ele>
        <time>2026-08-29T06:48:04Z</time>
      </trkpt>
      <trkpt lat="43.86874" lon="1.89098">
        <ele>134.716821</ele>
        <time>2026-08-29T06:48:05Z</time>
      </trkpt>
      <trkpt lat="43.86876" lon="1.89087">
        <ele>134.239554</ele>
        <time>2026-08-29T06:48:06Z</time>
      </trkpt>
      <trkpt lat="43.86879" lon="1.89076">
        <ele>133.722394</ele>
        <time>2026-08-29T06:48:07Z</time>
      </trkpt>
      <trkpt lat="43.86882" lon="1.89064">
        <ele>133.170603</ele>
        <time>2026-08-29T06:48:08Z</time>
      </trkpt>
      <trkpt lat="43.86885" lon="1.89052">
        <ele>132.511942</ele>
        <time>2026-08-29T06:48:09Z</time>
      </trkpt>
      <trkpt lat="43.86889" lon="1.8904">
        <ele>131.781435</ele>
        <time>2026-08-29T06:48:10Z</time>
      </trkpt>
      <trkpt lat="43.86892" lon="1.89028">
        <ele>131.034401</ele>
        <time>2026-08-29T06:48:11Z</time>
      </trkpt>
      <trkpt lat="43.86895" lon="1.89017">
        <ele>130.358599</ele>
        <time>2026-08-29T06:48:12Z</time>
      </trkpt>
      <trkpt lat="43.86898" lon="1.89008">
        <ele>129.729635</ele>
        <time>2026-08-29T06:48:13Z</time>
      </trkpt>
      <trkpt lat="43.86903" lon="1.89">
        <ele>129.120289</ele>
        <time>2026-08-29T06:48:14Z</time>
      </trkpt>
      <trkpt lat="43.86909" lon="1.88993">
        <ele>128.479183</ele>
        <time>2026-08-29T06:48:15Z</time>
      </trkpt>
      <trkpt lat="43.86915" lon="1.88987">
        <ele>127.873266</ele>
        <time>2026-08-29T06:48:16Z</time>
      </trkpt>
      <trkpt lat="43.86922" lon="1.88983">
        <ele>127.282729</ele>
        <time>2026-08-29T06:48:17Z</time>
      </trkpt>
      <trkpt lat="43.86928" lon="1.8898">
        <ele>126.758546</ele>
        <time>2026-08-29T06:48:18Z</time>
      </trkpt>
      <trkpt lat="43.86934" lon="1.88978">
        <ele>126.260738</ele>
        <time>2026-08-29T06:48:19Z</time>
      </trkpt>
      <trkpt lat="43.86939" lon="1.88977">
        <ele>125.818616</ele>
        <time>2026-08-29T06:48:20Z</time>
      </trkpt>
      <trkpt lat="43.86944" lon="1.88977">
        <ele>125.460894</ele>
        <time>2026-08-29T06:48:21Z</time>
      </trkpt>
      <trkpt lat="43.86948" lon="1.88977">
        <ele>125.135683</ele>
        <time>2026-08-29T06:48:22Z</time>
      </trkpt>
      <trkpt lat="43.86951" lon="1.88977">
        <ele>124.867363</ele>
        <time>2026-08-29T06:48:23Z</time>
      </trkpt>
      <trkpt lat="43.86954" lon="1.88977">
        <ele>124.653105</ele>
        <time>2026-08-29T06:48:24Z</time>
      </trkpt>
      <trkpt lat="43.86955" lon="1.88976">
        <ele>124.520252</ele>
        <time>2026-08-29T06:48:25Z</time>
      </trkpt>
      <trkpt lat="43.86956" lon="1.88975">
        <ele>124.467406</ele>
        <time>2026-08-29T06:48:26Z</time>
      </trkpt>
      <trkpt lat="43.86955" lon="1.88974">
        <ele>124.431317</ele>
        <time>2026-08-29T06:48:27Z</time>
      </trkpt>
      <trkpt lat="43.86956" lon="1.88976">
        <ele>124.345734</ele>
        <time>2026-08-29T06:48:28Z</time>
      </trkpt>
      <trkpt lat="43.8697" lon="1.88987">
        <ele>123.063018</ele>
        <time>2026-08-29T06:59:59Z</time>
      </trkpt>
      <trkpt lat="43.86972" lon="1.88987">
        <ele>122.903213</ele>
        <time>2026-08-29T07:00:00Z</time>
      </trkpt>
      <trkpt lat="43.86974" lon="1.88988">
        <ele>122.735538</ele>
        <time>2026-08-29T07:00:01Z</time>
      </trkpt>
      <trkpt lat="43.86976" lon="1.88989">
        <ele>122.547108</ele>
        <time>2026-08-29T07:00:02Z</time>
      </trkpt>
      <trkpt lat="43.86978" lon="1.88989">
        <ele>122.384423</ele>
        <time>2026-08-29T07:00:03Z</time>
      </trkpt>
      <trkpt lat="43.8698" lon="1.88988">
        <ele>122.228976</ele>
        <time>2026-08-29T07:00:04Z</time>
      </trkpt>
      <trkpt lat="43.86982" lon="1.88988">
        <ele>122.07177</ele>
        <time>2026-08-29T07:00:05Z</time>
      </trkpt>
      <trkpt lat="43.86983" lon="1.88987">
        <ele>121.963525</ele>
        <time>2026-08-29T07:00:06Z</time>
      </trkpt>
      <trkpt lat="43.86984" lon="1.88987">
        <ele>121.840441</ele>
        <time>2026-08-29T07:00:07Z</time>
      </trkpt>
      <trkpt lat="43.86986" lon="1.88986">
        <ele>121.697846</ele>
        <time>2026-08-29T07:00:08Z</time>
      </trkpt>
      <trkpt lat="43.86988" lon="1.88986">
        <ele>121.540641</ele>
        <time>2026-08-29T07:00:09Z</time>
      </trkpt>
      <trkpt lat="43.8699" lon="1.88985">
        <ele>121.380835</ele>
        <time>2026-08-29T07:00:10Z</time>
      </trkpt>
      <trkpt lat="43.86991" lon="1.88984">
        <ele>121.24258</ele>
        <time>2026-08-29T07:00:11Z</time>
      </trkpt>
      <trkpt lat="43.86993" lon="1.88983">
        <ele>121.113931</ele>
        <time>2026-08-29T07:00:12Z</time>
      </trkpt>
      <trkpt lat="43.86994" lon="1.88983">
        <ele>121.006802</ele>
        <time>2026-08-29T07:00:13Z</time>
      </trkpt>
      <trkpt lat="43.86996" lon="1.88983">
        <ele>120.884726</ele>
        <time>2026-08-29T07:00:14Z</time>
      </trkpt>
      <trkpt lat="43.86997" lon="1.88983">
        <ele>120.818647</ele>
        <time>2026-08-29T07:00:15Z</time>
      </trkpt>
      <trkpt lat="43.86997" lon="1.88984">
        <ele>120.788584</ele>
        <time>2026-08-29T07:00:16Z</time>
      </trkpt>
      <trkpt lat="43.87026" lon="1.88974">
        <ele>118.375593</ele>
        <time>2026-08-29T07:00:46Z</time>
      </trkpt>
      <trkpt lat="43.87028" lon="1.88973">
        <ele>118.234081</ele>
        <time>2026-08-29T07:00:47Z</time>
      </trkpt>
      <trkpt lat="43.8703" lon="1.88971">
        <ele>118.129316</ele>
        <time>2026-08-29T07:00:48Z</time>
      </trkpt>
      <trkpt lat="43.87033" lon="1.88967">
        <ele>117.986049</ele>
        <time>2026-08-29T07:00:49Z</time>
      </trkpt>
      <trkpt lat="43.87036" lon="1.88963">
        <ele>117.827625</ele>
        <time>2026-08-29T07:00:50Z</time>
      </trkpt>
      <trkpt lat="43.8704" lon="1.88959">
        <ele>117.659049</ele>
        <time>2026-08-29T07:00:51Z</time>
      </trkpt>
      <trkpt lat="43.87043" lon="1.88955">
        <ele>117.483032</ele>
        <time>2026-08-29T07:00:52Z</time>
      </trkpt>
      <trkpt lat="43.87047" lon="1.88951">
        <ele>117.299925</ele>
        <time>2026-08-29T07:00:53Z</time>
      </trkpt>
      <trkpt lat="43.87051" lon="1.88947">
        <ele>117.126755</ele>
        <time>2026-08-29T07:00:54Z</time>
      </trkpt>
      <trkpt lat="43.87054" lon="1.88943">
        <ele>116.952462</ele>
        <time>2026-08-29T07:00:55Z</time>
      </trkpt>
      <trkpt lat="43.87058" lon="1.88938">
        <ele>116.769599</ele>
        <time>2026-08-29T07:00:56Z</time>
      </trkpt>
      <trkpt lat="43.87061" lon="1.88933">
        <ele>116.584612</ele>
        <time>2026-08-29T07:00:57Z</time>
      </trkpt>
      <trkpt lat="43.87065" lon="1.88927">
        <ele>116.379704</ele>
        <time>2026-08-29T07:00:58Z</time>
      </trkpt>
      <trkpt lat="43.87069" lon="1.88922">
        <ele>116.182615</ele>
        <time>2026-08-29T07:00:59Z</time>
      </trkpt>
      <trkpt lat="43.87073" lon="1.88917">
        <ele>115.99211</ele>
        <time>2026-08-29T07:01:00Z</time>
      </trkpt>
      <trkpt lat="43.87076" lon="1.88913">
        <ele>115.816093</ele>
        <time>2026-08-29T07:01:01Z</time>
      </trkpt>
      <trkpt lat="43.8708" lon="1.88909">
        <ele>115.637197</ele>
        <time>2026-08-29T07:01:02Z</time>
      </trkpt>
      <trkpt lat="43.87084" lon="1.88905">
        <ele>115.460234</ele>
        <time>2026-08-29T07:01:03Z</time>
      </trkpt>
      <trkpt lat="43.87088" lon="1.88902">
        <ele>115.277641</ele>
        <time>2026-08-29T07:01:04Z</time>
      </trkpt>
      <trkpt lat="43.87092" lon="1.88899">
        <ele>115.108091</ele>
        <time>2026-08-29T07:01:05Z</time>
      </trkpt>
      <trkpt lat="43.87096" lon="1.88895">
        <ele>114.932801</ele>
        <time>2026-08-29T07:01:06Z</time>
      </trkpt>
      <trkpt lat="43.871" lon="1.88892">
        <ele>114.756002</ele>
        <time>2026-08-29T07:01:07Z</time>
      </trkpt>
      <trkpt lat="43.87104" lon="1.88888">
        <ele>114.578802</ele>
        <time>2026-08-29T07:01:08Z</time>
      </trkpt>
      <trkpt lat="43.87107" lon="1.88884">
        <ele>114.404918</ele>
        <time>2026-08-29T07:01:09Z</time>
      </trkpt>
      <trkpt lat="43.87111" lon="1.8888">
        <ele>114.238847</ele>
        <time>2026-08-29T07:01:10Z</time>
      </trkpt>
      <trkpt lat="43.87115" lon="1.88877">
        <ele>114.06666</ele>
        <time>2026-08-29T07:01:11Z</time>
      </trkpt>
      <trkpt lat="43.87119" lon="1.88873">
        <ele>113.874919</ele>
        <time>2026-08-29T07:01:12Z</time>
      </trkpt>
      <trkpt lat="43.87123" lon="1.8887">
        <ele>113.696502</ele>
        <time>2026-08-29T07:01:13Z</time>
      </trkpt>
      <trkpt lat="43.87127" lon="1.88866">
        <ele>113.531905</ele>
        <time>2026-08-29T07:01:14Z</time>
      </trkpt>
      <trkpt lat="43.87131" lon="1.88863">
        <ele>113.342686</ele>
        <time>2026-08-29T07:01:15Z</time>
      </trkpt>
      <trkpt lat="43.87136" lon="1.88859">
        <ele>113.155126</ele>
        <time>2026-08-29T07:01:16Z</time>
      </trkpt>
      <trkpt lat="43.8714" lon="1.88855">
        <ele>112.969104</ele>
        <time>2026-08-29T07:01:17Z</time>
      </trkpt>
      <trkpt lat="43.87143" lon="1.88853">
        <ele>112.817921</ele>
        <time>2026-08-29T07:01:18Z</time>
      </trkpt>
      <trkpt lat="43.87146" lon="1.8885">
        <ele>112.688831</ele>
        <time>2026-08-29T07:01:19Z</time>
      </trkpt>
      <trkpt lat="43.87149" lon="1.88849">
        <ele>112.572049</ele>
        <time>2026-08-29T07:01:20Z</time>
      </trkpt>
      <trkpt lat="43.87152" lon="1.88847">
        <ele>112.469026</ele>
        <time>2026-08-29T07:01:21Z</time>
      </trkpt>
      <trkpt lat="43.87154" lon="1.88846">
        <ele>112.3939</ele>
        <time>2026-08-29T07:01:22Z</time>
      </trkpt>
      <trkpt lat="43.87156" lon="1.88846">
        <ele>112.313084</ele>
        <time>2026-08-29T07:01:23Z</time>
      </trkpt>
      <trkpt lat="43.87158" lon="1.88845">
        <ele>112.230005</ele>
        <time>2026-08-29T07:01:24Z</time>
      </trkpt>
      <trkpt lat="43.87159" lon="1.88844">
        <ele>112.169799</ele>
        <time>2026-08-29T07:01:25Z</time>
      </trkpt>
      <trkpt lat="43.87161" lon="1.88842">
        <ele>112.095822</ele>
        <time>2026-08-29T07:01:26Z</time>
      </trkpt>
      <trkpt lat="43.87162" lon="1.88841">
        <ele>112.038084</ele>
        <time>2026-08-29T07:01:27Z</time>
      </trkpt>
      <trkpt lat="43.87163" lon="1.88841">
        <ele>111.996171</ele>
        <time>2026-08-29T07:01:28Z</time>
      </trkpt>
      <trkpt lat="43.87164" lon="1.8884">
        <ele>111.94746</ele>
        <time>2026-08-29T07:01:29Z</time>
      </trkpt>
      <trkpt lat="43.87165" lon="1.88839">
        <ele>111.918899</ele>
        <time>2026-08-29T07:01:30Z</time>
      </trkpt>
      <trkpt lat="43.87166" lon="1.88839">
        <ele>111.889438</ele>
        <time>2026-08-29T07:01:31Z</time>
      </trkpt>
      <trkpt lat="43.87166" lon="1.88838">
        <ele>111.863106</ele>
        <time>2026-08-29T07:01:32Z</time>
      </trkpt>
      <trkpt lat="43.87168" lon="1.88839">
        <ele>111.815376</ele>
        <time>2026-08-29T07:01:33Z</time>
      </trkpt>
      <trkpt lat="43.87169" lon="1.8884">
        <ele>111.769248</ele>
        <time>2026-08-29T07:01:34Z</time>
      </trkpt>
      <trkpt lat="43.8717" lon="1.8884">
        <ele>111.731443</ele>
        <time>2026-08-29T07:01:35Z</time>
      </trkpt>
      <trkpt lat="43.87171" lon="1.88841">
        <ele>111.671029</ele>
        <time>2026-08-29T07:01:36Z</time>
      </trkpt>
      <trkpt lat="43.87207" lon="1.88845">
        <ele>108.441972</ele>
        <time>2026-08-29T07:09:05Z</time>
      </trkpt>
      <trkpt lat="43.87204" lon="1.88845">
        <ele>108.393499</ele>
        <time>2026-08-29T07:09:06Z</time>
      </trkpt>
      <trkpt lat="43.87202" lon="1.88844">
        <ele>108.354117</ele>
        <time>2026-08-29T07:09:07Z</time>
      </trkpt>
      <trkpt lat="43.872" lon="1.88844">
        <ele>108.320567</ele>
        <time>2026-08-29T07:09:08Z</time>
      </trkpt>
      <trkpt lat="43.87199" lon="1.88844">
        <ele>108.30337</ele>
        <time>2026-08-29T07:09:09Z</time>
      </trkpt>
      <trkpt lat="43.87199" lon="1.88843">
        <ele>108.287907</ele>
        <time>2026-08-29T07:09:10Z</time>
      </trkpt>
      <trkpt lat="43.87198" lon="1.88842">
        <ele>108.27049</ele>
        <time>2026-08-29T07:09:11Z</time>
      </trkpt>
      <trkpt lat="43.87198" lon="1.88842">
        <ele>108.258207</ele>
        <time>2026-08-29T07:09:12Z</time>
      </trkpt>
      <trkpt lat="43.87197" lon="1.88841">
        <ele>108.245924</ele>
        <time>2026-08-29T07:09:13Z</time>
      </trkpt>
      <trkpt lat="43.87197" lon="1.8884">
        <ele>108.233727</ele>
        <time>2026-08-29T07:09:14Z</time>
      </trkpt>
      <trkpt lat="43.87197" lon="1.88839">
        <ele>108.221113</ele>
        <time>2026-08-29T07:09:15Z</time>
      </trkpt>
      <trkpt lat="43.87198" lon="1.88838">
        <ele>108.23671</ele>
        <time>2026-08-29T07:09:16Z</time>
      </trkpt>
      <trkpt lat="43.87198" lon="1.88837">
        <ele>108.266554</ele>
        <time>2026-08-29T07:09:17Z</time>
      </trkpt>
      <trkpt lat="43.87198" lon="1.88836">
        <ele>108.298078</ele>
        <time>2026-08-29T07:09:18Z</time>
      </trkpt>
      <trkpt lat="43.87198" lon="1.88835">
        <ele>108.329602</ele>
        <time>2026-08-29T07:09:19Z</time>
      </trkpt>
      <trkpt lat="43.87198" lon="1.88833">
        <ele>108.368913</ele>
        <time>2026-08-29T07:09:20Z</time>
      </trkpt>
      <trkpt lat="43.87198" lon="1.88832">
        <ele>108.405627</ele>
        <time>2026-08-29T07:09:21Z</time>
      </trkpt>
      <trkpt lat="43.87198" lon="1.88831">
        <ele>108.435279</ele>
        <time>2026-08-29T07:09:22Z</time>
      </trkpt>
      <trkpt lat="43.87198" lon="1.8883">
        <ele>108.45477</ele>
        <time>2026-08-29T07:09:23Z</time>
      </trkpt>
      <trkpt lat="43.87119" lon="1.88699">
        <ele>112.926817</ele>
        <time>2026-08-29T07:21:05Z</time>
      </trkpt>
      <trkpt lat="43.8712" lon="1.88701">
        <ele>112.986431</ele>
        <time>2026-08-29T07:21:06Z</time>
      </trkpt>
      <trkpt lat="43.87121" lon="1.88702">
        <ele>113.039392</ele>
        <time>2026-08-29T07:21:07Z</time>
      </trkpt>
      <trkpt lat="43.87122" lon="1.88704">
        <ele>113.095231</ele>
        <time>2026-08-29T07:21:08Z</time>
      </trkpt>
      <trkpt lat="43.87123" lon="1.88705">
        <ele>113.156443</ele>
        <time>2026-08-29T07:21:09Z</time>
      </trkpt>
      <trkpt lat="43.87124" lon="1.88707">
        <ele>113.216696</ele>
        <time>2026-08-29T07:21:10Z</time>
      </trkpt>
      <trkpt lat="43.87126" lon="1.88708">
        <ele>113.27471</ele>
        <time>2026-08-29T07:21:11Z</time>
      </trkpt>
      <trkpt lat="43.87127" lon="1.8871">
        <ele>113.335697</ele>
        <time>2026-08-29T07:21:12Z</time>
      </trkpt>
      <trkpt lat="43.87129" lon="1.8871">
        <ele>113.390559</ele>
        <time>2026-08-29T07:21:13Z</time>
      </trkpt>
      <trkpt lat="43.8713" lon="1.88712">
        <ele>113.473451</ele>
        <time>2026-08-29T07:21:14Z</time>
      </trkpt>
      <trkpt lat="43.87131" lon="1.88714">
        <ele>113.539372</ele>
        <time>2026-08-29T07:21:15Z</time>
      </trkpt>
      <trkpt lat="43.87132" lon="1.88716">
        <ele>113.611367</ele>
        <time>2026-08-29T07:21:16Z</time>
      </trkpt>
      <trkpt lat="43.87134" lon="1.88719">
        <ele>113.69181</ele>
        <time>2026-08-29T07:21:17Z</time>
      </trkpt>
      <trkpt lat="43.87135" lon="1.88721">
        <ele>113.761903</ele>
        <time>2026-08-29T07:21:18Z</time>
      </trkpt>
      <trkpt lat="43.87136" lon="1.88723">
        <ele>113.829645</ele>
        <time>2026-08-29T07:21:19Z</time>
      </trkpt>
      <trkpt lat="43.87137" lon="1.88725">
        <ele>113.891225</ele>
        <time>2026-08-29T07:21:20Z</time>
      </trkpt>
      <trkpt lat="43.87138" lon="1.88726">
        <ele>113.939091</ele>
        <time>2026-08-29T07:21:21Z</time>
      </trkpt>
      <trkpt lat="43.87139" lon="1.88727">
        <ele>113.977571</ele>
        <time>2026-08-29T07:21:22Z</time>
      </trkpt>
      <trkpt lat="43.8714" lon="1.88727">
        <ele>114.013718</ele>
        <time>2026-08-29T07:21:23Z</time>
      </trkpt>
      <trkpt lat="43.87141" lon="1.88728">
        <ele>114.044956</ele>
        <time>2026-08-29T07:21:24Z</time>
      </trkpt>
      <trkpt lat="43.87141" lon="1.88729">
        <ele>114.081331</ele>
        <time>2026-08-29T07:21:25Z</time>
      </trkpt>
      <trkpt lat="43.87142" lon="1.8873">
        <ele>114.115284</ele>
        <time>2026-08-29T07:21:26Z</time>
      </trkpt>
      <trkpt lat="43.87142" lon="1.88731">
        <ele>114.14116</ele>
        <time>2026-08-29T07:21:27Z</time>
      </trkpt>
      <trkpt lat="43.87143" lon="1.88732">
        <ele>114.177535</ele>
        <time>2026-08-29T07:21:28Z</time>
      </trkpt>
      <trkpt lat="43.87144" lon="1.88733">
        <ele>114.220957</ele>
        <time>2026-08-29T07:21:29Z</time>
      </trkpt>
      <trkpt lat="43.87145" lon="1.88734">
        <ele>114.27057</ele>
        <time>2026-08-29T07:21:30Z</time>
      </trkpt>
      <trkpt lat="43.87146" lon="1.88735">
        <ele>114.313358</ele>
        <time>2026-08-29T07:21:31Z</time>
      </trkpt>
      <trkpt lat="43.87147" lon="1.88735">
        <ele>114.361064</ele>
        <time>2026-08-29T07:21:32Z</time>
      </trkpt>
      <trkpt lat="43.87149" lon="1.88735">
        <ele>114.415427</ele>
        <time>2026-08-29T07:21:33Z</time>
      </trkpt>
      <trkpt lat="43.8715" lon="1.88736">
        <ele>114.469977</ele>
        <time>2026-08-29T07:21:34Z</time>
      </trkpt>
      <trkpt lat="43.87153" lon="1.88736">
        <ele>114.562854</ele>
        <time>2026-08-29T07:21:35Z</time>
      </trkpt>
      <trkpt lat="43.87154" lon="1.88737">
        <ele>114.629699</ele>
        <time>2026-08-29T07:21:36Z</time>
      </trkpt>
      <trkpt lat="43.87156" lon="1.88739">
        <ele>114.716002</ele>
        <time>2026-08-29T07:21:37Z</time>
      </trkpt>
      <trkpt lat="43.87158" lon="1.88741">
        <ele>114.753978</ele>
        <time>2026-08-29T07:21:38Z</time>
      </trkpt>
      <trkpt lat="43.8716" lon="1.88743">
        <ele>114.784133</ele>
        <time>2026-08-29T07:21:39Z</time>
      </trkpt>
      <trkpt lat="43.87162" lon="1.88745">
        <ele>114.810878</ele>
        <time>2026-08-29T07:21:40Z</time>
      </trkpt>
      <trkpt lat="43.87163" lon="1.88747">
        <ele>114.840745</ele>
        <time>2026-08-29T07:21:41Z</time>
      </trkpt>
      <trkpt lat="43.87165" lon="1.88749">
        <ele>114.863204</ele>
        <time>2026-08-29T07:21:42Z</time>
      </trkpt>
      <trkpt lat="43.87167" lon="1.8875">
        <ele>114.889409</ele>
        <time>2026-08-29T07:21:43Z</time>
      </trkpt>
      <trkpt lat="43.87169" lon="1.88752">
        <ele>114.919833</ele>
        <time>2026-08-29T07:21:44Z</time>
      </trkpt>
      <trkpt lat="43.87171" lon="1.88753">
        <ele>114.948543</ele>
        <time>2026-08-29T07:21:45Z</time>
      </trkpt>
      <trkpt lat="43.87173" lon="1.88755">
        <ele>114.981216</ele>
        <time>2026-08-29T07:21:46Z</time>
      </trkpt>
      <trkpt lat="43.87175" lon="1.88756">
        <ele>115.007726</ele>
        <time>2026-08-29T07:21:47Z</time>
      </trkpt>
      <trkpt lat="43.87177" lon="1.88758">
        <ele>115.040399</ele>
        <time>2026-08-29T07:21:48Z</time>
      </trkpt>
      <trkpt lat="43.8718" lon="1.88759">
        <ele>115.071603</ele>
        <time>2026-08-29T07:21:49Z</time>
      </trkpt>
      <trkpt lat="43.87182" lon="1.88761">
        <ele>115.107156</ele>
        <time>2026-08-29T07:21:50Z</time>
      </trkpt>
      <trkpt lat="43.87184" lon="1.88762">
        <ele>115.134475</ele>
        <time>2026-08-29T07:21:51Z</time>
      </trkpt>
      <trkpt lat="43.87186" lon="1.88764">
        <ele>115.160562</ele>
        <time>2026-08-29T07:21:52Z</time>
      </trkpt>
      <trkpt lat="43.87187" lon="1.88765">
        <ele>115.185667</ele>
        <time>2026-08-29T07:21:53Z</time>
      </trkpt>
      <trkpt lat="43.87189" lon="1.88766">
        <ele>115.207951</ele>
        <time>2026-08-29T07:21:54Z</time>
      </trkpt>
      <trkpt lat="43.87191" lon="1.88767">
        <ele>115.231771</ele>
        <time>2026-08-29T07:21:55Z</time>
      </trkpt>
      <trkpt lat="43.87192" lon="1.88769">
        <ele>115.258674</ele>
        <time>2026-08-29T07:21:56Z</time>
      </trkpt>
      <trkpt lat="43.87194" lon="1.8877">
        <ele>115.287384</ele>
        <time>2026-08-29T07:21:57Z</time>
      </trkpt>
      <trkpt lat="43.87196" lon="1.88772">
        <ele>115.318259</ele>
        <time>2026-08-29T07:21:58Z</time>
      </trkpt>
      <trkpt lat="43.87198" lon="1.88773">
        <ele>115.346306</ele>
        <time>2026-08-29T07:21:59Z</time>
      </trkpt>
      <trkpt lat="43.87201" lon="1.88775">
        <ele>115.377849</ele>
        <time>2026-08-29T07:22:00Z</time>
      </trkpt>
      <trkpt lat="43.87203" lon="1.88776">
        <ele>115.412084</ele>
        <time>2026-08-29T07:22:01Z</time>
      </trkpt>
      <trkpt lat="43.87205" lon="1.88777">
        <ele>115.436085</ele>
        <time>2026-08-29T07:22:02Z</time>
      </trkpt>
      <trkpt lat="43.87207" lon="1.88778">
        <ele>115.461299</ele>
        <time>2026-08-29T07:22:03Z</time>
      </trkpt>
      <trkpt lat="43.87209" lon="1.88779">
        <ele>115.485596</ele>
        <time>2026-08-29T07:22:04Z</time>
      </trkpt>
      <trkpt lat="43.8721" lon="1.8878">
        <ele>115.509617</ele>
        <time>2026-08-29T07:22:05Z</time>
      </trkpt>
      <trkpt lat="43.87212" lon="1.88782">
        <ele>115.533098</ele>
        <time>2026-08-29T07:22:06Z</time>
      </trkpt>
      <trkpt lat="43.87213" lon="1.88783">
        <ele>115.553448</ele>
        <time>2026-08-29T07:22:07Z</time>
      </trkpt>
      <trkpt lat="43.87215" lon="1.88785">
        <ele>115.580605</ele>
        <time>2026-08-29T07:22:08Z</time>
      </trkpt>
      <trkpt lat="43.87216" lon="1.88787">
        <ele>115.611406</ele>
        <time>2026-08-29T07:22:09Z</time>
      </trkpt>
      <trkpt lat="43.87218" lon="1.88791">
        <ele>115.650872</ele>
        <time>2026-08-29T07:22:10Z</time>
      </trkpt>
      <trkpt lat="43.87221" lon="1.88794">
        <ele>115.692848</ele>
        <time>2026-08-29T07:22:11Z</time>
      </trkpt>
      <trkpt lat="43.87224" lon="1.88796">
        <ele>115.739041</ele>
        <time>2026-08-29T07:22:12Z</time>
      </trkpt>
      <trkpt lat="43.87228" lon="1.88798">
        <ele>115.790159</ele>
        <time>2026-08-29T07:22:13Z</time>
      </trkpt>
      <trkpt lat="43.87232" lon="1.888">
        <ele>115.845348</ele>
        <time>2026-08-29T07:22:14Z</time>
      </trkpt>
      <trkpt lat="43.87236" lon="1.88802">
        <ele>115.902654</ele>
        <time>2026-08-29T07:22:15Z</time>
      </trkpt>
      <trkpt lat="43.8724" lon="1.88804">
        <ele>115.955517</ele>
        <time>2026-08-29T07:22:16Z</time>
      </trkpt>
      <trkpt lat="43.87245" lon="1.88806">
        <ele>116.014038</ele>
        <time>2026-08-29T07:22:17Z</time>
      </trkpt>
      <trkpt lat="43.87249" lon="1.88809">
        <ele>116.0782</ele>
        <time>2026-08-29T07:22:18Z</time>
      </trkpt>
      <trkpt lat="43.87254" lon="1.88813">
        <ele>116.150864</ele>
        <time>2026-08-29T07:22:19Z</time>
      </trkpt>
      <trkpt lat="43.87259" lon="1.88816">
        <ele>116.221982</ele>
        <time>2026-08-29T07:22:20Z</time>
      </trkpt>
      <trkpt lat="43.87264" lon="1.88819">
        <ele>116.292813</ele>
        <time>2026-08-29T07:22:21Z</time>
      </trkpt>
      <trkpt lat="43.87269" lon="1.88821">
        <ele>116.358501</ele>
        <time>2026-08-29T07:22:22Z</time>
      </trkpt>
      <trkpt lat="43.87274" lon="1.88823">
        <ele>116.420592</ele>
        <time>2026-08-29T07:22:23Z</time>
      </trkpt>
      <trkpt lat="43.87278" lon="1.88826">
        <ele>116.482493</ele>
        <time>2026-08-29T07:22:24Z</time>
      </trkpt>
      <trkpt lat="43.87283" lon="1.88829">
        <ele>116.540896</ele>
        <time>2026-08-29T07:22:25Z</time>
      </trkpt>
      <trkpt lat="43.87287" lon="1.88831">
        <ele>116.601793</ele>
        <time>2026-08-29T07:22:26Z</time>
      </trkpt>
      <trkpt lat="43.87292" lon="1.88833">
        <ele>116.662381</ele>
        <time>2026-08-29T07:22:27Z</time>
      </trkpt>
      <trkpt lat="43.87296" lon="1.88835">
        <ele>116.717021</ele>
        <time>2026-08-29T07:22:28Z</time>
      </trkpt>
      <trkpt lat="43.873" lon="1.88837">
        <ele>116.76951</ele>
        <time>2026-08-29T07:22:29Z</time>
      </trkpt>
      <trkpt lat="43.87303" lon="1.88839">
        <ele>116.812184</ele>
        <time>2026-08-29T07:22:30Z</time>
      </trkpt>
      <trkpt lat="43.87305" lon="1.8884">
        <ele>116.846445</ele>
        <time>2026-08-29T07:22:31Z</time>
      </trkpt>
      <trkpt lat="43.87308" lon="1.88842">
        <ele>116.884899</ele>
        <time>2026-08-29T07:22:32Z</time>
      </trkpt>
      <trkpt lat="43.87311" lon="1.88844">
        <ele>116.927165</ele>
        <time>2026-08-29T07:22:33Z</time>
      </trkpt>
      <trkpt lat="43.87314" lon="1.88846">
        <ele>116.974426</ele>
        <time>2026-08-29T07:22:34Z</time>
      </trkpt>
      <trkpt lat="43.87318" lon="1.88848">
        <ele>117.045097</ele>
        <time>2026-08-29T07:22:35Z</time>
      </trkpt>
      <trkpt lat="43.87322" lon="1.8885">
        <ele>117.191624</ele>
        <time>2026-08-29T07:22:36Z</time>
      </trkpt>
      <trkpt lat="43.87326" lon="1.88853">
        <ele>117.346027</ele>
        <time>2026-08-29T07:22:37Z</time>
      </trkpt>
      <trkpt lat="43.8733" lon="1.88855">
        <ele>117.495247</ele>
        <time>2026-08-29T07:22:38Z</time>
      </trkpt>
      <trkpt lat="43.87334" lon="1.88858">
        <ele>117.654977</ele>
        <time>2026-08-29T07:22:39Z</time>
      </trkpt>
      <trkpt lat="43.87338" lon="1.8886">
        <ele>117.812478</ele>
        <time>2026-08-29T07:22:40Z</time>
      </trkpt>
      <trkpt lat="43.87342" lon="1.88862">
        <ele>117.956648</ele>
        <time>2026-08-29T07:22:41Z</time>
      </trkpt>
      <trkpt lat="43.87345" lon="1.88864">
        <ele>118.07246</ele>
        <time>2026-08-29T07:22:42Z</time>
      </trkpt>
      <trkpt lat="43.87349" lon="1.88865">
        <ele>118.183373</ele>
        <time>2026-08-29T07:22:43Z</time>
      </trkpt>
      <trkpt lat="43.87351" lon="1.88866">
        <ele>118.265781</ele>
        <time>2026-08-29T07:22:44Z</time>
      </trkpt>
      <trkpt lat="43.87353" lon="1.88868">
        <ele>118.357789</ele>
        <time>2026-08-29T07:22:45Z</time>
      </trkpt>
      <trkpt lat="43.87356" lon="1.88869">
        <ele>118.444894</ele>
        <time>2026-08-29T07:22:46Z</time>
      </trkpt>
      <trkpt lat="43.87359" lon="1.8887">
        <ele>118.553206</ele>
        <time>2026-08-29T07:22:47Z</time>
      </trkpt>
      <trkpt lat="43.87362" lon="1.88872">
        <ele>118.663102</ele>
        <time>2026-08-29T07:22:48Z</time>
      </trkpt>
      <trkpt lat="43.87365" lon="1.88873">
        <ele>118.778733</ele>
        <time>2026-08-29T07:22:49Z</time>
      </trkpt>
      <trkpt lat="43.87368" lon="1.88875">
        <ele>118.905053</ele>
        <time>2026-08-29T07:22:50Z</time>
      </trkpt>
      <trkpt lat="43.87371" lon="1.88877">
        <ele>119.022873</ele>
        <time>2026-08-29T07:22:51Z</time>
      </trkpt>
      <trkpt lat="43.87374" lon="1.88879">
        <ele>119.137749</ele>
        <time>2026-08-29T07:22:52Z</time>
      </trkpt>
      <trkpt lat="43.87377" lon="1.8888">
        <ele>119.235454</ele>
        <time>2026-08-29T07:22:53Z</time>
      </trkpt>
      <trkpt lat="43.8738" lon="1.88881">
        <ele>119.339061</ele>
        <time>2026-08-29T07:22:54Z</time>
      </trkpt>
      <trkpt lat="43.87383" lon="1.88882">
        <ele>119.439349</ele>
        <time>2026-08-29T07:22:55Z</time>
      </trkpt>
      <trkpt lat="43.87385" lon="1.88883">
        <ele>119.525026</ele>
        <time>2026-08-29T07:22:56Z</time>
      </trkpt>
      <trkpt lat="43.87388" lon="1.88884">
        <ele>119.618893</ele>
        <time>2026-08-29T07:22:57Z</time>
      </trkpt>
      <trkpt lat="43.8739" lon="1.88886">
        <ele>119.705999</ele>
        <time>2026-08-29T07:22:58Z</time>
      </trkpt>
      <trkpt lat="43.87393" lon="1.88887">
        <ele>119.796383</ele>
        <time>2026-08-29T07:22:59Z</time>
      </trkpt>
      <trkpt lat="43.87395" lon="1.88888">
        <ele>119.886047</ele>
        <time>2026-08-29T07:23:00Z</time>
      </trkpt>
      <trkpt lat="43.87397" lon="1.88889">
        <ele>119.968455</ele>
        <time>2026-08-29T07:23:01Z</time>
      </trkpt>
      <trkpt lat="43.874" lon="1.88891">
        <ele>120.071688</ele>
        <time>2026-08-29T07:23:02Z</time>
      </trkpt>
      <trkpt lat="43.87403" lon="1.88892">
        <ele>120.164597</ele>
        <time>2026-08-29T07:23:03Z</time>
      </trkpt>
      <trkpt lat="43.87405" lon="1.88893">
        <ele>120.256945</ele>
        <time>2026-08-29T07:23:04Z</time>
      </trkpt>
      <trkpt lat="43.87408" lon="1.88894">
        <ele>120.357938</ele>
        <time>2026-08-29T07:23:05Z</time>
      </trkpt>
      <trkpt lat="43.87411" lon="1.88895">
        <ele>120.452367</ele>
        <time>2026-08-29T07:23:06Z</time>
      </trkpt>
      <trkpt lat="43.87413" lon="1.88897">
        <ele>120.554936</ele>
        <time>2026-08-29T07:23:07Z</time>
      </trkpt>
      <trkpt lat="43.87417" lon="1.88899">
        <ele>120.673024</ele>
        <time>2026-08-29T07:23:08Z</time>
      </trkpt>
      <trkpt lat="43.8742" lon="1.889">
        <ele>120.787899</ele>
        <time>2026-08-29T07:23:09Z</time>
      </trkpt>
      <trkpt lat="43.87423" lon="1.88902">
        <ele>120.895452</ele>
        <time>2026-08-29T07:23:10Z</time>
      </trkpt>
      <trkpt lat="43.87425" lon="1.88904">
        <ele>121.003948</ele>
        <time>2026-08-29T07:23:11Z</time>
      </trkpt>
      <trkpt lat="43.87428" lon="1.88905">
        <ele>121.107386</ele>
        <time>2026-08-29T07:23:12Z</time>
      </trkpt>
      <trkpt lat="43.87431" lon="1.88907">
        <ele>121.209568</ele>
        <time>2026-08-29T07:23:13Z</time>
      </trkpt>
      <trkpt lat="43.87433" lon="1.88908">
        <ele>121.304449</ele>
        <time>2026-08-29T07:23:14Z</time>
      </trkpt>
      <trkpt lat="43.87436" lon="1.8891">
        <ele>121.403783</ele>
        <time>2026-08-29T07:23:15Z</time>
      </trkpt>
      <trkpt lat="43.87439" lon="1.88911">
        <ele>121.499896</ele>
        <time>2026-08-29T07:23:16Z</time>
      </trkpt>
      <trkpt lat="43.87441" lon="1.88913">
        <ele>121.59601</ele>
        <time>2026-08-29T07:23:17Z</time>
      </trkpt>
      <trkpt lat="43.87444" lon="1.88914">
        <ele>121.691252</ele>
        <time>2026-08-29T07:23:18Z</time>
      </trkpt>
      <trkpt lat="43.87446" lon="1.88915">
        <ele>121.781967</ele>
        <time>2026-08-29T07:23:19Z</time>
      </trkpt>
      <trkpt lat="43.87449" lon="1.88916">
        <ele>121.872351</ele>
        <time>2026-08-29T07:23:20Z</time>
      </trkpt>
      <trkpt lat="43.87451" lon="1.88918">
        <ele>121.968465</ele>
        <time>2026-08-29T07:23:21Z</time>
      </trkpt>
      <trkpt lat="43.87454" lon="1.88919">
        <ele>122.075124</ele>
        <time>2026-08-29T07:23:22Z</time>
      </trkpt>
      <trkpt lat="43.87457" lon="1.88921">
        <ele>122.184202</ele>
        <time>2026-08-29T07:23:23Z</time>
      </trkpt>
      <trkpt lat="43.8746" lon="1.88922">
        <ele>122.299078</ele>
        <time>2026-08-29T07:23:24Z</time>
      </trkpt>
      <trkpt lat="43.87463" lon="1.88924">
        <ele>122.402516</ele>
        <time>2026-08-29T07:23:25Z</time>
      </trkpt>
      <trkpt lat="43.87466" lon="1.88926">
        <ele>122.517391</ele>
        <time>2026-08-29T07:23:26Z</time>
      </trkpt>
      <trkpt lat="43.87469" lon="1.88928">
        <ele>122.627916</ele>
        <time>2026-08-29T07:23:27Z</time>
      </trkpt>
      <trkpt lat="43.87472" lon="1.88929">
        <ele>122.735468</ele>
        <time>2026-08-29T07:23:28Z</time>
      </trkpt>
      <trkpt lat="43.87475" lon="1.88931">
        <ele>122.839827</ele>
        <time>2026-08-29T07:23:29Z</time>
      </trkpt>
      <trkpt lat="43.87478" lon="1.88932">
        <ele>122.940057</ele>
        <time>2026-08-29T07:23:30Z</time>
      </trkpt>
      <trkpt lat="43.8748" lon="1.88934">
        <ele>123.037097</ele>
        <time>2026-08-29T07:23:31Z</time>
      </trkpt>
      <trkpt lat="43.87483" lon="1.88935">
        <ele>123.134137</ele>
        <time>2026-08-29T07:23:32Z</time>
      </trkpt>
      <trkpt lat="43.87486" lon="1.88937">
        <ele>123.218047</ele>
        <time>2026-08-29T07:23:33Z</time>
      </trkpt>
      <trkpt lat="43.87488" lon="1.88938">
        <ele>123.254146</ele>
        <time>2026-08-29T07:23:34Z</time>
      </trkpt>
      <trkpt lat="43.87491" lon="1.8894">
        <ele>123.290449</ele>
        <time>2026-08-29T07:23:35Z</time>
      </trkpt>
      <trkpt lat="43.87494" lon="1.88941">
        <ele>123.331704</ele>
        <time>2026-08-29T07:23:36Z</time>
      </trkpt>
      <trkpt lat="43.87497" lon="1.88943">
        <ele>123.370413</ele>
        <time>2026-08-29T07:23:37Z</time>
      </trkpt>
      <trkpt lat="43.875" lon="1.88944">
        <ele>123.409329</ele>
        <time>2026-08-29T07:23:38Z</time>
      </trkpt>
      <trkpt lat="43.87503" lon="1.88946">
        <ele>123.45261</ele>
        <time>2026-08-29T07:23:39Z</time>
      </trkpt>
      <trkpt lat="43.87507" lon="1.88947">
        <ele>123.493865</ele>
        <time>2026-08-29T07:23:40Z</time>
      </trkpt>
      <trkpt lat="43.8751" lon="1.88948">
        <ele>123.531073</ele>
        <time>2026-08-29T07:23:41Z</time>
      </trkpt>
      <trkpt lat="43.87513" lon="1.8895">
        <ele>123.572895</ele>
        <time>2026-08-29T07:23:42Z</time>
      </trkpt>
      <trkpt lat="43.87516" lon="1.88952">
        <ele>123.616177</ele>
        <time>2026-08-29T07:23:43Z</time>
      </trkpt>
      <trkpt lat="43.87519" lon="1.88953">
        <ele>123.657707</ele>
        <time>2026-08-29T07:23:44Z</time>
      </trkpt>
      <trkpt lat="43.87523" lon="1.88953">
        <ele>123.698896</ele>
        <time>2026-08-29T07:23:45Z</time>
      </trkpt>
      <trkpt lat="43.87526" lon="1.88955">
        <ele>123.745825</ele>
        <time>2026-08-29T07:23:46Z</time>
      </trkpt>
      <trkpt lat="43.8753" lon="1.88956">
        <ele>123.793081</ele>
        <time>2026-08-29T07:23:47Z</time>
      </trkpt>
      <trkpt lat="43.87534" lon="1.88957">
        <ele>123.840009</ele>
        <time>2026-08-29T07:23:48Z</time>
      </trkpt>
      <trkpt lat="43.87538" lon="1.88959">
        <ele>123.895233</ele>
        <time>2026-08-29T07:23:49Z</time>
      </trkpt>
      <trkpt lat="43.87542" lon="1.88961">
        <ele>123.947511</ele>
        <time>2026-08-29T07:23:50Z</time>
      </trkpt>
      <trkpt lat="43.87546" lon="1.88963">
        <ele>124.003028</ele>
        <time>2026-08-29T07:23:51Z</time>
      </trkpt>
      <trkpt lat="43.8755" lon="1.88965">
        <ele>124.056176</ele>
        <time>2026-08-29T07:23:52Z</time>
      </trkpt>
      <trkpt lat="43.87555" lon="1.88967">
        <ele>124.111938</ele>
        <time>2026-08-29T07:23:53Z</time>
      </trkpt>
      <trkpt lat="43.87558" lon="1.88969">
        <ele>124.16109</ele>
        <time>2026-08-29T07:23:54Z</time>
      </trkpt>
      <trkpt lat="43.87563" lon="1.88971">
        <ele>124.214826</ele>
        <time>2026-08-29T07:23:55Z</time>
      </trkpt>
      <trkpt lat="43.87567" lon="1.88973">
        <ele>124.266011</ele>
        <time>2026-08-29T07:23:56Z</time>
      </trkpt>
      <trkpt lat="43.87571" lon="1.88974">
        <ele>124.32573</ele>
        <time>2026-08-29T07:23:57Z</time>
      </trkpt>
      <trkpt lat="43.87576" lon="1.88976">
        <ele>124.385231</ele>
        <time>2026-08-29T07:23:58Z</time>
      </trkpt>
      <trkpt lat="43.8758" lon="1.88978">
        <ele>124.439969</ele>
        <time>2026-08-29T07:23:59Z</time>
      </trkpt>
      <trkpt lat="43.87585" lon="1.8898">
        <ele>124.499511</ele>
        <time>2026-08-29T07:24:00Z</time>
      </trkpt>
      <trkpt lat="43.8759" lon="1.88982">
        <ele>124.560788</ele>
        <time>2026-08-29T07:24:01Z</time>
      </trkpt>
      <trkpt lat="43.87594" lon="1.88984">
        <ele>124.624979</ele>
        <time>2026-08-29T07:24:02Z</time>
      </trkpt>
      <trkpt lat="43.87599" lon="1.88987">
        <ele>124.687417</ele>
        <time>2026-08-29T07:24:03Z</time>
      </trkpt>
      <trkpt lat="43.87605" lon="1.8899">
        <ele>124.760911</ele>
        <time>2026-08-29T07:24:04Z</time>
      </trkpt>
      <trkpt lat="43.8761" lon="1.88992">
        <ele>124.829493</ele>
        <time>2026-08-29T07:24:05Z</time>
      </trkpt>
      <trkpt lat="43.87615" lon="1.88995">
        <ele>124.893094</ele>
        <time>2026-08-29T07:24:06Z</time>
      </trkpt>
      <trkpt lat="43.8762" lon="1.88997">
        <ele>124.955827</ele>
        <time>2026-08-29T07:24:07Z</time>
      </trkpt>
      <trkpt lat="43.87624" lon="1.88999">
        <ele>125.012486</ele>
        <time>2026-08-29T07:24:08Z</time>
      </trkpt>
      <trkpt lat="43.87629" lon="1.89001">
        <ele>125.078832</ele>
        <time>2026-08-29T07:24:09Z</time>
      </trkpt>
      <trkpt lat="43.87634" lon="1.89003">
        <ele>125.135234</ele>
        <time>2026-08-29T07:24:10Z</time>
      </trkpt>
      <trkpt lat="43.87638" lon="1.89004">
        <ele>125.18954</ele>
        <time>2026-08-29T07:24:11Z</time>
      </trkpt>
      <trkpt lat="43.87642" lon="1.89006">
        <ele>125.244852</ele>
        <time>2026-08-29T07:24:12Z</time>
      </trkpt>
      <trkpt lat="43.87647" lon="1.89007">
        <ele>125.302195</ele>
        <time>2026-08-29T07:24:13Z</time>
      </trkpt>
      <trkpt lat="43.87652" lon="1.89009">
        <ele>125.361299</ele>
        <time>2026-08-29T07:24:14Z</time>
      </trkpt>
      <trkpt lat="43.87657" lon="1.8901">
        <ele>125.423001</ele>
        <time>2026-08-29T07:24:15Z</time>
      </trkpt>
      <trkpt lat="43.87662" lon="1.89011">
        <ele>125.445703</ele>
        <time>2026-08-29T07:24:16Z</time>
      </trkpt>
      <trkpt lat="43.87667" lon="1.89013">
        <ele>125.468789</ele>
        <time>2026-08-29T07:24:17Z</time>
      </trkpt>
      <trkpt lat="43.87672" lon="1.89014">
        <ele>125.492428</ele>
        <time>2026-08-29T07:24:18Z</time>
      </trkpt>
      <trkpt lat="43.87678" lon="1.89015">
        <ele>125.517227</ele>
        <time>2026-08-29T07:24:19Z</time>
      </trkpt>
      <trkpt lat="43.87683" lon="1.89016">
        <ele>125.54102</ele>
        <time>2026-08-29T07:24:20Z</time>
      </trkpt>
      <trkpt lat="43.87688" lon="1.89017">
        <ele>125.563447</ele>
        <time>2026-08-29T07:24:21Z</time>
      </trkpt>
      <trkpt lat="43.87693" lon="1.89018">
        <ele>125.586834</ele>
        <time>2026-08-29T07:24:22Z</time>
      </trkpt>
      <trkpt lat="43.87698" lon="1.89018">
        <ele>125.61012</ele>
        <time>2026-08-29T07:24:23Z</time>
      </trkpt>
      <trkpt lat="43.87703" lon="1.89019">
        <ele>125.632962</ele>
        <time>2026-08-29T07:24:24Z</time>
      </trkpt>
      <trkpt lat="43.87708" lon="1.89019">
        <ele>125.654026</ele>
        <time>2026-08-29T07:24:25Z</time>
      </trkpt>
      <trkpt lat="43.87712" lon="1.8902">
        <ele>125.673348</ele>
        <time>2026-08-29T07:24:26Z</time>
      </trkpt>
      <trkpt lat="43.87716" lon="1.8902">
        <ele>125.691225</ele>
        <time>2026-08-29T07:24:27Z</time>
      </trkpt>
      <trkpt lat="43.87721" lon="1.8902">
        <ele>125.710145</ele>
        <time>2026-08-29T07:24:28Z</time>
      </trkpt>
      <trkpt lat="43.87725" lon="1.89019">
        <ele>125.730714</ele>
        <time>2026-08-29T07:24:29Z</time>
      </trkpt>
      <trkpt lat="43.8773" lon="1.89019">
        <ele>125.751711</ele>
        <time>2026-08-29T07:24:30Z</time>
      </trkpt>
      <trkpt lat="43.87735" lon="1.89019">
        <ele>125.774035</ele>
        <time>2026-08-29T07:24:31Z</time>
      </trkpt>
      <trkpt lat="43.8774" lon="1.89018">
        <ele>125.798589</ele>
        <time>2026-08-29T07:24:32Z</time>
      </trkpt>
      <trkpt lat="43.87745" lon="1.89018">
        <ele>125.820905</ele>
        <time>2026-08-29T07:24:33Z</time>
      </trkpt>
      <trkpt lat="43.87751" lon="1.89019">
        <ele>125.844734</ele>
        <time>2026-08-29T07:24:34Z</time>
      </trkpt>
      <trkpt lat="43.87756" lon="1.8902">
        <ele>125.870337</ele>
        <time>2026-08-29T07:24:35Z</time>
      </trkpt>
      <trkpt lat="43.87763" lon="1.89022">
        <ele>125.89837</ele>
        <time>2026-08-29T07:24:36Z</time>
      </trkpt>
      <trkpt lat="43.87769" lon="1.89023">
        <ele>125.924982</ele>
        <time>2026-08-29T07:24:37Z</time>
      </trkpt>
      <trkpt lat="43.87775" lon="1.89024">
        <ele>125.95263</ele>
        <time>2026-08-29T07:24:38Z</time>
      </trkpt>
      <trkpt lat="43.87781" lon="1.89026">
        <ele>125.979399</ele>
        <time>2026-08-29T07:24:39Z</time>
      </trkpt>
      <trkpt lat="43.87786" lon="1.89027">
        <ele>126.005418</ele>
        <time>2026-08-29T07:24:40Z</time>
      </trkpt>
      <trkpt lat="43.87792" lon="1.89029">
        <ele>126.031506</ele>
        <time>2026-08-29T07:24:41Z</time>
      </trkpt>
      <trkpt lat="43.87797" lon="1.89031">
        <ele>126.054841</ele>
        <time>2026-08-29T07:24:42Z</time>
      </trkpt>
      <trkpt lat="43.87803" lon="1.89033">
        <ele>126.079989</ele>
        <time>2026-08-29T07:24:43Z</time>
      </trkpt>
      <trkpt lat="43.87808" lon="1.89034">
        <ele>126.103907</ele>
        <time>2026-08-29T07:24:44Z</time>
      </trkpt>
      <trkpt lat="43.87813" lon="1.89037">
        <ele>126.127839</ele>
        <time>2026-08-29T07:24:45Z</time>
      </trkpt>
      <trkpt lat="43.87818" lon="1.89039">
        <ele>126.152507</ele>
        <time>2026-08-29T07:24:46Z</time>
      </trkpt>
      <trkpt lat="43.87823" lon="1.89042">
        <ele>126.177595</ele>
        <time>2026-08-29T07:24:47Z</time>
      </trkpt>
      <trkpt lat="43.87829" lon="1.89045">
        <ele>126.202793</ele>
        <time>2026-08-29T07:24:48Z</time>
      </trkpt>
      <trkpt lat="43.87834" lon="1.89047">
        <ele>126.228645</ele>
        <time>2026-08-29T07:24:49Z</time>
      </trkpt>
      <trkpt lat="43.87839" lon="1.8905">
        <ele>126.258424</ele>
        <time>2026-08-29T07:24:50Z</time>
      </trkpt>
      <trkpt lat="43.87844" lon="1.89053">
        <ele>126.288818</ele>
        <time>2026-08-29T07:24:51Z</time>
      </trkpt>
      <trkpt lat="43.87849" lon="1.89056">
        <ele>126.320944</ele>
        <time>2026-08-29T07:24:52Z</time>
      </trkpt>
      <trkpt lat="43.87855" lon="1.89059">
        <ele>126.351537</ele>
        <time>2026-08-29T07:24:53Z</time>
      </trkpt>
      <trkpt lat="43.8786" lon="1.89062">
        <ele>126.383813</ele>
        <time>2026-08-29T07:24:54Z</time>
      </trkpt>
      <trkpt lat="43.87865" lon="1.89065">
        <ele>126.416231</ele>
        <time>2026-08-29T07:24:55Z</time>
      </trkpt>
      <trkpt lat="43.8787" lon="1.89069">
        <ele>126.447481</ele>
        <time>2026-08-29T07:24:56Z</time>
      </trkpt>
      <trkpt lat="43.87875" lon="1.89072">
        <ele>126.47856</ele>
        <time>2026-08-29T07:24:57Z</time>
      </trkpt>
      <trkpt lat="43.8788" lon="1.89075">
        <ele>126.508325</ele>
        <time>2026-08-29T07:24:58Z</time>
      </trkpt>
      <trkpt lat="43.87885" lon="1.89079">
        <ele>126.53809</ele>
        <time>2026-08-29T07:24:59Z</time>
      </trkpt>
      <trkpt lat="43.8789" lon="1.89082">
        <ele>126.567677</ele>
        <time>2026-08-29T07:25:00Z</time>
      </trkpt>
      <trkpt lat="43.87895" lon="1.89085">
        <ele>126.597607</ele>
        <time>2026-08-29T07:25:01Z</time>
      </trkpt>
      <trkpt lat="43.879" lon="1.89088">
        <ele>126.627193</ele>
        <time>2026-08-29T07:25:02Z</time>
      </trkpt>
      <trkpt lat="43.87904" lon="1.89091">
        <ele>126.655613</ele>
        <time>2026-08-29T07:25:03Z</time>
      </trkpt>
      <trkpt lat="43.87909" lon="1.89095">
        <ele>126.68354</ele>
        <time>2026-08-29T07:25:04Z</time>
      </trkpt>
      <trkpt lat="43.87913" lon="1.89098">
        <ele>126.711356</ele>
        <time>2026-08-29T07:25:05Z</time>
      </trkpt>
      <trkpt lat="43.87918" lon="1.89101">
        <ele>126.740141</ele>
        <time>2026-08-29T07:25:06Z</time>
      </trkpt>
      <trkpt lat="43.87922" lon="1.89105">
        <ele>126.769416</ele>
        <time>2026-08-29T07:25:07Z</time>
      </trkpt>
      <trkpt lat="43.87927" lon="1.89109">
        <ele>126.799459</ele>
        <time>2026-08-29T07:25:08Z</time>
      </trkpt>
      <trkpt lat="43.87931" lon="1.89113">
        <ele>126.829206</ele>
        <time>2026-08-29T07:25:09Z</time>
      </trkpt>
      <trkpt lat="43.87935" lon="1.89119">
        <ele>126.858781</ele>
        <time>2026-08-29T07:25:10Z</time>
      </trkpt>
      <trkpt lat="43.87938" lon="1.89125">
        <ele>126.888169</ele>
        <time>2026-08-29T07:25:11Z</time>
      </trkpt>
      <trkpt lat="43.87941" lon="1.89131">
        <ele>126.918525</ele>
        <time>2026-08-29T07:25:12Z</time>
      </trkpt>
      <trkpt lat="43.87944" lon="1.89137">
        <ele>126.94777</ele>
        <time>2026-08-29T07:25:13Z</time>
      </trkpt>
      <trkpt lat="43.87946" lon="1.89143">
        <ele>126.974823</ele>
        <time>2026-08-29T07:25:14Z</time>
      </trkpt>
      <trkpt lat="43.87948" lon="1.89149">
        <ele>127.002333</ele>
        <time>2026-08-29T07:25:15Z</time>
      </trkpt>
      <trkpt lat="43.87951" lon="1.89156">
        <ele>127.029843</ele>
        <time>2026-08-29T07:25:16Z</time>
      </trkpt>
      <trkpt lat="43.87953" lon="1.89162">
        <ele>127.057248</ele>
        <time>2026-08-29T07:25:17Z</time>
      </trkpt>
      <trkpt lat="43.87955" lon="1.89167">
        <ele>127.082987</ele>
        <time>2026-08-29T07:25:18Z</time>
      </trkpt>
      <trkpt lat="43.87958" lon="1.89173">
        <ele>127.108508</ele>
        <time>2026-08-29T07:25:19Z</time>
      </trkpt>
      <trkpt lat="43.8796" lon="1.89178">
        <ele>127.132934</ele>
        <time>2026-08-29T07:25:20Z</time>
      </trkpt>
      <trkpt lat="43.87962" lon="1.89184">
        <ele>127.156855</ele>
        <time>2026-08-29T07:25:21Z</time>
      </trkpt>
      <trkpt lat="43.87964" lon="1.89188">
        <ele>127.179499</ele>
        <time>2026-08-29T07:25:22Z</time>
      </trkpt>
      <trkpt lat="43.87965" lon="1.89194">
        <ele>127.201796</ele>
        <time>2026-08-29T07:25:23Z</time>
      </trkpt>
      <trkpt lat="43.87967" lon="1.89198">
        <ele>127.225526</ele>
        <time>2026-08-29T07:25:24Z</time>
      </trkpt>
      <trkpt lat="43.87969" lon="1.89203">
        <ele>127.253423</ele>
        <time>2026-08-29T07:25:25Z</time>
      </trkpt>
      <trkpt lat="43.8797" lon="1.89208">
        <ele>127.282729</ele>
        <time>2026-08-29T07:25:26Z</time>
      </trkpt>
      <trkpt lat="43.87971" lon="1.89212">
        <ele>127.310933</ele>
        <time>2026-08-29T07:25:27Z</time>
      </trkpt>
      <trkpt lat="43.87973" lon="1.89217">
        <ele>127.340549</ele>
        <time>2026-08-29T07:25:28Z</time>
      </trkpt>
      <trkpt lat="43.87974" lon="1.89221">
        <ele>127.368038</ele>
        <time>2026-08-29T07:25:29Z</time>
      </trkpt>
      <trkpt lat="43.87976" lon="1.89225">
        <ele>127.39626</ele>
        <time>2026-08-29T07:25:30Z</time>
      </trkpt>
      <trkpt lat="43.87978" lon="1.89229">
        <ele>127.423803</ele>
        <time>2026-08-29T07:25:31Z</time>
      </trkpt>
      <trkpt lat="43.8798" lon="1.89233">
        <ele>127.44975</ele>
        <time>2026-08-29T07:25:32Z</time>
      </trkpt>
      <trkpt lat="43.87981" lon="1.89238">
        <ele>127.477648</ele>
        <time>2026-08-29T07:25:33Z</time>
      </trkpt>
      <trkpt lat="43.87983" lon="1.89242">
        <ele>127.509295</ele>
        <time>2026-08-29T07:25:34Z</time>
      </trkpt>
      <trkpt lat="43.87984" lon="1.89248">
        <ele>127.541973</ele>
        <time>2026-08-29T07:25:35Z</time>
      </trkpt>
      <trkpt lat="43.87986" lon="1.89253">
        <ele>127.575383</ele>
        <time>2026-08-29T07:25:36Z</time>
      </trkpt>
      <trkpt lat="43.87989" lon="1.89258">
        <ele>127.609093</ele>
        <time>2026-08-29T07:25:37Z</time>
      </trkpt>
      <trkpt lat="43.87991" lon="1.89263">
        <ele>127.644189</ele>
        <time>2026-08-29T07:25:38Z</time>
      </trkpt>
      <trkpt lat="43.87992" lon="1.89269">
        <ele>127.679473</ele>
        <time>2026-08-29T07:25:39Z</time>
      </trkpt>
      <trkpt lat="43.87994" lon="1.89275">
        <ele>127.716135</ele>
        <time>2026-08-29T07:25:40Z</time>
      </trkpt>
      <trkpt lat="43.87996" lon="1.8928">
        <ele>127.75332</ele>
        <time>2026-08-29T07:25:41Z</time>
      </trkpt>
      <trkpt lat="43.87998" lon="1.89286">
        <ele>127.792426</ele>
        <time>2026-08-29T07:25:42Z</time>
      </trkpt>
      <trkpt lat="43.88001" lon="1.89292">
        <ele>127.833076</ele>
        <time>2026-08-29T07:25:43Z</time>
      </trkpt>
      <trkpt lat="43.88004" lon="1.89298">
        <ele>127.870894</ele>
        <time>2026-08-29T07:25:44Z</time>
      </trkpt>
      <trkpt lat="43.88006" lon="1.89303">
        <ele>127.907375</ele>
        <time>2026-08-29T07:25:45Z</time>
      </trkpt>
      <trkpt lat="43.88008" lon="1.89309">
        <ele>127.9418</ele>
        <time>2026-08-29T07:25:46Z</time>
      </trkpt>
      <trkpt lat="43.8801" lon="1.89314">
        <ele>127.975449</ele>
        <time>2026-08-29T07:25:47Z</time>
      </trkpt>
      <trkpt lat="43.88012" lon="1.89318">
        <ele>128.007353</ele>
        <time>2026-08-29T07:25:48Z</time>
      </trkpt>
      <trkpt lat="43.88014" lon="1.89323">
        <ele>128.035557</ele>
        <time>2026-08-29T07:25:49Z</time>
      </trkpt>
      <trkpt lat="43.88016" lon="1.89327">
        <ele>128.065568</ele>
        <time>2026-08-29T07:25:50Z</time>
      </trkpt>
      <trkpt lat="43.88017" lon="1.89332">
        <ele>128.095579</ele>
        <time>2026-08-29T07:25:51Z</time>
      </trkpt>
      <trkpt lat="43.88019" lon="1.89337">
        <ele>128.126872</ele>
        <time>2026-08-29T07:25:52Z</time>
      </trkpt>
      <trkpt lat="43.88021" lon="1.89342">
        <ele>128.159937</ele>
        <time>2026-08-29T07:25:53Z</time>
      </trkpt>
      <trkpt lat="43.88022" lon="1.89348">
        <ele>128.195435</ele>
        <time>2026-08-29T07:25:54Z</time>
      </trkpt>
      <trkpt lat="43.88024" lon="1.89353">
        <ele>128.230194</ele>
        <time>2026-08-29T07:25:55Z</time>
      </trkpt>
      <trkpt lat="43.88026" lon="1.89359">
        <ele>128.265691</ele>
        <time>2026-08-29T07:25:56Z</time>
      </trkpt>
      <trkpt lat="43.88028" lon="1.89365">
        <ele>128.301308</ele>
        <time>2026-08-29T07:25:57Z</time>
      </trkpt>
      <trkpt lat="43.8803" lon="1.89371">
        <ele>128.338493</ele>
        <time>2026-08-29T07:25:58Z</time>
      </trkpt>
      <trkpt lat="43.88032" lon="1.89376">
        <ele>128.375843</ele>
        <time>2026-08-29T07:25:59Z</time>
      </trkpt>
      <trkpt lat="43.88034" lon="1.89382">
        <ele>128.414406</ele>
        <time>2026-08-29T07:26:00Z</time>
      </trkpt>
      <trkpt lat="43.88036" lon="1.89388">
        <ele>128.452271</ele>
        <time>2026-08-29T07:26:01Z</time>
      </trkpt>
      <trkpt lat="43.88038" lon="1.89394">
        <ele>128.491522</ele>
        <time>2026-08-29T07:26:02Z</time>
      </trkpt>
      <trkpt lat="43.8804" lon="1.89401">
        <ele>128.531806</ele>
        <time>2026-08-29T07:26:03Z</time>
      </trkpt>
      <trkpt lat="43.88043" lon="1.89407">
        <ele>128.571572</ele>
        <time>2026-08-29T07:26:04Z</time>
      </trkpt>
      <trkpt lat="43.88045" lon="1.89413">
        <ele>128.613968</ele>
        <time>2026-08-29T07:26:05Z</time>
      </trkpt>
      <trkpt lat="43.88048" lon="1.8942">
        <ele>128.653589</ele>
        <time>2026-08-29T07:26:06Z</time>
      </trkpt>
      <trkpt lat="43.8805" lon="1.89426">
        <ele>128.660289</ele>
        <time>2026-08-29T07:26:07Z</time>
      </trkpt>
      <trkpt lat="43.88053" lon="1.89433">
        <ele>128.66735</ele>
        <time>2026-08-29T07:26:08Z</time>
      </trkpt>
      <trkpt lat="43.88055" lon="1.8944">
        <ele>128.674604</ele>
        <time>2026-08-29T07:26:09Z</time>
      </trkpt>
      <trkpt lat="43.88058" lon="1.89447">
        <ele>128.681524</ele>
        <time>2026-08-29T07:26:10Z</time>
      </trkpt>
      <trkpt lat="43.8806" lon="1.89454">
        <ele>128.688585</ele>
        <time>2026-08-29T07:26:11Z</time>
      </trkpt>
      <trkpt lat="43.88062" lon="1.8946">
        <ele>128.695176</ele>
        <time>2026-08-29T07:26:12Z</time>
      </trkpt>
      <trkpt lat="43.88065" lon="1.89466">
        <ele>128.701909</ele>
        <time>2026-08-29T07:26:13Z</time>
      </trkpt>
      <trkpt lat="43.88068" lon="1.89473">
        <ele>128.708929</ele>
        <time>2026-08-29T07:26:14Z</time>
      </trkpt>
      <trkpt lat="43.88071" lon="1.89479">
        <ele>128.715832</ele>
        <time>2026-08-29T07:26:15Z</time>
      </trkpt>
      <trkpt lat="43.88073" lon="1.89485">
        <ele>128.722219</ele>
        <time>2026-08-29T07:26:16Z</time>
      </trkpt>
      <trkpt lat="43.88076" lon="1.8949">
        <ele>128.728523</ele>
        <time>2026-08-29T07:26:17Z</time>
      </trkpt>
      <trkpt lat="43.88079" lon="1.89496">
        <ele>128.734827</ele>
        <time>2026-08-29T07:26:18Z</time>
      </trkpt>
      <trkpt lat="43.88082" lon="1.89501">
        <ele>128.740874</ele>
        <time>2026-08-29T07:26:19Z</time>
      </trkpt>
      <trkpt lat="43.88085" lon="1.89506">
        <ele>128.746892</ele>
        <time>2026-08-29T07:26:20Z</time>
      </trkpt>
      <trkpt lat="43.88088" lon="1.8951">
        <ele>128.752545</ele>
        <time>2026-08-29T07:26:21Z</time>
      </trkpt>
      <trkpt lat="43.88091" lon="1.89515">
        <ele>128.758098</ele>
        <time>2026-08-29T07:26:22Z</time>
      </trkpt>
      <trkpt lat="43.88093" lon="1.8952">
        <ele>128.763426</ele>
        <time>2026-08-29T07:26:23Z</time>
      </trkpt>
      <trkpt lat="43.88096" lon="1.89524">
        <ele>128.768609</ele>
        <time>2026-08-29T07:26:24Z</time>
      </trkpt>
      <trkpt lat="43.88098" lon="1.89528">
        <ele>128.773445</ele>
        <time>2026-08-29T07:26:25Z</time>
      </trkpt>
      <trkpt lat="43.88101" lon="1.89531">
        <ele>128.777811</ele>
        <time>2026-08-29T07:26:26Z</time>
      </trkpt>
      <trkpt lat="43.88103" lon="1.89535">
        <ele>128.78224</ele>
        <time>2026-08-29T07:26:27Z</time>
      </trkpt>
      <trkpt lat="43.88105" lon="1.89539">
        <ele>128.786594</ele>
        <time>2026-08-29T07:26:28Z</time>
      </trkpt>
      <trkpt lat="43.88107" lon="1.89543">
        <ele>128.790573</ele>
        <time>2026-08-29T07:26:29Z</time>
      </trkpt>
      <trkpt lat="43.88109" lon="1.89546">
        <ele>128.794491</ele>
        <time>2026-08-29T07:26:30Z</time>
      </trkpt>
      <trkpt lat="43.8811" lon="1.89549">
        <ele>128.798468</ele>
        <time>2026-08-29T07:26:31Z</time>
      </trkpt>
      <trkpt lat="43.88112" lon="1.89553">
        <ele>128.802745</ele>
        <time>2026-08-29T07:26:32Z</time>
      </trkpt>
      <trkpt lat="43.88115" lon="1.89557">
        <ele>128.807265</ele>
        <time>2026-08-29T07:26:33Z</time>
      </trkpt>
      <trkpt lat="43.88117" lon="1.89561">
        <ele>128.812178</ele>
        <time>2026-08-29T07:26:34Z</time>
      </trkpt>
      <trkpt lat="43.88119" lon="1.89565">
        <ele>128.817285</ele>
        <time>2026-08-29T07:26:35Z</time>
      </trkpt>
      <trkpt lat="43.88122" lon="1.8957">
        <ele>128.822637</ele>
        <time>2026-08-29T07:26:36Z</time>
      </trkpt>
      <trkpt lat="43.88124" lon="1.89575">
        <ele>128.828266</ele>
        <time>2026-08-29T07:26:37Z</time>
      </trkpt>
      <trkpt lat="43.88127" lon="1.8958">
        <ele>128.834347</ele>
        <time>2026-08-29T07:26:38Z</time>
      </trkpt>
      <trkpt lat="43.8813" lon="1.89586">
        <ele>128.840502</ele>
        <time>2026-08-29T07:26:39Z</time>
      </trkpt>
      <trkpt lat="43.88133" lon="1.89591">
        <ele>128.84696</ele>
        <time>2026-08-29T07:26:40Z</time>
      </trkpt>
      <trkpt lat="43.88136" lon="1.89597">
        <ele>128.853491</ele>
        <time>2026-08-29T07:26:41Z</time>
      </trkpt>
      <trkpt lat="43.88139" lon="1.89603">
        <ele>128.860247</ele>
        <time>2026-08-29T07:26:42Z</time>
      </trkpt>
      <trkpt lat="43.88142" lon="1.89608">
        <ele>128.86693</ele>
        <time>2026-08-29T07:26:43Z</time>
      </trkpt>
      <trkpt lat="43.88146" lon="1.89614">
        <ele>128.873613</ele>
        <time>2026-08-29T07:26:44Z</time>
      </trkpt>
      <trkpt lat="43.88149" lon="1.8962">
        <ele>128.880296</ele>
        <time>2026-08-29T07:26:45Z</time>
      </trkpt>
      <trkpt lat="43.88152" lon="1.89625">
        <ele>128.885963</ele>
        <time>2026-08-29T07:26:46Z</time>
      </trkpt>
      <trkpt lat="43.88155" lon="1.89631">
        <ele>128.890647</ele>
        <time>2026-08-29T07:26:47Z</time>
      </trkpt>
      <trkpt lat="43.88158" lon="1.89637">
        <ele>128.895429</ele>
        <time>2026-08-29T07:26:48Z</time>
      </trkpt>
      <trkpt lat="43.88162" lon="1.89643">
        <ele>128.900321</ele>
        <time>2026-08-29T07:26:49Z</time>
      </trkpt>
      <trkpt lat="43.88165" lon="1.89649">
        <ele>128.905162</ele>
        <time>2026-08-29T07:26:50Z</time>
      </trkpt>
      <trkpt lat="43.88169" lon="1.89654">
        <ele>128.910111</ele>
        <time>2026-08-29T07:26:51Z</time>
      </trkpt>
      <trkpt lat="43.88172" lon="1.8966">
        <ele>128.915117</ele>
        <time>2026-08-29T07:26:52Z</time>
      </trkpt>
      <trkpt lat="43.88176" lon="1.89666">
        <ele>128.919917</ele>
        <time>2026-08-29T07:26:53Z</time>
      </trkpt>
      <trkpt lat="43.88179" lon="1.89671">
        <ele>128.924394</ele>
        <time>2026-08-29T07:26:54Z</time>
      </trkpt>
      <trkpt lat="43.88182" lon="1.89677">
        <ele>128.928979</ele>
        <time>2026-08-29T07:26:55Z</time>
      </trkpt>
      <trkpt lat="43.88185" lon="1.89682">
        <ele>128.933655</ele>
        <time>2026-08-29T07:26:56Z</time>
      </trkpt>
      <trkpt lat="43.88188" lon="1.89688">
        <ele>128.938019</ele>
        <time>2026-08-29T07:26:57Z</time>
      </trkpt>
      <trkpt lat="43.88192" lon="1.89693">
        <ele>128.942446</ele>
        <time>2026-08-29T07:26:58Z</time>
      </trkpt>
      <trkpt lat="43.88195" lon="1.89699">
        <ele>128.947071</ele>
        <time>2026-08-29T07:26:59Z</time>
      </trkpt>
      <trkpt lat="43.88198" lon="1.89704">
        <ele>128.951698</ele>
        <time>2026-08-29T07:27:00Z</time>
      </trkpt>
      <trkpt lat="43.88201" lon="1.8971">
        <ele>128.956535</ele>
        <time>2026-08-29T07:27:01Z</time>
      </trkpt>
      <trkpt lat="43.88205" lon="1.89716">
        <ele>128.961269</ele>
        <time>2026-08-29T07:27:02Z</time>
      </trkpt>
      <trkpt lat="43.88208" lon="1.89721">
        <ele>128.965897</ele>
        <time>2026-08-29T07:27:03Z</time>
      </trkpt>
      <trkpt lat="43.88211" lon="1.89727">
        <ele>128.970688</ele>
        <time>2026-08-29T07:27:04Z</time>
      </trkpt>
      <trkpt lat="43.88214" lon="1.89733">
        <ele>128.975367</ele>
        <time>2026-08-29T07:27:05Z</time>
      </trkpt>
      <trkpt lat="43.88218" lon="1.89739">
        <ele>128.980255</ele>
        <time>2026-08-29T07:27:06Z</time>
      </trkpt>
      <trkpt lat="43.88221" lon="1.89745">
        <ele>128.985203</ele>
        <time>2026-08-29T07:27:07Z</time>
      </trkpt>
      <trkpt lat="43.88224" lon="1.89751">
        <ele>128.989988</ele>
        <time>2026-08-29T07:27:08Z</time>
      </trkpt>
      <trkpt lat="43.88228" lon="1.89757">
        <ele>128.995044</ele>
        <time>2026-08-29T07:27:09Z</time>
      </trkpt>
      <trkpt lat="43.88231" lon="1.89762">
        <ele>128.999778</ele>
        <time>2026-08-29T07:27:10Z</time>
      </trkpt>
      <trkpt lat="43.88235" lon="1.89768">
        <ele>129.004563</ele>
        <time>2026-08-29T07:27:11Z</time>
      </trkpt>
      <trkpt lat="43.88238" lon="1.89774">
        <ele>129.009423</ele>
        <time>2026-08-29T07:27:12Z</time>
      </trkpt>
      <trkpt lat="43.88242" lon="1.89779">
        <ele>129.014264</ele>
        <time>2026-08-29T07:27:13Z</time>
      </trkpt>
      <trkpt lat="43.88245" lon="1.89786">
        <ele>129.019203</ele>
        <time>2026-08-29T07:27:14Z</time>
      </trkpt>
      <trkpt lat="43.88248" lon="1.89792">
        <ele>129.023985</ele>
        <time>2026-08-29T07:27:15Z</time>
      </trkpt>
      <trkpt lat="43.88251" lon="1.89798">
        <ele>129.02863</ele>
        <time>2026-08-29T07:27:16Z</time>
      </trkpt>
      <trkpt lat="43.88253" lon="1.89804">
        <ele>129.033276</ele>
        <time>2026-08-29T07:27:17Z</time>
      </trkpt>
      <trkpt lat="43.88255" lon="1.8981">
        <ele>129.037907</ele>
        <time>2026-08-29T07:27:18Z</time>
      </trkpt>
      <trkpt lat="43.88258" lon="1.89817">
        <ele>129.042888</ele>
        <time>2026-08-29T07:27:19Z</time>
      </trkpt>
      <trkpt lat="43.8826" lon="1.89824">
        <ele>129.054515</ele>
        <time>2026-08-29T07:27:20Z</time>
      </trkpt>
      <trkpt lat="43.88262" lon="1.89831">
        <ele>129.07266</ele>
        <time>2026-08-29T07:27:21Z</time>
      </trkpt>
      <trkpt lat="43.88263" lon="1.89838">
        <ele>129.090688</ele>
        <time>2026-08-29T07:27:22Z</time>
      </trkpt>
      <trkpt lat="43.88265" lon="1.89845">
        <ele>129.108309</ele>
        <time>2026-08-29T07:27:23Z</time>
      </trkpt>
      <trkpt lat="43.88266" lon="1.89852">
        <ele>129.126613</ele>
        <time>2026-08-29T07:27:24Z</time>
      </trkpt>
      <trkpt lat="43.88265" lon="1.89859">
        <ele>129.144901</ele>
        <time>2026-08-29T07:27:25Z</time>
      </trkpt>
      <trkpt lat="43.88264" lon="1.89866">
        <ele>129.162714</ele>
        <time>2026-08-29T07:27:26Z</time>
      </trkpt>
      <trkpt lat="43.88263" lon="1.89873">
        <ele>129.180414</ele>
        <time>2026-08-29T07:27:27Z</time>
      </trkpt>
      <trkpt lat="43.88263" lon="1.89881">
        <ele>129.19973</ele>
        <time>2026-08-29T07:27:28Z</time>
      </trkpt>
      <trkpt lat="43.88265" lon="1.89888">
        <ele>129.219767</ele>
        <time>2026-08-29T07:27:29Z</time>
      </trkpt>
      <trkpt lat="43.88269" lon="1.89895">
        <ele>129.241103</ele>
        <time>2026-08-29T07:27:30Z</time>
      </trkpt>
      <trkpt lat="43.88273" lon="1.899">
        <ele>129.261805</ele>
        <time>2026-08-29T07:27:31Z</time>
      </trkpt>
      <trkpt lat="43.88279" lon="1.89903">
        <ele>129.282408</ele>
        <time>2026-08-29T07:27:32Z</time>
      </trkpt>
      <trkpt lat="43.88285" lon="1.89904">
        <ele>129.303457</ele>
        <time>2026-08-29T07:27:33Z</time>
      </trkpt>
      <trkpt lat="43.8829" lon="1.89907">
        <ele>129.323321</ele>
        <time>2026-08-29T07:27:34Z</time>
      </trkpt>
      <trkpt lat="43.88295" lon="1.89911">
        <ele>129.342952</ele>
        <time>2026-08-29T07:27:35Z</time>
      </trkpt>
      <trkpt lat="43.883" lon="1.89916">
        <ele>129.362132</ele>
        <time>2026-08-29T07:27:36Z</time>
      </trkpt>
      <trkpt lat="43.88303" lon="1.89921">
        <ele>129.380613</ele>
        <time>2026-08-29T07:27:37Z</time>
      </trkpt>
      <trkpt lat="43.88306" lon="1.89927">
        <ele>129.397489</ele>
        <time>2026-08-29T07:27:38Z</time>
      </trkpt>
      <trkpt lat="43.88309" lon="1.89932">
        <ele>129.414174</ele>
        <time>2026-08-29T07:27:39Z</time>
      </trkpt>
      <trkpt lat="43.88311" lon="1.89938">
        <ele>129.430926</ele>
        <time>2026-08-29T07:27:40Z</time>
      </trkpt>
      <trkpt lat="43.88313" lon="1.89944">
        <ele>129.447425</ele>
        <time>2026-08-29T07:27:41Z</time>
      </trkpt>
      <trkpt lat="43.88316" lon="1.8995">
        <ele>129.465142</ele>
        <time>2026-08-29T07:27:42Z</time>
      </trkpt>
      <trkpt lat="43.88319" lon="1.89955">
        <ele>129.482251</ele>
        <time>2026-08-29T07:27:43Z</time>
      </trkpt>
      <trkpt lat="43.88321" lon="1.89962">
        <ele>129.500264</ele>
        <time>2026-08-29T07:27:44Z</time>
      </trkpt>
      <trkpt lat="43.88324" lon="1.89968">
        <ele>129.518557</ele>
        <time>2026-08-29T07:27:45Z</time>
      </trkpt>
      <trkpt lat="43.88326" lon="1.89975">
        <ele>129.537397</ele>
        <time>2026-08-29T07:27:46Z</time>
      </trkpt>
      <trkpt lat="43.88329" lon="1.89981">
        <ele>129.556364</ele>
        <time>2026-08-29T07:27:47Z</time>
      </trkpt>
      <trkpt lat="43.88332" lon="1.89988">
        <ele>129.575547</ele>
        <time>2026-08-29T07:27:48Z</time>
      </trkpt>
      <trkpt lat="43.88335" lon="1.89995">
        <ele>129.594946</ele>
        <time>2026-08-29T07:27:49Z</time>
      </trkpt>
      <trkpt lat="43.88338" lon="1.90001">
        <ele>129.614702</ele>
        <time>2026-08-29T07:27:50Z</time>
      </trkpt>
      <trkpt lat="43.88341" lon="1.90008">
        <ele>129.634856</ele>
        <time>2026-08-29T07:27:51Z</time>
      </trkpt>
      <trkpt lat="43.88344" lon="1.90015">
        <ele>129.654862</ele>
        <time>2026-08-29T07:27:52Z</time>
      </trkpt>
      <trkpt lat="43.88347" lon="1.90022">
        <ele>129.676825</ele>
        <time>2026-08-29T07:27:53Z</time>
      </trkpt>
      <trkpt lat="43.8835" lon="1.90028">
        <ele>129.707158</ele>
        <time>2026-08-29T07:27:54Z</time>
      </trkpt>
      <trkpt lat="43.88353" lon="1.90035">
        <ele>129.736921</ele>
        <time>2026-08-29T07:27:55Z</time>
      </trkpt>
      <trkpt lat="43.88356" lon="1.90042">
        <ele>129.767014</ele>
        <time>2026-08-29T07:27:56Z</time>
      </trkpt>
      <trkpt lat="43.88359" lon="1.90048">
        <ele>129.797385</ele>
        <time>2026-08-29T07:27:57Z</time>
      </trkpt>
      <trkpt lat="43.88362" lon="1.90055">
        <ele>129.827477</ele>
        <time>2026-08-29T07:27:58Z</time>
      </trkpt>
      <trkpt lat="43.88365" lon="1.90062">
        <ele>129.858835</ele>
        <time>2026-08-29T07:27:59Z</time>
      </trkpt>
      <trkpt lat="43.88367" lon="1.90069">
        <ele>129.88959</ele>
        <time>2026-08-29T07:28:00Z</time>
      </trkpt>
      <trkpt lat="43.8837" lon="1.90076">
        <ele>129.92008</ele>
        <time>2026-08-29T07:28:01Z</time>
      </trkpt>
      <trkpt lat="43.88373" lon="1.90082">
        <ele>129.950736</ele>
        <time>2026-08-29T07:28:02Z</time>
      </trkpt>
      <trkpt lat="43.88376" lon="1.90089">
        <ele>129.980171</ele>
        <time>2026-08-29T07:28:03Z</time>
      </trkpt>
      <trkpt lat="43.88379" lon="1.90095">
        <ele>130.009221</ele>
        <time>2026-08-29T07:28:04Z</time>
      </trkpt>
      <trkpt lat="43.88383" lon="1.90101">
        <ele>130.038007</ele>
        <time>2026-08-29T07:28:05Z</time>
      </trkpt>
      <trkpt lat="43.88386" lon="1.90107">
        <ele>130.066132</ele>
        <time>2026-08-29T07:28:06Z</time>
      </trkpt>
      <trkpt lat="43.88389" lon="1.90112">
        <ele>130.093308</ele>
        <time>2026-08-29T07:28:07Z</time>
      </trkpt>
      <trkpt lat="43.88392" lon="1.90118">
        <ele>130.119547</ele>
        <time>2026-08-29T07:28:08Z</time>
      </trkpt>
      <trkpt lat="43.88395" lon="1.90124">
        <ele>130.146133</ele>
        <time>2026-08-29T07:28:09Z</time>
      </trkpt>
      <trkpt lat="43.88397" lon="1.9013">
        <ele>130.173089</ele>
        <time>2026-08-29T07:28:10Z</time>
      </trkpt>
      <trkpt lat="43.884" lon="1.90136">
        <ele>130.200281</ele>
        <time>2026-08-29T07:28:11Z</time>
      </trkpt>
      <trkpt lat="43.88402" lon="1.90143">
        <ele>130.22828</ele>
        <time>2026-08-29T07:28:12Z</time>
      </trkpt>
      <trkpt lat="43.88404" lon="1.90149">
        <ele>130.256279</ele>
        <time>2026-08-29T07:28:13Z</time>
      </trkpt>
      <trkpt lat="43.88406" lon="1.90155">
        <ele>130.282446</ele>
        <time>2026-08-29T07:28:14Z</time>
      </trkpt>
      <trkpt lat="43.88408" lon="1.90161">
        <ele>130.307003</ele>
        <time>2026-08-29T07:28:15Z</time>
      </trkpt>
      <trkpt lat="43.88411" lon="1.90166">
        <ele>130.331487</ele>
        <time>2026-08-29T07:28:16Z</time>
      </trkpt>
      <trkpt lat="43.88413" lon="1.90172">
        <ele>130.357909</ele>
        <time>2026-08-29T07:28:17Z</time>
      </trkpt>
      <trkpt lat="43.88415" lon="1.90179">
        <ele>130.38579</ele>
        <time>2026-08-29T07:28:18Z</time>
      </trkpt>
      <trkpt lat="43.88418" lon="1.90185">
        <ele>130.41501</ele>
        <time>2026-08-29T07:28:19Z</time>
      </trkpt>
      <trkpt lat="43.88421" lon="1.90192">
        <ele>130.444406</ele>
        <time>2026-08-29T07:28:20Z</time>
      </trkpt>
      <trkpt lat="43.88424" lon="1.90198">
        <ele>130.472905</ele>
        <time>2026-08-29T07:28:21Z</time>
      </trkpt>
      <trkpt lat="43.88427" lon="1.90204">
        <ele>130.501959</ele>
        <time>2026-08-29T07:28:22Z</time>
      </trkpt>
      <trkpt lat="43.8843" lon="1.9021">
        <ele>130.531327</ele>
        <time>2026-08-29T07:28:23Z</time>
      </trkpt>
      <trkpt lat="43.88434" lon="1.90217">
        <ele>130.561314</ele>
        <time>2026-08-29T07:28:24Z</time>
      </trkpt>
      <trkpt lat="43.88437" lon="1.90223">
        <ele>130.592247</ele>
        <time>2026-08-29T07:28:25Z</time>
      </trkpt>
      <trkpt lat="43.88441" lon="1.90229">
        <ele>130.624517</ele>
        <time>2026-08-29T07:28:26Z</time>
      </trkpt>
      <trkpt lat="43.88445" lon="1.90236">
        <ele>130.660202</ele>
        <time>2026-08-29T07:28:27Z</time>
      </trkpt>
      <trkpt lat="43.8845" lon="1.90243">
        <ele>130.700474</ele>
        <time>2026-08-29T07:28:28Z</time>
      </trkpt>
      <trkpt lat="43.88455" lon="1.9025">
        <ele>130.742964</ele>
        <time>2026-08-29T07:28:29Z</time>
      </trkpt>
      <trkpt lat="43.8846" lon="1.90258">
        <ele>130.789122</ele>
        <time>2026-08-29T07:28:30Z</time>
      </trkpt>
      <trkpt lat="43.88465" lon="1.90267">
        <ele>130.835462</ele>
        <time>2026-08-29T07:28:31Z</time>
      </trkpt>
      <trkpt lat="43.88471" lon="1.90276">
        <ele>130.885246</ele>
        <time>2026-08-29T07:28:32Z</time>
      </trkpt>
      <trkpt lat="43.88476" lon="1.90284">
        <ele>130.933258</ele>
        <time>2026-08-29T07:28:33Z</time>
      </trkpt>
      <trkpt lat="43.88481" lon="1.90293">
        <ele>130.979922</ele>
        <time>2026-08-29T07:28:34Z</time>
      </trkpt>
      <trkpt lat="43.88486" lon="1.90302">
        <ele>131.02691</ele>
        <time>2026-08-29T07:28:35Z</time>
      </trkpt>
      <trkpt lat="43.88491" lon="1.9031">
        <ele>131.072289</ele>
        <time>2026-08-29T07:28:36Z</time>
      </trkpt>
      <trkpt lat="43.88496" lon="1.90317">
        <ele>131.116017</ele>
        <time>2026-08-29T07:28:37Z</time>
      </trkpt>
      <trkpt lat="43.88501" lon="1.90325">
        <ele>131.159237</ele>
        <time>2026-08-29T07:28:38Z</time>
      </trkpt>
      <trkpt lat="43.88506" lon="1.90333">
        <ele>131.20348</ele>
        <time>2026-08-29T07:28:39Z</time>
      </trkpt>
      <trkpt lat="43.8851" lon="1.90341">
        <ele>131.244331</ele>
        <time>2026-08-29T07:28:40Z</time>
      </trkpt>
      <trkpt lat="43.88515" lon="1.90348">
        <ele>131.28556</ele>
        <time>2026-08-29T07:28:41Z</time>
      </trkpt>
      <trkpt lat="43.88519" lon="1.90355">
        <ele>131.325012</ele>
        <time>2026-08-29T07:28:42Z</time>
      </trkpt>
      <trkpt lat="43.88523" lon="1.90362">
        <ele>131.363441</ele>
        <time>2026-08-29T07:28:43Z</time>
      </trkpt>
      <trkpt lat="43.88527" lon="1.90369">
        <ele>131.400846</ele>
        <time>2026-08-29T07:28:44Z</time>
      </trkpt>
      <trkpt lat="43.88532" lon="1.90376">
        <ele>131.438903</ele>
        <time>2026-08-29T07:28:45Z</time>
      </trkpt>
      <trkpt lat="43.88535" lon="1.90383">
        <ele>131.475239</ele>
        <time>2026-08-29T07:28:46Z</time>
      </trkpt>
      <trkpt lat="43.8854" lon="1.90389">
        <ele>131.512001</ele>
        <time>2026-08-29T07:28:47Z</time>
      </trkpt>
      <trkpt lat="43.88544" lon="1.90396">
        <ele>131.547424</ele>
        <time>2026-08-29T07:28:48Z</time>
      </trkpt>
      <trkpt lat="43.88548" lon="1.90402">
        <ele>131.582925</ele>
        <time>2026-08-29T07:28:49Z</time>
      </trkpt>
      <trkpt lat="43.88552" lon="1.90408">
        <ele>131.619444</ele>
        <time>2026-08-29T07:28:50Z</time>
      </trkpt>
      <trkpt lat="43.88556" lon="1.90415">
        <ele>131.657295</ele>
        <time>2026-08-29T07:28:51Z</time>
      </trkpt>
      <trkpt lat="43.8856" lon="1.90422">
        <ele>131.680917</ele>
        <time>2026-08-29T07:28:52Z</time>
      </trkpt>
      <trkpt lat="43.88564" lon="1.90428">
        <ele>131.66898</ele>
        <time>2026-08-29T07:28:53Z</time>
      </trkpt>
      <trkpt lat="43.88569" lon="1.90434">
        <ele>131.656832</ele>
        <time>2026-08-29T07:28:54Z</time>
      </trkpt>
      <trkpt lat="43.88573" lon="1.9044">
        <ele>131.644999</ele>
        <time>2026-08-29T07:28:55Z</time>
      </trkpt>
      <trkpt lat="43.88577" lon="1.90446">
        <ele>131.633674</ele>
        <time>2026-08-29T07:28:56Z</time>
      </trkpt>
      <trkpt lat="43.88581" lon="1.90452">
        <ele>131.622286</ele>
        <time>2026-08-29T07:28:57Z</time>
      </trkpt>
      <trkpt lat="43.88585" lon="1.90458">
        <ele>131.610659</ele>
        <time>2026-08-29T07:28:58Z</time>
      </trkpt>
      <trkpt lat="43.88589" lon="1.90463">
        <ele>131.599539</ele>
        <time>2026-08-29T07:28:59Z</time>
      </trkpt>
      <trkpt lat="43.88592" lon="1.9047">
        <ele>131.58812</ele>
        <time>2026-08-29T07:29:00Z</time>
      </trkpt>
      <trkpt lat="43.88596" lon="1.90476">
        <ele>131.576591</ele>
        <time>2026-08-29T07:29:01Z</time>
      </trkpt>
      <trkpt lat="43.886" lon="1.90482">
        <ele>131.565233</ele>
        <time>2026-08-29T07:29:02Z</time>
      </trkpt>
      <trkpt lat="43.88604" lon="1.90488">
        <ele>131.553902</ele>
        <time>2026-08-29T07:29:03Z</time>
      </trkpt>
      <trkpt lat="43.88608" lon="1.90493">
        <ele>131.542534</ele>
        <time>2026-08-29T07:29:04Z</time>
      </trkpt>
      <trkpt lat="43.88612" lon="1.90499">
        <ele>131.530877</ele>
        <time>2026-08-29T07:29:05Z</time>
      </trkpt>
      <trkpt lat="43.88617" lon="1.90504">
        <ele>131.5195</ele>
        <time>2026-08-29T07:29:06Z</time>
      </trkpt>
      <trkpt lat="43.88621" lon="1.90509">
        <ele>131.508031</ele>
        <time>2026-08-29T07:29:07Z</time>
      </trkpt>
      <trkpt lat="43.88626" lon="1.90514">
        <ele>131.496836</ele>
        <time>2026-08-29T07:29:08Z</time>
      </trkpt>
      <trkpt lat="43.8863" lon="1.90519">
        <ele>131.485973</ele>
        <time>2026-08-29T07:29:09Z</time>
      </trkpt>
      <trkpt lat="43.88634" lon="1.90523">
        <ele>131.475218</ele>
        <time>2026-08-29T07:29:10Z</time>
      </trkpt>
      <trkpt lat="43.88639" lon="1.90528">
        <ele>131.4643</ele>
        <time>2026-08-29T07:29:11Z</time>
      </trkpt>
      <trkpt lat="43.88644" lon="1.90532">
        <ele>131.452898</ele>
        <time>2026-08-29T07:29:12Z</time>
      </trkpt>
      <trkpt lat="43.88649" lon="1.90537">
        <ele>131.441172</ele>
        <time>2026-08-29T07:29:13Z</time>
      </trkpt>
      <trkpt lat="43.88654" lon="1.90542">
        <ele>131.429123</ele>
        <time>2026-08-29T07:29:14Z</time>
      </trkpt>
      <trkpt lat="43.88659" lon="1.90547">
        <ele>131.417155</ele>
        <time>2026-08-29T07:29:15Z</time>
      </trkpt>
      <trkpt lat="43.88664" lon="1.90551">
        <ele>131.405266</ele>
        <time>2026-08-29T07:29:16Z</time>
      </trkpt>
      <trkpt lat="43.88668" lon="1.90557">
        <ele>131.393124</ele>
        <time>2026-08-29T07:29:17Z</time>
      </trkpt>
      <trkpt lat="43.88673" lon="1.90562">
        <ele>131.381309</ele>
        <time>2026-08-29T07:29:18Z</time>
      </trkpt>
      <trkpt lat="43.88678" lon="1.90567">
        <ele>131.369094</ele>
        <time>2026-08-29T07:29:19Z</time>
      </trkpt>
      <trkpt lat="43.88683" lon="1.90572">
        <ele>131.35728</ele>
        <time>2026-08-29T07:29:20Z</time>
      </trkpt>
      <trkpt lat="43.88688" lon="1.90577">
        <ele>131.345465</ele>
        <time>2026-08-29T07:29:21Z</time>
      </trkpt>
      <trkpt lat="43.88693" lon="1.90582">
        <ele>131.333893</ele>
        <time>2026-08-29T07:29:22Z</time>
      </trkpt>
      <trkpt lat="43.88697" lon="1.90587">
        <ele>131.231481</ele>
        <time>2026-08-29T07:29:23Z</time>
      </trkpt>
      <trkpt lat="43.88702" lon="1.90593">
        <ele>131.086047</ele>
        <time>2026-08-29T07:29:24Z</time>
      </trkpt>
      <trkpt lat="43.88706" lon="1.90599">
        <ele>130.941012</ele>
        <time>2026-08-29T07:29:25Z</time>
      </trkpt>
      <trkpt lat="43.8871" lon="1.90604">
        <ele>130.80306</ele>
        <time>2026-08-29T07:29:26Z</time>
      </trkpt>
      <trkpt lat="43.88714" lon="1.9061">
        <ele>130.670044</ele>
        <time>2026-08-29T07:29:27Z</time>
      </trkpt>
      <trkpt lat="43.88717" lon="1.90616">
        <ele>130.535998</ele>
        <time>2026-08-29T07:29:28Z</time>
      </trkpt>
      <trkpt lat="43.8872" lon="1.90622">
        <ele>130.406498</ele>
        <time>2026-08-29T07:29:29Z</time>
      </trkpt>
      <trkpt lat="43.88724" lon="1.90628">
        <ele>130.274266</ele>
        <time>2026-08-29T07:29:30Z</time>
      </trkpt>
      <trkpt lat="43.88727" lon="1.90634">
        <ele>130.137772</ele>
        <time>2026-08-29T07:29:31Z</time>
      </trkpt>
      <trkpt lat="43.8873" lon="1.90641">
        <ele>129.996783</ele>
        <time>2026-08-29T07:29:32Z</time>
      </trkpt>
      <trkpt lat="43.88733" lon="1.90648">
        <ele>129.853191</ele>
        <time>2026-08-29T07:29:33Z</time>
      </trkpt>
      <trkpt lat="43.88737" lon="1.90655">
        <ele>129.708299</ele>
        <time>2026-08-29T07:29:34Z</time>
      </trkpt>
      <trkpt lat="43.8874" lon="1.90662">
        <ele>129.568927</ele>
        <time>2026-08-29T07:29:35Z</time>
      </trkpt>
      <trkpt lat="43.88743" lon="1.90669">
        <ele>129.430678</ele>
        <time>2026-08-29T07:29:36Z</time>
      </trkpt>
      <trkpt lat="43.88746" lon="1.90675">
        <ele>129.290948</ele>
        <time>2026-08-29T07:29:37Z</time>
      </trkpt>
      <trkpt lat="43.88749" lon="1.90682">
        <ele>129.147211</ele>
        <time>2026-08-29T07:29:38Z</time>
      </trkpt>
      <trkpt lat="43.88752" lon="1.9069">
        <ele>129.000718</ele>
        <time>2026-08-29T07:29:39Z</time>
      </trkpt>
      <trkpt lat="43.88756" lon="1.90697">
        <ele>128.854347</ele>
        <time>2026-08-29T07:29:40Z</time>
      </trkpt>
      <trkpt lat="43.88759" lon="1.90704">
        <ele>128.71313</ele>
        <time>2026-08-29T07:29:41Z</time>
      </trkpt>
      <trkpt lat="43.88761" lon="1.9071">
        <ele>128.582306</ele>
        <time>2026-08-29T07:29:42Z</time>
      </trkpt>
      <trkpt lat="43.88764" lon="1.90717">
        <ele>128.457208</ele>
        <time>2026-08-29T07:29:43Z</time>
      </trkpt>
      <trkpt lat="43.88767" lon="1.90722">
        <ele>128.337597</ele>
        <time>2026-08-29T07:29:44Z</time>
      </trkpt>
      <trkpt lat="43.88771" lon="1.90724">
        <ele>128.22723</ele>
        <time>2026-08-29T07:29:45Z</time>
      </trkpt>
      <trkpt lat="43.88775" lon="1.90723">
        <ele>128.120555</ele>
        <time>2026-08-29T07:29:46Z</time>
      </trkpt>
      <trkpt lat="43.88779" lon="1.9072">
        <ele>128.011157</ele>
        <time>2026-08-29T07:29:47Z</time>
      </trkpt>
      <trkpt lat="43.88784" lon="1.90716">
        <ele>127.885198</ele>
        <time>2026-08-29T07:29:48Z</time>
      </trkpt>
      <trkpt lat="43.8879" lon="1.90714">
        <ele>127.741387</ele>
        <time>2026-08-29T07:29:49Z</time>
      </trkpt>
      <trkpt lat="43.88795" lon="1.9071">
        <ele>127.58924</ele>
        <time>2026-08-29T07:29:50Z</time>
      </trkpt>
      <trkpt lat="43.88801" lon="1.90707">
        <ele>127.443528</ele>
        <time>2026-08-29T07:29:51Z</time>
      </trkpt>
      <trkpt lat="43.88806" lon="1.90702">
        <ele>127.294588</ele>
        <time>2026-08-29T07:29:52Z</time>
      </trkpt>
      <trkpt lat="43.88812" lon="1.90699">
        <ele>127.142441</ele>
        <time>2026-08-29T07:29:53Z</time>
      </trkpt>
      <trkpt lat="43.88818" lon="1.90695">
        <ele>126.990503</ele>
        <time>2026-08-29T07:29:54Z</time>
      </trkpt>
      <trkpt lat="43.88823" lon="1.9069">
        <ele>126.837032</ele>
        <time>2026-08-29T07:29:55Z</time>
      </trkpt>
      <trkpt lat="43.88829" lon="1.90686">
        <ele>126.680667</ele>
        <time>2026-08-29T07:29:56Z</time>
      </trkpt>
      <trkpt lat="43.88835" lon="1.90682">
        <ele>126.525909</ele>
        <time>2026-08-29T07:29:57Z</time>
      </trkpt>
      <trkpt lat="43.88841" lon="1.90678">
        <ele>126.371318</ele>
        <time>2026-08-29T07:29:58Z</time>
      </trkpt>
      <trkpt lat="43.88847" lon="1.90675">
        <ele>126.204784</ele>
        <time>2026-08-29T07:29:59Z</time>
      </trkpt>
      <trkpt lat="43.88854" lon="1.90671">
        <ele>126.028778</ele>
        <time>2026-08-29T07:30:00Z</time>
      </trkpt>
      <trkpt lat="43.88861" lon="1.90665">
        <ele>125.837327</ele>
        <time>2026-08-29T07:30:01Z</time>
      </trkpt>
      <trkpt lat="43.88868" lon="1.90659">
        <ele>125.647874</ele>
        <time>2026-08-29T07:30:02Z</time>
      </trkpt>
      <trkpt lat="43.88875" lon="1.90654">
        <ele>125.467054</ele>
        <time>2026-08-29T07:30:03Z</time>
      </trkpt>
      <trkpt lat="43.88881" lon="1.90648">
        <ele>125.278821</ele>
        <time>2026-08-29T07:30:04Z</time>
      </trkpt>
      <trkpt lat="43.88888" lon="1.90643">
        <ele>125.095975</ele>
        <time>2026-08-29T07:30:05Z</time>
      </trkpt>
      <trkpt lat="43.88895" lon="1.90638">
        <ele>124.907633</ele>
        <time>2026-08-29T07:30:06Z</time>
      </trkpt>
      <trkpt lat="43.88902" lon="1.90633">
        <ele>124.720612</ele>
        <time>2026-08-29T07:30:07Z</time>
      </trkpt>
      <trkpt lat="43.88909" lon="1.90628">
        <ele>124.54023</ele>
        <time>2026-08-29T07:30:08Z</time>
      </trkpt>
      <trkpt lat="43.88916" lon="1.90623">
        <ele>124.359882</ele>
        <time>2026-08-29T07:30:09Z</time>
      </trkpt>
      <trkpt lat="43.88923" lon="1.90619">
        <ele>124.1824</ele>
        <time>2026-08-29T07:30:10Z</time>
      </trkpt>
      <trkpt lat="43.8893" lon="1.90615">
        <ele>124.002493</ele>
        <time>2026-08-29T07:30:11Z</time>
      </trkpt>
      <trkpt lat="43.88937" lon="1.90613">
        <ele>123.82835</ele>
        <time>2026-08-29T07:30:12Z</time>
      </trkpt>
      <trkpt lat="43.88944" lon="1.9061">
        <ele>123.664588</ele>
        <time>2026-08-29T07:30:13Z</time>
      </trkpt>
      <trkpt lat="43.8895" lon="1.90607">
        <ele>123.503593</ele>
        <time>2026-08-29T07:30:14Z</time>
      </trkpt>
      <trkpt lat="43.88957" lon="1.90604">
        <ele>123.341554</ele>
        <time>2026-08-29T07:30:15Z</time>
      </trkpt>
      <trkpt lat="43.88963" lon="1.90601">
        <ele>123.183997</ele>
        <time>2026-08-29T07:30:16Z</time>
      </trkpt>
      <trkpt lat="43.88969" lon="1.90597">
        <ele>123.024097</ele>
        <time>2026-08-29T07:30:17Z</time>
      </trkpt>
      <trkpt lat="43.88975" lon="1.90594">
        <ele>122.870789</ele>
        <time>2026-08-29T07:30:18Z</time>
      </trkpt>
      <trkpt lat="43.88981" lon="1.90591">
        <ele>122.75859</ele>
        <time>2026-08-29T07:30:19Z</time>
      </trkpt>
      <trkpt lat="43.88988" lon="1.90588">
        <ele>122.810885</ele>
        <time>2026-08-29T07:30:20Z</time>
      </trkpt>
      <trkpt lat="43.88994" lon="1.90585">
        <ele>122.864477</ele>
        <time>2026-08-29T07:30:21Z</time>
      </trkpt>
      <trkpt lat="43.89001" lon="1.90583">
        <ele>122.918487</ele>
        <time>2026-08-29T07:30:22Z</time>
      </trkpt>
      <trkpt lat="43.89008" lon="1.9058">
        <ele>122.973089</ele>
        <time>2026-08-29T07:30:23Z</time>
      </trkpt>
      <trkpt lat="43.89015" lon="1.90577">
        <ele>123.0289</ele>
        <time>2026-08-29T07:30:24Z</time>
      </trkpt>
      <trkpt lat="43.89022" lon="1.90574">
        <ele>123.084137</ele>
        <time>2026-08-29T07:30:25Z</time>
      </trkpt>
      <trkpt lat="43.89029" lon="1.90571">
        <ele>123.140852</ele>
        <time>2026-08-29T07:30:26Z</time>
      </trkpt>
      <trkpt lat="43.89035" lon="1.90568">
        <ele>123.196089</ele>
        <time>2026-08-29T07:30:27Z</time>
      </trkpt>
      <trkpt lat="43.89042" lon="1.90565">
        <ele>123.251497</ele>
        <time>2026-08-29T07:30:28Z</time>
      </trkpt>
      <trkpt lat="43.89048" lon="1.90561">
        <ele>123.304456</ele>
        <time>2026-08-29T07:30:29Z</time>
      </trkpt>
      <trkpt lat="43.89054" lon="1.90557">
        <ele>123.354595</ele>
        <time>2026-08-29T07:30:30Z</time>
      </trkpt>
      <trkpt lat="43.8906" lon="1.90553">
        <ele>123.403873</ele>
        <time>2026-08-29T07:30:31Z</time>
      </trkpt>
      <trkpt lat="43.89065" lon="1.90549">
        <ele>123.4533</ele>
        <time>2026-08-29T07:30:32Z</time>
      </trkpt>
      <trkpt lat="43.8907" lon="1.90544">
        <ele>123.500686</ele>
        <time>2026-08-29T07:30:33Z</time>
      </trkpt>
      <trkpt lat="43.89076" lon="1.90539">
        <ele>123.548425</ele>
        <time>2026-08-29T07:30:34Z</time>
      </trkpt>
      <trkpt lat="43.89081" lon="1.90535">
        <ele>123.59456</ele>
        <time>2026-08-29T07:30:35Z</time>
      </trkpt>
      <trkpt lat="43.89086" lon="1.9053">
        <ele>123.640097</ele>
        <time>2026-08-29T07:30:36Z</time>
      </trkpt>
      <trkpt lat="43.89091" lon="1.90526">
        <ele>123.685634</ele>
        <time>2026-08-29T07:30:37Z</time>
      </trkpt>
      <trkpt lat="43.89095" lon="1.90521">
        <ele>123.729527</ele>
        <time>2026-08-29T07:30:38Z</time>
      </trkpt>
      <trkpt lat="43.891" lon="1.90517">
        <ele>123.772778</ele>
        <time>2026-08-29T07:30:39Z</time>
      </trkpt>
      <trkpt lat="43.89105" lon="1.90513">
        <ele>123.81796</ele>
        <time>2026-08-29T07:30:40Z</time>
      </trkpt>
      <trkpt lat="43.89109" lon="1.90508">
        <ele>123.860283</ele>
        <time>2026-08-29T07:30:41Z</time>
      </trkpt>
      <trkpt lat="43.89114" lon="1.90505">
        <ele>123.903342</ele>
        <time>2026-08-29T07:30:42Z</time>
      </trkpt>
      <trkpt lat="43.89119" lon="1.905">
        <ele>123.946911</ele>
        <time>2026-08-29T07:30:43Z</time>
      </trkpt>
      <trkpt lat="43.89123" lon="1.90495">
        <ele>123.989633</ele>
        <time>2026-08-29T07:30:44Z</time>
      </trkpt>
      <trkpt lat="43.89128" lon="1.90491">
        <ele>124.033266</ele>
        <time>2026-08-29T07:30:45Z</time>
      </trkpt>
      <trkpt lat="43.89132" lon="1.90488">
        <ele>124.074297</ele>
        <time>2026-08-29T07:30:46Z</time>
      </trkpt>
      <trkpt lat="43.89137" lon="1.90485">
        <ele>124.114825</ele>
        <time>2026-08-29T07:30:47Z</time>
      </trkpt>
      <trkpt lat="43.89142" lon="1.90481">
        <ele>124.186548</ele>
        <time>2026-08-29T07:30:48Z</time>
      </trkpt>
      <trkpt lat="43.89147" lon="1.90478">
        <ele>124.303117</ele>
        <time>2026-08-29T07:30:49Z</time>
      </trkpt>
      <trkpt lat="43.89153" lon="1.90474">
        <ele>124.420984</ele>
        <time>2026-08-29T07:30:50Z</time>
      </trkpt>
      <trkpt lat="43.89158" lon="1.9047">
        <ele>124.543077</ele>
        <time>2026-08-29T07:30:51Z</time>
      </trkpt>
      <trkpt lat="43.89163" lon="1.90465">
        <ele>124.665763</ele>
        <time>2026-08-29T07:30:52Z</time>
      </trkpt>
      <trkpt lat="43.89168" lon="1.9046">
        <ele>124.791072</ele>
        <time>2026-08-29T07:30:53Z</time>
      </trkpt>
      <trkpt lat="43.89173" lon="1.90455">
        <ele>124.907077</ele>
        <time>2026-08-29T07:30:54Z</time>
      </trkpt>
      <trkpt lat="43.89177" lon="1.90451">
        <ele>125.021431</ele>
        <time>2026-08-29T07:30:55Z</time>
      </trkpt>
      <trkpt lat="43.89182" lon="1.90447">
        <ele>125.134118</ele>
        <time>2026-08-29T07:30:56Z</time>
      </trkpt>
      <trkpt lat="43.89186" lon="1.90442">
        <ele>125.24432</ele>
        <time>2026-08-29T07:30:57Z</time>
      </trkpt>
      <trkpt lat="43.89191" lon="1.90438">
        <ele>125.349551</ele>
        <time>2026-08-29T07:30:58Z</time>
      </trkpt>
      <trkpt lat="43.89195" lon="1.90434">
        <ele>125.452375</ele>
        <time>2026-08-29T07:30:59Z</time>
      </trkpt>
      <trkpt lat="43.89199" lon="1.9043">
        <ele>125.560163</ele>
        <time>2026-08-29T07:31:00Z</time>
      </trkpt>
      <trkpt lat="43.89204" lon="1.90426">
        <ele>125.666259</ele>
        <time>2026-08-29T07:31:01Z</time>
      </trkpt>
      <trkpt lat="43.89208" lon="1.90422">
        <ele>125.775642</ele>
        <time>2026-08-29T07:31:02Z</time>
      </trkpt>
      <trkpt lat="43.89213" lon="1.90418">
        <ele>125.884189</ele>
        <time>2026-08-29T07:31:03Z</time>
      </trkpt>
      <trkpt lat="43.89217" lon="1.90414">
        <ele>125.994642</ele>
        <time>2026-08-29T07:31:04Z</time>
      </trkpt>
      <trkpt lat="43.89221" lon="1.90409">
        <ele>126.101304</ele>
        <time>2026-08-29T07:31:05Z</time>
      </trkpt>
      <trkpt lat="43.89226" lon="1.90404">
        <ele>126.211978</ele>
        <time>2026-08-29T07:31:06Z</time>
      </trkpt>
      <trkpt lat="43.8923" lon="1.90399">
        <ele>126.322653</ele>
        <time>2026-08-29T07:31:07Z</time>
      </trkpt>
      <trkpt lat="43.89234" lon="1.90395">
        <ele>126.427927</ele>
        <time>2026-08-29T07:31:08Z</time>
      </trkpt>
      <trkpt lat="43.89238" lon="1.9039">
        <ele>126.53833</ele>
        <time>2026-08-29T07:31:09Z</time>
      </trkpt>
      <trkpt lat="43.89243" lon="1.90386">
        <ele>126.64609</ele>
        <time>2026-08-29T07:31:10Z</time>
      </trkpt>
      <trkpt lat="43.89247" lon="1.90382">
        <ele>126.748021</ele>
        <time>2026-08-29T07:31:11Z</time>
      </trkpt>
      <trkpt lat="43.89251" lon="1.90377">
        <ele>126.854164</ele>
        <time>2026-08-29T07:31:12Z</time>
      </trkpt>
      <trkpt lat="43.89255" lon="1.90373">
        <ele>126.961063</ele>
        <time>2026-08-29T07:31:13Z</time>
      </trkpt>
      <trkpt lat="43.89259" lon="1.90369">
        <ele>127.062994</ele>
        <time>2026-08-29T07:31:14Z</time>
      </trkpt>
      <trkpt lat="43.89264" lon="1.90365">
        <ele>127.163254</ele>
        <time>2026-08-29T07:31:15Z</time>
      </trkpt>
      <trkpt lat="43.89268" lon="1.90361">
        <ele>127.273524</ele>
        <time>2026-08-29T07:31:16Z</time>
      </trkpt>
      <trkpt lat="43.89272" lon="1.90357">
        <ele>127.376269</ele>
        <time>2026-08-29T07:31:17Z</time>
      </trkpt>
      <trkpt lat="43.89277" lon="1.90354">
        <ele>127.473343</ele>
        <time>2026-08-29T07:31:18Z</time>
      </trkpt>
      <trkpt lat="43.89281" lon="1.9035">
        <ele>127.576088</ele>
        <time>2026-08-29T07:31:19Z</time>
      </trkpt>
      <trkpt lat="43.89285" lon="1.90346">
        <ele>127.681393</ele>
        <time>2026-08-29T07:31:20Z</time>
      </trkpt>
      <trkpt lat="43.8929" lon="1.90342">
        <ele>127.772523</ele>
        <time>2026-08-29T07:31:21Z</time>
      </trkpt>
      <trkpt lat="43.89294" lon="1.90339">
        <ele>127.79769</ele>
        <time>2026-08-29T07:31:22Z</time>
      </trkpt>
      <trkpt lat="43.89299" lon="1.90335">
        <ele>127.823767</ele>
        <time>2026-08-29T07:31:23Z</time>
      </trkpt>
      <trkpt lat="43.89304" lon="1.9033">
        <ele>127.851164</ele>
        <time>2026-08-29T07:31:24Z</time>
      </trkpt>
      <trkpt lat="43.89309" lon="1.90326">
        <ele>127.876998</ele>
        <time>2026-08-29T07:31:25Z</time>
      </trkpt>
      <trkpt lat="43.89313" lon="1.90322">
        <ele>127.901683</ele>
        <time>2026-08-29T07:31:26Z</time>
      </trkpt>
      <trkpt lat="43.89317" lon="1.90317">
        <ele>127.926556</ele>
        <time>2026-08-29T07:31:27Z</time>
      </trkpt>
      <trkpt lat="43.89322" lon="1.90313">
        <ele>127.952195</ele>
        <time>2026-08-29T07:31:28Z</time>
      </trkpt>
      <trkpt lat="43.89326" lon="1.90309">
        <ele>127.977268</ele>
        <time>2026-08-29T07:31:29Z</time>
      </trkpt>
      <trkpt lat="43.89331" lon="1.90305">
        <ele>128.001584</ele>
        <time>2026-08-29T07:31:30Z</time>
      </trkpt>
      <trkpt lat="43.89335" lon="1.90301">
        <ele>128.025309</ele>
        <time>2026-08-29T07:31:31Z</time>
      </trkpt>
      <trkpt lat="43.8934" lon="1.90297">
        <ele>128.050243</ele>
        <time>2026-08-29T07:31:32Z</time>
      </trkpt>
      <trkpt lat="43.89344" lon="1.90293">
        <ele>128.075748</ele>
        <time>2026-08-29T07:31:33Z</time>
      </trkpt>
      <trkpt lat="43.89349" lon="1.9029">
        <ele>128.101321</ele>
        <time>2026-08-29T07:31:34Z</time>
      </trkpt>
      <trkpt lat="43.89354" lon="1.90286">
        <ele>128.125026</ele>
        <time>2026-08-29T07:31:35Z</time>
      </trkpt>
      <trkpt lat="43.89358" lon="1.90283">
        <ele>128.15003</ele>
        <time>2026-08-29T07:31:36Z</time>
      </trkpt>
      <trkpt lat="43.89363" lon="1.90279">
        <ele>128.176581</ele>
        <time>2026-08-29T07:31:37Z</time>
      </trkpt>
      <trkpt lat="43.89368" lon="1.90275">
        <ele>128.202658</ele>
        <time>2026-08-29T07:31:38Z</time>
      </trkpt>
      <trkpt lat="43.89373" lon="1.90271">
        <ele>128.227912</ele>
        <time>2026-08-29T07:31:39Z</time>
      </trkpt>
      <trkpt lat="43.89377" lon="1.90268">
        <ele>128.25203</ele>
        <time>2026-08-29T07:31:40Z</time>
      </trkpt>
      <trkpt lat="43.89382" lon="1.90265">
        <ele>128.27558</ele>
        <time>2026-08-29T07:31:41Z</time>
      </trkpt>
      <trkpt lat="43.89387" lon="1.90261">
        <ele>128.301486</ele>
        <time>2026-08-29T07:31:42Z</time>
      </trkpt>
      <trkpt lat="43.89392" lon="1.90258">
        <ele>128.326586</ele>
        <time>2026-08-29T07:31:43Z</time>
      </trkpt>
      <trkpt lat="43.89396" lon="1.90253">
        <ele>128.351077</ele>
        <time>2026-08-29T07:31:44Z</time>
      </trkpt>
      <trkpt lat="43.894" lon="1.9025">
        <ele>128.375438</ele>
        <time>2026-08-29T07:31:45Z</time>
      </trkpt>
      <trkpt lat="43.89405" lon="1.90246">
        <ele>128.400805</ele>
        <time>2026-08-29T07:31:46Z</time>
      </trkpt>
      <trkpt lat="43.8941" lon="1.90244">
        <ele>128.426111</ele>
        <time>2026-08-29T07:31:47Z</time>
      </trkpt>
      <trkpt lat="43.89415" lon="1.90241">
        <ele>128.449873</ele>
        <time>2026-08-29T07:31:48Z</time>
      </trkpt>
      <trkpt lat="43.8942" lon="1.90239">
        <ele>128.472762</ele>
        <time>2026-08-29T07:31:49Z</time>
      </trkpt>
      <trkpt lat="43.89424" lon="1.90235">
        <ele>128.498594</ele>
        <time>2026-08-29T07:31:50Z</time>
      </trkpt>
      <trkpt lat="43.89429" lon="1.9023">
        <ele>128.524813</ele>
        <time>2026-08-29T07:31:51Z</time>
      </trkpt>
      <trkpt lat="43.89434" lon="1.90225">
        <ele>128.553383</ele>
        <time>2026-08-29T07:31:52Z</time>
      </trkpt>
      <trkpt lat="43.89439" lon="1.90221">
        <ele>128.579691</ele>
        <time>2026-08-29T07:31:53Z</time>
      </trkpt>
      <trkpt lat="43.89443" lon="1.90216">
        <ele>128.604675</ele>
        <time>2026-08-29T07:31:54Z</time>
      </trkpt>
      <trkpt lat="43.89448" lon="1.90212">
        <ele>128.598605</ele>
        <time>2026-08-29T07:31:55Z</time>
      </trkpt>
      <trkpt lat="43.89452" lon="1.90206">
        <ele>128.590691</ele>
        <time>2026-08-29T07:31:56Z</time>
      </trkpt>
      <trkpt lat="43.89455" lon="1.902">
        <ele>128.582363</ele>
        <time>2026-08-29T07:31:57Z</time>
      </trkpt>
      <trkpt lat="43.89459" lon="1.90193">
        <ele>128.573556</ele>
        <time>2026-08-29T07:31:58Z</time>
      </trkpt>
      <trkpt lat="43.89463" lon="1.90185">
        <ele>128.564759</ele>
        <time>2026-08-29T07:31:59Z</time>
      </trkpt>
      <trkpt lat="43.89467" lon="1.90179">
        <ele>128.556276</ele>
        <time>2026-08-29T07:32:00Z</time>
      </trkpt>
      <trkpt lat="43.89471" lon="1.90172">
        <ele>128.548177</ele>
        <time>2026-08-29T07:32:01Z</time>
      </trkpt>
      <trkpt lat="43.89475" lon="1.90167">
        <ele>128.540522</ele>
        <time>2026-08-29T07:32:02Z</time>
      </trkpt>
      <trkpt lat="43.89478" lon="1.90161">
        <ele>128.533123</ele>
        <time>2026-08-29T07:32:03Z</time>
      </trkpt>
      <trkpt lat="43.89482" lon="1.90156">
        <ele>128.525587</ele>
        <time>2026-08-29T07:32:04Z</time>
      </trkpt>
      <trkpt lat="43.89486" lon="1.90151">
        <ele>128.518407</ele>
        <time>2026-08-29T07:32:05Z</time>
      </trkpt>
      <trkpt lat="43.89489" lon="1.90145">
        <ele>128.511276</ele>
        <time>2026-08-29T07:32:06Z</time>
      </trkpt>
      <trkpt lat="43.89493" lon="1.90139">
        <ele>128.503751</ele>
        <time>2026-08-29T07:32:07Z</time>
      </trkpt>
      <trkpt lat="43.89495" lon="1.90133">
        <ele>128.496862</ele>
        <time>2026-08-29T07:32:08Z</time>
      </trkpt>
      <trkpt lat="43.89498" lon="1.90127">
        <ele>128.490162</ele>
        <time>2026-08-29T07:32:09Z</time>
      </trkpt>
      <trkpt lat="43.895" lon="1.90121">
        <ele>128.483409</ele>
        <time>2026-08-29T07:32:10Z</time>
      </trkpt>
      <trkpt lat="43.89502" lon="1.90115">
        <ele>128.476508</ele>
        <time>2026-08-29T07:32:11Z</time>
      </trkpt>
      <trkpt lat="43.89504" lon="1.90109">
        <ele>128.469656</ele>
        <time>2026-08-29T07:32:12Z</time>
      </trkpt>
      <trkpt lat="43.89506" lon="1.90102">
        <ele>128.462634</ele>
        <time>2026-08-29T07:32:13Z</time>
      </trkpt>
      <trkpt lat="43.89508" lon="1.90095">
        <ele>128.455301</ele>
        <time>2026-08-29T07:32:14Z</time>
      </trkpt>
      <trkpt lat="43.8951" lon="1.90088">
        <ele>128.447807</ele>
        <time>2026-08-29T07:32:15Z</time>
      </trkpt>
      <trkpt lat="43.89513" lon="1.90081">
        <ele>128.440172</ele>
        <time>2026-08-29T07:32:16Z</time>
      </trkpt>
      <trkpt lat="43.89516" lon="1.90075">
        <ele>128.432008</ele>
        <time>2026-08-29T07:32:17Z</time>
      </trkpt>
      <trkpt lat="43.8952" lon="1.90068">
        <ele>128.423992</ele>
        <time>2026-08-29T07:32:18Z</time>
      </trkpt>
      <trkpt lat="43.89522" lon="1.90061">
        <ele>128.416288</ele>
        <time>2026-08-29T07:32:19Z</time>
      </trkpt>
      <trkpt lat="43.89524" lon="1.90054">
        <ele>128.408589</ele>
        <time>2026-08-29T07:32:20Z</time>
      </trkpt>
      <trkpt lat="43.89528" lon="1.90047">
        <ele>128.400665</ele>
        <time>2026-08-29T07:32:21Z</time>
      </trkpt>
      <trkpt lat="43.89531" lon="1.9004">
        <ele>128.392482</ele>
        <time>2026-08-29T07:32:22Z</time>
      </trkpt>
      <trkpt lat="43.89535" lon="1.90033">
        <ele>128.383764</ele>
        <time>2026-08-29T07:32:23Z</time>
      </trkpt>
      <trkpt lat="43.89539" lon="1.90026">
        <ele>128.375412</ele>
        <time>2026-08-29T07:32:24Z</time>
      </trkpt>
      <trkpt lat="43.89542" lon="1.9002">
        <ele>128.367464</ele>
        <time>2026-08-29T07:32:25Z</time>
      </trkpt>
      <trkpt lat="43.89546" lon="1.90014">
        <ele>128.36019</ele>
        <time>2026-08-29T07:32:26Z</time>
      </trkpt>
      <trkpt lat="43.8955" lon="1.90008">
        <ele>128.365194</ele>
        <time>2026-08-29T07:32:27Z</time>
      </trkpt>
      <trkpt lat="43.89553" lon="1.90003">
        <ele>128.369681</ele>
        <time>2026-08-29T07:32:28Z</time>
      </trkpt>
      <trkpt lat="43.89557" lon="1.89998">
        <ele>128.3738</ele>
        <time>2026-08-29T07:32:29Z</time>
      </trkpt>
      <trkpt lat="43.8956" lon="1.89994">
        <ele>128.378015</ele>
        <time>2026-08-29T07:32:30Z</time>
      </trkpt>
      <trkpt lat="43.89563" lon="1.89988">
        <ele>128.382457</ele>
        <time>2026-08-29T07:32:31Z</time>
      </trkpt>
      <trkpt lat="43.89567" lon="1.89983">
        <ele>128.387011</ele>
        <time>2026-08-29T07:32:32Z</time>
      </trkpt>
      <trkpt lat="43.89569" lon="1.89976">
        <ele>128.391564</ele>
        <time>2026-08-29T07:32:33Z</time>
      </trkpt>
      <trkpt lat="43.89573" lon="1.8997">
        <ele>128.396479</ele>
        <time>2026-08-29T07:32:34Z</time>
      </trkpt>
      <trkpt lat="43.89577" lon="1.89965">
        <ele>128.401559</ele>
        <time>2026-08-29T07:32:35Z</time>
      </trkpt>
      <trkpt lat="43.89582" lon="1.89959">
        <ele>128.406595</ele>
        <time>2026-08-29T07:32:36Z</time>
      </trkpt>
      <trkpt lat="43.89586" lon="1.89954">
        <ele>128.411891</ele>
        <time>2026-08-29T07:32:37Z</time>
      </trkpt>
      <trkpt lat="43.89591" lon="1.89949">
        <ele>128.417094</ele>
        <time>2026-08-29T07:32:38Z</time>
      </trkpt>
      <trkpt lat="43.89595" lon="1.89943">
        <ele>128.421974</ele>
        <time>2026-08-29T07:32:39Z</time>
      </trkpt>
      <trkpt lat="43.89599" lon="1.89938">
        <ele>128.426885</ele>
        <time>2026-08-29T07:32:40Z</time>
      </trkpt>
      <trkpt lat="43.89603" lon="1.89932">
        <ele>128.432073</ele>
        <time>2026-08-29T07:32:41Z</time>
      </trkpt>
      <trkpt lat="43.89608" lon="1.89927">
        <ele>128.437315</ele>
        <time>2026-08-29T07:32:42Z</time>
      </trkpt>
      <trkpt lat="43.89612" lon="1.89922">
        <ele>128.442422</ele>
        <time>2026-08-29T07:32:43Z</time>
      </trkpt>
      <trkpt lat="43.89617" lon="1.89916">
        <ele>128.447565</ele>
        <time>2026-08-29T07:32:44Z</time>
      </trkpt>
      <trkpt lat="43.89621" lon="1.89911">
        <ele>128.452582</ele>
        <time>2026-08-29T07:32:45Z</time>
      </trkpt>
      <trkpt lat="43.89625" lon="1.89905">
        <ele>128.457299</ele>
        <time>2026-08-29T07:32:46Z</time>
      </trkpt>
      <trkpt lat="43.89628" lon="1.89901">
        <ele>128.461591</ele>
        <time>2026-08-29T07:32:47Z</time>
      </trkpt>
      <trkpt lat="43.89631" lon="1.89897">
        <ele>128.465116</ele>
        <time>2026-08-29T07:32:48Z</time>
      </trkpt>
      <trkpt lat="43.89635" lon="1.89895">
        <ele>128.468432</ele>
        <time>2026-08-29T07:32:49Z</time>
      </trkpt>
      <trkpt lat="43.89639" lon="1.89894">
        <ele>128.471698</ele>
        <time>2026-08-29T07:32:50Z</time>
      </trkpt>
      <trkpt lat="43.89643" lon="1.89895">
        <ele>128.475548</ele>
        <time>2026-08-29T07:32:51Z</time>
      </trkpt>
      <trkpt lat="43.89648" lon="1.89896">
        <ele>128.479584</ele>
        <time>2026-08-29T07:32:52Z</time>
      </trkpt>
      <trkpt lat="43.89652" lon="1.89897">
        <ele>128.483808</ele>
        <time>2026-08-29T07:32:53Z</time>
      </trkpt>
      <trkpt lat="43.89657" lon="1.89897">
        <ele>128.488176</ele>
        <time>2026-08-29T07:32:54Z</time>
      </trkpt>
      <trkpt lat="43.89662" lon="1.89897">
        <ele>128.492452</ele>
        <time>2026-08-29T07:32:55Z</time>
      </trkpt>
      <trkpt lat="43.89667" lon="1.89897">
        <ele>128.496901</ele>
        <time>2026-08-29T07:32:56Z</time>
      </trkpt>
      <trkpt lat="43.89672" lon="1.89896">
        <ele>128.500897</ele>
        <time>2026-08-29T07:32:57Z</time>
      </trkpt>
      <trkpt lat="43.89677" lon="1.89897">
        <ele>128.50553</ele>
        <time>2026-08-29T07:32:58Z</time>
      </trkpt>
      <trkpt lat="43.89683" lon="1.89897">
        <ele>128.510342</ele>
        <time>2026-08-29T07:32:59Z</time>
      </trkpt>
      <trkpt lat="43.89689" lon="1.89898">
        <ele>128.515584</ele>
        <time>2026-08-29T07:33:00Z</time>
      </trkpt>
      <trkpt lat="43.89694" lon="1.89899">
        <ele>128.573998</ele>
        <time>2026-08-29T07:33:01Z</time>
      </trkpt>
      <trkpt lat="43.897" lon="1.89899">
        <ele>128.651117</ele>
        <time>2026-08-29T07:33:02Z</time>
      </trkpt>
      <trkpt lat="43.89705" lon="1.89899">
        <ele>128.722735</ele>
        <time>2026-08-29T07:33:03Z</time>
      </trkpt>
      <trkpt lat="43.8971" lon="1.89899">
        <ele>128.797126</ele>
        <time>2026-08-29T07:33:04Z</time>
      </trkpt>
      <trkpt lat="43.89715" lon="1.89897">
        <ele>128.865865</ele>
        <time>2026-08-29T07:33:05Z</time>
      </trkpt>
      <trkpt lat="43.89721" lon="1.89896">
        <ele>128.941769</ele>
        <time>2026-08-29T07:33:06Z</time>
      </trkpt>
      <trkpt lat="43.89726" lon="1.89896">
        <ele>129.010654</ele>
        <time>2026-08-29T07:33:07Z</time>
      </trkpt>
      <trkpt lat="43.89731" lon="1.89896">
        <ele>129.082272</ele>
        <time>2026-08-29T07:33:08Z</time>
      </trkpt>
      <trkpt lat="43.89736" lon="1.89896">
        <ele>129.156637</ele>
        <time>2026-08-29T07:33:09Z</time>
      </trkpt>
      <trkpt lat="43.89742" lon="1.89897">
        <ele>129.236566</ele>
        <time>2026-08-29T07:33:10Z</time>
      </trkpt>
      <trkpt lat="43.89748" lon="1.89897">
        <ele>129.317817</ele>
        <time>2026-08-29T07:33:11Z</time>
      </trkpt>
      <trkpt lat="43.89754" lon="1.89897">
        <ele>129.394936</ele>
        <time>2026-08-29T07:33:12Z</time>
      </trkpt>
      <trkpt lat="43.89759" lon="1.89898">
        <ele>129.471461</ele>
        <time>2026-08-29T07:33:13Z</time>
      </trkpt>
      <trkpt lat="43.89765" lon="1.89899">
        <ele>129.549216</ele>
        <time>2026-08-29T07:33:14Z</time>
      </trkpt>
      <trkpt lat="43.89771" lon="1.89899">
        <ele>129.630467</ele>
        <time>2026-08-29T07:33:15Z</time>
      </trkpt>
      <trkpt lat="43.89777" lon="1.899">
        <ele>129.71791</ele>
        <time>2026-08-29T07:33:16Z</time>
      </trkpt>
      <trkpt lat="43.89782" lon="1.899">
        <ele>129.793678</ele>
        <time>2026-08-29T07:33:17Z</time>
      </trkpt>
      <trkpt lat="43.89788" lon="1.899">
        <ele>129.865316</ele>
        <time>2026-08-29T07:33:18Z</time>
      </trkpt>
      <trkpt lat="43.89793" lon="1.899">
        <ele>129.935557</ele>
        <time>2026-08-29T07:33:19Z</time>
      </trkpt>
      <trkpt lat="43.89798" lon="1.899">
        <ele>130.005798</ele>
        <time>2026-08-29T07:33:20Z</time>
      </trkpt>
      <trkpt lat="43.89803" lon="1.899">
        <ele>130.073306</ele>
        <time>2026-08-29T07:33:21Z</time>
      </trkpt>
      <trkpt lat="43.89808" lon="1.89899">
        <ele>130.143882</ele>
        <time>2026-08-29T07:33:22Z</time>
      </trkpt>
      <trkpt lat="43.89813" lon="1.89899">
        <ele>130.212917</ele>
        <time>2026-08-29T07:33:23Z</time>
      </trkpt>
      <trkpt lat="43.89818" lon="1.89898">
        <ele>130.289074</ele>
        <time>2026-08-29T07:33:24Z</time>
      </trkpt>
      <trkpt lat="43.89823" lon="1.89897">
        <ele>130.361838</ele>
        <time>2026-08-29T07:33:25Z</time>
      </trkpt>
      <trkpt lat="43.89828" lon="1.89896">
        <ele>130.426753</ele>
        <time>2026-08-29T07:33:26Z</time>
      </trkpt>
      <trkpt lat="43.89833" lon="1.89896">
        <ele>130.497434</ele>
        <time>2026-08-29T07:33:27Z</time>
      </trkpt>
      <trkpt lat="43.89838" lon="1.89894">
        <ele>130.560943</ele>
        <time>2026-08-29T07:33:28Z</time>
      </trkpt>
      <trkpt lat="43.89842" lon="1.89894">
        <ele>130.624415</ele>
        <time>2026-08-29T07:33:29Z</time>
      </trkpt>
      <trkpt lat="43.89847" lon="1.89892">
        <ele>130.687587</ele>
        <time>2026-08-29T07:33:30Z</time>
      </trkpt>
      <trkpt lat="43.89852" lon="1.8989">
        <ele>130.762451</ele>
        <time>2026-08-29T07:33:31Z</time>
      </trkpt>
      <trkpt lat="43.89857" lon="1.89887">
        <ele>130.841164</ele>
        <time>2026-08-29T07:33:32Z</time>
      </trkpt>
      <trkpt lat="43.89863" lon="1.89886">
        <ele>130.915952</ele>
        <time>2026-08-29T07:33:33Z</time>
      </trkpt>
      <trkpt lat="43.89868" lon="1.89886">
        <ele>130.983548</ele>
        <time>2026-08-29T07:33:34Z</time>
      </trkpt>
      <trkpt lat="43.89872" lon="1.89888">
        <ele>131.095093</ele>
        <time>2026-08-29T07:33:35Z</time>
      </trkpt>
      <trkpt lat="43.89878" lon="1.89888">
        <ele>131.23173</ele>
        <time>2026-08-29T07:33:36Z</time>
      </trkpt>
      <trkpt lat="43.89883" lon="1.89887">
        <ele>131.370058</ele>
        <time>2026-08-29T07:33:37Z</time>
      </trkpt>
      <trkpt lat="43.89888" lon="1.89886">
        <ele>131.51014</ele>
        <time>2026-08-29T07:33:38Z</time>
      </trkpt>
      <trkpt lat="43.89893" lon="1.89886">
        <ele>131.637083</ele>
        <time>2026-08-29T07:33:39Z</time>
      </trkpt>
      <trkpt lat="43.89899" lon="1.89887">
        <ele>131.778918</ele>
        <time>2026-08-29T07:33:40Z</time>
      </trkpt>
      <trkpt lat="43.89904" lon="1.89887">
        <ele>131.913088</ele>
        <time>2026-08-29T07:33:41Z</time>
      </trkpt>
      <trkpt lat="43.89909" lon="1.89888">
        <ele>132.034842</ele>
        <time>2026-08-29T07:33:42Z</time>
      </trkpt>
      <trkpt lat="43.89914" lon="1.89887">
        <ele>132.159118</ele>
        <time>2026-08-29T07:33:43Z</time>
      </trkpt>
      <trkpt lat="43.89919" lon="1.89886">
        <ele>132.284392</ele>
        <time>2026-08-29T07:33:44Z</time>
      </trkpt>
      <trkpt lat="43.89924" lon="1.89885">
        <ele>132.414674</ele>
        <time>2026-08-29T07:33:45Z</time>
      </trkpt>
      <trkpt lat="43.89929" lon="1.89884">
        <ele>132.534239</ele>
        <time>2026-08-29T07:33:46Z</time>
      </trkpt>
      <trkpt lat="43.89934" lon="1.89884">
        <ele>132.656523</ele>
        <time>2026-08-29T07:33:47Z</time>
      </trkpt>
      <trkpt lat="43.89938" lon="1.89883">
        <ele>132.773105</ele>
        <time>2026-08-29T07:33:48Z</time>
      </trkpt>
      <trkpt lat="43.89942" lon="1.89883">
        <ele>132.874871</ele>
        <time>2026-08-29T07:33:49Z</time>
      </trkpt>
      <trkpt lat="43.89946" lon="1.89882">
        <ele>132.969588</ele>
        <time>2026-08-29T07:33:50Z</time>
      </trkpt>
      <trkpt lat="43.89949" lon="1.89881">
        <ele>133.054028</ele>
        <time>2026-08-29T07:33:51Z</time>
      </trkpt>
      <trkpt lat="43.89952" lon="1.8988">
        <ele>133.135433</ele>
        <time>2026-08-29T07:33:52Z</time>
      </trkpt>
      <trkpt lat="43.89955" lon="1.89879">
        <ele>133.200762</ele>
        <time>2026-08-29T07:33:53Z</time>
      </trkpt>
      <trkpt lat="43.89957" lon="1.89879">
        <ele>133.259052</ele>
        <time>2026-08-29T07:33:54Z</time>
      </trkpt>
      <trkpt lat="43.8996" lon="1.89879">
        <ele>133.332969</ele>
        <time>2026-08-29T07:33:55Z</time>
      </trkpt>
      <trkpt lat="43.89964" lon="1.8988">
        <ele>133.439595</ele>
        <time>2026-08-29T07:33:56Z</time>
      </trkpt>
      <trkpt lat="43.89969" lon="1.89879">
        <ele>133.561349</ele>
        <time>2026-08-29T07:33:57Z</time>
      </trkpt>
      <trkpt lat="43.89973" lon="1.89877">
        <ele>133.677912</ele>
        <time>2026-08-29T07:33:58Z</time>
      </trkpt>
      <trkpt lat="43.89977" lon="1.89874">
        <ele>133.795616</ele>
        <time>2026-08-29T07:33:59Z</time>
      </trkpt>
      <trkpt lat="43.89981" lon="1.8987">
        <ele>133.907851</ele>
        <time>2026-08-29T07:34:00Z</time>
      </trkpt>
      <trkpt lat="43.89984" lon="1.89866">
        <ele>134.016023</ele>
        <time>2026-08-29T07:34:01Z</time>
      </trkpt>
      <trkpt lat="43.89988" lon="1.89863">
        <ele>134.127203</ele>
        <time>2026-08-29T07:34:02Z</time>
      </trkpt>
      <trkpt lat="43.89991" lon="1.89859">
        <ele>134.239438</ele>
        <time>2026-08-29T07:34:03Z</time>
      </trkpt>
      <trkpt lat="43.89995" lon="1.89856">
        <ele>134.344725</ele>
        <time>2026-08-29T07:34:04Z</time>
      </trkpt>
      <trkpt lat="43.89999" lon="1.89854">
        <ele>134.447832</ele>
        <time>2026-08-29T07:34:05Z</time>
      </trkpt>
      <trkpt lat="43.90002" lon="1.8985">
        <ele>134.548915</ele>
        <time>2026-08-29T07:34:06Z</time>
      </trkpt>
      <trkpt lat="43.90005" lon="1.89847">
        <ele>134.651797</ele>
        <time>2026-08-29T07:34:07Z</time>
      </trkpt>
      <trkpt lat="43.90008" lon="1.89843">
        <ele>134.747821</ele>
        <time>2026-08-29T07:34:08Z</time>
      </trkpt>
      <trkpt lat="43.9001" lon="1.89839">
        <ele>134.841297</ele>
        <time>2026-08-29T07:34:09Z</time>
      </trkpt>
      <trkpt lat="43.90013" lon="1.89835">
        <ele>134.937573</ele>
        <time>2026-08-29T07:34:10Z</time>
      </trkpt>
      <trkpt lat="43.90015" lon="1.89831">
        <ele>135.03369</ele>
        <time>2026-08-29T07:34:11Z</time>
      </trkpt>
      <trkpt lat="43.90017" lon="1.89826">
        <ele>135.138681</ele>
        <time>2026-08-29T07:34:12Z</time>
      </trkpt>
      <trkpt lat="43.90019" lon="1.89821">
        <ele>135.245738</ele>
        <time>2026-08-29T07:34:13Z</time>
      </trkpt>
      <trkpt lat="43.90022" lon="1.89816">
        <ele>135.350963</ele>
        <time>2026-08-29T07:34:14Z</time>
      </trkpt>
      <trkpt lat="43.90024" lon="1.89812">
        <ele>135.44866</ele>
        <time>2026-08-29T07:34:15Z</time>
      </trkpt>
      <trkpt lat="43.90026" lon="1.89808">
        <ele>135.542444</ele>
        <time>2026-08-29T07:34:16Z</time>
      </trkpt>
      <trkpt lat="43.90029" lon="1.89805">
        <ele>135.551128</ele>
        <time>2026-08-29T07:34:17Z</time>
      </trkpt>
      <trkpt lat="43.90031" lon="1.89802">
        <ele>135.558588</ele>
        <time>2026-08-29T07:34:18Z</time>
      </trkpt>
      <trkpt lat="43.90033" lon="1.89799">
        <ele>135.565292</ele>
        <time>2026-08-29T07:34:19Z</time>
      </trkpt>
      <trkpt lat="43.90035" lon="1.89797">
        <ele>135.571674</ele>
        <time>2026-08-29T07:34:20Z</time>
      </trkpt>
      <trkpt lat="43.90036" lon="1.89794">
        <ele>135.577758</ele>
        <time>2026-08-29T07:34:21Z</time>
      </trkpt>
      <trkpt lat="43.90037" lon="1.89791">
        <ele>135.583699</ele>
        <time>2026-08-29T07:34:22Z</time>
      </trkpt>
      <trkpt lat="43.90039" lon="1.89788">
        <ele>135.589721</ele>
        <time>2026-08-29T07:34:23Z</time>
      </trkpt>
      <trkpt lat="43.90039" lon="1.89785">
        <ele>135.595384</ele>
        <time>2026-08-29T07:34:24Z</time>
      </trkpt>
      <trkpt lat="43.90039" lon="1.89782">
        <ele>135.599574</ele>
        <time>2026-08-29T07:34:25Z</time>
      </trkpt>
      <trkpt lat="43.90038" lon="1.89782">
        <ele>135.602794</ele>
        <time>2026-08-29T07:34:26Z</time>
      </trkpt>
      <trkpt lat="43.90037" lon="1.89783">
        <ele>135.605975</ele>
        <time>2026-08-29T07:34:27Z</time>
      </trkpt>
      <trkpt lat="43.90037" lon="1.89783">
        <ele>135.607127</ele>
        <time>2026-08-29T07:34:28Z</time>
      </trkpt>
      <trkpt lat="43.90037" lon="1.89783">
        <ele>135.607874</ele>
        <time>2026-08-29T07:34:29Z</time>
      </trkpt>
      <trkpt lat="43.90036" lon="1.89783">
        <ele>135.611038</ele>
        <time>2026-08-29T07:34:30Z</time>
      </trkpt>
      <trkpt lat="43.90037" lon="1.89777">
        <ele>135.622227</ele>
        <time>2026-08-29T07:57:46Z</time>
      </trkpt>
      <trkpt lat="43.90037" lon="1.89774">
        <ele>135.626989</ele>
        <time>2026-08-29T07:57:47Z</time>
      </trkpt>
      <trkpt lat="43.90037" lon="1.8977">
        <ele>135.633263</ele>
        <time>2026-08-29T07:57:48Z</time>
      </trkpt>
      <trkpt lat="43.90036" lon="1.89767">
        <ele>135.639557</ele>
        <time>2026-08-29T07:57:49Z</time>
      </trkpt>
      <trkpt lat="43.90036" lon="1.89763">
        <ele>135.645662</ele>
        <time>2026-08-29T07:57:50Z</time>
      </trkpt>
      <trkpt lat="43.90036" lon="1.8976">
        <ele>135.651239</ele>
        <time>2026-08-29T07:57:51Z</time>
      </trkpt>
      <trkpt lat="43.90036" lon="1.89756">
        <ele>135.657514</ele>
        <time>2026-08-29T07:57:52Z</time>
      </trkpt>
      <trkpt lat="43.90036" lon="1.89753">
        <ele>135.66344</ele>
        <time>2026-08-29T07:57:53Z</time>
      </trkpt>
      <trkpt lat="43.90037" lon="1.8975">
        <ele>135.668719</ele>
        <time>2026-08-29T07:57:54Z</time>
      </trkpt>
      <trkpt lat="43.90037" lon="1.89747">
        <ele>135.673998</ele>
        <time>2026-08-29T07:57:55Z</time>
      </trkpt>
      <trkpt lat="43.90037" lon="1.89744">
        <ele>135.679076</ele>
        <time>2026-08-29T07:57:56Z</time>
      </trkpt>
      <trkpt lat="43.90037" lon="1.89741">
        <ele>135.685369</ele>
        <time>2026-08-29T07:57:57Z</time>
      </trkpt>
      <trkpt lat="43.90036" lon="1.89736">
        <ele>135.693158</ele>
        <time>2026-08-29T07:57:58Z</time>
      </trkpt>
      <trkpt lat="43.90035" lon="1.89732">
        <ele>135.700792</ele>
        <time>2026-08-29T07:57:59Z</time>
      </trkpt>
      <trkpt lat="43.90035" lon="1.89727">
        <ele>135.709336</ele>
        <time>2026-08-29T07:58:00Z</time>
      </trkpt>
      <trkpt lat="43.90036" lon="1.89722">
        <ele>135.718135</ele>
        <time>2026-08-29T07:58:01Z</time>
      </trkpt>
      <trkpt lat="43.90036" lon="1.89718">
        <ele>135.725598</ele>
        <time>2026-08-29T07:58:02Z</time>
      </trkpt>
      <trkpt lat="43.90038" lon="1.89715">
        <ele>135.732123</ele>
        <time>2026-08-29T07:58:03Z</time>
      </trkpt>
      <trkpt lat="43.9004" lon="1.89713">
        <ele>135.737811</ele>
        <time>2026-08-29T07:58:04Z</time>
      </trkpt>
      <trkpt lat="43.90042" lon="1.89712">
        <ele>135.743035</ele>
        <time>2026-08-29T07:58:05Z</time>
      </trkpt>
      <trkpt lat="43.90044" lon="1.89711">
        <ele>135.748495</ele>
        <time>2026-08-29T07:58:06Z</time>
      </trkpt>
      <trkpt lat="43.90046" lon="1.89711">
        <ele>135.754366</ele>
        <time>2026-08-29T07:58:07Z</time>
      </trkpt>
      <trkpt lat="43.90049" lon="1.8971">
        <ele>135.759997</ele>
        <time>2026-08-29T07:58:08Z</time>
      </trkpt>
      <trkpt lat="43.90051" lon="1.8971">
        <ele>135.766047</ele>
        <time>2026-08-29T07:58:09Z</time>
      </trkpt>
      <trkpt lat="43.90054" lon="1.8971">
        <ele>135.772587</ele>
        <time>2026-08-29T07:58:10Z</time>
      </trkpt>
      <trkpt lat="43.90056" lon="1.8971">
        <ele>135.778915</ele>
        <time>2026-08-29T07:58:11Z</time>
      </trkpt>
      <trkpt lat="43.90059" lon="1.8971">
        <ele>135.785205</ele>
        <time>2026-08-29T07:58:12Z</time>
      </trkpt>
      <trkpt lat="43.90061" lon="1.89709">
        <ele>135.790061</ele>
        <time>2026-08-29T07:58:13Z</time>
      </trkpt>
      <trkpt lat="43.90064" lon="1.89708">
        <ele>135.797485</ele>
        <time>2026-08-29T07:58:14Z</time>
      </trkpt>
      <trkpt lat="43.90067" lon="1.89707">
        <ele>135.80413</ele>
        <time>2026-08-29T07:58:15Z</time>
      </trkpt>
      <trkpt lat="43.90069" lon="1.89707">
        <ele>135.810912</ele>
        <time>2026-08-29T07:58:16Z</time>
      </trkpt>
      <trkpt lat="43.90072" lon="1.89707">
        <ele>135.817961</ele>
        <time>2026-08-29T07:58:17Z</time>
      </trkpt>
      <trkpt lat="43.90075" lon="1.89708">
        <ele>135.824209</ele>
        <time>2026-08-29T07:58:18Z</time>
      </trkpt>
      <trkpt lat="43.90077" lon="1.89709">
        <ele>135.830179</ele>
        <time>2026-08-29T07:58:19Z</time>
      </trkpt>
      <trkpt lat="43.90079" lon="1.89709">
        <ele>135.835767</ele>
        <time>2026-08-29T07:58:20Z</time>
      </trkpt>
      <trkpt lat="43.90081" lon="1.8971">
        <ele>135.840445</ele>
        <time>2026-08-29T07:58:21Z</time>
      </trkpt>
      <trkpt lat="43.90083" lon="1.8971">
        <ele>135.845045</ele>
        <time>2026-08-29T07:58:22Z</time>
      </trkpt>
      <trkpt lat="43.90085" lon="1.89709">
        <ele>135.849673</ele>
        <time>2026-08-29T07:58:23Z</time>
      </trkpt>
      <trkpt lat="43.90087" lon="1.89708">
        <ele>135.854139</ele>
        <time>2026-08-29T07:58:24Z</time>
      </trkpt>
      <trkpt lat="43.90088" lon="1.89707">
        <ele>135.858605</ele>
        <time>2026-08-29T07:58:25Z</time>
      </trkpt>
      <trkpt lat="43.9009" lon="1.89706">
        <ele>135.864105</ele>
        <time>2026-08-29T07:58:26Z</time>
      </trkpt>
      <trkpt lat="43.90093" lon="1.89703">
        <ele>135.871563</ele>
        <time>2026-08-29T07:58:27Z</time>
      </trkpt>
      <trkpt lat="43.90096" lon="1.89701">
        <ele>135.880201</ele>
        <time>2026-08-29T07:58:28Z</time>
      </trkpt>
      <trkpt lat="43.90099" lon="1.89699">
        <ele>135.888577</ele>
        <time>2026-08-29T07:58:29Z</time>
      </trkpt>
      <trkpt lat="43.90103" lon="1.89696">
        <ele>135.897804</ele>
        <time>2026-08-29T07:58:30Z</time>
      </trkpt>
      <trkpt lat="43.90106" lon="1.89694">
        <ele>135.907121</ele>
        <time>2026-08-29T07:58:31Z</time>
      </trkpt>
      <trkpt lat="43.9011" lon="1.89692">
        <ele>135.915903</ele>
        <time>2026-08-29T07:58:32Z</time>
      </trkpt>
      <trkpt lat="43.90113" lon="1.8969">
        <ele>135.925283</ele>
        <time>2026-08-29T07:58:33Z</time>
      </trkpt>
      <trkpt lat="43.90117" lon="1.89688">
        <ele>135.935895</ele>
        <time>2026-08-29T07:58:34Z</time>
      </trkpt>
      <trkpt lat="43.90121" lon="1.89685">
        <ele>135.946516</ele>
        <time>2026-08-29T07:58:35Z</time>
      </trkpt>
      <trkpt lat="43.90125" lon="1.89682">
        <ele>135.957894</ele>
        <time>2026-08-29T07:58:36Z</time>
      </trkpt>
      <trkpt lat="43.90129" lon="1.89679">
        <ele>135.967548</ele>
        <time>2026-08-29T07:58:37Z</time>
      </trkpt>
      <trkpt lat="43.90132" lon="1.89676">
        <ele>135.976595</ele>
        <time>2026-08-29T07:58:38Z</time>
      </trkpt>
      <trkpt lat="43.90135" lon="1.89673">
        <ele>135.972181</ele>
        <time>2026-08-29T07:58:39Z</time>
      </trkpt>
      <trkpt lat="43.90138" lon="1.89671">
        <ele>135.966316</ele>
        <time>2026-08-29T07:58:40Z</time>
      </trkpt>
      <trkpt lat="43.90141" lon="1.8967">
        <ele>135.961042</ele>
        <time>2026-08-29T07:58:41Z</time>
      </trkpt>
      <trkpt lat="43.90144" lon="1.89672">
        <ele>135.956065</ele>
        <time>2026-08-29T07:58:42Z</time>
      </trkpt>
      <trkpt lat="43.90146" lon="1.89675">
        <ele>135.950208</ele>
        <time>2026-08-29T07:58:43Z</time>
      </trkpt>
      <trkpt lat="43.90149" lon="1.89677">
        <ele>135.945266</ele>
        <time>2026-08-29T07:58:44Z</time>
      </trkpt>
      <trkpt lat="43.90152" lon="1.8968">
        <ele>135.938819</ele>
        <time>2026-08-29T07:58:45Z</time>
      </trkpt>
      <trkpt lat="43.90155" lon="1.89681">
        <ele>135.932318</ele>
        <time>2026-08-29T07:58:46Z</time>
      </trkpt>
      <trkpt lat="43.90159" lon="1.89681">
        <ele>135.925114</ele>
        <time>2026-08-29T07:58:47Z</time>
      </trkpt>
      <trkpt lat="43.90163" lon="1.89681">
        <ele>135.919143</ele>
        <time>2026-08-29T07:58:48Z</time>
      </trkpt>
      <trkpt lat="43.90165" lon="1.8968">
        <ele>135.914664</ele>
        <time>2026-08-29T07:58:49Z</time>
      </trkpt>
      <trkpt lat="43.90167" lon="1.89679">
        <ele>135.911839</ele>
        <time>2026-08-29T07:58:50Z</time>
      </trkpt>
      <trkpt lat="43.90168" lon="1.89678">
        <ele>135.909018</ele>
        <time>2026-08-29T07:58:51Z</time>
      </trkpt>
      <trkpt lat="43.9017" lon="1.89677">
        <ele>135.905824</ele>
        <time>2026-08-29T07:58:52Z</time>
      </trkpt>
      <trkpt lat="43.90171" lon="1.89676">
        <ele>135.903419</ele>
        <time>2026-08-29T07:58:53Z</time>
      </trkpt>
      <trkpt lat="43.90173" lon="1.89675">
        <ele>135.899431</ele>
        <time>2026-08-29T07:58:54Z</time>
      </trkpt>
      <trkpt lat="43.90178" lon="1.8967">
        <ele>135.888535</ele>
        <time>2026-08-29T07:58:55Z</time>
      </trkpt>
      <trkpt lat="43.90182" lon="1.89666">
        <ele>135.880161</ele>
        <time>2026-08-29T07:58:56Z</time>
      </trkpt>
      <trkpt lat="43.90185" lon="1.89664">
        <ele>135.87403</ele>
        <time>2026-08-29T07:58:57Z</time>
      </trkpt>
      <trkpt lat="43.90188" lon="1.89661">
        <ele>135.86774</ele>
        <time>2026-08-29T07:58:58Z</time>
      </trkpt>
      <trkpt lat="43.90191" lon="1.89657">
        <ele>135.860166</ele>
        <time>2026-08-29T07:58:59Z</time>
      </trkpt>
      <trkpt lat="43.90195" lon="1.89654">
        <ele>135.852242</ele>
        <time>2026-08-29T07:59:00Z</time>
      </trkpt>
      <trkpt lat="43.90198" lon="1.89652">
        <ele>135.846556</ele>
        <time>2026-08-29T07:59:01Z</time>
      </trkpt>
      <trkpt lat="43.90201" lon="1.8965">
        <ele>135.840045</ele>
        <time>2026-08-29T07:59:02Z</time>
      </trkpt>
      <trkpt lat="43.90205" lon="1.89646">
        <ele>135.832568</ele>
        <time>2026-08-29T07:59:03Z</time>
      </trkpt>
      <trkpt lat="43.90207" lon="1.89642">
        <ele>135.825846</ele>
        <time>2026-08-29T07:59:04Z</time>
      </trkpt>
      <trkpt lat="43.9021" lon="1.89638">
        <ele>135.819124</ele>
        <time>2026-08-29T07:59:05Z</time>
      </trkpt>
      <trkpt lat="43.90214" lon="1.89636">
        <ele>135.811878</ele>
        <time>2026-08-29T07:59:06Z</time>
      </trkpt>
      <trkpt lat="43.90217" lon="1.89634">
        <ele>135.805344</ele>
        <time>2026-08-29T07:59:07Z</time>
      </trkpt>
      <trkpt lat="43.90222" lon="1.89632">
        <ele>135.79729</ele>
        <time>2026-08-29T07:59:08Z</time>
      </trkpt>
      <trkpt lat="43.90226" lon="1.8963">
        <ele>135.788826</ele>
        <time>2026-08-29T07:59:09Z</time>
      </trkpt>
      <trkpt lat="43.90231" lon="1.89628">
        <ele>135.780902</ele>
        <time>2026-08-29T07:59:10Z</time>
      </trkpt>
      <trkpt lat="43.90235" lon="1.89626">
        <ele>135.772811</ele>
        <time>2026-08-29T07:59:11Z</time>
      </trkpt>
      <trkpt lat="43.90239" lon="1.89623">
        <ele>135.765419</ele>
        <time>2026-08-29T07:59:12Z</time>
      </trkpt>
      <trkpt lat="43.90243" lon="1.89621">
        <ele>135.757395</ele>
        <time>2026-08-29T07:59:13Z</time>
      </trkpt>
      <trkpt lat="43.90247" lon="1.89617">
        <ele>135.749375</ele>
        <time>2026-08-29T07:59:14Z</time>
      </trkpt>
      <trkpt lat="43.9025" lon="1.89614">
        <ele>135.741513</ele>
        <time>2026-08-29T07:59:15Z</time>
      </trkpt>
      <trkpt lat="43.90254" lon="1.8961">
        <ele>135.734064</ele>
        <time>2026-08-29T07:59:16Z</time>
      </trkpt>
      <trkpt lat="43.90257" lon="1.89606">
        <ele>135.725807</ele>
        <time>2026-08-29T07:59:17Z</time>
      </trkpt>
      <trkpt lat="43.9026" lon="1.89602">
        <ele>135.71876</ele>
        <time>2026-08-29T07:59:18Z</time>
      </trkpt>
      <trkpt lat="43.90264" lon="1.89598">
        <ele>135.710502</ele>
        <time>2026-08-29T07:59:19Z</time>
      </trkpt>
      <trkpt lat="43.90267" lon="1.89594">
        <ele>135.702777</ele>
        <time>2026-08-29T07:59:20Z</time>
      </trkpt>
      <trkpt lat="43.90271" lon="1.89591">
        <ele>135.694911</ele>
        <time>2026-08-29T07:59:21Z</time>
      </trkpt>
      <trkpt lat="43.90275" lon="1.89588">
        <ele>135.687143</ele>
        <time>2026-08-29T07:59:22Z</time>
      </trkpt>
      <trkpt lat="43.90279" lon="1.89585">
        <ele>135.678535</ele>
        <time>2026-08-29T07:59:23Z</time>
      </trkpt>
      <trkpt lat="43.90284" lon="1.89582">
        <ele>135.67056</ele>
        <time>2026-08-29T07:59:24Z</time>
      </trkpt>
      <trkpt lat="43.90288" lon="1.89579">
        <ele>135.662577</ele>
        <time>2026-08-29T07:59:25Z</time>
      </trkpt>
      <trkpt lat="43.90292" lon="1.89576">
        <ele>135.637245</ele>
        <time>2026-08-29T07:59:26Z</time>
      </trkpt>
      <trkpt lat="43.90296" lon="1.89573">
        <ele>135.612773</ele>
        <time>2026-08-29T07:59:27Z</time>
      </trkpt>
      <trkpt lat="43.90301" lon="1.8957">
        <ele>135.584027</ele>
        <time>2026-08-29T07:59:28Z</time>
      </trkpt>
      <trkpt lat="43.90306" lon="1.89568">
        <ele>135.553919</ele>
        <time>2026-08-29T07:59:29Z</time>
      </trkpt>
      <trkpt lat="43.90312" lon="1.89568">
        <ele>135.523913</ele>
        <time>2026-08-29T07:59:30Z</time>
      </trkpt>
      <trkpt lat="43.90317" lon="1.89569">
        <ele>135.496316</ele>
        <time>2026-08-29T07:59:31Z</time>
      </trkpt>
      <trkpt lat="43.90321" lon="1.89571">
        <ele>135.470561</ele>
        <time>2026-08-29T07:59:32Z</time>
      </trkpt>
      <trkpt lat="43.90326" lon="1.89572">
        <ele>135.443438</ele>
        <time>2026-08-29T07:59:33Z</time>
      </trkpt>
      <trkpt lat="43.90331" lon="1.89573">
        <ele>135.420193</ele>
        <time>2026-08-29T07:59:34Z</time>
      </trkpt>
      <trkpt lat="43.90336" lon="1.89574">
        <ele>135.394127</ele>
        <time>2026-08-29T07:59:35Z</time>
      </trkpt>
      <trkpt lat="43.9034" lon="1.89574">
        <ele>135.368898</ele>
        <time>2026-08-29T07:59:36Z</time>
      </trkpt>
      <trkpt lat="43.90345" lon="1.89573">
        <ele>135.344417</ele>
        <time>2026-08-29T07:59:37Z</time>
      </trkpt>
      <trkpt lat="43.90349" lon="1.89572">
        <ele>135.31874</ele>
        <time>2026-08-29T07:59:38Z</time>
      </trkpt>
      <trkpt lat="43.90354" lon="1.89572">
        <ele>135.292461</ele>
        <time>2026-08-29T07:59:39Z</time>
      </trkpt>
      <trkpt lat="43.90359" lon="1.89573">
        <ele>135.265395</ele>
        <time>2026-08-29T07:59:40Z</time>
      </trkpt>
      <trkpt lat="43.90365" lon="1.89573">
        <ele>135.237468</ele>
        <time>2026-08-29T07:59:41Z</time>
      </trkpt>
      <trkpt lat="43.9037" lon="1.89574">
        <ele>135.207638</ele>
        <time>2026-08-29T07:59:42Z</time>
      </trkpt>
      <trkpt lat="43.90375" lon="1.89575">
        <ele>135.180451</ele>
        <time>2026-08-29T07:59:43Z</time>
      </trkpt>
      <trkpt lat="43.9038" lon="1.89577">
        <ele>135.152669</ele>
        <time>2026-08-29T07:59:44Z</time>
      </trkpt>
      <trkpt lat="43.90385" lon="1.89578">
        <ele>135.12517</ele>
        <time>2026-08-29T07:59:45Z</time>
      </trkpt>
      <trkpt lat="43.9039" lon="1.89579">
        <ele>135.098047</ele>
        <time>2026-08-29T07:59:46Z</time>
      </trkpt>
      <trkpt lat="43.90395" lon="1.8958">
        <ele>135.074468</ele>
        <time>2026-08-29T07:59:47Z</time>
      </trkpt>
      <trkpt lat="43.90399" lon="1.89581">
        <ele>135.051108</ele>
        <time>2026-08-29T07:59:48Z</time>
      </trkpt>
      <trkpt lat="43.90403" lon="1.89582">
        <ele>135.028391</ele>
        <time>2026-08-29T07:59:49Z</time>
      </trkpt>
      <trkpt lat="43.90407" lon="1.89585">
        <ele>135.005978</ele>
        <time>2026-08-29T07:59:50Z</time>
      </trkpt>
      <trkpt lat="43.90411" lon="1.89586">
        <ele>134.980826</ele>
        <time>2026-08-29T07:59:51Z</time>
      </trkpt>
      <trkpt lat="43.90416" lon="1.89588">
        <ele>134.953051</ele>
        <time>2026-08-29T07:59:52Z</time>
      </trkpt>
      <trkpt lat="43.90421" lon="1.8959">
        <ele>134.92921</ele>
        <time>2026-08-29T07:59:53Z</time>
      </trkpt>
      <trkpt lat="43.90425" lon="1.89592">
        <ele>134.902982</ele>
        <time>2026-08-29T07:59:54Z</time>
      </trkpt>
      <trkpt lat="43.9043" lon="1.89594">
        <ele>134.876959</ele>
        <time>2026-08-29T07:59:55Z</time>
      </trkpt>
      <trkpt lat="43.90435" lon="1.89596">
        <ele>134.851245</ele>
        <time>2026-08-29T07:59:56Z</time>
      </trkpt>
      <trkpt lat="43.90439" lon="1.89596">
        <ele>134.825423</ele>
        <time>2026-08-29T07:59:57Z</time>
      </trkpt>
      <trkpt lat="43.90444" lon="1.89596">
        <ele>134.798609</ele>
        <time>2026-08-29T07:59:58Z</time>
      </trkpt>
      <trkpt lat="43.90449" lon="1.89596">
        <ele>134.772845</ele>
        <time>2026-08-29T07:59:59Z</time>
      </trkpt>
      <trkpt lat="43.90454" lon="1.89596">
        <ele>134.747651</ele>
        <time>2026-08-29T08:00:00Z</time>
      </trkpt>
      <trkpt lat="43.90458" lon="1.89596">
        <ele>134.723923</ele>
        <time>2026-08-29T08:00:01Z</time>
      </trkpt>
      <trkpt lat="43.90462" lon="1.89598">
        <ele>134.700588</ele>
        <time>2026-08-29T08:00:02Z</time>
      </trkpt>
      <trkpt lat="43.90466" lon="1.89599">
        <ele>134.722017</ele>
        <time>2026-08-29T08:00:03Z</time>
      </trkpt>
      <trkpt lat="43.90469" lon="1.896">
        <ele>134.743271</ele>
        <time>2026-08-29T08:00:04Z</time>
      </trkpt>
      <trkpt lat="43.90472" lon="1.896">
        <ele>134.763663</ele>
        <time>2026-08-29T08:00:05Z</time>
      </trkpt>
      <trkpt lat="43.90474" lon="1.896">
        <ele>134.779295</ele>
        <time>2026-08-29T08:00:06Z</time>
      </trkpt>
      <trkpt lat="43.90476" lon="1.896">
        <ele>134.794755</ele>
        <time>2026-08-29T08:00:07Z</time>
      </trkpt>
      <trkpt lat="43.90479" lon="1.89601">
        <ele>134.812745</ele>
        <time>2026-08-29T08:00:08Z</time>
      </trkpt>
      <trkpt lat="43.90482" lon="1.89601">
        <ele>134.832438</ele>
        <time>2026-08-29T08:00:09Z</time>
      </trkpt>
      <trkpt lat="43.90485" lon="1.89601">
        <ele>134.856365</ele>
        <time>2026-08-29T08:00:10Z</time>
      </trkpt>
      <trkpt lat="43.90488" lon="1.89599">
        <ele>134.882367</ele>
        <time>2026-08-29T08:00:11Z</time>
      </trkpt>
      <trkpt lat="43.90493" lon="1.89596">
        <ele>134.914635</ele>
        <time>2026-08-29T08:00:12Z</time>
      </trkpt>
      <trkpt lat="43.90496" lon="1.89593">
        <ele>134.945902</ele>
        <time>2026-08-29T08:00:13Z</time>
      </trkpt>
      <trkpt lat="43.90501" lon="1.8959">
        <ele>134.978886</ele>
        <time>2026-08-29T08:00:14Z</time>
      </trkpt>
      <trkpt lat="43.90504" lon="1.89587">
        <ele>135.008375</ele>
        <time>2026-08-29T08:00:15Z</time>
      </trkpt>
      <trkpt lat="43.90508" lon="1.89585">
        <ele>135.035355</ele>
        <time>2026-08-29T08:00:16Z</time>
      </trkpt>
      <trkpt lat="43.90511" lon="1.89582">
        <ele>135.065403</ele>
        <time>2026-08-29T08:00:17Z</time>
      </trkpt>
      <trkpt lat="43.90515" lon="1.89579">
        <ele>135.091663</ele>
        <time>2026-08-29T08:00:18Z</time>
      </trkpt>
      <trkpt lat="43.90517" lon="1.89577">
        <ele>135.113618</ele>
        <time>2026-08-29T08:00:19Z</time>
      </trkpt>
      <trkpt lat="43.9052" lon="1.89576">
        <ele>135.134023</ele>
        <time>2026-08-29T08:00:20Z</time>
      </trkpt>
      <trkpt lat="43.90523" lon="1.89575">
        <ele>135.155445</ele>
        <time>2026-08-29T08:00:21Z</time>
      </trkpt>
      <trkpt lat="43.90528" lon="1.89576">
        <ele>135.187197</ele>
        <time>2026-08-29T08:00:22Z</time>
      </trkpt>
      <trkpt lat="43.90532" lon="1.89578">
        <ele>135.223515</ele>
        <time>2026-08-29T08:00:23Z</time>
      </trkpt>
      <trkpt lat="43.90537" lon="1.89581">
        <ele>135.259833</ele>
        <time>2026-08-29T08:00:24Z</time>
      </trkpt>
      <trkpt lat="43.90542" lon="1.89585">
        <ele>135.298231</ele>
        <time>2026-08-29T08:00:25Z</time>
      </trkpt>
      <trkpt lat="43.90549" lon="1.89589">
        <ele>135.349144</ele>
        <time>2026-08-29T08:00:26Z</time>
      </trkpt>
      <trkpt lat="43.90554" lon="1.89593">
        <ele>135.389877</ele>
        <time>2026-08-29T08:00:27Z</time>
      </trkpt>
      <trkpt lat="43.90558" lon="1.89595">
        <ele>135.424057</ele>
        <time>2026-08-29T08:00:28Z</time>
      </trkpt>
      <trkpt lat="43.90563" lon="1.89597">
        <ele>135.45719</ele>
        <time>2026-08-29T08:00:29Z</time>
      </trkpt>
      <trkpt lat="43.90568" lon="1.89598">
        <ele>135.493308</ele>
        <time>2026-08-29T08:00:30Z</time>
      </trkpt>
      <trkpt lat="43.90573" lon="1.89599">
        <ele>135.530814</ele>
        <time>2026-08-29T08:00:31Z</time>
      </trkpt>
      <trkpt lat="43.90578" lon="1.896">
        <ele>135.566053</ele>
        <time>2026-08-29T08:00:32Z</time>
      </trkpt>
      <trkpt lat="43.90583" lon="1.896">
        <ele>135.597612</ele>
        <time>2026-08-29T08:00:33Z</time>
      </trkpt>
      <trkpt lat="43.90586" lon="1.89597">
        <ele>135.622882</ele>
        <time>2026-08-29T08:00:34Z</time>
      </trkpt>
      <trkpt lat="43.9059" lon="1.89597">
        <ele>135.651094</ele>
        <time>2026-08-29T08:00:35Z</time>
      </trkpt>
      <trkpt lat="43.90594" lon="1.89598">
        <ele>135.680757</ele>
        <time>2026-08-29T08:00:36Z</time>
      </trkpt>
      <trkpt lat="43.90599" lon="1.896">
        <ele>135.716717</ele>
        <time>2026-08-29T08:00:37Z</time>
      </trkpt>
      <trkpt lat="43.90604" lon="1.89602">
        <ele>135.753325</ele>
        <time>2026-08-29T08:00:38Z</time>
      </trkpt>
      <trkpt lat="43.90609" lon="1.89605">
        <ele>135.793273</ele>
        <time>2026-08-29T08:00:39Z</time>
      </trkpt>
      <trkpt lat="43.90616" lon="1.89611">
        <ele>135.848292</ele>
        <time>2026-08-29T08:00:40Z</time>
      </trkpt>
      <trkpt lat="43.90621" lon="1.89618">
        <ele>135.895821</ele>
        <time>2026-08-29T08:00:41Z</time>
      </trkpt>
      <trkpt lat="43.90625" lon="1.89624">
        <ele>135.939577</ele>
        <time>2026-08-29T08:00:42Z</time>
      </trkpt>
      <trkpt lat="43.90629" lon="1.8963">
        <ele>135.944552</ele>
        <time>2026-08-29T08:00:43Z</time>
      </trkpt>
      <trkpt lat="43.90633" lon="1.89637">
        <ele>135.913782</ele>
        <time>2026-08-29T08:00:44Z</time>
      </trkpt>
      <trkpt lat="43.90637" lon="1.89643">
        <ele>135.885361</ele>
        <time>2026-08-29T08:00:45Z</time>
      </trkpt>
      <trkpt lat="43.90641" lon="1.8965">
        <ele>135.854401</ele>
        <time>2026-08-29T08:00:46Z</time>
      </trkpt>
      <trkpt lat="43.90644" lon="1.89657">
        <ele>135.824826</ele>
        <time>2026-08-29T08:00:47Z</time>
      </trkpt>
      <trkpt lat="43.90647" lon="1.89665">
        <ele>135.794616</ele>
        <time>2026-08-29T08:00:48Z</time>
      </trkpt>
      <trkpt lat="43.9065" lon="1.89671">
        <ele>135.767979</ele>
        <time>2026-08-29T08:00:49Z</time>
      </trkpt>
      <trkpt lat="43.90653" lon="1.89678">
        <ele>135.741836</ele>
        <time>2026-08-29T08:00:50Z</time>
      </trkpt>
      <trkpt lat="43.90656" lon="1.89683">
        <ele>135.716818</ele>
        <time>2026-08-29T08:00:51Z</time>
      </trkpt>
      <trkpt lat="43.9066" lon="1.89688">
        <ele>135.690898</ele>
        <time>2026-08-29T08:00:52Z</time>
      </trkpt>
      <trkpt lat="43.90664" lon="1.89693">
        <ele>135.66617</ele>
        <time>2026-08-29T08:00:53Z</time>
      </trkpt>
      <trkpt lat="43.90668" lon="1.89697">
        <ele>135.641373</ele>
        <time>2026-08-29T08:00:54Z</time>
      </trkpt>
      <trkpt lat="43.90672" lon="1.89701">
        <ele>135.615828</ele>
        <time>2026-08-29T08:00:55Z</time>
      </trkpt>
      <trkpt lat="43.90677" lon="1.89705">
        <ele>135.590274</ele>
        <time>2026-08-29T08:00:56Z</time>
      </trkpt>
      <trkpt lat="43.90681" lon="1.89709">
        <ele>135.563599</ele>
        <time>2026-08-29T08:00:57Z</time>
      </trkpt>
      <trkpt lat="43.90686" lon="1.89712">
        <ele>135.536261</ele>
        <time>2026-08-29T08:00:58Z</time>
      </trkpt>
      <trkpt lat="43.90692" lon="1.89715">
        <ele>135.508902</ele>
        <time>2026-08-29T08:00:59Z</time>
      </trkpt>
      <trkpt lat="43.90697" lon="1.89719">
        <ele>135.482297</ele>
        <time>2026-08-29T08:01:00Z</time>
      </trkpt>
      <trkpt lat="43.90701" lon="1.89722">
        <ele>135.45681</ele>
        <time>2026-08-29T08:01:01Z</time>
      </trkpt>
      <trkpt lat="43.90706" lon="1.89726">
        <ele>135.430468</ele>
        <time>2026-08-29T08:01:02Z</time>
      </trkpt>
      <trkpt lat="43.90711" lon="1.89729">
        <ele>135.403418</ele>
        <time>2026-08-29T08:01:03Z</time>
      </trkpt>
      <trkpt lat="43.90716" lon="1.89732">
        <ele>135.374463</ele>
        <time>2026-08-29T08:01:04Z</time>
      </trkpt>
      <trkpt lat="43.90722" lon="1.89736">
        <ele>135.346231</ele>
        <time>2026-08-29T08:01:05Z</time>
      </trkpt>
      <trkpt lat="43.90726" lon="1.89741">
        <ele>135.318491</ele>
        <time>2026-08-29T08:01:06Z</time>
      </trkpt>
      <trkpt lat="43.90731" lon="1.89745">
        <ele>135.290512</ele>
        <time>2026-08-29T08:01:07Z</time>
      </trkpt>
      <trkpt lat="43.90736" lon="1.89749">
        <ele>135.261749</ele>
        <time>2026-08-29T08:01:08Z</time>
      </trkpt>
      <trkpt lat="43.90741" lon="1.89755">
        <ele>135.232746</ele>
        <time>2026-08-29T08:01:09Z</time>
      </trkpt>
      <trkpt lat="43.90745" lon="1.89761">
        <ele>135.203123</ele>
        <time>2026-08-29T08:01:10Z</time>
      </trkpt>
      <trkpt lat="43.90749" lon="1.89767">
        <ele>135.173</ele>
        <time>2026-08-29T08:01:11Z</time>
      </trkpt>
      <trkpt lat="43.90753" lon="1.89773">
        <ele>135.142956</ele>
        <time>2026-08-29T08:01:12Z</time>
      </trkpt>
      <trkpt lat="43.90758" lon="1.89779">
        <ele>135.113498</ele>
        <time>2026-08-29T08:01:13Z</time>
      </trkpt>
      <trkpt lat="43.90761" lon="1.89785">
        <ele>135.0861</ele>
        <time>2026-08-29T08:01:14Z</time>
      </trkpt>
      <trkpt lat="43.90765" lon="1.89792">
        <ele>135.077475</ele>
        <time>2026-08-29T08:01:15Z</time>
      </trkpt>
      <trkpt lat="43.90767" lon="1.89799">
        <ele>135.069191</ele>
        <time>2026-08-29T08:01:16Z</time>
      </trkpt>
      <trkpt lat="43.90767" lon="1.89806">
        <ele>135.061283</ele>
        <time>2026-08-29T08:01:17Z</time>
      </trkpt>
      <trkpt lat="43.90767" lon="1.89813">
        <ele>135.053873</ele>
        <time>2026-08-29T08:01:18Z</time>
      </trkpt>
      <trkpt lat="43.90768" lon="1.8982">
        <ele>135.04688</ele>
        <time>2026-08-29T08:01:19Z</time>
      </trkpt>
      <trkpt lat="43.90769" lon="1.89826">
        <ele>135.040108</ele>
        <time>2026-08-29T08:01:20Z</time>
      </trkpt>
      <trkpt lat="43.90771" lon="1.89832">
        <ele>135.033107</ele>
        <time>2026-08-29T08:01:21Z</time>
      </trkpt>
      <trkpt lat="43.90774" lon="1.89837">
        <ele>135.026133</ele>
        <time>2026-08-29T08:01:22Z</time>
      </trkpt>
      <trkpt lat="43.90777" lon="1.89842">
        <ele>135.019229</ele>
        <time>2026-08-29T08:01:23Z</time>
      </trkpt>
      <trkpt lat="43.9078" lon="1.89846">
        <ele>135.01222</ele>
        <time>2026-08-29T08:01:24Z</time>
      </trkpt>
      <trkpt lat="43.90784" lon="1.8985">
        <ele>135.005598</ele>
        <time>2026-08-29T08:01:25Z</time>
      </trkpt>
      <trkpt lat="43.90787" lon="1.89852">
        <ele>134.999599</ele>
        <time>2026-08-29T08:01:26Z</time>
      </trkpt>
      <trkpt lat="43.90791" lon="1.89854">
        <ele>134.993451</ele>
        <time>2026-08-29T08:01:27Z</time>
      </trkpt>
      <trkpt lat="43.90795" lon="1.89853">
        <ele>134.987328</ele>
        <time>2026-08-29T08:01:28Z</time>
      </trkpt>
      <trkpt lat="43.90799" lon="1.8985">
        <ele>134.981196</ele>
        <time>2026-08-29T08:01:29Z</time>
      </trkpt>
      <trkpt lat="43.90802" lon="1.89847">
        <ele>134.976236</ele>
        <time>2026-08-29T08:01:30Z</time>
      </trkpt>
      <trkpt lat="43.90805" lon="1.89845">
        <ele>134.970815</ele>
        <time>2026-08-29T08:01:31Z</time>
      </trkpt>
      <trkpt lat="43.90808" lon="1.89842">
        <ele>134.965106</ele>
        <time>2026-08-29T08:01:32Z</time>
      </trkpt>
      <trkpt lat="43.90811" lon="1.8984">
        <ele>134.960147</ele>
        <time>2026-08-29T08:01:33Z</time>
      </trkpt>
      <trkpt lat="43.90814" lon="1.89839">
        <ele>134.955962</ele>
        <time>2026-08-29T08:01:34Z</time>
      </trkpt>
      <trkpt lat="43.90816" lon="1.89839">
        <ele>134.951767</ele>
        <time>2026-08-29T08:01:35Z</time>
      </trkpt>
      <trkpt lat="43.90819" lon="1.8984">
        <ele>134.947629</ele>
        <time>2026-08-29T08:01:36Z</time>
      </trkpt>
      <trkpt lat="43.90821" lon="1.89842">
        <ele>134.943771</ele>
        <time>2026-08-29T08:01:37Z</time>
      </trkpt>
      <trkpt lat="43.90823" lon="1.89845">
        <ele>134.939058</ele>
        <time>2026-08-29T08:01:38Z</time>
      </trkpt>
      <trkpt lat="43.90825" lon="1.8985">
        <ele>134.933719</ele>
        <time>2026-08-29T08:01:39Z</time>
      </trkpt>
      <trkpt lat="43.90827" lon="1.89854">
        <ele>134.927672</ele>
        <time>2026-08-29T08:01:40Z</time>
      </trkpt>
      <trkpt lat="43.90829" lon="1.89859">
        <ele>134.921531</ele>
        <time>2026-08-29T08:01:41Z</time>
      </trkpt>
      <trkpt lat="43.90831" lon="1.89864">
        <ele>134.915252</ele>
        <time>2026-08-29T08:01:42Z</time>
      </trkpt>
      <trkpt lat="43.90834" lon="1.89869">
        <ele>134.908805</ele>
        <time>2026-08-29T08:01:43Z</time>
      </trkpt>
      <trkpt lat="43.90836" lon="1.89874">
        <ele>134.902443</ele>
        <time>2026-08-29T08:01:44Z</time>
      </trkpt>
      <trkpt lat="43.90839" lon="1.89878">
        <ele>134.89604</ele>
        <time>2026-08-29T08:01:45Z</time>
      </trkpt>
      <trkpt lat="43.90842" lon="1.89883">
        <ele>134.889574</ele>
        <time>2026-08-29T08:01:46Z</time>
      </trkpt>
      <trkpt lat="43.90845" lon="1.89888">
        <ele>134.883035</ele>
        <time>2026-08-29T08:01:47Z</time>
      </trkpt>
      <trkpt lat="43.90848" lon="1.89892">
        <ele>134.876748</ele>
        <time>2026-08-29T08:01:48Z</time>
      </trkpt>
      <trkpt lat="43.9085" lon="1.89897">
        <ele>134.870032</ele>
        <time>2026-08-29T08:01:49Z</time>
      </trkpt>
      <trkpt lat="43.90853" lon="1.89902">
        <ele>134.863827</ele>
        <time>2026-08-29T08:01:50Z</time>
      </trkpt>
      <trkpt lat="43.90856" lon="1.89906">
        <ele>134.857539</ele>
        <time>2026-08-29T08:01:51Z</time>
      </trkpt>
      <trkpt lat="43.90859" lon="1.89911">
        <ele>134.850908</ele>
        <time>2026-08-29T08:01:52Z</time>
      </trkpt>
      <trkpt lat="43.90861" lon="1.89916">
        <ele>134.844284</ele>
        <time>2026-08-29T08:01:53Z</time>
      </trkpt>
      <trkpt lat="43.90864" lon="1.8992">
        <ele>134.837922</ele>
        <time>2026-08-29T08:01:54Z</time>
      </trkpt>
      <trkpt lat="43.90866" lon="1.89925">
        <ele>134.831905</ele>
        <time>2026-08-29T08:01:55Z</time>
      </trkpt>
      <trkpt lat="43.90868" lon="1.89929">
        <ele>134.826591</ele>
        <time>2026-08-29T08:01:56Z</time>
      </trkpt>
      <trkpt lat="43.90871" lon="1.89934">
        <ele>134.820229</ele>
        <time>2026-08-29T08:01:57Z</time>
      </trkpt>
      <trkpt lat="43.90874" lon="1.89938">
        <ele>134.848691</ele>
        <time>2026-08-29T08:01:58Z</time>
      </trkpt>
      <trkpt lat="43.90876" lon="1.89942">
        <ele>134.893618</ele>
        <time>2026-08-29T08:01:59Z</time>
      </trkpt>
      <trkpt lat="43.90879" lon="1.89947">
        <ele>134.938427</ele>
        <time>2026-08-29T08:02:00Z</time>
      </trkpt>
      <trkpt lat="43.90881" lon="1.89951">
        <ele>134.98397</ele>
        <time>2026-08-29T08:02:01Z</time>
      </trkpt>
      <trkpt lat="43.90884" lon="1.89955">
        <ele>135.026832</ele>
        <time>2026-08-29T08:02:02Z</time>
      </trkpt>
      <trkpt lat="43.90886" lon="1.89959">
        <ele>135.06779</ele>
        <time>2026-08-29T08:02:03Z</time>
      </trkpt>
      <trkpt lat="43.90888" lon="1.89964">
        <ele>135.111947</ele>
        <time>2026-08-29T08:02:04Z</time>
      </trkpt>
      <trkpt lat="43.90891" lon="1.89968">
        <ele>135.156996</ele>
        <time>2026-08-29T08:02:05Z</time>
      </trkpt>
      <trkpt lat="43.90894" lon="1.89972">
        <ele>135.199165</ele>
        <time>2026-08-29T08:02:06Z</time>
      </trkpt>
      <trkpt lat="43.90896" lon="1.89975">
        <ele>135.240944</ele>
        <time>2026-08-29T08:02:07Z</time>
      </trkpt>
      <trkpt lat="43.90899" lon="1.8998">
        <ele>135.283165</ele>
        <time>2026-08-29T08:02:08Z</time>
      </trkpt>
      <trkpt lat="43.90901" lon="1.89983">
        <ele>135.322419</ele>
        <time>2026-08-29T08:02:09Z</time>
      </trkpt>
      <trkpt lat="43.90903" lon="1.89987">
        <ele>135.363603</ele>
        <time>2026-08-29T08:02:10Z</time>
      </trkpt>
      <trkpt lat="43.90906" lon="1.89991">
        <ele>135.40519</ele>
        <time>2026-08-29T08:02:11Z</time>
      </trkpt>
      <trkpt lat="43.90908" lon="1.89995">
        <ele>135.449412</ele>
        <time>2026-08-29T08:02:12Z</time>
      </trkpt>
      <trkpt lat="43.90911" lon="1.9">
        <ele>135.496836</ele>
        <time>2026-08-29T08:02:13Z</time>
      </trkpt>
      <trkpt lat="43.90914" lon="1.90004">
        <ele>135.541691</ele>
        <time>2026-08-29T08:02:14Z</time>
      </trkpt>
      <trkpt lat="43.90917" lon="1.90008">
        <ele>135.590517</ele>
        <time>2026-08-29T08:02:15Z</time>
      </trkpt>
      <trkpt lat="43.90921" lon="1.9001">
        <ele>135.63733</ele>
        <time>2026-08-29T08:02:16Z</time>
      </trkpt>
      <trkpt lat="43.90925" lon="1.90013">
        <ele>135.684045</ele>
        <time>2026-08-29T08:02:17Z</time>
      </trkpt>
      <trkpt lat="43.90928" lon="1.90015">
        <ele>135.726726</ele>
        <time>2026-08-29T08:02:18Z</time>
      </trkpt>
      <trkpt lat="43.90931" lon="1.90017">
        <ele>135.763282</ele>
        <time>2026-08-29T08:02:19Z</time>
      </trkpt>
      <trkpt lat="43.90934" lon="1.9002">
        <ele>135.805435</ele>
        <time>2026-08-29T08:02:20Z</time>
      </trkpt>
      <trkpt lat="43.90938" lon="1.90023">
        <ele>135.851672</ele>
        <time>2026-08-29T08:02:21Z</time>
      </trkpt>
      <trkpt lat="43.90942" lon="1.90026">
        <ele>135.897368</ele>
        <time>2026-08-29T08:02:22Z</time>
      </trkpt>
      <trkpt lat="43.90945" lon="1.90029">
        <ele>135.943503</ele>
        <time>2026-08-29T08:02:23Z</time>
      </trkpt>
      <trkpt lat="43.90948" lon="1.90033">
        <ele>135.989625</ele>
        <time>2026-08-29T08:02:24Z</time>
      </trkpt>
      <trkpt lat="43.90952" lon="1.90035">
        <ele>136.033012</ele>
        <time>2026-08-29T08:02:25Z</time>
      </trkpt>
      <trkpt lat="43.90955" lon="1.90038">
        <ele>136.075466</ele>
        <time>2026-08-29T08:02:26Z</time>
      </trkpt>
      <trkpt lat="43.90957" lon="1.9004">
        <ele>136.108106</ele>
        <time>2026-08-29T08:02:27Z</time>
      </trkpt>
      <trkpt lat="43.90961" lon="1.90042">
        <ele>136.150097</ele>
        <time>2026-08-29T08:02:28Z</time>
      </trkpt>
      <trkpt lat="43.90964" lon="1.90042">
        <ele>136.188078</ele>
        <time>2026-08-29T08:02:29Z</time>
      </trkpt>
      <trkpt lat="43.90969" lon="1.90043">
        <ele>136.233736</ele>
        <time>2026-08-29T08:02:30Z</time>
      </trkpt>
      <trkpt lat="43.90973" lon="1.90043">
        <ele>136.280419</ele>
        <time>2026-08-29T08:02:31Z</time>
      </trkpt>
      <trkpt lat="43.90977" lon="1.90043">
        <ele>136.32264</ele>
        <time>2026-08-29T08:02:32Z</time>
      </trkpt>
      <trkpt lat="43.9098" lon="1.90043">
        <ele>136.360485</ele>
        <time>2026-08-29T08:02:33Z</time>
      </trkpt>
      <trkpt lat="43.90983" lon="1.90042">
        <ele>136.397845</ele>
        <time>2026-08-29T08:02:34Z</time>
      </trkpt>
      <trkpt lat="43.90986" lon="1.90041">
        <ele>136.427428</ele>
        <time>2026-08-29T08:02:35Z</time>
      </trkpt>
      <trkpt lat="43.90988" lon="1.90039">
        <ele>136.459355</ele>
        <time>2026-08-29T08:02:36Z</time>
      </trkpt>
      <trkpt lat="43.90991" lon="1.90037">
        <ele>136.493339</ele>
        <time>2026-08-29T08:02:37Z</time>
      </trkpt>
      <trkpt lat="43.90992" lon="1.90033">
        <ele>136.52646</ele>
        <time>2026-08-29T08:02:38Z</time>
      </trkpt>
      <trkpt lat="43.90994" lon="1.90029">
        <ele>136.56205</ele>
        <time>2026-08-29T08:02:39Z</time>
      </trkpt>
      <trkpt lat="43.90996" lon="1.90026">
        <ele>136.599121</ele>
        <time>2026-08-29T08:02:40Z</time>
      </trkpt>
      <trkpt lat="43.90998" lon="1.90022">
        <ele>136.639718</ele>
        <time>2026-08-29T08:02:41Z</time>
      </trkpt>
      <trkpt lat="43.91001" lon="1.90018">
        <ele>136.679562</ele>
        <time>2026-08-29T08:02:42Z</time>
      </trkpt>
      <trkpt lat="43.91002" lon="1.90014">
        <ele>136.718294</ele>
        <time>2026-08-29T08:02:43Z</time>
      </trkpt>
      <trkpt lat="43.91003" lon="1.9001">
        <ele>136.752596</ele>
        <time>2026-08-29T08:02:44Z</time>
      </trkpt>
      <trkpt lat="43.91005" lon="1.90005">
        <ele>136.791397</ele>
        <time>2026-08-29T08:02:45Z</time>
      </trkpt>
      <trkpt lat="43.91006" lon="1.90001">
        <ele>136.809841</ele>
        <time>2026-08-29T08:02:46Z</time>
      </trkpt>
      <trkpt lat="43.91006" lon="1.89997">
        <ele>136.787371</ele>
        <time>2026-08-29T08:02:47Z</time>
      </trkpt>
      <trkpt lat="43.91005" lon="1.89993">
        <ele>136.766454</ele>
        <time>2026-08-29T08:02:48Z</time>
      </trkpt>
      <trkpt lat="43.91003" lon="1.8999">
        <ele>136.744267</ele>
        <time>2026-08-29T08:02:49Z</time>
      </trkpt>
      <trkpt lat="43.91001" lon="1.89987">
        <ele>136.721526</ele>
        <time>2026-08-29T08:02:50Z</time>
      </trkpt>
      <trkpt lat="43.90998" lon="1.89985">
        <ele>136.70033</ele>
        <time>2026-08-29T08:02:51Z</time>
      </trkpt>
      <trkpt lat="43.90996" lon="1.89982">
        <ele>136.678323</ele>
        <time>2026-08-29T08:02:52Z</time>
      </trkpt>
      <trkpt lat="43.90995" lon="1.89978">
        <ele>136.656629</ele>
        <time>2026-08-29T08:02:53Z</time>
      </trkpt>
      <trkpt lat="43.90996" lon="1.89974">
        <ele>136.635229</ele>
        <time>2026-08-29T08:02:54Z</time>
      </trkpt>
      <trkpt lat="43.90997" lon="1.8997">
        <ele>136.612653</ele>
        <time>2026-08-29T08:02:55Z</time>
      </trkpt>
      <trkpt lat="43.90996" lon="1.89965">
        <ele>136.58904</ele>
        <time>2026-08-29T08:02:56Z</time>
      </trkpt>
      <trkpt lat="43.90995" lon="1.89961">
        <ele>136.565429</ele>
        <time>2026-08-29T08:02:57Z</time>
      </trkpt>
      <trkpt lat="43.90992" lon="1.89957">
        <ele>136.540359</ele>
        <time>2026-08-29T08:02:58Z</time>
      </trkpt>
      <trkpt lat="43.90989" lon="1.89955">
        <ele>136.514433</ele>
        <time>2026-08-29T08:02:59Z</time>
      </trkpt>
      <trkpt lat="43.90986" lon="1.89953">
        <ele>136.491926</ele>
        <time>2026-08-29T08:03:00Z</time>
      </trkpt>
      <trkpt lat="43.90984" lon="1.89954">
        <ele>136.474447</ele>
        <time>2026-08-29T08:03:01Z</time>
      </trkpt>
      <trkpt lat="43.90983" lon="1.89954">
        <ele>136.463124</ele>
        <time>2026-08-29T08:03:02Z</time>
      </trkpt>
      <trkpt lat="43.90982" lon="1.89955">
        <ele>136.457589</ele>
        <time>2026-08-29T08:03:03Z</time>
      </trkpt>
      <trkpt lat="43.90982" lon="1.89955">
        <ele>136.455376</ele>
        <time>2026-08-29T08:03:04Z</time>
      </trkpt>
      <trkpt lat="43.90982" lon="1.89955">
        <ele>136.454104</ele>
        <time>2026-08-29T08:03:05Z</time>
      </trkpt>
      <trkpt lat="43.90983" lon="1.89957">
        <ele>136.438369</ele>
        <time>2026-08-29T08:15:56Z</time>
      </trkpt>
      <trkpt lat="43.90985" lon="1.89956">
        <ele>136.428476</ele>
        <time>2026-08-29T08:15:57Z</time>
      </trkpt>
      <trkpt lat="43.90985" lon="1.89955">
        <ele>136.421555</ele>
        <time>2026-08-29T08:15:58Z</time>
      </trkpt>
      <trkpt lat="43.90986" lon="1.89954">
        <ele>136.414977</ele>
        <time>2026-08-29T08:15:59Z</time>
      </trkpt>
      <trkpt lat="43.90987" lon="1.89953">
        <ele>136.407225</ele>
        <time>2026-08-29T08:16:00Z</time>
      </trkpt>
      <trkpt lat="43.90988" lon="1.89953">
        <ele>136.401258</ele>
        <time>2026-08-29T08:16:01Z</time>
      </trkpt>
      <trkpt lat="43.90988" lon="1.89952">
        <ele>136.396181</ele>
        <time>2026-08-29T08:16:02Z</time>
      </trkpt>
      <trkpt lat="43.90989" lon="1.89952">
        <ele>136.392605</ele>
        <time>2026-08-29T08:16:03Z</time>
      </trkpt>
      <trkpt lat="43.90989" lon="1.89952">
        <ele>136.390878</ele>
        <time>2026-08-29T08:16:04Z</time>
      </trkpt>
      <trkpt lat="43.90989" lon="1.89952">
        <ele>136.38864</ele>
        <time>2026-08-29T08:16:05Z</time>
      </trkpt>
      <trkpt lat="43.90993" lon="1.89951">
        <ele>136.36248</ele>
        <time>2026-08-29T08:16:39Z</time>
      </trkpt>
      <trkpt lat="43.90994" lon="1.89951">
        <ele>136.352821</ele>
        <time>2026-08-29T08:16:40Z</time>
      </trkpt>
      <trkpt lat="43.90995" lon="1.8995">
        <ele>136.341152</ele>
        <time>2026-08-29T08:16:41Z</time>
      </trkpt>
      <trkpt lat="43.90996" lon="1.89948">
        <ele>136.329097</ele>
        <time>2026-08-29T08:16:42Z</time>
      </trkpt>
      <trkpt lat="43.90995" lon="1.89946">
        <ele>136.31724</ele>
        <time>2026-08-29T08:16:43Z</time>
      </trkpt>
      <trkpt lat="43.90994" lon="1.89944">
        <ele>136.304285</ele>
        <time>2026-08-29T08:16:44Z</time>
      </trkpt>
      <trkpt lat="43.90993" lon="1.89941">
        <ele>136.288544</ele>
        <time>2026-08-29T08:16:45Z</time>
      </trkpt>
      <trkpt lat="43.90994" lon="1.89938">
        <ele>136.270922</ele>
        <time>2026-08-29T08:16:46Z</time>
      </trkpt>
      <trkpt lat="43.90995" lon="1.89935">
        <ele>136.25299</ele>
        <time>2026-08-29T08:16:47Z</time>
      </trkpt>
      <trkpt lat="43.90997" lon="1.89932">
        <ele>136.234704</ele>
        <time>2026-08-29T08:16:48Z</time>
      </trkpt>
      <trkpt lat="43.90999" lon="1.8993">
        <ele>136.218731</ele>
        <time>2026-08-29T08:16:49Z</time>
      </trkpt>
      <trkpt lat="43.91" lon="1.89928">
        <ele>136.200444</ele>
        <time>2026-08-29T08:16:50Z</time>
      </trkpt>
      <trkpt lat="43.91002" lon="1.89925">
        <ele>136.181221</ele>
        <time>2026-08-29T08:16:51Z</time>
      </trkpt>
      <trkpt lat="43.91004" lon="1.89923">
        <ele>136.15957</ele>
        <time>2026-08-29T08:16:52Z</time>
      </trkpt>
      <trkpt lat="43.91007" lon="1.8992">
        <ele>136.136921</ele>
        <time>2026-08-29T08:16:53Z</time>
      </trkpt>
      <trkpt lat="43.91009" lon="1.89917">
        <ele>136.114684</ele>
        <time>2026-08-29T08:16:54Z</time>
      </trkpt>
      <trkpt lat="43.91011" lon="1.89913">
        <ele>136.090015</ele>
        <time>2026-08-29T08:16:55Z</time>
      </trkpt>
      <trkpt lat="43.91014" lon="1.8991">
        <ele>136.066235</ele>
        <time>2026-08-29T08:16:56Z</time>
      </trkpt>
      <trkpt lat="43.91016" lon="1.89908">
        <ele>136.044187</ele>
        <time>2026-08-29T08:16:57Z</time>
      </trkpt>
      <trkpt lat="43.91019" lon="1.89906">
        <ele>136.021579</ele>
        <time>2026-08-29T08:16:58Z</time>
      </trkpt>
      <trkpt lat="43.91022" lon="1.89905">
        <ele>135.998622</ele>
        <time>2026-08-29T08:16:59Z</time>
      </trkpt>
      <trkpt lat="43.91025" lon="1.89904">
        <ele>135.977067</ele>
        <time>2026-08-29T08:17:00Z</time>
      </trkpt>
      <trkpt lat="43.91028" lon="1.89903">
        <ele>135.953857</ele>
        <time>2026-08-29T08:17:01Z</time>
      </trkpt>
      <trkpt lat="43.91031" lon="1.89901">
        <ele>135.931475</ele>
        <time>2026-08-29T08:17:02Z</time>
      </trkpt>
      <trkpt lat="43.91033" lon="1.89898">
        <ele>135.910851</ele>
        <time>2026-08-29T08:17:03Z</time>
      </trkpt>
      <trkpt lat="43.91035" lon="1.89897">
        <ele>135.891307</ele>
        <time>2026-08-29T08:17:04Z</time>
      </trkpt>
      <trkpt lat="43.91038" lon="1.89895">
        <ele>135.871551</ele>
        <time>2026-08-29T08:17:05Z</time>
      </trkpt>
      <trkpt lat="43.9104" lon="1.89894">
        <ele>135.853375</ele>
        <time>2026-08-29T08:17:06Z</time>
      </trkpt>
      <trkpt lat="43.91043" lon="1.89893">
        <ele>135.832639</ele>
        <time>2026-08-29T08:17:07Z</time>
      </trkpt>
      <trkpt lat="43.91046" lon="1.89893">
        <ele>135.810653</ele>
        <time>2026-08-29T08:17:08Z</time>
      </trkpt>
      <trkpt lat="43.91049" lon="1.89891">
        <ele>135.787163</ele>
        <time>2026-08-29T08:17:09Z</time>
      </trkpt>
      <trkpt lat="43.91052" lon="1.8989">
        <ele>135.763371</ele>
        <time>2026-08-29T08:17:10Z</time>
      </trkpt>
      <trkpt lat="43.91056" lon="1.89889">
        <ele>135.740161</ele>
        <time>2026-08-29T08:17:11Z</time>
      </trkpt>
      <trkpt lat="43.91059" lon="1.89888">
        <ele>135.715767</ele>
        <time>2026-08-29T08:17:12Z</time>
      </trkpt>
      <trkpt lat="43.91062" lon="1.89888">
        <ele>135.694212</ele>
        <time>2026-08-29T08:17:13Z</time>
      </trkpt>
      <trkpt lat="43.91065" lon="1.89886">
        <ele>135.670868</ele>
        <time>2026-08-29T08:17:14Z</time>
      </trkpt>
      <trkpt lat="43.91069" lon="1.89886">
        <ele>135.643948</ele>
        <time>2026-08-29T08:17:15Z</time>
      </trkpt>
      <trkpt lat="43.91072" lon="1.89885">
        <ele>135.619763</ele>
        <time>2026-08-29T08:17:16Z</time>
      </trkpt>
      <trkpt lat="43.91075" lon="1.89883">
        <ele>135.593612</ele>
        <time>2026-08-29T08:17:17Z</time>
      </trkpt>
      <trkpt lat="43.91079" lon="1.89882">
        <ele>135.567571</ele>
        <time>2026-08-29T08:17:18Z</time>
      </trkpt>
      <trkpt lat="43.91082" lon="1.8988">
        <ele>135.542316</ele>
        <time>2026-08-29T08:17:19Z</time>
      </trkpt>
      <trkpt lat="43.91085" lon="1.89878">
        <ele>135.516869</ele>
        <time>2026-08-29T08:17:20Z</time>
      </trkpt>
      <trkpt lat="43.91089" lon="1.89878">
        <ele>135.534862</ele>
        <time>2026-08-29T08:17:21Z</time>
      </trkpt>
      <trkpt lat="43.91092" lon="1.89877">
        <ele>135.561852</ele>
        <time>2026-08-29T08:17:22Z</time>
      </trkpt>
      <trkpt lat="43.91095" lon="1.89876">
        <ele>135.590879</ele>
        <time>2026-08-29T08:17:23Z</time>
      </trkpt>
      <trkpt lat="43.91098" lon="1.89874">
        <ele>135.620919</ele>
        <time>2026-08-29T08:17:24Z</time>
      </trkpt>
      <trkpt lat="43.91102" lon="1.89873">
        <ele>135.653718</ele>
        <time>2026-08-29T08:17:25Z</time>
      </trkpt>
      <trkpt lat="43.91106" lon="1.89872">
        <ele>135.686517</ele>
        <time>2026-08-29T08:17:26Z</time>
      </trkpt>
      <trkpt lat="43.91109" lon="1.89871">
        <ele>135.717848</ele>
        <time>2026-08-29T08:17:27Z</time>
      </trkpt>
      <trkpt lat="43.91113" lon="1.8987">
        <ele>135.749088</ele>
        <time>2026-08-29T08:17:28Z</time>
      </trkpt>
      <trkpt lat="43.91116" lon="1.89869">
        <ele>135.777989</ele>
        <time>2026-08-29T08:17:29Z</time>
      </trkpt>
      <trkpt lat="43.9112" lon="1.89869">
        <ele>135.810169</ele>
        <time>2026-08-29T08:17:30Z</time>
      </trkpt>
      <trkpt lat="43.91123" lon="1.89867">
        <ele>135.841986</ele>
        <time>2026-08-29T08:17:31Z</time>
      </trkpt>
      <trkpt lat="43.91127" lon="1.89866">
        <ele>135.871011</ele>
        <time>2026-08-29T08:17:32Z</time>
      </trkpt>
      <trkpt lat="43.91129" lon="1.89864">
        <ele>135.897529</ele>
        <time>2026-08-29T08:17:33Z</time>
      </trkpt>
      <trkpt lat="43.91132" lon="1.89863">
        <ele>135.91887</ele>
        <time>2026-08-29T08:17:34Z</time>
      </trkpt>
      <trkpt lat="43.91135" lon="1.89862">
        <ele>135.947058</ele>
        <time>2026-08-29T08:17:35Z</time>
      </trkpt>
      <trkpt lat="43.91138" lon="1.89861">
        <ele>135.972255</ele>
        <time>2026-08-29T08:17:36Z</time>
      </trkpt>
      <trkpt lat="43.91141" lon="1.8986">
        <ele>136.002913</ele>
        <time>2026-08-29T08:17:37Z</time>
      </trkpt>
      <trkpt lat="43.91145" lon="1.89859">
        <ele>136.032229</ele>
        <time>2026-08-29T08:17:38Z</time>
      </trkpt>
      <trkpt lat="43.91148" lon="1.89858">
        <ele>136.060288</ele>
        <time>2026-08-29T08:17:39Z</time>
      </trkpt>
      <trkpt lat="43.91151" lon="1.89857">
        <ele>136.087186</ele>
        <time>2026-08-29T08:17:40Z</time>
      </trkpt>
      <trkpt lat="43.91154" lon="1.89857">
        <ele>136.118278</ele>
        <time>2026-08-29T08:17:41Z</time>
      </trkpt>
      <trkpt lat="43.91158" lon="1.89856">
        <ele>136.148584</ele>
        <time>2026-08-29T08:17:42Z</time>
      </trkpt>
      <trkpt lat="43.91162" lon="1.89855">
        <ele>136.181386</ele>
        <time>2026-08-29T08:17:43Z</time>
      </trkpt>
      <trkpt lat="43.91165" lon="1.89855">
        <ele>136.213566</ele>
        <time>2026-08-29T08:17:44Z</time>
      </trkpt>
      <trkpt lat="43.91169" lon="1.89853">
        <ele>136.245383</ele>
        <time>2026-08-29T08:17:45Z</time>
      </trkpt>
      <trkpt lat="43.91173" lon="1.89852">
        <ele>136.278182</ele>
        <time>2026-08-29T08:17:46Z</time>
      </trkpt>
      <trkpt lat="43.91176" lon="1.89851">
        <ele>136.307661</ele>
        <time>2026-08-29T08:17:47Z</time>
      </trkpt>
      <trkpt lat="43.91179" lon="1.8985">
        <ele>136.335992</ele>
        <time>2026-08-29T08:17:48Z</time>
      </trkpt>
      <trkpt lat="43.91183" lon="1.89849">
        <ele>136.367542</ele>
        <time>2026-08-29T08:17:49Z</time>
      </trkpt>
      <trkpt lat="43.91187" lon="1.89848">
        <ele>136.399936</ele>
        <time>2026-08-29T08:17:50Z</time>
      </trkpt>
      <trkpt lat="43.9119" lon="1.89847">
        <ele>136.430173</ele>
        <time>2026-08-29T08:17:51Z</time>
      </trkpt>
      <trkpt lat="43.91193" lon="1.89846">
        <ele>136.457389</ele>
        <time>2026-08-29T08:17:52Z</time>
      </trkpt>
      <trkpt lat="43.91196" lon="1.89846">
        <ele>136.484917</ele>
        <time>2026-08-29T08:17:53Z</time>
      </trkpt>
      <trkpt lat="43.912" lon="1.89846">
        <ele>136.512479</ele>
        <time>2026-08-29T08:17:54Z</time>
      </trkpt>
      <trkpt lat="43.91203" lon="1.89845">
        <ele>136.541861</ele>
        <time>2026-08-29T08:17:55Z</time>
      </trkpt>
      <trkpt lat="43.91206" lon="1.89845">
        <ele>136.571965</ele>
        <time>2026-08-29T08:17:56Z</time>
      </trkpt>
      <trkpt lat="43.9121" lon="1.89845">
        <ele>136.60119</ele>
        <time>2026-08-29T08:17:57Z</time>
      </trkpt>
      <trkpt lat="43.91214" lon="1.89845">
        <ele>136.633939</ele>
        <time>2026-08-29T08:17:58Z</time>
      </trkpt>
      <trkpt lat="43.91217" lon="1.89844">
        <ele>136.665832</ele>
        <time>2026-08-29T08:17:59Z</time>
      </trkpt>
      <trkpt lat="43.91221" lon="1.89844">
        <ele>136.697653</ele>
        <time>2026-08-29T08:18:00Z</time>
      </trkpt>
      <trkpt lat="43.91225" lon="1.89844">
        <ele>136.728689</ele>
        <time>2026-08-29T08:18:01Z</time>
      </trkpt>
      <trkpt lat="43.91229" lon="1.89843">
        <ele>136.764269</ele>
        <time>2026-08-29T08:18:02Z</time>
      </trkpt>
      <trkpt lat="43.91233" lon="1.89842">
        <ele>136.798844</ele>
        <time>2026-08-29T08:18:03Z</time>
      </trkpt>
      <trkpt lat="43.91237" lon="1.89842">
        <ele>136.833419</ele>
        <time>2026-08-29T08:18:04Z</time>
      </trkpt>
      <trkpt lat="43.91241" lon="1.89842">
        <ele>136.867799</ele>
        <time>2026-08-29T08:18:05Z</time>
      </trkpt>
      <trkpt lat="43.91245" lon="1.89841">
        <ele>136.900601</ele>
        <time>2026-08-29T08:18:06Z</time>
      </trkpt>
      <trkpt lat="43.91248" lon="1.89841">
        <ele>136.931594</ele>
        <time>2026-08-29T08:18:07Z</time>
      </trkpt>
      <trkpt lat="43.91252" lon="1.8984">
        <ele>136.961729</ele>
        <time>2026-08-29T08:18:08Z</time>
      </trkpt>
      <trkpt lat="43.91255" lon="1.8984">
        <ele>136.989403</ele>
        <time>2026-08-29T08:18:09Z</time>
      </trkpt>
      <trkpt lat="43.91258" lon="1.8984">
        <ele>137.018726</ele>
        <time>2026-08-29T08:18:10Z</time>
      </trkpt>
      <trkpt lat="43.91262" lon="1.89839">
        <ele>137.04818</ele>
        <time>2026-08-29T08:18:11Z</time>
      </trkpt>
      <trkpt lat="43.91265" lon="1.89838">
        <ele>137.076852</ele>
        <time>2026-08-29T08:18:12Z</time>
      </trkpt>
      <trkpt lat="43.91269" lon="1.89838">
        <ele>137.108324</ele>
        <time>2026-08-29T08:18:13Z</time>
      </trkpt>
      <trkpt lat="43.91272" lon="1.89837">
        <ele>137.139142</ele>
        <time>2026-08-29T08:18:14Z</time>
      </trkpt>
      <trkpt lat="43.91276" lon="1.89836">
        <ele>137.171777</ele>
        <time>2026-08-29T08:18:15Z</time>
      </trkpt>
      <trkpt lat="43.91279" lon="1.89835">
        <ele>137.203831</ele>
        <time>2026-08-29T08:18:16Z</time>
      </trkpt>
      <trkpt lat="43.91283" lon="1.89834">
        <ele>137.235617</ele>
        <time>2026-08-29T08:18:17Z</time>
      </trkpt>
      <trkpt lat="43.91287" lon="1.89832">
        <ele>137.268514</ele>
        <time>2026-08-29T08:18:18Z</time>
      </trkpt>
      <trkpt lat="43.9129" lon="1.89831">
        <ele>137.300719</ele>
        <time>2026-08-29T08:18:19Z</time>
      </trkpt>
      <trkpt lat="43.91294" lon="1.8983">
        <ele>137.333087</ele>
        <time>2026-08-29T08:18:20Z</time>
      </trkpt>
      <trkpt lat="43.91297" lon="1.89829">
        <ele>137.364756</ele>
        <time>2026-08-29T08:18:21Z</time>
      </trkpt>
      <trkpt lat="43.91301" lon="1.89828">
        <ele>137.396321</ele>
        <time>2026-08-29T08:18:22Z</time>
      </trkpt>
      <trkpt lat="43.91305" lon="1.89827">
        <ele>137.427991</ele>
        <time>2026-08-29T08:18:23Z</time>
      </trkpt>
      <trkpt lat="43.91308" lon="1.89826">
        <ele>137.460626</ele>
        <time>2026-08-29T08:18:24Z</time>
      </trkpt>
      <trkpt lat="43.91312" lon="1.89825">
        <ele>137.491695</ele>
        <time>2026-08-29T08:18:25Z</time>
      </trkpt>
      <trkpt lat="43.91315" lon="1.89824">
        <ele>137.521785</ele>
        <time>2026-08-29T08:18:26Z</time>
      </trkpt>
      <trkpt lat="43.91318" lon="1.89823">
        <ele>137.548977</ele>
        <time>2026-08-29T08:18:27Z</time>
      </trkpt>
      <trkpt lat="43.91321" lon="1.89822">
        <ele>137.572699</ele>
        <time>2026-08-29T08:18:28Z</time>
      </trkpt>
      <trkpt lat="43.91324" lon="1.89822">
        <ele>137.597227</ele>
        <time>2026-08-29T08:18:29Z</time>
      </trkpt>
      <trkpt lat="43.91326" lon="1.8982">
        <ele>137.62076</ele>
        <time>2026-08-29T08:18:30Z</time>
      </trkpt>
      <trkpt lat="43.91329" lon="1.89819">
        <ele>137.644954</ele>
        <time>2026-08-29T08:18:31Z</time>
      </trkpt>
      <trkpt lat="43.91332" lon="1.89819">
        <ele>137.668994</ele>
        <time>2026-08-29T08:18:32Z</time>
      </trkpt>
      <trkpt lat="43.91334" lon="1.89818">
        <ele>137.693188</ele>
        <time>2026-08-29T08:18:33Z</time>
      </trkpt>
      <trkpt lat="43.91337" lon="1.89816">
        <ele>137.717733</ele>
        <time>2026-08-29T08:18:34Z</time>
      </trkpt>
      <trkpt lat="43.9134" lon="1.89815">
        <ele>137.741926</ele>
        <time>2026-08-29T08:18:35Z</time>
      </trkpt>
      <trkpt lat="43.91343" lon="1.89814">
        <ele>137.768126</ele>
        <time>2026-08-29T08:18:36Z</time>
      </trkpt>
      <trkpt lat="43.91346" lon="1.89813">
        <ele>137.795335</ele>
        <time>2026-08-29T08:18:37Z</time>
      </trkpt>
      <trkpt lat="43.91349" lon="1.89812">
        <ele>137.823372</ele>
        <time>2026-08-29T08:18:38Z</time>
      </trkpt>
      <trkpt lat="43.91352" lon="1.8981">
        <ele>137.851074</ele>
        <time>2026-08-29T08:18:39Z</time>
      </trkpt>
      <trkpt lat="43.91355" lon="1.89809">
        <ele>137.878476</ele>
        <time>2026-08-29T08:18:40Z</time>
      </trkpt>
      <trkpt lat="43.91358" lon="1.89808">
        <ele>137.9067</ele>
        <time>2026-08-29T08:18:41Z</time>
      </trkpt>
      <trkpt lat="43.91361" lon="1.89806">
        <ele>137.935123</ele>
        <time>2026-08-29T08:18:42Z</time>
      </trkpt>
      <trkpt lat="43.91365" lon="1.89805">
        <ele>137.96594</ele>
        <time>2026-08-29T08:18:43Z</time>
      </trkpt>
      <trkpt lat="43.91368" lon="1.89804">
        <ele>137.99214</ele>
        <time>2026-08-29T08:18:44Z</time>
      </trkpt>
      <trkpt lat="43.9137" lon="1.89803">
        <ele>138.017318</ele>
        <time>2026-08-29T08:18:45Z</time>
      </trkpt>
      <trkpt lat="43.91373" lon="1.89801">
        <ele>138.043533</ele>
        <time>2026-08-29T08:18:46Z</time>
      </trkpt>
      <trkpt lat="43.91376" lon="1.89799">
        <ele>138.06791</ele>
        <time>2026-08-29T08:18:47Z</time>
      </trkpt>
      <trkpt lat="43.91378" lon="1.89798">
        <ele>138.092652</ele>
        <time>2026-08-29T08:18:48Z</time>
      </trkpt>
      <trkpt lat="43.91381" lon="1.89797">
        <ele>138.118419</ele>
        <time>2026-08-29T08:18:49Z</time>
      </trkpt>
      <trkpt lat="43.91384" lon="1.89796">
        <ele>138.143613</ele>
        <time>2026-08-29T08:18:50Z</time>
      </trkpt>
      <trkpt lat="43.91387" lon="1.89794">
        <ele>138.173488</ele>
        <time>2026-08-29T08:18:51Z</time>
      </trkpt>
      <trkpt lat="43.91391" lon="1.89793">
        <ele>138.203861</ele>
        <time>2026-08-29T08:18:52Z</time>
      </trkpt>
      <trkpt lat="43.91394" lon="1.89792">
        <ele>138.235775</ele>
        <time>2026-08-29T08:18:53Z</time>
      </trkpt>
      <trkpt lat="43.91398" lon="1.89791">
        <ele>138.269907</ele>
        <time>2026-08-29T08:18:54Z</time>
      </trkpt>
      <trkpt lat="43.91402" lon="1.8979">
        <ele>138.302237</ele>
        <time>2026-08-29T08:18:55Z</time>
      </trkpt>
      <trkpt lat="43.91405" lon="1.89789">
        <ele>138.332769</ele>
        <time>2026-08-29T08:18:56Z</time>
      </trkpt>
      <trkpt lat="43.91409" lon="1.89788">
        <ele>138.364683</ele>
        <time>2026-08-29T08:18:57Z</time>
      </trkpt>
      <trkpt lat="43.91413" lon="1.89787">
        <ele>138.399721</ele>
        <time>2026-08-29T08:18:58Z</time>
      </trkpt>
      <trkpt lat="43.91417" lon="1.89785">
        <ele>138.433461</ele>
        <time>2026-08-29T08:18:59Z</time>
      </trkpt>
      <trkpt lat="43.9142" lon="1.89784">
        <ele>138.466357</ele>
        <time>2026-08-29T08:19:00Z</time>
      </trkpt>
      <trkpt lat="43.91424" lon="1.89783">
        <ele>138.501661</ele>
        <time>2026-08-29T08:19:01Z</time>
      </trkpt>
      <trkpt lat="43.91428" lon="1.89781">
        <ele>138.53687</ele>
        <time>2026-08-29T08:19:02Z</time>
      </trkpt>
      <trkpt lat="43.91432" lon="1.8978">
        <ele>138.570073</ele>
        <time>2026-08-29T08:19:03Z</time>
      </trkpt>
      <trkpt lat="43.91436" lon="1.89778">
        <ele>138.604638</ele>
        <time>2026-08-29T08:19:04Z</time>
      </trkpt>
      <trkpt lat="43.9144" lon="1.89777">
        <ele>138.626205</ele>
        <time>2026-08-29T08:19:05Z</time>
      </trkpt>
      <trkpt lat="43.91444" lon="1.89775">
        <ele>138.642182</ele>
        <time>2026-08-29T08:19:06Z</time>
      </trkpt>
      <trkpt lat="43.91448" lon="1.89774">
        <ele>138.658386</ele>
        <time>2026-08-29T08:19:07Z</time>
      </trkpt>
      <trkpt lat="43.91452" lon="1.89772">
        <ele>138.675262</ele>
        <time>2026-08-29T08:19:08Z</time>
      </trkpt>
      <trkpt lat="43.91456" lon="1.8977">
        <ele>138.690606</ele>
        <time>2026-08-29T08:19:09Z</time>
      </trkpt>
      <trkpt lat="43.9146" lon="1.89769">
        <ele>138.706749</ele>
        <time>2026-08-29T08:19:10Z</time>
      </trkpt>
      <trkpt lat="43.91465" lon="1.89768">
        <ele>138.722468</ele>
        <time>2026-08-29T08:19:11Z</time>
      </trkpt>
      <trkpt lat="43.91469" lon="1.89766">
        <ele>138.73852</ele>
        <time>2026-08-29T08:19:12Z</time>
      </trkpt>
      <trkpt lat="43.91473" lon="1.89764">
        <ele>138.754524</ele>
        <time>2026-08-29T08:19:13Z</time>
      </trkpt>
      <trkpt lat="43.91476" lon="1.89762">
        <ele>138.769868</ele>
        <time>2026-08-29T08:19:14Z</time>
      </trkpt>
      <trkpt lat="43.9148" lon="1.8976">
        <ele>138.785561</ele>
        <time>2026-08-29T08:19:15Z</time>
      </trkpt>
      <trkpt lat="43.91484" lon="1.89757">
        <ele>138.800904</ele>
        <time>2026-08-29T08:19:16Z</time>
      </trkpt>
      <trkpt lat="43.91488" lon="1.89755">
        <ele>138.817045</ele>
        <time>2026-08-29T08:19:17Z</time>
      </trkpt>
      <trkpt lat="43.91492" lon="1.89753">
        <ele>138.8345</ele>
        <time>2026-08-29T08:19:18Z</time>
      </trkpt>
      <trkpt lat="43.91497" lon="1.89751">
        <ele>138.851787</ele>
        <time>2026-08-29T08:19:19Z</time>
      </trkpt>
      <trkpt lat="43.91501" lon="1.89749">
        <ele>138.868627</ele>
        <time>2026-08-29T08:19:20Z</time>
      </trkpt>
      <trkpt lat="43.91505" lon="1.89746">
        <ele>138.885468</ele>
        <time>2026-08-29T08:19:21Z</time>
      </trkpt>
      <trkpt lat="43.91509" lon="1.89744">
        <ele>138.90126</ele>
        <time>2026-08-29T08:19:22Z</time>
      </trkpt>
      <trkpt lat="43.91513" lon="1.89742">
        <ele>138.917655</ele>
        <time>2026-08-29T08:19:23Z</time>
      </trkpt>
      <trkpt lat="43.91517" lon="1.8974">
        <ele>138.934847</ele>
        <time>2026-08-29T08:19:24Z</time>
      </trkpt>
      <trkpt lat="43.91522" lon="1.89738">
        <ele>138.951594</ele>
        <time>2026-08-29T08:19:25Z</time>
      </trkpt>
      <trkpt lat="43.91526" lon="1.89736">
        <ele>138.968434</ele>
        <time>2026-08-29T08:19:26Z</time>
      </trkpt>
      <trkpt lat="43.9153" lon="1.89734">
        <ele>138.985803</ele>
        <time>2026-08-29T08:19:27Z</time>
      </trkpt>
      <trkpt lat="43.91535" lon="1.89732">
        <ele>139.002816</ele>
        <time>2026-08-29T08:19:28Z</time>
      </trkpt>
      <trkpt lat="43.91539" lon="1.8973">
        <ele>139.019745</ele>
        <time>2026-08-29T08:19:29Z</time>
      </trkpt>
      <trkpt lat="43.91543" lon="1.89728">
        <ele>139.036845</ele>
        <time>2026-08-29T08:19:30Z</time>
      </trkpt>
      <trkpt lat="43.91547" lon="1.89726">
        <ele>139.053945</ele>
        <time>2026-08-29T08:19:31Z</time>
      </trkpt>
      <trkpt lat="43.91552" lon="1.89723">
        <ele>139.071137</ele>
        <time>2026-08-29T08:19:32Z</time>
      </trkpt>
      <trkpt lat="43.91556" lon="1.89721">
        <ele>139.088782</ele>
        <time>2026-08-29T08:19:33Z</time>
      </trkpt>
      <trkpt lat="43.91561" lon="1.89719">
        <ele>139.106592</ele>
        <time>2026-08-29T08:19:34Z</time>
      </trkpt>
      <trkpt lat="43.91565" lon="1.89717">
        <ele>139.124081</ele>
        <time>2026-08-29T08:19:35Z</time>
      </trkpt>
      <trkpt lat="43.91569" lon="1.89714">
        <ele>139.141816</ele>
        <time>2026-08-29T08:19:36Z</time>
      </trkpt>
      <trkpt lat="43.91574" lon="1.89712">
        <ele>139.159899</ele>
        <time>2026-08-29T08:19:37Z</time>
      </trkpt>
      <trkpt lat="43.91578" lon="1.8971">
        <ele>139.176912</ele>
        <time>2026-08-29T08:19:38Z</time>
      </trkpt>
      <trkpt lat="43.91583" lon="1.89709">
        <ele>139.194407</ele>
        <time>2026-08-29T08:19:39Z</time>
      </trkpt>
      <trkpt lat="43.91587" lon="1.89707">
        <ele>139.211862</ele>
        <time>2026-08-29T08:19:40Z</time>
      </trkpt>
      <trkpt lat="43.91592" lon="1.89705">
        <ele>139.230028</ele>
        <time>2026-08-29T08:19:41Z</time>
      </trkpt>
      <trkpt lat="43.91596" lon="1.89702">
        <ele>139.247483</ele>
        <time>2026-08-29T08:19:42Z</time>
      </trkpt>
      <trkpt lat="43.91601" lon="1.89701">
        <ele>139.265487</ele>
        <time>2026-08-29T08:19:43Z</time>
      </trkpt>
      <trkpt lat="43.91605" lon="1.89698">
        <ele>139.283297</ele>
        <time>2026-08-29T08:19:44Z</time>
      </trkpt>
      <trkpt lat="43.9161" lon="1.89696">
        <ele>139.321477</ele>
        <time>2026-08-29T08:19:45Z</time>
      </trkpt>
      <trkpt lat="43.91614" lon="1.89694">
        <ele>139.369904</ele>
        <time>2026-08-29T08:19:46Z</time>
      </trkpt>
      <trkpt lat="43.91618" lon="1.89692">
        <ele>139.417312</ele>
        <time>2026-08-29T08:19:47Z</time>
      </trkpt>
      <trkpt lat="43.91622" lon="1.8969">
        <ele>139.46676</ele>
        <time>2026-08-29T08:19:48Z</time>
      </trkpt>
      <trkpt lat="43.91626" lon="1.89688">
        <ele>139.512377</ele>
        <time>2026-08-29T08:19:49Z</time>
      </trkpt>
      <trkpt lat="43.9163" lon="1.89685">
        <ele>139.559785</ele>
        <time>2026-08-29T08:19:50Z</time>
      </trkpt>
      <trkpt lat="43.91634" lon="1.89683">
        <ele>139.60898</ele>
        <time>2026-08-29T08:19:51Z</time>
      </trkpt>
      <trkpt lat="43.91639" lon="1.89681">
        <ele>139.657958</ele>
        <time>2026-08-29T08:19:52Z</time>
      </trkpt>
      <trkpt lat="43.91643" lon="1.89678">
        <ele>139.710145</ele>
        <time>2026-08-29T08:19:53Z</time>
      </trkpt>
      <trkpt lat="43.91647" lon="1.89676">
        <ele>139.758057</ele>
        <time>2026-08-29T08:19:54Z</time>
      </trkpt>
      <trkpt lat="43.91651" lon="1.89673">
        <ele>139.807285</ele>
        <time>2026-08-29T08:19:55Z</time>
      </trkpt>
      <trkpt lat="43.91655" lon="1.8967">
        <ele>139.853593</ele>
        <time>2026-08-29T08:19:56Z</time>
      </trkpt>
      <trkpt lat="43.91659" lon="1.89667">
        <ele>139.90387</ele>
        <time>2026-08-29T08:19:57Z</time>
      </trkpt>
      <trkpt lat="43.91663" lon="1.89664">
        <ele>139.954515</ele>
        <time>2026-08-29T08:19:58Z</time>
      </trkpt>
      <trkpt lat="43.91667" lon="1.89661">
        <ele>140.006323</ele>
        <time>2026-08-29T08:19:59Z</time>
      </trkpt>
      <trkpt lat="43.91671" lon="1.89657">
        <ele>140.058011</ele>
        <time>2026-08-29T08:20:00Z</time>
      </trkpt>
      <trkpt lat="43.91675" lon="1.89654">
        <ele>140.107918</ele>
        <time>2026-08-29T08:20:01Z</time>
      </trkpt>
      <trkpt lat="43.91679" lon="1.8965">
        <ele>140.157876</ele>
        <time>2026-08-29T08:20:02Z</time>
      </trkpt>
      <trkpt lat="43.91683" lon="1.89647">
        <ele>140.205689</ele>
        <time>2026-08-29T08:20:03Z</time>
      </trkpt>
      <trkpt lat="43.91686" lon="1.89644">
        <ele>140.253111</ele>
        <time>2026-08-29T08:20:04Z</time>
      </trkpt>
      <trkpt lat="43.9169" lon="1.89641">
        <ele>140.299909</ele>
        <time>2026-08-29T08:20:05Z</time>
      </trkpt>
      <trkpt lat="43.91694" lon="1.89638">
        <ele>140.347199</ele>
        <time>2026-08-29T08:20:06Z</time>
      </trkpt>
      <trkpt lat="43.91697" lon="1.89634">
        <ele>140.393997</ele>
        <time>2026-08-29T08:20:07Z</time>
      </trkpt>
      <trkpt lat="43.91701" lon="1.8963">
        <ele>140.443057</ele>
        <time>2026-08-29T08:20:08Z</time>
      </trkpt>
      <trkpt lat="43.91705" lon="1.89626">
        <ele>140.49393</ele>
        <time>2026-08-29T08:20:09Z</time>
      </trkpt>
      <trkpt lat="43.91708" lon="1.89623">
        <ele>140.540317</ele>
        <time>2026-08-29T08:20:10Z</time>
      </trkpt>
      <trkpt lat="43.91712" lon="1.89619">
        <ele>140.587571</ele>
        <time>2026-08-29T08:20:11Z</time>
      </trkpt>
      <trkpt lat="43.91715" lon="1.89616">
        <ele>140.630917</ele>
        <time>2026-08-29T08:20:12Z</time>
      </trkpt>
      <trkpt lat="43.91718" lon="1.89613">
        <ele>140.672373</ele>
        <time>2026-08-29T08:20:13Z</time>
      </trkpt>
      <trkpt lat="43.91721" lon="1.89609">
        <ele>140.722886</ele>
        <time>2026-08-29T08:20:14Z</time>
      </trkpt>
      <trkpt lat="43.91725" lon="1.89605">
        <ele>140.771016</ele>
        <time>2026-08-29T08:20:15Z</time>
      </trkpt>
      <trkpt lat="43.91729" lon="1.89601">
        <ele>140.820483</ele>
        <time>2026-08-29T08:20:16Z</time>
      </trkpt>
      <trkpt lat="43.91732" lon="1.89598">
        <ele>140.866823</ele>
        <time>2026-08-29T08:20:17Z</time>
      </trkpt>
      <trkpt lat="43.91736" lon="1.89595">
        <ele>140.913621</ele>
        <time>2026-08-29T08:20:18Z</time>
      </trkpt>
      <trkpt lat="43.91739" lon="1.89591">
        <ele>140.960875</ele>
        <time>2026-08-29T08:20:19Z</time>
      </trkpt>
      <trkpt lat="43.91743" lon="1.89587">
        <ele>141.008226</ele>
        <time>2026-08-29T08:20:20Z</time>
      </trkpt>
      <trkpt lat="43.91746" lon="1.89584">
        <ele>141.054613</ele>
        <time>2026-08-29T08:20:21Z</time>
      </trkpt>
      <trkpt lat="43.9175" lon="1.8958">
        <ele>141.103299</ele>
        <time>2026-08-29T08:20:22Z</time>
      </trkpt>
      <trkpt lat="43.91753" lon="1.89576">
        <ele>141.151889</ele>
        <time>2026-08-29T08:20:23Z</time>
      </trkpt>
      <trkpt lat="43.91757" lon="1.89572">
        <ele>141.200575</ele>
        <time>2026-08-29T08:20:24Z</time>
      </trkpt>
      <trkpt lat="43.9176" lon="1.89568">
        <ele>141.252238</ele>
        <time>2026-08-29T08:20:25Z</time>
      </trkpt>
      <trkpt lat="43.91764" lon="1.89564">
        <ele>141.301153</ele>
        <time>2026-08-29T08:20:26Z</time>
      </trkpt>
      <trkpt lat="43.91768" lon="1.8956">
        <ele>141.351719</ele>
        <time>2026-08-29T08:20:27Z</time>
      </trkpt>
      <trkpt lat="43.91771" lon="1.89556">
        <ele>141.402285</ele>
        <time>2026-08-29T08:20:28Z</time>
      </trkpt>
      <trkpt lat="43.91775" lon="1.89552">
        <ele>141.450128</ele>
        <time>2026-08-29T08:20:29Z</time>
      </trkpt>
      <trkpt lat="43.91779" lon="1.89549">
        <ele>141.497072</ele>
        <time>2026-08-29T08:20:30Z</time>
      </trkpt>
      <trkpt lat="43.91782" lon="1.89545">
        <ele>141.541383</ele>
        <time>2026-08-29T08:20:31Z</time>
      </trkpt>
      <trkpt lat="43.91785" lon="1.89542">
        <ele>141.585695</ele>
        <time>2026-08-29T08:20:32Z</time>
      </trkpt>
      <trkpt lat="43.91789" lon="1.89539">
        <ele>141.632201</ele>
        <time>2026-08-29T08:20:33Z</time>
      </trkpt>
      <trkpt lat="43.91792" lon="1.89535">
        <ele>141.678728</ele>
        <time>2026-08-29T08:20:34Z</time>
      </trkpt>
      <trkpt lat="43.91796" lon="1.89531">
        <ele>141.729665</ele>
        <time>2026-08-29T08:20:35Z</time>
      </trkpt>
      <trkpt lat="43.918" lon="1.89527">
        <ele>141.776654</ele>
        <time>2026-08-29T08:20:36Z</time>
      </trkpt>
      <trkpt lat="43.91803" lon="1.89524">
        <ele>141.822727</ele>
        <time>2026-08-29T08:20:37Z</time>
      </trkpt>
      <trkpt lat="43.91807" lon="1.8952">
        <ele>141.86887</ele>
        <time>2026-08-29T08:20:38Z</time>
      </trkpt>
      <trkpt lat="43.9181" lon="1.89516">
        <ele>141.916713</ele>
        <time>2026-08-29T08:20:39Z</time>
      </trkpt>
      <trkpt lat="43.91814" lon="1.89513">
        <ele>141.965852</ele>
        <time>2026-08-29T08:20:40Z</time>
      </trkpt>
      <trkpt lat="43.91818" lon="1.89509">
        <ele>142.013245</ele>
        <time>2026-08-29T08:20:41Z</time>
      </trkpt>
      <trkpt lat="43.91821" lon="1.89506">
        <ele>142.060639</ele>
        <time>2026-08-29T08:20:42Z</time>
      </trkpt>
      <trkpt lat="43.91825" lon="1.89502">
        <ele>142.109348</ele>
        <time>2026-08-29T08:20:43Z</time>
      </trkpt>
      <trkpt lat="43.91829" lon="1.89499">
        <ele>142.155854</ele>
        <time>2026-08-29T08:20:44Z</time>
      </trkpt>
      <trkpt lat="43.91833" lon="1.89496">
        <ele>142.203248</ele>
        <time>2026-08-29T08:20:45Z</time>
      </trkpt>
      <trkpt lat="43.91836" lon="1.89493">
        <ele>142.251249</ele>
        <time>2026-08-29T08:20:46Z</time>
      </trkpt>
      <trkpt lat="43.9184" lon="1.89489">
        <ele>142.300033</ele>
        <time>2026-08-29T08:20:47Z</time>
      </trkpt>
      <trkpt lat="43.91844" lon="1.89486">
        <ele>142.347426</ele>
        <time>2026-08-29T08:20:48Z</time>
      </trkpt>
      <trkpt lat="43.91848" lon="1.89482">
        <ele>142.395249</ele>
        <time>2026-08-29T08:20:49Z</time>
      </trkpt>
      <trkpt lat="43.91851" lon="1.89479">
        <ele>142.443071</ele>
        <time>2026-08-29T08:20:50Z</time>
      </trkpt>
      <trkpt lat="43.91855" lon="1.89475">
        <ele>142.490465</ele>
        <time>2026-08-29T08:20:51Z</time>
      </trkpt>
      <trkpt lat="43.91859" lon="1.89472">
        <ele>142.536624</ele>
        <time>2026-08-29T08:20:52Z</time>
      </trkpt>
      <trkpt lat="43.91863" lon="1.89469">
        <ele>142.584625</ele>
        <time>2026-08-29T08:20:53Z</time>
      </trkpt>
      <trkpt lat="43.91867" lon="1.89466">
        <ele>142.633186</ele>
        <time>2026-08-29T08:20:54Z</time>
      </trkpt>
      <trkpt lat="43.91871" lon="1.89463">
        <ele>142.683636</ele>
        <time>2026-08-29T08:20:55Z</time>
      </trkpt>
      <trkpt lat="43.91875" lon="1.8946">
        <ele>142.733139</ele>
        <time>2026-08-29T08:20:56Z</time>
      </trkpt>
      <trkpt lat="43.91879" lon="1.89457">
        <ele>142.781527</ele>
        <time>2026-08-29T08:20:57Z</time>
      </trkpt>
      <trkpt lat="43.91883" lon="1.89454">
        <ele>142.829528</ele>
        <time>2026-08-29T08:20:58Z</time>
      </trkpt>
      <trkpt lat="43.91887" lon="1.89451">
        <ele>142.877816</ele>
        <time>2026-08-29T08:20:59Z</time>
      </trkpt>
      <trkpt lat="43.91891" lon="1.89448">
        <ele>142.925647</ele>
        <time>2026-08-29T08:21:00Z</time>
      </trkpt>
      <trkpt lat="43.91895" lon="1.89445">
        <ele>142.975412</ele>
        <time>2026-08-29T08:21:01Z</time>
      </trkpt>
      <trkpt lat="43.91899" lon="1.89443">
        <ele>143.026489</ele>
        <time>2026-08-29T08:21:02Z</time>
      </trkpt>
      <trkpt lat="43.91904" lon="1.8944">
        <ele>143.076983</ele>
        <time>2026-08-29T08:21:03Z</time>
      </trkpt>
      <trkpt lat="43.91908" lon="1.89438">
        <ele>143.12895</ele>
        <time>2026-08-29T08:21:04Z</time>
      </trkpt>
      <trkpt lat="43.91913" lon="1.89436">
        <ele>143.16938</ele>
        <time>2026-08-29T08:21:05Z</time>
      </trkpt>
      <trkpt lat="43.91917" lon="1.89434">
        <ele>143.191417</ele>
        <time>2026-08-29T08:21:06Z</time>
      </trkpt>
      <trkpt lat="43.91922" lon="1.89432">
        <ele>143.21413</ele>
        <time>2026-08-29T08:21:07Z</time>
      </trkpt>
      <trkpt lat="43.91926" lon="1.8943">
        <ele>143.236281</ele>
        <time>2026-08-29T08:21:08Z</time>
      </trkpt>
      <trkpt lat="43.9193" lon="1.89427">
        <ele>143.257871</ele>
        <time>2026-08-29T08:21:09Z</time>
      </trkpt>
      <trkpt lat="43.91935" lon="1.89425">
        <ele>143.28014</ele>
        <time>2026-08-29T08:21:10Z</time>
      </trkpt>
      <trkpt lat="43.91939" lon="1.89423">
        <ele>143.302091</ele>
        <time>2026-08-29T08:21:11Z</time>
      </trkpt>
      <trkpt lat="43.91944" lon="1.89421">
        <ele>143.324241</ele>
        <time>2026-08-29T08:21:12Z</time>
      </trkpt>
      <trkpt lat="43.91948" lon="1.89418">
        <ele>143.345754</ele>
        <time>2026-08-29T08:21:13Z</time>
      </trkpt>
      <trkpt lat="43.91952" lon="1.89416">
        <ele>143.368689</ele>
        <time>2026-08-29T08:21:14Z</time>
      </trkpt>
      <trkpt lat="43.91957" lon="1.89414">
        <ele>143.389775</ele>
        <time>2026-08-29T08:21:15Z</time>
      </trkpt>
      <trkpt lat="43.91961" lon="1.89412">
        <ele>143.410806</ele>
        <time>2026-08-29T08:21:16Z</time>
      </trkpt>
      <trkpt lat="43.91965" lon="1.8941">
        <ele>143.431949</ele>
        <time>2026-08-29T08:21:17Z</time>
      </trkpt>
      <trkpt lat="43.91969" lon="1.89408">
        <ele>143.4541</ele>
        <time>2026-08-29T08:21:18Z</time>
      </trkpt>
      <trkpt lat="43.91974" lon="1.89406">
        <ele>143.47648</ele>
        <time>2026-08-29T08:21:19Z</time>
      </trkpt>
      <trkpt lat="43.91979" lon="1.89404">
        <ele>143.499415</ele>
        <time>2026-08-29T08:21:20Z</time>
      </trkpt>
      <trkpt lat="43.91983" lon="1.89402">
        <ele>143.522012</ele>
        <time>2026-08-29T08:21:21Z</time>
      </trkpt>
      <trkpt lat="43.91988" lon="1.894">
        <ele>143.545505</ele>
        <time>2026-08-29T08:21:22Z</time>
      </trkpt>
      <trkpt lat="43.91992" lon="1.89398">
        <ele>143.567991</ele>
        <time>2026-08-29T08:21:23Z</time>
      </trkpt>
      <trkpt lat="43.91997" lon="1.89396">
        <ele>143.590822</ele>
        <time>2026-08-29T08:21:24Z</time>
      </trkpt>
      <trkpt lat="43.92002" lon="1.89394">
        <ele>143.614008</ele>
        <time>2026-08-29T08:21:25Z</time>
      </trkpt>
      <trkpt lat="43.92006" lon="1.89392">
        <ele>143.637012</ele>
        <time>2026-08-29T08:21:26Z</time>
      </trkpt>
      <trkpt lat="43.92011" lon="1.8939">
        <ele>143.658837</ele>
        <time>2026-08-29T08:21:27Z</time>
      </trkpt>
      <trkpt lat="43.92015" lon="1.89388">
        <ele>143.68011</ele>
        <time>2026-08-29T08:21:28Z</time>
      </trkpt>
      <trkpt lat="43.92019" lon="1.89387">
        <ele>143.700377</ele>
        <time>2026-08-29T08:21:29Z</time>
      </trkpt>
      <trkpt lat="43.92023" lon="1.89385">
        <ele>143.721196</ele>
        <time>2026-08-29T08:21:30Z</time>
      </trkpt>
      <trkpt lat="43.92027" lon="1.89383">
        <ele>143.74234</ele>
        <time>2026-08-29T08:21:31Z</time>
      </trkpt>
      <trkpt lat="43.92031" lon="1.89381">
        <ele>143.762595</ele>
        <time>2026-08-29T08:21:32Z</time>
      </trkpt>
      <trkpt lat="43.92035" lon="1.89378">
        <ele>143.782534</ele>
        <time>2026-08-29T08:21:33Z</time>
      </trkpt>
      <trkpt lat="43.92039" lon="1.89376">
        <ele>143.802347</ele>
        <time>2026-08-29T08:21:34Z</time>
      </trkpt>
      <trkpt lat="43.92043" lon="1.89373">
        <ele>143.822061</ele>
        <time>2026-08-29T08:21:35Z</time>
      </trkpt>
      <trkpt lat="43.92047" lon="1.89371">
        <ele>143.842126</ele>
        <time>2026-08-29T08:21:36Z</time>
      </trkpt>
      <trkpt lat="43.92051" lon="1.89368">
        <ele>143.863071</ele>
        <time>2026-08-29T08:21:37Z</time>
      </trkpt>
      <trkpt lat="43.92055" lon="1.89366">
        <ele>143.885286</ele>
        <time>2026-08-29T08:21:38Z</time>
      </trkpt>
      <trkpt lat="43.92059" lon="1.89363">
        <ele>143.907366</ele>
        <time>2026-08-29T08:21:39Z</time>
      </trkpt>
      <trkpt lat="43.92064" lon="1.89361">
        <ele>143.929447</ele>
        <time>2026-08-29T08:21:40Z</time>
      </trkpt>
      <trkpt lat="43.92068" lon="1.89358">
        <ele>143.952533</ele>
        <time>2026-08-29T08:21:41Z</time>
      </trkpt>
      <trkpt lat="43.92072" lon="1.89356">
        <ele>143.974314</ele>
        <time>2026-08-29T08:21:42Z</time>
      </trkpt>
      <trkpt lat="43.92077" lon="1.89354">
        <ele>143.995793</ele>
        <time>2026-08-29T08:21:43Z</time>
      </trkpt>
      <trkpt lat="43.92081" lon="1.89351">
        <ele>144.018736</ele>
        <time>2026-08-29T08:21:44Z</time>
      </trkpt>
      <trkpt lat="43.92084" lon="1.89348">
        <ele>144.050676</ele>
        <time>2026-08-29T08:21:45Z</time>
      </trkpt>
      <trkpt lat="43.92088" lon="1.89346">
        <ele>144.084243</ele>
        <time>2026-08-29T08:21:46Z</time>
      </trkpt>
      <trkpt lat="43.92092" lon="1.89343">
        <ele>144.119662</ele>
        <time>2026-08-29T08:21:47Z</time>
      </trkpt>
      <trkpt lat="43.92097" lon="1.8934">
        <ele>144.156943</ele>
        <time>2026-08-29T08:21:48Z</time>
      </trkpt>
      <trkpt lat="43.92101" lon="1.89338">
        <ele>144.195197</ele>
        <time>2026-08-29T08:21:49Z</time>
      </trkpt>
      <trkpt lat="43.92106" lon="1.89336">
        <ele>144.231589</ele>
        <time>2026-08-29T08:21:50Z</time>
      </trkpt>
      <trkpt lat="43.9211" lon="1.89334">
        <ele>144.26708</ele>
        <time>2026-08-29T08:21:51Z</time>
      </trkpt>
      <trkpt lat="43.92115" lon="1.89332">
        <ele>144.301656</ele>
        <time>2026-08-29T08:21:52Z</time>
      </trkpt>
      <trkpt lat="43.92119" lon="1.89329">
        <ele>144.338487</ele>
        <time>2026-08-29T08:21:53Z</time>
      </trkpt>
      <trkpt lat="43.92123" lon="1.89326">
        <ele>144.374837</ele>
        <time>2026-08-29T08:21:54Z</time>
      </trkpt>
      <trkpt lat="43.92128" lon="1.89324">
        <ele>144.412379</ele>
        <time>2026-08-29T08:21:55Z</time>
      </trkpt>
      <trkpt lat="43.92132" lon="1.89321">
        <ele>144.449199</ele>
        <time>2026-08-29T08:21:56Z</time>
      </trkpt>
      <trkpt lat="43.92136" lon="1.89318">
        <ele>144.484896</ele>
        <time>2026-08-29T08:21:57Z</time>
      </trkpt>
      <trkpt lat="43.9214" lon="1.89315">
        <ele>144.520592</ele>
        <time>2026-08-29T08:21:58Z</time>
      </trkpt>
      <trkpt lat="43.92144" lon="1.89312">
        <ele>144.556722</ele>
        <time>2026-08-29T08:21:59Z</time>
      </trkpt>
      <trkpt lat="43.92149" lon="1.89309">
        <ele>144.592418</ele>
        <time>2026-08-29T08:22:00Z</time>
      </trkpt>
      <trkpt lat="43.92153" lon="1.89306">
        <ele>144.627859</ele>
        <time>2026-08-29T08:22:01Z</time>
      </trkpt>
      <trkpt lat="43.92157" lon="1.89303">
        <ele>144.66476</ele>
        <time>2026-08-29T08:22:02Z</time>
      </trkpt>
      <trkpt lat="43.92161" lon="1.893">
        <ele>144.700987</ele>
        <time>2026-08-29T08:22:03Z</time>
      </trkpt>
      <trkpt lat="43.92165" lon="1.89297">
        <ele>144.736004</ele>
        <time>2026-08-29T08:22:04Z</time>
      </trkpt>
      <trkpt lat="43.92169" lon="1.89293">
        <ele>144.772231</ele>
        <time>2026-08-29T08:22:05Z</time>
      </trkpt>
      <trkpt lat="43.92173" lon="1.8929">
        <ele>144.808069</ele>
        <time>2026-08-29T08:22:06Z</time>
      </trkpt>
      <trkpt lat="43.92177" lon="1.89287">
        <ele>144.842301</ele>
        <time>2026-08-29T08:22:07Z</time>
      </trkpt>
      <trkpt lat="43.92181" lon="1.89284">
        <ele>144.877318</ele>
        <time>2026-08-29T08:22:08Z</time>
      </trkpt>
      <trkpt lat="43.92185" lon="1.89281">
        <ele>144.91221</ele>
        <time>2026-08-29T08:22:09Z</time>
      </trkpt>
      <trkpt lat="43.92189" lon="1.89278">
        <ele>144.947494</ele>
        <time>2026-08-29T08:22:10Z</time>
      </trkpt>
      <trkpt lat="43.92193" lon="1.89275">
        <ele>144.983191</ele>
        <time>2026-08-29T08:22:11Z</time>
      </trkpt>
      <trkpt lat="43.92197" lon="1.89271">
        <ele>145.019418</ele>
        <time>2026-08-29T08:22:12Z</time>
      </trkpt>
      <trkpt lat="43.92201" lon="1.89268">
        <ele>145.054032</ele>
        <time>2026-08-29T08:22:13Z</time>
      </trkpt>
      <trkpt lat="43.92205" lon="1.89265">
        <ele>145.089501</ele>
        <time>2026-08-29T08:22:14Z</time>
      </trkpt>
      <trkpt lat="43.92209" lon="1.89261">
        <ele>145.124625</ele>
        <time>2026-08-29T08:22:15Z</time>
      </trkpt>
      <trkpt lat="43.92212" lon="1.89258">
        <ele>145.15911</ele>
        <time>2026-08-29T08:22:16Z</time>
      </trkpt>
      <trkpt lat="43.92216" lon="1.89255">
        <ele>145.194947</ele>
        <time>2026-08-29T08:22:17Z</time>
      </trkpt>
      <trkpt lat="43.9222" lon="1.89251">
        <ele>145.231175</ele>
        <time>2026-08-29T08:22:18Z</time>
      </trkpt>
      <trkpt lat="43.92224" lon="1.89248">
        <ele>145.267012</ele>
        <time>2026-08-29T08:22:19Z</time>
      </trkpt>
      <trkpt lat="43.92229" lon="1.89245">
        <ele>145.303392</ele>
        <time>2026-08-29T08:22:20Z</time>
      </trkpt>
      <trkpt lat="43.92233" lon="1.89242">
        <ele>145.340029</ele>
        <time>2026-08-29T08:22:21Z</time>
      </trkpt>
      <trkpt lat="43.92237" lon="1.89239">
        <ele>145.376812</ele>
        <time>2026-08-29T08:22:22Z</time>
      </trkpt>
      <trkpt lat="43.92241" lon="1.89235">
        <ele>145.414258</ele>
        <time>2026-08-29T08:22:23Z</time>
      </trkpt>
      <trkpt lat="43.92245" lon="1.89231">
        <ele>145.451878</ele>
        <time>2026-08-29T08:22:24Z</time>
      </trkpt>
      <trkpt lat="43.92249" lon="1.89227">
        <ele>145.48855</ele>
        <time>2026-08-29T08:22:25Z</time>
      </trkpt>
      <trkpt lat="43.92253" lon="1.89224">
        <ele>145.524289</ele>
        <time>2026-08-29T08:22:26Z</time>
      </trkpt>
      <trkpt lat="43.92257" lon="1.89219">
        <ele>145.560093</ele>
        <time>2026-08-29T08:22:27Z</time>
      </trkpt>
      <trkpt lat="43.9226" lon="1.89216">
        <ele>145.594628</ele>
        <time>2026-08-29T08:22:28Z</time>
      </trkpt>
      <trkpt lat="43.92264" lon="1.89212">
        <ele>145.627301</ele>
        <time>2026-08-29T08:22:29Z</time>
      </trkpt>
      <trkpt lat="43.92267" lon="1.89208">
        <ele>145.661176</ele>
        <time>2026-08-29T08:22:30Z</time>
      </trkpt>
      <trkpt lat="43.92271" lon="1.89204">
        <ele>145.69698</ele>
        <time>2026-08-29T08:22:31Z</time>
      </trkpt>
      <trkpt lat="43.92275" lon="1.892">
        <ele>145.732784</ele>
        <time>2026-08-29T08:22:32Z</time>
      </trkpt>
      <trkpt lat="43.92278" lon="1.89196">
        <ele>145.769519</ele>
        <time>2026-08-29T08:22:33Z</time>
      </trkpt>
      <trkpt lat="43.92282" lon="1.89192">
        <ele>145.807122</ele>
        <time>2026-08-29T08:22:34Z</time>
      </trkpt>
      <trkpt lat="43.92286" lon="1.89188">
        <ele>145.844726</ele>
        <time>2026-08-29T08:22:35Z</time>
      </trkpt>
      <trkpt lat="43.9229" lon="1.89184">
        <ele>145.880792</ele>
        <time>2026-08-29T08:22:36Z</time>
      </trkpt>
      <trkpt lat="43.92294" lon="1.89179">
        <ele>145.916008</ele>
        <time>2026-08-29T08:22:37Z</time>
      </trkpt>
      <trkpt lat="43.92297" lon="1.89175">
        <ele>145.953011</ele>
        <time>2026-08-29T08:22:38Z</time>
      </trkpt>
      <trkpt lat="43.92301" lon="1.89171">
        <ele>145.988227</ele>
        <time>2026-08-29T08:22:39Z</time>
      </trkpt>
      <trkpt lat="43.92305" lon="1.89167">
        <ele>146.023442</ele>
        <time>2026-08-29T08:22:40Z</time>
      </trkpt>
      <trkpt lat="43.92308" lon="1.89163">
        <ele>146.058315</ele>
        <time>2026-08-29T08:22:41Z</time>
      </trkpt>
      <trkpt lat="43.92312" lon="1.89158">
        <ele>146.094461</ele>
        <time>2026-08-29T08:22:42Z</time>
      </trkpt>
      <trkpt lat="43.92316" lon="1.89154">
        <ele>146.130025</ele>
        <time>2026-08-29T08:22:43Z</time>
      </trkpt>
      <trkpt lat="43.92319" lon="1.8915">
        <ele>146.165941</ele>
        <time>2026-08-29T08:22:44Z</time>
      </trkpt>
      <trkpt lat="43.92323" lon="1.89145">
        <ele>146.203715</ele>
        <time>2026-08-29T08:22:45Z</time>
      </trkpt>
      <trkpt lat="43.92327" lon="1.89141">
        <ele>146.240792</ele>
        <time>2026-08-29T08:22:46Z</time>
      </trkpt>
      <trkpt lat="43.92331" lon="1.89137">
        <ele>146.276858</ele>
        <time>2026-08-29T08:22:47Z</time>
      </trkpt>
      <trkpt lat="43.92334" lon="1.89133">
        <ele>146.312421</ele>
        <time>2026-08-29T08:22:48Z</time>
      </trkpt>
      <trkpt lat="43.92338" lon="1.89129">
        <ele>146.347294</ele>
        <time>2026-08-29T08:22:49Z</time>
      </trkpt>
      <trkpt lat="43.92341" lon="1.89125">
        <ele>146.383787</ele>
        <time>2026-08-29T08:22:50Z</time>
      </trkpt>
      <trkpt lat="43.92345" lon="1.8912">
        <ele>146.419497</ele>
        <time>2026-08-29T08:22:51Z</time>
      </trkpt>
      <trkpt lat="43.92348" lon="1.89116">
        <ele>146.454131</ele>
        <time>2026-08-29T08:22:52Z</time>
      </trkpt>
      <trkpt lat="43.92352" lon="1.89112">
        <ele>146.487624</ele>
        <time>2026-08-29T08:22:53Z</time>
      </trkpt>
      <trkpt lat="43.92355" lon="1.89108">
        <ele>146.521116</ele>
        <time>2026-08-29T08:22:54Z</time>
      </trkpt>
      <trkpt lat="43.92358" lon="1.89104">
        <ele>146.554608</ele>
        <time>2026-08-29T08:22:55Z</time>
      </trkpt>
      <trkpt lat="43.92362" lon="1.891">
        <ele>146.587913</ele>
        <time>2026-08-29T08:22:56Z</time>
      </trkpt>
      <trkpt lat="43.92365" lon="1.89096">
        <ele>146.620338</ele>
        <time>2026-08-29T08:22:57Z</time>
      </trkpt>
      <trkpt lat="43.92368" lon="1.89092">
        <ele>146.652763</ele>
        <time>2026-08-29T08:22:58Z</time>
      </trkpt>
      <trkpt lat="43.92371" lon="1.89088">
        <ele>146.684039</ele>
        <time>2026-08-29T08:22:59Z</time>
      </trkpt>
      <trkpt lat="43.92374" lon="1.89085">
        <ele>146.714258</ele>
        <time>2026-08-29T08:23:00Z</time>
      </trkpt>
      <trkpt lat="43.92377" lon="1.89082">
        <ele>146.739827</ele>
        <time>2026-08-29T08:23:01Z</time>
      </trkpt>
      <trkpt lat="43.92379" lon="1.89079">
        <ele>146.762802</ele>
        <time>2026-08-29T08:23:02Z</time>
      </trkpt>
      <trkpt lat="43.92381" lon="1.89077">
        <ele>146.776769</ele>
        <time>2026-08-29T08:23:03Z</time>
      </trkpt>
      <trkpt lat="43.92383" lon="1.89075">
        <ele>146.789711</ele>
        <time>2026-08-29T08:23:04Z</time>
      </trkpt>
      <trkpt lat="43.92385" lon="1.89073">
        <ele>146.801913</ele>
        <time>2026-08-29T08:23:05Z</time>
      </trkpt>
      <trkpt lat="43.92387" lon="1.89071">
        <ele>146.816161</ele>
        <time>2026-08-29T08:23:06Z</time>
      </trkpt>
      <trkpt lat="43.92389" lon="1.89069">
        <ele>146.833472</ele>
        <time>2026-08-29T08:23:07Z</time>
      </trkpt>
      <trkpt lat="43.92392" lon="1.89067">
        <ele>146.851811</ele>
        <time>2026-08-29T08:23:08Z</time>
      </trkpt>
      <trkpt lat="43.92395" lon="1.89064">
        <ele>146.87391</ele>
        <time>2026-08-29T08:23:09Z</time>
      </trkpt>
      <trkpt lat="43.92399" lon="1.89061">
        <ele>146.897115</ele>
        <time>2026-08-29T08:23:10Z</time>
      </trkpt>
      <trkpt lat="43.92402" lon="1.89059">
        <ele>146.920726</ele>
        <time>2026-08-29T08:23:11Z</time>
      </trkpt>
      <trkpt lat="43.92406" lon="1.89056">
        <ele>146.944252</ele>
        <time>2026-08-29T08:23:12Z</time>
      </trkpt>
      <trkpt lat="43.9241" lon="1.89053">
        <ele>146.969307</ele>
        <time>2026-08-29T08:23:13Z</time>
      </trkpt>
      <trkpt lat="43.92413" lon="1.8905">
        <ele>146.994476</ele>
        <time>2026-08-29T08:23:14Z</time>
      </trkpt>
      <trkpt lat="43.92417" lon="1.89047">
        <ele>147.02036</ele>
        <time>2026-08-29T08:23:15Z</time>
      </trkpt>
      <trkpt lat="43.92421" lon="1.89044">
        <ele>147.04454</ele>
        <time>2026-08-29T08:23:16Z</time>
      </trkpt>
      <trkpt lat="43.92424" lon="1.89041">
        <ele>147.070209</ele>
        <time>2026-08-29T08:23:17Z</time>
      </trkpt>
      <trkpt lat="43.92428" lon="1.89037">
        <ele>147.096523</ele>
        <time>2026-08-29T08:23:18Z</time>
      </trkpt>
      <trkpt lat="43.92432" lon="1.89034">
        <ele>147.124272</ele>
        <time>2026-08-29T08:23:19Z</time>
      </trkpt>
      <trkpt lat="43.92436" lon="1.8903">
        <ele>147.152265</ele>
        <time>2026-08-29T08:23:20Z</time>
      </trkpt>
      <trkpt lat="43.9244" lon="1.89026">
        <ele>147.180732</ele>
        <time>2026-08-29T08:23:21Z</time>
      </trkpt>
      <trkpt lat="43.92444" lon="1.89022">
        <ele>147.209212</ele>
        <time>2026-08-29T08:23:22Z</time>
      </trkpt>
      <trkpt lat="43.92448" lon="1.89019">
        <ele>147.236975</ele>
        <time>2026-08-29T08:23:23Z</time>
      </trkpt>
      <trkpt lat="43.92452" lon="1.89015">
        <ele>147.265228</ele>
        <time>2026-08-29T08:23:24Z</time>
      </trkpt>
      <trkpt lat="43.92456" lon="1.89011">
        <ele>147.293481</ele>
        <time>2026-08-29T08:23:25Z</time>
      </trkpt>
      <trkpt lat="43.9246" lon="1.89008">
        <ele>147.321018</ele>
        <time>2026-08-29T08:23:26Z</time>
      </trkpt>
      <trkpt lat="43.92464" lon="1.89004">
        <ele>147.348064</ele>
        <time>2026-08-29T08:23:27Z</time>
      </trkpt>
      <trkpt lat="43.92468" lon="1.89001">
        <ele>147.37511</ele>
        <time>2026-08-29T08:23:28Z</time>
      </trkpt>
      <trkpt lat="43.92472" lon="1.88998">
        <ele>147.401931</ele>
        <time>2026-08-29T08:23:29Z</time>
      </trkpt>
      <trkpt lat="43.92476" lon="1.88994">
        <ele>147.429246</ele>
        <time>2026-08-29T08:23:30Z</time>
      </trkpt>
      <trkpt lat="43.9248" lon="1.88991">
        <ele>147.456345</ele>
        <time>2026-08-29T08:23:31Z</time>
      </trkpt>
      <trkpt lat="43.92484" lon="1.88987">
        <ele>147.483661</ele>
        <time>2026-08-29T08:23:32Z</time>
      </trkpt>
      <trkpt lat="43.92488" lon="1.88984">
        <ele>147.509765</ele>
        <time>2026-08-29T08:23:33Z</time>
      </trkpt>
      <trkpt lat="43.92492" lon="1.88982">
        <ele>147.534962</ele>
        <time>2026-08-29T08:23:34Z</time>
      </trkpt>
      <trkpt lat="43.92496" lon="1.88979">
        <ele>147.55964</ele>
        <time>2026-08-29T08:23:35Z</time>
      </trkpt>
      <trkpt lat="43.92499" lon="1.88977">
        <ele>147.583854</ele>
        <time>2026-08-29T08:23:36Z</time>
      </trkpt>
      <trkpt lat="43.92504" lon="1.88976">
        <ele>147.609893</ele>
        <time>2026-08-29T08:23:37Z</time>
      </trkpt>
      <trkpt lat="43.92508" lon="1.88974">
        <ele>147.635932</ele>
        <time>2026-08-29T08:23:38Z</time>
      </trkpt>
      <trkpt lat="43.92512" lon="1.88972">
        <ele>147.661859</ele>
        <time>2026-08-29T08:23:39Z</time>
      </trkpt>
      <trkpt lat="43.92516" lon="1.88971">
        <ele>147.686353</ele>
        <time>2026-08-29T08:23:40Z</time>
      </trkpt>
      <trkpt lat="43.92521" lon="1.8897">
        <ele>147.710756</ele>
        <time>2026-08-29T08:23:41Z</time>
      </trkpt>
      <trkpt lat="43.92525" lon="1.88968">
        <ele>147.737047</ele>
        <time>2026-08-29T08:23:42Z</time>
      </trkpt>
      <trkpt lat="43.92529" lon="1.88967">
        <ele>147.763762</ele>
        <time>2026-08-29T08:23:43Z</time>
      </trkpt>
      <trkpt lat="43.92534" lon="1.88965">
        <ele>147.791946</ele>
        <time>2026-08-29T08:23:44Z</time>
      </trkpt>
      <trkpt lat="43.92539" lon="1.88963">
        <ele>147.831358</ele>
        <time>2026-08-29T08:23:45Z</time>
      </trkpt>
      <trkpt lat="43.92544" lon="1.88962">
        <ele>147.883819</ele>
        <time>2026-08-29T08:23:46Z</time>
      </trkpt>
      <trkpt lat="43.92548" lon="1.88961">
        <ele>147.935078</ele>
        <time>2026-08-29T08:23:47Z</time>
      </trkpt>
      <trkpt lat="43.92553" lon="1.88959">
        <ele>147.984241</ele>
        <time>2026-08-29T08:23:48Z</time>
      </trkpt>
      <trkpt lat="43.92557" lon="1.88958">
        <ele>148.033404</ele>
        <time>2026-08-29T08:23:49Z</time>
      </trkpt>
      <trkpt lat="43.92562" lon="1.88957">
        <ele>148.084151</ele>
        <time>2026-08-29T08:23:50Z</time>
      </trkpt>
      <trkpt lat="43.92567" lon="1.88956">
        <ele>148.135774</ele>
        <time>2026-08-29T08:23:51Z</time>
      </trkpt>
      <trkpt lat="43.92572" lon="1.88956">
        <ele>148.187581</ele>
        <time>2026-08-29T08:23:52Z</time>
      </trkpt>
      <trkpt lat="43.92576" lon="1.88955">
        <ele>148.238228</ele>
        <time>2026-08-29T08:23:53Z</time>
      </trkpt>
      <trkpt lat="43.92581" lon="1.88954">
        <ele>148.288876</ele>
        <time>2026-08-29T08:23:54Z</time>
      </trkpt>
      <trkpt lat="43.92585" lon="1.88953">
        <ele>148.336096</ele>
        <time>2026-08-29T08:23:55Z</time>
      </trkpt>
      <trkpt lat="43.92589" lon="1.88953">
        <ele>148.38001</ele>
        <time>2026-08-29T08:23:56Z</time>
      </trkpt>
      <trkpt lat="43.92594" lon="1.88953">
        <ele>148.427129</ele>
        <time>2026-08-29T08:23:57Z</time>
      </trkpt>
      <trkpt lat="43.92598" lon="1.88952">
        <ele>148.474349</ele>
        <time>2026-08-29T08:23:58Z</time>
      </trkpt>
      <trkpt lat="43.92603" lon="1.88952">
        <ele>148.523647</ele>
        <time>2026-08-29T08:23:59Z</time>
      </trkpt>
      <trkpt lat="43.92607" lon="1.88952">
        <ele>148.572945</ele>
        <time>2026-08-29T08:24:00Z</time>
      </trkpt>
      <trkpt lat="43.92612" lon="1.88951">
        <ele>148.622201</ele>
        <time>2026-08-29T08:24:01Z</time>
      </trkpt>
      <trkpt lat="43.92617" lon="1.88951">
        <ele>148.670388</ele>
        <time>2026-08-29T08:24:02Z</time>
      </trkpt>
      <trkpt lat="43.92621" lon="1.8895">
        <ele>148.720807</ele>
        <time>2026-08-29T08:24:03Z</time>
      </trkpt>
      <trkpt lat="43.92626" lon="1.8895">
        <ele>148.77224</ele>
        <time>2026-08-29T08:24:04Z</time>
      </trkpt>
      <trkpt lat="43.92631" lon="1.8895">
        <ele>148.821538</ele>
        <time>2026-08-29T08:24:05Z</time>
      </trkpt>
      <trkpt lat="43.92635" lon="1.88949">
        <ele>148.872931</ele>
        <time>2026-08-29T08:24:06Z</time>
      </trkpt>
      <trkpt lat="43.9264" lon="1.88949">
        <ele>148.923226</ele>
        <time>2026-08-29T08:24:07Z</time>
      </trkpt>
      <trkpt lat="43.92645" lon="1.88949">
        <ele>148.973591</ele>
        <time>2026-08-29T08:24:08Z</time>
      </trkpt>
      <trkpt lat="43.92649" lon="1.88949">
        <ele>149.022817</ele>
        <time>2026-08-29T08:24:09Z</time>
      </trkpt>
      <trkpt lat="43.92654" lon="1.88948">
        <ele>149.072235</ele>
        <time>2026-08-29T08:24:10Z</time>
      </trkpt>
      <trkpt lat="43.92659" lon="1.88947">
        <ele>149.122795</ele>
        <time>2026-08-29T08:24:11Z</time>
      </trkpt>
      <trkpt lat="43.92663" lon="1.88947">
        <ele>149.173354</ele>
        <time>2026-08-29T08:24:12Z</time>
      </trkpt>
      <trkpt lat="43.92668" lon="1.88946">
        <ele>149.225161</ele>
        <time>2026-08-29T08:24:13Z</time>
      </trkpt>
      <trkpt lat="43.92673" lon="1.88945">
        <ele>149.278135</ele>
        <time>2026-08-29T08:24:14Z</time>
      </trkpt>
      <trkpt lat="43.92678" lon="1.88944">
        <ele>149.334094</ele>
        <time>2026-08-29T08:24:15Z</time>
      </trkpt>
      <trkpt lat="43.92683" lon="1.88942">
        <ele>149.387603</ele>
        <time>2026-08-29T08:24:16Z</time>
      </trkpt>
      <trkpt lat="43.92688" lon="1.88941">
        <ele>149.441625</ele>
        <time>2026-08-29T08:24:17Z</time>
      </trkpt>
      <trkpt lat="43.92693" lon="1.88939">
        <ele>149.493983</ele>
        <time>2026-08-29T08:24:18Z</time>
      </trkpt>
      <trkpt lat="43.92697" lon="1.88937">
        <ele>149.546278</ele>
        <time>2026-08-29T08:24:19Z</time>
      </trkpt>
      <trkpt lat="43.92702" lon="1.88934">
        <ele>149.597128</ele>
        <time>2026-08-29T08:24:20Z</time>
      </trkpt>
      <trkpt lat="43.92706" lon="1.88932">
        <ele>149.64699</ele>
        <time>2026-08-29T08:24:21Z</time>
      </trkpt>
      <trkpt lat="43.9271" lon="1.88929">
        <ele>149.695281</ele>
        <time>2026-08-29T08:24:22Z</time>
      </trkpt>
      <trkpt lat="43.92715" lon="1.88927">
        <ele>149.773204</ele>
        <time>2026-08-29T08:24:23Z</time>
      </trkpt>
      <trkpt lat="43.92719" lon="1.88925">
        <ele>149.914185</ele>
        <time>2026-08-29T08:24:24Z</time>
      </trkpt>
      <trkpt lat="43.92723" lon="1.88922">
        <ele>150.052215</ele>
        <time>2026-08-29T08:24:25Z</time>
      </trkpt>
      <trkpt lat="43.92727" lon="1.8892">
        <ele>150.19154</ele>
        <time>2026-08-29T08:24:26Z</time>
      </trkpt>
      <trkpt lat="43.92731" lon="1.88918">
        <ele>150.331678</ele>
        <time>2026-08-29T08:24:27Z</time>
      </trkpt>
      <trkpt lat="43.92735" lon="1.88917">
        <ele>150.47053</ele>
        <time>2026-08-29T08:24:28Z</time>
      </trkpt>
      <trkpt lat="43.9274" lon="1.88915">
        <ele>150.616139</ele>
        <time>2026-08-29T08:24:29Z</time>
      </trkpt>
      <trkpt lat="43.92744" lon="1.88913">
        <ele>150.761749</ele>
        <time>2026-08-29T08:24:30Z</time>
      </trkpt>
      <trkpt lat="43.92748" lon="1.88912">
        <ele>150.905665</ele>
        <time>2026-08-29T08:24:31Z</time>
      </trkpt>
      <trkpt lat="43.92753" lon="1.8891">
        <ele>151.047594</ele>
        <time>2026-08-29T08:24:32Z</time>
      </trkpt>
      <trkpt lat="43.92757" lon="1.88909">
        <ele>151.181674</ele>
        <time>2026-08-29T08:24:33Z</time>
      </trkpt>
      <trkpt lat="43.92761" lon="1.88908">
        <ele>151.316851</ele>
        <time>2026-08-29T08:24:34Z</time>
      </trkpt>
      <trkpt lat="43.92765" lon="1.88906">
        <ele>151.448947</ele>
        <time>2026-08-29T08:24:35Z</time>
      </trkpt>
      <trkpt lat="43.92769" lon="1.88905">
        <ele>151.583557</ele>
        <time>2026-08-29T08:24:36Z</time>
      </trkpt>
      <trkpt lat="43.92773" lon="1.88903">
        <ele>151.71321</ele>
        <time>2026-08-29T08:24:37Z</time>
      </trkpt>
      <trkpt lat="43.92777" lon="1.88902">
        <ele>151.848387</ele>
        <time>2026-08-29T08:24:38Z</time>
      </trkpt>
      <trkpt lat="43.92781" lon="1.889">
        <ele>151.977408</ele>
        <time>2026-08-29T08:24:39Z</time>
      </trkpt>
      <trkpt lat="43.92785" lon="1.88899">
        <ele>152.104764</ele>
        <time>2026-08-29T08:24:40Z</time>
      </trkpt>
      <trkpt lat="43.92789" lon="1.88898">
        <ele>152.233954</ele>
        <time>2026-08-29T08:24:41Z</time>
      </trkpt>
      <trkpt lat="43.92793" lon="1.88898">
        <ele>152.355192</ele>
        <time>2026-08-29T08:24:42Z</time>
      </trkpt>
      <trkpt lat="43.92797" lon="1.88898">
        <ele>152.479531</ele>
        <time>2026-08-29T08:24:43Z</time>
      </trkpt>
      <trkpt lat="43.928" lon="1.88898">
        <ele>152.600703</ele>
        <time>2026-08-29T08:24:44Z</time>
      </trkpt>
      <trkpt lat="43.92804" lon="1.88898">
        <ele>152.725042</ele>
        <time>2026-08-29T08:24:45Z</time>
      </trkpt>
      <trkpt lat="43.92808" lon="1.88898">
        <ele>152.843562</ele>
        <time>2026-08-29T08:24:46Z</time>
      </trkpt>
      <trkpt lat="43.92812" lon="1.88898">
        <ele>152.9648</ele>
        <time>2026-08-29T08:24:47Z</time>
      </trkpt>
      <trkpt lat="43.92815" lon="1.88898">
        <ele>153.07011</ele>
        <time>2026-08-29T08:24:48Z</time>
      </trkpt>
      <trkpt lat="43.92819" lon="1.88899">
        <ele>153.19301</ele>
        <time>2026-08-29T08:24:49Z</time>
      </trkpt>
      <trkpt lat="43.92822" lon="1.889">
        <ele>153.309245</ele>
        <time>2026-08-29T08:24:50Z</time>
      </trkpt>
      <trkpt lat="43.92826" lon="1.889">
        <ele>153.433606</ele>
        <time>2026-08-29T08:24:51Z</time>
      </trkpt>
      <trkpt lat="43.9283" lon="1.889">
        <ele>153.551769</ele>
        <time>2026-08-29T08:24:52Z</time>
      </trkpt>
      <trkpt lat="43.92833" lon="1.889">
        <ele>153.657379</ele>
        <time>2026-08-29T08:24:53Z</time>
      </trkpt>
      <trkpt lat="43.92837" lon="1.88901">
        <ele>153.762614</ele>
        <time>2026-08-29T08:24:54Z</time>
      </trkpt>
      <trkpt lat="43.9284" lon="1.889">
        <ele>153.871036</ele>
        <time>2026-08-29T08:24:55Z</time>
      </trkpt>
      <trkpt lat="43.92843" lon="1.889">
        <ele>153.976346</ele>
        <time>2026-08-29T08:24:56Z</time>
      </trkpt>
      <trkpt lat="43.92847" lon="1.889">
        <ele>154.084769</ele>
        <time>2026-08-29T08:24:57Z</time>
      </trkpt>
      <trkpt lat="43.9285" lon="1.889">
        <ele>154.183629</ele>
        <time>2026-08-29T08:24:58Z</time>
      </trkpt>
      <trkpt lat="43.92853" lon="1.889">
        <ele>154.285754</ele>
        <time>2026-08-29T08:24:59Z</time>
      </trkpt>
      <trkpt lat="43.92856" lon="1.889">
        <ele>154.378666</ele>
        <time>2026-08-29T08:25:00Z</time>
      </trkpt>
      <trkpt lat="43.92859" lon="1.889">
        <ele>154.477526</ele>
        <time>2026-08-29T08:25:01Z</time>
      </trkpt>
      <trkpt lat="43.92862" lon="1.88899">
        <ele>154.577315</ele>
        <time>2026-08-29T08:25:02Z</time>
      </trkpt>
      <trkpt lat="43.92865" lon="1.88898">
        <ele>154.659655</ele>
        <time>2026-08-29T08:25:03Z</time>
      </trkpt>
      <trkpt lat="43.92867" lon="1.88897">
        <ele>154.744765</ele>
        <time>2026-08-29T08:25:04Z</time>
      </trkpt>
      <trkpt lat="43.9287" lon="1.88896">
        <ele>154.837539</ele>
        <time>2026-08-29T08:25:05Z</time>
      </trkpt>
      <trkpt lat="43.92873" lon="1.88895">
        <ele>154.926629</ele>
        <time>2026-08-29T08:25:06Z</time>
      </trkpt>
      <trkpt lat="43.92875" lon="1.88894">
        <ele>155.012643</ele>
        <time>2026-08-29T08:25:07Z</time>
      </trkpt>
      <trkpt lat="43.92878" lon="1.88892">
        <ele>155.092708</ele>
        <time>2026-08-29T08:25:08Z</time>
      </trkpt>
      <trkpt lat="43.9288" lon="1.88891">
        <ele>155.177818</ele>
        <time>2026-08-29T08:25:09Z</time>
      </trkpt>
      <trkpt lat="43.92882" lon="1.8889">
        <ele>155.256152</ele>
        <time>2026-08-29T08:25:10Z</time>
      </trkpt>
      <trkpt lat="43.92884" lon="1.88888">
        <ele>155.331444</ele>
        <time>2026-08-29T08:25:11Z</time>
      </trkpt>
      <trkpt lat="43.92887" lon="1.88887">
        <ele>155.410614</ele>
        <time>2026-08-29T08:25:12Z</time>
      </trkpt>
      <trkpt lat="43.92889" lon="1.88886">
        <ele>155.481628</ele>
        <time>2026-08-29T08:25:13Z</time>
      </trkpt>
      <trkpt lat="43.9289" lon="1.88884">
        <ele>155.547028</ele>
        <time>2026-08-29T08:25:14Z</time>
      </trkpt>
      <trkpt lat="43.92892" lon="1.88884">
        <ele>155.607229</ele>
        <time>2026-08-29T08:25:15Z</time>
      </trkpt>
      <trkpt lat="43.92894" lon="1.88883">
        <ele>155.665287</ele>
        <time>2026-08-29T08:25:16Z</time>
      </trkpt>
      <trkpt lat="43.92895" lon="1.88882">
        <ele>155.723327</ele>
        <time>2026-08-29T08:25:17Z</time>
      </trkpt>
      <trkpt lat="43.92897" lon="1.88881">
        <ele>155.78272</ele>
        <time>2026-08-29T08:25:18Z</time>
      </trkpt>
      <trkpt lat="43.92899" lon="1.8888">
        <ele>155.849146</ele>
        <time>2026-08-29T08:25:19Z</time>
      </trkpt>
      <trkpt lat="43.92901" lon="1.88879">
        <ele>155.916379</ele>
        <time>2026-08-29T08:25:20Z</time>
      </trkpt>
      <trkpt lat="43.92903" lon="1.88878">
        <ele>155.99459</ele>
        <time>2026-08-29T08:25:21Z</time>
      </trkpt>
      <trkpt lat="43.92905" lon="1.88877">
        <ele>156.06973</ele>
        <time>2026-08-29T08:25:22Z</time>
      </trkpt>
      <trkpt lat="43.92907" lon="1.88876">
        <ele>156.143996</ele>
        <time>2026-08-29T08:25:23Z</time>
      </trkpt>
      <trkpt lat="43.92909" lon="1.88875">
        <ele>156.216088</ele>
        <time>2026-08-29T08:25:24Z</time>
      </trkpt>
      <trkpt lat="43.92911" lon="1.88874">
        <ele>156.284957</ele>
        <time>2026-08-29T08:25:25Z</time>
      </trkpt>
      <trkpt lat="43.92914" lon="1.88873">
        <ele>156.362327</ele>
        <time>2026-08-29T08:25:26Z</time>
      </trkpt>
      <trkpt lat="43.92916" lon="1.88871">
        <ele>156.437468</ele>
        <time>2026-08-29T08:25:27Z</time>
      </trkpt>
      <trkpt lat="43.92918" lon="1.8887">
        <ele>156.517544</ele>
        <time>2026-08-29T08:25:28Z</time>
      </trkpt>
      <trkpt lat="43.9292" lon="1.88869">
        <ele>156.598642</ele>
        <time>2026-08-29T08:25:29Z</time>
      </trkpt>
      <trkpt lat="43.92922" lon="1.88867">
        <ele>156.673782</ele>
        <time>2026-08-29T08:25:30Z</time>
      </trkpt>
      <trkpt lat="43.92925" lon="1.88866">
        <ele>156.759918</ele>
        <time>2026-08-29T08:25:31Z</time>
      </trkpt>
      <trkpt lat="43.92927" lon="1.88864">
        <ele>156.839178</ele>
        <time>2026-08-29T08:25:32Z</time>
      </trkpt>
      <trkpt lat="43.92929" lon="1.88863">
        <ele>156.918291</ele>
        <time>2026-08-29T08:25:33Z</time>
      </trkpt>
      <trkpt lat="43.92931" lon="1.88861">
        <ele>157.003412</ele>
        <time>2026-08-29T08:25:34Z</time>
      </trkpt>
      <trkpt lat="43.92934" lon="1.8886">
        <ele>157.097714</ele>
        <time>2026-08-29T08:25:35Z</time>
      </trkpt>
      <trkpt lat="43.92936" lon="1.88858">
        <ele>157.190331</ele>
        <time>2026-08-29T08:25:36Z</time>
      </trkpt>
      <trkpt lat="43.92939" lon="1.88856">
        <ele>157.288681</ele>
        <time>2026-08-29T08:25:37Z</time>
      </trkpt>
      <trkpt lat="43.92941" lon="1.88854">
        <ele>157.38415</ele>
        <time>2026-08-29T08:25:38Z</time>
      </trkpt>
      <trkpt lat="43.92944" lon="1.88852">
        <ele>157.479242</ele>
        <time>2026-08-29T08:25:39Z</time>
      </trkpt>
      <trkpt lat="43.92946" lon="1.8885">
        <ele>157.573343</ele>
        <time>2026-08-29T08:25:40Z</time>
      </trkpt>
      <trkpt lat="43.92949" lon="1.88849">
        <ele>157.671438</ele>
        <time>2026-08-29T08:25:41Z</time>
      </trkpt>
      <trkpt lat="43.92952" lon="1.88847">
        <ele>157.773534</ele>
        <time>2026-08-29T08:25:42Z</time>
      </trkpt>
      <trkpt lat="43.92955" lon="1.88845">
        <ele>157.879637</ele>
        <time>2026-08-29T08:25:43Z</time>
      </trkpt>
      <trkpt lat="43.92958" lon="1.88843">
        <ele>157.986851</ele>
        <time>2026-08-29T08:25:44Z</time>
      </trkpt>
      <trkpt lat="43.92961" lon="1.88841">
        <ele>158.094989</ele>
        <time>2026-08-29T08:25:45Z</time>
      </trkpt>
      <trkpt lat="43.92964" lon="1.88839">
        <ele>158.201091</ele>
        <time>2026-08-29T08:25:46Z</time>
      </trkpt>
      <trkpt lat="43.92967" lon="1.88837">
        <ele>158.315222</ele>
        <time>2026-08-29T08:25:47Z</time>
      </trkpt>
      <trkpt lat="43.9297" lon="1.88835">
        <ele>158.427346</ele>
        <time>2026-08-29T08:25:48Z</time>
      </trkpt>
      <trkpt lat="43.92973" lon="1.88834">
        <ele>158.538528</ele>
        <time>2026-08-29T08:25:49Z</time>
      </trkpt>
      <trkpt lat="43.92976" lon="1.88832">
        <ele>158.647632</ele>
        <time>2026-08-29T08:25:50Z</time>
      </trkpt>
      <trkpt lat="43.92979" lon="1.8883">
        <ele>158.75182</ele>
        <time>2026-08-29T08:25:51Z</time>
      </trkpt>
      <trkpt lat="43.92982" lon="1.88828">
        <ele>158.860925</ele>
        <time>2026-08-29T08:25:52Z</time>
      </trkpt>
      <trkpt lat="43.92985" lon="1.88826">
        <ele>158.984054</ele>
        <time>2026-08-29T08:25:53Z</time>
      </trkpt>
      <trkpt lat="43.92989" lon="1.88824">
        <ele>159.105325</ele>
        <time>2026-08-29T08:25:54Z</time>
      </trkpt>
      <trkpt lat="43.92992" lon="1.88822">
        <ele>159.226595</ele>
        <time>2026-08-29T08:25:55Z</time>
      </trkpt>
      <trkpt lat="43.92995" lon="1.8882">
        <ele>159.345382</ele>
        <time>2026-08-29T08:25:56Z</time>
      </trkpt>
      <trkpt lat="43.92999" lon="1.88819">
        <ele>159.457922</ele>
        <time>2026-08-29T08:25:57Z</time>
      </trkpt>
      <trkpt lat="43.93002" lon="1.88817">
        <ele>159.569104</ele>
        <time>2026-08-29T08:25:58Z</time>
      </trkpt>
      <trkpt lat="43.93005" lon="1.88815">
        <ele>159.683346</ele>
        <time>2026-08-29T08:25:59Z</time>
      </trkpt>
      <trkpt lat="43.93008" lon="1.88813">
        <ele>159.804616</ele>
        <time>2026-08-29T08:26:00Z</time>
      </trkpt>
      <trkpt lat="43.93012" lon="1.88812">
        <ele>159.919511</ele>
        <time>2026-08-29T08:26:01Z</time>
      </trkpt>
      <trkpt lat="43.93015" lon="1.8881">
        <ele>160.035168</ele>
        <time>2026-08-29T08:26:02Z</time>
      </trkpt>
      <trkpt lat="43.93018" lon="1.88809">
        <ele>160.149344</ele>
        <time>2026-08-29T08:26:03Z</time>
      </trkpt>
      <trkpt lat="43.93021" lon="1.88807">
        <ele>160.264238</ele>
        <time>2026-08-29T08:26:04Z</time>
      </trkpt>
      <trkpt lat="43.93025" lon="1.88806">
        <ele>160.377113</ele>
        <time>2026-08-29T08:26:05Z</time>
      </trkpt>
      <trkpt lat="43.93028" lon="1.88805">
        <ele>160.495156</ele>
        <time>2026-08-29T08:26:06Z</time>
      </trkpt>
      <trkpt lat="43.93031" lon="1.88803">
        <ele>160.611622</ele>
        <time>2026-08-29T08:26:07Z</time>
      </trkpt>
      <trkpt lat="43.93035" lon="1.88801">
        <ele>160.734313</ele>
        <time>2026-08-29T08:26:08Z</time>
      </trkpt>
      <trkpt lat="43.93038" lon="1.888">
        <ele>160.854832</ele>
        <time>2026-08-29T08:26:09Z</time>
      </trkpt>
      <trkpt lat="43.93042" lon="1.88798">
        <ele>160.97049</ele>
        <time>2026-08-29T08:26:10Z</time>
      </trkpt>
      <trkpt lat="43.93045" lon="1.88796">
        <ele>161.089631</ele>
        <time>2026-08-29T08:26:11Z</time>
      </trkpt>
      <trkpt lat="43.93048" lon="1.88794">
        <ele>161.200797</ele>
        <time>2026-08-29T08:26:12Z</time>
      </trkpt>
      <trkpt lat="43.93051" lon="1.88792">
        <ele>161.314928</ele>
        <time>2026-08-29T08:26:13Z</time>
      </trkpt>
      <trkpt lat="43.93054" lon="1.8879">
        <ele>161.414176</ele>
        <time>2026-08-29T08:26:14Z</time>
      </trkpt>
      <trkpt lat="43.93057" lon="1.88788">
        <ele>161.394643</ele>
        <time>2026-08-29T08:26:15Z</time>
      </trkpt>
      <trkpt lat="43.93059" lon="1.88786">
        <ele>161.37395</ele>
        <time>2026-08-29T08:26:16Z</time>
      </trkpt>
      <trkpt lat="43.93062" lon="1.88784">
        <ele>161.35149</ele>
        <time>2026-08-29T08:26:17Z</time>
      </trkpt>
      <trkpt lat="43.93065" lon="1.88781">
        <ele>161.327958</ele>
        <time>2026-08-29T08:26:18Z</time>
      </trkpt>
      <trkpt lat="43.93068" lon="1.88779">
        <ele>161.305847</ele>
        <time>2026-08-29T08:26:19Z</time>
      </trkpt>
      <trkpt lat="43.93071" lon="1.88777">
        <ele>161.283482</ele>
        <time>2026-08-29T08:26:20Z</time>
      </trkpt>
      <trkpt lat="43.93073" lon="1.88774">
        <ele>161.262825</ele>
        <time>2026-08-29T08:26:21Z</time>
      </trkpt>
      <trkpt lat="43.93076" lon="1.88771">
        <ele>161.240759</ele>
        <time>2026-08-29T08:26:22Z</time>
      </trkpt>
      <trkpt lat="43.93079" lon="1.88769">
        <ele>161.216752</ele>
        <time>2026-08-29T08:26:23Z</time>
      </trkpt>
      <trkpt lat="43.93082" lon="1.88766">
        <ele>161.193249</ele>
        <time>2026-08-29T08:26:24Z</time>
      </trkpt>
      <trkpt lat="43.93084" lon="1.88763">
        <ele>161.169508</ele>
        <time>2026-08-29T08:26:25Z</time>
      </trkpt>
      <trkpt lat="43.93087" lon="1.8876">
        <ele>161.146046</ele>
        <time>2026-08-29T08:26:26Z</time>
      </trkpt>
      <trkpt lat="43.9309" lon="1.88758">
        <ele>161.122515</ele>
        <time>2026-08-29T08:26:27Z</time>
      </trkpt>
      <trkpt lat="43.93093" lon="1.88755">
        <ele>161.09767</ele>
        <time>2026-08-29T08:26:28Z</time>
      </trkpt>
      <trkpt lat="43.93096" lon="1.88752">
        <ele>161.074561</ele>
        <time>2026-08-29T08:26:29Z</time>
      </trkpt>
      <trkpt lat="43.93099" lon="1.88749">
        <ele>161.050222</ele>
        <time>2026-08-29T08:26:30Z</time>
      </trkpt>
      <trkpt lat="43.93101" lon="1.88746">
        <ele>161.027022</ele>
        <time>2026-08-29T08:26:31Z</time>
      </trkpt>
      <trkpt lat="43.93104" lon="1.88743">
        <ele>161.002443</ele>
        <time>2026-08-29T08:26:32Z</time>
      </trkpt>
      <trkpt lat="43.93107" lon="1.88739">
        <ele>160.974141</ele>
        <time>2026-08-29T08:26:33Z</time>
      </trkpt>
      <trkpt lat="43.93111" lon="1.88735">
        <ele>160.945374</ele>
        <time>2026-08-29T08:26:34Z</time>
      </trkpt>
      <trkpt lat="43.93114" lon="1.88732">
        <ele>160.916852</ele>
        <time>2026-08-29T08:26:35Z</time>
      </trkpt>
      <trkpt lat="43.93117" lon="1.88728">
        <ele>160.88809</ele>
        <time>2026-08-29T08:26:36Z</time>
      </trkpt>
      <trkpt lat="43.9312" lon="1.88724">
        <ele>160.860818</ele>
        <time>2026-08-29T08:26:37Z</time>
      </trkpt>
      <trkpt lat="43.93123" lon="1.8872">
        <ele>160.834547</ele>
        <time>2026-08-29T08:26:38Z</time>
      </trkpt>
      <trkpt lat="43.93125" lon="1.88717">
        <ele>160.808991</ele>
        <time>2026-08-29T08:26:39Z</time>
      </trkpt>
      <trkpt lat="43.93128" lon="1.88713">
        <ele>160.784717</ele>
        <time>2026-08-29T08:26:40Z</time>
      </trkpt>
      <trkpt lat="43.93131" lon="1.8871">
        <ele>160.760933</ele>
        <time>2026-08-29T08:26:41Z</time>
      </trkpt>
      <trkpt lat="43.93133" lon="1.88706">
        <ele>160.732919</ele>
        <time>2026-08-29T08:26:42Z</time>
      </trkpt>
      <trkpt lat="43.93136" lon="1.88702">
        <ele>160.70644</ele>
        <time>2026-08-29T08:26:43Z</time>
      </trkpt>
      <trkpt lat="43.93139" lon="1.88698">
        <ele>160.680784</ele>
        <time>2026-08-29T08:26:44Z</time>
      </trkpt>
      <trkpt lat="43.93141" lon="1.88694">
        <ele>160.653227</ele>
        <time>2026-08-29T08:26:45Z</time>
      </trkpt>
      <trkpt lat="43.93144" lon="1.88689">
        <ele>160.62357</ele>
        <time>2026-08-29T08:26:46Z</time>
      </trkpt>
      <trkpt lat="43.93148" lon="1.88685">
        <ele>160.594306</ele>
        <time>2026-08-29T08:26:47Z</time>
      </trkpt>
      <trkpt lat="43.93151" lon="1.88681">
        <ele>160.566707</ele>
        <time>2026-08-29T08:26:48Z</time>
      </trkpt>
      <trkpt lat="43.93153" lon="1.88677">
        <ele>160.538926</ele>
        <time>2026-08-29T08:26:49Z</time>
      </trkpt>
      <trkpt lat="43.93156" lon="1.88674">
        <ele>160.513622</ele>
        <time>2026-08-29T08:26:50Z</time>
      </trkpt>
      <trkpt lat="43.93158" lon="1.8867">
        <ele>160.489699</ele>
        <time>2026-08-29T08:26:51Z</time>
      </trkpt>
      <trkpt lat="43.93161" lon="1.88666">
        <ele>160.463481</ele>
        <time>2026-08-29T08:26:52Z</time>
      </trkpt>
      <trkpt lat="43.93163" lon="1.88662">
        <ele>160.437925</ele>
        <time>2026-08-29T08:26:53Z</time>
      </trkpt>
      <trkpt lat="43.93166" lon="1.88658">
        <ele>160.411446</ele>
        <time>2026-08-29T08:26:54Z</time>
      </trkpt>
      <trkpt lat="43.93168" lon="1.88654">
        <ele>160.384337</ele>
        <time>2026-08-29T08:26:55Z</time>
      </trkpt>
      <trkpt lat="43.93172" lon="1.8865">
        <ele>160.355906</ele>
        <time>2026-08-29T08:26:56Z</time>
      </trkpt>
      <trkpt lat="43.93174" lon="1.88645">
        <ele>160.326349</ele>
        <time>2026-08-29T08:26:57Z</time>
      </trkpt>
      <trkpt lat="43.93177" lon="1.88641">
        <ele>160.295973</ele>
        <time>2026-08-29T08:26:58Z</time>
      </trkpt>
      <trkpt lat="43.93181" lon="1.88636">
        <ele>160.263553</ele>
        <time>2026-08-29T08:26:59Z</time>
      </trkpt>
      <trkpt lat="43.93184" lon="1.88632">
        <ele>160.231424</ele>
        <time>2026-08-29T08:27:00Z</time>
      </trkpt>
      <trkpt lat="43.93188" lon="1.88626">
        <ele>160.195764</ele>
        <time>2026-08-29T08:27:01Z</time>
      </trkpt>
      <trkpt lat="43.93191" lon="1.88621">
        <ele>160.144375</ele>
        <time>2026-08-29T08:27:02Z</time>
      </trkpt>
      <trkpt lat="43.93195" lon="1.88617">
        <ele>160.096352</ele>
        <time>2026-08-29T08:27:03Z</time>
      </trkpt>
      <trkpt lat="43.93198" lon="1.88612">
        <ele>160.044222</ele>
        <time>2026-08-29T08:27:04Z</time>
      </trkpt>
      <trkpt lat="43.93202" lon="1.88608">
        <ele>159.992286</ele>
        <time>2026-08-29T08:27:05Z</time>
      </trkpt>
      <trkpt lat="43.93206" lon="1.88603">
        <ele>159.940156</ele>
        <time>2026-08-29T08:27:06Z</time>
      </trkpt>
      <trkpt lat="43.93209" lon="1.88599">
        <ele>159.887986</ele>
        <time>2026-08-29T08:27:07Z</time>
      </trkpt>
      <trkpt lat="43.93213" lon="1.88594">
        <ele>159.839436</ele>
        <time>2026-08-29T08:27:08Z</time>
      </trkpt>
      <trkpt lat="43.93216" lon="1.88589">
        <ele>159.787306</ele>
        <time>2026-08-29T08:27:09Z</time>
      </trkpt>
      <trkpt lat="43.9322" lon="1.88585">
        <ele>159.737253</ele>
        <time>2026-08-29T08:27:10Z</time>
      </trkpt>
      <trkpt lat="43.93224" lon="1.88581">
        <ele>159.685906</ele>
        <time>2026-08-29T08:27:11Z</time>
      </trkpt>
      <trkpt lat="43.93229" lon="1.88578">
        <ele>159.631558</ele>
        <time>2026-08-29T08:27:12Z</time>
      </trkpt>
      <trkpt lat="43.93234" lon="1.88575">
        <ele>159.57599</ele>
        <time>2026-08-29T08:27:13Z</time>
      </trkpt>
      <trkpt lat="43.93238" lon="1.88573">
        <ele>159.527621</ele>
        <time>2026-08-29T08:27:14Z</time>
      </trkpt>
      <trkpt lat="43.93242" lon="1.88571">
        <ele>159.481015</ele>
        <time>2026-08-29T08:27:15Z</time>
      </trkpt>
      <trkpt lat="43.93247" lon="1.8857">
        <ele>159.433178</ele>
        <time>2026-08-29T08:27:16Z</time>
      </trkpt>
      <trkpt lat="43.93251" lon="1.88569">
        <ele>159.38669</ele>
        <time>2026-08-29T08:27:17Z</time>
      </trkpt>
      <trkpt lat="43.93255" lon="1.88568">
        <ele>159.338854</ele>
        <time>2026-08-29T08:27:18Z</time>
      </trkpt>
      <trkpt lat="43.9326" lon="1.88567">
        <ele>159.289236</ele>
        <time>2026-08-29T08:27:19Z</time>
      </trkpt>
      <trkpt lat="43.93264" lon="1.88567">
        <ele>159.245046</ele>
        <time>2026-08-29T08:27:20Z</time>
      </trkpt>
      <trkpt lat="43.93268" lon="1.88567">
        <ele>159.20195</ele>
        <time>2026-08-29T08:27:21Z</time>
      </trkpt>
      <trkpt lat="43.93273" lon="1.88567">
        <ele>159.158913</ele>
        <time>2026-08-29T08:27:22Z</time>
      </trkpt>
      <trkpt lat="43.93277" lon="1.88567">
        <ele>159.115711</ele>
        <time>2026-08-29T08:27:23Z</time>
      </trkpt>
      <trkpt lat="43.93281" lon="1.88568">
        <ele>159.073176</ele>
        <time>2026-08-29T08:27:24Z</time>
      </trkpt>
      <trkpt lat="43.93285" lon="1.8857">
        <ele>159.02533</ele>
        <time>2026-08-29T08:27:25Z</time>
      </trkpt>
      <trkpt lat="43.93289" lon="1.88573">
        <ele>158.977032</ele>
        <time>2026-08-29T08:27:26Z</time>
      </trkpt>
      <trkpt lat="43.93293" lon="1.88577">
        <ele>158.928315</ele>
        <time>2026-08-29T08:27:27Z</time>
      </trkpt>
      <trkpt lat="43.93296" lon="1.8858">
        <ele>158.882141</ele>
        <time>2026-08-29T08:27:28Z</time>
      </trkpt>
      <trkpt lat="43.93299" lon="1.88584">
        <ele>158.839974</ele>
        <time>2026-08-29T08:27:29Z</time>
      </trkpt>
      <trkpt lat="43.93302" lon="1.88589">
        <ele>158.789524</ele>
        <time>2026-08-29T08:27:30Z</time>
      </trkpt>
      <trkpt lat="43.93305" lon="1.88594">
        <ele>158.744569</ele>
        <time>2026-08-29T08:27:31Z</time>
      </trkpt>
      <trkpt lat="43.93308" lon="1.88598">
        <ele>158.699689</ele>
        <time>2026-08-29T08:27:32Z</time>
      </trkpt>
      <trkpt lat="43.93312" lon="1.886">
        <ele>158.655458</ele>
        <time>2026-08-29T08:27:33Z</time>
      </trkpt>
      <trkpt lat="43.93316" lon="1.88603">
        <ele>158.609715</ele>
        <time>2026-08-29T08:27:34Z</time>
      </trkpt>
      <trkpt lat="43.9332" lon="1.88605">
        <ele>158.563844</ele>
        <time>2026-08-29T08:27:35Z</time>
      </trkpt>
      <trkpt lat="43.93324" lon="1.88607">
        <ele>158.525084</ele>
        <time>2026-08-29T08:27:36Z</time>
      </trkpt>
      <trkpt lat="43.93327" lon="1.88609">
        <ele>158.484407</ele>
        <time>2026-08-29T08:27:37Z</time>
      </trkpt>
      <trkpt lat="43.93331" lon="1.8861">
        <ele>158.445485</ele>
        <time>2026-08-29T08:27:38Z</time>
      </trkpt>
      <trkpt lat="43.93334" lon="1.88612">
        <ele>158.404333</ele>
        <time>2026-08-29T08:27:39Z</time>
      </trkpt>
      <trkpt lat="43.93338" lon="1.88614">
        <ele>158.364605</ele>
        <time>2026-08-29T08:27:40Z</time>
      </trkpt>
      <trkpt lat="43.93341" lon="1.88616">
        <ele>158.325159</ele>
        <time>2026-08-29T08:27:41Z</time>
      </trkpt>
      <trkpt lat="43.93345" lon="1.88618">
        <ele>158.363911</ele>
        <time>2026-08-29T08:27:42Z</time>
      </trkpt>
      <trkpt lat="43.93348" lon="1.8862">
        <ele>158.480661</ele>
        <time>2026-08-29T08:27:43Z</time>
      </trkpt>
      <trkpt lat="43.93352" lon="1.88621">
        <ele>158.595923</ele>
        <time>2026-08-29T08:27:44Z</time>
      </trkpt>
      <trkpt lat="43.93355" lon="1.88623">
        <ele>158.708218</ele>
        <time>2026-08-29T08:27:45Z</time>
      </trkpt>
      <trkpt lat="43.93359" lon="1.88624">
        <ele>158.829439</ele>
        <time>2026-08-29T08:27:46Z</time>
      </trkpt>
      <trkpt lat="43.93362" lon="1.88626">
        <ele>158.933733</ele>
        <time>2026-08-29T08:27:47Z</time>
      </trkpt>
      <trkpt lat="43.93365" lon="1.88627">
        <ele>159.029056</ele>
        <time>2026-08-29T08:27:48Z</time>
      </trkpt>
      <trkpt lat="43.93368" lon="1.88628">
        <ele>159.112561</ele>
        <time>2026-08-29T08:27:49Z</time>
      </trkpt>
      <trkpt lat="43.9337" lon="1.8863">
        <ele>159.185428</ele>
        <time>2026-08-29T08:27:50Z</time>
      </trkpt>
      <trkpt lat="43.93371" lon="1.8863">
        <ele>159.212026</ele>
        <time>2026-08-29T08:27:51Z</time>
      </trkpt>
      <trkpt lat="43.93371" lon="1.8863">
        <ele>159.230076</ele>
        <time>2026-08-29T08:27:52Z</time>
      </trkpt>
      <trkpt lat="43.93371" lon="1.8863">
        <ele>159.23946</ele>
        <time>2026-08-29T08:27:53Z</time>
      </trkpt>
      <trkpt lat="43.93375" lon="1.88627">
        <ele>159.386163</ele>
        <time>2026-08-29T08:28:22Z</time>
      </trkpt>
      <trkpt lat="43.93377" lon="1.88626">
        <ele>159.434992</ele>
        <time>2026-08-29T08:28:23Z</time>
      </trkpt>
      <trkpt lat="43.93379" lon="1.88627">
        <ele>159.490457</ele>
        <time>2026-08-29T08:28:24Z</time>
      </trkpt>
      <trkpt lat="43.93381" lon="1.88628">
        <ele>159.562965</ele>
        <time>2026-08-29T08:28:25Z</time>
      </trkpt>
      <trkpt lat="43.93383" lon="1.88628">
        <ele>159.641684</ele>
        <time>2026-08-29T08:28:26Z</time>
      </trkpt>
      <trkpt lat="43.93386" lon="1.88628">
        <ele>159.723013</ele>
        <time>2026-08-29T08:28:27Z</time>
      </trkpt>
      <trkpt lat="43.93389" lon="1.88628">
        <ele>159.80795</ele>
        <time>2026-08-29T08:28:28Z</time>
      </trkpt>
      <trkpt lat="43.93391" lon="1.88627">
        <ele>159.895998</ele>
        <time>2026-08-29T08:28:29Z</time>
      </trkpt>
      <trkpt lat="43.93394" lon="1.88626">
        <ele>159.973204</ele>
        <time>2026-08-29T08:28:30Z</time>
      </trkpt>
      <trkpt lat="43.93396" lon="1.88626">
        <ele>160.055649</ele>
        <time>2026-08-29T08:28:31Z</time>
      </trkpt>
      <trkpt lat="43.93399" lon="1.88625">
        <ele>160.135901</ele>
        <time>2026-08-29T08:28:32Z</time>
      </trkpt>
      <trkpt lat="43.93402" lon="1.88624">
        <ele>160.223918</ele>
        <time>2026-08-29T08:28:33Z</time>
      </trkpt>
      <trkpt lat="43.93404" lon="1.88623">
        <ele>160.310775</ele>
        <time>2026-08-29T08:28:34Z</time>
      </trkpt>
      <trkpt lat="43.93407" lon="1.88622">
        <ele>160.409842</ele>
        <time>2026-08-29T08:28:35Z</time>
      </trkpt>
      <trkpt lat="43.93411" lon="1.88621">
        <ele>160.508908</ele>
        <time>2026-08-29T08:28:36Z</time>
      </trkpt>
      <trkpt lat="43.93414" lon="1.8862">
        <ele>160.610615</ele>
        <time>2026-08-29T08:28:37Z</time>
      </trkpt>
      <trkpt lat="43.93417" lon="1.8862">
        <ele>160.705131</ele>
        <time>2026-08-29T08:28:38Z</time>
      </trkpt>
      <trkpt lat="43.9342" lon="1.8862">
        <ele>160.802205</ele>
        <time>2026-08-29T08:28:39Z</time>
      </trkpt>
      <trkpt lat="43.93423" lon="1.8862">
        <ele>160.896047</ele>
        <time>2026-08-29T08:28:40Z</time>
      </trkpt>
      <trkpt lat="43.93426" lon="1.88619">
        <ele>160.990321</ele>
        <time>2026-08-29T08:28:41Z</time>
      </trkpt>
      <trkpt lat="43.93429" lon="1.88618">
        <ele>161.077731</ele>
        <time>2026-08-29T08:28:42Z</time>
      </trkpt>
      <trkpt lat="43.93431" lon="1.88617">
        <ele>161.167121</ele>
        <time>2026-08-29T08:28:43Z</time>
      </trkpt>
      <trkpt lat="43.93434" lon="1.88616">
        <ele>161.264179</ele>
        <time>2026-08-29T08:28:44Z</time>
      </trkpt>
      <trkpt lat="43.93437" lon="1.88615">
        <ele>161.365475</ele>
        <time>2026-08-29T08:28:45Z</time>
      </trkpt>
      <trkpt lat="43.93441" lon="1.88613">
        <ele>161.472181</ele>
        <time>2026-08-29T08:28:46Z</time>
      </trkpt>
      <trkpt lat="43.93444" lon="1.88612">
        <ele>161.566837</ele>
        <time>2026-08-29T08:28:47Z</time>
      </trkpt>
      <trkpt lat="43.93447" lon="1.88611">
        <ele>161.662844</ele>
        <time>2026-08-29T08:28:48Z</time>
      </trkpt>
      <trkpt lat="43.93449" lon="1.8861">
        <ele>161.752745</ele>
        <time>2026-08-29T08:28:49Z</time>
      </trkpt>
      <trkpt lat="43.93452" lon="1.88609">
        <ele>161.838853</ele>
        <time>2026-08-29T08:28:50Z</time>
      </trkpt>
      <trkpt lat="43.93454" lon="1.88607">
        <ele>161.919802</ele>
        <time>2026-08-29T08:28:51Z</time>
      </trkpt>
      <trkpt lat="43.93456" lon="1.88605">
        <ele>162.00469</ele>
        <time>2026-08-29T08:28:52Z</time>
      </trkpt>
      <trkpt lat="43.93458" lon="1.88603">
        <ele>162.08049</ele>
        <time>2026-08-29T08:28:53Z</time>
      </trkpt>
      <trkpt lat="43.9346" lon="1.88601">
        <ele>162.158923</ele>
        <time>2026-08-29T08:28:54Z</time>
      </trkpt>
      <trkpt lat="43.93462" lon="1.88598">
        <ele>162.244621</ele>
        <time>2026-08-29T08:28:55Z</time>
      </trkpt>
      <trkpt lat="43.93465" lon="1.88595">
        <ele>162.339837</ele>
        <time>2026-08-29T08:28:56Z</time>
      </trkpt>
      <trkpt lat="43.93467" lon="1.88593">
        <ele>162.428497</ele>
        <time>2026-08-29T08:28:57Z</time>
      </trkpt>
      <trkpt lat="43.93469" lon="1.8859">
        <ele>162.522741</ele>
        <time>2026-08-29T08:28:58Z</time>
      </trkpt>
      <trkpt lat="43.93471" lon="1.88587">
        <ele>162.606974</ele>
        <time>2026-08-29T08:28:59Z</time>
      </trkpt>
      <trkpt lat="43.93472" lon="1.88584">
        <ele>162.687404</ele>
        <time>2026-08-29T08:29:00Z</time>
      </trkpt>
      <trkpt lat="43.93474" lon="1.88581">
        <ele>162.766051</ele>
        <time>2026-08-29T08:29:01Z</time>
      </trkpt>
      <trkpt lat="43.93475" lon="1.88578">
        <ele>162.850144</ele>
        <time>2026-08-29T08:29:02Z</time>
      </trkpt>
      <trkpt lat="43.93477" lon="1.88576">
        <ele>162.923817</ele>
        <time>2026-08-29T08:29:03Z</time>
      </trkpt>
      <trkpt lat="43.93478" lon="1.88573">
        <ele>162.999159</ele>
        <time>2026-08-29T08:29:04Z</time>
      </trkpt>
      <trkpt lat="43.93479" lon="1.8857">
        <ele>163.078029</ele>
        <time>2026-08-29T08:29:05Z</time>
      </trkpt>
      <trkpt lat="43.93481" lon="1.88567">
        <ele>163.153371</ele>
        <time>2026-08-29T08:29:06Z</time>
      </trkpt>
      <trkpt lat="43.93482" lon="1.88565">
        <ele>163.228417</ele>
        <time>2026-08-29T08:29:07Z</time>
      </trkpt>
      <trkpt lat="43.93484" lon="1.88562">
        <ele>163.309206</ele>
        <time>2026-08-29T08:29:08Z</time>
      </trkpt>
      <trkpt lat="43.93485" lon="1.88559">
        <ele>163.391476</ele>
        <time>2026-08-29T08:29:09Z</time>
      </trkpt>
      <trkpt lat="43.93487" lon="1.88557">
        <ele>163.46572</ele>
        <time>2026-08-29T08:29:10Z</time>
      </trkpt>
      <trkpt lat="43.93488" lon="1.88554">
        <ele>163.542505</ele>
        <time>2026-08-29T08:29:11Z</time>
      </trkpt>
      <trkpt lat="43.9349" lon="1.88551">
        <ele>163.621612</ele>
        <time>2026-08-29T08:29:12Z</time>
      </trkpt>
      <trkpt lat="43.93491" lon="1.88549">
        <ele>163.691187</ele>
        <time>2026-08-29T08:29:13Z</time>
      </trkpt>
      <trkpt lat="43.93493" lon="1.88547">
        <ele>163.751877</ele>
        <time>2026-08-29T08:29:14Z</time>
      </trkpt>
      <trkpt lat="43.93494" lon="1.88544">
        <ele>163.823461</ele>
        <time>2026-08-29T08:29:15Z</time>
      </trkpt>
      <trkpt lat="43.93496" lon="1.88542">
        <ele>163.89336</ele>
        <time>2026-08-29T08:29:16Z</time>
      </trkpt>
      <trkpt lat="43.93497" lon="1.8854">
        <ele>163.989434</ele>
        <time>2026-08-29T08:29:17Z</time>
      </trkpt>
      <trkpt lat="43.93499" lon="1.88538">
        <ele>164.136531</ele>
        <time>2026-08-29T08:29:18Z</time>
      </trkpt>
      <trkpt lat="43.935" lon="1.88536">
        <ele>164.288972</ele>
        <time>2026-08-29T08:29:19Z</time>
      </trkpt>
      <trkpt lat="43.93502" lon="1.88533">
        <ele>164.457262</ele>
        <time>2026-08-29T08:29:20Z</time>
      </trkpt>
      <trkpt lat="43.93503" lon="1.88531">
        <ele>164.61242</ele>
        <time>2026-08-29T08:29:21Z</time>
      </trkpt>
      <trkpt lat="43.93504" lon="1.88528">
        <ele>164.767578</ele>
        <time>2026-08-29T08:29:22Z</time>
      </trkpt>
      <trkpt lat="43.93506" lon="1.88526">
        <ele>164.898239</ele>
        <time>2026-08-29T08:29:23Z</time>
      </trkpt>
      <trkpt lat="43.93507" lon="1.88524">
        <ele>165.041432</ele>
        <time>2026-08-29T08:29:24Z</time>
      </trkpt>
      <trkpt lat="43.93508" lon="1.88522">
        <ele>165.180298</ele>
        <time>2026-08-29T08:29:25Z</time>
      </trkpt>
      <trkpt lat="43.93509" lon="1.8852">
        <ele>165.328022</ele>
        <time>2026-08-29T08:29:26Z</time>
      </trkpt>
      <trkpt lat="43.93511" lon="1.88518">
        <ele>165.458683</ele>
        <time>2026-08-29T08:29:27Z</time>
      </trkpt>
      <trkpt lat="43.93511" lon="1.88516">
        <ele>165.581644</ele>
        <time>2026-08-29T08:29:28Z</time>
      </trkpt>
      <trkpt lat="43.93512" lon="1.88514">
        <ele>165.696759</ele>
        <time>2026-08-29T08:29:29Z</time>
      </trkpt>
      <trkpt lat="43.93513" lon="1.88511">
        <ele>165.836275</ele>
        <time>2026-08-29T08:29:30Z</time>
      </trkpt>
      <trkpt lat="43.93514" lon="1.88509">
        <ele>165.9752</ele>
        <time>2026-08-29T08:29:31Z</time>
      </trkpt>
      <trkpt lat="43.93516" lon="1.88507">
        <ele>166.110764</ele>
        <time>2026-08-29T08:29:32Z</time>
      </trkpt>
      <trkpt lat="43.93517" lon="1.88505">
        <ele>166.245526</ele>
        <time>2026-08-29T08:29:33Z</time>
      </trkpt>
      <trkpt lat="43.93518" lon="1.88502">
        <ele>166.369534</ele>
        <time>2026-08-29T08:29:34Z</time>
      </trkpt>
      <trkpt lat="43.93519" lon="1.885">
        <ele>166.496161</ele>
        <time>2026-08-29T08:29:35Z</time>
      </trkpt>
      <trkpt lat="43.9352" lon="1.88498">
        <ele>166.618672</ele>
        <time>2026-08-29T08:29:36Z</time>
      </trkpt>
      <trkpt lat="43.93521" lon="1.88496">
        <ele>166.766084</ele>
        <time>2026-08-29T08:29:37Z</time>
      </trkpt>
      <trkpt lat="43.93522" lon="1.88493">
        <ele>166.929507</ele>
        <time>2026-08-29T08:29:38Z</time>
      </trkpt>
      <trkpt lat="43.93523" lon="1.88491">
        <ele>167.085595</ele>
        <time>2026-08-29T08:29:39Z</time>
      </trkpt>
      <trkpt lat="43.93524" lon="1.88488">
        <ele>167.230747</ele>
        <time>2026-08-29T08:29:40Z</time>
      </trkpt>
      <trkpt lat="43.93525" lon="1.88485">
        <ele>167.380449</ele>
        <time>2026-08-29T08:29:41Z</time>
      </trkpt>
      <trkpt lat="43.93526" lon="1.88482">
        <ele>167.536706</ele>
        <time>2026-08-29T08:29:42Z</time>
      </trkpt>
      <trkpt lat="43.93526" lon="1.8848">
        <ele>167.681096</ele>
        <time>2026-08-29T08:29:43Z</time>
      </trkpt>
      <trkpt lat="43.93527" lon="1.88477">
        <ele>167.832665</ele>
        <time>2026-08-29T08:29:44Z</time>
      </trkpt>
      <trkpt lat="43.93528" lon="1.88474">
        <ele>167.989925</ele>
        <time>2026-08-29T08:29:45Z</time>
      </trkpt>
      <trkpt lat="43.93529" lon="1.88471">
        <ele>168.142694</ele>
        <time>2026-08-29T08:29:46Z</time>
      </trkpt>
      <trkpt lat="43.9353" lon="1.88469">
        <ele>168.28236</ele>
        <time>2026-08-29T08:29:47Z</time>
      </trkpt>
      <trkpt lat="43.93531" lon="1.88466">
        <ele>168.419735</ele>
        <time>2026-08-29T08:29:48Z</time>
      </trkpt>
      <trkpt lat="43.93531" lon="1.88464">
        <ele>168.550023</ele>
        <time>2026-08-29T08:29:49Z</time>
      </trkpt>
      <trkpt lat="43.93532" lon="1.88461">
        <ele>168.673109</ele>
        <time>2026-08-29T08:29:50Z</time>
      </trkpt>
      <trkpt lat="43.93533" lon="1.88459">
        <ele>168.792648</ele>
        <time>2026-08-29T08:29:51Z</time>
      </trkpt>
      <trkpt lat="43.93533" lon="1.88457">
        <ele>168.906817</ele>
        <time>2026-08-29T08:29:52Z</time>
      </trkpt>
      <trkpt lat="43.93534" lon="1.88455">
        <ele>169.020494</ele>
        <time>2026-08-29T08:29:53Z</time>
      </trkpt>
      <trkpt lat="43.93534" lon="1.88453">
        <ele>169.136571</ele>
        <time>2026-08-29T08:29:54Z</time>
      </trkpt>
      <trkpt lat="43.93534" lon="1.8845">
        <ele>169.259136</ele>
        <time>2026-08-29T08:29:55Z</time>
      </trkpt>
      <trkpt lat="43.93535" lon="1.88448">
        <ele>169.386965</ele>
        <time>2026-08-29T08:29:56Z</time>
      </trkpt>
      <trkpt lat="43.93536" lon="1.88446">
        <ele>169.512675</ele>
        <time>2026-08-29T08:29:57Z</time>
      </trkpt>
      <trkpt lat="43.93536" lon="1.88444">
        <ele>169.623965</ele>
        <time>2026-08-29T08:29:58Z</time>
      </trkpt>
      <trkpt lat="43.93537" lon="1.88441">
        <ele>169.754517</ele>
        <time>2026-08-29T08:29:59Z</time>
      </trkpt>
      <trkpt lat="43.93537" lon="1.88438">
        <ele>169.899669</ele>
        <time>2026-08-29T08:30:00Z</time>
      </trkpt>
      <trkpt lat="43.93538" lon="1.88436">
        <ele>170.035075</ele>
        <time>2026-08-29T08:30:01Z</time>
      </trkpt>
      <trkpt lat="43.93538" lon="1.88433">
        <ele>170.167668</ele>
        <time>2026-08-29T08:30:02Z</time>
      </trkpt>
      <trkpt lat="43.93539" lon="1.88431">
        <ele>170.286722</ele>
        <time>2026-08-29T08:30:03Z</time>
      </trkpt>
      <trkpt lat="43.93539" lon="1.88428">
        <ele>170.41455</ele>
        <time>2026-08-29T08:30:04Z</time>
      </trkpt>
      <trkpt lat="43.9354" lon="1.88426">
        <ele>170.535436</ele>
        <time>2026-08-29T08:30:05Z</time>
      </trkpt>
      <trkpt lat="43.9354" lon="1.88424">
        <ele>170.639877</ele>
        <time>2026-08-29T08:30:06Z</time>
      </trkpt>
      <trkpt lat="43.9354" lon="1.88422">
        <ele>170.754046</ele>
        <time>2026-08-29T08:30:07Z</time>
      </trkpt>
      <trkpt lat="43.93541" lon="1.8842">
        <ele>170.863344</ele>
        <time>2026-08-29T08:30:08Z</time>
      </trkpt>
      <trkpt lat="43.93542" lon="1.88418">
        <ele>170.984363</ele>
        <time>2026-08-29T08:30:09Z</time>
      </trkpt>
      <trkpt lat="43.93542" lon="1.88415">
        <ele>171.098532</ele>
        <time>2026-08-29T08:30:10Z</time>
      </trkpt>
      <trkpt lat="43.93542" lon="1.88413">
        <ele>171.201324</ele>
        <time>2026-08-29T08:30:11Z</time>
      </trkpt>
      <trkpt lat="43.93543" lon="1.88411">
        <ele>171.315494</ele>
        <time>2026-08-29T08:30:12Z</time>
      </trkpt>
      <trkpt lat="43.93543" lon="1.88409">
        <ele>171.431928</ele>
        <time>2026-08-29T08:30:13Z</time>
      </trkpt>
      <trkpt lat="43.93544" lon="1.88407">
        <ele>171.551466</ele>
        <time>2026-08-29T08:30:14Z</time>
      </trkpt>
      <trkpt lat="43.93545" lon="1.88405">
        <ele>171.674553</ele>
        <time>2026-08-29T08:30:15Z</time>
      </trkpt>
      <trkpt lat="43.93545" lon="1.88402">
        <ele>171.818942</ele>
        <time>2026-08-29T08:30:16Z</time>
      </trkpt>
      <trkpt lat="43.93546" lon="1.88399">
        <ele>171.961117</ele>
        <time>2026-08-29T08:30:17Z</time>
      </trkpt>
      <trkpt lat="43.93547" lon="1.88397">
        <ele>172.112686</ele>
        <time>2026-08-29T08:30:18Z</time>
      </trkpt>
      <trkpt lat="43.93548" lon="1.88394">
        <ele>172.264254</ele>
        <time>2026-08-29T08:30:19Z</time>
      </trkpt>
      <trkpt lat="43.93548" lon="1.88391">
        <ele>172.432531</ele>
        <time>2026-08-29T08:30:20Z</time>
      </trkpt>
      <trkpt lat="43.93549" lon="1.88387">
        <ele>172.624678</ele>
        <time>2026-08-29T08:30:21Z</time>
      </trkpt>
      <trkpt lat="43.93551" lon="1.88384">
        <ele>172.794067</ele>
        <time>2026-08-29T08:30:22Z</time>
      </trkpt>
      <trkpt lat="43.93552" lon="1.88381">
        <ele>172.957489</ele>
        <time>2026-08-29T08:30:23Z</time>
      </trkpt>
      <trkpt lat="43.93553" lon="1.88379">
        <ele>173.112646</ele>
        <time>2026-08-29T08:30:24Z</time>
      </trkpt>
      <trkpt lat="43.93554" lon="1.88376">
        <ele>173.250296</ele>
        <time>2026-08-29T08:30:25Z</time>
      </trkpt>
      <trkpt lat="43.93555" lon="1.88374">
        <ele>173.394686</ele>
        <time>2026-08-29T08:30:26Z</time>
      </trkpt>
      <trkpt lat="43.93555" lon="1.8837">
        <ele>173.562962</ele>
        <time>2026-08-29T08:30:27Z</time>
      </trkpt>
      <trkpt lat="43.93556" lon="1.88367">
        <ele>173.74089</ele>
        <time>2026-08-29T08:30:28Z</time>
      </trkpt>
      <trkpt lat="43.93557" lon="1.88364">
        <ele>173.927887</ele>
        <time>2026-08-29T08:30:29Z</time>
      </trkpt>
      <trkpt lat="43.93558" lon="1.8836">
        <ele>174.122033</ele>
        <time>2026-08-29T08:30:30Z</time>
      </trkpt>
      <trkpt lat="43.93559" lon="1.88357">
        <ele>174.30958</ele>
        <time>2026-08-29T08:30:31Z</time>
      </trkpt>
      <trkpt lat="43.9356" lon="1.88353">
        <ele>174.495591</ele>
        <time>2026-08-29T08:30:32Z</time>
      </trkpt>
      <trkpt lat="43.93561" lon="1.88351">
        <ele>174.655235</ele>
        <time>2026-08-29T08:30:33Z</time>
      </trkpt>
      <trkpt lat="43.93563" lon="1.88348">
        <ele>174.822863</ele>
        <time>2026-08-29T08:30:34Z</time>
      </trkpt>
      <trkpt lat="43.93564" lon="1.88345">
        <ele>174.998534</ele>
        <time>2026-08-29T08:30:35Z</time>
      </trkpt>
      <trkpt lat="43.93565" lon="1.88342">
        <ele>175.158178</ele>
        <time>2026-08-29T08:30:36Z</time>
      </trkpt>
      <trkpt lat="43.93567" lon="1.8834">
        <ele>175.313335</ele>
        <time>2026-08-29T08:30:37Z</time>
      </trkpt>
      <trkpt lat="43.93568" lon="1.88338">
        <ele>175.467162</ele>
        <time>2026-08-29T08:30:38Z</time>
      </trkpt>
      <trkpt lat="43.9357" lon="1.88336">
        <ele>175.619637</ele>
        <time>2026-08-29T08:30:39Z</time>
      </trkpt>
      <trkpt lat="43.93571" lon="1.88333">
        <ele>175.7789</ele>
        <time>2026-08-29T08:30:40Z</time>
      </trkpt>
      <trkpt lat="43.93573" lon="1.8833">
        <ele>175.946528</ele>
        <time>2026-08-29T08:30:41Z</time>
      </trkpt>
      <trkpt lat="43.93573" lon="1.88327">
        <ele>176.114706</ele>
        <time>2026-08-29T08:30:42Z</time>
      </trkpt>
      <trkpt lat="43.93574" lon="1.88324">
        <ele>176.282884</ele>
        <time>2026-08-29T08:30:43Z</time>
      </trkpt>
      <trkpt lat="43.93575" lon="1.88321">
        <ele>176.456771</ele>
        <time>2026-08-29T08:30:44Z</time>
      </trkpt>
      <trkpt lat="43.93577" lon="1.88318">
        <ele>176.598503</ele>
        <time>2026-08-29T08:30:45Z</time>
      </trkpt>
      <trkpt lat="43.93578" lon="1.88316">
        <ele>176.72242</ele>
        <time>2026-08-29T08:30:46Z</time>
      </trkpt>
      <trkpt lat="43.93579" lon="1.88313">
        <ele>176.839215</ele>
        <time>2026-08-29T08:30:47Z</time>
      </trkpt>
      <trkpt lat="43.9358" lon="1.88311">
        <ele>176.95267</ele>
        <time>2026-08-29T08:30:48Z</time>
      </trkpt>
      <trkpt lat="43.93581" lon="1.88309">
        <ele>177.060759</ele>
        <time>2026-08-29T08:30:49Z</time>
      </trkpt>
      <trkpt lat="43.93582" lon="1.88307">
        <ele>177.151571</ele>
        <time>2026-08-29T08:30:50Z</time>
      </trkpt>
      <trkpt lat="43.93583" lon="1.88305">
        <ele>177.236199</ele>
        <time>2026-08-29T08:30:51Z</time>
      </trkpt>
      <trkpt lat="43.93584" lon="1.88303">
        <ele>177.321452</ele>
        <time>2026-08-29T08:30:52Z</time>
      </trkpt>
      <trkpt lat="43.93584" lon="1.883">
        <ele>177.433437</ele>
        <time>2026-08-29T08:30:53Z</time>
      </trkpt>
      <trkpt lat="43.93584" lon="1.88299">
        <ele>177.49948</ele>
        <time>2026-08-29T08:30:54Z</time>
      </trkpt>
      <trkpt lat="43.93584" lon="1.88298">
        <ele>177.525891</ele>
        <time>2026-08-29T08:30:55Z</time>
      </trkpt>
      <trkpt lat="43.93584" lon="1.88298">
        <ele>177.529886</ele>
        <time>2026-08-29T08:30:56Z</time>
      </trkpt>
      <trkpt lat="43.93585" lon="1.88293">
        <ele>177.755628</ele>
        <time>2026-08-29T08:31:21Z</time>
      </trkpt>
      <trkpt lat="43.93585" lon="1.8829">
        <ele>177.87266</ele>
        <time>2026-08-29T08:31:22Z</time>
      </trkpt>
      <trkpt lat="43.93585" lon="1.88287">
        <ele>177.989691</ele>
        <time>2026-08-29T08:31:23Z</time>
      </trkpt>
      <trkpt lat="43.93586" lon="1.88284">
        <ele>178.101676</ele>
        <time>2026-08-29T08:31:24Z</time>
      </trkpt>
      <trkpt lat="43.93586" lon="1.88281">
        <ele>178.223549</ele>
        <time>2026-08-29T08:31:25Z</time>
      </trkpt>
      <trkpt lat="43.93586" lon="1.88278">
        <ele>178.354349</ele>
        <time>2026-08-29T08:31:26Z</time>
      </trkpt>
      <trkpt lat="43.93587" lon="1.88275">
        <ele>178.487942</ele>
        <time>2026-08-29T08:31:27Z</time>
      </trkpt>
      <trkpt lat="43.93588" lon="1.88272">
        <ele>178.625025</ele>
        <time>2026-08-29T08:31:28Z</time>
      </trkpt>
      <trkpt lat="43.9359" lon="1.88269">
        <ele>178.772698</ele>
        <time>2026-08-29T08:31:29Z</time>
      </trkpt>
      <trkpt lat="43.9359" lon="1.88265">
        <ele>178.9287</ele>
        <time>2026-08-29T08:31:30Z</time>
      </trkpt>
      <trkpt lat="43.93591" lon="1.88261">
        <ele>179.088492</ele>
        <time>2026-08-29T08:31:31Z</time>
      </trkpt>
      <trkpt lat="43.93592" lon="1.88257">
        <ele>179.25209</ele>
        <time>2026-08-29T08:31:32Z</time>
      </trkpt>
      <trkpt lat="43.93594" lon="1.88254">
        <ele>179.398258</ele>
        <time>2026-08-29T08:31:33Z</time>
      </trkpt>
      <trkpt lat="43.93595" lon="1.88251">
        <ele>179.554707</ele>
        <time>2026-08-29T08:31:34Z</time>
      </trkpt>
      <trkpt lat="43.93597" lon="1.88248">
        <ele>179.691161</ele>
        <time>2026-08-29T08:31:35Z</time>
      </trkpt>
      <trkpt lat="43.93598" lon="1.88245">
        <ele>179.84035</ele>
        <time>2026-08-29T08:31:36Z</time>
      </trkpt>
      <trkpt lat="43.93599" lon="1.88242">
        <ele>179.983365</ele>
        <time>2026-08-29T08:31:37Z</time>
      </trkpt>
      <trkpt lat="43.936" lon="1.88238">
        <ele>180.119053</ele>
        <time>2026-08-29T08:31:38Z</time>
      </trkpt>
      <trkpt lat="43.93601" lon="1.88235">
        <ele>180.252568</ele>
        <time>2026-08-29T08:31:39Z</time>
      </trkpt>
      <trkpt lat="43.93602" lon="1.88232">
        <ele>180.389651</ele>
        <time>2026-08-29T08:31:40Z</time>
      </trkpt>
      <trkpt lat="43.93604" lon="1.8823">
        <ele>180.527002</ele>
        <time>2026-08-29T08:31:41Z</time>
      </trkpt>
      <trkpt lat="43.93606" lon="1.88228">
        <ele>180.654877</ele>
        <time>2026-08-29T08:31:42Z</time>
      </trkpt>
      <trkpt lat="43.93607" lon="1.88226">
        <ele>180.790562</ele>
        <time>2026-08-29T08:31:43Z</time>
      </trkpt>
      <trkpt lat="43.93609" lon="1.88223">
        <ele>180.935754</ele>
        <time>2026-08-29T08:31:44Z</time>
      </trkpt>
      <trkpt lat="43.93611" lon="1.88221">
        <ele>181.082379</ele>
        <time>2026-08-29T08:31:45Z</time>
      </trkpt>
      <trkpt lat="43.93613" lon="1.88218">
        <ele>181.224853</ele>
        <time>2026-08-29T08:31:46Z</time>
      </trkpt>
      <trkpt lat="43.93615" lon="1.88216">
        <ele>181.362078</ele>
        <time>2026-08-29T08:31:47Z</time>
      </trkpt>
      <trkpt lat="43.93617" lon="1.88214">
        <ele>181.48902</ele>
        <time>2026-08-29T08:31:48Z</time>
      </trkpt>
      <trkpt lat="43.93618" lon="1.88212">
        <ele>181.611142</ele>
        <time>2026-08-29T08:31:49Z</time>
      </trkpt>
      <trkpt lat="43.9362" lon="1.88209">
        <ele>181.74422</ele>
        <time>2026-08-29T08:31:50Z</time>
      </trkpt>
      <trkpt lat="43.93622" lon="1.88207">
        <ele>181.881445</ele>
        <time>2026-08-29T08:31:51Z</time>
      </trkpt>
      <trkpt lat="43.93623" lon="1.88204">
        <ele>182.013102</ele>
        <time>2026-08-29T08:31:52Z</time>
      </trkpt>
      <trkpt lat="43.93625" lon="1.88202">
        <ele>182.140043</ele>
        <time>2026-08-29T08:31:53Z</time>
      </trkpt>
      <trkpt lat="43.93626" lon="1.882">
        <ele>182.267785</ele>
        <time>2026-08-29T08:31:54Z</time>
      </trkpt>
      <trkpt lat="43.93628" lon="1.88197">
        <ele>182.399441</ele>
        <time>2026-08-29T08:31:55Z</time>
      </trkpt>
      <trkpt lat="43.9363" lon="1.88195">
        <ele>182.536792</ele>
        <time>2026-08-29T08:31:56Z</time>
      </trkpt>
      <trkpt lat="43.93631" lon="1.88192">
        <ele>182.670395</ele>
        <time>2026-08-29T08:31:57Z</time>
      </trkpt>
      <trkpt lat="43.93633" lon="1.8819">
        <ele>182.814464</ele>
        <time>2026-08-29T08:31:58Z</time>
      </trkpt>
      <trkpt lat="43.93635" lon="1.88187">
        <ele>182.95568</ele>
        <time>2026-08-29T08:31:59Z</time>
      </trkpt>
      <trkpt lat="43.93637" lon="1.88185">
        <ele>183.095498</ele>
        <time>2026-08-29T08:32:00Z</time>
      </trkpt>
      <trkpt lat="43.93639" lon="1.88183">
        <ele>183.231182</ele>
        <time>2026-08-29T08:32:01Z</time>
      </trkpt>
      <trkpt lat="43.9364" lon="1.88181">
        <ele>183.356082</ele>
        <time>2026-08-29T08:32:02Z</time>
      </trkpt>
      <trkpt lat="43.93642" lon="1.88178">
        <ele>183.478204</ele>
        <time>2026-08-29T08:32:03Z</time>
      </trkpt>
      <trkpt lat="43.93644" lon="1.88176">
        <ele>183.604415</ele>
        <time>2026-08-29T08:32:04Z</time>
      </trkpt>
      <trkpt lat="43.93645" lon="1.88174">
        <ele>183.725436</ele>
        <time>2026-08-29T08:32:05Z</time>
      </trkpt>
      <trkpt lat="43.93647" lon="1.88172">
        <ele>183.852377</ele>
        <time>2026-08-29T08:32:06Z</time>
      </trkpt>
      <trkpt lat="43.93648" lon="1.8817">
        <ele>183.96669</ele>
        <time>2026-08-29T08:32:07Z</time>
      </trkpt>
      <trkpt lat="43.9365" lon="1.88168">
        <ele>184.087739</ele>
        <time>2026-08-29T08:32:08Z</time>
      </trkpt>
      <trkpt lat="43.93651" lon="1.88166">
        <ele>184.208787</ele>
        <time>2026-08-29T08:32:09Z</time>
      </trkpt>
      <trkpt lat="43.93653" lon="1.88164">
        <ele>184.341039</ele>
        <time>2026-08-29T08:32:10Z</time>
      </trkpt>
      <trkpt lat="43.93655" lon="1.88162">
        <ele>184.466415</ele>
        <time>2026-08-29T08:32:11Z</time>
      </trkpt>
      <trkpt lat="43.93657" lon="1.8816">
        <ele>184.598619</ele>
        <time>2026-08-29T08:32:12Z</time>
      </trkpt>
      <trkpt lat="43.93659" lon="1.88159">
        <ele>184.731489</ele>
        <time>2026-08-29T08:32:13Z</time>
      </trkpt>
      <trkpt lat="43.93661" lon="1.88158">
        <ele>184.847272</ele>
        <time>2026-08-29T08:32:14Z</time>
      </trkpt>
      <trkpt lat="43.93663" lon="1.88156">
        <ele>184.978384</ele>
        <time>2026-08-29T08:32:15Z</time>
      </trkpt>
      <trkpt lat="43.93665" lon="1.88155">
        <ele>185.102623</ele>
        <time>2026-08-29T08:32:16Z</time>
      </trkpt>
      <trkpt lat="43.93667" lon="1.88154">
        <ele>185.220537</ele>
        <time>2026-08-29T08:32:17Z</time>
      </trkpt>
      <trkpt lat="43.9367" lon="1.88153">
        <ele>185.362848</ele>
        <time>2026-08-29T08:32:18Z</time>
      </trkpt>
      <trkpt lat="43.93672" lon="1.88152">
        <ele>185.496538</ele>
        <time>2026-08-29T08:32:19Z</time>
      </trkpt>
      <trkpt lat="43.93674" lon="1.88151">
        <ele>185.623759</ele>
        <time>2026-08-29T08:32:20Z</time>
      </trkpt>
      <trkpt lat="43.93676" lon="1.8815">
        <ele>185.741252</ele>
        <time>2026-08-29T08:32:21Z</time>
      </trkpt>
      <trkpt lat="43.93679" lon="1.88148">
        <ele>185.89232</ele>
        <time>2026-08-29T08:32:22Z</time>
      </trkpt>
      <trkpt lat="43.93681" lon="1.88148">
        <ele>186.023844</ele>
        <time>2026-08-29T08:32:23Z</time>
      </trkpt>
      <trkpt lat="43.93684" lon="1.88147">
        <ele>186.162837</ele>
        <time>2026-08-29T08:32:24Z</time>
      </trkpt>
      <trkpt lat="43.93685" lon="1.88146">
        <ele>186.268534</ele>
        <time>2026-08-29T08:32:25Z</time>
      </trkpt>
      <trkpt lat="43.93688" lon="1.88144">
        <ele>186.428577</ele>
        <time>2026-08-29T08:32:26Z</time>
      </trkpt>
      <trkpt lat="43.93691" lon="1.88143">
        <ele>186.505545</ele>
        <time>2026-08-29T08:32:27Z</time>
      </trkpt>
      <trkpt lat="43.93693" lon="1.88141">
        <ele>186.544232</ele>
        <time>2026-08-29T08:32:28Z</time>
      </trkpt>
      <trkpt lat="43.93696" lon="1.88139">
        <ele>186.584905</ele>
        <time>2026-08-29T08:32:29Z</time>
      </trkpt>
      <trkpt lat="43.93699" lon="1.88136">
        <ele>186.626023</ele>
        <time>2026-08-29T08:32:30Z</time>
      </trkpt>
      <trkpt lat="43.93702" lon="1.88134">
        <ele>186.666696</ele>
        <time>2026-08-29T08:32:31Z</time>
      </trkpt>
      <trkpt lat="43.93706" lon="1.88132">
        <ele>186.722393</ele>
        <time>2026-08-29T08:32:32Z</time>
      </trkpt>
      <trkpt lat="43.93709" lon="1.88129">
        <ele>186.768211</ele>
        <time>2026-08-29T08:32:33Z</time>
      </trkpt>
      <trkpt lat="43.93712" lon="1.88126">
        <ele>186.819275</ele>
        <time>2026-08-29T08:32:34Z</time>
      </trkpt>
      <trkpt lat="43.93715" lon="1.88122">
        <ele>186.871336</ele>
        <time>2026-08-29T08:32:35Z</time>
      </trkpt>
      <trkpt lat="43.93718" lon="1.88118">
        <ele>186.922012</ele>
        <time>2026-08-29T08:32:36Z</time>
      </trkpt>
      <trkpt lat="43.93721" lon="1.88115">
        <ele>186.970927</ele>
        <time>2026-08-29T08:32:37Z</time>
      </trkpt>
      <trkpt lat="43.93723" lon="1.88111">
        <ele>187.021387</ele>
        <time>2026-08-29T08:32:38Z</time>
      </trkpt>
      <trkpt lat="43.93726" lon="1.88107">
        <ele>187.069227</ele>
        <time>2026-08-29T08:32:39Z</time>
      </trkpt>
      <trkpt lat="43.93729" lon="1.88104">
        <ele>187.116165</ele>
        <time>2026-08-29T08:32:40Z</time>
      </trkpt>
      <trkpt lat="43.93732" lon="1.88101">
        <ele>187.163959</ele>
        <time>2026-08-29T08:32:41Z</time>
      </trkpt>
      <trkpt lat="43.93735" lon="1.88097">
        <ele>187.216477</ele>
        <time>2026-08-29T08:32:42Z</time>
      </trkpt>
      <trkpt lat="43.93739" lon="1.88094">
        <ele>187.27107</ele>
        <time>2026-08-29T08:32:43Z</time>
      </trkpt>
      <trkpt lat="43.93742" lon="1.8809">
        <ele>187.327237</ele>
        <time>2026-08-29T08:32:44Z</time>
      </trkpt>
      <trkpt lat="43.93746" lon="1.88087">
        <ele>187.381446</ele>
        <time>2026-08-29T08:32:45Z</time>
      </trkpt>
      <trkpt lat="43.93749" lon="1.88082">
        <ele>187.43804</ele>
        <time>2026-08-29T08:32:46Z</time>
      </trkpt>
      <trkpt lat="43.93752" lon="1.88078">
        <ele>187.497767</ele>
        <time>2026-08-29T08:32:47Z</time>
      </trkpt>
      <trkpt lat="43.93756" lon="1.88074">
        <ele>187.553415</ele>
        <time>2026-08-29T08:32:48Z</time>
      </trkpt>
      <trkpt lat="43.93759" lon="1.8807">
        <ele>187.607637</ele>
        <time>2026-08-29T08:32:49Z</time>
      </trkpt>
      <trkpt lat="43.93762" lon="1.88066">
        <ele>187.662084</ele>
        <time>2026-08-29T08:32:50Z</time>
      </trkpt>
      <trkpt lat="43.93765" lon="1.88061">
        <ele>187.71653</ele>
        <time>2026-08-29T08:32:51Z</time>
      </trkpt>
      <trkpt lat="43.93768" lon="1.88057">
        <ele>187.772531</ele>
        <time>2026-08-29T08:32:52Z</time>
      </trkpt>
      <trkpt lat="43.93771" lon="1.88053">
        <ele>187.825424</ele>
        <time>2026-08-29T08:32:53Z</time>
      </trkpt>
      <trkpt lat="43.93773" lon="1.88049">
        <ele>187.875463</ele>
        <time>2026-08-29T08:32:54Z</time>
      </trkpt>
      <trkpt lat="43.93776" lon="1.88045">
        <ele>187.92926</ele>
        <time>2026-08-29T08:32:55Z</time>
      </trkpt>
      <trkpt lat="43.93779" lon="1.88041">
        <ele>187.979936</ele>
        <time>2026-08-29T08:32:56Z</time>
      </trkpt>
      <trkpt lat="43.93782" lon="1.88038">
        <ele>188.03218</ele>
        <time>2026-08-29T08:32:57Z</time>
      </trkpt>
      <trkpt lat="43.93786" lon="1.88034">
        <ele>188.088456</ele>
        <time>2026-08-29T08:32:58Z</time>
      </trkpt>
      <trkpt lat="43.93789" lon="1.8803">
        <ele>188.140697</ele>
        <time>2026-08-29T08:32:59Z</time>
      </trkpt>
      <trkpt lat="43.93791" lon="1.88026">
        <ele>188.191383</ele>
        <time>2026-08-29T08:33:00Z</time>
      </trkpt>
      <trkpt lat="43.93794" lon="1.88022">
        <ele>188.242725</ele>
        <time>2026-08-29T08:33:01Z</time>
      </trkpt>
      <trkpt lat="43.93797" lon="1.88018">
        <ele>188.292764</ele>
        <time>2026-08-29T08:33:02Z</time>
      </trkpt>
      <trkpt lat="43.938" lon="1.88014">
        <ele>188.345657</ele>
        <time>2026-08-29T08:33:03Z</time>
      </trkpt>
      <trkpt lat="43.93803" lon="1.8801">
        <ele>188.395057</ele>
        <time>2026-08-29T08:33:04Z</time>
      </trkpt>
      <trkpt lat="43.93806" lon="1.88006">
        <ele>188.44539</ele>
        <time>2026-08-29T08:33:05Z</time>
      </trkpt>
      <trkpt lat="43.93808" lon="1.88003">
        <ele>188.495723</ele>
        <time>2026-08-29T08:33:06Z</time>
      </trkpt>
      <trkpt lat="43.93811" lon="1.87999">
        <ele>188.544856</ele>
        <time>2026-08-29T08:33:07Z</time>
      </trkpt>
      <trkpt lat="43.93814" lon="1.87995">
        <ele>188.593771</ele>
        <time>2026-08-29T08:33:08Z</time>
      </trkpt>
      <trkpt lat="43.93816" lon="1.87991">
        <ele>188.643563</ele>
        <time>2026-08-29T08:33:09Z</time>
      </trkpt>
      <trkpt lat="43.93819" lon="1.87987">
        <ele>188.690935</ele>
        <time>2026-08-29T08:33:10Z</time>
      </trkpt>
      <trkpt lat="43.93821" lon="1.87983">
        <ele>188.738307</ele>
        <time>2026-08-29T08:33:11Z</time>
      </trkpt>
      <trkpt lat="43.93824" lon="1.8798">
        <ele>188.719688</ele>
        <time>2026-08-29T08:33:12Z</time>
      </trkpt>
      <trkpt lat="43.93827" lon="1.87977">
        <ele>188.458774</ele>
        <time>2026-08-29T08:33:13Z</time>
      </trkpt>
      <trkpt lat="43.93829" lon="1.87974">
        <ele>188.216982</ele>
        <time>2026-08-29T08:33:14Z</time>
      </trkpt>
      <trkpt lat="43.9383" lon="1.87971">
        <ele>187.998548</ele>
        <time>2026-08-29T08:33:15Z</time>
      </trkpt>
      <trkpt lat="43.93832" lon="1.87968">
        <ele>187.815204</ele>
        <time>2026-08-29T08:33:16Z</time>
      </trkpt>
      <trkpt lat="43.93834" lon="1.87967">
        <ele>187.662109</ele>
        <time>2026-08-29T08:33:17Z</time>
      </trkpt>
      <trkpt lat="43.93836" lon="1.87967">
        <ele>187.513244</ele>
        <time>2026-08-29T08:33:18Z</time>
      </trkpt>
      <trkpt lat="43.93838" lon="1.87968">
        <ele>187.362699</ele>
        <time>2026-08-29T08:33:19Z</time>
      </trkpt>
      <trkpt lat="43.93839" lon="1.87969">
        <ele>187.202449</ele>
        <time>2026-08-29T08:33:20Z</time>
      </trkpt>
      <trkpt lat="43.93841" lon="1.87971">
        <ele>187.013807</ele>
        <time>2026-08-29T08:33:21Z</time>
      </trkpt>
      <trkpt lat="43.93844" lon="1.87974">
        <ele>186.769816</ele>
        <time>2026-08-29T08:33:22Z</time>
      </trkpt>
      <trkpt lat="43.93846" lon="1.87977">
        <ele>186.5203</ele>
        <time>2026-08-29T08:33:23Z</time>
      </trkpt>
      <trkpt lat="43.93849" lon="1.8798">
        <ele>186.253529</ele>
        <time>2026-08-29T08:33:24Z</time>
      </trkpt>
      <trkpt lat="43.93851" lon="1.87983">
        <ele>185.990605</ele>
        <time>2026-08-29T08:33:25Z</time>
      </trkpt>
      <trkpt lat="43.93853" lon="1.87987">
        <ele>185.733154</ele>
        <time>2026-08-29T08:33:26Z</time>
      </trkpt>
      <trkpt lat="43.93855" lon="1.8799">
        <ele>185.47777</ele>
        <time>2026-08-29T08:33:27Z</time>
      </trkpt>
      <trkpt lat="43.93857" lon="1.87994">
        <ele>185.230895</ele>
        <time>2026-08-29T08:33:28Z</time>
      </trkpt>
      <trkpt lat="43.93859" lon="1.87997">
        <ele>184.994331</ele>
        <time>2026-08-29T08:33:29Z</time>
      </trkpt>
      <trkpt lat="43.93861" lon="1.88001">
        <ele>184.739581</ele>
        <time>2026-08-29T08:33:30Z</time>
      </trkpt>
      <trkpt lat="43.93863" lon="1.88005">
        <ele>184.471182</ele>
        <time>2026-08-29T08:33:31Z</time>
      </trkpt>
      <trkpt lat="43.93865" lon="1.88009">
        <ele>184.184553</ele>
        <time>2026-08-29T08:33:32Z</time>
      </trkpt>
      <trkpt lat="43.93868" lon="1.88013">
        <ele>183.870364</ele>
        <time>2026-08-29T08:33:33Z</time>
      </trkpt>
      <trkpt lat="43.9387" lon="1.88018">
        <ele>183.538163</ele>
        <time>2026-08-29T08:33:34Z</time>
      </trkpt>
      <trkpt lat="43.93873" lon="1.88022">
        <ele>183.219554</ele>
        <time>2026-08-29T08:33:35Z</time>
      </trkpt>
      <trkpt lat="43.93875" lon="1.88027">
        <ele>182.905365</ele>
        <time>2026-08-29T08:33:36Z</time>
      </trkpt>
      <trkpt lat="43.93878" lon="1.88031">
        <ele>182.595938</ele>
        <time>2026-08-29T08:33:37Z</time>
      </trkpt>
      <trkpt lat="43.9388" lon="1.88035">
        <ele>182.304795</ele>
        <time>2026-08-29T08:33:38Z</time>
      </trkpt>
      <trkpt lat="43.93882" lon="1.8804">
        <ele>182.022749</ele>
        <time>2026-08-29T08:33:39Z</time>
      </trkpt>
      <trkpt lat="43.93884" lon="1.88044">
        <ele>181.745251</ele>
        <time>2026-08-29T08:33:40Z</time>
      </trkpt>
      <trkpt lat="43.93886" lon="1.88048">
        <ele>181.467754</ele>
        <time>2026-08-29T08:33:41Z</time>
      </trkpt>
      <trkpt lat="43.93889" lon="1.88051">
        <ele>181.184409</ele>
        <time>2026-08-29T08:33:42Z</time>
      </trkpt>
      <trkpt lat="43.93891" lon="1.88055">
        <ele>180.91589</ele>
        <time>2026-08-29T08:33:43Z</time>
      </trkpt>
      <trkpt lat="43.93893" lon="1.88059">
        <ele>180.620101</ele>
        <time>2026-08-29T08:33:44Z</time>
      </trkpt>
      <trkpt lat="43.93895" lon="1.88064">
        <ele>180.315312</ele>
        <time>2026-08-29T08:33:45Z</time>
      </trkpt>
      <trkpt lat="43.93897" lon="1.88068">
        <ele>180.00107</ele>
        <time>2026-08-29T08:33:46Z</time>
      </trkpt>
      <trkpt lat="43.939" lon="1.88073">
        <ele>179.705281</ele>
        <time>2026-08-29T08:33:47Z</time>
      </trkpt>
      <trkpt lat="43.93902" lon="1.88076">
        <ele>179.421937</ele>
        <time>2026-08-29T08:33:48Z</time>
      </trkpt>
      <trkpt lat="43.93905" lon="1.8808">
        <ele>179.141936</ele>
        <time>2026-08-29T08:33:49Z</time>
      </trkpt>
      <trkpt lat="43.93908" lon="1.88082">
        <ele>178.873216</ele>
        <time>2026-08-29T08:33:50Z</time>
      </trkpt>
      <trkpt lat="43.9391" lon="1.88084">
        <ele>178.632305</ele>
        <time>2026-08-29T08:33:51Z</time>
      </trkpt>
      <trkpt lat="43.93913" lon="1.88086">
        <ele>178.418011</ele>
        <time>2026-08-29T08:33:52Z</time>
      </trkpt>
      <trkpt lat="43.93916" lon="1.88087">
        <ele>178.193647</ele>
        <time>2026-08-29T08:33:53Z</time>
      </trkpt>
      <trkpt lat="43.93919" lon="1.88088">
        <ele>177.953468</ele>
        <time>2026-08-29T08:33:54Z</time>
      </trkpt>
      <trkpt lat="43.93922" lon="1.88089">
        <ele>177.705713</ele>
        <time>2026-08-29T08:33:55Z</time>
      </trkpt>
      <trkpt lat="43.93925" lon="1.8809">
        <ele>177.443906</ele>
        <time>2026-08-29T08:33:56Z</time>
      </trkpt>
      <trkpt lat="43.93929" lon="1.88091">
        <ele>177.164546</ele>
        <time>2026-08-29T08:33:57Z</time>
      </trkpt>
      <trkpt lat="43.93932" lon="1.88093">
        <ele>176.906509</ele>
        <time>2026-08-29T08:33:58Z</time>
      </trkpt>
      <trkpt lat="43.93935" lon="1.88094">
        <ele>176.637059</ele>
        <time>2026-08-29T08:33:59Z</time>
      </trkpt>
      <trkpt lat="43.93939" lon="1.88095">
        <ele>176.358883</ele>
        <time>2026-08-29T08:34:00Z</time>
      </trkpt>
      <trkpt lat="43.93942" lon="1.88096">
        <ele>176.079523</ele>
        <time>2026-08-29T08:34:01Z</time>
      </trkpt>
      <trkpt lat="43.93946" lon="1.88096">
        <ele>175.803387</ele>
        <time>2026-08-29T08:34:02Z</time>
      </trkpt>
      <trkpt lat="43.93949" lon="1.88098">
        <ele>175.524028</ele>
        <time>2026-08-29T08:34:03Z</time>
      </trkpt>
      <trkpt lat="43.93953" lon="1.88099">
        <ele>175.230584</ele>
        <time>2026-08-29T08:34:04Z</time>
      </trkpt>
      <trkpt lat="43.93957" lon="1.881">
        <ele>174.919613</ele>
        <time>2026-08-29T08:34:05Z</time>
      </trkpt>
      <trkpt lat="43.93961" lon="1.88101">
        <ele>174.747811</ele>
        <time>2026-08-29T08:34:06Z</time>
      </trkpt>
      <trkpt lat="43.93965" lon="1.88103">
        <ele>174.699895</ele>
        <time>2026-08-29T08:34:07Z</time>
      </trkpt>
      <trkpt lat="43.93969" lon="1.88104">
        <ele>174.656776</ele>
        <time>2026-08-29T08:34:08Z</time>
      </trkpt>
      <trkpt lat="43.93972" lon="1.88105">
        <ele>174.616521</ele>
        <time>2026-08-29T08:34:09Z</time>
      </trkpt>
      <trkpt lat="43.93975" lon="1.88105">
        <ele>174.578848</ele>
        <time>2026-08-29T08:34:10Z</time>
      </trkpt>
      <trkpt lat="43.93979" lon="1.88104">
        <ele>174.540831</ele>
        <time>2026-08-29T08:34:11Z</time>
      </trkpt>
      <trkpt lat="43.93981" lon="1.88102">
        <ele>174.505305</ele>
        <time>2026-08-29T08:34:12Z</time>
      </trkpt>
      <trkpt lat="43.93984" lon="1.881">
        <ele>174.468478</ele>
        <time>2026-08-29T08:34:13Z</time>
      </trkpt>
      <trkpt lat="43.93987" lon="1.88097">
        <ele>174.427839</ele>
        <time>2026-08-29T08:34:14Z</time>
      </trkpt>
      <trkpt lat="43.93989" lon="1.88093">
        <ele>174.387311</ele>
        <time>2026-08-29T08:34:15Z</time>
      </trkpt>
      <trkpt lat="43.93992" lon="1.8809">
        <ele>174.345644</ele>
        <time>2026-08-29T08:34:16Z</time>
      </trkpt>
      <trkpt lat="43.93994" lon="1.88086">
        <ele>174.306149</ele>
        <time>2026-08-29T08:34:17Z</time>
      </trkpt>
      <trkpt lat="43.93997" lon="1.88083">
        <ele>174.268027</ele>
        <time>2026-08-29T08:34:18Z</time>
      </trkpt>
      <trkpt lat="43.93999" lon="1.88079">
        <ele>174.227936</ele>
        <time>2026-08-29T08:34:19Z</time>
      </trkpt>
      <trkpt lat="43.94002" lon="1.88075">
        <ele>174.183133</ele>
        <time>2026-08-29T08:34:20Z</time>
      </trkpt>
      <trkpt lat="43.94005" lon="1.88071">
        <ele>174.136511</ele>
        <time>2026-08-29T08:34:21Z</time>
      </trkpt>
      <trkpt lat="43.94007" lon="1.88067">
        <ele>174.091108</ele>
        <time>2026-08-29T08:34:22Z</time>
      </trkpt>
      <trkpt lat="43.9401" lon="1.88062">
        <ele>174.045945</ele>
        <time>2026-08-29T08:34:23Z</time>
      </trkpt>
      <trkpt lat="43.94012" lon="1.88058">
        <ele>174.000061</ele>
        <time>2026-08-29T08:34:24Z</time>
      </trkpt>
      <trkpt lat="43.94015" lon="1.88054">
        <ele>173.953615</ele>
        <time>2026-08-29T08:34:25Z</time>
      </trkpt>
      <trkpt lat="43.94017" lon="1.88049">
        <ele>173.905205</ele>
        <time>2026-08-29T08:34:26Z</time>
      </trkpt>
      <trkpt lat="43.9402" lon="1.88044">
        <ele>173.856131</ele>
        <time>2026-08-29T08:34:27Z</time>
      </trkpt>
      <trkpt lat="43.94022" lon="1.88039">
        <ele>173.808378</ele>
        <time>2026-08-29T08:34:28Z</time>
      </trkpt>
      <trkpt lat="43.94025" lon="1.88035">
        <ele>173.761932</ele>
        <time>2026-08-29T08:34:29Z</time>
      </trkpt>
      <trkpt lat="43.94027" lon="1.88031">
        <ele>173.717129</ele>
        <time>2026-08-29T08:34:30Z</time>
      </trkpt>
      <trkpt lat="43.9403" lon="1.88026">
        <ele>173.672484</ele>
        <time>2026-08-29T08:34:31Z</time>
      </trkpt>
      <trkpt lat="43.94032" lon="1.88023">
        <ele>173.630561</ele>
        <time>2026-08-29T08:34:32Z</time>
      </trkpt>
      <trkpt lat="43.94035" lon="1.88019">
        <ele>173.592062</ele>
        <time>2026-08-29T08:34:33Z</time>
      </trkpt>
      <trkpt lat="43.94037" lon="1.88015">
        <ele>173.552851</ele>
        <time>2026-08-29T08:34:34Z</time>
      </trkpt>
      <trkpt lat="43.94039" lon="1.88012">
        <ele>173.515497</ele>
        <time>2026-08-29T08:34:35Z</time>
      </trkpt>
      <trkpt lat="43.94041" lon="1.88008">
        <ele>173.475652</ele>
        <time>2026-08-29T08:34:36Z</time>
      </trkpt>
      <trkpt lat="43.94043" lon="1.88004">
        <ele>173.434537</ele>
        <time>2026-08-29T08:34:37Z</time>
      </trkpt>
      <trkpt lat="43.94045" lon="1.88">
        <ele>173.394742</ele>
        <time>2026-08-29T08:34:38Z</time>
      </trkpt>
      <trkpt lat="43.94047" lon="1.87996">
        <ele>173.356279</ele>
        <time>2026-08-29T08:34:39Z</time>
      </trkpt>
      <trkpt lat="43.94049" lon="1.87992">
        <ele>173.319721</ele>
        <time>2026-08-29T08:34:40Z</time>
      </trkpt>
      <trkpt lat="43.94051" lon="1.87988">
        <ele>173.281242</ele>
        <time>2026-08-29T08:34:41Z</time>
      </trkpt>
      <trkpt lat="43.94052" lon="1.87985">
        <ele>173.246544</ele>
        <time>2026-08-29T08:34:42Z</time>
      </trkpt>
      <trkpt lat="43.94054" lon="1.87981">
        <ele>173.214538</ele>
        <time>2026-08-29T08:34:43Z</time>
      </trkpt>
      <trkpt lat="43.94055" lon="1.87978">
        <ele>173.179967</ele>
        <time>2026-08-29T08:34:44Z</time>
      </trkpt>
      <trkpt lat="43.94057" lon="1.87974">
        <ele>173.143478</ele>
        <time>2026-08-29T08:34:45Z</time>
      </trkpt>
      <trkpt lat="43.94059" lon="1.8797">
        <ele>173.106309</ele>
        <time>2026-08-29T08:34:46Z</time>
      </trkpt>
      <trkpt lat="43.94061" lon="1.87966">
        <ele>173.069173</ele>
        <time>2026-08-29T08:34:47Z</time>
      </trkpt>
      <trkpt lat="43.94063" lon="1.87963">
        <ele>173.030709</ele>
        <time>2026-08-29T08:34:48Z</time>
      </trkpt>
      <trkpt lat="43.94065" lon="1.87959">
        <ele>172.991498</ele>
        <time>2026-08-29T08:34:49Z</time>
      </trkpt>
      <trkpt lat="43.94067" lon="1.87956">
        <ele>172.956971</ele>
        <time>2026-08-29T08:34:50Z</time>
      </trkpt>
      <trkpt lat="43.94069" lon="1.87952">
        <ele>172.922444</ele>
        <time>2026-08-29T08:34:51Z</time>
      </trkpt>
      <trkpt lat="43.94071" lon="1.87949">
        <ele>172.886625</ele>
        <time>2026-08-29T08:34:52Z</time>
      </trkpt>
      <trkpt lat="43.94073" lon="1.87946">
        <ele>172.852732</ele>
        <time>2026-08-29T08:34:53Z</time>
      </trkpt>
      <trkpt lat="43.94075" lon="1.87942">
        <ele>172.815596</ele>
        <time>2026-08-29T08:34:54Z</time>
      </trkpt>
      <trkpt lat="43.94076" lon="1.87938">
        <ele>172.779122</ele>
        <time>2026-08-29T08:34:55Z</time>
      </trkpt>
      <trkpt lat="43.94079" lon="1.87934">
        <ele>172.738637</ele>
        <time>2026-08-29T08:34:56Z</time>
      </trkpt>
      <trkpt lat="43.94081" lon="1.87931">
        <ele>172.778625</ele>
        <time>2026-08-29T08:34:57Z</time>
      </trkpt>
      <trkpt lat="43.94082" lon="1.87927">
        <ele>172.834319</ele>
        <time>2026-08-29T08:34:58Z</time>
      </trkpt>
      <trkpt lat="43.94084" lon="1.87923">
        <ele>172.889846</ele>
        <time>2026-08-29T08:34:59Z</time>
      </trkpt>
      <trkpt lat="43.94086" lon="1.87919">
        <ele>172.94371</ele>
        <time>2026-08-29T08:35:00Z</time>
      </trkpt>
      <trkpt lat="43.94088" lon="1.87915">
        <ele>172.995304</ele>
        <time>2026-08-29T08:35:01Z</time>
      </trkpt>
      <trkpt lat="43.94089" lon="1.87911">
        <ele>173.046317</ele>
        <time>2026-08-29T08:35:02Z</time>
      </trkpt>
      <trkpt lat="43.94091" lon="1.87907">
        <ele>173.100182</ele>
        <time>2026-08-29T08:35:03Z</time>
      </trkpt>
      <trkpt lat="43.94092" lon="1.87903">
        <ele>173.151195</ele>
        <time>2026-08-29T08:35:04Z</time>
      </trkpt>
      <trkpt lat="43.94094" lon="1.87899">
        <ele>173.209492</ele>
        <time>2026-08-29T08:35:05Z</time>
      </trkpt>
      <trkpt lat="43.94096" lon="1.87895">
        <ele>173.26602</ele>
        <time>2026-08-29T08:35:06Z</time>
      </trkpt>
      <trkpt lat="43.94098" lon="1.87891">
        <ele>173.323556</ele>
        <time>2026-08-29T08:35:07Z</time>
      </trkpt>
      <trkpt lat="43.94099" lon="1.87887">
        <ele>173.378453</ele>
        <time>2026-08-29T08:35:08Z</time>
      </trkpt>
      <trkpt lat="43.94101" lon="1.87883">
        <ele>173.428379</ele>
        <time>2026-08-29T08:35:09Z</time>
      </trkpt>
      <trkpt lat="43.94102" lon="1.87879">
        <ele>173.474415</ele>
        <time>2026-08-29T08:35:10Z</time>
      </trkpt>
      <trkpt lat="43.94103" lon="1.87876">
        <ele>173.522627</ele>
        <time>2026-08-29T08:35:11Z</time>
      </trkpt>
      <trkpt lat="43.94104" lon="1.87872">
        <ele>173.573926</ele>
        <time>2026-08-29T08:35:12Z</time>
      </trkpt>
      <trkpt lat="43.94106" lon="1.87868">
        <ele>173.62779</ele>
        <time>2026-08-29T08:35:13Z</time>
      </trkpt>
      <trkpt lat="43.94107" lon="1.87864">
        <ele>173.680526</ele>
        <time>2026-08-29T08:35:14Z</time>
      </trkpt>
      <trkpt lat="43.94108" lon="1.87859">
        <ele>173.732601</ele>
        <time>2026-08-29T08:35:15Z</time>
      </trkpt>
      <trkpt lat="43.94109" lon="1.87855">
        <ele>173.790772</ele>
        <time>2026-08-29T08:35:16Z</time>
      </trkpt>
      <trkpt lat="43.94111" lon="1.8785">
        <ele>173.847261</ele>
        <time>2026-08-29T08:35:17Z</time>
      </trkpt>
      <trkpt lat="43.94112" lon="1.87846">
        <ele>173.902647</ele>
        <time>2026-08-29T08:35:18Z</time>
      </trkpt>
      <trkpt lat="43.94113" lon="1.87842">
        <ele>173.956934</ele>
        <time>2026-08-29T08:35:19Z</time>
      </trkpt>
      <trkpt lat="43.94114" lon="1.87837">
        <ele>174.014011</ele>
        <time>2026-08-29T08:35:20Z</time>
      </trkpt>
      <trkpt lat="43.94115" lon="1.87833">
        <ele>174.069953</ele>
        <time>2026-08-29T08:35:21Z</time>
      </trkpt>
      <trkpt lat="43.94116" lon="1.87828">
        <ele>174.123146</ele>
        <time>2026-08-29T08:35:22Z</time>
      </trkpt>
      <trkpt lat="43.94117" lon="1.87824">
        <ele>174.176568</ele>
        <time>2026-08-29T08:35:23Z</time>
      </trkpt>
      <trkpt lat="43.94118" lon="1.8782">
        <ele>174.229761</ele>
        <time>2026-08-29T08:35:24Z</time>
      </trkpt>
      <trkpt lat="43.94119" lon="1.87815">
        <ele>174.287355</ele>
        <time>2026-08-29T08:35:25Z</time>
      </trkpt>
      <trkpt lat="43.9412" lon="1.87811">
        <ele>174.337812</ele>
        <time>2026-08-29T08:35:26Z</time>
      </trkpt>
      <trkpt lat="43.94121" lon="1.87807">
        <ele>174.387414</ele>
        <time>2026-08-29T08:35:27Z</time>
      </trkpt>
      <trkpt lat="43.94122" lon="1.87803">
        <ele>174.437258</ele>
        <time>2026-08-29T08:35:28Z</time>
      </trkpt>
      <trkpt lat="43.94123" lon="1.87799">
        <ele>174.485722</ele>
        <time>2026-08-29T08:35:29Z</time>
      </trkpt>
      <trkpt lat="43.94125" lon="1.87795">
        <ele>174.534684</ele>
        <time>2026-08-29T08:35:30Z</time>
      </trkpt>
      <trkpt lat="43.94127" lon="1.87792">
        <ele>174.584361</ele>
        <time>2026-08-29T08:35:31Z</time>
      </trkpt>
      <trkpt lat="43.94129" lon="1.87789">
        <ele>174.636205</ele>
        <time>2026-08-29T08:35:32Z</time>
      </trkpt>
      <trkpt lat="43.94131" lon="1.87786">
        <ele>174.686207</ele>
        <time>2026-08-29T08:35:33Z</time>
      </trkpt>
      <trkpt lat="43.94133" lon="1.87783">
        <ele>174.738713</ele>
        <time>2026-08-29T08:35:34Z</time>
      </trkpt>
      <trkpt lat="43.94136" lon="1.8778">
        <ele>174.794735</ele>
        <time>2026-08-29T08:35:35Z</time>
      </trkpt>
      <trkpt lat="43.94138" lon="1.87777">
        <ele>174.847959</ele>
        <time>2026-08-29T08:35:36Z</time>
      </trkpt>
      <trkpt lat="43.94141" lon="1.87774">
        <ele>174.899544</ele>
        <time>2026-08-29T08:35:37Z</time>
      </trkpt>
      <trkpt lat="43.94143" lon="1.87771">
        <ele>174.955566</ele>
        <time>2026-08-29T08:35:38Z</time>
      </trkpt>
      <trkpt lat="43.94146" lon="1.87768">
        <ele>175.010655</ele>
        <time>2026-08-29T08:35:39Z</time>
      </trkpt>
      <trkpt lat="43.94148" lon="1.87765">
        <ele>175.063053</ele>
        <time>2026-08-29T08:35:40Z</time>
      </trkpt>
      <trkpt lat="43.94151" lon="1.87763">
        <ele>175.10871</ele>
        <time>2026-08-29T08:35:41Z</time>
      </trkpt>
      <trkpt lat="43.94153" lon="1.87761">
        <ele>175.156741</ele>
        <time>2026-08-29T08:35:42Z</time>
      </trkpt>
      <trkpt lat="43.94156" lon="1.87758">
        <ele>175.209149</ele>
        <time>2026-08-29T08:35:43Z</time>
      </trkpt>
      <trkpt lat="43.94159" lon="1.87756">
        <ele>175.263745</ele>
        <time>2026-08-29T08:35:44Z</time>
      </trkpt>
      <trkpt lat="43.94162" lon="1.87754">
        <ele>175.318149</ele>
        <time>2026-08-29T08:35:45Z</time>
      </trkpt>
      <trkpt lat="43.94164" lon="1.87753">
        <ele>175.365266</ele>
        <time>2026-08-29T08:35:46Z</time>
      </trkpt>
      <trkpt lat="43.94167" lon="1.87752">
        <ele>175.412807</ele>
        <time>2026-08-29T08:35:47Z</time>
      </trkpt>
      <trkpt lat="43.9417" lon="1.87754">
        <ele>175.458844</ele>
        <time>2026-08-29T08:35:48Z</time>
      </trkpt>
      <trkpt lat="43.94172" lon="1.87756">
        <ele>175.498912</ele>
        <time>2026-08-29T08:35:49Z</time>
      </trkpt>
      <trkpt lat="43.94174" lon="1.87756">
        <ele>175.538306</ele>
        <time>2026-08-29T08:35:50Z</time>
      </trkpt>
      <trkpt lat="43.94177" lon="1.87756">
        <ele>175.574292</ele>
        <time>2026-08-29T08:35:51Z</time>
      </trkpt>
      <trkpt lat="43.9418" lon="1.87756">
        <ele>175.621717</ele>
        <time>2026-08-29T08:35:52Z</time>
      </trkpt>
      <trkpt lat="43.94182" lon="1.87755">
        <ele>175.666249</ele>
        <time>2026-08-29T08:35:53Z</time>
      </trkpt>
      <trkpt lat="43.94185" lon="1.87755">
        <ele>175.749571</ele>
        <time>2026-08-29T08:35:54Z</time>
      </trkpt>
      <trkpt lat="43.94188" lon="1.87755">
        <ele>175.847122</ele>
        <time>2026-08-29T08:35:55Z</time>
      </trkpt>
      <trkpt lat="43.94191" lon="1.87754">
        <ele>175.9384</ele>
        <time>2026-08-29T08:35:56Z</time>
      </trkpt>
      <trkpt lat="43.94194" lon="1.87754">
        <ele>176.038805</ele>
        <time>2026-08-29T08:35:57Z</time>
      </trkpt>
      <trkpt lat="43.94196" lon="1.87754">
        <ele>176.135643</ele>
        <time>2026-08-29T08:35:58Z</time>
      </trkpt>
      <trkpt lat="43.94199" lon="1.87753">
        <ele>176.220335</ele>
        <time>2026-08-29T08:35:59Z</time>
      </trkpt>
      <trkpt lat="43.94202" lon="1.87753">
        <ele>176.314911</ele>
        <time>2026-08-29T08:36:00Z</time>
      </trkpt>
      <trkpt lat="43.94205" lon="1.87751">
        <ele>176.432406</ele>
        <time>2026-08-29T08:36:01Z</time>
      </trkpt>
      <trkpt lat="43.94208" lon="1.87749">
        <ele>176.553036</ele>
        <time>2026-08-29T08:36:02Z</time>
      </trkpt>
      <trkpt lat="43.94212" lon="1.87748">
        <ele>176.664335</ele>
        <time>2026-08-29T08:36:03Z</time>
      </trkpt>
      <trkpt lat="43.94215" lon="1.87747">
        <ele>176.779878</ele>
        <time>2026-08-29T08:36:04Z</time>
      </trkpt>
      <trkpt lat="43.94219" lon="1.87746">
        <ele>176.906189</ele>
        <time>2026-08-29T08:36:05Z</time>
      </trkpt>
      <trkpt lat="43.94222" lon="1.87745">
        <ele>177.004744</ele>
        <time>2026-08-29T08:36:06Z</time>
      </trkpt>
      <trkpt lat="43.94224" lon="1.87744">
        <ele>177.103939</ele>
        <time>2026-08-29T08:36:07Z</time>
      </trkpt>
      <trkpt lat="43.94227" lon="1.87743">
        <ele>177.206395</ele>
        <time>2026-08-29T08:36:08Z</time>
      </trkpt>
      <trkpt lat="43.9423" lon="1.87741">
        <ele>177.307468</ele>
        <time>2026-08-29T08:36:09Z</time>
      </trkpt>
      <trkpt lat="43.94233" lon="1.8774">
        <ele>177.400159</ele>
        <time>2026-08-29T08:36:10Z</time>
      </trkpt>
      <trkpt lat="43.94236" lon="1.87739">
        <ele>177.49344</ele>
        <time>2026-08-29T08:36:11Z</time>
      </trkpt>
      <trkpt lat="43.94238" lon="1.87738">
        <ele>177.586529</ele>
        <time>2026-08-29T08:36:12Z</time>
      </trkpt>
      <trkpt lat="43.94241" lon="1.87736">
        <ele>177.676464</ele>
        <time>2026-08-29T08:36:13Z</time>
      </trkpt>
      <trkpt lat="43.94243" lon="1.87735">
        <ele>177.772673</ele>
        <time>2026-08-29T08:36:14Z</time>
      </trkpt>
      <trkpt lat="43.94246" lon="1.87734">
        <ele>177.873686</ele>
        <time>2026-08-29T08:36:15Z</time>
      </trkpt>
      <trkpt lat="43.94249" lon="1.87732">
        <ele>177.961542</ele>
        <time>2026-08-29T08:36:16Z</time>
      </trkpt>
      <trkpt lat="43.94251" lon="1.87731">
        <ele>178.038103</ele>
        <time>2026-08-29T08:36:17Z</time>
      </trkpt>
      <trkpt lat="43.94253" lon="1.8773">
        <ele>178.109062</ele>
        <time>2026-08-29T08:36:18Z</time>
      </trkpt>
      <trkpt lat="43.94255" lon="1.8773">
        <ele>178.184405</ele>
        <time>2026-08-29T08:36:19Z</time>
      </trkpt>
      <trkpt lat="43.94258" lon="1.87729">
        <ele>178.268721</ele>
        <time>2026-08-29T08:36:20Z</time>
      </trkpt>
      <trkpt lat="43.9426" lon="1.87729">
        <ele>178.346434</ele>
        <time>2026-08-29T08:36:21Z</time>
      </trkpt>
      <trkpt lat="43.94262" lon="1.87728">
        <ele>178.416907</ele>
        <time>2026-08-29T08:36:22Z</time>
      </trkpt>
      <trkpt lat="43.94264" lon="1.87728">
        <ele>178.4907</ele>
        <time>2026-08-29T08:36:23Z</time>
      </trkpt>
      <trkpt lat="43.94266" lon="1.87727">
        <ele>178.569301</ele>
        <time>2026-08-29T08:36:24Z</time>
      </trkpt>
      <trkpt lat="43.94269" lon="1.87726">
        <ele>178.660762</ele>
        <time>2026-08-29T08:36:25Z</time>
      </trkpt>
      <trkpt lat="43.94272" lon="1.87725">
        <ele>178.749875</ele>
        <time>2026-08-29T08:36:26Z</time>
      </trkpt>
      <trkpt lat="43.94274" lon="1.87724">
        <ele>178.828475</ele>
        <time>2026-08-29T08:36:27Z</time>
      </trkpt>
      <trkpt lat="43.94276" lon="1.87724">
        <ele>178.899234</ele>
        <time>2026-08-29T08:36:28Z</time>
      </trkpt>
      <trkpt lat="43.94279" lon="1.87723">
        <ele>178.986855</ele>
        <time>2026-08-29T08:36:29Z</time>
      </trkpt>
      <trkpt lat="43.94281" lon="1.87722">
        <ele>179.06872</ele>
        <time>2026-08-29T08:36:30Z</time>
      </trkpt>
      <trkpt lat="43.94283" lon="1.87721">
        <ele>179.142828</ele>
        <time>2026-08-29T08:36:31Z</time>
      </trkpt>
      <trkpt lat="43.94284" lon="1.87721">
        <ele>179.189372</ele>
        <time>2026-08-29T08:36:32Z</time>
      </trkpt>
      <trkpt lat="43.94286" lon="1.8772">
        <ele>179.235103</ele>
        <time>2026-08-29T08:36:33Z</time>
      </trkpt>
      <trkpt lat="43.94286" lon="1.8772">
        <ele>179.24493</ele>
        <time>2026-08-29T08:36:34Z</time>
      </trkpt>
      <trkpt lat="43.9429" lon="1.87712">
        <ele>179.484993</ele>
        <time>2026-08-29T08:36:41Z</time>
      </trkpt>
      <trkpt lat="43.94291" lon="1.87708">
        <ele>179.57076</ele>
        <time>2026-08-29T08:36:42Z</time>
      </trkpt>
      <trkpt lat="43.94291" lon="1.87705">
        <ele>179.655151</ele>
        <time>2026-08-29T08:36:43Z</time>
      </trkpt>
      <trkpt lat="43.94291" lon="1.87701">
        <ele>179.751815</ele>
        <time>2026-08-29T08:36:44Z</time>
      </trkpt>
      <trkpt lat="43.94292" lon="1.87697">
        <ele>179.849398</ele>
        <time>2026-08-29T08:36:45Z</time>
      </trkpt>
      <trkpt lat="43.94292" lon="1.87693">
        <ele>179.946007</ele>
        <time>2026-08-29T08:36:46Z</time>
      </trkpt>
      <trkpt lat="43.94293" lon="1.87689">
        <ele>180.042159</ele>
        <time>2026-08-29T08:36:47Z</time>
      </trkpt>
      <trkpt lat="43.94295" lon="1.87685">
        <ele>180.146904</ele>
        <time>2026-08-29T08:36:48Z</time>
      </trkpt>
      <trkpt lat="43.94296" lon="1.87681">
        <ele>180.261114</ele>
        <time>2026-08-29T08:36:49Z</time>
      </trkpt>
      <trkpt lat="43.94298" lon="1.87677">
        <ele>180.372359</ele>
        <time>2026-08-29T08:36:50Z</time>
      </trkpt>
      <trkpt lat="43.94299" lon="1.87673">
        <ele>180.482898</ele>
        <time>2026-08-29T08:36:51Z</time>
      </trkpt>
      <trkpt lat="43.94301" lon="1.87669">
        <ele>180.588383</ele>
        <time>2026-08-29T08:36:52Z</time>
      </trkpt>
      <trkpt lat="43.94302" lon="1.87665">
        <ele>180.706293</ele>
        <time>2026-08-29T08:36:53Z</time>
      </trkpt>
      <trkpt lat="43.94304" lon="1.8766">
        <ele>180.824203</ele>
        <time>2026-08-29T08:36:54Z</time>
      </trkpt>
      <trkpt lat="43.94306" lon="1.87655">
        <ele>180.953525</ele>
        <time>2026-08-29T08:36:55Z</time>
      </trkpt>
      <trkpt lat="43.94307" lon="1.87651">
        <ele>181.077804</ele>
        <time>2026-08-29T08:36:56Z</time>
      </trkpt>
      <trkpt lat="43.94309" lon="1.87646">
        <ele>181.197842</ele>
        <time>2026-08-29T08:36:57Z</time>
      </trkpt>
      <trkpt lat="43.9431" lon="1.87642">
        <ele>181.312688</ele>
        <time>2026-08-29T08:36:58Z</time>
      </trkpt>
      <trkpt lat="43.94312" lon="1.87637">
        <ele>181.429701</ele>
        <time>2026-08-29T08:36:59Z</time>
      </trkpt>
      <trkpt lat="43.94313" lon="1.87633">
        <ele>181.541792</ele>
        <time>2026-08-29T08:37:00Z</time>
      </trkpt>
      <trkpt lat="43.94315" lon="1.87629">
        <ele>181.653884</ele>
        <time>2026-08-29T08:37:01Z</time>
      </trkpt>
      <trkpt lat="43.94317" lon="1.87625">
        <ele>181.742995</ele>
        <time>2026-08-29T08:37:02Z</time>
      </trkpt>
      <trkpt lat="43.94319" lon="1.87621">
        <ele>181.834108</ele>
        <time>2026-08-29T08:37:03Z</time>
      </trkpt>
      <trkpt lat="43.9432" lon="1.87616">
        <ele>181.918798</ele>
        <time>2026-08-29T08:37:04Z</time>
      </trkpt>
      <trkpt lat="43.94322" lon="1.87612">
        <ele>182.006569</ele>
        <time>2026-08-29T08:37:05Z</time>
      </trkpt>
      <trkpt lat="43.94323" lon="1.87607">
        <ele>182.099008</ele>
        <time>2026-08-29T08:37:06Z</time>
      </trkpt>
      <trkpt lat="43.94325" lon="1.87602">
        <ele>182.1848</ele>
        <time>2026-08-29T08:37:07Z</time>
      </trkpt>
      <trkpt lat="43.94327" lon="1.87598">
        <ele>182.269082</ele>
        <time>2026-08-29T08:37:08Z</time>
      </trkpt>
      <trkpt lat="43.94328" lon="1.87593">
        <ele>182.356391</ele>
        <time>2026-08-29T08:37:09Z</time>
      </trkpt>
      <trkpt lat="43.9433" lon="1.87589">
        <ele>182.438895</ele>
        <time>2026-08-29T08:37:10Z</time>
      </trkpt>
      <trkpt lat="43.94332" lon="1.87585">
        <ele>182.521398</ele>
        <time>2026-08-29T08:37:11Z</time>
      </trkpt>
      <trkpt lat="43.94334" lon="1.87581">
        <ele>182.600014</ele>
        <time>2026-08-29T08:37:12Z</time>
      </trkpt>
      <trkpt lat="43.94335" lon="1.87577">
        <ele>182.678631</ele>
        <time>2026-08-29T08:37:13Z</time>
      </trkpt>
      <trkpt lat="43.94337" lon="1.87573">
        <ele>182.759917</ele>
        <time>2026-08-29T08:37:14Z</time>
      </trkpt>
      <trkpt lat="43.94339" lon="1.87569">
        <ele>182.845137</ele>
        <time>2026-08-29T08:37:15Z</time>
      </trkpt>
      <trkpt lat="43.94341" lon="1.87565">
        <ele>182.927468</ele>
        <time>2026-08-29T08:37:16Z</time>
      </trkpt>
      <trkpt lat="43.94343" lon="1.87561">
        <ele>183.009971</ele>
        <time>2026-08-29T08:37:17Z</time>
      </trkpt>
      <trkpt lat="43.94345" lon="1.87557">
        <ele>183.092234</ele>
        <time>2026-08-29T08:37:18Z</time>
      </trkpt>
      <trkpt lat="43.94347" lon="1.87553">
        <ele>183.173179</ele>
        <time>2026-08-29T08:37:19Z</time>
      </trkpt>
      <trkpt lat="43.94349" lon="1.87549">
        <ele>183.256847</ele>
        <time>2026-08-29T08:37:20Z</time>
      </trkpt>
      <trkpt lat="43.94351" lon="1.87545">
        <ele>183.340515</ele>
        <time>2026-08-29T08:37:21Z</time>
      </trkpt>
      <trkpt lat="43.94352" lon="1.87541">
        <ele>183.425971</ele>
        <time>2026-08-29T08:37:22Z</time>
      </trkpt>
      <trkpt lat="43.94354" lon="1.87537">
        <ele>183.51412</ele>
        <time>2026-08-29T08:37:23Z</time>
      </trkpt>
      <trkpt lat="43.94356" lon="1.87532">
        <ele>183.596899</ele>
        <time>2026-08-29T08:37:24Z</time>
      </trkpt>
      <trkpt lat="43.94358" lon="1.87529">
        <ele>183.675048</ele>
        <time>2026-08-29T08:37:25Z</time>
      </trkpt>
      <trkpt lat="43.94359" lon="1.87525">
        <ele>183.750678</ele>
        <time>2026-08-29T08:37:26Z</time>
      </trkpt>
      <trkpt lat="43.94361" lon="1.87521">
        <ele>183.829692</ele>
        <time>2026-08-29T08:37:27Z</time>
      </trkpt>
      <trkpt lat="43.94362" lon="1.87516">
        <ele>183.911783</ele>
        <time>2026-08-29T08:37:28Z</time>
      </trkpt>
      <trkpt lat="43.94364" lon="1.87512">
        <ele>183.999092</ele>
        <time>2026-08-29T08:37:29Z</time>
      </trkpt>
      <trkpt lat="43.94366" lon="1.87507">
        <ele>184.089041</ele>
        <time>2026-08-29T08:37:30Z</time>
      </trkpt>
      <trkpt lat="43.94368" lon="1.87503">
        <ele>184.177484</ele>
        <time>2026-08-29T08:37:31Z</time>
      </trkpt>
      <trkpt lat="43.94369" lon="1.87499">
        <ele>184.2561</ele>
        <time>2026-08-29T08:37:32Z</time>
      </trkpt>
      <trkpt lat="43.94371" lon="1.87494">
        <ele>184.341555</ele>
        <time>2026-08-29T08:37:33Z</time>
      </trkpt>
      <trkpt lat="43.94373" lon="1.8749">
        <ele>184.430389</ele>
        <time>2026-08-29T08:37:34Z</time>
      </trkpt>
      <trkpt lat="43.94375" lon="1.87485">
        <ele>184.529046</ele>
        <time>2026-08-29T08:37:35Z</time>
      </trkpt>
      <trkpt lat="43.94377" lon="1.87479">
        <ele>184.631282</ele>
        <time>2026-08-29T08:37:36Z</time>
      </trkpt>
      <trkpt lat="43.94378" lon="1.87474">
        <ele>184.72686</ele>
        <time>2026-08-29T08:37:37Z</time>
      </trkpt>
      <trkpt lat="43.9438" lon="1.87469">
        <ele>184.822438</ele>
        <time>2026-08-29T08:37:38Z</time>
      </trkpt>
      <trkpt lat="43.94381" lon="1.87464">
        <ele>184.914342</ele>
        <time>2026-08-29T08:37:39Z</time>
      </trkpt>
      <trkpt lat="43.94383" lon="1.87459">
        <ele>185.01246</ele>
        <time>2026-08-29T08:37:40Z</time>
      </trkpt>
      <trkpt lat="43.94385" lon="1.87453">
        <ele>185.120049</ele>
        <time>2026-08-29T08:37:41Z</time>
      </trkpt>
      <trkpt lat="43.94387" lon="1.87448">
        <ele>185.226048</ele>
        <time>2026-08-29T08:37:42Z</time>
      </trkpt>
      <trkpt lat="43.94388" lon="1.87442">
        <ele>185.335525</ele>
        <time>2026-08-29T08:37:43Z</time>
      </trkpt>
      <trkpt lat="43.9439" lon="1.87436">
        <ele>185.443114</ele>
        <time>2026-08-29T08:37:44Z</time>
      </trkpt>
      <trkpt lat="43.94392" lon="1.87431">
        <ele>185.545029</ele>
        <time>2026-08-29T08:37:45Z</time>
      </trkpt>
      <trkpt lat="43.94394" lon="1.87425">
        <ele>185.656072</ele>
        <time>2026-08-29T08:37:46Z</time>
      </trkpt>
      <trkpt lat="43.94396" lon="1.87419">
        <ele>185.766558</ele>
        <time>2026-08-29T08:37:47Z</time>
      </trkpt>
      <trkpt lat="43.94397" lon="1.87413">
        <ele>185.870972</ele>
        <time>2026-08-29T08:37:48Z</time>
      </trkpt>
      <trkpt lat="43.94399" lon="1.87408">
        <ele>185.967215</ele>
        <time>2026-08-29T08:37:49Z</time>
      </trkpt>
      <trkpt lat="43.944" lon="1.87403">
        <ele>186.096556</ele>
        <time>2026-08-29T08:37:50Z</time>
      </trkpt>
      <trkpt lat="43.94402" lon="1.87398">
        <ele>186.223441</ele>
        <time>2026-08-29T08:37:51Z</time>
      </trkpt>
      <trkpt lat="43.94403" lon="1.87393">
        <ele>186.346987</ele>
        <time>2026-08-29T08:37:52Z</time>
      </trkpt>
      <trkpt lat="43.94405" lon="1.87388">
        <ele>186.467197</ele>
        <time>2026-08-29T08:37:53Z</time>
      </trkpt>
      <trkpt lat="43.94407" lon="1.87382">
        <ele>186.605177</ele>
        <time>2026-08-29T08:37:54Z</time>
      </trkpt>
      <trkpt lat="43.94409" lon="1.87377">
        <ele>186.742974</ele>
        <time>2026-08-29T08:37:55Z</time>
      </trkpt>
      <trkpt lat="43.9441" lon="1.87371">
        <ele>186.887028</ele>
        <time>2026-08-29T08:37:56Z</time>
      </trkpt>
      <trkpt lat="43.94412" lon="1.87365">
        <ele>187.033179</ele>
        <time>2026-08-29T08:37:57Z</time>
      </trkpt>
      <trkpt lat="43.94414" lon="1.87359">
        <ele>187.170543</ele>
        <time>2026-08-29T08:37:58Z</time>
      </trkpt>
      <trkpt lat="43.94415" lon="1.87354">
        <ele>187.313373</ele>
        <time>2026-08-29T08:37:59Z</time>
      </trkpt>
      <trkpt lat="43.94417" lon="1.87348">
        <ele>187.458318</ele>
        <time>2026-08-29T08:38:00Z</time>
      </trkpt>
      <trkpt lat="43.94419" lon="1.87342">
        <ele>187.596114</ele>
        <time>2026-08-29T08:38:01Z</time>
      </trkpt>
      <trkpt lat="43.9442" lon="1.87337">
        <ele>187.728451</ele>
        <time>2026-08-29T08:38:02Z</time>
      </trkpt>
      <trkpt lat="43.94422" lon="1.87332">
        <ele>187.853918</ele>
        <time>2026-08-29T08:38:03Z</time>
      </trkpt>
      <trkpt lat="43.94424" lon="1.87327">
        <ele>187.978851</ele>
        <time>2026-08-29T08:38:04Z</time>
      </trkpt>
      <trkpt lat="43.94426" lon="1.87323">
        <ele>188.098817</ele>
        <time>2026-08-29T08:38:05Z</time>
      </trkpt>
      <trkpt lat="43.94428" lon="1.87318">
        <ele>188.220237</ele>
        <time>2026-08-29T08:38:06Z</time>
      </trkpt>
      <trkpt lat="43.9443" lon="1.87313">
        <ele>188.33922</ele>
        <time>2026-08-29T08:38:07Z</time>
      </trkpt>
      <trkpt lat="43.94431" lon="1.87309">
        <ele>188.456633</ele>
        <time>2026-08-29T08:38:08Z</time>
      </trkpt>
      <trkpt lat="43.94433" lon="1.87305">
        <ele>188.565931</ele>
        <time>2026-08-29T08:38:09Z</time>
      </trkpt>
      <trkpt lat="43.94435" lon="1.87301">
        <ele>188.675457</ele>
        <time>2026-08-29T08:38:10Z</time>
      </trkpt>
      <trkpt lat="43.94437" lon="1.87297">
        <ele>188.777836</ele>
        <time>2026-08-29T08:38:11Z</time>
      </trkpt>
      <trkpt lat="43.94438" lon="1.87293">
        <ele>188.883495</ele>
        <time>2026-08-29T08:38:12Z</time>
      </trkpt>
      <trkpt lat="43.9444" lon="1.87289">
        <ele>188.989154</ele>
        <time>2026-08-29T08:38:13Z</time>
      </trkpt>
      <trkpt lat="43.94442" lon="1.87285">
        <ele>189.096512</ele>
        <time>2026-08-29T08:38:14Z</time>
      </trkpt>
      <trkpt lat="43.94444" lon="1.87281">
        <ele>189.202032</ele>
        <time>2026-08-29T08:38:15Z</time>
      </trkpt>
      <trkpt lat="43.94446" lon="1.87278">
        <ele>189.307708</ele>
        <time>2026-08-29T08:38:16Z</time>
      </trkpt>
      <trkpt lat="43.94448" lon="1.87274">
        <ele>189.404002</ele>
        <time>2026-08-29T08:38:17Z</time>
      </trkpt>
      <trkpt lat="43.9445" lon="1.87271">
        <ele>189.50585</ele>
        <time>2026-08-29T08:38:18Z</time>
      </trkpt>
      <trkpt lat="43.94452" lon="1.87267">
        <ele>189.609505</ele>
        <time>2026-08-29T08:38:19Z</time>
      </trkpt>
      <trkpt lat="43.94454" lon="1.87263">
        <ele>189.711311</ele>
        <time>2026-08-29T08:38:20Z</time>
      </trkpt>
      <trkpt lat="43.94455" lon="1.8726">
        <ele>189.809752</ele>
        <time>2026-08-29T08:38:21Z</time>
      </trkpt>
      <trkpt lat="43.94457" lon="1.87256">
        <ele>189.906245</ele>
        <time>2026-08-29T08:38:22Z</time>
      </trkpt>
      <trkpt lat="43.94458" lon="1.87253">
        <ele>189.991649</ele>
        <time>2026-08-29T08:38:23Z</time>
      </trkpt>
      <trkpt lat="43.9446" lon="1.8725">
        <ele>190.07874</ele>
        <time>2026-08-29T08:38:24Z</time>
      </trkpt>
      <trkpt lat="43.94461" lon="1.87246">
        <ele>190.167751</ele>
        <time>2026-08-29T08:38:25Z</time>
      </trkpt>
      <trkpt lat="43.94463" lon="1.87243">
        <ele>190.26231</ele>
        <time>2026-08-29T08:38:26Z</time>
      </trkpt>
      <trkpt lat="43.94464" lon="1.87239">
        <ele>190.35687</ele>
        <time>2026-08-29T08:38:27Z</time>
      </trkpt>
      <trkpt lat="43.94466" lon="1.87236">
        <ele>190.449418</ele>
        <time>2026-08-29T08:38:28Z</time>
      </trkpt>
      <trkpt lat="43.94468" lon="1.87233">
        <ele>190.545672</ele>
        <time>2026-08-29T08:38:29Z</time>
      </trkpt>
      <trkpt lat="43.9447" lon="1.87229">
        <ele>190.649418</ele>
        <time>2026-08-29T08:38:30Z</time>
      </trkpt>
      <trkpt lat="43.94471" lon="1.87225">
        <ele>190.749384</ele>
        <time>2026-08-29T08:38:31Z</time>
      </trkpt>
      <trkpt lat="43.94473" lon="1.87222">
        <ele>190.849359</ele>
        <time>2026-08-29T08:38:32Z</time>
      </trkpt>
      <trkpt lat="43.94475" lon="1.87218">
        <ele>190.947523</ele>
        <time>2026-08-29T08:38:33Z</time>
      </trkpt>
      <trkpt lat="43.94477" lon="1.87215">
        <ele>191.043818</ele>
        <time>2026-08-29T08:38:34Z</time>
      </trkpt>
      <trkpt lat="43.94479" lon="1.87212">
        <ele>191.138244</ele>
        <time>2026-08-29T08:38:35Z</time>
      </trkpt>
      <trkpt lat="43.94481" lon="1.87208">
        <ele>191.234498</ele>
        <time>2026-08-29T08:38:36Z</time>
      </trkpt>
      <trkpt lat="43.94482" lon="1.87205">
        <ele>191.327352</ele>
        <time>2026-08-29T08:38:37Z</time>
      </trkpt>
      <trkpt lat="43.94484" lon="1.87202">
        <ele>191.421911</ele>
        <time>2026-08-29T08:38:38Z</time>
      </trkpt>
      <trkpt lat="43.94486" lon="1.87198">
        <ele>191.520105</ele>
        <time>2026-08-29T08:38:39Z</time>
      </trkpt>
      <trkpt lat="43.94487" lon="1.87194">
        <ele>191.616597</ele>
        <time>2026-08-29T08:38:40Z</time>
      </trkpt>
      <trkpt lat="43.94489" lon="1.87191">
        <ele>191.656806</ele>
        <time>2026-08-29T08:38:41Z</time>
      </trkpt>
      <trkpt lat="43.94491" lon="1.87187">
        <ele>191.634193</ele>
        <time>2026-08-29T08:38:42Z</time>
      </trkpt>
      <trkpt lat="43.94493" lon="1.87183">
        <ele>191.609473</ele>
        <time>2026-08-29T08:38:43Z</time>
      </trkpt>
      <trkpt lat="43.94495" lon="1.87178">
        <ele>191.584422</ele>
        <time>2026-08-29T08:38:44Z</time>
      </trkpt>
      <trkpt lat="43.94497" lon="1.87174">
        <ele>191.559839</ele>
        <time>2026-08-29T08:38:45Z</time>
      </trkpt>
      <trkpt lat="43.94499" lon="1.87169">
        <ele>191.532791</ele>
        <time>2026-08-29T08:38:46Z</time>
      </trkpt>
      <trkpt lat="43.94501" lon="1.87164">
        <ele>191.506802</ele>
        <time>2026-08-29T08:38:47Z</time>
      </trkpt>
      <trkpt lat="43.94503" lon="1.87159">
        <ele>191.478491</ele>
        <time>2026-08-29T08:38:48Z</time>
      </trkpt>
      <trkpt lat="43.94505" lon="1.87154">
        <ele>191.449861</ele>
        <time>2026-08-29T08:38:49Z</time>
      </trkpt>
      <trkpt lat="43.94507" lon="1.87148">
        <ele>191.420144</ele>
        <time>2026-08-29T08:38:50Z</time>
      </trkpt>
      <trkpt lat="43.94509" lon="1.87143">
        <ele>191.390015</ele>
        <time>2026-08-29T08:38:51Z</time>
      </trkpt>
      <trkpt lat="43.94512" lon="1.87137">
        <ele>191.358306</ele>
        <time>2026-08-29T08:38:52Z</time>
      </trkpt>
      <trkpt lat="43.94514" lon="1.87131">
        <ele>191.324182</ele>
        <time>2026-08-29T08:38:53Z</time>
      </trkpt>
      <trkpt lat="43.94517" lon="1.87125">
        <ele>191.288794</ele>
        <time>2026-08-29T08:38:54Z</time>
      </trkpt>
      <trkpt lat="43.94519" lon="1.87118">
        <ele>191.251177</ele>
        <time>2026-08-29T08:38:55Z</time>
      </trkpt>
      <trkpt lat="43.94522" lon="1.87111">
        <ele>191.214379</ele>
        <time>2026-08-29T08:38:56Z</time>
      </trkpt>
      <trkpt lat="43.94524" lon="1.87104">
        <ele>191.176128</ele>
        <time>2026-08-29T08:38:57Z</time>
      </trkpt>
      <trkpt lat="43.94527" lon="1.87096">
        <ele>191.136408</ele>
        <time>2026-08-29T08:38:58Z</time>
      </trkpt>
      <trkpt lat="43.9453" lon="1.87089">
        <ele>191.097112</ele>
        <time>2026-08-29T08:38:59Z</time>
      </trkpt>
      <trkpt lat="43.94533" lon="1.87082">
        <ele>191.05833</ele>
        <time>2026-08-29T08:39:00Z</time>
      </trkpt>
      <trkpt lat="43.94536" lon="1.87075">
        <ele>191.016601</ele>
        <time>2026-08-29T08:39:01Z</time>
      </trkpt>
      <trkpt lat="43.94539" lon="1.87067">
        <ele>190.975177</ele>
        <time>2026-08-29T08:39:02Z</time>
      </trkpt>
      <trkpt lat="43.94542" lon="1.87059">
        <ele>190.932594</ele>
        <time>2026-08-29T08:39:03Z</time>
      </trkpt>
      <trkpt lat="43.94545" lon="1.87051">
        <ele>190.888647</ele>
        <time>2026-08-29T08:39:04Z</time>
      </trkpt>
      <trkpt lat="43.94548" lon="1.87043">
        <ele>190.843011</ele>
        <time>2026-08-29T08:39:05Z</time>
      </trkpt>
      <trkpt lat="43.94551" lon="1.87034">
        <ele>190.798644</ele>
        <time>2026-08-29T08:39:06Z</time>
      </trkpt>
      <trkpt lat="43.94554" lon="1.87026">
        <ele>190.753617</ele>
        <time>2026-08-29T08:39:07Z</time>
      </trkpt>
      <trkpt lat="43.94557" lon="1.87018">
        <ele>190.708087</ele>
        <time>2026-08-29T08:39:08Z</time>
      </trkpt>
      <trkpt lat="43.94561" lon="1.8701">
        <ele>190.663612</ele>
        <time>2026-08-29T08:39:09Z</time>
      </trkpt>
      <trkpt lat="43.94563" lon="1.87001">
        <ele>190.619741</ele>
        <time>2026-08-29T08:39:10Z</time>
      </trkpt>
      <trkpt lat="43.94566" lon="1.86993">
        <ele>190.57587</ele>
        <time>2026-08-29T08:39:11Z</time>
      </trkpt>
      <trkpt lat="43.94569" lon="1.86985">
        <ele>190.533288</ele>
        <time>2026-08-29T08:39:12Z</time>
      </trkpt>
      <trkpt lat="43.94572" lon="1.86978">
        <ele>190.491667</ele>
        <time>2026-08-29T08:39:13Z</time>
      </trkpt>
      <trkpt lat="43.94575" lon="1.8697">
        <ele>190.561537</ele>
        <time>2026-08-29T08:39:14Z</time>
      </trkpt>
      <trkpt lat="43.94578" lon="1.86963">
        <ele>190.805571</ele>
        <time>2026-08-29T08:39:15Z</time>
      </trkpt>
      <trkpt lat="43.9458" lon="1.86957">
        <ele>191.023387</ele>
        <time>2026-08-29T08:39:16Z</time>
      </trkpt>
      <trkpt lat="43.94584" lon="1.86951">
        <ele>191.233625</ele>
        <time>2026-08-29T08:39:17Z</time>
      </trkpt>
      <trkpt lat="43.94587" lon="1.86947">
        <ele>191.418486</ele>
        <time>2026-08-29T08:39:18Z</time>
      </trkpt>
      <trkpt lat="43.94591" lon="1.86945">
        <ele>191.594407</ele>
        <time>2026-08-29T08:39:19Z</time>
      </trkpt>
      <trkpt lat="43.94595" lon="1.86943">
        <ele>191.771426</ele>
        <time>2026-08-29T08:39:20Z</time>
      </trkpt>
      <trkpt lat="43.94598" lon="1.86943">
        <ele>191.926635</ele>
        <time>2026-08-29T08:39:21Z</time>
      </trkpt>
      <trkpt lat="43.94602" lon="1.86943">
        <ele>192.064414</ele>
        <time>2026-08-29T08:39:22Z</time>
      </trkpt>
      <trkpt lat="43.94605" lon="1.86943">
        <ele>192.189811</ele>
        <time>2026-08-29T08:39:23Z</time>
      </trkpt>
      <trkpt lat="43.94608" lon="1.86943">
        <ele>192.311039</ele>
        <time>2026-08-29T08:39:24Z</time>
      </trkpt>
      <trkpt lat="43.94611" lon="1.86944">
        <ele>192.441718</ele>
        <time>2026-08-29T08:39:25Z</time>
      </trkpt>
      <trkpt lat="43.94614" lon="1.86945">
        <ele>192.567231</ele>
        <time>2026-08-29T08:39:26Z</time>
      </trkpt>
      <trkpt lat="43.94616" lon="1.86946">
        <ele>192.68654</ele>
        <time>2026-08-29T08:39:27Z</time>
      </trkpt>
      <trkpt lat="43.94619" lon="1.86947">
        <ele>192.799179</ele>
        <time>2026-08-29T08:39:28Z</time>
      </trkpt>
      <trkpt lat="43.94621" lon="1.86948">
        <ele>192.907006</ele>
        <time>2026-08-29T08:39:29Z</time>
      </trkpt>
      <trkpt lat="43.94624" lon="1.86949">
        <ele>193.022271</ele>
        <time>2026-08-29T08:39:30Z</time>
      </trkpt>
      <trkpt lat="43.94627" lon="1.86949">
        <ele>193.137535</ele>
        <time>2026-08-29T08:39:31Z</time>
      </trkpt>
      <trkpt lat="43.9463" lon="1.8695">
        <ele>193.255822</ele>
        <time>2026-08-29T08:39:32Z</time>
      </trkpt>
      <trkpt lat="43.94632" lon="1.86951">
        <ele>193.364442</ele>
        <time>2026-08-29T08:39:33Z</time>
      </trkpt>
      <trkpt lat="43.94635" lon="1.86952">
        <ele>193.487704</ele>
        <time>2026-08-29T08:39:34Z</time>
      </trkpt>
      <trkpt lat="43.94637" lon="1.86954">
        <ele>193.591379</ele>
        <time>2026-08-29T08:39:35Z</time>
      </trkpt>
      <trkpt lat="43.94639" lon="1.86955">
        <ele>193.691199</ele>
        <time>2026-08-29T08:39:36Z</time>
      </trkpt>
      <trkpt lat="43.94642" lon="1.86956">
        <ele>193.801079</ele>
        <time>2026-08-29T08:39:37Z</time>
      </trkpt>
      <trkpt lat="43.94644" lon="1.86958">
        <ele>193.895887</ele>
        <time>2026-08-29T08:39:38Z</time>
      </trkpt>
      <trkpt lat="43.94646" lon="1.86959">
        <ele>194.00843</ele>
        <time>2026-08-29T08:39:39Z</time>
      </trkpt>
      <trkpt lat="43.94649" lon="1.8696">
        <ele>194.121068</ele>
        <time>2026-08-29T08:39:40Z</time>
      </trkpt>
      <trkpt lat="43.94652" lon="1.86961">
        <ele>194.24341</ele>
        <time>2026-08-29T08:39:41Z</time>
      </trkpt>
      <trkpt lat="43.94654" lon="1.86962">
        <ele>194.353452</ele>
        <time>2026-08-29T08:39:42Z</time>
      </trkpt>
      <trkpt lat="43.94658" lon="1.86963">
        <ele>194.515245</ele>
        <time>2026-08-29T08:39:43Z</time>
      </trkpt>
      <trkpt lat="43.94661" lon="1.86965">
        <ele>194.648831</ele>
        <time>2026-08-29T08:39:44Z</time>
      </trkpt>
      <trkpt lat="43.94664" lon="1.86965">
        <ele>194.788693</ele>
        <time>2026-08-29T08:39:45Z</time>
      </trkpt>
      <trkpt lat="43.94668" lon="1.86965">
        <ele>194.92233</ele>
        <time>2026-08-29T08:39:46Z</time>
      </trkpt>
      <trkpt lat="43.94671" lon="1.86965">
        <ele>195.06024</ele>
        <time>2026-08-29T08:39:47Z</time>
      </trkpt>
      <trkpt lat="43.94675" lon="1.86965">
        <ele>195.223181</ele>
        <time>2026-08-29T08:39:48Z</time>
      </trkpt>
      <trkpt lat="43.94678" lon="1.86965">
        <ele>195.352923</ele>
        <time>2026-08-29T08:39:49Z</time>
      </trkpt>
      <trkpt lat="43.94681" lon="1.86965">
        <ele>195.491225</ele>
        <time>2026-08-29T08:39:50Z</time>
      </trkpt>
      <trkpt lat="43.94684" lon="1.86964">
        <ele>195.627541</ele>
        <time>2026-08-29T08:39:51Z</time>
      </trkpt>
      <trkpt lat="43.94688" lon="1.86963">
        <ele>195.759185</ele>
        <time>2026-08-29T08:39:52Z</time>
      </trkpt>
      <trkpt lat="43.94691" lon="1.86962">
        <ele>195.900876</ele>
        <time>2026-08-29T08:39:53Z</time>
      </trkpt>
      <trkpt lat="43.94693" lon="1.86961">
        <ele>196.015265</ele>
        <time>2026-08-29T08:39:54Z</time>
      </trkpt>
      <trkpt lat="43.94696" lon="1.86959">
        <ele>196.126719</ele>
        <time>2026-08-29T08:39:55Z</time>
      </trkpt>
      <trkpt lat="43.94698" lon="1.86958">
        <ele>196.233217</ele>
        <time>2026-08-29T08:39:56Z</time>
      </trkpt>
      <trkpt lat="43.94701" lon="1.86957">
        <ele>196.341898</ele>
        <time>2026-08-29T08:39:57Z</time>
      </trkpt>
      <trkpt lat="43.94703" lon="1.86955">
        <ele>196.447985</ele>
        <time>2026-08-29T08:39:58Z</time>
      </trkpt>
      <trkpt lat="43.94705" lon="1.86954">
        <ele>196.550308</ele>
        <time>2026-08-29T08:39:59Z</time>
      </trkpt>
      <trkpt lat="43.94708" lon="1.86953">
        <ele>196.652887</ele>
        <time>2026-08-29T08:40:00Z</time>
      </trkpt>
      <trkpt lat="43.9471" lon="1.86951">
        <ele>196.750142</ele>
        <time>2026-08-29T08:40:01Z</time>
      </trkpt>
      <trkpt lat="43.94712" lon="1.8695">
        <ele>196.85892</ele>
        <time>2026-08-29T08:40:02Z</time>
      </trkpt>
      <trkpt lat="43.94714" lon="1.86948">
        <ele>196.965525</ele>
        <time>2026-08-29T08:40:03Z</time>
      </trkpt>
      <trkpt lat="43.94716" lon="1.86946">
        <ele>197.061548</ele>
        <time>2026-08-29T08:40:04Z</time>
      </trkpt>
      <trkpt lat="43.94718" lon="1.86945">
        <ele>197.161368</ele>
        <time>2026-08-29T08:40:05Z</time>
      </trkpt>
      <trkpt lat="43.94721" lon="1.86943">
        <ele>197.27159</ele>
        <time>2026-08-29T08:40:06Z</time>
      </trkpt>
      <trkpt lat="43.94723" lon="1.86941">
        <ele>197.383043</ele>
        <time>2026-08-29T08:40:07Z</time>
      </trkpt>
      <trkpt lat="43.94725" lon="1.86939">
        <ele>197.489648</ele>
        <time>2026-08-29T08:40:08Z</time>
      </trkpt>
      <trkpt lat="43.94727" lon="1.86937">
        <ele>197.595735</ele>
        <time>2026-08-29T08:40:09Z</time>
      </trkpt>
      <trkpt lat="43.94729" lon="1.86935">
        <ele>197.698628</ele>
        <time>2026-08-29T08:40:10Z</time>
      </trkpt>
      <trkpt lat="43.94731" lon="1.86934">
        <ele>197.795882</ele>
        <time>2026-08-29T08:40:11Z</time>
      </trkpt>
      <trkpt lat="43.94733" lon="1.86933">
        <ele>197.890781</ele>
        <time>2026-08-29T08:40:12Z</time>
      </trkpt>
      <trkpt lat="43.94735" lon="1.86931">
        <ele>197.973096</ele>
        <time>2026-08-29T08:40:13Z</time>
      </trkpt>
      <trkpt lat="43.94736" lon="1.86929">
        <ele>198.142974</ele>
        <time>2026-08-29T08:40:14Z</time>
      </trkpt>
      <trkpt lat="43.94737" lon="1.86928">
        <ele>198.311529</ele>
        <time>2026-08-29T08:40:15Z</time>
      </trkpt>
      <trkpt lat="43.94739" lon="1.86927">
        <ele>198.514648</ele>
        <time>2026-08-29T08:40:16Z</time>
      </trkpt>
      <trkpt lat="43.94741" lon="1.86926">
        <ele>198.708909</ele>
        <time>2026-08-29T08:40:17Z</time>
      </trkpt>
      <trkpt lat="43.94742" lon="1.86924">
        <ele>198.906246</ele>
        <time>2026-08-29T08:40:18Z</time>
      </trkpt>
      <trkpt lat="43.94744" lon="1.86923">
        <ele>199.116336</ele>
        <time>2026-08-29T08:40:19Z</time>
      </trkpt>
      <trkpt lat="43.94746" lon="1.86923">
        <ele>199.300899</ele>
        <time>2026-08-29T08:40:20Z</time>
      </trkpt>
      <trkpt lat="43.94748" lon="1.86922">
        <ele>199.499761</ele>
        <time>2026-08-29T08:40:21Z</time>
      </trkpt>
      <trkpt lat="43.94749" lon="1.86921">
        <ele>199.681905</ele>
        <time>2026-08-29T08:40:22Z</time>
      </trkpt>
      <trkpt lat="43.94751" lon="1.86919">
        <ele>199.910945</ele>
        <time>2026-08-29T08:40:23Z</time>
      </trkpt>
      <trkpt lat="43.94753" lon="1.86917">
        <ele>200.127599</ele>
        <time>2026-08-29T08:40:24Z</time>
      </trkpt>
      <trkpt lat="43.94755" lon="1.86915">
        <ele>200.373949</ele>
        <time>2026-08-29T08:40:25Z</time>
      </trkpt>
      <trkpt lat="43.94756" lon="1.86914">
        <ele>200.57766</ele>
        <time>2026-08-29T08:40:26Z</time>
      </trkpt>
      <trkpt lat="43.94758" lon="1.86912">
        <ele>200.819661</ele>
        <time>2026-08-29T08:40:27Z</time>
      </trkpt>
      <trkpt lat="43.9476" lon="1.8691">
        <ele>201.04008</ele>
        <time>2026-08-29T08:40:28Z</time>
      </trkpt>
      <trkpt lat="43.94761" lon="1.86909">
        <ele>201.231413</ele>
        <time>2026-08-29T08:40:29Z</time>
      </trkpt>
      <trkpt lat="43.94763" lon="1.86908">
        <ele>201.435403</ele>
        <time>2026-08-29T08:40:30Z</time>
      </trkpt>
      <trkpt lat="43.94765" lon="1.86907">
        <ele>201.639602</ele>
        <time>2026-08-29T08:40:31Z</time>
      </trkpt>
      <trkpt lat="43.94767" lon="1.86905">
        <ele>201.859224</ele>
        <time>2026-08-29T08:40:32Z</time>
      </trkpt>
      <trkpt lat="43.94769" lon="1.86904">
        <ele>202.082891</ele>
        <time>2026-08-29T08:40:33Z</time>
      </trkpt>
      <trkpt lat="43.9477" lon="1.86903">
        <ele>202.284191</ele>
        <time>2026-08-29T08:40:34Z</time>
      </trkpt>
      <trkpt lat="43.94772" lon="1.86903">
        <ele>202.48549</ele>
        <time>2026-08-29T08:40:35Z</time>
      </trkpt>
      <trkpt lat="43.94774" lon="1.86901">
        <ele>202.671531</ele>
        <time>2026-08-29T08:40:36Z</time>
      </trkpt>
      <trkpt lat="43.94776" lon="1.869">
        <ele>202.885327</ele>
        <time>2026-08-29T08:40:37Z</time>
      </trkpt>
      <trkpt lat="43.94778" lon="1.869">
        <ele>203.160579</ele>
        <time>2026-08-29T08:40:38Z</time>
      </trkpt>
      <trkpt lat="43.9478" lon="1.86899">
        <ele>203.398066</ele>
        <time>2026-08-29T08:40:39Z</time>
      </trkpt>
      <trkpt lat="43.94783" lon="1.86899">
        <ele>203.622258</ele>
        <time>2026-08-29T08:40:40Z</time>
      </trkpt>
      <trkpt lat="43.94784" lon="1.86898">
        <ele>203.811125</ele>
        <time>2026-08-29T08:40:41Z</time>
      </trkpt>
      <trkpt lat="43.94786" lon="1.86897">
        <ele>204.002557</ele>
        <time>2026-08-29T08:40:42Z</time>
      </trkpt>
      <trkpt lat="43.94788" lon="1.86896">
        <ele>204.199243</ele>
        <time>2026-08-29T08:40:43Z</time>
      </trkpt>
      <trkpt lat="43.94789" lon="1.86895">
        <ele>204.399897</ele>
        <time>2026-08-29T08:40:44Z</time>
      </trkpt>
      <trkpt lat="43.94791" lon="1.86894">
        <ele>204.620773</ele>
        <time>2026-08-29T08:40:45Z</time>
      </trkpt>
      <trkpt lat="43.94793" lon="1.86893">
        <ele>204.841988</ele>
        <time>2026-08-29T08:40:46Z</time>
      </trkpt>
      <trkpt lat="43.94795" lon="1.86892">
        <ele>205.004304</ele>
        <time>2026-08-29T08:40:47Z</time>
      </trkpt>
      <trkpt lat="43.94796" lon="1.86892">
        <ele>205.148448</ele>
        <time>2026-08-29T08:40:48Z</time>
      </trkpt>
      <trkpt lat="43.94797" lon="1.86891">
        <ele>205.282782</ele>
        <time>2026-08-29T08:40:49Z</time>
      </trkpt>
      <trkpt lat="43.94798" lon="1.86889">
        <ele>205.414056</ele>
        <time>2026-08-29T08:40:50Z</time>
      </trkpt>
      <trkpt lat="43.94799" lon="1.86889">
        <ele>205.522593</ele>
        <time>2026-08-29T08:40:51Z</time>
      </trkpt>
      <trkpt lat="43.948" lon="1.86888">
        <ele>205.627638</ele>
        <time>2026-08-29T08:40:52Z</time>
      </trkpt>
      <trkpt lat="43.94801" lon="1.86887">
        <ele>205.774347</ele>
        <time>2026-08-29T08:40:53Z</time>
      </trkpt>
      <trkpt lat="43.94803" lon="1.86887">
        <ele>205.928512</ele>
        <time>2026-08-29T08:40:54Z</time>
      </trkpt>
      <trkpt lat="43.94804" lon="1.86886">
        <ele>206.0798</ele>
        <time>2026-08-29T08:40:55Z</time>
      </trkpt>
      <trkpt lat="43.94805" lon="1.86885">
        <ele>206.280454</ele>
        <time>2026-08-29T08:40:56Z</time>
      </trkpt>
      <trkpt lat="43.94807" lon="1.86883">
        <ele>206.481108</ele>
        <time>2026-08-29T08:40:57Z</time>
      </trkpt>
      <trkpt lat="43.94809" lon="1.86882">
        <ele>206.68856</ele>
        <time>2026-08-29T08:40:58Z</time>
      </trkpt>
      <trkpt lat="43.94811" lon="1.86881">
        <ele>206.88986</ele>
        <time>2026-08-29T08:40:59Z</time>
      </trkpt>
      <trkpt lat="43.94812" lon="1.8688">
        <ele>207.086545</ele>
        <time>2026-08-29T08:41:00Z</time>
      </trkpt>
      <trkpt lat="43.94814" lon="1.86879">
        <ele>207.293382</ele>
        <time>2026-08-29T08:41:01Z</time>
      </trkpt>
      <trkpt lat="43.94816" lon="1.86879">
        <ele>207.492243</ele>
        <time>2026-08-29T08:41:02Z</time>
      </trkpt>
      <trkpt lat="43.94818" lon="1.86877">
        <ele>207.678283</ele>
        <time>2026-08-29T08:41:03Z</time>
      </trkpt>
      <trkpt lat="43.94819" lon="1.86876">
        <ele>207.860426</ele>
        <time>2026-08-29T08:41:04Z</time>
      </trkpt>
      <trkpt lat="43.94821" lon="1.86875">
        <ele>208.042569</ele>
        <time>2026-08-29T08:41:05Z</time>
      </trkpt>
      <trkpt lat="43.94822" lon="1.86874">
        <ele>208.236829</ele>
        <time>2026-08-29T08:41:06Z</time>
      </trkpt>
      <trkpt lat="43.94824" lon="1.86873">
        <ele>208.419674</ele>
        <time>2026-08-29T08:41:07Z</time>
      </trkpt>
      <trkpt lat="43.94826" lon="1.86873">
        <ele>208.618536</ele>
        <time>2026-08-29T08:41:08Z</time>
      </trkpt>
      <trkpt lat="43.94827" lon="1.86872">
        <ele>208.780861</ele>
        <time>2026-08-29T08:41:09Z</time>
      </trkpt>
      <trkpt lat="43.94828" lon="1.86871">
        <ele>208.915195</ele>
        <time>2026-08-29T08:41:10Z</time>
      </trkpt>
      <trkpt lat="43.9483" lon="1.8687">
        <ele>209.084444</ele>
        <time>2026-08-29T08:41:11Z</time>
      </trkpt>
      <trkpt lat="43.94831" lon="1.86869">
        <ele>209.258829</ele>
        <time>2026-08-29T08:41:12Z</time>
      </trkpt>
      <trkpt lat="43.94833" lon="1.86869">
        <ele>209.409226</ele>
        <time>2026-08-29T08:41:13Z</time>
      </trkpt>
      <trkpt lat="43.94834" lon="1.86868">
        <ele>209.613216</ele>
        <time>2026-08-29T08:41:14Z</time>
      </trkpt>
      <trkpt lat="43.94836" lon="1.86867">
        <ele>209.782465</ele>
        <time>2026-08-29T08:41:15Z</time>
      </trkpt>
      <trkpt lat="43.94838" lon="1.86866">
        <ele>209.969039</ele>
        <time>2026-08-29T08:41:16Z</time>
      </trkpt>
      <trkpt lat="43.94839" lon="1.86865">
        <ele>210.166376</ele>
        <time>2026-08-29T08:41:17Z</time>
      </trkpt>
      <trkpt lat="43.94841" lon="1.86864">
        <ele>210.359528</ele>
        <time>2026-08-29T08:41:18Z</time>
      </trkpt>
      <trkpt lat="43.94843" lon="1.86863">
        <ele>210.541167</ele>
        <time>2026-08-29T08:41:19Z</time>
      </trkpt>
      <trkpt lat="43.94844" lon="1.86862">
        <ele>210.725783</ele>
        <time>2026-08-29T08:41:20Z</time>
      </trkpt>
      <trkpt lat="43.94845" lon="1.86862">
        <ele>210.869282</ele>
        <time>2026-08-29T08:41:21Z</time>
      </trkpt>
      <trkpt lat="43.94847" lon="1.8686">
        <ele>211.033525</ele>
        <time>2026-08-29T08:41:22Z</time>
      </trkpt>
      <trkpt lat="43.94848" lon="1.86859">
        <ele>211.167859</ele>
        <time>2026-08-29T08:41:23Z</time>
      </trkpt>
      <trkpt lat="43.94849" lon="1.86858">
        <ele>211.350002</ele>
        <time>2026-08-29T08:41:24Z</time>
      </trkpt>
      <trkpt lat="43.94851" lon="1.86857">
        <ele>211.532145</ele>
        <time>2026-08-29T08:41:25Z</time>
      </trkpt>
      <trkpt lat="43.94852" lon="1.86856">
        <ele>211.72663</ele>
        <time>2026-08-29T08:41:26Z</time>
      </trkpt>
      <trkpt lat="43.94854" lon="1.86854">
        <ele>211.938552</ele>
        <time>2026-08-29T08:41:27Z</time>
      </trkpt>
      <trkpt lat="43.94856" lon="1.86853">
        <ele>212.142749</ele>
        <time>2026-08-29T08:41:28Z</time>
      </trkpt>
      <trkpt lat="43.94857" lon="1.86851">
        <ele>212.319949</ele>
        <time>2026-08-29T08:41:29Z</time>
      </trkpt>
      <trkpt lat="43.94859" lon="1.8685">
        <ele>212.495023</ele>
        <time>2026-08-29T08:41:30Z</time>
      </trkpt>
      <trkpt lat="43.9486" lon="1.86849">
        <ele>212.682875</ele>
        <time>2026-08-29T08:41:31Z</time>
      </trkpt>
      <trkpt lat="43.94862" lon="1.86849">
        <ele>212.832489</ele>
        <time>2026-08-29T08:41:32Z</time>
      </trkpt>
      <trkpt lat="43.94863" lon="1.86848">
        <ele>212.991781</ele>
        <time>2026-08-29T08:41:33Z</time>
      </trkpt>
      <trkpt lat="43.94864" lon="1.86847">
        <ele>213.154106</ele>
        <time>2026-08-29T08:41:34Z</time>
      </trkpt>
      <trkpt lat="43.94866" lon="1.86846">
        <ele>213.316431</ele>
        <time>2026-08-29T08:41:35Z</time>
      </trkpt>
      <trkpt lat="43.94867" lon="1.86845">
        <ele>213.472998</ele>
        <time>2026-08-29T08:41:36Z</time>
      </trkpt>
      <trkpt lat="43.94869" lon="1.86844">
        <ele>213.642246</ele>
        <time>2026-08-29T08:41:37Z</time>
      </trkpt>
      <trkpt lat="43.9487" lon="1.86843">
        <ele>213.798613</ele>
        <time>2026-08-29T08:41:38Z</time>
      </trkpt>
      <trkpt lat="43.94871" lon="1.86842">
        <ele>213.945863</ele>
        <time>2026-08-29T08:41:39Z</time>
      </trkpt>
      <trkpt lat="43.94873" lon="1.86841">
        <ele>214.117794</ele>
        <time>2026-08-29T08:41:40Z</time>
      </trkpt>
      <trkpt lat="43.94874" lon="1.8684">
        <ele>214.287042</ele>
        <time>2026-08-29T08:41:41Z</time>
      </trkpt>
      <trkpt lat="43.94876" lon="1.86839">
        <ele>214.474894</ele>
        <time>2026-08-29T08:41:42Z</time>
      </trkpt>
      <trkpt lat="43.94877" lon="1.86838">
        <ele>214.656533</ele>
        <time>2026-08-29T08:41:43Z</time>
      </trkpt>
      <trkpt lat="43.94879" lon="1.86837">
        <ele>214.825603</ele>
        <time>2026-08-29T08:41:44Z</time>
      </trkpt>
      <trkpt lat="43.9488" lon="1.86836">
        <ele>215.004085</ele>
        <time>2026-08-29T08:41:45Z</time>
      </trkpt>
      <trkpt lat="43.94882" lon="1.86835">
        <ele>215.214173</ele>
        <time>2026-08-29T08:41:46Z</time>
      </trkpt>
      <trkpt lat="43.94884" lon="1.86834">
        <ele>215.413034</ele>
        <time>2026-08-29T08:41:47Z</time>
      </trkpt>
      <trkpt lat="43.94886" lon="1.86833">
        <ele>215.619957</ele>
        <time>2026-08-29T08:41:48Z</time>
      </trkpt>
      <trkpt lat="43.94887" lon="1.86832">
        <ele>215.837032</ele>
        <time>2026-08-29T08:41:49Z</time>
      </trkpt>
      <trkpt lat="43.94889" lon="1.86831">
        <ele>216.00628</ele>
        <time>2026-08-29T08:41:50Z</time>
      </trkpt>
      <trkpt lat="43.9489" lon="1.86829">
        <ele>216.17118</ele>
        <time>2026-08-29T08:41:51Z</time>
      </trkpt>
      <trkpt lat="43.94891" lon="1.86828">
        <ele>216.344269</ele>
        <time>2026-08-29T08:41:52Z</time>
      </trkpt>
      <trkpt lat="43.94893" lon="1.86826">
        <ele>216.527035</ele>
        <time>2026-08-29T08:41:53Z</time>
      </trkpt>
      <trkpt lat="43.94894" lon="1.86825">
        <ele>216.727688</ele>
        <time>2026-08-29T08:41:54Z</time>
      </trkpt>
      <trkpt lat="43.94896" lon="1.86824">
        <ele>216.930979</ele>
        <time>2026-08-29T08:41:55Z</time>
      </trkpt>
      <trkpt lat="43.94898" lon="1.86822">
        <ele>217.180459</ele>
        <time>2026-08-29T08:41:56Z</time>
      </trkpt>
      <trkpt lat="43.94899" lon="1.8682">
        <ele>217.44525</ele>
        <time>2026-08-29T08:41:57Z</time>
      </trkpt>
      <trkpt lat="43.94901" lon="1.86819">
        <ele>217.664262</ele>
        <time>2026-08-29T08:41:58Z</time>
      </trkpt>
      <trkpt lat="43.94902" lon="1.86818">
        <ele>217.888123</ele>
        <time>2026-08-29T08:41:59Z</time>
      </trkpt>
      <trkpt lat="43.94904" lon="1.86816">
        <ele>218.102547</ele>
        <time>2026-08-29T08:42:00Z</time>
      </trkpt>
      <trkpt lat="43.94905" lon="1.86815">
        <ele>218.296672</ele>
        <time>2026-08-29T08:42:01Z</time>
      </trkpt>
      <trkpt lat="43.94906" lon="1.86813">
        <ele>218.508996</ele>
        <time>2026-08-29T08:42:02Z</time>
      </trkpt>
      <trkpt lat="43.94907" lon="1.86812">
        <ele>218.715046</ele>
        <time>2026-08-29T08:42:03Z</time>
      </trkpt>
      <trkpt lat="43.94909" lon="1.8681">
        <ele>218.924396</ele>
        <time>2026-08-29T08:42:04Z</time>
      </trkpt>
      <trkpt lat="43.9491" lon="1.86809">
        <ele>219.122823</ele>
        <time>2026-08-29T08:42:05Z</time>
      </trkpt>
      <trkpt lat="43.94911" lon="1.86808">
        <ele>219.322068</ele>
        <time>2026-08-29T08:42:06Z</time>
      </trkpt>
      <trkpt lat="43.94913" lon="1.86807">
        <ele>219.517076</ele>
        <time>2026-08-29T08:42:07Z</time>
      </trkpt>
      <trkpt lat="43.94914" lon="1.86806">
        <ele>219.712085</ele>
        <time>2026-08-29T08:42:08Z</time>
      </trkpt>
      <trkpt lat="43.94916" lon="1.86805">
        <ele>219.907093</ele>
        <time>2026-08-29T08:42:09Z</time>
      </trkpt>
      <trkpt lat="43.94917" lon="1.86804">
        <ele>220.076756</ele>
        <time>2026-08-29T08:42:10Z</time>
      </trkpt>
      <trkpt lat="43.94918" lon="1.86802">
        <ele>220.2806</ele>
        <time>2026-08-29T08:42:11Z</time>
      </trkpt>
      <trkpt lat="43.94919" lon="1.86801">
        <ele>220.459508</ele>
        <time>2026-08-29T08:42:12Z</time>
      </trkpt>
      <trkpt lat="43.9492" lon="1.86799">
        <ele>220.623206</ele>
        <time>2026-08-29T08:42:13Z</time>
      </trkpt>
      <trkpt lat="43.94921" lon="1.86798">
        <ele>220.807286</ele>
        <time>2026-08-29T08:42:14Z</time>
      </trkpt>
      <trkpt lat="43.94922" lon="1.86797">
        <ele>220.985386</ele>
        <time>2026-08-29T08:42:15Z</time>
      </trkpt>
      <trkpt lat="43.94923" lon="1.86796">
        <ele>221.158733</ele>
        <time>2026-08-29T08:42:16Z</time>
      </trkpt>
      <trkpt lat="43.94925" lon="1.86795">
        <ele>221.383976</ele>
        <time>2026-08-29T08:42:17Z</time>
      </trkpt>
      <trkpt lat="43.94927" lon="1.86793">
        <ele>221.618252</ele>
        <time>2026-08-29T08:42:18Z</time>
      </trkpt>
      <trkpt lat="43.94928" lon="1.86792">
        <ele>221.842112</ele>
        <time>2026-08-29T08:42:19Z</time>
      </trkpt>
      <trkpt lat="43.9493" lon="1.86791">
        <ele>222.0825</ele>
        <time>2026-08-29T08:42:20Z</time>
      </trkpt>
      <trkpt lat="43.94931" lon="1.86789">
        <ele>222.301511</ele>
        <time>2026-08-29T08:42:21Z</time>
      </trkpt>
      <trkpt lat="43.94932" lon="1.86788">
        <ele>222.484675</ele>
        <time>2026-08-29T08:42:22Z</time>
      </trkpt>
      <trkpt lat="43.94934" lon="1.86787">
        <ele>222.653607</ele>
        <time>2026-08-29T08:42:23Z</time>
      </trkpt>
      <trkpt lat="43.94935" lon="1.86786">
        <ele>222.826868</ele>
        <time>2026-08-29T08:42:24Z</time>
      </trkpt>
      <trkpt lat="43.94936" lon="1.86785">
        <ele>223.026846</ele>
        <time>2026-08-29T08:42:25Z</time>
      </trkpt>
      <trkpt lat="43.94937" lon="1.86783">
        <ele>223.215358</ele>
        <time>2026-08-29T08:42:26Z</time>
      </trkpt>
      <trkpt lat="43.94938" lon="1.86782">
        <ele>223.424707</ele>
        <time>2026-08-29T08:42:27Z</time>
      </trkpt>
      <trkpt lat="43.9494" lon="1.8678">
        <ele>223.658984</ele>
        <time>2026-08-29T08:42:28Z</time>
      </trkpt>
      <trkpt lat="43.94941" lon="1.86779">
        <ele>223.887938</ele>
        <time>2026-08-29T08:42:29Z</time>
      </trkpt>
      <trkpt lat="43.94943" lon="1.86777">
        <ele>224.105374</ele>
        <time>2026-08-29T08:42:30Z</time>
      </trkpt>
      <trkpt lat="43.94944" lon="1.86775">
        <ele>224.324154</ele>
        <time>2026-08-29T08:42:31Z</time>
      </trkpt>
      <trkpt lat="43.94945" lon="1.86773">
        <ele>224.539311</ele>
        <time>2026-08-29T08:42:32Z</time>
      </trkpt>
      <trkpt lat="43.94947" lon="1.86772">
        <ele>224.784859</ele>
        <time>2026-08-29T08:42:33Z</time>
      </trkpt>
      <trkpt lat="43.94948" lon="1.8677">
        <ele>225.048675</ele>
        <time>2026-08-29T08:42:34Z</time>
      </trkpt>
      <trkpt lat="43.94949" lon="1.86768">
        <ele>225.262365</ele>
        <time>2026-08-29T08:42:35Z</time>
      </trkpt>
      <trkpt lat="43.94951" lon="1.86767">
        <ele>225.460792</ele>
        <time>2026-08-29T08:42:36Z</time>
      </trkpt>
      <trkpt lat="43.94952" lon="1.86766">
        <ele>225.643955</ele>
        <time>2026-08-29T08:42:37Z</time>
      </trkpt>
      <trkpt lat="43.94953" lon="1.86764">
        <ele>225.857645</ele>
        <time>2026-08-29T08:42:38Z</time>
      </trkpt>
      <trkpt lat="43.94954" lon="1.86762">
        <ele>226.068205</ele>
        <time>2026-08-29T08:42:39Z</time>
      </trkpt>
      <trkpt lat="43.94956" lon="1.86761">
        <ele>226.256718</ele>
        <time>2026-08-29T08:42:40Z</time>
      </trkpt>
      <trkpt lat="43.94957" lon="1.8676">
        <ele>226.432595</ele>
        <time>2026-08-29T08:42:41Z</time>
      </trkpt>
      <trkpt lat="43.94958" lon="1.86758">
        <ele>226.631022</ele>
        <time>2026-08-29T08:42:42Z</time>
      </trkpt>
      <trkpt lat="43.94959" lon="1.86757">
        <ele>226.829448</ele>
        <time>2026-08-29T08:42:43Z</time>
      </trkpt>
      <trkpt lat="43.94961" lon="1.86756">
        <ele>227.043138</ele>
        <time>2026-08-29T08:42:44Z</time>
      </trkpt>
      <trkpt lat="43.94962" lon="1.86754">
        <ele>227.23165</ele>
        <time>2026-08-29T08:42:45Z</time>
      </trkpt>
      <trkpt lat="43.94963" lon="1.86753">
        <ele>227.4377</ele>
        <time>2026-08-29T08:42:46Z</time>
      </trkpt>
      <trkpt lat="43.94964" lon="1.86751">
        <ele>227.650023</ele>
        <time>2026-08-29T08:42:47Z</time>
      </trkpt>
      <trkpt lat="43.94965" lon="1.86749">
        <ele>227.852787</ele>
        <time>2026-08-29T08:42:48Z</time>
      </trkpt>
      <trkpt lat="43.94966" lon="1.86748">
        <ele>228.040973</ele>
        <time>2026-08-29T08:42:49Z</time>
      </trkpt>
      <trkpt lat="43.94967" lon="1.86746">
        <ele>228.244815</ele>
        <time>2026-08-29T08:42:50Z</time>
      </trkpt>
      <trkpt lat="43.94968" lon="1.86744">
        <ele>228.448658</ele>
        <time>2026-08-29T08:42:51Z</time>
      </trkpt>
      <trkpt lat="43.9497" lon="1.86743">
        <ele>228.663815</ele>
        <time>2026-08-29T08:42:52Z</time>
      </trkpt>
      <trkpt lat="43.94971" lon="1.86741">
        <ele>228.873163</ele>
        <time>2026-08-29T08:42:53Z</time>
      </trkpt>
      <trkpt lat="43.94972" lon="1.86739">
        <ele>229.091943</ele>
        <time>2026-08-29T08:42:54Z</time>
      </trkpt>
      <trkpt lat="43.94973" lon="1.86738">
        <ele>229.289243</ele>
        <time>2026-08-29T08:42:55Z</time>
      </trkpt>
      <trkpt lat="43.94974" lon="1.86736">
        <ele>229.480192</ele>
        <time>2026-08-29T08:42:56Z</time>
      </trkpt>
      <trkpt lat="43.94976" lon="1.86735">
        <ele>229.710539</ele>
        <time>2026-08-29T08:42:57Z</time>
      </trkpt>
      <trkpt lat="43.94977" lon="1.86733">
        <ele>229.922862</ele>
        <time>2026-08-29T08:42:58Z</time>
      </trkpt>
      <trkpt lat="43.94978" lon="1.86731">
        <ele>230.128911</ele>
        <time>2026-08-29T08:42:59Z</time>
      </trkpt>
      <trkpt lat="43.94979" lon="1.8673">
        <ele>230.317097</ele>
        <time>2026-08-29T08:43:00Z</time>
      </trkpt>
      <trkpt lat="43.9498" lon="1.86728">
        <ele>230.519861</ele>
        <time>2026-08-29T08:43:01Z</time>
      </trkpt>
      <trkpt lat="43.94981" lon="1.86726">
        <ele>230.698768</ele>
        <time>2026-08-29T08:43:02Z</time>
      </trkpt>
      <trkpt lat="43.94982" lon="1.86725">
        <ele>230.853304</ele>
        <time>2026-08-29T08:43:03Z</time>
      </trkpt>
      <trkpt lat="43.94983" lon="1.86724">
        <ele>231.044253</ele>
        <time>2026-08-29T08:43:04Z</time>
      </trkpt>
      <trkpt lat="43.94984" lon="1.86722">
        <ele>231.248019</ele>
        <time>2026-08-29T08:43:05Z</time>
      </trkpt>
      <trkpt lat="43.94986" lon="1.86721">
        <ele>231.436531</ele>
        <time>2026-08-29T08:43:06Z</time>
      </trkpt>
      <trkpt lat="43.94987" lon="1.86719">
        <ele>231.655311</ele>
        <time>2026-08-29T08:43:07Z</time>
      </trkpt>
      <trkpt lat="43.94988" lon="1.86718">
        <ele>231.876482</ele>
        <time>2026-08-29T08:43:08Z</time>
      </trkpt>
      <trkpt lat="43.94989" lon="1.86716">
        <ele>232.072261</ele>
        <time>2026-08-29T08:43:09Z</time>
      </trkpt>
      <trkpt lat="43.9499" lon="1.86714">
        <ele>232.253383</ele>
        <time>2026-08-29T08:43:10Z</time>
      </trkpt>
      <trkpt lat="43.94991" lon="1.86713">
        <ele>232.434462</ele>
        <time>2026-08-29T08:43:11Z</time>
      </trkpt>
      <trkpt lat="43.94992" lon="1.86711">
        <ele>232.63024</ele>
        <time>2026-08-29T08:43:12Z</time>
      </trkpt>
      <trkpt lat="43.94993" lon="1.86709">
        <ele>232.833071</ele>
        <time>2026-08-29T08:43:13Z</time>
      </trkpt>
      <trkpt lat="43.94994" lon="1.86707">
        <ele>233.050506</ele>
        <time>2026-08-29T08:43:14Z</time>
      </trkpt>
      <trkpt lat="43.94995" lon="1.86705">
        <ele>233.277883</ele>
        <time>2026-08-29T08:43:15Z</time>
      </trkpt>
      <trkpt lat="43.94996" lon="1.86704">
        <ele>233.490205</ele>
        <time>2026-08-29T08:43:16Z</time>
      </trkpt>
      <trkpt lat="43.94997" lon="1.86702">
        <ele>233.679162</ele>
        <time>2026-08-29T08:43:17Z</time>
      </trkpt>
      <trkpt lat="43.94998" lon="1.867">
        <ele>233.852888</ele>
        <time>2026-08-29T08:43:18Z</time>
      </trkpt>
      <trkpt lat="43.94999" lon="1.86699">
        <ele>234.027025</ele>
        <time>2026-08-29T08:43:19Z</time>
      </trkpt>
      <trkpt lat="43.95" lon="1.86697">
        <ele>234.229788</ele>
        <time>2026-08-29T08:43:20Z</time>
      </trkpt>
      <trkpt lat="43.95001" lon="1.86695">
        <ele>234.410866</ele>
        <time>2026-08-29T08:43:21Z</time>
      </trkpt>
      <trkpt lat="43.95002" lon="1.86694">
        <ele>234.606645</ele>
        <time>2026-08-29T08:43:22Z</time>
      </trkpt>
      <trkpt lat="43.95003" lon="1.86692">
        <ele>234.774028</ele>
        <time>2026-08-29T08:43:23Z</time>
      </trkpt>
      <trkpt lat="43.95004" lon="1.8669">
        <ele>234.991186</ele>
        <time>2026-08-29T08:43:24Z</time>
      </trkpt>
      <trkpt lat="43.95005" lon="1.86689">
        <ele>235.158156</ele>
        <time>2026-08-29T08:43:25Z</time>
      </trkpt>
      <trkpt lat="43.95005" lon="1.86687">
        <ele>235.339278</ele>
        <time>2026-08-29T08:43:26Z</time>
      </trkpt>
      <trkpt lat="43.95006" lon="1.86685">
        <ele>235.542041</ele>
        <time>2026-08-29T08:43:27Z</time>
      </trkpt>
      <trkpt lat="43.95007" lon="1.86684">
        <ele>235.730227</ele>
        <time>2026-08-29T08:43:28Z</time>
      </trkpt>
      <trkpt lat="43.95008" lon="1.86682">
        <ele>235.906103</ele>
        <time>2026-08-29T08:43:29Z</time>
      </trkpt>
      <trkpt lat="43.95009" lon="1.86681">
        <ele>236.094615</ele>
        <time>2026-08-29T08:43:30Z</time>
      </trkpt>
      <trkpt lat="43.9501" lon="1.86679">
        <ele>236.268752</ele>
        <time>2026-08-29T08:43:31Z</time>
      </trkpt>
      <trkpt lat="43.95011" lon="1.86678">
        <ele>236.457709</ele>
        <time>2026-08-29T08:43:32Z</time>
      </trkpt>
      <trkpt lat="43.95012" lon="1.86676">
        <ele>236.638787</ele>
        <time>2026-08-29T08:43:33Z</time>
      </trkpt>
      <trkpt lat="43.95013" lon="1.86675">
        <ele>236.80617</ele>
        <time>2026-08-29T08:43:34Z</time>
      </trkpt>
      <trkpt lat="43.95014" lon="1.86673">
        <ele>237.027341</ele>
        <time>2026-08-29T08:43:35Z</time>
      </trkpt>
      <trkpt lat="43.95016" lon="1.86671">
        <ele>237.261099</ele>
        <time>2026-08-29T08:43:36Z</time>
      </trkpt>
      <trkpt lat="43.95017" lon="1.86669">
        <ele>237.485553</ele>
        <time>2026-08-29T08:43:37Z</time>
      </trkpt>
      <trkpt lat="43.95018" lon="1.86667">
        <ele>237.696112</ele>
        <time>2026-08-29T08:43:38Z</time>
      </trkpt>
      <trkpt lat="43.95019" lon="1.86666">
        <ele>237.914891</ele>
        <time>2026-08-29T08:43:39Z</time>
      </trkpt>
      <trkpt lat="43.9502" lon="1.86664">
        <ele>238.142268</ele>
        <time>2026-08-29T08:43:40Z</time>
      </trkpt>
      <trkpt lat="43.95022" lon="1.86662">
        <ele>238.339567</ele>
        <time>2026-08-29T08:43:41Z</time>
      </trkpt>
      <trkpt lat="43.95023" lon="1.86661">
        <ele>238.553256</ele>
        <time>2026-08-29T08:43:42Z</time>
      </trkpt>
      <trkpt lat="43.95024" lon="1.86659">
        <ele>238.753232</ele>
        <time>2026-08-29T08:43:43Z</time>
      </trkpt>
      <trkpt lat="43.95025" lon="1.86658">
        <ele>238.91971</ele>
        <time>2026-08-29T08:43:44Z</time>
      </trkpt>
      <trkpt lat="43.95026" lon="1.86656">
        <ele>239.093847</ele>
        <time>2026-08-29T08:43:45Z</time>
      </trkpt>
      <trkpt lat="43.95027" lon="1.86655">
        <ele>239.24142</ele>
        <time>2026-08-29T08:43:46Z</time>
      </trkpt>
      <trkpt lat="43.95028" lon="1.86653">
        <ele>239.335068</ele>
        <time>2026-08-29T08:43:47Z</time>
      </trkpt>
      <trkpt lat="43.95029" lon="1.86651">
        <ele>239.454181</ele>
        <time>2026-08-29T08:43:48Z</time>
      </trkpt>
      <trkpt lat="43.9503" lon="1.8665">
        <ele>239.570747</ele>
        <time>2026-08-29T08:43:49Z</time>
      </trkpt>
      <trkpt lat="43.95031" lon="1.86648">
        <ele>239.702675</ele>
        <time>2026-08-29T08:43:50Z</time>
      </trkpt>
      <trkpt lat="43.95032" lon="1.86647">
        <ele>239.809776</ele>
        <time>2026-08-29T08:43:51Z</time>
      </trkpt>
      <trkpt lat="43.95033" lon="1.86645">
        <ele>239.92814</ele>
        <time>2026-08-29T08:43:52Z</time>
      </trkpt>
      <trkpt lat="43.95034" lon="1.86642">
        <ele>240.069908</ele>
        <time>2026-08-29T08:43:53Z</time>
      </trkpt>
      <trkpt lat="43.95035" lon="1.8664">
        <ele>240.199032</ele>
        <time>2026-08-29T08:43:54Z</time>
      </trkpt>
      <trkpt lat="43.95035" lon="1.86638">
        <ele>240.328091</ele>
        <time>2026-08-29T08:43:55Z</time>
      </trkpt>
      <trkpt lat="43.95035" lon="1.86635">
        <ele>240.487932</ele>
        <time>2026-08-29T08:43:56Z</time>
      </trkpt>
      <trkpt lat="43.95036" lon="1.86632">
        <ele>240.627219</ele>
        <time>2026-08-29T08:43:57Z</time>
      </trkpt>
      <trkpt lat="43.95036" lon="1.8663">
        <ele>240.759998</ele>
        <time>2026-08-29T08:43:58Z</time>
      </trkpt>
      <trkpt lat="43.95036" lon="1.86628">
        <ele>240.858689</ele>
        <time>2026-08-29T08:43:59Z</time>
      </trkpt>
      <trkpt lat="43.95036" lon="1.86626">
        <ele>240.937273</ele>
        <time>2026-08-29T08:44:00Z</time>
      </trkpt>
      <trkpt lat="43.95036" lon="1.86625">
        <ele>241.03269</ele>
        <time>2026-08-29T08:44:01Z</time>
      </trkpt>
      <trkpt lat="43.95036" lon="1.86623">
        <ele>241.142947</ele>
        <time>2026-08-29T08:44:02Z</time>
      </trkpt>
      <trkpt lat="43.95036" lon="1.8662">
        <ele>241.263662</ele>
        <time>2026-08-29T08:44:03Z</time>
      </trkpt>
      <trkpt lat="43.95036" lon="1.86618">
        <ele>241.379148</ele>
        <time>2026-08-29T08:44:04Z</time>
      </trkpt>
      <trkpt lat="43.95036" lon="1.86616">
        <ele>241.489165</ele>
        <time>2026-08-29T08:44:05Z</time>
      </trkpt>
      <trkpt lat="43.95036" lon="1.86613">
        <ele>241.620138</ele>
        <time>2026-08-29T08:44:06Z</time>
      </trkpt>
      <trkpt lat="43.95036" lon="1.86611">
        <ele>241.741509</ele>
        <time>2026-08-29T08:44:07Z</time>
      </trkpt>
      <trkpt lat="43.95036" lon="1.86609">
        <ele>241.846287</ele>
        <time>2026-08-29T08:44:08Z</time>
      </trkpt>
      <trkpt lat="43.95036" lon="1.86607">
        <ele>241.967658</ele>
        <time>2026-08-29T08:44:09Z</time>
      </trkpt>
      <trkpt lat="43.95036" lon="1.86605">
        <ele>242.063075</ele>
        <time>2026-08-29T08:44:10Z</time>
      </trkpt>
      <trkpt lat="43.95036" lon="1.86603">
        <ele>242.17405</ele>
        <time>2026-08-29T08:44:11Z</time>
      </trkpt>
      <trkpt lat="43.95035" lon="1.86601">
        <ele>242.269467</ele>
        <time>2026-08-29T08:44:12Z</time>
      </trkpt>
      <trkpt lat="43.95035" lon="1.86599">
        <ele>242.38327</ele>
        <time>2026-08-29T08:44:13Z</time>
      </trkpt>
      <trkpt lat="43.95035" lon="1.86597">
        <ele>242.495432</ele>
        <time>2026-08-29T08:44:14Z</time>
      </trkpt>
      <trkpt lat="43.95035" lon="1.86595">
        <ele>242.610918</ele>
        <time>2026-08-29T08:44:15Z</time>
      </trkpt>
      <trkpt lat="43.95035" lon="1.86593">
        <ele>242.720935</ele>
        <time>2026-08-29T08:44:16Z</time>
      </trkpt>
      <trkpt lat="43.95035" lon="1.8659">
        <ele>242.836191</ele>
        <time>2026-08-29T08:44:17Z</time>
      </trkpt>
      <trkpt lat="43.95035" lon="1.86588">
        <ele>242.941976</ele>
        <time>2026-08-29T08:44:18Z</time>
      </trkpt>
      <trkpt lat="43.95034" lon="1.86587">
        <ele>243.033674</ele>
        <time>2026-08-29T08:44:19Z</time>
      </trkpt>
      <trkpt lat="43.95033" lon="1.86585">
        <ele>243.144496</ele>
        <time>2026-08-29T08:44:20Z</time>
      </trkpt>
      <trkpt lat="43.95033" lon="1.86583">
        <ele>243.255412</ele>
        <time>2026-08-29T08:44:21Z</time>
      </trkpt>
      <trkpt lat="43.95033" lon="1.86581">
        <ele>243.34477</ele>
        <time>2026-08-29T08:44:22Z</time>
      </trkpt>
      <trkpt lat="43.95033" lon="1.86579">
        <ele>243.475945</ele>
        <time>2026-08-29T08:44:23Z</time>
      </trkpt>
      <trkpt lat="43.95033" lon="1.86576">
        <ele>243.605004</ele>
        <time>2026-08-29T08:44:24Z</time>
      </trkpt>
      <trkpt lat="43.95032" lon="1.86574">
        <ele>243.720882</ele>
        <time>2026-08-29T08:44:25Z</time>
      </trkpt>
      <trkpt lat="43.95032" lon="1.86572">
        <ele>243.841597</ele>
        <time>2026-08-29T08:44:26Z</time>
      </trkpt>
      <trkpt lat="43.95032" lon="1.8657">
        <ele>243.933295</ele>
        <time>2026-08-29T08:44:27Z</time>
      </trkpt>
      <trkpt lat="43.95033" lon="1.86569">
        <ele>243.993227</ele>
        <time>2026-08-29T08:44:28Z</time>
      </trkpt>
      <trkpt lat="43.95032" lon="1.86568">
        <ele>244.084925</ele>
        <time>2026-08-29T08:44:29Z</time>
      </trkpt>
      <trkpt lat="43.95032" lon="1.86565">
        <ele>244.20564</ele>
        <time>2026-08-29T08:44:30Z</time>
      </trkpt>
      <trkpt lat="43.95032" lon="1.86563">
        <ele>244.321126</ele>
        <time>2026-08-29T08:44:31Z</time>
      </trkpt>
      <trkpt lat="43.95032" lon="1.86561">
        <ele>244.420931</ele>
        <time>2026-08-29T08:44:32Z</time>
      </trkpt>
      <trkpt lat="43.95032" lon="1.86559">
        <ele>244.509992</ele>
        <time>2026-08-29T08:44:33Z</time>
      </trkpt>
      <trkpt lat="43.95033" lon="1.86557">
        <ele>244.645653</ele>
        <time>2026-08-29T08:44:34Z</time>
      </trkpt>
      <trkpt lat="43.95033" lon="1.86554">
        <ele>244.798702</ele>
        <time>2026-08-29T08:44:35Z</time>
      </trkpt>
      <trkpt lat="43.95034" lon="1.86552">
        <ele>244.926864</ele>
        <time>2026-08-29T08:44:36Z</time>
      </trkpt>
      <trkpt lat="43.95034" lon="1.8655">
        <ele>245.03561</ele>
        <time>2026-08-29T08:44:37Z</time>
      </trkpt>
      <trkpt lat="43.95035" lon="1.86548">
        <ele>245.136686</ele>
        <time>2026-08-29T08:44:38Z</time>
      </trkpt>
      <trkpt lat="43.95035" lon="1.86546">
        <ele>245.250198</ele>
        <time>2026-08-29T08:44:39Z</time>
      </trkpt>
      <trkpt lat="43.95037" lon="1.86544">
        <ele>245.382053</ele>
        <time>2026-08-29T08:44:40Z</time>
      </trkpt>
      <trkpt lat="43.95038" lon="1.86542">
        <ele>245.513958</ele>
        <time>2026-08-29T08:44:41Z</time>
      </trkpt>
      <trkpt lat="43.95039" lon="1.8654">
        <ele>245.624961</ele>
        <time>2026-08-29T08:44:42Z</time>
      </trkpt>
      <trkpt lat="43.95039" lon="1.86539">
        <ele>245.731334</ele>
        <time>2026-08-29T08:44:43Z</time>
      </trkpt>
      <trkpt lat="43.9504" lon="1.86537">
        <ele>245.820632</ele>
        <time>2026-08-29T08:44:44Z</time>
      </trkpt>
      <trkpt lat="43.95041" lon="1.86536">
        <ele>245.931374</ele>
        <time>2026-08-29T08:44:45Z</time>
      </trkpt>
      <trkpt lat="43.95043" lon="1.86535">
        <ele>246.06288</ele>
        <time>2026-08-29T08:44:46Z</time>
      </trkpt>
      <trkpt lat="43.95044" lon="1.86533">
        <ele>246.182581</ele>
        <time>2026-08-29T08:44:47Z</time>
      </trkpt>
      <trkpt lat="43.95045" lon="1.86532">
        <ele>246.28091</ele>
        <time>2026-08-29T08:44:48Z</time>
      </trkpt>
      <trkpt lat="43.95046" lon="1.8653">
        <ele>246.378997</ele>
        <time>2026-08-29T08:44:49Z</time>
      </trkpt>
      <trkpt lat="43.95046" lon="1.8653">
        <ele>246.408963</ele>
        <time>2026-08-29T08:44:50Z</time>
      </trkpt>
      <trkpt lat="43.95046" lon="1.8653">
        <ele>246.421719</ele>
        <time>2026-08-29T08:44:51Z</time>
      </trkpt>
      <trkpt lat="43.95046" lon="1.8653">
        <ele>246.430686</ele>
        <time>2026-08-29T08:44:52Z</time>
      </trkpt>
      <trkpt lat="43.95044" lon="1.86524">
        <ele>246.768487</ele>
        <time>2026-08-29T08:44:59Z</time>
      </trkpt>
      <trkpt lat="43.95043" lon="1.86523">
        <ele>246.875102</ele>
        <time>2026-08-29T08:45:00Z</time>
      </trkpt>
      <trkpt lat="43.95042" lon="1.86522">
        <ele>246.989659</ele>
        <time>2026-08-29T08:45:01Z</time>
      </trkpt>
      <trkpt lat="43.9504" lon="1.86521">
        <ele>247.119571</ele>
        <time>2026-08-29T08:45:02Z</time>
      </trkpt>
      <trkpt lat="43.95038" lon="1.8652">
        <ele>247.26486</ele>
        <time>2026-08-29T08:45:03Z</time>
      </trkpt>
      <trkpt lat="43.95037" lon="1.86518">
        <ele>247.406075</ele>
        <time>2026-08-29T08:45:04Z</time>
      </trkpt>
      <trkpt lat="43.95035" lon="1.86517">
        <ele>247.552662</ele>
        <time>2026-08-29T08:45:05Z</time>
      </trkpt>
      <trkpt lat="43.95033" lon="1.86515">
        <ele>247.705094</ele>
        <time>2026-08-29T08:45:06Z</time>
      </trkpt>
      <trkpt lat="43.95031" lon="1.86513">
        <ele>247.878512</ele>
        <time>2026-08-29T08:45:07Z</time>
      </trkpt>
      <trkpt lat="43.95029" lon="1.86512">
        <ele>248.040197</ele>
        <time>2026-08-29T08:45:08Z</time>
      </trkpt>
      <trkpt lat="43.95028" lon="1.86511">
        <ele>248.131364</ele>
        <time>2026-08-29T08:45:09Z</time>
      </trkpt>
      <trkpt lat="43.95028" lon="1.8651">
        <ele>248.182391</ele>
        <time>2026-08-29T08:45:10Z</time>
      </trkpt>
      <trkpt lat="43.95028" lon="1.8651">
        <ele>248.212357</ele>
        <time>2026-08-29T08:45:11Z</time>
      </trkpt>
      <trkpt lat="43.95028" lon="1.8651">
        <ele>248.212357</ele>
        <time>2026-08-29T08:45:12Z</time>
      </trkpt>
      <trkpt lat="43.95026" lon="1.86508">
        <ele>248.361788</ele>
        <time>2026-08-29T08:45:41Z</time>
      </trkpt>
      <trkpt lat="43.95025" lon="1.86507">
        <ele>248.447145</ele>
        <time>2026-08-29T08:45:42Z</time>
      </trkpt>
      <trkpt lat="43.95024" lon="1.86505">
        <ele>248.582462</ele>
        <time>2026-08-29T08:45:43Z</time>
      </trkpt>
      <trkpt lat="43.95022" lon="1.86503">
        <ele>248.742649</ele>
        <time>2026-08-29T08:45:44Z</time>
      </trkpt>
      <trkpt lat="43.95021" lon="1.86501">
        <ele>248.919036</ele>
        <time>2026-08-29T08:45:45Z</time>
      </trkpt>
      <trkpt lat="43.95019" lon="1.86498">
        <ele>249.101478</ele>
        <time>2026-08-29T08:45:46Z</time>
      </trkpt>
      <trkpt lat="43.95016" lon="1.86497">
        <ele>249.289991</ele>
        <time>2026-08-29T08:45:47Z</time>
      </trkpt>
      <trkpt lat="43.95014" lon="1.86495">
        <ele>249.48816</ele>
        <time>2026-08-29T08:45:48Z</time>
      </trkpt>
      <trkpt lat="43.95012" lon="1.86493">
        <ele>249.676674</ele>
        <time>2026-08-29T08:45:49Z</time>
      </trkpt>
      <trkpt lat="43.9501" lon="1.86491">
        <ele>249.853365</ele>
        <time>2026-08-29T08:45:50Z</time>
      </trkpt>
      <trkpt lat="43.95008" lon="1.86489">
        <ele>250.030238</ele>
        <time>2026-08-29T08:45:51Z</time>
      </trkpt>
      <trkpt lat="43.95006" lon="1.86487">
        <ele>250.212613</ele>
        <time>2026-08-29T08:45:52Z</time>
      </trkpt>
      <trkpt lat="43.95003" lon="1.86485">
        <ele>250.409877</ele>
        <time>2026-08-29T08:45:53Z</time>
      </trkpt>
      <trkpt lat="43.95001" lon="1.86483">
        <ele>250.607769</ele>
        <time>2026-08-29T08:45:54Z</time>
      </trkpt>
      <trkpt lat="43.94999" lon="1.8648">
        <ele>250.832512</ele>
        <time>2026-08-29T08:45:55Z</time>
      </trkpt>
      <trkpt lat="43.94996" lon="1.86477">
        <ele>251.072923</ele>
        <time>2026-08-29T08:45:56Z</time>
      </trkpt>
      <trkpt lat="43.94994" lon="1.86474">
        <ele>251.317341</ele>
        <time>2026-08-29T08:45:57Z</time>
      </trkpt>
      <trkpt lat="43.94992" lon="1.8647">
        <ele>251.574385</ele>
        <time>2026-08-29T08:45:58Z</time>
      </trkpt>
      <trkpt lat="43.94989" lon="1.86466">
        <ele>251.844068</ele>
        <time>2026-08-29T08:45:59Z</time>
      </trkpt>
      <trkpt lat="43.94987" lon="1.86462">
        <ele>252.124711</ele>
        <time>2026-08-29T08:46:00Z</time>
      </trkpt>
      <trkpt lat="43.94984" lon="1.86457">
        <ele>252.291541</ele>
        <time>2026-08-29T08:46:01Z</time>
      </trkpt>
      <trkpt lat="43.94982" lon="1.86452">
        <ele>252.333122</ele>
        <time>2026-08-29T08:46:02Z</time>
      </trkpt>
      <trkpt lat="43.9498" lon="1.86447">
        <ele>252.374789</ele>
        <time>2026-08-29T08:46:03Z</time>
      </trkpt>
      <trkpt lat="43.94978" lon="1.86442">
        <ele>252.413323</ele>
        <time>2026-08-29T08:46:04Z</time>
      </trkpt>
      <trkpt lat="43.94976" lon="1.86437">
        <ele>252.453081</ele>
        <time>2026-08-29T08:46:05Z</time>
      </trkpt>
      <trkpt lat="43.94974" lon="1.86432">
        <ele>252.49284</ele>
        <time>2026-08-29T08:46:06Z</time>
      </trkpt>
      <trkpt lat="43.94972" lon="1.86427">
        <ele>252.533049</ele>
        <time>2026-08-29T08:46:07Z</time>
      </trkpt>
      <trkpt lat="43.9497" lon="1.86422">
        <ele>252.574809</ele>
        <time>2026-08-29T08:46:08Z</time>
      </trkpt>
      <trkpt lat="43.94968" lon="1.86417">
        <ele>252.614888</ele>
        <time>2026-08-29T08:46:09Z</time>
      </trkpt>
      <trkpt lat="43.94965" lon="1.86412">
        <ele>252.65481</ele>
        <time>2026-08-29T08:46:10Z</time>
      </trkpt>
      <trkpt lat="43.94963" lon="1.86407">
        <ele>252.693955</ele>
        <time>2026-08-29T08:46:11Z</time>
      </trkpt>
      <trkpt lat="43.94962" lon="1.86402">
        <ele>252.735569</ele>
        <time>2026-08-29T08:46:12Z</time>
      </trkpt>
      <trkpt lat="43.9496" lon="1.86397">
        <ele>252.775944</ele>
        <time>2026-08-29T08:46:13Z</time>
      </trkpt>
      <trkpt lat="43.94958" lon="1.86392">
        <ele>252.815088</ele>
        <time>2026-08-29T08:46:14Z</time>
      </trkpt>
      <trkpt lat="43.94956" lon="1.86387">
        <ele>252.853487</ele>
        <time>2026-08-29T08:46:15Z</time>
      </trkpt>
      <trkpt lat="43.94954" lon="1.86382">
        <ele>252.890807</ele>
        <time>2026-08-29T08:46:16Z</time>
      </trkpt>
      <trkpt lat="43.94952" lon="1.86377">
        <ele>252.932088</ele>
        <time>2026-08-29T08:46:17Z</time>
      </trkpt>
      <trkpt lat="43.9495" lon="1.86371">
        <ele>252.974951</ele>
        <time>2026-08-29T08:46:18Z</time>
      </trkpt>
      <trkpt lat="43.94948" lon="1.86366">
        <ele>253.017911</ele>
        <time>2026-08-29T08:46:19Z</time>
      </trkpt>
      <trkpt lat="43.94946" lon="1.86361">
        <ele>253.059191</ele>
        <time>2026-08-29T08:46:20Z</time>
      </trkpt>
      <trkpt lat="43.94944" lon="1.86356">
        <ele>253.098191</ele>
        <time>2026-08-29T08:46:21Z</time>
      </trkpt>
      <trkpt lat="43.94941" lon="1.86351">
        <ele>253.13827</ele>
        <time>2026-08-29T08:46:22Z</time>
      </trkpt>
      <trkpt lat="43.94939" lon="1.86346">
        <ele>253.177873</ele>
        <time>2026-08-29T08:46:23Z</time>
      </trkpt>
      <trkpt lat="43.94938" lon="1.86341">
        <ele>253.215193</ele>
        <time>2026-08-29T08:46:24Z</time>
      </trkpt>
      <trkpt lat="43.94936" lon="1.86336">
        <ele>253.254797</ele>
        <time>2026-08-29T08:46:25Z</time>
      </trkpt>
      <trkpt lat="43.94934" lon="1.86331">
        <ele>253.293082</ele>
        <time>2026-08-29T08:46:26Z</time>
      </trkpt>
      <trkpt lat="43.94932" lon="1.86326">
        <ele>253.330554</ele>
        <time>2026-08-29T08:46:27Z</time>
      </trkpt>
      <trkpt lat="43.9493" lon="1.86322">
        <ele>253.366078</ele>
        <time>2026-08-29T08:46:28Z</time>
      </trkpt>
      <trkpt lat="43.94929" lon="1.86318">
        <ele>253.392295</ele>
        <time>2026-08-29T08:46:29Z</time>
      </trkpt>
      <trkpt lat="43.94928" lon="1.86314">
        <ele>253.4233</ele>
        <time>2026-08-29T08:46:30Z</time>
      </trkpt>
      <trkpt lat="43.94926" lon="1.86309">
        <ele>253.461184</ele>
        <time>2026-08-29T08:46:31Z</time>
      </trkpt>
      <trkpt lat="43.94924" lon="1.86305">
        <ele>253.4978</ele>
        <time>2026-08-29T08:46:32Z</time>
      </trkpt>
      <trkpt lat="43.94923" lon="1.863">
        <ele>253.5336</ele>
        <time>2026-08-29T08:46:33Z</time>
      </trkpt>
      <trkpt lat="43.94921" lon="1.86296">
        <ele>253.566062</ele>
        <time>2026-08-29T08:46:34Z</time>
      </trkpt>
      <trkpt lat="43.94919" lon="1.86291">
        <ele>253.602677</ele>
        <time>2026-08-29T08:46:35Z</time>
      </trkpt>
      <trkpt lat="43.94917" lon="1.86287">
        <ele>253.635926</ele>
        <time>2026-08-29T08:46:36Z</time>
      </trkpt>
      <trkpt lat="43.94916" lon="1.86283">
        <ele>253.667493</ele>
        <time>2026-08-29T08:46:37Z</time>
      </trkpt>
      <trkpt lat="43.94914" lon="1.86279">
        <ele>253.703468</ele>
        <time>2026-08-29T08:46:38Z</time>
      </trkpt>
      <trkpt lat="43.94912" lon="1.86275">
        <ele>253.739588</ele>
        <time>2026-08-29T08:46:39Z</time>
      </trkpt>
      <trkpt lat="43.9491" lon="1.86271">
        <ele>253.771749</ele>
        <time>2026-08-29T08:46:40Z</time>
      </trkpt>
      <trkpt lat="43.94909" lon="1.86267">
        <ele>253.801114</ele>
        <time>2026-08-29T08:46:41Z</time>
      </trkpt>
      <trkpt lat="43.94907" lon="1.86263">
        <ele>253.834363</ele>
        <time>2026-08-29T08:46:42Z</time>
      </trkpt>
      <trkpt lat="43.94906" lon="1.86259">
        <ele>253.862869</ele>
        <time>2026-08-29T08:46:43Z</time>
      </trkpt>
      <trkpt lat="43.94904" lon="1.86255">
        <ele>253.893948</ele>
        <time>2026-08-29T08:46:44Z</time>
      </trkpt>
      <trkpt lat="43.94903" lon="1.86252">
        <ele>253.922072</ele>
        <time>2026-08-29T08:46:45Z</time>
      </trkpt>
      <trkpt lat="43.94901" lon="1.86248">
        <ele>253.954147</ele>
        <time>2026-08-29T08:46:46Z</time>
      </trkpt>
      <trkpt lat="43.94899" lon="1.86243">
        <ele>253.989671</ele>
        <time>2026-08-29T08:46:47Z</time>
      </trkpt>
      <trkpt lat="43.94897" lon="1.86239">
        <ele>254.068689</ele>
        <time>2026-08-29T08:46:48Z</time>
      </trkpt>
      <trkpt lat="43.94895" lon="1.86235">
        <ele>254.143129</ele>
        <time>2026-08-29T08:46:49Z</time>
      </trkpt>
      <trkpt lat="43.94894" lon="1.86231">
        <ele>254.228771</ele>
        <time>2026-08-29T08:46:50Z</time>
      </trkpt>
      <trkpt lat="43.94892" lon="1.86227">
        <ele>254.312232</ele>
        <time>2026-08-29T08:46:51Z</time>
      </trkpt>
      <trkpt lat="43.9489" lon="1.86223">
        <ele>254.402808</ele>
        <time>2026-08-29T08:46:52Z</time>
      </trkpt>
      <trkpt lat="43.94886" lon="1.86218">
        <ele>254.517264</ele>
        <time>2026-08-29T08:46:53Z</time>
      </trkpt>
      <trkpt lat="43.94883" lon="1.86214">
        <ele>254.618959</ele>
        <time>2026-08-29T08:46:54Z</time>
      </trkpt>
      <trkpt lat="43.94881" lon="1.8621">
        <ele>254.713937</ele>
        <time>2026-08-29T08:46:55Z</time>
      </trkpt>
      <trkpt lat="43.94878" lon="1.86207">
        <ele>254.808353</ele>
        <time>2026-08-29T08:46:56Z</time>
      </trkpt>
      <trkpt lat="43.94875" lon="1.86204">
        <ele>254.902228</ele>
        <time>2026-08-29T08:46:57Z</time>
      </trkpt>
      <trkpt lat="43.94872" lon="1.862">
        <ele>254.994362</ele>
        <time>2026-08-29T08:46:58Z</time>
      </trkpt>
      <trkpt lat="43.94869" lon="1.86197">
        <ele>255.080919</ele>
        <time>2026-08-29T08:46:59Z</time>
      </trkpt>
      <trkpt lat="43.94866" lon="1.86194">
        <ele>255.165892</ele>
        <time>2026-08-29T08:47:00Z</time>
      </trkpt>
      <trkpt lat="43.94864" lon="1.86191">
        <ele>255.250719</ele>
        <time>2026-08-29T08:47:01Z</time>
      </trkpt>
      <trkpt lat="43.94861" lon="1.86188">
        <ele>255.341566</ele>
        <time>2026-08-29T08:47:02Z</time>
      </trkpt>
      <trkpt lat="43.94857" lon="1.86185">
        <ele>255.436487</ele>
        <time>2026-08-29T08:47:03Z</time>
      </trkpt>
      <trkpt lat="43.94855" lon="1.86182">
        <ele>255.526733</ele>
        <time>2026-08-29T08:47:04Z</time>
      </trkpt>
      <trkpt lat="43.94852" lon="1.86179">
        <ele>255.617609</ele>
        <time>2026-08-29T08:47:05Z</time>
      </trkpt>
      <trkpt lat="43.94849" lon="1.86176">
        <ele>255.707542</ele>
        <time>2026-08-29T08:47:06Z</time>
      </trkpt>
      <trkpt lat="43.94845" lon="1.86173">
        <ele>255.803792</ele>
        <time>2026-08-29T08:47:07Z</time>
      </trkpt>
      <trkpt lat="43.94842" lon="1.8617">
        <ele>255.902784</ele>
        <time>2026-08-29T08:47:08Z</time>
      </trkpt>
      <trkpt lat="43.94839" lon="1.86168">
        <ele>255.993893</ele>
        <time>2026-08-29T08:47:09Z</time>
      </trkpt>
      <trkpt lat="43.94836" lon="1.86165">
        <ele>256.08477</ele>
        <time>2026-08-29T08:47:10Z</time>
      </trkpt>
      <trkpt lat="43.94833" lon="1.86162">
        <ele>256.174595</ele>
        <time>2026-08-29T08:47:11Z</time>
      </trkpt>
      <trkpt lat="43.9483" lon="1.86159">
        <ele>256.261393</ele>
        <time>2026-08-29T08:47:12Z</time>
      </trkpt>
      <trkpt lat="43.94827" lon="1.86156">
        <ele>256.338933</ele>
        <time>2026-08-29T08:47:13Z</time>
      </trkpt>
      <trkpt lat="43.94825" lon="1.86154">
        <ele>256.415687</ele>
        <time>2026-08-29T08:47:14Z</time>
      </trkpt>
      <trkpt lat="43.94822" lon="1.86151">
        <ele>256.506563</ele>
        <time>2026-08-29T08:47:15Z</time>
      </trkpt>
      <trkpt lat="43.94819" lon="1.86148">
        <ele>256.594383</ele>
        <time>2026-08-29T08:47:16Z</time>
      </trkpt>
      <trkpt lat="43.94816" lon="1.86145">
        <ele>256.68523</ele>
        <time>2026-08-29T08:47:17Z</time>
      </trkpt>
      <trkpt lat="43.94813" lon="1.86142">
        <ele>256.772028</ele>
        <time>2026-08-29T08:47:18Z</time>
      </trkpt>
      <trkpt lat="43.9481" lon="1.86139">
        <ele>256.855097</ele>
        <time>2026-08-29T08:47:19Z</time>
      </trkpt>
      <trkpt lat="43.94807" lon="1.86137">
        <ele>256.938058</ele>
        <time>2026-08-29T08:47:20Z</time>
      </trkpt>
      <trkpt lat="43.94804" lon="1.86134">
        <ele>257.034781</ele>
        <time>2026-08-29T08:47:21Z</time>
      </trkpt>
      <trkpt lat="43.94801" lon="1.86131">
        <ele>257.129937</ele>
        <time>2026-08-29T08:47:22Z</time>
      </trkpt>
      <trkpt lat="43.94798" lon="1.86128">
        <ele>257.217936</ele>
        <time>2026-08-29T08:47:23Z</time>
      </trkpt>
      <trkpt lat="43.94795" lon="1.86125">
        <ele>257.314186</ele>
        <time>2026-08-29T08:47:24Z</time>
      </trkpt>
      <trkpt lat="43.94792" lon="1.86122">
        <ele>257.406079</ele>
        <time>2026-08-29T08:47:25Z</time>
      </trkpt>
      <trkpt lat="43.94789" lon="1.86118">
        <ele>257.506177</ele>
        <time>2026-08-29T08:47:26Z</time>
      </trkpt>
      <trkpt lat="43.94786" lon="1.86116">
        <ele>257.590968</ele>
        <time>2026-08-29T08:47:27Z</time>
      </trkpt>
      <trkpt lat="43.94783" lon="1.86113">
        <ele>257.679795</ele>
        <time>2026-08-29T08:47:28Z</time>
      </trkpt>
      <trkpt lat="43.9478" lon="1.8611">
        <ele>257.769621</ele>
        <time>2026-08-29T08:47:29Z</time>
      </trkpt>
      <trkpt lat="43.94777" lon="1.86107">
        <ele>257.855599</ele>
        <time>2026-08-29T08:47:30Z</time>
      </trkpt>
      <trkpt lat="43.94774" lon="1.86105">
        <ele>257.941399</ele>
        <time>2026-08-29T08:47:31Z</time>
      </trkpt>
      <trkpt lat="43.94771" lon="1.86102">
        <ele>258.035301</ele>
        <time>2026-08-29T08:47:32Z</time>
      </trkpt>
      <trkpt lat="43.94768" lon="1.86099">
        <ele>258.125226</ele>
        <time>2026-08-29T08:47:33Z</time>
      </trkpt>
      <trkpt lat="43.94764" lon="1.86096">
        <ele>258.225773</ele>
        <time>2026-08-29T08:47:34Z</time>
      </trkpt>
      <trkpt lat="43.9476" lon="1.86094">
        <ele>258.325491</ele>
        <time>2026-08-29T08:47:35Z</time>
      </trkpt>
      <trkpt lat="43.94757" lon="1.86091">
        <ele>258.4222</ele>
        <time>2026-08-29T08:47:36Z</time>
      </trkpt>
      <trkpt lat="43.94753" lon="1.86089">
        <ele>258.43864</ele>
        <time>2026-08-29T08:47:37Z</time>
      </trkpt>
      <trkpt lat="43.9475" lon="1.86086">
        <ele>258.454329</ele>
        <time>2026-08-29T08:47:38Z</time>
      </trkpt>
      <trkpt lat="43.94746" lon="1.86084">
        <ele>258.471242</ele>
        <time>2026-08-29T08:47:39Z</time>
      </trkpt>
      <trkpt lat="43.94742" lon="1.86082">
        <ele>258.487923</ele>
        <time>2026-08-29T08:47:40Z</time>
      </trkpt>
      <trkpt lat="43.94738" lon="1.8608">
        <ele>258.50419</ele>
        <time>2026-08-29T08:47:41Z</time>
      </trkpt>
      <trkpt lat="43.94734" lon="1.86078">
        <ele>258.519728</ele>
        <time>2026-08-29T08:47:42Z</time>
      </trkpt>
      <trkpt lat="43.9473" lon="1.86077">
        <ele>258.536676</ele>
        <time>2026-08-29T08:47:43Z</time>
      </trkpt>
      <trkpt lat="43.94726" lon="1.86075">
        <ele>258.554571</ele>
        <time>2026-08-29T08:47:44Z</time>
      </trkpt>
      <trkpt lat="43.94722" lon="1.86074">
        <ele>258.572739</ele>
        <time>2026-08-29T08:47:45Z</time>
      </trkpt>
      <trkpt lat="43.94717" lon="1.86073">
        <ele>258.591252</ele>
        <time>2026-08-29T08:47:46Z</time>
      </trkpt>
      <trkpt lat="43.94713" lon="1.86072">
        <ele>258.608569</ele>
        <time>2026-08-29T08:47:47Z</time>
      </trkpt>
      <trkpt lat="43.94709" lon="1.86071">
        <ele>258.624819</ele>
        <time>2026-08-29T08:47:48Z</time>
      </trkpt>
      <trkpt lat="43.94705" lon="1.8607">
        <ele>258.642038</ele>
        <time>2026-08-29T08:47:49Z</time>
      </trkpt>
      <trkpt lat="43.94701" lon="1.86069">
        <ele>258.659616</ele>
        <time>2026-08-29T08:47:50Z</time>
      </trkpt>
      <trkpt lat="43.94696" lon="1.86068">
        <ele>258.676723</ele>
        <time>2026-08-29T08:47:51Z</time>
      </trkpt>
      <trkpt lat="43.94693" lon="1.86068">
        <ele>258.691414</ele>
        <time>2026-08-29T08:47:52Z</time>
      </trkpt>
      <trkpt lat="43.94689" lon="1.86067">
        <ele>258.706289</ele>
        <time>2026-08-29T08:47:53Z</time>
      </trkpt>
      <trkpt lat="43.94685" lon="1.86066">
        <ele>258.72182</ele>
        <time>2026-08-29T08:47:54Z</time>
      </trkpt>
      <trkpt lat="43.94682" lon="1.86065">
        <ele>258.736192</ele>
        <time>2026-08-29T08:47:55Z</time>
      </trkpt>
      <trkpt lat="43.94678" lon="1.86064">
        <ele>258.751465</ele>
        <time>2026-08-29T08:47:56Z</time>
      </trkpt>
      <trkpt lat="43.94674" lon="1.86064">
        <ele>258.76693</ele>
        <time>2026-08-29T08:47:57Z</time>
      </trkpt>
      <trkpt lat="43.94671" lon="1.86063">
        <ele>258.78215</ele>
        <time>2026-08-29T08:47:58Z</time>
      </trkpt>
      <trkpt lat="43.94667" lon="1.86062">
        <ele>258.798568</ele>
        <time>2026-08-29T08:47:59Z</time>
      </trkpt>
      <trkpt lat="43.94663" lon="1.86062">
        <ele>258.814008</ele>
        <time>2026-08-29T08:48:00Z</time>
      </trkpt>
      <trkpt lat="43.94659" lon="1.86061">
        <ele>258.831586</ele>
        <time>2026-08-29T08:48:01Z</time>
      </trkpt>
      <trkpt lat="43.94655" lon="1.8606">
        <ele>258.847008</ele>
        <time>2026-08-29T08:48:02Z</time>
      </trkpt>
      <trkpt lat="43.94651" lon="1.86061">
        <ele>258.862812</ele>
        <time>2026-08-29T08:48:03Z</time>
      </trkpt>
      <trkpt lat="43.94647" lon="1.8606">
        <ele>258.880354</ele>
        <time>2026-08-29T08:48:04Z</time>
      </trkpt>
      <trkpt lat="43.94642" lon="1.86059">
        <ele>258.898701</ele>
        <time>2026-08-29T08:48:05Z</time>
      </trkpt>
      <trkpt lat="43.94637" lon="1.86059">
        <ele>258.917799</ele>
        <time>2026-08-29T08:48:06Z</time>
      </trkpt>
      <trkpt lat="43.94633" lon="1.86058">
        <ele>258.937302</ele>
        <time>2026-08-29T08:48:07Z</time>
      </trkpt>
      <trkpt lat="43.94628" lon="1.86057">
        <ele>258.955282</ele>
        <time>2026-08-29T08:48:08Z</time>
      </trkpt>
      <trkpt lat="43.94624" lon="1.86056">
        <ele>258.973302</ele>
        <time>2026-08-29T08:48:09Z</time>
      </trkpt>
      <trkpt lat="43.94619" lon="1.86055">
        <ele>258.991366</ele>
        <time>2026-08-29T08:48:10Z</time>
      </trkpt>
      <trkpt lat="43.94615" lon="1.86054">
        <ele>259.009831</ele>
        <time>2026-08-29T08:48:11Z</time>
      </trkpt>
      <trkpt lat="43.94611" lon="1.86053">
        <ele>259.027332</ele>
        <time>2026-08-29T08:48:12Z</time>
      </trkpt>
      <trkpt lat="43.94607" lon="1.86051">
        <ele>259.044977</ele>
        <time>2026-08-29T08:48:13Z</time>
      </trkpt>
      <trkpt lat="43.94602" lon="1.8605">
        <ele>259.062314</ele>
        <time>2026-08-29T08:48:14Z</time>
      </trkpt>
      <trkpt lat="43.94598" lon="1.86048">
        <ele>259.081261</ele>
        <time>2026-08-29T08:48:15Z</time>
      </trkpt>
      <trkpt lat="43.94594" lon="1.86045">
        <ele>259.100149</ele>
        <time>2026-08-29T08:48:16Z</time>
      </trkpt>
      <trkpt lat="43.94589" lon="1.86042">
        <ele>259.12087</ele>
        <time>2026-08-29T08:48:17Z</time>
      </trkpt>
      <trkpt lat="43.94584" lon="1.86039">
        <ele>259.143684</ele>
        <time>2026-08-29T08:48:18Z</time>
      </trkpt>
      <trkpt lat="43.94579" lon="1.86036">
        <ele>259.031366</ele>
        <time>2026-08-29T08:48:19Z</time>
      </trkpt>
      <trkpt lat="43.94573" lon="1.86033">
        <ele>258.863749</ele>
        <time>2026-08-29T08:48:20Z</time>
      </trkpt>
      <trkpt lat="43.94568" lon="1.8603">
        <ele>258.69451</ele>
        <time>2026-08-29T08:48:21Z</time>
      </trkpt>
      <trkpt lat="43.94563" lon="1.86026">
        <ele>258.526161</ele>
        <time>2026-08-29T08:48:22Z</time>
      </trkpt>
      <trkpt lat="43.94557" lon="1.86023">
        <ele>258.35608</ele>
        <time>2026-08-29T08:48:23Z</time>
      </trkpt>
      <trkpt lat="43.94551" lon="1.8602">
        <ele>258.178126</ele>
        <time>2026-08-29T08:48:24Z</time>
      </trkpt>
      <trkpt lat="43.94546" lon="1.86016">
        <ele>257.995034</ele>
        <time>2026-08-29T08:48:25Z</time>
      </trkpt>
      <trkpt lat="43.9454" lon="1.86012">
        <ele>257.808471</ele>
        <time>2026-08-29T08:48:26Z</time>
      </trkpt>
      <trkpt lat="43.94534" lon="1.86009">
        <ele>257.639232</ele>
        <time>2026-08-29T08:48:27Z</time>
      </trkpt>
      <trkpt lat="43.9453" lon="1.86006">
        <ele>257.496043</ele>
        <time>2026-08-29T08:48:28Z</time>
      </trkpt>
      <trkpt lat="43.94526" lon="1.86003">
        <ele>257.378676</ele>
        <time>2026-08-29T08:48:29Z</time>
      </trkpt>
      <trkpt lat="43.94523" lon="1.86">
        <ele>257.274792</ele>
        <time>2026-08-29T08:48:30Z</time>
      </trkpt>
      <trkpt lat="43.9452" lon="1.85998">
        <ele>257.169825</ele>
        <time>2026-08-29T08:48:31Z</time>
      </trkpt>
      <trkpt lat="43.94517" lon="1.85995">
        <ele>257.069628</ele>
        <time>2026-08-29T08:48:32Z</time>
      </trkpt>
      <trkpt lat="43.94515" lon="1.85992">
        <ele>256.977004</ele>
        <time>2026-08-29T08:48:33Z</time>
      </trkpt>
      <trkpt lat="43.94513" lon="1.85989">
        <ele>256.889267</ele>
        <time>2026-08-29T08:48:34Z</time>
      </trkpt>
      <trkpt lat="43.9451" lon="1.85986">
        <ele>256.799353</ele>
        <time>2026-08-29T08:48:35Z</time>
      </trkpt>
      <trkpt lat="43.94508" lon="1.85983">
        <ele>256.70945</ele>
        <time>2026-08-29T08:48:36Z</time>
      </trkpt>
      <trkpt lat="43.94506" lon="1.8598">
        <ele>256.618064</ele>
        <time>2026-08-29T08:48:37Z</time>
      </trkpt>
      <trkpt lat="43.94504" lon="1.85977">
        <ele>256.533979</ele>
        <time>2026-08-29T08:48:38Z</time>
      </trkpt>
      <trkpt lat="43.94502" lon="1.85973">
        <ele>256.445084</ele>
        <time>2026-08-29T08:48:39Z</time>
      </trkpt>
      <trkpt lat="43.945" lon="1.8597">
        <ele>256.350984</ele>
        <time>2026-08-29T08:48:40Z</time>
      </trkpt>
      <trkpt lat="43.94498" lon="1.85967">
        <ele>256.258093</ele>
        <time>2026-08-29T08:48:41Z</time>
      </trkpt>
      <trkpt lat="43.94496" lon="1.85963">
        <ele>256.167558</ele>
        <time>2026-08-29T08:48:42Z</time>
      </trkpt>
      <trkpt lat="43.94494" lon="1.8596">
        <ele>256.078466</ele>
        <time>2026-08-29T08:48:43Z</time>
      </trkpt>
      <trkpt lat="43.94492" lon="1.85956">
        <ele>255.989572</ele>
        <time>2026-08-29T08:48:44Z</time>
      </trkpt>
      <trkpt lat="43.9449" lon="1.85953">
        <ele>255.895471</ele>
        <time>2026-08-29T08:48:45Z</time>
      </trkpt>
      <trkpt lat="43.94488" lon="1.85949">
        <ele>255.796359</ele>
        <time>2026-08-29T08:48:46Z</time>
      </trkpt>
      <trkpt lat="43.94485" lon="1.85945">
        <ele>255.688816</ele>
        <time>2026-08-29T08:48:47Z</time>
      </trkpt>
      <trkpt lat="43.94483" lon="1.85942">
        <ele>255.587481</ele>
        <time>2026-08-29T08:48:48Z</time>
      </trkpt>
      <trkpt lat="43.9448" lon="1.85938">
        <ele>255.489608</ele>
        <time>2026-08-29T08:48:49Z</time>
      </trkpt>
      <trkpt lat="43.94478" lon="1.85935">
        <ele>255.396218</ele>
        <time>2026-08-29T08:48:50Z</time>
      </trkpt>
      <trkpt lat="43.94476" lon="1.85932">
        <ele>255.307106</ele>
        <time>2026-08-29T08:48:51Z</time>
      </trkpt>
      <trkpt lat="43.94474" lon="1.85929">
        <ele>255.219369</ele>
        <time>2026-08-29T08:48:52Z</time>
      </trkpt>
      <trkpt lat="43.94471" lon="1.85927">
        <ele>255.138666</ele>
        <time>2026-08-29T08:48:53Z</time>
      </trkpt>
      <trkpt lat="43.94469" lon="1.85924">
        <ele>255.056575</ele>
        <time>2026-08-29T08:48:54Z</time>
      </trkpt>
      <trkpt lat="43.94467" lon="1.85922">
        <ele>254.982087</ele>
        <time>2026-08-29T08:48:55Z</time>
      </trkpt>
      <trkpt lat="43.94465" lon="1.85919">
        <ele>254.90663</ele>
        <time>2026-08-29T08:48:56Z</time>
      </trkpt>
      <trkpt lat="43.94463" lon="1.85917">
        <ele>254.833585</ele>
        <time>2026-08-29T08:48:57Z</time>
      </trkpt>
      <trkpt lat="43.94461" lon="1.85916">
        <ele>254.759269</ele>
        <time>2026-08-29T08:48:58Z</time>
      </trkpt>
      <trkpt lat="43.94459" lon="1.85914">
        <ele>254.683536</ele>
        <time>2026-08-29T08:48:59Z</time>
      </trkpt>
      <trkpt lat="43.94456" lon="1.85912">
        <ele>254.604572</ele>
        <time>2026-08-29T08:49:00Z</time>
      </trkpt>
      <trkpt lat="43.94454" lon="1.85911">
        <ele>254.534791</ele>
        <time>2026-08-29T08:49:01Z</time>
      </trkpt>
      <trkpt lat="43.94451" lon="1.8591">
        <ele>254.446747</ele>
        <time>2026-08-29T08:49:02Z</time>
      </trkpt>
      <trkpt lat="43.94447" lon="1.85909">
        <ele>254.344994</ele>
        <time>2026-08-29T08:49:03Z</time>
      </trkpt>
      <trkpt lat="43.94443" lon="1.85909">
        <ele>254.227362</ele>
        <time>2026-08-29T08:49:04Z</time>
      </trkpt>
      <trkpt lat="43.94439" lon="1.85909">
        <ele>254.100872</ele>
        <time>2026-08-29T08:49:05Z</time>
      </trkpt>
      <trkpt lat="43.94435" lon="1.85908">
        <ele>253.956697</ele>
        <time>2026-08-29T08:49:06Z</time>
      </trkpt>
      <trkpt lat="43.94431" lon="1.85908">
        <ele>253.485359</ele>
        <time>2026-08-29T08:49:07Z</time>
      </trkpt>
      <trkpt lat="43.94427" lon="1.85909">
        <ele>253.001081</ele>
        <time>2026-08-29T08:49:08Z</time>
      </trkpt>
      <trkpt lat="43.94423" lon="1.85909">
        <ele>252.528395</ele>
        <time>2026-08-29T08:49:09Z</time>
      </trkpt>
      <trkpt lat="43.94419" lon="1.8591">
        <ele>252.052441</ele>
        <time>2026-08-29T08:49:10Z</time>
      </trkpt>
      <trkpt lat="43.94416" lon="1.85911">
        <ele>251.561317</ele>
        <time>2026-08-29T08:49:11Z</time>
      </trkpt>
      <trkpt lat="43.94411" lon="1.85913">
        <ele>250.99807</ele>
        <time>2026-08-29T08:49:12Z</time>
      </trkpt>
      <trkpt lat="43.94406" lon="1.85914">
        <ele>250.410532</ele>
        <time>2026-08-29T08:49:13Z</time>
      </trkpt>
      <trkpt lat="43.94401" lon="1.85913">
        <ele>249.790772</ele>
        <time>2026-08-29T08:49:14Z</time>
      </trkpt>
      <trkpt lat="43.94396" lon="1.85912">
        <ele>249.154128</ele>
        <time>2026-08-29T08:49:15Z</time>
      </trkpt>
      <trkpt lat="43.94391" lon="1.8591">
        <ele>248.471607</ele>
        <time>2026-08-29T08:49:16Z</time>
      </trkpt>
      <trkpt lat="43.94387" lon="1.85908">
        <ele>247.882893</ele>
        <time>2026-08-29T08:49:17Z</time>
      </trkpt>
      <trkpt lat="43.94383" lon="1.85906">
        <ele>247.364873</ele>
        <time>2026-08-29T08:49:18Z</time>
      </trkpt>
      <trkpt lat="43.94378" lon="1.85905">
        <ele>246.785264</ele>
        <time>2026-08-29T08:49:19Z</time>
      </trkpt>
      <trkpt lat="43.94373" lon="1.85904">
        <ele>246.139095</ele>
        <time>2026-08-29T08:49:20Z</time>
      </trkpt>
      <trkpt lat="43.94367" lon="1.85905">
        <ele>245.419461</ele>
        <time>2026-08-29T08:49:21Z</time>
      </trkpt>
      <trkpt lat="43.94361" lon="1.85906">
        <ele>244.691916</ele>
        <time>2026-08-29T08:49:22Z</time>
      </trkpt>
      <trkpt lat="43.94355" lon="1.85908">
        <ele>243.935325</ele>
        <time>2026-08-29T08:49:23Z</time>
      </trkpt>
      <trkpt lat="43.94349" lon="1.85909">
        <ele>243.155977</ele>
        <time>2026-08-29T08:49:24Z</time>
      </trkpt>
      <trkpt lat="43.94343" lon="1.85911">
        <ele>242.435836</ele>
        <time>2026-08-29T08:49:25Z</time>
      </trkpt>
      <trkpt lat="43.94338" lon="1.85911">
        <ele>241.826683</ele>
        <time>2026-08-29T08:49:26Z</time>
      </trkpt>
      <trkpt lat="43.94334" lon="1.85912">
        <ele>241.229865</ele>
        <time>2026-08-29T08:49:27Z</time>
      </trkpt>
      <trkpt lat="43.94329" lon="1.85912">
        <ele>240.622019</ele>
        <time>2026-08-29T08:49:28Z</time>
      </trkpt>
      <trkpt lat="43.94324" lon="1.85912">
        <ele>240.027002</ele>
        <time>2026-08-29T08:49:29Z</time>
      </trkpt>
      <trkpt lat="43.94319" lon="1.85912">
        <ele>239.357335</ele>
        <time>2026-08-29T08:49:30Z</time>
      </trkpt>
      <trkpt lat="43.94314" lon="1.85911">
        <ele>238.735014</ele>
        <time>2026-08-29T08:49:31Z</time>
      </trkpt>
      <trkpt lat="43.94308" lon="1.8591">
        <ele>238.086083</ele>
        <time>2026-08-29T08:49:32Z</time>
      </trkpt>
      <trkpt lat="43.94303" lon="1.85909">
        <ele>237.413572</ele>
        <time>2026-08-29T08:49:33Z</time>
      </trkpt>
      <trkpt lat="43.94298" lon="1.85909">
        <ele>236.741949</ele>
        <time>2026-08-29T08:49:34Z</time>
      </trkpt>
      <trkpt lat="43.94292" lon="1.85908">
        <ele>236.072697</ele>
        <time>2026-08-29T08:49:35Z</time>
      </trkpt>
      <trkpt lat="43.94288" lon="1.85908">
        <ele>235.527816</ele>
        <time>2026-08-29T08:49:36Z</time>
      </trkpt>
      <trkpt lat="43.94283" lon="1.85909">
        <ele>234.893988</ele>
        <time>2026-08-29T08:49:37Z</time>
      </trkpt>
      <trkpt lat="43.94277" lon="1.85909">
        <ele>234.224321</ele>
        <time>2026-08-29T08:49:38Z</time>
      </trkpt>
      <trkpt lat="43.94271" lon="1.85908">
        <ele>233.467026</ele>
        <time>2026-08-29T08:49:39Z</time>
      </trkpt>
      <trkpt lat="43.94265" lon="1.85908">
        <ele>232.674422</ele>
        <time>2026-08-29T08:49:40Z</time>
      </trkpt>
      <trkpt lat="43.94258" lon="1.85908">
        <ele>231.856664</ele>
        <time>2026-08-29T08:49:41Z</time>
      </trkpt>
      <trkpt lat="43.94252" lon="1.85907">
        <ele>231.063127</ele>
        <time>2026-08-29T08:49:42Z</time>
      </trkpt>
      <trkpt lat="43.94246" lon="1.85906">
        <ele>230.328482</ele>
        <time>2026-08-29T08:49:43Z</time>
      </trkpt>
      <trkpt lat="43.9424" lon="1.85905">
        <ele>229.596807</ele>
        <time>2026-08-29T08:49:44Z</time>
      </trkpt>
      <trkpt lat="43.94234" lon="1.85904">
        <ele>228.884988</ele>
        <time>2026-08-29T08:49:45Z</time>
      </trkpt>
      <trkpt lat="43.94228" lon="1.85903">
        <ele>228.214557</ele>
        <time>2026-08-29T08:49:46Z</time>
      </trkpt>
      <trkpt lat="43.94223" lon="1.85904">
        <ele>227.58934</ele>
        <time>2026-08-29T08:49:47Z</time>
      </trkpt>
      <trkpt lat="43.94218" lon="1.85906">
        <ele>226.941087</ele>
        <time>2026-08-29T08:49:48Z</time>
      </trkpt>
      <trkpt lat="43.94213" lon="1.8591">
        <ele>226.228415</ele>
        <time>2026-08-29T08:49:49Z</time>
      </trkpt>
      <trkpt lat="43.94207" lon="1.85911">
        <ele>225.52073</ele>
        <time>2026-08-29T08:49:50Z</time>
      </trkpt>
      <trkpt lat="43.94201" lon="1.85911">
        <ele>224.791093</ele>
        <time>2026-08-29T08:49:51Z</time>
      </trkpt>
      <trkpt lat="43.94195" lon="1.8591">
        <ele>223.995131</ele>
        <time>2026-08-29T08:49:52Z</time>
      </trkpt>
      <trkpt lat="43.94188" lon="1.85909">
        <ele>223.181786</ele>
        <time>2026-08-29T08:49:53Z</time>
      </trkpt>
      <trkpt lat="43.94181" lon="1.85911">
        <ele>222.347328</ele>
        <time>2026-08-29T08:49:54Z</time>
      </trkpt>
      <trkpt lat="43.94174" lon="1.85914">
        <ele>221.50435</ele>
        <time>2026-08-29T08:49:55Z</time>
      </trkpt>
      <trkpt lat="43.94168" lon="1.85918">
        <ele>220.637071</ele>
        <time>2026-08-29T08:49:56Z</time>
      </trkpt>
      <trkpt lat="43.94162" lon="1.85923">
        <ele>219.742963</ele>
        <time>2026-08-29T08:49:57Z</time>
      </trkpt>
      <trkpt lat="43.94156" lon="1.85929">
        <ele>218.909929</ele>
        <time>2026-08-29T08:49:58Z</time>
      </trkpt>
      <trkpt lat="43.94151" lon="1.85935">
        <ele>218.090422</ele>
        <time>2026-08-29T08:49:59Z</time>
      </trkpt>
      <trkpt lat="43.94146" lon="1.85938">
        <ele>217.433142</ele>
        <time>2026-08-29T08:50:00Z</time>
      </trkpt>
      <trkpt lat="43.94141" lon="1.85943">
        <ele>216.725222</ele>
        <time>2026-08-29T08:50:01Z</time>
      </trkpt>
      <trkpt lat="43.94135" lon="1.85946">
        <ele>215.899525</ele>
        <time>2026-08-29T08:50:02Z</time>
      </trkpt>
      <trkpt lat="43.94129" lon="1.85946">
        <ele>215.219248</ele>
        <time>2026-08-29T08:50:03Z</time>
      </trkpt>
      <trkpt lat="43.94124" lon="1.85944">
        <ele>214.491665</ele>
        <time>2026-08-29T08:50:04Z</time>
      </trkpt>
      <trkpt lat="43.94117" lon="1.85941">
        <ele>213.65647</ele>
        <time>2026-08-29T08:50:05Z</time>
      </trkpt>
      <trkpt lat="43.9411" lon="1.85938">
        <ele>212.799224</ele>
        <time>2026-08-29T08:50:06Z</time>
      </trkpt>
      <trkpt lat="43.94103" lon="1.85933">
        <ele>211.86111</ele>
        <time>2026-08-29T08:50:07Z</time>
      </trkpt>
      <trkpt lat="43.94096" lon="1.85928">
        <ele>210.902691</ele>
        <time>2026-08-29T08:50:08Z</time>
      </trkpt>
      <trkpt lat="43.9409" lon="1.85925">
        <ele>210.05119</ele>
        <time>2026-08-29T08:50:09Z</time>
      </trkpt>
      <trkpt lat="43.94083" lon="1.85924">
        <ele>209.628755</ele>
        <time>2026-08-29T08:50:10Z</time>
      </trkpt>
      <trkpt lat="43.94078" lon="1.85927">
        <ele>209.328296</ele>
        <time>2026-08-29T08:50:11Z</time>
      </trkpt>
      <trkpt lat="43.94073" lon="1.85931">
        <ele>209.039293</ele>
        <time>2026-08-29T08:50:12Z</time>
      </trkpt>
      <trkpt lat="43.94069" lon="1.85936">
        <ele>208.777385</ele>
        <time>2026-08-29T08:50:13Z</time>
      </trkpt>
      <trkpt lat="43.94065" lon="1.85939">
        <ele>208.522903</ele>
        <time>2026-08-29T08:50:14Z</time>
      </trkpt>
      <trkpt lat="43.94061" lon="1.85941">
        <ele>208.293675</ele>
        <time>2026-08-29T08:50:15Z</time>
      </trkpt>
      <trkpt lat="43.94057" lon="1.85944">
        <ele>208.063967</ele>
        <time>2026-08-29T08:50:16Z</time>
      </trkpt>
      <trkpt lat="43.94054" lon="1.85949">
        <ele>207.820791</ele>
        <time>2026-08-29T08:50:17Z</time>
      </trkpt>
      <trkpt lat="43.94052" lon="1.85954">
        <ele>207.611404</ele>
        <time>2026-08-29T08:50:18Z</time>
      </trkpt>
      <trkpt lat="43.9405" lon="1.85959">
        <ele>207.398776</ele>
        <time>2026-08-29T08:50:19Z</time>
      </trkpt>
      <trkpt lat="43.94047" lon="1.85963">
        <ele>207.169129</ele>
        <time>2026-08-29T08:50:20Z</time>
      </trkpt>
      <trkpt lat="43.94044" lon="1.85967">
        <ele>206.961744</ele>
        <time>2026-08-29T08:50:21Z</time>
      </trkpt>
      <trkpt lat="43.94042" lon="1.85972">
        <ele>206.743992</ele>
        <time>2026-08-29T08:50:22Z</time>
      </trkpt>
      <trkpt lat="43.94039" lon="1.85976">
        <ele>206.541417</ele>
        <time>2026-08-29T08:50:23Z</time>
      </trkpt>
      <trkpt lat="43.94037" lon="1.85981">
        <ele>206.324176</ele>
        <time>2026-08-29T08:50:24Z</time>
      </trkpt>
      <trkpt lat="43.94034" lon="1.85986">
        <ele>206.106935</ele>
        <time>2026-08-29T08:50:25Z</time>
      </trkpt>
      <trkpt lat="43.94032" lon="1.8599">
        <ele>205.886603</ele>
        <time>2026-08-29T08:50:26Z</time>
      </trkpt>
      <trkpt lat="43.94029" lon="1.85995">
        <ele>205.663088</ele>
        <time>2026-08-29T08:50:27Z</time>
      </trkpt>
      <trkpt lat="43.94026" lon="1.86">
        <ele>205.442467</ele>
        <time>2026-08-29T08:50:28Z</time>
      </trkpt>
      <trkpt lat="43.94023" lon="1.86004">
        <ele>205.220721</ele>
        <time>2026-08-29T08:50:29Z</time>
      </trkpt>
      <trkpt lat="43.9402" lon="1.86009">
        <ele>204.982947</ele>
        <time>2026-08-29T08:50:30Z</time>
      </trkpt>
      <trkpt lat="43.94017" lon="1.86013">
        <ele>204.742485</ele>
        <time>2026-08-29T08:50:31Z</time>
      </trkpt>
      <trkpt lat="43.94014" lon="1.86018">
        <ele>204.50554</ele>
        <time>2026-08-29T08:50:32Z</time>
      </trkpt>
      <trkpt lat="43.94011" lon="1.86023">
        <ele>204.291056</ele>
        <time>2026-08-29T08:50:33Z</time>
      </trkpt>
      <trkpt lat="43.94009" lon="1.86027">
        <ele>204.088804</ele>
        <time>2026-08-29T08:50:34Z</time>
      </trkpt>
      <trkpt lat="43.94006" lon="1.86031">
        <ele>203.879498</ele>
        <time>2026-08-29T08:50:35Z</time>
      </trkpt>
      <trkpt lat="43.94003" lon="1.86036">
        <ele>203.661745</ele>
        <time>2026-08-29T08:50:36Z</time>
      </trkpt>
      <trkpt lat="43.94001" lon="1.8604">
        <ele>203.446222</ele>
        <time>2026-08-29T08:50:37Z</time>
      </trkpt>
      <trkpt lat="43.93998" lon="1.86044">
        <ele>203.231312</ele>
        <time>2026-08-29T08:50:38Z</time>
      </trkpt>
      <trkpt lat="43.93995" lon="1.86048">
        <ele>203.018533</ele>
        <time>2026-08-29T08:50:39Z</time>
      </trkpt>
      <trkpt lat="43.93992" lon="1.86053">
        <ele>202.802212</ele>
        <time>2026-08-29T08:50:40Z</time>
      </trkpt>
      <trkpt lat="43.93989" lon="1.86057">
        <ele>202.585891</ele>
        <time>2026-08-29T08:50:41Z</time>
      </trkpt>
      <trkpt lat="43.93987" lon="1.86061">
        <ele>202.375824</ele>
        <time>2026-08-29T08:50:42Z</time>
      </trkpt>
      <trkpt lat="43.93984" lon="1.86065">
        <ele>202.161339</ele>
        <time>2026-08-29T08:50:43Z</time>
      </trkpt>
      <trkpt lat="43.93981" lon="1.8607">
        <ele>201.94232</ele>
        <time>2026-08-29T08:50:44Z</time>
      </trkpt>
      <trkpt lat="43.93978" lon="1.86074">
        <ele>201.731303</ele>
        <time>2026-08-29T08:50:45Z</time>
      </trkpt>
      <trkpt lat="43.93975" lon="1.86078">
        <ele>201.523917</ele>
        <time>2026-08-29T08:50:46Z</time>
      </trkpt>
      <trkpt lat="43.93973" lon="1.86082">
        <ele>201.312739</ele>
        <time>2026-08-29T08:50:47Z</time>
      </trkpt>
      <trkpt lat="43.9397" lon="1.86087">
        <ele>201.097829</ele>
        <time>2026-08-29T08:50:48Z</time>
      </trkpt>
      <trkpt lat="43.93967" lon="1.86091">
        <ele>200.873325</ele>
        <time>2026-08-29T08:50:49Z</time>
      </trkpt>
      <trkpt lat="43.93964" lon="1.86096">
        <ele>200.637041</ele>
        <time>2026-08-29T08:50:50Z</time>
      </trkpt>
      <trkpt lat="43.93961" lon="1.86101">
        <ele>200.449345</ele>
        <time>2026-08-29T08:50:51Z</time>
      </trkpt>
      <trkpt lat="43.93958" lon="1.86106">
        <ele>200.272382</ele>
        <time>2026-08-29T08:50:52Z</time>
      </trkpt>
      <trkpt lat="43.93955" lon="1.8611">
        <ele>200.10183</ele>
        <time>2026-08-29T08:50:53Z</time>
      </trkpt>
      <trkpt lat="43.93952" lon="1.86114">
        <ele>199.943302</ele>
        <time>2026-08-29T08:50:54Z</time>
      </trkpt>
      <trkpt lat="43.93949" lon="1.86119">
        <ele>199.795149</ele>
        <time>2026-08-29T08:50:55Z</time>
      </trkpt>
      <trkpt lat="43.93946" lon="1.86123">
        <ele>199.653913</ele>
        <time>2026-08-29T08:50:56Z</time>
      </trkpt>
      <trkpt lat="43.93944" lon="1.86126">
        <ele>199.519131</ele>
        <time>2026-08-29T08:50:57Z</time>
      </trkpt>
      <trkpt lat="43.93941" lon="1.8613">
        <ele>199.377409</ele>
        <time>2026-08-29T08:50:58Z</time>
      </trkpt>
      <trkpt lat="43.93939" lon="1.86134">
        <ele>199.236107</ele>
        <time>2026-08-29T08:50:59Z</time>
      </trkpt>
      <trkpt lat="43.93935" lon="1.86136">
        <ele>199.102289</ele>
        <time>2026-08-29T08:51:00Z</time>
      </trkpt>
      <trkpt lat="43.93932" lon="1.86135">
        <ele>198.983041</ele>
        <time>2026-08-29T08:51:01Z</time>
      </trkpt>
      <trkpt lat="43.93929" lon="1.86133">
        <ele>198.861193</ele>
        <time>2026-08-29T08:51:02Z</time>
      </trkpt>
      <trkpt lat="43.93926" lon="1.86129">
        <ele>198.7178</ele>
        <time>2026-08-29T08:51:03Z</time>
      </trkpt>
      <trkpt lat="43.93923" lon="1.86124">
        <ele>198.542516</ele>
        <time>2026-08-29T08:51:04Z</time>
      </trkpt>
      <trkpt lat="43.93922" lon="1.86118">
        <ele>198.371905</ele>
        <time>2026-08-29T08:51:05Z</time>
      </trkpt>
      <trkpt lat="43.93921" lon="1.86111">
        <ele>198.186984</ele>
        <time>2026-08-29T08:51:06Z</time>
      </trkpt>
      <trkpt lat="43.93921" lon="1.86104">
        <ele>197.98532</ele>
        <time>2026-08-29T08:51:07Z</time>
      </trkpt>
      <trkpt lat="43.93919" lon="1.86097">
        <ele>197.796038</ele>
        <time>2026-08-29T08:51:08Z</time>
      </trkpt>
      <trkpt lat="43.93917" lon="1.86091">
        <ele>197.625306</ele>
        <time>2026-08-29T08:51:09Z</time>
      </trkpt>
      <trkpt lat="43.93913" lon="1.86085">
        <ele>197.410472</ele>
        <time>2026-08-29T08:51:10Z</time>
      </trkpt>
      <trkpt lat="43.93909" lon="1.8608">
        <ele>197.211891</ele>
        <time>2026-08-29T08:51:11Z</time>
      </trkpt>
      <trkpt lat="43.93904" lon="1.86076">
        <ele>196.98523</ele>
        <time>2026-08-29T08:51:12Z</time>
      </trkpt>
      <trkpt lat="43.93898" lon="1.86072">
        <ele>196.730877</ele>
        <time>2026-08-29T08:51:13Z</time>
      </trkpt>
      <trkpt lat="43.93891" lon="1.86069">
        <ele>196.483943</ele>
        <time>2026-08-29T08:51:14Z</time>
      </trkpt>
      <trkpt lat="43.93884" lon="1.86067">
        <ele>196.205266</ele>
        <time>2026-08-29T08:51:15Z</time>
      </trkpt>
      <trkpt lat="43.93876" lon="1.86066">
        <ele>195.904129</ele>
        <time>2026-08-29T08:51:16Z</time>
      </trkpt>
      <trkpt lat="43.93868" lon="1.86065">
        <ele>195.605857</ele>
        <time>2026-08-29T08:51:17Z</time>
      </trkpt>
      <trkpt lat="43.93859" lon="1.86063">
        <ele>195.284177</ele>
        <time>2026-08-29T08:51:18Z</time>
      </trkpt>
      <trkpt lat="43.93851" lon="1.86062">
        <ele>194.969827</ele>
        <time>2026-08-29T08:51:19Z</time>
      </trkpt>
      <trkpt lat="43.93842" lon="1.8606">
        <ele>194.658741</ele>
        <time>2026-08-29T08:51:20Z</time>
      </trkpt>
      <trkpt lat="43.93835" lon="1.86057">
        <ele>194.362303</ele>
        <time>2026-08-29T08:51:21Z</time>
      </trkpt>
      <trkpt lat="43.93829" lon="1.86055">
        <ele>194.136756</ele>
        <time>2026-08-29T08:51:22Z</time>
      </trkpt>
      <trkpt lat="43.93825" lon="1.86054">
        <ele>193.984566</ele>
        <time>2026-08-29T08:51:23Z</time>
      </trkpt>
      <trkpt lat="43.93824" lon="1.8605">
        <ele>194.016064</ele>
        <time>2026-08-29T08:51:24Z</time>
      </trkpt>
      <trkpt lat="43.93824" lon="1.86047">
        <ele>194.186368</ele>
        <time>2026-08-29T08:51:25Z</time>
      </trkpt>
      <trkpt lat="43.93825" lon="1.86044">
        <ele>194.324965</ele>
        <time>2026-08-29T08:51:26Z</time>
      </trkpt>
      <trkpt lat="43.93826" lon="1.86042">
        <ele>194.474706</ele>
        <time>2026-08-29T08:51:27Z</time>
      </trkpt>
      <trkpt lat="43.93827" lon="1.86039">
        <ele>194.641203</ele>
        <time>2026-08-29T08:51:28Z</time>
      </trkpt>
      <trkpt lat="43.93829" lon="1.86035">
        <ele>194.827505</ele>
        <time>2026-08-29T08:51:29Z</time>
      </trkpt>
      <trkpt lat="43.9383" lon="1.86031">
        <ele>195.032508</ele>
        <time>2026-08-29T08:51:30Z</time>
      </trkpt>
      <trkpt lat="43.93832" lon="1.86027">
        <ele>195.234435</ele>
        <time>2026-08-29T08:51:31Z</time>
      </trkpt>
      <trkpt lat="43.93833" lon="1.86024">
        <ele>195.435068</ele>
        <time>2026-08-29T08:51:32Z</time>
      </trkpt>
      <trkpt lat="43.93834" lon="1.8602">
        <ele>195.611399</ele>
        <time>2026-08-29T08:51:33Z</time>
      </trkpt>
      <trkpt lat="43.93835" lon="1.86016">
        <ele>195.798689</ele>
        <time>2026-08-29T08:51:34Z</time>
      </trkpt>
      <trkpt lat="43.93836" lon="1.86012">
        <ele>195.996938</ele>
        <time>2026-08-29T08:51:35Z</time>
      </trkpt>
      <trkpt lat="43.93837" lon="1.86009">
        <ele>196.193229</ele>
        <time>2026-08-29T08:51:36Z</time>
      </trkpt>
      <trkpt lat="43.93838" lon="1.86005">
        <ele>196.37823</ele>
        <time>2026-08-29T08:51:37Z</time>
      </trkpt>
      <trkpt lat="43.93839" lon="1.86002">
        <ele>196.545164</ele>
        <time>2026-08-29T08:51:38Z</time>
      </trkpt>
      <trkpt lat="43.9384" lon="1.85999">
        <ele>196.700222</ele>
        <time>2026-08-29T08:51:39Z</time>
      </trkpt>
      <trkpt lat="43.93841" lon="1.85996">
        <ele>196.865389</ele>
        <time>2026-08-29T08:51:40Z</time>
      </trkpt>
      <trkpt lat="43.93842" lon="1.85993">
        <ele>196.996561</ele>
        <time>2026-08-29T08:51:41Z</time>
      </trkpt>
      <trkpt lat="43.93843" lon="1.85991">
        <ele>197.128784</ele>
        <time>2026-08-29T08:51:42Z</time>
      </trkpt>
      <trkpt lat="43.93844" lon="1.85988">
        <ele>197.269532</ele>
        <time>2026-08-29T08:51:43Z</time>
      </trkpt>
      <trkpt lat="43.93845" lon="1.85986">
        <ele>197.396425</ele>
        <time>2026-08-29T08:51:44Z</time>
      </trkpt>
      <trkpt lat="43.93846" lon="1.85983">
        <ele>197.517258</ele>
        <time>2026-08-29T08:51:45Z</time>
      </trkpt>
      <trkpt lat="43.93847" lon="1.85981">
        <ele>197.636955</ele>
        <time>2026-08-29T08:51:46Z</time>
      </trkpt>
      <trkpt lat="43.93847" lon="1.85979">
        <ele>197.757788</ele>
        <time>2026-08-29T08:51:47Z</time>
      </trkpt>
      <trkpt lat="43.93848" lon="1.85977">
        <ele>197.872973</ele>
        <time>2026-08-29T08:51:48Z</time>
      </trkpt>
      <trkpt lat="43.93849" lon="1.85974">
        <ele>197.999865</ele>
        <time>2026-08-29T08:51:49Z</time>
      </trkpt>
      <trkpt lat="43.9385" lon="1.85972">
        <ele>198.120699</ele>
        <time>2026-08-29T08:51:50Z</time>
      </trkpt>
      <trkpt lat="43.93851" lon="1.8597">
        <ele>198.247591</ele>
        <time>2026-08-29T08:51:51Z</time>
      </trkpt>
      <trkpt lat="43.93851" lon="1.85967">
        <ele>198.368424</ele>
        <time>2026-08-29T08:51:52Z</time>
      </trkpt>
      <trkpt lat="43.93852" lon="1.85965">
        <ele>198.500647</ele>
        <time>2026-08-29T08:51:53Z</time>
      </trkpt>
      <trkpt lat="43.93853" lon="1.85962">
        <ele>198.634402</ele>
        <time>2026-08-29T08:51:54Z</time>
      </trkpt>
      <trkpt lat="43.93854" lon="1.8596">
        <ele>198.768073</ele>
        <time>2026-08-29T08:51:55Z</time>
      </trkpt>
      <trkpt lat="43.93854" lon="1.85957">
        <ele>198.894965</ele>
        <time>2026-08-29T08:51:56Z</time>
      </trkpt>
      <trkpt lat="43.93855" lon="1.85954">
        <ele>199.030719</ele>
        <time>2026-08-29T08:51:57Z</time>
      </trkpt>
      <trkpt lat="43.93856" lon="1.85952">
        <ele>199.157611</ele>
        <time>2026-08-29T08:51:58Z</time>
      </trkpt>
      <trkpt lat="43.93856" lon="1.85949">
        <ele>199.288923</ele>
        <time>2026-08-29T08:51:59Z</time>
      </trkpt>
      <trkpt lat="43.93857" lon="1.85947">
        <ele>199.398395</ele>
        <time>2026-08-29T08:52:00Z</time>
      </trkpt>
      <trkpt lat="43.93858" lon="1.85945">
        <ele>199.501155</ele>
        <time>2026-08-29T08:52:01Z</time>
      </trkpt>
      <trkpt lat="43.93858" lon="1.85943">
        <ele>199.591992</ele>
        <time>2026-08-29T08:52:02Z</time>
      </trkpt>
      <trkpt lat="43.93858" lon="1.85941">
        <ele>199.707717</ele>
        <time>2026-08-29T08:52:03Z</time>
      </trkpt>
      <trkpt lat="43.93859" lon="1.85939">
        <ele>199.810212</ele>
        <time>2026-08-29T08:52:04Z</time>
      </trkpt>
      <trkpt lat="43.93859" lon="1.85937">
        <ele>199.914845</ele>
        <time>2026-08-29T08:52:05Z</time>
      </trkpt>
      <trkpt lat="43.9386" lon="1.85935">
        <ele>200.012991</ele>
        <time>2026-08-29T08:52:06Z</time>
      </trkpt>
      <trkpt lat="43.93861" lon="1.85933">
        <ele>200.122125</ele>
        <time>2026-08-29T08:52:07Z</time>
      </trkpt>
      <trkpt lat="43.93861" lon="1.85931">
        <ele>200.224621</ele>
        <time>2026-08-29T08:52:08Z</time>
      </trkpt>
      <trkpt lat="43.93862" lon="1.85929">
        <ele>200.313186</ele>
        <time>2026-08-29T08:52:09Z</time>
      </trkpt>
      <trkpt lat="43.93862" lon="1.85927">
        <ele>200.415681</ele>
        <time>2026-08-29T08:52:10Z</time>
      </trkpt>
      <trkpt lat="43.93863" lon="1.85925">
        <ele>200.513875</ele>
        <time>2026-08-29T08:52:11Z</time>
      </trkpt>
      <trkpt lat="43.93864" lon="1.85923">
        <ele>200.617541</ele>
        <time>2026-08-29T08:52:12Z</time>
      </trkpt>
      <trkpt lat="43.93864" lon="1.85921">
        <ele>200.733266</ele>
        <time>2026-08-29T08:52:13Z</time>
      </trkpt>
      <trkpt lat="43.93865" lon="1.85919">
        <ele>200.860366</ele>
        <time>2026-08-29T08:52:14Z</time>
      </trkpt>
      <trkpt lat="43.93866" lon="1.85916">
        <ele>200.987465</ele>
        <time>2026-08-29T08:52:15Z</time>
      </trkpt>
      <trkpt lat="43.93867" lon="1.85914">
        <ele>201.119688</ele>
        <time>2026-08-29T08:52:16Z</time>
      </trkpt>
      <trkpt lat="43.93868" lon="1.85912">
        <ele>201.246787</ele>
        <time>2026-08-29T08:52:17Z</time>
      </trkpt>
      <trkpt lat="43.93869" lon="1.85909">
        <ele>201.370619</ele>
        <time>2026-08-29T08:52:18Z</time>
      </trkpt>
      <trkpt lat="43.9387" lon="1.85907">
        <ele>201.486226</ele>
        <time>2026-08-29T08:52:19Z</time>
      </trkpt>
      <trkpt lat="43.93871" lon="1.85905">
        <ele>201.616787</ele>
        <time>2026-08-29T08:52:20Z</time>
      </trkpt>
      <trkpt lat="43.93872" lon="1.85903">
        <ele>201.732394</ele>
        <time>2026-08-29T08:52:21Z</time>
      </trkpt>
      <trkpt lat="43.93873" lon="1.85901">
        <ele>201.840624</ele>
        <time>2026-08-29T08:52:22Z</time>
      </trkpt>
      <trkpt lat="43.93874" lon="1.85899">
        <ele>201.94429</ele>
        <time>2026-08-29T08:52:23Z</time>
      </trkpt>
      <trkpt lat="43.93875" lon="1.85897">
        <ele>202.051876</ele>
        <time>2026-08-29T08:52:24Z</time>
      </trkpt>
      <trkpt lat="43.93876" lon="1.85895">
        <ele>202.151692</ele>
        <time>2026-08-29T08:52:25Z</time>
      </trkpt>
      <trkpt lat="43.93877" lon="1.85894">
        <ele>202.259241</ele>
        <time>2026-08-29T08:52:26Z</time>
      </trkpt>
      <trkpt lat="43.93878" lon="1.85892">
        <ele>202.370923</ele>
        <time>2026-08-29T08:52:27Z</time>
      </trkpt>
      <trkpt lat="43.93879" lon="1.8589">
        <ele>202.478509</ele>
        <time>2026-08-29T08:52:28Z</time>
      </trkpt>
      <trkpt lat="43.93879" lon="1.85887">
        <ele>202.60317</ele>
        <time>2026-08-29T08:52:29Z</time>
      </trkpt>
      <trkpt lat="43.9388" lon="1.85885">
        <ele>202.722271</ele>
        <time>2026-08-29T08:52:30Z</time>
      </trkpt>
      <trkpt lat="43.93881" lon="1.85883">
        <ele>202.846102</ele>
        <time>2026-08-29T08:52:31Z</time>
      </trkpt>
      <trkpt lat="43.93882" lon="1.85881">
        <ele>202.969934</ele>
        <time>2026-08-29T08:52:32Z</time>
      </trkpt>
      <trkpt lat="43.93883" lon="1.85878">
        <ele>203.097942</ele>
        <time>2026-08-29T08:52:33Z</time>
      </trkpt>
      <trkpt lat="43.93884" lon="1.85876">
        <ele>203.20951</ele>
        <time>2026-08-29T08:52:34Z</time>
      </trkpt>
      <trkpt lat="43.93885" lon="1.85874">
        <ele>203.325116</ele>
        <time>2026-08-29T08:52:35Z</time>
      </trkpt>
      <trkpt lat="43.93886" lon="1.85872">
        <ele>203.444217</ele>
        <time>2026-08-29T08:52:36Z</time>
      </trkpt>
      <trkpt lat="43.93886" lon="1.8587">
        <ele>203.549413</ele>
        <time>2026-08-29T08:52:37Z</time>
      </trkpt>
      <trkpt lat="43.93887" lon="1.85869">
        <ele>203.634752</ele>
        <time>2026-08-29T08:52:38Z</time>
      </trkpt>
      <trkpt lat="43.93888" lon="1.85866">
        <ele>203.739385</ele>
        <time>2026-08-29T08:52:39Z</time>
      </trkpt>
      <trkpt lat="43.93888" lon="1.85864">
        <ele>203.853039</ele>
        <time>2026-08-29T08:52:40Z</time>
      </trkpt>
      <trkpt lat="43.93889" lon="1.85862">
        <ele>203.96963</ele>
        <time>2026-08-29T08:52:41Z</time>
      </trkpt>
      <trkpt lat="43.9389" lon="1.8586">
        <ele>204.082019</ele>
        <time>2026-08-29T08:52:42Z</time>
      </trkpt>
      <trkpt lat="43.9389" lon="1.85858">
        <ele>204.182981</ele>
        <time>2026-08-29T08:52:43Z</time>
      </trkpt>
      <trkpt lat="43.93891" lon="1.85856">
        <ele>204.290567</ele>
        <time>2026-08-29T08:52:44Z</time>
      </trkpt>
      <trkpt lat="43.93892" lon="1.85854">
        <ele>204.402135</ele>
        <time>2026-08-29T08:52:45Z</time>
      </trkpt>
      <trkpt lat="43.93893" lon="1.85852">
        <ele>204.518726</ele>
        <time>2026-08-29T08:52:46Z</time>
      </trkpt>
      <trkpt lat="43.93894" lon="1.8585">
        <ele>204.631114</ele>
        <time>2026-08-29T08:52:47Z</time>
      </trkpt>
      <trkpt lat="43.93895" lon="1.85847">
        <ele>204.751947</ele>
        <time>2026-08-29T08:52:48Z</time>
      </trkpt>
      <trkpt lat="43.93895" lon="1.85846">
        <ele>204.859532</ele>
        <time>2026-08-29T08:52:49Z</time>
      </trkpt>
      <trkpt lat="43.93896" lon="1.85844">
        <ele>204.959756</ele>
        <time>2026-08-29T08:52:50Z</time>
      </trkpt>
      <trkpt lat="43.93897" lon="1.85842">
        <ele>205.063599</ele>
        <time>2026-08-29T08:52:51Z</time>
      </trkpt>
      <trkpt lat="43.93898" lon="1.8584">
        <ele>205.186673</ele>
        <time>2026-08-29T08:52:52Z</time>
      </trkpt>
      <trkpt lat="43.939" lon="1.85838">
        <ele>205.305726</ele>
        <time>2026-08-29T08:52:53Z</time>
      </trkpt>
      <trkpt lat="43.939" lon="1.85836">
        <ele>205.421332</ele>
        <time>2026-08-29T08:52:54Z</time>
      </trkpt>
      <trkpt lat="43.93902" lon="1.85834">
        <ele>205.540386</ele>
        <time>2026-08-29T08:52:55Z</time>
      </trkpt>
      <trkpt lat="43.93902" lon="1.85832">
        <ele>205.651953</ele>
        <time>2026-08-29T08:52:56Z</time>
      </trkpt>
      <trkpt lat="43.93903" lon="1.8583">
        <ele>205.757763</ele>
        <time>2026-08-29T08:52:57Z</time>
      </trkpt>
      <trkpt lat="43.93904" lon="1.85828">
        <ele>205.922642</ele>
        <time>2026-08-29T08:52:58Z</time>
      </trkpt>
      <trkpt lat="43.93905" lon="1.85826">
        <ele>206.085652</ele>
        <time>2026-08-29T08:52:59Z</time>
      </trkpt>
      <trkpt lat="43.93906" lon="1.85824">
        <ele>206.22444</ele>
        <time>2026-08-29T08:53:00Z</time>
      </trkpt>
      <trkpt lat="43.93907" lon="1.85823">
        <ele>206.380843</ele>
        <time>2026-08-29T08:53:01Z</time>
      </trkpt>
      <trkpt lat="43.93907" lon="1.85821">
        <ele>206.531555</ele>
        <time>2026-08-29T08:53:02Z</time>
      </trkpt>
      <trkpt lat="43.93908" lon="1.85819">
        <ele>206.688375</ele>
        <time>2026-08-29T08:53:03Z</time>
      </trkpt>
      <trkpt lat="43.93909" lon="1.85817">
        <ele>206.867758</ele>
        <time>2026-08-29T08:53:04Z</time>
      </trkpt>
      <trkpt lat="43.9391" lon="1.85815">
        <ele>207.047141</ele>
        <time>2026-08-29T08:53:05Z</time>
      </trkpt>
      <trkpt lat="43.93911" lon="1.85813">
        <ele>207.226524</ele>
        <time>2026-08-29T08:53:06Z</time>
      </trkpt>
      <trkpt lat="43.93912" lon="1.8581">
        <ele>207.430286</ele>
        <time>2026-08-29T08:53:07Z</time>
      </trkpt>
      <trkpt lat="43.93913" lon="1.85808">
        <ele>207.610567</ele>
        <time>2026-08-29T08:53:08Z</time>
      </trkpt>
      <trkpt lat="43.93914" lon="1.85806">
        <ele>207.790847</ele>
        <time>2026-08-29T08:53:09Z</time>
      </trkpt>
      <trkpt lat="43.93915" lon="1.85804">
        <ele>207.953857</ele>
        <time>2026-08-29T08:53:10Z</time>
      </trkpt>
      <trkpt lat="43.93916" lon="1.85802">
        <ele>208.127977</ele>
        <time>2026-08-29T08:53:11Z</time>
      </trkpt>
      <trkpt lat="43.93916" lon="1.858">
        <ele>208.284797</ele>
        <time>2026-08-29T08:53:12Z</time>
      </trkpt>
      <trkpt lat="43.93917" lon="1.85798">
        <ele>208.419689</ele>
        <time>2026-08-29T08:53:13Z</time>
      </trkpt>
      <trkpt lat="43.93918" lon="1.85797">
        <ele>208.541128</ele>
        <time>2026-08-29T08:53:14Z</time>
      </trkpt>
      <trkpt lat="43.93918" lon="1.85795">
        <ele>208.656786</ele>
        <time>2026-08-29T08:53:15Z</time>
      </trkpt>
      <trkpt lat="43.93919" lon="1.85794">
        <ele>208.795574</ele>
        <time>2026-08-29T08:53:16Z</time>
      </trkpt>
      <trkpt lat="43.9392" lon="1.85792">
        <ele>208.943394</ele>
        <time>2026-08-29T08:53:17Z</time>
      </trkpt>
      <trkpt lat="43.93921" lon="1.8579">
        <ele>209.095459</ele>
        <time>2026-08-29T08:53:18Z</time>
      </trkpt>
      <trkpt lat="43.93921" lon="1.85788">
        <ele>209.246171</ele>
        <time>2026-08-29T08:53:19Z</time>
      </trkpt>
      <trkpt lat="43.93922" lon="1.85786">
        <ele>209.419655</ele>
        <time>2026-08-29T08:53:20Z</time>
      </trkpt>
      <trkpt lat="43.93923" lon="1.85784">
        <ele>209.599038</ele>
        <time>2026-08-29T08:53:21Z</time>
      </trkpt>
      <trkpt lat="43.93924" lon="1.85782">
        <ele>209.787471</ele>
        <time>2026-08-29T08:53:22Z</time>
      </trkpt>
      <trkpt lat="43.93925" lon="1.8578">
        <ele>209.961591</ele>
        <time>2026-08-29T08:53:23Z</time>
      </trkpt>
      <trkpt lat="43.93926" lon="1.85777">
        <ele>210.12647</ele>
        <time>2026-08-29T08:53:24Z</time>
      </trkpt>
      <trkpt lat="43.93927" lon="1.85776">
        <ele>210.282605</ele>
        <time>2026-08-29T08:53:25Z</time>
      </trkpt>
      <trkpt lat="43.93927" lon="1.85774">
        <ele>210.428363</ele>
        <time>2026-08-29T08:53:26Z</time>
      </trkpt>
      <trkpt lat="43.93928" lon="1.85772">
        <ele>210.597637</ele>
        <time>2026-08-29T08:53:27Z</time>
      </trkpt>
      <trkpt lat="43.93929" lon="1.8577">
        <ele>210.771757</ele>
        <time>2026-08-29T08:53:28Z</time>
      </trkpt>
      <trkpt lat="43.9393" lon="1.85768">
        <ele>210.941031</ele>
        <time>2026-08-29T08:53:29Z</time>
      </trkpt>
      <trkpt lat="43.93931" lon="1.85765">
        <ele>211.105909</ele>
        <time>2026-08-29T08:53:30Z</time>
      </trkpt>
      <trkpt lat="43.93931" lon="1.85763">
        <ele>211.275183</ele>
        <time>2026-08-29T08:53:31Z</time>
      </trkpt>
      <trkpt lat="43.93932" lon="1.85762">
        <ele>211.431318</ele>
        <time>2026-08-29T08:53:32Z</time>
      </trkpt>
      <trkpt lat="43.93933" lon="1.8576">
        <ele>211.583383</ele>
        <time>2026-08-29T08:53:33Z</time>
      </trkpt>
      <trkpt lat="43.93934" lon="1.85758">
        <ele>211.734094</ele>
        <time>2026-08-29T08:53:34Z</time>
      </trkpt>
      <trkpt lat="43.93934" lon="1.85756">
        <ele>211.881915</ele>
        <time>2026-08-29T08:53:35Z</time>
      </trkpt>
      <trkpt lat="43.93935" lon="1.85754">
        <ele>212.015306</ele>
        <time>2026-08-29T08:53:36Z</time>
      </trkpt>
      <trkpt lat="43.93936" lon="1.85752">
        <ele>212.189427</ele>
        <time>2026-08-29T08:53:37Z</time>
      </trkpt>
      <trkpt lat="43.93937" lon="1.8575">
        <ele>212.38044</ele>
        <time>2026-08-29T08:53:38Z</time>
      </trkpt>
      <trkpt lat="43.93938" lon="1.85748">
        <ele>212.554143</ele>
        <time>2026-08-29T08:53:39Z</time>
      </trkpt>
      <trkpt lat="43.93939" lon="1.85746">
        <ele>212.704854</ele>
        <time>2026-08-29T08:53:40Z</time>
      </trkpt>
      <trkpt lat="43.9394" lon="1.85745">
        <ele>212.861257</ele>
        <time>2026-08-29T08:53:41Z</time>
      </trkpt>
      <trkpt lat="43.93941" lon="1.85743">
        <ele>213.011968</ele>
        <time>2026-08-29T08:53:42Z</time>
      </trkpt>
      <trkpt lat="43.93941" lon="1.85741">
        <ele>213.14686</ele>
        <time>2026-08-29T08:53:43Z</time>
      </trkpt>
      <trkpt lat="43.93942" lon="1.8574">
        <ele>213.277698</ele>
        <time>2026-08-29T08:53:44Z</time>
      </trkpt>
      <trkpt lat="43.93942" lon="1.85738">
        <ele>213.41874</ele>
        <time>2026-08-29T08:53:45Z</time>
      </trkpt>
      <trkpt lat="43.93943" lon="1.85736">
        <ele>213.556201</ele>
        <time>2026-08-29T08:53:46Z</time>
      </trkpt>
      <trkpt lat="43.93943" lon="1.85734">
        <ele>213.701759</ele>
        <time>2026-08-29T08:53:47Z</time>
      </trkpt>
      <trkpt lat="43.93943" lon="1.85732">
        <ele>213.8683</ele>
        <time>2026-08-29T08:53:48Z</time>
      </trkpt>
      <trkpt lat="43.93944" lon="1.85729">
        <ele>214.034841</ele>
        <time>2026-08-29T08:53:49Z</time>
      </trkpt>
      <trkpt lat="43.93944" lon="1.85727">
        <ele>214.19651</ele>
        <time>2026-08-29T08:53:50Z</time>
      </trkpt>
      <trkpt lat="43.93945" lon="1.85725">
        <ele>214.377522</ele>
        <time>2026-08-29T08:53:51Z</time>
      </trkpt>
      <trkpt lat="43.93945" lon="1.85722">
        <ele>214.553041</ele>
        <time>2026-08-29T08:53:52Z</time>
      </trkpt>
      <trkpt lat="43.93946" lon="1.8572">
        <ele>214.710633</ele>
        <time>2026-08-29T08:53:53Z</time>
      </trkpt>
      <trkpt lat="43.93946" lon="1.85718">
        <ele>214.875004</ele>
        <time>2026-08-29T08:53:54Z</time>
      </trkpt>
      <trkpt lat="43.93947" lon="1.85716">
        <ele>215.046183</ele>
        <time>2026-08-29T08:53:55Z</time>
      </trkpt>
      <trkpt lat="43.93947" lon="1.85713">
        <ele>215.213798</ele>
        <time>2026-08-29T08:53:56Z</time>
      </trkpt>
      <trkpt lat="43.93948" lon="1.85711">
        <ele>215.396267</ele>
        <time>2026-08-29T08:53:57Z</time>
      </trkpt>
      <trkpt lat="43.93948" lon="1.85709">
        <ele>215.551037</ele>
        <time>2026-08-29T08:53:58Z</time>
      </trkpt>
      <trkpt lat="43.93948" lon="1.85707">
        <ele>215.705807</ele>
        <time>2026-08-29T08:53:59Z</time>
      </trkpt>
      <trkpt lat="43.93949" lon="1.85704">
        <ele>215.876986</ele>
        <time>2026-08-29T08:54:00Z</time>
      </trkpt>
      <trkpt lat="43.93949" lon="1.85702">
        <ele>216.061853</ele>
        <time>2026-08-29T08:54:01Z</time>
      </trkpt>
      <trkpt lat="43.9395" lon="1.85699">
        <ele>216.269998</ele>
        <time>2026-08-29T08:54:02Z</time>
      </trkpt>
      <trkpt lat="43.93951" lon="1.85697">
        <ele>216.454865</ele>
        <time>2026-08-29T08:54:03Z</time>
      </trkpt>
      <trkpt lat="43.93951" lon="1.85694">
        <ele>216.632877</ele>
        <time>2026-08-29T08:54:04Z</time>
      </trkpt>
      <trkpt lat="43.93952" lon="1.85692">
        <ele>216.797248</ele>
        <time>2026-08-29T08:54:05Z</time>
      </trkpt>
      <trkpt lat="43.93952" lon="1.8569">
        <ele>216.976468</ele>
        <time>2026-08-29T08:54:06Z</time>
      </trkpt>
      <trkpt lat="43.93952" lon="1.85687">
        <ele>217.15448</ele>
        <time>2026-08-29T08:54:07Z</time>
      </trkpt>
      <trkpt lat="43.93953" lon="1.85685">
        <ele>217.318851</ele>
        <time>2026-08-29T08:54:08Z</time>
      </trkpt>
      <trkpt lat="43.93953" lon="1.85683">
        <ele>217.477291</ele>
        <time>2026-08-29T08:54:09Z</time>
      </trkpt>
      <trkpt lat="43.93954" lon="1.85681">
        <ele>217.638263</ele>
        <time>2026-08-29T08:54:10Z</time>
      </trkpt>
      <trkpt lat="43.93955" lon="1.85679">
        <ele>217.809633</ele>
        <time>2026-08-29T08:54:11Z</time>
      </trkpt>
      <trkpt lat="43.93956" lon="1.85676">
        <ele>217.985235</ele>
        <time>2026-08-29T08:54:12Z</time>
      </trkpt>
      <trkpt lat="43.93957" lon="1.85675">
        <ele>218.152916</ele>
        <time>2026-08-29T08:54:13Z</time>
      </trkpt>
      <trkpt lat="43.93957" lon="1.85672">
        <ele>218.339423</ele>
        <time>2026-08-29T08:54:14Z</time>
      </trkpt>
      <trkpt lat="43.93958" lon="1.8567">
        <ele>218.544965</ele>
        <time>2026-08-29T08:54:15Z</time>
      </trkpt>
      <trkpt lat="43.93959" lon="1.85667">
        <ele>218.744109</ele>
        <time>2026-08-29T08:54:16Z</time>
      </trkpt>
      <trkpt lat="43.9396" lon="1.85665">
        <ele>218.923491</ele>
        <time>2026-08-29T08:54:17Z</time>
      </trkpt>
      <trkpt lat="43.93961" lon="1.85663">
        <ele>219.092764</ele>
        <time>2026-08-29T08:54:18Z</time>
      </trkpt>
      <trkpt lat="43.93962" lon="1.85661">
        <ele>219.257642</ele>
        <time>2026-08-29T08:54:19Z</time>
      </trkpt>
      <trkpt lat="43.93962" lon="1.85659">
        <ele>219.409706</ele>
        <time>2026-08-29T08:54:20Z</time>
      </trkpt>
      <trkpt lat="43.93963" lon="1.85657">
        <ele>219.589985</ele>
        <time>2026-08-29T08:54:21Z</time>
      </trkpt>
      <trkpt lat="43.93964" lon="1.85655">
        <ele>219.775009</ele>
        <time>2026-08-29T08:54:22Z</time>
      </trkpt>
      <trkpt lat="43.93966" lon="1.85652">
        <ele>219.971652</ele>
        <time>2026-08-29T08:54:23Z</time>
      </trkpt>
      <trkpt lat="43.93967" lon="1.85651">
        <ele>220.145355</ele>
        <time>2026-08-29T08:54:24Z</time>
      </trkpt>
      <trkpt lat="43.93968" lon="1.85649">
        <ele>220.30149</ele>
        <time>2026-08-29T08:54:25Z</time>
      </trkpt>
      <trkpt lat="43.93969" lon="1.85647">
        <ele>220.498806</ele>
        <time>2026-08-29T08:54:26Z</time>
      </trkpt>
      <trkpt lat="43.9397" lon="1.85645">
        <ele>220.663409</ele>
        <time>2026-08-29T08:54:27Z</time>
      </trkpt>
      <trkpt lat="43.93971" lon="1.85643">
        <ele>220.85015</ele>
        <time>2026-08-29T08:54:28Z</time>
      </trkpt>
      <trkpt lat="43.93973" lon="1.85641">
        <ele>221.041162</ele>
        <time>2026-08-29T08:54:29Z</time>
      </trkpt>
      <trkpt lat="43.93974" lon="1.85639">
        <ele>221.25035</ele>
        <time>2026-08-29T08:54:30Z</time>
      </trkpt>
      <trkpt lat="43.93975" lon="1.85636">
        <ele>221.464328</ele>
        <time>2026-08-29T08:54:31Z</time>
      </trkpt>
      <trkpt lat="43.93977" lon="1.85634">
        <ele>221.656297</ele>
        <time>2026-08-29T08:54:32Z</time>
      </trkpt>
      <trkpt lat="43.93978" lon="1.85633">
        <ele>221.832981</ele>
        <time>2026-08-29T08:54:33Z</time>
      </trkpt>
      <trkpt lat="43.93979" lon="1.85631">
        <ele>222.007755</ele>
        <time>2026-08-29T08:54:34Z</time>
      </trkpt>
      <trkpt lat="43.9398" lon="1.85629">
        <ele>222.172359</ele>
        <time>2026-08-29T08:54:35Z</time>
      </trkpt>
      <trkpt lat="43.93982" lon="1.85627">
        <ele>222.38536</ele>
        <time>2026-08-29T08:54:36Z</time>
      </trkpt>
      <trkpt lat="43.93983" lon="1.85625">
        <ele>222.572101</ele>
        <time>2026-08-29T08:54:37Z</time>
      </trkpt>
      <trkpt lat="43.93984" lon="1.85624">
        <ele>222.745804</ele>
        <time>2026-08-29T08:54:38Z</time>
      </trkpt>
      <trkpt lat="43.93985" lon="1.85621">
        <ele>222.910681</ele>
        <time>2026-08-29T08:54:39Z</time>
      </trkpt>
      <trkpt lat="43.93986" lon="1.8562">
        <ele>223.072719</ele>
        <time>2026-08-29T08:54:40Z</time>
      </trkpt>
      <trkpt lat="43.93987" lon="1.85618">
        <ele>223.211832</ele>
        <time>2026-08-29T08:54:41Z</time>
      </trkpt>
      <trkpt lat="43.93988" lon="1.85616">
        <ele>223.350618</ele>
        <time>2026-08-29T08:54:42Z</time>
      </trkpt>
      <trkpt lat="43.93989" lon="1.85615">
        <ele>223.50702</ele>
        <time>2026-08-29T08:54:43Z</time>
      </trkpt>
      <trkpt lat="43.9399" lon="1.85613">
        <ele>223.671905</ele>
        <time>2026-08-29T08:54:44Z</time>
      </trkpt>
      <trkpt lat="43.93991" lon="1.85611">
        <ele>223.84518</ele>
        <time>2026-08-29T08:54:45Z</time>
      </trkpt>
      <trkpt lat="43.93992" lon="1.85609">
        <ele>224.00845</ele>
        <time>2026-08-29T08:54:46Z</time>
      </trkpt>
      <trkpt lat="43.93993" lon="1.85607">
        <ele>224.15569</ele>
        <time>2026-08-29T08:54:47Z</time>
      </trkpt>
      <trkpt lat="43.93994" lon="1.85605">
        <ele>224.312333</ele>
        <time>2026-08-29T08:54:48Z</time>
      </trkpt>
      <trkpt lat="43.93995" lon="1.85604">
        <ele>224.448391</ele>
        <time>2026-08-29T08:54:49Z</time>
      </trkpt>
      <trkpt lat="43.93996" lon="1.85603">
        <ele>224.552406</ele>
        <time>2026-08-29T08:54:50Z</time>
      </trkpt>
      <trkpt lat="43.93995" lon="1.85602">
        <ele>224.590476</ele>
        <time>2026-08-29T08:54:51Z</time>
      </trkpt>
      <trkpt lat="43.93995" lon="1.85602">
        <ele>224.623756</ele>
        <time>2026-08-29T08:54:52Z</time>
      </trkpt>
      <trkpt lat="43.94" lon="1.856">
        <ele>225.062088</ele>
        <time>2026-08-29T08:57:35Z</time>
      </trkpt>
      <trkpt lat="43.94001" lon="1.85598">
        <ele>225.224746</ele>
        <time>2026-08-29T08:57:36Z</time>
      </trkpt>
      <trkpt lat="43.94002" lon="1.85596">
        <ele>225.413793</ele>
        <time>2026-08-29T08:57:37Z</time>
      </trkpt>
      <trkpt lat="43.94003" lon="1.85594">
        <ele>225.587068</ele>
        <time>2026-08-29T08:57:38Z</time>
      </trkpt>
      <trkpt lat="43.94004" lon="1.85592">
        <ele>225.728083</ele>
        <time>2026-08-29T08:57:39Z</time>
      </trkpt>
      <trkpt lat="43.94005" lon="1.8559">
        <ele>225.868524</ele>
        <time>2026-08-29T08:57:40Z</time>
      </trkpt>
      <trkpt lat="43.94006" lon="1.85589">
        <ele>225.982733</ele>
        <time>2026-08-29T08:57:41Z</time>
      </trkpt>
      <trkpt lat="43.94006" lon="1.85587">
        <ele>226.108745</ele>
        <time>2026-08-29T08:57:42Z</time>
      </trkpt>
      <trkpt lat="43.94007" lon="1.85585">
        <ele>226.239089</ele>
        <time>2026-08-29T08:57:43Z</time>
      </trkpt>
      <trkpt lat="43.94008" lon="1.85584">
        <ele>226.380104</ele>
        <time>2026-08-29T08:57:44Z</time>
      </trkpt>
      <trkpt lat="43.94009" lon="1.85583">
        <ele>226.524392</ele>
        <time>2026-08-29T08:57:45Z</time>
      </trkpt>
      <trkpt lat="43.9401" lon="1.85581">
        <ele>226.670499</ele>
        <time>2026-08-29T08:57:46Z</time>
      </trkpt>
      <trkpt lat="43.94011" lon="1.85579">
        <ele>226.827474</ele>
        <time>2026-08-29T08:57:47Z</time>
      </trkpt>
      <trkpt lat="43.94012" lon="1.85577">
        <ele>227.000318</ele>
        <time>2026-08-29T08:57:48Z</time>
      </trkpt>
      <trkpt lat="43.94013" lon="1.85575">
        <ele>227.141108</ele>
        <time>2026-08-29T08:57:49Z</time>
      </trkpt>
      <trkpt lat="43.94014" lon="1.85573">
        <ele>227.271452</ele>
        <time>2026-08-29T08:57:50Z</time>
      </trkpt>
      <trkpt lat="43.94014" lon="1.85572">
        <ele>227.359466</ele>
        <time>2026-08-29T08:57:51Z</time>
      </trkpt>
      <trkpt lat="43.94015" lon="1.8557">
        <ele>227.510785</ele>
        <time>2026-08-29T08:57:52Z</time>
      </trkpt>
      <trkpt lat="43.94016" lon="1.85568">
        <ele>227.66116</ele>
        <time>2026-08-29T08:57:53Z</time>
      </trkpt>
      <trkpt lat="43.94017" lon="1.85566">
        <ele>227.799249</ele>
        <time>2026-08-29T08:57:54Z</time>
      </trkpt>
      <trkpt lat="43.94017" lon="1.85564">
        <ele>227.959338</ele>
        <time>2026-08-29T08:57:55Z</time>
      </trkpt>
      <trkpt lat="43.94018" lon="1.85562">
        <ele>228.111616</ele>
        <time>2026-08-29T08:57:56Z</time>
      </trkpt>
      <trkpt lat="43.94019" lon="1.8556">
        <ele>228.271704</ele>
        <time>2026-08-29T08:57:57Z</time>
      </trkpt>
      <trkpt lat="43.9402" lon="1.85558">
        <ele>228.428679</ele>
        <time>2026-08-29T08:57:58Z</time>
      </trkpt>
      <trkpt lat="43.9402" lon="1.85556">
        <ele>228.592721</ele>
        <time>2026-08-29T08:57:59Z</time>
      </trkpt>
      <trkpt lat="43.94021" lon="1.85553">
        <ele>228.756764</ele>
        <time>2026-08-29T08:58:00Z</time>
      </trkpt>
      <trkpt lat="43.94022" lon="1.85552">
        <ele>228.908135</ele>
        <time>2026-08-29T08:58:01Z</time>
      </trkpt>
      <trkpt lat="43.94023" lon="1.85549">
        <ele>229.066265</ele>
        <time>2026-08-29T08:58:02Z</time>
      </trkpt>
      <trkpt lat="43.94024" lon="1.85548">
        <ele>229.208318</ele>
        <time>2026-08-29T08:58:03Z</time>
      </trkpt>
      <trkpt lat="43.94024" lon="1.85546">
        <ele>229.33433</ele>
        <time>2026-08-29T08:58:04Z</time>
      </trkpt>
      <trkpt lat="43.94025" lon="1.85544">
        <ele>229.480186</ele>
        <time>2026-08-29T08:58:05Z</time>
      </trkpt>
      <trkpt lat="43.94026" lon="1.85542">
        <ele>229.609837</ele>
        <time>2026-08-29T08:58:06Z</time>
      </trkpt>
      <trkpt lat="43.94027" lon="1.85541">
        <ele>229.741857</ele>
        <time>2026-08-29T08:58:07Z</time>
      </trkpt>
      <trkpt lat="43.94027" lon="1.85539">
        <ele>229.866467</ele>
        <time>2026-08-29T08:58:08Z</time>
      </trkpt>
      <trkpt lat="43.94028" lon="1.85538">
        <ele>229.958316</ele>
        <time>2026-08-29T08:58:09Z</time>
      </trkpt>
      <trkpt lat="43.94029" lon="1.85536">
        <ele>230.109688</ele>
        <time>2026-08-29T08:58:10Z</time>
      </trkpt>
      <trkpt lat="43.94029" lon="1.85534">
        <ele>230.234298</ele>
        <time>2026-08-29T08:58:11Z</time>
      </trkpt>
      <trkpt lat="43.9403" lon="1.85533">
        <ele>230.380404</ele>
        <time>2026-08-29T08:58:12Z</time>
      </trkpt>
      <trkpt lat="43.94031" lon="1.85531">
        <ele>230.510748</ele>
        <time>2026-08-29T08:58:13Z</time>
      </trkpt>
      <trkpt lat="43.94032" lon="1.85529">
        <ele>230.645919</ele>
        <time>2026-08-29T08:58:14Z</time>
      </trkpt>
      <trkpt lat="43.94033" lon="1.85528">
        <ele>230.777171</ele>
        <time>2026-08-29T08:58:15Z</time>
      </trkpt>
      <trkpt lat="43.94034" lon="1.85527">
        <ele>230.885609</ele>
        <time>2026-08-29T08:58:16Z</time>
      </trkpt>
      <trkpt lat="43.94034" lon="1.85525">
        <ele>230.985874</ele>
        <time>2026-08-29T08:58:17Z</time>
      </trkpt>
      <trkpt lat="43.94034" lon="1.85523">
        <ele>231.138152</ele>
        <time>2026-08-29T08:58:18Z</time>
      </trkpt>
      <trkpt lat="43.94035" lon="1.85521">
        <ele>231.258222</ele>
        <time>2026-08-29T08:58:19Z</time>
      </trkpt>
      <trkpt lat="43.94036" lon="1.8552">
        <ele>231.388566</ele>
        <time>2026-08-29T08:58:20Z</time>
      </trkpt>
      <trkpt lat="43.94037" lon="1.85518">
        <ele>231.522077</ele>
        <time>2026-08-29T08:58:21Z</time>
      </trkpt>
      <trkpt lat="43.94038" lon="1.85517">
        <ele>231.6742</ele>
        <time>2026-08-29T08:58:22Z</time>
      </trkpt>
      <trkpt lat="43.94039" lon="1.85515">
        <ele>231.821439</ele>
        <time>2026-08-29T08:58:23Z</time>
      </trkpt>
      <trkpt lat="43.9404" lon="1.85513">
        <ele>231.965648</ele>
        <time>2026-08-29T08:58:24Z</time>
      </trkpt>
      <trkpt lat="43.94041" lon="1.85512">
        <ele>232.101706</ele>
        <time>2026-08-29T08:58:25Z</time>
      </trkpt>
      <trkpt lat="43.94041" lon="1.8551">
        <ele>232.227717</ele>
        <time>2026-08-29T08:58:26Z</time>
      </trkpt>
      <trkpt lat="43.94042" lon="1.85508">
        <ele>232.368732</ele>
        <time>2026-08-29T08:58:27Z</time>
      </trkpt>
      <trkpt lat="43.94043" lon="1.85507">
        <ele>232.48294</ele>
        <time>2026-08-29T08:58:28Z</time>
      </trkpt>
      <trkpt lat="43.94043" lon="1.85506">
        <ele>232.570953</ele>
        <time>2026-08-29T08:58:29Z</time>
      </trkpt>
      <trkpt lat="43.94044" lon="1.85504">
        <ele>232.722324</ele>
        <time>2026-08-29T08:58:30Z</time>
      </trkpt>
      <trkpt lat="43.94045" lon="1.85502">
        <ele>232.86843</ele>
        <time>2026-08-29T08:58:31Z</time>
      </trkpt>
      <trkpt lat="43.94046" lon="1.855">
        <ele>233.014537</ele>
        <time>2026-08-29T08:58:32Z</time>
      </trkpt>
      <trkpt lat="43.94047" lon="1.85499">
        <ele>233.152454</ele>
        <time>2026-08-29T08:58:33Z</time>
      </trkpt>
      <trkpt lat="43.94048" lon="1.85497">
        <ele>233.282105</ele>
        <time>2026-08-29T08:58:34Z</time>
      </trkpt>
      <trkpt lat="43.94049" lon="1.85496">
        <ele>233.418266</ele>
        <time>2026-08-29T08:58:35Z</time>
      </trkpt>
      <trkpt lat="43.9405" lon="1.85494">
        <ele>233.564761</ele>
        <time>2026-08-29T08:58:36Z</time>
      </trkpt>
      <trkpt lat="43.9405" lon="1.85492">
        <ele>233.72289</ele>
        <time>2026-08-29T08:58:37Z</time>
      </trkpt>
      <trkpt lat="43.94051" lon="1.8549">
        <ele>233.863331</ele>
        <time>2026-08-29T08:58:38Z</time>
      </trkpt>
      <trkpt lat="43.94052" lon="1.85488">
        <ele>233.998501</ele>
        <time>2026-08-29T08:58:39Z</time>
      </trkpt>
      <trkpt lat="43.94053" lon="1.85487">
        <ele>234.139516</ele>
        <time>2026-08-29T08:58:40Z</time>
      </trkpt>
      <trkpt lat="43.94054" lon="1.85485">
        <ele>234.26443</ele>
        <time>2026-08-29T08:58:41Z</time>
      </trkpt>
      <trkpt lat="43.94055" lon="1.85484">
        <ele>234.367221</ele>
        <time>2026-08-29T08:58:42Z</time>
      </trkpt>
      <trkpt lat="43.94055" lon="1.85483">
        <ele>234.475659</ele>
        <time>2026-08-29T08:58:43Z</time>
      </trkpt>
      <trkpt lat="43.94056" lon="1.85481">
        <ele>234.59569</ele>
        <time>2026-08-29T08:58:44Z</time>
      </trkpt>
      <trkpt lat="43.94057" lon="1.8548">
        <ele>234.704536</ele>
        <time>2026-08-29T08:58:45Z</time>
      </trkpt>
      <trkpt lat="43.94058" lon="1.85479">
        <ele>234.834491</ele>
        <time>2026-08-29T08:58:46Z</time>
      </trkpt>
      <trkpt lat="43.94059" lon="1.85477">
        <ele>234.974932</ele>
        <time>2026-08-29T08:58:47Z</time>
      </trkpt>
      <trkpt lat="43.9406" lon="1.85475">
        <ele>235.142439</ele>
        <time>2026-08-29T08:58:48Z</time>
      </trkpt>
      <trkpt lat="43.94061" lon="1.85473">
        <ele>235.304501</ele>
        <time>2026-08-29T08:58:49Z</time>
      </trkpt>
      <trkpt lat="43.94062" lon="1.85471">
        <ele>235.44529</ele>
        <time>2026-08-29T08:58:50Z</time>
      </trkpt>
      <trkpt lat="43.94062" lon="1.85469">
        <ele>235.575634</ele>
        <time>2026-08-29T08:58:51Z</time>
      </trkpt>
      <trkpt lat="43.94063" lon="1.85468">
        <ele>235.711795</ele>
        <time>2026-08-29T08:58:52Z</time>
      </trkpt>
      <trkpt lat="43.94064" lon="1.85466">
        <ele>235.849883</ele>
        <time>2026-08-29T08:58:53Z</time>
      </trkpt>
      <trkpt lat="43.94065" lon="1.85464">
        <ele>235.995739</ele>
        <time>2026-08-29T08:58:54Z</time>
      </trkpt>
      <trkpt lat="43.94065" lon="1.85462">
        <ele>236.130875</ele>
        <time>2026-08-29T08:58:55Z</time>
      </trkpt>
      <trkpt lat="43.94066" lon="1.8546">
        <ele>236.282194</ele>
        <time>2026-08-29T08:58:56Z</time>
      </trkpt>
      <trkpt lat="43.94068" lon="1.85458">
        <ele>236.449701</ele>
        <time>2026-08-29T08:58:57Z</time>
      </trkpt>
      <trkpt lat="43.94069" lon="1.85456">
        <ele>236.617273</ele>
        <time>2026-08-29T08:58:58Z</time>
      </trkpt>
      <trkpt lat="43.9407" lon="1.85454">
        <ele>236.806696</ele>
        <time>2026-08-29T08:58:59Z</time>
      </trkpt>
      <trkpt lat="43.94071" lon="1.85452">
        <ele>236.979539</ele>
        <time>2026-08-29T08:59:00Z</time>
      </trkpt>
      <trkpt lat="43.94072" lon="1.8545">
        <ele>237.168961</ele>
        <time>2026-08-29T08:59:01Z</time>
      </trkpt>
      <trkpt lat="43.94074" lon="1.85448">
        <ele>237.334014</ele>
        <time>2026-08-29T08:59:02Z</time>
      </trkpt>
      <trkpt lat="43.94075" lon="1.85446">
        <ele>237.503698</ele>
        <time>2026-08-29T08:59:03Z</time>
      </trkpt>
      <trkpt lat="43.94076" lon="1.85444">
        <ele>237.676972</ele>
        <time>2026-08-29T08:59:04Z</time>
      </trkpt>
      <trkpt lat="43.94077" lon="1.85442">
        <ele>237.850245</ele>
        <time>2026-08-29T08:59:05Z</time>
      </trkpt>
      <trkpt lat="43.94079" lon="1.8544">
        <ele>238.050697</ele>
        <time>2026-08-29T08:59:06Z</time>
      </trkpt>
      <trkpt lat="43.9408" lon="1.85438">
        <ele>238.256278</ele>
        <time>2026-08-29T08:59:07Z</time>
      </trkpt>
      <trkpt lat="43.94081" lon="1.85436">
        <ele>238.440604</ele>
        <time>2026-08-29T08:59:08Z</time>
      </trkpt>
      <trkpt lat="43.94083" lon="1.85433">
        <ele>238.631084</ele>
        <time>2026-08-29T08:59:09Z</time>
      </trkpt>
      <trkpt lat="43.94084" lon="1.85432">
        <ele>238.793352</ele>
        <time>2026-08-29T08:59:10Z</time>
      </trkpt>
      <trkpt lat="43.94085" lon="1.8543">
        <ele>238.945628</ele>
        <time>2026-08-29T08:59:11Z</time>
      </trkpt>
      <trkpt lat="43.94085" lon="1.85428">
        <ele>239.093637</ele>
        <time>2026-08-29T08:59:12Z</time>
      </trkpt>
      <trkpt lat="43.94087" lon="1.85425">
        <ele>239.28825</ele>
        <time>2026-08-29T08:59:13Z</time>
      </trkpt>
      <trkpt lat="43.94088" lon="1.85423">
        <ele>239.461413</ele>
        <time>2026-08-29T08:59:14Z</time>
      </trkpt>
      <trkpt lat="43.94089" lon="1.85421">
        <ele>239.618386</ele>
        <time>2026-08-29T08:59:15Z</time>
      </trkpt>
      <trkpt lat="43.9409" lon="1.85419">
        <ele>239.797213</ele>
        <time>2026-08-29T08:59:16Z</time>
      </trkpt>
      <trkpt lat="43.94091" lon="1.85416">
        <ele>239.976039</ele>
        <time>2026-08-29T08:59:17Z</time>
      </trkpt>
      <trkpt lat="43.94092" lon="1.85414">
        <ele>240.143611</ele>
        <time>2026-08-29T08:59:18Z</time>
      </trkpt>
      <trkpt lat="43.94092" lon="1.85412">
        <ele>240.320275</ele>
        <time>2026-08-29T08:59:19Z</time>
      </trkpt>
      <trkpt lat="43.94093" lon="1.85409">
        <ele>240.492371</ele>
        <time>2026-08-29T08:59:20Z</time>
      </trkpt>
      <trkpt lat="43.94094" lon="1.85407">
        <ele>240.660566</ele>
        <time>2026-08-29T08:59:21Z</time>
      </trkpt>
      <trkpt lat="43.94095" lon="1.85404">
        <ele>240.821982</ele>
        <time>2026-08-29T08:59:22Z</time>
      </trkpt>
      <trkpt lat="43.94096" lon="1.85402">
        <ele>240.961236</ele>
        <time>2026-08-29T08:59:23Z</time>
      </trkpt>
      <trkpt lat="43.94096" lon="1.854">
        <ele>241.119814</ele>
        <time>2026-08-29T08:59:24Z</time>
      </trkpt>
      <trkpt lat="43.94097" lon="1.85398">
        <ele>241.235912</ele>
        <time>2026-08-29T08:59:25Z</time>
      </trkpt>
      <trkpt lat="43.94097" lon="1.85396">
        <ele>241.372456</ele>
        <time>2026-08-29T08:59:26Z</time>
      </trkpt>
      <trkpt lat="43.94098" lon="1.85393">
        <ele>241.511282</ele>
        <time>2026-08-29T08:59:27Z</time>
      </trkpt>
      <trkpt lat="43.94098" lon="1.85391">
        <ele>241.67558</ele>
        <time>2026-08-29T08:59:28Z</time>
      </trkpt>
      <trkpt lat="43.94099" lon="1.85388">
        <ele>241.828461</ele>
        <time>2026-08-29T08:59:29Z</time>
      </trkpt>
      <trkpt lat="43.941" lon="1.85386">
        <ele>241.981341</ele>
        <time>2026-08-29T08:59:30Z</time>
      </trkpt>
      <trkpt lat="43.941" lon="1.85384">
        <ele>242.135452</ele>
        <time>2026-08-29T08:59:31Z</time>
      </trkpt>
      <trkpt lat="43.941" lon="1.85381">
        <ele>242.30905</ele>
        <time>2026-08-29T08:59:32Z</time>
      </trkpt>
      <trkpt lat="43.94101" lon="1.85378">
        <ele>242.453626</ele>
        <time>2026-08-29T08:59:33Z</time>
      </trkpt>
      <trkpt lat="43.94101" lon="1.85376">
        <ele>242.610975</ele>
        <time>2026-08-29T08:59:34Z</time>
      </trkpt>
      <trkpt lat="43.94101" lon="1.85373">
        <ele>242.767657</ele>
        <time>2026-08-29T08:59:35Z</time>
      </trkpt>
      <trkpt lat="43.94101" lon="1.85371">
        <ele>242.912322</ele>
        <time>2026-08-29T08:59:36Z</time>
      </trkpt>
      <trkpt lat="43.94101" lon="1.85369">
        <ele>243.04471</ele>
        <time>2026-08-29T08:59:37Z</time>
      </trkpt>
      <trkpt lat="43.94101" lon="1.85366">
        <ele>243.196077</ele>
        <time>2026-08-29T08:59:38Z</time>
      </trkpt>
      <trkpt lat="43.94101" lon="1.85364">
        <ele>243.346518</ele>
        <time>2026-08-29T08:59:39Z</time>
      </trkpt>
      <trkpt lat="43.94101" lon="1.85361">
        <ele>243.509852</ele>
        <time>2026-08-29T08:59:40Z</time>
      </trkpt>
      <trkpt lat="43.94102" lon="1.85359">
        <ele>243.658094</ele>
        <time>2026-08-29T08:59:41Z</time>
      </trkpt>
      <trkpt lat="43.94102" lon="1.85356">
        <ele>243.804678</ele>
        <time>2026-08-29T08:59:42Z</time>
      </trkpt>
      <trkpt lat="43.94102" lon="1.85354">
        <ele>243.944089</ele>
        <time>2026-08-29T08:59:43Z</time>
      </trkpt>
      <trkpt lat="43.94102" lon="1.85352">
        <ele>244.082747</ele>
        <time>2026-08-29T08:59:44Z</time>
      </trkpt>
      <trkpt lat="43.94102" lon="1.85349">
        <ele>244.221153</ele>
        <time>2026-08-29T08:59:45Z</time>
      </trkpt>
      <trkpt lat="43.94102" lon="1.85347">
        <ele>244.359811</ele>
        <time>2026-08-29T08:59:46Z</time>
      </trkpt>
      <trkpt lat="43.94102" lon="1.85344">
        <ele>244.510252</ele>
        <time>2026-08-29T08:59:47Z</time>
      </trkpt>
      <trkpt lat="43.94103" lon="1.85342">
        <ele>244.673586</ele>
        <time>2026-08-29T08:59:48Z</time>
      </trkpt>
      <trkpt lat="43.94103" lon="1.85339">
        <ele>244.818251</ele>
        <time>2026-08-29T08:59:49Z</time>
      </trkpt>
      <trkpt lat="43.94103" lon="1.85337">
        <ele>244.962916</ele>
        <time>2026-08-29T08:59:50Z</time>
      </trkpt>
      <trkpt lat="43.94103" lon="1.85335">
        <ele>245.108303</ele>
        <time>2026-08-29T08:59:51Z</time>
      </trkpt>
      <trkpt lat="43.94103" lon="1.85332">
        <ele>245.25967</ele>
        <time>2026-08-29T08:59:52Z</time>
      </trkpt>
      <trkpt lat="43.94104" lon="1.8533">
        <ele>245.400328</ele>
        <time>2026-08-29T08:59:53Z</time>
      </trkpt>
      <trkpt lat="43.94104" lon="1.85328">
        <ele>245.515879</ele>
        <time>2026-08-29T08:59:54Z</time>
      </trkpt>
      <trkpt lat="43.94104" lon="1.85326">
        <ele>245.636522</ele>
        <time>2026-08-29T08:59:55Z</time>
      </trkpt>
      <trkpt lat="43.94104" lon="1.85324">
        <ele>245.763168</ele>
        <time>2026-08-29T08:59:56Z</time>
      </trkpt>
      <trkpt lat="43.94104" lon="1.85322">
        <ele>245.896607</ele>
        <time>2026-08-29T08:59:57Z</time>
      </trkpt>
      <trkpt lat="43.94104" lon="1.85319">
        <ele>246.043191</ele>
        <time>2026-08-29T08:59:58Z</time>
      </trkpt>
      <trkpt lat="43.94105" lon="1.85317">
        <ele>246.181848</ele>
        <time>2026-08-29T08:59:59Z</time>
      </trkpt>
      <trkpt lat="43.94105" lon="1.85315">
        <ele>246.315288</ele>
        <time>2026-08-29T09:00:00Z</time>
      </trkpt>
      <trkpt lat="43.94105" lon="1.85313">
        <ele>246.43593</ele>
        <time>2026-08-29T09:00:01Z</time>
      </trkpt>
      <trkpt lat="43.94105" lon="1.85311">
        <ele>246.54553</ele>
        <time>2026-08-29T09:00:02Z</time>
      </trkpt>
      <trkpt lat="43.94105" lon="1.85309">
        <ele>246.684188</ele>
        <time>2026-08-29T09:00:03Z</time>
      </trkpt>
      <trkpt lat="43.94105" lon="1.85306">
        <ele>246.829575</ele>
        <time>2026-08-29T09:00:04Z</time>
      </trkpt>
      <trkpt lat="43.94106" lon="1.85303">
        <ele>246.992909</ele>
        <time>2026-08-29T09:00:05Z</time>
      </trkpt>
      <trkpt lat="43.94106" lon="1.853">
        <ele>247.17421</ele>
        <time>2026-08-29T09:00:06Z</time>
      </trkpt>
      <trkpt lat="43.94106" lon="1.85298">
        <ele>247.337544</ele>
        <time>2026-08-29T09:00:07Z</time>
      </trkpt>
      <trkpt lat="43.94106" lon="1.85295">
        <ele>247.485786</ele>
        <time>2026-08-29T09:00:08Z</time>
      </trkpt>
      <trkpt lat="43.94107" lon="1.85293">
        <ele>247.626444</ele>
        <time>2026-08-29T09:00:09Z</time>
      </trkpt>
      <trkpt lat="43.94107" lon="1.85291">
        <ele>247.765855</ele>
        <time>2026-08-29T09:00:10Z</time>
      </trkpt>
      <trkpt lat="43.94107" lon="1.85289">
        <ele>247.887587</ele>
        <time>2026-08-29T09:00:11Z</time>
      </trkpt>
      <trkpt lat="43.94108" lon="1.85287">
        <ele>248.012496</ele>
        <time>2026-08-29T09:00:12Z</time>
      </trkpt>
      <trkpt lat="43.94108" lon="1.85285">
        <ele>248.141329</ele>
        <time>2026-08-29T09:00:13Z</time>
      </trkpt>
      <trkpt lat="43.94108" lon="1.85282">
        <ele>248.289571</ele>
        <time>2026-08-29T09:00:14Z</time>
      </trkpt>
      <trkpt lat="43.94109" lon="1.8528">
        <ele>248.426114</ele>
        <time>2026-08-29T09:00:15Z</time>
      </trkpt>
      <trkpt lat="43.94109" lon="1.85278">
        <ele>248.546757</ele>
        <time>2026-08-29T09:00:16Z</time>
      </trkpt>
      <trkpt lat="43.94109" lon="1.85276">
        <ele>248.673403</ele>
        <time>2026-08-29T09:00:17Z</time>
      </trkpt>
      <trkpt lat="43.94109" lon="1.85274">
        <ele>248.812815</ele>
        <time>2026-08-29T09:00:18Z</time>
      </trkpt>
      <trkpt lat="43.94108" lon="1.85272">
        <ele>248.914735</ele>
        <time>2026-08-29T09:00:19Z</time>
      </trkpt>
      <trkpt lat="43.94108" lon="1.8527">
        <ele>249.036243</ele>
        <time>2026-08-29T09:00:20Z</time>
      </trkpt>
      <trkpt lat="43.94108" lon="1.85269">
        <ele>249.1395</ele>
        <time>2026-08-29T09:00:21Z</time>
      </trkpt>
      <trkpt lat="43.94107" lon="1.85268">
        <ele>249.21783</ele>
        <time>2026-08-29T09:00:22Z</time>
      </trkpt>
      <trkpt lat="43.94107" lon="1.85266">
        <ele>249.314086</ele>
        <time>2026-08-29T09:00:23Z</time>
      </trkpt>
      <trkpt lat="43.94106" lon="1.85265">
        <ele>249.43158</ele>
        <time>2026-08-29T09:00:24Z</time>
      </trkpt>
      <trkpt lat="43.94105" lon="1.85263">
        <ele>249.58824</ele>
        <time>2026-08-29T09:00:25Z</time>
      </trkpt>
      <trkpt lat="43.94104" lon="1.85261">
        <ele>249.720688</ele>
        <time>2026-08-29T09:00:26Z</time>
      </trkpt>
      <trkpt lat="43.94103" lon="1.85259">
        <ele>249.881864</ele>
        <time>2026-08-29T09:00:27Z</time>
      </trkpt>
      <trkpt lat="43.94102" lon="1.85256">
        <ele>250.059243</ele>
        <time>2026-08-29T09:00:28Z</time>
      </trkpt>
      <trkpt lat="43.94101" lon="1.85254">
        <ele>250.206304</ele>
        <time>2026-08-29T09:00:29Z</time>
      </trkpt>
      <trkpt lat="43.94099" lon="1.85252">
        <ele>250.368441</ele>
        <time>2026-08-29T09:00:30Z</time>
      </trkpt>
      <trkpt lat="43.94099" lon="1.85251">
        <ele>250.471347</ele>
        <time>2026-08-29T09:00:31Z</time>
      </trkpt>
      <trkpt lat="43.94097" lon="1.85249">
        <ele>250.606274</ele>
        <time>2026-08-29T09:00:32Z</time>
      </trkpt>
      <trkpt lat="43.94096" lon="1.85248">
        <ele>250.726436</ele>
        <time>2026-08-29T09:00:33Z</time>
      </trkpt>
      <trkpt lat="43.94094" lon="1.85247">
        <ele>250.8933</ele>
        <time>2026-08-29T09:00:34Z</time>
      </trkpt>
      <trkpt lat="43.94093" lon="1.85246">
        <ele>251.049517</ele>
        <time>2026-08-29T09:00:35Z</time>
      </trkpt>
      <trkpt lat="43.94091" lon="1.85245">
        <ele>251.217839</ele>
        <time>2026-08-29T09:00:36Z</time>
      </trkpt>
      <trkpt lat="43.9409" lon="1.85243">
        <ele>251.365612</ele>
        <time>2026-08-29T09:00:37Z</time>
      </trkpt>
      <trkpt lat="43.94088" lon="1.85241">
        <ele>251.504636</ele>
        <time>2026-08-29T09:00:38Z</time>
      </trkpt>
      <trkpt lat="43.94088" lon="1.8524">
        <ele>251.612189</ele>
        <time>2026-08-29T09:00:39Z</time>
      </trkpt>
      <trkpt lat="43.94087" lon="1.85239">
        <ele>251.705123</ele>
        <time>2026-08-29T09:00:40Z</time>
      </trkpt>
      <trkpt lat="43.94086" lon="1.85238">
        <ele>251.815572</ele>
        <time>2026-08-29T09:00:41Z</time>
      </trkpt>
      <trkpt lat="43.94085" lon="1.85236">
        <ele>251.91984</ele>
        <time>2026-08-29T09:00:42Z</time>
      </trkpt>
      <trkpt lat="43.94084" lon="1.85235">
        <ele>252.048676</ele>
        <time>2026-08-29T09:00:43Z</time>
      </trkpt>
      <trkpt lat="43.94083" lon="1.85234">
        <ele>252.179653</ele>
        <time>2026-08-29T09:00:44Z</time>
      </trkpt>
      <trkpt lat="43.94081" lon="1.85232">
        <ele>252.334571</ele>
        <time>2026-08-29T09:00:45Z</time>
      </trkpt>
      <trkpt lat="43.9408" lon="1.85231">
        <ele>252.472063</ele>
        <time>2026-08-29T09:00:46Z</time>
      </trkpt>
      <trkpt lat="43.94078" lon="1.8523">
        <ele>252.626537</ele>
        <time>2026-08-29T09:00:47Z</time>
      </trkpt>
      <trkpt lat="43.94077" lon="1.85228">
        <ele>252.771705</ele>
        <time>2026-08-29T09:00:48Z</time>
      </trkpt>
      <trkpt lat="43.94076" lon="1.85227">
        <ele>252.891868</ele>
        <time>2026-08-29T09:00:49Z</time>
      </trkpt>
      <trkpt lat="43.94075" lon="1.85225">
        <ele>253.014881</ele>
        <time>2026-08-29T09:00:50Z</time>
      </trkpt>
      <trkpt lat="43.94074" lon="1.85224">
        <ele>253.117788</ele>
        <time>2026-08-29T09:00:51Z</time>
      </trkpt>
      <trkpt lat="43.94073" lon="1.85223">
        <ele>253.246624</ele>
        <time>2026-08-29T09:00:52Z</time>
      </trkpt>
      <trkpt lat="43.94072" lon="1.85221">
        <ele>253.373814</ele>
        <time>2026-08-29T09:00:53Z</time>
      </trkpt>
      <trkpt lat="43.9407" lon="1.8522">
        <ele>253.497394</ele>
        <time>2026-08-29T09:00:54Z</time>
      </trkpt>
      <trkpt lat="43.9407" lon="1.85218">
        <ele>253.6205</ele>
        <time>2026-08-29T09:00:55Z</time>
      </trkpt>
      <trkpt lat="43.94069" lon="1.85217">
        <ele>253.739167</ele>
        <time>2026-08-29T09:00:56Z</time>
      </trkpt>
      <trkpt lat="43.94068" lon="1.85216">
        <ele>253.859877</ele>
        <time>2026-08-29T09:00:57Z</time>
      </trkpt>
      <trkpt lat="43.94066" lon="1.85214">
        <ele>253.994305</ele>
        <time>2026-08-29T09:00:58Z</time>
      </trkpt>
      <trkpt lat="43.94065" lon="1.85214">
        <ele>254.138572</ele>
        <time>2026-08-29T09:00:59Z</time>
      </trkpt>
      <trkpt lat="43.94064" lon="1.85212">
        <ele>254.27067</ele>
        <time>2026-08-29T09:01:00Z</time>
      </trkpt>
      <trkpt lat="43.94062" lon="1.8521">
        <ele>254.414846</ele>
        <time>2026-08-29T09:01:01Z</time>
      </trkpt>
      <trkpt lat="43.94061" lon="1.85209">
        <ele>254.5453</ele>
        <time>2026-08-29T09:01:02Z</time>
      </trkpt>
      <trkpt lat="43.9406" lon="1.85208">
        <ele>254.6622</ele>
        <time>2026-08-29T09:01:03Z</time>
      </trkpt>
      <trkpt lat="43.94059" lon="1.85207">
        <ele>254.766468</ele>
        <time>2026-08-29T09:01:04Z</time>
      </trkpt>
      <trkpt lat="43.94058" lon="1.85206">
        <ele>254.883368</ele>
        <time>2026-08-29T09:01:05Z</time>
      </trkpt>
      <trkpt lat="43.94057" lon="1.85204">
        <ele>255.004078</ele>
        <time>2026-08-29T09:01:06Z</time>
      </trkpt>
      <trkpt lat="43.94056" lon="1.85203">
        <ele>255.120978</ele>
        <time>2026-08-29T09:01:07Z</time>
      </trkpt>
      <trkpt lat="43.94055" lon="1.85201">
        <ele>255.204239</ele>
        <time>2026-08-29T09:01:08Z</time>
      </trkpt>
      <trkpt lat="43.94054" lon="1.85199">
        <ele>255.197405</ele>
        <time>2026-08-29T09:01:09Z</time>
      </trkpt>
      <trkpt lat="43.94053" lon="1.85198">
        <ele>255.190324</ele>
        <time>2026-08-29T09:01:10Z</time>
      </trkpt>
      <trkpt lat="43.94052" lon="1.85196">
        <ele>255.183244</ele>
        <time>2026-08-29T09:01:11Z</time>
      </trkpt>
      <trkpt lat="43.94051" lon="1.85194">
        <ele>255.175944</ele>
        <time>2026-08-29T09:01:12Z</time>
      </trkpt>
      <trkpt lat="43.94051" lon="1.85192">
        <ele>255.16871</ele>
        <time>2026-08-29T09:01:13Z</time>
      </trkpt>
      <trkpt lat="43.9405" lon="1.8519">
        <ele>255.162935</ele>
        <time>2026-08-29T09:01:14Z</time>
      </trkpt>
      <trkpt lat="43.94049" lon="1.85188">
        <ele>255.155589</ele>
        <time>2026-08-29T09:01:15Z</time>
      </trkpt>
      <trkpt lat="43.94048" lon="1.85187">
        <ele>255.149865</ele>
        <time>2026-08-29T09:01:16Z</time>
      </trkpt>
      <trkpt lat="43.94047" lon="1.85186">
        <ele>255.144336</ele>
        <time>2026-08-29T09:01:17Z</time>
      </trkpt>
      <trkpt lat="43.94046" lon="1.85185">
        <ele>255.137004</ele>
        <time>2026-08-29T09:01:18Z</time>
      </trkpt>
      <trkpt lat="43.94044" lon="1.85184">
        <ele>255.127466</ele>
        <time>2026-08-29T09:01:19Z</time>
      </trkpt>
      <trkpt lat="43.94041" lon="1.85185">
        <ele>255.116173</ele>
        <time>2026-08-29T09:01:20Z</time>
      </trkpt>
      <trkpt lat="43.94038" lon="1.85186">
        <ele>255.101733</ele>
        <time>2026-08-29T09:01:21Z</time>
      </trkpt>
      <trkpt lat="43.94035" lon="1.85188">
        <ele>255.086893</ele>
        <time>2026-08-29T09:01:22Z</time>
      </trkpt>
      <trkpt lat="43.94032" lon="1.85189">
        <ele>255.070636</ele>
        <time>2026-08-29T09:01:23Z</time>
      </trkpt>
      <trkpt lat="43.94028" lon="1.8519">
        <ele>255.054096</ele>
        <time>2026-08-29T09:01:24Z</time>
      </trkpt>
      <trkpt lat="43.94024" lon="1.8519">
        <ele>255.034287</ele>
        <time>2026-08-29T09:01:25Z</time>
      </trkpt>
      <trkpt lat="43.94019" lon="1.85192">
        <ele>255.013784</ele>
        <time>2026-08-29T09:01:26Z</time>
      </trkpt>
      <trkpt lat="43.94015" lon="1.85193">
        <ele>254.99449</ele>
        <time>2026-08-29T09:01:27Z</time>
      </trkpt>
      <trkpt lat="43.94011" lon="1.85194">
        <ele>254.976193</ele>
        <time>2026-08-29T09:01:28Z</time>
      </trkpt>
      <trkpt lat="43.94007" lon="1.85196">
        <ele>254.959936</ele>
        <time>2026-08-29T09:01:29Z</time>
      </trkpt>
      <trkpt lat="43.94004" lon="1.85198">
        <ele>254.943238</ele>
        <time>2026-08-29T09:01:30Z</time>
      </trkpt>
      <trkpt lat="43.94001" lon="1.852">
        <ele>254.926268</ele>
        <time>2026-08-29T09:01:31Z</time>
      </trkpt>
      <trkpt lat="43.93997" lon="1.85202">
        <ele>254.908748</ele>
        <time>2026-08-29T09:01:32Z</time>
      </trkpt>
      <trkpt lat="43.93994" lon="1.85204">
        <ele>254.891885</ele>
        <time>2026-08-29T09:01:33Z</time>
      </trkpt>
      <trkpt lat="43.9399" lon="1.85205">
        <ele>254.876925</ele>
        <time>2026-08-29T09:01:34Z</time>
      </trkpt>
      <trkpt lat="43.93988" lon="1.85206">
        <ele>254.864029</ele>
        <time>2026-08-29T09:01:35Z</time>
      </trkpt>
      <trkpt lat="43.93985" lon="1.85207">
        <ele>254.854258</ele>
        <time>2026-08-29T09:01:36Z</time>
      </trkpt>
      <trkpt lat="43.93984" lon="1.85207">
        <ele>254.846155</ele>
        <time>2026-08-29T09:01:37Z</time>
      </trkpt>
      <trkpt lat="43.93982" lon="1.85208">
        <ele>254.839741</ele>
        <time>2026-08-29T09:01:38Z</time>
      </trkpt>
      <trkpt lat="43.93981" lon="1.85208">
        <ele>254.832819</ele>
        <time>2026-08-29T09:01:39Z</time>
      </trkpt>
      <trkpt lat="43.9398" lon="1.85209">
        <ele>254.827198</ele>
        <time>2026-08-29T09:01:40Z</time>
      </trkpt>
      <trkpt lat="43.93979" lon="1.85209">
        <ele>254.822664</ele>
        <time>2026-08-29T09:01:41Z</time>
      </trkpt>
      <trkpt lat="43.93977" lon="1.85209">
        <ele>254.817193</ele>
        <time>2026-08-29T09:01:42Z</time>
      </trkpt>
      <trkpt lat="43.93976" lon="1.85209">
        <ele>254.810903</ele>
        <time>2026-08-29T09:01:43Z</time>
      </trkpt>
      <trkpt lat="43.93975" lon="1.85208">
        <ele>254.804547</ele>
        <time>2026-08-29T09:01:44Z</time>
      </trkpt>
      <trkpt lat="43.93973" lon="1.85208">
        <ele>254.797625</ele>
        <time>2026-08-29T09:01:45Z</time>
      </trkpt>
      <trkpt lat="43.93971" lon="1.85207">
        <ele>254.788506</ele>
        <time>2026-08-29T09:01:46Z</time>
      </trkpt>
      <trkpt lat="43.93968" lon="1.85208">
        <ele>254.776352</ele>
        <time>2026-08-29T09:01:47Z</time>
      </trkpt>
      <trkpt lat="43.93966" lon="1.85207">
        <ele>254.765506</ele>
        <time>2026-08-29T09:01:48Z</time>
      </trkpt>
      <trkpt lat="43.93964" lon="1.85207">
        <ele>254.754732</ele>
        <time>2026-08-29T09:01:49Z</time>
      </trkpt>
      <trkpt lat="43.93961" lon="1.85208">
        <ele>254.744331</ele>
        <time>2026-08-29T09:01:50Z</time>
      </trkpt>
      <trkpt lat="43.93959" lon="1.85208">
        <ele>254.734454</ele>
        <time>2026-08-29T09:01:51Z</time>
      </trkpt>
      <trkpt lat="43.93957" lon="1.85208">
        <ele>254.723665</ele>
        <time>2026-08-29T09:01:52Z</time>
      </trkpt>
      <trkpt lat="43.93954" lon="1.85208">
        <ele>254.713325</ele>
        <time>2026-08-29T09:01:53Z</time>
      </trkpt>
      <trkpt lat="43.93952" lon="1.85208">
        <ele>254.702999</ele>
        <time>2026-08-29T09:01:54Z</time>
      </trkpt>
      <trkpt lat="43.93949" lon="1.85209">
        <ele>254.691221</ele>
        <time>2026-08-29T09:01:55Z</time>
      </trkpt>
      <trkpt lat="43.93947" lon="1.85209">
        <ele>254.678554</ele>
        <time>2026-08-29T09:01:56Z</time>
      </trkpt>
      <trkpt lat="43.93944" lon="1.85209">
        <ele>254.666883</ele>
        <time>2026-08-29T09:01:57Z</time>
      </trkpt>
      <trkpt lat="43.93942" lon="1.85209">
        <ele>254.659248</ele>
        <time>2026-08-29T09:01:58Z</time>
      </trkpt>
      <trkpt lat="43.9394" lon="1.8521">
        <ele>254.649371</ele>
        <time>2026-08-29T09:01:59Z</time>
      </trkpt>
      <trkpt lat="43.93938" lon="1.8521">
        <ele>254.63981</ele>
        <time>2026-08-29T09:02:00Z</time>
      </trkpt>
      <trkpt lat="43.93935" lon="1.85211">
        <ele>254.627926</ele>
        <time>2026-08-29T09:02:01Z</time>
      </trkpt>
      <trkpt lat="43.93933" lon="1.85211">
        <ele>254.615742</ele>
        <time>2026-08-29T09:02:02Z</time>
      </trkpt>
      <trkpt lat="43.9393" lon="1.85212">
        <ele>254.602219</ele>
        <time>2026-08-29T09:02:03Z</time>
      </trkpt>
      <trkpt lat="43.93926" lon="1.85212">
        <ele>254.586745</ele>
        <time>2026-08-29T09:02:04Z</time>
      </trkpt>
      <trkpt lat="43.93923" lon="1.85214">
        <ele>254.572737</ele>
        <time>2026-08-29T09:02:05Z</time>
      </trkpt>
      <trkpt lat="43.9392" lon="1.85215">
        <ele>254.557776</ele>
        <time>2026-08-29T09:02:06Z</time>
      </trkpt>
      <trkpt lat="43.93917" lon="1.85216">
        <ele>254.543565</ele>
        <time>2026-08-29T09:02:07Z</time>
      </trkpt>
      <trkpt lat="43.93914" lon="1.85218">
        <ele>254.528488</ele>
        <time>2026-08-29T09:02:08Z</time>
      </trkpt>
      <trkpt lat="43.93911" lon="1.8522">
        <ele>254.51192</ele>
        <time>2026-08-29T09:02:09Z</time>
      </trkpt>
      <trkpt lat="43.93908" lon="1.85222">
        <ele>254.496984</ele>
        <time>2026-08-29T09:02:10Z</time>
      </trkpt>
      <trkpt lat="43.93905" lon="1.85224">
        <ele>254.483487</ele>
        <time>2026-08-29T09:02:11Z</time>
      </trkpt>
      <trkpt lat="43.93903" lon="1.85227">
        <ele>254.470031</ele>
        <time>2026-08-29T09:02:12Z</time>
      </trkpt>
      <trkpt lat="43.939" lon="1.85228">
        <ele>254.457942</ele>
        <time>2026-08-29T09:02:13Z</time>
      </trkpt>
      <trkpt lat="43.93898" lon="1.8523">
        <ele>254.446399</ele>
        <time>2026-08-29T09:02:14Z</time>
      </trkpt>
      <trkpt lat="43.93896" lon="1.85232">
        <ele>254.43431</ele>
        <time>2026-08-29T09:02:15Z</time>
      </trkpt>
      <trkpt lat="43.93894" lon="1.85233">
        <ele>254.423562</ele>
        <time>2026-08-29T09:02:16Z</time>
      </trkpt>
      <trkpt lat="43.93891" lon="1.85236">
        <ele>254.408633</ele>
        <time>2026-08-29T09:02:17Z</time>
      </trkpt>
      <trkpt lat="43.93888" lon="1.85239">
        <ele>254.346147</ele>
        <time>2026-08-29T09:02:18Z</time>
      </trkpt>
      <trkpt lat="43.93885" lon="1.85241">
        <ele>254.239246</ele>
        <time>2026-08-29T09:02:19Z</time>
      </trkpt>
      <trkpt lat="43.93881" lon="1.85243">
        <ele>254.121493</ele>
        <time>2026-08-29T09:02:20Z</time>
      </trkpt>
      <trkpt lat="43.93877" lon="1.85246">
        <ele>253.992893</ele>
        <time>2026-08-29T09:02:21Z</time>
      </trkpt>
      <trkpt lat="43.93873" lon="1.85248">
        <ele>253.871976</ele>
        <time>2026-08-29T09:02:22Z</time>
      </trkpt>
      <trkpt lat="43.93869" lon="1.8525">
        <ele>253.748239</ele>
        <time>2026-08-29T09:02:23Z</time>
      </trkpt>
      <trkpt lat="43.93866" lon="1.8525">
        <ele>253.630981</ele>
        <time>2026-08-29T09:02:24Z</time>
      </trkpt>
      <trkpt lat="43.93862" lon="1.85249">
        <ele>253.51519</ele>
        <time>2026-08-29T09:02:25Z</time>
      </trkpt>
      <trkpt lat="43.93857" lon="1.85248">
        <ele>253.384999</ele>
        <time>2026-08-29T09:02:26Z</time>
      </trkpt>
      <trkpt lat="43.93853" lon="1.85248">
        <ele>253.249844</ele>
        <time>2026-08-29T09:02:27Z</time>
      </trkpt>
      <trkpt lat="43.93849" lon="1.85247">
        <ele>253.120657</ele>
        <time>2026-08-29T09:02:28Z</time>
      </trkpt>
      <trkpt lat="43.93844" lon="1.85246">
        <ele>252.984543</ele>
        <time>2026-08-29T09:02:29Z</time>
      </trkpt>
      <trkpt lat="43.93839" lon="1.85246">
        <ele>252.842499</ele>
        <time>2026-08-29T09:02:30Z</time>
      </trkpt>
      <trkpt lat="43.93834" lon="1.85245">
        <ele>252.689432</ele>
        <time>2026-08-29T09:02:31Z</time>
      </trkpt>
      <trkpt lat="43.93829" lon="1.85245">
        <ele>252.524416</ele>
        <time>2026-08-29T09:02:32Z</time>
      </trkpt>
      <trkpt lat="43.93823" lon="1.85244">
        <ele>252.36223</ele>
        <time>2026-08-29T09:02:33Z</time>
      </trkpt>
      <trkpt lat="43.93818" lon="1.85243">
        <ele>252.185263</ele>
        <time>2026-08-29T09:02:34Z</time>
      </trkpt>
      <trkpt lat="43.93812" lon="1.85243">
        <ele>252.007981</ele>
        <time>2026-08-29T09:02:35Z</time>
      </trkpt>
      <trkpt lat="43.93806" lon="1.85241">
        <ele>251.826156</ele>
        <time>2026-08-29T09:02:36Z</time>
      </trkpt>
      <trkpt lat="43.93801" lon="1.85239">
        <ele>251.688548</ele>
        <time>2026-08-29T09:02:37Z</time>
      </trkpt>
      <trkpt lat="43.93796" lon="1.85239">
        <ele>251.541074</ele>
        <time>2026-08-29T09:02:38Z</time>
      </trkpt>
      <trkpt lat="43.93791" lon="1.85238">
        <ele>251.382266</ele>
        <time>2026-08-29T09:02:39Z</time>
      </trkpt>
      <trkpt lat="43.93786" lon="1.85238">
        <ele>251.23777</ele>
        <time>2026-08-29T09:02:40Z</time>
      </trkpt>
      <trkpt lat="43.93781" lon="1.85237">
        <ele>251.090817</ele>
        <time>2026-08-29T09:02:41Z</time>
      </trkpt>
      <trkpt lat="43.93776" lon="1.85237">
        <ele>250.93775</ele>
        <time>2026-08-29T09:02:42Z</time>
      </trkpt>
      <trkpt lat="43.93771" lon="1.85237">
        <ele>250.794044</ele>
        <time>2026-08-29T09:02:43Z</time>
      </trkpt>
      <trkpt lat="43.93767" lon="1.85238">
        <ele>250.670371</ele>
        <time>2026-08-29T09:02:44Z</time>
      </trkpt>
      <trkpt lat="43.93763" lon="1.85239">
        <ele>250.530244</ele>
        <time>2026-08-29T09:02:45Z</time>
      </trkpt>
      <trkpt lat="43.93758" lon="1.85241">
        <ele>250.380208</ele>
        <time>2026-08-29T09:02:46Z</time>
      </trkpt>
      <trkpt lat="43.93753" lon="1.85242">
        <ele>250.240588</ele>
        <time>2026-08-29T09:02:47Z</time>
      </trkpt>
      <trkpt lat="43.93749" lon="1.85244">
        <ele>250.105444</ele>
        <time>2026-08-29T09:02:48Z</time>
      </trkpt>
      <trkpt lat="43.93745" lon="1.85245">
        <ele>249.969802</ele>
        <time>2026-08-29T09:02:49Z</time>
      </trkpt>
      <trkpt lat="43.93741" lon="1.85247">
        <ele>249.843236</ele>
        <time>2026-08-29T09:02:50Z</time>
      </trkpt>
      <trkpt lat="43.93736" lon="1.8525">
        <ele>249.70528</ele>
        <time>2026-08-29T09:02:51Z</time>
      </trkpt>
      <trkpt lat="43.93732" lon="1.85252">
        <ele>249.577568</ele>
        <time>2026-08-29T09:02:52Z</time>
      </trkpt>
      <trkpt lat="43.93729" lon="1.85255">
        <ele>249.450742</ele>
        <time>2026-08-29T09:02:53Z</time>
      </trkpt>
      <trkpt lat="43.93725" lon="1.85257">
        <ele>249.333482</ele>
        <time>2026-08-29T09:02:54Z</time>
      </trkpt>
      <trkpt lat="43.93722" lon="1.8526">
        <ele>249.215423</ele>
        <time>2026-08-29T09:02:55Z</time>
      </trkpt>
      <trkpt lat="43.93719" lon="1.85263">
        <ele>249.109678</ele>
        <time>2026-08-29T09:02:56Z</time>
      </trkpt>
      <trkpt lat="43.93716" lon="1.85265">
        <ele>249.00169</ele>
        <time>2026-08-29T09:02:57Z</time>
      </trkpt>
      <trkpt lat="43.93712" lon="1.85267">
        <ele>248.891666</ele>
        <time>2026-08-29T09:02:58Z</time>
      </trkpt>
      <trkpt lat="43.93709" lon="1.85267">
        <ele>248.788045</ele>
        <time>2026-08-29T09:02:59Z</time>
      </trkpt>
      <trkpt lat="43.93706" lon="1.85266">
        <ele>248.683963</ele>
        <time>2026-08-29T09:03:00Z</time>
      </trkpt>
      <trkpt lat="43.93702" lon="1.85266">
        <ele>248.579583</ele>
        <time>2026-08-29T09:03:01Z</time>
      </trkpt>
      <trkpt lat="43.93699" lon="1.85264">
        <ele>248.468348</ele>
        <time>2026-08-29T09:03:02Z</time>
      </trkpt>
      <trkpt lat="43.93695" lon="1.85262">
        <ele>248.3506</ele>
        <time>2026-08-29T09:03:03Z</time>
      </trkpt>
      <trkpt lat="43.93692" lon="1.8526">
        <ele>248.238471</ele>
        <time>2026-08-29T09:03:04Z</time>
      </trkpt>
      <trkpt lat="43.93689" lon="1.85258">
        <ele>248.139679</ele>
        <time>2026-08-29T09:03:05Z</time>
      </trkpt>
      <trkpt lat="43.93687" lon="1.85255">
        <ele>248.056088</ele>
        <time>2026-08-29T09:03:06Z</time>
      </trkpt>
      <trkpt lat="43.93684" lon="1.85252">
        <ele>247.948691</ele>
        <time>2026-08-29T09:03:07Z</time>
      </trkpt>
      <trkpt lat="43.93681" lon="1.85248">
        <ele>247.827571</ele>
        <time>2026-08-29T09:03:08Z</time>
      </trkpt>
      <trkpt lat="43.93679" lon="1.85243">
        <ele>247.699782</ele>
        <time>2026-08-29T09:03:09Z</time>
      </trkpt>
      <trkpt lat="43.93676" lon="1.85238">
        <ele>247.55781</ele>
        <time>2026-08-29T09:03:10Z</time>
      </trkpt>
      <trkpt lat="43.93674" lon="1.85233">
        <ele>247.415578</ele>
        <time>2026-08-29T09:03:11Z</time>
      </trkpt>
      <trkpt lat="43.93672" lon="1.85227">
        <ele>247.28137</ele>
        <time>2026-08-29T09:03:12Z</time>
      </trkpt>
      <trkpt lat="43.9367" lon="1.85222">
        <ele>247.153225</ele>
        <time>2026-08-29T09:03:13Z</time>
      </trkpt>
      <trkpt lat="43.93668" lon="1.85217">
        <ele>247.035569</ele>
        <time>2026-08-29T09:03:14Z</time>
      </trkpt>
      <trkpt lat="43.93667" lon="1.85213">
        <ele>246.92837</ele>
        <time>2026-08-29T09:03:15Z</time>
      </trkpt>
      <trkpt lat="43.93666" lon="1.85208">
        <ele>246.82858</ele>
        <time>2026-08-29T09:03:16Z</time>
      </trkpt>
      <trkpt lat="43.93664" lon="1.85205">
        <ele>246.739839</ele>
        <time>2026-08-29T09:03:17Z</time>
      </trkpt>
      <trkpt lat="43.93663" lon="1.85201">
        <ele>246.647094</ele>
        <time>2026-08-29T09:03:18Z</time>
      </trkpt>
      <trkpt lat="43.93662" lon="1.85197">
        <ele>246.562714</ele>
        <time>2026-08-29T09:03:19Z</time>
      </trkpt>
      <trkpt lat="43.93661" lon="1.85194">
        <ele>246.488431</ele>
        <time>2026-08-29T09:03:20Z</time>
      </trkpt>
      <trkpt lat="43.93661" lon="1.85191">
        <ele>246.425346</ele>
        <time>2026-08-29T09:03:21Z</time>
      </trkpt>
      <trkpt lat="43.93659" lon="1.85188">
        <ele>246.337276</ele>
        <time>2026-08-29T09:03:22Z</time>
      </trkpt>
      <trkpt lat="43.93658" lon="1.85185">
        <ele>246.265598</ele>
        <time>2026-08-29T09:03:23Z</time>
      </trkpt>
      <trkpt lat="43.93657" lon="1.85182">
        <ele>246.204476</ele>
        <time>2026-08-29T09:03:24Z</time>
      </trkpt>
      <trkpt lat="43.93657" lon="1.8518">
        <ele>246.14477</ele>
        <time>2026-08-29T09:03:25Z</time>
      </trkpt>
      <trkpt lat="43.93657" lon="1.85179">
        <ele>246.122317</ele>
        <time>2026-08-29T09:03:26Z</time>
      </trkpt>
      <trkpt lat="43.93658" lon="1.85179">
        <ele>246.118575</ele>
        <time>2026-08-29T09:03:27Z</time>
      </trkpt>
      <trkpt lat="43.93658" lon="1.85179">
        <ele>246.116388</ele>
        <time>2026-08-29T09:03:28Z</time>
      </trkpt>
      <trkpt lat="43.93658" lon="1.85179">
        <ele>246.098036</ele>
        <time>2026-08-29T09:03:29Z</time>
      </trkpt>
      <trkpt lat="43.93647" lon="1.85166">
        <ele>245.645363</ele>
        <time>2026-08-29T09:04:34Z</time>
      </trkpt>
      <trkpt lat="43.93644" lon="1.85165">
        <ele>245.573359</ele>
        <time>2026-08-29T09:04:35Z</time>
      </trkpt>
      <trkpt lat="43.93642" lon="1.85164">
        <ele>245.506299</ele>
        <time>2026-08-29T09:04:36Z</time>
      </trkpt>
      <trkpt lat="43.9364" lon="1.85162">
        <ele>245.421765</ele>
        <time>2026-08-29T09:04:37Z</time>
      </trkpt>
      <trkpt lat="43.93637" lon="1.8516">
        <ele>245.326699</ele>
        <time>2026-08-29T09:04:38Z</time>
      </trkpt>
      <trkpt lat="43.93634" lon="1.85158">
        <ele>245.212789</ele>
        <time>2026-08-29T09:04:39Z</time>
      </trkpt>
      <trkpt lat="43.9363" lon="1.85156">
        <ele>245.109505</ele>
        <time>2026-08-29T09:04:40Z</time>
      </trkpt>
      <trkpt lat="43.93627" lon="1.85155">
        <ele>245.004058</ele>
        <time>2026-08-29T09:04:41Z</time>
      </trkpt>
      <trkpt lat="43.93624" lon="1.85152">
        <ele>244.887389</ele>
        <time>2026-08-29T09:04:42Z</time>
      </trkpt>
      <trkpt lat="43.9362" lon="1.85149">
        <ele>244.748699</ele>
        <time>2026-08-29T09:04:43Z</time>
      </trkpt>
      <trkpt lat="43.93616" lon="1.85146">
        <ele>244.608859</ele>
        <time>2026-08-29T09:04:44Z</time>
      </trkpt>
      <trkpt lat="43.93612" lon="1.85143">
        <ele>244.475021</ele>
        <time>2026-08-29T09:04:45Z</time>
      </trkpt>
      <trkpt lat="43.93608" lon="1.8514">
        <ele>244.352788</ele>
        <time>2026-08-29T09:04:46Z</time>
      </trkpt>
      <trkpt lat="43.93605" lon="1.85138">
        <ele>244.238667</ele>
        <time>2026-08-29T09:04:47Z</time>
      </trkpt>
      <trkpt lat="43.93601" lon="1.85136">
        <ele>244.101562</ele>
        <time>2026-08-29T09:04:48Z</time>
      </trkpt>
      <trkpt lat="43.93597" lon="1.85134">
        <ele>243.981764</ele>
        <time>2026-08-29T09:04:49Z</time>
      </trkpt>
      <trkpt lat="43.93594" lon="1.85132">
        <ele>243.87053</ele>
        <time>2026-08-29T09:04:50Z</time>
      </trkpt>
      <trkpt lat="43.93591" lon="1.85131">
        <ele>243.802371</ele>
        <time>2026-08-29T09:04:51Z</time>
      </trkpt>
      <trkpt lat="43.93591" lon="1.85131">
        <ele>243.77484</ele>
        <time>2026-08-29T09:04:52Z</time>
      </trkpt>
      <trkpt lat="43.93591" lon="1.8513">
        <ele>243.76761</ele>
        <time>2026-08-29T09:04:53Z</time>
      </trkpt>
      <trkpt lat="43.93591" lon="1.85131">
        <ele>243.747696</ele>
        <time>2026-08-29T09:04:54Z</time>
      </trkpt>
      <trkpt lat="43.9358" lon="1.8513">
        <ele>243.664302</ele>
        <time>2026-08-29T09:05:13Z</time>
      </trkpt>
      <trkpt lat="43.93578" lon="1.85129">
        <ele>243.721987</ele>
        <time>2026-08-29T09:05:14Z</time>
      </trkpt>
      <trkpt lat="43.93575" lon="1.8513">
        <ele>243.779868</ele>
        <time>2026-08-29T09:05:15Z</time>
      </trkpt>
      <trkpt lat="43.93573" lon="1.8513">
        <ele>243.839824</ele>
        <time>2026-08-29T09:05:16Z</time>
      </trkpt>
      <trkpt lat="43.9357" lon="1.8513">
        <ele>243.904847</ele>
        <time>2026-08-29T09:05:17Z</time>
      </trkpt>
      <trkpt lat="43.93568" lon="1.8513">
        <ele>243.964884</ele>
        <time>2026-08-29T09:05:18Z</time>
      </trkpt>
      <trkpt lat="43.93566" lon="1.85131">
        <ele>244.02696</ele>
        <time>2026-08-29T09:05:19Z</time>
      </trkpt>
      <trkpt lat="43.93563" lon="1.85131">
        <ele>244.079889</ele>
        <time>2026-08-29T09:05:20Z</time>
      </trkpt>
      <trkpt lat="43.93561" lon="1.85131">
        <ele>244.140061</ele>
        <time>2026-08-29T09:05:21Z</time>
      </trkpt>
      <trkpt lat="43.93558" lon="1.85132">
        <ele>244.205604</ele>
        <time>2026-08-29T09:05:22Z</time>
      </trkpt>
      <trkpt lat="43.93556" lon="1.85132">
        <ele>244.27312</ele>
        <time>2026-08-29T09:05:23Z</time>
      </trkpt>
      <trkpt lat="43.93553" lon="1.85132">
        <ele>244.33844</ele>
        <time>2026-08-29T09:05:24Z</time>
      </trkpt>
      <trkpt lat="43.93551" lon="1.85133">
        <ele>244.399677</ele>
        <time>2026-08-29T09:05:25Z</time>
      </trkpt>
      <trkpt lat="43.93548" lon="1.85134">
        <ele>244.461309</ele>
        <time>2026-08-29T09:05:26Z</time>
      </trkpt>
      <trkpt lat="43.93546" lon="1.85135">
        <ele>244.529178</ele>
        <time>2026-08-29T09:05:27Z</time>
      </trkpt>
      <trkpt lat="43.93543" lon="1.85137">
        <ele>244.596454</ele>
        <time>2026-08-29T09:05:28Z</time>
      </trkpt>
      <trkpt lat="43.93541" lon="1.85138">
        <ele>244.652893</ele>
        <time>2026-08-29T09:05:29Z</time>
      </trkpt>
      <trkpt lat="43.93539" lon="1.8514">
        <ele>244.715761</ele>
        <time>2026-08-29T09:05:30Z</time>
      </trkpt>
      <trkpt lat="43.93537" lon="1.85142">
        <ele>244.786535</ele>
        <time>2026-08-29T09:05:31Z</time>
      </trkpt>
      <trkpt lat="43.93535" lon="1.85144">
        <ele>244.856427</ele>
        <time>2026-08-29T09:05:32Z</time>
      </trkpt>
      <trkpt lat="43.93532" lon="1.85147">
        <ele>244.928236</ele>
        <time>2026-08-29T09:05:33Z</time>
      </trkpt>
      <trkpt lat="43.9353" lon="1.85149">
        <ele>244.998128</ele>
        <time>2026-08-29T09:05:34Z</time>
      </trkpt>
      <trkpt lat="43.93528" lon="1.85151">
        <ele>245.06479</ele>
        <time>2026-08-29T09:05:35Z</time>
      </trkpt>
      <trkpt lat="43.93525" lon="1.85153">
        <ele>245.140816</ele>
        <time>2026-08-29T09:05:36Z</time>
      </trkpt>
      <trkpt lat="43.93523" lon="1.85154">
        <ele>245.195392</ele>
        <time>2026-08-29T09:05:37Z</time>
      </trkpt>
      <trkpt lat="43.93521" lon="1.85156">
        <ele>245.261869</ele>
        <time>2026-08-29T09:05:38Z</time>
      </trkpt>
      <trkpt lat="43.93518" lon="1.85158">
        <ele>245.332643</ele>
        <time>2026-08-29T09:05:39Z</time>
      </trkpt>
      <trkpt lat="43.93516" lon="1.8516">
        <ele>245.406008</ele>
        <time>2026-08-29T09:05:40Z</time>
      </trkpt>
      <trkpt lat="43.93513" lon="1.85162">
        <ele>245.471069</ele>
        <time>2026-08-29T09:05:41Z</time>
      </trkpt>
      <trkpt lat="43.93512" lon="1.85164">
        <ele>245.52235</ele>
        <time>2026-08-29T09:05:42Z</time>
      </trkpt>
      <trkpt lat="43.9351" lon="1.85165">
        <ele>245.569969</ele>
        <time>2026-08-29T09:05:43Z</time>
      </trkpt>
      <trkpt lat="43.93508" lon="1.85166">
        <ele>245.624373</ele>
        <time>2026-08-29T09:05:44Z</time>
      </trkpt>
      <trkpt lat="43.93507" lon="1.85167">
        <ele>245.660277</ele>
        <time>2026-08-29T09:05:45Z</time>
      </trkpt>
      <trkpt lat="43.93505" lon="1.85168">
        <ele>245.70409</ele>
        <time>2026-08-29T09:05:46Z</time>
      </trkpt>
      <trkpt lat="43.93504" lon="1.85169">
        <ele>245.740363</ele>
        <time>2026-08-29T09:05:47Z</time>
      </trkpt>
      <trkpt lat="43.93502" lon="1.8517">
        <ele>245.790657</ele>
        <time>2026-08-29T09:05:48Z</time>
      </trkpt>
      <trkpt lat="43.935" lon="1.85172">
        <ele>245.849211</ele>
        <time>2026-08-29T09:05:49Z</time>
      </trkpt>
      <trkpt lat="43.93498" lon="1.85174">
        <ele>245.911797</ele>
        <time>2026-08-29T09:05:50Z</time>
      </trkpt>
      <trkpt lat="43.93497" lon="1.85175">
        <ele>245.955949</ele>
        <time>2026-08-29T09:05:51Z</time>
      </trkpt>
      <trkpt lat="43.93494" lon="1.85177">
        <ele>246.02101</ele>
        <time>2026-08-29T09:05:52Z</time>
      </trkpt>
      <trkpt lat="43.93492" lon="1.85179">
        <ele>246.089774</ele>
        <time>2026-08-29T09:05:53Z</time>
      </trkpt>
      <trkpt lat="43.9349" lon="1.85182">
        <ele>246.154617</ele>
        <time>2026-08-29T09:05:54Z</time>
      </trkpt>
      <trkpt lat="43.93487" lon="1.85185">
        <ele>246.253085</ele>
        <time>2026-08-29T09:05:55Z</time>
      </trkpt>
      <trkpt lat="43.93485" lon="1.85187">
        <ele>246.323339</ele>
        <time>2026-08-29T09:05:56Z</time>
      </trkpt>
      <trkpt lat="43.93483" lon="1.8519">
        <ele>246.392103</ele>
        <time>2026-08-29T09:05:57Z</time>
      </trkpt>
      <trkpt lat="43.93481" lon="1.85191">
        <ele>246.445812</ele>
        <time>2026-08-29T09:05:58Z</time>
      </trkpt>
      <trkpt lat="43.93479" lon="1.85193">
        <ele>246.498231</ele>
        <time>2026-08-29T09:05:59Z</time>
      </trkpt>
      <trkpt lat="43.93476" lon="1.85195">
        <ele>246.57119</ele>
        <time>2026-08-29T09:06:00Z</time>
      </trkpt>
      <trkpt lat="43.93474" lon="1.85197">
        <ele>246.643327</ele>
        <time>2026-08-29T09:06:01Z</time>
      </trkpt>
      <trkpt lat="43.93472" lon="1.85199">
        <ele>246.70495</ele>
        <time>2026-08-29T09:06:02Z</time>
      </trkpt>
      <trkpt lat="43.9347" lon="1.85201">
        <ele>246.776759</ele>
        <time>2026-08-29T09:06:03Z</time>
      </trkpt>
      <trkpt lat="43.93467" lon="1.85204">
        <ele>246.846498</ele>
        <time>2026-08-29T09:06:04Z</time>
      </trkpt>
      <trkpt lat="43.93465" lon="1.85205">
        <ele>246.915236</ele>
        <time>2026-08-29T09:06:05Z</time>
      </trkpt>
      <trkpt lat="43.93463" lon="1.85206">
        <ele>246.977804</ele>
        <time>2026-08-29T09:06:06Z</time>
      </trkpt>
      <trkpt lat="43.9346" lon="1.85206">
        <ele>247.030519</ele>
        <time>2026-08-29T09:06:07Z</time>
      </trkpt>
      <trkpt lat="43.93458" lon="1.85207">
        <ele>247.082022</ele>
        <time>2026-08-29T09:06:08Z</time>
      </trkpt>
      <trkpt lat="43.93457" lon="1.85208">
        <ele>247.131599</ele>
        <time>2026-08-29T09:06:09Z</time>
      </trkpt>
      <trkpt lat="43.93455" lon="1.85209">
        <ele>247.177823</ele>
        <time>2026-08-29T09:06:10Z</time>
      </trkpt>
      <trkpt lat="43.93453" lon="1.85209">
        <ele>247.216802</ele>
        <time>2026-08-29T09:06:11Z</time>
      </trkpt>
      <trkpt lat="43.93451" lon="1.8521">
        <ele>247.268922</ele>
        <time>2026-08-29T09:06:12Z</time>
      </trkpt>
      <trkpt lat="43.9345" lon="1.85212">
        <ele>247.319217</ele>
        <time>2026-08-29T09:06:13Z</time>
      </trkpt>
      <trkpt lat="43.93448" lon="1.85213">
        <ele>247.358731</ele>
        <time>2026-08-29T09:06:14Z</time>
      </trkpt>
      <trkpt lat="43.93447" lon="1.85213">
        <ele>247.398245</ele>
        <time>2026-08-29T09:06:15Z</time>
      </trkpt>
      <trkpt lat="43.93446" lon="1.85214">
        <ele>247.432094</ele>
        <time>2026-08-29T09:06:16Z</time>
      </trkpt>
      <trkpt lat="43.93445" lon="1.85215">
        <ele>247.462033</ele>
        <time>2026-08-29T09:06:17Z</time>
      </trkpt>
      <trkpt lat="43.93444" lon="1.85216">
        <ele>247.485438</ele>
        <time>2026-08-29T09:06:18Z</time>
      </trkpt>
      <trkpt lat="43.93443" lon="1.85217">
        <ele>247.50905</ele>
        <time>2026-08-29T09:06:19Z</time>
      </trkpt>
      <trkpt lat="43.93443" lon="1.85218">
        <ele>247.538239</ele>
        <time>2026-08-29T09:06:20Z</time>
      </trkpt>
      <trkpt lat="43.93442" lon="1.85221">
        <ele>247.582183</ele>
        <time>2026-08-29T09:06:21Z</time>
      </trkpt>
      <trkpt lat="43.93441" lon="1.85223">
        <ele>247.62473</ele>
        <time>2026-08-29T09:06:22Z</time>
      </trkpt>
      <trkpt lat="43.93441" lon="1.85226">
        <ele>247.676938</ele>
        <time>2026-08-29T09:06:23Z</time>
      </trkpt>
      <trkpt lat="43.93441" lon="1.85229">
        <ele>247.74244</ele>
        <time>2026-08-29T09:06:24Z</time>
      </trkpt>
      <trkpt lat="43.9344" lon="1.85233">
        <ele>247.818825</ele>
        <time>2026-08-29T09:06:25Z</time>
      </trkpt>
      <trkpt lat="43.93438" lon="1.85238">
        <ele>247.91663</ele>
        <time>2026-08-29T09:06:26Z</time>
      </trkpt>
      <trkpt lat="43.93436" lon="1.85244">
        <ele>248.025409</ele>
        <time>2026-08-29T09:06:27Z</time>
      </trkpt>
      <trkpt lat="43.93433" lon="1.85249">
        <ele>248.056735</ele>
        <time>2026-08-29T09:06:28Z</time>
      </trkpt>
      <trkpt lat="43.9343" lon="1.85254">
        <ele>248.072011</ele>
        <time>2026-08-29T09:06:29Z</time>
      </trkpt>
      <trkpt lat="43.93427" lon="1.85258">
        <ele>248.087259</ele>
        <time>2026-08-29T09:06:30Z</time>
      </trkpt>
      <trkpt lat="43.93423" lon="1.85262">
        <ele>248.102248</ele>
        <time>2026-08-29T09:06:31Z</time>
      </trkpt>
      <trkpt lat="43.9342" lon="1.85267">
        <ele>248.117033</ele>
        <time>2026-08-29T09:06:32Z</time>
      </trkpt>
      <trkpt lat="43.93416" lon="1.8527">
        <ele>248.129804</ele>
        <time>2026-08-29T09:06:33Z</time>
      </trkpt>
      <trkpt lat="43.93414" lon="1.85274">
        <ele>248.14138</ele>
        <time>2026-08-29T09:06:34Z</time>
      </trkpt>
      <trkpt lat="43.93412" lon="1.85277">
        <ele>248.151346</ele>
        <time>2026-08-29T09:06:35Z</time>
      </trkpt>
      <trkpt lat="43.9341" lon="1.8528">
        <ele>248.160371</ele>
        <time>2026-08-29T09:06:36Z</time>
      </trkpt>
      <trkpt lat="43.93407" lon="1.85282">
        <ele>248.170219</ele>
        <time>2026-08-29T09:06:37Z</time>
      </trkpt>
      <trkpt lat="43.93405" lon="1.85284">
        <ele>248.178659</ele>
        <time>2026-08-29T09:06:38Z</time>
      </trkpt>
      <trkpt lat="43.93403" lon="1.85286">
        <ele>248.187855</ele>
        <time>2026-08-29T09:06:39Z</time>
      </trkpt>
      <trkpt lat="43.93401" lon="1.85289">
        <ele>248.194614</ele>
        <time>2026-08-29T09:06:40Z</time>
      </trkpt>
      <trkpt lat="43.934" lon="1.85291">
        <ele>248.20153</ele>
        <time>2026-08-29T09:06:41Z</time>
      </trkpt>
      <trkpt lat="43.93398" lon="1.85293">
        <ele>248.208803</ele>
        <time>2026-08-29T09:06:42Z</time>
      </trkpt>
      <trkpt lat="43.93396" lon="1.85295">
        <ele>248.216692</ele>
        <time>2026-08-29T09:06:43Z</time>
      </trkpt>
      <trkpt lat="43.93394" lon="1.85297">
        <ele>248.22562</ele>
        <time>2026-08-29T09:06:44Z</time>
      </trkpt>
      <trkpt lat="43.93392" lon="1.853">
        <ele>248.234854</ele>
        <time>2026-08-29T09:06:45Z</time>
      </trkpt>
      <trkpt lat="43.93389" lon="1.85302">
        <ele>248.244703</ele>
        <time>2026-08-29T09:06:46Z</time>
      </trkpt>
      <trkpt lat="43.93387" lon="1.85305">
        <ele>248.25479</ele>
        <time>2026-08-29T09:06:47Z</time>
      </trkpt>
      <trkpt lat="43.93385" lon="1.85308">
        <ele>248.263484</ele>
        <time>2026-08-29T09:06:48Z</time>
      </trkpt>
      <trkpt lat="43.93383" lon="1.8531">
        <ele>248.271541</ele>
        <time>2026-08-29T09:06:49Z</time>
      </trkpt>
      <trkpt lat="43.93381" lon="1.85311">
        <ele>248.279317</ele>
        <time>2026-08-29T09:06:50Z</time>
      </trkpt>
      <trkpt lat="43.93378" lon="1.85312">
        <ele>248.288231</ele>
        <time>2026-08-29T09:06:51Z</time>
      </trkpt>
      <trkpt lat="43.93376" lon="1.85314">
        <ele>248.296687</ele>
        <time>2026-08-29T09:06:52Z</time>
      </trkpt>
      <trkpt lat="43.93373" lon="1.85315">
        <ele>248.306749</ele>
        <time>2026-08-29T09:06:53Z</time>
      </trkpt>
      <trkpt lat="43.9337" lon="1.85316">
        <ele>248.314453</ele>
        <time>2026-08-29T09:06:54Z</time>
      </trkpt>
      <trkpt lat="43.93368" lon="1.85317">
        <ele>248.322248</ele>
        <time>2026-08-29T09:06:55Z</time>
      </trkpt>
      <trkpt lat="43.93366" lon="1.85317">
        <ele>248.328977</ele>
        <time>2026-08-29T09:06:56Z</time>
      </trkpt>
      <trkpt lat="43.93363" lon="1.85318">
        <ele>248.337757</ele>
        <time>2026-08-29T09:06:57Z</time>
      </trkpt>
      <trkpt lat="43.9336" lon="1.85319">
        <ele>248.346852</ele>
        <time>2026-08-29T09:06:58Z</time>
      </trkpt>
      <trkpt lat="43.93358" lon="1.8532">
        <ele>248.355168</ele>
        <time>2026-08-29T09:06:59Z</time>
      </trkpt>
      <trkpt lat="43.93355" lon="1.85321">
        <ele>248.365441</ele>
        <time>2026-08-29T09:07:00Z</time>
      </trkpt>
      <trkpt lat="43.93352" lon="1.85324">
        <ele>248.37741</ele>
        <time>2026-08-29T09:07:01Z</time>
      </trkpt>
      <trkpt lat="43.93349" lon="1.85327">
        <ele>248.390328</ele>
        <time>2026-08-29T09:07:02Z</time>
      </trkpt>
      <trkpt lat="43.93345" lon="1.85332">
        <ele>248.406832</ele>
        <time>2026-08-29T09:07:03Z</time>
      </trkpt>
      <trkpt lat="43.93341" lon="1.85338">
        <ele>248.423728</ele>
        <time>2026-08-29T09:07:04Z</time>
      </trkpt>
      <trkpt lat="43.93338" lon="1.85344">
        <ele>248.442605</ele>
        <time>2026-08-29T09:07:05Z</time>
      </trkpt>
      <trkpt lat="43.93335" lon="1.8535">
        <ele>248.458364</ele>
        <time>2026-08-29T09:07:06Z</time>
      </trkpt>
      <trkpt lat="43.93334" lon="1.85356">
        <ele>248.471902</ele>
        <time>2026-08-29T09:07:07Z</time>
      </trkpt>
      <trkpt lat="43.93332" lon="1.85361">
        <ele>248.48568</ele>
        <time>2026-08-29T09:07:08Z</time>
      </trkpt>
      <trkpt lat="43.93331" lon="1.85367">
        <ele>248.500519</ele>
        <time>2026-08-29T09:07:09Z</time>
      </trkpt>
      <trkpt lat="43.9333" lon="1.85373">
        <ele>248.513216</ele>
        <time>2026-08-29T09:07:10Z</time>
      </trkpt>
      <trkpt lat="43.93328" lon="1.85377">
        <ele>248.523662</ele>
        <time>2026-08-29T09:07:11Z</time>
      </trkpt>
      <trkpt lat="43.93327" lon="1.85381">
        <ele>248.533764</ele>
        <time>2026-08-29T09:07:12Z</time>
      </trkpt>
      <trkpt lat="43.93326" lon="1.85384">
        <ele>248.542432</ele>
        <time>2026-08-29T09:07:13Z</time>
      </trkpt>
      <trkpt lat="43.93325" lon="1.85389">
        <ele>248.55272</ele>
        <time>2026-08-29T09:07:14Z</time>
      </trkpt>
      <trkpt lat="43.93324" lon="1.85392">
        <ele>248.56175</ele>
        <time>2026-08-29T09:07:15Z</time>
      </trkpt>
      <trkpt lat="43.93323" lon="1.85397">
        <ele>248.571674</ele>
        <time>2026-08-29T09:07:16Z</time>
      </trkpt>
      <trkpt lat="43.93323" lon="1.854">
        <ele>248.580927</ele>
        <time>2026-08-29T09:07:17Z</time>
      </trkpt>
      <trkpt lat="43.93322" lon="1.85403">
        <ele>248.587791</ele>
        <time>2026-08-29T09:07:18Z</time>
      </trkpt>
      <trkpt lat="43.93321" lon="1.85407">
        <ele>248.596025</ele>
        <time>2026-08-29T09:07:19Z</time>
      </trkpt>
      <trkpt lat="43.9332" lon="1.8541">
        <ele>248.603775</ele>
        <time>2026-08-29T09:07:20Z</time>
      </trkpt>
      <trkpt lat="43.93319" lon="1.85413">
        <ele>248.611276</ele>
        <time>2026-08-29T09:07:21Z</time>
      </trkpt>
      <trkpt lat="43.93318" lon="1.85415">
        <ele>248.617156</ele>
        <time>2026-08-29T09:07:22Z</time>
      </trkpt>
      <trkpt lat="43.93317" lon="1.85417">
        <ele>248.673199</ele>
        <time>2026-08-29T09:07:23Z</time>
      </trkpt>
      <trkpt lat="43.93317" lon="1.8542">
        <ele>248.760693</ele>
        <time>2026-08-29T09:07:24Z</time>
      </trkpt>
      <trkpt lat="43.93316" lon="1.85422">
        <ele>248.83784</ele>
        <time>2026-08-29T09:07:25Z</time>
      </trkpt>
      <trkpt lat="43.93316" lon="1.85424">
        <ele>248.927494</ele>
        <time>2026-08-29T09:07:26Z</time>
      </trkpt>
      <trkpt lat="43.93315" lon="1.85427">
        <ele>249.019619</ele>
        <time>2026-08-29T09:07:27Z</time>
      </trkpt>
      <trkpt lat="43.93315" lon="1.85429">
        <ele>249.10055</ele>
        <time>2026-08-29T09:07:28Z</time>
      </trkpt>
      <trkpt lat="43.93315" lon="1.85431">
        <ele>249.171941</ele>
        <time>2026-08-29T09:07:29Z</time>
      </trkpt>
      <trkpt lat="43.93315" lon="1.85432">
        <ele>249.211605</ele>
        <time>2026-08-29T09:07:30Z</time>
      </trkpt>
      <trkpt lat="43.93316" lon="1.85433">
        <ele>249.256995</ele>
        <time>2026-08-29T09:07:31Z</time>
      </trkpt>
      <trkpt lat="43.93296" lon="1.85478">
        <ele>251.049228</ele>
        <time>2026-08-29T09:08:16Z</time>
      </trkpt>
      <trkpt lat="43.93295" lon="1.8548">
        <ele>251.123821</ele>
        <time>2026-08-29T09:08:17Z</time>
      </trkpt>
      <trkpt lat="43.93293" lon="1.85482">
        <ele>251.223926</ele>
        <time>2026-08-29T09:08:18Z</time>
      </trkpt>
      <trkpt lat="43.93292" lon="1.85484">
        <ele>251.312303</ele>
        <time>2026-08-29T09:08:19Z</time>
      </trkpt>
      <trkpt lat="43.93291" lon="1.85485">
        <ele>251.383743</ele>
        <time>2026-08-29T09:08:20Z</time>
      </trkpt>
      <trkpt lat="43.93289" lon="1.85487">
        <ele>251.474143</ele>
        <time>2026-08-29T09:08:21Z</time>
      </trkpt>
      <trkpt lat="43.93288" lon="1.8549">
        <ele>251.578294</ele>
        <time>2026-08-29T09:08:22Z</time>
      </trkpt>
      <trkpt lat="43.93287" lon="1.85492">
        <ele>251.676889</ele>
        <time>2026-08-29T09:08:23Z</time>
      </trkpt>
      <trkpt lat="43.93285" lon="1.85494">
        <ele>251.77589</ele>
        <time>2026-08-29T09:08:24Z</time>
      </trkpt>
      <trkpt lat="43.93284" lon="1.85496">
        <ele>251.863619</ele>
        <time>2026-08-29T09:08:25Z</time>
      </trkpt>
      <trkpt lat="43.93283" lon="1.85499">
        <ele>251.956684</ele>
        <time>2026-08-29T09:08:26Z</time>
      </trkpt>
      <trkpt lat="43.93282" lon="1.85501">
        <ele>252.063476</ele>
        <time>2026-08-29T09:08:27Z</time>
      </trkpt>
      <trkpt lat="43.9328" lon="1.85503">
        <ele>252.163217</ele>
        <time>2026-08-29T09:08:28Z</time>
      </trkpt>
      <trkpt lat="43.93279" lon="1.85505">
        <ele>252.251</ele>
        <time>2026-08-29T09:08:29Z</time>
      </trkpt>
      <trkpt lat="43.93278" lon="1.85507">
        <ele>252.3475</ele>
        <time>2026-08-29T09:08:30Z</time>
      </trkpt>
      <trkpt lat="43.93276" lon="1.8551">
        <ele>252.452137</ele>
        <time>2026-08-29T09:08:31Z</time>
      </trkpt>
      <trkpt lat="43.93274" lon="1.85511">
        <ele>252.557975</ele>
        <time>2026-08-29T09:08:32Z</time>
      </trkpt>
      <trkpt lat="43.93273" lon="1.85513">
        <ele>252.64506</ele>
        <time>2026-08-29T09:08:33Z</time>
      </trkpt>
      <trkpt lat="43.93272" lon="1.85516">
        <ele>252.746374</ele>
        <time>2026-08-29T09:08:34Z</time>
      </trkpt>
      <trkpt lat="43.9327" lon="1.85518">
        <ele>252.858715</ele>
        <time>2026-08-29T09:08:35Z</time>
      </trkpt>
      <trkpt lat="43.93269" lon="1.85521">
        <ele>252.952217</ele>
        <time>2026-08-29T09:08:36Z</time>
      </trkpt>
      <trkpt lat="43.93268" lon="1.85523">
        <ele>253.062092</ele>
        <time>2026-08-29T09:08:37Z</time>
      </trkpt>
      <trkpt lat="43.93266" lon="1.85526">
        <ele>253.176632</ele>
        <time>2026-08-29T09:08:38Z</time>
      </trkpt>
      <trkpt lat="43.93265" lon="1.85528">
        <ele>253.284188</ele>
        <time>2026-08-29T09:08:39Z</time>
      </trkpt>
      <trkpt lat="43.93264" lon="1.85531">
        <ele>253.371917</ele>
        <time>2026-08-29T09:08:40Z</time>
      </trkpt>
      <trkpt lat="43.93263" lon="1.85534">
        <ele>253.487639</ele>
        <time>2026-08-29T09:08:41Z</time>
      </trkpt>
      <trkpt lat="43.93261" lon="1.85536">
        <ele>253.589192</ele>
        <time>2026-08-29T09:08:42Z</time>
      </trkpt>
      <trkpt lat="43.9326" lon="1.85538">
        <ele>253.698006</ele>
        <time>2026-08-29T09:08:43Z</time>
      </trkpt>
      <trkpt lat="43.93258" lon="1.8554">
        <ele>253.781624</ele>
        <time>2026-08-29T09:08:44Z</time>
      </trkpt>
      <trkpt lat="43.93257" lon="1.85542">
        <ele>253.855644</ele>
        <time>2026-08-29T09:08:45Z</time>
      </trkpt>
      <trkpt lat="43.93256" lon="1.85544">
        <ele>253.937748</ele>
        <time>2026-08-29T09:08:46Z</time>
      </trkpt>
      <trkpt lat="43.93255" lon="1.85546">
        <ele>254.017276</ele>
        <time>2026-08-29T09:08:47Z</time>
      </trkpt>
      <trkpt lat="43.93255" lon="1.85548">
        <ele>254.094424</ele>
        <time>2026-08-29T09:08:48Z</time>
      </trkpt>
      <trkpt lat="43.93255" lon="1.8555">
        <ele>254.168759</ele>
        <time>2026-08-29T09:08:49Z</time>
      </trkpt>
      <trkpt lat="43.93255" lon="1.85552">
        <ele>254.253063</ele>
        <time>2026-08-29T09:08:50Z</time>
      </trkpt>
      <trkpt lat="43.93254" lon="1.85555">
        <ele>254.342718</ele>
        <time>2026-08-29T09:08:51Z</time>
      </trkpt>
      <trkpt lat="43.93254" lon="1.85557">
        <ele>254.425209</ele>
        <time>2026-08-29T09:08:52Z</time>
      </trkpt>
      <trkpt lat="43.93253" lon="1.8556">
        <ele>254.523663</ele>
        <time>2026-08-29T09:08:53Z</time>
      </trkpt>
      <trkpt lat="43.93252" lon="1.85562">
        <ele>254.600178</ele>
        <time>2026-08-29T09:08:54Z</time>
      </trkpt>
      <trkpt lat="43.93252" lon="1.85563">
        <ele>254.652254</ele>
        <time>2026-08-29T09:08:55Z</time>
      </trkpt>
      <trkpt lat="43.93251" lon="1.85564">
        <ele>254.683419</ele>
        <time>2026-08-29T09:08:56Z</time>
      </trkpt>
      <trkpt lat="43.93252" lon="1.85563">
        <ele>254.721939</ele>
        <time>2026-08-29T09:08:57Z</time>
      </trkpt>
      <trkpt lat="43.93247" lon="1.85563">
        <ele>254.956284</ele>
        <time>2026-08-29T09:09:59Z</time>
      </trkpt>
      <trkpt lat="43.93245" lon="1.85562">
        <ele>255.062618</ele>
        <time>2026-08-29T09:10:00Z</time>
      </trkpt>
      <trkpt lat="43.93243" lon="1.85562">
        <ele>255.161872</ele>
        <time>2026-08-29T09:10:01Z</time>
      </trkpt>
      <trkpt lat="43.93241" lon="1.85563">
        <ele>255.266749</ele>
        <time>2026-08-29T09:10:02Z</time>
      </trkpt>
      <trkpt lat="43.93239" lon="1.85566">
        <ele>255.38596</ele>
        <time>2026-08-29T09:10:03Z</time>
      </trkpt>
      <trkpt lat="43.93237" lon="1.85569">
        <ele>255.527041</ele>
        <time>2026-08-29T09:10:04Z</time>
      </trkpt>
      <trkpt lat="43.93234" lon="1.85572">
        <ele>255.686257</ele>
        <time>2026-08-29T09:10:05Z</time>
      </trkpt>
      <trkpt lat="43.93232" lon="1.85577">
        <ele>255.869712</ele>
        <time>2026-08-29T09:10:06Z</time>
      </trkpt>
      <trkpt lat="43.9323" lon="1.85581">
        <ele>256.050335</ele>
        <time>2026-08-29T09:10:07Z</time>
      </trkpt>
      <trkpt lat="43.93228" lon="1.85586">
        <ele>256.243966</ele>
        <time>2026-08-29T09:10:08Z</time>
      </trkpt>
      <trkpt lat="43.93227" lon="1.85591">
        <ele>256.432773</ele>
        <time>2026-08-29T09:10:09Z</time>
      </trkpt>
      <trkpt lat="43.93225" lon="1.85596">
        <ele>256.623461</ele>
        <time>2026-08-29T09:10:10Z</time>
      </trkpt>
      <trkpt lat="43.93223" lon="1.85602">
        <ele>256.843213</ele>
        <time>2026-08-29T09:10:11Z</time>
      </trkpt>
      <trkpt lat="43.9322" lon="1.85607">
        <ele>257.037656</ele>
        <time>2026-08-29T09:10:12Z</time>
      </trkpt>
      <trkpt lat="43.93217" lon="1.85612">
        <ele>256.971369</ele>
        <time>2026-08-29T09:10:13Z</time>
      </trkpt>
      <trkpt lat="43.93214" lon="1.85616">
        <ele>256.905621</ele>
        <time>2026-08-29T09:10:14Z</time>
      </trkpt>
      <trkpt lat="43.93211" lon="1.8562">
        <ele>256.839945</ele>
        <time>2026-08-29T09:10:15Z</time>
      </trkpt>
      <trkpt lat="43.93207" lon="1.85625">
        <ele>256.772825</ele>
        <time>2026-08-29T09:10:16Z</time>
      </trkpt>
      <trkpt lat="43.93204" lon="1.85629">
        <ele>256.706731</ele>
        <time>2026-08-29T09:10:17Z</time>
      </trkpt>
      <trkpt lat="43.932" lon="1.85632">
        <ele>256.639661</ele>
        <time>2026-08-29T09:10:18Z</time>
      </trkpt>
      <trkpt lat="43.93197" lon="1.85636">
        <ele>256.574928</ele>
        <time>2026-08-29T09:10:19Z</time>
      </trkpt>
      <trkpt lat="43.93194" lon="1.8564">
        <ele>256.512496</ele>
        <time>2026-08-29T09:10:20Z</time>
      </trkpt>
      <trkpt lat="43.93191" lon="1.85644">
        <ele>256.455731</ele>
        <time>2026-08-29T09:10:21Z</time>
      </trkpt>
      <trkpt lat="43.93188" lon="1.85648">
        <ele>256.398402</ele>
        <time>2026-08-29T09:10:22Z</time>
      </trkpt>
      <trkpt lat="43.93186" lon="1.85652">
        <ele>256.341384</ele>
        <time>2026-08-29T09:10:23Z</time>
      </trkpt>
      <trkpt lat="43.93183" lon="1.85656">
        <ele>256.280758</ele>
        <time>2026-08-29T09:10:24Z</time>
      </trkpt>
      <trkpt lat="43.9318" lon="1.8566">
        <ele>256.215789</ele>
        <time>2026-08-29T09:10:25Z</time>
      </trkpt>
      <trkpt lat="43.93176" lon="1.85663">
        <ele>256.15516</ele>
        <time>2026-08-29T09:10:26Z</time>
      </trkpt>
      <trkpt lat="43.93174" lon="1.85668">
        <ele>256.091451</ele>
        <time>2026-08-29T09:10:27Z</time>
      </trkpt>
      <trkpt lat="43.9317" lon="1.85672">
        <ele>256.027212</ele>
        <time>2026-08-29T09:10:28Z</time>
      </trkpt>
      <trkpt lat="43.93167" lon="1.85677">
        <ele>255.95786</ele>
        <time>2026-08-29T09:10:29Z</time>
      </trkpt>
      <trkpt lat="43.93163" lon="1.85681">
        <ele>255.887136</ele>
        <time>2026-08-29T09:10:30Z</time>
      </trkpt>
      <trkpt lat="43.9316" lon="1.85685">
        <ele>255.819903</ele>
        <time>2026-08-29T09:10:31Z</time>
      </trkpt>
      <trkpt lat="43.93156" lon="1.85688">
        <ele>255.754008</ele>
        <time>2026-08-29T09:10:32Z</time>
      </trkpt>
      <trkpt lat="43.93153" lon="1.85692">
        <ele>255.689735</ele>
        <time>2026-08-29T09:10:33Z</time>
      </trkpt>
      <trkpt lat="43.9315" lon="1.85697">
        <ele>255.627018</ele>
        <time>2026-08-29T09:10:34Z</time>
      </trkpt>
      <trkpt lat="43.93147" lon="1.85701">
        <ele>255.563497</ele>
        <time>2026-08-29T09:10:35Z</time>
      </trkpt>
      <trkpt lat="43.93145" lon="1.85706">
        <ele>255.503633</ele>
        <time>2026-08-29T09:10:36Z</time>
      </trkpt>
      <trkpt lat="43.93143" lon="1.8571">
        <ele>255.44286</ele>
        <time>2026-08-29T09:10:37Z</time>
      </trkpt>
      <trkpt lat="43.93141" lon="1.85715">
        <ele>255.380832</ele>
        <time>2026-08-29T09:10:38Z</time>
      </trkpt>
      <trkpt lat="43.93139" lon="1.85721">
        <ele>255.317864</ele>
        <time>2026-08-29T09:10:39Z</time>
      </trkpt>
      <trkpt lat="43.93137" lon="1.85727">
        <ele>255.248521</ele>
        <time>2026-08-29T09:10:40Z</time>
      </trkpt>
      <trkpt lat="43.93136" lon="1.85733">
        <ele>255.174597</ele>
        <time>2026-08-29T09:10:41Z</time>
      </trkpt>
      <trkpt lat="43.93134" lon="1.85741">
        <ele>255.087109</ele>
        <time>2026-08-29T09:10:42Z</time>
      </trkpt>
      <trkpt lat="43.93133" lon="1.85749">
        <ele>255.001914</ele>
        <time>2026-08-29T09:10:43Z</time>
      </trkpt>
      <trkpt lat="43.93132" lon="1.85757">
        <ele>254.916001</ele>
        <time>2026-08-29T09:10:44Z</time>
      </trkpt>
      <trkpt lat="43.93132" lon="1.85766">
        <ele>254.823061</ele>
        <time>2026-08-29T09:10:45Z</time>
      </trkpt>
      <trkpt lat="43.93132" lon="1.85774">
        <ele>254.733227</ele>
        <time>2026-08-29T09:10:46Z</time>
      </trkpt>
      <trkpt lat="43.93133" lon="1.85782">
        <ele>254.643198</ele>
        <time>2026-08-29T09:10:47Z</time>
      </trkpt>
      <trkpt lat="43.93134" lon="1.85791">
        <ele>254.552453</ele>
        <time>2026-08-29T09:10:48Z</time>
      </trkpt>
      <trkpt lat="43.93137" lon="1.85798">
        <ele>254.460013</ele>
        <time>2026-08-29T09:10:49Z</time>
      </trkpt>
      <trkpt lat="43.9314" lon="1.85806">
        <ele>254.358534</ele>
        <time>2026-08-29T09:10:50Z</time>
      </trkpt>
      <trkpt lat="43.93144" lon="1.85815">
        <ele>254.142816</ele>
        <time>2026-08-29T09:10:51Z</time>
      </trkpt>
      <trkpt lat="43.93148" lon="1.85823">
        <ele>253.904684</ele>
        <time>2026-08-29T09:10:52Z</time>
      </trkpt>
      <trkpt lat="43.93153" lon="1.85831">
        <ele>253.680586</ele>
        <time>2026-08-29T09:10:53Z</time>
      </trkpt>
      <trkpt lat="43.93157" lon="1.8584">
        <ele>253.44061</ele>
        <time>2026-08-29T09:10:54Z</time>
      </trkpt>
      <trkpt lat="43.93161" lon="1.8585">
        <ele>253.188682</ele>
        <time>2026-08-29T09:10:55Z</time>
      </trkpt>
      <trkpt lat="43.93165" lon="1.85859">
        <ele>252.936354</ele>
        <time>2026-08-29T09:10:56Z</time>
      </trkpt>
      <trkpt lat="43.93168" lon="1.8587">
        <ele>252.689387</ele>
        <time>2026-08-29T09:10:57Z</time>
      </trkpt>
      <trkpt lat="43.9317" lon="1.85881">
        <ele>252.430608</ele>
        <time>2026-08-29T09:10:58Z</time>
      </trkpt>
      <trkpt lat="43.93171" lon="1.85893">
        <ele>252.173478</ele>
        <time>2026-08-29T09:10:59Z</time>
      </trkpt>
      <trkpt lat="43.93171" lon="1.85904">
        <ele>251.924445</ele>
        <time>2026-08-29T09:11:00Z</time>
      </trkpt>
      <trkpt lat="43.9317" lon="1.85915">
        <ele>251.67869</ele>
        <time>2026-08-29T09:11:01Z</time>
      </trkpt>
      <trkpt lat="43.93169" lon="1.85925">
        <ele>251.447667</ele>
        <time>2026-08-29T09:11:02Z</time>
      </trkpt>
      <trkpt lat="43.93167" lon="1.85935">
        <ele>251.21345</ele>
        <time>2026-08-29T09:11:03Z</time>
      </trkpt>
      <trkpt lat="43.93166" lon="1.85945">
        <ele>250.986484</ele>
        <time>2026-08-29T09:11:04Z</time>
      </trkpt>
      <trkpt lat="43.93164" lon="1.85956">
        <ele>250.746934</ele>
        <time>2026-08-29T09:11:05Z</time>
      </trkpt>
      <trkpt lat="43.93163" lon="1.85967">
        <ele>250.502445</ele>
        <time>2026-08-29T09:11:06Z</time>
      </trkpt>
      <trkpt lat="43.93161" lon="1.85977">
        <ele>250.267557</ele>
        <time>2026-08-29T09:11:07Z</time>
      </trkpt>
      <trkpt lat="43.93159" lon="1.85986">
        <ele>250.053543</ele>
        <time>2026-08-29T09:11:08Z</time>
      </trkpt>
      <trkpt lat="43.93158" lon="1.85996">
        <ele>249.84405</ele>
        <time>2026-08-29T09:11:09Z</time>
      </trkpt>
      <trkpt lat="43.93157" lon="1.86004">
        <ele>249.65427</ele>
        <time>2026-08-29T09:11:10Z</time>
      </trkpt>
      <trkpt lat="43.93156" lon="1.86013">
        <ele>249.465018</ele>
        <time>2026-08-29T09:11:11Z</time>
      </trkpt>
      <trkpt lat="43.93155" lon="1.86021">
        <ele>249.285034</ele>
        <time>2026-08-29T09:11:12Z</time>
      </trkpt>
      <trkpt lat="43.93155" lon="1.86028">
        <ele>249.110312</ele>
        <time>2026-08-29T09:11:13Z</time>
      </trkpt>
      <trkpt lat="43.93153" lon="1.86036">
        <ele>248.928014</ele>
        <time>2026-08-29T09:11:14Z</time>
      </trkpt>
      <trkpt lat="43.93152" lon="1.86044">
        <ele>248.742045</ele>
        <time>2026-08-29T09:11:15Z</time>
      </trkpt>
      <trkpt lat="43.93151" lon="1.86052">
        <ele>248.533624</ele>
        <time>2026-08-29T09:11:16Z</time>
      </trkpt>
      <trkpt lat="43.9315" lon="1.86059">
        <ele>248.323492</ele>
        <time>2026-08-29T09:11:17Z</time>
      </trkpt>
      <trkpt lat="43.93149" lon="1.86067">
        <ele>248.124436</ele>
        <time>2026-08-29T09:11:18Z</time>
      </trkpt>
      <trkpt lat="43.93148" lon="1.86074">
        <ele>247.916015</ele>
        <time>2026-08-29T09:11:19Z</time>
      </trkpt>
      <trkpt lat="43.93147" lon="1.86082">
        <ele>247.691021</ele>
        <time>2026-08-29T09:11:20Z</time>
      </trkpt>
      <trkpt lat="43.93144" lon="1.86091">
        <ele>247.450021</ele>
        <time>2026-08-29T09:11:21Z</time>
      </trkpt>
      <trkpt lat="43.93141" lon="1.86099">
        <ele>247.191347</ele>
        <time>2026-08-29T09:11:22Z</time>
      </trkpt>
      <trkpt lat="43.93137" lon="1.86108">
        <ele>246.92562</ele>
        <time>2026-08-29T09:11:23Z</time>
      </trkpt>
      <trkpt lat="43.93133" lon="1.86117">
        <ele>246.644252</ele>
        <time>2026-08-29T09:11:24Z</time>
      </trkpt>
      <trkpt lat="43.93129" lon="1.86126">
        <ele>246.352154</ele>
        <time>2026-08-29T09:11:25Z</time>
      </trkpt>
      <trkpt lat="43.93125" lon="1.86135">
        <ele>246.067283</ele>
        <time>2026-08-29T09:11:26Z</time>
      </trkpt>
      <trkpt lat="43.9312" lon="1.86143">
        <ele>245.802016</ele>
        <time>2026-08-29T09:11:27Z</time>
      </trkpt>
      <trkpt lat="43.93116" lon="1.86149">
        <ele>245.574003</ele>
        <time>2026-08-29T09:11:28Z</time>
      </trkpt>
      <trkpt lat="43.93111" lon="1.86153">
        <ele>245.35524</ele>
        <time>2026-08-29T09:11:29Z</time>
      </trkpt>
      <trkpt lat="43.93106" lon="1.86156">
        <ele>245.161064</ele>
        <time>2026-08-29T09:11:30Z</time>
      </trkpt>
      <trkpt lat="43.93102" lon="1.86158">
        <ele>244.984229</ele>
        <time>2026-08-29T09:11:31Z</time>
      </trkpt>
      <trkpt lat="43.93098" lon="1.86161">
        <ele>244.815128</ele>
        <time>2026-08-29T09:11:32Z</time>
      </trkpt>
      <trkpt lat="43.93094" lon="1.86165">
        <ele>244.641941</ele>
        <time>2026-08-29T09:11:33Z</time>
      </trkpt>
      <trkpt lat="43.93092" lon="1.8617">
        <ele>244.489528</ele>
        <time>2026-08-29T09:11:34Z</time>
      </trkpt>
      <trkpt lat="43.9309" lon="1.86175">
        <ele>244.336784</ele>
        <time>2026-08-29T09:11:35Z</time>
      </trkpt>
      <trkpt lat="43.93088" lon="1.8618">
        <ele>244.181224</ele>
        <time>2026-08-29T09:11:36Z</time>
      </trkpt>
      <trkpt lat="43.93086" lon="1.86185">
        <ele>244.024805</ele>
        <time>2026-08-29T09:11:37Z</time>
      </trkpt>
      <trkpt lat="43.93085" lon="1.86191">
        <ele>243.855623</ele>
        <time>2026-08-29T09:11:38Z</time>
      </trkpt>
      <trkpt lat="43.93083" lon="1.86197">
        <ele>243.688015</ele>
        <time>2026-08-29T09:11:39Z</time>
      </trkpt>
      <trkpt lat="43.93082" lon="1.86203">
        <ele>243.521637</ele>
        <time>2026-08-29T09:11:40Z</time>
      </trkpt>
      <trkpt lat="43.9308" lon="1.86208">
        <ele>243.364024</ele>
        <time>2026-08-29T09:11:41Z</time>
      </trkpt>
      <trkpt lat="43.93079" lon="1.86214">
        <ele>243.204942</ele>
        <time>2026-08-29T09:11:42Z</time>
      </trkpt>
      <trkpt lat="43.93078" lon="1.8622">
        <ele>243.04945</ele>
        <time>2026-08-29T09:11:43Z</time>
      </trkpt>
      <trkpt lat="43.93077" lon="1.86226">
        <ele>242.888783</ele>
        <time>2026-08-29T09:11:44Z</time>
      </trkpt>
      <trkpt lat="43.93076" lon="1.86231">
        <ele>242.736826</ele>
        <time>2026-08-29T09:11:45Z</time>
      </trkpt>
      <trkpt lat="43.93075" lon="1.86237">
        <ele>242.578748</ele>
        <time>2026-08-29T09:11:46Z</time>
      </trkpt>
      <trkpt lat="43.93073" lon="1.86243">
        <ele>242.410904</ele>
        <time>2026-08-29T09:11:47Z</time>
      </trkpt>
      <trkpt lat="43.93072" lon="1.86249">
        <ele>242.245623</ele>
        <time>2026-08-29T09:11:48Z</time>
      </trkpt>
      <trkpt lat="43.93071" lon="1.86254">
        <ele>242.098419</ele>
        <time>2026-08-29T09:11:49Z</time>
      </trkpt>
      <trkpt lat="43.93069" lon="1.8626">
        <ele>241.98382</ele>
        <time>2026-08-29T09:11:50Z</time>
      </trkpt>
      <trkpt lat="43.93067" lon="1.86266">
        <ele>241.86818</ele>
        <time>2026-08-29T09:11:51Z</time>
      </trkpt>
      <trkpt lat="43.93065" lon="1.86271">
        <ele>241.753151</ele>
        <time>2026-08-29T09:11:52Z</time>
      </trkpt>
      <trkpt lat="43.93063" lon="1.86276">
        <ele>241.637425</ele>
        <time>2026-08-29T09:11:53Z</time>
      </trkpt>
      <trkpt lat="43.93061" lon="1.86282">
        <ele>241.52792</ele>
        <time>2026-08-29T09:11:54Z</time>
      </trkpt>
      <trkpt lat="43.93059" lon="1.86286">
        <ele>241.417627</ele>
        <time>2026-08-29T09:11:55Z</time>
      </trkpt>
      <trkpt lat="43.93057" lon="1.86291">
        <ele>241.307436</ele>
        <time>2026-08-29T09:11:56Z</time>
      </trkpt>
      <trkpt lat="43.93054" lon="1.86296">
        <ele>241.201837</ele>
        <time>2026-08-29T09:11:57Z</time>
      </trkpt>
      <trkpt lat="43.93052" lon="1.86301">
        <ele>241.092689</ele>
        <time>2026-08-29T09:11:58Z</time>
      </trkpt>
      <trkpt lat="43.9305" lon="1.86306">
        <ele>240.983803</ele>
        <time>2026-08-29T09:11:59Z</time>
      </trkpt>
      <trkpt lat="43.93048" lon="1.86311">
        <ele>240.872058</ele>
        <time>2026-08-29T09:12:00Z</time>
      </trkpt>
      <trkpt lat="43.93045" lon="1.86315">
        <ele>240.761868</ele>
        <time>2026-08-29T09:12:01Z</time>
      </trkpt>
      <trkpt lat="43.93043" lon="1.8632">
        <ele>240.651677</ele>
        <time>2026-08-29T09:12:02Z</time>
      </trkpt>
      <trkpt lat="43.9304" lon="1.86325">
        <ele>240.539933</ele>
        <time>2026-08-29T09:12:03Z</time>
      </trkpt>
      <trkpt lat="43.93038" lon="1.8633">
        <ele>240.42056</ele>
        <time>2026-08-29T09:12:04Z</time>
      </trkpt>
      <trkpt lat="43.93036" lon="1.86336">
        <ele>240.301921</ele>
        <time>2026-08-29T09:12:05Z</time>
      </trkpt>
      <trkpt lat="43.93033" lon="1.86341">
        <ele>240.185236</ele>
        <time>2026-08-29T09:12:06Z</time>
      </trkpt>
      <trkpt lat="43.93031" lon="1.86346">
        <ele>240.070454</ele>
        <time>2026-08-29T09:12:07Z</time>
      </trkpt>
      <trkpt lat="43.93028" lon="1.86351">
        <ele>239.958749</ele>
        <time>2026-08-29T09:12:08Z</time>
      </trkpt>
      <trkpt lat="43.93026" lon="1.86356">
        <ele>239.854621</ele>
        <time>2026-08-29T09:12:09Z</time>
      </trkpt>
      <trkpt lat="43.93024" lon="1.8636">
        <ele>239.753612</ele>
        <time>2026-08-29T09:12:10Z</time>
      </trkpt>
      <trkpt lat="43.93021" lon="1.86364">
        <ele>239.655156</ele>
        <time>2026-08-29T09:12:11Z</time>
      </trkpt>
      <trkpt lat="43.93019" lon="1.86367">
        <ele>239.566126</ele>
        <time>2026-08-29T09:12:12Z</time>
      </trkpt>
      <trkpt lat="43.93016" lon="1.8637">
        <ele>239.481115</ele>
        <time>2026-08-29T09:12:13Z</time>
      </trkpt>
      <trkpt lat="43.93014" lon="1.86372">
        <ele>239.401392</ele>
        <time>2026-08-29T09:12:14Z</time>
      </trkpt>
      <trkpt lat="43.93011" lon="1.86374">
        <ele>239.324461</ele>
        <time>2026-08-29T09:12:15Z</time>
      </trkpt>
      <trkpt lat="43.93009" lon="1.86376">
        <ele>239.253038</ele>
        <time>2026-08-29T09:12:16Z</time>
      </trkpt>
      <trkpt lat="43.93006" lon="1.86377">
        <ele>239.189672</ele>
        <time>2026-08-29T09:12:17Z</time>
      </trkpt>
      <trkpt lat="43.93005" lon="1.86378">
        <ele>239.142057</ele>
        <time>2026-08-29T09:12:18Z</time>
      </trkpt>
      <trkpt lat="43.93004" lon="1.86379">
        <ele>239.107631</ele>
        <time>2026-08-29T09:12:19Z</time>
      </trkpt>
      <trkpt lat="43.93004" lon="1.8638">
        <ele>239.099922</ele>
        <time>2026-08-29T09:12:20Z</time>
      </trkpt>
      <trkpt lat="43.93004" lon="1.86379">
        <ele>239.096695</ele>
        <time>2026-08-29T09:12:21Z</time>
      </trkpt>
      <trkpt lat="43.93" lon="1.86381">
        <ele>238.993402</ele>
        <time>2026-08-29T09:12:56Z</time>
      </trkpt>
      <trkpt lat="43.92999" lon="1.86382">
        <ele>238.971704</ele>
        <time>2026-08-29T09:12:57Z</time>
      </trkpt>
      <trkpt lat="43.92999" lon="1.86382">
        <ele>238.967113</ele>
        <time>2026-08-29T09:12:58Z</time>
      </trkpt>
      <trkpt lat="43.92999" lon="1.86382">
        <ele>238.959128</ele>
        <time>2026-08-29T09:12:59Z</time>
      </trkpt>
      <trkpt lat="43.92996" lon="1.86382">
        <ele>238.872701</ele>
        <time>2026-08-29T09:13:34Z</time>
      </trkpt>
      <trkpt lat="43.92993" lon="1.86383">
        <ele>238.811744</ele>
        <time>2026-08-29T09:13:35Z</time>
      </trkpt>
      <trkpt lat="43.92991" lon="1.86383">
        <ele>238.747892</ele>
        <time>2026-08-29T09:13:36Z</time>
      </trkpt>
      <trkpt lat="43.92988" lon="1.86384">
        <ele>238.680716</ele>
        <time>2026-08-29T09:13:37Z</time>
      </trkpt>
      <trkpt lat="43.92986" lon="1.86385">
        <ele>238.609394</ele>
        <time>2026-08-29T09:13:38Z</time>
      </trkpt>
      <trkpt lat="43.92983" lon="1.86385">
        <ele>238.538071</ele>
        <time>2026-08-29T09:13:39Z</time>
      </trkpt>
      <trkpt lat="43.9298" lon="1.86385">
        <ele>238.464756</ele>
        <time>2026-08-29T09:13:40Z</time>
      </trkpt>
      <trkpt lat="43.92977" lon="1.86385">
        <ele>238.388799</ele>
        <time>2026-08-29T09:13:41Z</time>
      </trkpt>
      <trkpt lat="43.92974" lon="1.86386">
        <ele>238.306844</ele>
        <time>2026-08-29T09:13:42Z</time>
      </trkpt>
      <trkpt lat="43.92971" lon="1.86387">
        <ele>238.224284</ele>
        <time>2026-08-29T09:13:43Z</time>
      </trkpt>
      <trkpt lat="43.92968" lon="1.86387">
        <ele>238.144921</ele>
        <time>2026-08-29T09:13:44Z</time>
      </trkpt>
      <trkpt lat="43.92965" lon="1.86388">
        <ele>238.060604</ele>
        <time>2026-08-29T09:13:45Z</time>
      </trkpt>
      <trkpt lat="43.92962" lon="1.86388">
        <ele>237.974115</ele>
        <time>2026-08-29T09:13:46Z</time>
      </trkpt>
      <trkpt lat="43.92958" lon="1.86388">
        <ele>237.887379</ele>
        <time>2026-08-29T09:13:47Z</time>
      </trkpt>
      <trkpt lat="43.92955" lon="1.86388">
        <ele>237.805424</ele>
        <time>2026-08-29T09:13:48Z</time>
      </trkpt>
      <trkpt lat="43.92953" lon="1.86387">
        <ele>237.734101</ele>
        <time>2026-08-29T09:13:49Z</time>
      </trkpt>
      <trkpt lat="43.92951" lon="1.86385">
        <ele>237.674918</ele>
        <time>2026-08-29T09:13:50Z</time>
      </trkpt>
      <trkpt lat="43.92949" lon="1.86384">
        <ele>237.624983</ele>
        <time>2026-08-29T09:13:51Z</time>
      </trkpt>
      <trkpt lat="43.92948" lon="1.86384">
        <ele>237.596181</ele>
        <time>2026-08-29T09:13:52Z</time>
      </trkpt>
      <trkpt lat="43.92947" lon="1.86384">
        <ele>237.585049</ele>
        <time>2026-08-29T09:13:53Z</time>
      </trkpt>
      <trkpt lat="43.92947" lon="1.86385">
        <ele>237.569737</ele>
        <time>2026-08-29T09:13:54Z</time>
      </trkpt>
      <trkpt lat="43.92947" lon="1.86386">
        <ele>237.558124</ele>
        <time>2026-08-29T09:13:55Z</time>
      </trkpt>
      <trkpt lat="43.92947" lon="1.86386">
        <ele>237.55167</ele>
        <time>2026-08-29T09:13:56Z</time>
      </trkpt>
      <trkpt lat="43.9294" lon="1.86387">
        <ele>237.165511</ele>
        <time>2026-08-29T09:21:31Z</time>
      </trkpt>
      <trkpt lat="43.92938" lon="1.86387">
        <ele>237.002978</ele>
        <time>2026-08-29T09:21:32Z</time>
      </trkpt>
      <trkpt lat="43.92936" lon="1.86388">
        <ele>236.769626</ele>
        <time>2026-08-29T09:21:33Z</time>
      </trkpt>
      <trkpt lat="43.92934" lon="1.86389">
        <ele>236.52795</ele>
        <time>2026-08-29T09:21:34Z</time>
      </trkpt>
      <trkpt lat="43.92931" lon="1.86389">
        <ele>236.248172</ele>
        <time>2026-08-29T09:21:35Z</time>
      </trkpt>
      <trkpt lat="43.92928" lon="1.8639">
        <ele>235.985701</ele>
        <time>2026-08-29T09:21:36Z</time>
      </trkpt>
      <trkpt lat="43.92926" lon="1.86391">
        <ele>235.760319</ele>
        <time>2026-08-29T09:21:37Z</time>
      </trkpt>
      <trkpt lat="43.92924" lon="1.86391">
        <ele>235.578396</ele>
        <time>2026-08-29T09:21:38Z</time>
      </trkpt>
      <trkpt lat="43.92923" lon="1.86392">
        <ele>235.40618</ele>
        <time>2026-08-29T09:21:39Z</time>
      </trkpt>
      <trkpt lat="43.92921" lon="1.86393">
        <ele>235.218876</ele>
        <time>2026-08-29T09:21:40Z</time>
      </trkpt>
      <trkpt lat="43.92919" lon="1.86393">
        <ele>235.047996</ele>
        <time>2026-08-29T09:21:41Z</time>
      </trkpt>
      <trkpt lat="43.92918" lon="1.86393">
        <ele>234.956268</ele>
        <time>2026-08-29T09:21:42Z</time>
      </trkpt>
      <trkpt lat="43.92918" lon="1.86393">
        <ele>234.895116</ele>
        <time>2026-08-29T09:21:43Z</time>
      </trkpt>
      <trkpt lat="43.92917" lon="1.86394">
        <ele>234.858476</ele>
        <time>2026-08-29T09:21:44Z</time>
      </trkpt>
      <trkpt lat="43.92927" lon="1.8639">
        <ele>233.813684</ele>
        <time>2026-08-29T09:22:10Z</time>
      </trkpt>
      <trkpt lat="43.92926" lon="1.86391">
        <ele>233.65115</ele>
        <time>2026-08-29T09:22:11Z</time>
      </trkpt>
      <trkpt lat="43.92924" lon="1.86391">
        <ele>233.427469</ele>
        <time>2026-08-29T09:22:12Z</time>
      </trkpt>
      <trkpt lat="43.92921" lon="1.86393">
        <ele>233.116013</ele>
        <time>2026-08-29T09:22:13Z</time>
      </trkpt>
      <trkpt lat="43.92918" lon="1.86394">
        <ele>232.78825</ele>
        <time>2026-08-29T09:22:14Z</time>
      </trkpt>
      <trkpt lat="43.92915" lon="1.86396">
        <ele>232.479393</ele>
        <time>2026-08-29T09:22:15Z</time>
      </trkpt>
      <trkpt lat="43.92912" lon="1.86399">
        <ele>232.157628</ele>
        <time>2026-08-29T09:22:16Z</time>
      </trkpt>
      <trkpt lat="43.92909" lon="1.86401">
        <ele>231.802344</ele>
        <time>2026-08-29T09:22:17Z</time>
      </trkpt>
      <trkpt lat="43.92906" lon="1.86404">
        <ele>231.407483</ele>
        <time>2026-08-29T09:22:18Z</time>
      </trkpt>
      <trkpt lat="43.92902" lon="1.86407">
        <ele>230.99946</ele>
        <time>2026-08-29T09:22:19Z</time>
      </trkpt>
      <trkpt lat="43.92898" lon="1.86409">
        <ele>230.576419</ele>
        <time>2026-08-29T09:22:20Z</time>
      </trkpt>
      <trkpt lat="43.92895" lon="1.86412">
        <ele>230.164991</ele>
        <time>2026-08-29T09:22:21Z</time>
      </trkpt>
      <trkpt lat="43.92891" lon="1.86415">
        <ele>229.724213</ele>
        <time>2026-08-29T09:22:22Z</time>
      </trkpt>
      <trkpt lat="43.92886" lon="1.86418">
        <ele>229.245952</ele>
        <time>2026-08-29T09:22:23Z</time>
      </trkpt>
      <trkpt lat="43.92883" lon="1.86422">
        <ele>228.805506</ele>
        <time>2026-08-29T09:22:24Z</time>
      </trkpt>
      <trkpt lat="43.92879" lon="1.86425">
        <ele>228.352885</ele>
        <time>2026-08-29T09:22:25Z</time>
      </trkpt>
      <trkpt lat="43.92875" lon="1.86428">
        <ele>227.916097</ele>
        <time>2026-08-29T09:22:26Z</time>
      </trkpt>
      <trkpt lat="43.92871" lon="1.86431">
        <ele>227.493056</ele>
        <time>2026-08-29T09:22:27Z</time>
      </trkpt>
      <trkpt lat="43.92867" lon="1.86433">
        <ele>227.057937</ele>
        <time>2026-08-29T09:22:28Z</time>
      </trkpt>
      <trkpt lat="43.92864" lon="1.86437">
        <ele>226.662901</ele>
        <time>2026-08-29T09:22:29Z</time>
      </trkpt>
      <trkpt lat="43.92861" lon="1.8644">
        <ele>226.289526</ele>
        <time>2026-08-29T09:22:30Z</time>
      </trkpt>
      <trkpt lat="43.92858" lon="1.86444">
        <ele>225.899213</ele>
        <time>2026-08-29T09:22:31Z</time>
      </trkpt>
      <trkpt lat="43.92856" lon="1.86448">
        <ele>225.505256</ele>
        <time>2026-08-29T09:22:32Z</time>
      </trkpt>
      <trkpt lat="43.92853" lon="1.86452">
        <ele>225.12067</ele>
        <time>2026-08-29T09:22:33Z</time>
      </trkpt>
      <trkpt lat="43.9285" lon="1.86456">
        <ele>224.693955</ele>
        <time>2026-08-29T09:22:34Z</time>
      </trkpt>
      <trkpt lat="43.92847" lon="1.8646">
        <ele>224.267239</ele>
        <time>2026-08-29T09:22:35Z</time>
      </trkpt>
      <trkpt lat="43.92844" lon="1.86465">
        <ele>223.803819</ele>
        <time>2026-08-29T09:22:36Z</time>
      </trkpt>
      <trkpt lat="43.9284" lon="1.8647">
        <ele>223.335315</ele>
        <time>2026-08-29T09:22:37Z</time>
      </trkpt>
      <trkpt lat="43.92837" lon="1.86475">
        <ele>222.839284</ele>
        <time>2026-08-29T09:22:38Z</time>
      </trkpt>
      <trkpt lat="43.92833" lon="1.8648">
        <ele>222.327599</ele>
        <time>2026-08-29T09:22:39Z</time>
      </trkpt>
      <trkpt lat="43.9283" lon="1.86484">
        <ele>221.8354</ele>
        <time>2026-08-29T09:22:40Z</time>
      </trkpt>
      <trkpt lat="43.92826" lon="1.86489">
        <ele>221.367484</ele>
        <time>2026-08-29T09:22:41Z</time>
      </trkpt>
      <trkpt lat="43.92822" lon="1.86493">
        <ele>220.873939</ele>
        <time>2026-08-29T09:22:42Z</time>
      </trkpt>
      <trkpt lat="43.92818" lon="1.86497">
        <ele>220.356781</ele>
        <time>2026-08-29T09:22:43Z</time>
      </trkpt>
      <trkpt lat="43.92814" lon="1.86501">
        <ele>219.852035</ele>
        <time>2026-08-29T09:22:44Z</time>
      </trkpt>
      <trkpt lat="43.92809" lon="1.86505">
        <ele>219.264555</ele>
        <time>2026-08-29T09:22:45Z</time>
      </trkpt>
      <trkpt lat="43.92805" lon="1.86509">
        <ele>218.582378</ele>
        <time>2026-08-29T09:22:46Z</time>
      </trkpt>
      <trkpt lat="43.928" lon="1.86513">
        <ele>217.904848</ele>
        <time>2026-08-29T09:22:47Z</time>
      </trkpt>
      <trkpt lat="43.92796" lon="1.86516">
        <ele>217.253957</ele>
        <time>2026-08-29T09:22:48Z</time>
      </trkpt>
      <trkpt lat="43.92792" lon="1.8652">
        <ele>216.620556</ele>
        <time>2026-08-29T09:22:49Z</time>
      </trkpt>
      <trkpt lat="43.92788" lon="1.86524">
        <ele>216.002605</ele>
        <time>2026-08-29T09:22:50Z</time>
      </trkpt>
      <trkpt lat="43.92784" lon="1.86528">
        <ele>215.357876</ele>
        <time>2026-08-29T09:22:51Z</time>
      </trkpt>
      <trkpt lat="43.9278" lon="1.86532">
        <ele>214.766358</ele>
        <time>2026-08-29T09:22:52Z</time>
      </trkpt>
      <trkpt lat="43.92776" lon="1.86535">
        <ele>214.184284</ele>
        <time>2026-08-29T09:22:53Z</time>
      </trkpt>
      <trkpt lat="43.92772" lon="1.86539">
        <ele>213.578069</ele>
        <time>2026-08-29T09:22:54Z</time>
      </trkpt>
      <trkpt lat="43.92768" lon="1.86542">
        <ele>212.983078</ele>
        <time>2026-08-29T09:22:55Z</time>
      </trkpt>
      <trkpt lat="43.92763" lon="1.86544">
        <ele>212.383881</ele>
        <time>2026-08-29T09:22:56Z</time>
      </trkpt>
      <trkpt lat="43.92759" lon="1.86546">
        <ele>211.764882</ele>
        <time>2026-08-29T09:22:57Z</time>
      </trkpt>
      <trkpt lat="43.92754" lon="1.86547">
        <ele>211.143506</ele>
        <time>2026-08-29T09:22:58Z</time>
      </trkpt>
      <trkpt lat="43.92749" lon="1.86549">
        <ele>210.495114</ele>
        <time>2026-08-29T09:22:59Z</time>
      </trkpt>
      <trkpt lat="43.92745" lon="1.86551">
        <ele>209.909314</ele>
        <time>2026-08-29T09:23:00Z</time>
      </trkpt>
      <trkpt lat="43.92741" lon="1.86552">
        <ele>209.400207</ele>
        <time>2026-08-29T09:23:01Z</time>
      </trkpt>
      <trkpt lat="43.92737" lon="1.86553">
        <ele>208.885152</ele>
        <time>2026-08-29T09:23:02Z</time>
      </trkpt>
      <trkpt lat="43.92732" lon="1.86554">
        <ele>208.307724</ele>
        <time>2026-08-29T09:23:03Z</time>
      </trkpt>
      <trkpt lat="43.92728" lon="1.86554">
        <ele>207.784863</ele>
        <time>2026-08-29T09:23:04Z</time>
      </trkpt>
      <trkpt lat="43.92724" lon="1.86554">
        <ele>207.262244</ele>
        <time>2026-08-29T09:23:05Z</time>
      </trkpt>
      <trkpt lat="43.9272" lon="1.86554">
        <ele>206.725704</ele>
        <time>2026-08-29T09:23:06Z</time>
      </trkpt>
      <trkpt lat="43.92716" lon="1.86553">
        <ele>206.172996</ele>
        <time>2026-08-29T09:23:07Z</time>
      </trkpt>
      <trkpt lat="43.92711" lon="1.86551">
        <ele>205.56036</ele>
        <time>2026-08-29T09:23:08Z</time>
      </trkpt>
      <trkpt lat="43.92706" lon="1.86549">
        <ele>204.955315</ele>
        <time>2026-08-29T09:23:09Z</time>
      </trkpt>
      <trkpt lat="43.92702" lon="1.86548">
        <ele>204.365501</ele>
        <time>2026-08-29T09:23:10Z</time>
      </trkpt>
      <trkpt lat="43.92697" lon="1.86547">
        <ele>203.763967</ele>
        <time>2026-08-29T09:23:11Z</time>
      </trkpt>
      <trkpt lat="43.92692" lon="1.86548">
        <ele>203.145367</ele>
        <time>2026-08-29T09:23:12Z</time>
      </trkpt>
      <trkpt lat="43.92688" lon="1.8655">
        <ele>202.495158</ele>
        <time>2026-08-29T09:23:13Z</time>
      </trkpt>
      <trkpt lat="43.92683" lon="1.86553">
        <ele>201.851291</ele>
        <time>2026-08-29T09:23:14Z</time>
      </trkpt>
      <trkpt lat="43.92679" lon="1.86556">
        <ele>201.240712</ele>
        <time>2026-08-29T09:23:15Z</time>
      </trkpt>
      <trkpt lat="43.92676" lon="1.8656">
        <ele>200.710618</ele>
        <time>2026-08-29T09:23:16Z</time>
      </trkpt>
      <trkpt lat="43.92675" lon="1.86565">
        <ele>200.261532</ele>
        <time>2026-08-29T09:23:17Z</time>
      </trkpt>
      <trkpt lat="43.92675" lon="1.86569">
        <ele>199.940008</ele>
        <time>2026-08-29T09:23:18Z</time>
      </trkpt>
      <trkpt lat="43.92675" lon="1.86571">
        <ele>199.737665</ele>
        <time>2026-08-29T09:23:19Z</time>
      </trkpt>
      <trkpt lat="43.92676" lon="1.86571">
        <ele>199.619702</ele>
        <time>2026-08-29T09:23:20Z</time>
      </trkpt>
      <trkpt lat="43.92676" lon="1.8657">
        <ele>199.525464</ele>
        <time>2026-08-29T09:23:21Z</time>
      </trkpt>
      <trkpt lat="43.92676" lon="1.8657">
        <ele>199.494051</ele>
        <time>2026-08-29T09:23:22Z</time>
      </trkpt>
      <trkpt lat="43.92675" lon="1.86576">
        <ele>198.915119</ele>
        <time>2026-08-29T09:25:20Z</time>
      </trkpt>
      <trkpt lat="43.92673" lon="1.86579">
        <ele>198.528497</ele>
        <time>2026-08-29T09:25:21Z</time>
      </trkpt>
      <trkpt lat="43.9267" lon="1.86582">
        <ele>198.101307</ele>
        <time>2026-08-29T09:25:22Z</time>
      </trkpt>
      <trkpt lat="43.92668" lon="1.86587">
        <ele>197.563689</ele>
        <time>2026-08-29T09:25:23Z</time>
      </trkpt>
      <trkpt lat="43.92665" lon="1.86592">
        <ele>196.944927</ele>
        <time>2026-08-29T09:25:24Z</time>
      </trkpt>
      <trkpt lat="43.92661" lon="1.86598">
        <ele>196.419667</ele>
        <time>2026-08-29T09:25:25Z</time>
      </trkpt>
      <trkpt lat="43.92659" lon="1.86605">
        <ele>195.971132</ele>
        <time>2026-08-29T09:25:26Z</time>
      </trkpt>
      <trkpt lat="43.92655" lon="1.86612">
        <ele>195.495879</ele>
        <time>2026-08-29T09:25:27Z</time>
      </trkpt>
      <trkpt lat="43.92651" lon="1.86617">
        <ele>195.053706</ele>
        <time>2026-08-29T09:25:28Z</time>
      </trkpt>
      <trkpt lat="43.92645" lon="1.8662">
        <ele>194.584395</ele>
        <time>2026-08-29T09:25:29Z</time>
      </trkpt>
      <trkpt lat="43.92639" lon="1.86621">
        <ele>194.06759</ele>
        <time>2026-08-29T09:25:30Z</time>
      </trkpt>
      <trkpt lat="43.92632" lon="1.86619">
        <ele>193.515403</ele>
        <time>2026-08-29T09:25:31Z</time>
      </trkpt>
      <trkpt lat="43.92625" lon="1.86618">
        <ele>192.939959</ele>
        <time>2026-08-29T09:25:32Z</time>
      </trkpt>
      <trkpt lat="43.92617" lon="1.86617">
        <ele>192.359156</ele>
        <time>2026-08-29T09:25:33Z</time>
      </trkpt>
      <trkpt lat="43.9261" lon="1.86617">
        <ele>191.795953</ele>
        <time>2026-08-29T09:25:34Z</time>
      </trkpt>
      <trkpt lat="43.92603" lon="1.86617">
        <ele>191.287703</ele>
        <time>2026-08-29T09:25:35Z</time>
      </trkpt>
      <trkpt lat="43.92598" lon="1.86617">
        <ele>190.849274</ele>
        <time>2026-08-29T09:25:36Z</time>
      </trkpt>
      <trkpt lat="43.92593" lon="1.86618">
        <ele>190.480242</ele>
        <time>2026-08-29T09:25:37Z</time>
      </trkpt>
      <trkpt lat="43.9259" lon="1.86618">
        <ele>190.212918</ele>
        <time>2026-08-29T09:25:38Z</time>
      </trkpt>
      <trkpt lat="43.92588" lon="1.86618">
        <ele>190.072068</ele>
        <time>2026-08-29T09:25:39Z</time>
      </trkpt>
      <trkpt lat="43.92587" lon="1.86619">
        <ele>190.031384</ele>
        <time>2026-08-29T09:25:40Z</time>
      </trkpt>
      <trkpt lat="43.92588" lon="1.86618">
        <ele>190.012768</ele>
        <time>2026-08-29T09:25:41Z</time>
      </trkpt>
      <trkpt lat="43.92588" lon="1.86618">
        <ele>189.988646</ele>
        <time>2026-08-29T09:25:42Z</time>
      </trkpt>
      <trkpt lat="43.92587" lon="1.86619">
        <ele>189.893312</ele>
        <time>2026-08-29T09:26:21Z</time>
      </trkpt>
      <trkpt lat="43.92584" lon="1.86619">
        <ele>189.702644</ele>
        <time>2026-08-29T09:26:22Z</time>
      </trkpt>
      <trkpt lat="43.92581" lon="1.86619">
        <ele>189.467811</ele>
        <time>2026-08-29T09:26:23Z</time>
      </trkpt>
      <trkpt lat="43.92577" lon="1.86619">
        <ele>189.154859</ele>
        <time>2026-08-29T09:26:24Z</time>
      </trkpt>
      <trkpt lat="43.92573" lon="1.8662">
        <ele>188.82836</ele>
        <time>2026-08-29T09:26:25Z</time>
      </trkpt>
      <trkpt lat="43.92568" lon="1.86624">
        <ele>188.405918</ele>
        <time>2026-08-29T09:26:26Z</time>
      </trkpt>
      <trkpt lat="43.92563" lon="1.86629">
        <ele>187.914073</ele>
        <time>2026-08-29T09:26:27Z</time>
      </trkpt>
      <trkpt lat="43.92558" lon="1.86634">
        <ele>187.411795</ele>
        <time>2026-08-29T09:26:28Z</time>
      </trkpt>
      <trkpt lat="43.92554" lon="1.86641">
        <ele>186.893449</ele>
        <time>2026-08-29T09:26:29Z</time>
      </trkpt>
      <trkpt lat="43.92548" lon="1.86646">
        <ele>186.372706</ele>
        <time>2026-08-29T09:26:30Z</time>
      </trkpt>
      <trkpt lat="43.92543" lon="1.86652">
        <ele>185.869257</ele>
        <time>2026-08-29T09:26:31Z</time>
      </trkpt>
      <trkpt lat="43.92538" lon="1.86658">
        <ele>185.317776</ele>
        <time>2026-08-29T09:26:32Z</time>
      </trkpt>
      <trkpt lat="43.92533" lon="1.86664">
        <ele>184.837697</ele>
        <time>2026-08-29T09:26:33Z</time>
      </trkpt>
      <trkpt lat="43.92528" lon="1.86669">
        <ele>184.34585</ele>
        <time>2026-08-29T09:26:34Z</time>
      </trkpt>
      <trkpt lat="43.92523" lon="1.86673">
        <ele>183.853455</ele>
        <time>2026-08-29T09:26:35Z</time>
      </trkpt>
      <trkpt lat="43.92517" lon="1.86677">
        <ele>183.347103</ele>
        <time>2026-08-29T09:26:36Z</time>
      </trkpt>
      <trkpt lat="43.92511" lon="1.86681">
        <ele>182.831038</ele>
        <time>2026-08-29T09:26:37Z</time>
      </trkpt>
      <trkpt lat="43.92505" lon="1.86684">
        <ele>182.50796</ele>
        <time>2026-08-29T09:26:38Z</time>
      </trkpt>
      <trkpt lat="43.92498" lon="1.86687">
        <ele>182.335973</ele>
        <time>2026-08-29T09:26:39Z</time>
      </trkpt>
      <trkpt lat="43.92492" lon="1.8669">
        <ele>182.161476</ele>
        <time>2026-08-29T09:26:40Z</time>
      </trkpt>
      <trkpt lat="43.92486" lon="1.86693">
        <ele>181.981946</ele>
        <time>2026-08-29T09:26:41Z</time>
      </trkpt>
      <trkpt lat="43.92479" lon="1.86695">
        <ele>181.810538</ele>
        <time>2026-08-29T09:26:42Z</time>
      </trkpt>
      <trkpt lat="43.92473" lon="1.86698">
        <ele>181.637161</ele>
        <time>2026-08-29T09:26:43Z</time>
      </trkpt>
      <trkpt lat="43.92467" lon="1.86699">
        <ele>181.463021</ele>
        <time>2026-08-29T09:26:44Z</time>
      </trkpt>
      <trkpt lat="43.9246" lon="1.86701">
        <ele>181.290377</ele>
        <time>2026-08-29T09:26:45Z</time>
      </trkpt>
      <trkpt lat="43.92454" lon="1.86704">
        <ele>181.121568</ele>
        <time>2026-08-29T09:26:46Z</time>
      </trkpt>
      <trkpt lat="43.92448" lon="1.86706">
        <ele>180.961358</ele>
        <time>2026-08-29T09:26:47Z</time>
      </trkpt>
      <trkpt lat="43.92442" lon="1.86707">
        <ele>180.800189</ele>
        <time>2026-08-29T09:26:48Z</time>
      </trkpt>
      <trkpt lat="43.92436" lon="1.86709">
        <ele>180.63568</ele>
        <time>2026-08-29T09:26:49Z</time>
      </trkpt>
      <trkpt lat="43.9243" lon="1.86712">
        <ele>180.474876</ele>
        <time>2026-08-29T09:26:50Z</time>
      </trkpt>
      <trkpt lat="43.92425" lon="1.86716">
        <ele>180.309292</ele>
        <time>2026-08-29T09:26:51Z</time>
      </trkpt>
      <trkpt lat="43.9242" lon="1.86721">
        <ele>180.153247</ele>
        <time>2026-08-29T09:26:52Z</time>
      </trkpt>
      <trkpt lat="43.92416" lon="1.86726">
        <ele>179.995096</ele>
        <time>2026-08-29T09:26:53Z</time>
      </trkpt>
      <trkpt lat="43.92412" lon="1.86734">
        <ele>179.828589</ele>
        <time>2026-08-29T09:26:54Z</time>
      </trkpt>
      <trkpt lat="43.92408" lon="1.86741">
        <ele>179.655914</ele>
        <time>2026-08-29T09:26:55Z</time>
      </trkpt>
      <trkpt lat="43.92405" lon="1.86748">
        <ele>179.493546</ele>
        <time>2026-08-29T09:26:56Z</time>
      </trkpt>
      <trkpt lat="43.92402" lon="1.86756">
        <ele>179.334725</ele>
        <time>2026-08-29T09:26:57Z</time>
      </trkpt>
      <trkpt lat="43.92399" lon="1.86762">
        <ele>179.18182</ele>
        <time>2026-08-29T09:26:58Z</time>
      </trkpt>
      <trkpt lat="43.92396" lon="1.8677">
        <ele>179.028022</ele>
        <time>2026-08-29T09:26:59Z</time>
      </trkpt>
      <trkpt lat="43.92393" lon="1.86777">
        <ele>178.867012</ele>
        <time>2026-08-29T09:27:00Z</time>
      </trkpt>
      <trkpt lat="43.92391" lon="1.86784">
        <ele>178.709871</ele>
        <time>2026-08-29T09:27:01Z</time>
      </trkpt>
      <trkpt lat="43.92388" lon="1.86792">
        <ele>178.551829</ele>
        <time>2026-08-29T09:27:02Z</time>
      </trkpt>
      <trkpt lat="43.92385" lon="1.86799">
        <ele>178.394078</ele>
        <time>2026-08-29T09:27:03Z</time>
      </trkpt>
      <trkpt lat="43.92381" lon="1.86805">
        <ele>178.242774</ele>
        <time>2026-08-29T09:27:04Z</time>
      </trkpt>
      <trkpt lat="43.92378" lon="1.86812">
        <ele>178.102432</ele>
        <time>2026-08-29T09:27:05Z</time>
      </trkpt>
      <trkpt lat="43.92375" lon="1.86817">
        <ele>177.968237</ele>
        <time>2026-08-29T09:27:06Z</time>
      </trkpt>
      <trkpt lat="43.92371" lon="1.86823">
        <ele>177.850886</ele>
        <time>2026-08-29T09:27:07Z</time>
      </trkpt>
      <trkpt lat="43.92368" lon="1.86828">
        <ele>177.801382</ele>
        <time>2026-08-29T09:27:08Z</time>
      </trkpt>
      <trkpt lat="43.92363" lon="1.86834">
        <ele>177.747992</ele>
        <time>2026-08-29T09:27:09Z</time>
      </trkpt>
      <trkpt lat="43.92358" lon="1.86839">
        <ele>177.68997</ele>
        <time>2026-08-29T09:27:10Z</time>
      </trkpt>
      <trkpt lat="43.92353" lon="1.86844">
        <ele>177.637664</ele>
        <time>2026-08-29T09:27:11Z</time>
      </trkpt>
      <trkpt lat="43.92349" lon="1.86849">
        <ele>177.584145</ele>
        <time>2026-08-29T09:27:12Z</time>
      </trkpt>
      <trkpt lat="43.92344" lon="1.86855">
        <ele>177.528722</ele>
        <time>2026-08-29T09:27:13Z</time>
      </trkpt>
      <trkpt lat="43.92339" lon="1.8686">
        <ele>177.477517</ele>
        <time>2026-08-29T09:27:14Z</time>
      </trkpt>
      <trkpt lat="43.92335" lon="1.86866">
        <ele>177.423456</ele>
        <time>2026-08-29T09:27:15Z</time>
      </trkpt>
      <trkpt lat="43.9233" lon="1.86872">
        <ele>177.36703</ele>
        <time>2026-08-29T09:27:16Z</time>
      </trkpt>
      <trkpt lat="43.92326" lon="1.86877">
        <ele>177.313641</ele>
        <time>2026-08-29T09:27:17Z</time>
      </trkpt>
      <trkpt lat="43.92321" lon="1.86884">
        <ele>177.255957</ele>
        <time>2026-08-29T09:27:18Z</time>
      </trkpt>
      <trkpt lat="43.92318" lon="1.86891">
        <ele>177.199699</ele>
        <time>2026-08-29T09:27:19Z</time>
      </trkpt>
      <trkpt lat="43.92314" lon="1.86898">
        <ele>177.142422</ele>
        <time>2026-08-29T09:27:20Z</time>
      </trkpt>
      <trkpt lat="43.92311" lon="1.86906">
        <ele>177.086957</ele>
        <time>2026-08-29T09:27:21Z</time>
      </trkpt>
      <trkpt lat="43.92308" lon="1.86913">
        <ele>177.033569</ele>
        <time>2026-08-29T09:27:22Z</time>
      </trkpt>
      <trkpt lat="43.92306" lon="1.86921">
        <ele>176.979978</ele>
        <time>2026-08-29T09:27:23Z</time>
      </trkpt>
      <trkpt lat="43.92303" lon="1.86929">
        <ele>176.92168</ele>
        <time>2026-08-29T09:27:24Z</time>
      </trkpt>
      <trkpt lat="43.92301" lon="1.86938">
        <ele>176.864324</ele>
        <time>2026-08-29T09:27:25Z</time>
      </trkpt>
      <trkpt lat="43.92299" lon="1.86947">
        <ele>176.801789</ele>
        <time>2026-08-29T09:27:26Z</time>
      </trkpt>
      <trkpt lat="43.92296" lon="1.86955">
        <ele>176.743251</ele>
        <time>2026-08-29T09:27:27Z</time>
      </trkpt>
      <trkpt lat="43.92294" lon="1.86964">
        <ele>176.685895</ele>
        <time>2026-08-29T09:27:28Z</time>
      </trkpt>
      <trkpt lat="43.92292" lon="1.86972">
        <ele>176.630677</ele>
        <time>2026-08-29T09:27:29Z</time>
      </trkpt>
      <trkpt lat="43.92291" lon="1.86979">
        <ele>176.582347</ele>
        <time>2026-08-29T09:27:30Z</time>
      </trkpt>
      <trkpt lat="43.9229" lon="1.86985">
        <ele>176.543663</ele>
        <time>2026-08-29T09:27:31Z</time>
      </trkpt>
      <trkpt lat="43.92288" lon="1.86989">
        <ele>176.514971</ele>
        <time>2026-08-29T09:27:32Z</time>
      </trkpt>
      <trkpt lat="43.92286" lon="1.86991">
        <ele>176.491543</ele>
        <time>2026-08-29T09:27:33Z</time>
      </trkpt>
      <trkpt lat="43.92284" lon="1.86992">
        <ele>176.470702</ele>
        <time>2026-08-29T09:27:34Z</time>
      </trkpt>
      <trkpt lat="43.92282" lon="1.86991">
        <ele>176.45335</ele>
        <time>2026-08-29T09:27:35Z</time>
      </trkpt>
      <trkpt lat="43.9228" lon="1.8699">
        <ele>176.435569</ele>
        <time>2026-08-29T09:27:36Z</time>
      </trkpt>
      <trkpt lat="43.92278" lon="1.86989">
        <ele>176.417201</ele>
        <time>2026-08-29T09:27:37Z</time>
      </trkpt>
      <trkpt lat="43.92276" lon="1.86988">
        <ele>176.400164</ele>
        <time>2026-08-29T09:27:38Z</time>
      </trkpt>
      <trkpt lat="43.92274" lon="1.86988">
        <ele>176.383817</ele>
        <time>2026-08-29T09:27:39Z</time>
      </trkpt>
      <trkpt lat="43.92272" lon="1.86987">
        <ele>176.365282</ele>
        <time>2026-08-29T09:27:40Z</time>
      </trkpt>
      <trkpt lat="43.9227" lon="1.86986">
        <ele>176.347776</ele>
        <time>2026-08-29T09:27:41Z</time>
      </trkpt>
      <trkpt lat="43.92269" lon="1.86986">
        <ele>176.330747</ele>
        <time>2026-08-29T09:27:42Z</time>
      </trkpt>
      <trkpt lat="43.92267" lon="1.86986">
        <ele>176.312753</ele>
        <time>2026-08-29T09:27:43Z</time>
      </trkpt>
      <trkpt lat="43.92264" lon="1.86985">
        <ele>176.2929</ele>
        <time>2026-08-29T09:27:44Z</time>
      </trkpt>
      <trkpt lat="43.92262" lon="1.86984">
        <ele>176.273329</ele>
        <time>2026-08-29T09:27:45Z</time>
      </trkpt>
      <trkpt lat="43.9226" lon="1.86984">
        <ele>176.391386</ele>
        <time>2026-08-29T09:27:46Z</time>
      </trkpt>
      <trkpt lat="43.92258" lon="1.86983">
        <ele>176.649813</ele>
        <time>2026-08-29T09:27:47Z</time>
      </trkpt>
      <trkpt lat="43.92256" lon="1.86983">
        <ele>176.868568</ele>
        <time>2026-08-29T09:27:48Z</time>
      </trkpt>
      <trkpt lat="43.92254" lon="1.86982">
        <ele>177.042375</ele>
        <time>2026-08-29T09:27:49Z</time>
      </trkpt>
      <trkpt lat="43.92253" lon="1.86982">
        <ele>177.209263</ele>
        <time>2026-08-29T09:27:50Z</time>
      </trkpt>
      <trkpt lat="43.92251" lon="1.86981">
        <ele>177.362074</ele>
        <time>2026-08-29T09:27:51Z</time>
      </trkpt>
      <trkpt lat="43.9225" lon="1.86981">
        <ele>177.502964</ele>
        <time>2026-08-29T09:27:52Z</time>
      </trkpt>
      <trkpt lat="43.92249" lon="1.86981">
        <ele>177.643854</ele>
        <time>2026-08-29T09:27:53Z</time>
      </trkpt>
      <trkpt lat="43.92247" lon="1.86981">
        <ele>177.793726</ele>
        <time>2026-08-29T09:27:54Z</time>
      </trkpt>
      <trkpt lat="43.92245" lon="1.86981">
        <ele>177.975636</ele>
        <time>2026-08-29T09:27:55Z</time>
      </trkpt>
      <trkpt lat="43.92244" lon="1.86981">
        <ele>178.146693</ele>
        <time>2026-08-29T09:27:56Z</time>
      </trkpt>
      <trkpt lat="43.92242" lon="1.86981">
        <ele>178.318441</ele>
        <time>2026-08-29T09:27:57Z</time>
      </trkpt>
      <trkpt lat="43.92241" lon="1.86981">
        <ele>178.49105</ele>
        <time>2026-08-29T09:27:58Z</time>
      </trkpt>
      <trkpt lat="43.92239" lon="1.86981">
        <ele>178.630884</ele>
        <time>2026-08-29T09:27:59Z</time>
      </trkpt>
      <trkpt lat="43.92238" lon="1.8698">
        <ele>178.803493</ele>
        <time>2026-08-29T09:28:00Z</time>
      </trkpt>
      <trkpt lat="43.92236" lon="1.86981">
        <ele>178.944383</ele>
        <time>2026-08-29T09:28:01Z</time>
      </trkpt>
      <trkpt lat="43.92235" lon="1.86981">
        <ele>179.094057</ele>
        <time>2026-08-29T09:28:02Z</time>
      </trkpt>
      <trkpt lat="43.92233" lon="1.86981">
        <ele>179.275804</ele>
        <time>2026-08-29T09:28:03Z</time>
      </trkpt>
      <trkpt lat="43.92232" lon="1.86981">
        <ele>179.425676</ele>
        <time>2026-08-29T09:28:04Z</time>
      </trkpt>
      <trkpt lat="43.92231" lon="1.86981">
        <ele>179.564659</ele>
        <time>2026-08-29T09:28:05Z</time>
      </trkpt>
      <trkpt lat="43.9223" lon="1.86981">
        <ele>179.68226</ele>
        <time>2026-08-29T09:28:06Z</time>
      </trkpt>
      <trkpt lat="43.92228" lon="1.86981">
        <ele>179.800866</ele>
        <time>2026-08-29T09:28:07Z</time>
      </trkpt>
      <trkpt lat="43.92227" lon="1.8698">
        <ele>179.945083</ele>
        <time>2026-08-29T09:28:08Z</time>
      </trkpt>
      <trkpt lat="43.92226" lon="1.8698">
        <ele>180.097108</ele>
        <time>2026-08-29T09:28:09Z</time>
      </trkpt>
      <trkpt lat="43.92225" lon="1.86979">
        <ele>180.231053</ele>
        <time>2026-08-29T09:28:10Z</time>
      </trkpt>
      <trkpt lat="43.92223" lon="1.86978">
        <ele>180.380123</ele>
        <time>2026-08-29T09:28:11Z</time>
      </trkpt>
      <trkpt lat="43.92222" lon="1.86978">
        <ele>180.547012</ele>
        <time>2026-08-29T09:28:12Z</time>
      </trkpt>
      <trkpt lat="43.92221" lon="1.86978">
        <ele>180.675304</ele>
        <time>2026-08-29T09:28:13Z</time>
      </trkpt>
      <trkpt lat="43.92219" lon="1.86977">
        <ele>180.873211</ele>
        <time>2026-08-29T09:28:14Z</time>
      </trkpt>
      <trkpt lat="43.92217" lon="1.86977">
        <ele>181.044959</ele>
        <time>2026-08-29T09:28:15Z</time>
      </trkpt>
      <trkpt lat="43.92216" lon="1.86976">
        <ele>181.23074</ele>
        <time>2026-08-29T09:28:16Z</time>
      </trkpt>
      <trkpt lat="43.92214" lon="1.86976">
        <ele>181.394036</ele>
        <time>2026-08-29T09:28:17Z</time>
      </trkpt>
      <trkpt lat="43.92212" lon="1.86976">
        <ele>181.587856</ele>
        <time>2026-08-29T09:28:18Z</time>
      </trkpt>
      <trkpt lat="43.92211" lon="1.86975">
        <ele>181.719794</ele>
        <time>2026-08-29T09:28:19Z</time>
      </trkpt>
      <trkpt lat="43.9221" lon="1.86975">
        <ele>181.864012</ele>
        <time>2026-08-29T09:28:20Z</time>
      </trkpt>
      <trkpt lat="43.92208" lon="1.86974">
        <ele>182.027309</ele>
        <time>2026-08-29T09:28:21Z</time>
      </trkpt>
      <trkpt lat="43.92207" lon="1.86974">
        <ele>182.157664</ele>
        <time>2026-08-29T09:28:22Z</time>
      </trkpt>
      <trkpt lat="43.92206" lon="1.86974">
        <ele>182.285956</ele>
        <time>2026-08-29T09:28:23Z</time>
      </trkpt>
      <trkpt lat="43.92205" lon="1.86974">
        <ele>182.382483</ele>
        <time>2026-08-29T09:28:24Z</time>
      </trkpt>
      <trkpt lat="43.92204" lon="1.86974">
        <ele>182.481437</ele>
        <time>2026-08-29T09:28:25Z</time>
      </trkpt>
      <trkpt lat="43.92203" lon="1.86975">
        <ele>182.625654</ele>
        <time>2026-08-29T09:28:26Z</time>
      </trkpt>
      <trkpt lat="43.92202" lon="1.86975">
        <ele>182.749398</ele>
        <time>2026-08-29T09:28:27Z</time>
      </trkpt>
      <trkpt lat="43.922" lon="1.86976">
        <ele>182.899862</ele>
        <time>2026-08-29T09:28:28Z</time>
      </trkpt>
      <trkpt lat="43.92199" lon="1.86975">
        <ele>183.029076</ele>
        <time>2026-08-29T09:28:29Z</time>
      </trkpt>
      <trkpt lat="43.92198" lon="1.86975">
        <ele>183.175538</ele>
        <time>2026-08-29T09:28:30Z</time>
      </trkpt>
      <trkpt lat="43.92196" lon="1.86974">
        <ele>183.334428</ele>
        <time>2026-08-29T09:28:31Z</time>
      </trkpt>
      <trkpt lat="43.92195" lon="1.86973">
        <ele>183.549055</ele>
        <time>2026-08-29T09:28:32Z</time>
      </trkpt>
      <trkpt lat="43.92193" lon="1.86972">
        <ele>183.736583</ele>
        <time>2026-08-29T09:28:33Z</time>
      </trkpt>
      <trkpt lat="43.92191" lon="1.86972">
        <ele>183.920922</ele>
        <time>2026-08-29T09:28:34Z</time>
      </trkpt>
      <trkpt lat="43.92189" lon="1.86972">
        <ele>184.113514</ele>
        <time>2026-08-29T09:28:35Z</time>
      </trkpt>
      <trkpt lat="43.92188" lon="1.86972">
        <ele>184.296724</ele>
        <time>2026-08-29T09:28:36Z</time>
      </trkpt>
      <trkpt lat="43.92186" lon="1.86971">
        <ele>184.468705</ele>
        <time>2026-08-29T09:28:37Z</time>
      </trkpt>
      <trkpt lat="43.92185" lon="1.8697">
        <ele>184.578788</ele>
        <time>2026-08-29T09:28:38Z</time>
      </trkpt>
      <trkpt lat="43.92185" lon="1.86969">
        <ele>184.679817</ele>
        <time>2026-08-29T09:28:39Z</time>
      </trkpt>
      <trkpt lat="43.92183" lon="1.86969">
        <ele>184.8188</ele>
        <time>2026-08-29T09:28:40Z</time>
      </trkpt>
      <trkpt lat="43.92182" lon="1.86969">
        <ele>184.969265</ele>
        <time>2026-08-29T09:28:41Z</time>
      </trkpt>
      <trkpt lat="43.92181" lon="1.8697">
        <ele>185.110155</ele>
        <time>2026-08-29T09:28:42Z</time>
      </trkpt>
      <trkpt lat="43.92179" lon="1.8697">
        <ele>185.259829</ele>
        <time>2026-08-29T09:28:43Z</time>
      </trkpt>
      <trkpt lat="43.92178" lon="1.8697">
        <ele>185.409701</ele>
        <time>2026-08-29T09:28:44Z</time>
      </trkpt>
      <trkpt lat="43.92176" lon="1.86969">
        <ele>185.586887</ele>
        <time>2026-08-29T09:28:45Z</time>
      </trkpt>
      <trkpt lat="43.92175" lon="1.86969">
        <ele>185.758636</ele>
        <time>2026-08-29T09:28:46Z</time>
      </trkpt>
      <trkpt lat="43.92173" lon="1.86969">
        <ele>185.963074</ele>
        <time>2026-08-29T09:28:47Z</time>
      </trkpt>
      <trkpt lat="43.92171" lon="1.86968">
        <ele>186.178139</ele>
        <time>2026-08-29T09:28:48Z</time>
      </trkpt>
      <trkpt lat="43.92169" lon="1.86968">
        <ele>186.328011</ele>
        <time>2026-08-29T09:28:49Z</time>
      </trkpt>
      <trkpt lat="43.92168" lon="1.86969">
        <ele>186.489114</ele>
        <time>2026-08-29T09:28:50Z</time>
      </trkpt>
      <trkpt lat="43.92166" lon="1.86968">
        <ele>186.682934</ele>
        <time>2026-08-29T09:28:51Z</time>
      </trkpt>
      <trkpt lat="43.92164" lon="1.86968">
        <ele>186.847857</ele>
        <time>2026-08-29T09:28:52Z</time>
      </trkpt>
      <trkpt lat="43.92163" lon="1.86967">
        <ele>186.992074</ele>
        <time>2026-08-29T09:28:53Z</time>
      </trkpt>
      <trkpt lat="43.92162" lon="1.86967">
        <ele>187.165882</ele>
        <time>2026-08-29T09:28:54Z</time>
      </trkpt>
      <trkpt lat="43.92161" lon="1.86967">
        <ele>187.244204</ele>
        <time>2026-08-29T09:28:55Z</time>
      </trkpt>
      <trkpt lat="43.9216" lon="1.86966">
        <ele>187.355463</ele>
        <time>2026-08-29T09:28:56Z</time>
      </trkpt>
      <trkpt lat="43.92159" lon="1.86966">
        <ele>187.459099</ele>
        <time>2026-08-29T09:28:57Z</time>
      </trkpt>
      <trkpt lat="43.92158" lon="1.86965">
        <ele>187.562736</ele>
        <time>2026-08-29T09:28:58Z</time>
      </trkpt>
      <trkpt lat="43.92157" lon="1.86965">
        <ele>187.693092</ele>
        <time>2026-08-29T09:28:59Z</time>
      </trkpt>
      <trkpt lat="43.92156" lon="1.86964">
        <ele>187.845116</ele>
        <time>2026-08-29T09:29:00Z</time>
      </trkpt>
      <trkpt lat="43.92154" lon="1.86964">
        <ele>188.005666</ele>
        <time>2026-08-29T09:29:01Z</time>
      </trkpt>
      <trkpt lat="43.92152" lon="1.86964">
        <ele>188.177415</ele>
        <time>2026-08-29T09:29:02Z</time>
      </trkpt>
      <trkpt lat="43.92151" lon="1.86964">
        <ele>188.369853</ele>
        <time>2026-08-29T09:29:03Z</time>
      </trkpt>
      <trkpt lat="43.92149" lon="1.86964">
        <ele>188.54366</ele>
        <time>2026-08-29T09:29:04Z</time>
      </trkpt>
      <trkpt lat="43.92148" lon="1.86965">
        <ele>188.641104</ele>
        <time>2026-08-29T09:29:05Z</time>
      </trkpt>
      <trkpt lat="43.92147" lon="1.86964">
        <ele>188.726978</ele>
        <time>2026-08-29T09:29:06Z</time>
      </trkpt>
      <trkpt lat="43.92147" lon="1.86964">
        <ele>188.771447</ele>
        <time>2026-08-29T09:29:07Z</time>
      </trkpt>
      <trkpt lat="43.92095" lon="1.86956">
        <ele>194.416276</ele>
        <time>2026-08-29T09:29:56Z</time>
      </trkpt>
      <trkpt lat="43.92093" lon="1.86956">
        <ele>194.591612</ele>
        <time>2026-08-29T09:29:57Z</time>
      </trkpt>
      <trkpt lat="43.92091" lon="1.86955">
        <ele>194.786125</ele>
        <time>2026-08-29T09:29:58Z</time>
      </trkpt>
      <trkpt lat="43.92089" lon="1.86954">
        <ele>195.048809</ele>
        <time>2026-08-29T09:29:59Z</time>
      </trkpt>
      <trkpt lat="43.92086" lon="1.86952">
        <ele>195.385354</ele>
        <time>2026-08-29T09:30:00Z</time>
      </trkpt>
      <trkpt lat="43.92083" lon="1.8695">
        <ele>195.321189</ele>
        <time>2026-08-29T09:30:01Z</time>
      </trkpt>
      <trkpt lat="43.92079" lon="1.86948">
        <ele>195.05216</ele>
        <time>2026-08-29T09:30:02Z</time>
      </trkpt>
      <trkpt lat="43.92076" lon="1.86945">
        <ele>194.766363</ele>
        <time>2026-08-29T09:30:03Z</time>
      </trkpt>
      <trkpt lat="43.92072" lon="1.86942">
        <ele>194.47656</ele>
        <time>2026-08-29T09:30:04Z</time>
      </trkpt>
      <trkpt lat="43.92068" lon="1.8694">
        <ele>194.157164</ele>
        <time>2026-08-29T09:30:05Z</time>
      </trkpt>
      <trkpt lat="43.92063" lon="1.86937">
        <ele>193.804084</ele>
        <time>2026-08-29T09:30:06Z</time>
      </trkpt>
      <trkpt lat="43.92058" lon="1.86933">
        <ele>193.426725</ele>
        <time>2026-08-29T09:30:07Z</time>
      </trkpt>
      <trkpt lat="43.92054" lon="1.86929">
        <ele>193.046795</ele>
        <time>2026-08-29T09:30:08Z</time>
      </trkpt>
      <trkpt lat="43.92049" lon="1.86924">
        <ele>192.644619</ele>
        <time>2026-08-29T09:30:09Z</time>
      </trkpt>
      <trkpt lat="43.92043" lon="1.8692">
        <ele>192.22512</ele>
        <time>2026-08-29T09:30:10Z</time>
      </trkpt>
      <trkpt lat="43.92037" lon="1.86916">
        <ele>191.756325</ele>
        <time>2026-08-29T09:30:11Z</time>
      </trkpt>
      <trkpt lat="43.92031" lon="1.86911">
        <ele>191.290977</ele>
        <time>2026-08-29T09:30:12Z</time>
      </trkpt>
      <trkpt lat="43.92026" lon="1.86906">
        <ele>190.820463</ele>
        <time>2026-08-29T09:30:13Z</time>
      </trkpt>
      <trkpt lat="43.9202" lon="1.86902">
        <ele>190.358899</ele>
        <time>2026-08-29T09:30:14Z</time>
      </trkpt>
      <trkpt lat="43.92014" lon="1.86898">
        <ele>189.932322</ele>
        <time>2026-08-29T09:30:15Z</time>
      </trkpt>
      <trkpt lat="43.9201" lon="1.86894">
        <ele>189.551514</ele>
        <time>2026-08-29T09:30:16Z</time>
      </trkpt>
      <trkpt lat="43.92005" lon="1.8689">
        <ele>189.203282</ele>
        <time>2026-08-29T09:30:17Z</time>
      </trkpt>
      <trkpt lat="43.92002" lon="1.86886">
        <ele>188.897517</ele>
        <time>2026-08-29T09:30:18Z</time>
      </trkpt>
      <trkpt lat="43.91998" lon="1.86882">
        <ele>188.566273</ele>
        <time>2026-08-29T09:30:19Z</time>
      </trkpt>
      <trkpt lat="43.91995" lon="1.86878">
        <ele>188.242533</ele>
        <time>2026-08-29T09:30:20Z</time>
      </trkpt>
      <trkpt lat="43.91991" lon="1.86872">
        <ele>187.865303</ele>
        <time>2026-08-29T09:30:21Z</time>
      </trkpt>
      <trkpt lat="43.91987" lon="1.86866">
        <ele>187.476967</ele>
        <time>2026-08-29T09:30:22Z</time>
      </trkpt>
      <trkpt lat="43.91983" lon="1.86861">
        <ele>187.091417</ele>
        <time>2026-08-29T09:30:23Z</time>
      </trkpt>
      <trkpt lat="43.91979" lon="1.86855">
        <ele>186.682798</ele>
        <time>2026-08-29T09:30:24Z</time>
      </trkpt>
      <trkpt lat="43.91975" lon="1.86848">
        <ele>186.259103</ele>
        <time>2026-08-29T09:30:25Z</time>
      </trkpt>
      <trkpt lat="43.91971" lon="1.86842">
        <ele>185.806755</ele>
        <time>2026-08-29T09:30:26Z</time>
      </trkpt>
      <trkpt lat="43.91966" lon="1.86835">
        <ele>185.325999</ele>
        <time>2026-08-29T09:30:27Z</time>
      </trkpt>
      <trkpt lat="43.91961" lon="1.86828">
        <ele>184.848868</ele>
        <time>2026-08-29T09:30:28Z</time>
      </trkpt>
      <trkpt lat="43.91956" lon="1.86822">
        <ele>184.378393</ele>
        <time>2026-08-29T09:30:29Z</time>
      </trkpt>
      <trkpt lat="43.91951" lon="1.86816">
        <ele>183.926151</ele>
        <time>2026-08-29T09:30:30Z</time>
      </trkpt>
      <trkpt lat="43.91946" lon="1.8681">
        <ele>183.5011</ele>
        <time>2026-08-29T09:30:31Z</time>
      </trkpt>
      <trkpt lat="43.91942" lon="1.86805">
        <ele>183.084809</ele>
        <time>2026-08-29T09:30:32Z</time>
      </trkpt>
      <trkpt lat="43.91938" lon="1.868">
        <ele>182.636556</ele>
        <time>2026-08-29T09:30:33Z</time>
      </trkpt>
      <trkpt lat="43.91933" lon="1.86796">
        <ele>182.220203</ele>
        <time>2026-08-29T09:30:34Z</time>
      </trkpt>
      <trkpt lat="43.9193" lon="1.86792">
        <ele>181.857345</ele>
        <time>2026-08-29T09:30:35Z</time>
      </trkpt>
      <trkpt lat="43.91927" lon="1.86787">
        <ele>181.48234</ele>
        <time>2026-08-29T09:30:36Z</time>
      </trkpt>
      <trkpt lat="43.91923" lon="1.86784">
        <ele>181.082964</ele>
        <time>2026-08-29T09:30:37Z</time>
      </trkpt>
      <trkpt lat="43.91918" lon="1.86779">
        <ele>180.646314</ele>
        <time>2026-08-29T09:30:38Z</time>
      </trkpt>
      <trkpt lat="43.91914" lon="1.86776">
        <ele>180.193924</ele>
        <time>2026-08-29T09:30:39Z</time>
      </trkpt>
      <trkpt lat="43.91908" lon="1.86773">
        <ele>179.720034</ele>
        <time>2026-08-29T09:30:40Z</time>
      </trkpt>
      <trkpt lat="43.91903" lon="1.86771">
        <ele>179.245023</ele>
        <time>2026-08-29T09:30:41Z</time>
      </trkpt>
      <trkpt lat="43.91897" lon="1.8677">
        <ele>178.766523</ele>
        <time>2026-08-29T09:30:42Z</time>
      </trkpt>
      <trkpt lat="43.91891" lon="1.8677">
        <ele>178.238872</ele>
        <time>2026-08-29T09:30:43Z</time>
      </trkpt>
      <trkpt lat="43.91884" lon="1.86771">
        <ele>177.710321</ele>
        <time>2026-08-29T09:30:44Z</time>
      </trkpt>
      <trkpt lat="43.91877" lon="1.86772">
        <ele>177.138682</ele>
        <time>2026-08-29T09:30:45Z</time>
      </trkpt>
      <trkpt lat="43.9187" lon="1.86772">
        <ele>176.569638</ele>
        <time>2026-08-29T09:30:46Z</time>
      </trkpt>
      <trkpt lat="43.91863" lon="1.86772">
        <ele>175.984338</ele>
        <time>2026-08-29T09:30:47Z</time>
      </trkpt>
      <trkpt lat="43.91856" lon="1.86772">
        <ele>175.414273</ele>
        <time>2026-08-29T09:30:48Z</time>
      </trkpt>
      <trkpt lat="43.91849" lon="1.8677">
        <ele>174.809245</ele>
        <time>2026-08-29T09:30:49Z</time>
      </trkpt>
      <trkpt lat="43.91843" lon="1.86767">
        <ele>174.258491</ele>
        <time>2026-08-29T09:30:50Z</time>
      </trkpt>
      <trkpt lat="43.91837" lon="1.86763">
        <ele>173.754893</ele>
        <time>2026-08-29T09:30:51Z</time>
      </trkpt>
      <trkpt lat="43.91832" lon="1.86759">
        <ele>173.27342</ele>
        <time>2026-08-29T09:30:52Z</time>
      </trkpt>
      <trkpt lat="43.91828" lon="1.86756">
        <ele>172.845466</ele>
        <time>2026-08-29T09:30:53Z</time>
      </trkpt>
      <trkpt lat="43.91823" lon="1.86753">
        <ele>172.448926</ele>
        <time>2026-08-29T09:30:54Z</time>
      </trkpt>
      <trkpt lat="43.91819" lon="1.8675">
        <ele>172.082288</ele>
        <time>2026-08-29T09:30:55Z</time>
      </trkpt>
      <trkpt lat="43.91816" lon="1.86748">
        <ele>171.753223</ele>
        <time>2026-08-29T09:30:56Z</time>
      </trkpt>
      <trkpt lat="43.91813" lon="1.86746">
        <ele>171.511326</ele>
        <time>2026-08-29T09:30:57Z</time>
      </trkpt>
      <trkpt lat="43.9181" lon="1.86745">
        <ele>171.286913</ele>
        <time>2026-08-29T09:30:58Z</time>
      </trkpt>
      <trkpt lat="43.91808" lon="1.86743">
        <ele>171.089898</ele>
        <time>2026-08-29T09:30:59Z</time>
      </trkpt>
      <trkpt lat="43.91806" lon="1.86741">
        <ele>170.890209</ele>
        <time>2026-08-29T09:31:00Z</time>
      </trkpt>
      <trkpt lat="43.91805" lon="1.86739">
        <ele>170.711897</ele>
        <time>2026-08-29T09:31:01Z</time>
      </trkpt>
      <trkpt lat="43.91804" lon="1.86736">
        <ele>170.521064</ele>
        <time>2026-08-29T09:31:02Z</time>
      </trkpt>
      <trkpt lat="43.91804" lon="1.86733">
        <ele>170.336881</ele>
        <time>2026-08-29T09:31:03Z</time>
      </trkpt>
      <trkpt lat="43.91805" lon="1.8673">
        <ele>170.154894</ele>
        <time>2026-08-29T09:31:04Z</time>
      </trkpt>
      <trkpt lat="43.91806" lon="1.86728">
        <ele>169.979953</ele>
        <time>2026-08-29T09:31:05Z</time>
      </trkpt>
      <trkpt lat="43.91807" lon="1.86725">
        <ele>169.806668</ele>
        <time>2026-08-29T09:31:06Z</time>
      </trkpt>
      <trkpt lat="43.91808" lon="1.86722">
        <ele>169.610465</ele>
        <time>2026-08-29T09:31:07Z</time>
      </trkpt>
      <trkpt lat="43.91809" lon="1.86719">
        <ele>169.397557</ele>
        <time>2026-08-29T09:31:08Z</time>
      </trkpt>
      <trkpt lat="43.9181" lon="1.86715">
        <ele>169.185062</ele>
        <time>2026-08-29T09:31:09Z</time>
      </trkpt>
      <trkpt lat="43.91811" lon="1.86712">
        <ele>168.967084</ele>
        <time>2026-08-29T09:31:10Z</time>
      </trkpt>
      <trkpt lat="43.91812" lon="1.86709">
        <ele>168.782286</ele>
        <time>2026-08-29T09:31:11Z</time>
      </trkpt>
      <trkpt lat="43.91812" lon="1.86708">
        <ele>168.704686</ele>
        <time>2026-08-29T09:31:12Z</time>
      </trkpt>
      <trkpt lat="43.91811" lon="1.86708">
        <ele>168.679264</ele>
        <time>2026-08-29T09:31:13Z</time>
      </trkpt>
      <trkpt lat="43.91811" lon="1.86708">
        <ele>168.671024</ele>
        <time>2026-08-29T09:31:14Z</time>
      </trkpt>
      <trkpt lat="43.91814" lon="1.86704">
        <ele>168.366638</ele>
        <time>2026-08-29T09:31:38Z</time>
      </trkpt>
      <trkpt lat="43.91816" lon="1.86702">
        <ele>168.303554</ele>
        <time>2026-08-29T09:31:39Z</time>
      </trkpt>
      <trkpt lat="43.91817" lon="1.86699">
        <ele>168.360769</ele>
        <time>2026-08-29T09:31:40Z</time>
      </trkpt>
      <trkpt lat="43.91818" lon="1.86696">
        <ele>168.419368</ele>
        <time>2026-08-29T09:31:41Z</time>
      </trkpt>
      <trkpt lat="43.91819" lon="1.86692">
        <ele>168.477967</ele>
        <time>2026-08-29T09:31:42Z</time>
      </trkpt>
      <trkpt lat="43.91821" lon="1.86689">
        <ele>168.538864</ele>
        <time>2026-08-29T09:31:43Z</time>
      </trkpt>
      <trkpt lat="43.91822" lon="1.86686">
        <ele>168.597463</ele>
        <time>2026-08-29T09:31:44Z</time>
      </trkpt>
      <trkpt lat="43.91824" lon="1.86683">
        <ele>168.659703</ele>
        <time>2026-08-29T09:31:45Z</time>
      </trkpt>
      <trkpt lat="43.91825" lon="1.8668">
        <ele>168.715837</ele>
        <time>2026-08-29T09:31:46Z</time>
      </trkpt>
      <trkpt lat="43.91826" lon="1.86676">
        <ele>168.77197</ele>
        <time>2026-08-29T09:31:47Z</time>
      </trkpt>
      <trkpt lat="43.91827" lon="1.86673">
        <ele>168.829969</ele>
        <time>2026-08-29T09:31:48Z</time>
      </trkpt>
      <trkpt lat="43.91828" lon="1.8667">
        <ele>168.883663</ele>
        <time>2026-08-29T09:31:49Z</time>
      </trkpt>
      <trkpt lat="43.91829" lon="1.86667">
        <ele>168.943113</ele>
        <time>2026-08-29T09:31:50Z</time>
      </trkpt>
      <trkpt lat="43.91831" lon="1.86664">
        <ele>168.998956</ele>
        <time>2026-08-29T09:31:51Z</time>
      </trkpt>
      <trkpt lat="43.91832" lon="1.86661">
        <ele>169.049827</ele>
        <time>2026-08-29T09:31:52Z</time>
      </trkpt>
      <trkpt lat="43.91833" lon="1.86658">
        <ele>169.10111</ele>
        <time>2026-08-29T09:31:53Z</time>
      </trkpt>
      <trkpt lat="43.91834" lon="1.86655">
        <ele>169.153387</ele>
        <time>2026-08-29T09:31:54Z</time>
      </trkpt>
      <trkpt lat="43.91835" lon="1.86652">
        <ele>169.205664</ele>
        <time>2026-08-29T09:31:55Z</time>
      </trkpt>
      <trkpt lat="43.91836" lon="1.8665">
        <ele>169.255141</ele>
        <time>2026-08-29T09:31:56Z</time>
      </trkpt>
      <trkpt lat="43.91837" lon="1.86647">
        <ele>169.29972</ele>
        <time>2026-08-29T09:31:57Z</time>
      </trkpt>
      <trkpt lat="43.91838" lon="1.86644">
        <ele>169.349197</ele>
        <time>2026-08-29T09:31:58Z</time>
      </trkpt>
      <trkpt lat="43.91839" lon="1.86641">
        <ele>169.401923</ele>
        <time>2026-08-29T09:31:59Z</time>
      </trkpt>
      <trkpt lat="43.9184" lon="1.86638">
        <ele>169.456717</ele>
        <time>2026-08-29T09:32:00Z</time>
      </trkpt>
      <trkpt lat="43.91841" lon="1.86636">
        <ele>169.508494</ele>
        <time>2026-08-29T09:32:01Z</time>
      </trkpt>
      <trkpt lat="43.91843" lon="1.86632">
        <ele>169.567093</ele>
        <time>2026-08-29T09:32:02Z</time>
      </trkpt>
      <trkpt lat="43.91844" lon="1.86629">
        <ele>169.618928</ele>
        <time>2026-08-29T09:32:03Z</time>
      </trkpt>
      <trkpt lat="43.91845" lon="1.86627">
        <ele>169.66594</ele>
        <time>2026-08-29T09:32:04Z</time>
      </trkpt>
      <trkpt lat="43.91846" lon="1.86624">
        <ele>169.718217</ele>
        <time>2026-08-29T09:32:05Z</time>
      </trkpt>
      <trkpt lat="43.91847" lon="1.86621">
        <ele>169.77406</ele>
        <time>2026-08-29T09:32:06Z</time>
      </trkpt>
      <trkpt lat="43.91848" lon="1.86618">
        <ele>169.828793</ele>
        <time>2026-08-29T09:32:07Z</time>
      </trkpt>
      <trkpt lat="43.9185" lon="1.86615">
        <ele>169.88988</ele>
        <time>2026-08-29T09:32:08Z</time>
      </trkpt>
      <trkpt lat="43.91851" lon="1.86611">
        <ele>169.952346</ele>
        <time>2026-08-29T09:32:09Z</time>
      </trkpt>
      <trkpt lat="43.91852" lon="1.86608">
        <ele>170.005072</ele>
        <time>2026-08-29T09:32:10Z</time>
      </trkpt>
      <trkpt lat="43.91853" lon="1.86605">
        <ele>170.054921</ele>
        <time>2026-08-29T09:32:11Z</time>
      </trkpt>
      <trkpt lat="43.91854" lon="1.86602">
        <ele>170.107647</ele>
        <time>2026-08-29T09:32:12Z</time>
      </trkpt>
      <trkpt lat="43.91855" lon="1.866">
        <ele>170.155742</ele>
        <time>2026-08-29T09:32:13Z</time>
      </trkpt>
      <trkpt lat="43.91856" lon="1.86597">
        <ele>170.205274</ele>
        <time>2026-08-29T09:32:14Z</time>
      </trkpt>
      <trkpt lat="43.91857" lon="1.86594">
        <ele>170.257551</ele>
        <time>2026-08-29T09:32:15Z</time>
      </trkpt>
      <trkpt lat="43.91858" lon="1.86591">
        <ele>170.311729</ele>
        <time>2026-08-29T09:32:16Z</time>
      </trkpt>
      <trkpt lat="43.91859" lon="1.86588">
        <ele>170.362754</ele>
        <time>2026-08-29T09:32:17Z</time>
      </trkpt>
      <trkpt lat="43.9186" lon="1.86585">
        <ele>170.414037</ele>
        <time>2026-08-29T09:32:18Z</time>
      </trkpt>
      <trkpt lat="43.91861" lon="1.86582">
        <ele>170.46773</ele>
        <time>2026-08-29T09:32:19Z</time>
      </trkpt>
      <trkpt lat="43.91862" lon="1.86579">
        <ele>170.52609</ele>
        <time>2026-08-29T09:32:20Z</time>
      </trkpt>
      <trkpt lat="43.91864" lon="1.86576">
        <ele>170.585656</ele>
        <time>2026-08-29T09:32:21Z</time>
      </trkpt>
      <trkpt lat="43.91865" lon="1.86573">
        <ele>170.63872</ele>
        <time>2026-08-29T09:32:22Z</time>
      </trkpt>
      <trkpt lat="43.91866" lon="1.8657">
        <ele>170.687973</ele>
        <time>2026-08-29T09:32:23Z</time>
      </trkpt>
      <trkpt lat="43.91867" lon="1.86568">
        <ele>170.734985</ele>
        <time>2026-08-29T09:32:24Z</time>
      </trkpt>
      <trkpt lat="43.91869" lon="1.86565">
        <ele>170.785589</ele>
        <time>2026-08-29T09:32:25Z</time>
      </trkpt>
      <trkpt lat="43.9187" lon="1.86563">
        <ele>170.830886</ele>
        <time>2026-08-29T09:32:26Z</time>
      </trkpt>
      <trkpt lat="43.91871" lon="1.8656">
        <ele>170.877485</ele>
        <time>2026-08-29T09:32:27Z</time>
      </trkpt>
      <trkpt lat="43.91873" lon="1.86558">
        <ele>170.928167</ele>
        <time>2026-08-29T09:32:28Z</time>
      </trkpt>
      <trkpt lat="43.91874" lon="1.86556">
        <ele>170.977426</ele>
        <time>2026-08-29T09:32:29Z</time>
      </trkpt>
      <trkpt lat="43.91875" lon="1.86553">
        <ele>171.031812</ele>
        <time>2026-08-29T09:32:30Z</time>
      </trkpt>
      <trkpt lat="43.91877" lon="1.8655">
        <ele>171.084944</ele>
        <time>2026-08-29T09:32:31Z</time>
      </trkpt>
      <trkpt lat="43.91878" lon="1.86548">
        <ele>171.13931</ele>
        <time>2026-08-29T09:32:32Z</time>
      </trkpt>
      <trkpt lat="43.9188" lon="1.86545">
        <ele>171.193696</ele>
        <time>2026-08-29T09:32:33Z</time>
      </trkpt>
      <trkpt lat="43.91881" lon="1.86542">
        <ele>171.251961</ele>
        <time>2026-08-29T09:32:34Z</time>
      </trkpt>
      <trkpt lat="43.91883" lon="1.86539">
        <ele>171.308968</ele>
        <time>2026-08-29T09:32:35Z</time>
      </trkpt>
      <trkpt lat="43.91884" lon="1.86537">
        <ele>171.356864</ele>
        <time>2026-08-29T09:32:36Z</time>
      </trkpt>
      <trkpt lat="43.91886" lon="1.86534">
        <ele>171.409927</ele>
        <time>2026-08-29T09:32:37Z</time>
      </trkpt>
      <trkpt lat="43.91887" lon="1.86531">
        <ele>171.465585</ele>
        <time>2026-08-29T09:32:38Z</time>
      </trkpt>
      <trkpt lat="43.91889" lon="1.86529">
        <ele>171.516094</ele>
        <time>2026-08-29T09:32:39Z</time>
      </trkpt>
      <trkpt lat="43.9189" lon="1.86526">
        <ele>171.569226</ele>
        <time>2026-08-29T09:32:40Z</time>
      </trkpt>
      <trkpt lat="43.91891" lon="1.86524">
        <ele>171.617144</ele>
        <time>2026-08-29T09:32:41Z</time>
      </trkpt>
      <trkpt lat="43.91893" lon="1.86521">
        <ele>171.665173</ele>
        <time>2026-08-29T09:32:42Z</time>
      </trkpt>
      <trkpt lat="43.91894" lon="1.86518">
        <ele>171.722119</ele>
        <time>2026-08-29T09:32:43Z</time>
      </trkpt>
      <trkpt lat="43.91896" lon="1.86516">
        <ele>171.776505</ele>
        <time>2026-08-29T09:32:44Z</time>
      </trkpt>
      <trkpt lat="43.91897" lon="1.86513">
        <ele>171.83087</ele>
        <time>2026-08-29T09:32:45Z</time>
      </trkpt>
      <trkpt lat="43.91899" lon="1.8651">
        <ele>171.881379</ele>
        <time>2026-08-29T09:32:46Z</time>
      </trkpt>
      <trkpt lat="43.919" lon="1.86508">
        <ele>171.934442</ele>
        <time>2026-08-29T09:32:47Z</time>
      </trkpt>
      <trkpt lat="43.91901" lon="1.86505">
        <ele>171.98495</ele>
        <time>2026-08-29T09:32:48Z</time>
      </trkpt>
      <trkpt lat="43.91903" lon="1.86503">
        <ele>172.038291</ele>
        <time>2026-08-29T09:32:49Z</time>
      </trkpt>
      <trkpt lat="43.91904" lon="1.865">
        <ele>172.090068</ele>
        <time>2026-08-29T09:32:50Z</time>
      </trkpt>
      <trkpt lat="43.91906" lon="1.86497">
        <ele>172.14313</ele>
        <time>2026-08-29T09:32:51Z</time>
      </trkpt>
      <trkpt lat="43.91907" lon="1.86495">
        <ele>172.198897</ele>
        <time>2026-08-29T09:32:52Z</time>
      </trkpt>
      <trkpt lat="43.91909" lon="1.86492">
        <ele>172.258614</ele>
        <time>2026-08-29T09:32:53Z</time>
      </trkpt>
      <trkpt lat="43.9191" lon="1.86489">
        <ele>172.389033</ele>
        <time>2026-08-29T09:32:54Z</time>
      </trkpt>
      <trkpt lat="43.91911" lon="1.86487">
        <ele>172.507834</ele>
        <time>2026-08-29T09:32:55Z</time>
      </trkpt>
      <trkpt lat="43.91912" lon="1.86484">
        <ele>172.633259</ele>
        <time>2026-08-29T09:32:56Z</time>
      </trkpt>
      <trkpt lat="43.91914" lon="1.86482">
        <ele>172.761988</ele>
        <time>2026-08-29T09:32:57Z</time>
      </trkpt>
      <trkpt lat="43.91915" lon="1.86479">
        <ele>172.890908</ele>
        <time>2026-08-29T09:32:58Z</time>
      </trkpt>
      <trkpt lat="43.91916" lon="1.86477">
        <ele>173.026748</ele>
        <time>2026-08-29T09:32:59Z</time>
      </trkpt>
      <trkpt lat="43.91918" lon="1.86474">
        <ele>173.162587</ele>
        <time>2026-08-29T09:33:00Z</time>
      </trkpt>
      <trkpt lat="43.91919" lon="1.86472">
        <ele>173.291316</ele>
        <time>2026-08-29T09:33:01Z</time>
      </trkpt>
      <trkpt lat="43.9192" lon="1.86469">
        <ele>173.413289</ele>
        <time>2026-08-29T09:33:02Z</time>
      </trkpt>
      <trkpt lat="43.91922" lon="1.86467">
        <ele>173.539006</ele>
        <time>2026-08-29T09:33:03Z</time>
      </trkpt>
      <trkpt lat="43.91923" lon="1.86465">
        <ele>173.657573</ele>
        <time>2026-08-29T09:33:04Z</time>
      </trkpt>
      <trkpt lat="43.91924" lon="1.86462">
        <ele>173.77963</ele>
        <time>2026-08-29T09:33:05Z</time>
      </trkpt>
      <trkpt lat="43.91926" lon="1.8646">
        <ele>173.905054</ele>
        <time>2026-08-29T09:33:06Z</time>
      </trkpt>
      <trkpt lat="43.91927" lon="1.86457">
        <ele>174.047355</ele>
        <time>2026-08-29T09:33:07Z</time>
      </trkpt>
      <trkpt lat="43.91928" lon="1.86454">
        <ele>174.193039</ele>
        <time>2026-08-29T09:33:08Z</time>
      </trkpt>
      <trkpt lat="43.9193" lon="1.86452">
        <ele>174.325698</ele>
        <time>2026-08-29T09:33:09Z</time>
      </trkpt>
      <trkpt lat="43.91931" lon="1.86449">
        <ele>174.461223</ele>
        <time>2026-08-29T09:33:10Z</time>
      </trkpt>
      <trkpt lat="43.91933" lon="1.86447">
        <ele>174.600296</ele>
        <time>2026-08-29T09:33:11Z</time>
      </trkpt>
      <trkpt lat="43.91934" lon="1.86444">
        <ele>174.729231</ele>
        <time>2026-08-29T09:33:12Z</time>
      </trkpt>
      <trkpt lat="43.91936" lon="1.86442">
        <ele>174.861889</ele>
        <time>2026-08-29T09:33:13Z</time>
      </trkpt>
      <trkpt lat="43.91937" lon="1.86439">
        <ele>174.999472</ele>
        <time>2026-08-29T09:33:14Z</time>
      </trkpt>
      <trkpt lat="43.91939" lon="1.86437">
        <ele>175.132131</ele>
        <time>2026-08-29T09:33:15Z</time>
      </trkpt>
      <trkpt lat="43.91941" lon="1.86435">
        <ele>175.271751</ele>
        <time>2026-08-29T09:33:16Z</time>
      </trkpt>
      <trkpt lat="43.91943" lon="1.86432">
        <ele>175.422276</ele>
        <time>2026-08-29T09:33:17Z</time>
      </trkpt>
      <trkpt lat="43.91944" lon="1.8643">
        <ele>175.54877</ele>
        <time>2026-08-29T09:33:18Z</time>
      </trkpt>
      <trkpt lat="43.91946" lon="1.86428">
        <ele>175.679292</ele>
        <time>2026-08-29T09:33:19Z</time>
      </trkpt>
      <trkpt lat="43.91947" lon="1.86426">
        <ele>175.801851</ele>
        <time>2026-08-29T09:33:20Z</time>
      </trkpt>
      <trkpt lat="43.91949" lon="1.86424">
        <ele>175.935344</ele>
        <time>2026-08-29T09:33:21Z</time>
      </trkpt>
      <trkpt lat="43.9195" lon="1.86422">
        <ele>176.058815</ele>
        <time>2026-08-29T09:33:22Z</time>
      </trkpt>
      <trkpt lat="43.91952" lon="1.86419">
        <ele>176.182286</ele>
        <time>2026-08-29T09:33:23Z</time>
      </trkpt>
      <trkpt lat="43.91953" lon="1.86417">
        <ele>176.309905</ele>
        <time>2026-08-29T09:33:24Z</time>
      </trkpt>
      <trkpt lat="43.91954" lon="1.86416">
        <ele>176.375166</ele>
        <time>2026-08-29T09:33:25Z</time>
      </trkpt>
      <trkpt lat="43.91955" lon="1.86416">
        <ele>176.401517</ele>
        <time>2026-08-29T09:33:26Z</time>
      </trkpt>
      <trkpt lat="43.91955" lon="1.86416">
        <ele>176.411681</ele>
        <time>2026-08-29T09:33:27Z</time>
      </trkpt>
      <trkpt lat="43.91957" lon="1.86412">
        <ele>176.62864</ele>
        <time>2026-08-29T09:34:02Z</time>
      </trkpt>
      <trkpt lat="43.91959" lon="1.8641">
        <ele>176.743556</ele>
        <time>2026-08-29T09:34:03Z</time>
      </trkpt>
      <trkpt lat="43.9196" lon="1.86408">
        <ele>176.855787</ele>
        <time>2026-08-29T09:34:04Z</time>
      </trkpt>
      <trkpt lat="43.91961" lon="1.86407">
        <ele>176.951147</ele>
        <time>2026-08-29T09:34:05Z</time>
      </trkpt>
      <trkpt lat="43.91962" lon="1.86405">
        <ele>177.049697</ele>
        <time>2026-08-29T09:34:06Z</time>
      </trkpt>
      <trkpt lat="43.91964" lon="1.86403">
        <ele>177.167387</ele>
        <time>2026-08-29T09:34:07Z</time>
      </trkpt>
      <trkpt lat="43.91966" lon="1.86401">
        <ele>177.288819</ele>
        <time>2026-08-29T09:34:08Z</time>
      </trkpt>
      <trkpt lat="43.91967" lon="1.86399">
        <ele>177.415313</ele>
        <time>2026-08-29T09:34:09Z</time>
      </trkpt>
      <trkpt lat="43.91969" lon="1.86398">
        <ele>177.551031</ele>
        <time>2026-08-29T09:34:10Z</time>
      </trkpt>
      <trkpt lat="43.91971" lon="1.86396">
        <ele>177.675818</ele>
        <time>2026-08-29T09:34:11Z</time>
      </trkpt>
      <trkpt lat="43.91972" lon="1.86394">
        <ele>177.792597</ele>
        <time>2026-08-29T09:34:12Z</time>
      </trkpt>
      <trkpt lat="43.91974" lon="1.86392">
        <ele>177.910286</ele>
        <time>2026-08-29T09:34:13Z</time>
      </trkpt>
      <trkpt lat="43.91976" lon="1.8639">
        <ele>178.027064</ele>
        <time>2026-08-29T09:34:14Z</time>
      </trkpt>
      <trkpt lat="43.91977" lon="1.86389">
        <ele>178.139295</ele>
        <time>2026-08-29T09:34:15Z</time>
      </trkpt>
      <trkpt lat="43.91979" lon="1.86387">
        <ele>178.256984</ele>
        <time>2026-08-29T09:34:16Z</time>
      </trkpt>
      <trkpt lat="43.9198" lon="1.86385">
        <ele>178.385559</ele>
        <time>2026-08-29T09:34:17Z</time>
      </trkpt>
      <trkpt lat="43.91982" lon="1.86383">
        <ele>178.50903</ele>
        <time>2026-08-29T09:34:18Z</time>
      </trkpt>
      <trkpt lat="43.91983" lon="1.86381">
        <ele>178.619626</ele>
        <time>2026-08-29T09:34:19Z</time>
      </trkpt>
      <trkpt lat="43.91985" lon="1.86379">
        <ele>178.732095</ele>
        <time>2026-08-29T09:34:20Z</time>
      </trkpt>
      <trkpt lat="43.91986" lon="1.86377">
        <ele>178.838512</ele>
        <time>2026-08-29T09:34:21Z</time>
      </trkpt>
      <trkpt lat="43.91987" lon="1.86375">
        <ele>178.96107</ele>
        <time>2026-08-29T09:34:22Z</time>
      </trkpt>
      <trkpt lat="43.91988" lon="1.86373">
        <ele>179.07298</ele>
        <time>2026-08-29T09:34:23Z</time>
      </trkpt>
      <trkpt lat="43.9199" lon="1.86371">
        <ele>179.181384</ele>
        <time>2026-08-29T09:34:24Z</time>
      </trkpt>
      <trkpt lat="43.91991" lon="1.86369">
        <ele>179.296595</ele>
        <time>2026-08-29T09:34:25Z</time>
      </trkpt>
      <trkpt lat="43.91992" lon="1.86366">
        <ele>179.411805</ele>
        <time>2026-08-29T09:34:26Z</time>
      </trkpt>
      <trkpt lat="43.91993" lon="1.86364">
        <ele>179.527559</ele>
        <time>2026-08-29T09:34:27Z</time>
      </trkpt>
      <trkpt lat="43.91994" lon="1.86361">
        <ele>179.653445</ele>
        <time>2026-08-29T09:34:28Z</time>
      </trkpt>
      <trkpt lat="43.91995" lon="1.86359">
        <ele>179.779162</ele>
        <time>2026-08-29T09:34:29Z</time>
      </trkpt>
      <trkpt lat="43.91996" lon="1.86356">
        <ele>179.903369</ele>
        <time>2026-08-29T09:34:30Z</time>
      </trkpt>
      <trkpt lat="43.91997" lon="1.86354">
        <ele>180.008996</ele>
        <time>2026-08-29T09:34:31Z</time>
      </trkpt>
      <trkpt lat="43.91998" lon="1.86351">
        <ele>180.133203</ele>
        <time>2026-08-29T09:34:32Z</time>
      </trkpt>
      <trkpt lat="43.91999" lon="1.86349">
        <ele>180.249085</ele>
        <time>2026-08-29T09:34:33Z</time>
      </trkpt>
      <trkpt lat="43.91999" lon="1.86346">
        <ele>180.355146</ele>
        <time>2026-08-29T09:34:34Z</time>
      </trkpt>
      <trkpt lat="43.92" lon="1.86344">
        <ele>180.447484</ele>
        <time>2026-08-29T09:34:35Z</time>
      </trkpt>
      <trkpt lat="43.92" lon="1.86342">
        <ele>180.543795</ele>
        <time>2026-08-29T09:34:36Z</time>
      </trkpt>
      <trkpt lat="43.92001" lon="1.8634">
        <ele>180.648038</ele>
        <time>2026-08-29T09:34:37Z</time>
      </trkpt>
      <trkpt lat="43.92002" lon="1.86338">
        <ele>180.750926</ele>
        <time>2026-08-29T09:34:38Z</time>
      </trkpt>
      <trkpt lat="43.92003" lon="1.86335">
        <ele>180.862907</ele>
        <time>2026-08-29T09:34:39Z</time>
      </trkpt>
      <trkpt lat="43.92003" lon="1.86333">
        <ele>180.964602</ele>
        <time>2026-08-29T09:34:40Z</time>
      </trkpt>
      <trkpt lat="43.92004" lon="1.8633">
        <ele>181.070662</ele>
        <time>2026-08-29T09:34:41Z</time>
      </trkpt>
      <trkpt lat="43.92004" lon="1.86328">
        <ele>181.182643</ele>
        <time>2026-08-29T09:34:42Z</time>
      </trkpt>
      <trkpt lat="43.92005" lon="1.86325">
        <ele>181.303074</ele>
        <time>2026-08-29T09:34:43Z</time>
      </trkpt>
      <trkpt lat="43.92006" lon="1.86323">
        <ele>181.422875</ele>
        <time>2026-08-29T09:34:44Z</time>
      </trkpt>
      <trkpt lat="43.92007" lon="1.8632">
        <ele>181.543306</ele>
        <time>2026-08-29T09:34:45Z</time>
      </trkpt>
      <trkpt lat="43.92007" lon="1.86317">
        <ele>181.653319</ele>
        <time>2026-08-29T09:34:46Z</time>
      </trkpt>
      <trkpt lat="43.92008" lon="1.86315">
        <ele>181.75362</ele>
        <time>2026-08-29T09:34:47Z</time>
      </trkpt>
      <trkpt lat="43.92009" lon="1.86313">
        <ele>181.86172</ele>
        <time>2026-08-29T09:34:48Z</time>
      </trkpt>
      <trkpt lat="43.92009" lon="1.8631">
        <ele>181.975702</ele>
        <time>2026-08-29T09:34:49Z</time>
      </trkpt>
      <trkpt lat="43.9201" lon="1.86308">
        <ele>182.083801</ele>
        <time>2026-08-29T09:34:50Z</time>
      </trkpt>
      <trkpt lat="43.9201" lon="1.86305">
        <ele>182.189862</ele>
        <time>2026-08-29T09:34:51Z</time>
      </trkpt>
      <trkpt lat="43.92011" lon="1.86303">
        <ele>182.286467</ele>
        <time>2026-08-29T09:34:52Z</time>
      </trkpt>
      <trkpt lat="43.92012" lon="1.86301">
        <ele>182.394567</ele>
        <time>2026-08-29T09:34:53Z</time>
      </trkpt>
      <trkpt lat="43.92013" lon="1.86298">
        <ele>182.521317</ele>
        <time>2026-08-29T09:34:54Z</time>
      </trkpt>
      <trkpt lat="43.92014" lon="1.86295">
        <ele>182.650821</ele>
        <time>2026-08-29T09:34:55Z</time>
      </trkpt>
      <trkpt lat="43.92015" lon="1.86293">
        <ele>182.789005</ele>
        <time>2026-08-29T09:34:56Z</time>
      </trkpt>
      <trkpt lat="43.92016" lon="1.86291">
        <ele>182.914814</ele>
        <time>2026-08-29T09:34:57Z</time>
      </trkpt>
      <trkpt lat="43.92017" lon="1.86288">
        <ele>183.038341</ele>
        <time>2026-08-29T09:34:58Z</time>
      </trkpt>
      <trkpt lat="43.92018" lon="1.86287">
        <ele>183.146483</ele>
        <time>2026-08-29T09:34:59Z</time>
      </trkpt>
      <trkpt lat="43.92019" lon="1.86285">
        <ele>183.246853</ele>
        <time>2026-08-29T09:35:00Z</time>
      </trkpt>
      <trkpt lat="43.9202" lon="1.86283">
        <ele>183.34343</ele>
        <time>2026-08-29T09:35:01Z</time>
      </trkpt>
      <trkpt lat="43.92021" lon="1.86281">
        <ele>183.452262</ele>
        <time>2026-08-29T09:35:02Z</time>
      </trkpt>
      <trkpt lat="43.92022" lon="1.86279">
        <ele>183.57602</ele>
        <time>2026-08-29T09:35:03Z</time>
      </trkpt>
      <trkpt lat="43.92023" lon="1.86277">
        <ele>183.707362</ele>
        <time>2026-08-29T09:35:04Z</time>
      </trkpt>
      <trkpt lat="43.92024" lon="1.86275">
        <ele>183.830888</ele>
        <time>2026-08-29T09:35:05Z</time>
      </trkpt>
      <trkpt lat="43.92025" lon="1.86273">
        <ele>183.962172</ele>
        <time>2026-08-29T09:35:06Z</time>
      </trkpt>
      <trkpt lat="43.92026" lon="1.8627">
        <ele>184.101159</ele>
        <time>2026-08-29T09:35:07Z</time>
      </trkpt>
      <trkpt lat="43.92028" lon="1.86268">
        <ele>184.237285</ele>
        <time>2026-08-29T09:35:08Z</time>
      </trkpt>
      <trkpt lat="43.92029" lon="1.86266">
        <ele>184.3575</ele>
        <time>2026-08-29T09:35:09Z</time>
      </trkpt>
      <trkpt lat="43.9203" lon="1.86264">
        <ele>184.461916</ele>
        <time>2026-08-29T09:35:10Z</time>
      </trkpt>
      <trkpt lat="43.92031" lon="1.86263">
        <ele>184.582131</ele>
        <time>2026-08-29T09:35:11Z</time>
      </trkpt>
      <trkpt lat="43.92032" lon="1.86261">
        <ele>184.702345</ele>
        <time>2026-08-29T09:35:12Z</time>
      </trkpt>
      <trkpt lat="43.92034" lon="1.86259">
        <ele>184.838472</ele>
        <time>2026-08-29T09:35:13Z</time>
      </trkpt>
      <trkpt lat="43.92035" lon="1.86256">
        <ele>184.985393</ele>
        <time>2026-08-29T09:35:14Z</time>
      </trkpt>
      <trkpt lat="43.92036" lon="1.86254">
        <ele>185.120722</ele>
        <time>2026-08-29T09:35:15Z</time>
      </trkpt>
      <trkpt lat="43.92037" lon="1.86252">
        <ele>185.241085</ele>
        <time>2026-08-29T09:35:16Z</time>
      </trkpt>
      <trkpt lat="43.92038" lon="1.86249">
        <ele>185.368891</ele>
        <time>2026-08-29T09:35:17Z</time>
      </trkpt>
      <trkpt lat="43.92039" lon="1.86247">
        <ele>185.496414</ele>
        <time>2026-08-29T09:35:18Z</time>
      </trkpt>
      <trkpt lat="43.9204" lon="1.86245">
        <ele>185.62422</ele>
        <time>2026-08-29T09:35:19Z</time>
      </trkpt>
      <trkpt lat="43.92041" lon="1.86243">
        <ele>185.740043</ele>
        <time>2026-08-29T09:35:20Z</time>
      </trkpt>
      <trkpt lat="43.92042" lon="1.86241">
        <ele>185.840819</ele>
        <time>2026-08-29T09:35:21Z</time>
      </trkpt>
      <trkpt lat="43.92043" lon="1.86239">
        <ele>185.952766</ele>
        <time>2026-08-29T09:35:22Z</time>
      </trkpt>
      <trkpt lat="43.92044" lon="1.86237">
        <ele>186.076293</ele>
        <time>2026-08-29T09:35:23Z</time>
      </trkpt>
      <trkpt lat="43.92045" lon="1.86235">
        <ele>186.203698</ele>
        <time>2026-08-29T09:35:24Z</time>
      </trkpt>
      <trkpt lat="43.92047" lon="1.86233">
        <ele>186.323409</ele>
        <time>2026-08-29T09:35:25Z</time>
      </trkpt>
      <trkpt lat="43.92048" lon="1.86231">
        <ele>186.447241</ele>
        <time>2026-08-29T09:35:26Z</time>
      </trkpt>
      <trkpt lat="43.92049" lon="1.86229">
        <ele>186.594161</ele>
        <time>2026-08-29T09:35:27Z</time>
      </trkpt>
      <trkpt lat="43.9205" lon="1.86226">
        <ele>186.729534</ele>
        <time>2026-08-29T09:35:28Z</time>
      </trkpt>
      <trkpt lat="43.92052" lon="1.86224">
        <ele>186.868617</ele>
        <time>2026-08-29T09:35:29Z</time>
      </trkpt>
      <trkpt lat="43.92053" lon="1.86222">
        <ele>186.99614</ele>
        <time>2026-08-29T09:35:30Z</time>
      </trkpt>
      <trkpt lat="43.92054" lon="1.8622">
        <ele>187.111962</ele>
        <time>2026-08-29T09:35:31Z</time>
      </trkpt>
      <trkpt lat="43.92055" lon="1.86218">
        <ele>187.231674</ele>
        <time>2026-08-29T09:35:32Z</time>
      </trkpt>
      <trkpt lat="43.92056" lon="1.86216">
        <ele>187.355431</ele>
        <time>2026-08-29T09:35:33Z</time>
      </trkpt>
      <trkpt lat="43.92057" lon="1.86214">
        <ele>187.490537</ele>
        <time>2026-08-29T09:35:34Z</time>
      </trkpt>
      <trkpt lat="43.92058" lon="1.86212">
        <ele>187.610752</ele>
        <time>2026-08-29T09:35:35Z</time>
      </trkpt>
      <trkpt lat="43.92059" lon="1.8621">
        <ele>187.726574</ele>
        <time>2026-08-29T09:35:36Z</time>
      </trkpt>
      <trkpt lat="43.92061" lon="1.86208">
        <ele>187.850405</ele>
        <time>2026-08-29T09:35:37Z</time>
      </trkpt>
      <trkpt lat="43.92062" lon="1.86206">
        <ele>187.966371</ele>
        <time>2026-08-29T09:35:38Z</time>
      </trkpt>
      <trkpt lat="43.92063" lon="1.86203">
        <ele>188.105358</ele>
        <time>2026-08-29T09:35:39Z</time>
      </trkpt>
      <trkpt lat="43.92064" lon="1.86201">
        <ele>188.248613</ele>
        <time>2026-08-29T09:35:40Z</time>
      </trkpt>
      <trkpt lat="43.92066" lon="1.86199">
        <ele>188.379895</ele>
        <time>2026-08-29T09:35:41Z</time>
      </trkpt>
      <trkpt lat="43.92067" lon="1.86197">
        <ele>188.495718</ele>
        <time>2026-08-29T09:35:42Z</time>
      </trkpt>
      <trkpt lat="43.92068" lon="1.86195">
        <ele>188.623523</ele>
        <time>2026-08-29T09:35:43Z</time>
      </trkpt>
      <trkpt lat="43.92069" lon="1.86192">
        <ele>188.743284</ele>
        <time>2026-08-29T09:35:44Z</time>
      </trkpt>
      <trkpt lat="43.9207" lon="1.8619">
        <ele>188.878614</ele>
        <time>2026-08-29T09:35:45Z</time>
      </trkpt>
      <trkpt lat="43.92071" lon="1.86188">
        <ele>188.986756</ele>
        <time>2026-08-29T09:35:46Z</time>
      </trkpt>
      <trkpt lat="43.92072" lon="1.86186">
        <ele>189.110587</ele>
        <time>2026-08-29T09:35:47Z</time>
      </trkpt>
      <trkpt lat="43.92073" lon="1.86184">
        <ele>189.253841</ele>
        <time>2026-08-29T09:35:48Z</time>
      </trkpt>
      <trkpt lat="43.92075" lon="1.86182">
        <ele>189.397096</ele>
        <time>2026-08-29T09:35:49Z</time>
      </trkpt>
      <trkpt lat="43.92076" lon="1.8618">
        <ele>189.533221</ele>
        <time>2026-08-29T09:35:50Z</time>
      </trkpt>
      <trkpt lat="43.92077" lon="1.86178">
        <ele>189.657052</ele>
        <time>2026-08-29T09:35:51Z</time>
      </trkpt>
      <trkpt lat="43.92078" lon="1.86176">
        <ele>189.773732</ele>
        <time>2026-08-29T09:35:52Z</time>
      </trkpt>
      <trkpt lat="43.9208" lon="1.86174">
        <ele>189.882445</ele>
        <time>2026-08-29T09:35:53Z</time>
      </trkpt>
      <trkpt lat="43.92081" lon="1.86173">
        <ele>189.979678</ele>
        <time>2026-08-29T09:35:54Z</time>
      </trkpt>
      <trkpt lat="43.92081" lon="1.86171">
        <ele>190.076254</ele>
        <time>2026-08-29T09:35:55Z</time>
      </trkpt>
      <trkpt lat="43.92082" lon="1.86169">
        <ele>190.184396</ele>
        <time>2026-08-29T09:35:56Z</time>
      </trkpt>
      <trkpt lat="43.92083" lon="1.86167">
        <ele>190.292578</ele>
        <time>2026-08-29T09:35:57Z</time>
      </trkpt>
      <trkpt lat="43.92084" lon="1.86165">
        <ele>190.4084</ele>
        <time>2026-08-29T09:35:58Z</time>
      </trkpt>
      <trkpt lat="43.92085" lon="1.86163">
        <ele>190.524366</ele>
        <time>2026-08-29T09:35:59Z</time>
      </trkpt>
      <trkpt lat="43.92087" lon="1.86161">
        <ele>190.648197</ele>
        <time>2026-08-29T09:36:00Z</time>
      </trkpt>
      <trkpt lat="43.92088" lon="1.86159">
        <ele>190.775719</ele>
        <time>2026-08-29T09:36:01Z</time>
      </trkpt>
      <trkpt lat="43.92089" lon="1.86157">
        <ele>190.899476</ele>
        <time>2026-08-29T09:36:02Z</time>
      </trkpt>
      <trkpt lat="43.9209" lon="1.86155">
        <ele>191.022656</ele>
        <time>2026-08-29T09:36:03Z</time>
      </trkpt>
      <trkpt lat="43.92091" lon="1.86153">
        <ele>191.138622</ele>
        <time>2026-08-29T09:36:04Z</time>
      </trkpt>
      <trkpt lat="43.92092" lon="1.86151">
        <ele>191.250919</ele>
        <time>2026-08-29T09:36:05Z</time>
      </trkpt>
      <trkpt lat="43.92093" lon="1.86149">
        <ele>191.373013</ele>
        <time>2026-08-29T09:36:06Z</time>
      </trkpt>
      <trkpt lat="43.92094" lon="1.86148">
        <ele>191.478235</ele>
        <time>2026-08-29T09:36:07Z</time>
      </trkpt>
      <trkpt lat="43.92096" lon="1.86146">
        <ele>191.60426</ele>
        <time>2026-08-29T09:36:08Z</time>
      </trkpt>
      <trkpt lat="43.92097" lon="1.86144">
        <ele>191.736934</ele>
        <time>2026-08-29T09:36:09Z</time>
      </trkpt>
      <trkpt lat="43.92099" lon="1.86142">
        <ele>191.862959</ele>
        <time>2026-08-29T09:36:10Z</time>
      </trkpt>
      <trkpt lat="43.921" lon="1.86141">
        <ele>191.9777</ele>
        <time>2026-08-29T09:36:11Z</time>
      </trkpt>
      <trkpt lat="43.92101" lon="1.86139">
        <ele>192.103725</ele>
        <time>2026-08-29T09:36:12Z</time>
      </trkpt>
      <trkpt lat="43.92103" lon="1.86137">
        <ele>192.231883</ele>
        <time>2026-08-29T09:36:13Z</time>
      </trkpt>
      <trkpt lat="43.92104" lon="1.86135">
        <ele>192.363165</ele>
        <time>2026-08-29T09:36:14Z</time>
      </trkpt>
      <trkpt lat="43.92105" lon="1.86133">
        <ele>192.479844</ele>
        <time>2026-08-29T09:36:15Z</time>
      </trkpt>
      <trkpt lat="43.92106" lon="1.86131">
        <ele>192.596523</ele>
        <time>2026-08-29T09:36:16Z</time>
      </trkpt>
      <trkpt lat="43.92107" lon="1.86129">
        <ele>192.716737</ele>
        <time>2026-08-29T09:36:17Z</time>
      </trkpt>
      <trkpt lat="43.92109" lon="1.86127">
        <ele>192.844259</ele>
        <time>2026-08-29T09:36:18Z</time>
      </trkpt>
      <trkpt lat="43.9211" lon="1.86125">
        <ele>192.952401</ele>
        <time>2026-08-29T09:36:19Z</time>
      </trkpt>
      <trkpt lat="43.92111" lon="1.86124">
        <ele>193.059047</ele>
        <time>2026-08-29T09:36:20Z</time>
      </trkpt>
      <trkpt lat="43.92112" lon="1.86122">
        <ele>193.171344</ele>
        <time>2026-08-29T09:36:21Z</time>
      </trkpt>
      <trkpt lat="43.92113" lon="1.8612">
        <ele>193.31354</ele>
        <time>2026-08-29T09:36:22Z</time>
      </trkpt>
      <trkpt lat="43.92115" lon="1.86118">
        <ele>193.454235</ele>
        <time>2026-08-29T09:36:23Z</time>
      </trkpt>
      <trkpt lat="43.92116" lon="1.86116">
        <ele>193.597488</ele>
        <time>2026-08-29T09:36:24Z</time>
      </trkpt>
      <trkpt lat="43.92118" lon="1.86113">
        <ele>193.740742</ele>
        <time>2026-08-29T09:36:25Z</time>
      </trkpt>
      <trkpt lat="43.92119" lon="1.86111">
        <ele>193.879799</ele>
        <time>2026-08-29T09:36:26Z</time>
      </trkpt>
      <trkpt lat="43.92121" lon="1.8611">
        <ele>194.015812</ele>
        <time>2026-08-29T09:36:27Z</time>
      </trkpt>
      <trkpt lat="43.92122" lon="1.86108">
        <ele>194.146759</ele>
        <time>2026-08-29T09:36:28Z</time>
      </trkpt>
      <trkpt lat="43.92124" lon="1.86106">
        <ele>194.253406</ele>
        <time>2026-08-29T09:36:29Z</time>
      </trkpt>
      <trkpt lat="43.92125" lon="1.86105">
        <ele>194.349981</ele>
        <time>2026-08-29T09:36:30Z</time>
      </trkpt>
      <trkpt lat="43.92125" lon="1.86103">
        <ele>194.450349</ele>
        <time>2026-08-29T09:36:31Z</time>
      </trkpt>
      <trkpt lat="43.92127" lon="1.86102">
        <ele>194.545758</ele>
        <time>2026-08-29T09:36:32Z</time>
      </trkpt>
      <trkpt lat="43.92128" lon="1.861">
        <ele>194.607784</ele>
        <time>2026-08-29T09:36:33Z</time>
      </trkpt>
      <trkpt lat="43.92129" lon="1.86099">
        <ele>194.666065</ele>
        <time>2026-08-29T09:36:34Z</time>
      </trkpt>
      <trkpt lat="43.9213" lon="1.86096">
        <ele>194.736631</ele>
        <time>2026-08-29T09:36:35Z</time>
      </trkpt>
      <trkpt lat="43.92131" lon="1.86094">
        <ele>194.805218</ele>
        <time>2026-08-29T09:36:36Z</time>
      </trkpt>
      <trkpt lat="43.92132" lon="1.86092">
        <ele>194.871551</ele>
        <time>2026-08-29T09:36:37Z</time>
      </trkpt>
      <trkpt lat="43.92133" lon="1.86091">
        <ele>194.927143</ele>
        <time>2026-08-29T09:36:38Z</time>
      </trkpt>
      <trkpt lat="43.92134" lon="1.86089">
        <ele>194.979095</ele>
        <time>2026-08-29T09:36:39Z</time>
      </trkpt>
      <trkpt lat="43.92135" lon="1.86087">
        <ele>195.03931</ele>
        <time>2026-08-29T09:36:40Z</time>
      </trkpt>
      <trkpt lat="43.92136" lon="1.86085">
        <ele>195.107728</ele>
        <time>2026-08-29T09:36:41Z</time>
      </trkpt>
      <trkpt lat="43.92137" lon="1.86084">
        <ele>195.169927</ele>
        <time>2026-08-29T09:36:42Z</time>
      </trkpt>
      <trkpt lat="43.92138" lon="1.86082">
        <ele>195.228208</ele>
        <time>2026-08-29T09:36:43Z</time>
      </trkpt>
      <trkpt lat="43.92139" lon="1.8608">
        <ele>195.290212</ele>
        <time>2026-08-29T09:36:44Z</time>
      </trkpt>
      <trkpt lat="43.9214" lon="1.86078">
        <ele>195.356796</ele>
        <time>2026-08-29T09:36:45Z</time>
      </trkpt>
      <trkpt lat="43.92142" lon="1.86076">
        <ele>195.425215</ele>
        <time>2026-08-29T09:36:46Z</time>
      </trkpt>
      <trkpt lat="43.92143" lon="1.86074">
        <ele>195.497929</ele>
        <time>2026-08-29T09:36:47Z</time>
      </trkpt>
      <trkpt lat="43.92144" lon="1.86072">
        <ele>195.572761</ele>
        <time>2026-08-29T09:36:48Z</time>
      </trkpt>
      <trkpt lat="43.92145" lon="1.86069">
        <ele>195.643393</ele>
        <time>2026-08-29T09:36:49Z</time>
      </trkpt>
      <trkpt lat="43.92146" lon="1.86068">
        <ele>195.710557</ele>
        <time>2026-08-29T09:36:50Z</time>
      </trkpt>
      <trkpt lat="43.92148" lon="1.86066">
        <ele>195.77411</ele>
        <time>2026-08-29T09:36:51Z</time>
      </trkpt>
      <trkpt lat="43.92149" lon="1.86064">
        <ele>195.836309</ele>
        <time>2026-08-29T09:36:52Z</time>
      </trkpt>
      <trkpt lat="43.9215" lon="1.86063">
        <ele>195.899027</ele>
        <time>2026-08-29T09:36:53Z</time>
      </trkpt>
      <trkpt lat="43.92151" lon="1.86061">
        <ele>195.963258</ele>
        <time>2026-08-29T09:36:54Z</time>
      </trkpt>
      <trkpt lat="43.92152" lon="1.86059">
        <ele>196.029591</ele>
        <time>2026-08-29T09:36:55Z</time>
      </trkpt>
      <trkpt lat="43.92153" lon="1.86057">
        <ele>196.09179</ele>
        <time>2026-08-29T09:36:56Z</time>
      </trkpt>
      <trkpt lat="43.92154" lon="1.86055">
        <ele>196.152654</ele>
        <time>2026-08-29T09:36:57Z</time>
      </trkpt>
      <trkpt lat="43.92156" lon="1.86053">
        <ele>196.214853</ele>
        <time>2026-08-29T09:36:58Z</time>
      </trkpt>
      <trkpt lat="43.92156" lon="1.86051">
        <ele>196.276991</ele>
        <time>2026-08-29T09:36:59Z</time>
      </trkpt>
      <trkpt lat="43.92157" lon="1.86049">
        <ele>196.343323</ele>
        <time>2026-08-29T09:37:00Z</time>
      </trkpt>
      <trkpt lat="43.92159" lon="1.86047">
        <ele>196.411741</ele>
        <time>2026-08-29T09:37:01Z</time>
      </trkpt>
      <trkpt lat="43.9216" lon="1.86045">
        <ele>196.473746</ele>
        <time>2026-08-29T09:37:02Z</time>
      </trkpt>
      <trkpt lat="43.92161" lon="1.86043">
        <ele>196.54473</ele>
        <time>2026-08-29T09:37:03Z</time>
      </trkpt>
      <trkpt lat="43.92162" lon="1.86041">
        <ele>196.613317</ele>
        <time>2026-08-29T09:37:04Z</time>
      </trkpt>
      <trkpt lat="43.92163" lon="1.86039">
        <ele>196.692662</ele>
        <time>2026-08-29T09:37:05Z</time>
      </trkpt>
      <trkpt lat="43.92165" lon="1.86037">
        <ele>196.77059</ele>
        <time>2026-08-29T09:37:06Z</time>
      </trkpt>
      <trkpt lat="43.92167" lon="1.86035">
        <ele>196.847611</ele>
        <time>2026-08-29T09:37:07Z</time>
      </trkpt>
      <trkpt lat="43.92168" lon="1.86033">
        <ele>196.934835</ele>
        <time>2026-08-29T09:37:08Z</time>
      </trkpt>
      <trkpt lat="43.9217" lon="1.86031">
        <ele>197.023488</ele>
        <time>2026-08-29T09:37:09Z</time>
      </trkpt>
      <trkpt lat="43.92173" lon="1.86029">
        <ele>197.120072</ele>
        <time>2026-08-29T09:37:10Z</time>
      </trkpt>
      <trkpt lat="43.92175" lon="1.86028">
        <ele>197.212178</ele>
        <time>2026-08-29T09:37:11Z</time>
      </trkpt>
      <trkpt lat="43.92177" lon="1.86026">
        <ele>197.307409</ele>
        <time>2026-08-29T09:37:12Z</time>
      </trkpt>
      <trkpt lat="43.9218" lon="1.86025">
        <ele>197.400725</ele>
        <time>2026-08-29T09:37:13Z</time>
      </trkpt>
      <trkpt lat="43.92182" lon="1.86024">
        <ele>197.502302</ele>
        <time>2026-08-29T09:37:14Z</time>
      </trkpt>
      <trkpt lat="43.92185" lon="1.86023">
        <ele>197.610462</ele>
        <time>2026-08-29T09:37:15Z</time>
      </trkpt>
      <trkpt lat="43.92188" lon="1.86023">
        <ele>197.713734</ele>
        <time>2026-08-29T09:37:16Z</time>
      </trkpt>
      <trkpt lat="43.92191" lon="1.86023">
        <ele>197.805226</ele>
        <time>2026-08-29T09:37:17Z</time>
      </trkpt>
      <trkpt lat="43.92193" lon="1.86023">
        <ele>197.907689</ele>
        <time>2026-08-29T09:37:18Z</time>
      </trkpt>
      <trkpt lat="43.92197" lon="1.86023">
        <ele>198.028437</ele>
        <time>2026-08-29T09:37:19Z</time>
      </trkpt>
      <trkpt lat="43.922" lon="1.86023">
        <ele>198.149414</ele>
        <time>2026-08-29T09:37:20Z</time>
      </trkpt>
      <trkpt lat="43.92203" lon="1.86023">
        <ele>198.255795</ele>
        <time>2026-08-29T09:37:21Z</time>
      </trkpt>
      <trkpt lat="43.92206" lon="1.86024">
        <ele>198.361914</ele>
        <time>2026-08-29T09:37:22Z</time>
      </trkpt>
      <trkpt lat="43.92209" lon="1.86024">
        <ele>198.464376</ele>
        <time>2026-08-29T09:37:23Z</time>
      </trkpt>
      <trkpt lat="43.92212" lon="1.86025">
        <ele>198.576654</ele>
        <time>2026-08-29T09:37:24Z</time>
      </trkpt>
      <trkpt lat="43.92214" lon="1.86025">
        <ele>198.665433</ele>
        <time>2026-08-29T09:37:25Z</time>
      </trkpt>
      <trkpt lat="43.92217" lon="1.86026">
        <ele>198.758728</ele>
        <time>2026-08-29T09:37:26Z</time>
      </trkpt>
      <trkpt lat="43.92219" lon="1.86027">
        <ele>198.858158</ele>
        <time>2026-08-29T09:37:27Z</time>
      </trkpt>
      <trkpt lat="43.92222" lon="1.86028">
        <ele>198.963296</ele>
        <time>2026-08-29T09:37:28Z</time>
      </trkpt>
      <trkpt lat="43.92225" lon="1.86029">
        <ele>199.073994</ele>
        <time>2026-08-29T09:37:29Z</time>
      </trkpt>
      <trkpt lat="43.92228" lon="1.8603">
        <ele>199.175572</ele>
        <time>2026-08-29T09:37:30Z</time>
      </trkpt>
      <trkpt lat="43.9223" lon="1.86031">
        <ele>199.267236</ele>
        <time>2026-08-29T09:37:31Z</time>
      </trkpt>
      <trkpt lat="43.92232" lon="1.86032">
        <ele>199.361714</ele>
        <time>2026-08-29T09:37:32Z</time>
      </trkpt>
      <trkpt lat="43.92235" lon="1.86033">
        <ele>199.461944</ele>
        <time>2026-08-29T09:37:33Z</time>
      </trkpt>
      <trkpt lat="43.92238" lon="1.86034">
        <ele>199.563037</ele>
        <time>2026-08-29T09:37:34Z</time>
      </trkpt>
      <trkpt lat="43.9224" lon="1.86036">
        <ele>199.671041</ele>
        <time>2026-08-29T09:37:35Z</time>
      </trkpt>
      <trkpt lat="43.92243" lon="1.86037">
        <ele>199.771271</ele>
        <time>2026-08-29T09:37:36Z</time>
      </trkpt>
      <trkpt lat="43.92245" lon="1.86038">
        <ele>199.863727</ele>
        <time>2026-08-29T09:37:37Z</time>
      </trkpt>
      <trkpt lat="43.92248" lon="1.86039">
        <ele>199.95361</ele>
        <time>2026-08-29T09:37:38Z</time>
      </trkpt>
      <trkpt lat="43.9225" lon="1.8604">
        <ele>200.04884</ele>
        <time>2026-08-29T09:37:39Z</time>
      </trkpt>
      <trkpt lat="43.92252" lon="1.86042">
        <ele>200.135308</ele>
        <time>2026-08-29T09:37:40Z</time>
      </trkpt>
      <trkpt lat="43.92255" lon="1.86043">
        <ele>200.227764</ele>
        <time>2026-08-29T09:37:41Z</time>
      </trkpt>
      <trkpt lat="43.92257" lon="1.86044">
        <ele>200.31523</ele>
        <time>2026-08-29T09:37:42Z</time>
      </trkpt>
      <trkpt lat="43.92259" lon="1.86045">
        <ele>200.41046</ele>
        <time>2026-08-29T09:37:43Z</time>
      </trkpt>
      <trkpt lat="43.92262" lon="1.86047">
        <ele>200.49945</ele>
        <time>2026-08-29T09:37:44Z</time>
      </trkpt>
      <trkpt lat="43.92264" lon="1.86048">
        <ele>200.591906</ele>
        <time>2026-08-29T09:37:45Z</time>
      </trkpt>
      <trkpt lat="43.92266" lon="1.86049">
        <ele>200.678374</ele>
        <time>2026-08-29T09:37:46Z</time>
      </trkpt>
      <trkpt lat="43.92269" lon="1.8605">
        <ele>200.779951</ele>
        <time>2026-08-29T09:37:47Z</time>
      </trkpt>
      <trkpt lat="43.92272" lon="1.8605">
        <ele>200.879282</ele>
        <time>2026-08-29T09:37:48Z</time>
      </trkpt>
      <trkpt lat="43.92274" lon="1.86051">
        <ele>200.97168</ele>
        <time>2026-08-29T09:37:49Z</time>
      </trkpt>
      <trkpt lat="43.92277" lon="1.86051">
        <ele>201.066829</ele>
        <time>2026-08-29T09:37:50Z</time>
      </trkpt>
      <trkpt lat="43.9228" lon="1.8605">
        <ele>201.173008</ele>
        <time>2026-08-29T09:37:51Z</time>
      </trkpt>
      <trkpt lat="43.92282" lon="1.8605">
        <ele>201.268802</ele>
        <time>2026-08-29T09:37:52Z</time>
      </trkpt>
      <trkpt lat="43.92285" lon="1.86049">
        <ele>201.360667</ele>
        <time>2026-08-29T09:37:53Z</time>
      </trkpt>
      <trkpt lat="43.92288" lon="1.86049">
        <ele>201.460262</ele>
        <time>2026-08-29T09:37:54Z</time>
      </trkpt>
      <trkpt lat="43.9229" lon="1.86048">
        <ele>201.556056</ele>
        <time>2026-08-29T09:37:55Z</time>
      </trkpt>
      <trkpt lat="43.92293" lon="1.86047">
        <ele>201.651235</ele>
        <time>2026-08-29T09:37:56Z</time>
      </trkpt>
      <trkpt lat="43.92296" lon="1.86046">
        <ele>201.750564</ele>
        <time>2026-08-29T09:37:57Z</time>
      </trkpt>
      <trkpt lat="43.92298" lon="1.86044">
        <ele>201.854131</ele>
        <time>2026-08-29T09:37:58Z</time>
      </trkpt>
      <trkpt lat="43.92301" lon="1.86043">
        <ele>201.955519</ele>
        <time>2026-08-29T09:37:59Z</time>
      </trkpt>
      <trkpt lat="43.92304" lon="1.86041">
        <ele>202.056907</ele>
        <time>2026-08-29T09:38:00Z</time>
      </trkpt>
      <trkpt lat="43.92306" lon="1.86039">
        <ele>202.144524</ele>
        <time>2026-08-29T09:38:01Z</time>
      </trkpt>
      <trkpt lat="43.92308" lon="1.86038">
        <ele>202.229902</ele>
        <time>2026-08-29T09:38:02Z</time>
      </trkpt>
      <trkpt lat="43.9231" lon="1.86036">
        <ele>202.321826</ele>
        <time>2026-08-29T09:38:03Z</time>
      </trkpt>
      <trkpt lat="43.92312" lon="1.86035">
        <ele>202.406334</ele>
        <time>2026-08-29T09:38:04Z</time>
      </trkpt>
      <trkpt lat="43.92315" lon="1.86033">
        <ele>202.509418</ele>
        <time>2026-08-29T09:38:05Z</time>
      </trkpt>
      <trkpt lat="43.92317" lon="1.86031">
        <ele>202.591602</ele>
        <time>2026-08-29T09:38:06Z</time>
      </trkpt>
      <trkpt lat="43.92319" lon="1.86029">
        <ele>202.687344</ele>
        <time>2026-08-29T09:38:07Z</time>
      </trkpt>
      <trkpt lat="43.92321" lon="1.86027">
        <ele>202.778749</ele>
        <time>2026-08-29T09:38:08Z</time>
      </trkpt>
      <trkpt lat="43.92324" lon="1.86025">
        <ele>202.865816</ele>
        <time>2026-08-29T09:38:09Z</time>
      </trkpt>
      <trkpt lat="43.92325" lon="1.86024">
        <ele>202.941241</ele>
        <time>2026-08-29T09:38:10Z</time>
      </trkpt>
      <trkpt lat="43.92327" lon="1.86021">
        <ele>203.026774</ele>
        <time>2026-08-29T09:38:11Z</time>
      </trkpt>
      <trkpt lat="43.92329" lon="1.86019">
        <ele>203.112451</ele>
        <time>2026-08-29T09:38:12Z</time>
      </trkpt>
      <trkpt lat="43.92331" lon="1.86017">
        <ele>203.193785</ele>
        <time>2026-08-29T09:38:13Z</time>
      </trkpt>
      <trkpt lat="43.92332" lon="1.86015">
        <ele>203.270587</ele>
        <time>2026-08-29T09:38:14Z</time>
      </trkpt>
      <trkpt lat="43.92334" lon="1.86014">
        <ele>203.346011</ele>
        <time>2026-08-29T09:38:15Z</time>
      </trkpt>
      <trkpt lat="43.92336" lon="1.86012">
        <ele>203.424622</ele>
        <time>2026-08-29T09:38:16Z</time>
      </trkpt>
      <trkpt lat="43.92338" lon="1.8601">
        <ele>203.503232</ele>
        <time>2026-08-29T09:38:17Z</time>
      </trkpt>
      <trkpt lat="43.92339" lon="1.86008">
        <ele>203.583509</ele>
        <time>2026-08-29T09:38:18Z</time>
      </trkpt>
      <trkpt lat="43.92341" lon="1.86005">
        <ele>203.653871</ele>
        <time>2026-08-29T09:38:19Z</time>
      </trkpt>
      <trkpt lat="43.92342" lon="1.86003">
        <ele>203.736969</ele>
        <time>2026-08-29T09:38:20Z</time>
      </trkpt>
      <trkpt lat="43.92344" lon="1.86001">
        <ele>203.811246</ele>
        <time>2026-08-29T09:38:21Z</time>
      </trkpt>
      <trkpt lat="43.92345" lon="1.85999">
        <ele>203.891713</ele>
        <time>2026-08-29T09:38:22Z</time>
      </trkpt>
      <trkpt lat="43.92346" lon="1.85996">
        <ele>203.966154</ele>
        <time>2026-08-29T09:38:23Z</time>
      </trkpt>
      <trkpt lat="43.92347" lon="1.85994">
        <ele>204.042493</ele>
        <time>2026-08-29T09:38:24Z</time>
      </trkpt>
      <trkpt lat="43.92349" lon="1.85991">
        <ele>204.118832</ele>
        <time>2026-08-29T09:38:25Z</time>
      </trkpt>
      <trkpt lat="43.9235" lon="1.85989">
        <ele>204.183122</ele>
        <time>2026-08-29T09:38:26Z</time>
      </trkpt>
      <trkpt lat="43.92351" lon="1.85987">
        <ele>204.255407</ele>
        <time>2026-08-29T09:38:27Z</time>
      </trkpt>
      <trkpt lat="43.92352" lon="1.85984">
        <ele>204.337895</ele>
        <time>2026-08-29T09:38:28Z</time>
      </trkpt>
      <trkpt lat="43.92353" lon="1.85982">
        <ele>204.412133</ele>
        <time>2026-08-29T09:38:29Z</time>
      </trkpt>
      <trkpt lat="43.92354" lon="1.85979">
        <ele>204.49275</ele>
        <time>2026-08-29T09:38:30Z</time>
      </trkpt>
      <trkpt lat="43.92356" lon="1.85976">
        <ele>204.569055</ele>
        <time>2026-08-29T09:38:31Z</time>
      </trkpt>
      <trkpt lat="43.92357" lon="1.85974">
        <ele>204.655667</ele>
        <time>2026-08-29T09:38:32Z</time>
      </trkpt>
      <trkpt lat="43.92358" lon="1.85971">
        <ele>204.738458</ele>
        <time>2026-08-29T09:38:33Z</time>
      </trkpt>
      <trkpt lat="43.9236" lon="1.85968">
        <ele>204.82929</ele>
        <time>2026-08-29T09:38:34Z</time>
      </trkpt>
      <trkpt lat="43.92361" lon="1.85965">
        <ele>204.910333</ele>
        <time>2026-08-29T09:38:35Z</time>
      </trkpt>
      <trkpt lat="43.92362" lon="1.85962">
        <ele>204.993616</ele>
        <time>2026-08-29T09:38:36Z</time>
      </trkpt>
      <trkpt lat="43.92363" lon="1.85959">
        <ele>205.073031</ele>
        <time>2026-08-29T09:38:37Z</time>
      </trkpt>
      <trkpt lat="43.92364" lon="1.85956">
        <ele>205.158015</ele>
        <time>2026-08-29T09:38:38Z</time>
      </trkpt>
      <trkpt lat="43.92365" lon="1.85953">
        <ele>205.243555</ele>
        <time>2026-08-29T09:38:39Z</time>
      </trkpt>
      <trkpt lat="43.92366" lon="1.8595">
        <ele>205.327553</ele>
        <time>2026-08-29T09:38:40Z</time>
      </trkpt>
      <trkpt lat="43.92367" lon="1.85947">
        <ele>205.412483</ele>
        <time>2026-08-29T09:38:41Z</time>
      </trkpt>
      <trkpt lat="43.92368" lon="1.85944">
        <ele>205.498793</ele>
        <time>2026-08-29T09:38:42Z</time>
      </trkpt>
      <trkpt lat="43.92369" lon="1.85941">
        <ele>205.585104</ele>
        <time>2026-08-29T09:38:43Z</time>
      </trkpt>
      <trkpt lat="43.9237" lon="1.85939">
        <ele>205.658404</ele>
        <time>2026-08-29T09:38:44Z</time>
      </trkpt>
      <trkpt lat="43.92371" lon="1.85936">
        <ele>205.740982</ele>
        <time>2026-08-29T09:38:45Z</time>
      </trkpt>
      <trkpt lat="43.92372" lon="1.85932">
        <ele>205.83108</ele>
        <time>2026-08-29T09:38:46Z</time>
      </trkpt>
      <trkpt lat="43.92373" lon="1.85929">
        <ele>205.918372</ele>
        <time>2026-08-29T09:38:47Z</time>
      </trkpt>
      <trkpt lat="43.92374" lon="1.85926">
        <ele>206.006847</ele>
        <time>2026-08-29T09:38:48Z</time>
      </trkpt>
      <trkpt lat="43.92375" lon="1.85923">
        <ele>206.080147</ele>
        <time>2026-08-29T09:38:49Z</time>
      </trkpt>
      <trkpt lat="43.92376" lon="1.8592">
        <ele>206.166457</ele>
        <time>2026-08-29T09:38:50Z</time>
      </trkpt>
      <trkpt lat="43.92377" lon="1.85917">
        <ele>206.256555</ele>
        <time>2026-08-29T09:38:51Z</time>
      </trkpt>
      <trkpt lat="43.92378" lon="1.85914">
        <ele>206.340553</ele>
        <time>2026-08-29T09:38:52Z</time>
      </trkpt>
      <trkpt lat="43.92379" lon="1.85911">
        <ele>206.42184</ele>
        <time>2026-08-29T09:38:53Z</time>
      </trkpt>
      <trkpt lat="43.92379" lon="1.85908">
        <ele>206.498382</ele>
        <time>2026-08-29T09:38:54Z</time>
      </trkpt>
      <trkpt lat="43.9238" lon="1.85905">
        <ele>206.585673</ele>
        <time>2026-08-29T09:38:55Z</time>
      </trkpt>
      <trkpt lat="43.92381" lon="1.85902">
        <ele>206.673087</ele>
        <time>2026-08-29T09:38:56Z</time>
      </trkpt>
      <trkpt lat="43.92382" lon="1.85898">
        <ele>206.76275</ele>
        <time>2026-08-29T09:38:57Z</time>
      </trkpt>
      <trkpt lat="43.92383" lon="1.85896">
        <ele>206.838062</ele>
        <time>2026-08-29T09:38:58Z</time>
      </trkpt>
      <trkpt lat="43.92383" lon="1.85893">
        <ele>206.908901</ele>
        <time>2026-08-29T09:38:59Z</time>
      </trkpt>
      <trkpt lat="43.92384" lon="1.85891">
        <ele>206.962646</ele>
        <time>2026-08-29T09:39:00Z</time>
      </trkpt>
      <trkpt lat="43.92385" lon="1.85889">
        <ele>207.026935</ele>
        <time>2026-08-29T09:39:01Z</time>
      </trkpt>
      <trkpt lat="43.92386" lon="1.85887">
        <ele>207.082859</ele>
        <time>2026-08-29T09:39:02Z</time>
      </trkpt>
      <trkpt lat="43.92386" lon="1.85885">
        <ele>207.137087</ele>
        <time>2026-08-29T09:39:03Z</time>
      </trkpt>
      <trkpt lat="43.92387" lon="1.85883">
        <ele>207.193589</ele>
        <time>2026-08-29T09:39:04Z</time>
      </trkpt>
      <trkpt lat="43.92388" lon="1.85881">
        <ele>207.260548</ele>
        <time>2026-08-29T09:39:05Z</time>
      </trkpt>
      <trkpt lat="43.92388" lon="1.85878">
        <ele>207.334778</ele>
        <time>2026-08-29T09:39:06Z</time>
      </trkpt>
      <trkpt lat="43.92389" lon="1.85875">
        <ele>207.400707</ele>
        <time>2026-08-29T09:39:07Z</time>
      </trkpt>
      <trkpt lat="43.92389" lon="1.85872">
        <ele>207.475735</ele>
        <time>2026-08-29T09:39:08Z</time>
      </trkpt>
      <trkpt lat="43.92389" lon="1.85869">
        <ele>207.657647</ele>
        <time>2026-08-29T09:39:09Z</time>
      </trkpt>
      <trkpt lat="43.9239" lon="1.85867">
        <ele>207.821977</ele>
        <time>2026-08-29T09:39:10Z</time>
      </trkpt>
      <trkpt lat="43.9239" lon="1.85865">
        <ele>207.964904</ele>
        <time>2026-08-29T09:39:11Z</time>
      </trkpt>
      <trkpt lat="43.9239" lon="1.85862">
        <ele>208.103717</ele>
        <time>2026-08-29T09:39:12Z</time>
      </trkpt>
      <trkpt lat="43.9239" lon="1.85861">
        <ele>208.209008</ele>
        <time>2026-08-29T09:39:13Z</time>
      </trkpt>
      <trkpt lat="43.9239" lon="1.8586">
        <ele>208.267363</ele>
        <time>2026-08-29T09:39:14Z</time>
      </trkpt>
      <trkpt lat="43.9239" lon="1.8586">
        <ele>208.267363</ele>
        <time>2026-08-29T09:39:15Z</time>
      </trkpt>
      <trkpt lat="43.92391" lon="1.8586">
        <ele>208.304805</ele>
        <time>2026-08-29T09:39:16Z</time>
      </trkpt>
      <trkpt lat="43.9239" lon="1.85853">
        <ele>208.746072</ele>
        <time>2026-08-29T09:39:35Z</time>
      </trkpt>
      <trkpt lat="43.92391" lon="1.8585">
        <ele>208.912119</ele>
        <time>2026-08-29T09:39:36Z</time>
      </trkpt>
      <trkpt lat="43.92391" lon="1.85847">
        <ele>209.107465</ele>
        <time>2026-08-29T09:39:37Z</time>
      </trkpt>
      <trkpt lat="43.92391" lon="1.85844">
        <ele>209.302187</ele>
        <time>2026-08-29T09:39:38Z</time>
      </trkpt>
      <trkpt lat="43.92391" lon="1.85841">
        <ele>209.490218</ele>
        <time>2026-08-29T09:39:39Z</time>
      </trkpt>
      <trkpt lat="43.92391" lon="1.85839">
        <ele>209.659037</ele>
        <time>2026-08-29T09:39:40Z</time>
      </trkpt>
      <trkpt lat="43.92391" lon="1.85836">
        <ele>209.847927</ele>
        <time>2026-08-29T09:39:41Z</time>
      </trkpt>
      <trkpt lat="43.9239" lon="1.85833">
        <ele>210.020309</ele>
        <time>2026-08-29T09:39:42Z</time>
      </trkpt>
      <trkpt lat="43.9239" lon="1.8583">
        <ele>210.203854</ele>
        <time>2026-08-29T09:39:43Z</time>
      </trkpt>
      <trkpt lat="43.9239" lon="1.85828">
        <ele>210.363577</ele>
        <time>2026-08-29T09:39:44Z</time>
      </trkpt>
      <trkpt lat="43.92389" lon="1.85825">
        <ele>210.540711</ele>
        <time>2026-08-29T09:39:45Z</time>
      </trkpt>
      <trkpt lat="43.92389" lon="1.85823">
        <ele>210.715195</ele>
        <time>2026-08-29T09:39:46Z</time>
      </trkpt>
      <trkpt lat="43.92388" lon="1.8582">
        <ele>210.895952</ele>
        <time>2026-08-29T09:39:47Z</time>
      </trkpt>
      <trkpt lat="43.92388" lon="1.85818">
        <ele>211.049365</ele>
        <time>2026-08-29T09:39:48Z</time>
      </trkpt>
      <trkpt lat="43.92388" lon="1.85815">
        <ele>211.211711</ele>
        <time>2026-08-29T09:39:49Z</time>
      </trkpt>
      <trkpt lat="43.92388" lon="1.85813">
        <ele>211.374056</ele>
        <time>2026-08-29T09:39:50Z</time>
      </trkpt>
      <trkpt lat="43.92388" lon="1.8581">
        <ele>211.530705</ele>
        <time>2026-08-29T09:39:51Z</time>
      </trkpt>
      <trkpt lat="43.92387" lon="1.85808">
        <ele>211.703087</ele>
        <time>2026-08-29T09:39:52Z</time>
      </trkpt>
      <trkpt lat="43.92387" lon="1.85805">
        <ele>211.852215</ele>
        <time>2026-08-29T09:39:53Z</time>
      </trkpt>
      <trkpt lat="43.92387" lon="1.85804">
        <ele>211.96927</ele>
        <time>2026-08-29T09:39:54Z</time>
      </trkpt>
      <trkpt lat="43.92387" lon="1.85803">
        <ele>212.036562</ele>
        <time>2026-08-29T09:39:55Z</time>
      </trkpt>
      <trkpt lat="43.92387" lon="1.85802">
        <ele>212.08392</ele>
        <time>2026-08-29T09:39:56Z</time>
      </trkpt>
      <trkpt lat="43.92387" lon="1.85802">
        <ele>212.120507</ele>
        <time>2026-08-29T09:39:57Z</time>
      </trkpt>
      <trkpt lat="43.92387" lon="1.85802">
        <ele>212.142695</ele>
        <time>2026-08-29T09:39:58Z</time>
      </trkpt>
      <trkpt lat="43.92386" lon="1.85784">
        <ele>213.331417</ele>
        <time>2026-08-29T09:43:49Z</time>
      </trkpt>
      <trkpt lat="43.92386" lon="1.85782">
        <ele>213.474344</ele>
        <time>2026-08-29T09:43:50Z</time>
      </trkpt>
      <trkpt lat="43.92386" lon="1.85779">
        <ele>213.623472</ele>
        <time>2026-08-29T09:43:51Z</time>
      </trkpt>
      <trkpt lat="43.92386" lon="1.85777">
        <ele>213.786564</ele>
        <time>2026-08-29T09:43:52Z</time>
      </trkpt>
      <trkpt lat="43.92386" lon="1.85775">
        <ele>213.935964</ele>
        <time>2026-08-29T09:43:53Z</time>
      </trkpt>
      <trkpt lat="43.92386" lon="1.85772">
        <ele>214.117734</ele>
        <time>2026-08-29T09:43:54Z</time>
      </trkpt>
      <trkpt lat="43.92386" lon="1.85769">
        <ele>214.274383</ele>
        <time>2026-08-29T09:43:55Z</time>
      </trkpt>
      <trkpt lat="43.92386" lon="1.85767">
        <ele>214.449678</ele>
        <time>2026-08-29T09:43:56Z</time>
      </trkpt>
      <trkpt lat="43.92386" lon="1.85764">
        <ele>214.593453</ele>
        <time>2026-08-29T09:43:57Z</time>
      </trkpt>
      <trkpt lat="43.92385" lon="1.85762">
        <ele>214.742853</ele>
        <time>2026-08-29T09:43:58Z</time>
      </trkpt>
      <trkpt lat="43.92385" lon="1.8576">
        <ele>214.894406</ele>
        <time>2026-08-29T09:43:59Z</time>
      </trkpt>
      <trkpt lat="43.92385" lon="1.85758">
        <ele>215.025326</ele>
        <time>2026-08-29T09:44:00Z</time>
      </trkpt>
      <trkpt lat="43.92385" lon="1.85756">
        <ele>215.137012</ele>
        <time>2026-08-29T09:44:01Z</time>
      </trkpt>
      <trkpt lat="43.92385" lon="1.85754">
        <ele>215.256804</ele>
        <time>2026-08-29T09:44:02Z</time>
      </trkpt>
      <trkpt lat="43.92385" lon="1.85752">
        <ele>215.414742</ele>
        <time>2026-08-29T09:44:03Z</time>
      </trkpt>
      <trkpt lat="43.92386" lon="1.8575">
        <ele>215.568156</ele>
        <time>2026-08-29T09:44:04Z</time>
      </trkpt>
      <trkpt lat="43.92386" lon="1.85747">
        <ele>215.740538</ele>
        <time>2026-08-29T09:44:05Z</time>
      </trkpt>
      <trkpt lat="43.92386" lon="1.85745">
        <ele>215.889937</ele>
        <time>2026-08-29T09:44:06Z</time>
      </trkpt>
      <trkpt lat="43.92387" lon="1.85742">
        <ele>216.047874</ele>
        <time>2026-08-29T09:44:07Z</time>
      </trkpt>
      <trkpt lat="43.92387" lon="1.8574">
        <ele>216.198085</ele>
        <time>2026-08-29T09:44:08Z</time>
      </trkpt>
      <trkpt lat="43.92387" lon="1.85738">
        <ele>216.343263</ele>
        <time>2026-08-29T09:44:09Z</time>
      </trkpt>
      <trkpt lat="43.92387" lon="1.85736">
        <ele>216.477846</ele>
        <time>2026-08-29T09:44:10Z</time>
      </trkpt>
      <trkpt lat="43.92388" lon="1.85734">
        <ele>216.597638</ele>
        <time>2026-08-29T09:44:11Z</time>
      </trkpt>
      <trkpt lat="43.92388" lon="1.85732">
        <ele>216.721159</ele>
        <time>2026-08-29T09:44:12Z</time>
      </trkpt>
      <trkpt lat="43.92388" lon="1.8573">
        <ele>216.850836</ele>
        <time>2026-08-29T09:44:13Z</time>
      </trkpt>
      <trkpt lat="43.92388" lon="1.85728">
        <ele>216.996014</ele>
        <time>2026-08-29T09:44:14Z</time>
      </trkpt>
      <trkpt lat="43.92388" lon="1.85726">
        <ele>217.126002</ele>
        <time>2026-08-29T09:44:15Z</time>
      </trkpt>
      <trkpt lat="43.92388" lon="1.85724">
        <ele>217.263347</ele>
        <time>2026-08-29T09:44:16Z</time>
      </trkpt>
      <trkpt lat="43.92389" lon="1.85722">
        <ele>217.373939</ele>
        <time>2026-08-29T09:44:17Z</time>
      </trkpt>
      <trkpt lat="43.92388" lon="1.85721">
        <ele>217.47807</ele>
        <time>2026-08-29T09:44:18Z</time>
      </trkpt>
      <trkpt lat="43.92389" lon="1.85719">
        <ele>217.583362</ele>
        <time>2026-08-29T09:44:19Z</time>
      </trkpt>
      <trkpt lat="43.92389" lon="1.85717">
        <ele>217.700417</ele>
        <time>2026-08-29T09:44:20Z</time>
      </trkpt>
      <trkpt lat="43.92389" lon="1.85715">
        <ele>217.817472</ele>
        <time>2026-08-29T09:44:21Z</time>
      </trkpt>
      <trkpt lat="43.92388" lon="1.85714">
        <ele>217.924671</ele>
        <time>2026-08-29T09:44:22Z</time>
      </trkpt>
      <trkpt lat="43.92388" lon="1.85713">
        <ele>217.963574</ele>
        <time>2026-08-29T09:44:23Z</time>
      </trkpt>
      <trkpt lat="43.92388" lon="1.85713">
        <ele>217.981578</ele>
        <time>2026-08-29T09:44:24Z</time>
      </trkpt>
      <trkpt lat="43.92389" lon="1.85705">
        <ele>218.490557</ele>
        <time>2026-08-29T09:44:50Z</time>
      </trkpt>
      <trkpt lat="43.92389" lon="1.85704">
        <ele>218.615058</ele>
        <time>2026-08-29T09:44:51Z</time>
      </trkpt>
      <trkpt lat="43.92389" lon="1.85702">
        <ele>218.745046</ele>
        <time>2026-08-29T09:44:52Z</time>
      </trkpt>
      <trkpt lat="43.92389" lon="1.857">
        <ele>218.856732</ele>
        <time>2026-08-29T09:44:53Z</time>
      </trkpt>
      <trkpt lat="43.92389" lon="1.85698">
        <ele>218.968417</ele>
        <time>2026-08-29T09:44:54Z</time>
      </trkpt>
      <trkpt lat="43.9239" lon="1.85696">
        <ele>219.108892</ele>
        <time>2026-08-29T09:44:55Z</time>
      </trkpt>
      <trkpt lat="43.92391" lon="1.85694">
        <ele>219.268685</ele>
        <time>2026-08-29T09:44:56Z</time>
      </trkpt>
      <trkpt lat="43.92392" lon="1.85692">
        <ele>219.438399</ele>
        <time>2026-08-29T09:44:57Z</time>
      </trkpt>
      <trkpt lat="43.92393" lon="1.85689">
        <ele>219.617331</ele>
        <time>2026-08-29T09:44:58Z</time>
      </trkpt>
      <trkpt lat="43.92393" lon="1.85687">
        <ele>219.763812</ele>
        <time>2026-08-29T09:44:59Z</time>
      </trkpt>
      <trkpt lat="43.92394" lon="1.85685">
        <ele>219.898395</ele>
        <time>2026-08-29T09:45:00Z</time>
      </trkpt>
      <trkpt lat="43.92394" lon="1.85684">
        <ele>220.002526</ele>
        <time>2026-08-29T09:45:01Z</time>
      </trkpt>
      <trkpt lat="43.92394" lon="1.85682">
        <ele>220.093745</ele>
        <time>2026-08-29T09:45:02Z</time>
      </trkpt>
      <trkpt lat="43.92394" lon="1.85681">
        <ele>220.186286</ele>
        <time>2026-08-29T09:45:03Z</time>
      </trkpt>
      <trkpt lat="43.92394" lon="1.85679">
        <ele>220.32893</ele>
        <time>2026-08-29T09:45:04Z</time>
      </trkpt>
      <trkpt lat="43.92394" lon="1.85677">
        <ele>220.484872</ele>
        <time>2026-08-29T09:45:05Z</time>
      </trkpt>
      <trkpt lat="43.92395" lon="1.85674">
        <ele>220.640644</ele>
        <time>2026-08-29T09:45:06Z</time>
      </trkpt>
      <trkpt lat="43.92396" lon="1.85672">
        <ele>220.773278</ele>
        <time>2026-08-29T09:45:07Z</time>
      </trkpt>
      <trkpt lat="43.92396" lon="1.85671">
        <ele>220.894296</ele>
        <time>2026-08-29T09:45:08Z</time>
      </trkpt>
      <trkpt lat="43.92397" lon="1.85669">
        <ele>221.021261</ele>
        <time>2026-08-29T09:45:09Z</time>
      </trkpt>
      <trkpt lat="43.92398" lon="1.85668">
        <ele>221.131763</ele>
        <time>2026-08-29T09:45:10Z</time>
      </trkpt>
      <trkpt lat="43.92399" lon="1.85666">
        <ele>221.263428</ele>
        <time>2026-08-29T09:45:11Z</time>
      </trkpt>
      <trkpt lat="43.92399" lon="1.85665">
        <ele>221.369055</ele>
        <time>2026-08-29T09:45:12Z</time>
      </trkpt>
      <trkpt lat="43.924" lon="1.85663">
        <ele>221.495637</ele>
        <time>2026-08-29T09:45:13Z</time>
      </trkpt>
      <trkpt lat="43.92401" lon="1.85661">
        <ele>221.62827</ele>
        <time>2026-08-29T09:45:14Z</time>
      </trkpt>
      <trkpt lat="43.92402" lon="1.8566">
        <ele>221.775716</ele>
        <time>2026-08-29T09:45:15Z</time>
      </trkpt>
      <trkpt lat="43.92402" lon="1.85657">
        <ele>221.928243</ele>
        <time>2026-08-29T09:45:16Z</time>
      </trkpt>
      <trkpt lat="43.92403" lon="1.85655">
        <ele>222.08077</ele>
        <time>2026-08-29T09:45:17Z</time>
      </trkpt>
      <trkpt lat="43.92403" lon="1.85653">
        <ele>222.219582</ele>
        <time>2026-08-29T09:45:18Z</time>
      </trkpt>
      <trkpt lat="43.92404" lon="1.85651">
        <ele>222.366064</ele>
        <time>2026-08-29T09:45:19Z</time>
      </trkpt>
      <trkpt lat="43.92405" lon="1.85649">
        <ele>222.503203</ele>
        <time>2026-08-29T09:45:20Z</time>
      </trkpt>
      <trkpt lat="43.92406" lon="1.85648">
        <ele>222.658519</ele>
        <time>2026-08-29T09:45:21Z</time>
      </trkpt>
      <trkpt lat="43.92407" lon="1.85646">
        <ele>222.795537</ele>
        <time>2026-08-29T09:45:22Z</time>
      </trkpt>
      <trkpt lat="43.92408" lon="1.85645">
        <ele>222.940892</ele>
        <time>2026-08-29T09:45:23Z</time>
      </trkpt>
      <trkpt lat="43.9241" lon="1.85643">
        <ele>223.106167</ele>
        <time>2026-08-29T09:45:24Z</time>
      </trkpt>
      <trkpt lat="43.92411" lon="1.85641">
        <ele>223.264223</ele>
        <time>2026-08-29T09:45:25Z</time>
      </trkpt>
      <trkpt lat="43.92412" lon="1.8564">
        <ele>223.395889</ele>
        <time>2026-08-29T09:45:26Z</time>
      </trkpt>
      <trkpt lat="43.92412" lon="1.85638">
        <ele>223.527517</ele>
        <time>2026-08-29T09:45:27Z</time>
      </trkpt>
      <trkpt lat="43.92413" lon="1.85637">
        <ele>223.632757</ele>
        <time>2026-08-29T09:45:28Z</time>
      </trkpt>
      <trkpt lat="43.92414" lon="1.85635">
        <ele>223.762726</ele>
        <time>2026-08-29T09:45:29Z</time>
      </trkpt>
      <trkpt lat="43.92415" lon="1.85634">
        <ele>223.928651</ele>
        <time>2026-08-29T09:45:30Z</time>
      </trkpt>
      <trkpt lat="43.92416" lon="1.85632">
        <ele>224.080537</ele>
        <time>2026-08-29T09:45:31Z</time>
      </trkpt>
      <trkpt lat="43.92417" lon="1.85631">
        <ele>224.267084</ele>
        <time>2026-08-29T09:45:32Z</time>
      </trkpt>
      <trkpt lat="43.92417" lon="1.85629">
        <ele>224.454134</ele>
        <time>2026-08-29T09:45:33Z</time>
      </trkpt>
      <trkpt lat="43.92418" lon="1.85627">
        <ele>224.636071</ele>
        <time>2026-08-29T09:45:34Z</time>
      </trkpt>
      <trkpt lat="43.9242" lon="1.85626">
        <ele>224.832393</ele>
        <time>2026-08-29T09:45:35Z</time>
      </trkpt>
      <trkpt lat="43.92421" lon="1.85624">
        <ele>224.99997</ele>
        <time>2026-08-29T09:45:36Z</time>
      </trkpt>
      <trkpt lat="43.92422" lon="1.85623">
        <ele>225.194108</ele>
        <time>2026-08-29T09:45:37Z</time>
      </trkpt>
      <trkpt lat="43.92423" lon="1.85621">
        <ele>225.412241</ele>
        <time>2026-08-29T09:45:38Z</time>
      </trkpt>
      <trkpt lat="43.92425" lon="1.85619">
        <ele>225.63497</ele>
        <time>2026-08-29T09:45:39Z</time>
      </trkpt>
      <trkpt lat="43.92426" lon="1.85618">
        <ele>225.821201</ele>
        <time>2026-08-29T09:45:40Z</time>
      </trkpt>
      <trkpt lat="43.92427" lon="1.85616">
        <ele>225.997287</ele>
        <time>2026-08-29T09:45:41Z</time>
      </trkpt>
      <trkpt lat="43.92428" lon="1.85615">
        <ele>226.186335</ele>
        <time>2026-08-29T09:45:42Z</time>
      </trkpt>
      <trkpt lat="43.92429" lon="1.85614">
        <ele>226.35141</ele>
        <time>2026-08-29T09:45:43Z</time>
      </trkpt>
      <trkpt lat="43.9243" lon="1.85612">
        <ele>226.518986</ele>
        <time>2026-08-29T09:45:44Z</time>
      </trkpt>
      <trkpt lat="43.92431" lon="1.85611">
        <ele>226.715309</ele>
        <time>2026-08-29T09:45:45Z</time>
      </trkpt>
      <trkpt lat="43.92432" lon="1.85609">
        <ele>226.867195</ele>
        <time>2026-08-29T09:45:46Z</time>
      </trkpt>
      <trkpt lat="43.92433" lon="1.85608">
        <ele>227.041052</ele>
        <time>2026-08-29T09:45:47Z</time>
      </trkpt>
      <trkpt lat="43.92434" lon="1.85606">
        <ele>227.241054</ele>
        <time>2026-08-29T09:45:48Z</time>
      </trkpt>
      <trkpt lat="43.92435" lon="1.85604">
        <ele>227.434258</ele>
        <time>2026-08-29T09:45:49Z</time>
      </trkpt>
      <trkpt lat="43.92436" lon="1.85602">
        <ele>227.634886</ele>
        <time>2026-08-29T09:45:50Z</time>
      </trkpt>
      <trkpt lat="43.92437" lon="1.856">
        <ele>227.851532</ele>
        <time>2026-08-29T09:45:51Z</time>
      </trkpt>
      <trkpt lat="43.92438" lon="1.85598">
        <ele>228.04052</ele>
        <time>2026-08-29T09:45:52Z</time>
      </trkpt>
      <trkpt lat="43.92439" lon="1.85596">
        <ele>228.22757</ele>
        <time>2026-08-29T09:45:53Z</time>
      </trkpt>
      <trkpt lat="43.9244" lon="1.85595">
        <ele>228.428198</ele>
        <time>2026-08-29T09:45:54Z</time>
      </trkpt>
      <trkpt lat="43.92441" lon="1.85593">
        <ele>228.628827</ele>
        <time>2026-08-29T09:45:55Z</time>
      </trkpt>
      <trkpt lat="43.92442" lon="1.85591">
        <ele>228.836009</ele>
        <time>2026-08-29T09:45:56Z</time>
      </trkpt>
      <trkpt lat="43.92443" lon="1.85589">
        <ele>229.030235</ele>
        <time>2026-08-29T09:45:57Z</time>
      </trkpt>
      <trkpt lat="43.92444" lon="1.85588">
        <ele>229.200692</ele>
        <time>2026-08-29T09:45:58Z</time>
      </trkpt>
      <trkpt lat="43.92445" lon="1.85586">
        <ele>229.397014</ele>
        <time>2026-08-29T09:45:59Z</time>
      </trkpt>
      <trkpt lat="43.92447" lon="1.85585">
        <ele>229.596474</ele>
        <time>2026-08-29T09:46:00Z</time>
      </trkpt>
      <trkpt lat="43.92448" lon="1.85583">
        <ele>229.797102</ele>
        <time>2026-08-29T09:46:01Z</time>
      </trkpt>
      <trkpt lat="43.92449" lon="1.85581">
        <ele>229.987636</ele>
        <time>2026-08-29T09:46:02Z</time>
      </trkpt>
      <trkpt lat="43.9245" lon="1.8558">
        <ele>230.153561</ele>
        <time>2026-08-29T09:46:03Z</time>
      </trkpt>
      <trkpt lat="43.92451" lon="1.85579">
        <ele>230.284786</ele>
        <time>2026-08-29T09:46:04Z</time>
      </trkpt>
      <trkpt lat="43.92451" lon="1.85577">
        <ele>230.445684</ele>
        <time>2026-08-29T09:46:05Z</time>
      </trkpt>
      <trkpt lat="43.92452" lon="1.85575">
        <ele>230.612112</ele>
        <time>2026-08-29T09:46:06Z</time>
      </trkpt>
      <trkpt lat="43.92452" lon="1.85573">
        <ele>230.800091</ele>
        <time>2026-08-29T09:46:07Z</time>
      </trkpt>
      <trkpt lat="43.92453" lon="1.85571">
        <ele>231.000025</ele>
        <time>2026-08-29T09:46:08Z</time>
      </trkpt>
      <trkpt lat="43.92454" lon="1.85569">
        <ele>231.20771</ele>
        <time>2026-08-29T09:46:09Z</time>
      </trkpt>
      <trkpt lat="43.92455" lon="1.85567">
        <ele>231.402145</ele>
        <time>2026-08-29T09:46:10Z</time>
      </trkpt>
      <trkpt lat="43.92455" lon="1.85565">
        <ele>231.570716</ele>
        <time>2026-08-29T09:46:11Z</time>
      </trkpt>
      <trkpt lat="43.92456" lon="1.85563">
        <ele>231.76399</ele>
        <time>2026-08-29T09:46:12Z</time>
      </trkpt>
      <trkpt lat="43.92457" lon="1.85562">
        <ele>231.915875</ele>
        <time>2026-08-29T09:46:13Z</time>
      </trkpt>
      <trkpt lat="43.92458" lon="1.85561">
        <ele>232.054846</ele>
        <time>2026-08-29T09:46:14Z</time>
      </trkpt>
      <trkpt lat="43.92458" lon="1.85559">
        <ele>232.208157</ele>
        <time>2026-08-29T09:46:15Z</time>
      </trkpt>
      <trkpt lat="43.92459" lon="1.85557">
        <ele>232.348633</ele>
        <time>2026-08-29T09:46:16Z</time>
      </trkpt>
      <trkpt lat="43.92459" lon="1.85556">
        <ele>232.512598</ele>
        <time>2026-08-29T09:46:17Z</time>
      </trkpt>
      <trkpt lat="43.9246" lon="1.85554">
        <ele>232.664596</ele>
        <time>2026-08-29T09:46:18Z</time>
      </trkpt>
      <trkpt lat="43.9246" lon="1.85552">
        <ele>232.824694</ele>
        <time>2026-08-29T09:46:19Z</time>
      </trkpt>
      <trkpt lat="43.92461" lon="1.8555">
        <ele>232.985592</ele>
        <time>2026-08-29T09:46:20Z</time>
      </trkpt>
      <trkpt lat="43.92461" lon="1.85549">
        <ele>233.133824</ele>
        <time>2026-08-29T09:46:21Z</time>
      </trkpt>
      <trkpt lat="43.92462" lon="1.85547">
        <ele>233.289889</ele>
        <time>2026-08-29T09:46:22Z</time>
      </trkpt>
      <trkpt lat="43.92463" lon="1.85545">
        <ele>233.462477</ele>
        <time>2026-08-29T09:46:23Z</time>
      </trkpt>
      <trkpt lat="43.92463" lon="1.85544">
        <ele>233.638798</ele>
        <time>2026-08-29T09:46:24Z</time>
      </trkpt>
      <trkpt lat="43.92464" lon="1.85542">
        <ele>233.797903</ele>
        <time>2026-08-29T09:46:25Z</time>
      </trkpt>
      <trkpt lat="43.92465" lon="1.8554">
        <ele>233.963827</ele>
        <time>2026-08-29T09:46:26Z</time>
      </trkpt>
      <trkpt lat="43.92465" lon="1.85539">
        <ele>234.102284</ele>
        <time>2026-08-29T09:46:27Z</time>
      </trkpt>
      <trkpt lat="43.92466" lon="1.85538">
        <ele>234.24811</ele>
        <time>2026-08-29T09:46:28Z</time>
      </trkpt>
      <trkpt lat="43.92467" lon="1.85536">
        <ele>234.401421</ele>
        <time>2026-08-29T09:46:29Z</time>
      </trkpt>
      <trkpt lat="43.92467" lon="1.85534">
        <ele>234.547247</ele>
        <time>2026-08-29T09:46:30Z</time>
      </trkpt>
      <trkpt lat="43.92468" lon="1.85533">
        <ele>234.712785</ele>
        <time>2026-08-29T09:46:31Z</time>
      </trkpt>
      <trkpt lat="43.92469" lon="1.85531">
        <ele>234.851242</ele>
        <time>2026-08-29T09:46:32Z</time>
      </trkpt>
      <trkpt lat="43.92469" lon="1.8553">
        <ele>234.959199</ele>
        <time>2026-08-29T09:46:33Z</time>
      </trkpt>
      <trkpt lat="43.92469" lon="1.85528">
        <ele>235.135611</ele>
        <time>2026-08-29T09:46:34Z</time>
      </trkpt>
      <trkpt lat="43.9247" lon="1.85527">
        <ele>235.314925</ele>
        <time>2026-08-29T09:46:35Z</time>
      </trkpt>
      <trkpt lat="43.92471" lon="1.85525">
        <ele>235.481353</ele>
        <time>2026-08-29T09:46:36Z</time>
      </trkpt>
      <trkpt lat="43.92472" lon="1.85524">
        <ele>235.631899</ele>
        <time>2026-08-29T09:46:37Z</time>
      </trkpt>
      <trkpt lat="43.92473" lon="1.85523">
        <ele>235.777321</ele>
        <time>2026-08-29T09:46:38Z</time>
      </trkpt>
      <trkpt lat="43.92474" lon="1.85521">
        <ele>235.915271</ele>
        <time>2026-08-29T09:46:39Z</time>
      </trkpt>
      <trkpt lat="43.92474" lon="1.8552">
        <ele>236.017939</ele>
        <time>2026-08-29T09:46:40Z</time>
      </trkpt>
      <trkpt lat="43.92475" lon="1.85518">
        <ele>236.211212</ele>
        <time>2026-08-29T09:46:41Z</time>
      </trkpt>
      <trkpt lat="43.92475" lon="1.85517">
        <ele>236.375177</ele>
        <time>2026-08-29T09:46:42Z</time>
      </trkpt>
      <trkpt lat="43.92475" lon="1.85515">
        <ele>236.551588</ele>
        <time>2026-08-29T09:46:43Z</time>
      </trkpt>
      <trkpt lat="43.92476" lon="1.85513">
        <ele>236.703493</ele>
        <time>2026-08-29T09:46:44Z</time>
      </trkpt>
      <trkpt lat="43.92477" lon="1.85512">
        <ele>236.894027</ele>
        <time>2026-08-29T09:46:45Z</time>
      </trkpt>
      <trkpt lat="43.92478" lon="1.8551">
        <ele>237.07379</ele>
        <time>2026-08-29T09:46:46Z</time>
      </trkpt>
      <trkpt lat="43.92479" lon="1.85508">
        <ele>237.239328</ele>
        <time>2026-08-29T09:46:47Z</time>
      </trkpt>
      <trkpt lat="43.9248" lon="1.85506">
        <ele>237.432602</ele>
        <time>2026-08-29T09:46:48Z</time>
      </trkpt>
      <trkpt lat="43.92481" lon="1.85504">
        <ele>237.619651</ele>
        <time>2026-08-29T09:46:49Z</time>
      </trkpt>
      <trkpt lat="43.92481" lon="1.85503">
        <ele>237.786078</ele>
        <time>2026-08-29T09:46:50Z</time>
      </trkpt>
      <trkpt lat="43.92482" lon="1.85501">
        <ele>237.980303</ele>
        <time>2026-08-29T09:46:51Z</time>
      </trkpt>
      <trkpt lat="43.92483" lon="1.85499">
        <ele>238.14673</ele>
        <time>2026-08-29T09:46:52Z</time>
      </trkpt>
      <trkpt lat="43.92484" lon="1.85497">
        <ele>238.326658</ele>
        <time>2026-08-29T09:46:53Z</time>
      </trkpt>
      <trkpt lat="43.92484" lon="1.85496">
        <ele>238.471981</ele>
        <time>2026-08-29T09:46:54Z</time>
      </trkpt>
      <trkpt lat="43.92485" lon="1.85495">
        <ele>238.603206</ele>
        <time>2026-08-29T09:46:55Z</time>
      </trkpt>
      <trkpt lat="43.92485" lon="1.85494">
        <ele>238.707934</ele>
        <time>2026-08-29T09:46:56Z</time>
      </trkpt>
      <trkpt lat="43.92486" lon="1.85492">
        <ele>238.82808</ele>
        <time>2026-08-29T09:46:57Z</time>
      </trkpt>
      <trkpt lat="43.92486" lon="1.85491">
        <ele>238.959305</ele>
        <time>2026-08-29T09:46:58Z</time>
      </trkpt>
      <trkpt lat="43.92487" lon="1.85489">
        <ele>239.10513</ele>
        <time>2026-08-29T09:46:59Z</time>
      </trkpt>
      <trkpt lat="43.92488" lon="1.85488">
        <ele>239.250955</ele>
        <time>2026-08-29T09:47:00Z</time>
      </trkpt>
      <trkpt lat="43.92488" lon="1.85486">
        <ele>239.386897</ele>
        <time>2026-08-29T09:47:01Z</time>
      </trkpt>
      <trkpt lat="43.92489" lon="1.85485">
        <ele>239.552435</ele>
        <time>2026-08-29T09:47:02Z</time>
      </trkpt>
      <trkpt lat="43.92489" lon="1.85483">
        <ele>239.713332</ele>
        <time>2026-08-29T09:47:03Z</time>
      </trkpt>
      <trkpt lat="43.9249" lon="1.85481">
        <ele>239.887189</ele>
        <time>2026-08-29T09:47:04Z</time>
      </trkpt>
      <trkpt lat="43.92491" lon="1.85479">
        <ele>240.079197</ele>
        <time>2026-08-29T09:47:05Z</time>
      </trkpt>
      <trkpt lat="43.92492" lon="1.85477">
        <ele>240.309163</ele>
        <time>2026-08-29T09:47:06Z</time>
      </trkpt>
      <trkpt lat="43.92493" lon="1.85474">
        <ele>240.572802</ele>
        <time>2026-08-29T09:47:07Z</time>
      </trkpt>
      <trkpt lat="43.92494" lon="1.85472">
        <ele>240.810339</ele>
        <time>2026-08-29T09:47:08Z</time>
      </trkpt>
      <trkpt lat="43.92495" lon="1.85469">
        <ele>241.03867</ele>
        <time>2026-08-29T09:47:09Z</time>
      </trkpt>
      <trkpt lat="43.92496" lon="1.85467">
        <ele>241.231943</ele>
        <time>2026-08-29T09:47:10Z</time>
      </trkpt>
      <trkpt lat="43.92496" lon="1.85466">
        <ele>241.388007</ele>
        <time>2026-08-29T09:47:11Z</time>
      </trkpt>
      <trkpt lat="43.92497" lon="1.85464">
        <ele>241.544072</ele>
        <time>2026-08-29T09:47:12Z</time>
      </trkpt>
      <trkpt lat="43.92497" lon="1.85462">
        <ele>241.704969</ele>
        <time>2026-08-29T09:47:13Z</time>
      </trkpt>
      <trkpt lat="43.92498" lon="1.8546">
        <ele>241.881288</ele>
        <time>2026-08-29T09:47:14Z</time>
      </trkpt>
      <trkpt lat="43.92498" lon="1.85459">
        <ele>242.057607</ele>
        <time>2026-08-29T09:47:15Z</time>
      </trkpt>
      <trkpt lat="43.92499" lon="1.85457">
        <ele>242.205838</ele>
        <time>2026-08-29T09:47:16Z</time>
      </trkpt>
      <trkpt lat="43.92499" lon="1.85455">
        <ele>242.377759</ele>
        <time>2026-08-29T09:47:17Z</time>
      </trkpt>
      <trkpt lat="43.925" lon="1.85454">
        <ele>242.51057</ele>
        <time>2026-08-29T09:47:18Z</time>
      </trkpt>
      <trkpt lat="43.925" lon="1.85452">
        <ele>242.674534</ele>
        <time>2026-08-29T09:47:19Z</time>
      </trkpt>
      <trkpt lat="43.92501" lon="1.8545">
        <ele>242.830598</ele>
        <time>2026-08-29T09:47:20Z</time>
      </trkpt>
      <trkpt lat="43.92501" lon="1.85448">
        <ele>243.018575</ele>
        <time>2026-08-29T09:47:21Z</time>
      </trkpt>
      <trkpt lat="43.92502" lon="1.85446">
        <ele>243.19789</ele>
        <time>2026-08-29T09:47:22Z</time>
      </trkpt>
      <trkpt lat="43.92503" lon="1.85444">
        <ele>243.394555</ele>
        <time>2026-08-29T09:47:23Z</time>
      </trkpt>
      <trkpt lat="43.92503" lon="1.85442">
        <ele>243.606891</ele>
        <time>2026-08-29T09:47:24Z</time>
      </trkpt>
      <trkpt lat="43.92504" lon="1.85439">
        <ele>243.839391</ele>
        <time>2026-08-29T09:47:25Z</time>
      </trkpt>
      <trkpt lat="43.92505" lon="1.85437">
        <ele>244.047076</ele>
        <time>2026-08-29T09:47:26Z</time>
      </trkpt>
      <trkpt lat="43.92506" lon="1.85435">
        <ele>244.261035</ele>
        <time>2026-08-29T09:47:27Z</time>
      </trkpt>
      <trkpt lat="43.92507" lon="1.85433">
        <ele>244.483497</ele>
        <time>2026-08-29T09:47:28Z</time>
      </trkpt>
      <trkpt lat="43.92508" lon="1.85431">
        <ele>244.675504</ele>
        <time>2026-08-29T09:47:29Z</time>
      </trkpt>
      <trkpt lat="43.92508" lon="1.85429">
        <ele>244.869937</ele>
        <time>2026-08-29T09:47:30Z</time>
      </trkpt>
      <trkpt lat="43.92509" lon="1.85426">
        <ele>245.010793</ele>
        <time>2026-08-29T09:47:31Z</time>
      </trkpt>
      <trkpt lat="43.92509" lon="1.85424">
        <ele>245.125001</ele>
        <time>2026-08-29T09:47:32Z</time>
      </trkpt>
      <trkpt lat="43.9251" lon="1.85422">
        <ele>245.23921</ele>
        <time>2026-08-29T09:47:33Z</time>
      </trkpt>
      <trkpt lat="43.9251" lon="1.85421">
        <ele>245.340247</ele>
        <time>2026-08-29T09:47:34Z</time>
      </trkpt>
      <trkpt lat="43.92511" lon="1.85419">
        <ele>245.43859</ele>
        <time>2026-08-29T09:47:35Z</time>
      </trkpt>
      <trkpt lat="43.92511" lon="1.85418">
        <ele>245.546335</ele>
        <time>2026-08-29T09:47:36Z</time>
      </trkpt>
      <trkpt lat="43.92512" lon="1.85416">
        <ele>245.668685</ele>
        <time>2026-08-29T09:47:37Z</time>
      </trkpt>
      <trkpt lat="43.92513" lon="1.85414">
        <ele>245.772332</ele>
        <time>2026-08-29T09:47:38Z</time>
      </trkpt>
      <trkpt lat="43.92513" lon="1.85412">
        <ele>245.884738</ele>
        <time>2026-08-29T09:47:39Z</time>
      </trkpt>
      <trkpt lat="43.92513" lon="1.8541">
        <ele>246.009585</ele>
        <time>2026-08-29T09:47:40Z</time>
      </trkpt>
      <trkpt lat="43.92514" lon="1.85407">
        <ele>246.154577</ele>
        <time>2026-08-29T09:47:41Z</time>
      </trkpt>
      <trkpt lat="43.92514" lon="1.85405">
        <ele>246.276273</ele>
        <time>2026-08-29T09:47:42Z</time>
      </trkpt>
      <trkpt lat="43.92515" lon="1.85403">
        <ele>246.403206</ele>
        <time>2026-08-29T09:47:43Z</time>
      </trkpt>
      <trkpt lat="43.92515" lon="1.85401">
        <ele>246.512339</ele>
        <time>2026-08-29T09:47:44Z</time>
      </trkpt>
      <trkpt lat="43.92516" lon="1.85399">
        <ele>246.634689</ele>
        <time>2026-08-29T09:47:45Z</time>
      </trkpt>
      <trkpt lat="43.92517" lon="1.85396">
        <ele>246.787415</ele>
        <time>2026-08-29T09:47:46Z</time>
      </trkpt>
      <trkpt lat="43.92517" lon="1.85394">
        <ele>246.899821</ele>
        <time>2026-08-29T09:47:47Z</time>
      </trkpt>
      <trkpt lat="43.92517" lon="1.85392">
        <ele>247.01013</ele>
        <time>2026-08-29T09:47:48Z</time>
      </trkpt>
      <trkpt lat="43.92517" lon="1.85391">
        <ele>247.104908</ele>
        <time>2026-08-29T09:47:49Z</time>
      </trkpt>
      <trkpt lat="43.92518" lon="1.85389">
        <ele>247.205119</ele>
        <time>2026-08-29T09:47:50Z</time>
      </trkpt>
      <trkpt lat="43.92518" lon="1.85387">
        <ele>247.322917</ele>
        <time>2026-08-29T09:47:51Z</time>
      </trkpt>
      <trkpt lat="43.92518" lon="1.85385">
        <ele>247.424575</ele>
        <time>2026-08-29T09:47:52Z</time>
      </trkpt>
      <trkpt lat="43.92519" lon="1.85383">
        <ele>247.54106</ele>
        <time>2026-08-29T09:47:53Z</time>
      </trkpt>
      <trkpt lat="43.92519" lon="1.85381">
        <ele>247.652362</ele>
        <time>2026-08-29T09:47:54Z</time>
      </trkpt>
      <trkpt lat="43.9252" lon="1.85379">
        <ele>247.795122</ele>
        <time>2026-08-29T09:47:55Z</time>
      </trkpt>
      <trkpt lat="43.9252" lon="1.85376">
        <ele>247.940114</ele>
        <time>2026-08-29T09:47:56Z</time>
      </trkpt>
      <trkpt lat="43.92521" lon="1.85374">
        <ele>248.079896</ele>
        <time>2026-08-29T09:47:57Z</time>
      </trkpt>
      <trkpt lat="43.92522" lon="1.85371">
        <ele>248.227481</ele>
        <time>2026-08-29T09:47:58Z</time>
      </trkpt>
      <trkpt lat="43.92522" lon="1.85369">
        <ele>248.349178</ele>
        <time>2026-08-29T09:47:59Z</time>
      </trkpt>
      <trkpt lat="43.92523" lon="1.85367">
        <ele>248.478614</ele>
        <time>2026-08-29T09:48:00Z</time>
      </trkpt>
      <trkpt lat="43.92523" lon="1.85365">
        <ele>248.596412</ele>
        <time>2026-08-29T09:48:01Z</time>
      </trkpt>
      <trkpt lat="43.92523" lon="1.85363">
        <ele>248.715931</ele>
        <time>2026-08-29T09:48:02Z</time>
      </trkpt>
      <trkpt lat="43.92524" lon="1.85361">
        <ele>248.833357</ele>
        <time>2026-08-29T09:48:03Z</time>
      </trkpt>
      <trkpt lat="43.92525" lon="1.85359">
        <ele>248.944658</ele>
        <time>2026-08-29T09:48:04Z</time>
      </trkpt>
      <trkpt lat="43.92526" lon="1.85357">
        <ele>249.083871</ele>
        <time>2026-08-29T09:48:05Z</time>
      </trkpt>
      <trkpt lat="43.92526" lon="1.85354">
        <ele>249.224406</ele>
        <time>2026-08-29T09:48:06Z</time>
      </trkpt>
      <trkpt lat="43.92527" lon="1.85352">
        <ele>249.368428</ele>
        <time>2026-08-29T09:48:07Z</time>
      </trkpt>
      <trkpt lat="43.92528" lon="1.8535">
        <ele>249.510898</ele>
        <time>2026-08-29T09:48:08Z</time>
      </trkpt>
      <trkpt lat="43.92529" lon="1.85347">
        <ele>249.648284</ele>
        <time>2026-08-29T09:48:09Z</time>
      </trkpt>
      <trkpt lat="43.92529" lon="1.85346">
        <ele>249.754435</ele>
        <time>2026-08-29T09:48:10Z</time>
      </trkpt>
      <trkpt lat="43.9253" lon="1.85343">
        <ele>249.892952</ele>
        <time>2026-08-29T09:48:11Z</time>
      </trkpt>
      <trkpt lat="43.92531" lon="1.85341">
        <ele>250.036974</ele>
        <time>2026-08-29T09:48:12Z</time>
      </trkpt>
      <trkpt lat="43.92532" lon="1.85339">
        <ele>250.180996</ele>
        <time>2026-08-29T09:48:13Z</time>
      </trkpt>
      <trkpt lat="43.92533" lon="1.85336">
        <ele>250.350906</ele>
        <time>2026-08-29T09:48:14Z</time>
      </trkpt>
      <trkpt lat="43.92534" lon="1.85334">
        <ele>250.476031</ele>
        <time>2026-08-29T09:48:15Z</time>
      </trkpt>
      <trkpt lat="43.92535" lon="1.85333">
        <ele>250.5968</ele>
        <time>2026-08-29T09:48:16Z</time>
      </trkpt>
      <trkpt lat="43.92536" lon="1.85331">
        <ele>250.717366</ele>
        <time>2026-08-29T09:48:17Z</time>
      </trkpt>
      <trkpt lat="43.92537" lon="1.85329">
        <ele>250.846802</ele>
        <time>2026-08-29T09:48:18Z</time>
      </trkpt>
      <trkpt lat="43.92538" lon="1.85327">
        <ele>250.990028</ele>
        <time>2026-08-29T09:48:19Z</time>
      </trkpt>
      <trkpt lat="43.92538" lon="1.85324">
        <ele>251.147919</ele>
        <time>2026-08-29T09:48:20Z</time>
      </trkpt>
      <trkpt lat="43.92539" lon="1.85321">
        <ele>251.339849</ele>
        <time>2026-08-29T09:48:21Z</time>
      </trkpt>
      <trkpt lat="43.92541" lon="1.85318">
        <ele>251.520188</ele>
        <time>2026-08-29T09:48:22Z</time>
      </trkpt>
      <trkpt lat="43.92542" lon="1.85315">
        <ele>251.704212</ele>
        <time>2026-08-29T09:48:23Z</time>
      </trkpt>
      <trkpt lat="43.92543" lon="1.85312">
        <ele>251.897854</ele>
        <time>2026-08-29T09:48:24Z</time>
      </trkpt>
      <trkpt lat="43.92544" lon="1.85308">
        <ele>252.102337</ele>
        <time>2026-08-29T09:48:25Z</time>
      </trkpt>
      <trkpt lat="43.92545" lon="1.85306">
        <ele>252.274299</ele>
        <time>2026-08-29T09:48:26Z</time>
      </trkpt>
      <trkpt lat="43.92545" lon="1.85303">
        <ele>252.414081</ele>
        <time>2026-08-29T09:48:27Z</time>
      </trkpt>
      <trkpt lat="43.92546" lon="1.85301">
        <ele>252.546271</ele>
        <time>2026-08-29T09:48:28Z</time>
      </trkpt>
      <trkpt lat="43.92546" lon="1.85299">
        <ele>252.676459</ele>
        <time>2026-08-29T09:48:29Z</time>
      </trkpt>
      <trkpt lat="43.92547" lon="1.85296">
        <ele>252.811054</ele>
        <time>2026-08-29T09:48:30Z</time>
      </trkpt>
      <trkpt lat="43.92548" lon="1.85294">
        <ele>252.940534</ele>
        <time>2026-08-29T09:48:31Z</time>
      </trkpt>
      <trkpt lat="43.92549" lon="1.85292">
        <ele>253.094315</ele>
        <time>2026-08-29T09:48:32Z</time>
      </trkpt>
      <trkpt lat="43.9255" lon="1.8529">
        <ele>253.250581</ele>
        <time>2026-08-29T09:48:33Z</time>
      </trkpt>
      <trkpt lat="43.92551" lon="1.85287">
        <ele>253.407104</ele>
        <time>2026-08-29T09:48:34Z</time>
      </trkpt>
      <trkpt lat="43.92552" lon="1.85284">
        <ele>253.575811</ele>
        <time>2026-08-29T09:48:35Z</time>
      </trkpt>
      <trkpt lat="43.92553" lon="1.85282">
        <ele>253.732077</ele>
        <time>2026-08-29T09:48:36Z</time>
      </trkpt>
      <trkpt lat="43.92554" lon="1.8528">
        <ele>253.875216</ele>
        <time>2026-08-29T09:48:37Z</time>
      </trkpt>
      <trkpt lat="43.92555" lon="1.85278">
        <ele>254.004973</ele>
        <time>2026-08-29T09:48:38Z</time>
      </trkpt>
      <trkpt lat="43.92556" lon="1.85275">
        <ele>254.158753</ele>
        <time>2026-08-29T09:48:39Z</time>
      </trkpt>
      <trkpt lat="43.92557" lon="1.85273">
        <ele>254.316098</ele>
        <time>2026-08-29T09:48:40Z</time>
      </trkpt>
      <trkpt lat="43.92558" lon="1.85271">
        <ele>254.447068</ele>
        <time>2026-08-29T09:48:41Z</time>
      </trkpt>
      <trkpt lat="43.92559" lon="1.85269">
        <ele>254.590207</ele>
        <time>2026-08-29T09:48:42Z</time>
      </trkpt>
      <trkpt lat="43.9256" lon="1.85267">
        <ele>254.707992</ele>
        <time>2026-08-29T09:48:43Z</time>
      </trkpt>
      <trkpt lat="43.92562" lon="1.85266">
        <ele>254.843074</ele>
        <time>2026-08-29T09:48:44Z</time>
      </trkpt>
      <trkpt lat="43.92564" lon="1.85264">
        <ele>255.025153</ele>
        <time>2026-08-29T09:48:45Z</time>
      </trkpt>
      <trkpt lat="43.92565" lon="1.85262">
        <ele>255.186681</ele>
        <time>2026-08-29T09:48:46Z</time>
      </trkpt>
      <trkpt lat="43.92567" lon="1.85259">
        <ele>255.389113</ele>
        <time>2026-08-29T09:48:47Z</time>
      </trkpt>
      <trkpt lat="43.92569" lon="1.85256">
        <ele>255.608206</ele>
        <time>2026-08-29T09:48:48Z</time>
      </trkpt>
      <trkpt lat="43.9257" lon="1.85254">
        <ele>255.780232</ele>
        <time>2026-08-29T09:48:49Z</time>
      </trkpt>
      <trkpt lat="43.92572" lon="1.85252">
        <ele>255.942965</ele>
        <time>2026-08-29T09:48:50Z</time>
      </trkpt>
      <trkpt lat="43.92573" lon="1.85249">
        <ele>256.117114</ele>
        <time>2026-08-29T09:48:51Z</time>
      </trkpt>
      <trkpt lat="43.92575" lon="1.85248">
        <ele>256.27749</ele>
        <time>2026-08-29T09:48:52Z</time>
      </trkpt>
      <trkpt lat="43.92577" lon="1.85247">
        <ele>256.415565</ele>
        <time>2026-08-29T09:48:53Z</time>
      </trkpt>
      <trkpt lat="43.92578" lon="1.85245">
        <ele>256.547369</ele>
        <time>2026-08-29T09:48:54Z</time>
      </trkpt>
      <trkpt lat="43.9258" lon="1.85243">
        <ele>256.723087</ele>
        <time>2026-08-29T09:48:55Z</time>
      </trkpt>
      <trkpt lat="43.92582" lon="1.85241">
        <ele>256.942882</ele>
        <time>2026-08-29T09:48:56Z</time>
      </trkpt>
      <trkpt lat="43.92584" lon="1.85239">
        <ele>257.121759</ele>
        <time>2026-08-29T09:48:57Z</time>
      </trkpt>
      <trkpt lat="43.92586" lon="1.85237">
        <ele>257.294495</ele>
        <time>2026-08-29T09:48:58Z</time>
      </trkpt>
      <trkpt lat="43.92588" lon="1.85235">
        <ele>257.46723</ele>
        <time>2026-08-29T09:48:59Z</time>
      </trkpt>
      <trkpt lat="43.92589" lon="1.85234">
        <ele>257.62223</ele>
        <time>2026-08-29T09:49:00Z</time>
      </trkpt>
      <trkpt lat="43.92591" lon="1.85233">
        <ele>257.760305</ele>
        <time>2026-08-29T09:49:01Z</time>
      </trkpt>
      <trkpt lat="43.92592" lon="1.85231">
        <ele>257.870658</ele>
        <time>2026-08-29T09:49:02Z</time>
      </trkpt>
      <trkpt lat="43.92593" lon="1.85231">
        <ele>257.956212</ele>
        <time>2026-08-29T09:49:03Z</time>
      </trkpt>
      <trkpt lat="43.92594" lon="1.85229">
        <ele>258.055426</ele>
        <time>2026-08-29T09:49:04Z</time>
      </trkpt>
      <trkpt lat="43.92595" lon="1.85228">
        <ele>258.152889</ele>
        <time>2026-08-29T09:49:05Z</time>
      </trkpt>
      <trkpt lat="43.92596" lon="1.85227">
        <ele>258.247035</ele>
        <time>2026-08-29T09:49:06Z</time>
      </trkpt>
      <trkpt lat="43.92597" lon="1.85226">
        <ele>258.332589</ele>
        <time>2026-08-29T09:49:07Z</time>
      </trkpt>
      <trkpt lat="43.92598" lon="1.85226">
        <ele>258.439107</ele>
        <time>2026-08-29T09:49:08Z</time>
      </trkpt>
      <trkpt lat="43.92599" lon="1.85225">
        <ele>258.548957</ele>
        <time>2026-08-29T09:49:09Z</time>
      </trkpt>
      <trkpt lat="43.92601" lon="1.85224">
        <ele>258.658815</ele>
        <time>2026-08-29T09:49:10Z</time>
      </trkpt>
      <trkpt lat="43.92602" lon="1.85223">
        <ele>258.733971</ele>
        <time>2026-08-29T09:49:11Z</time>
      </trkpt>
      <trkpt lat="43.92603" lon="1.85222">
        <ele>258.796634</ele>
        <time>2026-08-29T09:49:12Z</time>
      </trkpt>
      <trkpt lat="43.92605" lon="1.85221">
        <ele>258.865861</ele>
        <time>2026-08-29T09:49:13Z</time>
      </trkpt>
      <trkpt lat="43.92606" lon="1.8522">
        <ele>258.931125</ele>
        <time>2026-08-29T09:49:14Z</time>
      </trkpt>
      <trkpt lat="43.92607" lon="1.85219">
        <ele>259.02001</ele>
        <time>2026-08-29T09:49:15Z</time>
      </trkpt>
      <trkpt lat="43.92609" lon="1.85217">
        <ele>259.111823</ele>
        <time>2026-08-29T09:49:16Z</time>
      </trkpt>
      <trkpt lat="43.9261" lon="1.85216">
        <ele>259.189268</ele>
        <time>2026-08-29T09:49:17Z</time>
      </trkpt>
      <trkpt lat="43.92612" lon="1.85216">
        <ele>259.266627</ele>
        <time>2026-08-29T09:49:18Z</time>
      </trkpt>
      <trkpt lat="43.92613" lon="1.85215">
        <ele>259.338264</ele>
        <time>2026-08-29T09:49:19Z</time>
      </trkpt>
      <trkpt lat="43.92615" lon="1.85214">
        <ele>259.407077</ele>
        <time>2026-08-29T09:49:20Z</time>
      </trkpt>
      <trkpt lat="43.92617" lon="1.85214">
        <ele>259.499594</ele>
        <time>2026-08-29T09:49:21Z</time>
      </trkpt>
      <trkpt lat="43.92618" lon="1.85214">
        <ele>259.577323</ele>
        <time>2026-08-29T09:49:22Z</time>
      </trkpt>
      <trkpt lat="43.92619" lon="1.85214">
        <ele>259.635094</ele>
        <time>2026-08-29T09:49:23Z</time>
      </trkpt>
      <trkpt lat="43.92621" lon="1.85214">
        <ele>259.69297</ele>
        <time>2026-08-29T09:49:24Z</time>
      </trkpt>
      <trkpt lat="43.92622" lon="1.85213">
        <ele>259.761783</ele>
        <time>2026-08-29T09:49:25Z</time>
      </trkpt>
      <trkpt lat="43.92623" lon="1.85213">
        <ele>259.819659</ele>
        <time>2026-08-29T09:49:26Z</time>
      </trkpt>
      <trkpt lat="43.92624" lon="1.85213">
        <ele>259.865153</ele>
        <time>2026-08-29T09:49:27Z</time>
      </trkpt>
      <trkpt lat="43.92625" lon="1.85213">
        <ele>259.914407</ele>
        <time>2026-08-29T09:49:28Z</time>
      </trkpt>
      <trkpt lat="43.92626" lon="1.85212">
        <ele>259.965577</ele>
        <time>2026-08-29T09:49:29Z</time>
      </trkpt>
      <trkpt lat="43.92628" lon="1.85212">
        <ele>260.033333</ele>
        <time>2026-08-29T09:49:30Z</time>
      </trkpt>
      <trkpt lat="43.92629" lon="1.85211">
        <ele>260.098276</ele>
        <time>2026-08-29T09:49:31Z</time>
      </trkpt>
      <trkpt lat="43.9263" lon="1.85211">
        <ele>260.17255</ele>
        <time>2026-08-29T09:49:32Z</time>
      </trkpt>
      <trkpt lat="43.92632" lon="1.8521">
        <ele>260.241363</ele>
        <time>2026-08-29T09:49:33Z</time>
      </trkpt>
      <trkpt lat="43.92633" lon="1.8521">
        <ele>260.309562</ele>
        <time>2026-08-29T09:49:34Z</time>
      </trkpt>
      <trkpt lat="43.92635" lon="1.85209">
        <ele>260.404199</ele>
        <time>2026-08-29T09:49:35Z</time>
      </trkpt>
      <trkpt lat="43.92637" lon="1.85208">
        <ele>260.498879</ele>
        <time>2026-08-29T09:49:36Z</time>
      </trkpt>
      <trkpt lat="43.92638" lon="1.85207">
        <ele>260.575064</ele>
        <time>2026-08-29T09:49:37Z</time>
      </trkpt>
      <trkpt lat="43.9264" lon="1.85207">
        <ele>260.66043</ele>
        <time>2026-08-29T09:49:38Z</time>
      </trkpt>
      <trkpt lat="43.92641" lon="1.85206">
        <ele>260.718617</ele>
        <time>2026-08-29T09:49:39Z</time>
      </trkpt>
      <trkpt lat="43.92643" lon="1.85206">
        <ele>260.792883</ele>
        <time>2026-08-29T09:49:40Z</time>
      </trkpt>
      <trkpt lat="43.92644" lon="1.85205">
        <ele>260.869068</ele>
        <time>2026-08-29T09:49:41Z</time>
      </trkpt>
      <trkpt lat="43.92645" lon="1.85204">
        <ele>260.939003</ele>
        <time>2026-08-29T09:49:42Z</time>
      </trkpt>
      <trkpt lat="43.92647" lon="1.85204">
        <ele>261.009541</ele>
        <time>2026-08-29T09:49:43Z</time>
      </trkpt>
      <trkpt lat="43.92648" lon="1.85203">
        <ele>261.059642</ele>
        <time>2026-08-29T09:49:44Z</time>
      </trkpt>
      <trkpt lat="43.92649" lon="1.85203">
        <ele>261.118343</ele>
        <time>2026-08-29T09:49:45Z</time>
      </trkpt>
      <trkpt lat="43.9265" lon="1.85203">
        <ele>261.142663</ele>
        <time>2026-08-29T09:49:46Z</time>
      </trkpt>
      <trkpt lat="43.9265" lon="1.85203">
        <ele>261.171756</ele>
        <time>2026-08-29T09:49:47Z</time>
      </trkpt>
      <trkpt lat="43.92651" lon="1.85203">
        <ele>261.229632</ele>
        <time>2026-08-29T09:49:48Z</time>
      </trkpt>
      <trkpt lat="43.92652" lon="1.85203">
        <ele>261.282703</ele>
        <time>2026-08-29T09:49:49Z</time>
      </trkpt>
      <trkpt lat="43.92653" lon="1.85203">
        <ele>261.331957</ele>
        <time>2026-08-29T09:49:50Z</time>
      </trkpt>
      <trkpt lat="43.92655" lon="1.85202">
        <ele>261.388854</ele>
        <time>2026-08-29T09:49:51Z</time>
      </trkpt>
      <trkpt lat="43.92656" lon="1.85201">
        <ele>261.468643</ele>
        <time>2026-08-29T09:49:52Z</time>
      </trkpt>
      <trkpt lat="43.92658" lon="1.85201">
        <ele>261.548433</ele>
        <time>2026-08-29T09:49:53Z</time>
      </trkpt>
      <trkpt lat="43.92659" lon="1.852">
        <ele>261.622699</ele>
        <time>2026-08-29T09:49:54Z</time>
      </trkpt>
      <trkpt lat="43.92661" lon="1.852">
        <ele>261.690189</ele>
        <time>2026-08-29T09:49:55Z</time>
      </trkpt>
      <trkpt lat="43.92662" lon="1.852">
        <ele>261.767218</ele>
        <time>2026-08-29T09:49:56Z</time>
      </trkpt>
      <trkpt lat="43.92664" lon="1.852">
        <ele>261.8299</ele>
        <time>2026-08-29T09:49:57Z</time>
      </trkpt>
      <trkpt lat="43.92665" lon="1.852">
        <ele>261.908856</ele>
        <time>2026-08-29T09:49:58Z</time>
      </trkpt>
      <trkpt lat="43.92666" lon="1.85199">
        <ele>261.97879</ele>
        <time>2026-08-29T09:49:59Z</time>
      </trkpt>
      <trkpt lat="43.92668" lon="1.85198">
        <ele>262.04209</ele>
        <time>2026-08-29T09:50:00Z</time>
      </trkpt>
      <trkpt lat="43.92669" lon="1.85196">
        <ele>262.111634</ele>
        <time>2026-08-29T09:50:01Z</time>
      </trkpt>
      <trkpt lat="43.92669" lon="1.85195">
        <ele>262.168332</ele>
        <time>2026-08-29T09:50:02Z</time>
      </trkpt>
      <trkpt lat="43.9267" lon="1.85194">
        <ele>262.213856</ele>
        <time>2026-08-29T09:50:03Z</time>
      </trkpt>
      <trkpt lat="43.9267" lon="1.85195">
        <ele>262.228031</ele>
        <time>2026-08-29T09:50:04Z</time>
      </trkpt>
      <trkpt lat="43.92681" lon="1.85189">
        <ele>262.812548</ele>
        <time>2026-08-29T09:54:51Z</time>
      </trkpt>
      <trkpt lat="43.92683" lon="1.85187">
        <ele>262.931208</ele>
        <time>2026-08-29T09:54:52Z</time>
      </trkpt>
      <trkpt lat="43.92686" lon="1.85185">
        <ele>263.076019</ele>
        <time>2026-08-29T09:54:53Z</time>
      </trkpt>
      <trkpt lat="43.92689" lon="1.85182">
        <ele>263.245609</ele>
        <time>2026-08-29T09:54:54Z</time>
      </trkpt>
      <trkpt lat="43.92691" lon="1.85178">
        <ele>263.399002</ele>
        <time>2026-08-29T09:54:55Z</time>
      </trkpt>
      <trkpt lat="43.92693" lon="1.85175">
        <ele>263.571656</ele>
        <time>2026-08-29T09:54:56Z</time>
      </trkpt>
      <trkpt lat="43.92695" lon="1.85172">
        <ele>263.709727</ele>
        <time>2026-08-29T09:54:57Z</time>
      </trkpt>
      <trkpt lat="43.92697" lon="1.85169">
        <ele>263.828305</ele>
        <time>2026-08-29T09:54:58Z</time>
      </trkpt>
      <trkpt lat="43.92699" lon="1.85167">
        <ele>263.945221</ele>
        <time>2026-08-29T09:54:59Z</time>
      </trkpt>
      <trkpt lat="43.92701" lon="1.85165">
        <ele>264.067819</ele>
        <time>2026-08-29T09:55:00Z</time>
      </trkpt>
      <trkpt lat="43.92703" lon="1.85163">
        <ele>264.206726</ele>
        <time>2026-08-29T09:55:01Z</time>
      </trkpt>
      <trkpt lat="43.92706" lon="1.85161">
        <ele>264.345633</ele>
        <time>2026-08-29T09:55:02Z</time>
      </trkpt>
      <trkpt lat="43.92708" lon="1.85158">
        <ele>264.500267</ele>
        <time>2026-08-29T09:55:03Z</time>
      </trkpt>
      <trkpt lat="43.92711" lon="1.85155">
        <ele>264.663966</ele>
        <time>2026-08-29T09:55:04Z</time>
      </trkpt>
      <trkpt lat="43.92714" lon="1.85151">
        <ele>264.846697</ele>
        <time>2026-08-29T09:55:05Z</time>
      </trkpt>
      <trkpt lat="43.92716" lon="1.85148">
        <ele>265.018646</ele>
        <time>2026-08-29T09:55:06Z</time>
      </trkpt>
      <trkpt lat="43.92718" lon="1.85145">
        <ele>265.180384</ele>
        <time>2026-08-29T09:55:07Z</time>
      </trkpt>
      <trkpt lat="43.92721" lon="1.85142">
        <ele>265.326428</ele>
        <time>2026-08-29T09:55:08Z</time>
      </trkpt>
      <trkpt lat="43.92722" lon="1.85139">
        <ele>265.464304</ele>
        <time>2026-08-29T09:55:09Z</time>
      </trkpt>
      <trkpt lat="43.92725" lon="1.85135">
        <ele>265.618624</ele>
        <time>2026-08-29T09:55:10Z</time>
      </trkpt>
      <trkpt lat="43.92727" lon="1.85132">
        <ele>265.800362</ele>
        <time>2026-08-29T09:55:11Z</time>
      </trkpt>
      <trkpt lat="43.9273" lon="1.85128">
        <ele>265.977836</ele>
        <time>2026-08-29T09:55:12Z</time>
      </trkpt>
      <trkpt lat="43.92732" lon="1.85123">
        <ele>266.160724</ele>
        <time>2026-08-29T09:55:13Z</time>
      </trkpt>
      <trkpt lat="43.92734" lon="1.85119">
        <ele>266.338198</ele>
        <time>2026-08-29T09:55:14Z</time>
      </trkpt>
      <trkpt lat="43.92736" lon="1.85116">
        <ele>266.501903</ele>
        <time>2026-08-29T09:55:15Z</time>
      </trkpt>
      <trkpt lat="43.92739" lon="1.85112">
        <ele>266.671493</ele>
        <time>2026-08-29T09:55:16Z</time>
      </trkpt>
      <trkpt lat="43.92741" lon="1.85109">
        <ele>266.831685</ele>
        <time>2026-08-29T09:55:17Z</time>
      </trkpt>
      <trkpt lat="43.92744" lon="1.85106">
        <ele>266.981257</ele>
        <time>2026-08-29T09:55:18Z</time>
      </trkpt>
      <trkpt lat="43.92746" lon="1.85103">
        <ele>267.158073</ele>
        <time>2026-08-29T09:55:19Z</time>
      </trkpt>
      <trkpt lat="43.92749" lon="1.85099">
        <ele>267.297825</ele>
        <time>2026-08-29T09:55:20Z</time>
      </trkpt>
      <trkpt lat="43.92752" lon="1.85096">
        <ele>267.262783</ele>
        <time>2026-08-29T09:55:21Z</time>
      </trkpt>
      <trkpt lat="43.92754" lon="1.85092">
        <ele>267.229709</ele>
        <time>2026-08-29T09:55:22Z</time>
      </trkpt>
      <trkpt lat="43.92756" lon="1.85088">
        <ele>267.193598</ele>
        <time>2026-08-29T09:55:23Z</time>
      </trkpt>
      <trkpt lat="43.92759" lon="1.85084">
        <ele>267.155332</ele>
        <time>2026-08-29T09:55:24Z</time>
      </trkpt>
      <trkpt lat="43.92762" lon="1.8508">
        <ele>267.11687</ele>
        <time>2026-08-29T09:55:25Z</time>
      </trkpt>
      <trkpt lat="43.92764" lon="1.85075">
        <ele>267.079117</ele>
        <time>2026-08-29T09:55:26Z</time>
      </trkpt>
      <trkpt lat="43.92767" lon="1.85071">
        <ele>267.04279</ele>
        <time>2026-08-29T09:55:27Z</time>
      </trkpt>
      <trkpt lat="43.9277" lon="1.85067">
        <ele>267.006053</ele>
        <time>2026-08-29T09:55:28Z</time>
      </trkpt>
      <trkpt lat="43.92773" lon="1.85063">
        <ele>266.966648</ele>
        <time>2026-08-29T09:55:29Z</time>
      </trkpt>
      <trkpt lat="43.92776" lon="1.85058">
        <ele>266.923819</ele>
        <time>2026-08-29T09:55:30Z</time>
      </trkpt>
      <trkpt lat="43.92779" lon="1.85055">
        <ele>266.881074</ele>
        <time>2026-08-29T09:55:31Z</time>
      </trkpt>
      <trkpt lat="43.92783" lon="1.85051">
        <ele>266.837177</ele>
        <time>2026-08-29T09:55:32Z</time>
      </trkpt>
      <trkpt lat="43.92786" lon="1.85046">
        <ele>266.797099</ele>
        <time>2026-08-29T09:55:33Z</time>
      </trkpt>
      <trkpt lat="43.92789" lon="1.85042">
        <ele>266.755877</ele>
        <time>2026-08-29T09:55:34Z</time>
      </trkpt>
      <trkpt lat="43.92793" lon="1.85038">
        <ele>266.715331</ele>
        <time>2026-08-29T09:55:35Z</time>
      </trkpt>
      <trkpt lat="43.92796" lon="1.85034">
        <ele>266.674785</ele>
        <time>2026-08-29T09:55:36Z</time>
      </trkpt>
      <trkpt lat="43.92799" lon="1.8503">
        <ele>266.634422</ele>
        <time>2026-08-29T09:55:37Z</time>
      </trkpt>
      <trkpt lat="43.92802" lon="1.85025">
        <ele>266.59421</ele>
        <time>2026-08-29T09:55:38Z</time>
      </trkpt>
      <trkpt lat="43.92804" lon="1.85021">
        <ele>266.555127</ele>
        <time>2026-08-29T09:55:39Z</time>
      </trkpt>
      <trkpt lat="43.92807" lon="1.85016">
        <ele>266.515703</ele>
        <time>2026-08-29T09:55:40Z</time>
      </trkpt>
      <trkpt lat="43.92809" lon="1.85011">
        <ele>266.4762</ele>
        <time>2026-08-29T09:55:41Z</time>
      </trkpt>
      <trkpt lat="43.92811" lon="1.85006">
        <ele>266.437302</ele>
        <time>2026-08-29T09:55:42Z</time>
      </trkpt>
      <trkpt lat="43.92813" lon="1.85001">
        <ele>266.400374</ele>
        <time>2026-08-29T09:55:43Z</time>
      </trkpt>
      <trkpt lat="43.92815" lon="1.84996">
        <ele>266.362083</ele>
        <time>2026-08-29T09:55:44Z</time>
      </trkpt>
      <trkpt lat="43.92816" lon="1.84991">
        <ele>266.323582</ele>
        <time>2026-08-29T09:55:45Z</time>
      </trkpt>
      <trkpt lat="43.92818" lon="1.84986">
        <ele>266.285895</ele>
        <time>2026-08-29T09:55:46Z</time>
      </trkpt>
      <trkpt lat="43.9282" lon="1.84981">
        <ele>266.245814</ele>
        <time>2026-08-29T09:55:47Z</time>
      </trkpt>
      <trkpt lat="43.92822" lon="1.84975">
        <ele>266.202649</ele>
        <time>2026-08-29T09:55:48Z</time>
      </trkpt>
      <trkpt lat="43.92825" lon="1.84969">
        <ele>266.157417</ele>
        <time>2026-08-29T09:55:49Z</time>
      </trkpt>
      <trkpt lat="43.92827" lon="1.84963">
        <ele>266.112186</ele>
        <time>2026-08-29T09:55:50Z</time>
      </trkpt>
      <trkpt lat="43.92829" lon="1.84958">
        <ele>266.068419</ele>
        <time>2026-08-29T09:55:51Z</time>
      </trkpt>
      <trkpt lat="43.92831" lon="1.84952">
        <ele>266.025253</ele>
        <time>2026-08-29T09:55:52Z</time>
      </trkpt>
      <trkpt lat="43.92833" lon="1.84946">
        <ele>265.982907</ele>
        <time>2026-08-29T09:55:53Z</time>
      </trkpt>
      <trkpt lat="43.92835" lon="1.84941">
        <ele>265.942567</ele>
        <time>2026-08-29T09:55:54Z</time>
      </trkpt>
      <trkpt lat="43.92837" lon="1.84936">
        <ele>265.901907</ele>
        <time>2026-08-29T09:55:55Z</time>
      </trkpt>
      <trkpt lat="43.92839" lon="1.84931">
        <ele>265.862755</ele>
        <time>2026-08-29T09:55:56Z</time>
      </trkpt>
      <trkpt lat="43.92842" lon="1.84926">
        <ele>265.824396</ele>
        <time>2026-08-29T09:55:57Z</time>
      </trkpt>
      <trkpt lat="43.92844" lon="1.84921">
        <ele>265.785954</ele>
        <time>2026-08-29T09:55:58Z</time>
      </trkpt>
      <trkpt lat="43.92846" lon="1.84916">
        <ele>265.746803</ele>
        <time>2026-08-29T09:55:59Z</time>
      </trkpt>
      <trkpt lat="43.92847" lon="1.84911">
        <ele>265.708512</ele>
        <time>2026-08-29T09:56:00Z</time>
      </trkpt>
      <trkpt lat="43.92849" lon="1.84906">
        <ele>265.671007</ele>
        <time>2026-08-29T09:56:01Z</time>
      </trkpt>
      <trkpt lat="43.92851" lon="1.84901">
        <ele>265.635712</ele>
        <time>2026-08-29T09:56:02Z</time>
      </trkpt>
      <trkpt lat="43.92852" lon="1.84896">
        <ele>265.598753</ele>
        <time>2026-08-29T09:56:03Z</time>
      </trkpt>
      <trkpt lat="43.92854" lon="1.84892">
        <ele>265.558062</ele>
        <time>2026-08-29T09:56:04Z</time>
      </trkpt>
      <trkpt lat="43.92855" lon="1.84887">
        <ele>265.516657</ele>
        <time>2026-08-29T09:56:05Z</time>
      </trkpt>
      <trkpt lat="43.92857" lon="1.84882">
        <ele>265.477104</ele>
        <time>2026-08-29T09:56:06Z</time>
      </trkpt>
      <trkpt lat="43.92858" lon="1.84878">
        <ele>265.442267</ele>
        <time>2026-08-29T09:56:07Z</time>
      </trkpt>
      <trkpt lat="43.92859" lon="1.84874">
        <ele>265.406001</ele>
        <time>2026-08-29T09:56:08Z</time>
      </trkpt>
      <trkpt lat="43.9286" lon="1.8487">
        <ele>265.373429</ele>
        <time>2026-08-29T09:56:09Z</time>
      </trkpt>
      <trkpt lat="43.92862" lon="1.84866">
        <ele>265.34158</ele>
        <time>2026-08-29T09:56:10Z</time>
      </trkpt>
      <trkpt lat="43.92863" lon="1.84862">
        <ele>265.309009</ele>
        <time>2026-08-29T09:56:11Z</time>
      </trkpt>
      <trkpt lat="43.92864" lon="1.84858">
        <ele>265.274608</ele>
        <time>2026-08-29T09:56:12Z</time>
      </trkpt>
      <trkpt lat="43.92865" lon="1.84853">
        <ele>265.235095</ele>
        <time>2026-08-29T09:56:13Z</time>
      </trkpt>
      <trkpt lat="43.92866" lon="1.84848">
        <ele>265.195182</ele>
        <time>2026-08-29T09:56:14Z</time>
      </trkpt>
      <trkpt lat="43.92867" lon="1.84843">
        <ele>265.154573</ele>
        <time>2026-08-29T09:56:15Z</time>
      </trkpt>
      <trkpt lat="43.92868" lon="1.84838">
        <ele>265.115794</ele>
        <time>2026-08-29T09:56:16Z</time>
      </trkpt>
      <trkpt lat="43.92869" lon="1.84834">
        <ele>265.080224</ele>
        <time>2026-08-29T09:56:17Z</time>
      </trkpt>
      <trkpt lat="43.9287" lon="1.8483">
        <ele>265.046927</ele>
        <time>2026-08-29T09:56:18Z</time>
      </trkpt>
      <trkpt lat="43.92871" lon="1.84826">
        <ele>265.011356</ele>
        <time>2026-08-29T09:56:19Z</time>
      </trkpt>
      <trkpt lat="43.92873" lon="1.84822">
        <ele>264.978641</ele>
        <time>2026-08-29T09:56:20Z</time>
      </trkpt>
      <trkpt lat="43.92874" lon="1.84818">
        <ele>264.946374</ele>
        <time>2026-08-29T09:56:21Z</time>
      </trkpt>
      <trkpt lat="43.92875" lon="1.84815">
        <ele>264.916682</ele>
        <time>2026-08-29T09:56:22Z</time>
      </trkpt>
      <trkpt lat="43.92876" lon="1.84811">
        <ele>264.885574</ele>
        <time>2026-08-29T09:56:23Z</time>
      </trkpt>
      <trkpt lat="43.92877" lon="1.84807">
        <ele>264.851789</ele>
        <time>2026-08-29T09:56:24Z</time>
      </trkpt>
      <trkpt lat="43.92878" lon="1.84802">
        <ele>264.815201</ele>
        <time>2026-08-29T09:56:25Z</time>
      </trkpt>
      <trkpt lat="43.92879" lon="1.84798">
        <ele>264.775688</ele>
        <time>2026-08-29T09:56:26Z</time>
      </trkpt>
      <trkpt lat="43.92881" lon="1.84793">
        <ele>264.73691</ele>
        <time>2026-08-29T09:56:27Z</time>
      </trkpt>
      <trkpt lat="43.92882" lon="1.84788">
        <ele>264.695508</ele>
        <time>2026-08-29T09:56:28Z</time>
      </trkpt>
      <trkpt lat="43.92883" lon="1.84782">
        <ele>264.650818</ele>
        <time>2026-08-29T09:56:29Z</time>
      </trkpt>
      <trkpt lat="43.92884" lon="1.84777">
        <ele>264.608354</ele>
        <time>2026-08-29T09:56:30Z</time>
      </trkpt>
      <trkpt lat="43.92885" lon="1.84772">
        <ele>264.567697</ele>
        <time>2026-08-29T09:56:31Z</time>
      </trkpt>
      <trkpt lat="43.92887" lon="1.84767">
        <ele>264.528545</ele>
        <time>2026-08-29T09:56:32Z</time>
      </trkpt>
      <trkpt lat="43.92888" lon="1.84763">
        <ele>264.490398</ele>
        <time>2026-08-29T09:56:33Z</time>
      </trkpt>
      <trkpt lat="43.9289" lon="1.84759">
        <ele>264.449277</ele>
        <time>2026-08-29T09:56:34Z</time>
      </trkpt>
      <trkpt lat="43.92892" lon="1.84754">
        <ele>264.40938</ele>
        <time>2026-08-29T09:56:35Z</time>
      </trkpt>
      <trkpt lat="43.92894" lon="1.8475">
        <ele>264.37081</ele>
        <time>2026-08-29T09:56:36Z</time>
      </trkpt>
      <trkpt lat="43.92896" lon="1.84746">
        <ele>264.335906</ele>
        <time>2026-08-29T09:56:37Z</time>
      </trkpt>
      <trkpt lat="43.92897" lon="1.84742">
        <ele>264.301118</ele>
        <time>2026-08-29T09:56:38Z</time>
      </trkpt>
      <trkpt lat="43.92899" lon="1.84739">
        <ele>264.265748</ele>
        <time>2026-08-29T09:56:39Z</time>
      </trkpt>
      <trkpt lat="43.92901" lon="1.84735">
        <ele>264.229113</ele>
        <time>2026-08-29T09:56:40Z</time>
      </trkpt>
      <trkpt lat="43.92904" lon="1.84732">
        <ele>264.191867</ele>
        <time>2026-08-29T09:56:41Z</time>
      </trkpt>
      <trkpt lat="43.92906" lon="1.84728">
        <ele>264.154845</ele>
        <time>2026-08-29T09:56:42Z</time>
      </trkpt>
      <trkpt lat="43.92908" lon="1.84725">
        <ele>264.119687</ele>
        <time>2026-08-29T09:56:43Z</time>
      </trkpt>
      <trkpt lat="43.92911" lon="1.84722">
        <ele>264.085613</ele>
        <time>2026-08-29T09:56:44Z</time>
      </trkpt>
      <trkpt lat="43.92913" lon="1.8472">
        <ele>264.057573</ele>
        <time>2026-08-29T09:56:45Z</time>
      </trkpt>
      <trkpt lat="43.92915" lon="1.84718">
        <ele>264.033052</ele>
        <time>2026-08-29T09:56:46Z</time>
      </trkpt>
      <trkpt lat="43.92917" lon="1.84718">
        <ele>264.01367</ele>
        <time>2026-08-29T09:56:47Z</time>
      </trkpt>
      <trkpt lat="43.92917" lon="1.84717">
        <ele>264.006534</ele>
        <time>2026-08-29T09:56:48Z</time>
      </trkpt>
      <trkpt lat="43.92917" lon="1.84717">
        <ele>264.004641</ele>
        <time>2026-08-29T09:56:49Z</time>
      </trkpt>
      <trkpt lat="43.92917" lon="1.84717">
        <ele>264.000649</ele>
        <time>2026-08-29T09:56:50Z</time>
      </trkpt>
      <trkpt lat="43.92918" lon="1.8471">
        <ele>263.941966</ele>
        <time>2026-08-29T10:02:13Z</time>
      </trkpt>
      <trkpt lat="43.92917" lon="1.84707">
        <ele>263.919728</ele>
        <time>2026-08-29T10:02:14Z</time>
      </trkpt>
      <trkpt lat="43.92915" lon="1.84707">
        <ele>263.895858</ele>
        <time>2026-08-29T10:02:15Z</time>
      </trkpt>
      <trkpt lat="43.92912" lon="1.84708">
        <ele>263.868156</ele>
        <time>2026-08-29T10:02:16Z</time>
      </trkpt>
      <trkpt lat="43.9291" lon="1.84709">
        <ele>263.842025</ele>
        <time>2026-08-29T10:02:17Z</time>
      </trkpt>
      <trkpt lat="43.92908" lon="1.84711">
        <ele>263.814474</ele>
        <time>2026-08-29T10:02:18Z</time>
      </trkpt>
      <trkpt lat="43.92906" lon="1.84713">
        <ele>263.787357</ele>
        <time>2026-08-29T10:02:19Z</time>
      </trkpt>
      <trkpt lat="43.92903" lon="1.84714">
        <ele>263.756949</ele>
        <time>2026-08-29T10:02:20Z</time>
      </trkpt>
      <trkpt lat="43.929" lon="1.84716">
        <ele>263.723632</ele>
        <time>2026-08-29T10:02:21Z</time>
      </trkpt>
      <trkpt lat="43.92897" lon="1.84718">
        <ele>263.689202</ele>
        <time>2026-08-29T10:02:22Z</time>
      </trkpt>
      <trkpt lat="43.92894" lon="1.8472">
        <ele>263.650149</ele>
        <time>2026-08-29T10:02:23Z</time>
      </trkpt>
      <trkpt lat="43.92891" lon="1.84721">
        <ele>263.607937</ele>
        <time>2026-08-29T10:02:24Z</time>
      </trkpt>
      <trkpt lat="43.92887" lon="1.84723">
        <ele>263.562501</ele>
        <time>2026-08-29T10:02:25Z</time>
      </trkpt>
      <trkpt lat="43.92883" lon="1.84725">
        <ele>263.517868</ele>
        <time>2026-08-29T10:02:26Z</time>
      </trkpt>
      <trkpt lat="43.92879" lon="1.84727">
        <ele>263.469688</ele>
        <time>2026-08-29T10:02:27Z</time>
      </trkpt>
      <trkpt lat="43.92875" lon="1.84728">
        <ele>263.41974</ele>
        <time>2026-08-29T10:02:28Z</time>
      </trkpt>
      <trkpt lat="43.92871" lon="1.8473">
        <ele>263.369353</ele>
        <time>2026-08-29T10:02:29Z</time>
      </trkpt>
      <trkpt lat="43.92867" lon="1.84732">
        <ele>263.317652</ele>
        <time>2026-08-29T10:02:30Z</time>
      </trkpt>
      <trkpt lat="43.92862" lon="1.84734">
        <ele>263.265422</ele>
        <time>2026-08-29T10:02:31Z</time>
      </trkpt>
      <trkpt lat="43.92858" lon="1.84736">
        <ele>263.214283</ele>
        <time>2026-08-29T10:02:32Z</time>
      </trkpt>
      <trkpt lat="43.92854" lon="1.84738">
        <ele>263.162283</ele>
        <time>2026-08-29T10:02:33Z</time>
      </trkpt>
      <trkpt lat="43.9285" lon="1.84741">
        <ele>263.111658</ele>
        <time>2026-08-29T10:02:34Z</time>
      </trkpt>
      <trkpt lat="43.92846" lon="1.84742">
        <ele>263.061033</ele>
        <time>2026-08-29T10:02:35Z</time>
      </trkpt>
      <trkpt lat="43.92842" lon="1.84745">
        <ele>263.010408</ele>
        <time>2026-08-29T10:02:36Z</time>
      </trkpt>
      <trkpt lat="43.92838" lon="1.84747">
        <ele>262.95984</ele>
        <time>2026-08-29T10:02:37Z</time>
      </trkpt>
      <trkpt lat="43.92834" lon="1.84749">
        <ele>262.910874</ele>
        <time>2026-08-29T10:02:38Z</time>
      </trkpt>
      <trkpt lat="43.92829" lon="1.84751">
        <ele>262.860359</ele>
        <time>2026-08-29T10:02:39Z</time>
      </trkpt>
      <trkpt lat="43.92825" lon="1.84751">
        <ele>262.806964</ele>
        <time>2026-08-29T10:02:40Z</time>
      </trkpt>
      <trkpt lat="43.9282" lon="1.84752">
        <ele>262.749922</ele>
        <time>2026-08-29T10:02:41Z</time>
      </trkpt>
      <trkpt lat="43.92815" lon="1.84753">
        <ele>262.694137</ele>
        <time>2026-08-29T10:02:42Z</time>
      </trkpt>
      <trkpt lat="43.9281" lon="1.84753">
        <ele>262.635392</ele>
        <time>2026-08-29T10:02:43Z</time>
      </trkpt>
      <trkpt lat="43.92805" lon="1.84752">
        <ele>262.574679</ele>
        <time>2026-08-29T10:02:44Z</time>
      </trkpt>
      <trkpt lat="43.928" lon="1.8475">
        <ele>262.518369</ele>
        <time>2026-08-29T10:02:45Z</time>
      </trkpt>
      <trkpt lat="43.92796" lon="1.84747">
        <ele>262.460183</ele>
        <time>2026-08-29T10:02:46Z</time>
      </trkpt>
      <trkpt lat="43.92791" lon="1.84743">
        <ele>262.403766</ele>
        <time>2026-08-29T10:02:47Z</time>
      </trkpt>
      <trkpt lat="43.92787" lon="1.8474">
        <ele>262.348409</ele>
        <time>2026-08-29T10:02:48Z</time>
      </trkpt>
      <trkpt lat="43.92784" lon="1.84735">
        <ele>262.293886</ele>
        <time>2026-08-29T10:02:49Z</time>
      </trkpt>
      <trkpt lat="43.92781" lon="1.84731">
        <ele>262.240836</ele>
        <time>2026-08-29T10:02:50Z</time>
      </trkpt>
      <trkpt lat="43.92778" lon="1.84726">
        <ele>262.188332</ele>
        <time>2026-08-29T10:02:51Z</time>
      </trkpt>
      <trkpt lat="43.92775" lon="1.8472">
        <ele>262.134382</ele>
        <time>2026-08-29T10:02:52Z</time>
      </trkpt>
      <trkpt lat="43.92773" lon="1.84715">
        <ele>262.07981</ele>
        <time>2026-08-29T10:02:53Z</time>
      </trkpt>
      <trkpt lat="43.9277" lon="1.8471">
        <ele>262.026634</ele>
        <time>2026-08-29T10:02:54Z</time>
      </trkpt>
      <trkpt lat="43.92768" lon="1.84704">
        <ele>261.972685</ele>
        <time>2026-08-29T10:02:55Z</time>
      </trkpt>
      <trkpt lat="43.92765" lon="1.84699">
        <ele>261.920645</ele>
        <time>2026-08-29T10:02:56Z</time>
      </trkpt>
      <trkpt lat="43.92763" lon="1.84693">
        <ele>261.867302</ele>
        <time>2026-08-29T10:02:57Z</time>
      </trkpt>
      <trkpt lat="43.9276" lon="1.84688">
        <ele>261.81544</ele>
        <time>2026-08-29T10:02:58Z</time>
      </trkpt>
      <trkpt lat="43.92758" lon="1.84683">
        <ele>261.764949</ele>
        <time>2026-08-29T10:02:59Z</time>
      </trkpt>
      <trkpt lat="43.92756" lon="1.84678">
        <ele>261.717052</ele>
        <time>2026-08-29T10:03:00Z</time>
      </trkpt>
      <trkpt lat="43.92753" lon="1.84673">
        <ele>261.669857</ele>
        <time>2026-08-29T10:03:01Z</time>
      </trkpt>
      <trkpt lat="43.92751" lon="1.84668">
        <ele>261.620544</ele>
        <time>2026-08-29T10:03:02Z</time>
      </trkpt>
      <trkpt lat="43.92749" lon="1.84663">
        <ele>261.584954</ele>
        <time>2026-08-29T10:03:03Z</time>
      </trkpt>
      <trkpt lat="43.92747" lon="1.84658">
        <ele>261.553405</ele>
        <time>2026-08-29T10:03:04Z</time>
      </trkpt>
      <trkpt lat="43.92745" lon="1.84653">
        <ele>261.519698</ele>
        <time>2026-08-29T10:03:05Z</time>
      </trkpt>
      <trkpt lat="43.92743" lon="1.84648">
        <ele>261.486936</ele>
        <time>2026-08-29T10:03:06Z</time>
      </trkpt>
      <trkpt lat="43.92741" lon="1.84644">
        <ele>261.455065</ele>
        <time>2026-08-29T10:03:07Z</time>
      </trkpt>
      <trkpt lat="43.92738" lon="1.84639">
        <ele>261.42323</ele>
        <time>2026-08-29T10:03:08Z</time>
      </trkpt>
      <trkpt lat="43.92735" lon="1.84634">
        <ele>261.390032</ele>
        <time>2026-08-29T10:03:09Z</time>
      </trkpt>
      <trkpt lat="43.92732" lon="1.8463">
        <ele>261.354208</ele>
        <time>2026-08-29T10:03:10Z</time>
      </trkpt>
      <trkpt lat="43.92729" lon="1.84626">
        <ele>261.31939</ele>
        <time>2026-08-29T10:03:11Z</time>
      </trkpt>
      <trkpt lat="43.92726" lon="1.84622">
        <ele>261.285443</ele>
        <time>2026-08-29T10:03:12Z</time>
      </trkpt>
      <trkpt lat="43.92722" lon="1.84619">
        <ele>261.251718</ele>
        <time>2026-08-29T10:03:13Z</time>
      </trkpt>
      <trkpt lat="43.92718" lon="1.84616">
        <ele>261.217151</ele>
        <time>2026-08-29T10:03:14Z</time>
      </trkpt>
      <trkpt lat="43.92714" lon="1.84612">
        <ele>261.18163</ele>
        <time>2026-08-29T10:03:15Z</time>
      </trkpt>
      <trkpt lat="43.9271" lon="1.84609">
        <ele>261.146163</ele>
        <time>2026-08-29T10:03:16Z</time>
      </trkpt>
      <trkpt lat="43.92706" lon="1.84605">
        <ele>261.110383</ele>
        <time>2026-08-29T10:03:17Z</time>
      </trkpt>
      <trkpt lat="43.92703" lon="1.84602">
        <ele>261.075562</ele>
        <time>2026-08-29T10:03:18Z</time>
      </trkpt>
      <trkpt lat="43.92699" lon="1.84599">
        <ele>261.040996</ele>
        <time>2026-08-29T10:03:19Z</time>
      </trkpt>
      <trkpt lat="43.92695" lon="1.84596">
        <ele>261.006319</ele>
        <time>2026-08-29T10:03:20Z</time>
      </trkpt>
      <trkpt lat="43.92691" lon="1.84592">
        <ele>260.970502</ele>
        <time>2026-08-29T10:03:21Z</time>
      </trkpt>
      <trkpt lat="43.92687" lon="1.84589">
        <ele>260.934873</ele>
        <time>2026-08-29T10:03:22Z</time>
      </trkpt>
      <trkpt lat="43.92683" lon="1.84586">
        <ele>260.897612</ele>
        <time>2026-08-29T10:03:23Z</time>
      </trkpt>
      <trkpt lat="43.92679" lon="1.84583">
        <ele>260.859237</ele>
        <time>2026-08-29T10:03:24Z</time>
      </trkpt>
      <trkpt lat="43.92674" lon="1.84579">
        <ele>260.818706</ele>
        <time>2026-08-29T10:03:25Z</time>
      </trkpt>
      <trkpt lat="43.92669" lon="1.84576">
        <ele>260.778175</ele>
        <time>2026-08-29T10:03:26Z</time>
      </trkpt>
      <trkpt lat="43.92664" lon="1.84573">
        <ele>260.734647</ele>
        <time>2026-08-29T10:03:27Z</time>
      </trkpt>
      <trkpt lat="43.9266" lon="1.8457">
        <ele>260.694414</ele>
        <time>2026-08-29T10:03:28Z</time>
      </trkpt>
      <trkpt lat="43.92655" lon="1.84567">
        <ele>260.6537</ele>
        <time>2026-08-29T10:03:29Z</time>
      </trkpt>
      <trkpt lat="43.9265" lon="1.84564">
        <ele>260.613827</ele>
        <time>2026-08-29T10:03:30Z</time>
      </trkpt>
      <trkpt lat="43.92645" lon="1.84562">
        <ele>260.573597</ele>
        <time>2026-08-29T10:03:31Z</time>
      </trkpt>
      <trkpt lat="43.9264" lon="1.84561">
        <ele>260.534898</ele>
        <time>2026-08-29T10:03:32Z</time>
      </trkpt>
      <trkpt lat="43.92635" lon="1.8456">
        <ele>260.49736</ele>
        <time>2026-08-29T10:03:33Z</time>
      </trkpt>
      <trkpt lat="43.92631" lon="1.84559">
        <ele>260.460378</ele>
        <time>2026-08-29T10:03:34Z</time>
      </trkpt>
      <trkpt lat="43.92626" lon="1.84558">
        <ele>260.424933</ele>
        <time>2026-08-29T10:03:35Z</time>
      </trkpt>
      <trkpt lat="43.92622" lon="1.84558">
        <ele>260.388999</ele>
        <time>2026-08-29T10:03:36Z</time>
      </trkpt>
      <trkpt lat="43.92617" lon="1.84557">
        <ele>260.353981</ele>
        <time>2026-08-29T10:03:37Z</time>
      </trkpt>
      <trkpt lat="43.92613" lon="1.84557">
        <ele>260.319686</ele>
        <time>2026-08-29T10:03:38Z</time>
      </trkpt>
      <trkpt lat="43.92608" lon="1.84557">
        <ele>260.283839</ele>
        <time>2026-08-29T10:03:39Z</time>
      </trkpt>
      <trkpt lat="43.92603" lon="1.84556">
        <ele>260.247904</ele>
        <time>2026-08-29T10:03:40Z</time>
      </trkpt>
      <trkpt lat="43.92599" lon="1.84555">
        <ele>260.212685</ele>
        <time>2026-08-29T10:03:41Z</time>
      </trkpt>
      <trkpt lat="43.92594" lon="1.84555">
        <ele>260.373666</ele>
        <time>2026-08-29T10:03:42Z</time>
      </trkpt>
      <trkpt lat="43.9259" lon="1.84555">
        <ele>260.551522</ele>
        <time>2026-08-29T10:03:43Z</time>
      </trkpt>
      <trkpt lat="43.92586" lon="1.84555">
        <ele>260.721132</ele>
        <time>2026-08-29T10:03:44Z</time>
      </trkpt>
      <trkpt lat="43.92582" lon="1.84556">
        <ele>260.88313</ele>
        <time>2026-08-29T10:03:45Z</time>
      </trkpt>
      <trkpt lat="43.92579" lon="1.84556">
        <ele>261.028996</ele>
        <time>2026-08-29T10:03:46Z</time>
      </trkpt>
      <trkpt lat="43.92575" lon="1.84556">
        <ele>261.169658</ele>
        <time>2026-08-29T10:03:47Z</time>
      </trkpt>
      <trkpt lat="43.92572" lon="1.84556">
        <ele>261.306282</ele>
        <time>2026-08-29T10:03:48Z</time>
      </trkpt>
      <trkpt lat="43.92569" lon="1.84556">
        <ele>261.427153</ele>
        <time>2026-08-29T10:03:49Z</time>
      </trkpt>
      <trkpt lat="43.92566" lon="1.84555">
        <ele>261.548427</ele>
        <time>2026-08-29T10:03:50Z</time>
      </trkpt>
      <trkpt lat="43.92563" lon="1.84555">
        <ele>261.660739</ele>
        <time>2026-08-29T10:03:51Z</time>
      </trkpt>
      <trkpt lat="43.92561" lon="1.84554">
        <ele>261.776896</ele>
        <time>2026-08-29T10:03:52Z</time>
      </trkpt>
      <trkpt lat="43.92558" lon="1.84554">
        <ele>261.888732</ele>
        <time>2026-08-29T10:03:53Z</time>
      </trkpt>
      <trkpt lat="43.92555" lon="1.84554">
        <ele>261.992309</ele>
        <time>2026-08-29T10:03:54Z</time>
      </trkpt>
      <trkpt lat="43.92553" lon="1.84554">
        <ele>262.091577</ele>
        <time>2026-08-29T10:03:55Z</time>
      </trkpt>
      <trkpt lat="43.92551" lon="1.84554">
        <ele>262.186896</ele>
        <time>2026-08-29T10:03:56Z</time>
      </trkpt>
      <trkpt lat="43.92548" lon="1.84554">
        <ele>262.277892</ele>
        <time>2026-08-29T10:03:57Z</time>
      </trkpt>
      <trkpt lat="43.92546" lon="1.84553">
        <ele>262.362525</ele>
        <time>2026-08-29T10:03:58Z</time>
      </trkpt>
      <trkpt lat="43.92545" lon="1.84553">
        <ele>262.444647</ele>
        <time>2026-08-29T10:03:59Z</time>
      </trkpt>
      <trkpt lat="43.92542" lon="1.84553">
        <ele>262.531558</ele>
        <time>2026-08-29T10:04:00Z</time>
      </trkpt>
      <trkpt lat="43.9254" lon="1.84553">
        <ele>262.620238</ele>
        <time>2026-08-29T10:04:01Z</time>
      </trkpt>
      <trkpt lat="43.92538" lon="1.84553">
        <ele>262.711283</ele>
        <time>2026-08-29T10:04:02Z</time>
      </trkpt>
      <trkpt lat="43.92536" lon="1.84553">
        <ele>262.806602</ele>
        <time>2026-08-29T10:04:03Z</time>
      </trkpt>
      <trkpt lat="43.92534" lon="1.84553">
        <ele>262.893666</ele>
        <time>2026-08-29T10:04:04Z</time>
      </trkpt>
      <trkpt lat="43.92532" lon="1.84552">
        <ele>262.978978</ele>
        <time>2026-08-29T10:04:05Z</time>
      </trkpt>
      <trkpt lat="43.9253" lon="1.84551">
        <ele>263.067106</ele>
        <time>2026-08-29T10:04:06Z</time>
      </trkpt>
      <trkpt lat="43.92527" lon="1.84551">
        <ele>263.164498</ele>
        <time>2026-08-29T10:04:07Z</time>
      </trkpt>
      <trkpt lat="43.92525" lon="1.8455">
        <ele>263.26257</ele>
        <time>2026-08-29T10:04:08Z</time>
      </trkpt>
      <trkpt lat="43.92523" lon="1.84549">
        <ele>263.357434</ele>
        <time>2026-08-29T10:04:09Z</time>
      </trkpt>
      <trkpt lat="43.92521" lon="1.84548">
        <ele>263.446762</ele>
        <time>2026-08-29T10:04:10Z</time>
      </trkpt>
      <trkpt lat="43.92519" lon="1.84548">
        <ele>263.522161</ele>
        <time>2026-08-29T10:04:11Z</time>
      </trkpt>
      <trkpt lat="43.92517" lon="1.84547">
        <ele>263.594736</ele>
        <time>2026-08-29T10:04:12Z</time>
      </trkpt>
      <trkpt lat="43.92516" lon="1.84546">
        <ele>263.670663</ele>
        <time>2026-08-29T10:04:13Z</time>
      </trkpt>
      <trkpt lat="43.92514" lon="1.84546">
        <ele>263.741003</ele>
        <time>2026-08-29T10:04:14Z</time>
      </trkpt>
      <trkpt lat="43.92513" lon="1.84545">
        <ele>263.806123</ele>
        <time>2026-08-29T10:04:15Z</time>
      </trkpt>
      <trkpt lat="43.92511" lon="1.84544">
        <ele>263.867671</ele>
        <time>2026-08-29T10:04:16Z</time>
      </trkpt>
      <trkpt lat="43.9251" lon="1.84544">
        <ele>263.922179</ele>
        <time>2026-08-29T10:04:17Z</time>
      </trkpt>
      <trkpt lat="43.92509" lon="1.84543">
        <ele>263.968055</ele>
        <time>2026-08-29T10:04:18Z</time>
      </trkpt>
      <trkpt lat="43.92508" lon="1.84542">
        <ele>264.007168</ele>
        <time>2026-08-29T10:04:19Z</time>
      </trkpt>
      <trkpt lat="43.92507" lon="1.84541">
        <ele>264.076831</ele>
        <time>2026-08-29T10:04:20Z</time>
      </trkpt>
      <trkpt lat="43.92506" lon="1.84539">
        <ele>264.141662</ele>
        <time>2026-08-29T10:04:21Z</time>
      </trkpt>
      <trkpt lat="43.92504" lon="1.84538">
        <ele>264.201411</ele>
        <time>2026-08-29T10:04:22Z</time>
      </trkpt>
      <trkpt lat="43.92503" lon="1.84537">
        <ele>264.263133</ele>
        <time>2026-08-29T10:04:23Z</time>
      </trkpt>
      <trkpt lat="43.92502" lon="1.84534">
        <ele>264.362322</ele>
        <time>2026-08-29T10:04:24Z</time>
      </trkpt>
      <trkpt lat="43.925" lon="1.84532">
        <ele>264.458446</ele>
        <time>2026-08-29T10:04:25Z</time>
      </trkpt>
      <trkpt lat="43.92498" lon="1.8453">
        <ele>264.562607</ele>
        <time>2026-08-29T10:04:26Z</time>
      </trkpt>
      <trkpt lat="43.92497" lon="1.84528">
        <ele>264.633518</ele>
        <time>2026-08-29T10:04:27Z</time>
      </trkpt>
      <trkpt lat="43.92495" lon="1.84526">
        <ele>264.718695</ele>
        <time>2026-08-29T10:04:28Z</time>
      </trkpt>
      <trkpt lat="43.92494" lon="1.84524">
        <ele>264.804715</ele>
        <time>2026-08-29T10:04:29Z</time>
      </trkpt>
      <trkpt lat="43.92492" lon="1.84522">
        <ele>264.894982</ele>
        <time>2026-08-29T10:04:30Z</time>
      </trkpt>
      <trkpt lat="43.92491" lon="1.8452">
        <ele>264.98403</ele>
        <time>2026-08-29T10:04:31Z</time>
      </trkpt>
      <trkpt lat="43.92489" lon="1.84518">
        <ele>265.069208</ele>
        <time>2026-08-29T10:04:32Z</time>
      </trkpt>
      <trkpt lat="43.92488" lon="1.84516">
        <ele>265.155227</ele>
        <time>2026-08-29T10:04:33Z</time>
      </trkpt>
      <trkpt lat="43.92486" lon="1.84514">
        <ele>265.248367</ele>
        <time>2026-08-29T10:04:34Z</time>
      </trkpt>
      <trkpt lat="43.92485" lon="1.84512">
        <ele>265.322233</ele>
        <time>2026-08-29T10:04:35Z</time>
      </trkpt>
      <trkpt lat="43.92483" lon="1.84511">
        <ele>265.410662</ele>
        <time>2026-08-29T10:04:36Z</time>
      </trkpt>
      <trkpt lat="43.92481" lon="1.84509">
        <ele>265.496682</ele>
        <time>2026-08-29T10:04:37Z</time>
      </trkpt>
      <trkpt lat="43.9248" lon="1.84507">
        <ele>265.583765</ele>
        <time>2026-08-29T10:04:38Z</time>
      </trkpt>
      <trkpt lat="43.92479" lon="1.84505">
        <ele>265.66355</ele>
        <time>2026-08-29T10:04:39Z</time>
      </trkpt>
      <trkpt lat="43.92477" lon="1.84502">
        <ele>265.746043</ele>
        <time>2026-08-29T10:04:40Z</time>
      </trkpt>
      <trkpt lat="43.92476" lon="1.845">
        <ele>265.830818</ele>
        <time>2026-08-29T10:04:41Z</time>
      </trkpt>
      <trkpt lat="43.92475" lon="1.84499">
        <ele>265.910907</ele>
        <time>2026-08-29T10:04:42Z</time>
      </trkpt>
      <trkpt lat="43.92474" lon="1.84497">
        <ele>265.981012</ele>
        <time>2026-08-29T10:04:43Z</time>
      </trkpt>
      <trkpt lat="43.92472" lon="1.84495">
        <ele>266.052868</ele>
        <time>2026-08-29T10:04:44Z</time>
      </trkpt>
      <trkpt lat="43.92471" lon="1.84493">
        <ele>266.123779</ele>
        <time>2026-08-29T10:04:45Z</time>
      </trkpt>
      <trkpt lat="43.9247" lon="1.84492">
        <ele>266.200709</ele>
        <time>2026-08-29T10:04:46Z</time>
      </trkpt>
      <trkpt lat="43.92468" lon="1.8449">
        <ele>266.285886</ele>
        <time>2026-08-29T10:04:47Z</time>
      </trkpt>
      <trkpt lat="43.92467" lon="1.84488">
        <ele>266.367891</ele>
        <time>2026-08-29T10:04:48Z</time>
      </trkpt>
      <trkpt lat="43.92465" lon="1.84486">
        <ele>266.45632</ele>
        <time>2026-08-29T10:04:49Z</time>
      </trkpt>
      <trkpt lat="43.92463" lon="1.84484">
        <ele>266.550438</ele>
        <time>2026-08-29T10:04:50Z</time>
      </trkpt>
      <trkpt lat="43.92462" lon="1.84482">
        <ele>266.641507</ele>
        <time>2026-08-29T10:04:51Z</time>
      </trkpt>
      <trkpt lat="43.9246" lon="1.8448">
        <ele>266.732576</ele>
        <time>2026-08-29T10:04:52Z</time>
      </trkpt>
      <trkpt lat="43.92458" lon="1.84478">
        <ele>266.832812</ele>
        <time>2026-08-29T10:04:53Z</time>
      </trkpt>
      <trkpt lat="43.92456" lon="1.84476">
        <ele>266.921241</ele>
        <time>2026-08-29T10:04:54Z</time>
      </trkpt>
      <trkpt lat="43.92454" lon="1.84475">
        <ele>267.018237</ele>
        <time>2026-08-29T10:04:55Z</time>
      </trkpt>
      <trkpt lat="43.92453" lon="1.84473">
        <ele>267.109989</ele>
        <time>2026-08-29T10:04:56Z</time>
      </trkpt>
      <trkpt lat="43.92451" lon="1.84471">
        <ele>267.191547</ele>
        <time>2026-08-29T10:04:57Z</time>
      </trkpt>
      <trkpt lat="43.92449" lon="1.8447">
        <ele>267.27995</ele>
        <time>2026-08-29T10:04:58Z</time>
      </trkpt>
      <trkpt lat="43.92447" lon="1.84468">
        <ele>267.372593</ele>
        <time>2026-08-29T10:04:59Z</time>
      </trkpt>
      <trkpt lat="43.92445" lon="1.84467">
        <ele>267.478999</ele>
        <time>2026-08-29T10:05:00Z</time>
      </trkpt>
      <trkpt lat="43.92443" lon="1.84465">
        <ele>267.57668</ele>
        <time>2026-08-29T10:05:01Z</time>
      </trkpt>
      <trkpt lat="43.92441" lon="1.84464">
        <ele>267.653646</ele>
        <time>2026-08-29T10:05:02Z</time>
      </trkpt>
      <trkpt lat="43.92439" lon="1.84462">
        <ele>267.679006</ele>
        <time>2026-08-29T10:05:03Z</time>
      </trkpt>
      <trkpt lat="43.92437" lon="1.84461">
        <ele>267.702425</ele>
        <time>2026-08-29T10:05:04Z</time>
      </trkpt>
      <trkpt lat="43.92434" lon="1.8446">
        <ele>267.728908</ele>
        <time>2026-08-29T10:05:05Z</time>
      </trkpt>
      <trkpt lat="43.92432" lon="1.84459">
        <ele>267.756187</ele>
        <time>2026-08-29T10:05:06Z</time>
      </trkpt>
      <trkpt lat="43.92429" lon="1.84458">
        <ele>267.786271</ele>
        <time>2026-08-29T10:05:07Z</time>
      </trkpt>
      <trkpt lat="43.92427" lon="1.84457">
        <ele>267.814035</ele>
        <time>2026-08-29T10:05:08Z</time>
      </trkpt>
      <trkpt lat="43.92425" lon="1.84456">
        <ele>267.839668</ele>
        <time>2026-08-29T10:05:09Z</time>
      </trkpt>
      <trkpt lat="43.92422" lon="1.84455">
        <ele>267.867784</ele>
        <time>2026-08-29T10:05:10Z</time>
      </trkpt>
      <trkpt lat="43.9242" lon="1.84455">
        <ele>267.894204</ele>
        <time>2026-08-29T10:05:11Z</time>
      </trkpt>
      <trkpt lat="43.92417" lon="1.84454">
        <ele>267.923971</ele>
        <time>2026-08-29T10:05:12Z</time>
      </trkpt>
      <trkpt lat="43.92414" lon="1.84454">
        <ele>267.95589</ele>
        <time>2026-08-29T10:05:13Z</time>
      </trkpt>
      <trkpt lat="43.92411" lon="1.84453">
        <ele>267.9887</ele>
        <time>2026-08-29T10:05:14Z</time>
      </trkpt>
      <trkpt lat="43.92408" lon="1.84453">
        <ele>268.021444</ele>
        <time>2026-08-29T10:05:15Z</time>
      </trkpt>
      <trkpt lat="43.92405" lon="1.84453">
        <ele>268.056359</ele>
        <time>2026-08-29T10:05:16Z</time>
      </trkpt>
      <trkpt lat="43.92401" lon="1.84452">
        <ele>268.093506</ele>
        <time>2026-08-29T10:05:17Z</time>
      </trkpt>
      <trkpt lat="43.92398" lon="1.84452">
        <ele>268.129738</ele>
        <time>2026-08-29T10:05:18Z</time>
      </trkpt>
      <trkpt lat="43.92395" lon="1.84451">
        <ele>268.164794</ele>
        <time>2026-08-29T10:05:19Z</time>
      </trkpt>
      <trkpt lat="43.92392" lon="1.84451">
        <ele>268.200933</ele>
        <time>2026-08-29T10:05:20Z</time>
      </trkpt>
      <trkpt lat="43.92388" lon="1.8445">
        <ele>268.239548</ele>
        <time>2026-08-29T10:05:21Z</time>
      </trkpt>
      <trkpt lat="43.92384" lon="1.84449">
        <ele>268.281279</ele>
        <time>2026-08-29T10:05:22Z</time>
      </trkpt>
      <trkpt lat="43.92381" lon="1.84448">
        <ele>268.3211</ele>
        <time>2026-08-29T10:05:23Z</time>
      </trkpt>
      <trkpt lat="43.92377" lon="1.84448">
        <ele>268.359596</ele>
        <time>2026-08-29T10:05:24Z</time>
      </trkpt>
      <trkpt lat="43.92374" lon="1.84447">
        <ele>268.398211</ele>
        <time>2026-08-29T10:05:25Z</time>
      </trkpt>
      <trkpt lat="43.9237" lon="1.84446">
        <ele>268.440928</ele>
        <time>2026-08-29T10:05:26Z</time>
      </trkpt>
      <trkpt lat="43.92366" lon="1.84446">
        <ele>268.483645</ele>
        <time>2026-08-29T10:05:27Z</time>
      </trkpt>
      <trkpt lat="43.92362" lon="1.84445">
        <ele>268.526282</ele>
        <time>2026-08-29T10:05:28Z</time>
      </trkpt>
      <trkpt lat="43.92358" lon="1.84444">
        <ele>268.567917</ele>
        <time>2026-08-29T10:05:29Z</time>
      </trkpt>
      <trkpt lat="43.92354" lon="1.84444">
        <ele>268.611716</ele>
        <time>2026-08-29T10:05:30Z</time>
      </trkpt>
      <trkpt lat="43.9235" lon="1.84443">
        <ele>268.658764</ele>
        <time>2026-08-29T10:05:31Z</time>
      </trkpt>
      <trkpt lat="43.92345" lon="1.84442">
        <ele>268.709336</ele>
        <time>2026-08-29T10:05:32Z</time>
      </trkpt>
      <trkpt lat="43.92341" lon="1.84441">
        <ele>268.758948</ele>
        <time>2026-08-29T10:05:33Z</time>
      </trkpt>
      <trkpt lat="43.92336" lon="1.84441">
        <ele>268.807257</ele>
        <time>2026-08-29T10:05:34Z</time>
      </trkpt>
      <trkpt lat="43.92332" lon="1.8444">
        <ele>268.853409</ele>
        <time>2026-08-29T10:05:35Z</time>
      </trkpt>
      <trkpt lat="43.92328" lon="1.84439">
        <ele>268.897208</ele>
        <time>2026-08-29T10:05:36Z</time>
      </trkpt>
      <trkpt lat="43.92324" lon="1.84439">
        <ele>268.941007</ele>
        <time>2026-08-29T10:05:37Z</time>
      </trkpt>
      <trkpt lat="43.9232" lon="1.84438">
        <ele>268.983644</ele>
        <time>2026-08-29T10:05:38Z</time>
      </trkpt>
      <trkpt lat="43.92316" lon="1.84437">
        <ele>269.027443</ele>
        <time>2026-08-29T10:05:39Z</time>
      </trkpt>
      <trkpt lat="43.92312" lon="1.84437">
        <ele>269.073594</ele>
        <time>2026-08-29T10:05:40Z</time>
      </trkpt>
      <trkpt lat="43.92308" lon="1.84436">
        <ele>269.118667</ele>
        <time>2026-08-29T10:05:41Z</time>
      </trkpt>
      <trkpt lat="43.92304" lon="1.84435">
        <ele>269.161478</ele>
        <time>2026-08-29T10:05:42Z</time>
      </trkpt>
      <trkpt lat="43.92301" lon="1.84434">
        <ele>269.199313</ele>
        <time>2026-08-29T10:05:43Z</time>
      </trkpt>
      <trkpt lat="43.92297" lon="1.84433">
        <ele>269.236854</ele>
        <time>2026-08-29T10:05:44Z</time>
      </trkpt>
      <trkpt lat="43.92294" lon="1.84432">
        <ele>269.276101</ele>
        <time>2026-08-29T10:05:45Z</time>
      </trkpt>
      <trkpt lat="43.92291" lon="1.84431">
        <ele>269.312399</ele>
        <time>2026-08-29T10:05:46Z</time>
      </trkpt>
      <trkpt lat="43.92288" lon="1.84429">
        <ele>269.347385</ele>
        <time>2026-08-29T10:05:47Z</time>
      </trkpt>
      <trkpt lat="43.92285" lon="1.84428">
        <ele>269.379044</ele>
        <time>2026-08-29T10:05:48Z</time>
      </trkpt>
      <trkpt lat="43.92283" lon="1.84426">
        <ele>269.408375</ele>
        <time>2026-08-29T10:05:49Z</time>
      </trkpt>
      <trkpt lat="43.9228" lon="1.84425">
        <ele>269.440054</ele>
        <time>2026-08-29T10:05:50Z</time>
      </trkpt>
      <trkpt lat="43.92277" lon="1.84424">
        <ele>269.47438</ele>
        <time>2026-08-29T10:05:51Z</time>
      </trkpt>
      <trkpt lat="43.92274" lon="1.84424">
        <ele>269.507274</ele>
        <time>2026-08-29T10:05:52Z</time>
      </trkpt>
      <trkpt lat="43.92271" lon="1.84423">
        <ele>269.538883</ele>
        <time>2026-08-29T10:05:53Z</time>
      </trkpt>
      <trkpt lat="43.92268" lon="1.84423">
        <ele>269.569405</ele>
        <time>2026-08-29T10:05:54Z</time>
      </trkpt>
      <trkpt lat="43.92265" lon="1.84423">
        <ele>269.605365</ele>
        <time>2026-08-29T10:05:55Z</time>
      </trkpt>
      <trkpt lat="43.92261" lon="1.84423">
        <ele>269.651782</ele>
        <time>2026-08-29T10:05:56Z</time>
      </trkpt>
      <trkpt lat="43.92258" lon="1.84423">
        <ele>269.695643</ele>
        <time>2026-08-29T10:05:57Z</time>
      </trkpt>
      <trkpt lat="43.92255" lon="1.84423">
        <ele>269.739504</ele>
        <time>2026-08-29T10:05:58Z</time>
      </trkpt>
      <trkpt lat="43.92251" lon="1.84422">
        <ele>269.786018</ele>
        <time>2026-08-29T10:05:59Z</time>
      </trkpt>
      <trkpt lat="43.92248" lon="1.84422">
        <ele>269.832503</ele>
        <time>2026-08-29T10:06:00Z</time>
      </trkpt>
      <trkpt lat="43.92244" lon="1.84423">
        <ele>269.881671</ele>
        <time>2026-08-29T10:06:01Z</time>
      </trkpt>
      <trkpt lat="43.9224" lon="1.84422">
        <ele>269.930812</ele>
        <time>2026-08-29T10:06:02Z</time>
      </trkpt>
      <trkpt lat="43.92237" lon="1.84422">
        <ele>269.974725</ele>
        <time>2026-08-29T10:06:03Z</time>
      </trkpt>
      <trkpt lat="43.92233" lon="1.84422">
        <ele>270.025193</ele>
        <time>2026-08-29T10:06:04Z</time>
      </trkpt>
      <trkpt lat="43.92229" lon="1.84422">
        <ele>270.074361</ele>
        <time>2026-08-29T10:06:05Z</time>
      </trkpt>
      <trkpt lat="43.92226" lon="1.84423">
        <ele>270.122402</ele>
        <time>2026-08-29T10:06:06Z</time>
      </trkpt>
      <trkpt lat="43.92223" lon="1.84423">
        <ele>270.163964</ele>
        <time>2026-08-29T10:06:07Z</time>
      </trkpt>
      <trkpt lat="43.9222" lon="1.84424">
        <ele>270.204211</ele>
        <time>2026-08-29T10:06:08Z</time>
      </trkpt>
      <trkpt lat="43.92217" lon="1.84424">
        <ele>270.240178</ele>
        <time>2026-08-29T10:06:09Z</time>
      </trkpt>
      <trkpt lat="43.92214" lon="1.84424">
        <ele>270.280014</ele>
        <time>2026-08-29T10:06:10Z</time>
      </trkpt>
      <trkpt lat="43.92211" lon="1.84424">
        <ele>270.318569</ele>
        <time>2026-08-29T10:06:11Z</time>
      </trkpt>
      <trkpt lat="43.92208" lon="1.84425">
        <ele>270.35991</ele>
        <time>2026-08-29T10:06:12Z</time>
      </trkpt>
      <trkpt lat="43.92205" lon="1.84425">
        <ele>270.405421</ele>
        <time>2026-08-29T10:06:13Z</time>
      </trkpt>
      <trkpt lat="43.92201" lon="1.84426">
        <ele>270.453832</ele>
        <time>2026-08-29T10:06:14Z</time>
      </trkpt>
      <trkpt lat="43.92198" lon="1.84427">
        <ele>270.500189</ele>
        <time>2026-08-29T10:06:15Z</time>
      </trkpt>
      <trkpt lat="43.92194" lon="1.84428">
        <ele>270.54504</ele>
        <time>2026-08-29T10:06:16Z</time>
      </trkpt>
      <trkpt lat="43.92191" lon="1.84429">
        <ele>270.591995</ele>
        <time>2026-08-29T10:06:17Z</time>
      </trkpt>
      <trkpt lat="43.92188" lon="1.8443">
        <ele>270.633864</ele>
        <time>2026-08-29T10:06:18Z</time>
      </trkpt>
      <trkpt lat="43.92184" lon="1.84431">
        <ele>270.678928</ele>
        <time>2026-08-29T10:06:19Z</time>
      </trkpt>
      <trkpt lat="43.92181" lon="1.84432">
        <ele>270.724439</ele>
        <time>2026-08-29T10:06:20Z</time>
      </trkpt>
      <trkpt lat="43.92177" lon="1.84432">
        <ele>270.772585</ele>
        <time>2026-08-29T10:06:21Z</time>
      </trkpt>
      <trkpt lat="43.92174" lon="1.84433">
        <ele>270.81954</ele>
        <time>2026-08-29T10:06:22Z</time>
      </trkpt>
      <trkpt lat="43.92171" lon="1.84434">
        <ele>270.863554</ele>
        <time>2026-08-29T10:06:23Z</time>
      </trkpt>
      <trkpt lat="43.92168" lon="1.84435">
        <ele>270.90558</ele>
        <time>2026-08-29T10:06:24Z</time>
      </trkpt>
      <trkpt lat="43.92164" lon="1.84437">
        <ele>270.949594</ele>
        <time>2026-08-29T10:06:25Z</time>
      </trkpt>
      <trkpt lat="43.92161" lon="1.84438">
        <ele>270.996966</ele>
        <time>2026-08-29T10:06:26Z</time>
      </trkpt>
      <trkpt lat="43.92158" lon="1.84439">
        <ele>271.042516</ele>
        <time>2026-08-29T10:06:27Z</time>
      </trkpt>
      <trkpt lat="43.92155" lon="1.84441">
        <ele>271.085802</ele>
        <time>2026-08-29T10:06:28Z</time>
      </trkpt>
      <trkpt lat="43.92152" lon="1.84443">
        <ele>271.126775</ele>
        <time>2026-08-29T10:06:29Z</time>
      </trkpt>
      <trkpt lat="43.92149" lon="1.84444">
        <ele>271.166546</ele>
        <time>2026-08-29T10:06:30Z</time>
      </trkpt>
      <trkpt lat="43.92147" lon="1.84446">
        <ele>271.203942</ele>
        <time>2026-08-29T10:06:31Z</time>
      </trkpt>
      <trkpt lat="43.92144" lon="1.84448">
        <ele>271.246123</ele>
        <time>2026-08-29T10:06:32Z</time>
      </trkpt>
      <trkpt lat="43.92141" lon="1.8445">
        <ele>271.289908</ele>
        <time>2026-08-29T10:06:33Z</time>
      </trkpt>
      <trkpt lat="43.92138" lon="1.84452">
        <ele>271.335404</ele>
        <time>2026-08-29T10:06:34Z</time>
      </trkpt>
      <trkpt lat="43.92135" lon="1.84453">
        <ele>271.37561</ele>
        <time>2026-08-29T10:06:35Z</time>
      </trkpt>
      <trkpt lat="43.92132" lon="1.84455">
        <ele>271.420229</ele>
        <time>2026-08-29T10:06:36Z</time>
      </trkpt>
      <trkpt lat="43.92128" lon="1.84457">
        <ele>271.466828</ele>
        <time>2026-08-29T10:06:37Z</time>
      </trkpt>
      <trkpt lat="43.92125" lon="1.84459">
        <ele>271.51673</ele>
        <time>2026-08-29T10:06:38Z</time>
      </trkpt>
      <trkpt lat="43.92121" lon="1.84461">
        <ele>271.566291</ele>
        <time>2026-08-29T10:06:39Z</time>
      </trkpt>
      <trkpt lat="43.92118" lon="1.84463">
        <ele>271.618675</ele>
        <time>2026-08-29T10:06:40Z</time>
      </trkpt>
      <trkpt lat="43.92114" lon="1.84464">
        <ele>271.672675</ele>
        <time>2026-08-29T10:06:41Z</time>
      </trkpt>
      <trkpt lat="43.9211" lon="1.84465">
        <ele>271.729429</ele>
        <time>2026-08-29T10:06:42Z</time>
      </trkpt>
      <trkpt lat="43.92105" lon="1.84466">
        <ele>271.792567</ele>
        <time>2026-08-29T10:06:43Z</time>
      </trkpt>
      <trkpt lat="43.921" lon="1.84467">
        <ele>271.855159</ele>
        <time>2026-08-29T10:06:44Z</time>
      </trkpt>
      <trkpt lat="43.92095" lon="1.84467">
        <ele>271.922887</ele>
        <time>2026-08-29T10:06:45Z</time>
      </trkpt>
      <trkpt lat="43.9209" lon="1.84466">
        <ele>271.993581</ele>
        <time>2026-08-29T10:06:46Z</time>
      </trkpt>
      <trkpt lat="43.92085" lon="1.84465">
        <ele>271.854859</ele>
        <time>2026-08-29T10:06:47Z</time>
      </trkpt>
      <trkpt lat="43.9208" lon="1.84463">
        <ele>271.695562</ele>
        <time>2026-08-29T10:06:48Z</time>
      </trkpt>
      <trkpt lat="43.92074" lon="1.84461">
        <ele>271.4903</ele>
        <time>2026-08-29T10:06:49Z</time>
      </trkpt>
      <trkpt lat="43.92068" lon="1.84457">
        <ele>271.278641</ele>
        <time>2026-08-29T10:06:50Z</time>
      </trkpt>
      <trkpt lat="43.92062" lon="1.84453">
        <ele>271.070772</ele>
        <time>2026-08-29T10:06:51Z</time>
      </trkpt>
      <trkpt lat="43.92056" lon="1.84448">
        <ele>270.835702</ele>
        <time>2026-08-29T10:06:52Z</time>
      </trkpt>
      <trkpt lat="43.92049" lon="1.84442">
        <ele>270.598232</ele>
        <time>2026-08-29T10:06:53Z</time>
      </trkpt>
      <trkpt lat="43.92043" lon="1.84436">
        <ele>270.369826</ele>
        <time>2026-08-29T10:06:54Z</time>
      </trkpt>
      <trkpt lat="43.92037" lon="1.8443">
        <ele>270.141214</ele>
        <time>2026-08-29T10:06:55Z</time>
      </trkpt>
      <trkpt lat="43.92033" lon="1.84422">
        <ele>269.913835</ele>
        <time>2026-08-29T10:06:56Z</time>
      </trkpt>
      <trkpt lat="43.92029" lon="1.84414">
        <ele>269.696382</ele>
        <time>2026-08-29T10:06:57Z</time>
      </trkpt>
      <trkpt lat="43.92025" lon="1.84405">
        <ele>269.463267</ele>
        <time>2026-08-29T10:06:58Z</time>
      </trkpt>
      <trkpt lat="43.92022" lon="1.84397">
        <ele>269.248849</ele>
        <time>2026-08-29T10:06:59Z</time>
      </trkpt>
      <trkpt lat="43.92018" lon="1.84391">
        <ele>269.071647</ele>
        <time>2026-08-29T10:07:00Z</time>
      </trkpt>
      <trkpt lat="43.92014" lon="1.84387">
        <ele>268.922497</ele>
        <time>2026-08-29T10:07:01Z</time>
      </trkpt>
      <trkpt lat="43.9201" lon="1.84387">
        <ele>268.788131</ele>
        <time>2026-08-29T10:07:02Z</time>
      </trkpt>
      <trkpt lat="43.92006" lon="1.8439">
        <ele>268.658473</ele>
        <time>2026-08-29T10:07:03Z</time>
      </trkpt>
      <trkpt lat="43.92004" lon="1.84395">
        <ele>268.532405</ele>
        <time>2026-08-29T10:07:04Z</time>
      </trkpt>
      <trkpt lat="43.92002" lon="1.844">
        <ele>268.401891</ele>
        <time>2026-08-29T10:07:05Z</time>
      </trkpt>
      <trkpt lat="43.92001" lon="1.84406">
        <ele>268.267487</ele>
        <time>2026-08-29T10:07:06Z</time>
      </trkpt>
      <trkpt lat="43.91999" lon="1.84411">
        <ele>268.135189</ele>
        <time>2026-08-29T10:07:07Z</time>
      </trkpt>
      <trkpt lat="43.91998" lon="1.84417">
        <ele>268.004993</ele>
        <time>2026-08-29T10:07:08Z</time>
      </trkpt>
      <trkpt lat="43.91996" lon="1.84422">
        <ele>267.867375</ele>
        <time>2026-08-29T10:07:09Z</time>
      </trkpt>
      <trkpt lat="43.91994" lon="1.84428">
        <ele>267.725852</ele>
        <time>2026-08-29T10:07:10Z</time>
      </trkpt>
      <trkpt lat="43.91991" lon="1.84433">
        <ele>267.59625</ele>
        <time>2026-08-29T10:07:11Z</time>
      </trkpt>
      <trkpt lat="43.91989" lon="1.84437">
        <ele>267.46622</ele>
        <time>2026-08-29T10:07:12Z</time>
      </trkpt>
      <trkpt lat="43.91986" lon="1.84441">
        <ele>267.332057</ele>
        <time>2026-08-29T10:07:13Z</time>
      </trkpt>
      <trkpt lat="43.91983" lon="1.84446">
        <ele>267.197893</ele>
        <time>2026-08-29T10:07:14Z</time>
      </trkpt>
      <trkpt lat="43.9198" lon="1.8445">
        <ele>267.068627</ele>
        <time>2026-08-29T10:07:15Z</time>
      </trkpt>
      <trkpt lat="43.91977" lon="1.84454">
        <ele>266.949085</ele>
        <time>2026-08-29T10:07:16Z</time>
      </trkpt>
      <trkpt lat="43.91975" lon="1.84458">
        <ele>266.829542</ele>
        <time>2026-08-29T10:07:17Z</time>
      </trkpt>
      <trkpt lat="43.91972" lon="1.84462">
        <ele>266.712098</ele>
        <time>2026-08-29T10:07:18Z</time>
      </trkpt>
      <trkpt lat="43.9197" lon="1.84466">
        <ele>266.587517</ele>
        <time>2026-08-29T10:07:19Z</time>
      </trkpt>
      <trkpt lat="43.91967" lon="1.8447">
        <ele>266.468383</ele>
        <time>2026-08-29T10:07:20Z</time>
      </trkpt>
      <trkpt lat="43.91965" lon="1.84473">
        <ele>266.390976</ele>
        <time>2026-08-29T10:07:21Z</time>
      </trkpt>
      <trkpt lat="43.91962" lon="1.84477">
        <ele>266.460043</ele>
        <time>2026-08-29T10:07:22Z</time>
      </trkpt>
      <trkpt lat="43.91959" lon="1.84481">
        <ele>266.528395</ele>
        <time>2026-08-29T10:07:23Z</time>
      </trkpt>
      <trkpt lat="43.91957" lon="1.84485">
        <ele>266.593332</ele>
        <time>2026-08-29T10:07:24Z</time>
      </trkpt>
      <trkpt lat="43.91955" lon="1.84489">
        <ele>266.66045</ele>
        <time>2026-08-29T10:07:25Z</time>
      </trkpt>
      <trkpt lat="43.91952" lon="1.84493">
        <ele>266.731943</ele>
        <time>2026-08-29T10:07:26Z</time>
      </trkpt>
      <trkpt lat="43.91949" lon="1.84496">
        <ele>266.800633</ele>
        <time>2026-08-29T10:07:27Z</time>
      </trkpt>
      <trkpt lat="43.91947" lon="1.845">
        <ele>266.86872</ele>
        <time>2026-08-29T10:07:28Z</time>
      </trkpt>
      <trkpt lat="43.91944" lon="1.84504">
        <ele>266.936133</ele>
        <time>2026-08-29T10:07:29Z</time>
      </trkpt>
      <trkpt lat="43.91941" lon="1.84508">
        <ele>267.00668</ele>
        <time>2026-08-29T10:07:30Z</time>
      </trkpt>
      <trkpt lat="43.91939" lon="1.84512">
        <ele>267.080363</ele>
        <time>2026-08-29T10:07:31Z</time>
      </trkpt>
      <trkpt lat="43.91936" lon="1.84516">
        <ele>267.154047</ele>
        <time>2026-08-29T10:07:32Z</time>
      </trkpt>
      <trkpt lat="43.91933" lon="1.8452">
        <ele>267.22554</ele>
        <time>2026-08-29T10:07:33Z</time>
      </trkpt>
      <trkpt lat="43.9193" lon="1.84524">
        <ele>267.29553</ele>
        <time>2026-08-29T10:07:34Z</time>
      </trkpt>
      <trkpt lat="43.91928" lon="1.84528">
        <ele>267.361691</ele>
        <time>2026-08-29T10:07:35Z</time>
      </trkpt>
      <trkpt lat="43.91925" lon="1.84531">
        <ele>267.427853</ele>
        <time>2026-08-29T10:07:36Z</time>
      </trkpt>
      <trkpt lat="43.91923" lon="1.84535">
        <ele>267.493589</ele>
        <time>2026-08-29T10:07:37Z</time>
      </trkpt>
      <trkpt lat="43.91921" lon="1.84539">
        <ele>267.557562</ele>
        <time>2026-08-29T10:07:38Z</time>
      </trkpt>
      <trkpt lat="43.91918" lon="1.84543">
        <ele>267.623474</ele>
        <time>2026-08-29T10:07:39Z</time>
      </trkpt>
      <trkpt lat="43.91916" lon="1.84547">
        <ele>267.696692</ele>
        <time>2026-08-29T10:07:40Z</time>
      </trkpt>
      <trkpt lat="43.91913" lon="1.84551">
        <ele>267.767594</ele>
        <time>2026-08-29T10:07:41Z</time>
      </trkpt>
      <trkpt lat="43.91911" lon="1.84555">
        <ele>267.836496</ele>
        <time>2026-08-29T10:07:42Z</time>
      </trkpt>
      <trkpt lat="43.91909" lon="1.8456">
        <ele>267.909598</ele>
        <time>2026-08-29T10:07:43Z</time>
      </trkpt>
      <trkpt lat="43.91907" lon="1.84564">
        <ele>267.977353</ele>
        <time>2026-08-29T10:07:44Z</time>
      </trkpt>
      <trkpt lat="43.91905" lon="1.84569">
        <ele>268.046313</ele>
        <time>2026-08-29T10:07:45Z</time>
      </trkpt>
      <trkpt lat="43.91903" lon="1.84573">
        <ele>268.114168</ele>
        <time>2026-08-29T10:07:46Z</time>
      </trkpt>
      <trkpt lat="43.919" lon="1.84578">
        <ele>268.181922</ele>
        <time>2026-08-29T10:07:47Z</time>
      </trkpt>
      <trkpt lat="43.91898" lon="1.84582">
        <ele>268.249777</ele>
        <time>2026-08-29T10:07:48Z</time>
      </trkpt>
      <trkpt lat="43.91896" lon="1.84586">
        <ele>268.314356</ele>
        <time>2026-08-29T10:07:49Z</time>
      </trkpt>
      <trkpt lat="43.91895" lon="1.8459">
        <ele>268.379218</ele>
        <time>2026-08-29T10:07:50Z</time>
      </trkpt>
      <trkpt lat="43.91893" lon="1.84595">
        <ele>268.445973</ele>
        <time>2026-08-29T10:07:51Z</time>
      </trkpt>
      <trkpt lat="43.91891" lon="1.84599">
        <ele>268.508462</ele>
        <time>2026-08-29T10:07:52Z</time>
      </trkpt>
      <trkpt lat="43.91889" lon="1.84603">
        <ele>268.569034</ele>
        <time>2026-08-29T10:07:53Z</time>
      </trkpt>
      <trkpt lat="43.91887" lon="1.84607">
        <ele>268.635655</ele>
        <time>2026-08-29T10:07:54Z</time>
      </trkpt>
      <trkpt lat="43.91886" lon="1.84612">
        <ele>268.702275</ele>
        <time>2026-08-29T10:07:55Z</time>
      </trkpt>
      <trkpt lat="43.91884" lon="1.84616">
        <ele>268.765009</ele>
        <time>2026-08-29T10:07:56Z</time>
      </trkpt>
      <trkpt lat="43.91883" lon="1.84621">
        <ele>268.830127</ele>
        <time>2026-08-29T10:07:57Z</time>
      </trkpt>
      <trkpt lat="43.91881" lon="1.84625">
        <ele>268.893248</ele>
        <time>2026-08-29T10:07:58Z</time>
      </trkpt>
      <trkpt lat="43.9188" lon="1.84629">
        <ele>268.95753</ele>
        <time>2026-08-29T10:07:59Z</time>
      </trkpt>
      <trkpt lat="43.91878" lon="1.84634">
        <ele>269.018669</ele>
        <time>2026-08-29T10:08:00Z</time>
      </trkpt>
      <trkpt lat="43.91877" lon="1.84638">
        <ele>269.075901</ele>
        <time>2026-08-29T10:08:01Z</time>
      </trkpt>
      <trkpt lat="43.91876" lon="1.84642">
        <ele>269.136644</ele>
        <time>2026-08-29T10:08:02Z</time>
      </trkpt>
      <trkpt lat="43.91874" lon="1.84647">
        <ele>269.202908</ele>
        <time>2026-08-29T10:08:03Z</time>
      </trkpt>
      <trkpt lat="43.91873" lon="1.84652">
        <ele>269.268601</ele>
        <time>2026-08-29T10:08:04Z</time>
      </trkpt>
      <trkpt lat="43.91872" lon="1.84656">
        <ele>269.332407</ele>
        <time>2026-08-29T10:08:05Z</time>
      </trkpt>
      <trkpt lat="43.91871" lon="1.84661">
        <ele>269.399287</ele>
        <time>2026-08-29T10:08:06Z</time>
      </trkpt>
      <trkpt lat="43.9187" lon="1.84666">
        <ele>269.463733</ele>
        <time>2026-08-29T10:08:07Z</time>
      </trkpt>
      <trkpt lat="43.91868" lon="1.84671">
        <ele>269.53306</ele>
        <time>2026-08-29T10:08:08Z</time>
      </trkpt>
      <trkpt lat="43.91867" lon="1.84676">
        <ele>269.6037</ele>
        <time>2026-08-29T10:08:09Z</time>
      </trkpt>
      <trkpt lat="43.91865" lon="1.84681">
        <ele>269.636693</ele>
        <time>2026-08-29T10:08:10Z</time>
      </trkpt>
      <trkpt lat="43.91864" lon="1.84686">
        <ele>269.642521</ele>
        <time>2026-08-29T10:08:11Z</time>
      </trkpt>
      <trkpt lat="43.91862" lon="1.84691">
        <ele>269.648383</ele>
        <time>2026-08-29T10:08:12Z</time>
      </trkpt>
      <trkpt lat="43.91861" lon="1.84695">
        <ele>269.653932</ele>
        <time>2026-08-29T10:08:13Z</time>
      </trkpt>
      <trkpt lat="43.91859" lon="1.847">
        <ele>269.659382</ele>
        <time>2026-08-29T10:08:14Z</time>
      </trkpt>
      <trkpt lat="43.91858" lon="1.84706">
        <ele>269.665738</ele>
        <time>2026-08-29T10:08:15Z</time>
      </trkpt>
      <trkpt lat="43.91856" lon="1.84711">
        <ele>269.671741</ele>
        <time>2026-08-29T10:08:16Z</time>
      </trkpt>
      <trkpt lat="43.91855" lon="1.84716">
        <ele>269.677991</ele>
        <time>2026-08-29T10:08:17Z</time>
      </trkpt>
      <trkpt lat="43.91854" lon="1.84721">
        <ele>269.683655</ele>
        <time>2026-08-29T10:08:18Z</time>
      </trkpt>
      <trkpt lat="43.91853" lon="1.84726">
        <ele>269.688697</ele>
        <time>2026-08-29T10:08:19Z</time>
      </trkpt>
      <trkpt lat="43.91851" lon="1.84731">
        <ele>269.694344</ele>
        <time>2026-08-29T10:08:20Z</time>
      </trkpt>
      <trkpt lat="43.9185" lon="1.84736">
        <ele>269.700093</ele>
        <time>2026-08-29T10:08:21Z</time>
      </trkpt>
      <trkpt lat="43.91849" lon="1.84741">
        <ele>269.706251</ele>
        <time>2026-08-29T10:08:22Z</time>
      </trkpt>
      <trkpt lat="43.91848" lon="1.84747">
        <ele>269.712907</ele>
        <time>2026-08-29T10:08:23Z</time>
      </trkpt>
      <trkpt lat="43.91846" lon="1.84753">
        <ele>269.71936</ele>
        <time>2026-08-29T10:08:24Z</time>
      </trkpt>
      <trkpt lat="43.91845" lon="1.84759">
        <ele>269.726033</ele>
        <time>2026-08-29T10:08:25Z</time>
      </trkpt>
      <trkpt lat="43.91844" lon="1.84765">
        <ele>269.73244</ele>
        <time>2026-08-29T10:08:26Z</time>
      </trkpt>
      <trkpt lat="43.91842" lon="1.8477">
        <ele>269.738949</ele>
        <time>2026-08-29T10:08:27Z</time>
      </trkpt>
      <trkpt lat="43.91841" lon="1.84776">
        <ele>269.745402</ele>
        <time>2026-08-29T10:08:28Z</time>
      </trkpt>
      <trkpt lat="43.9184" lon="1.84782">
        <ele>269.751605</ele>
        <time>2026-08-29T10:08:29Z</time>
      </trkpt>
      <trkpt lat="43.91838" lon="1.84787">
        <ele>269.757654</ele>
        <time>2026-08-29T10:08:30Z</time>
      </trkpt>
      <trkpt lat="43.91837" lon="1.84792">
        <ele>269.763904</ele>
        <time>2026-08-29T10:08:31Z</time>
      </trkpt>
      <trkpt lat="43.91835" lon="1.84798">
        <ele>269.770155</ele>
        <time>2026-08-29T10:08:32Z</time>
      </trkpt>
      <trkpt lat="43.91834" lon="1.84803">
        <ele>269.776204</ele>
        <time>2026-08-29T10:08:33Z</time>
      </trkpt>
      <trkpt lat="43.91833" lon="1.84809">
        <ele>269.782455</ele>
        <time>2026-08-29T10:08:34Z</time>
      </trkpt>
      <trkpt lat="43.91831" lon="1.84815">
        <ele>269.788921</ele>
        <time>2026-08-29T10:08:35Z</time>
      </trkpt>
      <trkpt lat="43.9183" lon="1.84821">
        <ele>269.795635</ele>
        <time>2026-08-29T10:08:36Z</time>
      </trkpt>
      <trkpt lat="43.91829" lon="1.84826">
        <ele>269.802026</ele>
        <time>2026-08-29T10:08:37Z</time>
      </trkpt>
      <trkpt lat="43.91828" lon="1.84832">
        <ele>269.80874</ele>
        <time>2026-08-29T10:08:38Z</time>
      </trkpt>
      <trkpt lat="43.91827" lon="1.84838">
        <ele>269.815515</ele>
        <time>2026-08-29T10:08:39Z</time>
      </trkpt>
      <trkpt lat="43.91825" lon="1.84845">
        <ele>269.822524</ele>
        <time>2026-08-29T10:08:40Z</time>
      </trkpt>
      <trkpt lat="43.91823" lon="1.8485">
        <ele>269.829179</ele>
        <time>2026-08-29T10:08:41Z</time>
      </trkpt>
      <trkpt lat="43.91822" lon="1.84856">
        <ele>269.835682</ele>
        <time>2026-08-29T10:08:42Z</time>
      </trkpt>
      <trkpt lat="43.9182" lon="1.84862">
        <ele>269.842315</ele>
        <time>2026-08-29T10:08:43Z</time>
      </trkpt>
      <trkpt lat="43.91818" lon="1.84867">
        <ele>269.84887</ele>
        <time>2026-08-29T10:08:44Z</time>
      </trkpt>
      <trkpt lat="43.91816" lon="1.84872">
        <ele>269.854956</ele>
        <time>2026-08-29T10:08:45Z</time>
      </trkpt>
      <trkpt lat="43.91814" lon="1.84877">
        <ele>269.861494</ele>
        <time>2026-08-29T10:08:46Z</time>
      </trkpt>
      <trkpt lat="43.91811" lon="1.84882">
        <ele>269.868033</ele>
        <time>2026-08-29T10:08:47Z</time>
      </trkpt>
      <trkpt lat="43.91809" lon="1.84887">
        <ele>269.874161</ele>
        <time>2026-08-29T10:08:48Z</time>
      </trkpt>
      <trkpt lat="43.91807" lon="1.84892">
        <ele>269.880363</ele>
        <time>2026-08-29T10:08:49Z</time>
      </trkpt>
      <trkpt lat="43.91805" lon="1.84897">
        <ele>269.886721</ele>
        <time>2026-08-29T10:08:50Z</time>
      </trkpt>
      <trkpt lat="43.91803" lon="1.84903">
        <ele>269.893259</ele>
        <time>2026-08-29T10:08:51Z</time>
      </trkpt>
      <trkpt lat="43.91799" lon="1.84907">
        <ele>269.899884</ele>
        <time>2026-08-29T10:08:52Z</time>
      </trkpt>
      <trkpt lat="43.91796" lon="1.84912">
        <ele>269.762171</ele>
        <time>2026-08-29T10:08:53Z</time>
      </trkpt>
      <trkpt lat="43.91793" lon="1.84916">
        <ele>269.587732</ele>
        <time>2026-08-29T10:08:54Z</time>
      </trkpt>
      <trkpt lat="43.91788" lon="1.84921">
        <ele>269.398611</ele>
        <time>2026-08-29T10:08:55Z</time>
      </trkpt>
      <trkpt lat="43.91784" lon="1.84925">
        <ele>269.216608</ele>
        <time>2026-08-29T10:08:56Z</time>
      </trkpt>
      <trkpt lat="43.91781" lon="1.84929">
        <ele>269.057924</ele>
        <time>2026-08-29T10:08:57Z</time>
      </trkpt>
      <trkpt lat="43.91777" lon="1.84932">
        <ele>268.90347</ele>
        <time>2026-08-29T10:08:58Z</time>
      </trkpt>
      <trkpt lat="43.91773" lon="1.84935">
        <ele>268.740053</ele>
        <time>2026-08-29T10:08:59Z</time>
      </trkpt>
      <trkpt lat="43.91769" lon="1.84939">
        <ele>268.584232</ele>
        <time>2026-08-29T10:09:00Z</time>
      </trkpt>
      <trkpt lat="43.91766" lon="1.84942">
        <ele>268.444293</ele>
        <time>2026-08-29T10:09:01Z</time>
      </trkpt>
      <trkpt lat="43.91763" lon="1.84945">
        <ele>268.307095</ele>
        <time>2026-08-29T10:09:02Z</time>
      </trkpt>
      <trkpt lat="43.91759" lon="1.84949">
        <ele>268.149781</ele>
        <time>2026-08-29T10:09:03Z</time>
      </trkpt>
      <trkpt lat="43.91755" lon="1.84953">
        <ele>267.975227</ele>
        <time>2026-08-29T10:09:04Z</time>
      </trkpt>
      <trkpt lat="43.91751" lon="1.84956">
        <ele>267.793376</ele>
        <time>2026-08-29T10:09:05Z</time>
      </trkpt>
      <trkpt lat="43.91745" lon="1.8496">
        <ele>267.575562</ele>
        <time>2026-08-29T10:09:06Z</time>
      </trkpt>
      <trkpt lat="43.91739" lon="1.84963">
        <ele>267.356666</ele>
        <time>2026-08-29T10:09:07Z</time>
      </trkpt>
      <trkpt lat="43.91733" lon="1.84968">
        <ele>267.124536</ele>
        <time>2026-08-29T10:09:08Z</time>
      </trkpt>
      <trkpt lat="43.91728" lon="1.84973">
        <ele>266.893641</ele>
        <time>2026-08-29T10:09:09Z</time>
      </trkpt>
      <trkpt lat="43.91724" lon="1.84979">
        <ele>266.678325</ele>
        <time>2026-08-29T10:09:10Z</time>
      </trkpt>
      <trkpt lat="43.91721" lon="1.84987">
        <ele>266.458058</ele>
        <time>2026-08-29T10:09:11Z</time>
      </trkpt>
      <trkpt lat="43.9172" lon="1.84996">
        <ele>266.227114</ele>
        <time>2026-08-29T10:09:12Z</time>
      </trkpt>
      <trkpt lat="43.9172" lon="1.85006">
        <ele>265.983611</ele>
        <time>2026-08-29T10:09:13Z</time>
      </trkpt>
      <trkpt lat="43.9172" lon="1.85016">
        <ele>265.728068</ele>
        <time>2026-08-29T10:09:14Z</time>
      </trkpt>
      <trkpt lat="43.91721" lon="1.85026">
        <ele>265.468091</ele>
        <time>2026-08-29T10:09:15Z</time>
      </trkpt>
      <trkpt lat="43.91722" lon="1.85036">
        <ele>265.210369</ele>
        <time>2026-08-29T10:09:16Z</time>
      </trkpt>
      <trkpt lat="43.91724" lon="1.85046">
        <ele>264.965052</ele>
        <time>2026-08-29T10:09:17Z</time>
      </trkpt>
      <trkpt lat="43.91725" lon="1.85055">
        <ele>264.715442</ele>
        <time>2026-08-29T10:09:18Z</time>
      </trkpt>
      <trkpt lat="43.91726" lon="1.85065">
        <ele>264.47508</ele>
        <time>2026-08-29T10:09:19Z</time>
      </trkpt>
      <trkpt lat="43.91727" lon="1.85075">
        <ele>264.215103</ele>
        <time>2026-08-29T10:09:20Z</time>
      </trkpt>
      <trkpt lat="43.91728" lon="1.85085">
        <ele>263.951784</ele>
        <time>2026-08-29T10:09:21Z</time>
      </trkpt>
      <trkpt lat="43.91727" lon="1.85095">
        <ele>263.691807</ele>
        <time>2026-08-29T10:09:22Z</time>
      </trkpt>
      <trkpt lat="43.91725" lon="1.85105">
        <ele>263.451533</ele>
        <time>2026-08-29T10:09:23Z</time>
      </trkpt>
      <trkpt lat="43.91724" lon="1.85115">
        <ele>263.207216</ele>
        <time>2026-08-29T10:09:24Z</time>
      </trkpt>
      <trkpt lat="43.91721" lon="1.85125">
        <ele>262.957267</ele>
        <time>2026-08-29T10:09:25Z</time>
      </trkpt>
      <trkpt lat="43.91719" lon="1.85136">
        <ele>262.702887</ele>
        <time>2026-08-29T10:09:26Z</time>
      </trkpt>
      <trkpt lat="43.91716" lon="1.85145">
        <ele>262.468325</ele>
        <time>2026-08-29T10:09:27Z</time>
      </trkpt>
      <trkpt lat="43.91714" lon="1.85155">
        <ele>262.233892</ele>
        <time>2026-08-29T10:09:28Z</time>
      </trkpt>
      <trkpt lat="43.91713" lon="1.85164">
        <ele>262.013127</ele>
        <time>2026-08-29T10:09:29Z</time>
      </trkpt>
      <trkpt lat="43.91712" lon="1.85173">
        <ele>261.804622</ele>
        <time>2026-08-29T10:09:30Z</time>
      </trkpt>
      <trkpt lat="43.91711" lon="1.85181">
        <ele>261.621031</ele>
        <time>2026-08-29T10:09:31Z</time>
      </trkpt>
      <trkpt lat="43.91711" lon="1.85188">
        <ele>261.45902</ele>
        <time>2026-08-29T10:09:32Z</time>
      </trkpt>
      <trkpt lat="43.91711" lon="1.85195">
        <ele>261.2949</ele>
        <time>2026-08-29T10:09:33Z</time>
      </trkpt>
      <trkpt lat="43.91711" lon="1.85202">
        <ele>261.116554</ele>
        <time>2026-08-29T10:09:34Z</time>
      </trkpt>
      <trkpt lat="43.9171" lon="1.85209">
        <ele>260.947237</ele>
        <time>2026-08-29T10:09:35Z</time>
      </trkpt>
      <trkpt lat="43.91708" lon="1.85216">
        <ele>260.774347</ele>
        <time>2026-08-29T10:09:36Z</time>
      </trkpt>
      <trkpt lat="43.91706" lon="1.85223">
        <ele>260.611072</ele>
        <time>2026-08-29T10:09:37Z</time>
      </trkpt>
      <trkpt lat="43.91704" lon="1.8523">
        <ele>260.421136</ele>
        <time>2026-08-29T10:09:38Z</time>
      </trkpt>
      <trkpt lat="43.91702" lon="1.85238">
        <ele>260.217307</ele>
        <time>2026-08-29T10:09:39Z</time>
      </trkpt>
      <trkpt lat="43.917" lon="1.85248">
        <ele>259.979845</ele>
        <time>2026-08-29T10:09:40Z</time>
      </trkpt>
      <trkpt lat="43.91698" lon="1.85258">
        <ele>259.739603</ele>
        <time>2026-08-29T10:09:41Z</time>
      </trkpt>
      <trkpt lat="43.91695" lon="1.85268">
        <ele>259.492982</ele>
        <time>2026-08-29T10:09:42Z</time>
      </trkpt>
      <trkpt lat="43.91692" lon="1.85277">
        <ele>259.26161</ele>
        <time>2026-08-29T10:09:43Z</time>
      </trkpt>
      <trkpt lat="43.91689" lon="1.85285">
        <ele>259.049489</ele>
        <time>2026-08-29T10:09:44Z</time>
      </trkpt>
      <trkpt lat="43.91686" lon="1.85292">
        <ele>258.854818</ele>
        <time>2026-08-29T10:09:45Z</time>
      </trkpt>
      <trkpt lat="43.91684" lon="1.85299">
        <ele>258.674639</ele>
        <time>2026-08-29T10:09:46Z</time>
      </trkpt>
      <trkpt lat="43.91682" lon="1.85305">
        <ele>258.523783</ele>
        <time>2026-08-29T10:09:47Z</time>
      </trkpt>
      <trkpt lat="43.91681" lon="1.8531">
        <ele>258.392443</ele>
        <time>2026-08-29T10:09:48Z</time>
      </trkpt>
      <trkpt lat="43.9168" lon="1.85316">
        <ele>258.261406</ele>
        <time>2026-08-29T10:09:49Z</time>
      </trkpt>
      <trkpt lat="43.91679" lon="1.85321">
        <ele>258.138514</ele>
        <time>2026-08-29T10:09:50Z</time>
      </trkpt>
      <trkpt lat="43.91678" lon="1.85326">
        <ele>258.005491</ele>
        <time>2026-08-29T10:09:51Z</time>
      </trkpt>
      <trkpt lat="43.91677" lon="1.85332">
        <ele>257.871874</ele>
        <time>2026-08-29T10:09:52Z</time>
      </trkpt>
      <trkpt lat="43.91676" lon="1.85337">
        <ele>257.746708</ele>
        <time>2026-08-29T10:09:53Z</time>
      </trkpt>
      <trkpt lat="43.91675" lon="1.85343">
        <ele>257.419816</ele>
        <time>2026-08-29T10:09:54Z</time>
      </trkpt>
      <trkpt lat="43.91674" lon="1.85348">
        <ele>257.105575</ele>
        <time>2026-08-29T10:09:55Z</time>
      </trkpt>
      <trkpt lat="43.91673" lon="1.85354">
        <ele>256.764874</ele>
        <time>2026-08-29T10:09:56Z</time>
      </trkpt>
      <trkpt lat="43.91673" lon="1.8536">
        <ele>256.389878</ele>
        <time>2026-08-29T10:09:57Z</time>
      </trkpt>
      <trkpt lat="43.91672" lon="1.85367">
        <ele>255.965686</ele>
        <time>2026-08-29T10:09:58Z</time>
      </trkpt>
      <trkpt lat="43.91671" lon="1.85376">
        <ele>255.464072</ele>
        <time>2026-08-29T10:09:59Z</time>
      </trkpt>
      <trkpt lat="43.9167" lon="1.85385">
        <ele>254.904628</ele>
        <time>2026-08-29T10:10:00Z</time>
      </trkpt>
      <trkpt lat="43.91669" lon="1.85395">
        <ele>254.327812</ele>
        <time>2026-08-29T10:10:01Z</time>
      </trkpt>
      <trkpt lat="43.91668" lon="1.85405">
        <ele>253.731411</ele>
        <time>2026-08-29T10:10:02Z</time>
      </trkpt>
      <trkpt lat="43.91666" lon="1.85414">
        <ele>253.161784</ele>
        <time>2026-08-29T10:10:03Z</time>
      </trkpt>
      <trkpt lat="43.91665" lon="1.85424">
        <ele>252.584589</ele>
        <time>2026-08-29T10:10:04Z</time>
      </trkpt>
      <trkpt lat="43.91663" lon="1.85433">
        <ele>252.041348</ele>
        <time>2026-08-29T10:10:05Z</time>
      </trkpt>
      <trkpt lat="43.91661" lon="1.85441">
        <ele>251.552004</ele>
        <time>2026-08-29T10:10:06Z</time>
      </trkpt>
      <trkpt lat="43.91659" lon="1.85449">
        <ele>251.032778</ele>
        <time>2026-08-29T10:10:07Z</time>
      </trkpt>
      <trkpt lat="43.91657" lon="1.85458">
        <ele>250.51915</ele>
        <time>2026-08-29T10:10:08Z</time>
      </trkpt>
      <trkpt lat="43.91655" lon="1.85466">
        <ele>249.980385</ele>
        <time>2026-08-29T10:10:09Z</time>
      </trkpt>
      <trkpt lat="43.91653" lon="1.85475">
        <ele>249.451888</ele>
        <time>2026-08-29T10:10:10Z</time>
      </trkpt>
      <trkpt lat="43.91651" lon="1.85484">
        <ele>248.902506</ele>
        <time>2026-08-29T10:10:11Z</time>
      </trkpt>
      <trkpt lat="43.91648" lon="1.85493">
        <ele>248.36946</ele>
        <time>2026-08-29T10:10:12Z</time>
      </trkpt>
      <trkpt lat="43.91646" lon="1.85501">
        <ele>247.81952</ele>
        <time>2026-08-29T10:10:13Z</time>
      </trkpt>
      <trkpt lat="43.91643" lon="1.85509">
        <ele>247.298411</ele>
        <time>2026-08-29T10:10:14Z</time>
      </trkpt>
      <trkpt lat="43.91641" lon="1.85517">
        <ele>246.817698</ele>
        <time>2026-08-29T10:10:15Z</time>
      </trkpt>
      <trkpt lat="43.91638" lon="1.85523">
        <ele>246.400801</ele>
        <time>2026-08-29T10:10:16Z</time>
      </trkpt>
      <trkpt lat="43.91635" lon="1.85527">
        <ele>246.047073</ele>
        <time>2026-08-29T10:10:17Z</time>
      </trkpt>
      <trkpt lat="43.91632" lon="1.8553">
        <ele>245.739409</ele>
        <time>2026-08-29T10:10:18Z</time>
      </trkpt>
      <trkpt lat="43.91628" lon="1.85533">
        <ele>245.403282</ele>
        <time>2026-08-29T10:10:19Z</time>
      </trkpt>
      <trkpt lat="43.91625" lon="1.85535">
        <ele>245.115902</ele>
        <time>2026-08-29T10:10:20Z</time>
      </trkpt>
      <trkpt lat="43.91621" lon="1.85537">
        <ele>244.829012</ele>
        <time>2026-08-29T10:10:21Z</time>
      </trkpt>
      <trkpt lat="43.91619" lon="1.8554">
        <ele>244.565837</ele>
        <time>2026-08-29T10:10:22Z</time>
      </trkpt>
      <trkpt lat="43.91616" lon="1.85543">
        <ele>244.281843</ele>
        <time>2026-08-29T10:10:23Z</time>
      </trkpt>
      <trkpt lat="43.91614" lon="1.85545">
        <ele>244.018667</ele>
        <time>2026-08-29T10:10:24Z</time>
      </trkpt>
      <trkpt lat="43.91611" lon="1.85548">
        <ele>243.74464</ele>
        <time>2026-08-29T10:10:25Z</time>
      </trkpt>
      <trkpt lat="43.91609" lon="1.85551">
        <ele>243.501439</ele>
        <time>2026-08-29T10:10:26Z</time>
      </trkpt>
      <trkpt lat="43.91606" lon="1.85554">
        <ele>243.243544</ele>
        <time>2026-08-29T10:10:27Z</time>
      </trkpt>
      <trkpt lat="43.91604" lon="1.85557">
        <ele>242.698458</ele>
        <time>2026-08-29T10:10:28Z</time>
      </trkpt>
      <trkpt lat="43.91603" lon="1.85561">
        <ele>242.106799</ele>
        <time>2026-08-29T10:10:29Z</time>
      </trkpt>
      <trkpt lat="43.91603" lon="1.85564">
        <ele>241.59658</ele>
        <time>2026-08-29T10:10:30Z</time>
      </trkpt>
      <trkpt lat="43.91603" lon="1.85566">
        <ele>241.278154</ele>
        <time>2026-08-29T10:10:31Z</time>
      </trkpt>
      <trkpt lat="43.91603" lon="1.85567">
        <ele>241.140373</ele>
        <time>2026-08-29T10:10:32Z</time>
      </trkpt>
      <trkpt lat="43.91603" lon="1.85567">
        <ele>241.077362</ele>
        <time>2026-08-29T10:10:33Z</time>
      </trkpt>
      <trkpt lat="43.91602" lon="1.85567">
        <ele>240.971259</ele>
        <time>2026-08-29T10:10:34Z</time>
      </trkpt>
      <trkpt lat="43.916" lon="1.85573">
        <ele>240.049561</ele>
        <time>2026-08-29T10:11:03Z</time>
      </trkpt>
      <trkpt lat="43.91599" lon="1.85575">
        <ele>239.58236</ele>
        <time>2026-08-29T10:11:04Z</time>
      </trkpt>
      <trkpt lat="43.91597" lon="1.85577">
        <ele>239.149803</ele>
        <time>2026-08-29T10:11:05Z</time>
      </trkpt>
      <trkpt lat="43.91595" lon="1.85579">
        <ele>238.683859</ele>
        <time>2026-08-29T10:11:06Z</time>
      </trkpt>
      <trkpt lat="43.91594" lon="1.85581">
        <ele>238.266152</ele>
        <time>2026-08-29T10:11:07Z</time>
      </trkpt>
      <trkpt lat="43.91593" lon="1.85583">
        <ele>237.872562</ele>
        <time>2026-08-29T10:11:08Z</time>
      </trkpt>
      <trkpt lat="43.91592" lon="1.85585">
        <ele>237.599642</ele>
        <time>2026-08-29T10:11:09Z</time>
      </trkpt>
      <trkpt lat="43.91592" lon="1.85586">
        <ele>237.402847</ele>
        <time>2026-08-29T10:11:10Z</time>
      </trkpt>
      <trkpt lat="43.91592" lon="1.85586">
        <ele>237.289792</ele>
        <time>2026-08-29T10:11:11Z</time>
      </trkpt>
      <trkpt lat="43.91591" lon="1.85587">
        <ele>237.23802</ele>
        <time>2026-08-29T10:11:12Z</time>
      </trkpt>
      <trkpt lat="43.91591" lon="1.85587">
        <ele>237.131918</ele>
        <time>2026-08-29T10:11:13Z</time>
      </trkpt>
      <trkpt lat="43.91587" lon="1.85595">
        <ele>235.660887</ele>
        <time>2026-08-29T10:11:36Z</time>
      </trkpt>
      <trkpt lat="43.91586" lon="1.85597">
        <ele>235.187882</ele>
        <time>2026-08-29T10:11:37Z</time>
      </trkpt>
      <trkpt lat="43.91585" lon="1.856">
        <ele>234.745858</ele>
        <time>2026-08-29T10:11:38Z</time>
      </trkpt>
      <trkpt lat="43.91584" lon="1.85601">
        <ele>234.400115</ele>
        <time>2026-08-29T10:11:39Z</time>
      </trkpt>
      <trkpt lat="43.91583" lon="1.85603">
        <ele>234.101814</ele>
        <time>2026-08-29T10:11:40Z</time>
      </trkpt>
      <trkpt lat="43.91582" lon="1.85605">
        <ele>233.792318</ele>
        <time>2026-08-29T10:11:41Z</time>
      </trkpt>
      <trkpt lat="43.91581" lon="1.85606">
        <ele>233.442847</ele>
        <time>2026-08-29T10:11:42Z</time>
      </trkpt>
      <trkpt lat="43.91579" lon="1.85608">
        <ele>233.049026</ele>
        <time>2026-08-29T10:11:43Z</time>
      </trkpt>
      <trkpt lat="43.91578" lon="1.8561">
        <ele>232.693973</ele>
        <time>2026-08-29T10:11:44Z</time>
      </trkpt>
      <trkpt lat="43.91577" lon="1.85612">
        <ele>232.261052</ele>
        <time>2026-08-29T10:11:45Z</time>
      </trkpt>
      <trkpt lat="43.91575" lon="1.85614">
        <ele>231.806724</ele>
        <time>2026-08-29T10:11:46Z</time>
      </trkpt>
      <trkpt lat="43.91574" lon="1.85617">
        <ele>231.303384</ele>
        <time>2026-08-29T10:11:47Z</time>
      </trkpt>
      <trkpt lat="43.91573" lon="1.8562">
        <ele>230.733695</ele>
        <time>2026-08-29T10:11:48Z</time>
      </trkpt>
      <trkpt lat="43.91572" lon="1.85623">
        <ele>230.219778</ele>
        <time>2026-08-29T10:11:49Z</time>
      </trkpt>
      <trkpt lat="43.91571" lon="1.85626">
        <ele>229.742015</ele>
        <time>2026-08-29T10:11:50Z</time>
      </trkpt>
      <trkpt lat="43.9157" lon="1.85629">
        <ele>229.305569</ele>
        <time>2026-08-29T10:11:51Z</time>
      </trkpt>
      <trkpt lat="43.9157" lon="1.85632">
        <ele>228.84731</ele>
        <time>2026-08-29T10:11:52Z</time>
      </trkpt>
      <trkpt lat="43.91569" lon="1.85635">
        <ele>228.419798</ele>
        <time>2026-08-29T10:11:53Z</time>
      </trkpt>
      <trkpt lat="43.91568" lon="1.85637">
        <ele>227.977468</ele>
        <time>2026-08-29T10:11:54Z</time>
      </trkpt>
      <trkpt lat="43.91567" lon="1.8564">
        <ele>227.462513</ele>
        <time>2026-08-29T10:11:55Z</time>
      </trkpt>
      <trkpt lat="43.91566" lon="1.85644">
        <ele>226.912352</ele>
        <time>2026-08-29T10:11:56Z</time>
      </trkpt>
      <trkpt lat="43.91565" lon="1.85646">
        <ele>226.384156</ele>
        <time>2026-08-29T10:11:57Z</time>
      </trkpt>
      <trkpt lat="43.91563" lon="1.85649">
        <ele>225.843986</ele>
        <time>2026-08-29T10:11:58Z</time>
      </trkpt>
      <trkpt lat="43.91563" lon="1.85652">
        <ele>225.395552</ele>
        <time>2026-08-29T10:11:59Z</time>
      </trkpt>
      <trkpt lat="43.91562" lon="1.85655">
        <ele>224.997152</ele>
        <time>2026-08-29T10:12:00Z</time>
      </trkpt>
      <trkpt lat="43.91562" lon="1.85657">
        <ele>224.639159</ele>
        <time>2026-08-29T10:12:01Z</time>
      </trkpt>
      <trkpt lat="43.91562" lon="1.85659">
        <ele>224.285505</ele>
        <time>2026-08-29T10:12:02Z</time>
      </trkpt>
      <trkpt lat="43.91561" lon="1.85661">
        <ele>223.961582</ele>
        <time>2026-08-29T10:12:03Z</time>
      </trkpt>
      <trkpt lat="43.91561" lon="1.85663">
        <ele>223.696763</ele>
        <time>2026-08-29T10:12:04Z</time>
      </trkpt>
      <trkpt lat="43.91561" lon="1.85665">
        <ele>223.417224</ele>
        <time>2026-08-29T10:12:05Z</time>
      </trkpt>
      <trkpt lat="43.91561" lon="1.85667">
        <ele>223.108129</ele>
        <time>2026-08-29T10:12:06Z</time>
      </trkpt>
      <trkpt lat="43.9156" lon="1.85669">
        <ele>222.787819</ele>
        <time>2026-08-29T10:12:07Z</time>
      </trkpt>
      <trkpt lat="43.9156" lon="1.85671">
        <ele>222.502811</ele>
        <time>2026-08-29T10:12:08Z</time>
      </trkpt>
      <trkpt lat="43.91559" lon="1.85673">
        <ele>222.137263</ele>
        <time>2026-08-29T10:12:09Z</time>
      </trkpt>
      <trkpt lat="43.91559" lon="1.85676">
        <ele>221.715464</ele>
        <time>2026-08-29T10:12:10Z</time>
      </trkpt>
      <trkpt lat="43.91558" lon="1.85678">
        <ele>221.316768</ele>
        <time>2026-08-29T10:12:11Z</time>
      </trkpt>
      <trkpt lat="43.91558" lon="1.85681">
        <ele>220.967729</ele>
        <time>2026-08-29T10:12:12Z</time>
      </trkpt>
      <trkpt lat="43.91557" lon="1.85682">
        <ele>220.661673</ele>
        <time>2026-08-29T10:12:13Z</time>
      </trkpt>
      <trkpt lat="43.91557" lon="1.85684">
        <ele>220.361584</ele>
        <time>2026-08-29T10:12:14Z</time>
      </trkpt>
      <trkpt lat="43.91556" lon="1.85686">
        <ele>220.055528</ele>
        <time>2026-08-29T10:12:15Z</time>
      </trkpt>
      <trkpt lat="43.91556" lon="1.85688">
        <ele>219.782607</ele>
        <time>2026-08-29T10:12:16Z</time>
      </trkpt>
      <trkpt lat="43.91555" lon="1.85689">
        <ele>219.50478</ele>
        <time>2026-08-29T10:12:17Z</time>
      </trkpt>
      <trkpt lat="43.91555" lon="1.85691">
        <ele>219.281806</ele>
        <time>2026-08-29T10:12:18Z</time>
      </trkpt>
      <trkpt lat="43.91554" lon="1.85691">
        <ele>219.21996</ele>
        <time>2026-08-29T10:12:19Z</time>
      </trkpt>
      <trkpt lat="43.91554" lon="1.85691">
        <ele>219.177953</ele>
        <time>2026-08-29T10:12:20Z</time>
      </trkpt>
      <trkpt lat="43.91554" lon="1.85692">
        <ele>219.09944</ele>
        <time>2026-08-29T10:12:21Z</time>
      </trkpt>
      <trkpt lat="43.91553" lon="1.85715">
        <ele>215.590181</ele>
        <time>2026-08-29T10:12:36Z</time>
      </trkpt>
      <trkpt lat="43.91552" lon="1.85719">
        <ele>214.942336</ele>
        <time>2026-08-29T10:12:37Z</time>
      </trkpt>
      <trkpt lat="43.91551" lon="1.85724">
        <ele>214.191885</ele>
        <time>2026-08-29T10:12:38Z</time>
      </trkpt>
      <trkpt lat="43.9155" lon="1.85728">
        <ele>213.441435</ele>
        <time>2026-08-29T10:12:39Z</time>
      </trkpt>
      <trkpt lat="43.91549" lon="1.85732">
        <ele>212.80739</ele>
        <time>2026-08-29T10:12:40Z</time>
      </trkpt>
      <trkpt lat="43.91548" lon="1.85737">
        <ele>212.158887</ele>
        <time>2026-08-29T10:12:41Z</time>
      </trkpt>
      <trkpt lat="43.91548" lon="1.8574">
        <ele>211.5966</ele>
        <time>2026-08-29T10:12:42Z</time>
      </trkpt>
      <trkpt lat="43.91547" lon="1.85743">
        <ele>211.104903</ele>
        <time>2026-08-29T10:12:43Z</time>
      </trkpt>
      <trkpt lat="43.91546" lon="1.85746">
        <ele>210.684939</ele>
        <time>2026-08-29T10:12:44Z</time>
      </trkpt>
      <trkpt lat="43.91546" lon="1.85747">
        <ele>210.502165</ele>
        <time>2026-08-29T10:12:45Z</time>
      </trkpt>
      <trkpt lat="43.91546" lon="1.85747">
        <ele>210.408986</ele>
        <time>2026-08-29T10:12:46Z</time>
      </trkpt>
      <trkpt lat="43.91546" lon="1.85747">
        <ele>210.331328</ele>
        <time>2026-08-29T10:12:47Z</time>
      </trkpt>
      <trkpt lat="43.91544" lon="1.85751">
        <ele>209.656092</ele>
        <time>2026-08-29T10:13:08Z</time>
      </trkpt>
      <trkpt lat="43.91543" lon="1.85756">
        <ele>208.873037</ele>
        <time>2026-08-29T10:13:09Z</time>
      </trkpt>
      <trkpt lat="43.91541" lon="1.8576">
        <ele>208.074793</ele>
        <time>2026-08-29T10:13:10Z</time>
      </trkpt>
      <trkpt lat="43.91539" lon="1.85765">
        <ele>207.185983</ele>
        <time>2026-08-29T10:13:11Z</time>
      </trkpt>
      <trkpt lat="43.91537" lon="1.85771">
        <ele>206.171934</ele>
        <time>2026-08-29T10:13:12Z</time>
      </trkpt>
      <trkpt lat="43.91535" lon="1.85777">
        <ele>205.259768</ele>
        <time>2026-08-29T10:13:13Z</time>
      </trkpt>
      <trkpt lat="43.91531" lon="1.85782">
        <ele>204.570692</ele>
        <time>2026-08-29T10:13:14Z</time>
      </trkpt>
      <trkpt lat="43.91528" lon="1.85787">
        <ele>203.914163</ele>
        <time>2026-08-29T10:13:15Z</time>
      </trkpt>
      <trkpt lat="43.91525" lon="1.85792">
        <ele>203.311763</ele>
        <time>2026-08-29T10:13:16Z</time>
      </trkpt>
      <trkpt lat="43.91523" lon="1.85795">
        <ele>202.845373</ele>
        <time>2026-08-29T10:13:17Z</time>
      </trkpt>
      <trkpt lat="43.91521" lon="1.85798">
        <ele>202.412896</ele>
        <time>2026-08-29T10:13:18Z</time>
      </trkpt>
      <trkpt lat="43.9152" lon="1.85803">
        <ele>201.920782</ele>
        <time>2026-08-29T10:13:19Z</time>
      </trkpt>
      <trkpt lat="43.91518" lon="1.85808">
        <ele>201.382936</ele>
        <time>2026-08-29T10:13:20Z</time>
      </trkpt>
      <trkpt lat="43.91516" lon="1.85814">
        <ele>200.756218</ele>
        <time>2026-08-29T10:13:21Z</time>
      </trkpt>
      <trkpt lat="43.91514" lon="1.85818">
        <ele>200.267581</ele>
        <time>2026-08-29T10:13:22Z</time>
      </trkpt>
      <trkpt lat="43.91513" lon="1.85822">
        <ele>199.845645</ele>
        <time>2026-08-29T10:13:23Z</time>
      </trkpt>
      <trkpt lat="43.91512" lon="1.85826">
        <ele>199.407392</ele>
        <time>2026-08-29T10:13:24Z</time>
      </trkpt>
      <trkpt lat="43.91511" lon="1.8583">
        <ele>198.985456</ele>
        <time>2026-08-29T10:13:25Z</time>
      </trkpt>
      <trkpt lat="43.9151" lon="1.85834">
        <ele>198.603467</ele>
        <time>2026-08-29T10:13:26Z</time>
      </trkpt>
      <trkpt lat="43.91508" lon="1.85837">
        <ele>198.174056</ele>
        <time>2026-08-29T10:13:27Z</time>
      </trkpt>
      <trkpt lat="43.91507" lon="1.85841">
        <ele>197.783911</ele>
        <time>2026-08-29T10:13:28Z</time>
      </trkpt>
      <trkpt lat="43.91506" lon="1.85845">
        <ele>197.395846</ele>
        <time>2026-08-29T10:13:29Z</time>
      </trkpt>
      <trkpt lat="43.91505" lon="1.85848">
        <ele>197.051976</ele>
        <time>2026-08-29T10:13:30Z</time>
      </trkpt>
      <trkpt lat="43.91503" lon="1.8585">
        <ele>196.740081</ele>
        <time>2026-08-29T10:13:31Z</time>
      </trkpt>
      <trkpt lat="43.91502" lon="1.85852">
        <ele>196.490756</ele>
        <time>2026-08-29T10:13:32Z</time>
      </trkpt>
      <trkpt lat="43.91502" lon="1.85854">
        <ele>196.312995</ele>
        <time>2026-08-29T10:13:33Z</time>
      </trkpt>
      <trkpt lat="43.91501" lon="1.85855">
        <ele>196.208621</ele>
        <time>2026-08-29T10:13:34Z</time>
      </trkpt>
      <trkpt lat="43.91501" lon="1.85855">
        <ele>196.128352</ele>
        <time>2026-08-29T10:13:35Z</time>
      </trkpt>
      <trkpt lat="43.91501" lon="1.85856">
        <ele>196.02886</ele>
        <time>2026-08-29T10:13:36Z</time>
      </trkpt>
      <trkpt lat="43.915" lon="1.85858">
        <ele>195.892888</ele>
        <time>2026-08-29T10:13:37Z</time>
      </trkpt>
      <trkpt lat="43.91499" lon="1.85858">
        <ele>195.741148</ele>
        <time>2026-08-29T10:13:38Z</time>
      </trkpt>
      <trkpt lat="43.91499" lon="1.8586">
        <ele>195.532718</ele>
        <time>2026-08-29T10:13:39Z</time>
      </trkpt>
      <trkpt lat="43.91498" lon="1.85863">
        <ele>195.257297</ele>
        <time>2026-08-29T10:13:40Z</time>
      </trkpt>
      <trkpt lat="43.91497" lon="1.85865">
        <ele>195.033204</ele>
        <time>2026-08-29T10:13:41Z</time>
      </trkpt>
      <trkpt lat="43.91496" lon="1.85866">
        <ele>194.791513</ele>
        <time>2026-08-29T10:13:42Z</time>
      </trkpt>
      <trkpt lat="43.91495" lon="1.85868">
        <ele>194.575586</ele>
        <time>2026-08-29T10:13:43Z</time>
      </trkpt>
      <trkpt lat="43.91494" lon="1.85872">
        <ele>194.217622</ele>
        <time>2026-08-29T10:13:44Z</time>
      </trkpt>
      <trkpt lat="43.91493" lon="1.85877">
        <ele>193.683977</ele>
        <time>2026-08-29T10:13:45Z</time>
      </trkpt>
      <trkpt lat="43.91492" lon="1.85883">
        <ele>193.083389</ele>
        <time>2026-08-29T10:13:46Z</time>
      </trkpt>
      <trkpt lat="43.91491" lon="1.85889">
        <ele>192.495669</ele>
        <time>2026-08-29T10:13:47Z</time>
      </trkpt>
      <trkpt lat="43.9149" lon="1.85894">
        <ele>191.974791</ele>
        <time>2026-08-29T10:13:48Z</time>
      </trkpt>
      <trkpt lat="43.91489" lon="1.85898">
        <ele>191.549957</ele>
        <time>2026-08-29T10:13:49Z</time>
      </trkpt>
      <trkpt lat="43.91489" lon="1.85901">
        <ele>191.290467</ele>
        <time>2026-08-29T10:13:50Z</time>
      </trkpt>
      <trkpt lat="43.91489" lon="1.85902">
        <ele>191.190975</ele>
        <time>2026-08-29T10:13:51Z</time>
      </trkpt>
      <trkpt lat="43.91489" lon="1.85902">
        <ele>191.177294</ele>
        <time>2026-08-29T10:13:52Z</time>
      </trkpt>
      <trkpt lat="43.91489" lon="1.85901">
        <ele>191.113168</ele>
        <time>2026-08-29T10:13:53Z</time>
      </trkpt>
      <trkpt lat="43.91487" lon="1.85911">
        <ele>190.122907</ele>
        <time>2026-08-29T10:14:00Z</time>
      </trkpt>
      <trkpt lat="43.91486" lon="1.85914">
        <ele>189.811012</ele>
        <time>2026-08-29T10:14:01Z</time>
      </trkpt>
      <trkpt lat="43.91483" lon="1.85915">
        <ele>189.442416</ele>
        <time>2026-08-29T10:14:02Z</time>
      </trkpt>
      <trkpt lat="43.91481" lon="1.85918">
        <ele>189.100986</ele>
        <time>2026-08-29T10:14:03Z</time>
      </trkpt>
      <trkpt lat="43.91479" lon="1.8592">
        <ele>188.746924</ele>
        <time>2026-08-29T10:14:04Z</time>
      </trkpt>
      <trkpt lat="43.91477" lon="1.85922">
        <ele>188.388793</ele>
        <time>2026-08-29T10:14:05Z</time>
      </trkpt>
      <trkpt lat="43.91475" lon="1.85925">
        <ele>188.016677</ele>
        <time>2026-08-29T10:14:06Z</time>
      </trkpt>
      <trkpt lat="43.91473" lon="1.85927">
        <ele>187.628573</ele>
        <time>2026-08-29T10:14:07Z</time>
      </trkpt>
      <trkpt lat="43.9147" lon="1.85928">
        <ele>187.251972</ele>
        <time>2026-08-29T10:14:08Z</time>
      </trkpt>
      <trkpt lat="43.91468" lon="1.8593">
        <ele>186.87401</ele>
        <time>2026-08-29T10:14:09Z</time>
      </trkpt>
      <trkpt lat="43.91466" lon="1.85932">
        <ele>186.535536</ele>
        <time>2026-08-29T10:14:10Z</time>
      </trkpt>
      <trkpt lat="43.91464" lon="1.85934">
        <ele>186.202973</ele>
        <time>2026-08-29T10:14:11Z</time>
      </trkpt>
      <trkpt lat="43.91462" lon="1.85936">
        <ele>185.882631</ele>
        <time>2026-08-29T10:14:12Z</time>
      </trkpt>
      <trkpt lat="43.9146" lon="1.85938">
        <ele>185.573395</ele>
        <time>2026-08-29T10:14:13Z</time>
      </trkpt>
      <trkpt lat="43.91458" lon="1.8594">
        <ele>185.23048</ele>
        <time>2026-08-29T10:14:14Z</time>
      </trkpt>
      <trkpt lat="43.91456" lon="1.85942">
        <ele>184.819999</ele>
        <time>2026-08-29T10:14:15Z</time>
      </trkpt>
      <trkpt lat="43.91454" lon="1.85946">
        <ele>184.387418</ele>
        <time>2026-08-29T10:14:16Z</time>
      </trkpt>
      <trkpt lat="43.91453" lon="1.8595">
        <ele>183.932738</ele>
        <time>2026-08-29T10:14:17Z</time>
      </trkpt>
      <trkpt lat="43.91453" lon="1.85955">
        <ele>183.390032</ele>
        <time>2026-08-29T10:14:18Z</time>
      </trkpt>
      <trkpt lat="43.91453" lon="1.85962">
        <ele>182.779033</ele>
        <time>2026-08-29T10:14:19Z</time>
      </trkpt>
      <trkpt lat="43.91453" lon="1.85968">
        <ele>182.128614</ele>
        <time>2026-08-29T10:14:20Z</time>
      </trkpt>
      <trkpt lat="43.91453" lon="1.85975">
        <ele>181.484409</ele>
        <time>2026-08-29T10:14:21Z</time>
      </trkpt>
      <trkpt lat="43.91454" lon="1.85981">
        <ele>180.819759</ele>
        <time>2026-08-29T10:14:22Z</time>
      </trkpt>
      <trkpt lat="43.91455" lon="1.85988">
        <ele>180.644932</ele>
        <time>2026-08-29T10:14:23Z</time>
      </trkpt>
      <trkpt lat="43.91457" lon="1.85994">
        <ele>180.494578</ele>
        <time>2026-08-29T10:14:24Z</time>
      </trkpt>
      <trkpt lat="43.91458" lon="1.86">
        <ele>180.356527</ele>
        <time>2026-08-29T10:14:25Z</time>
      </trkpt>
      <trkpt lat="43.91462" lon="1.86006">
        <ele>180.198348</ele>
        <time>2026-08-29T10:14:26Z</time>
      </trkpt>
      <trkpt lat="43.91465" lon="1.86011">
        <ele>180.050809</ele>
        <time>2026-08-29T10:14:27Z</time>
      </trkpt>
      <trkpt lat="43.91467" lon="1.86016">
        <ele>179.910451</ele>
        <time>2026-08-29T10:14:28Z</time>
      </trkpt>
      <trkpt lat="43.9147" lon="1.86021">
        <ele>179.769692</ele>
        <time>2026-08-29T10:14:29Z</time>
      </trkpt>
      <trkpt lat="43.91473" lon="1.86026">
        <ele>179.635891</ele>
        <time>2026-08-29T10:14:30Z</time>
      </trkpt>
      <trkpt lat="43.91476" lon="1.8603">
        <ele>179.51494</ele>
        <time>2026-08-29T10:14:31Z</time>
      </trkpt>
      <trkpt lat="43.91478" lon="1.86034">
        <ele>179.409489</ele>
        <time>2026-08-29T10:14:32Z</time>
      </trkpt>
      <trkpt lat="43.91479" lon="1.86038">
        <ele>179.314645</ele>
        <time>2026-08-29T10:14:33Z</time>
      </trkpt>
      <trkpt lat="43.9148" lon="1.86042">
        <ele>179.228145</ele>
        <time>2026-08-29T10:14:34Z</time>
      </trkpt>
      <trkpt lat="43.9148" lon="1.86045">
        <ele>179.149111</ele>
        <time>2026-08-29T10:14:35Z</time>
      </trkpt>
      <trkpt lat="43.91479" lon="1.86049">
        <ele>179.065527</ele>
        <time>2026-08-29T10:14:36Z</time>
      </trkpt>
      <trkpt lat="43.91478" lon="1.86052">
        <ele>178.988896</ele>
        <time>2026-08-29T10:14:37Z</time>
      </trkpt>
      <trkpt lat="43.91476" lon="1.86055">
        <ele>178.901742</ele>
        <time>2026-08-29T10:14:38Z</time>
      </trkpt>
      <trkpt lat="43.91474" lon="1.86057">
        <ele>178.827946</ele>
        <time>2026-08-29T10:14:39Z</time>
      </trkpt>
      <trkpt lat="43.91472" lon="1.8606">
        <ele>178.752695</ele>
        <time>2026-08-29T10:14:40Z</time>
      </trkpt>
      <trkpt lat="43.9147" lon="1.86062">
        <ele>178.671628</ele>
        <time>2026-08-29T10:14:41Z</time>
      </trkpt>
      <trkpt lat="43.91468" lon="1.86065">
        <ele>178.592697</ele>
        <time>2026-08-29T10:14:42Z</time>
      </trkpt>
      <trkpt lat="43.91467" lon="1.86068">
        <ele>178.509149</ele>
        <time>2026-08-29T10:14:43Z</time>
      </trkpt>
      <trkpt lat="43.91465" lon="1.86071">
        <ele>178.421995</ele>
        <time>2026-08-29T10:14:44Z</time>
      </trkpt>
      <trkpt lat="43.91463" lon="1.86074">
        <ele>178.331225</ele>
        <time>2026-08-29T10:14:45Z</time>
      </trkpt>
      <trkpt lat="43.91461" lon="1.86078">
        <ele>178.235297</ele>
        <time>2026-08-29T10:14:46Z</time>
      </trkpt>
      <trkpt lat="43.91459" lon="1.86081">
        <ele>178.129972</ele>
        <time>2026-08-29T10:14:47Z</time>
      </trkpt>
      <trkpt lat="43.91457" lon="1.86085">
        <ele>178.023262</ele>
        <time>2026-08-29T10:14:48Z</time>
      </trkpt>
      <trkpt lat="43.91454" lon="1.86089">
        <ele>177.907781</ele>
        <time>2026-08-29T10:14:49Z</time>
      </trkpt>
      <trkpt lat="43.91452" lon="1.86093">
        <ele>177.793834</ele>
        <time>2026-08-29T10:14:50Z</time>
      </trkpt>
      <trkpt lat="43.91449" lon="1.86097">
        <ele>177.682796</ele>
        <time>2026-08-29T10:14:51Z</time>
      </trkpt>
      <trkpt lat="43.91447" lon="1.86101">
        <ele>177.57437</ele>
        <time>2026-08-29T10:14:52Z</time>
      </trkpt>
      <trkpt lat="43.91445" lon="1.86105">
        <ele>177.465945</ele>
        <time>2026-08-29T10:14:53Z</time>
      </trkpt>
      <trkpt lat="43.91443" lon="1.86109">
        <ele>177.346689</ele>
        <time>2026-08-29T10:14:54Z</time>
      </trkpt>
      <trkpt lat="43.9144" lon="1.86113">
        <ele>177.232742</ele>
        <time>2026-08-29T10:14:55Z</time>
      </trkpt>
      <trkpt lat="43.91438" lon="1.86116">
        <ele>177.126397</ele>
        <time>2026-08-29T10:14:56Z</time>
      </trkpt>
      <trkpt lat="43.91435" lon="1.8612">
        <ele>177.024306</ele>
        <time>2026-08-29T10:14:57Z</time>
      </trkpt>
      <trkpt lat="43.91433" lon="1.86123">
        <ele>176.92263</ele>
        <time>2026-08-29T10:14:58Z</time>
      </trkpt>
      <trkpt lat="43.91431" lon="1.86127">
        <ele>176.822594</ele>
        <time>2026-08-29T10:14:59Z</time>
      </trkpt>
      <trkpt lat="43.91429" lon="1.8613">
        <ele>176.719951</ele>
        <time>2026-08-29T10:15:00Z</time>
      </trkpt>
      <trkpt lat="43.91426" lon="1.86134">
        <ele>176.609332</ele>
        <time>2026-08-29T10:15:01Z</time>
      </trkpt>
      <trkpt lat="43.91424" lon="1.86138">
        <ele>176.495384</ele>
        <time>2026-08-29T10:15:02Z</time>
      </trkpt>
      <trkpt lat="43.91421" lon="1.86142">
        <ele>176.37804</ele>
        <time>2026-08-29T10:15:03Z</time>
      </trkpt>
      <trkpt lat="43.91419" lon="1.86146">
        <ele>176.257266</ele>
        <time>2026-08-29T10:15:04Z</time>
      </trkpt>
      <trkpt lat="43.91417" lon="1.86151">
        <ele>176.127411</ele>
        <time>2026-08-29T10:15:05Z</time>
      </trkpt>
      <trkpt lat="43.91415" lon="1.86157">
        <ele>175.992553</ele>
        <time>2026-08-29T10:15:06Z</time>
      </trkpt>
      <trkpt lat="43.91413" lon="1.86163">
        <ele>175.850286</ele>
        <time>2026-08-29T10:15:07Z</time>
      </trkpt>
      <trkpt lat="43.91411" lon="1.8617">
        <ele>175.694711</ele>
        <time>2026-08-29T10:15:08Z</time>
      </trkpt>
      <trkpt lat="43.91409" lon="1.86176">
        <ele>175.540207</ele>
        <time>2026-08-29T10:15:09Z</time>
      </trkpt>
      <trkpt lat="43.91408" lon="1.86183">
        <ele>175.384631</ele>
        <time>2026-08-29T10:15:10Z</time>
      </trkpt>
      <trkpt lat="43.91405" lon="1.86189">
        <ele>175.17963</ele>
        <time>2026-08-29T10:15:11Z</time>
      </trkpt>
      <trkpt lat="43.91403" lon="1.86195">
        <ele>174.928912</ele>
        <time>2026-08-29T10:15:12Z</time>
      </trkpt>
      <trkpt lat="43.91402" lon="1.86202">
        <ele>174.6684</ele>
        <time>2026-08-29T10:15:13Z</time>
      </trkpt>
      <trkpt lat="43.914" lon="1.86209">
        <ele>174.419839</ele>
        <time>2026-08-29T10:15:14Z</time>
      </trkpt>
      <trkpt lat="43.91399" lon="1.86215">
        <ele>174.177789</ele>
        <time>2026-08-29T10:15:15Z</time>
      </trkpt>
      <trkpt lat="43.91399" lon="1.86222">
        <ele>173.939141</ele>
        <time>2026-08-29T10:15:16Z</time>
      </trkpt>
      <trkpt lat="43.91399" lon="1.86228">
        <ele>173.713354</ele>
        <time>2026-08-29T10:15:17Z</time>
      </trkpt>
      <trkpt lat="43.91399" lon="1.86234">
        <ele>173.500627</ele>
        <time>2026-08-29T10:15:18Z</time>
      </trkpt>
      <trkpt lat="43.914" lon="1.86239">
        <ele>173.292067</ele>
        <time>2026-08-29T10:15:19Z</time>
      </trkpt>
      <trkpt lat="43.91399" lon="1.86245">
        <ele>173.09879</ele>
        <time>2026-08-29T10:15:20Z</time>
      </trkpt>
      <trkpt lat="43.91398" lon="1.8625">
        <ele>172.913761</ele>
        <time>2026-08-29T10:15:21Z</time>
      </trkpt>
      <trkpt lat="43.91397" lon="1.86254">
        <ele>172.751013</ele>
        <time>2026-08-29T10:15:22Z</time>
      </trkpt>
      <trkpt lat="43.91396" lon="1.86257">
        <ele>172.598813</ele>
        <time>2026-08-29T10:15:23Z</time>
      </trkpt>
      <trkpt lat="43.91394" lon="1.86261">
        <ele>172.447264</ele>
        <time>2026-08-29T10:15:24Z</time>
      </trkpt>
      <trkpt lat="43.91391" lon="1.86263">
        <ele>172.280911</ele>
        <time>2026-08-29T10:15:25Z</time>
      </trkpt>
      <trkpt lat="43.91389" lon="1.86266">
        <ele>172.116765</ele>
        <time>2026-08-29T10:15:26Z</time>
      </trkpt>
      <trkpt lat="43.91386" lon="1.86269">
        <ele>171.952619</ele>
        <time>2026-08-29T10:15:27Z</time>
      </trkpt>
      <trkpt lat="43.91383" lon="1.86271">
        <ele>171.780271</ele>
        <time>2026-08-29T10:15:28Z</time>
      </trkpt>
      <trkpt lat="43.9138" lon="1.86274">
        <ele>171.591293</ele>
        <time>2026-08-29T10:15:29Z</time>
      </trkpt>
      <trkpt lat="43.91377" lon="1.86277">
        <ele>171.408197</ele>
        <time>2026-08-29T10:15:30Z</time>
      </trkpt>
      <trkpt lat="43.91374" lon="1.8628">
        <ele>171.215006</ele>
        <time>2026-08-29T10:15:31Z</time>
      </trkpt>
      <trkpt lat="43.91371" lon="1.86282">
        <ele>171.031136</ele>
        <time>2026-08-29T10:15:32Z</time>
      </trkpt>
      <trkpt lat="43.91368" lon="1.86284">
        <ele>170.864439</ele>
        <time>2026-08-29T10:15:33Z</time>
      </trkpt>
      <trkpt lat="43.91365" lon="1.86286">
        <ele>170.712716</ele>
        <time>2026-08-29T10:15:34Z</time>
      </trkpt>
      <trkpt lat="43.91362" lon="1.86286">
        <ele>170.563914</ele>
        <time>2026-08-29T10:15:35Z</time>
      </trkpt>
      <trkpt lat="43.91359" lon="1.86287">
        <ele>170.413692</ele>
        <time>2026-08-29T10:15:36Z</time>
      </trkpt>
      <trkpt lat="43.91357" lon="1.86288">
        <ele>170.299591</ele>
        <time>2026-08-29T10:15:37Z</time>
      </trkpt>
      <trkpt lat="43.91356" lon="1.86289">
        <ele>170.241314</ele>
        <time>2026-08-29T10:15:38Z</time>
      </trkpt>
      <trkpt lat="43.91356" lon="1.86289">
        <ele>170.222623</ele>
        <time>2026-08-29T10:15:39Z</time>
      </trkpt>
      <trkpt lat="43.91355" lon="1.86289">
        <ele>170.211876</ele>
        <time>2026-08-29T10:15:40Z</time>
      </trkpt>
      <trkpt lat="43.91353" lon="1.8629">
        <ele>170.064769</ele>
        <time>2026-08-29T10:15:43Z</time>
      </trkpt>
      <trkpt lat="43.9135" lon="1.86292">
        <ele>169.942424</ele>
        <time>2026-08-29T10:15:44Z</time>
      </trkpt>
      <trkpt lat="43.91348" lon="1.86293">
        <ele>169.805018</ele>
        <time>2026-08-29T10:15:45Z</time>
      </trkpt>
      <trkpt lat="43.91345" lon="1.86294">
        <ele>169.662768</ele>
        <time>2026-08-29T10:15:46Z</time>
      </trkpt>
      <trkpt lat="43.91342" lon="1.86295">
        <ele>169.526379</ele>
        <time>2026-08-29T10:15:47Z</time>
      </trkpt>
      <trkpt lat="43.9134" lon="1.86296">
        <ele>169.390101</ele>
        <time>2026-08-29T10:15:48Z</time>
      </trkpt>
      <trkpt lat="43.91338" lon="1.86299">
        <ele>169.246801</ele>
        <time>2026-08-29T10:15:49Z</time>
      </trkpt>
      <trkpt lat="43.91335" lon="1.86301">
        <ele>169.086674</ele>
        <time>2026-08-29T10:15:50Z</time>
      </trkpt>
      <trkpt lat="43.91333" lon="1.86304">
        <ele>168.928757</ele>
        <time>2026-08-29T10:15:51Z</time>
      </trkpt>
      <trkpt lat="43.9133" lon="1.86307">
        <ele>168.753097</ele>
        <time>2026-08-29T10:15:52Z</time>
      </trkpt>
      <trkpt lat="43.91328" lon="1.8631">
        <ele>168.583634</ele>
        <time>2026-08-29T10:15:53Z</time>
      </trkpt>
      <trkpt lat="43.91325" lon="1.86314">
        <ele>168.410281</ele>
        <time>2026-08-29T10:15:54Z</time>
      </trkpt>
      <trkpt lat="43.91323" lon="1.86317">
        <ele>168.23837</ele>
        <time>2026-08-29T10:15:55Z</time>
      </trkpt>
      <trkpt lat="43.9132" lon="1.86319">
        <ele>168.078243</ele>
        <time>2026-08-29T10:15:56Z</time>
      </trkpt>
      <trkpt lat="43.91318" lon="1.86322">
        <ele>167.918696</ele>
        <time>2026-08-29T10:15:57Z</time>
      </trkpt>
      <trkpt lat="43.91316" lon="1.86326">
        <ele>167.757607</ele>
        <time>2026-08-29T10:15:58Z</time>
      </trkpt>
      <trkpt lat="43.91314" lon="1.86329">
        <ele>167.603761</ele>
        <time>2026-08-29T10:15:59Z</time>
      </trkpt>
      <trkpt lat="43.91312" lon="1.86333">
        <ele>167.435065</ele>
        <time>2026-08-29T10:16:00Z</time>
      </trkpt>
      <trkpt lat="43.91309" lon="1.86336">
        <ele>167.260665</ele>
        <time>2026-08-29T10:16:01Z</time>
      </trkpt>
      <trkpt lat="43.91306" lon="1.86339">
        <ele>167.085832</ele>
        <time>2026-08-29T10:16:02Z</time>
      </trkpt>
      <trkpt lat="43.91303" lon="1.86342">
        <ele>166.890538</ele>
        <time>2026-08-29T10:16:03Z</time>
      </trkpt>
      <trkpt lat="43.913" lon="1.86345">
        <ele>166.697035</ele>
        <time>2026-08-29T10:16:04Z</time>
      </trkpt>
      <trkpt lat="43.91297" lon="1.86349">
        <ele>166.489281</ele>
        <time>2026-08-29T10:16:05Z</time>
      </trkpt>
      <trkpt lat="43.91293" lon="1.86353">
        <ele>166.248195</ele>
        <time>2026-08-29T10:16:06Z</time>
      </trkpt>
      <trkpt lat="43.91289" lon="1.86357">
        <ele>166.012978</ele>
        <time>2026-08-29T10:16:07Z</time>
      </trkpt>
      <trkpt lat="43.91285" lon="1.86361">
        <ele>165.769252</ele>
        <time>2026-08-29T10:16:08Z</time>
      </trkpt>
      <trkpt lat="43.91281" lon="1.86366">
        <ele>165.532467</ele>
        <time>2026-08-29T10:16:09Z</time>
      </trkpt>
      <trkpt lat="43.91277" lon="1.86371">
        <ele>165.29113</ele>
        <time>2026-08-29T10:16:10Z</time>
      </trkpt>
      <trkpt lat="43.91275" lon="1.86377">
        <ele>165.075671</ele>
        <time>2026-08-29T10:16:11Z</time>
      </trkpt>
      <trkpt lat="43.91273" lon="1.86381">
        <ele>164.902327</ele>
        <time>2026-08-29T10:16:12Z</time>
      </trkpt>
      <trkpt lat="43.91273" lon="1.86384">
        <ele>164.815698</ele>
        <time>2026-08-29T10:16:13Z</time>
      </trkpt>
      <trkpt lat="43.91273" lon="1.86385">
        <ele>164.782567</ele>
        <time>2026-08-29T10:16:14Z</time>
      </trkpt>
      <trkpt lat="43.91273" lon="1.86386">
        <ele>164.757618</ele>
        <time>2026-08-29T10:16:15Z</time>
      </trkpt>
      <trkpt lat="43.91272" lon="1.86387">
        <ele>164.695599</ele>
        <time>2026-08-29T10:16:36Z</time>
      </trkpt>
      <trkpt lat="43.91271" lon="1.8639">
        <ele>164.592812</ele>
        <time>2026-08-29T10:16:37Z</time>
      </trkpt>
      <trkpt lat="43.91269" lon="1.86392">
        <ele>164.462056</ele>
        <time>2026-08-29T10:16:38Z</time>
      </trkpt>
      <trkpt lat="43.91266" lon="1.86395">
        <ele>164.321365</ele>
        <time>2026-08-29T10:16:39Z</time>
      </trkpt>
      <trkpt lat="43.91264" lon="1.86398">
        <ele>164.185136</ele>
        <time>2026-08-29T10:16:40Z</time>
      </trkpt>
      <trkpt lat="43.91262" lon="1.86401">
        <ele>164.028743</ele>
        <time>2026-08-29T10:16:41Z</time>
      </trkpt>
      <trkpt lat="43.91259" lon="1.86404">
        <ele>163.871117</ele>
        <time>2026-08-29T10:16:42Z</time>
      </trkpt>
      <trkpt lat="43.91256" lon="1.86407">
        <ele>163.706405</ele>
        <time>2026-08-29T10:16:43Z</time>
      </trkpt>
      <trkpt lat="43.91253" lon="1.8641">
        <ele>163.532611</ele>
        <time>2026-08-29T10:16:44Z</time>
      </trkpt>
      <trkpt lat="43.9125" lon="1.86413">
        <ele>163.358648</ele>
        <time>2026-08-29T10:16:45Z</time>
      </trkpt>
      <trkpt lat="43.91247" lon="1.86416">
        <ele>163.185752</ele>
        <time>2026-08-29T10:16:46Z</time>
      </trkpt>
      <trkpt lat="43.91244" lon="1.86418">
        <ele>163.021379</ele>
        <time>2026-08-29T10:16:47Z</time>
      </trkpt>
      <trkpt lat="43.91241" lon="1.86422">
        <ele>162.863753</ele>
        <time>2026-08-29T10:16:48Z</time>
      </trkpt>
      <trkpt lat="43.91239" lon="1.86425">
        <ele>162.704807</ele>
        <time>2026-08-29T10:16:49Z</time>
      </trkpt>
      <trkpt lat="43.91237" lon="1.8643">
        <ele>162.54004</ele>
        <time>2026-08-29T10:16:50Z</time>
      </trkpt>
      <trkpt lat="43.91235" lon="1.86434">
        <ele>162.359862</ele>
        <time>2026-08-29T10:16:51Z</time>
      </trkpt>
      <trkpt lat="43.91232" lon="1.86438">
        <ele>162.176395</ele>
        <time>2026-08-29T10:16:52Z</time>
      </trkpt>
      <trkpt lat="43.9123" lon="1.86443">
        <ele>161.990403</ele>
        <time>2026-08-29T10:16:53Z</time>
      </trkpt>
      <trkpt lat="43.91227" lon="1.86447">
        <ele>161.806364</ele>
        <time>2026-08-29T10:16:54Z</time>
      </trkpt>
      <trkpt lat="43.91225" lon="1.86451">
        <ele>161.630918</ele>
        <time>2026-08-29T10:16:55Z</time>
      </trkpt>
      <trkpt lat="43.91222" lon="1.86455">
        <ele>161.448071</ele>
        <time>2026-08-29T10:16:56Z</time>
      </trkpt>
      <trkpt lat="43.9122" lon="1.86459">
        <ele>161.265223</ele>
        <time>2026-08-29T10:16:57Z</time>
      </trkpt>
      <trkpt lat="43.91217" lon="1.86464">
        <ele>161.082423</ele>
        <time>2026-08-29T10:16:58Z</time>
      </trkpt>
      <trkpt lat="43.91215" lon="1.86468">
        <ele>160.910378</ele>
        <time>2026-08-29T10:16:59Z</time>
      </trkpt>
      <trkpt lat="43.91214" lon="1.86472">
        <ele>160.754041</ele>
        <time>2026-08-29T10:17:00Z</time>
      </trkpt>
      <trkpt lat="43.91213" lon="1.86477">
        <ele>160.606904</ele>
        <time>2026-08-29T10:17:01Z</time>
      </trkpt>
      <trkpt lat="43.91213" lon="1.86481">
        <ele>160.479669</ele>
        <time>2026-08-29T10:17:02Z</time>
      </trkpt>
      <trkpt lat="43.91213" lon="1.86484">
        <ele>160.367024</ele>
        <time>2026-08-29T10:17:03Z</time>
      </trkpt>
      <trkpt lat="43.91213" lon="1.86488">
        <ele>160.244353</ele>
        <time>2026-08-29T10:17:04Z</time>
      </trkpt>
      <trkpt lat="43.91213" lon="1.86491">
        <ele>160.13675</ele>
        <time>2026-08-29T10:17:05Z</time>
      </trkpt>
      <trkpt lat="43.91213" lon="1.86494">
        <ele>160.016683</ele>
        <time>2026-08-29T10:17:06Z</time>
      </trkpt>
      <trkpt lat="43.91214" lon="1.86498">
        <ele>159.903923</ele>
        <time>2026-08-29T10:17:07Z</time>
      </trkpt>
      <trkpt lat="43.91215" lon="1.86501">
        <ele>159.801905</ele>
        <time>2026-08-29T10:17:08Z</time>
      </trkpt>
      <trkpt lat="43.91215" lon="1.86504">
        <ele>159.694992</ele>
        <time>2026-08-29T10:17:09Z</time>
      </trkpt>
      <trkpt lat="43.91215" lon="1.86507">
        <ele>159.60542</ele>
        <time>2026-08-29T10:17:10Z</time>
      </trkpt>
      <trkpt lat="43.91214" lon="1.86509">
        <ele>159.513058</ele>
        <time>2026-08-29T10:17:11Z</time>
      </trkpt>
      <trkpt lat="43.91213" lon="1.86512">
        <ele>159.405392</ele>
        <time>2026-08-29T10:17:12Z</time>
      </trkpt>
      <trkpt lat="43.91212" lon="1.86515">
        <ele>159.286967</ele>
        <time>2026-08-29T10:17:13Z</time>
      </trkpt>
      <trkpt lat="43.91209" lon="1.86517">
        <ele>159.136662</ele>
        <time>2026-08-29T10:17:14Z</time>
      </trkpt>
      <trkpt lat="43.91206" lon="1.86518">
        <ele>158.992221</ele>
        <time>2026-08-29T10:17:15Z</time>
      </trkpt>
      <trkpt lat="43.91203" lon="1.86519">
        <ele>158.845575</ele>
        <time>2026-08-29T10:17:16Z</time>
      </trkpt>
      <trkpt lat="43.912" lon="1.86521">
        <ele>158.700756</ele>
        <time>2026-08-29T10:17:17Z</time>
      </trkpt>
      <trkpt lat="43.91198" lon="1.86523">
        <ele>158.56637</ele>
        <time>2026-08-29T10:17:18Z</time>
      </trkpt>
      <trkpt lat="43.91195" lon="1.86525">
        <ele>158.451089</ele>
        <time>2026-08-29T10:17:19Z</time>
      </trkpt>
      <trkpt lat="43.91194" lon="1.86527">
        <ele>158.348887</ele>
        <time>2026-08-29T10:17:20Z</time>
      </trkpt>
      <trkpt lat="43.91192" lon="1.86529">
        <ele>158.242852</ele>
        <time>2026-08-29T10:17:21Z</time>
      </trkpt>
      <trkpt lat="43.9119" lon="1.8653">
        <ele>158.142328</ele>
        <time>2026-08-29T10:17:22Z</time>
      </trkpt>
      <trkpt lat="43.91188" lon="1.86533">
        <ele>158.021333</ele>
        <time>2026-08-29T10:17:23Z</time>
      </trkpt>
      <trkpt lat="43.91185" lon="1.86535">
        <ele>157.915655</ele>
        <time>2026-08-29T10:17:24Z</time>
      </trkpt>
      <trkpt lat="43.91183" lon="1.86538">
        <ele>157.848733</ele>
        <time>2026-08-29T10:17:25Z</time>
      </trkpt>
      <trkpt lat="43.9118" lon="1.86541">
        <ele>157.780147</ele>
        <time>2026-08-29T10:17:26Z</time>
      </trkpt>
      <trkpt lat="43.91178" lon="1.86545">
        <ele>157.712292</ele>
        <time>2026-08-29T10:17:27Z</time>
      </trkpt>
      <trkpt lat="43.91176" lon="1.86548">
        <ele>157.6422</ele>
        <time>2026-08-29T10:17:28Z</time>
      </trkpt>
      <trkpt lat="43.91174" lon="1.86552">
        <ele>157.574345</ele>
        <time>2026-08-29T10:17:29Z</time>
      </trkpt>
      <trkpt lat="43.91171" lon="1.86555">
        <ele>157.505095</ele>
        <time>2026-08-29T10:17:30Z</time>
      </trkpt>
      <trkpt lat="43.91169" lon="1.86558">
        <ele>157.432962</ele>
        <time>2026-08-29T10:17:31Z</time>
      </trkpt>
      <trkpt lat="43.91166" lon="1.86562">
        <ele>157.363339</ele>
        <time>2026-08-29T10:17:32Z</time>
      </trkpt>
      <trkpt lat="43.91164" lon="1.86565">
        <ele>157.298729</ele>
        <time>2026-08-29T10:17:33Z</time>
      </trkpt>
      <trkpt lat="43.91162" lon="1.86568">
        <ele>157.233353</ele>
        <time>2026-08-29T10:17:34Z</time>
      </trkpt>
      <trkpt lat="43.9116" lon="1.86571">
        <ele>157.165244</ele>
        <time>2026-08-29T10:17:35Z</time>
      </trkpt>
      <trkpt lat="43.91157" lon="1.86574">
        <ele>157.094141</ele>
        <time>2026-08-29T10:17:36Z</time>
      </trkpt>
      <trkpt lat="43.91155" lon="1.86578">
        <ele>157.024054</ele>
        <time>2026-08-29T10:17:37Z</time>
      </trkpt>
      <trkpt lat="43.91152" lon="1.86581">
        <ele>156.955879</ele>
        <time>2026-08-29T10:17:38Z</time>
      </trkpt>
      <trkpt lat="43.9115" lon="1.86584">
        <ele>156.888764</ele>
        <time>2026-08-29T10:17:39Z</time>
      </trkpt>
      <trkpt lat="43.91148" lon="1.86587">
        <ele>156.824734</ele>
        <time>2026-08-29T10:17:40Z</time>
      </trkpt>
      <trkpt lat="43.91146" lon="1.8659">
        <ele>156.765426</ele>
        <time>2026-08-29T10:17:41Z</time>
      </trkpt>
      <trkpt lat="43.91145" lon="1.86594">
        <ele>156.701622</ele>
        <time>2026-08-29T10:17:42Z</time>
      </trkpt>
      <trkpt lat="43.91144" lon="1.86598">
        <ele>156.637983</ele>
        <time>2026-08-29T10:17:43Z</time>
      </trkpt>
      <trkpt lat="43.91144" lon="1.86603">
        <ele>156.576968</ele>
        <time>2026-08-29T10:17:44Z</time>
      </trkpt>
      <trkpt lat="43.91146" lon="1.86607">
        <ele>156.5096</ele>
        <time>2026-08-29T10:17:45Z</time>
      </trkpt>
      <trkpt lat="43.91146" lon="1.86611">
        <ele>156.438729</ele>
        <time>2026-08-29T10:17:46Z</time>
      </trkpt>
      <trkpt lat="43.91147" lon="1.86616">
        <ele>156.363102</ele>
        <time>2026-08-29T10:17:47Z</time>
      </trkpt>
      <trkpt lat="43.91148" lon="1.86621">
        <ele>156.288913</ele>
        <time>2026-08-29T10:17:48Z</time>
      </trkpt>
      <trkpt lat="43.91149" lon="1.86626">
        <ele>156.209253</ele>
        <time>2026-08-29T10:17:49Z</time>
      </trkpt>
      <trkpt lat="43.9115" lon="1.86631">
        <ele>156.12683</ele>
        <time>2026-08-29T10:17:50Z</time>
      </trkpt>
      <trkpt lat="43.91152" lon="1.86636">
        <ele>156.0493</ele>
        <time>2026-08-29T10:17:51Z</time>
      </trkpt>
      <trkpt lat="43.91153" lon="1.86641">
        <ele>155.969422</ele>
        <time>2026-08-29T10:17:52Z</time>
      </trkpt>
      <trkpt lat="43.91155" lon="1.86646">
        <ele>155.890894</ele>
        <time>2026-08-29T10:17:53Z</time>
      </trkpt>
      <trkpt lat="43.91156" lon="1.86651">
        <ele>155.814755</ele>
        <time>2026-08-29T10:17:54Z</time>
      </trkpt>
      <trkpt lat="43.91157" lon="1.86655">
        <ele>155.74351</ele>
        <time>2026-08-29T10:17:55Z</time>
      </trkpt>
      <trkpt lat="43.91158" lon="1.8666">
        <ele>155.670746</ele>
        <time>2026-08-29T10:17:56Z</time>
      </trkpt>
      <trkpt lat="43.91159" lon="1.86665">
        <ele>155.595485</ele>
        <time>2026-08-29T10:17:57Z</time>
      </trkpt>
      <trkpt lat="43.91159" lon="1.8667">
        <ele>155.522732</ele>
        <time>2026-08-29T10:17:58Z</time>
      </trkpt>
      <trkpt lat="43.91158" lon="1.86675">
        <ele>155.451472</ele>
        <time>2026-08-29T10:17:59Z</time>
      </trkpt>
      <trkpt lat="43.91157" lon="1.86679">
        <ele>155.377328</ele>
        <time>2026-08-29T10:18:00Z</time>
      </trkpt>
      <trkpt lat="43.91155" lon="1.86684">
        <ele>155.295212</ele>
        <time>2026-08-29T10:18:01Z</time>
      </trkpt>
      <trkpt lat="43.91152" lon="1.86688">
        <ele>155.21052</ele>
        <time>2026-08-29T10:18:02Z</time>
      </trkpt>
      <trkpt lat="43.91149" lon="1.86692">
        <ele>155.123752</ele>
        <time>2026-08-29T10:18:03Z</time>
      </trkpt>
      <trkpt lat="43.91146" lon="1.86696">
        <ele>155.034847</ele>
        <time>2026-08-29T10:18:04Z</time>
      </trkpt>
      <trkpt lat="43.91142" lon="1.86699">
        <ele>154.947607</ele>
        <time>2026-08-29T10:18:05Z</time>
      </trkpt>
      <trkpt lat="43.91139" lon="1.86703">
        <ele>154.856703</ele>
        <time>2026-08-29T10:18:06Z</time>
      </trkpt>
      <trkpt lat="43.91136" lon="1.86707">
        <ele>154.767951</ele>
        <time>2026-08-29T10:18:07Z</time>
      </trkpt>
      <trkpt lat="43.91132" lon="1.86711">
        <ele>154.676372</ele>
        <time>2026-08-29T10:18:08Z</time>
      </trkpt>
      <trkpt lat="43.91129" lon="1.86715">
        <ele>154.584051</ele>
        <time>2026-08-29T10:18:09Z</time>
      </trkpt>
      <trkpt lat="43.91125" lon="1.86718">
        <ele>154.497548</ele>
        <time>2026-08-29T10:18:10Z</time>
      </trkpt>
      <trkpt lat="43.91122" lon="1.86722">
        <ele>154.409179</ele>
        <time>2026-08-29T10:18:11Z</time>
      </trkpt>
      <trkpt lat="43.91119" lon="1.86726">
        <ele>154.324917</ele>
        <time>2026-08-29T10:18:12Z</time>
      </trkpt>
      <trkpt lat="43.91116" lon="1.8673">
        <ele>154.238598</ele>
        <time>2026-08-29T10:18:13Z</time>
      </trkpt>
      <trkpt lat="43.91112" lon="1.86733">
        <ele>154.180639</ele>
        <time>2026-08-29T10:18:14Z</time>
      </trkpt>
      <trkpt lat="43.91109" lon="1.86737">
        <ele>154.122011</ele>
        <time>2026-08-29T10:18:15Z</time>
      </trkpt>
      <trkpt lat="43.91106" lon="1.8674">
        <ele>154.067222</ele>
        <time>2026-08-29T10:18:16Z</time>
      </trkpt>
      <trkpt lat="43.91103" lon="1.86743">
        <ele>154.008316</ele>
        <time>2026-08-29T10:18:17Z</time>
      </trkpt>
      <trkpt lat="43.911" lon="1.86747">
        <ele>153.948128</ele>
        <time>2026-08-29T10:18:18Z</time>
      </trkpt>
      <trkpt lat="43.91096" lon="1.8675">
        <ele>153.889062</ele>
        <time>2026-08-29T10:18:19Z</time>
      </trkpt>
      <trkpt lat="43.91093" lon="1.86754">
        <ele>153.828673</ele>
        <time>2026-08-29T10:18:20Z</time>
      </trkpt>
      <trkpt lat="43.9109" lon="1.86758">
        <ele>153.767187</ele>
        <time>2026-08-29T10:18:21Z</time>
      </trkpt>
      <trkpt lat="43.91087" lon="1.86762">
        <ele>153.708559</ele>
        <time>2026-08-29T10:18:22Z</time>
      </trkpt>
      <trkpt lat="43.91083" lon="1.86766">
        <ele>153.64531</ele>
        <time>2026-08-29T10:18:23Z</time>
      </trkpt>
      <trkpt lat="43.9108" lon="1.86769">
        <ele>153.584921</ele>
        <time>2026-08-29T10:18:24Z</time>
      </trkpt>
      <trkpt lat="43.91077" lon="1.86773">
        <ele>153.52598</ele>
        <time>2026-08-29T10:18:25Z</time>
      </trkpt>
      <trkpt lat="43.91074" lon="1.86777">
        <ele>153.464228</ele>
        <time>2026-08-29T10:18:26Z</time>
      </trkpt>
      <trkpt lat="43.91071" lon="1.86781">
        <ele>153.401403</ele>
        <time>2026-08-29T10:18:27Z</time>
      </trkpt>
      <trkpt lat="43.91067" lon="1.86785">
        <ele>153.339253</ele>
        <time>2026-08-29T10:18:28Z</time>
      </trkpt>
      <trkpt lat="43.91064" lon="1.86789">
        <ele>153.278864</ele>
        <time>2026-08-29T10:18:29Z</time>
      </trkpt>
      <trkpt lat="43.91061" lon="1.86793">
        <ele>153.218676</ele>
        <time>2026-08-29T10:18:30Z</time>
      </trkpt>
      <trkpt lat="43.91058" lon="1.86796">
        <ele>153.158488</ele>
        <time>2026-08-29T10:18:31Z</time>
      </trkpt>
      <trkpt lat="43.91054" lon="1.868">
        <ele>153.098301</ele>
        <time>2026-08-29T10:18:32Z</time>
      </trkpt>
      <trkpt lat="43.91051" lon="1.86804">
        <ele>153.036549</ele>
        <time>2026-08-29T10:18:33Z</time>
      </trkpt>
      <trkpt lat="43.91048" lon="1.86808">
        <ele>152.974398</ele>
        <time>2026-08-29T10:18:34Z</time>
      </trkpt>
      <trkpt lat="43.91044" lon="1.86812">
        <ele>152.912248</ele>
        <time>2026-08-29T10:18:35Z</time>
      </trkpt>
      <trkpt lat="43.91041" lon="1.86816">
        <ele>152.850495</ele>
        <time>2026-08-29T10:18:36Z</time>
      </trkpt>
      <trkpt lat="43.91039" lon="1.86819">
        <ele>152.797099</ele>
        <time>2026-08-29T10:18:37Z</time>
      </trkpt>
      <trkpt lat="43.91036" lon="1.86823">
        <ele>152.749112</ele>
        <time>2026-08-29T10:18:38Z</time>
      </trkpt>
      <trkpt lat="43.91034" lon="1.86826">
        <ele>152.701258</ele>
        <time>2026-08-29T10:18:39Z</time>
      </trkpt>
      <trkpt lat="43.91032" lon="1.8683">
        <ele>152.653404</ele>
        <time>2026-08-29T10:18:40Z</time>
      </trkpt>
      <trkpt lat="43.9103" lon="1.86834">
        <ele>152.6073</ele>
        <time>2026-08-29T10:18:41Z</time>
      </trkpt>
      <trkpt lat="43.91028" lon="1.86837">
        <ele>152.562026</ele>
        <time>2026-08-29T10:18:42Z</time>
      </trkpt>
      <trkpt lat="43.91027" lon="1.8684">
        <ele>152.52153</ele>
        <time>2026-08-29T10:18:43Z</time>
      </trkpt>
      <trkpt lat="43.91025" lon="1.86843">
        <ele>152.481966</ele>
        <time>2026-08-29T10:18:44Z</time>
      </trkpt>
      <trkpt lat="43.91024" lon="1.86846">
        <ele>152.442525</ele>
        <time>2026-08-29T10:18:45Z</time>
      </trkpt>
      <trkpt lat="43.91022" lon="1.8685">
        <ele>152.400923</ele>
        <time>2026-08-29T10:18:46Z</time>
      </trkpt>
      <trkpt lat="43.91021" lon="1.86854">
        <ele>152.353657</ele>
        <time>2026-08-29T10:18:47Z</time>
      </trkpt>
      <trkpt lat="43.91018" lon="1.86858">
        <ele>152.299155</ele>
        <time>2026-08-29T10:18:48Z</time>
      </trkpt>
      <trkpt lat="43.91016" lon="1.86863">
        <ele>152.236941</ele>
        <time>2026-08-29T10:18:49Z</time>
      </trkpt>
      <trkpt lat="43.91013" lon="1.86868">
        <ele>152.172069</ele>
        <time>2026-08-29T10:18:50Z</time>
      </trkpt>
      <trkpt lat="43.91009" lon="1.86872">
        <ele>152.103985</ele>
        <time>2026-08-29T10:18:51Z</time>
      </trkpt>
      <trkpt lat="43.91005" lon="1.86877">
        <ele>152.033022</ele>
        <time>2026-08-29T10:18:52Z</time>
      </trkpt>
      <trkpt lat="43.91002" lon="1.86881">
        <ele>151.962855</ele>
        <time>2026-08-29T10:18:53Z</time>
      </trkpt>
      <trkpt lat="43.90998" lon="1.86885">
        <ele>151.893656</ele>
        <time>2026-08-29T10:18:54Z</time>
      </trkpt>
      <trkpt lat="43.90995" lon="1.8689">
        <ele>151.820627</ele>
        <time>2026-08-29T10:18:55Z</time>
      </trkpt>
      <trkpt lat="43.90991" lon="1.86895">
        <ele>151.746577</ele>
        <time>2026-08-29T10:18:56Z</time>
      </trkpt>
      <trkpt lat="43.90987" lon="1.86901">
        <ele>151.671803</ele>
        <time>2026-08-29T10:18:57Z</time>
      </trkpt>
      <trkpt lat="43.90984" lon="1.86905">
        <ele>151.61006</ele>
        <time>2026-08-29T10:18:58Z</time>
      </trkpt>
      <trkpt lat="43.9098" lon="1.8691">
        <ele>151.548267</ele>
        <time>2026-08-29T10:18:59Z</time>
      </trkpt>
      <trkpt lat="43.90976" lon="1.86915">
        <ele>151.486473</ele>
        <time>2026-08-29T10:19:00Z</time>
      </trkpt>
      <trkpt lat="43.90973" lon="1.8692">
        <ele>151.422906</ele>
        <time>2026-08-29T10:19:01Z</time>
      </trkpt>
      <trkpt lat="43.90969" lon="1.86925">
        <ele>151.365162</ele>
        <time>2026-08-29T10:19:02Z</time>
      </trkpt>
      <trkpt lat="43.90966" lon="1.8693">
        <ele>151.304861</ele>
        <time>2026-08-29T10:19:03Z</time>
      </trkpt>
      <trkpt lat="43.90962" lon="1.86935">
        <ele>151.243936</ele>
        <time>2026-08-29T10:19:04Z</time>
      </trkpt>
      <trkpt lat="43.90959" lon="1.86939">
        <ele>151.18306</ele>
        <time>2026-08-29T10:19:05Z</time>
      </trkpt>
      <trkpt lat="43.90956" lon="1.86944">
        <ele>151.122676</ele>
        <time>2026-08-29T10:19:06Z</time>
      </trkpt>
      <trkpt lat="43.90952" lon="1.8695">
        <ele>151.060673</ele>
        <time>2026-08-29T10:19:07Z</time>
      </trkpt>
      <trkpt lat="43.90949" lon="1.86955">
        <ele>150.996108</ele>
        <time>2026-08-29T10:19:08Z</time>
      </trkpt>
      <trkpt lat="43.90946" lon="1.86961">
        <ele>150.931542</ele>
        <time>2026-08-29T10:19:09Z</time>
      </trkpt>
      <trkpt lat="43.90942" lon="1.86966">
        <ele>150.867553</ele>
        <time>2026-08-29T10:19:10Z</time>
      </trkpt>
      <trkpt lat="43.90939" lon="1.86972">
        <ele>150.803876</ele>
        <time>2026-08-29T10:19:11Z</time>
      </trkpt>
      <trkpt lat="43.90935" lon="1.86976">
        <ele>150.740906</ele>
        <time>2026-08-29T10:19:12Z</time>
      </trkpt>
      <trkpt lat="43.90931" lon="1.86982">
        <ele>150.674955</ele>
        <time>2026-08-29T10:19:13Z</time>
      </trkpt>
      <trkpt lat="43.90928" lon="1.86988">
        <ele>150.60767</ele>
        <time>2026-08-29T10:19:14Z</time>
      </trkpt>
      <trkpt lat="43.90924" lon="1.86993">
        <ele>150.541104</ele>
        <time>2026-08-29T10:19:15Z</time>
      </trkpt>
      <trkpt lat="43.90921" lon="1.86999">
        <ele>150.475092</ele>
        <time>2026-08-29T10:19:16Z</time>
      </trkpt>
      <trkpt lat="43.90917" lon="1.87005">
        <ele>150.41257</ele>
        <time>2026-08-29T10:19:17Z</time>
      </trkpt>
      <trkpt lat="43.90914" lon="1.8701">
        <ele>150.344825</ele>
        <time>2026-08-29T10:19:18Z</time>
      </trkpt>
      <trkpt lat="43.9091" lon="1.87016">
        <ele>150.275759</ele>
        <time>2026-08-29T10:19:19Z</time>
      </trkpt>
      <trkpt lat="43.90906" lon="1.87023">
        <ele>150.20196</ele>
        <time>2026-08-29T10:19:20Z</time>
      </trkpt>
      <trkpt lat="43.90903" lon="1.8703">
        <ele>150.124576</ele>
        <time>2026-08-29T10:19:21Z</time>
      </trkpt>
      <trkpt lat="43.90899" lon="1.87037">
        <ele>150.047187</ele>
        <time>2026-08-29T10:19:22Z</time>
      </trkpt>
      <trkpt lat="43.90895" lon="1.87043">
        <ele>149.973526</ele>
        <time>2026-08-29T10:19:23Z</time>
      </trkpt>
      <trkpt lat="43.90891" lon="1.87049">
        <ele>149.900042</ele>
        <time>2026-08-29T10:19:24Z</time>
      </trkpt>
      <trkpt lat="43.90887" lon="1.87055">
        <ele>149.828689</ele>
        <time>2026-08-29T10:19:25Z</time>
      </trkpt>
      <trkpt lat="43.90883" lon="1.87061">
        <ele>149.758151</ele>
        <time>2026-08-29T10:19:26Z</time>
      </trkpt>
      <trkpt lat="43.90879" lon="1.87067">
        <ele>149.685477</ele>
        <time>2026-08-29T10:19:27Z</time>
      </trkpt>
      <trkpt lat="43.90875" lon="1.87074">
        <ele>149.612249</ele>
        <time>2026-08-29T10:19:28Z</time>
      </trkpt>
      <trkpt lat="43.90871" lon="1.8708">
        <ele>149.5397</ele>
        <time>2026-08-29T10:19:29Z</time>
      </trkpt>
      <trkpt lat="43.90868" lon="1.87086">
        <ele>149.467152</ele>
        <time>2026-08-29T10:19:30Z</time>
      </trkpt>
      <trkpt lat="43.90864" lon="1.87093">
        <ele>149.39974</ele>
        <time>2026-08-29T10:19:31Z</time>
      </trkpt>
      <trkpt lat="43.9086" lon="1.87099">
        <ele>149.33224</ele>
        <time>2026-08-29T10:19:32Z</time>
      </trkpt>
      <trkpt lat="43.90857" lon="1.87105">
        <ele>149.265393</ele>
        <time>2026-08-29T10:19:33Z</time>
      </trkpt>
      <trkpt lat="43.90853" lon="1.87111">
        <ele>149.200833</ele>
        <time>2026-08-29T10:19:34Z</time>
      </trkpt>
      <trkpt lat="43.9085" lon="1.87117">
        <ele>149.135395</ele>
        <time>2026-08-29T10:19:35Z</time>
      </trkpt>
      <trkpt lat="43.90846" lon="1.87124">
        <ele>149.06929</ele>
        <time>2026-08-29T10:19:36Z</time>
      </trkpt>
      <trkpt lat="43.90843" lon="1.8713">
        <ele>149.005111</ele>
        <time>2026-08-29T10:19:37Z</time>
      </trkpt>
      <trkpt lat="43.90839" lon="1.87135">
        <ele>148.94285</ele>
        <time>2026-08-29T10:19:38Z</time>
      </trkpt>
      <trkpt lat="43.90836" lon="1.87141">
        <ele>148.878671</ele>
        <time>2026-08-29T10:19:39Z</time>
      </trkpt>
      <trkpt lat="43.90832" lon="1.87147">
        <ele>148.815863</ele>
        <time>2026-08-29T10:19:40Z</time>
      </trkpt>
      <trkpt lat="43.90829" lon="1.87153">
        <ele>148.752081</ele>
        <time>2026-08-29T10:19:41Z</time>
      </trkpt>
      <trkpt lat="43.90825" lon="1.87159">
        <ele>148.687679</ele>
        <time>2026-08-29T10:19:42Z</time>
      </trkpt>
      <trkpt lat="43.90821" lon="1.87164">
        <ele>148.624512</ele>
        <time>2026-08-29T10:19:43Z</time>
      </trkpt>
      <trkpt lat="43.90818" lon="1.8717">
        <ele>148.56011</ele>
        <time>2026-08-29T10:19:44Z</time>
      </trkpt>
      <trkpt lat="43.90814" lon="1.87176">
        <ele>148.495707</ele>
        <time>2026-08-29T10:19:45Z</time>
      </trkpt>
      <trkpt lat="43.9081" lon="1.87182">
        <ele>148.430681</ele>
        <time>2026-08-29T10:19:46Z</time>
      </trkpt>
      <trkpt lat="43.90806" lon="1.87188">
        <ele>148.365024</ele>
        <time>2026-08-29T10:19:47Z</time>
      </trkpt>
      <trkpt lat="43.90802" lon="1.87194">
        <ele>148.298277</ele>
        <time>2026-08-29T10:19:48Z</time>
      </trkpt>
      <trkpt lat="43.90799" lon="1.872">
        <ele>148.23325</ele>
        <time>2026-08-29T10:19:49Z</time>
      </trkpt>
      <trkpt lat="43.90795" lon="1.87206">
        <ele>148.165292</ele>
        <time>2026-08-29T10:19:50Z</time>
      </trkpt>
      <trkpt lat="43.90791" lon="1.87212">
        <ele>148.096104</ele>
        <time>2026-08-29T10:19:51Z</time>
      </trkpt>
      <trkpt lat="43.90787" lon="1.87218">
        <ele>148.026295</ele>
        <time>2026-08-29T10:19:52Z</time>
      </trkpt>
      <trkpt lat="43.90783" lon="1.87225">
        <ele>147.956706</ele>
        <time>2026-08-29T10:19:53Z</time>
      </trkpt>
      <trkpt lat="43.90779" lon="1.87231">
        <ele>147.890294</ele>
        <time>2026-08-29T10:19:54Z</time>
      </trkpt>
      <trkpt lat="43.90775" lon="1.87237">
        <ele>147.823365</ele>
        <time>2026-08-29T10:19:55Z</time>
      </trkpt>
      <trkpt lat="43.90772" lon="1.87243">
        <ele>147.7568</ele>
        <time>2026-08-29T10:19:56Z</time>
      </trkpt>
      <trkpt lat="43.90768" lon="1.87249">
        <ele>147.691144</ele>
        <time>2026-08-29T10:19:57Z</time>
      </trkpt>
      <trkpt lat="43.90764" lon="1.87254">
        <ele>147.628128</ele>
        <time>2026-08-29T10:19:58Z</time>
      </trkpt>
      <trkpt lat="43.90761" lon="1.8726">
        <ele>147.565571</ele>
        <time>2026-08-29T10:19:59Z</time>
      </trkpt>
      <trkpt lat="43.90757" lon="1.87265">
        <ele>147.501184</ele>
        <time>2026-08-29T10:20:00Z</time>
      </trkpt>
      <trkpt lat="43.90753" lon="1.87271">
        <ele>147.435394</ele>
        <time>2026-08-29T10:20:01Z</time>
      </trkpt>
      <trkpt lat="43.90749" lon="1.87277">
        <ele>147.368208</ele>
        <time>2026-08-29T10:20:02Z</time>
      </trkpt>
      <trkpt lat="43.90745" lon="1.87283">
        <ele>147.301124</ele>
        <time>2026-08-29T10:20:03Z</time>
      </trkpt>
      <trkpt lat="43.90741" lon="1.87289">
        <ele>147.233225</ele>
        <time>2026-08-29T10:20:04Z</time>
      </trkpt>
      <trkpt lat="43.90737" lon="1.87295">
        <ele>147.167176</ele>
        <time>2026-08-29T10:20:05Z</time>
      </trkpt>
      <trkpt lat="43.90733" lon="1.873">
        <ele>147.100318</ele>
        <time>2026-08-29T10:20:06Z</time>
      </trkpt>
      <trkpt lat="43.90729" lon="1.87306">
        <ele>147.032398</ele>
        <time>2026-08-29T10:20:07Z</time>
      </trkpt>
      <trkpt lat="43.90725" lon="1.87311">
        <ele>146.964203</ele>
        <time>2026-08-29T10:20:08Z</time>
      </trkpt>
      <trkpt lat="43.9072" lon="1.87317">
        <ele>146.892854</ele>
        <time>2026-08-29T10:20:09Z</time>
      </trkpt>
      <trkpt lat="43.90716" lon="1.87323">
        <ele>146.821746</ele>
        <time>2026-08-29T10:20:10Z</time>
      </trkpt>
      <trkpt lat="43.90712" lon="1.87329">
        <ele>146.751455</ele>
        <time>2026-08-29T10:20:11Z</time>
      </trkpt>
      <trkpt lat="43.90708" lon="1.87335">
        <ele>146.681972</ele>
        <time>2026-08-29T10:20:12Z</time>
      </trkpt>
      <trkpt lat="43.90704" lon="1.87341">
        <ele>146.618745</ele>
        <time>2026-08-29T10:20:13Z</time>
      </trkpt>
      <trkpt lat="43.907" lon="1.87346">
        <ele>146.556568</ele>
        <time>2026-08-29T10:20:14Z</time>
      </trkpt>
      <trkpt lat="43.90697" lon="1.87352">
        <ele>146.49364</ele>
        <time>2026-08-29T10:20:15Z</time>
      </trkpt>
      <trkpt lat="43.90693" lon="1.87358">
        <ele>146.430712</ele>
        <time>2026-08-29T10:20:16Z</time>
      </trkpt>
      <trkpt lat="43.9069" lon="1.87364">
        <ele>146.365944</ele>
        <time>2026-08-29T10:20:17Z</time>
      </trkpt>
      <trkpt lat="43.90687" lon="1.8737">
        <ele>146.303128</ele>
        <time>2026-08-29T10:20:18Z</time>
      </trkpt>
      <trkpt lat="43.90685" lon="1.87377">
        <ele>146.240931</ele>
        <time>2026-08-29T10:20:19Z</time>
      </trkpt>
      <trkpt lat="43.90682" lon="1.87384">
        <ele>146.176247</ele>
        <time>2026-08-29T10:20:20Z</time>
      </trkpt>
      <trkpt lat="43.9068" lon="1.87391">
        <ele>146.10942</ele>
        <time>2026-08-29T10:20:21Z</time>
      </trkpt>
      <trkpt lat="43.90678" lon="1.87399">
        <ele>146.041752</ele>
        <time>2026-08-29T10:20:22Z</time>
      </trkpt>
      <trkpt lat="43.90677" lon="1.87407">
        <ele>145.974549</ele>
        <time>2026-08-29T10:20:23Z</time>
      </trkpt>
      <trkpt lat="43.90677" lon="1.87415">
        <ele>145.90733</ele>
        <time>2026-08-29T10:20:24Z</time>
      </trkpt>
      <trkpt lat="43.90678" lon="1.87422">
        <ele>145.844043</ele>
        <time>2026-08-29T10:20:25Z</time>
      </trkpt>
      <trkpt lat="43.90679" lon="1.87429">
        <ele>145.781169</ele>
        <time>2026-08-29T10:20:26Z</time>
      </trkpt>
      <trkpt lat="43.9068" lon="1.87437">
        <ele>145.717081</ele>
        <time>2026-08-29T10:20:27Z</time>
      </trkpt>
      <trkpt lat="43.90681" lon="1.87445">
        <ele>145.650871</ele>
        <time>2026-08-29T10:20:28Z</time>
      </trkpt>
      <trkpt lat="43.90683" lon="1.87452">
        <ele>145.585609</ele>
        <time>2026-08-29T10:20:29Z</time>
      </trkpt>
      <trkpt lat="43.90685" lon="1.87459">
        <ele>145.520392</ele>
        <time>2026-08-29T10:20:30Z</time>
      </trkpt>
      <trkpt lat="43.90686" lon="1.87466">
        <ele>145.457527</ele>
        <time>2026-08-29T10:20:31Z</time>
      </trkpt>
      <trkpt lat="43.90688" lon="1.87473">
        <ele>145.396244</ele>
        <time>2026-08-29T10:20:32Z</time>
      </trkpt>
      <trkpt lat="43.9069" lon="1.8748">
        <ele>145.333794</ele>
        <time>2026-08-29T10:20:33Z</time>
      </trkpt>
      <trkpt lat="43.90692" lon="1.87487">
        <ele>145.274554</ele>
        <time>2026-08-29T10:20:34Z</time>
      </trkpt>
      <trkpt lat="43.90694" lon="1.87495">
        <ele>145.234415</ele>
        <time>2026-08-29T10:20:35Z</time>
      </trkpt>
      <trkpt lat="43.90696" lon="1.87502">
        <ele>145.193314</ele>
        <time>2026-08-29T10:20:36Z</time>
      </trkpt>
      <trkpt lat="43.90697" lon="1.87509">
        <ele>145.152946</ele>
        <time>2026-08-29T10:20:37Z</time>
      </trkpt>
      <trkpt lat="43.90699" lon="1.87517">
        <ele>145.11109</ele>
        <time>2026-08-29T10:20:38Z</time>
      </trkpt>
      <trkpt lat="43.90701" lon="1.87525">
        <ele>145.069664</ele>
        <time>2026-08-29T10:20:39Z</time>
      </trkpt>
      <trkpt lat="43.90702" lon="1.87532">
        <ele>145.028239</ele>
        <time>2026-08-29T10:20:40Z</time>
      </trkpt>
      <trkpt lat="43.90704" lon="1.8754">
        <ele>144.987817</ele>
        <time>2026-08-29T10:20:41Z</time>
      </trkpt>
      <trkpt lat="43.90706" lon="1.87546">
        <ele>144.949914</ele>
        <time>2026-08-29T10:20:42Z</time>
      </trkpt>
      <trkpt lat="43.90707" lon="1.87553">
        <ele>144.912707</ele>
        <time>2026-08-29T10:20:43Z</time>
      </trkpt>
      <trkpt lat="43.90709" lon="1.8756">
        <ele>144.872334</ele>
        <time>2026-08-29T10:20:44Z</time>
      </trkpt>
      <trkpt lat="43.90711" lon="1.87567">
        <ele>144.832663</ele>
        <time>2026-08-29T10:20:45Z</time>
      </trkpt>
      <trkpt lat="43.90713" lon="1.87574">
        <ele>144.793265</ele>
        <time>2026-08-29T10:20:46Z</time>
      </trkpt>
      <trkpt lat="43.90716" lon="1.87582">
        <ele>144.752347</ele>
        <time>2026-08-29T10:20:47Z</time>
      </trkpt>
      <trkpt lat="43.90717" lon="1.87589">
        <ele>144.712721</ele>
        <time>2026-08-29T10:20:48Z</time>
      </trkpt>
      <trkpt lat="43.9072" lon="1.87596">
        <ele>144.672566</ele>
        <time>2026-08-29T10:20:49Z</time>
      </trkpt>
      <trkpt lat="43.90722" lon="1.87603">
        <ele>144.632478</ele>
        <time>2026-08-29T10:20:50Z</time>
      </trkpt>
      <trkpt lat="43.90724" lon="1.8761">
        <ele>144.59192</ele>
        <time>2026-08-29T10:20:51Z</time>
      </trkpt>
      <trkpt lat="43.90727" lon="1.87617">
        <ele>144.551833</ele>
        <time>2026-08-29T10:20:52Z</time>
      </trkpt>
      <trkpt lat="43.90729" lon="1.87624">
        <ele>144.510629</ele>
        <time>2026-08-29T10:20:53Z</time>
      </trkpt>
      <trkpt lat="43.90732" lon="1.87631">
        <ele>144.469087</ele>
        <time>2026-08-29T10:20:54Z</time>
      </trkpt>
      <trkpt lat="43.90735" lon="1.87637">
        <ele>144.42881</ele>
        <time>2026-08-29T10:20:55Z</time>
      </trkpt>
      <trkpt lat="43.90737" lon="1.87644">
        <ele>144.388071</ele>
        <time>2026-08-29T10:20:56Z</time>
      </trkpt>
      <trkpt lat="43.9074" lon="1.87651">
        <ele>144.347512</ele>
        <time>2026-08-29T10:20:57Z</time>
      </trkpt>
      <trkpt lat="43.90742" lon="1.87658">
        <ele>144.30648</ele>
        <time>2026-08-29T10:20:58Z</time>
      </trkpt>
      <trkpt lat="43.90744" lon="1.87666">
        <ele>144.264795</ele>
        <time>2026-08-29T10:20:59Z</time>
      </trkpt>
      <trkpt lat="43.90747" lon="1.87673">
        <ele>144.225493</ele>
        <time>2026-08-29T10:21:00Z</time>
      </trkpt>
      <trkpt lat="43.90749" lon="1.87679">
        <ele>144.186493</ele>
        <time>2026-08-29T10:21:01Z</time>
      </trkpt>
      <trkpt lat="43.90751" lon="1.87686">
        <ele>144.146241</ele>
        <time>2026-08-29T10:21:02Z</time>
      </trkpt>
      <trkpt lat="43.90753" lon="1.87694">
        <ele>144.105869</ele>
        <time>2026-08-29T10:21:03Z</time>
      </trkpt>
      <trkpt lat="43.90755" lon="1.87701">
        <ele>144.066228</ele>
        <time>2026-08-29T10:21:04Z</time>
      </trkpt>
      <trkpt lat="43.90756" lon="1.87708">
        <ele>144.025505</ele>
        <time>2026-08-29T10:21:05Z</time>
      </trkpt>
      <trkpt lat="43.90758" lon="1.87716">
        <ele>143.985286</ele>
        <time>2026-08-29T10:21:06Z</time>
      </trkpt>
      <trkpt lat="43.90759" lon="1.87723">
        <ele>143.978093</ele>
        <time>2026-08-29T10:21:07Z</time>
      </trkpt>
      <trkpt lat="43.9076" lon="1.87731">
        <ele>143.977883</ele>
        <time>2026-08-29T10:21:08Z</time>
      </trkpt>
      <trkpt lat="43.9076" lon="1.87739">
        <ele>143.97767</ele>
        <time>2026-08-29T10:21:09Z</time>
      </trkpt>
      <trkpt lat="43.90761" lon="1.87746">
        <ele>143.977463</ele>
        <time>2026-08-29T10:21:10Z</time>
      </trkpt>
      <trkpt lat="43.90761" lon="1.87754">
        <ele>143.977262</ele>
        <time>2026-08-29T10:21:11Z</time>
      </trkpt>
      <trkpt lat="43.9076" lon="1.87761">
        <ele>143.977057</ele>
        <time>2026-08-29T10:21:12Z</time>
      </trkpt>
      <trkpt lat="43.9076" lon="1.87769">
        <ele>143.976852</ele>
        <time>2026-08-29T10:21:13Z</time>
      </trkpt>
      <trkpt lat="43.90759" lon="1.87776">
        <ele>143.976649</ele>
        <time>2026-08-29T10:21:14Z</time>
      </trkpt>
      <trkpt lat="43.90758" lon="1.87783">
        <ele>143.976444</ele>
        <time>2026-08-29T10:21:15Z</time>
      </trkpt>
      <trkpt lat="43.90757" lon="1.87791">
        <ele>143.976241</ele>
        <time>2026-08-29T10:21:16Z</time>
      </trkpt>
      <trkpt lat="43.90756" lon="1.87798">
        <ele>143.976044</ele>
        <time>2026-08-29T10:21:17Z</time>
      </trkpt>
      <trkpt lat="43.90756" lon="1.87805">
        <ele>143.975857</ele>
        <time>2026-08-29T10:21:18Z</time>
      </trkpt>
      <trkpt lat="43.90755" lon="1.87812">
        <ele>143.97566</ele>
        <time>2026-08-29T10:21:19Z</time>
      </trkpt>
      <trkpt lat="43.90754" lon="1.87819">
        <ele>143.975462</ele>
        <time>2026-08-29T10:21:20Z</time>
      </trkpt>
      <trkpt lat="43.90753" lon="1.87826">
        <ele>143.975258</ele>
        <time>2026-08-29T10:21:21Z</time>
      </trkpt>
      <trkpt lat="43.90753" lon="1.87834">
        <ele>143.975045</ele>
        <time>2026-08-29T10:21:22Z</time>
      </trkpt>
      <trkpt lat="43.90752" lon="1.87842">
        <ele>143.974837</ele>
        <time>2026-08-29T10:21:23Z</time>
      </trkpt>
      <trkpt lat="43.90752" lon="1.87849">
        <ele>143.974641</ele>
        <time>2026-08-29T10:21:24Z</time>
      </trkpt>
      <trkpt lat="43.90751" lon="1.87856">
        <ele>143.974441</ele>
        <time>2026-08-29T10:21:25Z</time>
      </trkpt>
      <trkpt lat="43.90751" lon="1.87864">
        <ele>143.974245</ele>
        <time>2026-08-29T10:21:26Z</time>
      </trkpt>
      <trkpt lat="43.90751" lon="1.87871">
        <ele>143.974051</ele>
        <time>2026-08-29T10:21:27Z</time>
      </trkpt>
      <trkpt lat="43.9075" lon="1.87878">
        <ele>143.97385</ele>
        <time>2026-08-29T10:21:28Z</time>
      </trkpt>
      <trkpt lat="43.9075" lon="1.87886">
        <ele>143.973643</ele>
        <time>2026-08-29T10:21:29Z</time>
      </trkpt>
      <trkpt lat="43.9075" lon="1.87893">
        <ele>143.97343</ele>
        <time>2026-08-29T10:21:30Z</time>
      </trkpt>
      <trkpt lat="43.9075" lon="1.87901">
        <ele>143.973215</ele>
        <time>2026-08-29T10:21:31Z</time>
      </trkpt>
      <trkpt lat="43.90751" lon="1.87909">
        <ele>143.973008</ele>
        <time>2026-08-29T10:21:32Z</time>
      </trkpt>
      <trkpt lat="43.90751" lon="1.87917">
        <ele>143.972795</ele>
        <time>2026-08-29T10:21:33Z</time>
      </trkpt>
      <trkpt lat="43.90751" lon="1.87924">
        <ele>143.972585</ele>
        <time>2026-08-29T10:21:34Z</time>
      </trkpt>
      <trkpt lat="43.90752" lon="1.87932">
        <ele>143.972369</ele>
        <time>2026-08-29T10:21:35Z</time>
      </trkpt>
      <trkpt lat="43.90753" lon="1.8794">
        <ele>143.972156</ele>
        <time>2026-08-29T10:21:36Z</time>
      </trkpt>
      <trkpt lat="43.90753" lon="1.87947">
        <ele>143.971955</ele>
        <time>2026-08-29T10:21:37Z</time>
      </trkpt>
      <trkpt lat="43.90754" lon="1.87955">
        <ele>143.971757</ele>
        <time>2026-08-29T10:21:38Z</time>
      </trkpt>
      <trkpt lat="43.90756" lon="1.87962">
        <ele>143.971559</ele>
        <time>2026-08-29T10:21:39Z</time>
      </trkpt>
      <trkpt lat="43.90757" lon="1.87969">
        <ele>143.959421</ele>
        <time>2026-08-29T10:21:40Z</time>
      </trkpt>
      <trkpt lat="43.90758" lon="1.87976">
        <ele>143.935997</ele>
        <time>2026-08-29T10:21:41Z</time>
      </trkpt>
      <trkpt lat="43.90759" lon="1.87984">
        <ele>143.913054</ele>
        <time>2026-08-29T10:21:42Z</time>
      </trkpt>
      <trkpt lat="43.9076" lon="1.87991">
        <ele>143.890515</ele>
        <time>2026-08-29T10:21:43Z</time>
      </trkpt>
      <trkpt lat="43.90762" lon="1.87998">
        <ele>143.867681</ele>
        <time>2026-08-29T10:21:44Z</time>
      </trkpt>
      <trkpt lat="43.90763" lon="1.88006">
        <ele>143.844353</ele>
        <time>2026-08-29T10:21:45Z</time>
      </trkpt>
      <trkpt lat="43.90764" lon="1.88013">
        <ele>143.822894</ele>
        <time>2026-08-29T10:21:46Z</time>
      </trkpt>
      <trkpt lat="43.90765" lon="1.88019">
        <ele>143.802272</ele>
        <time>2026-08-29T10:21:47Z</time>
      </trkpt>
      <trkpt lat="43.90765" lon="1.88026">
        <ele>143.780912</ele>
        <time>2026-08-29T10:21:48Z</time>
      </trkpt>
      <trkpt lat="43.90765" lon="1.88033">
        <ele>143.759013</ele>
        <time>2026-08-29T10:21:49Z</time>
      </trkpt>
      <trkpt lat="43.90766" lon="1.88041">
        <ele>143.73681</ele>
        <time>2026-08-29T10:21:50Z</time>
      </trkpt>
      <trkpt lat="43.90766" lon="1.88048">
        <ele>143.714021</ele>
        <time>2026-08-29T10:21:51Z</time>
      </trkpt>
      <trkpt lat="43.90766" lon="1.88056">
        <ele>143.690321</ele>
        <time>2026-08-29T10:21:52Z</time>
      </trkpt>
      <trkpt lat="43.90766" lon="1.88064">
        <ele>143.665996</ele>
        <time>2026-08-29T10:21:53Z</time>
      </trkpt>
      <trkpt lat="43.90767" lon="1.88072">
        <ele>143.641949</ele>
        <time>2026-08-29T10:21:54Z</time>
      </trkpt>
      <trkpt lat="43.90767" lon="1.8808">
        <ele>143.618261</ele>
        <time>2026-08-29T10:21:55Z</time>
      </trkpt>
      <trkpt lat="43.90767" lon="1.88088">
        <ele>143.594269</ele>
        <time>2026-08-29T10:21:56Z</time>
      </trkpt>
      <trkpt lat="43.90767" lon="1.88096">
        <ele>143.570276</ele>
        <time>2026-08-29T10:21:57Z</time>
      </trkpt>
      <trkpt lat="43.90767" lon="1.88103">
        <ele>143.546895</ele>
        <time>2026-08-29T10:21:58Z</time>
      </trkpt>
      <trkpt lat="43.90767" lon="1.88111">
        <ele>143.522874</ele>
        <time>2026-08-29T10:21:59Z</time>
      </trkpt>
      <trkpt lat="43.90767" lon="1.88119">
        <ele>143.499155</ele>
        <time>2026-08-29T10:22:00Z</time>
      </trkpt>
      <trkpt lat="43.90766" lon="1.88126">
        <ele>143.476681</ele>
        <time>2026-08-29T10:22:01Z</time>
      </trkpt>
      <trkpt lat="43.90766" lon="1.88133">
        <ele>143.456016</ele>
        <time>2026-08-29T10:22:02Z</time>
      </trkpt>
      <trkpt lat="43.90766" lon="1.8814">
        <ele>143.434723</ele>
        <time>2026-08-29T10:22:03Z</time>
      </trkpt>
      <trkpt lat="43.90765" lon="1.88148">
        <ele>143.41155</ele>
        <time>2026-08-29T10:22:04Z</time>
      </trkpt>
      <trkpt lat="43.90765" lon="1.88155">
        <ele>143.388585</ele>
        <time>2026-08-29T10:22:05Z</time>
      </trkpt>
      <trkpt lat="43.90764" lon="1.88163">
        <ele>143.365797</ele>
        <time>2026-08-29T10:22:06Z</time>
      </trkpt>
      <trkpt lat="43.90763" lon="1.8817">
        <ele>143.34271</ele>
        <time>2026-08-29T10:22:07Z</time>
      </trkpt>
      <trkpt lat="43.90762" lon="1.88177">
        <ele>143.321548</ele>
        <time>2026-08-29T10:22:08Z</time>
      </trkpt>
      <trkpt lat="43.90761" lon="1.88184">
        <ele>143.300255</ele>
        <time>2026-08-29T10:22:09Z</time>
      </trkpt>
      <trkpt lat="43.9076" lon="1.88191">
        <ele>143.279389</ele>
        <time>2026-08-29T10:22:10Z</time>
      </trkpt>
      <trkpt lat="43.90759" lon="1.88197">
        <ele>143.258026</ele>
        <time>2026-08-29T10:22:11Z</time>
      </trkpt>
      <trkpt lat="43.90757" lon="1.88204">
        <ele>143.236141</ele>
        <time>2026-08-29T10:22:12Z</time>
      </trkpt>
      <trkpt lat="43.90756" lon="1.88211">
        <ele>143.213496</ele>
        <time>2026-08-29T10:22:13Z</time>
      </trkpt>
      <trkpt lat="43.90754" lon="1.88219">
        <ele>143.187307</ele>
        <time>2026-08-29T10:22:14Z</time>
      </trkpt>
      <trkpt lat="43.90753" lon="1.88226">
        <ele>143.16157</ele>
        <time>2026-08-29T10:22:15Z</time>
      </trkpt>
      <trkpt lat="43.90751" lon="1.88233">
        <ele>143.134357</ele>
        <time>2026-08-29T10:22:16Z</time>
      </trkpt>
      <trkpt lat="43.9075" lon="1.88241">
        <ele>143.107345</ele>
        <time>2026-08-29T10:22:17Z</time>
      </trkpt>
      <trkpt lat="43.90748" lon="1.88248">
        <ele>143.079997</ele>
        <time>2026-08-29T10:22:18Z</time>
      </trkpt>
      <trkpt lat="43.90746" lon="1.88256">
        <ele>143.052508</ele>
        <time>2026-08-29T10:22:19Z</time>
      </trkpt>
      <trkpt lat="43.90745" lon="1.88263">
        <ele>143.025198</ele>
        <time>2026-08-29T10:22:20Z</time>
      </trkpt>
      <trkpt lat="43.90744" lon="1.88271">
        <ele>142.99811</ele>
        <time>2026-08-29T10:22:21Z</time>
      </trkpt>
      <trkpt lat="43.90742" lon="1.88279">
        <ele>142.969885</ele>
        <time>2026-08-29T10:22:22Z</time>
      </trkpt>
      <trkpt lat="43.90741" lon="1.88286">
        <ele>142.943473</ele>
        <time>2026-08-29T10:22:23Z</time>
      </trkpt>
      <trkpt lat="43.90739" lon="1.88293">
        <ele>142.917861</ele>
        <time>2026-08-29T10:22:24Z</time>
      </trkpt>
      <trkpt lat="43.90738" lon="1.883">
        <ele>142.892128</ele>
        <time>2026-08-29T10:22:25Z</time>
      </trkpt>
      <trkpt lat="43.90737" lon="1.88307">
        <ele>142.866631</ele>
        <time>2026-08-29T10:22:26Z</time>
      </trkpt>
      <trkpt lat="43.90736" lon="1.88315">
        <ele>142.840214</ele>
        <time>2026-08-29T10:22:27Z</time>
      </trkpt>
      <trkpt lat="43.90735" lon="1.88322">
        <ele>142.812425</ele>
        <time>2026-08-29T10:22:28Z</time>
      </trkpt>
      <trkpt lat="43.90734" lon="1.8833">
        <ele>142.786587</ele>
        <time>2026-08-29T10:22:29Z</time>
      </trkpt>
      <trkpt lat="43.90733" lon="1.88337">
        <ele>142.760771</ele>
        <time>2026-08-29T10:22:30Z</time>
      </trkpt>
      <trkpt lat="43.90732" lon="1.88344">
        <ele>142.7353</ele>
        <time>2026-08-29T10:22:31Z</time>
      </trkpt>
      <trkpt lat="43.90731" lon="1.88351">
        <ele>142.70932</ele>
        <time>2026-08-29T10:22:32Z</time>
      </trkpt>
      <trkpt lat="43.9073" lon="1.88359">
        <ele>142.683771</ele>
        <time>2026-08-29T10:22:33Z</time>
      </trkpt>
      <trkpt lat="43.90729" lon="1.88366">
        <ele>142.658567</ele>
        <time>2026-08-29T10:22:34Z</time>
      </trkpt>
      <trkpt lat="43.90729" lon="1.88373">
        <ele>142.632059</ele>
        <time>2026-08-29T10:22:35Z</time>
      </trkpt>
      <trkpt lat="43.90728" lon="1.8838">
        <ele>142.606854</ele>
        <time>2026-08-29T10:22:36Z</time>
      </trkpt>
      <trkpt lat="43.90727" lon="1.88388">
        <ele>142.581383</ele>
        <time>2026-08-29T10:22:37Z</time>
      </trkpt>
      <trkpt lat="43.90726" lon="1.88395">
        <ele>142.556603</ele>
        <time>2026-08-29T10:22:38Z</time>
      </trkpt>
      <trkpt lat="43.90725" lon="1.88402">
        <ele>142.531478</ele>
        <time>2026-08-29T10:22:39Z</time>
      </trkpt>
      <trkpt lat="43.90725" lon="1.88409">
        <ele>142.50573</ele>
        <time>2026-08-29T10:22:40Z</time>
      </trkpt>
      <trkpt lat="43.90724" lon="1.88416">
        <ele>142.480093</ele>
        <time>2026-08-29T10:22:41Z</time>
      </trkpt>
      <trkpt lat="43.90724" lon="1.88424">
        <ele>142.454496</ele>
        <time>2026-08-29T10:22:42Z</time>
      </trkpt>
      <trkpt lat="43.90723" lon="1.88431">
        <ele>142.429945</ele>
        <time>2026-08-29T10:22:43Z</time>
      </trkpt>
      <trkpt lat="43.90722" lon="1.88437">
        <ele>142.405856</ele>
        <time>2026-08-29T10:22:44Z</time>
      </trkpt>
      <trkpt lat="43.90721" lon="1.88444">
        <ele>142.382944</ele>
        <time>2026-08-29T10:22:45Z</time>
      </trkpt>
      <trkpt lat="43.9072" lon="1.8845">
        <ele>142.360739</ele>
        <time>2026-08-29T10:22:46Z</time>
      </trkpt>
      <trkpt lat="43.90718" lon="1.88456">
        <ele>142.338402</ele>
        <time>2026-08-29T10:22:47Z</time>
      </trkpt>
      <trkpt lat="43.90717" lon="1.88462">
        <ele>142.321357</ele>
        <time>2026-08-29T10:22:48Z</time>
      </trkpt>
      <trkpt lat="43.90715" lon="1.88468">
        <ele>142.302856</ele>
        <time>2026-08-29T10:22:49Z</time>
      </trkpt>
      <trkpt lat="43.90714" lon="1.88475">
        <ele>142.281864</ele>
        <time>2026-08-29T10:22:50Z</time>
      </trkpt>
      <trkpt lat="43.90712" lon="1.88482">
        <ele>142.26021</ele>
        <time>2026-08-29T10:22:51Z</time>
      </trkpt>
      <trkpt lat="43.9071" lon="1.88489">
        <ele>142.238955</ele>
        <time>2026-08-29T10:22:52Z</time>
      </trkpt>
      <trkpt lat="43.90708" lon="1.88497">
        <ele>142.215986</ele>
        <time>2026-08-29T10:22:53Z</time>
      </trkpt>
      <trkpt lat="43.90705" lon="1.88505">
        <ele>142.192335</ele>
        <time>2026-08-29T10:22:54Z</time>
      </trkpt>
      <trkpt lat="43.90703" lon="1.88512">
        <ele>142.169976</ele>
        <time>2026-08-29T10:22:55Z</time>
      </trkpt>
      <trkpt lat="43.90701" lon="1.88519">
        <ele>142.148698</ele>
        <time>2026-08-29T10:22:56Z</time>
      </trkpt>
      <trkpt lat="43.90699" lon="1.88526">
        <ele>142.128291</ele>
        <time>2026-08-29T10:22:57Z</time>
      </trkpt>
      <trkpt lat="43.90696" lon="1.88532">
        <ele>142.108721</ele>
        <time>2026-08-29T10:22:58Z</time>
      </trkpt>
      <trkpt lat="43.90694" lon="1.88538">
        <ele>142.090142</ele>
        <time>2026-08-29T10:22:59Z</time>
      </trkpt>
      <trkpt lat="43.90692" lon="1.88543">
        <ele>142.073103</ele>
        <time>2026-08-29T10:23:00Z</time>
      </trkpt>
      <trkpt lat="43.9069" lon="1.88548">
        <ele>142.056991</ele>
        <time>2026-08-29T10:23:01Z</time>
      </trkpt>
      <trkpt lat="43.90688" lon="1.88554">
        <ele>142.040127</ele>
        <time>2026-08-29T10:23:02Z</time>
      </trkpt>
      <trkpt lat="43.90686" lon="1.88559">
        <ele>142.022838</ele>
        <time>2026-08-29T10:23:03Z</time>
      </trkpt>
      <trkpt lat="43.90684" lon="1.88564">
        <ele>142.007278</ele>
        <time>2026-08-29T10:23:04Z</time>
      </trkpt>
      <trkpt lat="43.90682" lon="1.88569">
        <ele>141.990666</ele>
        <time>2026-08-29T10:23:05Z</time>
      </trkpt>
      <trkpt lat="43.90681" lon="1.88574">
        <ele>141.975457</ele>
        <time>2026-08-29T10:23:06Z</time>
      </trkpt>
      <trkpt lat="43.90681" lon="1.8858">
        <ele>141.959419</ele>
        <time>2026-08-29T10:23:07Z</time>
      </trkpt>
      <trkpt lat="43.90682" lon="1.88586">
        <ele>141.943254</ele>
        <time>2026-08-29T10:23:08Z</time>
      </trkpt>
      <trkpt lat="43.90683" lon="1.88591">
        <ele>141.927236</ele>
        <time>2026-08-29T10:23:09Z</time>
      </trkpt>
      <trkpt lat="43.90684" lon="1.88597">
        <ele>141.910939</ele>
        <time>2026-08-29T10:23:10Z</time>
      </trkpt>
      <trkpt lat="43.90684" lon="1.88603">
        <ele>141.894364</ele>
        <time>2026-08-29T10:23:11Z</time>
      </trkpt>
      <trkpt lat="43.90683" lon="1.88609">
        <ele>141.87703</ele>
        <time>2026-08-29T10:23:12Z</time>
      </trkpt>
      <trkpt lat="43.90682" lon="1.88615">
        <ele>141.859748</ele>
        <time>2026-08-29T10:23:13Z</time>
      </trkpt>
      <trkpt lat="43.90681" lon="1.88621">
        <ele>141.842374</ele>
        <time>2026-08-29T10:23:14Z</time>
      </trkpt>
      <trkpt lat="43.9068" lon="1.88627">
        <ele>141.823873</ele>
        <time>2026-08-29T10:23:15Z</time>
      </trkpt>
      <trkpt lat="43.90678" lon="1.88634">
        <ele>141.805103</ele>
        <time>2026-08-29T10:23:16Z</time>
      </trkpt>
      <trkpt lat="43.90677" lon="1.8864">
        <ele>141.787185</ele>
        <time>2026-08-29T10:23:17Z</time>
      </trkpt>
      <trkpt lat="43.90676" lon="1.88646">
        <ele>141.769712</ele>
        <time>2026-08-29T10:23:18Z</time>
      </trkpt>
      <trkpt lat="43.90675" lon="1.88652">
        <ele>141.752237</ele>
        <time>2026-08-29T10:23:19Z</time>
      </trkpt>
      <trkpt lat="43.90674" lon="1.88658">
        <ele>141.734408</ele>
        <time>2026-08-29T10:23:20Z</time>
      </trkpt>
      <trkpt lat="43.90673" lon="1.88664">
        <ele>141.716385</ele>
        <time>2026-08-29T10:23:21Z</time>
      </trkpt>
      <trkpt lat="43.90672" lon="1.88671">
        <ele>141.698433</ele>
        <time>2026-08-29T10:23:22Z</time>
      </trkpt>
      <trkpt lat="43.90672" lon="1.88678">
        <ele>141.679156</ele>
        <time>2026-08-29T10:23:23Z</time>
      </trkpt>
      <trkpt lat="43.90671" lon="1.88685">
        <ele>141.659324</ele>
        <time>2026-08-29T10:23:24Z</time>
      </trkpt>
      <trkpt lat="43.9067" lon="1.88691">
        <ele>141.639792</ele>
        <time>2026-08-29T10:23:25Z</time>
      </trkpt>
      <trkpt lat="43.9067" lon="1.88699">
        <ele>141.591575</ele>
        <time>2026-08-29T10:23:26Z</time>
      </trkpt>
      <trkpt lat="43.9067" lon="1.88706">
        <ele>141.542649</ele>
        <time>2026-08-29T10:23:27Z</time>
      </trkpt>
      <trkpt lat="43.9067" lon="1.88713">
        <ele>141.497751</ele>
        <time>2026-08-29T10:23:28Z</time>
      </trkpt>
      <trkpt lat="43.9067" lon="1.8872">
        <ele>141.451526</ele>
        <time>2026-08-29T10:23:29Z</time>
      </trkpt>
      <trkpt lat="43.9067" lon="1.88728">
        <ele>141.404651</ele>
        <time>2026-08-29T10:23:30Z</time>
      </trkpt>
      <trkpt lat="43.9067" lon="1.88735">
        <ele>141.356434</ele>
        <time>2026-08-29T10:23:31Z</time>
      </trkpt>
      <trkpt lat="43.90669" lon="1.88742">
        <ele>141.307566</ele>
        <time>2026-08-29T10:23:32Z</time>
      </trkpt>
      <trkpt lat="43.90669" lon="1.8875">
        <ele>141.257918</ele>
        <time>2026-08-29T10:23:33Z</time>
      </trkpt>
      <trkpt lat="43.90668" lon="1.88758">
        <ele>141.208344</ele>
        <time>2026-08-29T10:23:34Z</time>
      </trkpt>
      <trkpt lat="43.90668" lon="1.88765">
        <ele>141.159518</ele>
        <time>2026-08-29T10:23:35Z</time>
      </trkpt>
      <trkpt lat="43.90668" lon="1.88773">
        <ele>141.109393</ele>
        <time>2026-08-29T10:23:36Z</time>
      </trkpt>
      <trkpt lat="43.90668" lon="1.88781">
        <ele>141.059291</ele>
        <time>2026-08-29T10:23:37Z</time>
      </trkpt>
      <trkpt lat="43.90668" lon="1.88788">
        <ele>141.009166</ele>
        <time>2026-08-29T10:23:38Z</time>
      </trkpt>
      <trkpt lat="43.90668" lon="1.88796">
        <ele>140.95904</ele>
        <time>2026-08-29T10:23:39Z</time>
      </trkpt>
      <trkpt lat="43.90668" lon="1.88804">
        <ele>140.908947</ele>
        <time>2026-08-29T10:23:40Z</time>
      </trkpt>
      <trkpt lat="43.90668" lon="1.88811">
        <ele>140.860772</ele>
        <time>2026-08-29T10:23:41Z</time>
      </trkpt>
      <trkpt lat="43.90668" lon="1.88819">
        <ele>140.811321</ele>
        <time>2026-08-29T10:23:42Z</time>
      </trkpt>
      <trkpt lat="43.90667" lon="1.88826">
        <ele>140.763145</ele>
        <time>2026-08-29T10:23:43Z</time>
      </trkpt>
      <trkpt lat="43.90667" lon="1.88833">
        <ele>140.714995</ele>
        <time>2026-08-29T10:23:44Z</time>
      </trkpt>
      <trkpt lat="43.90667" lon="1.88841">
        <ele>140.66617</ele>
        <time>2026-08-29T10:23:45Z</time>
      </trkpt>
      <trkpt lat="43.90667" lon="1.88848">
        <ele>140.619295</ele>
        <time>2026-08-29T10:23:46Z</time>
      </trkpt>
      <trkpt lat="43.90667" lon="1.88856">
        <ele>140.568519</ele>
        <time>2026-08-29T10:23:47Z</time>
      </trkpt>
      <trkpt lat="43.90667" lon="1.88864">
        <ele>140.517703</ele>
        <time>2026-08-29T10:23:48Z</time>
      </trkpt>
      <trkpt lat="43.90667" lon="1.88871">
        <ele>140.46761</ele>
        <time>2026-08-29T10:23:49Z</time>
      </trkpt>
      <trkpt lat="43.90667" lon="1.88879">
        <ele>140.419468</ele>
        <time>2026-08-29T10:23:50Z</time>
      </trkpt>
      <trkpt lat="43.90667" lon="1.88886">
        <ele>140.370668</ele>
        <time>2026-08-29T10:23:51Z</time>
      </trkpt>
      <trkpt lat="43.90667" lon="1.88894">
        <ele>140.321225</ele>
        <time>2026-08-29T10:23:52Z</time>
      </trkpt>
      <trkpt lat="43.90667" lon="1.88902">
        <ele>140.271783</ele>
        <time>2026-08-29T10:23:53Z</time>
      </trkpt>
      <trkpt lat="43.90667" lon="1.88909">
        <ele>140.222332</ele>
        <time>2026-08-29T10:23:54Z</time>
      </trkpt>
      <trkpt lat="43.90667" lon="1.88917">
        <ele>140.172758</ele>
        <time>2026-08-29T10:23:55Z</time>
      </trkpt>
      <trkpt lat="43.90667" lon="1.88924">
        <ele>140.123241</ele>
        <time>2026-08-29T10:23:56Z</time>
      </trkpt>
      <trkpt lat="43.90667" lon="1.88932">
        <ele>140.074415</ele>
        <time>2026-08-29T10:23:57Z</time>
      </trkpt>
      <trkpt lat="43.90667" lon="1.88939">
        <ele>140.025615</ele>
        <time>2026-08-29T10:23:58Z</time>
      </trkpt>
      <trkpt lat="43.90667" lon="1.88947">
        <ele>139.993437</ele>
        <time>2026-08-29T10:23:59Z</time>
      </trkpt>
      <trkpt lat="43.90667" lon="1.88955">
        <ele>139.964661</ele>
        <time>2026-08-29T10:24:00Z</time>
      </trkpt>
      <trkpt lat="43.90667" lon="1.88962">
        <ele>139.937006</ele>
        <time>2026-08-29T10:24:01Z</time>
      </trkpt>
      <trkpt lat="43.90667" lon="1.8897">
        <ele>139.908231</ele>
        <time>2026-08-29T10:24:02Z</time>
      </trkpt>
      <trkpt lat="43.90667" lon="1.88977">
        <ele>139.879441</ele>
        <time>2026-08-29T10:24:03Z</time>
      </trkpt>
      <trkpt lat="43.90667" lon="1.88985">
        <ele>139.850628</ele>
        <time>2026-08-29T10:24:04Z</time>
      </trkpt>
      <trkpt lat="43.90668" lon="1.88993">
        <ele>139.822585</ele>
        <time>2026-08-29T10:24:05Z</time>
      </trkpt>
      <trkpt lat="43.90668" lon="1.89">
        <ele>139.794935</ele>
        <time>2026-08-29T10:24:06Z</time>
      </trkpt>
      <trkpt lat="43.90668" lon="1.89007">
        <ele>139.768775</ele>
        <time>2026-08-29T10:24:07Z</time>
      </trkpt>
      <trkpt lat="43.90668" lon="1.89014">
        <ele>139.740751</ele>
        <time>2026-08-29T10:24:08Z</time>
      </trkpt>
      <trkpt lat="43.90668" lon="1.89022">
        <ele>139.714222</ele>
        <time>2026-08-29T10:24:09Z</time>
      </trkpt>
      <trkpt lat="43.90668" lon="1.89029">
        <ele>139.688046</ele>
        <time>2026-08-29T10:24:10Z</time>
      </trkpt>
      <trkpt lat="43.90668" lon="1.89036">
        <ele>139.661138</ele>
        <time>2026-08-29T10:24:11Z</time>
      </trkpt>
      <trkpt lat="43.90668" lon="1.89043">
        <ele>139.633095</ele>
        <time>2026-08-29T10:24:12Z</time>
      </trkpt>
      <trkpt lat="43.90668" lon="1.89051">
        <ele>139.60432</ele>
        <time>2026-08-29T10:24:13Z</time>
      </trkpt>
      <trkpt lat="43.90668" lon="1.89059">
        <ele>139.575175</ele>
        <time>2026-08-29T10:24:14Z</time>
      </trkpt>
      <trkpt lat="43.90668" lon="1.89066">
        <ele>139.547525</ele>
        <time>2026-08-29T10:24:15Z</time>
      </trkpt>
      <trkpt lat="43.90668" lon="1.89073">
        <ele>139.520249</ele>
        <time>2026-08-29T10:24:16Z</time>
      </trkpt>
      <trkpt lat="43.90668" lon="1.89081">
        <ele>139.492967</ele>
        <time>2026-08-29T10:24:17Z</time>
      </trkpt>
      <trkpt lat="43.90668" lon="1.89088">
        <ele>139.465313</ele>
        <time>2026-08-29T10:24:18Z</time>
      </trkpt>
      <trkpt lat="43.90668" lon="1.89096">
        <ele>139.436537</ele>
        <time>2026-08-29T10:24:19Z</time>
      </trkpt>
      <trkpt lat="43.90668" lon="1.89103">
        <ele>139.408097</ele>
        <time>2026-08-29T10:24:20Z</time>
      </trkpt>
      <trkpt lat="43.90667" lon="1.89111">
        <ele>139.380776</ele>
        <time>2026-08-29T10:24:21Z</time>
      </trkpt>
      <trkpt lat="43.90667" lon="1.89118">
        <ele>139.353377</ele>
        <time>2026-08-29T10:24:22Z</time>
      </trkpt>
      <trkpt lat="43.90667" lon="1.89125">
        <ele>139.326429</ele>
        <time>2026-08-29T10:24:23Z</time>
      </trkpt>
      <trkpt lat="43.90666" lon="1.89133">
        <ele>139.29903</ele>
        <time>2026-08-29T10:24:24Z</time>
      </trkpt>
      <trkpt lat="43.90666" lon="1.8914">
        <ele>139.271336</ele>
        <time>2026-08-29T10:24:25Z</time>
      </trkpt>
      <trkpt lat="43.90665" lon="1.89147">
        <ele>139.244625</ele>
        <time>2026-08-29T10:24:26Z</time>
      </trkpt>
      <trkpt lat="43.90665" lon="1.89154">
        <ele>139.218388</ele>
        <time>2026-08-29T10:24:27Z</time>
      </trkpt>
      <trkpt lat="43.90664" lon="1.89161">
        <ele>139.193268</ele>
        <time>2026-08-29T10:24:28Z</time>
      </trkpt>
      <trkpt lat="43.90664" lon="1.89167">
        <ele>139.168099</ele>
        <time>2026-08-29T10:24:29Z</time>
      </trkpt>
      <trkpt lat="43.90663" lon="1.89174">
        <ele>139.141693</ele>
        <time>2026-08-29T10:24:30Z</time>
      </trkpt>
      <trkpt lat="43.90663" lon="1.89182">
        <ele>139.11424</ele>
        <time>2026-08-29T10:24:31Z</time>
      </trkpt>
      <trkpt lat="43.90662" lon="1.89189">
        <ele>139.088642</ele>
        <time>2026-08-29T10:24:32Z</time>
      </trkpt>
      <trkpt lat="43.90661" lon="1.89195">
        <ele>139.087416</ele>
        <time>2026-08-29T10:24:33Z</time>
      </trkpt>
      <trkpt lat="43.90661" lon="1.89202">
        <ele>139.093353</ele>
        <time>2026-08-29T10:24:34Z</time>
      </trkpt>
      <trkpt lat="43.9066" lon="1.89209">
        <ele>139.099243</ele>
        <time>2026-08-29T10:24:35Z</time>
      </trkpt>
      <trkpt lat="43.90659" lon="1.89215">
        <ele>139.104925</ele>
        <time>2026-08-29T10:24:36Z</time>
      </trkpt>
      <trkpt lat="43.90659" lon="1.89222">
        <ele>139.110929</ele>
        <time>2026-08-29T10:24:37Z</time>
      </trkpt>
      <trkpt lat="43.90658" lon="1.89229">
        <ele>139.117272</ele>
        <time>2026-08-29T10:24:38Z</time>
      </trkpt>
      <trkpt lat="43.90656" lon="1.89236">
        <ele>139.123614</ele>
        <time>2026-08-29T10:24:39Z</time>
      </trkpt>
      <trkpt lat="43.90656" lon="1.89244">
        <ele>139.129874</ele>
        <time>2026-08-29T10:24:40Z</time>
      </trkpt>
      <trkpt lat="43.90655" lon="1.8925">
        <ele>139.135811</ele>
        <time>2026-08-29T10:24:41Z</time>
      </trkpt>
      <trkpt lat="43.90654" lon="1.89257">
        <ele>139.141816</ele>
        <time>2026-08-29T10:24:42Z</time>
      </trkpt>
      <trkpt lat="43.90653" lon="1.89264">
        <ele>139.147838</ele>
        <time>2026-08-29T10:24:43Z</time>
      </trkpt>
      <trkpt lat="43.90653" lon="1.89271">
        <ele>139.15369</ele>
        <time>2026-08-29T10:24:44Z</time>
      </trkpt>
      <trkpt lat="43.90652" lon="1.89277">
        <ele>139.159372</ele>
        <time>2026-08-29T10:24:45Z</time>
      </trkpt>
      <trkpt lat="43.90651" lon="1.89284">
        <ele>139.164991</ele>
        <time>2026-08-29T10:24:46Z</time>
      </trkpt>
      <trkpt lat="43.9065" lon="1.8929">
        <ele>139.170718</ele>
        <time>2026-08-29T10:24:47Z</time>
      </trkpt>
      <trkpt lat="43.90649" lon="1.89297">
        <ele>139.17657</ele>
        <time>2026-08-29T10:24:48Z</time>
      </trkpt>
      <trkpt lat="43.90648" lon="1.89304">
        <ele>139.182551</ele>
        <time>2026-08-29T10:24:49Z</time>
      </trkpt>
      <trkpt lat="43.90647" lon="1.8931">
        <ele>139.188148</ele>
        <time>2026-08-29T10:24:50Z</time>
      </trkpt>
      <trkpt lat="43.90647" lon="1.89316">
        <ele>139.193197</ele>
        <time>2026-08-29T10:24:51Z</time>
      </trkpt>
      <trkpt lat="43.90646" lon="1.89322">
        <ele>139.198394</ele>
        <time>2026-08-29T10:24:52Z</time>
      </trkpt>
      <trkpt lat="43.90645" lon="1.89328">
        <ele>139.203896</ele>
        <time>2026-08-29T10:24:53Z</time>
      </trkpt>
      <trkpt lat="43.90644" lon="1.89334">
        <ele>139.209454</ele>
        <time>2026-08-29T10:24:54Z</time>
      </trkpt>
      <trkpt lat="43.90643" lon="1.89341">
        <ele>139.215208</ele>
        <time>2026-08-29T10:24:55Z</time>
      </trkpt>
      <trkpt lat="43.90642" lon="1.89348">
        <ele>139.221045</ele>
        <time>2026-08-29T10:24:56Z</time>
      </trkpt>
      <trkpt lat="43.90641" lon="1.89354">
        <ele>139.226388</ele>
        <time>2026-08-29T10:24:57Z</time>
      </trkpt>
      <trkpt lat="43.9064" lon="1.89359">
        <ele>139.231455</ele>
        <time>2026-08-29T10:24:58Z</time>
      </trkpt>
      <trkpt lat="43.90639" lon="1.89365">
        <ele>139.236438</ele>
        <time>2026-08-29T10:24:59Z</time>
      </trkpt>
      <trkpt lat="43.90639" lon="1.89371">
        <ele>139.241215</ele>
        <time>2026-08-29T10:25:00Z</time>
      </trkpt>
      <trkpt lat="43.90638" lon="1.89376">
        <ele>139.245686</ele>
        <time>2026-08-29T10:25:01Z</time>
      </trkpt>
      <trkpt lat="43.90637" lon="1.8938">
        <ele>139.249863</ele>
        <time>2026-08-29T10:25:02Z</time>
      </trkpt>
      <trkpt lat="43.90636" lon="1.89385">
        <ele>139.253756</ele>
        <time>2026-08-29T10:25:03Z</time>
      </trkpt>
      <trkpt lat="43.90635" lon="1.89389">
        <ele>139.257697</ele>
        <time>2026-08-29T10:25:04Z</time>
      </trkpt>
      <trkpt lat="43.90634" lon="1.89393">
        <ele>139.261752</ele>
        <time>2026-08-29T10:25:05Z</time>
      </trkpt>
      <trkpt lat="43.90631" lon="1.89397">
        <ele>139.266088</ele>
        <time>2026-08-29T10:25:06Z</time>
      </trkpt>
      <trkpt lat="43.90629" lon="1.89401">
        <ele>139.270573</ele>
        <time>2026-08-29T10:25:07Z</time>
      </trkpt>
      <trkpt lat="43.90625" lon="1.89403">
        <ele>139.275168</ele>
        <time>2026-08-29T10:25:08Z</time>
      </trkpt>
      <trkpt lat="43.90622" lon="1.89406">
        <ele>139.279599</ele>
        <time>2026-08-29T10:25:09Z</time>
      </trkpt>
      <trkpt lat="43.90621" lon="1.89411">
        <ele>139.284001</ele>
        <time>2026-08-29T10:25:10Z</time>
      </trkpt>
      <trkpt lat="43.9062" lon="1.89416">
        <ele>139.28884</ele>
        <time>2026-08-29T10:25:11Z</time>
      </trkpt>
      <trkpt lat="43.90621" lon="1.89422">
        <ele>139.293868</ele>
        <time>2026-08-29T10:25:12Z</time>
      </trkpt>
      <trkpt lat="43.90623" lon="1.89427">
        <ele>139.297574</ele>
        <time>2026-08-29T10:25:13Z</time>
      </trkpt>
      <trkpt lat="43.90626" lon="1.89431">
        <ele>139.291173</ele>
        <time>2026-08-29T10:25:14Z</time>
      </trkpt>
      <trkpt lat="43.90629" lon="1.89435">
        <ele>139.285102</ele>
        <time>2026-08-29T10:25:15Z</time>
      </trkpt>
      <trkpt lat="43.90631" lon="1.8944">
        <ele>139.278901</ele>
        <time>2026-08-29T10:25:16Z</time>
      </trkpt>
      <trkpt lat="43.90633" lon="1.89444">
        <ele>139.272608</ele>
        <time>2026-08-29T10:25:17Z</time>
      </trkpt>
      <trkpt lat="43.90636" lon="1.89449">
        <ele>139.266224</ele>
        <time>2026-08-29T10:25:18Z</time>
      </trkpt>
      <trkpt lat="43.90638" lon="1.89454">
        <ele>139.259843</ele>
        <time>2026-08-29T10:25:19Z</time>
      </trkpt>
      <trkpt lat="43.9064" lon="1.89459">
        <ele>139.253337</ele>
        <time>2026-08-29T10:25:20Z</time>
      </trkpt>
      <trkpt lat="43.90642" lon="1.89464">
        <ele>139.246498</ele>
        <time>2026-08-29T10:25:21Z</time>
      </trkpt>
      <trkpt lat="43.90645" lon="1.89469">
        <ele>139.239666</ele>
        <time>2026-08-29T10:25:22Z</time>
      </trkpt>
      <trkpt lat="43.90648" lon="1.89475">
        <ele>139.232472</ele>
        <time>2026-08-29T10:25:23Z</time>
      </trkpt>
      <trkpt lat="43.9065" lon="1.8948">
        <ele>139.225363</ele>
        <time>2026-08-29T10:25:24Z</time>
      </trkpt>
      <trkpt lat="43.90653" lon="1.89485">
        <ele>139.218534</ele>
        <time>2026-08-29T10:25:25Z</time>
      </trkpt>
      <trkpt lat="43.90655" lon="1.8949">
        <ele>139.211705</ele>
        <time>2026-08-29T10:25:26Z</time>
      </trkpt>
      <trkpt lat="43.90658" lon="1.89495">
        <ele>139.204785</ele>
        <time>2026-08-29T10:25:27Z</time>
      </trkpt>
      <trkpt lat="43.9066" lon="1.895">
        <ele>139.197684</ele>
        <time>2026-08-29T10:25:28Z</time>
      </trkpt>
      <trkpt lat="43.90663" lon="1.89505">
        <ele>139.190763</ele>
        <time>2026-08-29T10:25:29Z</time>
      </trkpt>
      <trkpt lat="43.90666" lon="1.89511">
        <ele>139.183483</ele>
        <time>2026-08-29T10:25:30Z</time>
      </trkpt>
      <trkpt lat="43.90668" lon="1.89516">
        <ele>139.176467</ele>
        <time>2026-08-29T10:25:31Z</time>
      </trkpt>
      <trkpt lat="43.90671" lon="1.89522">
        <ele>139.168826</ele>
        <time>2026-08-29T10:25:32Z</time>
      </trkpt>
      <trkpt lat="43.90674" lon="1.89528">
        <ele>139.161271</ele>
        <time>2026-08-29T10:25:33Z</time>
      </trkpt>
      <trkpt lat="43.90677" lon="1.89533">
        <ele>139.153537</ele>
        <time>2026-08-29T10:25:34Z</time>
      </trkpt>
      <trkpt lat="43.9068" lon="1.89539">
        <ele>139.145982</ele>
        <time>2026-08-29T10:25:35Z</time>
      </trkpt>
      <trkpt lat="43.90682" lon="1.89544">
        <ele>139.138696</ele>
        <time>2026-08-29T10:25:36Z</time>
      </trkpt>
      <trkpt lat="43.90685" lon="1.89549">
        <ele>139.131597</ele>
        <time>2026-08-29T10:25:37Z</time>
      </trkpt>
      <trkpt lat="43.90688" lon="1.89555">
        <ele>139.124678</ele>
        <time>2026-08-29T10:25:38Z</time>
      </trkpt>
      <trkpt lat="43.9069" lon="1.8956">
        <ele>139.117484</ele>
        <time>2026-08-29T10:25:39Z</time>
      </trkpt>
      <trkpt lat="43.90693" lon="1.89565">
        <ele>139.110116</ele>
        <time>2026-08-29T10:25:40Z</time>
      </trkpt>
      <trkpt lat="43.90696" lon="1.89571">
        <ele>139.10283</ele>
        <time>2026-08-29T10:25:41Z</time>
      </trkpt>
      <trkpt lat="43.90698" lon="1.89576">
        <ele>139.095547</ele>
        <time>2026-08-29T10:25:42Z</time>
      </trkpt>
      <trkpt lat="43.90701" lon="1.89581">
        <ele>139.088438</ele>
        <time>2026-08-29T10:25:43Z</time>
      </trkpt>
      <trkpt lat="43.90704" lon="1.89586">
        <ele>139.081155</ele>
        <time>2026-08-29T10:25:44Z</time>
      </trkpt>
      <trkpt lat="43.90707" lon="1.89591">
        <ele>139.074229</ele>
        <time>2026-08-29T10:25:45Z</time>
      </trkpt>
      <trkpt lat="43.9071" lon="1.89596">
        <ele>139.067474</ele>
        <time>2026-08-29T10:25:46Z</time>
      </trkpt>
      <trkpt lat="43.90712" lon="1.89601">
        <ele>139.061003</ele>
        <time>2026-08-29T10:25:47Z</time>
      </trkpt>
      <trkpt lat="43.90715" lon="1.89606">
        <ele>139.054349</ele>
        <time>2026-08-29T10:25:48Z</time>
      </trkpt>
      <trkpt lat="43.90717" lon="1.89611">
        <ele>139.047747</ele>
        <time>2026-08-29T10:25:49Z</time>
      </trkpt>
      <trkpt lat="43.90719" lon="1.89616">
        <ele>139.04112</ele>
        <time>2026-08-29T10:25:50Z</time>
      </trkpt>
      <trkpt lat="43.90721" lon="1.89622">
        <ele>139.034064</ele>
        <time>2026-08-29T10:25:51Z</time>
      </trkpt>
      <trkpt lat="43.90723" lon="1.89628">
        <ele>139.027108</ele>
        <time>2026-08-29T10:25:52Z</time>
      </trkpt>
      <trkpt lat="43.90725" lon="1.89633">
        <ele>139.008138</ele>
        <time>2026-08-29T10:25:53Z</time>
      </trkpt>
      <trkpt lat="43.90727" lon="1.89639">
        <ele>138.947699</ele>
        <time>2026-08-29T10:25:54Z</time>
      </trkpt>
      <trkpt lat="43.90729" lon="1.89646">
        <ele>138.885917</ele>
        <time>2026-08-29T10:25:55Z</time>
      </trkpt>
      <trkpt lat="43.90731" lon="1.89652">
        <ele>138.823239</ele>
        <time>2026-08-29T10:25:56Z</time>
      </trkpt>
      <trkpt lat="43.90733" lon="1.89657">
        <ele>138.764924</ele>
        <time>2026-08-29T10:25:57Z</time>
      </trkpt>
      <trkpt lat="43.90736" lon="1.89663">
        <ele>138.705014</ele>
        <time>2026-08-29T10:25:58Z</time>
      </trkpt>
      <trkpt lat="43.90738" lon="1.8967">
        <ele>138.640251</ele>
        <time>2026-08-29T10:25:59Z</time>
      </trkpt>
      <trkpt lat="43.9074" lon="1.89676">
        <ele>138.575754</ele>
        <time>2026-08-29T10:26:00Z</time>
      </trkpt>
      <trkpt lat="43.90742" lon="1.89682">
        <ele>138.516135</ele>
        <time>2026-08-29T10:26:01Z</time>
      </trkpt>
      <trkpt lat="43.90744" lon="1.89688">
        <ele>138.45669</ele>
        <time>2026-08-29T10:26:02Z</time>
      </trkpt>
      <trkpt lat="43.90746" lon="1.89694">
        <ele>138.399739</ele>
        <time>2026-08-29T10:26:03Z</time>
      </trkpt>
      <trkpt lat="43.90748" lon="1.897">
        <ele>138.344984</ele>
        <time>2026-08-29T10:26:04Z</time>
      </trkpt>
      <trkpt lat="43.9075" lon="1.89705">
        <ele>138.285873</ele>
        <time>2026-08-29T10:26:05Z</time>
      </trkpt>
      <trkpt lat="43.90752" lon="1.89711">
        <ele>138.223195</ele>
        <time>2026-08-29T10:26:06Z</time>
      </trkpt>
      <trkpt lat="43.90755" lon="1.89717">
        <ele>138.161905</ele>
        <time>2026-08-29T10:26:07Z</time>
      </trkpt>
      <trkpt lat="43.90757" lon="1.89723">
        <ele>138.102495</ele>
        <time>2026-08-29T10:26:08Z</time>
      </trkpt>
      <trkpt lat="43.9076" lon="1.89729">
        <ele>138.043172</ele>
        <time>2026-08-29T10:26:09Z</time>
      </trkpt>
      <trkpt lat="43.90762" lon="1.89735">
        <ele>137.97784</ele>
        <time>2026-08-29T10:26:10Z</time>
      </trkpt>
      <trkpt lat="43.90765" lon="1.89741">
        <ele>137.912614</ele>
        <time>2026-08-29T10:26:11Z</time>
      </trkpt>
      <trkpt lat="43.90768" lon="1.89748">
        <ele>137.842128</ele>
        <time>2026-08-29T10:26:12Z</time>
      </trkpt>
      <trkpt lat="43.90771" lon="1.89755">
        <ele>137.768527</ele>
        <time>2026-08-29T10:26:13Z</time>
      </trkpt>
      <trkpt lat="43.90774" lon="1.89762">
        <ele>137.693088</ele>
        <time>2026-08-29T10:26:14Z</time>
      </trkpt>
      <trkpt lat="43.90778" lon="1.89769">
        <ele>137.616956</ele>
        <time>2026-08-29T10:26:15Z</time>
      </trkpt>
      <trkpt lat="43.90781" lon="1.89775">
        <ele>137.545847</ele>
        <time>2026-08-29T10:26:16Z</time>
      </trkpt>
      <trkpt lat="43.90785" lon="1.89781">
        <ele>137.477714</ele>
        <time>2026-08-29T10:26:17Z</time>
      </trkpt>
      <trkpt lat="43.90788" lon="1.89786">
        <ele>137.410859</ele>
        <time>2026-08-29T10:26:18Z</time>
      </trkpt>
      <trkpt lat="43.90792" lon="1.89791">
        <ele>137.346472</ele>
        <time>2026-08-29T10:26:19Z</time>
      </trkpt>
      <trkpt lat="43.90795" lon="1.89797">
        <ele>137.280969</ele>
        <time>2026-08-29T10:26:20Z</time>
      </trkpt>
      <trkpt lat="43.90799" lon="1.89803">
        <ele>137.212741</ele>
        <time>2026-08-29T10:26:21Z</time>
      </trkpt>
      <trkpt lat="43.90802" lon="1.89808">
        <ele>137.147576</ele>
        <time>2026-08-29T10:26:22Z</time>
      </trkpt>
      <trkpt lat="43.90805" lon="1.89814">
        <ele>137.079348</ele>
        <time>2026-08-29T10:26:23Z</time>
      </trkpt>
      <trkpt lat="43.90809" lon="1.8982">
        <ele>137.010509</ele>
        <time>2026-08-29T10:26:24Z</time>
      </trkpt>
      <trkpt lat="43.9081" lon="1.89827">
        <ele>136.948465</ele>
        <time>2026-08-29T10:26:25Z</time>
      </trkpt>
      <trkpt lat="43.9081" lon="1.89834">
        <ele>136.886191</ele>
        <time>2026-08-29T10:26:26Z</time>
      </trkpt>
      <trkpt lat="43.90809" lon="1.89839">
        <ele>136.833847</ele>
        <time>2026-08-29T10:26:27Z</time>
      </trkpt>
      <trkpt lat="43.90807" lon="1.89844">
        <ele>136.783442</ele>
        <time>2026-08-29T10:26:28Z</time>
      </trkpt>
      <trkpt lat="43.90804" lon="1.89848">
        <ele>136.781371</ele>
        <time>2026-08-29T10:26:29Z</time>
      </trkpt>
      <trkpt lat="43.908" lon="1.89851">
        <ele>136.796028</ele>
        <time>2026-08-29T10:26:30Z</time>
      </trkpt>
      <trkpt lat="43.90795" lon="1.89852">
        <ele>136.811298</ele>
        <time>2026-08-29T10:26:31Z</time>
      </trkpt>
      <trkpt lat="43.9079" lon="1.89852">
        <ele>136.829415</ele>
        <time>2026-08-29T10:26:32Z</time>
      </trkpt>
      <trkpt lat="43.90784" lon="1.89849">
        <ele>136.848336</ele>
        <time>2026-08-29T10:26:33Z</time>
      </trkpt>
      <trkpt lat="43.9078" lon="1.89845">
        <ele>136.866605</ele>
        <time>2026-08-29T10:26:34Z</time>
      </trkpt>
      <trkpt lat="43.90776" lon="1.89839">
        <ele>136.884144</ele>
        <time>2026-08-29T10:26:35Z</time>
      </trkpt>
      <trkpt lat="43.90774" lon="1.89833">
        <ele>136.900904</ele>
        <time>2026-08-29T10:26:36Z</time>
      </trkpt>
      <trkpt lat="43.90773" lon="1.89826">
        <ele>136.917688</ele>
        <time>2026-08-29T10:26:37Z</time>
      </trkpt>
      <trkpt lat="43.90772" lon="1.8982">
        <ele>136.933071</ele>
        <time>2026-08-29T10:26:38Z</time>
      </trkpt>
      <trkpt lat="43.90771" lon="1.89813">
        <ele>136.948149</ele>
        <time>2026-08-29T10:26:39Z</time>
      </trkpt>
      <trkpt lat="43.90769" lon="1.89807">
        <ele>136.962698</ele>
        <time>2026-08-29T10:26:40Z</time>
      </trkpt>
      <trkpt lat="43.90768" lon="1.89802">
        <ele>136.97725</ele>
        <time>2026-08-29T10:26:41Z</time>
      </trkpt>
      <trkpt lat="43.90765" lon="1.89797">
        <ele>136.991906</ele>
        <time>2026-08-29T10:26:42Z</time>
      </trkpt>
      <trkpt lat="43.90763" lon="1.89791">
        <ele>137.007122</ele>
        <time>2026-08-29T10:26:43Z</time>
      </trkpt>
      <trkpt lat="43.9076" lon="1.89787">
        <ele>137.021779</ele>
        <time>2026-08-29T10:26:44Z</time>
      </trkpt>
      <trkpt lat="43.90757" lon="1.89782">
        <ele>137.037474</ele>
        <time>2026-08-29T10:26:45Z</time>
      </trkpt>
      <trkpt lat="43.90753" lon="1.89777">
        <ele>137.05282</ele>
        <time>2026-08-29T10:26:46Z</time>
      </trkpt>
      <trkpt lat="43.9075" lon="1.89772">
        <ele>137.067825</ele>
        <time>2026-08-29T10:26:47Z</time>
      </trkpt>
      <trkpt lat="43.90747" lon="1.89768">
        <ele>137.08255</ele>
        <time>2026-08-29T10:26:48Z</time>
      </trkpt>
      <trkpt lat="43.90744" lon="1.89763">
        <ele>137.097896</ele>
        <time>2026-08-29T10:26:49Z</time>
      </trkpt>
      <trkpt lat="43.90741" lon="1.89759">
        <ele>137.113302</ele>
        <time>2026-08-29T10:26:50Z</time>
      </trkpt>
      <trkpt lat="43.90737" lon="1.89755">
        <ele>137.127733</ele>
        <time>2026-08-29T10:26:51Z</time>
      </trkpt>
      <trkpt lat="43.90734" lon="1.89751">
        <ele>137.142112</ele>
        <time>2026-08-29T10:26:52Z</time>
      </trkpt>
      <trkpt lat="43.9073" lon="1.89747">
        <ele>137.157267</ele>
        <time>2026-08-29T10:26:53Z</time>
      </trkpt>
      <trkpt lat="43.90727" lon="1.89743">
        <ele>137.172715</ele>
        <time>2026-08-29T10:26:54Z</time>
      </trkpt>
      <trkpt lat="43.90723" lon="1.8974">
        <ele>137.18748</ele>
        <time>2026-08-29T10:26:55Z</time>
      </trkpt>
      <trkpt lat="43.90719" lon="1.89737">
        <ele>137.202807</ele>
        <time>2026-08-29T10:26:56Z</time>
      </trkpt>
      <trkpt lat="43.90715" lon="1.89733">
        <ele>137.217611</ele>
        <time>2026-08-29T10:26:57Z</time>
      </trkpt>
      <trkpt lat="43.90711" lon="1.8973">
        <ele>137.232587</ele>
        <time>2026-08-29T10:26:58Z</time>
      </trkpt>
      <trkpt lat="43.90707" lon="1.89727">
        <ele>137.247885</ele>
        <time>2026-08-29T10:26:59Z</time>
      </trkpt>
      <trkpt lat="43.90703" lon="1.89724">
        <ele>137.263846</ele>
        <time>2026-08-29T10:27:00Z</time>
      </trkpt>
      <trkpt lat="43.90698" lon="1.89721">
        <ele>137.279806</ele>
        <time>2026-08-29T10:27:01Z</time>
      </trkpt>
      <trkpt lat="43.90694" lon="1.89718">
        <ele>137.29606</ele>
        <time>2026-08-29T10:27:02Z</time>
      </trkpt>
      <trkpt lat="43.9069" lon="1.89715">
        <ele>137.312207</ele>
        <time>2026-08-29T10:27:03Z</time>
      </trkpt>
      <trkpt lat="43.90685" lon="1.89711">
        <ele>137.328223</ele>
        <time>2026-08-29T10:27:04Z</time>
      </trkpt>
      <trkpt lat="43.90681" lon="1.89708">
        <ele>137.344057</ele>
        <time>2026-08-29T10:27:05Z</time>
      </trkpt>
      <trkpt lat="43.90677" lon="1.89703">
        <ele>137.36139</ele>
        <time>2026-08-29T10:27:06Z</time>
      </trkpt>
      <trkpt lat="43.90673" lon="1.897">
        <ele>137.373075</ele>
        <time>2026-08-29T10:27:07Z</time>
      </trkpt>
      <trkpt lat="43.90669" lon="1.89697">
        <ele>137.384089</ele>
        <time>2026-08-29T10:27:08Z</time>
      </trkpt>
      <trkpt lat="43.90665" lon="1.89694">
        <ele>137.394932</ele>
        <time>2026-08-29T10:27:09Z</time>
      </trkpt>
      <trkpt lat="43.90661" lon="1.8969">
        <ele>137.405944</ele>
        <time>2026-08-29T10:27:10Z</time>
      </trkpt>
      <trkpt lat="43.90657" lon="1.89686">
        <ele>137.417865</ele>
        <time>2026-08-29T10:27:11Z</time>
      </trkpt>
      <trkpt lat="43.90653" lon="1.89681">
        <ele>137.430572</ele>
        <time>2026-08-29T10:27:12Z</time>
      </trkpt>
      <trkpt lat="43.9065" lon="1.89676">
        <ele>137.441792</ele>
        <time>2026-08-29T10:27:13Z</time>
      </trkpt>
      <trkpt lat="43.90648" lon="1.8967">
        <ele>137.45441</ele>
        <time>2026-08-29T10:27:14Z</time>
      </trkpt>
      <trkpt lat="43.90645" lon="1.89664">
        <ele>137.466244</ele>
        <time>2026-08-29T10:27:15Z</time>
      </trkpt>
      <trkpt lat="43.90643" lon="1.89658">
        <ele>137.478229</ele>
        <time>2026-08-29T10:27:16Z</time>
      </trkpt>
      <trkpt lat="43.90641" lon="1.89652">
        <ele>137.489317</ele>
        <time>2026-08-29T10:27:17Z</time>
      </trkpt>
      <trkpt lat="43.90639" lon="1.89646">
        <ele>137.500468</ele>
        <time>2026-08-29T10:27:18Z</time>
      </trkpt>
      <trkpt lat="43.90636" lon="1.89641">
        <ele>137.511434</ele>
        <time>2026-08-29T10:27:19Z</time>
      </trkpt>
      <trkpt lat="43.90634" lon="1.89636">
        <ele>137.522358</ele>
        <time>2026-08-29T10:27:20Z</time>
      </trkpt>
      <trkpt lat="43.90631" lon="1.8963">
        <ele>137.53383</ele>
        <time>2026-08-29T10:27:21Z</time>
      </trkpt>
      <trkpt lat="43.90629" lon="1.89625">
        <ele>137.544648</ele>
        <time>2026-08-29T10:27:22Z</time>
      </trkpt>
      <trkpt lat="43.90625" lon="1.8962">
        <ele>137.556597</ele>
        <time>2026-08-29T10:27:23Z</time>
      </trkpt>
      <trkpt lat="43.90622" lon="1.89615">
        <ele>137.568665</ele>
        <time>2026-08-29T10:27:24Z</time>
      </trkpt>
      <trkpt lat="43.90617" lon="1.89611">
        <ele>137.580955</ele>
        <time>2026-08-29T10:27:25Z</time>
      </trkpt>
      <trkpt lat="43.90613" lon="1.89608">
        <ele>137.592903</ele>
        <time>2026-08-29T10:27:26Z</time>
      </trkpt>
      <trkpt lat="43.90608" lon="1.89606">
        <ele>137.605224</ele>
        <time>2026-08-29T10:27:27Z</time>
      </trkpt>
      <trkpt lat="43.90603" lon="1.89605">
        <ele>137.617433</ele>
        <time>2026-08-29T10:27:28Z</time>
      </trkpt>
      <trkpt lat="43.90598" lon="1.89604">
        <ele>137.629785</ele>
        <time>2026-08-29T10:27:29Z</time>
      </trkpt>
      <trkpt lat="43.90592" lon="1.89602">
        <ele>137.642638</ele>
        <time>2026-08-29T10:27:30Z</time>
      </trkpt>
      <trkpt lat="43.90588" lon="1.89601">
        <ele>137.654414</ele>
        <time>2026-08-29T10:27:31Z</time>
      </trkpt>
      <trkpt lat="43.90583" lon="1.89599">
        <ele>137.666229</ele>
        <time>2026-08-29T10:27:32Z</time>
      </trkpt>
      <trkpt lat="43.90578" lon="1.89598">
        <ele>137.677539</ele>
        <time>2026-08-29T10:27:33Z</time>
      </trkpt>
      <trkpt lat="43.90573" lon="1.89596">
        <ele>137.689549</ele>
        <time>2026-08-29T10:27:34Z</time>
      </trkpt>
      <trkpt lat="43.90568" lon="1.89595">
        <ele>137.701489</ele>
        <time>2026-08-29T10:27:35Z</time>
      </trkpt>
      <trkpt lat="43.90564" lon="1.89594">
        <ele>137.712724</ele>
        <time>2026-08-29T10:27:36Z</time>
      </trkpt>
      <trkpt lat="43.90559" lon="1.89592">
        <ele>137.72396</ele>
        <time>2026-08-29T10:27:37Z</time>
      </trkpt>
      <trkpt lat="43.90555" lon="1.89591">
        <ele>137.735196</ele>
        <time>2026-08-29T10:27:38Z</time>
      </trkpt>
      <trkpt lat="43.9055" lon="1.8959">
        <ele>137.747606</ele>
        <time>2026-08-29T10:27:39Z</time>
      </trkpt>
      <trkpt lat="43.90544" lon="1.89589">
        <ele>137.760669</ele>
        <time>2026-08-29T10:27:40Z</time>
      </trkpt>
      <trkpt lat="43.90539" lon="1.89588">
        <ele>137.773995</ele>
        <time>2026-08-29T10:27:41Z</time>
      </trkpt>
      <trkpt lat="43.90533" lon="1.89586">
        <ele>137.78732</ele>
        <time>2026-08-29T10:27:42Z</time>
      </trkpt>
      <trkpt lat="43.90528" lon="1.89585">
        <ele>137.78697</ele>
        <time>2026-08-29T10:27:43Z</time>
      </trkpt>
      <trkpt lat="43.90523" lon="1.89583">
        <ele>137.776592</ele>
        <time>2026-08-29T10:27:44Z</time>
      </trkpt>
      <trkpt lat="43.90519" lon="1.89583">
        <ele>137.766469</ele>
        <time>2026-08-29T10:27:45Z</time>
      </trkpt>
      <trkpt lat="43.90514" lon="1.89583">
        <ele>137.755028</ele>
        <time>2026-08-29T10:27:46Z</time>
      </trkpt>
      <trkpt lat="43.90508" lon="1.89584">
        <ele>137.742123</ele>
        <time>2026-08-29T10:27:47Z</time>
      </trkpt>
      <trkpt lat="43.90503" lon="1.89585">
        <ele>137.730303</ele>
        <time>2026-08-29T10:27:48Z</time>
      </trkpt>
      <trkpt lat="43.90498" lon="1.89586">
        <ele>137.718531</ele>
        <time>2026-08-29T10:27:49Z</time>
      </trkpt>
      <trkpt lat="43.90492" lon="1.89585">
        <ele>137.704568</ele>
        <time>2026-08-29T10:27:50Z</time>
      </trkpt>
      <trkpt lat="43.90486" lon="1.89584">
        <ele>137.692796</ele>
        <time>2026-08-29T10:27:51Z</time>
      </trkpt>
      <trkpt lat="43.90482" lon="1.89586">
        <ele>137.682555</ele>
        <time>2026-08-29T10:27:52Z</time>
      </trkpt>
      <trkpt lat="43.90479" lon="1.89591">
        <ele>137.672324</ele>
        <time>2026-08-29T10:27:53Z</time>
      </trkpt>
      <trkpt lat="43.90477" lon="1.89596">
        <ele>137.661964</ele>
        <time>2026-08-29T10:27:54Z</time>
      </trkpt>
      <trkpt lat="43.90473" lon="1.89602">
        <ele>137.650555</ele>
        <time>2026-08-29T10:27:55Z</time>
      </trkpt>
      <trkpt lat="43.9047" lon="1.89608">
        <ele>137.63769</ele>
        <time>2026-08-29T10:27:56Z</time>
      </trkpt>
      <trkpt lat="43.90465" lon="1.89611">
        <ele>137.626156</ele>
        <time>2026-08-29T10:27:57Z</time>
      </trkpt>
      <trkpt lat="43.9046" lon="1.8961">
        <ele>137.613994</ele>
        <time>2026-08-29T10:27:58Z</time>
      </trkpt>
      <trkpt lat="43.90454" lon="1.89607">
        <ele>137.600828</ele>
        <time>2026-08-29T10:27:59Z</time>
      </trkpt>
      <trkpt lat="43.90449" lon="1.89603">
        <ele>137.586904</ele>
        <time>2026-08-29T10:28:00Z</time>
      </trkpt>
      <trkpt lat="43.90444" lon="1.896">
        <ele>137.574244</ele>
        <time>2026-08-29T10:28:01Z</time>
      </trkpt>
      <trkpt lat="43.90439" lon="1.89598">
        <ele>137.562576</ele>
        <time>2026-08-29T10:28:02Z</time>
      </trkpt>
      <trkpt lat="43.90434" lon="1.89597">
        <ele>137.551609</ele>
        <time>2026-08-29T10:28:03Z</time>
      </trkpt>
      <trkpt lat="43.90429" lon="1.89596">
        <ele>137.54083</ele>
        <time>2026-08-29T10:28:04Z</time>
      </trkpt>
      <trkpt lat="43.90425" lon="1.89594">
        <ele>137.530743</ele>
        <time>2026-08-29T10:28:05Z</time>
      </trkpt>
      <trkpt lat="43.90421" lon="1.89593">
        <ele>137.521192</ele>
        <time>2026-08-29T10:28:06Z</time>
      </trkpt>
      <trkpt lat="43.90417" lon="1.89591">
        <ele>137.512198</ele>
        <time>2026-08-29T10:28:07Z</time>
      </trkpt>
      <trkpt lat="43.90412" lon="1.8959">
        <ele>137.502614</ele>
        <time>2026-08-29T10:28:08Z</time>
      </trkpt>
      <trkpt lat="43.90408" lon="1.8959">
        <ele>137.493174</ele>
        <time>2026-08-29T10:28:09Z</time>
      </trkpt>
      <trkpt lat="43.90404" lon="1.89589">
        <ele>137.482556</ele>
        <time>2026-08-29T10:28:10Z</time>
      </trkpt>
      <trkpt lat="43.90399" lon="1.89588">
        <ele>137.47206</ele>
        <time>2026-08-29T10:28:11Z</time>
      </trkpt>
      <trkpt lat="43.90394" lon="1.89587">
        <ele>137.461043</ele>
        <time>2026-08-29T10:28:12Z</time>
      </trkpt>
      <trkpt lat="43.90389" lon="1.89586">
        <ele>137.449222</ele>
        <time>2026-08-29T10:28:13Z</time>
      </trkpt>
      <trkpt lat="43.90384" lon="1.89585">
        <ele>137.437153</ele>
        <time>2026-08-29T10:28:14Z</time>
      </trkpt>
      <trkpt lat="43.90378" lon="1.89584">
        <ele>137.424614</ele>
        <time>2026-08-29T10:28:15Z</time>
      </trkpt>
      <trkpt lat="43.90373" lon="1.89582">
        <ele>137.412104</ele>
        <time>2026-08-29T10:28:16Z</time>
      </trkpt>
      <trkpt lat="43.90367" lon="1.8958">
        <ele>137.399571</ele>
        <time>2026-08-29T10:28:17Z</time>
      </trkpt>
      <trkpt lat="43.90362" lon="1.89578">
        <ele>137.394828</ele>
        <time>2026-08-29T10:28:18Z</time>
      </trkpt>
      <trkpt lat="43.90357" lon="1.89575">
        <ele>137.423072</ele>
        <time>2026-08-29T10:28:19Z</time>
      </trkpt>
      <trkpt lat="43.90352" lon="1.89574">
        <ele>137.450954</ele>
        <time>2026-08-29T10:28:20Z</time>
      </trkpt>
      <trkpt lat="43.90348" lon="1.89574">
        <ele>137.477402</ele>
        <time>2026-08-29T10:28:21Z</time>
      </trkpt>
      <trkpt lat="43.90344" lon="1.89574">
        <ele>137.500014</ele>
        <time>2026-08-29T10:28:22Z</time>
      </trkpt>
      <trkpt lat="43.90339" lon="1.89574">
        <ele>137.524247</ele>
        <time>2026-08-29T10:28:23Z</time>
      </trkpt>
      <trkpt lat="43.90335" lon="1.89574">
        <ele>137.545175</ele>
        <time>2026-08-29T10:28:24Z</time>
      </trkpt>
      <trkpt lat="43.90332" lon="1.89574">
        <ele>137.566287</ele>
        <time>2026-08-29T10:28:25Z</time>
      </trkpt>
      <trkpt lat="43.90328" lon="1.89572">
        <ele>137.588377</ele>
        <time>2026-08-29T10:28:26Z</time>
      </trkpt>
      <trkpt lat="43.90324" lon="1.89571">
        <ele>137.607382</ele>
        <time>2026-08-29T10:28:27Z</time>
      </trkpt>
      <trkpt lat="43.9032" lon="1.8957">
        <ele>137.630309</ele>
        <time>2026-08-29T10:28:28Z</time>
      </trkpt>
      <trkpt lat="43.90316" lon="1.89569">
        <ele>137.653657</ele>
        <time>2026-08-29T10:28:29Z</time>
      </trkpt>
      <trkpt lat="43.90312" lon="1.89569">
        <ele>137.674721</ele>
        <time>2026-08-29T10:28:30Z</time>
      </trkpt>
      <trkpt lat="43.90308" lon="1.89569">
        <ele>137.695743</ele>
        <time>2026-08-29T10:28:31Z</time>
      </trkpt>
      <trkpt lat="43.90304" lon="1.8957">
        <ele>137.721822</ele>
        <time>2026-08-29T10:28:32Z</time>
      </trkpt>
      <trkpt lat="43.90299" lon="1.89572">
        <ele>137.747969</ele>
        <time>2026-08-29T10:28:33Z</time>
      </trkpt>
      <trkpt lat="43.90295" lon="1.89575">
        <ele>137.774154</ele>
        <time>2026-08-29T10:28:34Z</time>
      </trkpt>
      <trkpt lat="43.90291" lon="1.89578">
        <ele>137.800933</ele>
        <time>2026-08-29T10:28:35Z</time>
      </trkpt>
      <trkpt lat="43.90286" lon="1.89581">
        <ele>137.828189</ele>
        <time>2026-08-29T10:28:36Z</time>
      </trkpt>
      <trkpt lat="43.90282" lon="1.89584">
        <ele>137.854388</ele>
        <time>2026-08-29T10:28:37Z</time>
      </trkpt>
      <trkpt lat="43.90278" lon="1.89588">
        <ele>137.878611</ele>
        <time>2026-08-29T10:28:38Z</time>
      </trkpt>
      <trkpt lat="43.90275" lon="1.89591">
        <ele>137.902306</ele>
        <time>2026-08-29T10:28:39Z</time>
      </trkpt>
      <trkpt lat="43.90271" lon="1.89592">
        <ele>137.921692</ele>
        <time>2026-08-29T10:28:40Z</time>
      </trkpt>
      <trkpt lat="43.90269" lon="1.89594">
        <ele>137.937025</ele>
        <time>2026-08-29T10:28:41Z</time>
      </trkpt>
      <trkpt lat="43.90266" lon="1.89595">
        <ele>137.950998</ele>
        <time>2026-08-29T10:28:42Z</time>
      </trkpt>
      <trkpt lat="43.90264" lon="1.89596">
        <ele>137.965845</ele>
        <time>2026-08-29T10:28:43Z</time>
      </trkpt>
      <trkpt lat="43.90261" lon="1.89598">
        <ele>137.98386</ele>
        <time>2026-08-29T10:28:44Z</time>
      </trkpt>
      <trkpt lat="43.90258" lon="1.89601">
        <ele>138.003132</ele>
        <time>2026-08-29T10:28:45Z</time>
      </trkpt>
      <trkpt lat="43.90255" lon="1.89603">
        <ele>138.021934</ele>
        <time>2026-08-29T10:28:46Z</time>
      </trkpt>
      <trkpt lat="43.90252" lon="1.89606">
        <ele>138.042983</ele>
        <time>2026-08-29T10:28:47Z</time>
      </trkpt>
      <trkpt lat="43.90248" lon="1.89609">
        <ele>138.06552</ele>
        <time>2026-08-29T10:28:48Z</time>
      </trkpt>
      <trkpt lat="43.90245" lon="1.89612">
        <ele>138.088922</ele>
        <time>2026-08-29T10:28:49Z</time>
      </trkpt>
      <trkpt lat="43.9024" lon="1.89614">
        <ele>138.114267</ele>
        <time>2026-08-29T10:28:50Z</time>
      </trkpt>
      <trkpt lat="43.90236" lon="1.89617">
        <ele>138.137963</ele>
        <time>2026-08-29T10:28:51Z</time>
      </trkpt>
      <trkpt lat="43.90232" lon="1.89619">
        <ele>138.162979</ele>
        <time>2026-08-29T10:28:52Z</time>
      </trkpt>
      <trkpt lat="43.90228" lon="1.89621">
        <ele>138.187486</ele>
        <time>2026-08-29T10:28:53Z</time>
      </trkpt>
      <trkpt lat="43.90224" lon="1.89624">
        <ele>138.213501</ele>
        <time>2026-08-29T10:28:54Z</time>
      </trkpt>
      <trkpt lat="43.9022" lon="1.89627">
        <ele>138.237578</ele>
        <time>2026-08-29T10:28:55Z</time>
      </trkpt>
      <trkpt lat="43.90216" lon="1.8963">
        <ele>138.263572</ele>
        <time>2026-08-29T10:28:56Z</time>
      </trkpt>
      <trkpt lat="43.90212" lon="1.89633">
        <ele>138.289902</ele>
        <time>2026-08-29T10:28:57Z</time>
      </trkpt>
      <trkpt lat="43.90208" lon="1.89635">
        <ele>138.313599</ele>
        <time>2026-08-29T10:28:58Z</time>
      </trkpt>
      <trkpt lat="43.90204" lon="1.89637">
        <ele>138.334418</ele>
        <time>2026-08-29T10:28:59Z</time>
      </trkpt>
      <trkpt lat="43.902" lon="1.8964">
        <ele>138.357929</ele>
        <time>2026-08-29T10:29:00Z</time>
      </trkpt>
      <trkpt lat="43.90196" lon="1.89643">
        <ele>138.381047</ele>
        <time>2026-08-29T10:29:01Z</time>
      </trkpt>
      <trkpt lat="43.90193" lon="1.89645">
        <ele>138.386449</ele>
        <time>2026-08-29T10:29:02Z</time>
      </trkpt>
      <trkpt lat="43.90191" lon="1.89647">
        <ele>138.389844</ele>
        <time>2026-08-29T10:29:03Z</time>
      </trkpt>
      <trkpt lat="43.90191" lon="1.89649">
        <ele>138.391991</ele>
        <time>2026-08-29T10:29:04Z</time>
      </trkpt>
      <trkpt lat="43.90191" lon="1.89649">
        <ele>138.39275</ele>
        <time>2026-08-29T10:29:05Z</time>
      </trkpt>
      <trkpt lat="43.9019" lon="1.89652">
        <ele>138.395277</ele>
        <time>2026-08-29T10:29:06Z</time>
      </trkpt>
      <trkpt lat="43.90191" lon="1.89649">
        <ele>138.398249</ele>
        <time>2026-08-29T10:29:07Z</time>
      </trkpt>
      <trkpt lat="43.90173" lon="1.89667">
        <ele>138.431116</ele>
        <time>2026-08-29T10:29:13Z</time>
      </trkpt>
      <trkpt lat="43.90168" lon="1.89669">
        <ele>138.437882</ele>
        <time>2026-08-29T10:29:14Z</time>
      </trkpt>
      <trkpt lat="43.90165" lon="1.8967">
        <ele>138.443659</ele>
        <time>2026-08-29T10:29:15Z</time>
      </trkpt>
      <trkpt lat="43.90161" lon="1.89671">
        <ele>138.448587</ele>
        <time>2026-08-29T10:29:16Z</time>
      </trkpt>
      <trkpt lat="43.90158" lon="1.89672">
        <ele>138.453061</ele>
        <time>2026-08-29T10:29:17Z</time>
      </trkpt>
      <trkpt lat="43.90155" lon="1.89673">
        <ele>138.458047</ele>
        <time>2026-08-29T10:29:18Z</time>
      </trkpt>
      <trkpt lat="43.90152" lon="1.89674">
        <ele>138.462229</ele>
        <time>2026-08-29T10:29:19Z</time>
      </trkpt>
      <trkpt lat="43.9015" lon="1.89672">
        <ele>138.466339</ele>
        <time>2026-08-29T10:29:20Z</time>
      </trkpt>
      <trkpt lat="43.90148" lon="1.89669">
        <ele>138.47005</ele>
        <time>2026-08-29T10:29:21Z</time>
      </trkpt>
      <trkpt lat="43.90147" lon="1.89665">
        <ele>138.474757</ele>
        <time>2026-08-29T10:29:22Z</time>
      </trkpt>
      <trkpt lat="43.90145" lon="1.89661">
        <ele>138.480023</ele>
        <time>2026-08-29T10:29:23Z</time>
      </trkpt>
      <trkpt lat="43.90142" lon="1.89659">
        <ele>138.485444</ele>
        <time>2026-08-29T10:29:24Z</time>
      </trkpt>
      <trkpt lat="43.90138" lon="1.89658">
        <ele>138.491648</ele>
        <time>2026-08-29T10:29:25Z</time>
      </trkpt>
      <trkpt lat="43.90133" lon="1.89659">
        <ele>138.498067</ele>
        <time>2026-08-29T10:29:26Z</time>
      </trkpt>
      <trkpt lat="43.90129" lon="1.89661">
        <ele>138.504469</ele>
        <time>2026-08-29T10:29:27Z</time>
      </trkpt>
      <trkpt lat="43.90125" lon="1.89663">
        <ele>138.511174</ele>
        <time>2026-08-29T10:29:28Z</time>
      </trkpt>
      <trkpt lat="43.90121" lon="1.89666">
        <ele>138.517937</ele>
        <time>2026-08-29T10:29:29Z</time>
      </trkpt>
      <trkpt lat="43.90117" lon="1.89669">
        <ele>138.524443</ele>
        <time>2026-08-29T10:29:30Z</time>
      </trkpt>
      <trkpt lat="43.90113" lon="1.89673">
        <ele>138.531118</ele>
        <time>2026-08-29T10:29:31Z</time>
      </trkpt>
      <trkpt lat="43.9011" lon="1.89676">
        <ele>138.537571</ele>
        <time>2026-08-29T10:29:32Z</time>
      </trkpt>
      <trkpt lat="43.90106" lon="1.89678">
        <ele>138.543646</ele>
        <time>2026-08-29T10:29:33Z</time>
      </trkpt>
      <trkpt lat="43.90102" lon="1.89681">
        <ele>138.550177</ele>
        <time>2026-08-29T10:29:34Z</time>
      </trkpt>
      <trkpt lat="43.90098" lon="1.89684">
        <ele>138.55694</ele>
        <time>2026-08-29T10:29:35Z</time>
      </trkpt>
      <trkpt lat="43.90094" lon="1.89687">
        <ele>138.563685</ele>
        <time>2026-08-29T10:29:36Z</time>
      </trkpt>
      <trkpt lat="43.9009" lon="1.89689">
        <ele>138.570254</ele>
        <time>2026-08-29T10:29:37Z</time>
      </trkpt>
      <trkpt lat="43.90086" lon="1.89692">
        <ele>138.576114</ele>
        <time>2026-08-29T10:29:38Z</time>
      </trkpt>
      <trkpt lat="43.90083" lon="1.89694">
        <ele>138.581303</ele>
        <time>2026-08-29T10:29:39Z</time>
      </trkpt>
      <trkpt lat="43.9008" lon="1.89697">
        <ele>138.587294</ele>
        <time>2026-08-29T10:29:40Z</time>
      </trkpt>
      <trkpt lat="43.90077" lon="1.89699">
        <ele>138.592214</ele>
        <time>2026-08-29T10:29:41Z</time>
      </trkpt>
      <trkpt lat="43.90073" lon="1.897">
        <ele>138.597614</ele>
        <time>2026-08-29T10:29:42Z</time>
      </trkpt>
      <trkpt lat="43.90069" lon="1.897">
        <ele>138.602945</ele>
        <time>2026-08-29T10:29:43Z</time>
      </trkpt>
      <trkpt lat="43.90066" lon="1.89701">
        <ele>138.607476</ele>
        <time>2026-08-29T10:29:44Z</time>
      </trkpt>
      <trkpt lat="43.90063" lon="1.89702">
        <ele>138.612276</ele>
        <time>2026-08-29T10:29:45Z</time>
      </trkpt>
      <trkpt lat="43.9006" lon="1.89704">
        <ele>138.616877</ele>
        <time>2026-08-29T10:29:46Z</time>
      </trkpt>
      <trkpt lat="43.90058" lon="1.89705">
        <ele>138.621214</ele>
        <time>2026-08-29T10:29:47Z</time>
      </trkpt>
      <trkpt lat="43.90056" lon="1.89707">
        <ele>138.624915</ele>
        <time>2026-08-29T10:29:48Z</time>
      </trkpt>
      <trkpt lat="43.90054" lon="1.89709">
        <ele>138.627842</ele>
        <time>2026-08-29T10:29:49Z</time>
      </trkpt>
      <trkpt lat="43.90052" lon="1.89711">
        <ele>138.631299</ele>
        <time>2026-08-29T10:29:50Z</time>
      </trkpt>
      <trkpt lat="43.9005" lon="1.89712">
        <ele>138.634738</ele>
        <time>2026-08-29T10:29:51Z</time>
      </trkpt>
      <trkpt lat="43.90048" lon="1.89713">
        <ele>138.637356</ele>
        <time>2026-08-29T10:29:52Z</time>
      </trkpt>
      <trkpt lat="43.90047" lon="1.89714">
        <ele>138.63949</ele>
        <time>2026-08-29T10:29:53Z</time>
      </trkpt>
      <trkpt lat="43.90046" lon="1.89714">
        <ele>138.64129</ele>
        <time>2026-08-29T10:29:54Z</time>
      </trkpt>
      <trkpt lat="43.90045" lon="1.89714">
        <ele>138.643281</ele>
        <time>2026-08-29T10:29:55Z</time>
      </trkpt>
      <trkpt lat="43.90043" lon="1.89716">
        <ele>138.645837</ele>
        <time>2026-08-29T10:29:56Z</time>
      </trkpt>
      <trkpt lat="43.90041" lon="1.89718">
        <ele>138.650291</ele>
        <time>2026-08-29T10:29:57Z</time>
      </trkpt>
      <trkpt lat="43.9004" lon="1.8972">
        <ele>138.655034</ele>
        <time>2026-08-29T10:29:58Z</time>
      </trkpt>
      <trkpt lat="43.90039" lon="1.89723">
        <ele>138.659284</ele>
        <time>2026-08-29T10:29:59Z</time>
      </trkpt>
      <trkpt lat="43.90038" lon="1.89727">
        <ele>138.665397</ele>
        <time>2026-08-29T10:30:00Z</time>
      </trkpt>
      <trkpt lat="43.90038" lon="1.89731">
        <ele>138.671635</ele>
        <time>2026-08-29T10:30:01Z</time>
      </trkpt>
      <trkpt lat="43.90038" lon="1.89736">
        <ele>138.678191</ele>
        <time>2026-08-29T10:30:02Z</time>
      </trkpt>
      <trkpt lat="43.90038" lon="1.8974">
        <ele>138.68501</ele>
        <time>2026-08-29T10:30:03Z</time>
      </trkpt>
      <trkpt lat="43.90038" lon="1.89745">
        <ele>138.691759</ele>
        <time>2026-08-29T10:30:04Z</time>
      </trkpt>
      <trkpt lat="43.90037" lon="1.8975">
        <ele>138.699189</ele>
        <time>2026-08-29T10:30:05Z</time>
      </trkpt>
      <trkpt lat="43.90037" lon="1.89755">
        <ele>138.706369</ele>
        <time>2026-08-29T10:30:06Z</time>
      </trkpt>
      <trkpt lat="43.90036" lon="1.8976">
        <ele>138.713811</ele>
        <time>2026-08-29T10:30:07Z</time>
      </trkpt>
      <trkpt lat="43.90036" lon="1.89765">
        <ele>138.721221</ele>
        <time>2026-08-29T10:30:08Z</time>
      </trkpt>
      <trkpt lat="43.90036" lon="1.8977">
        <ele>138.728341</ele>
        <time>2026-08-29T10:30:09Z</time>
      </trkpt>
      <trkpt lat="43.90036" lon="1.89774">
        <ele>138.734292</ele>
        <time>2026-08-29T10:30:10Z</time>
      </trkpt>
      <trkpt lat="43.90037" lon="1.89776">
        <ele>138.739175</ele>
        <time>2026-08-29T10:30:11Z</time>
      </trkpt>
      <trkpt lat="43.90039" lon="1.89779">
        <ele>138.743416</ele>
        <time>2026-08-29T10:30:12Z</time>
      </trkpt>
      <trkpt lat="43.9004" lon="1.8978">
        <ele>138.746766</ele>
        <time>2026-08-29T10:30:13Z</time>
      </trkpt>
      <trkpt lat="43.90041" lon="1.89781">
        <ele>138.749146</ele>
        <time>2026-08-29T10:30:14Z</time>
      </trkpt>
      <trkpt lat="43.90042" lon="1.89781">
        <ele>138.751379</ele>
        <time>2026-08-29T10:30:15Z</time>
      </trkpt>
      <trkpt lat="43.90042" lon="1.89782">
        <ele>138.752472</ele>
        <time>2026-08-29T10:30:16Z</time>
      </trkpt>
      <trkpt lat="43.90043" lon="1.89773">
        <ele>138.766036</ele>
        <time>2026-08-29T11:17:41Z</time>
      </trkpt>
      <trkpt lat="43.90043" lon="1.8977">
        <ele>138.769973</ele>
        <time>2026-08-29T11:17:42Z</time>
      </trkpt>
      <trkpt lat="43.90042" lon="1.89767">
        <ele>138.77449</ele>
        <time>2026-08-29T11:17:43Z</time>
      </trkpt>
      <trkpt lat="43.90042" lon="1.89764">
        <ele>138.778534</ele>
        <time>2026-08-29T11:17:44Z</time>
      </trkpt>
      <trkpt lat="43.90041" lon="1.89761">
        <ele>138.783648</ele>
        <time>2026-08-29T11:17:45Z</time>
      </trkpt>
      <trkpt lat="43.90041" lon="1.89757">
        <ele>138.789482</ele>
        <time>2026-08-29T11:17:46Z</time>
      </trkpt>
      <trkpt lat="43.90041" lon="1.89752">
        <ele>138.796155</ele>
        <time>2026-08-29T11:17:47Z</time>
      </trkpt>
      <trkpt lat="43.90041" lon="1.89748">
        <ele>138.802407</ele>
        <time>2026-08-29T11:17:48Z</time>
      </trkpt>
      <trkpt lat="43.90041" lon="1.89743">
        <ele>138.809083</ele>
        <time>2026-08-29T11:17:49Z</time>
      </trkpt>
      <trkpt lat="43.90041" lon="1.89739">
        <ele>138.815085</ele>
        <time>2026-08-29T11:17:50Z</time>
      </trkpt>
      <trkpt lat="43.9004" lon="1.89736">
        <ele>138.819836</ele>
        <time>2026-08-29T11:17:51Z</time>
      </trkpt>
      <trkpt lat="43.9004" lon="1.89733">
        <ele>138.82423</ele>
        <time>2026-08-29T11:17:52Z</time>
      </trkpt>
      <trkpt lat="43.9004" lon="1.8973">
        <ele>138.828371</ele>
        <time>2026-08-29T11:17:53Z</time>
      </trkpt>
      <trkpt lat="43.90039" lon="1.89727">
        <ele>138.83369</ele>
        <time>2026-08-29T11:17:54Z</time>
      </trkpt>
      <trkpt lat="43.90039" lon="1.89723">
        <ele>138.839206</ele>
        <time>2026-08-29T11:17:55Z</time>
      </trkpt>
      <trkpt lat="43.9004" lon="1.89719">
        <ele>138.845276</ele>
        <time>2026-08-29T11:17:56Z</time>
      </trkpt>
      <trkpt lat="43.90041" lon="1.89714">
        <ele>138.852237</ele>
        <time>2026-08-29T11:17:57Z</time>
      </trkpt>
      <trkpt lat="43.90043" lon="1.89711">
        <ele>138.858481</ele>
        <time>2026-08-29T11:17:58Z</time>
      </trkpt>
      <trkpt lat="43.90045" lon="1.89709">
        <ele>138.863974</ele>
        <time>2026-08-29T11:17:59Z</time>
      </trkpt>
      <trkpt lat="43.90048" lon="1.89708">
        <ele>138.869479</ele>
        <time>2026-08-29T11:18:00Z</time>
      </trkpt>
      <trkpt lat="43.9005" lon="1.89708">
        <ele>138.874722</ele>
        <time>2026-08-29T11:18:01Z</time>
      </trkpt>
      <trkpt lat="43.90053" lon="1.89708">
        <ele>138.879353</ele>
        <time>2026-08-29T11:18:02Z</time>
      </trkpt>
      <trkpt lat="43.90055" lon="1.89708">
        <ele>138.884187</ele>
        <time>2026-08-29T11:18:03Z</time>
      </trkpt>
      <trkpt lat="43.90058" lon="1.89708">
        <ele>138.889039</ele>
        <time>2026-08-29T11:18:04Z</time>
      </trkpt>
      <trkpt lat="43.9006" lon="1.89708">
        <ele>138.894276</ele>
        <time>2026-08-29T11:18:05Z</time>
      </trkpt>
      <trkpt lat="43.90062" lon="1.89708">
        <ele>138.898526</ele>
        <time>2026-08-29T11:18:06Z</time>
      </trkpt>
      <trkpt lat="43.90064" lon="1.89708">
        <ele>138.902153</ele>
        <time>2026-08-29T11:18:07Z</time>
      </trkpt>
      <trkpt lat="43.90066" lon="1.89708">
        <ele>138.905378</ele>
        <time>2026-08-29T11:18:08Z</time>
      </trkpt>
      <trkpt lat="43.90068" lon="1.89708">
        <ele>138.910018</ele>
        <time>2026-08-29T11:18:09Z</time>
      </trkpt>
      <trkpt lat="43.90071" lon="1.89708">
        <ele>138.915702</ele>
        <time>2026-08-29T11:18:10Z</time>
      </trkpt>
      <trkpt lat="43.90074" lon="1.89709">
        <ele>138.921914</ele>
        <time>2026-08-29T11:18:11Z</time>
      </trkpt>
      <trkpt lat="43.90077" lon="1.8971">
        <ele>138.928518</ele>
        <time>2026-08-29T11:18:12Z</time>
      </trkpt>
      <trkpt lat="43.9008" lon="1.89711">
        <ele>138.934774</ele>
        <time>2026-08-29T11:18:13Z</time>
      </trkpt>
      <trkpt lat="43.90083" lon="1.89711">
        <ele>138.940213</ele>
        <time>2026-08-29T11:18:14Z</time>
      </trkpt>
      <trkpt lat="43.90085" lon="1.89711">
        <ele>138.945651</ele>
        <time>2026-08-29T11:18:15Z</time>
      </trkpt>
      <trkpt lat="43.90088" lon="1.8971">
        <ele>138.951046</ele>
        <time>2026-08-29T11:18:16Z</time>
      </trkpt>
      <trkpt lat="43.9009" lon="1.89708">
        <ele>138.956407</ele>
        <time>2026-08-29T11:18:17Z</time>
      </trkpt>
      <trkpt lat="43.90093" lon="1.89706">
        <ele>138.962392</ele>
        <time>2026-08-29T11:18:18Z</time>
      </trkpt>
      <trkpt lat="43.90096" lon="1.89704">
        <ele>138.968978</ele>
        <time>2026-08-29T11:18:19Z</time>
      </trkpt>
      <trkpt lat="43.90099" lon="1.89702">
        <ele>138.976044</ele>
        <time>2026-08-29T11:18:20Z</time>
      </trkpt>
      <trkpt lat="43.90102" lon="1.89699">
        <ele>138.983584</ele>
        <time>2026-08-29T11:18:21Z</time>
      </trkpt>
      <trkpt lat="43.90106" lon="1.89696">
        <ele>138.992285</ele>
        <time>2026-08-29T11:18:22Z</time>
      </trkpt>
      <trkpt lat="43.9011" lon="1.89693">
        <ele>139.000419</ele>
        <time>2026-08-29T11:18:23Z</time>
      </trkpt>
      <trkpt lat="43.90113" lon="1.89691">
        <ele>139.008145</ele>
        <time>2026-08-29T11:18:24Z</time>
      </trkpt>
      <trkpt lat="43.90116" lon="1.89689">
        <ele>139.00502</ele>
        <time>2026-08-29T11:18:25Z</time>
      </trkpt>
      <trkpt lat="43.90119" lon="1.89687">
        <ele>139.001483</ele>
        <time>2026-08-29T11:18:26Z</time>
      </trkpt>
      <trkpt lat="43.90123" lon="1.89685">
        <ele>138.997991</ele>
        <time>2026-08-29T11:18:27Z</time>
      </trkpt>
      <trkpt lat="43.90126" lon="1.89684">
        <ele>138.994767</ele>
        <time>2026-08-29T11:18:28Z</time>
      </trkpt>
      <trkpt lat="43.90129" lon="1.89682">
        <ele>138.991609</ele>
        <time>2026-08-29T11:18:29Z</time>
      </trkpt>
      <trkpt lat="43.90132" lon="1.8968">
        <ele>138.988373</ele>
        <time>2026-08-29T11:18:30Z</time>
      </trkpt>
      <trkpt lat="43.90135" lon="1.89677">
        <ele>138.984976</ele>
        <time>2026-08-29T11:18:31Z</time>
      </trkpt>
      <trkpt lat="43.90138" lon="1.89676">
        <ele>138.982093</ele>
        <time>2026-08-29T11:18:32Z</time>
      </trkpt>
      <trkpt lat="43.90141" lon="1.89677">
        <ele>138.979105</ele>
        <time>2026-08-29T11:18:33Z</time>
      </trkpt>
      <trkpt lat="43.90144" lon="1.89679">
        <ele>138.975805</ele>
        <time>2026-08-29T11:18:34Z</time>
      </trkpt>
      <trkpt lat="43.90147" lon="1.89681">
        <ele>138.973036</ele>
        <time>2026-08-29T11:18:35Z</time>
      </trkpt>
      <trkpt lat="43.90149" lon="1.89683">
        <ele>138.970828</ele>
        <time>2026-08-29T11:18:36Z</time>
      </trkpt>
      <trkpt lat="43.90151" lon="1.89683">
        <ele>138.968981</ele>
        <time>2026-08-29T11:18:37Z</time>
      </trkpt>
      <trkpt lat="43.90154" lon="1.89683">
        <ele>138.966518</ele>
        <time>2026-08-29T11:18:38Z</time>
      </trkpt>
      <trkpt lat="43.90156" lon="1.89682">
        <ele>138.963851</ele>
        <time>2026-08-29T11:18:39Z</time>
      </trkpt>
      <trkpt lat="43.90159" lon="1.89681">
        <ele>138.960927</ele>
        <time>2026-08-29T11:18:40Z</time>
      </trkpt>
      <trkpt lat="43.90162" lon="1.89679">
        <ele>138.958144</ele>
        <time>2026-08-29T11:18:41Z</time>
      </trkpt>
      <trkpt lat="43.90164" lon="1.89677">
        <ele>138.955758</ele>
        <time>2026-08-29T11:18:42Z</time>
      </trkpt>
      <trkpt lat="43.90166" lon="1.89676">
        <ele>138.953631</ele>
        <time>2026-08-29T11:18:43Z</time>
      </trkpt>
      <trkpt lat="43.90168" lon="1.89675">
        <ele>138.951907</ele>
        <time>2026-08-29T11:18:44Z</time>
      </trkpt>
      <trkpt lat="43.90169" lon="1.89675">
        <ele>138.950658</ele>
        <time>2026-08-29T11:18:45Z</time>
      </trkpt>
      <trkpt lat="43.90171" lon="1.89674">
        <ele>138.948978</ele>
        <time>2026-08-29T11:18:46Z</time>
      </trkpt>
      <trkpt lat="43.90172" lon="1.89674">
        <ele>138.947608</ele>
        <time>2026-08-29T11:18:47Z</time>
      </trkpt>
      <trkpt lat="43.90173" lon="1.89673">
        <ele>138.946329</ele>
        <time>2026-08-29T11:18:48Z</time>
      </trkpt>
      <trkpt lat="43.90176" lon="1.89674">
        <ele>138.944329</ele>
        <time>2026-08-29T11:18:51Z</time>
      </trkpt>
      <trkpt lat="43.90178" lon="1.8967">
        <ele>138.941358</ele>
        <time>2026-08-29T11:18:52Z</time>
      </trkpt>
      <trkpt lat="43.9018" lon="1.8967">
        <ele>138.938834</ele>
        <time>2026-08-29T11:18:53Z</time>
      </trkpt>
      <trkpt lat="43.90184" lon="1.89668">
        <ele>138.935509</ele>
        <time>2026-08-29T11:18:54Z</time>
      </trkpt>
      <trkpt lat="43.90186" lon="1.89667">
        <ele>138.933558</ele>
        <time>2026-08-29T11:18:55Z</time>
      </trkpt>
      <trkpt lat="43.90188" lon="1.89665">
        <ele>138.930481</ele>
        <time>2026-08-29T11:18:56Z</time>
      </trkpt>
      <trkpt lat="43.9019" lon="1.89662">
        <ele>138.927975</ele>
        <time>2026-08-29T11:18:57Z</time>
      </trkpt>
      <trkpt lat="43.90193" lon="1.89659">
        <ele>138.924752</ele>
        <time>2026-08-29T11:18:58Z</time>
      </trkpt>
      <trkpt lat="43.90196" lon="1.89655">
        <ele>138.920845</ele>
        <time>2026-08-29T11:18:59Z</time>
      </trkpt>
      <trkpt lat="43.90198" lon="1.89651">
        <ele>138.917066</ele>
        <time>2026-08-29T11:19:00Z</time>
      </trkpt>
      <trkpt lat="43.90202" lon="1.89647">
        <ele>138.912864</ele>
        <time>2026-08-29T11:19:01Z</time>
      </trkpt>
      <trkpt lat="43.90205" lon="1.89642">
        <ele>138.90848</ele>
        <time>2026-08-29T11:19:02Z</time>
      </trkpt>
      <trkpt lat="43.90208" lon="1.89638">
        <ele>138.904533</ele>
        <time>2026-08-29T11:19:03Z</time>
      </trkpt>
      <trkpt lat="43.90212" lon="1.89635">
        <ele>138.900134</ele>
        <time>2026-08-29T11:19:04Z</time>
      </trkpt>
      <trkpt lat="43.90216" lon="1.89631">
        <ele>138.895491</ele>
        <time>2026-08-29T11:19:05Z</time>
      </trkpt>
      <trkpt lat="43.9022" lon="1.89628">
        <ele>138.891395</ele>
        <time>2026-08-29T11:19:06Z</time>
      </trkpt>
      <trkpt lat="43.90224" lon="1.89625">
        <ele>138.886986</ele>
        <time>2026-08-29T11:19:07Z</time>
      </trkpt>
      <trkpt lat="43.90227" lon="1.89622">
        <ele>138.883287</ele>
        <time>2026-08-29T11:19:08Z</time>
      </trkpt>
      <trkpt lat="43.90231" lon="1.89619">
        <ele>138.879242</ele>
        <time>2026-08-29T11:19:09Z</time>
      </trkpt>
      <trkpt lat="43.90234" lon="1.89617">
        <ele>138.875627</ele>
        <time>2026-08-29T11:19:10Z</time>
      </trkpt>
      <trkpt lat="43.90237" lon="1.89614">
        <ele>138.872212</ele>
        <time>2026-08-29T11:19:11Z</time>
      </trkpt>
      <trkpt lat="43.9024" lon="1.89612">
        <ele>138.869001</ele>
        <time>2026-08-29T11:19:12Z</time>
      </trkpt>
      <trkpt lat="43.90244" lon="1.89611">
        <ele>138.8656</ele>
        <time>2026-08-29T11:19:13Z</time>
      </trkpt>
      <trkpt lat="43.90247" lon="1.89609">
        <ele>138.862185</ele>
        <time>2026-08-29T11:19:14Z</time>
      </trkpt>
      <trkpt lat="43.9025" lon="1.89607">
        <ele>138.858973</ele>
        <time>2026-08-29T11:19:15Z</time>
      </trkpt>
      <trkpt lat="43.90253" lon="1.89605">
        <ele>138.855848</ele>
        <time>2026-08-29T11:19:16Z</time>
      </trkpt>
      <trkpt lat="43.90256" lon="1.89603">
        <ele>138.852517</ele>
        <time>2026-08-29T11:19:17Z</time>
      </trkpt>
      <trkpt lat="43.9026" lon="1.896">
        <ele>138.848805</ele>
        <time>2026-08-29T11:19:18Z</time>
      </trkpt>
      <trkpt lat="43.90263" lon="1.89598">
        <ele>138.845565</ele>
        <time>2026-08-29T11:19:19Z</time>
      </trkpt>
      <trkpt lat="43.90266" lon="1.89596">
        <ele>138.841771</ele>
        <time>2026-08-29T11:19:20Z</time>
      </trkpt>
      <trkpt lat="43.9027" lon="1.89592">
        <ele>138.837994</ele>
        <time>2026-08-29T11:19:21Z</time>
      </trkpt>
      <trkpt lat="43.90273" lon="1.89589">
        <ele>138.816042</ele>
        <time>2026-08-29T11:19:22Z</time>
      </trkpt>
      <trkpt lat="43.90277" lon="1.89586">
        <ele>138.793351</ele>
        <time>2026-08-29T11:19:23Z</time>
      </trkpt>
      <trkpt lat="43.9028" lon="1.89583">
        <ele>138.770418</ele>
        <time>2026-08-29T11:19:24Z</time>
      </trkpt>
      <trkpt lat="43.90284" lon="1.8958">
        <ele>138.744183</ele>
        <time>2026-08-29T11:19:25Z</time>
      </trkpt>
      <trkpt lat="43.90289" lon="1.89577">
        <ele>138.717776</ele>
        <time>2026-08-29T11:19:26Z</time>
      </trkpt>
      <trkpt lat="43.90293" lon="1.89575">
        <ele>138.691869</ele>
        <time>2026-08-29T11:19:27Z</time>
      </trkpt>
      <trkpt lat="43.90297" lon="1.89572">
        <ele>138.66663</ele>
        <time>2026-08-29T11:19:28Z</time>
      </trkpt>
      <trkpt lat="43.90302" lon="1.89569">
        <ele>138.637871</ele>
        <time>2026-08-29T11:19:29Z</time>
      </trkpt>
      <trkpt lat="43.90307" lon="1.89567">
        <ele>138.609237</ele>
        <time>2026-08-29T11:19:30Z</time>
      </trkpt>
      <trkpt lat="43.90312" lon="1.89567">
        <ele>138.581548</ele>
        <time>2026-08-29T11:19:31Z</time>
      </trkpt>
      <trkpt lat="43.90317" lon="1.89567">
        <ele>138.554471</ele>
        <time>2026-08-29T11:19:32Z</time>
      </trkpt>
      <trkpt lat="43.90322" lon="1.89568">
        <ele>138.5276</ele>
        <time>2026-08-29T11:19:33Z</time>
      </trkpt>
      <trkpt lat="43.90326" lon="1.8957">
        <ele>138.503543</ele>
        <time>2026-08-29T11:19:34Z</time>
      </trkpt>
      <trkpt lat="43.9033" lon="1.89571">
        <ele>138.480124</ele>
        <time>2026-08-29T11:19:35Z</time>
      </trkpt>
      <trkpt lat="43.90334" lon="1.89572">
        <ele>138.454735</ele>
        <time>2026-08-29T11:19:36Z</time>
      </trkpt>
      <trkpt lat="43.90339" lon="1.89573">
        <ele>138.430108</ele>
        <time>2026-08-29T11:19:37Z</time>
      </trkpt>
      <trkpt lat="43.90343" lon="1.89573">
        <ele>138.406344</ele>
        <time>2026-08-29T11:19:38Z</time>
      </trkpt>
      <trkpt lat="43.90347" lon="1.89572">
        <ele>138.381949</ele>
        <time>2026-08-29T11:19:39Z</time>
      </trkpt>
      <trkpt lat="43.90351" lon="1.8957">
        <ele>138.358955</ele>
        <time>2026-08-29T11:19:40Z</time>
      </trkpt>
      <trkpt lat="43.90356" lon="1.89569">
        <ele>138.334445</ele>
        <time>2026-08-29T11:19:41Z</time>
      </trkpt>
      <trkpt lat="43.9036" lon="1.89569">
        <ele>138.31064</ele>
        <time>2026-08-29T11:19:42Z</time>
      </trkpt>
      <trkpt lat="43.90365" lon="1.89569">
        <ele>138.285233</ele>
        <time>2026-08-29T11:19:43Z</time>
      </trkpt>
      <trkpt lat="43.90369" lon="1.8957">
        <ele>138.26012</ele>
        <time>2026-08-29T11:19:44Z</time>
      </trkpt>
      <trkpt lat="43.90373" lon="1.89571">
        <ele>138.236207</ele>
        <time>2026-08-29T11:19:45Z</time>
      </trkpt>
      <trkpt lat="43.90378" lon="1.89571">
        <ele>138.211322</ele>
        <time>2026-08-29T11:19:46Z</time>
      </trkpt>
      <trkpt lat="43.90382" lon="1.89572">
        <ele>138.186757</ele>
        <time>2026-08-29T11:19:47Z</time>
      </trkpt>
      <trkpt lat="43.90387" lon="1.89573">
        <ele>138.161446</ele>
        <time>2026-08-29T11:19:48Z</time>
      </trkpt>
      <trkpt lat="43.90391" lon="1.89574">
        <ele>138.138125</ele>
        <time>2026-08-29T11:19:49Z</time>
      </trkpt>
      <trkpt lat="43.90395" lon="1.89575">
        <ele>138.115743</ele>
        <time>2026-08-29T11:19:50Z</time>
      </trkpt>
      <trkpt lat="43.90399" lon="1.89577">
        <ele>138.090809</ele>
        <time>2026-08-29T11:19:51Z</time>
      </trkpt>
      <trkpt lat="43.90403" lon="1.89578">
        <ele>138.067816</ele>
        <time>2026-08-29T11:19:52Z</time>
      </trkpt>
      <trkpt lat="43.90407" lon="1.8958">
        <ele>138.044709</ele>
        <time>2026-08-29T11:19:53Z</time>
      </trkpt>
      <trkpt lat="43.90411" lon="1.89582">
        <ele>138.020834</ele>
        <time>2026-08-29T11:19:54Z</time>
      </trkpt>
      <trkpt lat="43.90415" lon="1.89583">
        <ele>137.997841</ele>
        <time>2026-08-29T11:19:55Z</time>
      </trkpt>
      <trkpt lat="43.90419" lon="1.89585">
        <ele>137.975488</ele>
        <time>2026-08-29T11:19:56Z</time>
      </trkpt>
      <trkpt lat="43.90423" lon="1.89587">
        <ele>137.952262</ele>
        <time>2026-08-29T11:19:57Z</time>
      </trkpt>
      <trkpt lat="43.90427" lon="1.89588">
        <ele>137.930108</ele>
        <time>2026-08-29T11:19:58Z</time>
      </trkpt>
      <trkpt lat="43.90431" lon="1.89589">
        <ele>137.909359</ele>
        <time>2026-08-29T11:19:59Z</time>
      </trkpt>
      <trkpt lat="43.90434" lon="1.8959">
        <ele>137.89115</ele>
        <time>2026-08-29T11:20:00Z</time>
      </trkpt>
      <trkpt lat="43.90438" lon="1.89591">
        <ele>137.871413</ele>
        <time>2026-08-29T11:20:01Z</time>
      </trkpt>
      <trkpt lat="43.90441" lon="1.89592">
        <ele>137.8514</ele>
        <time>2026-08-29T11:20:02Z</time>
      </trkpt>
      <trkpt lat="43.90445" lon="1.89593">
        <ele>137.855143</ele>
        <time>2026-08-29T11:20:03Z</time>
      </trkpt>
      <trkpt lat="43.90449" lon="1.89593">
        <ele>137.871064</ele>
        <time>2026-08-29T11:20:04Z</time>
      </trkpt>
      <trkpt lat="43.90453" lon="1.89593">
        <ele>137.8866</ele>
        <time>2026-08-29T11:20:05Z</time>
      </trkpt>
      <trkpt lat="43.90457" lon="1.89593">
        <ele>137.90211</ele>
        <time>2026-08-29T11:20:06Z</time>
      </trkpt>
      <trkpt lat="43.9046" lon="1.89593">
        <ele>137.916851</ele>
        <time>2026-08-29T11:20:07Z</time>
      </trkpt>
      <trkpt lat="43.90464" lon="1.89595">
        <ele>137.93117</ele>
        <time>2026-08-29T11:20:08Z</time>
      </trkpt>
      <trkpt lat="43.90467" lon="1.89596">
        <ele>137.945356</ele>
        <time>2026-08-29T11:20:09Z</time>
      </trkpt>
      <trkpt lat="43.9047" lon="1.89597">
        <ele>137.958744</ele>
        <time>2026-08-29T11:20:10Z</time>
      </trkpt>
      <trkpt lat="43.90474" lon="1.89597">
        <ele>137.973464</ele>
        <time>2026-08-29T11:20:11Z</time>
      </trkpt>
      <trkpt lat="43.90477" lon="1.89598">
        <ele>137.987453</ele>
        <time>2026-08-29T11:20:12Z</time>
      </trkpt>
      <trkpt lat="43.9048" lon="1.89598">
        <ele>138.00118</ele>
        <time>2026-08-29T11:20:13Z</time>
      </trkpt>
      <trkpt lat="43.90484" lon="1.89599">
        <ele>138.016566</ele>
        <time>2026-08-29T11:20:14Z</time>
      </trkpt>
      <trkpt lat="43.90489" lon="1.89599">
        <ele>138.034525</ele>
        <time>2026-08-29T11:20:15Z</time>
      </trkpt>
      <trkpt lat="43.90492" lon="1.89598">
        <ele>138.051396</ele>
        <time>2026-08-29T11:20:16Z</time>
      </trkpt>
      <trkpt lat="43.90496" lon="1.89595">
        <ele>138.068808</ele>
        <time>2026-08-29T11:20:17Z</time>
      </trkpt>
      <trkpt lat="43.905" lon="1.89592">
        <ele>138.087105</ele>
        <time>2026-08-29T11:20:18Z</time>
      </trkpt>
      <trkpt lat="43.90503" lon="1.89588">
        <ele>138.104236</ele>
        <time>2026-08-29T11:20:19Z</time>
      </trkpt>
      <trkpt lat="43.90507" lon="1.89585">
        <ele>138.121846</ele>
        <time>2026-08-29T11:20:20Z</time>
      </trkpt>
      <trkpt lat="43.90511" lon="1.89582">
        <ele>138.138985</ele>
        <time>2026-08-29T11:20:21Z</time>
      </trkpt>
      <trkpt lat="43.90514" lon="1.89579">
        <ele>138.155329</ele>
        <time>2026-08-29T11:20:22Z</time>
      </trkpt>
      <trkpt lat="43.90517" lon="1.89577">
        <ele>138.169676</ele>
        <time>2026-08-29T11:20:23Z</time>
      </trkpt>
      <trkpt lat="43.9052" lon="1.89575">
        <ele>138.182691</ele>
        <time>2026-08-29T11:20:24Z</time>
      </trkpt>
      <trkpt lat="43.90523" lon="1.89575">
        <ele>138.195348</ele>
        <time>2026-08-29T11:20:25Z</time>
      </trkpt>
      <trkpt lat="43.90527" lon="1.89576">
        <ele>138.209533</ele>
        <time>2026-08-29T11:20:26Z</time>
      </trkpt>
      <trkpt lat="43.9053" lon="1.89578">
        <ele>138.225112</ele>
        <time>2026-08-29T11:20:27Z</time>
      </trkpt>
      <trkpt lat="43.90534" lon="1.89579">
        <ele>138.24093</ele>
        <time>2026-08-29T11:20:28Z</time>
      </trkpt>
      <trkpt lat="43.90538" lon="1.89581">
        <ele>138.258573</ele>
        <time>2026-08-29T11:20:29Z</time>
      </trkpt>
      <trkpt lat="43.90543" lon="1.89583">
        <ele>138.277138</ele>
        <time>2026-08-29T11:20:30Z</time>
      </trkpt>
      <trkpt lat="43.90547" lon="1.89585">
        <ele>138.296645</ele>
        <time>2026-08-29T11:20:31Z</time>
      </trkpt>
      <trkpt lat="43.90552" lon="1.89586">
        <ele>138.314977</ele>
        <time>2026-08-29T11:20:32Z</time>
      </trkpt>
      <trkpt lat="43.90556" lon="1.89588">
        <ele>138.33262</ele>
        <time>2026-08-29T11:20:33Z</time>
      </trkpt>
      <trkpt lat="43.9056" lon="1.8959">
        <ele>138.350004</ele>
        <time>2026-08-29T11:20:34Z</time>
      </trkpt>
      <trkpt lat="43.90564" lon="1.89592">
        <ele>138.366689</ele>
        <time>2026-08-29T11:20:35Z</time>
      </trkpt>
      <trkpt lat="43.90567" lon="1.89593">
        <ele>138.38203</ele>
        <time>2026-08-29T11:20:36Z</time>
      </trkpt>
      <trkpt lat="43.90571" lon="1.89594">
        <ele>138.39628</ele>
        <time>2026-08-29T11:20:37Z</time>
      </trkpt>
      <trkpt lat="43.90574" lon="1.89595">
        <ele>138.410865</ele>
        <time>2026-08-29T11:20:38Z</time>
      </trkpt>
      <trkpt lat="43.90578" lon="1.89596">
        <ele>138.425977</ele>
        <time>2026-08-29T11:20:39Z</time>
      </trkpt>
      <trkpt lat="43.90581" lon="1.89597">
        <ele>138.440907</ele>
        <time>2026-08-29T11:20:40Z</time>
      </trkpt>
      <trkpt lat="43.90585" lon="1.89598">
        <ele>138.455892</ele>
        <time>2026-08-29T11:20:41Z</time>
      </trkpt>
      <trkpt lat="43.90589" lon="1.896">
        <ele>138.471234</ele>
        <time>2026-08-29T11:20:42Z</time>
      </trkpt>
      <trkpt lat="43.90592" lon="1.89601">
        <ele>138.485819</ele>
        <time>2026-08-29T11:20:43Z</time>
      </trkpt>
      <trkpt lat="43.90596" lon="1.89602">
        <ele>138.500954</ele>
        <time>2026-08-29T11:20:44Z</time>
      </trkpt>
      <trkpt lat="43.90599" lon="1.89604">
        <ele>138.516066</ele>
        <time>2026-08-29T11:20:45Z</time>
      </trkpt>
      <trkpt lat="43.90603" lon="1.89605">
        <ele>138.530651</ele>
        <time>2026-08-29T11:20:46Z</time>
      </trkpt>
      <trkpt lat="43.90606" lon="1.89606">
        <ele>138.54623</ele>
        <time>2026-08-29T11:20:47Z</time>
      </trkpt>
      <trkpt lat="43.9061" lon="1.89608">
        <ele>138.562438</ele>
        <time>2026-08-29T11:20:48Z</time>
      </trkpt>
      <trkpt lat="43.90614" lon="1.8961">
        <ele>138.577371</ele>
        <time>2026-08-29T11:20:49Z</time>
      </trkpt>
      <trkpt lat="43.90618" lon="1.89612">
        <ele>138.552881</ele>
        <time>2026-08-29T11:20:50Z</time>
      </trkpt>
      <trkpt lat="43.90621" lon="1.89615">
        <ele>138.527158</ele>
        <time>2026-08-29T11:20:51Z</time>
      </trkpt>
      <trkpt lat="43.90625" lon="1.89619">
        <ele>138.498524</ele>
        <time>2026-08-29T11:20:52Z</time>
      </trkpt>
      <trkpt lat="43.90629" lon="1.89623">
        <ele>138.471078</ele>
        <time>2026-08-29T11:20:53Z</time>
      </trkpt>
      <trkpt lat="43.90632" lon="1.89628">
        <ele>138.442294</ele>
        <time>2026-08-29T11:20:54Z</time>
      </trkpt>
      <trkpt lat="43.90635" lon="1.89633">
        <ele>138.416394</ele>
        <time>2026-08-29T11:20:55Z</time>
      </trkpt>
      <trkpt lat="43.90637" lon="1.89638">
        <ele>138.389803</ele>
        <time>2026-08-29T11:20:56Z</time>
      </trkpt>
      <trkpt lat="43.9064" lon="1.89643">
        <ele>138.363834</ele>
        <time>2026-08-29T11:20:57Z</time>
      </trkpt>
      <trkpt lat="43.90643" lon="1.89649">
        <ele>138.334826</ele>
        <time>2026-08-29T11:20:58Z</time>
      </trkpt>
      <trkpt lat="43.90645" lon="1.89655">
        <ele>138.306424</ele>
        <time>2026-08-29T11:20:59Z</time>
      </trkpt>
      <trkpt lat="43.90647" lon="1.8966">
        <ele>138.279726</ele>
        <time>2026-08-29T11:21:00Z</time>
      </trkpt>
      <trkpt lat="43.9065" lon="1.89666">
        <ele>138.252291</ele>
        <time>2026-08-29T11:21:01Z</time>
      </trkpt>
      <trkpt lat="43.90653" lon="1.89671">
        <ele>138.223974</ele>
        <time>2026-08-29T11:21:02Z</time>
      </trkpt>
      <trkpt lat="43.90655" lon="1.89676">
        <ele>138.196655</ele>
        <time>2026-08-29T11:21:03Z</time>
      </trkpt>
      <trkpt lat="43.90659" lon="1.89681">
        <ele>138.169027</ele>
        <time>2026-08-29T11:21:04Z</time>
      </trkpt>
      <trkpt lat="43.90662" lon="1.89686">
        <ele>138.13964</ele>
        <time>2026-08-29T11:21:05Z</time>
      </trkpt>
      <trkpt lat="43.90665" lon="1.89691">
        <ele>138.110273</ele>
        <time>2026-08-29T11:21:06Z</time>
      </trkpt>
      <trkpt lat="43.90669" lon="1.89695">
        <ele>138.081577</ele>
        <time>2026-08-29T11:21:07Z</time>
      </trkpt>
      <trkpt lat="43.90673" lon="1.89699">
        <ele>138.054142</ele>
        <time>2026-08-29T11:21:08Z</time>
      </trkpt>
      <trkpt lat="43.90677" lon="1.89702">
        <ele>138.025203</ele>
        <time>2026-08-29T11:21:09Z</time>
      </trkpt>
      <trkpt lat="43.90681" lon="1.89705">
        <ele>137.998036</ele>
        <time>2026-08-29T11:21:10Z</time>
      </trkpt>
      <trkpt lat="43.90685" lon="1.89707">
        <ele>137.972619</ele>
        <time>2026-08-29T11:21:11Z</time>
      </trkpt>
      <trkpt lat="43.90689" lon="1.8971">
        <ele>137.946482</ele>
        <time>2026-08-29T11:21:12Z</time>
      </trkpt>
      <trkpt lat="43.90693" lon="1.89713">
        <ele>137.922618</ele>
        <time>2026-08-29T11:21:13Z</time>
      </trkpt>
      <trkpt lat="43.90697" lon="1.89715">
        <ele>137.897776</ele>
        <time>2026-08-29T11:21:14Z</time>
      </trkpt>
      <trkpt lat="43.907" lon="1.89718">
        <ele>137.873603</ele>
        <time>2026-08-29T11:21:15Z</time>
      </trkpt>
      <trkpt lat="43.90704" lon="1.8972">
        <ele>137.84928</ele>
        <time>2026-08-29T11:21:16Z</time>
      </trkpt>
      <trkpt lat="43.90708" lon="1.89723">
        <ele>137.82294</ele>
        <time>2026-08-29T11:21:17Z</time>
      </trkpt>
      <trkpt lat="43.90712" lon="1.89726">
        <ele>137.796391</ele>
        <time>2026-08-29T11:21:18Z</time>
      </trkpt>
      <trkpt lat="43.90716" lon="1.89729">
        <ele>137.767767</ele>
        <time>2026-08-29T11:21:19Z</time>
      </trkpt>
      <trkpt lat="43.9072" lon="1.89733">
        <ele>137.740059</ele>
        <time>2026-08-29T11:21:20Z</time>
      </trkpt>
      <trkpt lat="43.90724" lon="1.89736">
        <ele>137.710611</ele>
        <time>2026-08-29T11:21:21Z</time>
      </trkpt>
      <trkpt lat="43.90729" lon="1.8974">
        <ele>137.680724</ele>
        <time>2026-08-29T11:21:22Z</time>
      </trkpt>
      <trkpt lat="43.90733" lon="1.89744">
        <ele>137.651601</ele>
        <time>2026-08-29T11:21:23Z</time>
      </trkpt>
      <trkpt lat="43.90737" lon="1.89748">
        <ele>137.621996</ele>
        <time>2026-08-29T11:21:24Z</time>
      </trkpt>
      <trkpt lat="43.9074" lon="1.89752">
        <ele>137.5941</ele>
        <time>2026-08-29T11:21:25Z</time>
      </trkpt>
      <trkpt lat="43.90744" lon="1.89757">
        <ele>137.566578</ele>
        <time>2026-08-29T11:21:26Z</time>
      </trkpt>
      <trkpt lat="43.90747" lon="1.89762">
        <ele>137.538114</ele>
        <time>2026-08-29T11:21:27Z</time>
      </trkpt>
      <trkpt lat="43.9075" lon="1.89767">
        <ele>137.510943</ele>
        <time>2026-08-29T11:21:28Z</time>
      </trkpt>
      <trkpt lat="43.90754" lon="1.89772">
        <ele>137.492173</ele>
        <time>2026-08-29T11:21:29Z</time>
      </trkpt>
      <trkpt lat="43.90757" lon="1.89777">
        <ele>137.474418</ele>
        <time>2026-08-29T11:21:30Z</time>
      </trkpt>
      <trkpt lat="43.90761" lon="1.89782">
        <ele>137.455896</ele>
        <time>2026-08-29T11:21:31Z</time>
      </trkpt>
      <trkpt lat="43.90764" lon="1.89788">
        <ele>137.436377</ele>
        <time>2026-08-29T11:21:32Z</time>
      </trkpt>
      <trkpt lat="43.90767" lon="1.89794">
        <ele>137.416815</ele>
        <time>2026-08-29T11:21:33Z</time>
      </trkpt>
      <trkpt lat="43.90768" lon="1.89801">
        <ele>137.397805</ele>
        <time>2026-08-29T11:21:34Z</time>
      </trkpt>
      <trkpt lat="43.90769" lon="1.89808">
        <ele>137.378687</ele>
        <time>2026-08-29T11:21:35Z</time>
      </trkpt>
      <trkpt lat="43.90768" lon="1.89815">
        <ele>137.360428</ele>
        <time>2026-08-29T11:21:36Z</time>
      </trkpt>
      <trkpt lat="43.90769" lon="1.89822">
        <ele>137.341907</ele>
        <time>2026-08-29T11:21:37Z</time>
      </trkpt>
      <trkpt lat="43.90771" lon="1.89829">
        <ele>137.324031</ele>
        <time>2026-08-29T11:21:38Z</time>
      </trkpt>
      <trkpt lat="43.90773" lon="1.89834">
        <ele>137.307118</ele>
        <time>2026-08-29T11:21:39Z</time>
      </trkpt>
      <trkpt lat="43.90776" lon="1.89839">
        <ele>137.28908</ele>
        <time>2026-08-29T11:21:40Z</time>
      </trkpt>
      <trkpt lat="43.9078" lon="1.89844">
        <ele>137.271251</ele>
        <time>2026-08-29T11:21:41Z</time>
      </trkpt>
      <trkpt lat="43.90784" lon="1.89848">
        <ele>137.253046</ele>
        <time>2026-08-29T11:21:42Z</time>
      </trkpt>
      <trkpt lat="43.90788" lon="1.8985">
        <ele>137.235146</ele>
        <time>2026-08-29T11:21:43Z</time>
      </trkpt>
      <trkpt lat="43.90793" lon="1.8985">
        <ele>137.216793</ele>
        <time>2026-08-29T11:21:44Z</time>
      </trkpt>
      <trkpt lat="43.90798" lon="1.89846">
        <ele>137.199253</ele>
        <time>2026-08-29T11:21:45Z</time>
      </trkpt>
      <trkpt lat="43.90802" lon="1.89844">
        <ele>137.183177</ele>
        <time>2026-08-29T11:21:46Z</time>
      </trkpt>
      <trkpt lat="43.90806" lon="1.89841">
        <ele>137.166341</ele>
        <time>2026-08-29T11:21:47Z</time>
      </trkpt>
      <trkpt lat="43.9081" lon="1.89839">
        <ele>137.151462</ele>
        <time>2026-08-29T11:21:48Z</time>
      </trkpt>
      <trkpt lat="43.90812" lon="1.89836">
        <ele>137.138564</ele>
        <time>2026-08-29T11:21:49Z</time>
      </trkpt>
      <trkpt lat="43.90815" lon="1.89833">
        <ele>137.127418</ele>
        <time>2026-08-29T11:21:50Z</time>
      </trkpt>
      <trkpt lat="43.90817" lon="1.89833">
        <ele>137.117163</ele>
        <time>2026-08-29T11:21:51Z</time>
      </trkpt>
      <trkpt lat="43.9082" lon="1.89835">
        <ele>137.106326</ele>
        <time>2026-08-29T11:21:52Z</time>
      </trkpt>
      <trkpt lat="43.90822" lon="1.89839">
        <ele>137.093875</ele>
        <time>2026-08-29T11:21:53Z</time>
      </trkpt>
      <trkpt lat="43.90824" lon="1.89843">
        <ele>137.080794</ele>
        <time>2026-08-29T11:21:54Z</time>
      </trkpt>
      <trkpt lat="43.90826" lon="1.89847">
        <ele>137.067904</ele>
        <time>2026-08-29T11:21:55Z</time>
      </trkpt>
      <trkpt lat="43.90828" lon="1.89851">
        <ele>137.055688</ele>
        <time>2026-08-29T11:21:56Z</time>
      </trkpt>
      <trkpt lat="43.9083" lon="1.89856">
        <ele>137.042188</ele>
        <time>2026-08-29T11:21:57Z</time>
      </trkpt>
      <trkpt lat="43.90832" lon="1.8986">
        <ele>137.027207</ele>
        <time>2026-08-29T11:21:58Z</time>
      </trkpt>
      <trkpt lat="43.90834" lon="1.89865">
        <ele>137.012633</ele>
        <time>2026-08-29T11:21:59Z</time>
      </trkpt>
      <trkpt lat="43.90837" lon="1.89869">
        <ele>136.997345</ele>
        <time>2026-08-29T11:22:00Z</time>
      </trkpt>
      <trkpt lat="43.9084" lon="1.89873">
        <ele>136.982498</ele>
        <time>2026-08-29T11:22:01Z</time>
      </trkpt>
      <trkpt lat="43.90842" lon="1.89877">
        <ele>136.968583</ele>
        <time>2026-08-29T11:22:02Z</time>
      </trkpt>
      <trkpt lat="43.90844" lon="1.89881">
        <ele>136.956171</ele>
        <time>2026-08-29T11:22:03Z</time>
      </trkpt>
      <trkpt lat="43.90847" lon="1.89885">
        <ele>136.941614</ele>
        <time>2026-08-29T11:22:04Z</time>
      </trkpt>
      <trkpt lat="43.90849" lon="1.8989">
        <ele>136.926834</ele>
        <time>2026-08-29T11:22:05Z</time>
      </trkpt>
      <trkpt lat="43.90852" lon="1.89893">
        <ele>136.913127</ele>
        <time>2026-08-29T11:22:06Z</time>
      </trkpt>
      <trkpt lat="43.90854" lon="1.89898">
        <ele>136.897912</ele>
        <time>2026-08-29T11:22:07Z</time>
      </trkpt>
      <trkpt lat="43.90857" lon="1.89902">
        <ele>136.883202</ele>
        <time>2026-08-29T11:22:08Z</time>
      </trkpt>
      <trkpt lat="43.9086" lon="1.89905">
        <ele>136.869211</ele>
        <time>2026-08-29T11:22:09Z</time>
      </trkpt>
      <trkpt lat="43.90864" lon="1.89908">
        <ele>136.867801</ele>
        <time>2026-08-29T11:22:10Z</time>
      </trkpt>
      <trkpt lat="43.90868" lon="1.8991">
        <ele>136.919631</ele>
        <time>2026-08-29T11:22:11Z</time>
      </trkpt>
      <trkpt lat="43.90872" lon="1.89912">
        <ele>136.970639</ele>
        <time>2026-08-29T11:22:12Z</time>
      </trkpt>
      <trkpt lat="43.90876" lon="1.89913">
        <ele>137.018836</ele>
        <time>2026-08-29T11:22:13Z</time>
      </trkpt>
      <trkpt lat="43.9088" lon="1.89914">
        <ele>137.068211</ele>
        <time>2026-08-29T11:22:14Z</time>
      </trkpt>
      <trkpt lat="43.90884" lon="1.89916">
        <ele>137.120326</ele>
        <time>2026-08-29T11:22:15Z</time>
      </trkpt>
      <trkpt lat="43.90888" lon="1.89917">
        <ele>137.171483</ele>
        <time>2026-08-29T11:22:16Z</time>
      </trkpt>
      <trkpt lat="43.90892" lon="1.89919">
        <ele>137.224268</ele>
        <time>2026-08-29T11:22:17Z</time>
      </trkpt>
      <trkpt lat="43.90896" lon="1.8992">
        <ele>137.274259</ele>
        <time>2026-08-29T11:22:18Z</time>
      </trkpt>
      <trkpt lat="43.909" lon="1.89922">
        <ele>137.325887</ele>
        <time>2026-08-29T11:22:19Z</time>
      </trkpt>
      <trkpt lat="43.90905" lon="1.89924">
        <ele>137.378211</ele>
        <time>2026-08-29T11:22:20Z</time>
      </trkpt>
      <trkpt lat="43.90909" lon="1.89925">
        <ele>137.436209</ele>
        <time>2026-08-29T11:22:21Z</time>
      </trkpt>
      <trkpt lat="43.90914" lon="1.89926">
        <ele>137.490003</ele>
        <time>2026-08-29T11:22:22Z</time>
      </trkpt>
      <trkpt lat="43.90918" lon="1.89927">
        <ele>137.544637</ele>
        <time>2026-08-29T11:22:23Z</time>
      </trkpt>
      <trkpt lat="43.90922" lon="1.89927">
        <ele>137.595579</ele>
        <time>2026-08-29T11:22:24Z</time>
      </trkpt>
      <trkpt lat="43.90927" lon="1.89927">
        <ele>137.647466</ele>
        <time>2026-08-29T11:22:25Z</time>
      </trkpt>
      <trkpt lat="43.90931" lon="1.89927">
        <ele>137.699376</ele>
        <time>2026-08-29T11:22:26Z</time>
      </trkpt>
      <trkpt lat="43.90935" lon="1.89927">
        <ele>137.750169</ele>
        <time>2026-08-29T11:22:27Z</time>
      </trkpt>
      <trkpt lat="43.90939" lon="1.89926">
        <ele>137.798812</ele>
        <time>2026-08-29T11:22:28Z</time>
      </trkpt>
      <trkpt lat="43.90943" lon="1.89925">
        <ele>137.845185</ele>
        <time>2026-08-29T11:22:29Z</time>
      </trkpt>
      <trkpt lat="43.90947" lon="1.89924">
        <ele>137.893201</ele>
        <time>2026-08-29T11:22:30Z</time>
      </trkpt>
      <trkpt lat="43.90951" lon="1.89923">
        <ele>137.943426</ele>
        <time>2026-08-29T11:22:31Z</time>
      </trkpt>
      <trkpt lat="43.90955" lon="1.89922">
        <ele>137.992029</ele>
        <time>2026-08-29T11:22:32Z</time>
      </trkpt>
      <trkpt lat="43.90959" lon="1.89921">
        <ele>138.039048</ele>
        <time>2026-08-29T11:22:33Z</time>
      </trkpt>
      <trkpt lat="43.90963" lon="1.8992">
        <ele>138.086899</ele>
        <time>2026-08-29T11:22:34Z</time>
      </trkpt>
      <trkpt lat="43.90967" lon="1.89918">
        <ele>138.139818</ele>
        <time>2026-08-29T11:22:35Z</time>
      </trkpt>
      <trkpt lat="43.90971" lon="1.89917">
        <ele>138.191933</ele>
        <time>2026-08-29T11:22:36Z</time>
      </trkpt>
      <trkpt lat="43.90976" lon="1.89916">
        <ele>138.247573</ele>
        <time>2026-08-29T11:22:37Z</time>
      </trkpt>
      <trkpt lat="43.9098" lon="1.89914">
        <ele>138.305237</ele>
        <time>2026-08-29T11:22:38Z</time>
      </trkpt>
      <trkpt lat="43.90985" lon="1.89912">
        <ele>138.360833</ele>
        <time>2026-08-29T11:22:39Z</time>
      </trkpt>
      <trkpt lat="43.90988" lon="1.8991">
        <ele>138.409867</ele>
        <time>2026-08-29T11:22:40Z</time>
      </trkpt>
      <trkpt lat="43.90992" lon="1.89908">
        <ele>138.459454</ele>
        <time>2026-08-29T11:22:41Z</time>
      </trkpt>
      <trkpt lat="43.90996" lon="1.89907">
        <ele>138.50712</ele>
        <time>2026-08-29T11:22:42Z</time>
      </trkpt>
      <trkpt lat="43.91" lon="1.89905">
        <ele>138.555512</ele>
        <time>2026-08-29T11:22:43Z</time>
      </trkpt>
      <trkpt lat="43.91004" lon="1.89905">
        <ele>138.603078</ele>
        <time>2026-08-29T11:22:44Z</time>
      </trkpt>
      <trkpt lat="43.91008" lon="1.89906">
        <ele>138.650744</ele>
        <time>2026-08-29T11:22:45Z</time>
      </trkpt>
      <trkpt lat="43.91011" lon="1.89909">
        <ele>138.699365</ele>
        <time>2026-08-29T11:22:46Z</time>
      </trkpt>
      <trkpt lat="43.91013" lon="1.89914">
        <ele>138.748032</ele>
        <time>2026-08-29T11:22:47Z</time>
      </trkpt>
      <trkpt lat="43.91014" lon="1.89919">
        <ele>138.793672</ele>
        <time>2026-08-29T11:22:48Z</time>
      </trkpt>
      <trkpt lat="43.91014" lon="1.89924">
        <ele>138.835464</ele>
        <time>2026-08-29T11:22:49Z</time>
      </trkpt>
      <trkpt lat="43.91013" lon="1.89928">
        <ele>138.876897</ele>
        <time>2026-08-29T11:22:50Z</time>
      </trkpt>
      <trkpt lat="43.91013" lon="1.89933">
        <ele>138.916899</ele>
        <time>2026-08-29T11:22:51Z</time>
      </trkpt>
      <trkpt lat="43.91013" lon="1.89937">
        <ele>138.950884</ele>
        <time>2026-08-29T11:22:52Z</time>
      </trkpt>
      <trkpt lat="43.91013" lon="1.89941">
        <ele>138.982384</ele>
        <time>2026-08-29T11:22:53Z</time>
      </trkpt>
      <trkpt lat="43.91012" lon="1.89944">
        <ele>139.011296</ele>
        <time>2026-08-29T11:22:54Z</time>
      </trkpt>
      <trkpt lat="43.91012" lon="1.89947">
        <ele>139.028073</ele>
        <time>2026-08-29T11:22:55Z</time>
      </trkpt>
      <trkpt lat="43.91012" lon="1.89951">
        <ele>139.029371</ele>
        <time>2026-08-29T11:22:56Z</time>
      </trkpt>
      <trkpt lat="43.91012" lon="1.89956">
        <ele>139.030824</ele>
        <time>2026-08-29T11:22:57Z</time>
      </trkpt>
      <trkpt lat="43.91012" lon="1.8996">
        <ele>139.032183</ele>
        <time>2026-08-29T11:22:58Z</time>
      </trkpt>
      <trkpt lat="43.91012" lon="1.89964">
        <ele>139.03351</ele>
        <time>2026-08-29T11:22:59Z</time>
      </trkpt>
      <trkpt lat="43.91012" lon="1.89968">
        <ele>139.03464</ele>
        <time>2026-08-29T11:23:00Z</time>
      </trkpt>
      <trkpt lat="43.91012" lon="1.89972">
        <ele>139.03587</ele>
        <time>2026-08-29T11:23:01Z</time>
      </trkpt>
      <trkpt lat="43.91013" lon="1.89975">
        <ele>139.036951</ele>
        <time>2026-08-29T11:23:02Z</time>
      </trkpt>
      <trkpt lat="43.91013" lon="1.89978">
        <ele>139.038135</ele>
        <time>2026-08-29T11:23:03Z</time>
      </trkpt>
      <trkpt lat="43.91014" lon="1.89982">
        <ele>139.039152</ele>
        <time>2026-08-29T11:23:04Z</time>
      </trkpt>
      <trkpt lat="43.91014" lon="1.89984">
        <ele>139.040066</ele>
        <time>2026-08-29T11:23:05Z</time>
      </trkpt>
      <trkpt lat="43.91014" lon="1.89987">
        <ele>139.040884</ele>
        <time>2026-08-29T11:23:06Z</time>
      </trkpt>
      <trkpt lat="43.91014" lon="1.8999">
        <ele>139.04176</ele>
        <time>2026-08-29T11:23:07Z</time>
      </trkpt>
      <trkpt lat="43.91015" lon="1.89992">
        <ele>139.042626</ele>
        <time>2026-08-29T11:23:08Z</time>
      </trkpt>
      <trkpt lat="43.91016" lon="1.89994">
        <ele>139.04348</ele>
        <time>2026-08-29T11:23:09Z</time>
      </trkpt>
      <trkpt lat="43.91017" lon="1.89997">
        <ele>139.044331</ele>
        <time>2026-08-29T11:23:10Z</time>
      </trkpt>
      <trkpt lat="43.91017" lon="1.9">
        <ele>139.045253</ele>
        <time>2026-08-29T11:23:11Z</time>
      </trkpt>
      <trkpt lat="43.91017" lon="1.90003">
        <ele>139.046223</ele>
        <time>2026-08-29T11:23:12Z</time>
      </trkpt>
      <trkpt lat="43.91017" lon="1.90006">
        <ele>139.047257</ele>
        <time>2026-08-29T11:23:13Z</time>
      </trkpt>
      <trkpt lat="43.91018" lon="1.90009">
        <ele>139.048242</ele>
        <time>2026-08-29T11:23:14Z</time>
      </trkpt>
      <trkpt lat="43.91018" lon="1.90012">
        <ele>139.049278</ele>
        <time>2026-08-29T11:23:15Z</time>
      </trkpt>
      <trkpt lat="43.91019" lon="1.90015">
        <ele>139.050191</ele>
        <time>2026-08-29T11:23:16Z</time>
      </trkpt>
      <trkpt lat="43.91019" lon="1.90017">
        <ele>139.051018</ele>
        <time>2026-08-29T11:23:17Z</time>
      </trkpt>
      <trkpt lat="43.9102" lon="1.9002">
        <ele>139.051793</ele>
        <time>2026-08-29T11:23:18Z</time>
      </trkpt>
      <trkpt lat="43.9102" lon="1.90022">
        <ele>139.05256</ele>
        <time>2026-08-29T11:23:19Z</time>
      </trkpt>
      <trkpt lat="43.91021" lon="1.90024">
        <ele>139.05323</ele>
        <time>2026-08-29T11:23:20Z</time>
      </trkpt>
      <trkpt lat="43.91021" lon="1.90025">
        <ele>139.053827</ele>
        <time>2026-08-29T11:23:21Z</time>
      </trkpt>
      <trkpt lat="43.91022" lon="1.90027">
        <ele>139.054237</ele>
        <time>2026-08-29T11:23:22Z</time>
      </trkpt>
      <trkpt lat="43.91022" lon="1.90028">
        <ele>139.054563</ele>
        <time>2026-08-29T11:23:23Z</time>
      </trkpt>
      <trkpt lat="43.91022" lon="1.90027">
        <ele>139.05472</ele>
        <time>2026-08-29T11:23:24Z</time>
      </trkpt>
      <trkpt lat="43.91022" lon="1.90027">
        <ele>139.054752</ele>
        <time>2026-08-29T11:23:25Z</time>
      </trkpt>
      <trkpt lat="43.91023" lon="1.90028">
        <ele>139.055435</ele>
        <time>2026-08-29T11:23:26Z</time>
      </trkpt>
      <trkpt lat="43.91025" lon="1.90023">
        <ele>139.057239</ele>
        <time>2026-08-29T11:24:36Z</time>
      </trkpt>
      <trkpt lat="43.91025" lon="1.9002">
        <ele>139.058274</ele>
        <time>2026-08-29T11:24:37Z</time>
      </trkpt>
      <trkpt lat="43.91025" lon="1.90017">
        <ele>139.059307</ele>
        <time>2026-08-29T11:24:38Z</time>
      </trkpt>
      <trkpt lat="43.91024" lon="1.90014">
        <ele>139.060312</ele>
        <time>2026-08-29T11:24:39Z</time>
      </trkpt>
      <trkpt lat="43.91024" lon="1.90011">
        <ele>139.061378</ele>
        <time>2026-08-29T11:24:40Z</time>
      </trkpt>
      <trkpt lat="43.91024" lon="1.90008">
        <ele>139.062384</ele>
        <time>2026-08-29T11:24:41Z</time>
      </trkpt>
      <trkpt lat="43.91023" lon="1.90004">
        <ele>139.063528</ele>
        <time>2026-08-29T11:24:42Z</time>
      </trkpt>
      <trkpt lat="43.91021" lon="1.90001">
        <ele>139.064659</ele>
        <time>2026-08-29T11:24:43Z</time>
      </trkpt>
      <trkpt lat="43.9102" lon="1.89997">
        <ele>139.066076</ele>
        <time>2026-08-29T11:24:44Z</time>
      </trkpt>
      <trkpt lat="43.91019" lon="1.89993">
        <ele>139.067549</ele>
        <time>2026-08-29T11:24:45Z</time>
      </trkpt>
      <trkpt lat="43.91018" lon="1.89989">
        <ele>139.069057</ele>
        <time>2026-08-29T11:24:46Z</time>
      </trkpt>
      <trkpt lat="43.91017" lon="1.89984">
        <ele>139.070608</ele>
        <time>2026-08-29T11:24:47Z</time>
      </trkpt>
      <trkpt lat="43.91016" lon="1.89979">
        <ele>139.072191</ele>
        <time>2026-08-29T11:24:48Z</time>
      </trkpt>
      <trkpt lat="43.91015" lon="1.89975">
        <ele>139.073756</ele>
        <time>2026-08-29T11:24:49Z</time>
      </trkpt>
      <trkpt lat="43.91014" lon="1.8997">
        <ele>139.075444</ele>
        <time>2026-08-29T11:24:50Z</time>
      </trkpt>
      <trkpt lat="43.91013" lon="1.89965">
        <ele>139.077035</ele>
        <time>2026-08-29T11:24:51Z</time>
      </trkpt>
      <trkpt lat="43.91013" lon="1.89959">
        <ele>139.078848</ele>
        <time>2026-08-29T11:24:52Z</time>
      </trkpt>
      <trkpt lat="43.91012" lon="1.89955">
        <ele>139.080409</ele>
        <time>2026-08-29T11:24:53Z</time>
      </trkpt>
      <trkpt lat="43.91012" lon="1.8995">
        <ele>139.081958</ele>
        <time>2026-08-29T11:24:54Z</time>
      </trkpt>
      <trkpt lat="43.91012" lon="1.89945">
        <ele>139.083412</ele>
        <time>2026-08-29T11:24:55Z</time>
      </trkpt>
      <trkpt lat="43.91012" lon="1.89941">
        <ele>139.084844</ele>
        <time>2026-08-29T11:24:56Z</time>
      </trkpt>
      <trkpt lat="43.91011" lon="1.89936">
        <ele>139.086397</ele>
        <time>2026-08-29T11:24:57Z</time>
      </trkpt>
      <trkpt lat="43.91011" lon="1.89932">
        <ele>139.087829</ele>
        <time>2026-08-29T11:24:58Z</time>
      </trkpt>
      <trkpt lat="43.91011" lon="1.89927">
        <ele>139.089347</ele>
        <time>2026-08-29T11:24:59Z</time>
      </trkpt>
      <trkpt lat="43.91011" lon="1.89922">
        <ele>139.090962</ele>
        <time>2026-08-29T11:25:00Z</time>
      </trkpt>
      <trkpt lat="43.91011" lon="1.89917">
        <ele>139.092674</ele>
        <time>2026-08-29T11:25:01Z</time>
      </trkpt>
      <trkpt lat="43.91012" lon="1.89911">
        <ele>139.094422</ele>
        <time>2026-08-29T11:25:02Z</time>
      </trkpt>
      <trkpt lat="43.91014" lon="1.89907">
        <ele>139.096056</ele>
        <time>2026-08-29T11:25:03Z</time>
      </trkpt>
      <trkpt lat="43.91016" lon="1.89903">
        <ele>139.097523</ele>
        <time>2026-08-29T11:25:04Z</time>
      </trkpt>
      <trkpt lat="43.91019" lon="1.89901">
        <ele>139.09911</ele>
        <time>2026-08-29T11:25:05Z</time>
      </trkpt>
      <trkpt lat="43.91022" lon="1.899">
        <ele>139.100561</ele>
        <time>2026-08-29T11:25:06Z</time>
      </trkpt>
      <trkpt lat="43.91025" lon="1.89899">
        <ele>139.1019</ele>
        <time>2026-08-29T11:25:07Z</time>
      </trkpt>
      <trkpt lat="43.91028" lon="1.89898">
        <ele>139.10332</ele>
        <time>2026-08-29T11:25:08Z</time>
      </trkpt>
      <trkpt lat="43.91031" lon="1.89897">
        <ele>139.104767</ele>
        <time>2026-08-29T11:25:09Z</time>
      </trkpt>
      <trkpt lat="43.91035" lon="1.89897">
        <ele>139.106202</ele>
        <time>2026-08-29T11:25:10Z</time>
      </trkpt>
      <trkpt lat="43.91038" lon="1.89897">
        <ele>139.107773</ele>
        <time>2026-08-29T11:25:11Z</time>
      </trkpt>
      <trkpt lat="43.91042" lon="1.89896">
        <ele>139.131257</ele>
        <time>2026-08-29T11:25:12Z</time>
      </trkpt>
      <trkpt lat="43.91045" lon="1.89894">
        <ele>139.157736</ele>
        <time>2026-08-29T11:25:13Z</time>
      </trkpt>
      <trkpt lat="43.91048" lon="1.89893">
        <ele>139.184514</ele>
        <time>2026-08-29T11:25:14Z</time>
      </trkpt>
      <trkpt lat="43.91052" lon="1.89892">
        <ele>139.21593</ele>
        <time>2026-08-29T11:25:15Z</time>
      </trkpt>
      <trkpt lat="43.91055" lon="1.89891">
        <ele>139.246548</ele>
        <time>2026-08-29T11:25:16Z</time>
      </trkpt>
      <trkpt lat="43.9106" lon="1.8989">
        <ele>139.281962</ele>
        <time>2026-08-29T11:25:17Z</time>
      </trkpt>
      <trkpt lat="43.91064" lon="1.89889">
        <ele>139.317048</ele>
        <time>2026-08-29T11:25:18Z</time>
      </trkpt>
      <trkpt lat="43.91068" lon="1.89888">
        <ele>139.350417</ele>
        <time>2026-08-29T11:25:19Z</time>
      </trkpt>
      <trkpt lat="43.91072" lon="1.89886">
        <ele>139.384857</ele>
        <time>2026-08-29T11:25:20Z</time>
      </trkpt>
      <trkpt lat="43.91076" lon="1.89884">
        <ele>139.416141</ele>
        <time>2026-08-29T11:25:21Z</time>
      </trkpt>
      <trkpt lat="43.91079" lon="1.89882">
        <ele>139.448186</ele>
        <time>2026-08-29T11:25:22Z</time>
      </trkpt>
      <trkpt lat="43.91083" lon="1.8988">
        <ele>139.481569</ele>
        <time>2026-08-29T11:25:23Z</time>
      </trkpt>
      <trkpt lat="43.91087" lon="1.89879">
        <ele>139.512457</ele>
        <time>2026-08-29T11:25:24Z</time>
      </trkpt>
      <trkpt lat="43.9109" lon="1.89877">
        <ele>139.54221</ele>
        <time>2026-08-29T11:25:25Z</time>
      </trkpt>
      <trkpt lat="43.91094" lon="1.89876">
        <ele>139.574465</ele>
        <time>2026-08-29T11:25:26Z</time>
      </trkpt>
      <trkpt lat="43.91098" lon="1.89874">
        <ele>139.609059</ele>
        <time>2026-08-29T11:25:27Z</time>
      </trkpt>
      <trkpt lat="43.91102" lon="1.89872">
        <ele>139.643038</ele>
        <time>2026-08-29T11:25:28Z</time>
      </trkpt>
      <trkpt lat="43.91106" lon="1.89871">
        <ele>139.676546</ele>
        <time>2026-08-29T11:25:29Z</time>
      </trkpt>
      <trkpt lat="43.9111" lon="1.8987">
        <ele>139.710581</ele>
        <time>2026-08-29T11:25:30Z</time>
      </trkpt>
      <trkpt lat="43.91114" lon="1.89869">
        <ele>139.7418</ele>
        <time>2026-08-29T11:25:31Z</time>
      </trkpt>
      <trkpt lat="43.91118" lon="1.89868">
        <ele>139.77448</ele>
        <time>2026-08-29T11:25:32Z</time>
      </trkpt>
      <trkpt lat="43.91122" lon="1.89867">
        <ele>139.807395</ele>
        <time>2026-08-29T11:25:33Z</time>
      </trkpt>
      <trkpt lat="43.91126" lon="1.89867">
        <ele>139.842717</ele>
        <time>2026-08-29T11:25:34Z</time>
      </trkpt>
      <trkpt lat="43.91131" lon="1.89866">
        <ele>139.879568</ele>
        <time>2026-08-29T11:25:35Z</time>
      </trkpt>
      <trkpt lat="43.91135" lon="1.89864">
        <ele>139.917026</ele>
        <time>2026-08-29T11:25:36Z</time>
      </trkpt>
      <trkpt lat="43.9114" lon="1.89863">
        <ele>139.952403</ele>
        <time>2026-08-29T11:25:37Z</time>
      </trkpt>
      <trkpt lat="43.91143" lon="1.89861">
        <ele>139.984658</ele>
        <time>2026-08-29T11:25:38Z</time>
      </trkpt>
      <trkpt lat="43.91148" lon="1.8986">
        <ele>140.024274</ele>
        <time>2026-08-29T11:25:39Z</time>
      </trkpt>
      <trkpt lat="43.91152" lon="1.89859">
        <ele>140.0599</ele>
        <time>2026-08-29T11:25:40Z</time>
      </trkpt>
      <trkpt lat="43.91157" lon="1.89858">
        <ele>140.096116</ele>
        <time>2026-08-29T11:25:41Z</time>
      </trkpt>
      <trkpt lat="43.91161" lon="1.89857">
        <ele>140.13153</ele>
        <time>2026-08-29T11:25:42Z</time>
      </trkpt>
      <trkpt lat="43.91165" lon="1.89855">
        <ele>140.166756</ele>
        <time>2026-08-29T11:25:43Z</time>
      </trkpt>
      <trkpt lat="43.9117" lon="1.89854">
        <ele>140.204091</ele>
        <time>2026-08-29T11:25:44Z</time>
      </trkpt>
      <trkpt lat="43.91174" lon="1.89852">
        <ele>140.241037</ele>
        <time>2026-08-29T11:25:45Z</time>
      </trkpt>
      <trkpt lat="43.91179" lon="1.89851">
        <ele>140.277051</ele>
        <time>2026-08-29T11:25:46Z</time>
      </trkpt>
      <trkpt lat="43.91183" lon="1.89849">
        <ele>140.311808</ele>
        <time>2026-08-29T11:25:47Z</time>
      </trkpt>
      <trkpt lat="43.91187" lon="1.89848">
        <ele>140.344841</ele>
        <time>2026-08-29T11:25:48Z</time>
      </trkpt>
      <trkpt lat="43.91191" lon="1.89846">
        <ele>140.378876</ele>
        <time>2026-08-29T11:25:49Z</time>
      </trkpt>
      <trkpt lat="43.91195" lon="1.89846">
        <ele>140.413311</ele>
        <time>2026-08-29T11:25:50Z</time>
      </trkpt>
      <trkpt lat="43.91199" lon="1.89845">
        <ele>140.445933</ele>
        <time>2026-08-29T11:25:51Z</time>
      </trkpt>
      <trkpt lat="43.91203" lon="1.89845">
        <ele>140.480173</ele>
        <time>2026-08-29T11:25:52Z</time>
      </trkpt>
      <trkpt lat="43.91207" lon="1.89844">
        <ele>140.515179</ele>
        <time>2026-08-29T11:25:53Z</time>
      </trkpt>
      <trkpt lat="43.91212" lon="1.89844">
        <ele>140.551848</ele>
        <time>2026-08-29T11:25:54Z</time>
      </trkpt>
      <trkpt lat="43.91216" lon="1.89843">
        <ele>140.59323</ele>
        <time>2026-08-29T11:25:55Z</time>
      </trkpt>
      <trkpt lat="43.91221" lon="1.89842">
        <ele>140.642381</ele>
        <time>2026-08-29T11:25:56Z</time>
      </trkpt>
      <trkpt lat="43.91225" lon="1.89841">
        <ele>140.686325</ele>
        <time>2026-08-29T11:25:57Z</time>
      </trkpt>
      <trkpt lat="43.91229" lon="1.89841">
        <ele>140.726698</ele>
        <time>2026-08-29T11:25:58Z</time>
      </trkpt>
      <trkpt lat="43.91233" lon="1.89841">
        <ele>140.767875</ele>
        <time>2026-08-29T11:25:59Z</time>
      </trkpt>
      <trkpt lat="43.91237" lon="1.89841">
        <ele>140.810107</ele>
        <time>2026-08-29T11:26:00Z</time>
      </trkpt>
      <trkpt lat="43.91241" lon="1.89841">
        <ele>140.852442</ele>
        <time>2026-08-29T11:26:01Z</time>
      </trkpt>
      <trkpt lat="43.91245" lon="1.89841">
        <ele>140.894674</ele>
        <time>2026-08-29T11:26:02Z</time>
      </trkpt>
      <trkpt lat="43.91249" lon="1.89841">
        <ele>140.939115</ele>
        <time>2026-08-29T11:26:03Z</time>
      </trkpt>
      <trkpt lat="43.91253" lon="1.8984">
        <ele>140.982563</ele>
        <time>2026-08-29T11:26:04Z</time>
      </trkpt>
      <trkpt lat="43.91257" lon="1.89839">
        <ele>141.025225</ele>
        <time>2026-08-29T11:26:05Z</time>
      </trkpt>
      <trkpt lat="43.91261" lon="1.89838">
        <ele>141.068129</ele>
        <time>2026-08-29T11:26:06Z</time>
      </trkpt>
      <trkpt lat="43.91265" lon="1.89837">
        <ele>141.115465</ele>
        <time>2026-08-29T11:26:07Z</time>
      </trkpt>
      <trkpt lat="43.9127" lon="1.89836">
        <ele>141.165913</ele>
        <time>2026-08-29T11:26:08Z</time>
      </trkpt>
      <trkpt lat="43.91274" lon="1.89835">
        <ele>141.211179</ele>
        <time>2026-08-29T11:26:09Z</time>
      </trkpt>
      <trkpt lat="43.91279" lon="1.89834">
        <ele>141.257336</ele>
        <time>2026-08-29T11:26:10Z</time>
      </trkpt>
      <trkpt lat="43.91283" lon="1.89833">
        <ele>141.30128</ele>
        <time>2026-08-29T11:26:11Z</time>
      </trkpt>
      <trkpt lat="43.91287" lon="1.89831">
        <ele>141.347437</ele>
        <time>2026-08-29T11:26:12Z</time>
      </trkpt>
      <trkpt lat="43.91291" lon="1.8983">
        <ele>141.392862</ele>
        <time>2026-08-29T11:26:13Z</time>
      </trkpt>
      <trkpt lat="43.91295" lon="1.89829">
        <ele>141.437434</ele>
        <time>2026-08-29T11:26:14Z</time>
      </trkpt>
      <trkpt lat="43.913" lon="1.89828">
        <ele>141.483734</ele>
        <time>2026-08-29T11:26:15Z</time>
      </trkpt>
      <trkpt lat="43.91304" lon="1.89826">
        <ele>141.528853</ele>
        <time>2026-08-29T11:26:16Z</time>
      </trkpt>
      <trkpt lat="43.91308" lon="1.89826">
        <ele>141.574759</ele>
        <time>2026-08-29T11:26:17Z</time>
      </trkpt>
      <trkpt lat="43.91312" lon="1.89824">
        <ele>141.61677</ele>
        <time>2026-08-29T11:26:18Z</time>
      </trkpt>
      <trkpt lat="43.91316" lon="1.89823">
        <ele>141.655526</ele>
        <time>2026-08-29T11:26:19Z</time>
      </trkpt>
      <trkpt lat="43.91319" lon="1.89823">
        <ele>141.694946</ele>
        <time>2026-08-29T11:26:20Z</time>
      </trkpt>
      <trkpt lat="43.91323" lon="1.89822">
        <ele>141.731349</ele>
        <time>2026-08-29T11:26:21Z</time>
      </trkpt>
      <trkpt lat="43.91326" lon="1.8982">
        <ele>141.768006</ele>
        <time>2026-08-29T11:26:22Z</time>
      </trkpt>
      <trkpt lat="43.91329" lon="1.89819">
        <ele>141.803832</ele>
        <time>2026-08-29T11:26:23Z</time>
      </trkpt>
      <trkpt lat="43.91332" lon="1.89818">
        <ele>141.838823</ele>
        <time>2026-08-29T11:26:24Z</time>
      </trkpt>
      <trkpt lat="43.91336" lon="1.89817">
        <ele>141.876261</ele>
        <time>2026-08-29T11:26:25Z</time>
      </trkpt>
      <trkpt lat="43.91339" lon="1.89815">
        <ele>141.914929</ele>
        <time>2026-08-29T11:26:26Z</time>
      </trkpt>
      <trkpt lat="43.91343" lon="1.89814">
        <ele>141.954607</ele>
        <time>2026-08-29T11:26:27Z</time>
      </trkpt>
      <trkpt lat="43.91347" lon="1.89812">
        <ele>141.996311</ele>
        <time>2026-08-29T11:26:28Z</time>
      </trkpt>
      <trkpt lat="43.9135" lon="1.89811">
        <ele>142.037454</ele>
        <time>2026-08-29T11:26:29Z</time>
      </trkpt>
      <trkpt lat="43.91354" lon="1.89809">
        <ele>142.081614</ele>
        <time>2026-08-29T11:26:30Z</time>
      </trkpt>
      <trkpt lat="43.91358" lon="1.89807">
        <ele>142.122098</ele>
        <time>2026-08-29T11:26:31Z</time>
      </trkpt>
      <trkpt lat="43.91362" lon="1.89806">
        <ele>142.162042</ele>
        <time>2026-08-29T11:26:32Z</time>
      </trkpt>
      <trkpt lat="43.91366" lon="1.89805">
        <ele>142.203545</ele>
        <time>2026-08-29T11:26:33Z</time>
      </trkpt>
      <trkpt lat="43.9137" lon="1.89803">
        <ele>142.246931</ele>
        <time>2026-08-29T11:26:34Z</time>
      </trkpt>
      <trkpt lat="43.91374" lon="1.89801">
        <ele>142.294803</ele>
        <time>2026-08-29T11:26:35Z</time>
      </trkpt>
      <trkpt lat="43.91378" lon="1.898">
        <ele>142.338747</ele>
        <time>2026-08-29T11:26:36Z</time>
      </trkpt>
      <trkpt lat="43.91382" lon="1.89799">
        <ele>142.37932</ele>
        <time>2026-08-29T11:26:37Z</time>
      </trkpt>
      <trkpt lat="43.91386" lon="1.89797">
        <ele>142.425776</ele>
        <time>2026-08-29T11:26:38Z</time>
      </trkpt>
      <trkpt lat="43.9139" lon="1.89796">
        <ele>142.468935</ele>
        <time>2026-08-29T11:26:39Z</time>
      </trkpt>
      <trkpt lat="43.91394" lon="1.89794">
        <ele>142.481055</ele>
        <time>2026-08-29T11:26:40Z</time>
      </trkpt>
      <trkpt lat="43.91399" lon="1.89792">
        <ele>142.493372</ele>
        <time>2026-08-29T11:26:41Z</time>
      </trkpt>
      <trkpt lat="43.91403" lon="1.8979">
        <ele>142.505631</ele>
        <time>2026-08-29T11:26:42Z</time>
      </trkpt>
      <trkpt lat="43.91407" lon="1.89788">
        <ele>142.517572</ele>
        <time>2026-08-29T11:26:43Z</time>
      </trkpt>
      <trkpt lat="43.91411" lon="1.89787">
        <ele>142.52946</ele>
        <time>2026-08-29T11:26:44Z</time>
      </trkpt>
      <trkpt lat="43.91416" lon="1.89785">
        <ele>142.541611</ele>
        <time>2026-08-29T11:26:45Z</time>
      </trkpt>
      <trkpt lat="43.9142" lon="1.89783">
        <ele>142.553473</ele>
        <time>2026-08-29T11:26:46Z</time>
      </trkpt>
      <trkpt lat="43.91424" lon="1.89782">
        <ele>142.566424</ele>
        <time>2026-08-29T11:26:47Z</time>
      </trkpt>
      <trkpt lat="43.91429" lon="1.8978">
        <ele>142.578683</ele>
        <time>2026-08-29T11:26:48Z</time>
      </trkpt>
      <trkpt lat="43.91433" lon="1.89779">
        <ele>142.590886</ele>
        <time>2026-08-29T11:26:49Z</time>
      </trkpt>
      <trkpt lat="43.91437" lon="1.89776">
        <ele>142.60352</ele>
        <time>2026-08-29T11:26:50Z</time>
      </trkpt>
      <trkpt lat="43.91441" lon="1.89774">
        <ele>142.615578</ele>
        <time>2026-08-29T11:26:51Z</time>
      </trkpt>
      <trkpt lat="43.91445" lon="1.89773">
        <ele>142.626624</ele>
        <time>2026-08-29T11:26:52Z</time>
      </trkpt>
      <trkpt lat="43.91449" lon="1.89771">
        <ele>142.637842</ele>
        <time>2026-08-29T11:26:53Z</time>
      </trkpt>
      <trkpt lat="43.91453" lon="1.89769">
        <ele>142.64964</ele>
        <time>2026-08-29T11:26:54Z</time>
      </trkpt>
      <trkpt lat="43.91458" lon="1.89768">
        <ele>142.66349</ele>
        <time>2026-08-29T11:26:55Z</time>
      </trkpt>
      <trkpt lat="43.91463" lon="1.89765">
        <ele>142.676836</ele>
        <time>2026-08-29T11:26:56Z</time>
      </trkpt>
      <trkpt lat="43.91467" lon="1.89763">
        <ele>142.689674</ele>
        <time>2026-08-29T11:26:57Z</time>
      </trkpt>
      <trkpt lat="43.91472" lon="1.89762">
        <ele>142.702774</ele>
        <time>2026-08-29T11:26:58Z</time>
      </trkpt>
      <trkpt lat="43.91477" lon="1.8976">
        <ele>142.715613</ele>
        <time>2026-08-29T11:26:59Z</time>
      </trkpt>
      <trkpt lat="43.91481" lon="1.89758">
        <ele>142.72819</ele>
        <time>2026-08-29T11:27:00Z</time>
      </trkpt>
      <trkpt lat="43.91486" lon="1.89756">
        <ele>142.741408</ele>
        <time>2026-08-29T11:27:01Z</time>
      </trkpt>
      <trkpt lat="43.9149" lon="1.89754">
        <ele>142.754305</ele>
        <time>2026-08-29T11:27:02Z</time>
      </trkpt>
      <trkpt lat="43.91495" lon="1.89752">
        <ele>142.767263</ele>
        <time>2026-08-29T11:27:03Z</time>
      </trkpt>
      <trkpt lat="43.91499" lon="1.89749">
        <ele>142.780028</ele>
        <time>2026-08-29T11:27:04Z</time>
      </trkpt>
      <trkpt lat="43.91504" lon="1.89747">
        <ele>142.793374</ele>
        <time>2026-08-29T11:27:05Z</time>
      </trkpt>
      <trkpt lat="43.91508" lon="1.89745">
        <ele>142.806396</ele>
        <time>2026-08-29T11:27:06Z</time>
      </trkpt>
      <trkpt lat="43.91513" lon="1.89743">
        <ele>142.819419</ele>
        <time>2026-08-29T11:27:07Z</time>
      </trkpt>
      <trkpt lat="43.91517" lon="1.8974">
        <ele>142.832957</ele>
        <time>2026-08-29T11:27:08Z</time>
      </trkpt>
      <trkpt lat="43.91522" lon="1.89738">
        <ele>142.846174</ele>
        <time>2026-08-29T11:27:09Z</time>
      </trkpt>
      <trkpt lat="43.91526" lon="1.89736">
        <ele>142.859333</ele>
        <time>2026-08-29T11:27:10Z</time>
      </trkpt>
      <trkpt lat="43.91531" lon="1.89733">
        <ele>142.872637</ele>
        <time>2026-08-29T11:27:11Z</time>
      </trkpt>
      <trkpt lat="43.91535" lon="1.89731">
        <ele>142.885867</ele>
        <time>2026-08-29T11:27:12Z</time>
      </trkpt>
      <trkpt lat="43.9154" lon="1.89729">
        <ele>142.899147</ele>
        <time>2026-08-29T11:27:13Z</time>
      </trkpt>
      <trkpt lat="43.91545" lon="1.89726">
        <ele>142.912493</ele>
        <time>2026-08-29T11:27:14Z</time>
      </trkpt>
      <trkpt lat="43.91549" lon="1.89724">
        <ele>142.925906</ele>
        <time>2026-08-29T11:27:15Z</time>
      </trkpt>
      <trkpt lat="43.91554" lon="1.89722">
        <ele>142.939251</ele>
        <time>2026-08-29T11:27:16Z</time>
      </trkpt>
      <trkpt lat="43.91558" lon="1.8972">
        <ele>142.952469</ele>
        <time>2026-08-29T11:27:17Z</time>
      </trkpt>
      <trkpt lat="43.91563" lon="1.89717">
        <ele>142.978619</ele>
        <time>2026-08-29T11:27:18Z</time>
      </trkpt>
      <trkpt lat="43.91568" lon="1.89715">
        <ele>143.014865</ele>
        <time>2026-08-29T11:27:19Z</time>
      </trkpt>
      <trkpt lat="43.91573" lon="1.89713">
        <ele>143.053344</ele>
        <time>2026-08-29T11:27:20Z</time>
      </trkpt>
      <trkpt lat="43.91577" lon="1.8971">
        <ele>143.088407</ele>
        <time>2026-08-29T11:27:21Z</time>
      </trkpt>
      <trkpt lat="43.91582" lon="1.89708">
        <ele>143.123469</ele>
        <time>2026-08-29T11:27:22Z</time>
      </trkpt>
      <trkpt lat="43.91587" lon="1.89706">
        <ele>143.159716</ele>
        <time>2026-08-29T11:27:23Z</time>
      </trkpt>
      <trkpt lat="43.91591" lon="1.89703">
        <ele>143.194593</ele>
        <time>2026-08-29T11:27:24Z</time>
      </trkpt>
      <trkpt lat="43.91596" lon="1.89701">
        <ele>143.230155</ele>
        <time>2026-08-29T11:27:25Z</time>
      </trkpt>
      <trkpt lat="43.916" lon="1.89699">
        <ele>143.265542</ele>
        <time>2026-08-29T11:27:26Z</time>
      </trkpt>
      <trkpt lat="43.91605" lon="1.89697">
        <ele>143.301618</ele>
        <time>2026-08-29T11:27:27Z</time>
      </trkpt>
      <trkpt lat="43.91609" lon="1.89694">
        <ele>143.337044</ele>
        <time>2026-08-29T11:27:28Z</time>
      </trkpt>
      <trkpt lat="43.91614" lon="1.89691">
        <ele>143.371589</ele>
        <time>2026-08-29T11:27:29Z</time>
      </trkpt>
      <trkpt lat="43.91618" lon="1.89688">
        <ele>143.405707</ele>
        <time>2026-08-29T11:27:30Z</time>
      </trkpt>
      <trkpt lat="43.91622" lon="1.89686">
        <ele>143.441269</ele>
        <time>2026-08-29T11:27:31Z</time>
      </trkpt>
      <trkpt lat="43.91627" lon="1.89683">
        <ele>143.476925</ele>
        <time>2026-08-29T11:27:32Z</time>
      </trkpt>
      <trkpt lat="43.91631" lon="1.8968">
        <ele>143.511706</ele>
        <time>2026-08-29T11:27:33Z</time>
      </trkpt>
      <trkpt lat="43.91636" lon="1.89678">
        <ele>143.548814</ele>
        <time>2026-08-29T11:27:34Z</time>
      </trkpt>
      <trkpt lat="43.91641" lon="1.89676">
        <ele>143.582829</ele>
        <time>2026-08-29T11:27:35Z</time>
      </trkpt>
      <trkpt lat="43.91645" lon="1.89673">
        <ele>143.618696</ele>
        <time>2026-08-29T11:27:36Z</time>
      </trkpt>
      <trkpt lat="43.91649" lon="1.8967">
        <ele>143.653022</ele>
        <time>2026-08-29T11:27:37Z</time>
      </trkpt>
      <trkpt lat="43.91653" lon="1.89667">
        <ele>143.687492</ele>
        <time>2026-08-29T11:27:38Z</time>
      </trkpt>
      <trkpt lat="43.91658" lon="1.89665">
        <ele>143.722072</ele>
        <time>2026-08-29T11:27:39Z</time>
      </trkpt>
      <trkpt lat="43.91662" lon="1.89662">
        <ele>143.75596</ele>
        <time>2026-08-29T11:27:40Z</time>
      </trkpt>
      <trkpt lat="43.91666" lon="1.89659">
        <ele>143.791445</ele>
        <time>2026-08-29T11:27:41Z</time>
      </trkpt>
      <trkpt lat="43.91671" lon="1.89655">
        <ele>143.827347</ele>
        <time>2026-08-29T11:27:42Z</time>
      </trkpt>
      <trkpt lat="43.91675" lon="1.89651">
        <ele>143.863527</ele>
        <time>2026-08-29T11:27:43Z</time>
      </trkpt>
      <trkpt lat="43.91679" lon="1.89647">
        <ele>143.900573</ele>
        <time>2026-08-29T11:27:44Z</time>
      </trkpt>
      <trkpt lat="43.91683" lon="1.89643">
        <ele>143.939437</ele>
        <time>2026-08-29T11:27:45Z</time>
      </trkpt>
      <trkpt lat="43.91687" lon="1.8964">
        <ele>143.969643</ele>
        <time>2026-08-29T11:27:46Z</time>
      </trkpt>
      <trkpt lat="43.9169" lon="1.89637">
        <ele>143.99892</ele>
        <time>2026-08-29T11:27:47Z</time>
      </trkpt>
      <trkpt lat="43.91693" lon="1.89633">
        <ele>144.02676</ele>
        <time>2026-08-29T11:27:48Z</time>
      </trkpt>
      <trkpt lat="43.91697" lon="1.89629">
        <ele>144.062751</ele>
        <time>2026-08-29T11:27:49Z</time>
      </trkpt>
      <trkpt lat="43.91701" lon="1.89625">
        <ele>144.096815</ele>
        <time>2026-08-29T11:27:50Z</time>
      </trkpt>
      <trkpt lat="43.91705" lon="1.89622">
        <ele>144.130394</ele>
        <time>2026-08-29T11:27:51Z</time>
      </trkpt>
      <trkpt lat="43.91709" lon="1.89618">
        <ele>144.164458</ele>
        <time>2026-08-29T11:27:52Z</time>
      </trkpt>
      <trkpt lat="43.91713" lon="1.89614">
        <ele>144.200906</ele>
        <time>2026-08-29T11:27:53Z</time>
      </trkpt>
      <trkpt lat="43.91717" lon="1.8961">
        <ele>144.235592</ele>
        <time>2026-08-29T11:27:54Z</time>
      </trkpt>
      <trkpt lat="43.9172" lon="1.89606">
        <ele>144.272811</ele>
        <time>2026-08-29T11:27:55Z</time>
      </trkpt>
      <trkpt lat="43.91724" lon="1.89603">
        <ele>144.324406</ele>
        <time>2026-08-29T11:27:56Z</time>
      </trkpt>
      <trkpt lat="43.91728" lon="1.89599">
        <ele>144.374235</ele>
        <time>2026-08-29T11:27:57Z</time>
      </trkpt>
      <trkpt lat="43.91732" lon="1.89595">
        <ele>144.425408</ele>
        <time>2026-08-29T11:27:58Z</time>
      </trkpt>
      <trkpt lat="43.91736" lon="1.89591">
        <ele>144.477447</ele>
        <time>2026-08-29T11:27:59Z</time>
      </trkpt>
      <trkpt lat="43.91739" lon="1.89587">
        <ele>144.532785</ele>
        <time>2026-08-29T11:28:00Z</time>
      </trkpt>
      <trkpt lat="43.91743" lon="1.89582">
        <ele>144.587511</ele>
        <time>2026-08-29T11:28:01Z</time>
      </trkpt>
      <trkpt lat="43.91747" lon="1.89578">
        <ele>144.637734</ele>
        <time>2026-08-29T11:28:02Z</time>
      </trkpt>
      <trkpt lat="43.9175" lon="1.89574">
        <ele>144.687563</ele>
        <time>2026-08-29T11:28:03Z</time>
      </trkpt>
      <trkpt lat="43.91754" lon="1.8957">
        <ele>144.735568</ele>
        <time>2026-08-29T11:28:04Z</time>
      </trkpt>
      <trkpt lat="43.91758" lon="1.89567">
        <ele>144.783528</ele>
        <time>2026-08-29T11:28:05Z</time>
      </trkpt>
      <trkpt lat="43.91761" lon="1.89563">
        <ele>144.832405</ele>
        <time>2026-08-29T11:28:06Z</time>
      </trkpt>
      <trkpt lat="43.91765" lon="1.8956">
        <ele>144.879918</ele>
        <time>2026-08-29T11:28:07Z</time>
      </trkpt>
      <trkpt lat="43.91769" lon="1.89556">
        <ele>144.930566</ele>
        <time>2026-08-29T11:28:08Z</time>
      </trkpt>
      <trkpt lat="43.91772" lon="1.89552">
        <ele>144.983478</ele>
        <time>2026-08-29T11:28:09Z</time>
      </trkpt>
      <trkpt lat="43.91776" lon="1.89548">
        <ele>145.036369</ele>
        <time>2026-08-29T11:28:10Z</time>
      </trkpt>
      <trkpt lat="43.91781" lon="1.89544">
        <ele>145.092417</ele>
        <time>2026-08-29T11:28:11Z</time>
      </trkpt>
      <trkpt lat="43.91785" lon="1.89541">
        <ele>145.146211</ele>
        <time>2026-08-29T11:28:12Z</time>
      </trkpt>
      <trkpt lat="43.91789" lon="1.89536">
        <ele>145.200207</ele>
        <time>2026-08-29T11:28:13Z</time>
      </trkpt>
      <trkpt lat="43.91792" lon="1.89532">
        <ele>145.254204</ele>
        <time>2026-08-29T11:28:14Z</time>
      </trkpt>
      <trkpt lat="43.91796" lon="1.89528">
        <ele>145.306858</ele>
        <time>2026-08-29T11:28:15Z</time>
      </trkpt>
      <trkpt lat="43.918" lon="1.89523">
        <ele>145.359513</ele>
        <time>2026-08-29T11:28:16Z</time>
      </trkpt>
      <trkpt lat="43.91804" lon="1.89519">
        <ele>145.411551</ele>
        <time>2026-08-29T11:28:17Z</time>
      </trkpt>
      <trkpt lat="43.91808" lon="1.89516">
        <ele>145.463097</ele>
        <time>2026-08-29T11:28:18Z</time>
      </trkpt>
      <trkpt lat="43.91811" lon="1.89512">
        <ele>145.513772</ele>
        <time>2026-08-29T11:28:19Z</time>
      </trkpt>
      <trkpt lat="43.91815" lon="1.89509">
        <ele>145.564952</ele>
        <time>2026-08-29T11:28:20Z</time>
      </trkpt>
      <trkpt lat="43.91819" lon="1.89505">
        <ele>145.615205</ele>
        <time>2026-08-29T11:28:21Z</time>
      </trkpt>
      <trkpt lat="43.91823" lon="1.89502">
        <ele>145.664967</ele>
        <time>2026-08-29T11:28:22Z</time>
      </trkpt>
      <trkpt lat="43.91827" lon="1.89498">
        <ele>145.717418</ele>
        <time>2026-08-29T11:28:23Z</time>
      </trkpt>
      <trkpt lat="43.91831" lon="1.89494">
        <ele>145.769411</ele>
        <time>2026-08-29T11:28:24Z</time>
      </trkpt>
      <trkpt lat="43.91835" lon="1.89491">
        <ele>145.820956</ele>
        <time>2026-08-29T11:28:25Z</time>
      </trkpt>
      <trkpt lat="43.91839" lon="1.89487">
        <ele>145.872949</ele>
        <time>2026-08-29T11:28:26Z</time>
      </trkpt>
      <trkpt lat="43.91843" lon="1.89483">
        <ele>145.922711</ele>
        <time>2026-08-29T11:28:27Z</time>
      </trkpt>
      <trkpt lat="43.91847" lon="1.89479">
        <ele>145.974704</ele>
        <time>2026-08-29T11:28:28Z</time>
      </trkpt>
      <trkpt lat="43.91851" lon="1.89476">
        <ele>146.029842</ele>
        <time>2026-08-29T11:28:29Z</time>
      </trkpt>
      <trkpt lat="43.91855" lon="1.89471">
        <ele>146.087668</ele>
        <time>2026-08-29T11:28:30Z</time>
      </trkpt>
      <trkpt lat="43.91859" lon="1.89467">
        <ele>146.143696</ele>
        <time>2026-08-29T11:28:31Z</time>
      </trkpt>
      <trkpt lat="43.91864" lon="1.89464">
        <ele>146.198401</ele>
        <time>2026-08-29T11:28:32Z</time>
      </trkpt>
      <trkpt lat="43.91868" lon="1.8946">
        <ele>146.239737</ele>
        <time>2026-08-29T11:28:33Z</time>
      </trkpt>
      <trkpt lat="43.91873" lon="1.89457">
        <ele>146.262098</ele>
        <time>2026-08-29T11:28:34Z</time>
      </trkpt>
      <trkpt lat="43.91878" lon="1.89454">
        <ele>146.285355</ele>
        <time>2026-08-29T11:28:35Z</time>
      </trkpt>
      <trkpt lat="43.91883" lon="1.89451">
        <ele>146.308786</ele>
        <time>2026-08-29T11:28:36Z</time>
      </trkpt>
      <trkpt lat="43.91888" lon="1.89447">
        <ele>146.332432</ele>
        <time>2026-08-29T11:28:37Z</time>
      </trkpt>
      <trkpt lat="43.91893" lon="1.89445">
        <ele>146.355986</ele>
        <time>2026-08-29T11:28:38Z</time>
      </trkpt>
      <trkpt lat="43.91898" lon="1.89442">
        <ele>146.379775</ele>
        <time>2026-08-29T11:28:39Z</time>
      </trkpt>
      <trkpt lat="43.91903" lon="1.89439">
        <ele>146.402305</ele>
        <time>2026-08-29T11:28:40Z</time>
      </trkpt>
      <trkpt lat="43.91908" lon="1.89436">
        <ele>146.425638</ele>
        <time>2026-08-29T11:28:41Z</time>
      </trkpt>
      <trkpt lat="43.91913" lon="1.89434">
        <ele>146.449193</ele>
        <time>2026-08-29T11:28:42Z</time>
      </trkpt>
      <trkpt lat="43.91918" lon="1.8943">
        <ele>146.472319</ele>
        <time>2026-08-29T11:28:43Z</time>
      </trkpt>
      <trkpt lat="43.91923" lon="1.89427">
        <ele>146.496625</ele>
        <time>2026-08-29T11:28:44Z</time>
      </trkpt>
      <trkpt lat="43.91928" lon="1.89425">
        <ele>146.519854</ele>
        <time>2026-08-29T11:28:45Z</time>
      </trkpt>
      <trkpt lat="43.91933" lon="1.89422">
        <ele>146.543488</ele>
        <time>2026-08-29T11:28:46Z</time>
      </trkpt>
      <trkpt lat="43.91939" lon="1.8942">
        <ele>146.566835</ele>
        <time>2026-08-29T11:28:47Z</time>
      </trkpt>
      <trkpt lat="43.91944" lon="1.89418">
        <ele>146.590593</ele>
        <time>2026-08-29T11:28:48Z</time>
      </trkpt>
      <trkpt lat="43.91949" lon="1.89416">
        <ele>146.614032</ele>
        <time>2026-08-29T11:28:49Z</time>
      </trkpt>
      <trkpt lat="43.91954" lon="1.89413">
        <ele>146.637821</ele>
        <time>2026-08-29T11:28:50Z</time>
      </trkpt>
      <trkpt lat="43.91959" lon="1.8941">
        <ele>146.659531</ele>
        <time>2026-08-29T11:28:51Z</time>
      </trkpt>
      <trkpt lat="43.91964" lon="1.89408">
        <ele>146.681746</ele>
        <time>2026-08-29T11:28:52Z</time>
      </trkpt>
      <trkpt lat="43.91969" lon="1.89406">
        <ele>146.704272</ele>
        <time>2026-08-29T11:28:53Z</time>
      </trkpt>
      <trkpt lat="43.91974" lon="1.89404">
        <ele>146.726081</ele>
        <time>2026-08-29T11:28:54Z</time>
      </trkpt>
      <trkpt lat="43.91979" lon="1.89401">
        <ele>146.748199</ele>
        <time>2026-08-29T11:28:55Z</time>
      </trkpt>
      <trkpt lat="43.91983" lon="1.89399">
        <ele>146.770223</ele>
        <time>2026-08-29T11:28:56Z</time>
      </trkpt>
      <trkpt lat="43.91988" lon="1.89397">
        <ele>146.79275</ele>
        <time>2026-08-29T11:28:57Z</time>
      </trkpt>
      <trkpt lat="43.91993" lon="1.89395">
        <ele>146.815186</ele>
        <time>2026-08-29T11:28:58Z</time>
      </trkpt>
      <trkpt lat="43.91998" lon="1.89393">
        <ele>146.83745</ele>
        <time>2026-08-29T11:28:59Z</time>
      </trkpt>
      <trkpt lat="43.92003" lon="1.89391">
        <ele>146.859385</ele>
        <time>2026-08-29T11:29:00Z</time>
      </trkpt>
      <trkpt lat="43.92008" lon="1.89389">
        <ele>146.880497</ele>
        <time>2026-08-29T11:29:01Z</time>
      </trkpt>
      <trkpt lat="43.92013" lon="1.89387">
        <ele>146.9012</ele>
        <time>2026-08-29T11:29:02Z</time>
      </trkpt>
      <trkpt lat="43.92017" lon="1.89385">
        <ele>146.922723</ele>
        <time>2026-08-29T11:29:03Z</time>
      </trkpt>
      <trkpt lat="43.92022" lon="1.89383">
        <ele>146.944659</ele>
        <time>2026-08-29T11:29:04Z</time>
      </trkpt>
      <trkpt lat="43.92027" lon="1.89381">
        <ele>146.967281</ele>
        <time>2026-08-29T11:29:05Z</time>
      </trkpt>
      <trkpt lat="43.92032" lon="1.89378">
        <ele>146.988897</ele>
        <time>2026-08-29T11:29:06Z</time>
      </trkpt>
      <trkpt lat="43.92037" lon="1.89376">
        <ele>147.012582</ele>
        <time>2026-08-29T11:29:07Z</time>
      </trkpt>
      <trkpt lat="43.92041" lon="1.89373">
        <ele>147.038617</ele>
        <time>2026-08-29T11:29:08Z</time>
      </trkpt>
      <trkpt lat="43.92046" lon="1.8937">
        <ele>147.064801</ele>
        <time>2026-08-29T11:29:09Z</time>
      </trkpt>
      <trkpt lat="43.9205" lon="1.89367">
        <ele>147.090664</ele>
        <time>2026-08-29T11:29:10Z</time>
      </trkpt>
      <trkpt lat="43.92055" lon="1.89364">
        <ele>147.116848</ele>
        <time>2026-08-29T11:29:11Z</time>
      </trkpt>
      <trkpt lat="43.9206" lon="1.89362">
        <ele>147.143031</ele>
        <time>2026-08-29T11:29:12Z</time>
      </trkpt>
      <trkpt lat="43.92065" lon="1.89359">
        <ele>147.170514</ele>
        <time>2026-08-29T11:29:13Z</time>
      </trkpt>
      <trkpt lat="43.92069" lon="1.89356">
        <ele>147.198282</ele>
        <time>2026-08-29T11:29:14Z</time>
      </trkpt>
      <trkpt lat="43.92074" lon="1.89353">
        <ele>147.225249</ele>
        <time>2026-08-29T11:29:15Z</time>
      </trkpt>
      <trkpt lat="43.92079" lon="1.8935">
        <ele>147.251586</ele>
        <time>2026-08-29T11:29:16Z</time>
      </trkpt>
      <trkpt lat="43.92083" lon="1.89348">
        <ele>147.277074</ele>
        <time>2026-08-29T11:29:17Z</time>
      </trkpt>
      <trkpt lat="43.92088" lon="1.89346">
        <ele>147.302437</ele>
        <time>2026-08-29T11:29:18Z</time>
      </trkpt>
      <trkpt lat="43.92093" lon="1.89343">
        <ele>147.329099</ele>
        <time>2026-08-29T11:29:19Z</time>
      </trkpt>
      <trkpt lat="43.92097" lon="1.8934">
        <ele>147.354851</ele>
        <time>2026-08-29T11:29:20Z</time>
      </trkpt>
      <trkpt lat="43.92102" lon="1.89338">
        <ele>147.380468</ele>
        <time>2026-08-29T11:29:21Z</time>
      </trkpt>
      <trkpt lat="43.92106" lon="1.89335">
        <ele>147.405397</ele>
        <time>2026-08-29T11:29:22Z</time>
      </trkpt>
      <trkpt lat="43.92111" lon="1.89333">
        <ele>147.429999</ele>
        <time>2026-08-29T11:29:23Z</time>
      </trkpt>
      <trkpt lat="43.92115" lon="1.8933">
        <ele>147.454758</ele>
        <time>2026-08-29T11:29:24Z</time>
      </trkpt>
      <trkpt lat="43.92119" lon="1.89327">
        <ele>147.47968</ele>
        <time>2026-08-29T11:29:25Z</time>
      </trkpt>
      <trkpt lat="43.92123" lon="1.89324">
        <ele>147.504601</ele>
        <time>2026-08-29T11:29:26Z</time>
      </trkpt>
      <trkpt lat="43.92128" lon="1.89321">
        <ele>147.529992</ele>
        <time>2026-08-29T11:29:27Z</time>
      </trkpt>
      <trkpt lat="43.92132" lon="1.89318">
        <ele>147.55525</ele>
        <time>2026-08-29T11:29:28Z</time>
      </trkpt>
      <trkpt lat="43.92137" lon="1.89315">
        <ele>147.581113</ele>
        <time>2026-08-29T11:29:29Z</time>
      </trkpt>
      <trkpt lat="43.92141" lon="1.89312">
        <ele>147.607607</ele>
        <time>2026-08-29T11:29:30Z</time>
      </trkpt>
      <trkpt lat="43.92146" lon="1.89309">
        <ele>147.633163</ele>
        <time>2026-08-29T11:29:31Z</time>
      </trkpt>
      <trkpt lat="43.9215" lon="1.89306">
        <ele>147.659819</ele>
        <time>2026-08-29T11:29:32Z</time>
      </trkpt>
      <trkpt lat="43.92155" lon="1.89303">
        <ele>147.686631</ele>
        <time>2026-08-29T11:29:33Z</time>
      </trkpt>
      <trkpt lat="43.9216" lon="1.893">
        <ele>147.713453</ele>
        <time>2026-08-29T11:29:34Z</time>
      </trkpt>
      <trkpt lat="43.92164" lon="1.89297">
        <ele>147.739347</ele>
        <time>2026-08-29T11:29:35Z</time>
      </trkpt>
      <trkpt lat="43.92168" lon="1.89294">
        <ele>147.765241</ele>
        <time>2026-08-29T11:29:36Z</time>
      </trkpt>
      <trkpt lat="43.92173" lon="1.89291">
        <ele>147.791429</ele>
        <time>2026-08-29T11:29:37Z</time>
      </trkpt>
      <trkpt lat="43.92177" lon="1.89288">
        <ele>147.816517</ele>
        <time>2026-08-29T11:29:38Z</time>
      </trkpt>
      <trkpt lat="43.92182" lon="1.89285">
        <ele>147.842705</ele>
        <time>2026-08-29T11:29:39Z</time>
      </trkpt>
      <trkpt lat="43.92186" lon="1.89281">
        <ele>147.868775</ele>
        <time>2026-08-29T11:29:40Z</time>
      </trkpt>
      <trkpt lat="43.9219" lon="1.89278">
        <ele>147.894388</ele>
        <time>2026-08-29T11:29:41Z</time>
      </trkpt>
      <trkpt lat="43.92195" lon="1.89275">
        <ele>147.920459</ele>
        <time>2026-08-29T11:29:42Z</time>
      </trkpt>
      <trkpt lat="43.92199" lon="1.89272">
        <ele>147.948823</ele>
        <time>2026-08-29T11:29:43Z</time>
      </trkpt>
      <trkpt lat="43.92203" lon="1.89268">
        <ele>147.98758</ele>
        <time>2026-08-29T11:29:44Z</time>
      </trkpt>
      <trkpt lat="43.92208" lon="1.89265">
        <ele>148.026336</ele>
        <time>2026-08-29T11:29:45Z</time>
      </trkpt>
      <trkpt lat="43.92212" lon="1.89262">
        <ele>148.065933</ele>
        <time>2026-08-29T11:29:46Z</time>
      </trkpt>
      <trkpt lat="43.92216" lon="1.89258">
        <ele>148.104554</ele>
        <time>2026-08-29T11:29:47Z</time>
      </trkpt>
      <trkpt lat="43.9222" lon="1.89255">
        <ele>148.143176</ele>
        <time>2026-08-29T11:29:48Z</time>
      </trkpt>
      <trkpt lat="43.92225" lon="1.89251">
        <ele>148.182772</ele>
        <time>2026-08-29T11:29:49Z</time>
      </trkpt>
      <trkpt lat="43.92229" lon="1.89248">
        <ele>148.221685</ele>
        <time>2026-08-29T11:29:50Z</time>
      </trkpt>
      <trkpt lat="43.92233" lon="1.89244">
        <ele>148.260222</ele>
        <time>2026-08-29T11:29:51Z</time>
      </trkpt>
      <trkpt lat="43.92237" lon="1.89241">
        <ele>148.296805</ele>
        <time>2026-08-29T11:29:52Z</time>
      </trkpt>
      <trkpt lat="43.92241" lon="1.89237">
        <ele>148.334987</ele>
        <time>2026-08-29T11:29:53Z</time>
      </trkpt>
      <trkpt lat="43.92245" lon="1.89233">
        <ele>148.375126</ele>
        <time>2026-08-29T11:29:54Z</time>
      </trkpt>
      <trkpt lat="43.92249" lon="1.89229">
        <ele>148.415265</ele>
        <time>2026-08-29T11:29:55Z</time>
      </trkpt>
      <trkpt lat="43.92253" lon="1.89225">
        <ele>148.454474</ele>
        <time>2026-08-29T11:29:56Z</time>
      </trkpt>
      <trkpt lat="43.92257" lon="1.89221">
        <ele>148.495372</ele>
        <time>2026-08-29T11:29:57Z</time>
      </trkpt>
      <trkpt lat="43.92261" lon="1.89216">
        <ele>148.534679</ele>
        <time>2026-08-29T11:29:58Z</time>
      </trkpt>
      <trkpt lat="43.92265" lon="1.89212">
        <ele>148.574519</ele>
        <time>2026-08-29T11:29:59Z</time>
      </trkpt>
      <trkpt lat="43.92269" lon="1.89208">
        <ele>148.613679</ele>
        <time>2026-08-29T11:30:00Z</time>
      </trkpt>
      <trkpt lat="43.92273" lon="1.89204">
        <ele>148.653818</ele>
        <time>2026-08-29T11:30:01Z</time>
      </trkpt>
      <trkpt lat="43.92277" lon="1.892">
        <ele>148.69107</ele>
        <time>2026-08-29T11:30:02Z</time>
      </trkpt>
      <trkpt lat="43.92281" lon="1.89196">
        <ele>148.729654</ele>
        <time>2026-08-29T11:30:03Z</time>
      </trkpt>
      <trkpt lat="43.92284" lon="1.89191">
        <ele>148.767379</ele>
        <time>2026-08-29T11:30:04Z</time>
      </trkpt>
      <trkpt lat="43.92288" lon="1.89187">
        <ele>148.804887</ele>
        <time>2026-08-29T11:30:05Z</time>
      </trkpt>
      <trkpt lat="43.92291" lon="1.89183">
        <ele>148.843588</ele>
        <time>2026-08-29T11:30:06Z</time>
      </trkpt>
      <trkpt lat="43.92295" lon="1.89178">
        <ele>148.883426</ele>
        <time>2026-08-29T11:30:07Z</time>
      </trkpt>
      <trkpt lat="43.92299" lon="1.89173">
        <ele>148.923265</ele>
        <time>2026-08-29T11:30:08Z</time>
      </trkpt>
      <trkpt lat="43.92302" lon="1.89169">
        <ele>148.961965</ele>
        <time>2026-08-29T11:30:09Z</time>
      </trkpt>
      <trkpt lat="43.92306" lon="1.89164">
        <ele>149.001272</ele>
        <time>2026-08-29T11:30:10Z</time>
      </trkpt>
      <trkpt lat="43.9231" lon="1.8916">
        <ele>149.039973</ele>
        <time>2026-08-29T11:30:11Z</time>
      </trkpt>
      <trkpt lat="43.92314" lon="1.89155">
        <ele>149.080022</ele>
        <time>2026-08-29T11:30:12Z</time>
      </trkpt>
      <trkpt lat="43.92318" lon="1.89151">
        <ele>149.119943</ele>
        <time>2026-08-29T11:30:13Z</time>
      </trkpt>
      <trkpt lat="43.92321" lon="1.89147">
        <ele>149.15925</ele>
        <time>2026-08-29T11:30:14Z</time>
      </trkpt>
      <trkpt lat="43.92325" lon="1.89142">
        <ele>149.198812</ele>
        <time>2026-08-29T11:30:15Z</time>
      </trkpt>
      <trkpt lat="43.92329" lon="1.89138">
        <ele>149.236351</ele>
        <time>2026-08-29T11:30:16Z</time>
      </trkpt>
      <trkpt lat="43.92333" lon="1.89134">
        <ele>149.275051</ele>
        <time>2026-08-29T11:30:17Z</time>
      </trkpt>
      <trkpt lat="43.92337" lon="1.8913">
        <ele>149.311955</ele>
        <time>2026-08-29T11:30:18Z</time>
      </trkpt>
      <trkpt lat="43.9234" lon="1.89126">
        <ele>149.348583</ele>
        <time>2026-08-29T11:30:19Z</time>
      </trkpt>
      <trkpt lat="43.92344" lon="1.89122">
        <ele>149.377409</ele>
        <time>2026-08-29T11:30:20Z</time>
      </trkpt>
      <trkpt lat="43.92347" lon="1.89117">
        <ele>149.397778</ele>
        <time>2026-08-29T11:30:21Z</time>
      </trkpt>
      <trkpt lat="43.92351" lon="1.89113">
        <ele>149.419421</ele>
        <time>2026-08-29T11:30:22Z</time>
      </trkpt>
      <trkpt lat="43.92354" lon="1.89108">
        <ele>149.441166</ele>
        <time>2026-08-29T11:30:23Z</time>
      </trkpt>
      <trkpt lat="43.92358" lon="1.89103">
        <ele>149.463443</ele>
        <time>2026-08-29T11:30:24Z</time>
      </trkpt>
      <trkpt lat="43.92362" lon="1.89099">
        <ele>149.485037</ele>
        <time>2026-08-29T11:30:25Z</time>
      </trkpt>
      <trkpt lat="43.92366" lon="1.89095">
        <ele>149.505344</ele>
        <time>2026-08-29T11:30:26Z</time>
      </trkpt>
      <trkpt lat="43.92369" lon="1.89091">
        <ele>149.524401</ele>
        <time>2026-08-29T11:30:27Z</time>
      </trkpt>
      <trkpt lat="43.92373" lon="1.89088">
        <ele>149.543192</ele>
        <time>2026-08-29T11:30:28Z</time>
      </trkpt>
      <trkpt lat="43.92376" lon="1.89084">
        <ele>149.559854</ele>
        <time>2026-08-29T11:30:29Z</time>
      </trkpt>
      <trkpt lat="43.92378" lon="1.89081">
        <ele>149.574388</ele>
        <time>2026-08-29T11:30:30Z</time>
      </trkpt>
      <trkpt lat="43.9238" lon="1.89078">
        <ele>149.586344</ele>
        <time>2026-08-29T11:30:31Z</time>
      </trkpt>
      <trkpt lat="43.92381" lon="1.89075">
        <ele>149.595989</ele>
        <time>2026-08-29T11:30:32Z</time>
      </trkpt>
      <trkpt lat="43.92382" lon="1.89074">
        <ele>149.603361</ele>
        <time>2026-08-29T11:30:33Z</time>
      </trkpt>
      <trkpt lat="43.92383" lon="1.89072">
        <ele>149.609427</ele>
        <time>2026-08-29T11:30:34Z</time>
      </trkpt>
      <trkpt lat="43.92384" lon="1.89072">
        <ele>149.61486</ele>
        <time>2026-08-29T11:30:35Z</time>
      </trkpt>
      <trkpt lat="43.92386" lon="1.89072">
        <ele>149.621483</ele>
        <time>2026-08-29T11:30:36Z</time>
      </trkpt>
      <trkpt lat="43.92388" lon="1.8907">
        <ele>149.630409</ele>
        <time>2026-08-29T11:30:37Z</time>
      </trkpt>
      <trkpt lat="43.9239" lon="1.89069">
        <ele>149.640957</ele>
        <time>2026-08-29T11:30:38Z</time>
      </trkpt>
      <trkpt lat="43.92393" lon="1.89068">
        <ele>149.653687</ele>
        <time>2026-08-29T11:30:39Z</time>
      </trkpt>
      <trkpt lat="43.92396" lon="1.89066">
        <ele>149.667727</ele>
        <time>2026-08-29T11:30:40Z</time>
      </trkpt>
      <trkpt lat="43.92399" lon="1.89063">
        <ele>149.684336</ele>
        <time>2026-08-29T11:30:41Z</time>
      </trkpt>
      <trkpt lat="43.92403" lon="1.8906">
        <ele>149.701852</ele>
        <time>2026-08-29T11:30:42Z</time>
      </trkpt>
      <trkpt lat="43.92406" lon="1.89057">
        <ele>149.720506</ele>
        <time>2026-08-29T11:30:43Z</time>
      </trkpt>
      <trkpt lat="43.9241" lon="1.89054">
        <ele>149.739992</ele>
        <time>2026-08-29T11:30:44Z</time>
      </trkpt>
      <trkpt lat="43.92414" lon="1.89051">
        <ele>149.759478</ele>
        <time>2026-08-29T11:30:45Z</time>
      </trkpt>
      <trkpt lat="43.92418" lon="1.89048">
        <ele>149.77875</ele>
        <time>2026-08-29T11:30:46Z</time>
      </trkpt>
      <trkpt lat="43.92422" lon="1.89045">
        <ele>149.797819</ele>
        <time>2026-08-29T11:30:47Z</time>
      </trkpt>
      <trkpt lat="43.92425" lon="1.89041">
        <ele>149.816706</ele>
        <time>2026-08-29T11:30:48Z</time>
      </trkpt>
      <trkpt lat="43.92429" lon="1.89038">
        <ele>149.836297</ele>
        <time>2026-08-29T11:30:49Z</time>
      </trkpt>
      <trkpt lat="43.92433" lon="1.89034">
        <ele>149.856634</ele>
        <time>2026-08-29T11:30:50Z</time>
      </trkpt>
      <trkpt lat="43.92437" lon="1.8903">
        <ele>149.877891</ele>
        <time>2026-08-29T11:30:51Z</time>
      </trkpt>
      <trkpt lat="43.92441" lon="1.89026">
        <ele>149.899827</ele>
        <time>2026-08-29T11:30:52Z</time>
      </trkpt>
      <trkpt lat="43.92445" lon="1.89021">
        <ele>149.92192</ele>
        <time>2026-08-29T11:30:53Z</time>
      </trkpt>
      <trkpt lat="43.92449" lon="1.89017">
        <ele>149.945269</ele>
        <time>2026-08-29T11:30:54Z</time>
      </trkpt>
      <trkpt lat="43.92453" lon="1.89012">
        <ele>149.968083</ele>
        <time>2026-08-29T11:30:55Z</time>
      </trkpt>
      <trkpt lat="43.92457" lon="1.89008">
        <ele>149.990346</ele>
        <time>2026-08-29T11:30:56Z</time>
      </trkpt>
      <trkpt lat="43.92462" lon="1.89005">
        <ele>150.011586</ele>
        <time>2026-08-29T11:30:57Z</time>
      </trkpt>
      <trkpt lat="43.92466" lon="1.89001">
        <ele>150.032456</ele>
        <time>2026-08-29T11:30:58Z</time>
      </trkpt>
      <trkpt lat="43.9247" lon="1.88998">
        <ele>150.053164</ele>
        <time>2026-08-29T11:30:59Z</time>
      </trkpt>
      <trkpt lat="43.92474" lon="1.88995">
        <ele>150.073132</ele>
        <time>2026-08-29T11:31:00Z</time>
      </trkpt>
      <trkpt lat="43.92478" lon="1.88991">
        <ele>150.092567</ele>
        <time>2026-08-29T11:31:01Z</time>
      </trkpt>
      <trkpt lat="43.92482" lon="1.88988">
        <ele>150.112281</ele>
        <time>2026-08-29T11:31:02Z</time>
      </trkpt>
      <trkpt lat="43.92486" lon="1.88985">
        <ele>150.132298</ele>
        <time>2026-08-29T11:31:03Z</time>
      </trkpt>
      <trkpt lat="43.92489" lon="1.88982">
        <ele>150.152664</ele>
        <time>2026-08-29T11:31:04Z</time>
      </trkpt>
      <trkpt lat="43.92494" lon="1.88979">
        <ele>150.181668</ele>
        <time>2026-08-29T11:31:05Z</time>
      </trkpt>
      <trkpt lat="43.92498" lon="1.88977">
        <ele>150.209393</ele>
        <time>2026-08-29T11:31:06Z</time>
      </trkpt>
      <trkpt lat="43.92503" lon="1.88974">
        <ele>150.240496</ele>
        <time>2026-08-29T11:31:07Z</time>
      </trkpt>
      <trkpt lat="43.92508" lon="1.88972">
        <ele>150.27174</ele>
        <time>2026-08-29T11:31:08Z</time>
      </trkpt>
      <trkpt lat="43.92513" lon="1.8897">
        <ele>150.302972</ele>
        <time>2026-08-29T11:31:09Z</time>
      </trkpt>
      <trkpt lat="43.92517" lon="1.88969">
        <ele>150.33189</ele>
        <time>2026-08-29T11:31:10Z</time>
      </trkpt>
      <trkpt lat="43.92522" lon="1.88968">
        <ele>150.362156</ele>
        <time>2026-08-29T11:31:11Z</time>
      </trkpt>
      <trkpt lat="43.92527" lon="1.88966">
        <ele>150.392106</ele>
        <time>2026-08-29T11:31:12Z</time>
      </trkpt>
      <trkpt lat="43.92532" lon="1.88965">
        <ele>150.421863</ele>
        <time>2026-08-29T11:31:13Z</time>
      </trkpt>
      <trkpt lat="43.92537" lon="1.88964">
        <ele>150.453322</ele>
        <time>2026-08-29T11:31:14Z</time>
      </trkpt>
      <trkpt lat="43.92541" lon="1.88962">
        <ele>150.478702</ele>
        <time>2026-08-29T11:31:15Z</time>
      </trkpt>
      <trkpt lat="43.92545" lon="1.88961">
        <ele>150.50373</ele>
        <time>2026-08-29T11:31:16Z</time>
      </trkpt>
      <trkpt lat="43.92549" lon="1.88959">
        <ele>150.529837</ele>
        <time>2026-08-29T11:31:17Z</time>
      </trkpt>
      <trkpt lat="43.92553" lon="1.88958">
        <ele>150.556536</ele>
        <time>2026-08-29T11:31:18Z</time>
      </trkpt>
      <trkpt lat="43.92558" lon="1.88957">
        <ele>150.584337</ele>
        <time>2026-08-29T11:31:19Z</time>
      </trkpt>
      <trkpt lat="43.92562" lon="1.88956">
        <ele>150.611987</ele>
        <time>2026-08-29T11:31:20Z</time>
      </trkpt>
      <trkpt lat="43.92567" lon="1.88955">
        <ele>150.640171</ele>
        <time>2026-08-29T11:31:21Z</time>
      </trkpt>
      <trkpt lat="43.92572" lon="1.88954">
        <ele>150.670104</ele>
        <time>2026-08-29T11:31:22Z</time>
      </trkpt>
      <trkpt lat="43.92577" lon="1.88953">
        <ele>150.700553</ele>
        <time>2026-08-29T11:31:23Z</time>
      </trkpt>
      <trkpt lat="43.92582" lon="1.88953">
        <ele>150.730916</ele>
        <time>2026-08-29T11:31:24Z</time>
      </trkpt>
      <trkpt lat="43.92587" lon="1.88953">
        <ele>150.760674</ele>
        <time>2026-08-29T11:31:25Z</time>
      </trkpt>
      <trkpt lat="43.92592" lon="1.88952">
        <ele>150.791059</ele>
        <time>2026-08-29T11:31:26Z</time>
      </trkpt>
      <trkpt lat="43.92597" lon="1.88952">
        <ele>150.821473</ele>
        <time>2026-08-29T11:31:27Z</time>
      </trkpt>
      <trkpt lat="43.92602" lon="1.88951">
        <ele>150.852492</ele>
        <time>2026-08-29T11:31:28Z</time>
      </trkpt>
      <trkpt lat="43.92607" lon="1.88951">
        <ele>150.882831</ele>
        <time>2026-08-29T11:31:29Z</time>
      </trkpt>
      <trkpt lat="43.92612" lon="1.88951">
        <ele>150.912563</ele>
        <time>2026-08-29T11:31:30Z</time>
      </trkpt>
      <trkpt lat="43.92617" lon="1.88951">
        <ele>150.942304</ele>
        <time>2026-08-29T11:31:31Z</time>
      </trkpt>
      <trkpt lat="43.92622" lon="1.88951">
        <ele>150.972046</ele>
        <time>2026-08-29T11:31:32Z</time>
      </trkpt>
      <trkpt lat="43.92627" lon="1.88951">
        <ele>151.003</ele>
        <time>2026-08-29T11:31:33Z</time>
      </trkpt>
      <trkpt lat="43.92632" lon="1.8895">
        <ele>151.033954</ele>
        <time>2026-08-29T11:31:34Z</time>
      </trkpt>
      <trkpt lat="43.92637" lon="1.8895">
        <ele>151.064302</ele>
        <time>2026-08-29T11:31:35Z</time>
      </trkpt>
      <trkpt lat="43.92642" lon="1.8895">
        <ele>151.09465</ele>
        <time>2026-08-29T11:31:36Z</time>
      </trkpt>
      <trkpt lat="43.92647" lon="1.88949">
        <ele>151.125099</ele>
        <time>2026-08-29T11:31:37Z</time>
      </trkpt>
      <trkpt lat="43.92652" lon="1.88949">
        <ele>151.156756</ele>
        <time>2026-08-29T11:31:38Z</time>
      </trkpt>
      <trkpt lat="43.92657" lon="1.88948">
        <ele>151.187205</ele>
        <time>2026-08-29T11:31:39Z</time>
      </trkpt>
      <trkpt lat="43.92662" lon="1.88947">
        <ele>151.218344</ele>
        <time>2026-08-29T11:31:40Z</time>
      </trkpt>
      <trkpt lat="43.92667" lon="1.88946">
        <ele>151.271409</ele>
        <time>2026-08-29T11:31:41Z</time>
      </trkpt>
      <trkpt lat="43.92672" lon="1.88945">
        <ele>151.364626</ele>
        <time>2026-08-29T11:31:42Z</time>
      </trkpt>
      <trkpt lat="43.92677" lon="1.88944">
        <ele>151.456742</ele>
        <time>2026-08-29T11:31:43Z</time>
      </trkpt>
      <trkpt lat="43.92682" lon="1.88942">
        <ele>151.547638</ele>
        <time>2026-08-29T11:31:44Z</time>
      </trkpt>
      <trkpt lat="43.92687" lon="1.88941">
        <ele>151.636745</ele>
        <time>2026-08-29T11:31:45Z</time>
      </trkpt>
      <trkpt lat="43.92691" lon="1.88939">
        <ele>151.724747</ele>
        <time>2026-08-29T11:31:46Z</time>
      </trkpt>
      <trkpt lat="43.92696" lon="1.88937">
        <ele>151.810859</ele>
        <time>2026-08-29T11:31:47Z</time>
      </trkpt>
      <trkpt lat="43.927" lon="1.88934">
        <ele>151.89743</ele>
        <time>2026-08-29T11:31:48Z</time>
      </trkpt>
      <trkpt lat="43.92704" lon="1.88932">
        <ele>151.982105</ele>
        <time>2026-08-29T11:31:49Z</time>
      </trkpt>
      <trkpt lat="43.92708" lon="1.88929">
        <ele>152.066239</ele>
        <time>2026-08-29T11:31:50Z</time>
      </trkpt>
      <trkpt lat="43.92713" lon="1.88926">
        <ele>152.152599</ele>
        <time>2026-08-29T11:31:51Z</time>
      </trkpt>
      <trkpt lat="43.92717" lon="1.88924">
        <ele>152.24014</ele>
        <time>2026-08-29T11:31:52Z</time>
      </trkpt>
      <trkpt lat="43.92722" lon="1.88922">
        <ele>152.328903</ele>
        <time>2026-08-29T11:31:53Z</time>
      </trkpt>
      <trkpt lat="43.92726" lon="1.88919">
        <ele>152.414239</ele>
        <time>2026-08-29T11:31:54Z</time>
      </trkpt>
      <trkpt lat="43.9273" lon="1.88917">
        <ele>152.499911</ele>
        <time>2026-08-29T11:31:55Z</time>
      </trkpt>
      <trkpt lat="43.92735" lon="1.88915">
        <ele>152.583002</ele>
        <time>2026-08-29T11:31:56Z</time>
      </trkpt>
      <trkpt lat="43.92739" lon="1.88914">
        <ele>152.666754</ele>
        <time>2026-08-29T11:31:57Z</time>
      </trkpt>
      <trkpt lat="43.92744" lon="1.88912">
        <ele>152.752288</ele>
        <time>2026-08-29T11:31:58Z</time>
      </trkpt>
      <trkpt lat="43.92748" lon="1.8891">
        <ele>152.837823</ele>
        <time>2026-08-29T11:31:59Z</time>
      </trkpt>
      <trkpt lat="43.92753" lon="1.88909">
        <ele>152.923357</ele>
        <time>2026-08-29T11:32:00Z</time>
      </trkpt>
      <trkpt lat="43.92757" lon="1.88907">
        <ele>153.01007</ele>
        <time>2026-08-29T11:32:01Z</time>
      </trkpt>
      <trkpt lat="43.92762" lon="1.88906">
        <ele>153.096783</ele>
        <time>2026-08-29T11:32:02Z</time>
      </trkpt>
      <trkpt lat="43.92766" lon="1.88904">
        <ele>153.178422</ele>
        <time>2026-08-29T11:32:03Z</time>
      </trkpt>
      <trkpt lat="43.9277" lon="1.88903">
        <ele>153.259455</ele>
        <time>2026-08-29T11:32:04Z</time>
      </trkpt>
      <trkpt lat="43.92775" lon="1.88902">
        <ele>153.33965</ele>
        <time>2026-08-29T11:32:05Z</time>
      </trkpt>
      <trkpt lat="43.92778" lon="1.889">
        <ele>153.415326</ele>
        <time>2026-08-29T11:32:06Z</time>
      </trkpt>
      <trkpt lat="43.92782" lon="1.88899">
        <ele>153.490679</ele>
        <time>2026-08-29T11:32:07Z</time>
      </trkpt>
      <trkpt lat="43.92786" lon="1.88898">
        <ele>153.56309</ele>
        <time>2026-08-29T11:32:08Z</time>
      </trkpt>
      <trkpt lat="43.9279" lon="1.88897">
        <ele>153.6355</ele>
        <time>2026-08-29T11:32:09Z</time>
      </trkpt>
      <trkpt lat="43.92794" lon="1.88897">
        <ele>153.707508</ele>
        <time>2026-08-29T11:32:10Z</time>
      </trkpt>
      <trkpt lat="43.92798" lon="1.88897">
        <ele>153.77385</ele>
        <time>2026-08-29T11:32:11Z</time>
      </trkpt>
      <trkpt lat="43.92801" lon="1.88897">
        <ele>153.842031</ele>
        <time>2026-08-29T11:32:12Z</time>
      </trkpt>
      <trkpt lat="43.92805" lon="1.88897">
        <ele>153.908373</ele>
        <time>2026-08-29T11:32:13Z</time>
      </trkpt>
      <trkpt lat="43.92808" lon="1.88898">
        <ele>153.971035</ele>
        <time>2026-08-29T11:32:14Z</time>
      </trkpt>
      <trkpt lat="43.92812" lon="1.88898">
        <ele>154.033767</ele>
        <time>2026-08-29T11:32:15Z</time>
      </trkpt>
      <trkpt lat="43.92816" lon="1.88899">
        <ele>154.106177</ele>
        <time>2026-08-29T11:32:16Z</time>
      </trkpt>
      <trkpt lat="43.92819" lon="1.88899">
        <ele>154.165827</ele>
        <time>2026-08-29T11:32:17Z</time>
      </trkpt>
      <trkpt lat="43.92822" lon="1.889">
        <ele>154.230492</ele>
        <time>2026-08-29T11:32:18Z</time>
      </trkpt>
      <trkpt lat="43.92826" lon="1.889">
        <ele>154.298674</ele>
        <time>2026-08-29T11:32:19Z</time>
      </trkpt>
      <trkpt lat="43.9283" lon="1.889">
        <ele>154.363135</ele>
        <time>2026-08-29T11:32:20Z</time>
      </trkpt>
      <trkpt lat="43.92833" lon="1.889">
        <ele>154.433219</ele>
        <time>2026-08-29T11:32:21Z</time>
      </trkpt>
      <trkpt lat="43.92837" lon="1.889">
        <ele>154.501362</ele>
        <time>2026-08-29T11:32:22Z</time>
      </trkpt>
      <trkpt lat="43.92841" lon="1.889">
        <ele>154.570461</ele>
        <time>2026-08-29T11:32:23Z</time>
      </trkpt>
      <trkpt lat="43.92844" lon="1.88901">
        <ele>154.65803</ele>
        <time>2026-08-29T11:32:24Z</time>
      </trkpt>
      <trkpt lat="43.92847" lon="1.88901">
        <ele>154.739823</ele>
        <time>2026-08-29T11:32:25Z</time>
      </trkpt>
      <trkpt lat="43.9285" lon="1.88901">
        <ele>154.827039</ele>
        <time>2026-08-29T11:32:26Z</time>
      </trkpt>
      <trkpt lat="43.92853" lon="1.88901">
        <ele>154.911807</ele>
        <time>2026-08-29T11:32:27Z</time>
      </trkpt>
      <trkpt lat="43.92856" lon="1.88901">
        <ele>154.999094</ele>
        <time>2026-08-29T11:32:28Z</time>
      </trkpt>
      <trkpt lat="43.92859" lon="1.88901">
        <ele>155.086381</ele>
        <time>2026-08-29T11:32:29Z</time>
      </trkpt>
      <trkpt lat="43.92862" lon="1.88901">
        <ele>155.162566</ele>
        <time>2026-08-29T11:32:30Z</time>
      </trkpt>
      <trkpt lat="43.92864" lon="1.88902">
        <ele>155.235807</ele>
        <time>2026-08-29T11:32:31Z</time>
      </trkpt>
      <trkpt lat="43.92867" lon="1.88902">
        <ele>155.30994</ele>
        <time>2026-08-29T11:32:32Z</time>
      </trkpt>
      <trkpt lat="43.92869" lon="1.88903">
        <ele>155.385307</ele>
        <time>2026-08-29T11:32:33Z</time>
      </trkpt>
      <trkpt lat="43.92872" lon="1.88904">
        <ele>155.457949</ele>
        <time>2026-08-29T11:32:34Z</time>
      </trkpt>
      <trkpt lat="43.92875" lon="1.88905">
        <ele>155.536049</ele>
        <time>2026-08-29T11:32:35Z</time>
      </trkpt>
      <trkpt lat="43.92877" lon="1.88906">
        <ele>155.605471</ele>
        <time>2026-08-29T11:32:36Z</time>
      </trkpt>
      <trkpt lat="43.92879" lon="1.88906">
        <ele>155.674893</ele>
        <time>2026-08-29T11:32:37Z</time>
      </trkpt>
      <trkpt lat="43.92882" lon="1.88907">
        <ele>155.738858</ele>
        <time>2026-08-29T11:32:38Z</time>
      </trkpt>
      <trkpt lat="43.92883" lon="1.88908">
        <ele>155.790925</ele>
        <time>2026-08-29T11:32:39Z</time>
      </trkpt>
      <trkpt lat="43.92885" lon="1.88908">
        <ele>155.836651</ele>
        <time>2026-08-29T11:32:40Z</time>
      </trkpt>
      <trkpt lat="43.92887" lon="1.88909">
        <ele>155.890702</ele>
        <time>2026-08-29T11:32:41Z</time>
      </trkpt>
      <trkpt lat="43.92889" lon="1.88909">
        <ele>155.944296</ele>
        <time>2026-08-29T11:32:42Z</time>
      </trkpt>
      <trkpt lat="43.92891" lon="1.88909">
        <ele>155.997775</ele>
        <time>2026-08-29T11:32:43Z</time>
      </trkpt>
      <trkpt lat="43.92893" lon="1.88909">
        <ele>156.051369</ele>
        <time>2026-08-29T11:32:44Z</time>
      </trkpt>
      <trkpt lat="43.92894" lon="1.88909">
        <ele>156.094758</ele>
        <time>2026-08-29T11:32:45Z</time>
      </trkpt>
      <trkpt lat="43.92896" lon="1.88908">
        <ele>156.140887</ele>
        <time>2026-08-29T11:32:46Z</time>
      </trkpt>
      <trkpt lat="43.92898" lon="1.88908">
        <ele>156.194672</ele>
        <time>2026-08-29T11:32:47Z</time>
      </trkpt>
      <trkpt lat="43.929" lon="1.88908">
        <ele>156.262297</ele>
        <time>2026-08-29T11:32:48Z</time>
      </trkpt>
      <trkpt lat="43.92902" lon="1.88908">
        <ele>156.32702</ele>
        <time>2026-08-29T11:32:49Z</time>
      </trkpt>
      <trkpt lat="43.92905" lon="1.88908">
        <ele>156.391712</ele>
        <time>2026-08-29T11:32:50Z</time>
      </trkpt>
      <trkpt lat="43.92907" lon="1.88908">
        <ele>156.462057</ele>
        <time>2026-08-29T11:32:51Z</time>
      </trkpt>
      <trkpt lat="43.9291" lon="1.88908">
        <ele>156.532403</ele>
        <time>2026-08-29T11:32:52Z</time>
      </trkpt>
      <trkpt lat="43.92912" lon="1.88908">
        <ele>156.605533</ele>
        <time>2026-08-29T11:32:53Z</time>
      </trkpt>
      <trkpt lat="43.92914" lon="1.88907">
        <ele>156.670351</ele>
        <time>2026-08-29T11:32:54Z</time>
      </trkpt>
      <trkpt lat="43.92917" lon="1.88907">
        <ele>156.738128</ele>
        <time>2026-08-29T11:32:55Z</time>
      </trkpt>
      <trkpt lat="43.9292" lon="1.88907">
        <ele>156.814312</ele>
        <time>2026-08-29T11:32:56Z</time>
      </trkpt>
      <trkpt lat="43.92922" lon="1.88907">
        <ele>156.890254</ele>
        <time>2026-08-29T11:32:57Z</time>
      </trkpt>
      <trkpt lat="43.92925" lon="1.88907">
        <ele>156.9606</ele>
        <time>2026-08-29T11:32:58Z</time>
      </trkpt>
      <trkpt lat="43.92927" lon="1.88906">
        <ele>157.02919</ele>
        <time>2026-08-29T11:32:59Z</time>
      </trkpt>
      <trkpt lat="43.9293" lon="1.88906">
        <ele>157.099972</ele>
        <time>2026-08-29T11:33:00Z</time>
      </trkpt>
      <trkpt lat="43.92932" lon="1.88905">
        <ele>157.16479</ele>
        <time>2026-08-29T11:33:01Z</time>
      </trkpt>
      <trkpt lat="43.92934" lon="1.88905">
        <ele>157.235136</ele>
        <time>2026-08-29T11:33:02Z</time>
      </trkpt>
      <trkpt lat="43.92937" lon="1.88905">
        <ele>157.308377</ele>
        <time>2026-08-29T11:33:03Z</time>
      </trkpt>
      <trkpt lat="43.9294" lon="1.88905">
        <ele>157.378694</ele>
        <time>2026-08-29T11:33:04Z</time>
      </trkpt>
      <trkpt lat="43.92942" lon="1.88905">
        <ele>157.449127</ele>
        <time>2026-08-29T11:33:05Z</time>
      </trkpt>
      <trkpt lat="43.92945" lon="1.88905">
        <ele>157.522509</ele>
        <time>2026-08-29T11:33:06Z</time>
      </trkpt>
      <trkpt lat="43.92947" lon="1.88905">
        <ele>157.601263</ele>
        <time>2026-08-29T11:33:07Z</time>
      </trkpt>
      <trkpt lat="43.9295" lon="1.88905">
        <ele>157.674645</ele>
        <time>2026-08-29T11:33:08Z</time>
      </trkpt>
      <trkpt lat="43.92953" lon="1.88905">
        <ele>157.753425</ele>
        <time>2026-08-29T11:33:09Z</time>
      </trkpt>
      <trkpt lat="43.92956" lon="1.88906">
        <ele>157.83004</ele>
        <time>2026-08-29T11:33:10Z</time>
      </trkpt>
      <trkpt lat="43.92958" lon="1.88906">
        <ele>157.910061</ele>
        <time>2026-08-29T11:33:11Z</time>
      </trkpt>
      <trkpt lat="43.92961" lon="1.88906">
        <ele>157.991729</ele>
        <time>2026-08-29T11:33:12Z</time>
      </trkpt>
      <trkpt lat="43.92964" lon="1.88907">
        <ele>158.081757</ele>
        <time>2026-08-29T11:33:13Z</time>
      </trkpt>
      <trkpt lat="43.92968" lon="1.88906">
        <ele>158.174597</ele>
        <time>2026-08-29T11:33:14Z</time>
      </trkpt>
      <trkpt lat="43.92971" lon="1.88907">
        <ele>158.262376</ele>
        <time>2026-08-29T11:33:15Z</time>
      </trkpt>
      <trkpt lat="43.92974" lon="1.88908">
        <ele>158.350714</ele>
        <time>2026-08-29T11:33:16Z</time>
      </trkpt>
      <trkpt lat="43.92976" lon="1.88908">
        <ele>158.418249</ele>
        <time>2026-08-29T11:33:17Z</time>
      </trkpt>
      <trkpt lat="43.9298" lon="1.88908">
        <ele>158.519687</ele>
        <time>2026-08-29T11:33:18Z</time>
      </trkpt>
      <trkpt lat="43.92983" lon="1.88908">
        <ele>158.61551</ele>
        <time>2026-08-29T11:33:19Z</time>
      </trkpt>
      <trkpt lat="43.92986" lon="1.88908">
        <ele>158.703079</ele>
        <time>2026-08-29T11:33:20Z</time>
      </trkpt>
      <trkpt lat="43.9299" lon="1.88908">
        <ele>158.793175</ele>
        <time>2026-08-29T11:33:21Z</time>
      </trkpt>
      <trkpt lat="43.92993" lon="1.88907">
        <ele>158.883385</ele>
        <time>2026-08-29T11:33:22Z</time>
      </trkpt>
      <trkpt lat="43.92996" lon="1.88907">
        <ele>158.973482</ele>
        <time>2026-08-29T11:33:23Z</time>
      </trkpt>
      <trkpt lat="43.92999" lon="1.88907">
        <ele>159.066322</ele>
        <time>2026-08-29T11:33:24Z</time>
      </trkpt>
      <trkpt lat="43.93003" lon="1.88908">
        <ele>159.181926</ele>
        <time>2026-08-29T11:33:25Z</time>
      </trkpt>
      <trkpt lat="43.93007" lon="1.88908">
        <ele>159.294432</ele>
        <time>2026-08-29T11:33:26Z</time>
      </trkpt>
      <trkpt lat="43.93011" lon="1.88907">
        <ele>159.406957</ele>
        <time>2026-08-29T11:33:27Z</time>
      </trkpt>
      <trkpt lat="43.93015" lon="1.88907">
        <ele>159.51695</ele>
        <time>2026-08-29T11:33:28Z</time>
      </trkpt>
      <trkpt lat="43.93019" lon="1.88907">
        <ele>159.606131</ele>
        <time>2026-08-29T11:33:29Z</time>
      </trkpt>
      <trkpt lat="43.93022" lon="1.88907">
        <ele>159.564297</ele>
        <time>2026-08-29T11:33:30Z</time>
      </trkpt>
      <trkpt lat="43.93025" lon="1.88906">
        <ele>159.527322</ele>
        <time>2026-08-29T11:33:31Z</time>
      </trkpt>
      <trkpt lat="43.93028" lon="1.88907">
        <ele>159.494024</ele>
        <time>2026-08-29T11:33:32Z</time>
      </trkpt>
      <trkpt lat="43.93031" lon="1.88907">
        <ele>159.455905</ele>
        <time>2026-08-29T11:33:33Z</time>
      </trkpt>
      <trkpt lat="43.93035" lon="1.88907">
        <ele>159.414071</ele>
        <time>2026-08-29T11:33:34Z</time>
      </trkpt>
      <trkpt lat="43.93038" lon="1.88906">
        <ele>159.370899</ele>
        <time>2026-08-29T11:33:35Z</time>
      </trkpt>
      <trkpt lat="43.93042" lon="1.88906">
        <ele>159.327791</ele>
        <time>2026-08-29T11:33:36Z</time>
      </trkpt>
      <trkpt lat="43.93045" lon="1.88906">
        <ele>159.282229</ele>
        <time>2026-08-29T11:33:37Z</time>
      </trkpt>
      <trkpt lat="43.9305" lon="1.88905">
        <ele>159.226796</ele>
        <time>2026-08-29T11:33:38Z</time>
      </trkpt>
      <trkpt lat="43.93055" lon="1.88905">
        <ele>159.168849</ele>
        <time>2026-08-29T11:33:39Z</time>
      </trkpt>
      <trkpt lat="43.93059" lon="1.88904">
        <ele>159.109603</ele>
        <time>2026-08-29T11:33:40Z</time>
      </trkpt>
      <trkpt lat="43.93064" lon="1.88903">
        <ele>159.048951</ele>
        <time>2026-08-29T11:33:41Z</time>
      </trkpt>
      <trkpt lat="43.93069" lon="1.88902">
        <ele>158.986574</ele>
        <time>2026-08-29T11:33:42Z</time>
      </trkpt>
      <trkpt lat="43.93074" lon="1.88901">
        <ele>158.926455</ele>
        <time>2026-08-29T11:33:43Z</time>
      </trkpt>
      <trkpt lat="43.93079" lon="1.889">
        <ele>158.865288</ele>
        <time>2026-08-29T11:33:44Z</time>
      </trkpt>
      <trkpt lat="43.93084" lon="1.88898">
        <ele>158.801699</ele>
        <time>2026-08-29T11:33:45Z</time>
      </trkpt>
      <trkpt lat="43.93089" lon="1.88897">
        <ele>158.73728</ele>
        <time>2026-08-29T11:33:46Z</time>
      </trkpt>
      <trkpt lat="43.93094" lon="1.88896">
        <ele>158.674396</ele>
        <time>2026-08-29T11:33:47Z</time>
      </trkpt>
      <trkpt lat="43.93099" lon="1.88895">
        <ele>158.610949</ele>
        <time>2026-08-29T11:33:48Z</time>
      </trkpt>
      <trkpt lat="43.93104" lon="1.88894">
        <ele>158.548969</ele>
        <time>2026-08-29T11:33:49Z</time>
      </trkpt>
      <trkpt lat="43.93109" lon="1.88894">
        <ele>158.489855</ele>
        <time>2026-08-29T11:33:50Z</time>
      </trkpt>
      <trkpt lat="43.93114" lon="1.88893">
        <ele>158.433133</ele>
        <time>2026-08-29T11:33:51Z</time>
      </trkpt>
      <trkpt lat="43.93118" lon="1.88893">
        <ele>158.379014</ele>
        <time>2026-08-29T11:33:52Z</time>
      </trkpt>
      <trkpt lat="43.93122" lon="1.88894">
        <ele>158.325557</ele>
        <time>2026-08-29T11:33:53Z</time>
      </trkpt>
      <trkpt lat="43.93126" lon="1.88896">
        <ele>158.276992</ele>
        <time>2026-08-29T11:33:54Z</time>
      </trkpt>
      <trkpt lat="43.9313" lon="1.88898">
        <ele>158.224102</ele>
        <time>2026-08-29T11:33:55Z</time>
      </trkpt>
      <trkpt lat="43.93134" lon="1.889">
        <ele>158.17088</ele>
        <time>2026-08-29T11:33:56Z</time>
      </trkpt>
      <trkpt lat="43.93138" lon="1.88902">
        <ele>158.119921</ele>
        <time>2026-08-29T11:33:57Z</time>
      </trkpt>
      <trkpt lat="43.93142" lon="1.88904">
        <ele>158.069398</ele>
        <time>2026-08-29T11:33:58Z</time>
      </trkpt>
      <trkpt lat="43.93146" lon="1.88905">
        <ele>158.020476</ele>
        <time>2026-08-29T11:33:59Z</time>
      </trkpt>
      <trkpt lat="43.9315" lon="1.88907">
        <ele>157.971911</ele>
        <time>2026-08-29T11:34:00Z</time>
      </trkpt>
      <trkpt lat="43.93153" lon="1.88909">
        <ele>157.924681</ele>
        <time>2026-08-29T11:34:01Z</time>
      </trkpt>
      <trkpt lat="43.93157" lon="1.88911">
        <ele>157.872593</ele>
        <time>2026-08-29T11:34:02Z</time>
      </trkpt>
      <trkpt lat="43.93161" lon="1.88914">
        <ele>157.821634</ele>
        <time>2026-08-29T11:34:03Z</time>
      </trkpt>
      <trkpt lat="43.93165" lon="1.88916">
        <ele>157.771356</ele>
        <time>2026-08-29T11:34:04Z</time>
      </trkpt>
      <trkpt lat="43.93169" lon="1.88917">
        <ele>157.718755</ele>
        <time>2026-08-29T11:34:05Z</time>
      </trkpt>
      <trkpt lat="43.93173" lon="1.88919">
        <ele>157.663631</ele>
        <time>2026-08-29T11:34:06Z</time>
      </trkpt>
      <trkpt lat="43.93177" lon="1.8892">
        <ele>157.609532</ele>
        <time>2026-08-29T11:34:07Z</time>
      </trkpt>
      <trkpt lat="43.93182" lon="1.88921">
        <ele>157.55631</ele>
        <time>2026-08-29T11:34:08Z</time>
      </trkpt>
      <trkpt lat="43.93186" lon="1.88921">
        <ele>157.505783</ele>
        <time>2026-08-29T11:34:09Z</time>
      </trkpt>
      <trkpt lat="43.9319" lon="1.88921">
        <ele>157.456611</ele>
        <time>2026-08-29T11:34:10Z</time>
      </trkpt>
      <trkpt lat="43.93194" lon="1.88921">
        <ele>157.404972</ele>
        <time>2026-08-29T11:34:11Z</time>
      </trkpt>
      <trkpt lat="43.93198" lon="1.88921">
        <ele>157.449502</ele>
        <time>2026-08-29T11:34:12Z</time>
      </trkpt>
      <trkpt lat="43.93202" lon="1.8892">
        <ele>157.503136</ele>
        <time>2026-08-29T11:34:13Z</time>
      </trkpt>
      <trkpt lat="43.93206" lon="1.8892">
        <ele>157.55785</ele>
        <time>2026-08-29T11:34:14Z</time>
      </trkpt>
      <trkpt lat="43.9321" lon="1.88919">
        <ele>157.612798</ele>
        <time>2026-08-29T11:34:15Z</time>
      </trkpt>
      <trkpt lat="43.93214" lon="1.88918">
        <ele>157.665119</ele>
        <time>2026-08-29T11:34:16Z</time>
      </trkpt>
      <trkpt lat="43.93218" lon="1.88917">
        <ele>157.716448</ele>
        <time>2026-08-29T11:34:17Z</time>
      </trkpt>
      <trkpt lat="43.93222" lon="1.88916">
        <ele>157.768917</ele>
        <time>2026-08-29T11:34:18Z</time>
      </trkpt>
      <trkpt lat="43.93226" lon="1.88916">
        <ele>157.819791</ele>
        <time>2026-08-29T11:34:19Z</time>
      </trkpt>
      <trkpt lat="43.9323" lon="1.88915">
        <ele>157.869044</ele>
        <time>2026-08-29T11:34:20Z</time>
      </trkpt>
      <trkpt lat="43.93233" lon="1.88915">
        <ele>157.921234</ele>
        <time>2026-08-29T11:34:21Z</time>
      </trkpt>
      <trkpt lat="43.93237" lon="1.88914">
        <ele>157.974629</ele>
        <time>2026-08-29T11:34:22Z</time>
      </trkpt>
      <trkpt lat="43.93242" lon="1.88913">
        <ele>158.029452</ele>
        <time>2026-08-29T11:34:23Z</time>
      </trkpt>
      <trkpt lat="43.93246" lon="1.88912">
        <ele>158.08323</ele>
        <time>2026-08-29T11:34:24Z</time>
      </trkpt>
      <trkpt lat="43.93249" lon="1.88912">
        <ele>158.134239</ele>
        <time>2026-08-29T11:34:25Z</time>
      </trkpt>
      <trkpt lat="43.93253" lon="1.88911">
        <ele>158.183935</ele>
        <time>2026-08-29T11:34:26Z</time>
      </trkpt>
      <trkpt lat="43.93257" lon="1.8891">
        <ele>158.236011</ele>
        <time>2026-08-29T11:34:27Z</time>
      </trkpt>
      <trkpt lat="43.93261" lon="1.88909">
        <ele>158.287019</ele>
        <time>2026-08-29T11:34:28Z</time>
      </trkpt>
      <trkpt lat="43.93264" lon="1.88909">
        <ele>158.336715</ele>
        <time>2026-08-29T11:34:29Z</time>
      </trkpt>
      <trkpt lat="43.93268" lon="1.88908">
        <ele>158.386741</ele>
        <time>2026-08-29T11:34:30Z</time>
      </trkpt>
      <trkpt lat="43.93272" lon="1.88907">
        <ele>158.436438</ele>
        <time>2026-08-29T11:34:31Z</time>
      </trkpt>
      <trkpt lat="43.93276" lon="1.88906">
        <ele>158.488907</ele>
        <time>2026-08-29T11:34:32Z</time>
      </trkpt>
      <trkpt lat="43.9328" lon="1.88905">
        <ele>158.541227</ele>
        <time>2026-08-29T11:34:33Z</time>
      </trkpt>
      <trkpt lat="43.93284" lon="1.88904">
        <ele>158.594733</ele>
        <time>2026-08-29T11:34:34Z</time>
      </trkpt>
      <trkpt lat="43.93288" lon="1.88903">
        <ele>158.647202</ele>
        <time>2026-08-29T11:34:35Z</time>
      </trkpt>
      <trkpt lat="43.93291" lon="1.88902">
        <ele>158.698532</ele>
        <time>2026-08-29T11:34:36Z</time>
      </trkpt>
      <trkpt lat="43.93295" lon="1.88902">
        <ele>158.748228</ele>
        <time>2026-08-29T11:34:37Z</time>
      </trkpt>
      <trkpt lat="43.93299" lon="1.88901">
        <ele>158.796774</ele>
        <time>2026-08-29T11:34:38Z</time>
      </trkpt>
      <trkpt lat="43.93302" lon="1.889">
        <ele>158.845694</ele>
        <time>2026-08-29T11:34:39Z</time>
      </trkpt>
      <trkpt lat="43.93306" lon="1.88899">
        <ele>158.89424</ele>
        <time>2026-08-29T11:34:40Z</time>
      </trkpt>
      <trkpt lat="43.9331" lon="1.88898">
        <ele>158.943936</ele>
        <time>2026-08-29T11:34:41Z</time>
      </trkpt>
      <trkpt lat="43.93313" lon="1.88897">
        <ele>158.993495</ele>
        <time>2026-08-29T11:34:42Z</time>
      </trkpt>
      <trkpt lat="43.93317" lon="1.88897">
        <ele>159.044152</ele>
        <time>2026-08-29T11:34:43Z</time>
      </trkpt>
      <trkpt lat="43.93321" lon="1.88896">
        <ele>159.095991</ele>
        <time>2026-08-29T11:34:44Z</time>
      </trkpt>
      <trkpt lat="43.93325" lon="1.88896">
        <ele>159.149154</ele>
        <time>2026-08-29T11:34:45Z</time>
      </trkpt>
      <trkpt lat="43.93329" lon="1.88896">
        <ele>159.199595</ele>
        <time>2026-08-29T11:34:46Z</time>
      </trkpt>
      <trkpt lat="43.93333" lon="1.88896">
        <ele>159.255336</ele>
        <time>2026-08-29T11:34:47Z</time>
      </trkpt>
      <trkpt lat="43.93337" lon="1.88896">
        <ele>159.308499</ele>
        <time>2026-08-29T11:34:48Z</time>
      </trkpt>
      <trkpt lat="43.93341" lon="1.88897">
        <ele>159.362439</ele>
        <time>2026-08-29T11:34:49Z</time>
      </trkpt>
      <trkpt lat="43.93345" lon="1.88899">
        <ele>159.413091</ele>
        <time>2026-08-29T11:34:50Z</time>
      </trkpt>
      <trkpt lat="43.93348" lon="1.889">
        <ele>159.463871</ele>
        <time>2026-08-29T11:34:51Z</time>
      </trkpt>
      <trkpt lat="43.93352" lon="1.88902">
        <ele>159.511657</ele>
        <time>2026-08-29T11:34:52Z</time>
      </trkpt>
      <trkpt lat="43.93355" lon="1.88905">
        <ele>159.562258</ele>
        <time>2026-08-29T11:34:53Z</time>
      </trkpt>
      <trkpt lat="43.93358" lon="1.88907">
        <ele>159.610079</ele>
        <time>2026-08-29T11:34:54Z</time>
      </trkpt>
      <trkpt lat="43.93361" lon="1.8891">
        <ele>159.657815</ele>
        <time>2026-08-29T11:34:55Z</time>
      </trkpt>
      <trkpt lat="43.93364" lon="1.88913">
        <ele>159.704563</ele>
        <time>2026-08-29T11:34:56Z</time>
      </trkpt>
      <trkpt lat="43.93366" lon="1.88917">
        <ele>159.748064</ele>
        <time>2026-08-29T11:34:57Z</time>
      </trkpt>
      <trkpt lat="43.93368" lon="1.8892">
        <ele>159.81092</ele>
        <time>2026-08-29T11:34:58Z</time>
      </trkpt>
      <trkpt lat="43.9337" lon="1.88924">
        <ele>160.020678</ele>
        <time>2026-08-29T11:34:59Z</time>
      </trkpt>
      <trkpt lat="43.93371" lon="1.88928">
        <ele>160.231572</ele>
        <time>2026-08-29T11:35:00Z</time>
      </trkpt>
      <trkpt lat="43.93372" lon="1.88932">
        <ele>160.413546</ele>
        <time>2026-08-29T11:35:01Z</time>
      </trkpt>
      <trkpt lat="43.93373" lon="1.88935">
        <ele>160.565989</ele>
        <time>2026-08-29T11:35:02Z</time>
      </trkpt>
      <trkpt lat="43.93373" lon="1.88937">
        <ele>160.687704</ele>
        <time>2026-08-29T11:35:03Z</time>
      </trkpt>
      <trkpt lat="43.93374" lon="1.88939">
        <ele>160.788248</ele>
        <time>2026-08-29T11:35:04Z</time>
      </trkpt>
      <trkpt lat="43.93376" lon="1.8894">
        <ele>160.905133</ele>
        <time>2026-08-29T11:35:05Z</time>
      </trkpt>
      <trkpt lat="43.93377" lon="1.88942">
        <ele>161.035918</ele>
        <time>2026-08-29T11:35:06Z</time>
      </trkpt>
      <trkpt lat="43.9338" lon="1.88942">
        <ele>161.204674</ele>
        <time>2026-08-29T11:35:07Z</time>
      </trkpt>
      <trkpt lat="43.93383" lon="1.88942">
        <ele>161.392145</ele>
        <time>2026-08-29T11:35:08Z</time>
      </trkpt>
      <trkpt lat="43.93386" lon="1.88941">
        <ele>161.598728</ele>
        <time>2026-08-29T11:35:09Z</time>
      </trkpt>
      <trkpt lat="43.93389" lon="1.88939">
        <ele>161.813133</ele>
        <time>2026-08-29T11:35:10Z</time>
      </trkpt>
      <trkpt lat="43.93392" lon="1.88938">
        <ele>162.028837</ele>
        <time>2026-08-29T11:35:11Z</time>
      </trkpt>
      <trkpt lat="43.93395" lon="1.88936">
        <ele>162.253891</ele>
        <time>2026-08-29T11:35:12Z</time>
      </trkpt>
      <trkpt lat="43.93398" lon="1.88934">
        <ele>162.486796</ele>
        <time>2026-08-29T11:35:13Z</time>
      </trkpt>
      <trkpt lat="43.93401" lon="1.88933">
        <ele>162.705636</ele>
        <time>2026-08-29T11:35:14Z</time>
      </trkpt>
      <trkpt lat="43.93404" lon="1.88931">
        <ele>162.927642</ele>
        <time>2026-08-29T11:35:15Z</time>
      </trkpt>
      <trkpt lat="43.93408" lon="1.8893">
        <ele>163.146482</ele>
        <time>2026-08-29T11:35:16Z</time>
      </trkpt>
      <trkpt lat="43.93411" lon="1.88928">
        <ele>163.355904</ele>
        <time>2026-08-29T11:35:17Z</time>
      </trkpt>
      <trkpt lat="43.93414" lon="1.88927">
        <ele>163.57791</ele>
        <time>2026-08-29T11:35:18Z</time>
      </trkpt>
      <trkpt lat="43.93417" lon="1.88927">
        <ele>163.771278</ele>
        <time>2026-08-29T11:35:19Z</time>
      </trkpt>
      <trkpt lat="43.93419" lon="1.88929">
        <ele>163.969462</ele>
        <time>2026-08-29T11:35:20Z</time>
      </trkpt>
      <trkpt lat="43.93421" lon="1.88932">
        <ele>164.14935</ele>
        <time>2026-08-29T11:35:21Z</time>
      </trkpt>
      <trkpt lat="43.93423" lon="1.88934">
        <ele>164.30078</ele>
        <time>2026-08-29T11:35:22Z</time>
      </trkpt>
      <trkpt lat="43.93424" lon="1.88937">
        <ele>164.448644</ele>
        <time>2026-08-29T11:35:23Z</time>
      </trkpt>
      <trkpt lat="43.93426" lon="1.88939">
        <ele>164.58797</ele>
        <time>2026-08-29T11:35:24Z</time>
      </trkpt>
      <trkpt lat="43.93427" lon="1.88941">
        <ele>164.732337</ele>
        <time>2026-08-29T11:35:25Z</time>
      </trkpt>
      <trkpt lat="43.93429" lon="1.88944">
        <ele>164.887397</ele>
        <time>2026-08-29T11:35:26Z</time>
      </trkpt>
      <trkpt lat="43.9343" lon="1.88946">
        <ele>165.049893</ele>
        <time>2026-08-29T11:35:27Z</time>
      </trkpt>
      <trkpt lat="43.93432" lon="1.88949">
        <ele>165.201323</ele>
        <time>2026-08-29T11:35:28Z</time>
      </trkpt>
      <trkpt lat="43.93433" lon="1.88951">
        <ele>165.356383</ele>
        <time>2026-08-29T11:35:29Z</time>
      </trkpt>
      <trkpt lat="43.93435" lon="1.88953">
        <ele>165.500782</ele>
        <time>2026-08-29T11:35:30Z</time>
      </trkpt>
      <trkpt lat="43.93436" lon="1.88955">
        <ele>165.63704</ele>
        <time>2026-08-29T11:35:31Z</time>
      </trkpt>
      <trkpt lat="43.93438" lon="1.88957">
        <ele>165.773406</ele>
        <time>2026-08-29T11:35:32Z</time>
      </trkpt>
      <trkpt lat="43.93439" lon="1.88959">
        <ele>165.906715</ele>
        <time>2026-08-29T11:35:33Z</time>
      </trkpt>
      <trkpt lat="43.93441" lon="1.88961">
        <ele>166.04766</ele>
        <time>2026-08-29T11:35:34Z</time>
      </trkpt>
      <trkpt lat="43.93442" lon="1.88963">
        <ele>166.195523</ele>
        <time>2026-08-29T11:35:35Z</time>
      </trkpt>
      <trkpt lat="43.93444" lon="1.88965">
        <ele>166.343387</ele>
        <time>2026-08-29T11:35:36Z</time>
      </trkpt>
      <trkpt lat="43.93445" lon="1.88968">
        <ele>166.483287</ele>
        <time>2026-08-29T11:35:37Z</time>
      </trkpt>
      <trkpt lat="43.93446" lon="1.8897">
        <ele>166.630443</ele>
        <time>2026-08-29T11:35:38Z</time>
      </trkpt>
      <trkpt lat="43.93448" lon="1.88973">
        <ele>166.770049</ele>
        <time>2026-08-29T11:35:39Z</time>
      </trkpt>
      <trkpt lat="43.93449" lon="1.88975">
        <ele>166.898074</ele>
        <time>2026-08-29T11:35:40Z</time>
      </trkpt>
      <trkpt lat="43.93449" lon="1.88977">
        <ele>167.031259</ele>
        <time>2026-08-29T11:35:41Z</time>
      </trkpt>
      <trkpt lat="43.9345" lon="1.8898">
        <ele>167.152973</ele>
        <time>2026-08-29T11:35:42Z</time>
      </trkpt>
      <trkpt lat="43.93451" lon="1.88982">
        <ele>167.258936</ele>
        <time>2026-08-29T11:35:43Z</time>
      </trkpt>
      <trkpt lat="43.93451" lon="1.88984">
        <ele>167.353264</ele>
        <time>2026-08-29T11:35:44Z</time>
      </trkpt>
      <trkpt lat="43.93452" lon="1.88985">
        <ele>167.44778</ele>
        <time>2026-08-29T11:35:45Z</time>
      </trkpt>
      <trkpt lat="43.93453" lon="1.88987">
        <ele>167.548573</ele>
        <time>2026-08-29T11:35:46Z</time>
      </trkpt>
      <trkpt lat="43.93454" lon="1.88989">
        <ele>167.653451</ele>
        <time>2026-08-29T11:35:47Z</time>
      </trkpt>
      <trkpt lat="43.93454" lon="1.88991">
        <ele>167.770019</ele>
        <time>2026-08-29T11:35:48Z</time>
      </trkpt>
      <trkpt lat="43.93455" lon="1.88994">
        <ele>167.88746</ele>
        <time>2026-08-29T11:35:49Z</time>
      </trkpt>
      <trkpt lat="43.93456" lon="1.88996">
        <ele>168.00207</ele>
        <time>2026-08-29T11:35:50Z</time>
      </trkpt>
      <trkpt lat="43.93456" lon="1.88998">
        <ele>168.109727</ele>
        <time>2026-08-29T11:35:51Z</time>
      </trkpt>
      <trkpt lat="43.93457" lon="1.89">
        <ele>168.206121</ele>
        <time>2026-08-29T11:35:52Z</time>
      </trkpt>
      <trkpt lat="43.93457" lon="1.89002">
        <ele>168.309363</ele>
        <time>2026-08-29T11:35:53Z</time>
      </trkpt>
      <trkpt lat="43.93458" lon="1.89004">
        <ele>168.419632</ele>
        <time>2026-08-29T11:35:54Z</time>
      </trkpt>
      <trkpt lat="43.93459" lon="1.89006">
        <ele>168.551759</ele>
        <time>2026-08-29T11:35:55Z</time>
      </trkpt>
      <trkpt lat="43.9346" lon="1.89009">
        <ele>168.67778</ele>
        <time>2026-08-29T11:35:56Z</time>
      </trkpt>
      <trkpt lat="43.93461" lon="1.89011">
        <ele>168.802514</ele>
        <time>2026-08-29T11:35:57Z</time>
      </trkpt>
      <trkpt lat="43.93462" lon="1.89012">
        <ele>168.888444</ele>
        <time>2026-08-29T11:35:58Z</time>
      </trkpt>
      <trkpt lat="43.93462" lon="1.89012">
        <ele>168.935008</ele>
        <time>2026-08-29T11:35:59Z</time>
      </trkpt>
      <trkpt lat="43.93463" lon="1.89012">
        <ele>168.948242</ele>
        <time>2026-08-29T11:36:00Z</time>
      </trkpt>
      <trkpt lat="43.93465" lon="1.8902">
        <ele>169.359433</ele>
        <time>2026-08-29T11:36:20Z</time>
      </trkpt>
      <trkpt lat="43.93466" lon="1.89022">
        <ele>169.471813</ele>
        <time>2026-08-29T11:36:21Z</time>
      </trkpt>
      <trkpt lat="43.93467" lon="1.89024">
        <ele>169.572606</ele>
        <time>2026-08-29T11:36:22Z</time>
      </trkpt>
      <trkpt lat="43.93467" lon="1.89026">
        <ele>169.670087</ele>
        <time>2026-08-29T11:36:23Z</time>
      </trkpt>
      <trkpt lat="43.93469" lon="1.89027">
        <ele>169.781929</ele>
        <time>2026-08-29T11:36:24Z</time>
      </trkpt>
      <trkpt lat="43.9347" lon="1.89029">
        <ele>169.8787</ele>
        <time>2026-08-29T11:36:25Z</time>
      </trkpt>
      <trkpt lat="43.9347" lon="1.89031">
        <ele>169.97756</ele>
        <time>2026-08-29T11:36:26Z</time>
      </trkpt>
      <trkpt lat="43.93471" lon="1.89032">
        <ele>170.062723</ele>
        <time>2026-08-29T11:36:27Z</time>
      </trkpt>
      <trkpt lat="43.93472" lon="1.89034">
        <ele>170.174822</ele>
        <time>2026-08-29T11:36:28Z</time>
      </trkpt>
      <trkpt lat="43.93472" lon="1.89036">
        <ele>170.278065</ele>
        <time>2026-08-29T11:36:29Z</time>
      </trkpt>
      <trkpt lat="43.93473" lon="1.89038">
        <ele>170.363995</ele>
        <time>2026-08-29T11:36:30Z</time>
      </trkpt>
      <trkpt lat="43.93473" lon="1.8904">
        <ele>170.488065</ele>
        <time>2026-08-29T11:36:31Z</time>
      </trkpt>
      <trkpt lat="43.93473" lon="1.89042">
        <ele>170.590083</ele>
        <time>2026-08-29T11:36:32Z</time>
      </trkpt>
      <trkpt lat="43.93473" lon="1.89045">
        <ele>170.733191</ele>
        <time>2026-08-29T11:36:33Z</time>
      </trkpt>
      <trkpt lat="43.93473" lon="1.89048">
        <ele>170.857085</ele>
        <time>2026-08-29T11:36:34Z</time>
      </trkpt>
      <trkpt lat="43.93473" lon="1.8905">
        <ele>170.957371</ele>
        <time>2026-08-29T11:36:35Z</time>
      </trkpt>
      <trkpt lat="43.93474" lon="1.89052">
        <ele>171.049304</ele>
        <time>2026-08-29T11:36:36Z</time>
      </trkpt>
      <trkpt lat="43.93474" lon="1.89055">
        <ele>171.197615</ele>
        <time>2026-08-29T11:36:37Z</time>
      </trkpt>
      <trkpt lat="43.93474" lon="1.89058">
        <ele>171.347687</ele>
        <time>2026-08-29T11:36:38Z</time>
      </trkpt>
      <trkpt lat="43.93475" lon="1.89061">
        <ele>171.475503</ele>
        <time>2026-08-29T11:36:39Z</time>
      </trkpt>
      <trkpt lat="43.93476" lon="1.89064">
        <ele>171.623485</ele>
        <time>2026-08-29T11:36:40Z</time>
      </trkpt>
      <trkpt lat="43.93477" lon="1.89066">
        <ele>171.79525</ele>
        <time>2026-08-29T11:36:41Z</time>
      </trkpt>
      <trkpt lat="43.93477" lon="1.89069">
        <ele>171.980508</ele>
        <time>2026-08-29T11:36:42Z</time>
      </trkpt>
      <trkpt lat="43.93478" lon="1.89071">
        <ele>172.176748</ele>
        <time>2026-08-29T11:36:43Z</time>
      </trkpt>
      <trkpt lat="43.93479" lon="1.89073">
        <ele>172.348359</ele>
        <time>2026-08-29T11:36:44Z</time>
      </trkpt>
      <trkpt lat="43.9348" lon="1.89075">
        <ele>172.51997</ele>
        <time>2026-08-29T11:36:45Z</time>
      </trkpt>
      <trkpt lat="43.93481" lon="1.89078">
        <ele>172.730332</ele>
        <time>2026-08-29T11:36:46Z</time>
      </trkpt>
      <trkpt lat="43.93481" lon="1.8908">
        <ele>172.923183</ele>
        <time>2026-08-29T11:36:47Z</time>
      </trkpt>
      <trkpt lat="43.93482" lon="1.89083">
        <ele>173.146219</ele>
        <time>2026-08-29T11:36:48Z</time>
      </trkpt>
      <trkpt lat="43.93483" lon="1.89085">
        <ele>173.356581</ele>
        <time>2026-08-29T11:36:49Z</time>
      </trkpt>
      <trkpt lat="43.93484" lon="1.89088">
        <ele>173.534783</ele>
        <time>2026-08-29T11:36:50Z</time>
      </trkpt>
      <trkpt lat="43.93485" lon="1.89089">
        <ele>173.65948</ele>
        <time>2026-08-29T11:36:51Z</time>
      </trkpt>
      <trkpt lat="43.93486" lon="1.8909">
        <ele>173.768475</ele>
        <time>2026-08-29T11:36:52Z</time>
      </trkpt>
      <trkpt lat="43.93486" lon="1.89091">
        <ele>173.880782</ele>
        <time>2026-08-29T11:36:53Z</time>
      </trkpt>
      <trkpt lat="43.93488" lon="1.89091">
        <ele>174.015615</ele>
        <time>2026-08-29T11:36:54Z</time>
      </trkpt>
      <trkpt lat="43.93488" lon="1.89092">
        <ele>174.10505</ele>
        <time>2026-08-29T11:36:55Z</time>
      </trkpt>
      <trkpt lat="43.93489" lon="1.89092">
        <ele>174.191151</ele>
        <time>2026-08-29T11:36:56Z</time>
      </trkpt>
      <trkpt lat="43.9349" lon="1.89093">
        <ele>174.327747</ele>
        <time>2026-08-29T11:36:57Z</time>
      </trkpt>
      <trkpt lat="43.93492" lon="1.89093">
        <ele>174.493817</ele>
        <time>2026-08-29T11:36:58Z</time>
      </trkpt>
      <trkpt lat="43.93494" lon="1.89094">
        <ele>174.650025</ele>
        <time>2026-08-29T11:36:59Z</time>
      </trkpt>
      <trkpt lat="43.93495" lon="1.89094">
        <ele>174.816095</ele>
        <time>2026-08-29T11:37:00Z</time>
      </trkpt>
      <trkpt lat="43.93497" lon="1.89095">
        <ele>174.990693</ele>
        <time>2026-08-29T11:37:01Z</time>
      </trkpt>
      <trkpt lat="43.93499" lon="1.89095">
        <ele>175.166657</ele>
        <time>2026-08-29T11:37:02Z</time>
      </trkpt>
      <trkpt lat="43.935" lon="1.89096">
        <ele>175.322864</ele>
        <time>2026-08-29T11:37:03Z</time>
      </trkpt>
      <trkpt lat="43.93502" lon="1.89096">
        <ele>175.496393</ele>
        <time>2026-08-29T11:37:04Z</time>
      </trkpt>
      <trkpt lat="43.93504" lon="1.89096">
        <ele>175.688929</ele>
        <time>2026-08-29T11:37:05Z</time>
      </trkpt>
      <trkpt lat="43.93505" lon="1.89096">
        <ele>175.862458</ele>
        <time>2026-08-29T11:37:06Z</time>
      </trkpt>
      <trkpt lat="43.93507" lon="1.89096">
        <ele>176.017126</ele>
        <time>2026-08-29T11:37:07Z</time>
      </trkpt>
      <trkpt lat="43.93509" lon="1.89096">
        <ele>176.199397</ele>
        <time>2026-08-29T11:37:08Z</time>
      </trkpt>
      <trkpt lat="43.9351" lon="1.89097">
        <ele>176.372158</ele>
        <time>2026-08-29T11:37:09Z</time>
      </trkpt>
      <trkpt lat="43.93513" lon="1.89096">
        <ele>176.615623</ele>
        <time>2026-08-29T11:37:10Z</time>
      </trkpt>
      <trkpt lat="43.93514" lon="1.89096">
        <ele>176.757577</ele>
        <time>2026-08-29T11:37:11Z</time>
      </trkpt>
      <trkpt lat="43.93516" lon="1.89096">
        <ele>176.919759</ele>
        <time>2026-08-29T11:37:12Z</time>
      </trkpt>
      <trkpt lat="43.93517" lon="1.89096">
        <ele>177.081778</ele>
        <time>2026-08-29T11:37:13Z</time>
      </trkpt>
      <trkpt lat="43.93519" lon="1.89096">
        <ele>177.264195</ele>
        <time>2026-08-29T11:37:14Z</time>
      </trkpt>
      <trkpt lat="43.93521" lon="1.89096">
        <ele>177.432017</ele>
        <time>2026-08-29T11:37:15Z</time>
      </trkpt>
      <trkpt lat="43.93523" lon="1.89095">
        <ele>177.625743</ele>
        <time>2026-08-29T11:37:16Z</time>
      </trkpt>
      <trkpt lat="43.93524" lon="1.89094">
        <ele>177.764464</ele>
        <time>2026-08-29T11:37:17Z</time>
      </trkpt>
      <trkpt lat="43.93525" lon="1.89094">
        <ele>177.89133</ele>
        <time>2026-08-29T11:37:18Z</time>
      </trkpt>
      <trkpt lat="43.93526" lon="1.89093">
        <ele>178.013716</ele>
        <time>2026-08-29T11:37:19Z</time>
      </trkpt>
      <trkpt lat="43.93528" lon="1.89093">
        <ele>178.148549</ele>
        <time>2026-08-29T11:37:20Z</time>
      </trkpt>
      <trkpt lat="43.93529" lon="1.89093">
        <ele>178.280189</ele>
        <time>2026-08-29T11:37:21Z</time>
      </trkpt>
      <trkpt lat="43.9353" lon="1.89093">
        <ele>178.423633</ele>
        <time>2026-08-29T11:37:22Z</time>
      </trkpt>
      <trkpt lat="43.93531" lon="1.89093">
        <ele>178.535259</ele>
        <time>2026-08-29T11:37:23Z</time>
      </trkpt>
      <trkpt lat="43.93533" lon="1.89093">
        <ele>178.667705</ele>
        <time>2026-08-29T11:37:24Z</time>
      </trkpt>
      <trkpt lat="43.93534" lon="1.89093">
        <ele>178.819597</ele>
        <time>2026-08-29T11:37:25Z</time>
      </trkpt>
      <trkpt lat="43.93536" lon="1.89093">
        <ele>178.993126</ele>
        <time>2026-08-29T11:37:26Z</time>
      </trkpt>
      <trkpt lat="43.93537" lon="1.89093">
        <ele>179.155145</ele>
        <time>2026-08-29T11:37:27Z</time>
      </trkpt>
      <trkpt lat="43.93539" lon="1.89094">
        <ele>179.317819</ele>
        <time>2026-08-29T11:37:28Z</time>
      </trkpt>
      <trkpt lat="43.9354" lon="1.89094">
        <ele>179.461263</ele>
        <time>2026-08-29T11:37:29Z</time>
      </trkpt>
      <trkpt lat="43.93542" lon="1.89094">
        <ele>179.655858</ele>
        <time>2026-08-29T11:37:30Z</time>
      </trkpt>
      <trkpt lat="43.93544" lon="1.89095">
        <ele>179.840448</ele>
        <time>2026-08-29T11:37:31Z</time>
      </trkpt>
      <trkpt lat="43.93546" lon="1.89095">
        <ele>179.995116</ele>
        <time>2026-08-29T11:37:32Z</time>
      </trkpt>
      <trkpt lat="43.93547" lon="1.89095">
        <ele>180.15779</ele>
        <time>2026-08-29T11:37:33Z</time>
      </trkpt>
      <trkpt lat="43.93549" lon="1.89095">
        <ele>180.289632</ele>
        <time>2026-08-29T11:37:34Z</time>
      </trkpt>
      <trkpt lat="43.9355" lon="1.89096">
        <ele>180.462393</ele>
        <time>2026-08-29T11:37:35Z</time>
      </trkpt>
      <trkpt lat="43.93552" lon="1.89096">
        <ele>180.635922</ele>
        <time>2026-08-29T11:37:36Z</time>
      </trkpt>
      <trkpt lat="43.93553" lon="1.89096">
        <ele>180.792129</ele>
        <time>2026-08-29T11:37:37Z</time>
      </trkpt>
      <trkpt lat="43.93555" lon="1.89097">
        <ele>180.966728</ele>
        <time>2026-08-29T11:37:38Z</time>
      </trkpt>
      <trkpt lat="43.93557" lon="1.89097">
        <ele>181.146281</ele>
        <time>2026-08-29T11:37:39Z</time>
      </trkpt>
      <trkpt lat="43.93558" lon="1.89098">
        <ele>181.298348</ele>
        <time>2026-08-29T11:37:40Z</time>
      </trkpt>
      <trkpt lat="43.9356" lon="1.89098">
        <ele>181.43314</ele>
        <time>2026-08-29T11:37:41Z</time>
      </trkpt>
      <trkpt lat="43.93561" lon="1.89099">
        <ele>181.59338</ele>
        <time>2026-08-29T11:37:42Z</time>
      </trkpt>
      <trkpt lat="43.93562" lon="1.891">
        <ele>181.7496</ele>
        <time>2026-08-29T11:37:43Z</time>
      </trkpt>
      <trkpt lat="43.93564" lon="1.89101">
        <ele>181.8814</ele>
        <time>2026-08-29T11:37:44Z</time>
      </trkpt>
      <trkpt lat="43.93565" lon="1.89101">
        <ele>182.032076</ele>
        <time>2026-08-29T11:37:45Z</time>
      </trkpt>
      <trkpt lat="43.93566" lon="1.89102">
        <ele>182.170796</ele>
        <time>2026-08-29T11:37:46Z</time>
      </trkpt>
      <trkpt lat="43.93568" lon="1.89103">
        <ele>182.311986</ele>
        <time>2026-08-29T11:37:47Z</time>
      </trkpt>
      <trkpt lat="43.93569" lon="1.89103">
        <ele>182.465286</ele>
        <time>2026-08-29T11:37:48Z</time>
      </trkpt>
      <trkpt lat="43.93571" lon="1.89104">
        <ele>182.647047</ele>
        <time>2026-08-29T11:37:49Z</time>
      </trkpt>
      <trkpt lat="43.93572" lon="1.89105">
        <ele>182.809756</ele>
        <time>2026-08-29T11:37:50Z</time>
      </trkpt>
      <trkpt lat="43.93574" lon="1.89106">
        <ele>182.967824</ele>
        <time>2026-08-29T11:37:51Z</time>
      </trkpt>
      <trkpt lat="43.93575" lon="1.89106">
        <ele>183.116189</ele>
        <time>2026-08-29T11:37:52Z</time>
      </trkpt>
      <trkpt lat="43.93577" lon="1.89107">
        <ele>183.266864</ele>
        <time>2026-08-29T11:37:53Z</time>
      </trkpt>
      <trkpt lat="43.93578" lon="1.89108">
        <ele>183.398664</ele>
        <time>2026-08-29T11:37:54Z</time>
      </trkpt>
      <trkpt lat="43.93579" lon="1.89108">
        <ele>183.558904</ele>
        <time>2026-08-29T11:37:55Z</time>
      </trkpt>
      <trkpt lat="43.93581" lon="1.89109">
        <ele>183.75263</ele>
        <time>2026-08-29T11:37:56Z</time>
      </trkpt>
      <trkpt lat="43.93583" lon="1.8911">
        <ele>183.91287</ele>
        <time>2026-08-29T11:37:57Z</time>
      </trkpt>
      <trkpt lat="43.93584" lon="1.89111">
        <ele>184.061234</ele>
        <time>2026-08-29T11:37:58Z</time>
      </trkpt>
      <trkpt lat="43.93586" lon="1.89111">
        <ele>184.229056</ele>
        <time>2026-08-29T11:37:59Z</time>
      </trkpt>
      <trkpt lat="43.93587" lon="1.89112">
        <ele>184.413287</ele>
        <time>2026-08-29T11:38:00Z</time>
      </trkpt>
      <trkpt lat="43.93589" lon="1.89113">
        <ele>184.59284</ele>
        <time>2026-08-29T11:38:01Z</time>
      </trkpt>
      <trkpt lat="43.93591" lon="1.89113">
        <ele>184.772393</ele>
        <time>2026-08-29T11:38:02Z</time>
      </trkpt>
      <trkpt lat="43.93592" lon="1.89114">
        <ele>184.954153</ele>
        <time>2026-08-29T11:38:03Z</time>
      </trkpt>
      <trkpt lat="43.93594" lon="1.89115">
        <ele>185.112222</ele>
        <time>2026-08-29T11:38:04Z</time>
      </trkpt>
      <trkpt lat="43.93595" lon="1.89116">
        <ele>185.244021</ele>
        <time>2026-08-29T11:38:05Z</time>
      </trkpt>
      <trkpt lat="43.93597" lon="1.89116">
        <ele>185.406731</ele>
        <time>2026-08-29T11:38:06Z</time>
      </trkpt>
      <trkpt lat="43.93598" lon="1.89117">
        <ele>185.569616</ele>
        <time>2026-08-29T11:38:07Z</time>
      </trkpt>
      <trkpt lat="43.93599" lon="1.89119">
        <ele>185.736213</ele>
        <time>2026-08-29T11:38:08Z</time>
      </trkpt>
      <trkpt lat="43.93601" lon="1.8912">
        <ele>185.892433</ele>
        <time>2026-08-29T11:38:09Z</time>
      </trkpt>
      <trkpt lat="43.93602" lon="1.89121">
        <ele>186.055319</ele>
        <time>2026-08-29T11:38:10Z</time>
      </trkpt>
      <trkpt lat="43.93604" lon="1.89122">
        <ele>186.230018</ele>
        <time>2026-08-29T11:38:11Z</time>
      </trkpt>
      <trkpt lat="43.93605" lon="1.89124">
        <ele>186.409075</ele>
        <time>2026-08-29T11:38:12Z</time>
      </trkpt>
      <trkpt lat="43.93606" lon="1.89126">
        <ele>186.615249</ele>
        <time>2026-08-29T11:38:13Z</time>
      </trkpt>
      <trkpt lat="43.93607" lon="1.89128">
        <ele>186.787223</ele>
        <time>2026-08-29T11:38:14Z</time>
      </trkpt>
      <trkpt lat="43.93608" lon="1.8913">
        <ele>186.9781</ele>
        <time>2026-08-29T11:38:15Z</time>
      </trkpt>
      <trkpt lat="43.93609" lon="1.89133">
        <ele>187.173403</ele>
        <time>2026-08-29T11:38:16Z</time>
      </trkpt>
      <trkpt lat="43.9361" lon="1.89135">
        <ele>187.368705</ele>
        <time>2026-08-29T11:38:17Z</time>
      </trkpt>
      <trkpt lat="43.93611" lon="1.89137">
        <ele>187.56462</ele>
        <time>2026-08-29T11:38:18Z</time>
      </trkpt>
      <trkpt lat="43.93612" lon="1.89139">
        <ele>187.771729</ele>
        <time>2026-08-29T11:38:19Z</time>
      </trkpt>
      <trkpt lat="43.93613" lon="1.89142">
        <ele>187.999636</ele>
        <time>2026-08-29T11:38:20Z</time>
      </trkpt>
      <trkpt lat="43.93614" lon="1.89145">
        <ele>188.229906</ele>
        <time>2026-08-29T11:38:21Z</time>
      </trkpt>
      <trkpt lat="43.93615" lon="1.89148">
        <ele>188.459863</ele>
        <time>2026-08-29T11:38:22Z</time>
      </trkpt>
      <trkpt lat="43.93615" lon="1.89151">
        <ele>188.696767</ele>
        <time>2026-08-29T11:38:23Z</time>
      </trkpt>
      <trkpt lat="43.93616" lon="1.89154">
        <ele>188.904922</ele>
        <time>2026-08-29T11:38:24Z</time>
      </trkpt>
      <trkpt lat="43.93616" lon="1.89157">
        <ele>189.111095</ele>
        <time>2026-08-29T11:38:25Z</time>
      </trkpt>
      <trkpt lat="43.93617" lon="1.89159">
        <ele>189.307331</ele>
        <time>2026-08-29T11:38:26Z</time>
      </trkpt>
      <trkpt lat="43.93617" lon="1.89162">
        <ele>189.513754</ele>
        <time>2026-08-29T11:38:27Z</time>
      </trkpt>
      <trkpt lat="43.93618" lon="1.89165">
        <ele>189.729066</ele>
        <time>2026-08-29T11:38:28Z</time>
      </trkpt>
      <trkpt lat="43.93618" lon="1.89168">
        <ele>189.915076</ele>
        <time>2026-08-29T11:38:29Z</time>
      </trkpt>
      <trkpt lat="43.93619" lon="1.8917">
        <ele>190.010644</ele>
        <time>2026-08-29T11:38:30Z</time>
      </trkpt>
      <trkpt lat="43.93619" lon="1.89173">
        <ele>190.107632</ele>
        <time>2026-08-29T11:38:31Z</time>
      </trkpt>
      <trkpt lat="43.93619" lon="1.89175">
        <ele>190.197354</ele>
        <time>2026-08-29T11:38:32Z</time>
      </trkpt>
      <trkpt lat="43.9362" lon="1.89177">
        <ele>190.289379</ele>
        <time>2026-08-29T11:38:33Z</time>
      </trkpt>
      <trkpt lat="43.93619" lon="1.8918">
        <ele>190.390911</ele>
        <time>2026-08-29T11:38:34Z</time>
      </trkpt>
      <trkpt lat="43.93619" lon="1.89183">
        <ele>190.490492</ele>
        <time>2026-08-29T11:38:35Z</time>
      </trkpt>
      <trkpt lat="43.9362" lon="1.89186">
        <ele>190.598405</ele>
        <time>2026-08-29T11:38:36Z</time>
      </trkpt>
      <trkpt lat="43.9362" lon="1.89188">
        <ele>190.699031</ele>
        <time>2026-08-29T11:38:37Z</time>
      </trkpt>
      <trkpt lat="43.93621" lon="1.89191">
        <ele>190.806633</ele>
        <time>2026-08-29T11:38:38Z</time>
      </trkpt>
      <trkpt lat="43.93621" lon="1.89194">
        <ele>190.910711</ele>
        <time>2026-08-29T11:38:39Z</time>
      </trkpt>
      <trkpt lat="43.93622" lon="1.89197">
        <ele>191.01928</ele>
        <time>2026-08-29T11:38:40Z</time>
      </trkpt>
      <trkpt lat="43.93623" lon="1.89199">
        <ele>191.115166</ele>
        <time>2026-08-29T11:38:41Z</time>
      </trkpt>
      <trkpt lat="43.93625" lon="1.892">
        <ele>191.215293</ele>
        <time>2026-08-29T11:38:42Z</time>
      </trkpt>
      <trkpt lat="43.93626" lon="1.89202">
        <ele>191.315421</ele>
        <time>2026-08-29T11:38:43Z</time>
      </trkpt>
      <trkpt lat="43.93628" lon="1.89204">
        <ele>191.429384</ele>
        <time>2026-08-29T11:38:44Z</time>
      </trkpt>
      <trkpt lat="43.93629" lon="1.89206">
        <ele>191.530785</ele>
        <time>2026-08-29T11:38:45Z</time>
      </trkpt>
      <trkpt lat="43.93631" lon="1.89208">
        <ele>191.636311</ele>
        <time>2026-08-29T11:38:46Z</time>
      </trkpt>
      <trkpt lat="43.93633" lon="1.89209">
        <ele>191.741354</ele>
        <time>2026-08-29T11:38:47Z</time>
      </trkpt>
      <trkpt lat="43.93635" lon="1.89211">
        <ele>191.853144</ele>
        <time>2026-08-29T11:38:48Z</time>
      </trkpt>
      <trkpt lat="43.93636" lon="1.89212">
        <ele>191.951887</ele>
        <time>2026-08-29T11:38:49Z</time>
      </trkpt>
      <trkpt lat="43.93638" lon="1.89214">
        <ele>192.065543</ele>
        <time>2026-08-29T11:38:50Z</time>
      </trkpt>
      <trkpt lat="43.9364" lon="1.89215">
        <ele>192.168564</ele>
        <time>2026-08-29T11:38:51Z</time>
      </trkpt>
      <trkpt lat="43.93642" lon="1.89217">
        <ele>192.271586</ele>
        <time>2026-08-29T11:38:52Z</time>
      </trkpt>
      <trkpt lat="43.93643" lon="1.89218">
        <ele>192.374608</ele>
        <time>2026-08-29T11:38:53Z</time>
      </trkpt>
      <trkpt lat="43.93645" lon="1.8922">
        <ele>192.482947</ele>
        <time>2026-08-29T11:38:54Z</time>
      </trkpt>
      <trkpt lat="43.93647" lon="1.89221">
        <ele>192.580489</ele>
        <time>2026-08-29T11:38:55Z</time>
      </trkpt>
      <trkpt lat="43.93649" lon="1.89222">
        <ele>192.678032</ele>
        <time>2026-08-29T11:38:56Z</time>
      </trkpt>
      <trkpt lat="43.9365" lon="1.89223">
        <ele>192.774701</ele>
        <time>2026-08-29T11:38:57Z</time>
      </trkpt>
      <trkpt lat="43.93652" lon="1.89223">
        <ele>192.841275</ele>
        <time>2026-08-29T11:38:58Z</time>
      </trkpt>
      <trkpt lat="43.93653" lon="1.89225">
        <ele>192.921119</ele>
        <time>2026-08-29T11:38:59Z</time>
      </trkpt>
      <trkpt lat="43.93654" lon="1.89226">
        <ele>193.013561</ele>
        <time>2026-08-29T11:39:00Z</time>
      </trkpt>
      <trkpt lat="43.93656" lon="1.89228">
        <ele>193.104897</ele>
        <time>2026-08-29T11:39:01Z</time>
      </trkpt>
      <trkpt lat="43.93658" lon="1.8923">
        <ele>193.231124</ele>
        <time>2026-08-29T11:39:02Z</time>
      </trkpt>
      <trkpt lat="43.9366" lon="1.89232">
        <ele>193.351372</ele>
        <time>2026-08-29T11:39:03Z</time>
      </trkpt>
      <trkpt lat="43.93661" lon="1.89234">
        <ele>193.465335</ele>
        <time>2026-08-29T11:39:04Z</time>
      </trkpt>
      <trkpt lat="43.93662" lon="1.89235">
        <ele>193.537966</ele>
        <time>2026-08-29T11:39:05Z</time>
      </trkpt>
      <trkpt lat="43.93663" lon="1.89236">
        <ele>193.58903</ele>
        <time>2026-08-29T11:39:06Z</time>
      </trkpt>
      <trkpt lat="43.93664" lon="1.89236">
        <ele>193.635536</ele>
        <time>2026-08-29T11:39:07Z</time>
      </trkpt>
      <trkpt lat="43.93664" lon="1.89236">
        <ele>193.652557</ele>
        <time>2026-08-29T11:39:08Z</time>
      </trkpt>
      <trkpt lat="43.93665" lon="1.89237">
        <ele>193.678396</ele>
        <time>2026-08-29T11:39:09Z</time>
      </trkpt>
      <trkpt lat="43.93666" lon="1.89239">
        <ele>193.789322</ele>
        <time>2026-08-29T11:40:04Z</time>
      </trkpt>
      <trkpt lat="43.93668" lon="1.89241">
        <ele>193.91072</ele>
        <time>2026-08-29T11:40:05Z</time>
      </trkpt>
      <trkpt lat="43.9367" lon="1.89243">
        <ele>194.039169</ele>
        <time>2026-08-29T11:40:06Z</time>
      </trkpt>
      <trkpt lat="43.93672" lon="1.89245">
        <ele>194.153132</ele>
        <time>2026-08-29T11:40:07Z</time>
      </trkpt>
      <trkpt lat="43.93674" lon="1.89246">
        <ele>194.273072</ele>
        <time>2026-08-29T11:40:08Z</time>
      </trkpt>
      <trkpt lat="43.93676" lon="1.89248">
        <ele>194.412589</ele>
        <time>2026-08-29T11:40:09Z</time>
      </trkpt>
      <trkpt lat="43.93679" lon="1.8925">
        <ele>194.547628</ele>
        <time>2026-08-29T11:40:10Z</time>
      </trkpt>
      <trkpt lat="43.93681" lon="1.89252">
        <ele>194.697906</ele>
        <time>2026-08-29T11:40:11Z</time>
      </trkpt>
      <trkpt lat="43.93684" lon="1.89253">
        <ele>194.840286</ele>
        <time>2026-08-29T11:40:12Z</time>
      </trkpt>
      <trkpt lat="43.93686" lon="1.89255">
        <ele>194.956551</ele>
        <time>2026-08-29T11:40:13Z</time>
      </trkpt>
      <trkpt lat="43.93687" lon="1.89257">
        <ele>195.068168</ele>
        <time>2026-08-29T11:40:14Z</time>
      </trkpt>
      <trkpt lat="43.93689" lon="1.89258">
        <ele>195.171943</ele>
        <time>2026-08-29T11:40:15Z</time>
      </trkpt>
      <trkpt lat="43.93691" lon="1.8926">
        <ele>195.283287</ele>
        <time>2026-08-29T11:40:16Z</time>
      </trkpt>
      <trkpt lat="43.93693" lon="1.89262">
        <ele>195.400931</ele>
        <time>2026-08-29T11:40:17Z</time>
      </trkpt>
      <trkpt lat="43.93695" lon="1.89263">
        <ele>195.516539</ele>
        <time>2026-08-29T11:40:18Z</time>
      </trkpt>
      <trkpt lat="43.93697" lon="1.89265">
        <ele>195.629995</ele>
        <time>2026-08-29T11:40:19Z</time>
      </trkpt>
      <trkpt lat="43.93698" lon="1.89267">
        <ele>195.739309</ele>
        <time>2026-08-29T11:40:20Z</time>
      </trkpt>
      <trkpt lat="43.93699" lon="1.89268">
        <ele>195.80691</ele>
        <time>2026-08-29T11:40:21Z</time>
      </trkpt>
      <trkpt lat="43.937" lon="1.89269">
        <ele>195.875662</ele>
        <time>2026-08-29T11:40:22Z</time>
      </trkpt>
      <trkpt lat="43.93701" lon="1.89271">
        <ele>195.940913</ele>
        <time>2026-08-29T11:40:23Z</time>
      </trkpt>
      <trkpt lat="43.93702" lon="1.89272">
        <ele>196.010977</ele>
        <time>2026-08-29T11:40:24Z</time>
      </trkpt>
      <trkpt lat="43.93704" lon="1.89273">
        <ele>196.092917</ele>
        <time>2026-08-29T11:40:25Z</time>
      </trkpt>
      <trkpt lat="43.93705" lon="1.89274">
        <ele>196.176496</ele>
        <time>2026-08-29T11:40:26Z</time>
      </trkpt>
      <trkpt lat="43.93707" lon="1.89275">
        <ele>196.286513</ele>
        <time>2026-08-29T11:40:27Z</time>
      </trkpt>
      <trkpt lat="43.93709" lon="1.89277">
        <ele>196.387607</ele>
        <time>2026-08-29T11:40:28Z</time>
      </trkpt>
      <trkpt lat="43.9371" lon="1.89278">
        <ele>196.484336</ele>
        <time>2026-08-29T11:40:29Z</time>
      </trkpt>
      <trkpt lat="43.93712" lon="1.8928">
        <ele>196.570479</ele>
        <time>2026-08-29T11:40:30Z</time>
      </trkpt>
      <trkpt lat="43.93713" lon="1.8928">
        <ele>196.647913</ele>
        <time>2026-08-29T11:40:31Z</time>
      </trkpt>
      <trkpt lat="43.93715" lon="1.89281">
        <ele>196.731492</ele>
        <time>2026-08-29T11:40:32Z</time>
      </trkpt>
      <trkpt lat="43.93716" lon="1.89282">
        <ele>196.818256</ele>
        <time>2026-08-29T11:40:33Z</time>
      </trkpt>
      <trkpt lat="43.93717" lon="1.89284">
        <ele>196.906499</ele>
        <time>2026-08-29T11:40:34Z</time>
      </trkpt>
      <trkpt lat="43.93719" lon="1.89285">
        <ele>197.004041</ele>
        <time>2026-08-29T11:40:35Z</time>
      </trkpt>
      <trkpt lat="43.93721" lon="1.89286">
        <ele>197.098859</ele>
        <time>2026-08-29T11:40:36Z</time>
      </trkpt>
      <trkpt lat="43.93722" lon="1.89288">
        <ele>197.193676</ele>
        <time>2026-08-29T11:40:37Z</time>
      </trkpt>
      <trkpt lat="43.93724" lon="1.89289">
        <ele>197.284115</ele>
        <time>2026-08-29T11:40:38Z</time>
      </trkpt>
      <trkpt lat="43.93725" lon="1.8929">
        <ele>197.347628</ele>
        <time>2026-08-29T11:40:39Z</time>
      </trkpt>
      <trkpt lat="43.93726" lon="1.8929">
        <ele>197.420358</ele>
        <time>2026-08-29T11:40:40Z</time>
      </trkpt>
      <trkpt lat="43.93727" lon="1.89292">
        <ele>197.498205</ele>
        <time>2026-08-29T11:40:41Z</time>
      </trkpt>
      <trkpt lat="43.93729" lon="1.89293">
        <ele>197.580787</ele>
        <time>2026-08-29T11:40:42Z</time>
      </trkpt>
      <trkpt lat="43.9373" lon="1.89295">
        <ele>197.664523</ele>
        <time>2026-08-29T11:40:43Z</time>
      </trkpt>
      <trkpt lat="43.9373" lon="1.89297">
        <ele>197.745989</ele>
        <time>2026-08-29T11:40:44Z</time>
      </trkpt>
      <trkpt lat="43.93731" lon="1.89299">
        <ele>197.823899</ele>
        <time>2026-08-29T11:40:45Z</time>
      </trkpt>
      <trkpt lat="43.93732" lon="1.89301">
        <ele>197.904966</ele>
        <time>2026-08-29T11:40:46Z</time>
      </trkpt>
      <trkpt lat="43.93733" lon="1.89303">
        <ele>198.00079</ele>
        <time>2026-08-29T11:40:47Z</time>
      </trkpt>
      <trkpt lat="43.93734" lon="1.89306">
        <ele>198.115051</ele>
        <time>2026-08-29T11:40:48Z</time>
      </trkpt>
      <trkpt lat="43.93735" lon="1.89309">
        <ele>198.23776</ele>
        <time>2026-08-29T11:40:49Z</time>
      </trkpt>
      <trkpt lat="43.93737" lon="1.89311">
        <ele>198.384141</ele>
        <time>2026-08-29T11:40:50Z</time>
      </trkpt>
      <trkpt lat="43.9374" lon="1.89314">
        <ele>198.563915</ele>
        <time>2026-08-29T11:40:51Z</time>
      </trkpt>
      <trkpt lat="43.93745" lon="1.89316">
        <ele>198.796217</ele>
        <time>2026-08-29T11:40:52Z</time>
      </trkpt>
      <trkpt lat="43.9375" lon="1.89318">
        <ele>199.093894</ele>
        <time>2026-08-29T11:40:53Z</time>
      </trkpt>
      <trkpt lat="43.93756" lon="1.8932">
        <ele>198.896442</ele>
        <time>2026-08-29T11:40:54Z</time>
      </trkpt>
      <trkpt lat="43.93763" lon="1.89321">
        <ele>198.654802</ele>
        <time>2026-08-29T11:40:55Z</time>
      </trkpt>
      <trkpt lat="43.93772" lon="1.89322">
        <ele>198.380735</ele>
        <time>2026-08-29T11:40:56Z</time>
      </trkpt>
      <trkpt lat="43.9378" lon="1.89323">
        <ele>198.115349</ele>
        <time>2026-08-29T11:40:57Z</time>
      </trkpt>
      <trkpt lat="43.93788" lon="1.89324">
        <ele>197.84475</ele>
        <time>2026-08-29T11:40:58Z</time>
      </trkpt>
      <trkpt lat="43.93796" lon="1.89325">
        <ele>197.553715</ele>
        <time>2026-08-29T11:40:59Z</time>
      </trkpt>
      <trkpt lat="43.93805" lon="1.89326">
        <ele>197.276454</ele>
        <time>2026-08-29T11:41:00Z</time>
      </trkpt>
      <trkpt lat="43.93813" lon="1.89326">
        <ele>196.995573</ele>
        <time>2026-08-29T11:41:01Z</time>
      </trkpt>
      <trkpt lat="43.93821" lon="1.89326">
        <ele>196.71534</ele>
        <time>2026-08-29T11:41:02Z</time>
      </trkpt>
      <trkpt lat="43.9383" lon="1.89325">
        <ele>196.425882</ele>
        <time>2026-08-29T11:41:03Z</time>
      </trkpt>
      <trkpt lat="43.93839" lon="1.89321">
        <ele>196.130795</ele>
        <time>2026-08-29T11:41:04Z</time>
      </trkpt>
      <trkpt lat="43.93847" lon="1.89317">
        <ele>195.837535</ele>
        <time>2026-08-29T11:41:05Z</time>
      </trkpt>
      <trkpt lat="43.93855" lon="1.89312">
        <ele>195.544682</ele>
        <time>2026-08-29T11:41:06Z</time>
      </trkpt>
      <trkpt lat="43.93863" lon="1.89308">
        <ele>195.256741</ele>
        <time>2026-08-29T11:41:07Z</time>
      </trkpt>
      <trkpt lat="43.93871" lon="1.89304">
        <ele>194.972269</ele>
        <time>2026-08-29T11:41:08Z</time>
      </trkpt>
      <trkpt lat="43.93879" lon="1.893">
        <ele>194.696515</ele>
        <time>2026-08-29T11:41:09Z</time>
      </trkpt>
      <trkpt lat="43.93886" lon="1.89296">
        <ele>194.4285</ele>
        <time>2026-08-29T11:41:10Z</time>
      </trkpt>
      <trkpt lat="43.93894" lon="1.89292">
        <ele>194.160485</ele>
        <time>2026-08-29T11:41:11Z</time>
      </trkpt>
      <trkpt lat="43.93901" lon="1.89288">
        <ele>193.901788</ele>
        <time>2026-08-29T11:41:12Z</time>
      </trkpt>
      <trkpt lat="43.93908" lon="1.89284">
        <ele>193.65142</ele>
        <time>2026-08-29T11:41:13Z</time>
      </trkpt>
      <trkpt lat="43.93914" lon="1.8928">
        <ele>193.41022</ele>
        <time>2026-08-29T11:41:14Z</time>
      </trkpt>
      <trkpt lat="43.93921" lon="1.89275">
        <ele>193.176042</ele>
        <time>2026-08-29T11:41:15Z</time>
      </trkpt>
      <trkpt lat="43.93927" lon="1.89271">
        <ele>193.115343</ele>
        <time>2026-08-29T11:41:16Z</time>
      </trkpt>
      <trkpt lat="43.93933" lon="1.89268">
        <ele>193.135526</ele>
        <time>2026-08-29T11:41:17Z</time>
      </trkpt>
      <trkpt lat="43.9394" lon="1.89264">
        <ele>193.156059</ele>
        <time>2026-08-29T11:41:18Z</time>
      </trkpt>
      <trkpt lat="43.93946" lon="1.8926">
        <ele>193.175894</ele>
        <time>2026-08-29T11:41:19Z</time>
      </trkpt>
      <trkpt lat="43.93953" lon="1.89256">
        <ele>193.195918</ele>
        <time>2026-08-29T11:41:20Z</time>
      </trkpt>
      <trkpt lat="43.93959" lon="1.89253">
        <ele>193.215987</ele>
        <time>2026-08-29T11:41:21Z</time>
      </trkpt>
      <trkpt lat="43.93965" lon="1.89249">
        <ele>193.236074</ele>
        <time>2026-08-29T11:41:22Z</time>
      </trkpt>
      <trkpt lat="43.93971" lon="1.89245">
        <ele>193.25534</ele>
        <time>2026-08-29T11:41:23Z</time>
      </trkpt>
      <trkpt lat="43.93977" lon="1.8924">
        <ele>193.274402</ele>
        <time>2026-08-29T11:41:24Z</time>
      </trkpt>
      <trkpt lat="43.93982" lon="1.89234">
        <ele>193.292626</ele>
        <time>2026-08-29T11:41:25Z</time>
      </trkpt>
      <trkpt lat="43.93987" lon="1.89229">
        <ele>193.31085</ele>
        <time>2026-08-29T11:41:26Z</time>
      </trkpt>
      <trkpt lat="43.93992" lon="1.89224">
        <ele>193.328483</ele>
        <time>2026-08-29T11:41:27Z</time>
      </trkpt>
      <trkpt lat="43.93997" lon="1.89219">
        <ele>193.345779</ele>
        <time>2026-08-29T11:41:28Z</time>
      </trkpt>
      <trkpt lat="43.94001" lon="1.89214">
        <ele>193.363467</ele>
        <time>2026-08-29T11:41:29Z</time>
      </trkpt>
      <trkpt lat="43.94006" lon="1.89209">
        <ele>193.381478</ele>
        <time>2026-08-29T11:41:30Z</time>
      </trkpt>
      <trkpt lat="43.9401" lon="1.89204">
        <ele>193.397476</ele>
        <time>2026-08-29T11:41:31Z</time>
      </trkpt>
      <trkpt lat="43.94015" lon="1.892">
        <ele>193.413958</ele>
        <time>2026-08-29T11:41:32Z</time>
      </trkpt>
      <trkpt lat="43.94021" lon="1.89197">
        <ele>193.429783</ele>
        <time>2026-08-29T11:41:33Z</time>
      </trkpt>
      <trkpt lat="43.94026" lon="1.89197">
        <ele>193.444875</ele>
        <time>2026-08-29T11:41:34Z</time>
      </trkpt>
      <trkpt lat="43.94031" lon="1.89199">
        <ele>193.460844</ele>
        <time>2026-08-29T11:41:35Z</time>
      </trkpt>
      <trkpt lat="43.94035" lon="1.89201">
        <ele>193.4733</ele>
        <time>2026-08-29T11:41:36Z</time>
      </trkpt>
      <trkpt lat="43.94039" lon="1.89204">
        <ele>193.486197</ele>
        <time>2026-08-29T11:41:37Z</time>
      </trkpt>
      <trkpt lat="43.94042" lon="1.89208">
        <ele>193.498681</ele>
        <time>2026-08-29T11:41:38Z</time>
      </trkpt>
      <trkpt lat="43.94045" lon="1.89212">
        <ele>193.510534</ele>
        <time>2026-08-29T11:41:39Z</time>
      </trkpt>
      <trkpt lat="43.94048" lon="1.89216">
        <ele>193.522684</ele>
        <time>2026-08-29T11:41:40Z</time>
      </trkpt>
      <trkpt lat="43.94051" lon="1.8922">
        <ele>193.534789</ele>
        <time>2026-08-29T11:41:41Z</time>
      </trkpt>
      <trkpt lat="43.94054" lon="1.89224">
        <ele>193.546919</ele>
        <time>2026-08-29T11:41:42Z</time>
      </trkpt>
      <trkpt lat="43.94057" lon="1.89228">
        <ele>193.558271</ele>
        <time>2026-08-29T11:41:43Z</time>
      </trkpt>
      <trkpt lat="43.9406" lon="1.89232">
        <ele>193.569336</ele>
        <time>2026-08-29T11:41:44Z</time>
      </trkpt>
      <trkpt lat="43.94062" lon="1.89235">
        <ele>193.579985</ele>
        <time>2026-08-29T11:41:45Z</time>
      </trkpt>
      <trkpt lat="43.94065" lon="1.89238">
        <ele>193.58987</ele>
        <time>2026-08-29T11:41:46Z</time>
      </trkpt>
      <trkpt lat="43.94068" lon="1.8924">
        <ele>193.598697</ele>
        <time>2026-08-29T11:41:47Z</time>
      </trkpt>
      <trkpt lat="43.9407" lon="1.89243">
        <ele>193.608415</ele>
        <time>2026-08-29T11:41:48Z</time>
      </trkpt>
      <trkpt lat="43.94072" lon="1.89246">
        <ele>193.617424</ele>
        <time>2026-08-29T11:41:49Z</time>
      </trkpt>
      <trkpt lat="43.94074" lon="1.89249">
        <ele>193.710362</ele>
        <time>2026-08-29T11:41:50Z</time>
      </trkpt>
      <trkpt lat="43.94076" lon="1.89251">
        <ele>193.953341</ele>
        <time>2026-08-29T11:41:51Z</time>
      </trkpt>
      <trkpt lat="43.94078" lon="1.89254">
        <ele>194.173762</ele>
        <time>2026-08-29T11:41:52Z</time>
      </trkpt>
      <trkpt lat="43.9408" lon="1.89255">
        <ele>194.366335</ele>
        <time>2026-08-29T11:41:53Z</time>
      </trkpt>
      <trkpt lat="43.94081" lon="1.89257">
        <ele>194.537288</ele>
        <time>2026-08-29T11:41:54Z</time>
      </trkpt>
      <trkpt lat="43.94082" lon="1.89259">
        <ele>194.709181</ele>
        <time>2026-08-29T11:41:55Z</time>
      </trkpt>
      <trkpt lat="43.94084" lon="1.89261">
        <ele>194.879098</ele>
        <time>2026-08-29T11:41:56Z</time>
      </trkpt>
      <trkpt lat="43.94086" lon="1.89262">
        <ele>195.056556</ele>
        <time>2026-08-29T11:41:57Z</time>
      </trkpt>
      <trkpt lat="43.94087" lon="1.89264">
        <ele>195.241704</ele>
        <time>2026-08-29T11:41:58Z</time>
      </trkpt>
      <trkpt lat="43.94089" lon="1.89265">
        <ele>195.410456</ele>
        <time>2026-08-29T11:41:59Z</time>
      </trkpt>
      <trkpt lat="43.9409" lon="1.89267">
        <ele>195.584297</ele>
        <time>2026-08-29T11:42:00Z</time>
      </trkpt>
      <trkpt lat="43.94092" lon="1.89268">
        <ele>195.761755</ele>
        <time>2026-08-29T11:42:01Z</time>
      </trkpt>
      <trkpt lat="43.94093" lon="1.8927">
        <ele>195.940154</ele>
        <time>2026-08-29T11:42:02Z</time>
      </trkpt>
      <trkpt lat="43.94095" lon="1.89271">
        <ele>196.112559</ele>
        <time>2026-08-29T11:42:03Z</time>
      </trkpt>
      <trkpt lat="43.94097" lon="1.89271">
        <ele>196.277562</ele>
        <time>2026-08-29T11:42:04Z</time>
      </trkpt>
      <trkpt lat="43.94099" lon="1.89272">
        <ele>196.444806</ele>
        <time>2026-08-29T11:42:05Z</time>
      </trkpt>
      <trkpt lat="43.94101" lon="1.89273">
        <ele>196.640212</ele>
        <time>2026-08-29T11:42:06Z</time>
      </trkpt>
      <trkpt lat="43.94102" lon="1.89274">
        <ele>196.829441</ele>
        <time>2026-08-29T11:42:07Z</time>
      </trkpt>
      <trkpt lat="43.94104" lon="1.89275">
        <ele>197.020768</ele>
        <time>2026-08-29T11:42:08Z</time>
      </trkpt>
      <trkpt lat="43.94106" lon="1.89276">
        <ele>197.203279</ele>
        <time>2026-08-29T11:42:09Z</time>
      </trkpt>
      <trkpt lat="43.94108" lon="1.89277">
        <ele>197.394605</ele>
        <time>2026-08-29T11:42:10Z</time>
      </trkpt>
      <trkpt lat="43.9411" lon="1.89277">
        <ele>197.591694</ele>
        <time>2026-08-29T11:42:11Z</time>
      </trkpt>
      <trkpt lat="43.94112" lon="1.89277">
        <ele>197.766354</ele>
        <time>2026-08-29T11:42:12Z</time>
      </trkpt>
      <trkpt lat="43.94114" lon="1.89278">
        <ele>197.950683</ele>
        <time>2026-08-29T11:42:13Z</time>
      </trkpt>
      <trkpt lat="43.94116" lon="1.89277">
        <ele>198.144181</ele>
        <time>2026-08-29T11:42:14Z</time>
      </trkpt>
      <trkpt lat="43.94119" lon="1.89278">
        <ele>198.33768</ele>
        <time>2026-08-29T11:42:15Z</time>
      </trkpt>
      <trkpt lat="43.9412" lon="1.89278">
        <ele>198.512841</ele>
        <time>2026-08-29T11:42:16Z</time>
      </trkpt>
      <trkpt lat="43.94122" lon="1.89278">
        <ele>198.679496</ele>
        <time>2026-08-29T11:42:17Z</time>
      </trkpt>
      <trkpt lat="43.94124" lon="1.89278">
        <ele>198.845096</ele>
        <time>2026-08-29T11:42:18Z</time>
      </trkpt>
      <trkpt lat="43.94126" lon="1.89278">
        <ele>199.010564</ele>
        <time>2026-08-29T11:42:19Z</time>
      </trkpt>
      <trkpt lat="43.94128" lon="1.89278">
        <ele>199.176031</ele>
        <time>2026-08-29T11:42:20Z</time>
      </trkpt>
      <trkpt lat="43.94129" lon="1.89278">
        <ele>199.341631</ele>
        <time>2026-08-29T11:42:21Z</time>
      </trkpt>
      <trkpt lat="43.94131" lon="1.89277">
        <ele>199.507231</ele>
        <time>2026-08-29T11:42:22Z</time>
      </trkpt>
      <trkpt lat="43.94133" lon="1.89278">
        <ele>199.682016</ele>
        <time>2026-08-29T11:42:23Z</time>
      </trkpt>
      <trkpt lat="43.94135" lon="1.89277">
        <ele>199.865988</ele>
        <time>2026-08-29T11:42:24Z</time>
      </trkpt>
      <trkpt lat="43.94137" lon="1.89277">
        <ele>200.033561</ele>
        <time>2026-08-29T11:42:25Z</time>
      </trkpt>
      <trkpt lat="43.94139" lon="1.89277">
        <ele>200.211329</ele>
        <time>2026-08-29T11:42:26Z</time>
      </trkpt>
      <trkpt lat="43.94141" lon="1.89276">
        <ele>200.39203</ele>
        <time>2026-08-29T11:42:27Z</time>
      </trkpt>
      <trkpt lat="43.94142" lon="1.89275">
        <ele>200.54438</ele>
        <time>2026-08-29T11:42:28Z</time>
      </trkpt>
      <trkpt lat="43.94144" lon="1.89275">
        <ele>200.701911</ele>
        <time>2026-08-29T11:42:29Z</time>
      </trkpt>
      <trkpt lat="43.94146" lon="1.89275">
        <ele>200.841223</ele>
        <time>2026-08-29T11:42:30Z</time>
      </trkpt>
      <trkpt lat="43.94147" lon="1.89275">
        <ele>201.00722</ele>
        <time>2026-08-29T11:42:31Z</time>
      </trkpt>
      <trkpt lat="43.94149" lon="1.89275">
        <ele>201.182381</ele>
        <time>2026-08-29T11:42:32Z</time>
      </trkpt>
      <trkpt lat="43.94151" lon="1.89275">
        <ele>201.357542</ele>
        <time>2026-08-29T11:42:33Z</time>
      </trkpt>
      <trkpt lat="43.94153" lon="1.89275">
        <ele>201.523009</ele>
        <time>2026-08-29T11:42:34Z</time>
      </trkpt>
      <trkpt lat="43.94155" lon="1.89275">
        <ele>201.690582</ele>
        <time>2026-08-29T11:42:35Z</time>
      </trkpt>
      <trkpt lat="43.94156" lon="1.89274">
        <ele>201.849084</ele>
        <time>2026-08-29T11:42:36Z</time>
      </trkpt>
      <trkpt lat="43.94158" lon="1.89274">
        <ele>202.01508</ele>
        <time>2026-08-29T11:42:37Z</time>
      </trkpt>
      <trkpt lat="43.9416" lon="1.89273">
        <ele>202.16743</ele>
        <time>2026-08-29T11:42:38Z</time>
      </trkpt>
      <trkpt lat="43.94161" lon="1.89273">
        <ele>202.305953</ele>
        <time>2026-08-29T11:42:39Z</time>
      </trkpt>
      <trkpt lat="43.94162" lon="1.89273">
        <ele>202.407935</ele>
        <time>2026-08-29T11:42:40Z</time>
      </trkpt>
      <trkpt lat="43.94164" lon="1.89273">
        <ele>202.52744</ele>
        <time>2026-08-29T11:42:41Z</time>
      </trkpt>
      <trkpt lat="43.94165" lon="1.89273">
        <ele>202.63795</ele>
        <time>2026-08-29T11:42:42Z</time>
      </trkpt>
      <trkpt lat="43.94166" lon="1.89273">
        <ele>202.751394</ele>
        <time>2026-08-29T11:42:43Z</time>
      </trkpt>
      <trkpt lat="43.94167" lon="1.89272">
        <ele>202.860033</ele>
        <time>2026-08-29T11:42:44Z</time>
      </trkpt>
      <trkpt lat="43.94169" lon="1.89272">
        <ele>202.991425</ele>
        <time>2026-08-29T11:42:45Z</time>
      </trkpt>
      <trkpt lat="43.9417" lon="1.89271">
        <ele>203.120292</ele>
        <time>2026-08-29T11:42:46Z</time>
      </trkpt>
      <trkpt lat="43.94172" lon="1.89271">
        <ele>203.276567</ele>
        <time>2026-08-29T11:42:47Z</time>
      </trkpt>
      <trkpt lat="43.94173" lon="1.89271">
        <ele>203.434098</ele>
        <time>2026-08-29T11:42:48Z</time>
      </trkpt>
      <trkpt lat="43.94175" lon="1.89271">
        <ele>203.582515</ele>
        <time>2026-08-29T11:42:49Z</time>
      </trkpt>
      <trkpt lat="43.94177" lon="1.8927">
        <ele>203.741017</ele>
        <time>2026-08-29T11:42:50Z</time>
      </trkpt>
      <trkpt lat="43.94178" lon="1.8927">
        <ele>203.880329</ele>
        <time>2026-08-29T11:42:51Z</time>
      </trkpt>
      <trkpt lat="43.9418" lon="1.8927">
        <ele>204.020737</ele>
        <time>2026-08-29T11:42:52Z</time>
      </trkpt>
      <trkpt lat="43.94181" lon="1.89269">
        <ele>204.171497</ele>
        <time>2026-08-29T11:42:53Z</time>
      </trkpt>
      <trkpt lat="43.94183" lon="1.89269">
        <ele>204.328332</ele>
        <time>2026-08-29T11:42:54Z</time>
      </trkpt>
      <trkpt lat="43.94184" lon="1.89269">
        <ele>204.457199</ele>
        <time>2026-08-29T11:42:55Z</time>
      </trkpt>
      <trkpt lat="43.94186" lon="1.89269">
        <ele>204.604875</ele>
        <time>2026-08-29T11:42:56Z</time>
      </trkpt>
      <trkpt lat="43.94187" lon="1.89268">
        <ele>204.749596</ele>
        <time>2026-08-29T11:42:57Z</time>
      </trkpt>
      <trkpt lat="43.94189" lon="1.89267">
        <ele>204.891402</ele>
        <time>2026-08-29T11:42:58Z</time>
      </trkpt>
      <trkpt lat="43.94191" lon="1.89267">
        <ele>205.061569</ele>
        <time>2026-08-29T11:42:59Z</time>
      </trkpt>
      <trkpt lat="43.94192" lon="1.89266">
        <ele>205.209246</ele>
        <time>2026-08-29T11:43:00Z</time>
      </trkpt>
      <trkpt lat="43.94194" lon="1.89266">
        <ele>205.340638</ele>
        <time>2026-08-29T11:43:01Z</time>
      </trkpt>
      <trkpt lat="43.94195" lon="1.89266">
        <ele>205.470014</ele>
        <time>2026-08-29T11:43:02Z</time>
      </trkpt>
      <trkpt lat="43.94196" lon="1.89266">
        <ele>205.591157</ele>
        <time>2026-08-29T11:43:03Z</time>
      </trkpt>
      <trkpt lat="43.94198" lon="1.89265">
        <ele>205.701667</ele>
        <time>2026-08-29T11:43:04Z</time>
      </trkpt>
      <trkpt lat="43.94199" lon="1.89265">
        <ele>205.802786</ele>
        <time>2026-08-29T11:43:05Z</time>
      </trkpt>
      <trkpt lat="43.942" lon="1.89266">
        <ele>205.932162</ele>
        <time>2026-08-29T11:43:06Z</time>
      </trkpt>
      <trkpt lat="43.94202" lon="1.89266">
        <ele>206.088997</ele>
        <time>2026-08-29T11:43:07Z</time>
      </trkpt>
      <trkpt lat="43.94204" lon="1.89266">
        <ele>206.245831</ele>
        <time>2026-08-29T11:43:08Z</time>
      </trkpt>
      <trkpt lat="43.94205" lon="1.89266">
        <ele>206.402666</ele>
        <time>2026-08-29T11:43:09Z</time>
      </trkpt>
      <trkpt lat="43.94207" lon="1.89266">
        <ele>206.549748</ele>
        <time>2026-08-29T11:43:10Z</time>
      </trkpt>
      <trkpt lat="43.94208" lon="1.89266">
        <ele>206.688272</ele>
        <time>2026-08-29T11:43:11Z</time>
      </trkpt>
      <trkpt lat="43.9421" lon="1.89266">
        <ele>206.808507</ele>
        <time>2026-08-29T11:43:12Z</time>
      </trkpt>
      <trkpt lat="43.94211" lon="1.89266">
        <ele>206.918818</ele>
        <time>2026-08-29T11:43:13Z</time>
      </trkpt>
      <trkpt lat="43.94212" lon="1.89266">
        <ele>207.011693</ele>
        <time>2026-08-29T11:43:14Z</time>
      </trkpt>
      <trkpt lat="43.94213" lon="1.89266">
        <ele>207.113029</ele>
        <time>2026-08-29T11:43:15Z</time>
      </trkpt>
      <trkpt lat="43.94214" lon="1.89266">
        <ele>207.233264</ele>
        <time>2026-08-29T11:43:16Z</time>
      </trkpt>
      <trkpt lat="43.94216" lon="1.89266">
        <ele>207.389679</ele>
        <time>2026-08-29T11:43:17Z</time>
      </trkpt>
      <trkpt lat="43.94218" lon="1.89266">
        <ele>207.546094</ele>
        <time>2026-08-29T11:43:18Z</time>
      </trkpt>
      <trkpt lat="43.94219" lon="1.89266">
        <ele>207.71209</ele>
        <time>2026-08-29T11:43:19Z</time>
      </trkpt>
      <trkpt lat="43.94221" lon="1.89266">
        <ele>207.887875</ele>
        <time>2026-08-29T11:43:20Z</time>
      </trkpt>
      <trkpt lat="43.94223" lon="1.89267">
        <ele>208.036292</ele>
        <time>2026-08-29T11:43:21Z</time>
      </trkpt>
      <trkpt lat="43.94224" lon="1.89267">
        <ele>208.167684</ele>
        <time>2026-08-29T11:43:22Z</time>
      </trkpt>
      <trkpt lat="43.94226" lon="1.89267">
        <ele>208.290086</ele>
        <time>2026-08-29T11:43:23Z</time>
      </trkpt>
      <trkpt lat="43.94227" lon="1.89268">
        <ele>208.421478</ele>
        <time>2026-08-29T11:43:24Z</time>
      </trkpt>
      <trkpt lat="43.94229" lon="1.89268">
        <ele>208.560002</ele>
        <time>2026-08-29T11:43:25Z</time>
      </trkpt>
      <trkpt lat="43.9423" lon="1.89268">
        <ele>208.716417</ele>
        <time>2026-08-29T11:43:26Z</time>
      </trkpt>
      <trkpt lat="43.94232" lon="1.89268">
        <ele>208.845793</ele>
        <time>2026-08-29T11:43:27Z</time>
      </trkpt>
      <trkpt lat="43.94233" lon="1.89268">
        <ele>208.983841</ele>
        <time>2026-08-29T11:43:28Z</time>
      </trkpt>
      <trkpt lat="43.94235" lon="1.89267">
        <ele>209.122365</ele>
        <time>2026-08-29T11:43:29Z</time>
      </trkpt>
      <trkpt lat="43.94236" lon="1.89267">
        <ele>209.270042</ele>
        <time>2026-08-29T11:43:30Z</time>
      </trkpt>
      <trkpt lat="43.94238" lon="1.89267">
        <ele>209.400262</ele>
        <time>2026-08-29T11:43:31Z</time>
      </trkpt>
      <trkpt lat="43.94239" lon="1.89266">
        <ele>209.534947</ele>
        <time>2026-08-29T11:43:32Z</time>
      </trkpt>
      <trkpt lat="43.94241" lon="1.89266">
        <ele>209.709607</ele>
        <time>2026-08-29T11:43:33Z</time>
      </trkpt>
      <trkpt lat="43.94243" lon="1.89266">
        <ele>209.875603</ele>
        <time>2026-08-29T11:43:34Z</time>
      </trkpt>
      <trkpt lat="43.94244" lon="1.89266">
        <ele>210.033135</ele>
        <time>2026-08-29T11:43:35Z</time>
      </trkpt>
      <trkpt lat="43.94246" lon="1.89265">
        <ele>210.189883</ele>
        <time>2026-08-29T11:43:36Z</time>
      </trkpt>
      <trkpt lat="43.94248" lon="1.89265">
        <ele>210.325585</ele>
        <time>2026-08-29T11:43:37Z</time>
      </trkpt>
      <trkpt lat="43.9425" lon="1.89264">
        <ele>210.453375</ele>
        <time>2026-08-29T11:43:38Z</time>
      </trkpt>
      <trkpt lat="43.94252" lon="1.89264">
        <ele>210.578528</ele>
        <time>2026-08-29T11:43:39Z</time>
      </trkpt>
      <trkpt lat="43.94254" lon="1.89263">
        <ele>210.703681</ele>
        <time>2026-08-29T11:43:40Z</time>
      </trkpt>
      <trkpt lat="43.94255" lon="1.89264">
        <ele>210.821144</ele>
        <time>2026-08-29T11:43:41Z</time>
      </trkpt>
      <trkpt lat="43.94257" lon="1.89263">
        <ele>210.952403</ele>
        <time>2026-08-29T11:43:42Z</time>
      </trkpt>
      <trkpt lat="43.94259" lon="1.89264">
        <ele>211.09056</ele>
        <time>2026-08-29T11:43:43Z</time>
      </trkpt>
      <trkpt lat="43.94261" lon="1.89264">
        <ele>211.215219</ele>
        <time>2026-08-29T11:43:44Z</time>
      </trkpt>
      <trkpt lat="43.94263" lon="1.89264">
        <ele>211.34676</ele>
        <time>2026-08-29T11:43:45Z</time>
      </trkpt>
      <trkpt lat="43.94265" lon="1.89264">
        <ele>211.484917</ele>
        <time>2026-08-29T11:43:46Z</time>
      </trkpt>
      <trkpt lat="43.94267" lon="1.89263">
        <ele>211.62441</ele>
        <time>2026-08-29T11:43:47Z</time>
      </trkpt>
      <trkpt lat="43.94269" lon="1.89263">
        <ele>211.755668</ele>
        <time>2026-08-29T11:43:48Z</time>
      </trkpt>
      <trkpt lat="43.94271" lon="1.89264">
        <ele>211.880327</ele>
        <time>2026-08-29T11:43:49Z</time>
      </trkpt>
      <trkpt lat="43.94272" lon="1.89264">
        <ele>212.004985</ele>
        <time>2026-08-29T11:43:50Z</time>
      </trkpt>
      <trkpt lat="43.94274" lon="1.89264">
        <ele>212.136244</ele>
        <time>2026-08-29T11:43:51Z</time>
      </trkpt>
      <trkpt lat="43.94276" lon="1.89264">
        <ele>212.253602</ele>
        <time>2026-08-29T11:43:52Z</time>
      </trkpt>
      <trkpt lat="43.94278" lon="1.89264">
        <ele>212.377963</ele>
        <time>2026-08-29T11:43:53Z</time>
      </trkpt>
      <trkpt lat="43.94279" lon="1.89264">
        <ele>212.495741</ele>
        <time>2026-08-29T11:43:54Z</time>
      </trkpt>
      <trkpt lat="43.94281" lon="1.89264">
        <ele>212.613519</ele>
        <time>2026-08-29T11:43:55Z</time>
      </trkpt>
      <trkpt lat="43.94283" lon="1.89264">
        <ele>212.744778</ele>
        <time>2026-08-29T11:43:56Z</time>
      </trkpt>
      <trkpt lat="43.94285" lon="1.89264">
        <ele>212.89009</ele>
        <time>2026-08-29T11:43:57Z</time>
      </trkpt>
      <trkpt lat="43.94287" lon="1.89264">
        <ele>213.021631</ele>
        <time>2026-08-29T11:43:58Z</time>
      </trkpt>
      <trkpt lat="43.94289" lon="1.89264">
        <ele>213.166687</ele>
        <time>2026-08-29T11:43:59Z</time>
      </trkpt>
      <trkpt lat="43.94291" lon="1.89263">
        <ele>213.306975</ele>
        <time>2026-08-29T11:44:00Z</time>
      </trkpt>
      <trkpt lat="43.94293" lon="1.89263">
        <ele>213.431335</ele>
        <time>2026-08-29T11:44:01Z</time>
      </trkpt>
      <trkpt lat="43.94295" lon="1.89263">
        <ele>213.555696</ele>
        <time>2026-08-29T11:44:02Z</time>
      </trkpt>
      <trkpt lat="43.94296" lon="1.89264">
        <ele>213.673159</ele>
        <time>2026-08-29T11:44:03Z</time>
      </trkpt>
      <trkpt lat="43.94298" lon="1.89264">
        <ele>213.783614</ele>
        <time>2026-08-29T11:44:04Z</time>
      </trkpt>
      <trkpt lat="43.943" lon="1.89263">
        <ele>213.915155</ele>
        <time>2026-08-29T11:44:05Z</time>
      </trkpt>
      <trkpt lat="43.94302" lon="1.89263">
        <ele>214.039515</ele>
        <time>2026-08-29T11:44:06Z</time>
      </trkpt>
      <trkpt lat="43.94304" lon="1.89264">
        <ele>214.177673</ele>
        <time>2026-08-29T11:44:07Z</time>
      </trkpt>
      <trkpt lat="43.94306" lon="1.89263">
        <ele>214.316098</ele>
        <time>2026-08-29T11:44:08Z</time>
      </trkpt>
      <trkpt lat="43.94307" lon="1.89263">
        <ele>214.426999</ele>
        <time>2026-08-29T11:44:09Z</time>
      </trkpt>
      <trkpt lat="43.94309" lon="1.89263">
        <ele>214.510435</ele>
        <time>2026-08-29T11:44:10Z</time>
      </trkpt>
      <trkpt lat="43.9431" lon="1.89264">
        <ele>214.607592</ele>
        <time>2026-08-29T11:44:11Z</time>
      </trkpt>
      <trkpt lat="43.94311" lon="1.89264">
        <ele>214.712211</ele>
        <time>2026-08-29T11:44:12Z</time>
      </trkpt>
      <trkpt lat="43.94313" lon="1.89264">
        <ele>214.816239</ele>
        <time>2026-08-29T11:44:13Z</time>
      </trkpt>
      <trkpt lat="43.94315" lon="1.89264">
        <ele>214.933702</ele>
        <time>2026-08-29T11:44:14Z</time>
      </trkpt>
      <trkpt lat="43.94317" lon="1.89264">
        <ele>215.065243</ele>
        <time>2026-08-29T11:44:15Z</time>
      </trkpt>
      <trkpt lat="43.94319" lon="1.89264">
        <ele>215.203311</ele>
        <time>2026-08-29T11:44:16Z</time>
      </trkpt>
      <trkpt lat="43.9432" lon="1.89264">
        <ele>215.334852</ele>
        <time>2026-08-29T11:44:17Z</time>
      </trkpt>
      <trkpt lat="43.94323" lon="1.89264">
        <ele>215.479908</ele>
        <time>2026-08-29T11:44:18Z</time>
      </trkpt>
      <trkpt lat="43.94325" lon="1.89264">
        <ele>215.62522</ele>
        <time>2026-08-29T11:44:19Z</time>
      </trkpt>
      <trkpt lat="43.94327" lon="1.89264">
        <ele>215.756479</ele>
        <time>2026-08-29T11:44:20Z</time>
      </trkpt>
      <trkpt lat="43.94328" lon="1.89264">
        <ele>215.875509</ele>
        <time>2026-08-29T11:44:21Z</time>
      </trkpt>
      <trkpt lat="43.9433" lon="1.89265">
        <ele>216.015002</ele>
        <time>2026-08-29T11:44:22Z</time>
      </trkpt>
      <trkpt lat="43.94332" lon="1.89265">
        <ele>216.141724</ele>
        <time>2026-08-29T11:44:23Z</time>
      </trkpt>
      <trkpt lat="43.94334" lon="1.89266">
        <ele>216.269175</ele>
        <time>2026-08-29T11:44:24Z</time>
      </trkpt>
      <trkpt lat="43.94336" lon="1.89267">
        <ele>216.44079</ele>
        <time>2026-08-29T11:44:25Z</time>
      </trkpt>
      <trkpt lat="43.94338" lon="1.89267">
        <ele>216.593395</ele>
        <time>2026-08-29T11:44:26Z</time>
      </trkpt>
      <trkpt lat="43.9434" lon="1.89267">
        <ele>216.738366</ele>
        <time>2026-08-29T11:44:27Z</time>
      </trkpt>
      <trkpt lat="43.94342" lon="1.89267">
        <ele>216.876434</ele>
        <time>2026-08-29T11:44:28Z</time>
      </trkpt>
      <trkpt lat="43.94345" lon="1.89267">
        <ele>217.028391</ele>
        <time>2026-08-29T11:44:29Z</time>
      </trkpt>
      <trkpt lat="43.94347" lon="1.89267">
        <ele>217.194147</ele>
        <time>2026-08-29T11:44:30Z</time>
      </trkpt>
      <trkpt lat="43.9435" lon="1.89268">
        <ele>217.36929</ele>
        <time>2026-08-29T11:44:31Z</time>
      </trkpt>
      <trkpt lat="43.94352" lon="1.89268">
        <ele>217.528767</ele>
        <time>2026-08-29T11:44:32Z</time>
      </trkpt>
      <trkpt lat="43.94354" lon="1.89269">
        <ele>217.681372</ele>
        <time>2026-08-29T11:44:33Z</time>
      </trkpt>
      <trkpt lat="43.94356" lon="1.89269">
        <ele>217.826684</ele>
        <time>2026-08-29T11:44:34Z</time>
      </trkpt>
      <trkpt lat="43.94358" lon="1.89269">
        <ele>217.97864</ele>
        <time>2026-08-29T11:44:35Z</time>
      </trkpt>
      <trkpt lat="43.94361" lon="1.89269">
        <ele>218.137497</ele>
        <time>2026-08-29T11:44:36Z</time>
      </trkpt>
      <trkpt lat="43.94363" lon="1.8927">
        <ele>218.311862</ele>
        <time>2026-08-29T11:44:37Z</time>
      </trkpt>
      <trkpt lat="43.94366" lon="1.8927">
        <ele>218.493811</ele>
        <time>2026-08-29T11:44:38Z</time>
      </trkpt>
      <trkpt lat="43.94369" lon="1.8927">
        <ele>218.70145</ele>
        <time>2026-08-29T11:44:39Z</time>
      </trkpt>
      <trkpt lat="43.94372" lon="1.8927">
        <ele>218.901648</ele>
        <time>2026-08-29T11:44:40Z</time>
      </trkpt>
      <trkpt lat="43.94375" lon="1.8927">
        <ele>219.115885</ele>
        <time>2026-08-29T11:44:41Z</time>
      </trkpt>
      <trkpt lat="43.94378" lon="1.8927">
        <ele>219.316084</ele>
        <time>2026-08-29T11:44:42Z</time>
      </trkpt>
      <trkpt lat="43.94381" lon="1.8927">
        <ele>219.523245</ele>
        <time>2026-08-29T11:44:43Z</time>
      </trkpt>
      <trkpt lat="43.94384" lon="1.89271">
        <ele>219.738173</ele>
        <time>2026-08-29T11:44:44Z</time>
      </trkpt>
      <trkpt lat="43.94387" lon="1.89271">
        <ele>219.938371</ele>
        <time>2026-08-29T11:44:45Z</time>
      </trkpt>
      <trkpt lat="43.9439" lon="1.89271">
        <ele>220.138632</ele>
        <time>2026-08-29T11:44:46Z</time>
      </trkpt>
      <trkpt lat="43.94392" lon="1.89271">
        <ele>220.297488</ele>
        <time>2026-08-29T11:44:47Z</time>
      </trkpt>
      <trkpt lat="43.94394" lon="1.89271">
        <ele>220.470359</ele>
        <time>2026-08-29T11:44:48Z</time>
      </trkpt>
      <trkpt lat="43.94396" lon="1.8927">
        <ele>220.602369</ele>
        <time>2026-08-29T11:44:49Z</time>
      </trkpt>
      <trkpt lat="43.94398" lon="1.89271">
        <ele>220.726729</ele>
        <time>2026-08-29T11:44:50Z</time>
      </trkpt>
      <trkpt lat="43.944" lon="1.8927">
        <ele>220.85109</ele>
        <time>2026-08-29T11:44:51Z</time>
      </trkpt>
      <trkpt lat="43.94402" lon="1.8927">
        <ele>220.996827</ele>
        <time>2026-08-29T11:44:52Z</time>
      </trkpt>
      <trkpt lat="43.94404" lon="1.8927">
        <ele>221.134984</ele>
        <time>2026-08-29T11:44:53Z</time>
      </trkpt>
      <trkpt lat="43.94406" lon="1.8927">
        <ele>221.28694</ele>
        <time>2026-08-29T11:44:54Z</time>
      </trkpt>
      <trkpt lat="43.94408" lon="1.8927">
        <ele>221.432252</ele>
        <time>2026-08-29T11:44:55Z</time>
      </trkpt>
      <trkpt lat="43.94411" lon="1.89269">
        <ele>221.598604</ele>
        <time>2026-08-29T11:44:56Z</time>
      </trkpt>
      <trkpt lat="43.94413" lon="1.89269">
        <ele>221.757382</ele>
        <time>2026-08-29T11:44:57Z</time>
      </trkpt>
      <trkpt lat="43.94415" lon="1.89269">
        <ele>221.923733</ele>
        <time>2026-08-29T11:44:58Z</time>
      </trkpt>
      <trkpt lat="43.94418" lon="1.89269">
        <ele>222.076339</ele>
        <time>2026-08-29T11:44:59Z</time>
      </trkpt>
      <trkpt lat="43.9442" lon="1.89269">
        <ele>222.222075</ele>
        <time>2026-08-29T11:45:00Z</time>
      </trkpt>
      <trkpt lat="43.94422" lon="1.89269">
        <ele>222.380853</ele>
        <time>2026-08-29T11:45:01Z</time>
      </trkpt>
      <trkpt lat="43.94424" lon="1.89269">
        <ele>222.553439</ele>
        <time>2026-08-29T11:45:02Z</time>
      </trkpt>
      <trkpt lat="43.94427" lon="1.89269">
        <ele>222.736752</ele>
        <time>2026-08-29T11:45:03Z</time>
      </trkpt>
      <trkpt lat="43.94429" lon="1.89269">
        <ele>222.914446</ele>
        <time>2026-08-29T11:45:04Z</time>
      </trkpt>
      <trkpt lat="43.94432" lon="1.89269">
        <ele>223.09214</ele>
        <time>2026-08-29T11:45:05Z</time>
      </trkpt>
      <trkpt lat="43.94434" lon="1.89269">
        <ele>223.255516</ele>
        <time>2026-08-29T11:45:06Z</time>
      </trkpt>
      <trkpt lat="43.94436" lon="1.89269">
        <ele>223.425833</ele>
        <time>2026-08-29T11:45:07Z</time>
      </trkpt>
      <trkpt lat="43.94439" lon="1.8927">
        <ele>223.5959</ele>
        <time>2026-08-29T11:45:08Z</time>
      </trkpt>
      <trkpt lat="43.94441" lon="1.8927">
        <ele>223.767212</ele>
        <time>2026-08-29T11:45:09Z</time>
      </trkpt>
      <trkpt lat="43.94443" lon="1.8927">
        <ele>223.916549</ele>
        <time>2026-08-29T11:45:10Z</time>
      </trkpt>
      <trkpt lat="43.94445" lon="1.89271">
        <ele>224.04398</ele>
        <time>2026-08-29T11:45:11Z</time>
      </trkpt>
      <trkpt lat="43.94446" lon="1.89271">
        <ele>224.1869</ele>
        <time>2026-08-29T11:45:12Z</time>
      </trkpt>
      <trkpt lat="43.94448" lon="1.89272">
        <ele>224.314331</ele>
        <time>2026-08-29T11:45:13Z</time>
      </trkpt>
      <trkpt lat="43.9445" lon="1.89272">
        <ele>224.441762</ele>
        <time>2026-08-29T11:45:14Z</time>
      </trkpt>
      <trkpt lat="43.94452" lon="1.89272">
        <ele>224.582586</ele>
        <time>2026-08-29T11:45:15Z</time>
      </trkpt>
      <trkpt lat="43.94453" lon="1.89272">
        <ele>224.700956</ele>
        <time>2026-08-29T11:45:16Z</time>
      </trkpt>
      <trkpt lat="43.94456" lon="1.89272">
        <ele>224.907962</ele>
        <time>2026-08-29T11:45:17Z</time>
      </trkpt>
      <trkpt lat="43.94459" lon="1.89273">
        <ele>225.094633</ele>
        <time>2026-08-29T11:45:18Z</time>
      </trkpt>
      <trkpt lat="43.94461" lon="1.89273">
        <ele>225.272327</ele>
        <time>2026-08-29T11:45:19Z</time>
      </trkpt>
      <trkpt lat="43.94463" lon="1.89273">
        <ele>225.449782</ele>
        <time>2026-08-29T11:45:20Z</time>
      </trkpt>
      <trkpt lat="43.94466" lon="1.89273">
        <ele>225.634624</ele>
        <time>2026-08-29T11:45:21Z</time>
      </trkpt>
      <trkpt lat="43.94469" lon="1.89273">
        <ele>225.82678</ele>
        <time>2026-08-29T11:45:22Z</time>
      </trkpt>
      <trkpt lat="43.94471" lon="1.89273">
        <ele>226.004872</ele>
        <time>2026-08-29T11:45:23Z</time>
      </trkpt>
      <trkpt lat="43.94473" lon="1.89272">
        <ele>226.176926</ele>
        <time>2026-08-29T11:45:24Z</time>
      </trkpt>
      <trkpt lat="43.94476" lon="1.89272">
        <ele>226.349882</ele>
        <time>2026-08-29T11:45:25Z</time>
      </trkpt>
      <trkpt lat="43.94478" lon="1.89271">
        <ele>226.531126</ele>
        <time>2026-08-29T11:45:26Z</time>
      </trkpt>
      <trkpt lat="43.9448" lon="1.8927">
        <ele>226.700627</ele>
        <time>2026-08-29T11:45:27Z</time>
      </trkpt>
      <trkpt lat="43.94483" lon="1.8927">
        <ele>226.880852</ele>
        <time>2026-08-29T11:45:28Z</time>
      </trkpt>
      <trkpt lat="43.94485" lon="1.89269">
        <ele>227.06684</ele>
        <time>2026-08-29T11:45:29Z</time>
      </trkpt>
      <trkpt lat="43.94488" lon="1.89269">
        <ele>227.254343</ele>
        <time>2026-08-29T11:45:30Z</time>
      </trkpt>
      <trkpt lat="43.9449" lon="1.89268">
        <ele>227.455656</ele>
        <time>2026-08-29T11:45:31Z</time>
      </trkpt>
      <trkpt lat="43.94493" lon="1.89268">
        <ele>227.648107</ele>
        <time>2026-08-29T11:45:32Z</time>
      </trkpt>
      <trkpt lat="43.94496" lon="1.89267">
        <ele>227.856136</ele>
        <time>2026-08-29T11:45:33Z</time>
      </trkpt>
      <trkpt lat="43.94498" lon="1.89267">
        <ele>228.04159</ele>
        <time>2026-08-29T11:45:34Z</time>
      </trkpt>
      <trkpt lat="43.945" lon="1.89267">
        <ele>228.189785</ele>
        <time>2026-08-29T11:45:35Z</time>
      </trkpt>
      <trkpt lat="43.94502" lon="1.89266">
        <ele>228.348238</ele>
        <time>2026-08-29T11:45:36Z</time>
      </trkpt>
      <trkpt lat="43.94504" lon="1.89266">
        <ele>228.482961</ele>
        <time>2026-08-29T11:45:37Z</time>
      </trkpt>
      <trkpt lat="43.94506" lon="1.89266">
        <ele>228.623383</ele>
        <time>2026-08-29T11:45:38Z</time>
      </trkpt>
      <trkpt lat="43.94508" lon="1.89266">
        <ele>228.785976</ele>
        <time>2026-08-29T11:45:39Z</time>
      </trkpt>
      <trkpt lat="43.9451" lon="1.89266">
        <ele>228.926499</ele>
        <time>2026-08-29T11:45:40Z</time>
      </trkpt>
      <trkpt lat="43.94512" lon="1.89266">
        <ele>229.046649</ele>
        <time>2026-08-29T11:45:41Z</time>
      </trkpt>
      <trkpt lat="43.94513" lon="1.89266">
        <ele>229.151342</ele>
        <time>2026-08-29T11:45:42Z</time>
      </trkpt>
      <trkpt lat="43.94514" lon="1.89266">
        <ele>229.247568</ele>
        <time>2026-08-29T11:45:43Z</time>
      </trkpt>
      <trkpt lat="43.94515" lon="1.89265">
        <ele>229.326117</ele>
        <time>2026-08-29T11:45:44Z</time>
      </trkpt>
      <trkpt lat="43.94517" lon="1.89265">
        <ele>229.422783</ele>
        <time>2026-08-29T11:45:45Z</time>
      </trkpt>
      <trkpt lat="43.94519" lon="1.89266">
        <ele>229.57212</ele>
        <time>2026-08-29T11:45:46Z</time>
      </trkpt>
      <trkpt lat="43.94521" lon="1.89266">
        <ele>229.727687</ele>
        <time>2026-08-29T11:45:47Z</time>
      </trkpt>
      <trkpt lat="43.94523" lon="1.89266">
        <ele>229.863353</ele>
        <time>2026-08-29T11:45:48Z</time>
      </trkpt>
      <trkpt lat="43.94525" lon="1.89267">
        <ele>230.027334</ele>
        <time>2026-08-29T11:45:49Z</time>
      </trkpt>
      <trkpt lat="43.94527" lon="1.89267">
        <ele>230.17134</ele>
        <time>2026-08-29T11:45:50Z</time>
      </trkpt>
      <trkpt lat="43.94529" lon="1.89268">
        <ele>230.313366</ele>
        <time>2026-08-29T11:45:51Z</time>
      </trkpt>
      <trkpt lat="43.9453" lon="1.89268">
        <ele>230.455391</ele>
        <time>2026-08-29T11:45:52Z</time>
      </trkpt>
      <trkpt lat="43.94532" lon="1.89269">
        <ele>230.591057</ele>
        <time>2026-08-29T11:45:53Z</time>
      </trkpt>
      <trkpt lat="43.94534" lon="1.89269">
        <ele>230.717708</ele>
        <time>2026-08-29T11:45:54Z</time>
      </trkpt>
      <trkpt lat="43.94536" lon="1.89269">
        <ele>230.83703</ele>
        <time>2026-08-29T11:45:55Z</time>
      </trkpt>
      <trkpt lat="43.94537" lon="1.8927">
        <ele>230.957181</ele>
        <time>2026-08-29T11:45:56Z</time>
      </trkpt>
      <trkpt lat="43.94538" lon="1.8927">
        <ele>231.055556</ele>
        <time>2026-08-29T11:45:57Z</time>
      </trkpt>
      <trkpt lat="43.9454" lon="1.89271">
        <ele>231.172506</ele>
        <time>2026-08-29T11:45:58Z</time>
      </trkpt>
      <trkpt lat="43.94542" lon="1.89271">
        <ele>231.299936</ele>
        <time>2026-08-29T11:45:59Z</time>
      </trkpt>
      <trkpt lat="43.94543" lon="1.89272">
        <ele>231.433393</ele>
        <time>2026-08-29T11:46:00Z</time>
      </trkpt>
      <trkpt lat="43.94545" lon="1.89272">
        <ele>231.546277</ele>
        <time>2026-08-29T11:46:01Z</time>
      </trkpt>
      <trkpt lat="43.94546" lon="1.89273">
        <ele>231.660284</ele>
        <time>2026-08-29T11:46:02Z</time>
      </trkpt>
      <trkpt lat="43.94548" lon="1.89273">
        <ele>231.781046</ele>
        <time>2026-08-29T11:46:03Z</time>
      </trkpt>
      <trkpt lat="43.94549" lon="1.89275">
        <ele>231.890329</ele>
        <time>2026-08-29T11:46:04Z</time>
      </trkpt>
      <trkpt lat="43.9455" lon="1.89276">
        <ele>232.014793</ele>
        <time>2026-08-29T11:46:05Z</time>
      </trkpt>
      <trkpt lat="43.94552" lon="1.89277">
        <ele>232.127269</ele>
        <time>2026-08-29T11:46:06Z</time>
      </trkpt>
      <trkpt lat="43.94553" lon="1.89279">
        <ele>232.257947</ele>
        <time>2026-08-29T11:46:07Z</time>
      </trkpt>
      <trkpt lat="43.94555" lon="1.8928">
        <ele>232.394551</ele>
        <time>2026-08-29T11:46:08Z</time>
      </trkpt>
      <trkpt lat="43.94556" lon="1.89281">
        <ele>232.528941</ele>
        <time>2026-08-29T11:46:09Z</time>
      </trkpt>
      <trkpt lat="43.94558" lon="1.89282">
        <ele>232.645291</ele>
        <time>2026-08-29T11:46:10Z</time>
      </trkpt>
      <trkpt lat="43.94559" lon="1.89283">
        <ele>232.757174</ele>
        <time>2026-08-29T11:46:11Z</time>
      </trkpt>
      <trkpt lat="43.9456" lon="1.89284">
        <ele>232.860601</ele>
        <time>2026-08-29T11:46:12Z</time>
      </trkpt>
      <trkpt lat="43.94562" lon="1.89285">
        <ele>232.979479</ele>
        <time>2026-08-29T11:46:13Z</time>
      </trkpt>
      <trkpt lat="43.94563" lon="1.89286">
        <ele>233.073833</ele>
        <time>2026-08-29T11:46:14Z</time>
      </trkpt>
      <trkpt lat="43.94564" lon="1.89287">
        <ele>233.180095</ele>
        <time>2026-08-29T11:46:15Z</time>
      </trkpt>
      <trkpt lat="43.94565" lon="1.89288">
        <ele>233.274373</ele>
        <time>2026-08-29T11:46:16Z</time>
      </trkpt>
      <trkpt lat="43.94566" lon="1.89289">
        <ele>233.379459</ele>
        <time>2026-08-29T11:46:17Z</time>
      </trkpt>
      <trkpt lat="43.94568" lon="1.8929">
        <ele>233.489429</ele>
        <time>2026-08-29T11:46:18Z</time>
      </trkpt>
      <trkpt lat="43.94568" lon="1.89291">
        <ele>233.585396</ele>
        <time>2026-08-29T11:46:19Z</time>
      </trkpt>
      <trkpt lat="43.9457" lon="1.89292">
        <ele>233.706157</ele>
        <time>2026-08-29T11:46:20Z</time>
      </trkpt>
      <trkpt lat="43.94571" lon="1.89293">
        <ele>233.820164</ele>
        <time>2026-08-29T11:46:21Z</time>
      </trkpt>
      <trkpt lat="43.94573" lon="1.89293">
        <ele>233.95121</ele>
        <time>2026-08-29T11:46:22Z</time>
      </trkpt>
      <trkpt lat="43.94574" lon="1.89294">
        <ele>234.058563</ele>
        <time>2026-08-29T11:46:23Z</time>
      </trkpt>
      <trkpt lat="43.94576" lon="1.89295">
        <ele>234.141412</ele>
        <time>2026-08-29T11:46:24Z</time>
      </trkpt>
      <trkpt lat="43.94576" lon="1.89295">
        <ele>234.208774</ele>
        <time>2026-08-29T11:46:25Z</time>
      </trkpt>
      <trkpt lat="43.94577" lon="1.89295">
        <ele>234.284384</ele>
        <time>2026-08-29T11:46:26Z</time>
      </trkpt>
      <trkpt lat="43.94579" lon="1.89296">
        <ele>234.396268</ele>
        <time>2026-08-29T11:46:27Z</time>
      </trkpt>
      <trkpt lat="43.9458" lon="1.89297">
        <ele>234.520246</ele>
        <time>2026-08-29T11:46:28Z</time>
      </trkpt>
      <trkpt lat="43.94582" lon="1.89297">
        <ele>234.670434</ele>
        <time>2026-08-29T11:46:29Z</time>
      </trkpt>
      <trkpt lat="43.94584" lon="1.89298">
        <ele>234.814439</ele>
        <time>2026-08-29T11:46:30Z</time>
      </trkpt>
      <trkpt lat="43.94586" lon="1.89299">
        <ele>234.951437</ele>
        <time>2026-08-29T11:46:31Z</time>
      </trkpt>
      <trkpt lat="43.94587" lon="1.89301">
        <ele>235.07981</ele>
        <time>2026-08-29T11:46:32Z</time>
      </trkpt>
      <trkpt lat="43.94588" lon="1.89302">
        <ele>235.192553</ele>
        <time>2026-08-29T11:46:33Z</time>
      </trkpt>
      <trkpt lat="43.94589" lon="1.89304">
        <ele>235.302953</ele>
        <time>2026-08-29T11:46:34Z</time>
      </trkpt>
      <trkpt lat="43.94589" lon="1.89306">
        <ele>235.434039</ele>
        <time>2026-08-29T11:46:35Z</time>
      </trkpt>
      <trkpt lat="43.94589" lon="1.89309">
        <ele>235.561962</ele>
        <time>2026-08-29T11:46:36Z</time>
      </trkpt>
      <trkpt lat="43.94589" lon="1.89311">
        <ele>235.689884</ele>
        <time>2026-08-29T11:46:37Z</time>
      </trkpt>
      <trkpt lat="43.94589" lon="1.89313">
        <ele>235.802542</ele>
        <time>2026-08-29T11:46:38Z</time>
      </trkpt>
      <trkpt lat="43.94588" lon="1.89316">
        <ele>235.90322</ele>
        <time>2026-08-29T11:46:39Z</time>
      </trkpt>
      <trkpt lat="43.94587" lon="1.89317">
        <ele>235.962736</ele>
        <time>2026-08-29T11:46:40Z</time>
      </trkpt>
      <trkpt lat="43.94586" lon="1.89319">
        <ele>236.022253</ele>
        <time>2026-08-29T11:46:41Z</time>
      </trkpt>
      <trkpt lat="43.94585" lon="1.89321">
        <ele>236.079394</ele>
        <time>2026-08-29T11:46:42Z</time>
      </trkpt>
      <trkpt lat="43.94585" lon="1.89323">
        <ele>236.155531</ele>
        <time>2026-08-29T11:46:43Z</time>
      </trkpt>
      <trkpt lat="43.94584" lon="1.89326">
        <ele>236.225788</ele>
        <time>2026-08-29T11:46:44Z</time>
      </trkpt>
      <trkpt lat="43.94582" lon="1.89329">
        <ele>236.326375</ele>
        <time>2026-08-29T11:46:45Z</time>
      </trkpt>
      <trkpt lat="43.94581" lon="1.89332">
        <ele>236.440542</ele>
        <time>2026-08-29T11:46:46Z</time>
      </trkpt>
      <trkpt lat="43.94579" lon="1.89336">
        <ele>236.562473</ele>
        <time>2026-08-29T11:46:47Z</time>
      </trkpt>
      <trkpt lat="43.94578" lon="1.89339">
        <ele>236.657197</ele>
        <time>2026-08-29T11:46:48Z</time>
      </trkpt>
      <trkpt lat="43.94577" lon="1.89342">
        <ele>236.751306</ele>
        <time>2026-08-29T11:46:49Z</time>
      </trkpt>
      <trkpt lat="43.94576" lon="1.89344">
        <ele>236.840158</ele>
        <time>2026-08-29T11:46:50Z</time>
      </trkpt>
      <trkpt lat="43.94575" lon="1.89347">
        <ele>236.9316</ele>
        <time>2026-08-29T11:46:51Z</time>
      </trkpt>
      <trkpt lat="43.94574" lon="1.8935">
        <ele>237.023825</ele>
        <time>2026-08-29T11:46:52Z</time>
      </trkpt>
      <trkpt lat="43.94573" lon="1.89354">
        <ele>237.123595</ele>
        <time>2026-08-29T11:46:53Z</time>
      </trkpt>
      <trkpt lat="43.94572" lon="1.89357">
        <ele>237.225912</ele>
        <time>2026-08-29T11:46:54Z</time>
      </trkpt>
      <trkpt lat="43.94571" lon="1.8936">
        <ele>237.319958</ele>
        <time>2026-08-29T11:46:55Z</time>
      </trkpt>
      <trkpt lat="43.9457" lon="1.89363">
        <ele>237.424834</ele>
        <time>2026-08-29T11:46:56Z</time>
      </trkpt>
      <trkpt lat="43.94569" lon="1.89367">
        <ele>237.536453</ele>
        <time>2026-08-29T11:46:57Z</time>
      </trkpt>
      <trkpt lat="43.94568" lon="1.8937">
        <ele>237.643902</ele>
        <time>2026-08-29T11:46:58Z</time>
      </trkpt>
      <trkpt lat="43.94567" lon="1.89374">
        <ele>237.755098</ele>
        <time>2026-08-29T11:46:59Z</time>
      </trkpt>
      <trkpt lat="43.94565" lon="1.89378">
        <ele>237.86417</ele>
        <time>2026-08-29T11:47:00Z</time>
      </trkpt>
      <trkpt lat="43.94564" lon="1.89381">
        <ele>237.973241</ele>
        <time>2026-08-29T11:47:01Z</time>
      </trkpt>
      <trkpt lat="43.94563" lon="1.89385">
        <ele>238.092572</ele>
        <time>2026-08-29T11:47:02Z</time>
      </trkpt>
      <trkpt lat="43.94562" lon="1.89389">
        <ele>238.22379</ele>
        <time>2026-08-29T11:47:03Z</time>
      </trkpt>
      <trkpt lat="43.94561" lon="1.89393">
        <ele>238.346897</ele>
        <time>2026-08-29T11:47:04Z</time>
      </trkpt>
      <trkpt lat="43.94559" lon="1.89398">
        <ele>238.472945</ele>
        <time>2026-08-29T11:47:05Z</time>
      </trkpt>
      <trkpt lat="43.94558" lon="1.89401">
        <ele>238.589694</ele>
        <time>2026-08-29T11:47:06Z</time>
      </trkpt>
      <trkpt lat="43.94557" lon="1.89405">
        <ele>238.713173</ele>
        <time>2026-08-29T11:47:07Z</time>
      </trkpt>
      <trkpt lat="43.94555" lon="1.89409">
        <ele>238.836652</ele>
        <time>2026-08-29T11:47:08Z</time>
      </trkpt>
      <trkpt lat="43.94554" lon="1.89413">
        <ele>238.944102</ele>
        <time>2026-08-29T11:47:09Z</time>
      </trkpt>
      <trkpt lat="43.94554" lon="1.89416">
        <ele>239.050106</ele>
        <time>2026-08-29T11:47:10Z</time>
      </trkpt>
      <trkpt lat="43.94553" lon="1.8942">
        <ele>239.149393</ele>
        <time>2026-08-29T11:47:11Z</time>
      </trkpt>
      <trkpt lat="43.94552" lon="1.89423">
        <ele>239.247544</ele>
        <time>2026-08-29T11:47:12Z</time>
      </trkpt>
      <trkpt lat="43.94551" lon="1.89426">
        <ele>239.347315</ele>
        <time>2026-08-29T11:47:13Z</time>
      </trkpt>
      <trkpt lat="43.9455" lon="1.89429">
        <ele>239.432744</ele>
        <time>2026-08-29T11:47:14Z</time>
      </trkpt>
      <trkpt lat="43.94548" lon="1.89432">
        <ele>239.527468</ele>
        <time>2026-08-29T11:47:15Z</time>
      </trkpt>
      <trkpt lat="43.94547" lon="1.89436">
        <ele>239.649399</ele>
        <time>2026-08-29T11:47:16Z</time>
      </trkpt>
      <trkpt lat="43.94546" lon="1.89439">
        <ele>239.76452</ele>
        <time>2026-08-29T11:47:17Z</time>
      </trkpt>
      <trkpt lat="43.94544" lon="1.89443">
        <ele>239.866837</ele>
        <time>2026-08-29T11:47:18Z</time>
      </trkpt>
      <trkpt lat="43.94543" lon="1.89446">
        <ele>239.970856</ele>
        <time>2026-08-29T11:47:19Z</time>
      </trkpt>
      <trkpt lat="43.94542" lon="1.89449">
        <ele>240.079171</ele>
        <time>2026-08-29T11:47:20Z</time>
      </trkpt>
      <trkpt lat="43.94541" lon="1.89453">
        <ele>240.187487</ele>
        <time>2026-08-29T11:47:21Z</time>
      </trkpt>
      <trkpt lat="43.9454" lon="1.89456">
        <ele>240.285637</ele>
        <time>2026-08-29T11:47:22Z</time>
      </trkpt>
      <trkpt lat="43.94539" lon="1.89459">
        <ele>240.371913</ele>
        <time>2026-08-29T11:47:23Z</time>
      </trkpt>
      <trkpt lat="43.94538" lon="1.89461">
        <ele>240.450556</ele>
        <time>2026-08-29T11:47:24Z</time>
      </trkpt>
      <trkpt lat="43.94537" lon="1.89464">
        <ele>240.527531</ele>
        <time>2026-08-29T11:47:25Z</time>
      </trkpt>
      <trkpt lat="43.94536" lon="1.89466">
        <ele>240.61296</ele>
        <time>2026-08-29T11:47:26Z</time>
      </trkpt>
      <trkpt lat="43.94535" lon="1.89469">
        <ele>240.692514</ele>
        <time>2026-08-29T11:47:27Z</time>
      </trkpt>
      <trkpt lat="43.94534" lon="1.89472">
        <ele>240.790665</ele>
        <time>2026-08-29T11:47:28Z</time>
      </trkpt>
      <trkpt lat="43.94534" lon="1.89475">
        <ele>240.882076</ele>
        <time>2026-08-29T11:47:29Z</time>
      </trkpt>
      <trkpt lat="43.94533" lon="1.89479">
        <ele>240.981574</ele>
        <time>2026-08-29T11:47:30Z</time>
      </trkpt>
      <trkpt lat="43.94532" lon="1.89482">
        <ele>241.07715</ele>
        <time>2026-08-29T11:47:31Z</time>
      </trkpt>
      <trkpt lat="43.94531" lon="1.89485">
        <ele>241.166002</ele>
        <time>2026-08-29T11:47:32Z</time>
      </trkpt>
      <trkpt lat="43.9453" lon="1.89488">
        <ele>241.271841</ele>
        <time>2026-08-29T11:47:33Z</time>
      </trkpt>
      <trkpt lat="43.94529" lon="1.89491">
        <ele>241.36908</ele>
        <time>2026-08-29T11:47:34Z</time>
      </trkpt>
      <trkpt lat="43.94527" lon="1.89494">
        <ele>241.462697</ele>
        <time>2026-08-29T11:47:35Z</time>
      </trkpt>
      <trkpt lat="43.94526" lon="1.89497">
        <ele>241.556438</ele>
        <time>2026-08-29T11:47:36Z</time>
      </trkpt>
      <trkpt lat="43.94525" lon="1.89499">
        <ele>241.645714</ele>
        <time>2026-08-29T11:47:37Z</time>
      </trkpt>
      <trkpt lat="43.94523" lon="1.89502">
        <ele>241.742274</ele>
        <time>2026-08-29T11:47:38Z</time>
      </trkpt>
      <trkpt lat="43.94522" lon="1.89505">
        <ele>241.825211</ele>
        <time>2026-08-29T11:47:39Z</time>
      </trkpt>
      <trkpt lat="43.94521" lon="1.89508">
        <ele>241.910641</ele>
        <time>2026-08-29T11:47:40Z</time>
      </trkpt>
      <trkpt lat="43.94521" lon="1.8951">
        <ele>241.97321</ele>
        <time>2026-08-29T11:47:41Z</time>
      </trkpt>
      <trkpt lat="43.9452" lon="1.89512">
        <ele>242.043467</ele>
        <time>2026-08-29T11:47:42Z</time>
      </trkpt>
      <trkpt lat="43.94519" lon="1.89515">
        <ele>242.127182</ele>
        <time>2026-08-29T11:47:43Z</time>
      </trkpt>
      <trkpt lat="43.94518" lon="1.89518">
        <ele>242.221906</ele>
        <time>2026-08-29T11:47:44Z</time>
      </trkpt>
      <trkpt lat="43.94517" lon="1.8952">
        <ele>242.310969</ele>
        <time>2026-08-29T11:47:45Z</time>
      </trkpt>
      <trkpt lat="43.94516" lon="1.89523">
        <ele>242.409999</ele>
        <time>2026-08-29T11:47:46Z</time>
      </trkpt>
      <trkpt lat="43.94514" lon="1.89526">
        <ele>242.494848</ele>
        <time>2026-08-29T11:47:47Z</time>
      </trkpt>
      <trkpt lat="43.94514" lon="1.89528">
        <ele>242.574402</ele>
        <time>2026-08-29T11:47:48Z</time>
      </trkpt>
      <trkpt lat="43.94513" lon="1.89531">
        <ele>242.647259</ele>
        <time>2026-08-29T11:47:49Z</time>
      </trkpt>
      <trkpt lat="43.94512" lon="1.89533">
        <ele>242.720117</ele>
        <time>2026-08-29T11:47:50Z</time>
      </trkpt>
      <trkpt lat="43.94512" lon="1.89535">
        <ele>242.77852</ele>
        <time>2026-08-29T11:47:51Z</time>
      </trkpt>
      <trkpt lat="43.94512" lon="1.89538">
        <ele>242.844287</ele>
        <time>2026-08-29T11:47:52Z</time>
      </trkpt>
      <trkpt lat="43.94511" lon="1.89541">
        <ele>242.880416</ele>
        <time>2026-08-29T11:47:53Z</time>
      </trkpt>
      <trkpt lat="43.9451" lon="1.89544">
        <ele>242.850419</ele>
        <time>2026-08-29T11:47:54Z</time>
      </trkpt>
      <trkpt lat="43.94509" lon="1.89547">
        <ele>242.815306</ele>
        <time>2026-08-29T11:47:55Z</time>
      </trkpt>
      <trkpt lat="43.94508" lon="1.8955">
        <ele>242.779049</ele>
        <time>2026-08-29T11:47:56Z</time>
      </trkpt>
      <trkpt lat="43.94507" lon="1.89554">
        <ele>242.74303</ele>
        <time>2026-08-29T11:47:57Z</time>
      </trkpt>
      <trkpt lat="43.94506" lon="1.89557">
        <ele>242.709337</ele>
        <time>2026-08-29T11:47:58Z</time>
      </trkpt>
      <trkpt lat="43.94505" lon="1.89561">
        <ele>242.668077</ele>
        <time>2026-08-29T11:47:59Z</time>
      </trkpt>
      <trkpt lat="43.94504" lon="1.89564">
        <ele>242.629171</ele>
        <time>2026-08-29T11:48:00Z</time>
      </trkpt>
      <trkpt lat="43.94502" lon="1.89568">
        <ele>242.588476</ele>
        <time>2026-08-29T11:48:01Z</time>
      </trkpt>
      <trkpt lat="43.94501" lon="1.89572">
        <ele>242.547484</ele>
        <time>2026-08-29T11:48:02Z</time>
      </trkpt>
      <trkpt lat="43.94499" lon="1.89575">
        <ele>242.509276</ele>
        <time>2026-08-29T11:48:03Z</time>
      </trkpt>
      <trkpt lat="43.94498" lon="1.89578">
        <ele>242.473242</ele>
        <time>2026-08-29T11:48:04Z</time>
      </trkpt>
      <trkpt lat="43.94497" lon="1.89581">
        <ele>242.442589</ele>
        <time>2026-08-29T11:48:05Z</time>
      </trkpt>
      <trkpt lat="43.94496" lon="1.89584">
        <ele>242.407813</ele>
        <time>2026-08-29T11:48:06Z</time>
      </trkpt>
      <trkpt lat="43.94495" lon="1.89588">
        <ele>242.371256</ele>
        <time>2026-08-29T11:48:07Z</time>
      </trkpt>
      <trkpt lat="43.94494" lon="1.89591">
        <ele>242.338239</ele>
        <time>2026-08-29T11:48:08Z</time>
      </trkpt>
      <trkpt lat="43.94493" lon="1.89594">
        <ele>242.301104</ele>
        <time>2026-08-29T11:48:09Z</time>
      </trkpt>
      <trkpt lat="43.94491" lon="1.89597">
        <ele>242.266586</ele>
        <time>2026-08-29T11:48:10Z</time>
      </trkpt>
      <trkpt lat="43.94491" lon="1.896">
        <ele>242.232437</ele>
        <time>2026-08-29T11:48:11Z</time>
      </trkpt>
      <trkpt lat="43.9449" lon="1.89604">
        <ele>242.196423</ele>
        <time>2026-08-29T11:48:12Z</time>
      </trkpt>
      <trkpt lat="43.94489" lon="1.89607">
        <ele>242.162684</ele>
        <time>2026-08-29T11:48:13Z</time>
      </trkpt>
      <trkpt lat="43.94488" lon="1.89611">
        <ele>242.123452</ele>
        <time>2026-08-29T11:48:14Z</time>
      </trkpt>
      <trkpt lat="43.94487" lon="1.89614">
        <ele>242.088372</ele>
        <time>2026-08-29T11:48:15Z</time>
      </trkpt>
      <trkpt lat="43.94487" lon="1.89618">
        <ele>242.052961</ele>
        <time>2026-08-29T11:48:16Z</time>
      </trkpt>
      <trkpt lat="43.94487" lon="1.89622">
        <ele>242.014111</ele>
        <time>2026-08-29T11:48:17Z</time>
      </trkpt>
      <trkpt lat="43.94487" lon="1.89626">
        <ele>241.974788</ele>
        <time>2026-08-29T11:48:18Z</time>
      </trkpt>
      <trkpt lat="43.94486" lon="1.8963">
        <ele>241.93155</ele>
        <time>2026-08-29T11:48:19Z</time>
      </trkpt>
      <trkpt lat="43.94486" lon="1.89636">
        <ele>241.879902</ele>
        <time>2026-08-29T11:48:20Z</time>
      </trkpt>
      <trkpt lat="43.94485" lon="1.89641">
        <ele>241.829423</ele>
        <time>2026-08-29T11:48:21Z</time>
      </trkpt>
      <trkpt lat="43.94485" lon="1.89646">
        <ele>241.776028</ele>
        <time>2026-08-29T11:48:22Z</time>
      </trkpt>
      <trkpt lat="43.94484" lon="1.89651">
        <ele>241.72474</ele>
        <time>2026-08-29T11:48:23Z</time>
      </trkpt>
      <trkpt lat="43.94484" lon="1.89657">
        <ele>241.669214</ele>
        <time>2026-08-29T11:48:24Z</time>
      </trkpt>
      <trkpt lat="43.94483" lon="1.89662">
        <ele>241.617566</ele>
        <time>2026-08-29T11:48:25Z</time>
      </trkpt>
      <trkpt lat="43.94483" lon="1.89667">
        <ele>241.56903</ele>
        <time>2026-08-29T11:48:26Z</time>
      </trkpt>
      <trkpt lat="43.94482" lon="1.8967">
        <ele>241.534997</ele>
        <time>2026-08-29T11:48:27Z</time>
      </trkpt>
      <trkpt lat="43.94482" lon="1.89673">
        <ele>241.51146</ele>
        <time>2026-08-29T11:48:28Z</time>
      </trkpt>
      <trkpt lat="43.94482" lon="1.89674">
        <ele>241.497662</ele>
        <time>2026-08-29T11:48:29Z</time>
      </trkpt>
      <trkpt lat="43.94482" lon="1.89674">
        <ele>241.49442</ele>
        <time>2026-08-29T11:48:30Z</time>
      </trkpt>
      <trkpt lat="43.94482" lon="1.89675">
        <ele>241.489516</ele>
        <time>2026-08-29T11:48:31Z</time>
      </trkpt>
      <trkpt lat="43.94482" lon="1.89679">
        <ele>241.447345</ele>
        <time>2026-08-29T11:51:40Z</time>
      </trkpt>
      <trkpt lat="43.94481" lon="1.89683">
        <ele>241.404369</ele>
        <time>2026-08-29T11:51:41Z</time>
      </trkpt>
      <trkpt lat="43.94481" lon="1.89688">
        <ele>241.359218</ele>
        <time>2026-08-29T11:51:42Z</time>
      </trkpt>
      <trkpt lat="43.94479" lon="1.89693">
        <ele>241.30418</ele>
        <time>2026-08-29T11:51:43Z</time>
      </trkpt>
      <trkpt lat="43.94478" lon="1.89698">
        <ele>241.252341</ele>
        <time>2026-08-29T11:51:44Z</time>
      </trkpt>
      <trkpt lat="43.94477" lon="1.89704">
        <ele>241.194467</ele>
        <time>2026-08-29T11:51:45Z</time>
      </trkpt>
      <trkpt lat="43.94476" lon="1.8971">
        <ele>241.134892</ele>
        <time>2026-08-29T11:51:46Z</time>
      </trkpt>
      <trkpt lat="43.94474" lon="1.89716">
        <ele>241.070743</ele>
        <time>2026-08-29T11:51:47Z</time>
      </trkpt>
      <trkpt lat="43.94472" lon="1.89723">
        <ele>241.000516</ele>
        <time>2026-08-29T11:51:48Z</time>
      </trkpt>
      <trkpt lat="43.9447" lon="1.8973">
        <ele>240.921091</ele>
        <time>2026-08-29T11:51:49Z</time>
      </trkpt>
      <trkpt lat="43.94468" lon="1.89739">
        <ele>240.831549</ele>
        <time>2026-08-29T11:51:50Z</time>
      </trkpt>
      <trkpt lat="43.94465" lon="1.89747">
        <ele>240.73877</ele>
        <time>2026-08-29T11:51:51Z</time>
      </trkpt>
      <trkpt lat="43.94462" lon="1.89757">
        <ele>240.641715</ele>
        <time>2026-08-29T11:51:52Z</time>
      </trkpt>
      <trkpt lat="43.9446" lon="1.89766">
        <ele>240.541421</ele>
        <time>2026-08-29T11:51:53Z</time>
      </trkpt>
      <trkpt lat="43.94456" lon="1.89775">
        <ele>240.425771</ele>
        <time>2026-08-29T11:51:54Z</time>
      </trkpt>
      <trkpt lat="43.94453" lon="1.89785">
        <ele>240.081511</ele>
        <time>2026-08-29T11:51:55Z</time>
      </trkpt>
      <trkpt lat="43.94448" lon="1.89793">
        <ele>239.732011</ele>
        <time>2026-08-29T11:51:56Z</time>
      </trkpt>
      <trkpt lat="43.94441" lon="1.89799">
        <ele>239.37533</ele>
        <time>2026-08-29T11:51:57Z</time>
      </trkpt>
      <trkpt lat="43.94433" lon="1.89804">
        <ele>239.011031</ele>
        <time>2026-08-29T11:51:58Z</time>
      </trkpt>
      <trkpt lat="43.94425" lon="1.89806">
        <ele>238.647175</ele>
        <time>2026-08-29T11:51:59Z</time>
      </trkpt>
      <trkpt lat="43.94418" lon="1.89806">
        <ele>238.294961</ele>
        <time>2026-08-29T11:52:00Z</time>
      </trkpt>
      <trkpt lat="43.9441" lon="1.89806">
        <ele>237.94662</ele>
        <time>2026-08-29T11:52:01Z</time>
      </trkpt>
      <trkpt lat="43.94402" lon="1.89804">
        <ele>237.607636</ele>
        <time>2026-08-29T11:52:02Z</time>
      </trkpt>
      <trkpt lat="43.94395" lon="1.89802">
        <ele>237.279295</ele>
        <time>2026-08-29T11:52:03Z</time>
      </trkpt>
      <trkpt lat="43.94388" lon="1.89799">
        <ele>236.942249</ele>
        <time>2026-08-29T11:52:04Z</time>
      </trkpt>
      <trkpt lat="43.9438" lon="1.89797">
        <ele>236.605859</ele>
        <time>2026-08-29T11:52:05Z</time>
      </trkpt>
      <trkpt lat="43.94373" lon="1.89795">
        <ele>236.267412</ele>
        <time>2026-08-29T11:52:06Z</time>
      </trkpt>
      <trkpt lat="43.94366" lon="1.89793">
        <ele>235.934025</ele>
        <time>2026-08-29T11:52:07Z</time>
      </trkpt>
      <trkpt lat="43.94358" lon="1.89791">
        <ele>235.598263</ele>
        <time>2026-08-29T11:52:08Z</time>
      </trkpt>
      <trkpt lat="43.94351" lon="1.89789">
        <ele>235.256811</ele>
        <time>2026-08-29T11:52:09Z</time>
      </trkpt>
      <trkpt lat="43.94343" lon="1.89788">
        <ele>234.917096</ele>
        <time>2026-08-29T11:52:10Z</time>
      </trkpt>
      <trkpt lat="43.94335" lon="1.89787">
        <ele>234.576428</ele>
        <time>2026-08-29T11:52:11Z</time>
      </trkpt>
      <trkpt lat="43.94328" lon="1.89786">
        <ele>234.236108</ele>
        <time>2026-08-29T11:52:12Z</time>
      </trkpt>
      <trkpt lat="43.9432" lon="1.89785">
        <ele>233.896877</ele>
        <time>2026-08-29T11:52:13Z</time>
      </trkpt>
      <trkpt lat="43.94313" lon="1.89785">
        <ele>233.566736</ele>
        <time>2026-08-29T11:52:14Z</time>
      </trkpt>
      <trkpt lat="43.94305" lon="1.89784">
        <ele>233.241215</ele>
        <time>2026-08-29T11:52:15Z</time>
      </trkpt>
      <trkpt lat="43.94299" lon="1.89784">
        <ele>232.933636</ele>
        <time>2026-08-29T11:52:16Z</time>
      </trkpt>
      <trkpt lat="43.94293" lon="1.89787">
        <ele>232.661192</ele>
        <time>2026-08-29T11:52:17Z</time>
      </trkpt>
      <trkpt lat="43.94289" lon="1.89793">
        <ele>232.414938</ele>
        <time>2026-08-29T11:52:18Z</time>
      </trkpt>
      <trkpt lat="43.94287" lon="1.89801">
        <ele>232.300501</ele>
        <time>2026-08-29T11:52:19Z</time>
      </trkpt>
      <trkpt lat="43.94287" lon="1.8981">
        <ele>232.180608</ele>
        <time>2026-08-29T11:52:20Z</time>
      </trkpt>
      <trkpt lat="43.94286" lon="1.89819">
        <ele>232.061115</ele>
        <time>2026-08-29T11:52:21Z</time>
      </trkpt>
      <trkpt lat="43.94286" lon="1.89828">
        <ele>231.939872</ele>
        <time>2026-08-29T11:52:22Z</time>
      </trkpt>
      <trkpt lat="43.94285" lon="1.89837">
        <ele>231.817971</ele>
        <time>2026-08-29T11:52:23Z</time>
      </trkpt>
      <trkpt lat="43.94284" lon="1.89846">
        <ele>231.687095</ele>
        <time>2026-08-29T11:52:24Z</time>
      </trkpt>
      <trkpt lat="43.94283" lon="1.89856">
        <ele>231.555786</ele>
        <time>2026-08-29T11:52:25Z</time>
      </trkpt>
      <trkpt lat="43.94282" lon="1.89866">
        <ele>231.422291</ele>
        <time>2026-08-29T11:52:26Z</time>
      </trkpt>
      <trkpt lat="43.94281" lon="1.89875">
        <ele>231.289798</ele>
        <time>2026-08-29T11:52:27Z</time>
      </trkpt>
      <trkpt lat="43.94279" lon="1.89885">
        <ele>231.159602</ele>
        <time>2026-08-29T11:52:28Z</time>
      </trkpt>
      <trkpt lat="43.94278" lon="1.89894">
        <ele>231.022382</ele>
        <time>2026-08-29T11:52:29Z</time>
      </trkpt>
      <trkpt lat="43.94276" lon="1.89904">
        <ele>230.888133</ele>
        <time>2026-08-29T11:52:30Z</time>
      </trkpt>
      <trkpt lat="43.94273" lon="1.89913">
        <ele>230.754636</ele>
        <time>2026-08-29T11:52:31Z</time>
      </trkpt>
      <trkpt lat="43.9427" lon="1.89921">
        <ele>230.623934</ele>
        <time>2026-08-29T11:52:32Z</time>
      </trkpt>
      <trkpt lat="43.94266" lon="1.89929">
        <ele>230.505039</ele>
        <time>2026-08-29T11:52:33Z</time>
      </trkpt>
      <trkpt lat="43.94263" lon="1.89936">
        <ele>230.390417</ele>
        <time>2026-08-29T11:52:34Z</time>
      </trkpt>
      <trkpt lat="43.9426" lon="1.89942">
        <ele>230.28695</ele>
        <time>2026-08-29T11:52:35Z</time>
      </trkpt>
      <trkpt lat="43.94257" lon="1.89948">
        <ele>230.188829</ele>
        <time>2026-08-29T11:52:36Z</time>
      </trkpt>
      <trkpt lat="43.94254" lon="1.89954">
        <ele>230.099268</ele>
        <time>2026-08-29T11:52:37Z</time>
      </trkpt>
      <trkpt lat="43.94253" lon="1.8996">
        <ele>230.008014</ele>
        <time>2026-08-29T11:52:38Z</time>
      </trkpt>
      <trkpt lat="43.94252" lon="1.89966">
        <ele>229.921244</ele>
        <time>2026-08-29T11:52:39Z</time>
      </trkpt>
      <trkpt lat="43.94253" lon="1.89972">
        <ele>229.838801</ele>
        <time>2026-08-29T11:52:40Z</time>
      </trkpt>
      <trkpt lat="43.94254" lon="1.89978">
        <ele>229.757759</ele>
        <time>2026-08-29T11:52:41Z</time>
      </trkpt>
      <trkpt lat="43.94257" lon="1.89982">
        <ele>229.676852</ele>
        <time>2026-08-29T11:52:42Z</time>
      </trkpt>
      <trkpt lat="43.9426" lon="1.89986">
        <ele>229.597142</ele>
        <time>2026-08-29T11:52:43Z</time>
      </trkpt>
      <trkpt lat="43.94263" lon="1.8999">
        <ele>229.522862</ele>
        <time>2026-08-29T11:52:44Z</time>
      </trkpt>
      <trkpt lat="43.94267" lon="1.89992">
        <ele>229.446089</ele>
        <time>2026-08-29T11:52:45Z</time>
      </trkpt>
      <trkpt lat="43.9427" lon="1.89995">
        <ele>229.372311</ele>
        <time>2026-08-29T11:52:46Z</time>
      </trkpt>
      <trkpt lat="43.94274" lon="1.89998">
        <ele>229.299197</ele>
        <time>2026-08-29T11:52:47Z</time>
      </trkpt>
      <trkpt lat="43.94277" lon="1.9">
        <ele>229.226258</ele>
        <time>2026-08-29T11:52:48Z</time>
      </trkpt>
      <trkpt lat="43.9428" lon="1.90002">
        <ele>229.157715</ele>
        <time>2026-08-29T11:52:49Z</time>
      </trkpt>
      <trkpt lat="43.94284" lon="1.90004">
        <ele>229.088761</ele>
        <time>2026-08-29T11:52:50Z</time>
      </trkpt>
      <trkpt lat="43.94287" lon="1.90006">
        <ele>229.024869</ele>
        <time>2026-08-29T11:52:51Z</time>
      </trkpt>
      <trkpt lat="43.9429" lon="1.90009">
        <ele>228.971387</ele>
        <time>2026-08-29T11:52:52Z</time>
      </trkpt>
      <trkpt lat="43.94293" lon="1.90011">
        <ele>228.919194</ele>
        <time>2026-08-29T11:52:53Z</time>
      </trkpt>
      <trkpt lat="43.94296" lon="1.90014">
        <ele>228.867254</ele>
        <time>2026-08-29T11:52:54Z</time>
      </trkpt>
      <trkpt lat="43.94299" lon="1.90017">
        <ele>228.82157</ele>
        <time>2026-08-29T11:52:55Z</time>
      </trkpt>
      <trkpt lat="43.94301" lon="1.90019">
        <ele>228.779486</ele>
        <time>2026-08-29T11:52:56Z</time>
      </trkpt>
      <trkpt lat="43.94302" lon="1.90022">
        <ele>228.740705</ele>
        <time>2026-08-29T11:52:57Z</time>
      </trkpt>
      <trkpt lat="43.94304" lon="1.90026">
        <ele>228.700268</ele>
        <time>2026-08-29T11:52:58Z</time>
      </trkpt>
      <trkpt lat="43.94304" lon="1.90029">
        <ele>228.660406</ele>
        <time>2026-08-29T11:52:59Z</time>
      </trkpt>
      <trkpt lat="43.94304" lon="1.90033">
        <ele>228.622258</ele>
        <time>2026-08-29T11:53:00Z</time>
      </trkpt>
      <trkpt lat="43.94304" lon="1.90036">
        <ele>228.588342</ele>
        <time>2026-08-29T11:53:01Z</time>
      </trkpt>
      <trkpt lat="43.94304" lon="1.90039">
        <ele>228.554427</ele>
        <time>2026-08-29T11:53:02Z</time>
      </trkpt>
      <trkpt lat="43.94303" lon="1.90043">
        <ele>228.513524</ele>
        <time>2026-08-29T11:53:03Z</time>
      </trkpt>
      <trkpt lat="43.94302" lon="1.90046">
        <ele>228.475018</ele>
        <time>2026-08-29T11:53:04Z</time>
      </trkpt>
      <trkpt lat="43.94301" lon="1.9005">
        <ele>228.437653</ele>
        <time>2026-08-29T11:53:05Z</time>
      </trkpt>
      <trkpt lat="43.94301" lon="1.90054">
        <ele>228.394665</ele>
        <time>2026-08-29T11:53:06Z</time>
      </trkpt>
      <trkpt lat="43.943" lon="1.90058">
        <ele>228.350707</ele>
        <time>2026-08-29T11:53:07Z</time>
      </trkpt>
      <trkpt lat="43.94299" lon="1.90061">
        <ele>228.312349</ele>
        <time>2026-08-29T11:53:08Z</time>
      </trkpt>
      <trkpt lat="43.94298" lon="1.90065">
        <ele>228.273992</ele>
        <time>2026-08-29T11:53:09Z</time>
      </trkpt>
      <trkpt lat="43.94297" lon="1.90068">
        <ele>228.236917</ele>
        <time>2026-08-29T11:53:10Z</time>
      </trkpt>
      <trkpt lat="43.94296" lon="1.90071">
        <ele>228.200323</ele>
        <time>2026-08-29T11:53:11Z</time>
      </trkpt>
      <trkpt lat="43.94295" lon="1.90074">
        <ele>228.163984</ele>
        <time>2026-08-29T11:53:12Z</time>
      </trkpt>
      <trkpt lat="43.94294" lon="1.90077">
        <ele>228.129937</ele>
        <time>2026-08-29T11:53:13Z</time>
      </trkpt>
      <trkpt lat="43.94293" lon="1.90079">
        <ele>228.101933</ele>
        <time>2026-08-29T11:53:14Z</time>
      </trkpt>
      <trkpt lat="43.94292" lon="1.90081">
        <ele>228.074515</ele>
        <time>2026-08-29T11:53:15Z</time>
      </trkpt>
      <trkpt lat="43.94292" lon="1.90084">
        <ele>228.043968</ele>
        <time>2026-08-29T11:53:16Z</time>
      </trkpt>
      <trkpt lat="43.94291" lon="1.90087">
        <ele>228.007541</ele>
        <time>2026-08-29T11:53:17Z</time>
      </trkpt>
      <trkpt lat="43.9429" lon="1.90091">
        <ele>227.971113</ele>
        <time>2026-08-29T11:53:18Z</time>
      </trkpt>
      <trkpt lat="43.94289" lon="1.90095">
        <ele>227.926565</ele>
        <time>2026-08-29T11:53:19Z</time>
      </trkpt>
      <trkpt lat="43.94288" lon="1.90099">
        <ele>227.880236</ele>
        <time>2026-08-29T11:53:20Z</time>
      </trkpt>
      <trkpt lat="43.94286" lon="1.90102">
        <ele>227.840688</ele>
        <time>2026-08-29T11:53:21Z</time>
      </trkpt>
      <trkpt lat="43.94284" lon="1.90105">
        <ele>227.796082</ele>
        <time>2026-08-29T11:53:22Z</time>
      </trkpt>
      <trkpt lat="43.94281" lon="1.90107">
        <ele>227.745887</ele>
        <time>2026-08-29T11:53:23Z</time>
      </trkpt>
      <trkpt lat="43.94278" lon="1.9011">
        <ele>227.691506</ele>
        <time>2026-08-29T11:53:24Z</time>
      </trkpt>
      <trkpt lat="43.94275" lon="1.90113">
        <ele>227.63533</ele>
        <time>2026-08-29T11:53:25Z</time>
      </trkpt>
      <trkpt lat="43.94273" lon="1.90118">
        <ele>227.569928</ele>
        <time>2026-08-29T11:53:26Z</time>
      </trkpt>
      <trkpt lat="43.94271" lon="1.90124">
        <ele>227.508491</ele>
        <time>2026-08-29T11:53:27Z</time>
      </trkpt>
      <trkpt lat="43.94269" lon="1.90129">
        <ele>227.446442</ele>
        <time>2026-08-29T11:53:28Z</time>
      </trkpt>
      <trkpt lat="43.94267" lon="1.90135">
        <ele>227.378644</ele>
        <time>2026-08-29T11:53:29Z</time>
      </trkpt>
      <trkpt lat="43.94266" lon="1.9014">
        <ele>227.315819</ele>
        <time>2026-08-29T11:53:30Z</time>
      </trkpt>
      <trkpt lat="43.94267" lon="1.90146">
        <ele>227.253548</ele>
        <time>2026-08-29T11:53:31Z</time>
      </trkpt>
      <trkpt lat="43.94269" lon="1.90152">
        <ele>227.184542</ele>
        <time>2026-08-29T11:53:32Z</time>
      </trkpt>
      <trkpt lat="43.94273" lon="1.90157">
        <ele>227.112913</ele>
        <time>2026-08-29T11:53:33Z</time>
      </trkpt>
      <trkpt lat="43.94276" lon="1.90162">
        <ele>227.036529</ele>
        <time>2026-08-29T11:53:34Z</time>
      </trkpt>
      <trkpt lat="43.94279" lon="1.90166">
        <ele>226.975017</ele>
        <time>2026-08-29T11:53:35Z</time>
      </trkpt>
      <trkpt lat="43.94282" lon="1.90168">
        <ele>226.925613</ele>
        <time>2026-08-29T11:53:36Z</time>
      </trkpt>
      <trkpt lat="43.94286" lon="1.90169">
        <ele>226.873611</ele>
        <time>2026-08-29T11:53:37Z</time>
      </trkpt>
      <trkpt lat="43.9429" lon="1.9017">
        <ele>226.81463</ele>
        <time>2026-08-29T11:53:38Z</time>
      </trkpt>
      <trkpt lat="43.94293" lon="1.90172">
        <ele>226.757995</ele>
        <time>2026-08-29T11:53:39Z</time>
      </trkpt>
      <trkpt lat="43.94298" lon="1.90173">
        <ele>226.688508</ele>
        <time>2026-08-29T11:53:40Z</time>
      </trkpt>
      <trkpt lat="43.94303" lon="1.90174">
        <ele>226.610108</ele>
        <time>2026-08-29T11:53:41Z</time>
      </trkpt>
      <trkpt lat="43.94308" lon="1.90175">
        <ele>226.533374</ele>
        <time>2026-08-29T11:53:42Z</time>
      </trkpt>
      <trkpt lat="43.94313" lon="1.90175">
        <ele>226.459776</ele>
        <time>2026-08-29T11:53:43Z</time>
      </trkpt>
      <trkpt lat="43.94317" lon="1.90176">
        <ele>226.403734</ele>
        <time>2026-08-29T11:53:44Z</time>
      </trkpt>
      <trkpt lat="43.94321" lon="1.90176">
        <ele>226.060731</ele>
        <time>2026-08-29T11:53:45Z</time>
      </trkpt>
      <trkpt lat="43.94325" lon="1.90177">
        <ele>225.743383</ele>
        <time>2026-08-29T11:53:46Z</time>
      </trkpt>
      <trkpt lat="43.94328" lon="1.90177">
        <ele>225.472178</ele>
        <time>2026-08-29T11:53:47Z</time>
      </trkpt>
      <trkpt lat="43.94331" lon="1.90178">
        <ele>225.19052</ele>
        <time>2026-08-29T11:53:48Z</time>
      </trkpt>
      <trkpt lat="43.94334" lon="1.90179">
        <ele>224.902596</ele>
        <time>2026-08-29T11:53:49Z</time>
      </trkpt>
      <trkpt lat="43.94337" lon="1.9018">
        <ele>224.623382</ele>
        <time>2026-08-29T11:53:50Z</time>
      </trkpt>
      <trkpt lat="43.9434" lon="1.90181">
        <ele>224.314707</ele>
        <time>2026-08-29T11:53:51Z</time>
      </trkpt>
      <trkpt lat="43.94343" lon="1.90183">
        <ele>224.031448</ele>
        <time>2026-08-29T11:53:52Z</time>
      </trkpt>
      <trkpt lat="43.94346" lon="1.90184">
        <ele>223.748649</ele>
        <time>2026-08-29T11:53:53Z</time>
      </trkpt>
      <trkpt lat="43.94349" lon="1.90186">
        <ele>223.473658</ele>
        <time>2026-08-29T11:53:54Z</time>
      </trkpt>
      <trkpt lat="43.94351" lon="1.90188">
        <ele>223.215058</ele>
        <time>2026-08-29T11:53:55Z</time>
      </trkpt>
      <trkpt lat="43.94354" lon="1.90189">
        <ele>222.98908</ele>
        <time>2026-08-29T11:53:56Z</time>
      </trkpt>
      <trkpt lat="43.94356" lon="1.9019">
        <ele>222.740411</ele>
        <time>2026-08-29T11:53:57Z</time>
      </trkpt>
      <trkpt lat="43.94358" lon="1.90192">
        <ele>222.503797</ele>
        <time>2026-08-29T11:53:58Z</time>
      </trkpt>
      <trkpt lat="43.94359" lon="1.90195">
        <ele>222.32971</ele>
        <time>2026-08-29T11:53:59Z</time>
      </trkpt>
      <trkpt lat="43.94359" lon="1.90196">
        <ele>222.206274</ele>
        <time>2026-08-29T11:54:00Z</time>
      </trkpt>
      <trkpt lat="43.94358" lon="1.90199">
        <ele>222.020973</ele>
        <time>2026-08-29T11:54:01Z</time>
      </trkpt>
      <trkpt lat="43.94357" lon="1.90202">
        <ele>221.763306</ele>
        <time>2026-08-29T11:54:02Z</time>
      </trkpt>
      <trkpt lat="43.94356" lon="1.90206">
        <ele>221.491916</ele>
        <time>2026-08-29T11:54:03Z</time>
      </trkpt>
      <trkpt lat="43.94355" lon="1.90211">
        <ele>221.183058</ele>
        <time>2026-08-29T11:54:04Z</time>
      </trkpt>
      <trkpt lat="43.94354" lon="1.90216">
        <ele>220.813142</ele>
        <time>2026-08-29T11:54:05Z</time>
      </trkpt>
      <trkpt lat="43.94352" lon="1.90222">
        <ele>220.438122</ele>
        <time>2026-08-29T11:54:06Z</time>
      </trkpt>
      <trkpt lat="43.9435" lon="1.90227">
        <ele>220.024784</ele>
        <time>2026-08-29T11:54:07Z</time>
      </trkpt>
      <trkpt lat="43.94348" lon="1.90234">
        <ele>219.541581</ele>
        <time>2026-08-29T11:54:08Z</time>
      </trkpt>
      <trkpt lat="43.94344" lon="1.90241">
        <ele>218.978257</ele>
        <time>2026-08-29T11:54:09Z</time>
      </trkpt>
      <trkpt lat="43.94341" lon="1.90249">
        <ele>218.394222</ele>
        <time>2026-08-29T11:54:10Z</time>
      </trkpt>
      <trkpt lat="43.94337" lon="1.90256">
        <ele>217.778927</ele>
        <time>2026-08-29T11:54:11Z</time>
      </trkpt>
      <trkpt lat="43.94333" lon="1.90264">
        <ele>217.200508</ele>
        <time>2026-08-29T11:54:12Z</time>
      </trkpt>
      <trkpt lat="43.94329" lon="1.90271">
        <ele>216.627363</ele>
        <time>2026-08-29T11:54:13Z</time>
      </trkpt>
      <trkpt lat="43.94326" lon="1.90277">
        <ele>216.122194</ele>
        <time>2026-08-29T11:54:14Z</time>
      </trkpt>
      <trkpt lat="43.94325" lon="1.90283">
        <ele>215.716837</ele>
        <time>2026-08-29T11:54:15Z</time>
      </trkpt>
      <trkpt lat="43.94326" lon="1.90289">
        <ele>215.340732</ele>
        <time>2026-08-29T11:54:16Z</time>
      </trkpt>
      <trkpt lat="43.94329" lon="1.90294">
        <ele>214.945967</ele>
        <time>2026-08-29T11:54:17Z</time>
      </trkpt>
      <trkpt lat="43.94332" lon="1.90298">
        <ele>214.53216</ele>
        <time>2026-08-29T11:54:18Z</time>
      </trkpt>
      <trkpt lat="43.94336" lon="1.90303">
        <ele>214.104874</ele>
        <time>2026-08-29T11:54:19Z</time>
      </trkpt>
      <trkpt lat="43.9434" lon="1.90306">
        <ele>213.664877</ele>
        <time>2026-08-29T11:54:20Z</time>
      </trkpt>
      <trkpt lat="43.94344" lon="1.9031">
        <ele>213.194287</ele>
        <time>2026-08-29T11:54:21Z</time>
      </trkpt>
      <trkpt lat="43.94349" lon="1.90314">
        <ele>212.720364</ele>
        <time>2026-08-29T11:54:22Z</time>
      </trkpt>
      <trkpt lat="43.94353" lon="1.90318">
        <ele>212.268548</ele>
        <time>2026-08-29T11:54:23Z</time>
      </trkpt>
      <trkpt lat="43.94357" lon="1.90321">
        <ele>211.828753</ele>
        <time>2026-08-29T11:54:24Z</time>
      </trkpt>
      <trkpt lat="43.94361" lon="1.90325">
        <ele>211.414387</ele>
        <time>2026-08-29T11:54:25Z</time>
      </trkpt>
      <trkpt lat="43.94365" lon="1.90328">
        <ele>210.989382</ele>
        <time>2026-08-29T11:54:26Z</time>
      </trkpt>
      <trkpt lat="43.94369" lon="1.90331">
        <ele>210.588194</ele>
        <time>2026-08-29T11:54:27Z</time>
      </trkpt>
      <trkpt lat="43.94372" lon="1.90334">
        <ele>210.232491</ele>
        <time>2026-08-29T11:54:28Z</time>
      </trkpt>
      <trkpt lat="43.94374" lon="1.90335">
        <ele>210.112368</ele>
        <time>2026-08-29T11:54:29Z</time>
      </trkpt>
      <trkpt lat="43.94375" lon="1.90335">
        <ele>210.078402</ele>
        <time>2026-08-29T11:54:30Z</time>
      </trkpt>
      <trkpt lat="43.94375" lon="1.90335">
        <ele>210.057401</ele>
        <time>2026-08-29T11:54:31Z</time>
      </trkpt>
      <trkpt lat="43.94377" lon="1.90338">
        <ele>209.896463</ele>
        <time>2026-08-29T11:54:53Z</time>
      </trkpt>
      <trkpt lat="43.94379" lon="1.90339">
        <ele>209.72984</ele>
        <time>2026-08-29T11:54:54Z</time>
      </trkpt>
      <trkpt lat="43.94382" lon="1.90341">
        <ele>209.542801</ele>
        <time>2026-08-29T11:54:55Z</time>
      </trkpt>
      <trkpt lat="43.94386" lon="1.90345">
        <ele>209.314199</ele>
        <time>2026-08-29T11:54:56Z</time>
      </trkpt>
      <trkpt lat="43.94389" lon="1.90348">
        <ele>209.08082</ele>
        <time>2026-08-29T11:54:57Z</time>
      </trkpt>
      <trkpt lat="43.94393" lon="1.90352">
        <ele>208.833827</ele>
        <time>2026-08-29T11:54:58Z</time>
      </trkpt>
      <trkpt lat="43.94396" lon="1.90356">
        <ele>208.565239</ele>
        <time>2026-08-29T11:54:59Z</time>
      </trkpt>
      <trkpt lat="43.944" lon="1.90361">
        <ele>208.288772</ele>
        <time>2026-08-29T11:55:00Z</time>
      </trkpt>
      <trkpt lat="43.94403" lon="1.90366">
        <ele>207.992325</ele>
        <time>2026-08-29T11:55:01Z</time>
      </trkpt>
      <trkpt lat="43.94407" lon="1.90372">
        <ele>207.689646</ele>
        <time>2026-08-29T11:55:02Z</time>
      </trkpt>
      <trkpt lat="43.9441" lon="1.90379">
        <ele>207.36427</ele>
        <time>2026-08-29T11:55:03Z</time>
      </trkpt>
      <trkpt lat="43.94413" lon="1.90385">
        <ele>207.039086</ele>
        <time>2026-08-29T11:55:04Z</time>
      </trkpt>
      <trkpt lat="43.94416" lon="1.90392">
        <ele>206.717218</ele>
        <time>2026-08-29T11:55:05Z</time>
      </trkpt>
      <trkpt lat="43.9442" lon="1.90398">
        <ele>206.401145</ele>
        <time>2026-08-29T11:55:06Z</time>
      </trkpt>
      <trkpt lat="43.94424" lon="1.90404">
        <ele>206.07471</ele>
        <time>2026-08-29T11:55:07Z</time>
      </trkpt>
      <trkpt lat="43.94428" lon="1.9041">
        <ele>205.736198</ele>
        <time>2026-08-29T11:55:08Z</time>
      </trkpt>
      <trkpt lat="43.94431" lon="1.90417">
        <ele>205.417364</ele>
        <time>2026-08-29T11:55:09Z</time>
      </trkpt>
      <trkpt lat="43.94434" lon="1.90423">
        <ele>205.118501</ele>
        <time>2026-08-29T11:55:10Z</time>
      </trkpt>
      <trkpt lat="43.94437" lon="1.90428">
        <ele>204.828768</ele>
        <time>2026-08-29T11:55:11Z</time>
      </trkpt>
      <trkpt lat="43.94441" lon="1.90434">
        <ele>204.531713</ele>
        <time>2026-08-29T11:55:12Z</time>
      </trkpt>
      <trkpt lat="43.94445" lon="1.90438">
        <ele>204.253639</ele>
        <time>2026-08-29T11:55:13Z</time>
      </trkpt>
      <trkpt lat="43.94449" lon="1.90441">
        <ele>203.980399</ele>
        <time>2026-08-29T11:55:14Z</time>
      </trkpt>
      <trkpt lat="43.94454" lon="1.90445">
        <ele>203.665691</ele>
        <time>2026-08-29T11:55:15Z</time>
      </trkpt>
      <trkpt lat="43.94459" lon="1.90447">
        <ele>203.377466</ele>
        <time>2026-08-29T11:55:16Z</time>
      </trkpt>
      <trkpt lat="43.94464" lon="1.90449">
        <ele>203.089954</ele>
        <time>2026-08-29T11:55:17Z</time>
      </trkpt>
      <trkpt lat="43.94468" lon="1.90451">
        <ele>202.861548</ele>
        <time>2026-08-29T11:55:18Z</time>
      </trkpt>
      <trkpt lat="43.9447" lon="1.90454">
        <ele>202.656701</ele>
        <time>2026-08-29T11:55:19Z</time>
      </trkpt>
      <trkpt lat="43.94471" lon="1.90459">
        <ele>202.449088</ele>
        <time>2026-08-29T11:55:20Z</time>
      </trkpt>
      <trkpt lat="43.9447" lon="1.90464">
        <ele>202.23678</ele>
        <time>2026-08-29T11:55:21Z</time>
      </trkpt>
      <trkpt lat="43.94469" lon="1.90469">
        <ele>202.019673</ele>
        <time>2026-08-29T11:55:22Z</time>
      </trkpt>
      <trkpt lat="43.94467" lon="1.90474">
        <ele>201.809402</ele>
        <time>2026-08-29T11:55:23Z</time>
      </trkpt>
      <trkpt lat="43.94464" lon="1.90478">
        <ele>201.585247</ele>
        <time>2026-08-29T11:55:24Z</time>
      </trkpt>
      <trkpt lat="43.94462" lon="1.90483">
        <ele>201.354478</ele>
        <time>2026-08-29T11:55:25Z</time>
      </trkpt>
      <trkpt lat="43.9446" lon="1.90489">
        <ele>201.08296</ele>
        <time>2026-08-29T11:55:26Z</time>
      </trkpt>
      <trkpt lat="43.94457" lon="1.90494">
        <ele>200.814994</ele>
        <time>2026-08-29T11:55:27Z</time>
      </trkpt>
      <trkpt lat="43.94455" lon="1.905">
        <ele>200.543476</ele>
        <time>2026-08-29T11:55:28Z</time>
      </trkpt>
      <trkpt lat="43.94453" lon="1.90506">
        <ele>200.259424</ele>
        <time>2026-08-29T11:55:29Z</time>
      </trkpt>
      <trkpt lat="43.9445" lon="1.90513">
        <ele>199.864066</ele>
        <time>2026-08-29T11:55:30Z</time>
      </trkpt>
      <trkpt lat="43.94447" lon="1.90519">
        <ele>199.350964</ele>
        <time>2026-08-29T11:55:31Z</time>
      </trkpt>
      <trkpt lat="43.94444" lon="1.90526">
        <ele>198.837862</ele>
        <time>2026-08-29T11:55:32Z</time>
      </trkpt>
      <trkpt lat="43.94442" lon="1.90533">
        <ele>198.355165</ele>
        <time>2026-08-29T11:55:33Z</time>
      </trkpt>
      <trkpt lat="43.94439" lon="1.90539">
        <ele>197.854293</ele>
        <time>2026-08-29T11:55:34Z</time>
      </trkpt>
      <trkpt lat="43.94436" lon="1.90546">
        <ele>197.367243</ele>
        <time>2026-08-29T11:55:35Z</time>
      </trkpt>
      <trkpt lat="43.94433" lon="1.90552">
        <ele>196.86547</ele>
        <time>2026-08-29T11:55:36Z</time>
      </trkpt>
      <trkpt lat="43.94431" lon="1.90559">
        <ele>196.368253</ele>
        <time>2026-08-29T11:55:37Z</time>
      </trkpt>
      <trkpt lat="43.94428" lon="1.90566">
        <ele>195.86533</ele>
        <time>2026-08-29T11:55:38Z</time>
      </trkpt>
      <trkpt lat="43.94426" lon="1.90572">
        <ele>195.381014</ele>
        <time>2026-08-29T11:55:39Z</time>
      </trkpt>
      <trkpt lat="43.94423" lon="1.90579">
        <ele>194.904622</ele>
        <time>2026-08-29T11:55:40Z</time>
      </trkpt>
      <trkpt lat="43.94422" lon="1.90585">
        <ele>194.476176</ele>
        <time>2026-08-29T11:55:41Z</time>
      </trkpt>
      <trkpt lat="43.94421" lon="1.90592">
        <ele>194.013268</ele>
        <time>2026-08-29T11:55:42Z</time>
      </trkpt>
      <trkpt lat="43.9442" lon="1.90599">
        <ele>193.543866</ele>
        <time>2026-08-29T11:55:43Z</time>
      </trkpt>
      <trkpt lat="43.9442" lon="1.90606">
        <ele>193.071464</ele>
        <time>2026-08-29T11:55:44Z</time>
      </trkpt>
      <trkpt lat="43.9442" lon="1.90614">
        <ele>192.580117</ele>
        <time>2026-08-29T11:55:45Z</time>
      </trkpt>
      <trkpt lat="43.9442" lon="1.90621">
        <ele>192.101868</ele>
        <time>2026-08-29T11:55:46Z</time>
      </trkpt>
      <trkpt lat="43.9442" lon="1.90628">
        <ele>191.623619</ele>
        <time>2026-08-29T11:55:47Z</time>
      </trkpt>
      <trkpt lat="43.94421" lon="1.90635">
        <ele>191.146424</ele>
        <time>2026-08-29T11:55:48Z</time>
      </trkpt>
      <trkpt lat="43.94422" lon="1.90642">
        <ele>190.683516</ele>
        <time>2026-08-29T11:55:49Z</time>
      </trkpt>
      <trkpt lat="43.94423" lon="1.9065">
        <ele>190.190945</ele>
        <time>2026-08-29T11:55:50Z</time>
      </trkpt>
      <trkpt lat="43.94424" lon="1.90657">
        <ele>189.707276</ele>
        <time>2026-08-29T11:55:51Z</time>
      </trkpt>
      <trkpt lat="43.94425" lon="1.90664">
        <ele>189.237874</ele>
        <time>2026-08-29T11:55:52Z</time>
      </trkpt>
      <trkpt lat="43.94425" lon="1.90671">
        <ele>188.798165</ele>
        <time>2026-08-29T11:55:53Z</time>
      </trkpt>
      <trkpt lat="43.94425" lon="1.90677">
        <ele>188.392055</ele>
        <time>2026-08-29T11:55:54Z</time>
      </trkpt>
      <trkpt lat="43.94424" lon="1.90683">
        <ele>188.006845</ele>
        <time>2026-08-29T11:55:55Z</time>
      </trkpt>
      <trkpt lat="43.94423" lon="1.90689">
        <ele>187.609822</ele>
        <time>2026-08-29T11:55:56Z</time>
      </trkpt>
      <trkpt lat="43.94421" lon="1.90694">
        <ele>187.231895</ele>
        <time>2026-08-29T11:55:57Z</time>
      </trkpt>
      <trkpt lat="43.9442" lon="1.90699">
        <ele>186.858879</ele>
        <time>2026-08-29T11:55:58Z</time>
      </trkpt>
      <trkpt lat="43.94418" lon="1.90705">
        <ele>186.457178</ele>
        <time>2026-08-29T11:55:59Z</time>
      </trkpt>
      <trkpt lat="43.94416" lon="1.9071">
        <ele>186.089057</ele>
        <time>2026-08-29T11:56:00Z</time>
      </trkpt>
      <trkpt lat="43.94415" lon="1.90715">
        <ele>185.7285</ele>
        <time>2026-08-29T11:56:01Z</time>
      </trkpt>
      <trkpt lat="43.94414" lon="1.90721">
        <ele>185.364129</ele>
        <time>2026-08-29T11:56:02Z</time>
      </trkpt>
      <trkpt lat="43.94415" lon="1.90726">
        <ele>184.988292</ele>
        <time>2026-08-29T11:56:03Z</time>
      </trkpt>
      <trkpt lat="43.94417" lon="1.90732">
        <ele>184.5904</ele>
        <time>2026-08-29T11:56:04Z</time>
      </trkpt>
      <trkpt lat="43.94418" lon="1.90738">
        <ele>184.16464</ele>
        <time>2026-08-29T11:56:05Z</time>
      </trkpt>
      <trkpt lat="43.9442" lon="1.90744">
        <ele>183.730509</ele>
        <time>2026-08-29T11:56:06Z</time>
      </trkpt>
      <trkpt lat="43.94423" lon="1.9075">
        <ele>183.388238</ele>
        <time>2026-08-29T11:56:07Z</time>
      </trkpt>
      <trkpt lat="43.94425" lon="1.90756">
        <ele>183.042208</ele>
        <time>2026-08-29T11:56:08Z</time>
      </trkpt>
      <trkpt lat="43.94428" lon="1.90761">
        <ele>182.713433</ele>
        <time>2026-08-29T11:56:09Z</time>
      </trkpt>
      <trkpt lat="43.9443" lon="1.90766">
        <ele>182.400988</ele>
        <time>2026-08-29T11:56:10Z</time>
      </trkpt>
      <trkpt lat="43.94433" lon="1.90771">
        <ele>182.079239</ele>
        <time>2026-08-29T11:56:11Z</time>
      </trkpt>
      <trkpt lat="43.94435" lon="1.90777">
        <ele>181.757491</ele>
        <time>2026-08-29T11:56:12Z</time>
      </trkpt>
      <trkpt lat="43.94437" lon="1.90782">
        <ele>181.43931</ele>
        <time>2026-08-29T11:56:13Z</time>
      </trkpt>
      <trkpt lat="43.9444" lon="1.90787">
        <ele>181.126865</ele>
        <time>2026-08-29T11:56:14Z</time>
      </trkpt>
      <trkpt lat="43.94442" lon="1.90792">
        <ele>180.810115</ele>
        <time>2026-08-29T11:56:15Z</time>
      </trkpt>
      <trkpt lat="43.94444" lon="1.90797">
        <ele>180.50523</ele>
        <time>2026-08-29T11:56:16Z</time>
      </trkpt>
      <trkpt lat="43.94447" lon="1.90803">
        <ele>180.192266</ele>
        <time>2026-08-29T11:56:17Z</time>
      </trkpt>
      <trkpt lat="43.94449" lon="1.90808">
        <ele>179.892303</ele>
        <time>2026-08-29T11:56:18Z</time>
      </trkpt>
      <trkpt lat="43.94451" lon="1.90812">
        <ele>179.60427</ele>
        <time>2026-08-29T11:56:19Z</time>
      </trkpt>
      <trkpt lat="43.94453" lon="1.90817">
        <ele>179.329559</ele>
        <time>2026-08-29T11:56:20Z</time>
      </trkpt>
      <trkpt lat="43.94455" lon="1.90822">
        <ele>179.055238</ele>
        <time>2026-08-29T11:56:21Z</time>
      </trkpt>
      <trkpt lat="43.94457" lon="1.90826">
        <ele>178.772237</ele>
        <time>2026-08-29T11:56:22Z</time>
      </trkpt>
      <trkpt lat="43.94459" lon="1.90831">
        <ele>178.462006</ele>
        <time>2026-08-29T11:56:23Z</time>
      </trkpt>
      <trkpt lat="43.94461" lon="1.90837">
        <ele>178.142751</ele>
        <time>2026-08-29T11:56:24Z</time>
      </trkpt>
      <trkpt lat="43.94463" lon="1.90843">
        <ele>177.800632</ele>
        <time>2026-08-29T11:56:25Z</time>
      </trkpt>
      <trkpt lat="43.94466" lon="1.90849">
        <ele>177.429222</ele>
        <time>2026-08-29T11:56:26Z</time>
      </trkpt>
      <trkpt lat="43.94468" lon="1.90856">
        <ele>177.042236</ele>
        <time>2026-08-29T11:56:27Z</time>
      </trkpt>
      <trkpt lat="43.94471" lon="1.90863">
        <ele>176.634998</ele>
        <time>2026-08-29T11:56:28Z</time>
      </trkpt>
      <trkpt lat="43.94473" lon="1.9087">
        <ele>176.231867</ele>
        <time>2026-08-29T11:56:29Z</time>
      </trkpt>
      <trkpt lat="43.94475" lon="1.90877">
        <ele>175.881833</ele>
        <time>2026-08-29T11:56:30Z</time>
      </trkpt>
      <trkpt lat="43.94476" lon="1.90883">
        <ele>175.57032</ele>
        <time>2026-08-29T11:56:31Z</time>
      </trkpt>
      <trkpt lat="43.94477" lon="1.90888">
        <ele>175.288037</ele>
        <time>2026-08-29T11:56:32Z</time>
      </trkpt>
      <trkpt lat="43.94477" lon="1.90893">
        <ele>175.041782</ele>
        <time>2026-08-29T11:56:33Z</time>
      </trkpt>
      <trkpt lat="43.94478" lon="1.90897">
        <ele>174.813349</ele>
        <time>2026-08-29T11:56:34Z</time>
      </trkpt>
      <trkpt lat="43.9448" lon="1.909">
        <ele>174.593757</ele>
        <time>2026-08-29T11:56:35Z</time>
      </trkpt>
      <trkpt lat="43.94483" lon="1.90902">
        <ele>174.328444</ele>
        <time>2026-08-29T11:56:36Z</time>
      </trkpt>
      <trkpt lat="43.94487" lon="1.90905">
        <ele>174.022023</ele>
        <time>2026-08-29T11:56:37Z</time>
      </trkpt>
      <trkpt lat="43.94491" lon="1.90907">
        <ele>173.683429</ele>
        <time>2026-08-29T11:56:38Z</time>
      </trkpt>
      <trkpt lat="43.94496" lon="1.9091">
        <ele>173.349361</ele>
        <time>2026-08-29T11:56:39Z</time>
      </trkpt>
      <trkpt lat="43.945" lon="1.90913">
        <ele>173.00248</ele>
        <time>2026-08-29T11:56:40Z</time>
      </trkpt>
      <trkpt lat="43.94504" lon="1.90916">
        <ele>172.674774</ele>
        <time>2026-08-29T11:56:41Z</time>
      </trkpt>
      <trkpt lat="43.94508" lon="1.90919">
        <ele>172.350994</ele>
        <time>2026-08-29T11:56:42Z</time>
      </trkpt>
      <trkpt lat="43.94512" lon="1.90922">
        <ele>172.034481</ele>
        <time>2026-08-29T11:56:43Z</time>
      </trkpt>
      <trkpt lat="43.94516" lon="1.90925">
        <ele>171.7281</ele>
        <time>2026-08-29T11:56:44Z</time>
      </trkpt>
      <trkpt lat="43.9452" lon="1.90928">
        <ele>171.416781</ele>
        <time>2026-08-29T11:56:45Z</time>
      </trkpt>
      <trkpt lat="43.94523" lon="1.90931">
        <ele>171.10409</ele>
        <time>2026-08-29T11:56:46Z</time>
      </trkpt>
      <trkpt lat="43.94527" lon="1.90934">
        <ele>170.95951</ele>
        <time>2026-08-29T11:56:47Z</time>
      </trkpt>
      <trkpt lat="43.94531" lon="1.90937">
        <ele>171.011696</ele>
        <time>2026-08-29T11:56:48Z</time>
      </trkpt>
      <trkpt lat="43.94535" lon="1.9094">
        <ele>171.063132</ele>
        <time>2026-08-29T11:56:49Z</time>
      </trkpt>
      <trkpt lat="43.94539" lon="1.90942">
        <ele>171.113165</ele>
        <time>2026-08-29T11:56:50Z</time>
      </trkpt>
      <trkpt lat="43.94543" lon="1.90945">
        <ele>171.160752</ele>
        <time>2026-08-29T11:56:51Z</time>
      </trkpt>
      <trkpt lat="43.94547" lon="1.90947">
        <ele>171.207302</ele>
        <time>2026-08-29T11:56:52Z</time>
      </trkpt>
      <trkpt lat="43.9455" lon="1.9095">
        <ele>171.255933</ele>
        <time>2026-08-29T11:56:53Z</time>
      </trkpt>
      <trkpt lat="43.94554" lon="1.90952">
        <ele>171.303162</ele>
        <time>2026-08-29T11:56:54Z</time>
      </trkpt>
      <trkpt lat="43.94558" lon="1.90954">
        <ele>171.34865</ele>
        <time>2026-08-29T11:56:55Z</time>
      </trkpt>
      <trkpt lat="43.94562" lon="1.90956">
        <ele>171.39595</ele>
        <time>2026-08-29T11:56:56Z</time>
      </trkpt>
      <trkpt lat="43.94565" lon="1.90959">
        <ele>171.442499</ele>
        <time>2026-08-29T11:56:57Z</time>
      </trkpt>
      <trkpt lat="43.94569" lon="1.90961">
        <ele>171.493639</ele>
        <time>2026-08-29T11:56:58Z</time>
      </trkpt>
      <trkpt lat="43.94574" lon="1.90963">
        <ele>171.546459</ele>
        <time>2026-08-29T11:56:59Z</time>
      </trkpt>
      <trkpt lat="43.94578" lon="1.90964">
        <ele>171.598858</ele>
        <time>2026-08-29T11:57:00Z</time>
      </trkpt>
      <trkpt lat="43.94582" lon="1.90965">
        <ele>171.64845</ele>
        <time>2026-08-29T11:57:01Z</time>
      </trkpt>
      <trkpt lat="43.94586" lon="1.90966">
        <ele>171.695779</ele>
        <time>2026-08-29T11:57:02Z</time>
      </trkpt>
      <trkpt lat="43.9459" lon="1.90968">
        <ele>171.743108</ele>
        <time>2026-08-29T11:57:03Z</time>
      </trkpt>
      <trkpt lat="43.94594" lon="1.90969">
        <ele>171.786577</ele>
        <time>2026-08-29T11:57:04Z</time>
      </trkpt>
      <trkpt lat="43.94598" lon="1.90971">
        <ele>171.830554</ele>
        <time>2026-08-29T11:57:05Z</time>
      </trkpt>
      <trkpt lat="43.94601" lon="1.90973">
        <ele>171.873437</ele>
        <time>2026-08-29T11:57:06Z</time>
      </trkpt>
      <trkpt lat="43.94605" lon="1.90974">
        <ele>171.917688</ele>
        <time>2026-08-29T11:57:07Z</time>
      </trkpt>
      <trkpt lat="43.94608" lon="1.90977">
        <ele>171.961069</ele>
        <time>2026-08-29T11:57:08Z</time>
      </trkpt>
      <trkpt lat="43.94611" lon="1.90979">
        <ele>172.003342</ele>
        <time>2026-08-29T11:57:09Z</time>
      </trkpt>
      <trkpt lat="43.94613" lon="1.90983">
        <ele>172.04128</ele>
        <time>2026-08-29T11:57:10Z</time>
      </trkpt>
      <trkpt lat="43.94615" lon="1.90987">
        <ele>172.078449</ele>
        <time>2026-08-29T11:57:11Z</time>
      </trkpt>
      <trkpt lat="43.94617" lon="1.9099">
        <ele>172.112238</ele>
        <time>2026-08-29T11:57:12Z</time>
      </trkpt>
      <trkpt lat="43.94618" lon="1.90993">
        <ele>172.145774</ele>
        <time>2026-08-29T11:57:13Z</time>
      </trkpt>
      <trkpt lat="43.9462" lon="1.90997">
        <ele>172.18041</ele>
        <time>2026-08-29T11:57:14Z</time>
      </trkpt>
      <trkpt lat="43.94621" lon="1.91001">
        <ele>172.215566</ele>
        <time>2026-08-29T11:57:15Z</time>
      </trkpt>
      <trkpt lat="43.94623" lon="1.91004">
        <ele>172.249637</ele>
        <time>2026-08-29T11:57:16Z</time>
      </trkpt>
      <trkpt lat="43.94624" lon="1.91008">
        <ele>172.28392</ele>
        <time>2026-08-29T11:57:17Z</time>
      </trkpt>
      <trkpt lat="43.94625" lon="1.91012">
        <ele>172.318726</ele>
        <time>2026-08-29T11:57:18Z</time>
      </trkpt>
      <trkpt lat="43.94627" lon="1.91015">
        <ele>172.353278</ele>
        <time>2026-08-29T11:57:19Z</time>
      </trkpt>
      <trkpt lat="43.94628" lon="1.91019">
        <ele>172.387831</ele>
        <time>2026-08-29T11:57:20Z</time>
      </trkpt>
      <trkpt lat="43.94629" lon="1.91023">
        <ele>172.421142</ele>
        <time>2026-08-29T11:57:21Z</time>
      </trkpt>
      <trkpt lat="43.9463" lon="1.91026">
        <ele>172.451186</ele>
        <time>2026-08-29T11:57:22Z</time>
      </trkpt>
      <trkpt lat="43.94631" lon="1.91029">
        <ele>172.479964</ele>
        <time>2026-08-29T11:57:23Z</time>
      </trkpt>
      <trkpt lat="43.94632" lon="1.91032">
        <ele>172.508251</ele>
        <time>2026-08-29T11:57:24Z</time>
      </trkpt>
      <trkpt lat="43.94633" lon="1.91035">
        <ele>172.537029</ele>
        <time>2026-08-29T11:57:25Z</time>
      </trkpt>
      <trkpt lat="43.94634" lon="1.91039">
        <ele>172.565637</ele>
        <time>2026-08-29T11:57:26Z</time>
      </trkpt>
      <trkpt lat="43.94635" lon="1.91042">
        <ele>172.594244</ele>
        <time>2026-08-29T11:57:27Z</time>
      </trkpt>
      <trkpt lat="43.94636" lon="1.91045">
        <ele>172.624409</ele>
        <time>2026-08-29T11:57:28Z</time>
      </trkpt>
      <trkpt lat="43.94637" lon="1.91049">
        <ele>172.653793</ele>
        <time>2026-08-29T11:57:29Z</time>
      </trkpt>
      <trkpt lat="43.94638" lon="1.91052">
        <ele>172.683178</ele>
        <time>2026-08-29T11:57:30Z</time>
      </trkpt>
      <trkpt lat="43.94638" lon="1.91055">
        <ele>172.711027</ele>
        <time>2026-08-29T11:57:31Z</time>
      </trkpt>
      <trkpt lat="43.94639" lon="1.91058">
        <ele>172.737757</ele>
        <time>2026-08-29T11:57:32Z</time>
      </trkpt>
      <trkpt lat="43.94639" lon="1.91061">
        <ele>172.763399</ele>
        <time>2026-08-29T11:57:33Z</time>
      </trkpt>
      <trkpt lat="43.9464" lon="1.91064">
        <ele>172.787421</ele>
        <time>2026-08-29T11:57:34Z</time>
      </trkpt>
      <trkpt lat="43.9464" lon="1.91066">
        <ele>172.808747</ele>
        <time>2026-08-29T11:57:35Z</time>
      </trkpt>
      <trkpt lat="43.94641" lon="1.91069">
        <ele>172.830072</ele>
        <time>2026-08-29T11:57:36Z</time>
      </trkpt>
      <trkpt lat="43.94641" lon="1.91071">
        <ele>172.850585</ele>
        <time>2026-08-29T11:57:37Z</time>
      </trkpt>
      <trkpt lat="43.94642" lon="1.91074">
        <ele>172.8738</ele>
        <time>2026-08-29T11:57:38Z</time>
      </trkpt>
      <trkpt lat="43.94642" lon="1.91076">
        <ele>172.893806</ele>
        <time>2026-08-29T11:57:39Z</time>
      </trkpt>
      <trkpt lat="43.94643" lon="1.91079">
        <ele>172.914962</ele>
        <time>2026-08-29T11:57:40Z</time>
      </trkpt>
      <trkpt lat="43.94643" lon="1.91081">
        <ele>172.936117</ele>
        <time>2026-08-29T11:57:41Z</time>
      </trkpt>
      <trkpt lat="43.94644" lon="1.91084">
        <ele>172.956922</ele>
        <time>2026-08-29T11:57:42Z</time>
      </trkpt>
      <trkpt lat="43.94644" lon="1.91086">
        <ele>172.975735</ele>
        <time>2026-08-29T11:57:43Z</time>
      </trkpt>
      <trkpt lat="43.94645" lon="1.91088">
        <ele>172.995438</ele>
        <time>2026-08-29T11:57:44Z</time>
      </trkpt>
      <trkpt lat="43.94645" lon="1.9109">
        <ele>173.016779</ele>
        <time>2026-08-29T11:57:45Z</time>
      </trkpt>
      <trkpt lat="43.94646" lon="1.91092">
        <ele>173.157831</ele>
        <time>2026-08-29T11:57:46Z</time>
      </trkpt>
      <trkpt lat="43.94646" lon="1.91095">
        <ele>173.323538</ele>
        <time>2026-08-29T11:57:47Z</time>
      </trkpt>
      <trkpt lat="43.94647" lon="1.91097">
        <ele>173.46459</ele>
        <time>2026-08-29T11:57:48Z</time>
      </trkpt>
      <trkpt lat="43.94648" lon="1.91099">
        <ele>173.595001</ele>
        <time>2026-08-29T11:57:49Z</time>
      </trkpt>
      <trkpt lat="43.94649" lon="1.91101">
        <ele>173.733311</ele>
        <time>2026-08-29T11:57:50Z</time>
      </trkpt>
      <trkpt lat="43.94649" lon="1.91104">
        <ele>173.883106</ele>
        <time>2026-08-29T11:57:51Z</time>
      </trkpt>
      <trkpt lat="43.9465" lon="1.91106">
        <ele>174.022433</ele>
        <time>2026-08-29T11:57:52Z</time>
      </trkpt>
      <trkpt lat="43.94651" lon="1.91108">
        <ele>174.166969</ele>
        <time>2026-08-29T11:57:53Z</time>
      </trkpt>
      <trkpt lat="43.94652" lon="1.9111">
        <ele>174.306296</ele>
        <time>2026-08-29T11:57:54Z</time>
      </trkpt>
      <trkpt lat="43.94653" lon="1.91112">
        <ele>174.454683</ele>
        <time>2026-08-29T11:57:55Z</time>
      </trkpt>
      <trkpt lat="43.94654" lon="1.91114">
        <ele>174.58376</ele>
        <time>2026-08-29T11:57:56Z</time>
      </trkpt>
      <trkpt lat="43.94654" lon="1.91116">
        <ele>174.728296</ele>
        <time>2026-08-29T11:57:57Z</time>
      </trkpt>
      <trkpt lat="43.94655" lon="1.91118">
        <ele>174.858707</ele>
        <time>2026-08-29T11:57:58Z</time>
      </trkpt>
      <trkpt lat="43.94656" lon="1.91121">
        <ele>175.005142</ele>
        <time>2026-08-29T11:57:59Z</time>
      </trkpt>
      <trkpt lat="43.94656" lon="1.91123">
        <ele>175.146194</ele>
        <time>2026-08-29T11:58:00Z</time>
      </trkpt>
      <trkpt lat="43.94657" lon="1.91125">
        <ele>175.289511</ele>
        <time>2026-08-29T11:58:01Z</time>
      </trkpt>
      <trkpt lat="43.94658" lon="1.91127">
        <ele>175.423682</ele>
        <time>2026-08-29T11:58:02Z</time>
      </trkpt>
      <trkpt lat="43.94659" lon="1.91129">
        <ele>175.564734</ele>
        <time>2026-08-29T11:58:03Z</time>
      </trkpt>
      <trkpt lat="43.9466" lon="1.91132">
        <ele>175.72517</ele>
        <time>2026-08-29T11:58:04Z</time>
      </trkpt>
      <trkpt lat="43.9466" lon="1.91134">
        <ele>175.859342</ele>
        <time>2026-08-29T11:58:05Z</time>
      </trkpt>
      <trkpt lat="43.94661" lon="1.91136">
        <ele>175.993513</ele>
        <time>2026-08-29T11:58:06Z</time>
      </trkpt>
      <trkpt lat="43.94662" lon="1.91138">
        <ele>176.13284</ele>
        <time>2026-08-29T11:58:07Z</time>
      </trkpt>
      <trkpt lat="43.94663" lon="1.9114">
        <ele>176.289914</ele>
        <time>2026-08-29T11:58:08Z</time>
      </trkpt>
      <trkpt lat="43.94664" lon="1.91142">
        <ele>176.448604</ele>
        <time>2026-08-29T11:58:09Z</time>
      </trkpt>
      <trkpt lat="43.94665" lon="1.91145">
        <ele>176.598398</ele>
        <time>2026-08-29T11:58:10Z</time>
      </trkpt>
      <trkpt lat="43.94666" lon="1.91147">
        <ele>176.742934</ele>
        <time>2026-08-29T11:58:11Z</time>
      </trkpt>
      <trkpt lat="43.94667" lon="1.91149">
        <ele>176.900499</ele>
        <time>2026-08-29T11:58:12Z</time>
      </trkpt>
      <trkpt lat="43.94668" lon="1.91151">
        <ele>177.043816</ele>
        <time>2026-08-29T11:58:13Z</time>
      </trkpt>
      <trkpt lat="43.94669" lon="1.91153">
        <ele>177.19639</ele>
        <time>2026-08-29T11:58:14Z</time>
      </trkpt>
      <trkpt lat="43.9467" lon="1.91156">
        <ele>177.353955</ele>
        <time>2026-08-29T11:58:15Z</time>
      </trkpt>
      <trkpt lat="43.94671" lon="1.91158">
        <ele>177.501604</ele>
        <time>2026-08-29T11:58:16Z</time>
      </trkpt>
      <trkpt lat="43.94671" lon="1.9116">
        <ele>177.64999</ele>
        <time>2026-08-29T11:58:17Z</time>
      </trkpt>
      <trkpt lat="43.94672" lon="1.91162">
        <ele>177.802564</ele>
        <time>2026-08-29T11:58:18Z</time>
      </trkpt>
      <trkpt lat="43.94673" lon="1.91164">
        <ele>177.952358</ele>
        <time>2026-08-29T11:58:19Z</time>
      </trkpt>
      <trkpt lat="43.94674" lon="1.91167">
        <ele>178.1192</ele>
        <time>2026-08-29T11:58:20Z</time>
      </trkpt>
      <trkpt lat="43.94675" lon="1.91169">
        <ele>178.261994</ele>
        <time>2026-08-29T11:58:21Z</time>
      </trkpt>
      <trkpt lat="43.94676" lon="1.91171">
        <ele>178.409643</ele>
        <time>2026-08-29T11:58:22Z</time>
      </trkpt>
      <trkpt lat="43.94677" lon="1.91173">
        <ele>178.558029</ele>
        <time>2026-08-29T11:58:23Z</time>
      </trkpt>
      <trkpt lat="43.94678" lon="1.91175">
        <ele>178.705678</ele>
        <time>2026-08-29T11:58:24Z</time>
      </trkpt>
      <trkpt lat="43.94679" lon="1.91178">
        <ele>178.863242</ele>
        <time>2026-08-29T11:58:25Z</time>
      </trkpt>
      <trkpt lat="43.9468" lon="1.9118">
        <ele>179.035059</ele>
        <time>2026-08-29T11:58:26Z</time>
      </trkpt>
      <trkpt lat="43.94682" lon="1.91182">
        <ele>179.196917</ele>
        <time>2026-08-29T11:58:27Z</time>
      </trkpt>
      <trkpt lat="43.94683" lon="1.91184">
        <ele>179.325653</ele>
        <time>2026-08-29T11:58:28Z</time>
      </trkpt>
      <trkpt lat="43.94684" lon="1.91186">
        <ele>179.459691</ele>
        <time>2026-08-29T11:58:29Z</time>
      </trkpt>
      <trkpt lat="43.94685" lon="1.91187">
        <ele>179.598145</ele>
        <time>2026-08-29T11:58:30Z</time>
      </trkpt>
      <trkpt lat="43.94686" lon="1.91189">
        <ele>179.722395</ele>
        <time>2026-08-29T11:58:31Z</time>
      </trkpt>
      <trkpt lat="43.94687" lon="1.91191">
        <ele>179.86085</ele>
        <time>2026-08-29T11:58:32Z</time>
      </trkpt>
      <trkpt lat="43.94688" lon="1.91193">
        <ele>180.009066</ele>
        <time>2026-08-29T11:58:33Z</time>
      </trkpt>
      <trkpt lat="43.94689" lon="1.91195">
        <ele>180.162775</ele>
        <time>2026-08-29T11:58:34Z</time>
      </trkpt>
      <trkpt lat="43.9469" lon="1.91196">
        <ele>180.301229</ele>
        <time>2026-08-29T11:58:35Z</time>
      </trkpt>
      <trkpt lat="43.94692" lon="1.91199">
        <ele>180.458303</ele>
        <time>2026-08-29T11:58:36Z</time>
      </trkpt>
      <trkpt lat="43.94693" lon="1.91201">
        <ele>180.596321</ele>
        <time>2026-08-29T11:58:37Z</time>
      </trkpt>
      <trkpt lat="43.94693" lon="1.91203">
        <ele>180.723381</ele>
        <time>2026-08-29T11:58:38Z</time>
      </trkpt>
      <trkpt lat="43.94694" lon="1.91204">
        <ele>180.856709</ele>
        <time>2026-08-29T11:58:39Z</time>
      </trkpt>
      <trkpt lat="43.94695" lon="1.91206">
        <ele>180.978232</ele>
        <time>2026-08-29T11:58:40Z</time>
      </trkpt>
      <trkpt lat="43.94697" lon="1.91207">
        <ele>181.112217</ele>
        <time>2026-08-29T11:58:41Z</time>
      </trkpt>
      <trkpt lat="43.94698" lon="1.91208">
        <ele>181.242692</ele>
        <time>2026-08-29T11:58:42Z</time>
      </trkpt>
      <trkpt lat="43.94699" lon="1.9121">
        <ele>181.386708</ele>
        <time>2026-08-29T11:58:43Z</time>
      </trkpt>
      <trkpt lat="43.94701" lon="1.91211">
        <ele>181.54203</ele>
        <time>2026-08-29T11:58:44Z</time>
      </trkpt>
      <trkpt lat="43.94702" lon="1.91213">
        <ele>181.680484</ele>
        <time>2026-08-29T11:58:45Z</time>
      </trkpt>
      <trkpt lat="43.94703" lon="1.91214">
        <ele>181.824501</ele>
        <time>2026-08-29T11:58:46Z</time>
      </trkpt>
      <trkpt lat="43.94705" lon="1.91216">
        <ele>181.964114</ele>
        <time>2026-08-29T11:58:47Z</time>
      </trkpt>
      <trkpt lat="43.94706" lon="1.91218">
        <ele>182.095609</ele>
        <time>2026-08-29T11:58:48Z</time>
      </trkpt>
      <trkpt lat="43.94707" lon="1.9122">
        <ele>182.243824</ele>
        <time>2026-08-29T11:58:49Z</time>
      </trkpt>
      <trkpt lat="43.94709" lon="1.91221">
        <ele>182.401512</ele>
        <time>2026-08-29T11:58:50Z</time>
      </trkpt>
      <trkpt lat="43.9471" lon="1.91223">
        <ele>182.5592</ele>
        <time>2026-08-29T11:58:51Z</time>
      </trkpt>
      <trkpt lat="43.94711" lon="1.91225">
        <ele>182.712909</ele>
        <time>2026-08-29T11:58:52Z</time>
      </trkpt>
      <trkpt lat="43.94713" lon="1.91227">
        <ele>182.866618</ele>
        <time>2026-08-29T11:58:53Z</time>
      </trkpt>
      <trkpt lat="43.94714" lon="1.91229">
        <ele>183.020327</ele>
        <time>2026-08-29T11:58:54Z</time>
      </trkpt>
      <trkpt lat="43.94715" lon="1.9123">
        <ele>183.165758</ele>
        <time>2026-08-29T11:58:55Z</time>
      </trkpt>
      <trkpt lat="43.94716" lon="1.91232">
        <ele>183.301246</ele>
        <time>2026-08-29T11:58:56Z</time>
      </trkpt>
      <trkpt lat="43.94718" lon="1.91233">
        <ele>183.445262</ele>
        <time>2026-08-29T11:58:57Z</time>
      </trkpt>
      <trkpt lat="43.94719" lon="1.91235">
        <ele>183.582919</ele>
        <time>2026-08-29T11:58:58Z</time>
      </trkpt>
      <trkpt lat="43.94721" lon="1.91236">
        <ele>183.720086</ele>
        <time>2026-08-29T11:58:59Z</time>
      </trkpt>
      <trkpt lat="43.94722" lon="1.91237">
        <ele>183.854083</ele>
        <time>2026-08-29T11:59:00Z</time>
      </trkpt>
      <trkpt lat="43.94723" lon="1.91239">
        <ele>183.99125</ele>
        <time>2026-08-29T11:59:01Z</time>
      </trkpt>
      <trkpt lat="43.94725" lon="1.9124">
        <ele>184.139356</ele>
        <time>2026-08-29T11:59:02Z</time>
      </trkpt>
      <trkpt lat="43.94726" lon="1.91241">
        <ele>184.267582</ele>
        <time>2026-08-29T11:59:03Z</time>
      </trkpt>
      <trkpt lat="43.94728" lon="1.91242">
        <ele>184.43882</ele>
        <time>2026-08-29T11:59:04Z</time>
      </trkpt>
      <trkpt lat="43.9473" lon="1.91243">
        <ele>184.609794</ele>
        <time>2026-08-29T11:59:05Z</time>
      </trkpt>
      <trkpt lat="43.94732" lon="1.91244">
        <ele>184.740667</ele>
        <time>2026-08-29T11:59:06Z</time>
      </trkpt>
      <trkpt lat="43.94733" lon="1.91245">
        <ele>184.888851</ele>
        <time>2026-08-29T11:59:07Z</time>
      </trkpt>
      <trkpt lat="43.94735" lon="1.91246">
        <ele>185.037034</ele>
        <time>2026-08-29T11:59:08Z</time>
      </trkpt>
      <trkpt lat="43.94736" lon="1.91247">
        <ele>185.152847</ele>
        <time>2026-08-29T11:59:09Z</time>
      </trkpt>
      <trkpt lat="43.94738" lon="1.91248">
        <ele>185.26866</ele>
        <time>2026-08-29T11:59:10Z</time>
      </trkpt>
      <trkpt lat="43.94739" lon="1.91248">
        <ele>185.407622</ele>
        <time>2026-08-29T11:59:11Z</time>
      </trkpt>
      <trkpt lat="43.94741" lon="1.91248">
        <ele>185.534763</ele>
        <time>2026-08-29T11:59:12Z</time>
      </trkpt>
      <trkpt lat="43.94742" lon="1.91249">
        <ele>185.644633</ele>
        <time>2026-08-29T11:59:13Z</time>
      </trkpt>
      <trkpt lat="43.94744" lon="1.91249">
        <ele>185.778211</ele>
        <time>2026-08-29T11:59:14Z</time>
      </trkpt>
      <trkpt lat="43.94745" lon="1.91251">
        <ele>185.899734</ele>
        <time>2026-08-29T11:59:15Z</time>
      </trkpt>
      <trkpt lat="43.94746" lon="1.91251">
        <ele>186.003614</ele>
        <time>2026-08-29T11:59:16Z</time>
      </trkpt>
      <trkpt lat="43.94748" lon="1.91252">
        <ele>186.129259</ele>
        <time>2026-08-29T11:59:17Z</time>
      </trkpt>
      <trkpt lat="43.94749" lon="1.91252">
        <ele>186.21402</ele>
        <time>2026-08-29T11:59:18Z</time>
      </trkpt>
      <trkpt lat="43.9475" lon="1.91253">
        <ele>186.342907</ele>
        <time>2026-08-29T11:59:19Z</time>
      </trkpt>
      <trkpt lat="43.94752" lon="1.91254">
        <ele>186.47954</ele>
        <time>2026-08-29T11:59:20Z</time>
      </trkpt>
      <trkpt lat="43.94753" lon="1.91255">
        <ele>186.583525</ele>
        <time>2026-08-29T11:59:21Z</time>
      </trkpt>
      <trkpt lat="43.94754" lon="1.91256">
        <ele>186.702623</ele>
        <time>2026-08-29T11:59:22Z</time>
      </trkpt>
      <trkpt lat="43.94754" lon="1.91258">
        <ele>186.798167</ele>
        <time>2026-08-29T11:59:23Z</time>
      </trkpt>
      <trkpt lat="43.94755" lon="1.91259">
        <ele>186.89197</ele>
        <time>2026-08-29T11:59:24Z</time>
      </trkpt>
      <trkpt lat="43.94756" lon="1.9126">
        <ele>187.005534</ele>
        <time>2026-08-29T11:59:25Z</time>
      </trkpt>
      <trkpt lat="43.94756" lon="1.91262">
        <ele>187.135571</ele>
        <time>2026-08-29T11:59:26Z</time>
      </trkpt>
      <trkpt lat="43.94756" lon="1.91264">
        <ele>187.261121</ele>
        <time>2026-08-29T11:59:27Z</time>
      </trkpt>
      <trkpt lat="43.94757" lon="1.91266">
        <ele>187.381003</ele>
        <time>2026-08-29T11:59:28Z</time>
      </trkpt>
      <trkpt lat="43.94758" lon="1.91268">
        <ele>187.510078</ele>
        <time>2026-08-29T11:59:29Z</time>
      </trkpt>
      <trkpt lat="43.9476" lon="1.91269">
        <ele>187.650589</ele>
        <time>2026-08-29T11:59:30Z</time>
      </trkpt>
      <trkpt lat="43.94761" lon="1.9127">
        <ele>187.849793</ele>
        <time>2026-08-29T11:59:31Z</time>
      </trkpt>
      <trkpt lat="43.94763" lon="1.91271">
        <ele>188.106454</ele>
        <time>2026-08-29T11:59:32Z</time>
      </trkpt>
      <trkpt lat="43.94765" lon="1.91273">
        <ele>188.39204</ele>
        <time>2026-08-29T11:59:33Z</time>
      </trkpt>
      <trkpt lat="43.94766" lon="1.91274">
        <ele>188.63718</ele>
        <time>2026-08-29T11:59:34Z</time>
      </trkpt>
      <trkpt lat="43.94768" lon="1.91276">
        <ele>188.913249</ele>
        <time>2026-08-29T11:59:35Z</time>
      </trkpt>
      <trkpt lat="43.9477" lon="1.91277">
        <ele>189.167715</ele>
        <time>2026-08-29T11:59:36Z</time>
      </trkpt>
      <trkpt lat="43.94771" lon="1.91279">
        <ele>189.406098</ele>
        <time>2026-08-29T11:59:37Z</time>
      </trkpt>
      <trkpt lat="43.94773" lon="1.91281">
        <ele>189.672009</ele>
        <time>2026-08-29T11:59:38Z</time>
      </trkpt>
      <trkpt lat="43.94774" lon="1.91283">
        <ele>189.912995</ele>
        <time>2026-08-29T11:59:39Z</time>
      </trkpt>
      <trkpt lat="43.94775" lon="1.91284">
        <ele>190.084213</ele>
        <time>2026-08-29T11:59:40Z</time>
      </trkpt>
      <trkpt lat="43.94776" lon="1.91284">
        <ele>190.1726</ele>
        <time>2026-08-29T11:59:41Z</time>
      </trkpt>
      <trkpt lat="43.94776" lon="1.91284">
        <ele>190.216891</ele>
        <time>2026-08-29T11:59:42Z</time>
      </trkpt>
      <trkpt lat="43.94779" lon="1.91288">
        <ele>190.715555</ele>
        <time>2026-08-29T12:00:25Z</time>
      </trkpt>
      <trkpt lat="43.9478" lon="1.91289">
        <ele>190.94525</ele>
        <time>2026-08-29T12:00:26Z</time>
      </trkpt>
      <trkpt lat="43.94782" lon="1.91291">
        <ele>191.164661</ele>
        <time>2026-08-29T12:00:27Z</time>
      </trkpt>
      <trkpt lat="43.94783" lon="1.91292">
        <ele>191.390177</ele>
        <time>2026-08-29T12:00:28Z</time>
      </trkpt>
      <trkpt lat="43.94785" lon="1.91293">
        <ele>191.635316</ele>
        <time>2026-08-29T12:00:29Z</time>
      </trkpt>
      <trkpt lat="43.94786" lon="1.91295">
        <ele>191.848045</ele>
        <time>2026-08-29T12:00:30Z</time>
      </trkpt>
      <trkpt lat="43.94788" lon="1.91296">
        <ele>192.077063</ele>
        <time>2026-08-29T12:00:31Z</time>
      </trkpt>
      <trkpt lat="43.94789" lon="1.91298">
        <ele>192.284858</ele>
        <time>2026-08-29T12:00:32Z</time>
      </trkpt>
      <trkpt lat="43.9479" lon="1.91299">
        <ele>192.487207</ele>
        <time>2026-08-29T12:00:33Z</time>
      </trkpt>
      <trkpt lat="43.94792" lon="1.91301">
        <ele>192.728193</ele>
        <time>2026-08-29T12:00:34Z</time>
      </trkpt>
      <trkpt lat="43.94793" lon="1.91302">
        <ele>192.941681</ele>
        <time>2026-08-29T12:00:35Z</time>
      </trkpt>
      <trkpt lat="43.94794" lon="1.91303">
        <ele>193.112899</ele>
        <time>2026-08-29T12:00:36Z</time>
      </trkpt>
      <trkpt lat="43.94795" lon="1.91304">
        <ele>193.289586</ele>
        <time>2026-08-29T12:00:37Z</time>
      </trkpt>
      <trkpt lat="43.94796" lon="1.91305">
        <ele>193.450854</ele>
        <time>2026-08-29T12:00:38Z</time>
      </trkpt>
      <trkpt lat="43.94798" lon="1.91306">
        <ele>193.627627</ele>
        <time>2026-08-29T12:00:39Z</time>
      </trkpt>
      <trkpt lat="43.94799" lon="1.91308">
        <ele>193.855913</ele>
        <time>2026-08-29T12:00:40Z</time>
      </trkpt>
      <trkpt lat="43.94801" lon="1.91309">
        <ele>194.081428</ele>
        <time>2026-08-29T12:00:41Z</time>
      </trkpt>
      <trkpt lat="43.94802" lon="1.9131">
        <ele>194.309714</ele>
        <time>2026-08-29T12:00:42Z</time>
      </trkpt>
      <trkpt lat="43.94804" lon="1.91311">
        <ele>194.512896</ele>
        <time>2026-08-29T12:00:43Z</time>
      </trkpt>
      <trkpt lat="43.94805" lon="1.91313">
        <ele>194.720708</ele>
        <time>2026-08-29T12:00:44Z</time>
      </trkpt>
      <trkpt lat="43.94806" lon="1.91314">
        <ele>194.92852</ele>
        <time>2026-08-29T12:00:45Z</time>
      </trkpt>
      <trkpt lat="43.94808" lon="1.91315">
        <ele>195.15187</ele>
        <time>2026-08-29T12:00:46Z</time>
      </trkpt>
      <trkpt lat="43.94809" lon="1.91316">
        <ele>195.349043</ele>
        <time>2026-08-29T12:00:47Z</time>
      </trkpt>
      <trkpt lat="43.9481" lon="1.91318">
        <ele>195.52573</ele>
        <time>2026-08-29T12:00:48Z</time>
      </trkpt>
      <trkpt lat="43.94811" lon="1.91319">
        <ele>195.691799</ele>
        <time>2026-08-29T12:00:49Z</time>
      </trkpt>
      <trkpt lat="43.94812" lon="1.9132">
        <ele>195.868485</ele>
        <time>2026-08-29T12:00:50Z</time>
      </trkpt>
      <trkpt lat="43.94814" lon="1.91321">
        <ele>196.045258</ele>
        <time>2026-08-29T12:00:51Z</time>
      </trkpt>
      <trkpt lat="43.94815" lon="1.91322">
        <ele>196.237547</ele>
        <time>2026-08-29T12:00:52Z</time>
      </trkpt>
      <trkpt lat="43.94816" lon="1.91323">
        <ele>196.429786</ele>
        <time>2026-08-29T12:00:53Z</time>
      </trkpt>
      <trkpt lat="43.94817" lon="1.91324">
        <ele>196.61657</ele>
        <time>2026-08-29T12:00:54Z</time>
      </trkpt>
      <trkpt lat="43.94819" lon="1.91326">
        <ele>196.808809</ele>
        <time>2026-08-29T12:00:55Z</time>
      </trkpt>
      <trkpt lat="43.9482" lon="1.91327">
        <ele>197.022297</ele>
        <time>2026-08-29T12:00:56Z</time>
      </trkpt>
      <trkpt lat="43.94821" lon="1.91328">
        <ele>197.21947</ele>
        <time>2026-08-29T12:00:57Z</time>
      </trkpt>
      <trkpt lat="43.94822" lon="1.9133">
        <ele>197.401915</ele>
        <time>2026-08-29T12:00:58Z</time>
      </trkpt>
      <trkpt lat="43.94824" lon="1.91331">
        <ele>197.594203</ele>
        <time>2026-08-29T12:00:59Z</time>
      </trkpt>
      <trkpt lat="43.94825" lon="1.91332">
        <ele>197.812117</ele>
        <time>2026-08-29T12:01:00Z</time>
      </trkpt>
      <trkpt lat="43.94826" lon="1.91334">
        <ele>197.998039</ele>
        <time>2026-08-29T12:01:01Z</time>
      </trkpt>
      <trkpt lat="43.94827" lon="1.91335">
        <ele>198.140237</ele>
        <time>2026-08-29T12:01:02Z</time>
      </trkpt>
      <trkpt lat="43.94828" lon="1.91336">
        <ele>198.29589</ele>
        <time>2026-08-29T12:01:03Z</time>
      </trkpt>
      <trkpt lat="43.94829" lon="1.91337">
        <ele>198.431844</ele>
        <time>2026-08-29T12:01:04Z</time>
      </trkpt>
      <trkpt lat="43.94829" lon="1.91338">
        <ele>198.609425</ele>
        <time>2026-08-29T12:01:05Z</time>
      </trkpt>
      <trkpt lat="43.94831" lon="1.9134">
        <ele>198.824149</ele>
        <time>2026-08-29T12:01:06Z</time>
      </trkpt>
      <trkpt lat="43.94832" lon="1.91342">
        <ele>199.02535</ele>
        <time>2026-08-29T12:01:07Z</time>
      </trkpt>
      <trkpt lat="43.94833" lon="1.91343">
        <ele>199.254368</ele>
        <time>2026-08-29T12:01:08Z</time>
      </trkpt>
      <trkpt lat="43.94834" lon="1.91345">
        <ele>199.446607</ele>
        <time>2026-08-29T12:01:09Z</time>
      </trkpt>
      <trkpt lat="43.94836" lon="1.91346">
        <ele>199.6544</ele>
        <time>2026-08-29T12:01:10Z</time>
      </trkpt>
      <trkpt lat="43.94836" lon="1.91348">
        <ele>199.831981</ele>
        <time>2026-08-29T12:01:11Z</time>
      </trkpt>
      <trkpt lat="43.94838" lon="1.91349">
        <ele>200.066883</ele>
        <time>2026-08-29T12:01:12Z</time>
      </trkpt>
      <trkpt lat="43.94839" lon="1.91351">
        <ele>200.249327</ele>
        <time>2026-08-29T12:01:13Z</time>
      </trkpt>
      <trkpt lat="43.9484" lon="1.91352">
        <ele>200.433986</ele>
        <time>2026-08-29T12:01:14Z</time>
      </trkpt>
      <trkpt lat="43.94841" lon="1.91353">
        <ele>200.591578</ele>
        <time>2026-08-29T12:01:15Z</time>
      </trkpt>
      <trkpt lat="43.94842" lon="1.91355">
        <ele>200.7556</ele>
        <time>2026-08-29T12:01:16Z</time>
      </trkpt>
      <trkpt lat="43.94843" lon="1.91356">
        <ele>200.958783</ele>
        <time>2026-08-29T12:01:17Z</time>
      </trkpt>
      <trkpt lat="43.94844" lon="1.91357">
        <ele>201.119918</ele>
        <time>2026-08-29T12:01:18Z</time>
      </trkpt>
      <trkpt lat="43.94845" lon="1.91358">
        <ele>201.291137</ele>
        <time>2026-08-29T12:01:19Z</time>
      </trkpt>
      <trkpt lat="43.94846" lon="1.91359">
        <ele>201.47358</ele>
        <time>2026-08-29T12:01:20Z</time>
      </trkpt>
      <trkpt lat="43.94847" lon="1.91361">
        <ele>201.662045</ele>
        <time>2026-08-29T12:01:21Z</time>
      </trkpt>
      <trkpt lat="43.94848" lon="1.91362">
        <ele>201.844489</ele>
        <time>2026-08-29T12:01:22Z</time>
      </trkpt>
      <trkpt lat="43.9485" lon="1.91363">
        <ele>202.0523</ele>
        <time>2026-08-29T12:01:23Z</time>
      </trkpt>
      <trkpt lat="43.94851" lon="1.91364">
        <ele>202.260111</ele>
        <time>2026-08-29T12:01:24Z</time>
      </trkpt>
      <trkpt lat="43.94852" lon="1.91366">
        <ele>202.437692</ele>
        <time>2026-08-29T12:01:25Z</time>
      </trkpt>
      <trkpt lat="43.94853" lon="1.91367">
        <ele>202.608386</ele>
        <time>2026-08-29T12:01:26Z</time>
      </trkpt>
      <trkpt lat="43.94854" lon="1.91368">
        <ele>202.758906</ele>
        <time>2026-08-29T12:01:27Z</time>
      </trkpt>
      <trkpt lat="43.94855" lon="1.9137">
        <ele>202.921475</ele>
        <time>2026-08-29T12:01:28Z</time>
      </trkpt>
      <trkpt lat="43.94856" lon="1.91371">
        <ele>203.100829</ele>
        <time>2026-08-29T12:01:29Z</time>
      </trkpt>
      <trkpt lat="43.94857" lon="1.91372">
        <ele>203.289294</ele>
        <time>2026-08-29T12:01:30Z</time>
      </trkpt>
      <trkpt lat="43.94858" lon="1.91374">
        <ele>203.488601</ele>
        <time>2026-08-29T12:01:31Z</time>
      </trkpt>
      <trkpt lat="43.94859" lon="1.91376">
        <ele>203.688251</ele>
        <time>2026-08-29T12:01:32Z</time>
      </trkpt>
      <trkpt lat="43.9486" lon="1.91378">
        <ele>203.946576</ele>
        <time>2026-08-29T12:01:33Z</time>
      </trkpt>
      <trkpt lat="43.94861" lon="1.9138">
        <ele>204.116347</ele>
        <time>2026-08-29T12:01:34Z</time>
      </trkpt>
      <trkpt lat="43.94862" lon="1.91381">
        <ele>204.271999</ele>
        <time>2026-08-29T12:01:35Z</time>
      </trkpt>
      <trkpt lat="43.94863" lon="1.91382">
        <ele>204.423435</ele>
        <time>2026-08-29T12:01:36Z</time>
      </trkpt>
      <trkpt lat="43.94862" lon="1.91385">
        <ele>204.679333</ele>
        <time>2026-08-29T12:01:37Z</time>
      </trkpt>
      <trkpt lat="43.94863" lon="1.91386">
        <ele>204.81977</ele>
        <time>2026-08-29T12:01:38Z</time>
      </trkpt>
      <trkpt lat="43.94864" lon="1.91388">
        <ele>205.026611</ele>
        <time>2026-08-29T12:01:39Z</time>
      </trkpt>
      <trkpt lat="43.94865" lon="1.91389">
        <ele>205.196382</ele>
        <time>2026-08-29T12:01:40Z</time>
      </trkpt>
      <trkpt lat="43.94866" lon="1.91391">
        <ele>205.403155</ele>
        <time>2026-08-29T12:01:41Z</time>
      </trkpt>
      <trkpt lat="43.94867" lon="1.91393">
        <ele>205.565708</ele>
        <time>2026-08-29T12:01:42Z</time>
      </trkpt>
      <trkpt lat="43.94868" lon="1.91394">
        <ele>205.742481</ele>
        <time>2026-08-29T12:01:43Z</time>
      </trkpt>
      <trkpt lat="43.94869" lon="1.91395">
        <ele>205.884679</ele>
        <time>2026-08-29T12:01:44Z</time>
      </trkpt>
      <trkpt lat="43.94869" lon="1.91396">
        <ele>206.010188</ele>
        <time>2026-08-29T12:01:45Z</time>
      </trkpt>
      <trkpt lat="43.9487" lon="1.91397">
        <ele>206.155776</ele>
        <time>2026-08-29T12:01:46Z</time>
      </trkpt>
      <trkpt lat="43.94871" lon="1.91397">
        <ele>206.275142</ele>
        <time>2026-08-29T12:01:47Z</time>
      </trkpt>
      <trkpt lat="43.94872" lon="1.91398">
        <ele>206.454754</ele>
        <time>2026-08-29T12:01:48Z</time>
      </trkpt>
      <trkpt lat="43.94873" lon="1.91398">
        <ele>206.613011</ele>
        <time>2026-08-29T12:01:49Z</time>
      </trkpt>
      <trkpt lat="43.94874" lon="1.91399">
        <ele>206.758599</ele>
        <time>2026-08-29T12:01:50Z</time>
      </trkpt>
      <trkpt lat="43.94875" lon="1.914">
        <ele>206.881044</ele>
        <time>2026-08-29T12:01:51Z</time>
      </trkpt>
      <trkpt lat="43.94876" lon="1.914">
        <ele>206.934746</ele>
        <time>2026-08-29T12:01:52Z</time>
      </trkpt>
      <trkpt lat="43.94876" lon="1.914">
        <ele>206.985274</ele>
        <time>2026-08-29T12:01:53Z</time>
      </trkpt>
      <trkpt lat="43.94877" lon="1.91413">
        <ele>208.184732</ele>
        <time>2026-08-29T12:02:59Z</time>
      </trkpt>
      <trkpt lat="43.94879" lon="1.91413">
        <ele>208.377672</ele>
        <time>2026-08-29T12:03:00Z</time>
      </trkpt>
      <trkpt lat="43.9488" lon="1.91414">
        <ele>208.569106</ele>
        <time>2026-08-29T12:03:01Z</time>
      </trkpt>
      <trkpt lat="43.94882" lon="1.91414">
        <ele>208.775509</ele>
        <time>2026-08-29T12:03:02Z</time>
      </trkpt>
      <trkpt lat="43.94883" lon="1.91415">
        <ele>208.963466</ele>
        <time>2026-08-29T12:03:03Z</time>
      </trkpt>
      <trkpt lat="43.94885" lon="1.91416">
        <ele>209.211773</ele>
        <time>2026-08-29T12:03:04Z</time>
      </trkpt>
      <trkpt lat="43.94886" lon="1.91417">
        <ele>209.403002</ele>
        <time>2026-08-29T12:03:05Z</time>
      </trkpt>
      <trkpt lat="43.94888" lon="1.91417">
        <ele>209.567411</ele>
        <time>2026-08-29T12:03:06Z</time>
      </trkpt>
      <trkpt lat="43.94889" lon="1.91418">
        <ele>209.777586</ele>
        <time>2026-08-29T12:03:07Z</time>
      </trkpt>
      <trkpt lat="43.94891" lon="1.91419">
        <ele>209.995643</ele>
        <time>2026-08-29T12:03:08Z</time>
      </trkpt>
      <trkpt lat="43.94892" lon="1.9142">
        <ele>210.217273</ele>
        <time>2026-08-29T12:03:09Z</time>
      </trkpt>
      <trkpt lat="43.94894" lon="1.91421">
        <ele>210.412881</ele>
        <time>2026-08-29T12:03:10Z</time>
      </trkpt>
      <trkpt lat="43.94895" lon="1.91422">
        <ele>210.57693</ele>
        <time>2026-08-29T12:03:11Z</time>
      </trkpt>
      <trkpt lat="43.94897" lon="1.91423">
        <ele>210.744019</ele>
        <time>2026-08-29T12:03:12Z</time>
      </trkpt>
      <trkpt lat="43.94899" lon="1.91425">
        <ele>210.924723</ele>
        <time>2026-08-29T12:03:13Z</time>
      </trkpt>
      <trkpt lat="43.949" lon="1.91426">
        <ele>211.083787</ele>
        <time>2026-08-29T12:03:14Z</time>
      </trkpt>
      <trkpt lat="43.94902" lon="1.91427">
        <ele>211.239086</ele>
        <time>2026-08-29T12:03:15Z</time>
      </trkpt>
      <trkpt lat="43.94903" lon="1.91429">
        <ele>211.387433</ele>
        <time>2026-08-29T12:03:16Z</time>
      </trkpt>
      <trkpt lat="43.94904" lon="1.91431">
        <ele>211.562735</ele>
        <time>2026-08-29T12:03:17Z</time>
      </trkpt>
      <trkpt lat="43.94905" lon="1.91432">
        <ele>211.709096</ele>
        <time>2026-08-29T12:03:18Z</time>
      </trkpt>
      <trkpt lat="43.94906" lon="1.91433">
        <ele>211.84497</ele>
        <time>2026-08-29T12:03:19Z</time>
      </trkpt>
      <trkpt lat="43.94908" lon="1.91434">
        <ele>211.962282</ele>
        <time>2026-08-29T12:03:20Z</time>
      </trkpt>
      <trkpt lat="43.94909" lon="1.91436">
        <ele>212.099379</ele>
        <time>2026-08-29T12:03:21Z</time>
      </trkpt>
      <trkpt lat="43.9491" lon="1.91437">
        <ele>212.233707</ele>
        <time>2026-08-29T12:03:22Z</time>
      </trkpt>
      <trkpt lat="43.94911" lon="1.91439">
        <ele>212.37388</ele>
        <time>2026-08-29T12:03:23Z</time>
      </trkpt>
      <trkpt lat="43.94911" lon="1.9144">
        <ele>212.493196</ele>
        <time>2026-08-29T12:03:24Z</time>
      </trkpt>
      <trkpt lat="43.94912" lon="1.91442">
        <ele>212.608588</ele>
        <time>2026-08-29T12:03:25Z</time>
      </trkpt>
      <trkpt lat="43.94912" lon="1.91442">
        <ele>212.651648</ele>
        <time>2026-08-29T12:03:26Z</time>
      </trkpt>
      <trkpt lat="43.94912" lon="1.91443">
        <ele>212.679661</ele>
        <time>2026-08-29T12:03:27Z</time>
      </trkpt>
      <trkpt lat="43.94912" lon="1.91442">
        <ele>212.720405</ele>
        <time>2026-08-29T12:03:28Z</time>
      </trkpt>
      <trkpt lat="43.94912" lon="1.91443">
        <ele>212.799793</ele>
        <time>2026-08-29T12:03:29Z</time>
      </trkpt>
      <trkpt lat="43.94912" lon="1.91444">
        <ele>212.832872</ele>
        <time>2026-08-29T12:03:30Z</time>
      </trkpt>
      <trkpt lat="43.94912" lon="1.91445">
        <ele>212.925946</ele>
        <time>2026-08-29T12:03:31Z</time>
      </trkpt>
      <trkpt lat="43.94912" lon="1.91446">
        <ele>212.985488</ele>
        <time>2026-08-29T12:03:32Z</time>
      </trkpt>
      <trkpt lat="43.94925" lon="1.91464">
        <ele>214.688075</ele>
        <time>2026-08-29T12:04:02Z</time>
      </trkpt>
      <trkpt lat="43.94926" lon="1.91467">
        <ele>214.861258</ele>
        <time>2026-08-29T12:04:03Z</time>
      </trkpt>
      <trkpt lat="43.94928" lon="1.91467">
        <ele>215.003016</ele>
        <time>2026-08-29T12:04:04Z</time>
      </trkpt>
      <trkpt lat="43.94929" lon="1.91469">
        <ele>215.154173</ele>
        <time>2026-08-29T12:04:05Z</time>
      </trkpt>
      <trkpt lat="43.9493" lon="1.9147">
        <ele>215.307024</ele>
        <time>2026-08-29T12:04:06Z</time>
      </trkpt>
      <trkpt lat="43.94931" lon="1.91473">
        <ele>215.480207</ele>
        <time>2026-08-29T12:04:07Z</time>
      </trkpt>
      <trkpt lat="43.94932" lon="1.91475">
        <ele>215.653391</ele>
        <time>2026-08-29T12:04:08Z</time>
      </trkpt>
      <trkpt lat="43.94933" lon="1.91477">
        <ele>215.853845</ele>
        <time>2026-08-29T12:04:09Z</time>
      </trkpt>
      <trkpt lat="43.94934" lon="1.9148">
        <ele>216.0316</ele>
        <time>2026-08-29T12:04:10Z</time>
      </trkpt>
      <trkpt lat="43.94935" lon="1.91482">
        <ele>216.22844</ele>
        <time>2026-08-29T12:04:11Z</time>
      </trkpt>
      <trkpt lat="43.94937" lon="1.91485">
        <ele>216.432461</ele>
        <time>2026-08-29T12:04:12Z</time>
      </trkpt>
      <trkpt lat="43.94938" lon="1.91487">
        <ele>216.61591</ele>
        <time>2026-08-29T12:04:13Z</time>
      </trkpt>
      <trkpt lat="43.94939" lon="1.9149">
        <ele>216.825828</ele>
        <time>2026-08-29T12:04:14Z</time>
      </trkpt>
      <trkpt lat="43.9494" lon="1.91492">
        <ele>217.024608</ele>
        <time>2026-08-29T12:04:15Z</time>
      </trkpt>
      <trkpt lat="43.94941" lon="1.91495">
        <ele>217.207283</ele>
        <time>2026-08-29T12:04:16Z</time>
      </trkpt>
      <trkpt lat="43.94942" lon="1.91497">
        <ele>217.374683</ele>
        <time>2026-08-29T12:04:17Z</time>
      </trkpt>
      <trkpt lat="43.94943" lon="1.91499">
        <ele>217.547866</ele>
        <time>2026-08-29T12:04:18Z</time>
      </trkpt>
      <trkpt lat="43.94944" lon="1.91501">
        <ele>217.708958</ele>
        <time>2026-08-29T12:04:19Z</time>
      </trkpt>
      <trkpt lat="43.94945" lon="1.91503">
        <ele>217.870639</ele>
        <time>2026-08-29T12:04:20Z</time>
      </trkpt>
      <trkpt lat="43.94946" lon="1.91505">
        <ele>218.031731</ele>
        <time>2026-08-29T12:04:21Z</time>
      </trkpt>
      <trkpt lat="43.94946" lon="1.91507">
        <ele>218.187369</ele>
        <time>2026-08-29T12:04:22Z</time>
      </trkpt>
      <trkpt lat="43.94947" lon="1.9151">
        <ele>218.331078</ele>
        <time>2026-08-29T12:04:23Z</time>
      </trkpt>
      <trkpt lat="43.94947" lon="1.91511">
        <ele>218.44647</ele>
        <time>2026-08-29T12:04:24Z</time>
      </trkpt>
      <trkpt lat="43.94948" lon="1.91514">
        <ele>218.61176</ele>
        <time>2026-08-29T12:04:25Z</time>
      </trkpt>
      <trkpt lat="43.94948" lon="1.91516">
        <ele>218.767398</ele>
        <time>2026-08-29T12:04:26Z</time>
      </trkpt>
      <trkpt lat="43.94949" lon="1.91518">
        <ele>218.926343</ele>
        <time>2026-08-29T12:04:27Z</time>
      </trkpt>
      <trkpt lat="43.94949" lon="1.9152">
        <ele>219.067981</ele>
        <time>2026-08-29T12:04:28Z</time>
      </trkpt>
      <trkpt lat="43.94949" lon="1.91522">
        <ele>219.216113</ele>
        <time>2026-08-29T12:04:29Z</time>
      </trkpt>
      <trkpt lat="43.9495" lon="1.91525">
        <ele>219.390316</ele>
        <time>2026-08-29T12:04:30Z</time>
      </trkpt>
      <trkpt lat="43.9495" lon="1.91527">
        <ele>219.537016</ele>
        <time>2026-08-29T12:04:31Z</time>
      </trkpt>
      <trkpt lat="43.9495" lon="1.91529">
        <ele>219.690282</ele>
        <time>2026-08-29T12:04:32Z</time>
      </trkpt>
      <trkpt lat="43.94951" lon="1.91532">
        <ele>219.855572</ele>
        <time>2026-08-29T12:04:33Z</time>
      </trkpt>
      <trkpt lat="43.94951" lon="1.91534">
        <ele>220.020862</ele>
        <time>2026-08-29T12:04:34Z</time>
      </trkpt>
      <trkpt lat="43.94952" lon="1.91537">
        <ele>220.198322</ele>
        <time>2026-08-29T12:04:35Z</time>
      </trkpt>
      <trkpt lat="43.94952" lon="1.91539">
        <ele>220.378949</ele>
        <time>2026-08-29T12:04:36Z</time>
      </trkpt>
      <trkpt lat="43.94953" lon="1.91542">
        <ele>220.566007</ele>
        <time>2026-08-29T12:04:37Z</time>
      </trkpt>
      <trkpt lat="43.94954" lon="1.91544">
        <ele>220.747</ele>
        <time>2026-08-29T12:04:38Z</time>
      </trkpt>
      <trkpt lat="43.94955" lon="1.91547">
        <ele>220.915987</ele>
        <time>2026-08-29T12:04:39Z</time>
      </trkpt>
      <trkpt lat="43.94956" lon="1.91549">
        <ele>221.083197</ele>
        <time>2026-08-29T12:04:40Z</time>
      </trkpt>
      <trkpt lat="43.94957" lon="1.9155">
        <ele>221.239394</ele>
        <time>2026-08-29T12:04:41Z</time>
      </trkpt>
      <trkpt lat="43.94958" lon="1.91552">
        <ele>221.37649</ele>
        <time>2026-08-29T12:04:42Z</time>
      </trkpt>
      <trkpt lat="43.9496" lon="1.91553">
        <ele>221.519921</ele>
        <time>2026-08-29T12:04:43Z</time>
      </trkpt>
      <trkpt lat="43.94961" lon="1.91555">
        <ele>221.67522</ele>
        <time>2026-08-29T12:04:44Z</time>
      </trkpt>
      <trkpt lat="43.94962" lon="1.91556">
        <ele>221.81687</ele>
        <time>2026-08-29T12:04:45Z</time>
      </trkpt>
      <trkpt lat="43.94963" lon="1.91557">
        <ele>221.960875</ele>
        <time>2026-08-29T12:04:46Z</time>
      </trkpt>
      <trkpt lat="43.94964" lon="1.91558">
        <ele>222.097428</ele>
        <time>2026-08-29T12:04:47Z</time>
      </trkpt>
      <trkpt lat="43.94966" lon="1.91559">
        <ele>222.247574</ele>
        <time>2026-08-29T12:04:48Z</time>
      </trkpt>
      <trkpt lat="43.94968" lon="1.9156">
        <ele>222.411622</ele>
        <time>2026-08-29T12:04:49Z</time>
      </trkpt>
      <trkpt lat="43.94969" lon="1.91562">
        <ele>222.575671</ele>
        <time>2026-08-29T12:04:50Z</time>
      </trkpt>
      <trkpt lat="43.94971" lon="1.91563">
        <ele>222.726841</ele>
        <time>2026-08-29T12:04:51Z</time>
      </trkpt>
      <trkpt lat="43.94972" lon="1.91564">
        <ele>222.881588</ele>
        <time>2026-08-29T12:04:52Z</time>
      </trkpt>
      <trkpt lat="43.94973" lon="1.91565">
        <ele>223.034478</ele>
        <time>2026-08-29T12:04:53Z</time>
      </trkpt>
      <trkpt lat="43.94975" lon="1.91566">
        <ele>223.185648</ele>
        <time>2026-08-29T12:04:54Z</time>
      </trkpt>
      <trkpt lat="43.94976" lon="1.91567">
        <ele>223.344271</ele>
        <time>2026-08-29T12:04:55Z</time>
      </trkpt>
      <trkpt lat="43.94978" lon="1.91568">
        <ele>223.511447</ele>
        <time>2026-08-29T12:04:56Z</time>
      </trkpt>
      <trkpt lat="43.9498" lon="1.91569">
        <ele>223.689589</ele>
        <time>2026-08-29T12:04:57Z</time>
      </trkpt>
      <trkpt lat="43.94982" lon="1.9157">
        <ele>223.859234</ele>
        <time>2026-08-29T12:04:58Z</time>
      </trkpt>
      <trkpt lat="43.94983" lon="1.91571">
        <ele>224.031567</ele>
        <time>2026-08-29T12:04:59Z</time>
      </trkpt>
      <trkpt lat="43.94985" lon="1.91572">
        <ele>224.182736</ele>
        <time>2026-08-29T12:05:00Z</time>
      </trkpt>
      <trkpt lat="43.94986" lon="1.91573">
        <ele>224.34396</ele>
        <time>2026-08-29T12:05:01Z</time>
      </trkpt>
      <trkpt lat="43.94988" lon="1.91574">
        <ele>224.499826</ele>
        <time>2026-08-29T12:05:02Z</time>
      </trkpt>
      <trkpt lat="43.94989" lon="1.91576">
        <ele>224.666915</ele>
        <time>2026-08-29T12:05:03Z</time>
      </trkpt>
      <trkpt lat="43.94991" lon="1.91577">
        <ele>224.822781</ele>
        <time>2026-08-29T12:05:04Z</time>
      </trkpt>
      <trkpt lat="43.94992" lon="1.91578">
        <ele>224.964538</ele>
        <time>2026-08-29T12:05:05Z</time>
      </trkpt>
      <trkpt lat="43.94994" lon="1.91579">
        <ele>225.115695</ele>
        <time>2026-08-29T12:05:06Z</time>
      </trkpt>
      <trkpt lat="43.94995" lon="1.91581">
        <ele>225.270993</ele>
        <time>2026-08-29T12:05:07Z</time>
      </trkpt>
      <trkpt lat="43.94996" lon="1.91581">
        <ele>225.41275</ele>
        <time>2026-08-29T12:05:08Z</time>
      </trkpt>
      <trkpt lat="43.94998" lon="1.91582">
        <ele>225.571373</ele>
        <time>2026-08-29T12:05:09Z</time>
      </trkpt>
      <trkpt lat="43.95" lon="1.91583">
        <ele>225.723662</ele>
        <time>2026-08-29T12:05:10Z</time>
      </trkpt>
      <trkpt lat="43.95001" lon="1.91584">
        <ele>225.871309</ele>
        <time>2026-08-29T12:05:11Z</time>
      </trkpt>
      <trkpt lat="43.95002" lon="1.91585">
        <ele>226.001966</ele>
        <time>2026-08-29T12:05:12Z</time>
      </trkpt>
      <trkpt lat="43.95004" lon="1.91585">
        <ele>226.141073</ele>
        <time>2026-08-29T12:05:13Z</time>
      </trkpt>
      <trkpt lat="43.95005" lon="1.91586">
        <ele>226.28283</ele>
        <time>2026-08-29T12:05:14Z</time>
      </trkpt>
      <trkpt lat="43.95007" lon="1.91587">
        <ele>226.438697</ele>
        <time>2026-08-29T12:05:15Z</time>
      </trkpt>
      <trkpt lat="43.95008" lon="1.91589">
        <ele>226.613925</ele>
        <time>2026-08-29T12:05:16Z</time>
      </trkpt>
      <trkpt lat="43.9501" lon="1.9159">
        <ele>226.777974</ele>
        <time>2026-08-29T12:05:17Z</time>
      </trkpt>
      <trkpt lat="43.95011" lon="1.91591">
        <ele>226.921194</ele>
        <time>2026-08-29T12:05:18Z</time>
      </trkpt>
      <trkpt lat="43.95013" lon="1.91592">
        <ele>227.019242</ele>
        <time>2026-08-29T12:05:19Z</time>
      </trkpt>
      <trkpt lat="43.95014" lon="1.91593">
        <ele>227.119781</ele>
        <time>2026-08-29T12:05:20Z</time>
      </trkpt>
      <trkpt lat="43.95015" lon="1.91594">
        <ele>227.231278</ele>
        <time>2026-08-29T12:05:21Z</time>
      </trkpt>
      <trkpt lat="43.95017" lon="1.91596">
        <ele>227.373508</ele>
        <time>2026-08-29T12:05:22Z</time>
      </trkpt>
      <trkpt lat="43.95019" lon="1.91597">
        <ele>227.500173</ele>
        <time>2026-08-29T12:05:23Z</time>
      </trkpt>
      <trkpt lat="43.95021" lon="1.91598">
        <ele>227.640501</ele>
        <time>2026-08-29T12:05:24Z</time>
      </trkpt>
      <trkpt lat="43.95023" lon="1.91599">
        <ele>227.763329</ele>
        <time>2026-08-29T12:05:25Z</time>
      </trkpt>
      <trkpt lat="43.95024" lon="1.91601">
        <ele>227.87721</ele>
        <time>2026-08-29T12:05:26Z</time>
      </trkpt>
      <trkpt lat="43.95026" lon="1.91602">
        <ele>228.009797</ele>
        <time>2026-08-29T12:05:27Z</time>
      </trkpt>
      <trkpt lat="43.95028" lon="1.91603">
        <ele>228.139099</ele>
        <time>2026-08-29T12:05:28Z</time>
      </trkpt>
      <trkpt lat="43.9503" lon="1.91604">
        <ele>228.263969</ele>
        <time>2026-08-29T12:05:29Z</time>
      </trkpt>
      <trkpt lat="43.95032" lon="1.91605">
        <ele>228.416209</ele>
        <time>2026-08-29T12:05:30Z</time>
      </trkpt>
      <trkpt lat="43.95034" lon="1.91606">
        <ele>228.570485</ele>
        <time>2026-08-29T12:05:31Z</time>
      </trkpt>
      <trkpt lat="43.95036" lon="1.91608">
        <ele>228.730439</ele>
        <time>2026-08-29T12:05:32Z</time>
      </trkpt>
      <trkpt lat="43.95039" lon="1.9161">
        <ele>228.902806</ele>
        <time>2026-08-29T12:05:33Z</time>
      </trkpt>
      <trkpt lat="43.95041" lon="1.91612">
        <ele>229.09099</ele>
        <time>2026-08-29T12:05:34Z</time>
      </trkpt>
      <trkpt lat="43.95044" lon="1.91614">
        <ele>229.284714</ele>
        <time>2026-08-29T12:05:35Z</time>
      </trkpt>
      <trkpt lat="43.95046" lon="1.91616">
        <ele>229.462647</ele>
        <time>2026-08-29T12:05:36Z</time>
      </trkpt>
      <trkpt lat="43.95049" lon="1.91618">
        <ele>229.642921</ele>
        <time>2026-08-29T12:05:37Z</time>
      </trkpt>
      <trkpt lat="43.95051" lon="1.9162">
        <ele>229.81753</ele>
        <time>2026-08-29T12:05:38Z</time>
      </trkpt>
      <trkpt lat="43.95053" lon="1.91622">
        <ele>229.987572</ele>
        <time>2026-08-29T12:05:39Z</time>
      </trkpt>
      <trkpt lat="43.95055" lon="1.91624">
        <ele>230.141849</ele>
        <time>2026-08-29T12:05:40Z</time>
      </trkpt>
      <trkpt lat="43.95057" lon="1.91625">
        <ele>230.29535</ele>
        <time>2026-08-29T12:05:41Z</time>
      </trkpt>
      <trkpt lat="43.95059" lon="1.91627">
        <ele>230.443486</ele>
        <time>2026-08-29T12:05:42Z</time>
      </trkpt>
      <trkpt lat="43.95061" lon="1.91629">
        <ele>230.602221</ele>
        <time>2026-08-29T12:05:43Z</time>
      </trkpt>
      <trkpt lat="43.95063" lon="1.91631">
        <ele>230.763709</ele>
        <time>2026-08-29T12:05:44Z</time>
      </trkpt>
      <trkpt lat="43.95065" lon="1.91634">
        <ele>230.926044</ele>
        <time>2026-08-29T12:05:45Z</time>
      </trkpt>
      <trkpt lat="43.95067" lon="1.91636">
        <ele>231.077455</ele>
        <time>2026-08-29T12:05:46Z</time>
      </trkpt>
      <trkpt lat="43.95069" lon="1.91638">
        <ele>231.236782</ele>
        <time>2026-08-29T12:05:47Z</time>
      </trkpt>
      <trkpt lat="43.9507" lon="1.9164">
        <ele>231.392911</ele>
        <time>2026-08-29T12:05:48Z</time>
      </trkpt>
      <trkpt lat="43.95072" lon="1.91642">
        <ele>231.539448</ele>
        <time>2026-08-29T12:05:49Z</time>
      </trkpt>
      <trkpt lat="43.95074" lon="1.91644">
        <ele>231.666436</ele>
        <time>2026-08-29T12:05:50Z</time>
      </trkpt>
      <trkpt lat="43.95076" lon="1.91646">
        <ele>231.804085</ele>
        <time>2026-08-29T12:05:51Z</time>
      </trkpt>
      <trkpt lat="43.95077" lon="1.91647">
        <ele>231.934761</ele>
        <time>2026-08-29T12:05:52Z</time>
      </trkpt>
      <trkpt lat="43.95079" lon="1.91648">
        <ele>232.063364</ele>
        <time>2026-08-29T12:05:53Z</time>
      </trkpt>
      <trkpt lat="43.95081" lon="1.91649">
        <ele>232.201898</ele>
        <time>2026-08-29T12:05:54Z</time>
      </trkpt>
      <trkpt lat="43.95083" lon="1.91651">
        <ele>232.340433</ele>
        <time>2026-08-29T12:05:55Z</time>
      </trkpt>
      <trkpt lat="43.95085" lon="1.91652">
        <ele>232.46543</ele>
        <time>2026-08-29T12:05:56Z</time>
      </trkpt>
      <trkpt lat="43.95087" lon="1.91653">
        <ele>232.601853</ele>
        <time>2026-08-29T12:05:57Z</time>
      </trkpt>
      <trkpt lat="43.95088" lon="1.91655">
        <ele>232.736292</ele>
        <time>2026-08-29T12:05:58Z</time>
      </trkpt>
      <trkpt lat="43.9509" lon="1.91656">
        <ele>232.862957</ele>
        <time>2026-08-29T12:05:59Z</time>
      </trkpt>
      <trkpt lat="43.95092" lon="1.91657">
        <ele>232.99383</ele>
        <time>2026-08-29T12:06:00Z</time>
      </trkpt>
      <trkpt lat="43.95094" lon="1.91658">
        <ele>233.127887</ele>
        <time>2026-08-29T12:06:01Z</time>
      </trkpt>
      <trkpt lat="43.95096" lon="1.91658">
        <ele>233.2435</ele>
        <time>2026-08-29T12:06:02Z</time>
      </trkpt>
      <trkpt lat="43.95098" lon="1.91659">
        <ele>233.364297</ele>
        <time>2026-08-29T12:06:03Z</time>
      </trkpt>
      <trkpt lat="43.95099" lon="1.91661">
        <ele>233.487125</ele>
        <time>2026-08-29T12:06:04Z</time>
      </trkpt>
      <trkpt lat="43.95101" lon="1.91662">
        <ele>233.601006</ele>
        <time>2026-08-29T12:06:05Z</time>
      </trkpt>
      <trkpt lat="43.95103" lon="1.91663">
        <ele>233.731682</ele>
        <time>2026-08-29T12:06:06Z</time>
      </trkpt>
      <trkpt lat="43.95104" lon="1.91664">
        <ele>233.8274</ele>
        <time>2026-08-29T12:06:07Z</time>
      </trkpt>
      <trkpt lat="43.95105" lon="1.91665">
        <ele>233.9288</ele>
        <time>2026-08-29T12:06:08Z</time>
      </trkpt>
      <trkpt lat="43.95107" lon="1.91666">
        <ele>234.038055</ele>
        <time>2026-08-29T12:06:09Z</time>
      </trkpt>
      <trkpt lat="43.95108" lon="1.91667">
        <ele>234.12964</ele>
        <time>2026-08-29T12:06:10Z</time>
      </trkpt>
      <trkpt lat="43.95109" lon="1.91668">
        <ele>234.223199</ele>
        <time>2026-08-29T12:06:11Z</time>
      </trkpt>
      <trkpt lat="43.95111" lon="1.91669">
        <ele>234.316758</ele>
        <time>2026-08-29T12:06:12Z</time>
      </trkpt>
      <trkpt lat="43.95112" lon="1.9167">
        <ele>234.418158</ele>
        <time>2026-08-29T12:06:13Z</time>
      </trkpt>
      <trkpt lat="43.95113" lon="1.91671">
        <ele>234.513998</ele>
        <time>2026-08-29T12:06:14Z</time>
      </trkpt>
      <trkpt lat="43.95115" lon="1.91671">
        <ele>234.611507</ele>
        <time>2026-08-29T12:06:15Z</time>
      </trkpt>
      <trkpt lat="43.95116" lon="1.91673">
        <ele>234.723002</ele>
        <time>2026-08-29T12:06:16Z</time>
      </trkpt>
      <trkpt lat="43.95118" lon="1.91674">
        <ele>234.837993</ele>
        <time>2026-08-29T12:06:17Z</time>
      </trkpt>
      <trkpt lat="43.9512" lon="1.91675">
        <ele>234.955176</ele>
        <time>2026-08-29T12:06:18Z</time>
      </trkpt>
      <trkpt lat="43.95121" lon="1.91676">
        <ele>235.070167</ele>
        <time>2026-08-29T12:06:19Z</time>
      </trkpt>
      <trkpt lat="43.95123" lon="1.91677">
        <ele>235.189561</ele>
        <time>2026-08-29T12:06:20Z</time>
      </trkpt>
      <trkpt lat="43.95125" lon="1.91678">
        <ele>235.310358</ele>
        <time>2026-08-29T12:06:21Z</time>
      </trkpt>
      <trkpt lat="43.95126" lon="1.91679">
        <ele>235.435355</ele>
        <time>2026-08-29T12:06:22Z</time>
      </trkpt>
      <trkpt lat="43.95128" lon="1.9168">
        <ele>235.554268</ele>
        <time>2026-08-29T12:06:23Z</time>
      </trkpt>
      <trkpt lat="43.9513" lon="1.91682">
        <ele>235.684944</ele>
        <time>2026-08-29T12:06:24Z</time>
      </trkpt>
      <trkpt lat="43.95131" lon="1.91683">
        <ele>235.809941</ele>
        <time>2026-08-29T12:06:25Z</time>
      </trkpt>
      <trkpt lat="43.95133" lon="1.91684">
        <ele>235.934937</ele>
        <time>2026-08-29T12:06:26Z</time>
      </trkpt>
      <trkpt lat="43.95135" lon="1.91685">
        <ele>236.040183</ele>
        <time>2026-08-29T12:06:27Z</time>
      </trkpt>
      <trkpt lat="43.95136" lon="1.91686">
        <ele>236.139543</ele>
        <time>2026-08-29T12:06:28Z</time>
      </trkpt>
      <trkpt lat="43.95137" lon="1.91686">
        <ele>236.211</ele>
        <time>2026-08-29T12:06:29Z</time>
      </trkpt>
      <trkpt lat="43.95138" lon="1.91687">
        <ele>236.274493</ele>
        <time>2026-08-29T12:06:30Z</time>
      </trkpt>
      <trkpt lat="43.95139" lon="1.91688">
        <ele>236.340803</ele>
        <time>2026-08-29T12:06:31Z</time>
      </trkpt>
      <trkpt lat="43.9514" lon="1.91689">
        <ele>236.412234</ele>
        <time>2026-08-29T12:06:32Z</time>
      </trkpt>
      <trkpt lat="43.9514" lon="1.91689">
        <ele>236.467791</ele>
        <time>2026-08-29T12:06:33Z</time>
      </trkpt>
      <trkpt lat="43.95142" lon="1.9169">
        <ele>236.552469</ele>
        <time>2026-08-29T12:06:34Z</time>
      </trkpt>
      <trkpt lat="43.95142" lon="1.91691">
        <ele>236.623899</ele>
        <time>2026-08-29T12:06:35Z</time>
      </trkpt>
      <trkpt lat="43.95144" lon="1.91692">
        <ele>236.716507</ele>
        <time>2026-08-29T12:06:36Z</time>
      </trkpt>
      <trkpt lat="43.95145" lon="1.91693">
        <ele>236.817907</ele>
        <time>2026-08-29T12:06:37Z</time>
      </trkpt>
      <trkpt lat="43.95147" lon="1.91694">
        <ele>236.93509</ele>
        <time>2026-08-29T12:06:38Z</time>
      </trkpt>
      <trkpt lat="43.95148" lon="1.91695">
        <ele>237.054003</ele>
        <time>2026-08-29T12:06:39Z</time>
      </trkpt>
      <trkpt lat="43.9515" lon="1.91696">
        <ele>237.17683</ele>
        <time>2026-08-29T12:06:40Z</time>
      </trkpt>
      <trkpt lat="43.95152" lon="1.91697">
        <ele>237.303495</ele>
        <time>2026-08-29T12:06:41Z</time>
      </trkpt>
      <trkpt lat="43.95154" lon="1.91698">
        <ele>237.426718</ele>
        <time>2026-08-29T12:06:42Z</time>
      </trkpt>
      <trkpt lat="43.95155" lon="1.91699">
        <ele>237.528118</ele>
        <time>2026-08-29T12:06:43Z</time>
      </trkpt>
      <trkpt lat="43.95156" lon="1.917">
        <ele>237.615959</ele>
        <time>2026-08-29T12:06:44Z</time>
      </trkpt>
      <trkpt lat="43.95158" lon="1.91701">
        <ele>237.709518</ele>
        <time>2026-08-29T12:06:45Z</time>
      </trkpt>
      <trkpt lat="43.95159" lon="1.91703">
        <ele>237.815471</ele>
        <time>2026-08-29T12:06:46Z</time>
      </trkpt>
      <trkpt lat="43.95161" lon="1.91704">
        <ele>237.934866</ele>
        <time>2026-08-29T12:06:47Z</time>
      </trkpt>
      <trkpt lat="43.95162" lon="1.91705">
        <ele>238.063468</ele>
        <time>2026-08-29T12:06:48Z</time>
      </trkpt>
      <trkpt lat="43.95164" lon="1.91706">
        <ele>238.169431</ele>
        <time>2026-08-29T12:06:49Z</time>
      </trkpt>
      <trkpt lat="43.95165" lon="1.91707">
        <ele>238.280927</ele>
        <time>2026-08-29T12:06:50Z</time>
      </trkpt>
      <trkpt lat="43.95166" lon="1.91708">
        <ele>238.361623</ele>
        <time>2026-08-29T12:06:51Z</time>
      </trkpt>
      <trkpt lat="43.95168" lon="1.91709">
        <ele>238.443853</ele>
        <time>2026-08-29T12:06:52Z</time>
      </trkpt>
      <trkpt lat="43.95169" lon="1.91709">
        <ele>238.510035</ele>
        <time>2026-08-29T12:06:53Z</time>
      </trkpt>
      <trkpt lat="43.9517" lon="1.9171">
        <ele>238.536614</ele>
        <time>2026-08-29T12:06:54Z</time>
      </trkpt>
      <trkpt lat="43.95171" lon="1.91711">
        <ele>238.568206</ele>
        <time>2026-08-29T12:06:55Z</time>
      </trkpt>
      <trkpt lat="43.95172" lon="1.91712">
        <ele>238.598482</ele>
        <time>2026-08-29T12:06:56Z</time>
      </trkpt>
      <trkpt lat="43.95173" lon="1.91713">
        <ele>238.63085</ele>
        <time>2026-08-29T12:06:57Z</time>
      </trkpt>
      <trkpt lat="43.95174" lon="1.91714">
        <ele>238.657428</ele>
        <time>2026-08-29T12:06:58Z</time>
      </trkpt>
      <trkpt lat="43.95175" lon="1.91714">
        <ele>238.686898</ele>
        <time>2026-08-29T12:06:59Z</time>
      </trkpt>
      <trkpt lat="43.95177" lon="1.91715">
        <ele>238.721373</ele>
        <time>2026-08-29T12:07:00Z</time>
      </trkpt>
      <trkpt lat="43.95178" lon="1.91716">
        <ele>238.758931</ele>
        <time>2026-08-29T12:07:01Z</time>
      </trkpt>
      <trkpt lat="43.9518" lon="1.91717">
        <ele>238.797067</ele>
        <time>2026-08-29T12:07:02Z</time>
      </trkpt>
      <trkpt lat="43.95181" lon="1.91718">
        <ele>238.835849</ele>
        <time>2026-08-29T12:07:03Z</time>
      </trkpt>
      <trkpt lat="43.95183" lon="1.91719">
        <ele>238.873985</ele>
        <time>2026-08-29T12:07:04Z</time>
      </trkpt>
      <trkpt lat="43.95184" lon="1.91719">
        <ele>238.911542</ele>
        <time>2026-08-29T12:07:05Z</time>
      </trkpt>
      <trkpt lat="43.95185" lon="1.9172">
        <ele>238.944056</ele>
        <time>2026-08-29T12:07:06Z</time>
      </trkpt>
      <trkpt lat="43.95187" lon="1.9172">
        <ele>238.975659</ele>
        <time>2026-08-29T12:07:07Z</time>
      </trkpt>
      <trkpt lat="43.95188" lon="1.91721">
        <ele>239.012708</ele>
        <time>2026-08-29T12:07:08Z</time>
      </trkpt>
      <trkpt lat="43.9519" lon="1.91722">
        <ele>239.057564</ele>
        <time>2026-08-29T12:07:09Z</time>
      </trkpt>
      <trkpt lat="43.95192" lon="1.91723">
        <ele>239.096345</ele>
        <time>2026-08-29T12:07:10Z</time>
      </trkpt>
      <trkpt lat="43.95193" lon="1.91724">
        <ele>239.132475</ele>
        <time>2026-08-29T12:07:11Z</time>
      </trkpt>
      <trkpt lat="43.95194" lon="1.91725">
        <ele>239.170651</ele>
        <time>2026-08-29T12:07:12Z</time>
      </trkpt>
      <trkpt lat="43.95195" lon="1.91726">
        <ele>239.207237</ele>
        <time>2026-08-29T12:07:13Z</time>
      </trkpt>
      <trkpt lat="43.95197" lon="1.91728">
        <ele>239.243357</ele>
        <time>2026-08-29T12:07:14Z</time>
      </trkpt>
      <trkpt lat="43.95197" lon="1.91729">
        <ele>239.270711</ele>
        <time>2026-08-29T12:07:15Z</time>
      </trkpt>
      <trkpt lat="43.95198" lon="1.9173">
        <ele>239.304077</ele>
        <time>2026-08-29T12:07:16Z</time>
      </trkpt>
      <trkpt lat="43.95199" lon="1.91731">
        <ele>239.320684</ele>
        <time>2026-08-29T12:07:17Z</time>
      </trkpt>
      <trkpt lat="43.95199" lon="1.9173">
        <ele>239.326333</ele>
        <time>2026-08-29T12:07:18Z</time>
      </trkpt>
      <trkpt lat="43.95199" lon="1.9173">
        <ele>239.32975</ele>
        <time>2026-08-29T12:07:19Z</time>
      </trkpt>
      <trkpt lat="43.95197" lon="1.91739">
        <ele>239.491401</ele>
        <time>2026-08-29T12:07:54Z</time>
      </trkpt>
      <trkpt lat="43.95195" lon="1.91741">
        <ele>239.537857</ele>
        <time>2026-08-29T12:07:55Z</time>
      </trkpt>
      <trkpt lat="43.95194" lon="1.91743">
        <ele>239.587818</ele>
        <time>2026-08-29T12:07:56Z</time>
      </trkpt>
      <trkpt lat="43.95192" lon="1.91744">
        <ele>239.631953</ele>
        <time>2026-08-29T12:07:57Z</time>
      </trkpt>
      <trkpt lat="43.9519" lon="1.91746">
        <ele>239.678013</ele>
        <time>2026-08-29T12:07:58Z</time>
      </trkpt>
      <trkpt lat="43.95189" lon="1.91747">
        <ele>239.731655</ele>
        <time>2026-08-29T12:07:59Z</time>
      </trkpt>
      <trkpt lat="43.95187" lon="1.9175">
        <ele>239.789704</ele>
        <time>2026-08-29T12:08:00Z</time>
      </trkpt>
      <trkpt lat="43.95185" lon="1.91752">
        <ele>239.847334</ele>
        <time>2026-08-29T12:08:01Z</time>
      </trkpt>
      <trkpt lat="43.95183" lon="1.91754">
        <ele>239.913615</ele>
        <time>2026-08-29T12:08:02Z</time>
      </trkpt>
      <trkpt lat="43.9518" lon="1.91757">
        <ele>239.990665</ele>
        <time>2026-08-29T12:08:03Z</time>
      </trkpt>
      <trkpt lat="43.95177" lon="1.91759">
        <ele>240.064759</ele>
        <time>2026-08-29T12:08:04Z</time>
      </trkpt>
      <trkpt lat="43.95175" lon="1.91762">
        <ele>240.136998</ele>
        <time>2026-08-29T12:08:05Z</time>
      </trkpt>
      <trkpt lat="43.95173" lon="1.91764">
        <ele>240.205247</ele>
        <time>2026-08-29T12:08:06Z</time>
      </trkpt>
      <trkpt lat="43.9517" lon="1.91766">
        <ele>240.274452</ele>
        <time>2026-08-29T12:08:07Z</time>
      </trkpt>
      <trkpt lat="43.95168" lon="1.91768">
        <ele>240.338793</ele>
        <time>2026-08-29T12:08:08Z</time>
      </trkpt>
      <trkpt lat="43.95166" lon="1.91771">
        <ele>240.399344</ele>
        <time>2026-08-29T12:08:09Z</time>
      </trkpt>
      <trkpt lat="43.95164" lon="1.91773">
        <ele>240.464988</ele>
        <time>2026-08-29T12:08:10Z</time>
      </trkpt>
      <trkpt lat="43.95162" lon="1.91776">
        <ele>240.534078</ele>
        <time>2026-08-29T12:08:11Z</time>
      </trkpt>
      <trkpt lat="43.9516" lon="1.91779">
        <ele>240.606487</ele>
        <time>2026-08-29T12:08:12Z</time>
      </trkpt>
      <trkpt lat="43.95158" lon="1.91782">
        <ele>240.676166</ele>
        <time>2026-08-29T12:08:13Z</time>
      </trkpt>
      <trkpt lat="43.95155" lon="1.91784">
        <ele>240.746408</ele>
        <time>2026-08-29T12:08:14Z</time>
      </trkpt>
      <trkpt lat="43.95153" lon="1.91786">
        <ele>240.815613</ele>
        <time>2026-08-29T12:08:15Z</time>
      </trkpt>
      <trkpt lat="43.9515" lon="1.91789">
        <ele>240.887853</ele>
        <time>2026-08-29T12:08:16Z</time>
      </trkpt>
      <trkpt lat="43.95148" lon="1.91791">
        <ele>240.95613</ele>
        <time>2026-08-29T12:08:17Z</time>
      </trkpt>
      <trkpt lat="43.95146" lon="1.91793">
        <ele>241.024379</ele>
        <time>2026-08-29T12:08:18Z</time>
      </trkpt>
      <trkpt lat="43.95143" lon="1.91796">
        <ele>241.092657</ele>
        <time>2026-08-29T12:08:19Z</time>
      </trkpt>
      <trkpt lat="43.95141" lon="1.91798">
        <ele>241.160906</ele>
        <time>2026-08-29T12:08:20Z</time>
      </trkpt>
      <trkpt lat="43.95138" lon="1.91801">
        <ele>241.235032</ele>
        <time>2026-08-29T12:08:21Z</time>
      </trkpt>
      <trkpt lat="43.95136" lon="1.91803">
        <ele>241.305415</ele>
        <time>2026-08-29T12:08:22Z</time>
      </trkpt>
      <trkpt lat="43.95134" lon="1.91806">
        <ele>241.377655</ele>
        <time>2026-08-29T12:08:23Z</time>
      </trkpt>
      <trkpt lat="43.95131" lon="1.91808">
        <ele>241.451749</ele>
        <time>2026-08-29T12:08:24Z</time>
      </trkpt>
      <trkpt lat="43.95128" lon="1.91811">
        <ele>241.528765</ele>
        <time>2026-08-29T12:08:25Z</time>
      </trkpt>
      <trkpt lat="43.95126" lon="1.91813">
        <ele>241.601928</ele>
        <time>2026-08-29T12:08:26Z</time>
      </trkpt>
      <trkpt lat="43.95123" lon="1.91815">
        <ele>241.672117</ele>
        <time>2026-08-29T12:08:27Z</time>
      </trkpt>
      <trkpt lat="43.95121" lon="1.91818">
        <ele>241.746243</ele>
        <time>2026-08-29T12:08:28Z</time>
      </trkpt>
      <trkpt lat="43.95118" lon="1.91821">
        <ele>241.821405</ele>
        <time>2026-08-29T12:08:29Z</time>
      </trkpt>
      <trkpt lat="43.95116" lon="1.91824">
        <ele>241.896906</ele>
        <time>2026-08-29T12:08:30Z</time>
      </trkpt>
      <trkpt lat="43.95113" lon="1.91826">
        <ele>241.968078</ele>
        <time>2026-08-29T12:08:31Z</time>
      </trkpt>
      <trkpt lat="43.95111" lon="1.91828">
        <ele>242.035715</ele>
        <time>2026-08-29T12:08:32Z</time>
      </trkpt>
      <trkpt lat="43.95108" lon="1.9183">
        <ele>242.10981</ele>
        <time>2026-08-29T12:08:33Z</time>
      </trkpt>
      <trkpt lat="43.95106" lon="1.91833">
        <ele>242.183935</ele>
        <time>2026-08-29T12:08:34Z</time>
      </trkpt>
      <trkpt lat="43.95103" lon="1.91836">
        <ele>242.26202</ele>
        <time>2026-08-29T12:08:35Z</time>
      </trkpt>
      <trkpt lat="43.95101" lon="1.91838">
        <ele>242.338103</ele>
        <time>2026-08-29T12:08:36Z</time>
      </trkpt>
      <trkpt lat="43.95098" lon="1.91841">
        <ele>242.418076</ele>
        <time>2026-08-29T12:08:37Z</time>
      </trkpt>
      <trkpt lat="43.95095" lon="1.91844">
        <ele>242.500141</ele>
        <time>2026-08-29T12:08:38Z</time>
      </trkpt>
      <trkpt lat="43.95092" lon="1.91847">
        <ele>242.580115</ele>
        <time>2026-08-29T12:08:39Z</time>
      </trkpt>
      <trkpt lat="43.9509" lon="1.9185">
        <ele>242.664927</ele>
        <time>2026-08-29T12:08:40Z</time>
      </trkpt>
      <trkpt lat="43.95087" lon="1.91852">
        <ele>242.747826</ele>
        <time>2026-08-29T12:08:41Z</time>
      </trkpt>
      <trkpt lat="43.95084" lon="1.91856">
        <ele>242.738343</ele>
        <time>2026-08-29T12:08:42Z</time>
      </trkpt>
      <trkpt lat="43.9508" lon="1.91859">
        <ele>242.703236</ele>
        <time>2026-08-29T12:08:43Z</time>
      </trkpt>
      <trkpt lat="43.95077" lon="1.91862">
        <ele>242.665476</ele>
        <time>2026-08-29T12:08:44Z</time>
      </trkpt>
      <trkpt lat="43.95074" lon="1.91866">
        <ele>242.627412</ele>
        <time>2026-08-29T12:08:45Z</time>
      </trkpt>
      <trkpt lat="43.9507" lon="1.91869">
        <ele>242.59011</ele>
        <time>2026-08-29T12:08:46Z</time>
      </trkpt>
      <trkpt lat="43.95067" lon="1.91873">
        <ele>242.551712</ele>
        <time>2026-08-29T12:08:47Z</time>
      </trkpt>
      <trkpt lat="43.95063" lon="1.91876">
        <ele>242.511116</ele>
        <time>2026-08-29T12:08:48Z</time>
      </trkpt>
      <trkpt lat="43.95059" lon="1.9188">
        <ele>242.47052</ele>
        <time>2026-08-29T12:08:49Z</time>
      </trkpt>
      <trkpt lat="43.95056" lon="1.91884">
        <ele>242.431024</ele>
        <time>2026-08-29T12:08:50Z</time>
      </trkpt>
      <trkpt lat="43.95052" lon="1.91887">
        <ele>242.391151</ele>
        <time>2026-08-29T12:08:51Z</time>
      </trkpt>
      <trkpt lat="43.95048" lon="1.91891">
        <ele>242.350501</ele>
        <time>2026-08-29T12:08:52Z</time>
      </trkpt>
      <trkpt lat="43.95045" lon="1.91895">
        <ele>242.311006</ele>
        <time>2026-08-29T12:08:53Z</time>
      </trkpt>
      <trkpt lat="43.95041" lon="1.91898">
        <ele>242.27041</ele>
        <time>2026-08-29T12:08:54Z</time>
      </trkpt>
      <trkpt lat="43.95037" lon="1.91902">
        <ele>242.22872</ele>
        <time>2026-08-29T12:08:55Z</time>
      </trkpt>
      <trkpt lat="43.95034" lon="1.91906">
        <ele>242.19148</ele>
        <time>2026-08-29T12:08:56Z</time>
      </trkpt>
      <trkpt lat="43.95031" lon="1.9191">
        <ele>242.156175</ele>
        <time>2026-08-29T12:08:57Z</time>
      </trkpt>
      <trkpt lat="43.95029" lon="1.91914">
        <ele>242.122735</ele>
        <time>2026-08-29T12:08:58Z</time>
      </trkpt>
      <trkpt lat="43.95027" lon="1.91919">
        <ele>242.090394</ele>
        <time>2026-08-29T12:08:59Z</time>
      </trkpt>
      <trkpt lat="43.95026" lon="1.91923">
        <ele>242.059612</ele>
        <time>2026-08-29T12:09:00Z</time>
      </trkpt>
      <trkpt lat="43.95024" lon="1.91927">
        <ele>242.029559</ele>
        <time>2026-08-29T12:09:01Z</time>
      </trkpt>
      <trkpt lat="43.95023" lon="1.91931">
        <ele>242.000254</ele>
        <time>2026-08-29T12:09:02Z</time>
      </trkpt>
      <trkpt lat="43.95022" lon="1.91935">
        <ele>241.973391</ele>
        <time>2026-08-29T12:09:03Z</time>
      </trkpt>
      <trkpt lat="43.95021" lon="1.91939">
        <ele>241.949852</ele>
        <time>2026-08-29T12:09:04Z</time>
      </trkpt>
      <trkpt lat="43.9502" lon="1.91942">
        <ele>241.923058</ele>
        <time>2026-08-29T12:09:05Z</time>
      </trkpt>
      <trkpt lat="43.95018" lon="1.91946">
        <ele>241.895469</ele>
        <time>2026-08-29T12:09:06Z</time>
      </trkpt>
      <trkpt lat="43.95016" lon="1.91949">
        <ele>241.870186</ele>
        <time>2026-08-29T12:09:07Z</time>
      </trkpt>
      <trkpt lat="43.95014" lon="1.91951">
        <ele>241.850141</ele>
        <time>2026-08-29T12:09:08Z</time>
      </trkpt>
      <trkpt lat="43.95014" lon="1.91952">
        <ele>241.841648</ele>
        <time>2026-08-29T12:09:09Z</time>
      </trkpt>
      <trkpt lat="43.95014" lon="1.91951">
        <ele>241.83652</ele>
        <time>2026-08-29T12:09:10Z</time>
      </trkpt>
      <trkpt lat="43.95014" lon="1.9195">
        <ele>241.828716</ele>
        <time>2026-08-29T12:09:11Z</time>
      </trkpt>
      <trkpt lat="43.95015" lon="1.91949">
        <ele>241.822486</ele>
        <time>2026-08-29T12:09:12Z</time>
      </trkpt>
      <trkpt lat="43.95014" lon="1.91949">
        <ele>241.820292</ele>
        <time>2026-08-29T12:09:13Z</time>
      </trkpt>
      <trkpt lat="43.9501" lon="1.91954">
        <ele>241.771865</ele>
        <time>2026-08-29T12:10:25Z</time>
      </trkpt>
      <trkpt lat="43.95009" lon="1.91956">
        <ele>241.757756</ele>
        <time>2026-08-29T12:10:26Z</time>
      </trkpt>
      <trkpt lat="43.95009" lon="1.91958">
        <ele>241.742338</ele>
        <time>2026-08-29T12:10:27Z</time>
      </trkpt>
      <trkpt lat="43.95008" lon="1.9196">
        <ele>241.727504</ele>
        <time>2026-08-29T12:10:28Z</time>
      </trkpt>
      <trkpt lat="43.95007" lon="1.91962">
        <ele>241.714951</ele>
        <time>2026-08-29T12:10:29Z</time>
      </trkpt>
      <trkpt lat="43.95007" lon="1.91964">
        <ele>241.701837</ele>
        <time>2026-08-29T12:10:30Z</time>
      </trkpt>
      <trkpt lat="43.95006" lon="1.91965">
        <ele>241.689283</ele>
        <time>2026-08-29T12:10:31Z</time>
      </trkpt>
      <trkpt lat="43.95005" lon="1.91967">
        <ele>241.677252</ele>
        <time>2026-08-29T12:10:32Z</time>
      </trkpt>
      <trkpt lat="43.95004" lon="1.91968">
        <ele>241.668759</ele>
        <time>2026-08-29T12:10:33Z</time>
      </trkpt>
      <trkpt lat="43.95004" lon="1.91968">
        <ele>241.66108</ele>
        <time>2026-08-29T12:10:34Z</time>
      </trkpt>
      <trkpt lat="43.95003" lon="1.9197">
        <ele>241.651714</ele>
        <time>2026-08-29T12:10:35Z</time>
      </trkpt>
      <trkpt lat="43.95002" lon="1.91971">
        <ele>241.641814</ele>
        <time>2026-08-29T12:10:36Z</time>
      </trkpt>
      <trkpt lat="43.95002" lon="1.91972">
        <ele>241.629261</ele>
        <time>2026-08-29T12:10:37Z</time>
      </trkpt>
      <trkpt lat="43.95001" lon="1.91974">
        <ele>241.617803</ele>
        <time>2026-08-29T12:10:38Z</time>
      </trkpt>
      <trkpt lat="43.95" lon="1.91975">
        <ele>241.606345</ele>
        <time>2026-08-29T12:10:39Z</time>
      </trkpt>
      <trkpt lat="43.94999" lon="1.91977">
        <ele>241.593231</ele>
        <time>2026-08-29T12:10:40Z</time>
      </trkpt>
      <trkpt lat="43.94999" lon="1.91978">
        <ele>241.583783</ele>
        <time>2026-08-29T12:10:41Z</time>
      </trkpt>
      <trkpt lat="43.94998" lon="1.9198">
        <ele>241.572784</ele>
        <time>2026-08-29T12:10:42Z</time>
      </trkpt>
      <trkpt lat="43.94997" lon="1.91981">
        <ele>241.56291</ele>
        <time>2026-08-29T12:10:43Z</time>
      </trkpt>
      <trkpt lat="43.94996" lon="1.91981">
        <ele>241.553801</ele>
        <time>2026-08-29T12:10:44Z</time>
      </trkpt>
      <trkpt lat="43.94996" lon="1.91981">
        <ele>241.548123</ele>
        <time>2026-08-29T12:10:45Z</time>
      </trkpt>
      <trkpt lat="43.94996" lon="1.91982">
        <ele>241.544832</ele>
        <time>2026-08-29T12:10:46Z</time>
      </trkpt>
      <trkpt lat="43.94996" lon="1.91982">
        <ele>241.540594</ele>
        <time>2026-08-29T12:10:47Z</time>
      </trkpt>
      <trkpt lat="43.94995" lon="1.9199">
        <ele>241.493025</ele>
        <time>2026-08-29T12:12:52Z</time>
      </trkpt>
      <trkpt lat="43.94994" lon="1.91992">
        <ele>241.473228</ele>
        <time>2026-08-29T12:12:53Z</time>
      </trkpt>
      <trkpt lat="43.94993" lon="1.91995">
        <ele>241.452341</ele>
        <time>2026-08-29T12:12:54Z</time>
      </trkpt>
      <trkpt lat="43.94991" lon="1.91998">
        <ele>241.429451</ele>
        <time>2026-08-29T12:12:55Z</time>
      </trkpt>
      <trkpt lat="43.9499" lon="1.92001">
        <ele>241.406536</ele>
        <time>2026-08-29T12:12:56Z</time>
      </trkpt>
      <trkpt lat="43.94988" lon="1.92004">
        <ele>241.381562</ele>
        <time>2026-08-29T12:12:57Z</time>
      </trkpt>
      <trkpt lat="43.94987" lon="1.92007">
        <ele>241.356583</ele>
        <time>2026-08-29T12:12:58Z</time>
      </trkpt>
      <trkpt lat="43.94985" lon="1.9201">
        <ele>241.330044</ele>
        <time>2026-08-29T12:12:59Z</time>
      </trkpt>
      <trkpt lat="43.94983" lon="1.92014">
        <ele>241.304515</ele>
        <time>2026-08-29T12:13:00Z</time>
      </trkpt>
      <trkpt lat="43.94981" lon="1.92017">
        <ele>241.276918</ele>
        <time>2026-08-29T12:13:01Z</time>
      </trkpt>
      <trkpt lat="43.94979" lon="1.9202">
        <ele>241.251306</ele>
        <time>2026-08-29T12:13:02Z</time>
      </trkpt>
      <trkpt lat="43.94978" lon="1.92024">
        <ele>241.224253</ele>
        <time>2026-08-29T12:13:03Z</time>
      </trkpt>
      <trkpt lat="43.94976" lon="1.92027">
        <ele>241.197718</ele>
        <time>2026-08-29T12:13:04Z</time>
      </trkpt>
      <trkpt lat="43.94974" lon="1.9203">
        <ele>241.173656</ele>
        <time>2026-08-29T12:13:05Z</time>
      </trkpt>
      <trkpt lat="43.94972" lon="1.92033">
        <ele>241.175256</ele>
        <time>2026-08-29T12:13:06Z</time>
      </trkpt>
      <trkpt lat="43.94971" lon="1.92035">
        <ele>241.192857</ele>
        <time>2026-08-29T12:13:07Z</time>
      </trkpt>
      <trkpt lat="43.94969" lon="1.92038">
        <ele>241.210799</ele>
        <time>2026-08-29T12:13:08Z</time>
      </trkpt>
      <trkpt lat="43.94968" lon="1.92041">
        <ele>241.227959</ele>
        <time>2026-08-29T12:13:09Z</time>
      </trkpt>
      <trkpt lat="43.94966" lon="1.92044">
        <ele>241.244376</ele>
        <time>2026-08-29T12:13:10Z</time>
      </trkpt>
      <trkpt lat="43.94965" lon="1.92047">
        <ele>241.259285</ele>
        <time>2026-08-29T12:13:11Z</time>
      </trkpt>
      <trkpt lat="43.94964" lon="1.92049">
        <ele>241.272963</ele>
        <time>2026-08-29T12:13:12Z</time>
      </trkpt>
      <trkpt lat="43.94963" lon="1.92051">
        <ele>241.287015</ele>
        <time>2026-08-29T12:13:13Z</time>
      </trkpt>
      <trkpt lat="43.94961" lon="1.92054">
        <ele>241.301448</ele>
        <time>2026-08-29T12:13:14Z</time>
      </trkpt>
      <trkpt lat="43.9496" lon="1.92057">
        <ele>241.31822</ele>
        <time>2026-08-29T12:13:15Z</time>
      </trkpt>
      <trkpt lat="43.94958" lon="1.92059">
        <ele>241.335399</ele>
        <time>2026-08-29T12:13:16Z</time>
      </trkpt>
      <trkpt lat="43.94957" lon="1.92062">
        <ele>241.352172</ele>
        <time>2026-08-29T12:13:17Z</time>
      </trkpt>
      <trkpt lat="43.94955" lon="1.92065">
        <ele>241.368247</ele>
        <time>2026-08-29T12:13:18Z</time>
      </trkpt>
      <trkpt lat="43.94954" lon="1.92067">
        <ele>241.383274</ele>
        <time>2026-08-29T12:13:19Z</time>
      </trkpt>
      <trkpt lat="43.94952" lon="1.92069">
        <ele>241.399712</ele>
        <time>2026-08-29T12:13:20Z</time>
      </trkpt>
      <trkpt lat="43.9495" lon="1.92072">
        <ele>241.418202</ele>
        <time>2026-08-29T12:13:21Z</time>
      </trkpt>
      <trkpt lat="43.94948" lon="1.92075">
        <ele>241.436487</ele>
        <time>2026-08-29T12:13:22Z</time>
      </trkpt>
      <trkpt lat="43.94946" lon="1.92077">
        <ele>241.453957</ele>
        <time>2026-08-29T12:13:23Z</time>
      </trkpt>
      <trkpt lat="43.94944" lon="1.9208">
        <ele>241.471288</ele>
        <time>2026-08-29T12:13:24Z</time>
      </trkpt>
      <trkpt lat="43.94942" lon="1.92081">
        <ele>241.486093</ele>
        <time>2026-08-29T12:13:25Z</time>
      </trkpt>
      <trkpt lat="43.9494" lon="1.92084">
        <ele>241.502604</ele>
        <time>2026-08-29T12:13:26Z</time>
      </trkpt>
      <trkpt lat="43.94939" lon="1.92086">
        <ele>241.518295</ele>
        <time>2026-08-29T12:13:27Z</time>
      </trkpt>
      <trkpt lat="43.94937" lon="1.92088">
        <ele>241.534745</ele>
        <time>2026-08-29T12:13:28Z</time>
      </trkpt>
      <trkpt lat="43.94935" lon="1.9209">
        <ele>241.552387</ele>
        <time>2026-08-29T12:13:29Z</time>
      </trkpt>
      <trkpt lat="43.94933" lon="1.92093">
        <ele>241.570672</ele>
        <time>2026-08-29T12:13:30Z</time>
      </trkpt>
      <trkpt lat="43.94931" lon="1.92096">
        <ele>241.590676</ele>
        <time>2026-08-29T12:13:31Z</time>
      </trkpt>
      <trkpt lat="43.94929" lon="1.92098">
        <ele>241.606681</ele>
        <time>2026-08-29T12:13:32Z</time>
      </trkpt>
      <trkpt lat="43.94927" lon="1.92101">
        <ele>241.624824</ele>
        <time>2026-08-29T12:13:33Z</time>
      </trkpt>
      <trkpt lat="43.94925" lon="1.92102">
        <ele>241.640476</ele>
        <time>2026-08-29T12:13:34Z</time>
      </trkpt>
      <trkpt lat="43.94923" lon="1.92104">
        <ele>241.655567</ele>
        <time>2026-08-29T12:13:35Z</time>
      </trkpt>
      <trkpt lat="43.94922" lon="1.92106">
        <ele>241.669618</ele>
        <time>2026-08-29T12:13:36Z</time>
      </trkpt>
      <trkpt lat="43.9492" lon="1.92108">
        <ele>241.683886</ele>
        <time>2026-08-29T12:13:37Z</time>
      </trkpt>
      <trkpt lat="43.94918" lon="1.9211">
        <ele>241.699272</ele>
        <time>2026-08-29T12:13:38Z</time>
      </trkpt>
      <trkpt lat="43.94916" lon="1.92112">
        <ele>241.714363</ele>
        <time>2026-08-29T12:13:39Z</time>
      </trkpt>
      <trkpt lat="43.94914" lon="1.92114">
        <ele>241.729749</ele>
        <time>2026-08-29T12:13:40Z</time>
      </trkpt>
      <trkpt lat="43.94913" lon="1.92116">
        <ele>241.74544</ele>
        <time>2026-08-29T12:13:41Z</time>
      </trkpt>
      <trkpt lat="43.94911" lon="1.92118">
        <ele>241.762176</ele>
        <time>2026-08-29T12:13:42Z</time>
      </trkpt>
      <trkpt lat="43.94909" lon="1.9212">
        <ele>241.780027</ele>
        <time>2026-08-29T12:13:43Z</time>
      </trkpt>
      <trkpt lat="43.94907" lon="1.92123">
        <ele>241.797358</ele>
        <time>2026-08-29T12:13:44Z</time>
      </trkpt>
      <trkpt lat="43.94904" lon="1.92125">
        <ele>241.815209</ele>
        <time>2026-08-29T12:13:45Z</time>
      </trkpt>
      <trkpt lat="43.94902" lon="1.92128">
        <ele>241.834491</ele>
        <time>2026-08-29T12:13:46Z</time>
      </trkpt>
      <trkpt lat="43.949" lon="1.92131">
        <ele>241.854736</ele>
        <time>2026-08-29T12:13:47Z</time>
      </trkpt>
      <trkpt lat="43.94898" lon="1.92133">
        <ele>241.876478</ele>
        <time>2026-08-29T12:13:48Z</time>
      </trkpt>
      <trkpt lat="43.94895" lon="1.92136">
        <ele>241.89803</ele>
        <time>2026-08-29T12:13:49Z</time>
      </trkpt>
      <trkpt lat="43.94893" lon="1.9214">
        <ele>241.920722</ele>
        <time>2026-08-29T12:13:50Z</time>
      </trkpt>
      <trkpt lat="43.9489" lon="1.92143">
        <ele>241.944416</ele>
        <time>2026-08-29T12:13:51Z</time>
      </trkpt>
      <trkpt lat="43.94887" lon="1.92146">
        <ele>241.969664</ele>
        <time>2026-08-29T12:13:52Z</time>
      </trkpt>
      <trkpt lat="43.94884" lon="1.9215">
        <ele>241.995949</ele>
        <time>2026-08-29T12:13:53Z</time>
      </trkpt>
      <trkpt lat="43.94881" lon="1.92154">
        <ele>242.022561</ele>
        <time>2026-08-29T12:13:54Z</time>
      </trkpt>
      <trkpt lat="43.94878" lon="1.92157">
        <ele>242.05107</ele>
        <time>2026-08-29T12:13:55Z</time>
      </trkpt>
      <trkpt lat="43.94875" lon="1.92161">
        <ele>242.078351</ele>
        <time>2026-08-29T12:13:56Z</time>
      </trkpt>
      <trkpt lat="43.94872" lon="1.92166">
        <ele>242.106872</ele>
        <time>2026-08-29T12:13:57Z</time>
      </trkpt>
      <trkpt lat="43.9487" lon="1.9217">
        <ele>242.135394</ele>
        <time>2026-08-29T12:13:58Z</time>
      </trkpt>
      <trkpt lat="43.94866" lon="1.92175">
        <ele>242.165114</ele>
        <time>2026-08-29T12:13:59Z</time>
      </trkpt>
      <trkpt lat="43.94863" lon="1.92179">
        <ele>242.194236</ele>
        <time>2026-08-29T12:14:00Z</time>
      </trkpt>
      <trkpt lat="43.9486" lon="1.92184">
        <ele>242.223983</ele>
        <time>2026-08-29T12:14:01Z</time>
      </trkpt>
      <trkpt lat="43.94858" lon="1.92189">
        <ele>242.25402</ele>
        <time>2026-08-29T12:14:02Z</time>
      </trkpt>
      <trkpt lat="43.94855" lon="1.92194">
        <ele>242.284133</ele>
        <time>2026-08-29T12:14:03Z</time>
      </trkpt>
      <trkpt lat="43.94852" lon="1.92198">
        <ele>242.311561</ele>
        <time>2026-08-29T12:14:04Z</time>
      </trkpt>
      <trkpt lat="43.94849" lon="1.92201">
        <ele>242.339048</ele>
        <time>2026-08-29T12:14:05Z</time>
      </trkpt>
      <trkpt lat="43.94846" lon="1.92205">
        <ele>242.3652</ele>
        <time>2026-08-29T12:14:06Z</time>
      </trkpt>
      <trkpt lat="43.94843" lon="1.92208">
        <ele>242.304926</ele>
        <time>2026-08-29T12:14:07Z</time>
      </trkpt>
      <trkpt lat="43.94839" lon="1.92211">
        <ele>242.242094</ele>
        <time>2026-08-29T12:14:08Z</time>
      </trkpt>
      <trkpt lat="43.94836" lon="1.92213">
        <ele>242.177043</ele>
        <time>2026-08-29T12:14:09Z</time>
      </trkpt>
      <trkpt lat="43.94833" lon="1.92216">
        <ele>242.116959</ele>
        <time>2026-08-29T12:14:10Z</time>
      </trkpt>
      <trkpt lat="43.94829" lon="1.92219">
        <ele>242.051908</ele>
        <time>2026-08-29T12:14:11Z</time>
      </trkpt>
      <trkpt lat="43.94826" lon="1.92221">
        <ele>241.99046</ele>
        <time>2026-08-29T12:14:12Z</time>
      </trkpt>
      <trkpt lat="43.94822" lon="1.92223">
        <ele>241.930946</ele>
        <time>2026-08-29T12:14:13Z</time>
      </trkpt>
      <trkpt lat="43.94819" lon="1.92223">
        <ele>241.873111</ele>
        <time>2026-08-29T12:14:14Z</time>
      </trkpt>
      <trkpt lat="43.94815" lon="1.92224">
        <ele>241.81289</ele>
        <time>2026-08-29T12:14:15Z</time>
      </trkpt>
      <trkpt lat="43.94812" lon="1.92223">
        <ele>241.754105</ele>
        <time>2026-08-29T12:14:16Z</time>
      </trkpt>
      <trkpt lat="43.94808" lon="1.92223">
        <ele>241.696649</ele>
        <time>2026-08-29T12:14:17Z</time>
      </trkpt>
      <trkpt lat="43.94804" lon="1.92222">
        <ele>241.635976</ele>
        <time>2026-08-29T12:14:18Z</time>
      </trkpt>
      <trkpt lat="43.94801" lon="1.92221">
        <ele>241.573956</ele>
        <time>2026-08-29T12:14:19Z</time>
      </trkpt>
      <trkpt lat="43.94797" lon="1.92221">
        <ele>241.5102</ele>
        <time>2026-08-29T12:14:20Z</time>
      </trkpt>
      <trkpt lat="43.94792" lon="1.9222">
        <ele>241.440088</ele>
        <time>2026-08-29T12:14:21Z</time>
      </trkpt>
      <trkpt lat="43.94788" lon="1.9222">
        <ele>241.371836</ele>
        <time>2026-08-29T12:14:22Z</time>
      </trkpt>
      <trkpt lat="43.94784" lon="1.9222">
        <ele>241.301968</ele>
        <time>2026-08-29T12:14:23Z</time>
      </trkpt>
      <trkpt lat="43.94779" lon="1.9222">
        <ele>241.230237</ele>
        <time>2026-08-29T12:14:24Z</time>
      </trkpt>
      <trkpt lat="43.94775" lon="1.92219">
        <ele>241.155267</ele>
        <time>2026-08-29T12:14:25Z</time>
      </trkpt>
      <trkpt lat="43.9477" lon="1.92219">
        <ele>241.082066</ele>
        <time>2026-08-29T12:14:26Z</time>
      </trkpt>
      <trkpt lat="43.94766" lon="1.92218">
        <ele>241.007095</ele>
        <time>2026-08-29T12:14:27Z</time>
      </trkpt>
      <trkpt lat="43.94761" lon="1.92218">
        <ele>240.933382</ele>
        <time>2026-08-29T12:14:28Z</time>
      </trkpt>
      <trkpt lat="43.94757" lon="1.92217">
        <ele>240.857902</ele>
        <time>2026-08-29T12:14:29Z</time>
      </trkpt>
      <trkpt lat="43.94752" lon="1.92216">
        <ele>240.781455</ele>
        <time>2026-08-29T12:14:30Z</time>
      </trkpt>
      <trkpt lat="43.94747" lon="1.92217">
        <ele>240.705052</ele>
        <time>2026-08-29T12:14:31Z</time>
      </trkpt>
      <trkpt lat="43.94743" lon="1.92217">
        <ele>240.631786</ele>
        <time>2026-08-29T12:14:32Z</time>
      </trkpt>
      <trkpt lat="43.94738" lon="1.92218">
        <ele>240.559826</ele>
        <time>2026-08-29T12:14:33Z</time>
      </trkpt>
      <trkpt lat="43.94734" lon="1.92219">
        <ele>240.489959</ele>
        <time>2026-08-29T12:14:34Z</time>
      </trkpt>
      <trkpt lat="43.9473" lon="1.92221">
        <ele>240.421271</ele>
        <time>2026-08-29T12:14:35Z</time>
      </trkpt>
      <trkpt lat="43.94727" lon="1.92223">
        <ele>240.359489</ele>
        <time>2026-08-29T12:14:36Z</time>
      </trkpt>
      <trkpt lat="43.94723" lon="1.92225">
        <ele>240.30116</ele>
        <time>2026-08-29T12:14:37Z</time>
      </trkpt>
      <trkpt lat="43.9472" lon="1.92226">
        <ele>240.243861</ele>
        <time>2026-08-29T12:14:38Z</time>
      </trkpt>
      <trkpt lat="43.94716" lon="1.92227">
        <ele>240.186862</ele>
        <time>2026-08-29T12:14:39Z</time>
      </trkpt>
      <trkpt lat="43.94713" lon="1.92229">
        <ele>240.133288</ele>
        <time>2026-08-29T12:14:40Z</time>
      </trkpt>
      <trkpt lat="43.9471" lon="1.92231">
        <ele>240.078703</ele>
        <time>2026-08-29T12:14:41Z</time>
      </trkpt>
      <trkpt lat="43.94708" lon="1.92234">
        <ele>240.023977</ele>
        <time>2026-08-29T12:14:42Z</time>
      </trkpt>
      <trkpt lat="43.94705" lon="1.92236">
        <ele>239.970594</ele>
        <time>2026-08-29T12:14:43Z</time>
      </trkpt>
      <trkpt lat="43.94702" lon="1.92238">
        <ele>239.916525</ele>
        <time>2026-08-29T12:14:44Z</time>
      </trkpt>
      <trkpt lat="43.94699" lon="1.9224">
        <ele>239.86431</ele>
        <time>2026-08-29T12:14:45Z</time>
      </trkpt>
      <trkpt lat="43.94696" lon="1.92241">
        <ele>239.812503</ele>
        <time>2026-08-29T12:14:46Z</time>
      </trkpt>
      <trkpt lat="43.94693" lon="1.92243">
        <ele>239.759165</ele>
        <time>2026-08-29T12:14:47Z</time>
      </trkpt>
      <trkpt lat="43.9469" lon="1.92245">
        <ele>239.706066</ele>
        <time>2026-08-29T12:14:48Z</time>
      </trkpt>
      <trkpt lat="43.94687" lon="1.92247">
        <ele>239.65321</ele>
        <time>2026-08-29T12:14:49Z</time>
      </trkpt>
      <trkpt lat="43.94684" lon="1.92249">
        <ele>239.602576</ele>
        <time>2026-08-29T12:14:50Z</time>
      </trkpt>
      <trkpt lat="43.94682" lon="1.92251">
        <ele>239.556822</ele>
        <time>2026-08-29T12:14:51Z</time>
      </trkpt>
      <trkpt lat="43.94679" lon="1.92253">
        <ele>239.507952</ele>
        <time>2026-08-29T12:14:52Z</time>
      </trkpt>
      <trkpt lat="43.94677" lon="1.92255">
        <ele>239.463067</ele>
        <time>2026-08-29T12:14:53Z</time>
      </trkpt>
      <trkpt lat="43.94674" lon="1.92257">
        <ele>239.389524</ele>
        <time>2026-08-29T12:14:54Z</time>
      </trkpt>
      <trkpt lat="43.94672" lon="1.9226">
        <ele>239.295026</ele>
        <time>2026-08-29T12:14:55Z</time>
      </trkpt>
      <trkpt lat="43.94669" lon="1.92263">
        <ele>239.20591</ele>
        <time>2026-08-29T12:14:56Z</time>
      </trkpt>
      <trkpt lat="43.94667" lon="1.92265">
        <ele>239.120453</ele>
        <time>2026-08-29T12:14:57Z</time>
      </trkpt>
      <trkpt lat="43.94665" lon="1.92267">
        <ele>239.038656</ele>
        <time>2026-08-29T12:14:58Z</time>
      </trkpt>
      <trkpt lat="43.94663" lon="1.9227">
        <ele>238.956859</ele>
        <time>2026-08-29T12:14:59Z</time>
      </trkpt>
      <trkpt lat="43.9466" lon="1.92272">
        <ele>238.867743</ele>
        <time>2026-08-29T12:15:00Z</time>
      </trkpt>
      <trkpt lat="43.94658" lon="1.92275">
        <ele>238.783304</ele>
        <time>2026-08-29T12:15:01Z</time>
      </trkpt>
      <trkpt lat="43.94656" lon="1.92277">
        <ele>238.697847</ele>
        <time>2026-08-29T12:15:02Z</time>
      </trkpt>
      <trkpt lat="43.94653" lon="1.92279">
        <ele>238.60757</ele>
        <time>2026-08-29T12:15:03Z</time>
      </trkpt>
      <trkpt lat="43.94652" lon="1.92282">
        <ele>238.522393</ele>
        <time>2026-08-29T12:15:04Z</time>
      </trkpt>
      <trkpt lat="43.9465" lon="1.92286">
        <ele>238.435322</ele>
        <time>2026-08-29T12:15:05Z</time>
      </trkpt>
      <trkpt lat="43.94648" lon="1.92289">
        <ele>238.346295</ele>
        <time>2026-08-29T12:15:06Z</time>
      </trkpt>
      <trkpt lat="43.94645" lon="1.92292">
        <ele>238.250106</ele>
        <time>2026-08-29T12:15:07Z</time>
      </trkpt>
      <trkpt lat="43.94643" lon="1.92295">
        <ele>238.15907</ele>
        <time>2026-08-29T12:15:08Z</time>
      </trkpt>
      <trkpt lat="43.94641" lon="1.92298">
        <ele>238.06844</ele>
        <time>2026-08-29T12:15:09Z</time>
      </trkpt>
      <trkpt lat="43.9464" lon="1.92301">
        <ele>237.983264</ele>
        <time>2026-08-29T12:15:10Z</time>
      </trkpt>
      <trkpt lat="43.94638" lon="1.92304">
        <ele>237.897809</ele>
        <time>2026-08-29T12:15:11Z</time>
      </trkpt>
      <trkpt lat="43.94636" lon="1.92307">
        <ele>237.80984</ele>
        <time>2026-08-29T12:15:12Z</time>
      </trkpt>
      <trkpt lat="43.94634" lon="1.9231">
        <ele>237.733127</ele>
        <time>2026-08-29T12:15:13Z</time>
      </trkpt>
      <trkpt lat="43.94633" lon="1.92312">
        <ele>237.687996</ele>
        <time>2026-08-29T12:15:14Z</time>
      </trkpt>
      <trkpt lat="43.94633" lon="1.92312">
        <ele>237.679252</ele>
        <time>2026-08-29T12:15:15Z</time>
      </trkpt>
      <trkpt lat="43.94633" lon="1.92312">
        <ele>237.672181</ele>
        <time>2026-08-29T12:15:16Z</time>
      </trkpt>
      <trkpt lat="43.94631" lon="1.92316">
        <ele>237.567261</ele>
        <time>2026-08-29T12:15:43Z</time>
      </trkpt>
      <trkpt lat="43.9463" lon="1.92319">
        <ele>237.497791</ele>
        <time>2026-08-29T12:15:44Z</time>
      </trkpt>
      <trkpt lat="43.94628" lon="1.92321">
        <ele>237.421337</ele>
        <time>2026-08-29T12:15:45Z</time>
      </trkpt>
      <trkpt lat="43.94627" lon="1.92324">
        <ele>237.341354</ele>
        <time>2026-08-29T12:15:46Z</time>
      </trkpt>
      <trkpt lat="43.94625" lon="1.92327">
        <ele>237.261504</ele>
        <time>2026-08-29T12:15:47Z</time>
      </trkpt>
      <trkpt lat="43.94623" lon="1.92331">
        <ele>237.174719</ele>
        <time>2026-08-29T12:15:48Z</time>
      </trkpt>
      <trkpt lat="43.94621" lon="1.92334">
        <ele>237.078909</ele>
        <time>2026-08-29T12:15:49Z</time>
      </trkpt>
      <trkpt lat="43.94619" lon="1.92337">
        <ele>236.974971</ele>
        <time>2026-08-29T12:15:50Z</time>
      </trkpt>
      <trkpt lat="43.94616" lon="1.92341">
        <ele>236.861292</ele>
        <time>2026-08-29T12:15:51Z</time>
      </trkpt>
      <trkpt lat="43.94613" lon="1.92345">
        <ele>236.746485</ele>
        <time>2026-08-29T12:15:52Z</time>
      </trkpt>
      <trkpt lat="43.9461" lon="1.92349">
        <ele>236.62295</ele>
        <time>2026-08-29T12:15:53Z</time>
      </trkpt>
      <trkpt lat="43.94608" lon="1.92353">
        <ele>236.510277</ele>
        <time>2026-08-29T12:15:54Z</time>
      </trkpt>
      <trkpt lat="43.94605" lon="1.92356">
        <ele>236.39547</ele>
        <time>2026-08-29T12:15:55Z</time>
      </trkpt>
      <trkpt lat="43.94602" lon="1.9236">
        <ele>236.284288</ele>
        <time>2026-08-29T12:15:56Z</time>
      </trkpt>
      <trkpt lat="43.94599" lon="1.92363">
        <ele>236.178207</ele>
        <time>2026-08-29T12:15:57Z</time>
      </trkpt>
      <trkpt lat="43.94597" lon="1.92367">
        <ele>236.072769</ele>
        <time>2026-08-29T12:15:58Z</time>
      </trkpt>
      <trkpt lat="43.94594" lon="1.9237">
        <ele>235.961693</ele>
        <time>2026-08-29T12:15:59Z</time>
      </trkpt>
      <trkpt lat="43.94591" lon="1.92373">
        <ele>235.847007</ele>
        <time>2026-08-29T12:16:00Z</time>
      </trkpt>
      <trkpt lat="43.94587" lon="1.92375">
        <ele>235.728076</ele>
        <time>2026-08-29T12:16:01Z</time>
      </trkpt>
      <trkpt lat="43.94583" lon="1.92378">
        <ele>235.603033</ele>
        <time>2026-08-29T12:16:02Z</time>
      </trkpt>
      <trkpt lat="43.94579" lon="1.9238">
        <ele>235.467632</ele>
        <time>2026-08-29T12:16:03Z</time>
      </trkpt>
      <trkpt lat="43.94574" lon="1.92381">
        <ele>235.323117</ele>
        <time>2026-08-29T12:16:04Z</time>
      </trkpt>
      <trkpt lat="43.94569" lon="1.92382">
        <ele>235.169088</ele>
        <time>2026-08-29T12:16:05Z</time>
      </trkpt>
      <trkpt lat="43.94564" lon="1.92384">
        <ele>235.007009</ele>
        <time>2026-08-29T12:16:06Z</time>
      </trkpt>
      <trkpt lat="43.94558" lon="1.92385">
        <ele>234.837026</ele>
        <time>2026-08-29T12:16:07Z</time>
      </trkpt>
      <trkpt lat="43.94552" lon="1.92387">
        <ele>234.656618</ele>
        <time>2026-08-29T12:16:08Z</time>
      </trkpt>
      <trkpt lat="43.94546" lon="1.92389">
        <ele>234.45885</ele>
        <time>2026-08-29T12:16:09Z</time>
      </trkpt>
      <trkpt lat="43.94539" lon="1.9239">
        <ele>234.250681</ele>
        <time>2026-08-29T12:16:10Z</time>
      </trkpt>
      <trkpt lat="43.94532" lon="1.92393">
        <ele>234.001108</ele>
        <time>2026-08-29T12:16:11Z</time>
      </trkpt>
      <trkpt lat="43.94525" lon="1.92396">
        <ele>233.674522</ele>
        <time>2026-08-29T12:16:12Z</time>
      </trkpt>
      <trkpt lat="43.94518" lon="1.92399">
        <ele>233.325886</ele>
        <time>2026-08-29T12:16:13Z</time>
      </trkpt>
      <trkpt lat="43.94511" lon="1.92402">
        <ele>232.950742</ele>
        <time>2026-08-29T12:16:14Z</time>
      </trkpt>
      <trkpt lat="43.94503" lon="1.92405">
        <ele>232.570623</ele>
        <time>2026-08-29T12:16:15Z</time>
      </trkpt>
      <trkpt lat="43.94496" lon="1.92409">
        <ele>232.194106</ele>
        <time>2026-08-29T12:16:16Z</time>
      </trkpt>
      <trkpt lat="43.94489" lon="1.92412">
        <ele>231.828774</ele>
        <time>2026-08-29T12:16:17Z</time>
      </trkpt>
      <trkpt lat="43.94482" lon="1.92414">
        <ele>231.486569</ele>
        <time>2026-08-29T12:16:18Z</time>
      </trkpt>
      <trkpt lat="43.94476" lon="1.92416">
        <ele>231.203572</ele>
        <time>2026-08-29T12:16:19Z</time>
      </trkpt>
      <trkpt lat="43.94472" lon="1.92418">
        <ele>231.002831</ele>
        <time>2026-08-29T12:16:20Z</time>
      </trkpt>
      <trkpt lat="43.94469" lon="1.9242">
        <ele>230.857533</ele>
        <time>2026-08-29T12:16:21Z</time>
      </trkpt>
      <trkpt lat="43.94468" lon="1.92423">
        <ele>230.731333</ele>
        <time>2026-08-29T12:16:22Z</time>
      </trkpt>
      <trkpt lat="43.94466" lon="1.92425">
        <ele>230.624607</ele>
        <time>2026-08-29T12:16:23Z</time>
      </trkpt>
      <trkpt lat="43.94466" lon="1.92427">
        <ele>230.55471</ele>
        <time>2026-08-29T12:16:24Z</time>
      </trkpt>
      <trkpt lat="43.94465" lon="1.9243">
        <ele>230.455555</ele>
        <time>2026-08-29T12:16:25Z</time>
      </trkpt>
      <trkpt lat="43.94463" lon="1.92432">
        <ele>230.313528</ele>
        <time>2026-08-29T12:16:26Z</time>
      </trkpt>
      <trkpt lat="43.9446" lon="1.92433">
        <ele>230.168315</ele>
        <time>2026-08-29T12:16:27Z</time>
      </trkpt>
      <trkpt lat="43.94457" lon="1.92435">
        <ele>230.023979</ele>
        <time>2026-08-29T12:16:28Z</time>
      </trkpt>
      <trkpt lat="43.94455" lon="1.92437">
        <ele>229.89347</ele>
        <time>2026-08-29T12:16:29Z</time>
      </trkpt>
      <trkpt lat="43.94455" lon="1.92441">
        <ele>229.779345</ele>
        <time>2026-08-29T12:16:30Z</time>
      </trkpt>
      <trkpt lat="43.94455" lon="1.92443">
        <ele>229.684949</ele>
        <time>2026-08-29T12:16:31Z</time>
      </trkpt>
      <trkpt lat="43.94457" lon="1.92445">
        <ele>229.585164</ele>
        <time>2026-08-29T12:16:32Z</time>
      </trkpt>
      <trkpt lat="43.94458" lon="1.92447">
        <ele>229.480448</ele>
        <time>2026-08-29T12:16:33Z</time>
      </trkpt>
      <trkpt lat="43.9446" lon="1.92449">
        <ele>229.379712</ele>
        <time>2026-08-29T12:16:34Z</time>
      </trkpt>
      <trkpt lat="43.94462" lon="1.92451">
        <ele>229.26343</ele>
        <time>2026-08-29T12:16:35Z</time>
      </trkpt>
      <trkpt lat="43.94464" lon="1.92453">
        <ele>229.139108</ele>
        <time>2026-08-29T12:16:36Z</time>
      </trkpt>
      <trkpt lat="43.94466" lon="1.92455">
        <ele>229.018156</ele>
        <time>2026-08-29T12:16:37Z</time>
      </trkpt>
      <trkpt lat="43.94468" lon="1.92457">
        <ele>228.906649</ele>
        <time>2026-08-29T12:16:38Z</time>
      </trkpt>
      <trkpt lat="43.9447" lon="1.92459">
        <ele>228.805628</ele>
        <time>2026-08-29T12:16:39Z</time>
      </trkpt>
      <trkpt lat="43.94471" lon="1.92461">
        <ele>228.700912</ele>
        <time>2026-08-29T12:16:40Z</time>
      </trkpt>
      <trkpt lat="43.94473" lon="1.92463">
        <ele>228.588558</ele>
        <time>2026-08-29T12:16:41Z</time>
      </trkpt>
      <trkpt lat="43.94475" lon="1.92464">
        <ele>228.477797</ele>
        <time>2026-08-29T12:16:42Z</time>
      </trkpt>
      <trkpt lat="43.94477" lon="1.92466">
        <ele>228.374581</ele>
        <time>2026-08-29T12:16:43Z</time>
      </trkpt>
      <trkpt lat="43.94479" lon="1.92468">
        <ele>228.260173</ele>
        <time>2026-08-29T12:16:44Z</time>
      </trkpt>
      <trkpt lat="43.94481" lon="1.9247">
        <ele>228.145766</ele>
        <time>2026-08-29T12:16:45Z</time>
      </trkpt>
      <trkpt lat="43.94482" lon="1.92472">
        <ele>228.037721</ele>
        <time>2026-08-29T12:16:46Z</time>
      </trkpt>
      <trkpt lat="43.94484" lon="1.92474">
        <ele>227.929675</ele>
        <time>2026-08-29T12:16:47Z</time>
      </trkpt>
      <trkpt lat="43.94486" lon="1.92476">
        <ele>227.830864</ele>
        <time>2026-08-29T12:16:48Z</time>
      </trkpt>
      <trkpt lat="43.94487" lon="1.92478">
        <ele>227.749758</ele>
        <time>2026-08-29T12:16:49Z</time>
      </trkpt>
      <trkpt lat="43.94488" lon="1.9248">
        <ele>227.650871</ele>
        <time>2026-08-29T12:16:50Z</time>
      </trkpt>
      <trkpt lat="43.9449" lon="1.92482">
        <ele>227.547099</ele>
        <time>2026-08-29T12:16:51Z</time>
      </trkpt>
      <trkpt lat="43.94491" lon="1.92484">
        <ele>227.446067</ele>
        <time>2026-08-29T12:16:52Z</time>
      </trkpt>
      <trkpt lat="43.94492" lon="1.92486">
        <ele>227.361306</ele>
        <time>2026-08-29T12:16:53Z</time>
      </trkpt>
      <trkpt lat="43.94494" lon="1.92488">
        <ele>227.269754</ele>
        <time>2026-08-29T12:16:54Z</time>
      </trkpt>
      <trkpt lat="43.94495" lon="1.92489">
        <ele>227.183027</ele>
        <time>2026-08-29T12:16:55Z</time>
      </trkpt>
      <trkpt lat="43.94496" lon="1.92491">
        <ele>227.105552</ele>
        <time>2026-08-29T12:16:56Z</time>
      </trkpt>
      <trkpt lat="43.94498" lon="1.92492">
        <ele>227.021353</ele>
        <time>2026-08-29T12:16:57Z</time>
      </trkpt>
      <trkpt lat="43.945" lon="1.92494">
        <ele>226.901035</ele>
        <time>2026-08-29T12:16:58Z</time>
      </trkpt>
      <trkpt lat="43.94502" lon="1.92495">
        <ele>226.807905</ele>
        <time>2026-08-29T12:16:59Z</time>
      </trkpt>
      <trkpt lat="43.94504" lon="1.92496">
        <ele>226.703354</ele>
        <time>2026-08-29T12:17:00Z</time>
      </trkpt>
      <trkpt lat="43.94506" lon="1.92498">
        <ele>226.58841</ele>
        <time>2026-08-29T12:17:01Z</time>
      </trkpt>
      <trkpt lat="43.94508" lon="1.925">
        <ele>226.461719</ele>
        <time>2026-08-29T12:17:02Z</time>
      </trkpt>
      <trkpt lat="43.9451" lon="1.92502">
        <ele>226.336688</ele>
        <time>2026-08-29T12:17:03Z</time>
      </trkpt>
      <trkpt lat="43.94512" lon="1.92504">
        <ele>226.210507</ele>
        <time>2026-08-29T12:17:04Z</time>
      </trkpt>
      <trkpt lat="43.94515" lon="1.92505">
        <ele>226.091333</ele>
        <time>2026-08-29T12:17:05Z</time>
      </trkpt>
      <trkpt lat="43.94517" lon="1.92507">
        <ele>225.982256</ele>
        <time>2026-08-29T12:17:06Z</time>
      </trkpt>
      <trkpt lat="43.94518" lon="1.92508">
        <ele>225.877796</ele>
        <time>2026-08-29T12:17:07Z</time>
      </trkpt>
      <trkpt lat="43.9452" lon="1.9251">
        <ele>225.771828</ele>
        <time>2026-08-29T12:17:08Z</time>
      </trkpt>
      <trkpt lat="43.94522" lon="1.92511">
        <ele>225.67328</ele>
        <time>2026-08-29T12:17:09Z</time>
      </trkpt>
      <trkpt lat="43.94524" lon="1.92513">
        <ele>225.549834</ele>
        <time>2026-08-29T12:17:10Z</time>
      </trkpt>
      <trkpt lat="43.94526" lon="1.92515">
        <ele>225.435258</ele>
        <time>2026-08-29T12:17:11Z</time>
      </trkpt>
      <trkpt lat="43.94528" lon="1.92516">
        <ele>225.299426</ele>
        <time>2026-08-29T12:17:12Z</time>
      </trkpt>
      <trkpt lat="43.9453" lon="1.92518">
        <ele>225.156823</ele>
        <time>2026-08-29T12:17:13Z</time>
      </trkpt>
      <trkpt lat="43.94532" lon="1.9252">
        <ele>225.026058</ele>
        <time>2026-08-29T12:17:14Z</time>
      </trkpt>
      <trkpt lat="43.94534" lon="1.92521">
        <ele>224.895292</ele>
        <time>2026-08-29T12:17:15Z</time>
      </trkpt>
      <trkpt lat="43.94536" lon="1.92523">
        <ele>224.776763</ele>
        <time>2026-08-29T12:17:16Z</time>
      </trkpt>
      <trkpt lat="43.94538" lon="1.92524">
        <ele>224.653481</ele>
        <time>2026-08-29T12:17:17Z</time>
      </trkpt>
      <trkpt lat="43.94539" lon="1.92526">
        <ele>224.537451</ele>
        <time>2026-08-29T12:17:18Z</time>
      </trkpt>
      <trkpt lat="43.94541" lon="1.92528">
        <ele>224.426144</ele>
        <time>2026-08-29T12:17:19Z</time>
      </trkpt>
      <trkpt lat="43.94542" lon="1.92529">
        <ele>224.314854</ele>
        <time>2026-08-29T12:17:20Z</time>
      </trkpt>
      <trkpt lat="43.94544" lon="1.92531">
        <ele>224.201248</ele>
        <time>2026-08-29T12:17:21Z</time>
      </trkpt>
      <trkpt lat="43.94545" lon="1.92532">
        <ele>224.092157</ele>
        <time>2026-08-29T12:17:22Z</time>
      </trkpt>
      <trkpt lat="43.94547" lon="1.92533">
        <ele>223.983066</ele>
        <time>2026-08-29T12:17:23Z</time>
      </trkpt>
      <trkpt lat="43.94549" lon="1.92535">
        <ele>223.850054</ele>
        <time>2026-08-29T12:17:24Z</time>
      </trkpt>
      <trkpt lat="43.94551" lon="1.92536">
        <ele>223.714222</ele>
        <time>2026-08-29T12:17:25Z</time>
      </trkpt>
      <trkpt lat="43.94553" lon="1.92538">
        <ele>223.571174</ele>
        <time>2026-08-29T12:17:26Z</time>
      </trkpt>
      <trkpt lat="43.94555" lon="1.9254">
        <ele>223.450319</ele>
        <time>2026-08-29T12:17:27Z</time>
      </trkpt>
      <trkpt lat="43.94556" lon="1.92541">
        <ele>223.336713</ele>
        <time>2026-08-29T12:17:28Z</time>
      </trkpt>
      <trkpt lat="43.94558" lon="1.92542">
        <ele>223.244851</ele>
        <time>2026-08-29T12:17:29Z</time>
      </trkpt>
      <trkpt lat="43.94559" lon="1.92544">
        <ele>223.148032</ele>
        <time>2026-08-29T12:17:30Z</time>
      </trkpt>
      <trkpt lat="43.94561" lon="1.92545">
        <ele>223.032002</ele>
        <time>2026-08-29T12:17:31Z</time>
      </trkpt>
      <trkpt lat="43.94562" lon="1.92547">
        <ele>222.908721</ele>
        <time>2026-08-29T12:17:32Z</time>
      </trkpt>
      <trkpt lat="43.94564" lon="1.92549">
        <ele>222.775667</ele>
        <time>2026-08-29T12:17:33Z</time>
      </trkpt>
      <trkpt lat="43.94567" lon="1.9255">
        <ele>222.620782</ele>
        <time>2026-08-29T12:17:34Z</time>
      </trkpt>
      <trkpt lat="43.94569" lon="1.92552">
        <ele>222.473229</ele>
        <time>2026-08-29T12:17:35Z</time>
      </trkpt>
      <trkpt lat="43.94572" lon="1.92554">
        <ele>222.282655</ele>
        <time>2026-08-29T12:17:36Z</time>
      </trkpt>
      <trkpt lat="43.94574" lon="1.92555">
        <ele>222.107519</ele>
        <time>2026-08-29T12:17:37Z</time>
      </trkpt>
      <trkpt lat="43.94578" lon="1.92557">
        <ele>221.915677</ele>
        <time>2026-08-29T12:17:38Z</time>
      </trkpt>
      <trkpt lat="43.94581" lon="1.92559">
        <ele>221.704714</ele>
        <time>2026-08-29T12:17:39Z</time>
      </trkpt>
      <trkpt lat="43.94584" lon="1.92562">
        <ele>221.477132</ele>
        <time>2026-08-29T12:17:40Z</time>
      </trkpt>
      <trkpt lat="43.94587" lon="1.92565">
        <ele>221.244508</ele>
        <time>2026-08-29T12:17:41Z</time>
      </trkpt>
      <trkpt lat="43.94591" lon="1.92568">
        <ele>221.010048</ele>
        <time>2026-08-29T12:17:42Z</time>
      </trkpt>
      <trkpt lat="43.94594" lon="1.9257">
        <ele>220.799667</ele>
        <time>2026-08-29T12:17:43Z</time>
      </trkpt>
      <trkpt lat="43.94597" lon="1.92573">
        <ele>220.589286</ele>
        <time>2026-08-29T12:17:44Z</time>
      </trkpt>
      <trkpt lat="43.946" lon="1.92575">
        <ele>220.392752</ele>
        <time>2026-08-29T12:17:45Z</time>
      </trkpt>
      <trkpt lat="43.94603" lon="1.92578">
        <ele>220.165541</ele>
        <time>2026-08-29T12:17:46Z</time>
      </trkpt>
      <trkpt lat="43.94606" lon="1.92582">
        <ele>219.938232</ele>
        <time>2026-08-29T12:17:47Z</time>
      </trkpt>
      <trkpt lat="43.94609" lon="1.92584">
        <ele>219.714951</ele>
        <time>2026-08-29T12:17:48Z</time>
      </trkpt>
      <trkpt lat="43.94613" lon="1.92586">
        <ele>219.494938</ele>
        <time>2026-08-29T12:17:49Z</time>
      </trkpt>
      <trkpt lat="43.94616" lon="1.92585">
        <ele>219.312302</ele>
        <time>2026-08-29T12:17:50Z</time>
      </trkpt>
      <trkpt lat="43.94619" lon="1.92585">
        <ele>219.149828</ele>
        <time>2026-08-29T12:17:51Z</time>
      </trkpt>
      <trkpt lat="43.94621" lon="1.92583">
        <ele>218.986012</ele>
        <time>2026-08-29T12:17:52Z</time>
      </trkpt>
      <trkpt lat="43.94623" lon="1.92581">
        <ele>218.84571</ele>
        <time>2026-08-29T12:17:53Z</time>
      </trkpt>
      <trkpt lat="43.94625" lon="1.9258">
        <ele>218.708622</ele>
        <time>2026-08-29T12:17:54Z</time>
      </trkpt>
      <trkpt lat="43.94627" lon="1.92578">
        <ele>218.561125</ele>
        <time>2026-08-29T12:17:55Z</time>
      </trkpt>
      <trkpt lat="43.94629" lon="1.92576">
        <ele>218.410857</ele>
        <time>2026-08-29T12:17:56Z</time>
      </trkpt>
      <trkpt lat="43.94631" lon="1.92574">
        <ele>218.263305</ele>
        <time>2026-08-29T12:17:57Z</time>
      </trkpt>
      <trkpt lat="43.94634" lon="1.92572">
        <ele>218.09637</ele>
        <time>2026-08-29T12:17:58Z</time>
      </trkpt>
      <trkpt lat="43.94636" lon="1.9257">
        <ele>217.946102</ele>
        <time>2026-08-29T12:17:59Z</time>
      </trkpt>
      <trkpt lat="43.94638" lon="1.92568">
        <ele>217.779167</ele>
        <time>2026-08-29T12:18:00Z</time>
      </trkpt>
      <trkpt lat="43.94641" lon="1.92566">
        <ele>217.61718</ele>
        <time>2026-08-29T12:18:01Z</time>
      </trkpt>
      <trkpt lat="43.94643" lon="1.92564">
        <ele>217.479396</ele>
        <time>2026-08-29T12:18:02Z</time>
      </trkpt>
      <trkpt lat="43.94645" lon="1.92562">
        <ele>217.343564</ele>
        <time>2026-08-29T12:18:03Z</time>
      </trkpt>
      <trkpt lat="43.94647" lon="1.92561">
        <ele>217.19831</ele>
        <time>2026-08-29T12:18:04Z</time>
      </trkpt>
      <trkpt lat="43.94649" lon="1.92562">
        <ele>217.061304</ele>
        <time>2026-08-29T12:18:05Z</time>
      </trkpt>
      <trkpt lat="43.94651" lon="1.92563">
        <ele>216.918889</ele>
        <time>2026-08-29T12:18:06Z</time>
      </trkpt>
      <trkpt lat="43.94654" lon="1.92565">
        <ele>216.751954</ele>
        <time>2026-08-29T12:18:07Z</time>
      </trkpt>
      <trkpt lat="43.94657" lon="1.92568">
        <ele>216.543847</ele>
        <time>2026-08-29T12:18:08Z</time>
      </trkpt>
      <trkpt lat="43.9466" lon="1.9257">
        <ele>216.315976</ele>
        <time>2026-08-29T12:18:09Z</time>
      </trkpt>
      <trkpt lat="43.94664" lon="1.92572">
        <ele>216.085255</ele>
        <time>2026-08-29T12:18:10Z</time>
      </trkpt>
      <trkpt lat="43.94668" lon="1.92573">
        <ele>215.858392</ele>
        <time>2026-08-29T12:18:11Z</time>
      </trkpt>
      <trkpt lat="43.94672" lon="1.92572">
        <ele>215.621126</ele>
        <time>2026-08-29T12:18:12Z</time>
      </trkpt>
      <trkpt lat="43.94675" lon="1.92571">
        <ele>215.405065</ele>
        <time>2026-08-29T12:18:13Z</time>
      </trkpt>
      <trkpt lat="43.94679" lon="1.9257">
        <ele>215.21777</ele>
        <time>2026-08-29T12:18:14Z</time>
      </trkpt>
      <trkpt lat="43.94681" lon="1.92568">
        <ele>215.063029</ele>
        <time>2026-08-29T12:18:15Z</time>
      </trkpt>
      <trkpt lat="43.94683" lon="1.92567">
        <ele>214.929263</ele>
        <time>2026-08-29T12:18:16Z</time>
      </trkpt>
      <trkpt lat="43.94685" lon="1.92566">
        <ele>214.71218</ele>
        <time>2026-08-29T12:18:17Z</time>
      </trkpt>
      <trkpt lat="43.94687" lon="1.92566">
        <ele>214.397839</ele>
        <time>2026-08-29T12:18:18Z</time>
      </trkpt>
      <trkpt lat="43.9469" lon="1.92567">
        <ele>214.106508</ele>
        <time>2026-08-29T12:18:19Z</time>
      </trkpt>
      <trkpt lat="43.94692" lon="1.92568">
        <ele>213.794065</ele>
        <time>2026-08-29T12:18:20Z</time>
      </trkpt>
      <trkpt lat="43.94695" lon="1.92569">
        <ele>213.434906</ele>
        <time>2026-08-29T12:18:21Z</time>
      </trkpt>
      <trkpt lat="43.94698" lon="1.9257">
        <ele>213.042719</ele>
        <time>2026-08-29T12:18:22Z</time>
      </trkpt>
      <trkpt lat="43.947" lon="1.92572">
        <ele>212.670131</ele>
        <time>2026-08-29T12:18:23Z</time>
      </trkpt>
      <trkpt lat="43.94703" lon="1.92574">
        <ele>212.286062</ele>
        <time>2026-08-29T12:18:24Z</time>
      </trkpt>
      <trkpt lat="43.94706" lon="1.92575">
        <ele>211.929764</ele>
        <time>2026-08-29T12:18:25Z</time>
      </trkpt>
      <trkpt lat="43.94709" lon="1.92576">
        <ele>211.561476</ele>
        <time>2026-08-29T12:18:26Z</time>
      </trkpt>
      <trkpt lat="43.94712" lon="1.92578">
        <ele>211.157581</ele>
        <time>2026-08-29T12:18:27Z</time>
      </trkpt>
      <trkpt lat="43.94715" lon="1.92579">
        <ele>210.765394</ele>
        <time>2026-08-29T12:18:28Z</time>
      </trkpt>
      <trkpt lat="43.94718" lon="1.92581">
        <ele>210.337938</ele>
        <time>2026-08-29T12:18:29Z</time>
      </trkpt>
      <trkpt lat="43.94721" lon="1.92583">
        <ele>209.847189</ele>
        <time>2026-08-29T12:18:30Z</time>
      </trkpt>
      <trkpt lat="43.94725" lon="1.92585">
        <ele>209.377325</ele>
        <time>2026-08-29T12:18:31Z</time>
      </trkpt>
      <trkpt lat="43.94729" lon="1.92587">
        <ele>208.795652</ele>
        <time>2026-08-29T12:18:32Z</time>
      </trkpt>
      <trkpt lat="43.94733" lon="1.92589">
        <ele>208.269937</ele>
        <time>2026-08-29T12:18:33Z</time>
      </trkpt>
      <trkpt lat="43.94737" lon="1.92591">
        <ele>207.732485</ele>
        <time>2026-08-29T12:18:34Z</time>
      </trkpt>
      <trkpt lat="43.94741" lon="1.92594">
        <ele>207.226633</ele>
        <time>2026-08-29T12:18:35Z</time>
      </trkpt>
      <trkpt lat="43.94744" lon="1.92595">
        <ele>206.748734</ele>
        <time>2026-08-29T12:18:36Z</time>
      </trkpt>
      <trkpt lat="43.94748" lon="1.92597">
        <ele>206.256003</ele>
        <time>2026-08-29T12:18:37Z</time>
      </trkpt>
      <trkpt lat="43.94752" lon="1.92599">
        <ele>205.763271</ele>
        <time>2026-08-29T12:18:38Z</time>
      </trkpt>
      <trkpt lat="43.94756" lon="1.92601">
        <ele>205.234807</ele>
        <time>2026-08-29T12:18:39Z</time>
      </trkpt>
      <trkpt lat="43.94759" lon="1.92602">
        <ele>204.808272</ele>
        <time>2026-08-29T12:18:40Z</time>
      </trkpt>
      <trkpt lat="43.94761" lon="1.92603">
        <ele>204.500248</ele>
        <time>2026-08-29T12:18:41Z</time>
      </trkpt>
      <trkpt lat="43.94763" lon="1.92605">
        <ele>204.272381</ele>
        <time>2026-08-29T12:18:42Z</time>
      </trkpt>
      <trkpt lat="43.94764" lon="1.92605">
        <ele>204.057</ele>
        <time>2026-08-29T12:18:43Z</time>
      </trkpt>
      <trkpt lat="43.94766" lon="1.92606">
        <ele>203.797774</ele>
        <time>2026-08-29T12:18:44Z</time>
      </trkpt>
      <trkpt lat="43.94768" lon="1.92607">
        <ele>203.518756</ele>
        <time>2026-08-29T12:18:45Z</time>
      </trkpt>
      <trkpt lat="43.94771" lon="1.92608">
        <ele>203.191591</ele>
        <time>2026-08-29T12:18:46Z</time>
      </trkpt>
      <trkpt lat="43.94774" lon="1.9261">
        <ele>202.755188</ele>
        <time>2026-08-29T12:18:47Z</time>
      </trkpt>
      <trkpt lat="43.94776" lon="1.92613">
        <ele>202.348217</ele>
        <time>2026-08-29T12:18:48Z</time>
      </trkpt>
      <trkpt lat="43.94779" lon="1.92616">
        <ele>201.919241</ele>
        <time>2026-08-29T12:18:49Z</time>
      </trkpt>
      <trkpt lat="43.94781" lon="1.9262">
        <ele>201.514899</ele>
        <time>2026-08-29T12:18:50Z</time>
      </trkpt>
      <trkpt lat="43.94785" lon="1.92621">
        <ele>201.039836</ele>
        <time>2026-08-29T12:18:51Z</time>
      </trkpt>
      <trkpt lat="43.94788" lon="1.92624">
        <ele>200.564424</ele>
        <time>2026-08-29T12:18:52Z</time>
      </trkpt>
      <trkpt lat="43.9479" lon="1.92628">
        <ele>200.090978</ele>
        <time>2026-08-29T12:18:53Z</time>
      </trkpt>
      <trkpt lat="43.94793" lon="1.92632">
        <ele>199.625182</ele>
        <time>2026-08-29T12:18:54Z</time>
      </trkpt>
      <trkpt lat="43.94795" lon="1.92635">
        <ele>199.252991</ele>
        <time>2026-08-29T12:18:55Z</time>
      </trkpt>
      <trkpt lat="43.94797" lon="1.92637">
        <ele>198.891428</ele>
        <time>2026-08-29T12:18:56Z</time>
      </trkpt>
      <trkpt lat="43.94799" lon="1.9264">
        <ele>198.537854</ele>
        <time>2026-08-29T12:18:57Z</time>
      </trkpt>
      <trkpt lat="43.94801" lon="1.92642">
        <ele>198.230451</ele>
        <time>2026-08-29T12:18:58Z</time>
      </trkpt>
      <trkpt lat="43.94803" lon="1.92644">
        <ele>197.912639</ele>
        <time>2026-08-29T12:18:59Z</time>
      </trkpt>
      <trkpt lat="43.94805" lon="1.92648">
        <ele>197.552627</ele>
        <time>2026-08-29T12:19:00Z</time>
      </trkpt>
      <trkpt lat="43.94806" lon="1.92652">
        <ele>197.146448</ele>
        <time>2026-08-29T12:19:01Z</time>
      </trkpt>
      <trkpt lat="43.94808" lon="1.92656">
        <ele>196.694536</ele>
        <time>2026-08-29T12:19:02Z</time>
      </trkpt>
      <trkpt lat="43.94809" lon="1.92661">
        <ele>196.18294</ele>
        <time>2026-08-29T12:19:03Z</time>
      </trkpt>
      <trkpt lat="43.94811" lon="1.92666">
        <ele>195.681102</ele>
        <time>2026-08-29T12:19:04Z</time>
      </trkpt>
      <trkpt lat="43.94814" lon="1.9267">
        <ele>195.203413</ele>
        <time>2026-08-29T12:19:05Z</time>
      </trkpt>
      <trkpt lat="43.94816" lon="1.92675">
        <ele>194.709017</ele>
        <time>2026-08-29T12:19:06Z</time>
      </trkpt>
      <trkpt lat="43.94819" lon="1.92678">
        <ele>194.192577</ele>
        <time>2026-08-29T12:19:07Z</time>
      </trkpt>
      <trkpt lat="43.94822" lon="1.92683">
        <ele>193.683071</ele>
        <time>2026-08-29T12:19:08Z</time>
      </trkpt>
      <trkpt lat="43.94825" lon="1.92687">
        <ele>193.186919</ele>
        <time>2026-08-29T12:19:09Z</time>
      </trkpt>
      <trkpt lat="43.94828" lon="1.92691">
        <ele>192.655115</ele>
        <time>2026-08-29T12:19:10Z</time>
      </trkpt>
      <trkpt lat="43.94831" lon="1.92695">
        <ele>192.271839</ele>
        <time>2026-08-29T12:19:11Z</time>
      </trkpt>
      <trkpt lat="43.94834" lon="1.927">
        <ele>192.255325</ele>
        <time>2026-08-29T12:19:12Z</time>
      </trkpt>
      <trkpt lat="43.94838" lon="1.92705">
        <ele>192.237254</ele>
        <time>2026-08-29T12:19:13Z</time>
      </trkpt>
      <trkpt lat="43.94841" lon="1.9271">
        <ele>192.220207</ele>
        <time>2026-08-29T12:19:14Z</time>
      </trkpt>
      <trkpt lat="43.94845" lon="1.92715">
        <ele>192.202136</ele>
        <time>2026-08-29T12:19:15Z</time>
      </trkpt>
      <trkpt lat="43.94849" lon="1.92721">
        <ele>192.183096</ele>
        <time>2026-08-29T12:19:16Z</time>
      </trkpt>
      <trkpt lat="43.94852" lon="1.92726">
        <ele>192.164359</ele>
        <time>2026-08-29T12:19:17Z</time>
      </trkpt>
      <trkpt lat="43.94856" lon="1.92731">
        <ele>192.146147</ele>
        <time>2026-08-29T12:19:18Z</time>
      </trkpt>
      <trkpt lat="43.9486" lon="1.92736">
        <ele>192.128702</ele>
        <time>2026-08-29T12:19:19Z</time>
      </trkpt>
      <trkpt lat="43.94863" lon="1.9274">
        <ele>192.111937</ele>
        <time>2026-08-29T12:19:20Z</time>
      </trkpt>
      <trkpt lat="43.94867" lon="1.92744">
        <ele>192.09679</ele>
        <time>2026-08-29T12:19:21Z</time>
      </trkpt>
      <trkpt lat="43.94869" lon="1.92748">
        <ele>192.082745</ele>
        <time>2026-08-29T12:19:22Z</time>
      </trkpt>
      <trkpt lat="43.94872" lon="1.92752">
        <ele>192.06947</ele>
        <time>2026-08-29T12:19:23Z</time>
      </trkpt>
      <trkpt lat="43.94875" lon="1.92755">
        <ele>192.057045</ele>
        <time>2026-08-29T12:19:24Z</time>
      </trkpt>
      <trkpt lat="43.94877" lon="1.92759">
        <ele>192.044447</ele>
        <time>2026-08-29T12:19:25Z</time>
      </trkpt>
      <trkpt lat="43.9488" lon="1.92762">
        <ele>192.032391</ele>
        <time>2026-08-29T12:19:26Z</time>
      </trkpt>
      <trkpt lat="43.94882" lon="1.92766">
        <ele>192.020704</ele>
        <time>2026-08-29T12:19:27Z</time>
      </trkpt>
      <trkpt lat="43.94884" lon="1.92769">
        <ele>192.008777</ele>
        <time>2026-08-29T12:19:28Z</time>
      </trkpt>
      <trkpt lat="43.94887" lon="1.92772">
        <ele>191.998299</ele>
        <time>2026-08-29T12:19:29Z</time>
      </trkpt>
      <trkpt lat="43.94889" lon="1.92774">
        <ele>191.989114</ele>
        <time>2026-08-29T12:19:30Z</time>
      </trkpt>
      <trkpt lat="43.94891" lon="1.92776">
        <ele>191.979826</ele>
        <time>2026-08-29T12:19:31Z</time>
      </trkpt>
      <trkpt lat="43.94894" lon="1.92777">
        <ele>191.969963</ele>
        <time>2026-08-29T12:19:32Z</time>
      </trkpt>
      <trkpt lat="43.94896" lon="1.92777">
        <ele>191.961609</ele>
        <time>2026-08-29T12:19:33Z</time>
      </trkpt>
      <trkpt lat="43.94899" lon="1.92776">
        <ele>191.952815</ele>
        <time>2026-08-29T12:19:34Z</time>
      </trkpt>
      <trkpt lat="43.949" lon="1.92775">
        <ele>191.946485</ele>
        <time>2026-08-29T12:19:35Z</time>
      </trkpt>
      <trkpt lat="43.94902" lon="1.92774">
        <ele>191.940889</ele>
        <time>2026-08-29T12:19:36Z</time>
      </trkpt>
      <trkpt lat="43.94903" lon="1.92773">
        <ele>191.935916</ele>
        <time>2026-08-29T12:19:37Z</time>
      </trkpt>
      <trkpt lat="43.94905" lon="1.92772">
        <ele>191.929704</ele>
        <time>2026-08-29T12:19:38Z</time>
      </trkpt>
      <trkpt lat="43.94907" lon="1.92772">
        <ele>191.922291</ele>
        <time>2026-08-29T12:19:39Z</time>
      </trkpt>
      <trkpt lat="43.94909" lon="1.92771">
        <ele>191.914777</ele>
        <time>2026-08-29T12:19:40Z</time>
      </trkpt>
      <trkpt lat="43.94911" lon="1.92771">
        <ele>191.907747</ele>
        <time>2026-08-29T12:19:41Z</time>
      </trkpt>
      <trkpt lat="43.94913" lon="1.92771">
        <ele>191.900436</ele>
        <time>2026-08-29T12:19:42Z</time>
      </trkpt>
      <trkpt lat="43.94915" lon="1.92771">
        <ele>191.894173</ele>
        <time>2026-08-29T12:19:43Z</time>
      </trkpt>
      <trkpt lat="43.94917" lon="1.92771">
        <ele>191.887558</ele>
        <time>2026-08-29T12:19:44Z</time>
      </trkpt>
      <trkpt lat="43.94918" lon="1.92771">
        <ele>191.882052</ele>
        <time>2026-08-29T12:19:45Z</time>
      </trkpt>
      <trkpt lat="43.9492" lon="1.92772">
        <ele>191.876621</ele>
        <time>2026-08-29T12:19:46Z</time>
      </trkpt>
      <trkpt lat="43.94921" lon="1.92773">
        <ele>191.871144</ele>
        <time>2026-08-29T12:19:47Z</time>
      </trkpt>
      <trkpt lat="43.94923" lon="1.92774">
        <ele>191.865242</ele>
        <time>2026-08-29T12:19:48Z</time>
      </trkpt>
      <trkpt lat="43.94924" lon="1.92775">
        <ele>191.859137</ele>
        <time>2026-08-29T12:19:49Z</time>
      </trkpt>
      <trkpt lat="43.94926" lon="1.92776">
        <ele>191.853115</ele>
        <time>2026-08-29T12:19:50Z</time>
      </trkpt>
      <trkpt lat="43.94928" lon="1.92777">
        <ele>191.846691</ele>
        <time>2026-08-29T12:19:51Z</time>
      </trkpt>
      <trkpt lat="43.94929" lon="1.92779">
        <ele>191.84126</ele>
        <time>2026-08-29T12:19:52Z</time>
      </trkpt>
      <trkpt lat="43.9493" lon="1.9278">
        <ele>191.835964</ele>
        <time>2026-08-29T12:19:53Z</time>
      </trkpt>
      <trkpt lat="43.94932" lon="1.92781">
        <ele>191.830062</ele>
        <time>2026-08-29T12:19:54Z</time>
      </trkpt>
      <trkpt lat="43.94933" lon="1.92782">
        <ele>191.82404</ele>
        <time>2026-08-29T12:19:55Z</time>
      </trkpt>
      <trkpt lat="43.94934" lon="1.92783">
        <ele>191.818869</ele>
        <time>2026-08-29T12:19:56Z</time>
      </trkpt>
      <trkpt lat="43.94936" lon="1.92784">
        <ele>191.813602</ele>
        <time>2026-08-29T12:19:57Z</time>
      </trkpt>
      <trkpt lat="43.94937" lon="1.92785">
        <ele>191.808235</ele>
        <time>2026-08-29T12:19:58Z</time>
      </trkpt>
      <trkpt lat="43.94938" lon="1.92786">
        <ele>191.803366</ele>
        <time>2026-08-29T12:19:59Z</time>
      </trkpt>
      <trkpt lat="43.9494" lon="1.92787">
        <ele>191.798069</ele>
        <time>2026-08-29T12:20:00Z</time>
      </trkpt>
      <trkpt lat="43.94941" lon="1.92788">
        <ele>191.7932</ele>
        <time>2026-08-29T12:20:01Z</time>
      </trkpt>
      <trkpt lat="43.94942" lon="1.92789">
        <ele>191.787904</ele>
        <time>2026-08-29T12:20:02Z</time>
      </trkpt>
      <trkpt lat="43.94944" lon="1.9279">
        <ele>191.782957</ele>
        <time>2026-08-29T12:20:03Z</time>
      </trkpt>
      <trkpt lat="43.94945" lon="1.92791">
        <ele>191.778515</ele>
        <time>2026-08-29T12:20:04Z</time>
      </trkpt>
      <trkpt lat="43.94946" lon="1.92791">
        <ele>191.77377</ele>
        <time>2026-08-29T12:20:05Z</time>
      </trkpt>
      <trkpt lat="43.94947" lon="1.92792">
        <ele>191.768503</ele>
        <time>2026-08-29T12:20:06Z</time>
      </trkpt>
      <trkpt lat="43.94949" lon="1.92793">
        <ele>191.762912</ele>
        <time>2026-08-29T12:20:07Z</time>
      </trkpt>
      <trkpt lat="43.9495" lon="1.92794">
        <ele>191.757742</ele>
        <time>2026-08-29T12:20:08Z</time>
      </trkpt>
      <trkpt lat="43.94952" lon="1.92795">
        <ele>191.751976</ele>
        <time>2026-08-29T12:20:09Z</time>
      </trkpt>
      <trkpt lat="43.94953" lon="1.92796">
        <ele>191.74597</ele>
        <time>2026-08-29T12:20:10Z</time>
      </trkpt>
      <trkpt lat="43.94955" lon="1.92796">
        <ele>191.741385</ele>
        <time>2026-08-29T12:20:11Z</time>
      </trkpt>
      <trkpt lat="43.94956" lon="1.92796">
        <ele>191.736618</ele>
        <time>2026-08-29T12:20:12Z</time>
      </trkpt>
      <trkpt lat="43.94957" lon="1.92797">
        <ele>191.730852</ele>
        <time>2026-08-29T12:20:13Z</time>
      </trkpt>
      <trkpt lat="43.94959" lon="1.92798">
        <ele>191.725256</ele>
        <time>2026-08-29T12:20:14Z</time>
      </trkpt>
      <trkpt lat="43.9496" lon="1.92799">
        <ele>191.719825</ele>
        <time>2026-08-29T12:20:15Z</time>
      </trkpt>
      <trkpt lat="43.94962" lon="1.928">
        <ele>191.714558</ele>
        <time>2026-08-29T12:20:16Z</time>
      </trkpt>
      <trkpt lat="43.94963" lon="1.928">
        <ele>191.708455</ele>
        <time>2026-08-29T12:20:17Z</time>
      </trkpt>
      <trkpt lat="43.94965" lon="1.92801">
        <ele>191.702798</ele>
        <time>2026-08-29T12:20:18Z</time>
      </trkpt>
      <trkpt lat="43.94967" lon="1.92801">
        <ele>191.697526</ele>
        <time>2026-08-29T12:20:19Z</time>
      </trkpt>
      <trkpt lat="43.94968" lon="1.92801">
        <ele>191.692158</ele>
        <time>2026-08-29T12:20:20Z</time>
      </trkpt>
      <trkpt lat="43.9497" lon="1.92802">
        <ele>191.686196</ele>
        <time>2026-08-29T12:20:21Z</time>
      </trkpt>
      <trkpt lat="43.94971" lon="1.92802">
        <ele>191.680971</ele>
        <time>2026-08-29T12:20:22Z</time>
      </trkpt>
      <trkpt lat="43.94972" lon="1.92802">
        <ele>191.677181</ele>
        <time>2026-08-29T12:20:23Z</time>
      </trkpt>
      <trkpt lat="43.94974" lon="1.92803">
        <ele>191.671938</ele>
        <time>2026-08-29T12:20:24Z</time>
      </trkpt>
      <trkpt lat="43.94975" lon="1.92803">
        <ele>191.668103</ele>
        <time>2026-08-29T12:20:25Z</time>
      </trkpt>
      <trkpt lat="43.94976" lon="1.92803">
        <ele>191.66286</ele>
        <time>2026-08-29T12:20:26Z</time>
      </trkpt>
      <trkpt lat="43.94978" lon="1.92803">
        <ele>191.658655</ele>
        <time>2026-08-29T12:20:27Z</time>
      </trkpt>
      <trkpt lat="43.94979" lon="1.92802">
        <ele>191.654412</ele>
        <time>2026-08-29T12:20:28Z</time>
      </trkpt>
      <trkpt lat="43.9498" lon="1.92802">
        <ele>191.65619</ele>
        <time>2026-08-29T12:20:29Z</time>
      </trkpt>
      <trkpt lat="43.94981" lon="1.92802">
        <ele>191.692961</ele>
        <time>2026-08-29T12:20:30Z</time>
      </trkpt>
      <trkpt lat="43.94983" lon="1.92801">
        <ele>191.727419</ele>
        <time>2026-08-29T12:20:31Z</time>
      </trkpt>
      <trkpt lat="43.94984" lon="1.928">
        <ele>191.766924</ele>
        <time>2026-08-29T12:20:32Z</time>
      </trkpt>
      <trkpt lat="43.94986" lon="1.92799">
        <ele>191.813801</ele>
        <time>2026-08-29T12:20:33Z</time>
      </trkpt>
      <trkpt lat="43.94988" lon="1.92799">
        <ele>191.852894</ele>
        <time>2026-08-29T12:20:34Z</time>
      </trkpt>
      <trkpt lat="43.94989" lon="1.92799">
        <ele>191.889019</ele>
        <time>2026-08-29T12:20:35Z</time>
      </trkpt>
      <trkpt lat="43.94991" lon="1.92799">
        <ele>191.925143</ele>
        <time>2026-08-29T12:20:36Z</time>
      </trkpt>
      <trkpt lat="43.94992" lon="1.92799">
        <ele>191.958516</ele>
        <time>2026-08-29T12:20:37Z</time>
      </trkpt>
      <trkpt lat="43.94993" lon="1.92799">
        <ele>191.984793</ele>
        <time>2026-08-29T12:20:38Z</time>
      </trkpt>
      <trkpt lat="43.94994" lon="1.92798">
        <ele>192.014165</ele>
        <time>2026-08-29T12:20:39Z</time>
      </trkpt>
      <trkpt lat="43.94996" lon="1.92796">
        <ele>192.056313</ele>
        <time>2026-08-29T12:20:40Z</time>
      </trkpt>
      <trkpt lat="43.94997" lon="1.92795">
        <ele>192.097575</ele>
        <time>2026-08-29T12:20:41Z</time>
      </trkpt>
      <trkpt lat="43.94998" lon="1.92794">
        <ele>192.129304</ele>
        <time>2026-08-29T12:20:42Z</time>
      </trkpt>
      <trkpt lat="43.95" lon="1.92794">
        <ele>192.161813</ele>
        <time>2026-08-29T12:20:43Z</time>
      </trkpt>
      <trkpt lat="43.95001" lon="1.92793">
        <ele>192.195048</ele>
        <time>2026-08-29T12:20:44Z</time>
      </trkpt>
      <trkpt lat="43.95002" lon="1.92792">
        <ele>192.224646</ele>
        <time>2026-08-29T12:20:45Z</time>
      </trkpt>
      <trkpt lat="43.95003" lon="1.9279">
        <ele>192.270121</ele>
        <time>2026-08-29T12:20:46Z</time>
      </trkpt>
      <trkpt lat="43.95005" lon="1.92789">
        <ele>192.309336</ele>
        <time>2026-08-29T12:20:47Z</time>
      </trkpt>
      <trkpt lat="43.95006" lon="1.92788">
        <ele>192.343181</ele>
        <time>2026-08-29T12:20:48Z</time>
      </trkpt>
      <trkpt lat="43.95006" lon="1.92788">
        <ele>192.352716</ele>
        <time>2026-08-29T12:20:49Z</time>
      </trkpt>
      <trkpt lat="43.95006" lon="1.92787">
        <ele>192.366651</ele>
        <time>2026-08-29T12:20:50Z</time>
      </trkpt>
      <trkpt lat="43.95011" lon="1.92788">
        <ele>192.482909</ele>
        <time>2026-08-29T12:21:15Z</time>
      </trkpt>
      <trkpt lat="43.95013" lon="1.92787">
        <ele>192.526276</ele>
        <time>2026-08-29T12:21:16Z</time>
      </trkpt>
      <trkpt lat="43.95014" lon="1.92786">
        <ele>192.572535</ele>
        <time>2026-08-29T12:21:17Z</time>
      </trkpt>
      <trkpt lat="43.95016" lon="1.92785">
        <ele>192.612196</ele>
        <time>2026-08-29T12:21:18Z</time>
      </trkpt>
      <trkpt lat="43.95018" lon="1.92784">
        <ele>192.655649</ele>
        <time>2026-08-29T12:21:19Z</time>
      </trkpt>
      <trkpt lat="43.95019" lon="1.92784">
        <ele>192.697071</ele>
        <time>2026-08-29T12:21:20Z</time>
      </trkpt>
      <trkpt lat="43.9502" lon="1.92783">
        <ele>192.727473</ele>
        <time>2026-08-29T12:21:21Z</time>
      </trkpt>
      <trkpt lat="43.95022" lon="1.92783">
        <ele>192.77038</ele>
        <time>2026-08-29T12:21:22Z</time>
      </trkpt>
      <trkpt lat="43.95024" lon="1.92782">
        <ele>192.810041</ele>
        <time>2026-08-29T12:21:23Z</time>
      </trkpt>
      <trkpt lat="43.95025" lon="1.92781">
        <ele>192.852597</ele>
        <time>2026-08-29T12:21:24Z</time>
      </trkpt>
      <trkpt lat="43.95027" lon="1.9278">
        <ele>192.896656</ele>
        <time>2026-08-29T12:21:25Z</time>
      </trkpt>
      <trkpt lat="43.95029" lon="1.92778">
        <ele>192.944664</ele>
        <time>2026-08-29T12:21:26Z</time>
      </trkpt>
      <trkpt lat="43.9503" lon="1.92777">
        <ele>192.99166</ele>
        <time>2026-08-29T12:21:27Z</time>
      </trkpt>
      <trkpt lat="43.95032" lon="1.92775">
        <ele>193.035719</ele>
        <time>2026-08-29T12:21:28Z</time>
      </trkpt>
      <trkpt lat="43.95033" lon="1.92774">
        <ele>193.074934</ele>
        <time>2026-08-29T12:21:29Z</time>
      </trkpt>
      <trkpt lat="43.95035" lon="1.92773">
        <ele>193.115367</ele>
        <time>2026-08-29T12:21:30Z</time>
      </trkpt>
      <trkpt lat="43.95036" lon="1.92771">
        <ele>193.152112</ele>
        <time>2026-08-29T12:21:31Z</time>
      </trkpt>
      <trkpt lat="43.95037" lon="1.9277">
        <ele>193.190454</ele>
        <time>2026-08-29T12:21:32Z</time>
      </trkpt>
      <trkpt lat="43.95038" lon="1.92769">
        <ele>193.228421</ele>
        <time>2026-08-29T12:21:33Z</time>
      </trkpt>
      <trkpt lat="43.95039" lon="1.92767">
        <ele>193.27299</ele>
        <time>2026-08-29T12:21:34Z</time>
      </trkpt>
      <trkpt lat="43.95041" lon="1.92765">
        <ele>193.316745</ele>
        <time>2026-08-29T12:21:35Z</time>
      </trkpt>
      <trkpt lat="43.95042" lon="1.92763">
        <ele>193.358892</ele>
        <time>2026-08-29T12:21:36Z</time>
      </trkpt>
      <trkpt lat="43.95043" lon="1.92761">
        <ele>193.400993</ele>
        <time>2026-08-29T12:21:37Z</time>
      </trkpt>
      <trkpt lat="43.95044" lon="1.9276">
        <ele>193.445976</ele>
        <time>2026-08-29T12:21:38Z</time>
      </trkpt>
      <trkpt lat="43.95046" lon="1.92758">
        <ele>193.490959</ele>
        <time>2026-08-29T12:21:39Z</time>
      </trkpt>
      <trkpt lat="43.95047" lon="1.92755">
        <ele>193.538327</ele>
        <time>2026-08-29T12:21:40Z</time>
      </trkpt>
      <trkpt lat="43.95048" lon="1.92753">
        <ele>193.589094</ele>
        <time>2026-08-29T12:21:41Z</time>
      </trkpt>
      <trkpt lat="43.9505" lon="1.92752">
        <ele>193.635242</ele>
        <time>2026-08-29T12:21:42Z</time>
      </trkpt>
      <trkpt lat="43.95051" lon="1.9275">
        <ele>193.682494</ele>
        <time>2026-08-29T12:21:43Z</time>
      </trkpt>
      <trkpt lat="43.95053" lon="1.92748">
        <ele>193.725573</ele>
        <time>2026-08-29T12:21:44Z</time>
      </trkpt>
      <trkpt lat="43.95054" lon="1.92747">
        <ele>193.772824</ele>
        <time>2026-08-29T12:21:45Z</time>
      </trkpt>
      <trkpt lat="43.95056" lon="1.92745">
        <ele>193.813682</ele>
        <time>2026-08-29T12:21:46Z</time>
      </trkpt>
      <trkpt lat="43.95057" lon="1.92743">
        <ele>193.850428</ele>
        <time>2026-08-29T12:21:47Z</time>
      </trkpt>
      <trkpt lat="43.95058" lon="1.92742">
        <ele>193.888395</ele>
        <time>2026-08-29T12:21:48Z</time>
      </trkpt>
      <trkpt lat="43.95059" lon="1.9274">
        <ele>193.927426</ele>
        <time>2026-08-29T12:21:49Z</time>
      </trkpt>
      <trkpt lat="43.95059" lon="1.92738">
        <ele>193.961035</ele>
        <time>2026-08-29T12:21:50Z</time>
      </trkpt>
      <trkpt lat="43.9506" lon="1.92737">
        <ele>193.986329</ele>
        <time>2026-08-29T12:21:51Z</time>
      </trkpt>
      <trkpt lat="43.95059" lon="1.92737">
        <ele>194.001038</ele>
        <time>2026-08-29T12:21:52Z</time>
      </trkpt>
      <trkpt lat="43.95059" lon="1.92737">
        <ele>194.010726</ele>
        <time>2026-08-29T12:21:53Z</time>
      </trkpt>
      <trkpt lat="43.95062" lon="1.92736">
        <ele>194.092928</ele>
        <time>2026-08-29T12:25:19Z</time>
      </trkpt>
      <trkpt lat="43.95064" lon="1.92737">
        <ele>194.1272</ele>
        <time>2026-08-29T12:25:20Z</time>
      </trkpt>
      <trkpt lat="43.95065" lon="1.92739">
        <ele>194.176317</ele>
        <time>2026-08-29T12:25:21Z</time>
      </trkpt>
      <trkpt lat="43.95066" lon="1.92742">
        <ele>194.236075</ele>
        <time>2026-08-29T12:25:22Z</time>
      </trkpt>
      <trkpt lat="43.95067" lon="1.92746">
        <ele>194.309634</ele>
        <time>2026-08-29T12:25:23Z</time>
      </trkpt>
      <trkpt lat="43.95068" lon="1.92751">
        <ele>194.399358</ele>
        <time>2026-08-29T12:25:24Z</time>
      </trkpt>
      <trkpt lat="43.9507" lon="1.92757">
        <ele>194.507749</ele>
        <time>2026-08-29T12:25:25Z</time>
      </trkpt>
      <trkpt lat="43.95072" lon="1.92764">
        <ele>194.630015</ele>
        <time>2026-08-29T12:25:26Z</time>
      </trkpt>
      <trkpt lat="43.95074" lon="1.92771">
        <ele>194.771326</ele>
        <time>2026-08-29T12:25:27Z</time>
      </trkpt>
      <trkpt lat="43.95077" lon="1.92779">
        <ele>194.926125</ele>
        <time>2026-08-29T12:25:28Z</time>
      </trkpt>
      <trkpt lat="43.9508" lon="1.92788">
        <ele>195.094255</ele>
        <time>2026-08-29T12:25:29Z</time>
      </trkpt>
      <trkpt lat="43.95083" lon="1.92797">
        <ele>195.268577</ele>
        <time>2026-08-29T12:25:30Z</time>
      </trkpt>
      <trkpt lat="43.95087" lon="1.92807">
        <ele>195.457361</ele>
        <time>2026-08-29T12:25:31Z</time>
      </trkpt>
      <trkpt lat="43.9509" lon="1.92817">
        <ele>195.648947</ele>
        <time>2026-08-29T12:25:32Z</time>
      </trkpt>
      <trkpt lat="43.95093" lon="1.92829">
        <ele>195.859441</ele>
        <time>2026-08-29T12:25:33Z</time>
      </trkpt>
      <trkpt lat="43.95097" lon="1.9284">
        <ele>195.429321</ele>
        <time>2026-08-29T12:25:34Z</time>
      </trkpt>
      <trkpt lat="43.951" lon="1.92853">
        <ele>194.596012</ele>
        <time>2026-08-29T12:25:35Z</time>
      </trkpt>
      <trkpt lat="43.95104" lon="1.92865">
        <ele>193.715244</ele>
        <time>2026-08-29T12:25:36Z</time>
      </trkpt>
      <trkpt lat="43.95108" lon="1.92878">
        <ele>192.83576</ele>
        <time>2026-08-29T12:25:37Z</time>
      </trkpt>
      <trkpt lat="43.95112" lon="1.92891">
        <ele>191.936129</ele>
        <time>2026-08-29T12:25:38Z</time>
      </trkpt>
      <trkpt lat="43.95116" lon="1.92904">
        <ele>191.002824</ele>
        <time>2026-08-29T12:25:39Z</time>
      </trkpt>
      <trkpt lat="43.9512" lon="1.92918">
        <ele>190.054337</ele>
        <time>2026-08-29T12:25:40Z</time>
      </trkpt>
      <trkpt lat="43.95124" lon="1.92932">
        <ele>189.106737</ele>
        <time>2026-08-29T12:25:41Z</time>
      </trkpt>
      <trkpt lat="43.95128" lon="1.92945">
        <ele>188.212061</ele>
        <time>2026-08-29T12:25:42Z</time>
      </trkpt>
      <trkpt lat="43.95132" lon="1.92958">
        <ele>187.309089</ele>
        <time>2026-08-29T12:25:43Z</time>
      </trkpt>
      <trkpt lat="43.95136" lon="1.92971">
        <ele>186.397632</ele>
        <time>2026-08-29T12:25:44Z</time>
      </trkpt>
      <trkpt lat="43.9514" lon="1.92984">
        <ele>185.508804</ele>
        <time>2026-08-29T12:25:45Z</time>
      </trkpt>
      <trkpt lat="43.95144" lon="1.92996">
        <ele>184.645325</ele>
        <time>2026-08-29T12:25:46Z</time>
      </trkpt>
      <trkpt lat="43.95149" lon="1.93008">
        <ele>183.816465</ele>
        <time>2026-08-29T12:25:47Z</time>
      </trkpt>
      <trkpt lat="43.95152" lon="1.93019">
        <ele>183.031528</ele>
        <time>2026-08-29T12:25:48Z</time>
      </trkpt>
      <trkpt lat="43.95156" lon="1.93029">
        <ele>182.313408</ele>
        <time>2026-08-29T12:25:49Z</time>
      </trkpt>
      <trkpt lat="43.95159" lon="1.93039">
        <ele>181.630029</ele>
        <time>2026-08-29T12:25:50Z</time>
      </trkpt>
      <trkpt lat="43.95162" lon="1.93048">
        <ele>181.032408</ele>
        <time>2026-08-29T12:25:51Z</time>
      </trkpt>
      <trkpt lat="43.95164" lon="1.93056">
        <ele>180.436994</ele>
        <time>2026-08-29T12:25:52Z</time>
      </trkpt>
      <trkpt lat="43.95167" lon="1.93064">
        <ele>179.942255</ele>
        <time>2026-08-29T12:25:53Z</time>
      </trkpt>
      <trkpt lat="43.95169" lon="1.93072">
        <ele>179.667438</ele>
        <time>2026-08-29T12:25:54Z</time>
      </trkpt>
      <trkpt lat="43.95171" lon="1.93078">
        <ele>179.417327</ele>
        <time>2026-08-29T12:25:55Z</time>
      </trkpt>
      <trkpt lat="43.95173" lon="1.93084">
        <ele>179.196183</ele>
        <time>2026-08-29T12:25:56Z</time>
      </trkpt>
      <trkpt lat="43.95176" lon="1.93088">
        <ele>179.004016</ele>
        <time>2026-08-29T12:25:57Z</time>
      </trkpt>
      <trkpt lat="43.95179" lon="1.93091">
        <ele>178.803702</ele>
        <time>2026-08-29T12:25:58Z</time>
      </trkpt>
      <trkpt lat="43.95183" lon="1.93094">
        <ele>178.588402</ele>
        <time>2026-08-29T12:25:59Z</time>
      </trkpt>
      <trkpt lat="43.95187" lon="1.93097">
        <ele>178.358709</ele>
        <time>2026-08-29T12:26:00Z</time>
      </trkpt>
      <trkpt lat="43.95192" lon="1.93101">
        <ele>178.099504</ele>
        <time>2026-08-29T12:26:01Z</time>
      </trkpt>
      <trkpt lat="43.95197" lon="1.93105">
        <ele>177.830157</ele>
        <time>2026-08-29T12:26:02Z</time>
      </trkpt>
      <trkpt lat="43.95202" lon="1.93108">
        <ele>177.574237</ele>
        <time>2026-08-29T12:26:03Z</time>
      </trkpt>
      <trkpt lat="43.95207" lon="1.93112">
        <ele>177.290475</ele>
        <time>2026-08-29T12:26:04Z</time>
      </trkpt>
      <trkpt lat="43.95212" lon="1.93116">
        <ele>176.992249</ele>
        <time>2026-08-29T12:26:05Z</time>
      </trkpt>
      <trkpt lat="43.95217" lon="1.9312">
        <ele>176.704126</ele>
        <time>2026-08-29T12:26:06Z</time>
      </trkpt>
      <trkpt lat="43.95223" lon="1.93125">
        <ele>176.410456</ele>
        <time>2026-08-29T12:26:07Z</time>
      </trkpt>
      <trkpt lat="43.95228" lon="1.93129">
        <ele>176.110843</ele>
        <time>2026-08-29T12:26:08Z</time>
      </trkpt>
      <trkpt lat="43.95233" lon="1.93134">
        <ele>175.798401</ele>
        <time>2026-08-29T12:26:09Z</time>
      </trkpt>
      <trkpt lat="43.95239" lon="1.93138">
        <ele>175.504346</ele>
        <time>2026-08-29T12:26:10Z</time>
      </trkpt>
      <trkpt lat="43.95243" lon="1.93143">
        <ele>175.210715</ele>
        <time>2026-08-29T12:26:11Z</time>
      </trkpt>
      <trkpt lat="43.95248" lon="1.93148">
        <ele>174.940887</ele>
        <time>2026-08-29T12:26:12Z</time>
      </trkpt>
      <trkpt lat="43.95252" lon="1.93152">
        <ele>174.696907</ele>
        <time>2026-08-29T12:26:13Z</time>
      </trkpt>
      <trkpt lat="43.95256" lon="1.93156">
        <ele>174.466726</ele>
        <time>2026-08-29T12:26:14Z</time>
      </trkpt>
      <trkpt lat="43.9526" lon="1.93159">
        <ele>174.240599</ele>
        <time>2026-08-29T12:26:15Z</time>
      </trkpt>
      <trkpt lat="43.95263" lon="1.93162">
        <ele>174.037853</ele>
        <time>2026-08-29T12:26:16Z</time>
      </trkpt>
      <trkpt lat="43.95266" lon="1.93166">
        <ele>173.860561</ele>
        <time>2026-08-29T12:26:17Z</time>
      </trkpt>
      <trkpt lat="43.95268" lon="1.9317">
        <ele>173.682774</ele>
        <time>2026-08-29T12:26:18Z</time>
      </trkpt>
      <trkpt lat="43.95272" lon="1.93173">
        <ele>173.484349</ele>
        <time>2026-08-29T12:26:19Z</time>
      </trkpt>
      <trkpt lat="43.95275" lon="1.93177">
        <ele>173.291874</ele>
        <time>2026-08-29T12:26:20Z</time>
      </trkpt>
      <trkpt lat="43.95278" lon="1.9318">
        <ele>173.111376</ele>
        <time>2026-08-29T12:26:21Z</time>
      </trkpt>
      <trkpt lat="43.95281" lon="1.93183">
        <ele>172.936752</ele>
        <time>2026-08-29T12:26:22Z</time>
      </trkpt>
      <trkpt lat="43.95284" lon="1.93185">
        <ele>172.777855</ele>
        <time>2026-08-29T12:26:23Z</time>
      </trkpt>
      <trkpt lat="43.95287" lon="1.93186">
        <ele>172.623336</ele>
        <time>2026-08-29T12:26:24Z</time>
      </trkpt>
      <trkpt lat="43.9529" lon="1.93186">
        <ele>172.482895</ele>
        <time>2026-08-29T12:26:25Z</time>
      </trkpt>
      <trkpt lat="43.95292" lon="1.93185">
        <ele>172.338591</ele>
        <time>2026-08-29T12:26:26Z</time>
      </trkpt>
      <trkpt lat="43.95295" lon="1.93183">
        <ele>172.203923</ele>
        <time>2026-08-29T12:26:27Z</time>
      </trkpt>
      <trkpt lat="43.95297" lon="1.93182">
        <ele>172.0781</ele>
        <time>2026-08-29T12:26:28Z</time>
      </trkpt>
      <trkpt lat="43.95299" lon="1.9318">
        <ele>171.982656</ele>
        <time>2026-08-29T12:26:29Z</time>
      </trkpt>
      <trkpt lat="43.953" lon="1.93179">
        <ele>171.903215</ele>
        <time>2026-08-29T12:26:30Z</time>
      </trkpt>
      <trkpt lat="43.95301" lon="1.93178">
        <ele>171.855004</ele>
        <time>2026-08-29T12:26:31Z</time>
      </trkpt>
      <trkpt lat="43.95302" lon="1.93178">
        <ele>171.819625</ele>
        <time>2026-08-29T12:26:32Z</time>
      </trkpt>
      <trkpt lat="43.95302" lon="1.93178">
        <ele>171.793322</ele>
        <time>2026-08-29T12:26:33Z</time>
      </trkpt>
      <trkpt lat="43.95296" lon="1.93179">
        <ele>171.491006</ele>
        <time>2026-08-29T12:28:46Z</time>
      </trkpt>
      <trkpt lat="43.95295" lon="1.93181">
        <ele>171.397322</ele>
        <time>2026-08-29T12:28:47Z</time>
      </trkpt>
      <trkpt lat="43.95294" lon="1.93183">
        <ele>171.395198</ele>
        <time>2026-08-29T12:28:48Z</time>
      </trkpt>
      <trkpt lat="43.95293" lon="1.93185">
        <ele>171.563741</ele>
        <time>2026-08-29T12:28:49Z</time>
      </trkpt>
      <trkpt lat="43.95292" lon="1.93187">
        <ele>171.674496</ele>
        <time>2026-08-29T12:28:50Z</time>
      </trkpt>
      <trkpt lat="43.95293" lon="1.9319">
        <ele>171.822213</ele>
        <time>2026-08-29T12:28:51Z</time>
      </trkpt>
      <trkpt lat="43.95293" lon="1.93192">
        <ele>171.958691</ele>
        <time>2026-08-29T12:28:52Z</time>
      </trkpt>
      <trkpt lat="43.95294" lon="1.93194">
        <ele>172.099795</ele>
        <time>2026-08-29T12:28:53Z</time>
      </trkpt>
      <trkpt lat="43.95294" lon="1.93196">
        <ele>172.228064</ele>
        <time>2026-08-29T12:28:54Z</time>
      </trkpt>
      <trkpt lat="43.95296" lon="1.93199">
        <ele>172.414219</ele>
        <time>2026-08-29T12:28:55Z</time>
      </trkpt>
      <trkpt lat="43.95298" lon="1.93201">
        <ele>172.593223</ele>
        <time>2026-08-29T12:28:56Z</time>
      </trkpt>
      <trkpt lat="43.95299" lon="1.93203">
        <ele>172.787425</ele>
        <time>2026-08-29T12:28:57Z</time>
      </trkpt>
      <trkpt lat="43.95301" lon="1.93205">
        <ele>172.97576</ele>
        <time>2026-08-29T12:28:58Z</time>
      </trkpt>
      <trkpt lat="43.95303" lon="1.93207">
        <ele>173.141044</ele>
        <time>2026-08-29T12:28:59Z</time>
      </trkpt>
      <trkpt lat="43.95305" lon="1.93209">
        <ele>173.318744</ele>
        <time>2026-08-29T12:29:00Z</time>
      </trkpt>
      <trkpt lat="43.95306" lon="1.93211">
        <ele>173.47339</ele>
        <time>2026-08-29T12:29:01Z</time>
      </trkpt>
      <trkpt lat="43.95308" lon="1.93213">
        <ele>173.679147</ele>
        <time>2026-08-29T12:29:02Z</time>
      </trkpt>
      <trkpt lat="43.9531" lon="1.93215">
        <ele>173.88107</ele>
        <time>2026-08-29T12:29:03Z</time>
      </trkpt>
      <trkpt lat="43.95312" lon="1.93218">
        <ele>174.085009</ele>
        <time>2026-08-29T12:29:04Z</time>
      </trkpt>
      <trkpt lat="43.95313" lon="1.9322">
        <ele>174.2635</ele>
        <time>2026-08-29T12:29:05Z</time>
      </trkpt>
      <trkpt lat="43.95315" lon="1.93222">
        <ele>174.474239</ele>
        <time>2026-08-29T12:29:06Z</time>
      </trkpt>
      <trkpt lat="43.95317" lon="1.93224">
        <ele>174.675034</ele>
        <time>2026-08-29T12:29:07Z</time>
      </trkpt>
      <trkpt lat="43.95319" lon="1.93226">
        <ele>174.842862</ele>
        <time>2026-08-29T12:29:08Z</time>
      </trkpt>
      <trkpt lat="43.95321" lon="1.93227">
        <ele>174.994367</ele>
        <time>2026-08-29T12:29:09Z</time>
      </trkpt>
      <trkpt lat="43.95323" lon="1.93228">
        <ele>175.1763</ele>
        <time>2026-08-29T12:29:10Z</time>
      </trkpt>
      <trkpt lat="43.95325" lon="1.93229">
        <ele>175.344739</ele>
        <time>2026-08-29T12:29:11Z</time>
      </trkpt>
      <trkpt lat="43.95327" lon="1.9323">
        <ele>175.48527</ele>
        <time>2026-08-29T12:29:12Z</time>
      </trkpt>
      <trkpt lat="43.95328" lon="1.93231">
        <ele>175.617075</ele>
        <time>2026-08-29T12:29:13Z</time>
      </trkpt>
      <trkpt lat="43.9533" lon="1.93231">
        <ele>175.794842</ele>
        <time>2026-08-29T12:29:14Z</time>
      </trkpt>
      <trkpt lat="43.95332" lon="1.93232">
        <ele>175.931534</ele>
        <time>2026-08-29T12:29:15Z</time>
      </trkpt>
      <trkpt lat="43.95334" lon="1.93232">
        <ele>176.091878</ele>
        <time>2026-08-29T12:29:16Z</time>
      </trkpt>
      <trkpt lat="43.95336" lon="1.93232">
        <ele>176.231102</ele>
        <time>2026-08-29T12:29:17Z</time>
      </trkpt>
      <trkpt lat="43.95337" lon="1.93232">
        <ele>176.3684</ele>
        <time>2026-08-29T12:29:18Z</time>
      </trkpt>
      <trkpt lat="43.95339" lon="1.93233">
        <ele>176.498652</ele>
        <time>2026-08-29T12:29:19Z</time>
      </trkpt>
      <trkpt lat="43.9534" lon="1.93233">
        <ele>176.625433</ele>
        <time>2026-08-29T12:29:20Z</time>
      </trkpt>
      <trkpt lat="43.95342" lon="1.93234">
        <ele>176.752214</ele>
        <time>2026-08-29T12:29:21Z</time>
      </trkpt>
      <trkpt lat="43.95343" lon="1.93235">
        <ele>176.869599</ele>
        <time>2026-08-29T12:29:22Z</time>
      </trkpt>
      <trkpt lat="43.95345" lon="1.93236">
        <ele>176.990888</ele>
        <time>2026-08-29T12:29:23Z</time>
      </trkpt>
      <trkpt lat="43.95346" lon="1.93236">
        <ele>177.105404</ele>
        <time>2026-08-29T12:29:24Z</time>
      </trkpt>
      <trkpt lat="43.95348" lon="1.93236">
        <ele>177.243548</ele>
        <time>2026-08-29T12:29:25Z</time>
      </trkpt>
      <trkpt lat="43.95349" lon="1.93237">
        <ele>177.357043</ele>
        <time>2026-08-29T12:29:26Z</time>
      </trkpt>
      <trkpt lat="43.95351" lon="1.93237">
        <ele>177.491443</ele>
        <time>2026-08-29T12:29:27Z</time>
      </trkpt>
      <trkpt lat="43.95352" lon="1.93238">
        <ele>177.625843</ele>
        <time>2026-08-29T12:29:28Z</time>
      </trkpt>
      <trkpt lat="43.95354" lon="1.93238">
        <ele>177.763142</ele>
        <time>2026-08-29T12:29:29Z</time>
      </trkpt>
      <trkpt lat="43.95356" lon="1.93238">
        <ele>177.899468</ele>
        <time>2026-08-29T12:29:30Z</time>
      </trkpt>
      <trkpt lat="43.95358" lon="1.93239">
        <ele>178.046539</ele>
        <time>2026-08-29T12:29:31Z</time>
      </trkpt>
      <trkpt lat="43.95359" lon="1.93239">
        <ele>178.183231</ele>
        <time>2026-08-29T12:29:32Z</time>
      </trkpt>
      <trkpt lat="43.95361" lon="1.93239">
        <ele>178.359495</ele>
        <time>2026-08-29T12:29:33Z</time>
      </trkpt>
      <trkpt lat="43.95363" lon="1.93239">
        <ele>178.48187</ele>
        <time>2026-08-29T12:29:34Z</time>
      </trkpt>
      <trkpt lat="43.95365" lon="1.9324">
        <ele>178.621093</ele>
        <time>2026-08-29T12:29:35Z</time>
      </trkpt>
      <trkpt lat="43.95366" lon="1.9324">
        <ele>178.736909</ele>
        <time>2026-08-29T12:29:36Z</time>
      </trkpt>
      <trkpt lat="43.95367" lon="1.93241">
        <ele>178.835783</ele>
        <time>2026-08-29T12:29:37Z</time>
      </trkpt>
      <trkpt lat="43.95368" lon="1.93241">
        <ele>178.934656</ele>
        <time>2026-08-29T12:29:38Z</time>
      </trkpt>
      <trkpt lat="43.9537" lon="1.93242">
        <ele>179.049173</ele>
        <time>2026-08-29T12:29:39Z</time>
      </trkpt>
      <trkpt lat="43.95371" lon="1.93242">
        <ele>179.164989</ele>
        <time>2026-08-29T12:29:40Z</time>
      </trkpt>
      <trkpt lat="43.95373" lon="1.93242">
        <ele>179.279505</ele>
        <time>2026-08-29T12:29:41Z</time>
      </trkpt>
      <trkpt lat="43.95374" lon="1.93243">
        <ele>179.391213</ele>
        <time>2026-08-29T12:29:42Z</time>
      </trkpt>
      <trkpt lat="43.95375" lon="1.93244">
        <ele>179.500968</ele>
        <time>2026-08-29T12:29:43Z</time>
      </trkpt>
      <trkpt lat="43.95377" lon="1.93245">
        <ele>179.637211</ele>
        <time>2026-08-29T12:29:44Z</time>
      </trkpt>
      <trkpt lat="43.95378" lon="1.93245">
        <ele>179.749971</ele>
        <time>2026-08-29T12:29:45Z</time>
      </trkpt>
      <trkpt lat="43.9538" lon="1.93245">
        <ele>179.856652</ele>
        <time>2026-08-29T12:29:46Z</time>
      </trkpt>
      <trkpt lat="43.95381" lon="1.93246">
        <ele>179.966407</ele>
        <time>2026-08-29T12:29:47Z</time>
      </trkpt>
      <trkpt lat="43.95382" lon="1.93246">
        <ele>180.07199</ele>
        <time>2026-08-29T12:29:48Z</time>
      </trkpt>
      <trkpt lat="43.95383" lon="1.93246">
        <ele>180.163092</ele>
        <time>2026-08-29T12:29:49Z</time>
      </trkpt>
      <trkpt lat="43.95385" lon="1.93247">
        <ele>180.282305</ele>
        <time>2026-08-29T12:29:50Z</time>
      </trkpt>
      <trkpt lat="43.95386" lon="1.93248">
        <ele>180.394423</ele>
        <time>2026-08-29T12:29:51Z</time>
      </trkpt>
      <trkpt lat="43.95387" lon="1.93249">
        <ele>180.498701</ele>
        <time>2026-08-29T12:29:52Z</time>
      </trkpt>
      <trkpt lat="43.95388" lon="1.9325">
        <ele>180.602978</ele>
        <time>2026-08-29T12:29:53Z</time>
      </trkpt>
      <trkpt lat="43.95389" lon="1.9325">
        <ele>180.703355</ele>
        <time>2026-08-29T12:29:54Z</time>
      </trkpt>
      <trkpt lat="43.95391" lon="1.9325">
        <ele>180.799499</ele>
        <time>2026-08-29T12:29:55Z</time>
      </trkpt>
      <trkpt lat="43.95392" lon="1.9325">
        <ele>180.919817</ele>
        <time>2026-08-29T12:29:56Z</time>
      </trkpt>
      <trkpt lat="43.95393" lon="1.93251">
        <ele>181.029572</ele>
        <time>2026-08-29T12:29:57Z</time>
      </trkpt>
      <trkpt lat="43.95395" lon="1.93251">
        <ele>181.144088</ele>
        <time>2026-08-29T12:29:58Z</time>
      </trkpt>
      <trkpt lat="43.95396" lon="1.93251">
        <ele>181.248881</ele>
        <time>2026-08-29T12:29:59Z</time>
      </trkpt>
      <trkpt lat="43.95398" lon="1.93252">
        <ele>181.363397</ele>
        <time>2026-08-29T12:30:00Z</time>
      </trkpt>
      <trkpt lat="43.95399" lon="1.93252">
        <ele>181.477913</ele>
        <time>2026-08-29T12:30:01Z</time>
      </trkpt>
      <trkpt lat="43.954" lon="1.93253">
        <ele>181.591833</ele>
        <time>2026-08-29T12:30:02Z</time>
      </trkpt>
      <trkpt lat="43.95402" lon="1.93253">
        <ele>181.723229</ele>
        <time>2026-08-29T12:30:03Z</time>
      </trkpt>
      <trkpt lat="43.95403" lon="1.93254">
        <ele>181.845603</ele>
        <time>2026-08-29T12:30:04Z</time>
      </trkpt>
      <trkpt lat="43.95405" lon="1.93254">
        <ele>181.959098</ele>
        <time>2026-08-29T12:30:05Z</time>
      </trkpt>
      <trkpt lat="43.95406" lon="1.93254">
        <ele>182.064682</ele>
        <time>2026-08-29T12:30:06Z</time>
      </trkpt>
      <trkpt lat="43.95408" lon="1.93254">
        <ele>182.209013</ele>
        <time>2026-08-29T12:30:07Z</time>
      </trkpt>
      <trkpt lat="43.95409" lon="1.93255">
        <ele>182.321773</ele>
        <time>2026-08-29T12:30:08Z</time>
      </trkpt>
      <trkpt lat="43.95411" lon="1.93255">
        <ele>182.426566</ele>
        <time>2026-08-29T12:30:09Z</time>
      </trkpt>
      <trkpt lat="43.95412" lon="1.93255">
        <ele>182.54006</ele>
        <time>2026-08-29T12:30:10Z</time>
      </trkpt>
      <trkpt lat="43.95413" lon="1.93256">
        <ele>182.640437</ele>
        <time>2026-08-29T12:30:11Z</time>
      </trkpt>
      <trkpt lat="43.95414" lon="1.93256">
        <ele>182.740813</ele>
        <time>2026-08-29T12:30:12Z</time>
      </trkpt>
      <trkpt lat="43.95416" lon="1.93257">
        <ele>182.841189</ele>
        <time>2026-08-29T12:30:13Z</time>
      </trkpt>
      <trkpt lat="43.95417" lon="1.93257">
        <ele>182.941565</ele>
        <time>2026-08-29T12:30:14Z</time>
      </trkpt>
      <trkpt lat="43.95418" lon="1.93258">
        <ele>183.05132</ele>
        <time>2026-08-29T12:30:15Z</time>
      </trkpt>
      <trkpt lat="43.95419" lon="1.93258">
        <ele>183.141134</ele>
        <time>2026-08-29T12:30:16Z</time>
      </trkpt>
      <trkpt lat="43.9542" lon="1.93258">
        <ele>183.245927</ele>
        <time>2026-08-29T12:30:17Z</time>
      </trkpt>
      <trkpt lat="43.95422" lon="1.93258">
        <ele>183.343616</ele>
        <time>2026-08-29T12:30:18Z</time>
      </trkpt>
      <trkpt lat="43.95423" lon="1.93259">
        <ele>183.441305</ele>
        <time>2026-08-29T12:30:19Z</time>
      </trkpt>
      <trkpt lat="43.95424" lon="1.9326">
        <ele>183.555224</ele>
        <time>2026-08-29T12:30:20Z</time>
      </trkpt>
      <trkpt lat="43.95426" lon="1.9326">
        <ele>183.677598</ele>
        <time>2026-08-29T12:30:21Z</time>
      </trkpt>
      <trkpt lat="43.95427" lon="1.93261">
        <ele>183.791518</ele>
        <time>2026-08-29T12:30:22Z</time>
      </trkpt>
      <trkpt lat="43.95428" lon="1.93261">
        <ele>183.91511</ele>
        <time>2026-08-29T12:30:23Z</time>
      </trkpt>
      <trkpt lat="43.9543" lon="1.93262">
        <ele>184.04189</ele>
        <time>2026-08-29T12:30:24Z</time>
      </trkpt>
      <trkpt lat="43.95431" lon="1.93262">
        <ele>184.15465</ele>
        <time>2026-08-29T12:30:25Z</time>
      </trkpt>
      <trkpt lat="43.95432" lon="1.93263">
        <ele>184.245752</ele>
        <time>2026-08-29T12:30:26Z</time>
      </trkpt>
      <trkpt lat="43.95434" lon="1.93263">
        <ele>184.368126</ele>
        <time>2026-08-29T12:30:27Z</time>
      </trkpt>
      <trkpt lat="43.95435" lon="1.93263">
        <ele>184.491718</ele>
        <time>2026-08-29T12:30:28Z</time>
      </trkpt>
      <trkpt lat="43.95437" lon="1.93264">
        <ele>184.62841</ele>
        <time>2026-08-29T12:30:29Z</time>
      </trkpt>
      <trkpt lat="43.95439" lon="1.93264">
        <ele>184.764736</ele>
        <time>2026-08-29T12:30:30Z</time>
      </trkpt>
      <trkpt lat="43.9544" lon="1.93264">
        <ele>184.862425</ele>
        <time>2026-08-29T12:30:31Z</time>
      </trkpt>
      <trkpt lat="43.95441" lon="1.93265">
        <ele>184.962801</ele>
        <time>2026-08-29T12:30:32Z</time>
      </trkpt>
      <trkpt lat="43.95442" lon="1.93265">
        <ele>185.057484</ele>
        <time>2026-08-29T12:30:33Z</time>
      </trkpt>
      <trkpt lat="43.95444" lon="1.93266">
        <ele>185.164164</ele>
        <time>2026-08-29T12:30:34Z</time>
      </trkpt>
      <trkpt lat="43.95445" lon="1.93266">
        <ele>185.268957</ele>
        <time>2026-08-29T12:30:35Z</time>
      </trkpt>
      <trkpt lat="43.95446" lon="1.93266">
        <ele>185.357278</ele>
        <time>2026-08-29T12:30:36Z</time>
      </trkpt>
      <trkpt lat="43.95447" lon="1.93266">
        <ele>185.462071</ele>
        <time>2026-08-29T12:30:37Z</time>
      </trkpt>
      <trkpt lat="43.95449" lon="1.93266">
        <ele>185.579456</ele>
        <time>2026-08-29T12:30:38Z</time>
      </trkpt>
      <trkpt lat="43.9545" lon="1.93267">
        <ele>185.679832</ele>
        <time>2026-08-29T12:30:39Z</time>
      </trkpt>
      <trkpt lat="43.95451" lon="1.93268">
        <ele>185.788601</ele>
        <time>2026-08-29T12:30:40Z</time>
      </trkpt>
      <trkpt lat="43.95453" lon="1.93268">
        <ele>185.895682</ele>
        <time>2026-08-29T12:30:41Z</time>
      </trkpt>
      <trkpt lat="43.95454" lon="1.93269">
        <ele>186.015075</ele>
        <time>2026-08-29T12:30:42Z</time>
      </trkpt>
      <trkpt lat="43.95456" lon="1.93269">
        <ele>186.137092</ele>
        <time>2026-08-29T12:30:43Z</time>
      </trkpt>
      <trkpt lat="43.95457" lon="1.9327">
        <ele>186.250087</ele>
        <time>2026-08-29T12:30:44Z</time>
      </trkpt>
      <trkpt lat="43.95458" lon="1.93271">
        <ele>186.37781</ele>
        <time>2026-08-29T12:30:45Z</time>
      </trkpt>
      <trkpt lat="43.9546" lon="1.93271">
        <ele>186.484891</ele>
        <time>2026-08-29T12:30:46Z</time>
      </trkpt>
      <trkpt lat="43.95461" lon="1.93272">
        <ele>186.591972</ele>
        <time>2026-08-29T12:30:47Z</time>
      </trkpt>
      <trkpt lat="43.95463" lon="1.93272">
        <ele>186.715664</ele>
        <time>2026-08-29T12:30:48Z</time>
      </trkpt>
      <trkpt lat="43.95464" lon="1.93273">
        <ele>186.843387</ele>
        <time>2026-08-29T12:30:49Z</time>
      </trkpt>
      <trkpt lat="43.95465" lon="1.93274">
        <ele>186.969116</ele>
        <time>2026-08-29T12:30:50Z</time>
      </trkpt>
      <trkpt lat="43.95467" lon="1.93276">
        <ele>187.101704</ele>
        <time>2026-08-29T12:30:51Z</time>
      </trkpt>
      <trkpt lat="43.95468" lon="1.93276">
        <ele>187.191909</ele>
        <time>2026-08-29T12:30:52Z</time>
      </trkpt>
      <trkpt lat="43.95469" lon="1.93277">
        <ele>187.303053</ele>
        <time>2026-08-29T12:30:53Z</time>
      </trkpt>
      <trkpt lat="43.95471" lon="1.93278">
        <ele>187.416048</ele>
        <time>2026-08-29T12:30:54Z</time>
      </trkpt>
      <trkpt lat="43.95472" lon="1.93278">
        <ele>187.538065</ele>
        <time>2026-08-29T12:30:55Z</time>
      </trkpt>
      <trkpt lat="43.95474" lon="1.93279">
        <ele>187.673372</ele>
        <time>2026-08-29T12:30:56Z</time>
      </trkpt>
      <trkpt lat="43.95475" lon="1.93281">
        <ele>187.815506</ele>
        <time>2026-08-29T12:30:57Z</time>
      </trkpt>
      <trkpt lat="43.95477" lon="1.93282">
        <ele>187.931666</ele>
        <time>2026-08-29T12:30:58Z</time>
      </trkpt>
      <trkpt lat="43.95478" lon="1.93283">
        <ele>188.073875</ele>
        <time>2026-08-29T12:30:59Z</time>
      </trkpt>
      <trkpt lat="43.9548" lon="1.93283">
        <ele>188.223416</ele>
        <time>2026-08-29T12:31:00Z</time>
      </trkpt>
      <trkpt lat="43.95481" lon="1.93285">
        <ele>188.349144</ele>
        <time>2026-08-29T12:31:01Z</time>
      </trkpt>
      <trkpt lat="43.95483" lon="1.93286">
        <ele>188.491279</ele>
        <time>2026-08-29T12:31:02Z</time>
      </trkpt>
      <trkpt lat="43.95485" lon="1.93287">
        <ele>188.635589</ele>
        <time>2026-08-29T12:31:03Z</time>
      </trkpt>
      <trkpt lat="43.95486" lon="1.93288">
        <ele>188.777723</ele>
        <time>2026-08-29T12:31:04Z</time>
      </trkpt>
      <trkpt lat="43.95488" lon="1.93289">
        <ele>188.91303</ele>
        <time>2026-08-29T12:31:05Z</time>
      </trkpt>
      <trkpt lat="43.95489" lon="1.9329">
        <ele>189.044665</ele>
        <time>2026-08-29T12:31:06Z</time>
      </trkpt>
      <trkpt lat="43.9549" lon="1.93292">
        <ele>189.160245</ele>
        <time>2026-08-29T12:31:07Z</time>
      </trkpt>
      <trkpt lat="43.95492" lon="1.93293">
        <ele>189.282254</ele>
        <time>2026-08-29T12:31:08Z</time>
      </trkpt>
      <trkpt lat="43.95493" lon="1.93294">
        <ele>189.391585</ele>
        <time>2026-08-29T12:31:09Z</time>
      </trkpt>
      <trkpt lat="43.95494" lon="1.93295">
        <ele>189.513594</ele>
        <time>2026-08-29T12:31:10Z</time>
      </trkpt>
      <trkpt lat="43.95496" lon="1.93296">
        <ele>189.642187</ele>
        <time>2026-08-29T12:31:11Z</time>
      </trkpt>
      <trkpt lat="43.95497" lon="1.93297">
        <ele>189.765242</ele>
        <time>2026-08-29T12:31:12Z</time>
      </trkpt>
      <trkpt lat="43.95498" lon="1.93298">
        <ele>189.881402</ele>
        <time>2026-08-29T12:31:13Z</time>
      </trkpt>
      <trkpt lat="43.955" lon="1.933">
        <ele>190.016245</ele>
        <time>2026-08-29T12:31:14Z</time>
      </trkpt>
      <trkpt lat="43.95501" lon="1.93301">
        <ele>190.147879</ele>
        <time>2026-08-29T12:31:15Z</time>
      </trkpt>
      <trkpt lat="43.95503" lon="1.93302">
        <ele>190.292772</ele>
        <time>2026-08-29T12:31:16Z</time>
      </trkpt>
      <trkpt lat="43.95504" lon="1.93304">
        <ele>190.454028</ele>
        <time>2026-08-29T12:31:17Z</time>
      </trkpt>
      <trkpt lat="43.95506" lon="1.93305">
        <ele>190.601842</ele>
        <time>2026-08-29T12:31:18Z</time>
      </trkpt>
      <trkpt lat="43.95508" lon="1.93307">
        <ele>190.746316</ele>
        <time>2026-08-29T12:31:19Z</time>
      </trkpt>
      <trkpt lat="43.95509" lon="1.93308">
        <ele>190.887577</ele>
        <time>2026-08-29T12:31:20Z</time>
      </trkpt>
      <trkpt lat="43.95511" lon="1.93309">
        <ele>191.025778</ele>
        <time>2026-08-29T12:31:21Z</time>
      </trkpt>
      <trkpt lat="43.95512" lon="1.93311">
        <ele>191.167039</ele>
        <time>2026-08-29T12:31:22Z</time>
      </trkpt>
      <trkpt lat="43.95513" lon="1.93313">
        <ele>191.305091</ele>
        <time>2026-08-29T12:31:23Z</time>
      </trkpt>
      <trkpt lat="43.95515" lon="1.93314">
        <ele>191.449566</ele>
        <time>2026-08-29T12:31:24Z</time>
      </trkpt>
      <trkpt lat="43.95516" lon="1.93316">
        <ele>191.604049</ele>
        <time>2026-08-29T12:31:25Z</time>
      </trkpt>
      <trkpt lat="43.95518" lon="1.93317">
        <ele>191.748524</ele>
        <time>2026-08-29T12:31:26Z</time>
      </trkpt>
      <trkpt lat="43.9552" lon="1.93318">
        <ele>191.890658</ele>
        <time>2026-08-29T12:31:27Z</time>
      </trkpt>
      <trkpt lat="43.95521" lon="1.9332">
        <ele>192.025501</ele>
        <time>2026-08-29T12:31:28Z</time>
      </trkpt>
      <trkpt lat="43.95522" lon="1.93321">
        <ele>192.160344</ele>
        <time>2026-08-29T12:31:29Z</time>
      </trkpt>
      <trkpt lat="43.95524" lon="1.93323">
        <ele>192.305697</ele>
        <time>2026-08-29T12:31:30Z</time>
      </trkpt>
      <trkpt lat="43.95525" lon="1.93325">
        <ele>192.458691</ele>
        <time>2026-08-29T12:31:31Z</time>
      </trkpt>
      <trkpt lat="43.95527" lon="1.93326">
        <ele>192.604044</ele>
        <time>2026-08-29T12:31:32Z</time>
      </trkpt>
      <trkpt lat="43.95528" lon="1.93328">
        <ele>192.751877</ele>
        <time>2026-08-29T12:31:33Z</time>
      </trkpt>
      <trkpt lat="43.95529" lon="1.93329">
        <ele>192.890082</ele>
        <time>2026-08-29T12:31:34Z</time>
      </trkpt>
      <trkpt lat="43.95531" lon="1.93331">
        <ele>193.029631</ele>
        <time>2026-08-29T12:31:35Z</time>
      </trkpt>
      <trkpt lat="43.95532" lon="1.93332">
        <ele>193.158223</ele>
        <time>2026-08-29T12:31:36Z</time>
      </trkpt>
      <trkpt lat="43.95534" lon="1.93333">
        <ele>193.274382</ele>
        <time>2026-08-29T12:31:37Z</time>
      </trkpt>
      <trkpt lat="43.95535" lon="1.93334">
        <ele>193.400111</ele>
        <time>2026-08-29T12:31:38Z</time>
      </trkpt>
      <trkpt lat="43.95537" lon="1.93335">
        <ele>193.544585</ele>
        <time>2026-08-29T12:31:39Z</time>
      </trkpt>
      <trkpt lat="43.95538" lon="1.93337">
        <ele>193.695472</ele>
        <time>2026-08-29T12:31:40Z</time>
      </trkpt>
      <trkpt lat="43.9554" lon="1.93338">
        <ele>193.837607</ele>
        <time>2026-08-29T12:31:41Z</time>
      </trkpt>
      <trkpt lat="43.95542" lon="1.9334">
        <ele>194.001686</ele>
        <time>2026-08-29T12:31:42Z</time>
      </trkpt>
      <trkpt lat="43.95543" lon="1.93341">
        <ele>194.162943</ele>
        <time>2026-08-29T12:31:43Z</time>
      </trkpt>
      <trkpt lat="43.95545" lon="1.93342">
        <ele>194.321526</ele>
        <time>2026-08-29T12:31:44Z</time>
      </trkpt>
      <trkpt lat="43.95547" lon="1.93343">
        <ele>194.477594</ele>
        <time>2026-08-29T12:31:45Z</time>
      </trkpt>
      <trkpt lat="43.95549" lon="1.93345">
        <ele>194.624189</ele>
        <time>2026-08-29T12:31:46Z</time>
      </trkpt>
      <trkpt lat="43.95551" lon="1.93346">
        <ele>194.794486</ele>
        <time>2026-08-29T12:31:47Z</time>
      </trkpt>
      <trkpt lat="43.95553" lon="1.93347">
        <ele>194.946024</ele>
        <time>2026-08-29T12:31:48Z</time>
      </trkpt>
      <trkpt lat="43.95554" lon="1.93348">
        <ele>195.090333</ele>
        <time>2026-08-29T12:31:49Z</time>
      </trkpt>
      <trkpt lat="43.95556" lon="1.93349">
        <ele>195.215931</ele>
        <time>2026-08-29T12:31:50Z</time>
      </trkpt>
      <trkpt lat="43.95557" lon="1.9335">
        <ele>195.345987</ele>
        <time>2026-08-29T12:31:51Z</time>
      </trkpt>
      <trkpt lat="43.95559" lon="1.9335">
        <ele>195.471584</ele>
        <time>2026-08-29T12:31:52Z</time>
      </trkpt>
      <trkpt lat="43.9556" lon="1.93351">
        <ele>195.615894</ele>
        <time>2026-08-29T12:31:53Z</time>
      </trkpt>
      <trkpt lat="43.95562" lon="1.93353">
        <ele>195.760786</ele>
        <time>2026-08-29T12:31:54Z</time>
      </trkpt>
      <trkpt lat="43.95564" lon="1.93353">
        <ele>195.891912</ele>
        <time>2026-08-29T12:31:55Z</time>
      </trkpt>
      <trkpt lat="43.95565" lon="1.93354">
        <ele>196.021968</ele>
        <time>2026-08-29T12:31:56Z</time>
      </trkpt>
      <trkpt lat="43.95567" lon="1.93355">
        <ele>196.173506</ele>
        <time>2026-08-29T12:31:57Z</time>
      </trkpt>
      <trkpt lat="43.95568" lon="1.93356">
        <ele>196.296562</ele>
        <time>2026-08-29T12:31:58Z</time>
      </trkpt>
      <trkpt lat="43.9557" lon="1.93357">
        <ele>196.438771</ele>
        <time>2026-08-29T12:31:59Z</time>
      </trkpt>
      <trkpt lat="43.95572" lon="1.93358">
        <ele>196.603106</ele>
        <time>2026-08-29T12:32:00Z</time>
      </trkpt>
      <trkpt lat="43.95574" lon="1.93359">
        <ele>196.760023</ele>
        <time>2026-08-29T12:32:01Z</time>
      </trkpt>
      <trkpt lat="43.95576" lon="1.9336">
        <ele>196.921246</ele>
        <time>2026-08-29T12:32:02Z</time>
      </trkpt>
      <trkpt lat="43.95578" lon="1.93361">
        <ele>197.072784</ele>
        <time>2026-08-29T12:32:03Z</time>
      </trkpt>
      <trkpt lat="43.9558" lon="1.93361">
        <ele>197.218897</ele>
        <time>2026-08-29T12:32:04Z</time>
      </trkpt>
      <trkpt lat="43.95581" lon="1.93363">
        <ele>197.372613</ele>
        <time>2026-08-29T12:32:05Z</time>
      </trkpt>
      <trkpt lat="43.95583" lon="1.93364">
        <ele>197.527096</ele>
        <time>2026-08-29T12:32:06Z</time>
      </trkpt>
      <trkpt lat="43.95585" lon="1.93365">
        <ele>197.695241</ele>
        <time>2026-08-29T12:32:07Z</time>
      </trkpt>
      <trkpt lat="43.95587" lon="1.93366">
        <ele>197.865455</ele>
        <time>2026-08-29T12:32:08Z</time>
      </trkpt>
      <trkpt lat="43.95589" lon="1.93367">
        <ele>198.022372</ele>
        <time>2026-08-29T12:32:09Z</time>
      </trkpt>
      <trkpt lat="43.95591" lon="1.93368">
        <ele>198.201645</ele>
        <time>2026-08-29T12:32:10Z</time>
      </trkpt>
      <trkpt lat="43.95593" lon="1.93368">
        <ele>198.379409</ele>
        <time>2026-08-29T12:32:11Z</time>
      </trkpt>
      <trkpt lat="43.95596" lon="1.93369">
        <ele>198.566193</ele>
        <time>2026-08-29T12:32:12Z</time>
      </trkpt>
      <trkpt lat="43.95598" lon="1.9337">
        <ele>198.741447</ele>
        <time>2026-08-29T12:32:13Z</time>
      </trkpt>
      <trkpt lat="43.956" lon="1.9337">
        <ele>198.907994</ele>
        <time>2026-08-29T12:32:14Z</time>
      </trkpt>
      <trkpt lat="43.95602" lon="1.93371">
        <ele>199.079782</ele>
        <time>2026-08-29T12:32:15Z</time>
      </trkpt>
      <trkpt lat="43.95604" lon="1.93372">
        <ele>199.23863</ele>
        <time>2026-08-29T12:32:16Z</time>
      </trkpt>
      <trkpt lat="43.95606" lon="1.93372">
        <ele>199.396579</ele>
        <time>2026-08-29T12:32:17Z</time>
      </trkpt>
      <trkpt lat="43.95608" lon="1.93373">
        <ele>199.546055</ele>
        <time>2026-08-29T12:32:18Z</time>
      </trkpt>
      <trkpt lat="43.9561" lon="1.93373">
        <ele>199.710594</ele>
        <time>2026-08-29T12:32:19Z</time>
      </trkpt>
      <trkpt lat="43.95612" lon="1.93373">
        <ele>199.858062</ele>
        <time>2026-08-29T12:32:20Z</time>
      </trkpt>
      <trkpt lat="43.95614" lon="1.93374">
        <ele>200.004405</ele>
        <time>2026-08-29T12:32:21Z</time>
      </trkpt>
      <trkpt lat="43.95616" lon="1.93374">
        <ele>200.16543</ele>
        <time>2026-08-29T12:32:22Z</time>
      </trkpt>
      <trkpt lat="43.95618" lon="1.93375">
        <ele>200.338935</ele>
        <time>2026-08-29T12:32:23Z</time>
      </trkpt>
      <trkpt lat="43.95621" lon="1.93375">
        <ele>200.513783</ele>
        <time>2026-08-29T12:32:24Z</time>
      </trkpt>
      <trkpt lat="43.95623" lon="1.93375">
        <ele>200.679811</ele>
        <time>2026-08-29T12:32:25Z</time>
      </trkpt>
      <trkpt lat="43.95625" lon="1.93376">
        <ele>200.830898</ele>
        <time>2026-08-29T12:32:26Z</time>
      </trkpt>
      <trkpt lat="43.95627" lon="1.93376">
        <ele>200.973702</ele>
        <time>2026-08-29T12:32:27Z</time>
      </trkpt>
      <trkpt lat="43.95629" lon="1.93375">
        <ele>201.116507</ele>
        <time>2026-08-29T12:32:28Z</time>
      </trkpt>
      <trkpt lat="43.9563" lon="1.93376">
        <ele>201.244645</ele>
        <time>2026-08-29T12:32:29Z</time>
      </trkpt>
      <trkpt lat="43.95632" lon="1.93376">
        <ele>201.383675</ele>
        <time>2026-08-29T12:32:30Z</time>
      </trkpt>
      <trkpt lat="43.95634" lon="1.93376">
        <ele>201.552064</ele>
        <time>2026-08-29T12:32:31Z</time>
      </trkpt>
      <trkpt lat="43.95636" lon="1.93375">
        <ele>201.692453</ele>
        <time>2026-08-29T12:32:32Z</time>
      </trkpt>
      <trkpt lat="43.95638" lon="1.93375">
        <ele>201.866547</ele>
        <time>2026-08-29T12:32:33Z</time>
      </trkpt>
      <trkpt lat="43.95641" lon="1.93374">
        <ele>202.044624</ele>
        <time>2026-08-29T12:32:34Z</time>
      </trkpt>
      <trkpt lat="43.95642" lon="1.93373">
        <ele>202.169097</ele>
        <time>2026-08-29T12:32:35Z</time>
      </trkpt>
      <trkpt lat="43.95644" lon="1.93372">
        <ele>202.324004</ele>
        <time>2026-08-29T12:32:36Z</time>
      </trkpt>
      <trkpt lat="43.95646" lon="1.93372">
        <ele>202.47164</ele>
        <time>2026-08-29T12:32:37Z</time>
      </trkpt>
      <trkpt lat="43.95648" lon="1.93371">
        <ele>202.619276</ele>
        <time>2026-08-29T12:32:38Z</time>
      </trkpt>
      <trkpt lat="43.9565" lon="1.9337">
        <ele>202.741995</ele>
        <time>2026-08-29T12:32:39Z</time>
      </trkpt>
      <trkpt lat="43.95651" lon="1.93369">
        <ele>202.878635</ele>
        <time>2026-08-29T12:32:40Z</time>
      </trkpt>
      <trkpt lat="43.95653" lon="1.93368">
        <ele>203.042772</ele>
        <time>2026-08-29T12:32:41Z</time>
      </trkpt>
      <trkpt lat="43.95655" lon="1.93366">
        <ele>203.197712</ele>
        <time>2026-08-29T12:32:42Z</time>
      </trkpt>
      <trkpt lat="43.95657" lon="1.93365">
        <ele>203.349003</ele>
        <time>2026-08-29T12:32:43Z</time>
      </trkpt>
      <trkpt lat="43.95658" lon="1.93363">
        <ele>203.503943</ele>
        <time>2026-08-29T12:32:44Z</time>
      </trkpt>
      <trkpt lat="43.9566" lon="1.93361">
        <ele>203.669268</ele>
        <time>2026-08-29T12:32:45Z</time>
      </trkpt>
      <trkpt lat="43.95662" lon="1.93359">
        <ele>203.833143</ele>
        <time>2026-08-29T12:32:46Z</time>
      </trkpt>
      <trkpt lat="43.95663" lon="1.93358">
        <ele>203.96887</ele>
        <time>2026-08-29T12:32:47Z</time>
      </trkpt>
      <trkpt lat="43.95665" lon="1.93357">
        <ele>204.089673</ele>
        <time>2026-08-29T12:32:48Z</time>
      </trkpt>
      <trkpt lat="43.95666" lon="1.93356">
        <ele>204.194774</ele>
        <time>2026-08-29T12:32:49Z</time>
      </trkpt>
      <trkpt lat="43.95667" lon="1.93355">
        <ele>204.287317</ele>
        <time>2026-08-29T12:32:50Z</time>
      </trkpt>
      <trkpt lat="43.95668" lon="1.93353">
        <ele>204.395787</ele>
        <time>2026-08-29T12:32:51Z</time>
      </trkpt>
      <trkpt lat="43.95669" lon="1.93352">
        <ele>204.510082</ele>
        <time>2026-08-29T12:32:52Z</time>
      </trkpt>
      <trkpt lat="43.95671" lon="1.93351">
        <ele>204.621835</ele>
        <time>2026-08-29T12:32:53Z</time>
      </trkpt>
      <trkpt lat="43.95672" lon="1.93351">
        <ele>204.724259</ele>
        <time>2026-08-29T12:32:54Z</time>
      </trkpt>
      <trkpt lat="43.95673" lon="1.9335">
        <ele>204.835868</ele>
        <time>2026-08-29T12:32:55Z</time>
      </trkpt>
      <trkpt lat="43.95675" lon="1.93348">
        <ele>204.974682</ele>
        <time>2026-08-29T12:32:56Z</time>
      </trkpt>
      <trkpt lat="43.95676" lon="1.93346">
        <ele>205.112539</ele>
        <time>2026-08-29T12:32:57Z</time>
      </trkpt>
      <trkpt lat="43.95677" lon="1.93345">
        <ele>205.236093</ele>
        <time>2026-08-29T12:32:58Z</time>
      </trkpt>
      <trkpt lat="43.95679" lon="1.93344">
        <ele>205.370175</ele>
        <time>2026-08-29T12:32:59Z</time>
      </trkpt>
      <trkpt lat="43.9568" lon="1.93343">
        <ele>205.495137</ele>
        <time>2026-08-29T12:33:00Z</time>
      </trkpt>
      <trkpt lat="43.95682" lon="1.93342">
        <ele>205.62691</ele>
        <time>2026-08-29T12:33:01Z</time>
      </trkpt>
      <trkpt lat="43.95683" lon="1.9334">
        <ele>205.74653</ele>
        <time>2026-08-29T12:33:02Z</time>
      </trkpt>
      <trkpt lat="43.95685" lon="1.93339">
        <ele>205.910155</ele>
        <time>2026-08-29T12:33:03Z</time>
      </trkpt>
      <trkpt lat="43.95687" lon="1.93338">
        <ele>206.045882</ele>
        <time>2026-08-29T12:33:04Z</time>
      </trkpt>
      <trkpt lat="43.95688" lon="1.93337">
        <ele>206.169436</ele>
        <time>2026-08-29T12:33:05Z</time>
      </trkpt>
      <trkpt lat="43.95689" lon="1.93336">
        <ele>206.285294</ele>
        <time>2026-08-29T12:33:06Z</time>
      </trkpt>
      <trkpt lat="43.95691" lon="1.93336">
        <ele>206.393863</ele>
        <time>2026-08-29T12:33:07Z</time>
      </trkpt>
      <trkpt lat="43.95692" lon="1.93336">
        <ele>206.491501</ele>
        <time>2026-08-29T12:33:08Z</time>
      </trkpt>
      <trkpt lat="43.95694" lon="1.93335">
        <ele>206.612157</ele>
        <time>2026-08-29T12:33:09Z</time>
      </trkpt>
      <trkpt lat="43.95695" lon="1.93336">
        <ele>206.708039</ele>
        <time>2026-08-29T12:33:10Z</time>
      </trkpt>
      <trkpt lat="43.95697" lon="1.93337">
        <ele>206.847069</ele>
        <time>2026-08-29T12:33:11Z</time>
      </trkpt>
      <trkpt lat="43.95698" lon="1.93338">
        <ele>206.980241</ele>
        <time>2026-08-29T12:33:12Z</time>
      </trkpt>
      <trkpt lat="43.957" lon="1.93339">
        <ele>207.114323</ele>
        <time>2026-08-29T12:33:13Z</time>
      </trkpt>
      <trkpt lat="43.95702" lon="1.9334">
        <ele>207.275881</ele>
        <time>2026-08-29T12:33:14Z</time>
      </trkpt>
      <trkpt lat="43.95703" lon="1.93342">
        <ele>207.43387</ele>
        <time>2026-08-29T12:33:15Z</time>
      </trkpt>
      <trkpt lat="43.95705" lon="1.93345">
        <ele>207.610726</ele>
        <time>2026-08-29T12:33:16Z</time>
      </trkpt>
      <trkpt lat="43.95706" lon="1.93347">
        <ele>207.781469</ele>
        <time>2026-08-29T12:33:17Z</time>
      </trkpt>
      <trkpt lat="43.95707" lon="1.9335">
        <ele>207.931397</ele>
        <time>2026-08-29T12:33:18Z</time>
      </trkpt>
      <trkpt lat="43.95707" lon="1.93352">
        <ele>208.071402</ele>
        <time>2026-08-29T12:33:19Z</time>
      </trkpt>
      <trkpt lat="43.95708" lon="1.93355">
        <ele>208.211687</ele>
        <time>2026-08-29T12:33:20Z</time>
      </trkpt>
      <trkpt lat="43.95708" lon="1.93357">
        <ele>208.357189</ele>
        <time>2026-08-29T12:33:21Z</time>
      </trkpt>
      <trkpt lat="43.95709" lon="1.9336">
        <ele>208.497474</ele>
        <time>2026-08-29T12:33:22Z</time>
      </trkpt>
      <trkpt lat="43.95709" lon="1.93362">
        <ele>208.632848</ele>
        <time>2026-08-29T12:33:23Z</time>
      </trkpt>
      <trkpt lat="43.95709" lon="1.93365">
        <ele>208.758104</ele>
        <time>2026-08-29T12:33:24Z</time>
      </trkpt>
      <trkpt lat="43.95709" lon="1.93367">
        <ele>208.866237</ele>
        <time>2026-08-29T12:33:25Z</time>
      </trkpt>
      <trkpt lat="43.95709" lon="1.93369">
        <ele>208.97463</ele>
        <time>2026-08-29T12:33:26Z</time>
      </trkpt>
      <trkpt lat="43.95709" lon="1.93371">
        <ele>209.082762</ele>
        <time>2026-08-29T12:33:27Z</time>
      </trkpt>
      <trkpt lat="43.95709" lon="1.93373">
        <ele>209.19729</ele>
        <time>2026-08-29T12:33:28Z</time>
      </trkpt>
      <trkpt lat="43.95708" lon="1.93375">
        <ele>209.319971</ele>
        <time>2026-08-29T12:33:29Z</time>
      </trkpt>
      <trkpt lat="43.95708" lon="1.93377">
        <ele>209.447167</ele>
        <time>2026-08-29T12:33:30Z</time>
      </trkpt>
      <trkpt lat="43.95707" lon="1.93379">
        <ele>209.577066</ele>
        <time>2026-08-29T12:33:31Z</time>
      </trkpt>
      <trkpt lat="43.95707" lon="1.93381">
        <ele>209.689242</ele>
        <time>2026-08-29T12:33:32Z</time>
      </trkpt>
      <trkpt lat="43.95706" lon="1.93384">
        <ele>209.817172</ele>
        <time>2026-08-29T12:33:33Z</time>
      </trkpt>
      <trkpt lat="43.95706" lon="1.93386">
        <ele>209.950432</ele>
        <time>2026-08-29T12:33:34Z</time>
      </trkpt>
      <trkpt lat="43.95705" lon="1.93388">
        <ele>210.083692</ele>
        <time>2026-08-29T12:33:35Z</time>
      </trkpt>
      <trkpt lat="43.95704" lon="1.9339">
        <ele>210.213739</ele>
        <time>2026-08-29T12:33:36Z</time>
      </trkpt>
      <trkpt lat="43.95704" lon="1.93393">
        <ele>210.360489</ele>
        <time>2026-08-29T12:33:37Z</time>
      </trkpt>
      <trkpt lat="43.95705" lon="1.93395">
        <ele>210.498953</ele>
        <time>2026-08-29T12:33:38Z</time>
      </trkpt>
      <trkpt lat="43.95706" lon="1.93397">
        <ele>210.626207</ele>
        <time>2026-08-29T12:33:39Z</time>
      </trkpt>
      <trkpt lat="43.95708" lon="1.93398">
        <ele>210.780806</ele>
        <time>2026-08-29T12:33:40Z</time>
      </trkpt>
      <trkpt lat="43.95709" lon="1.93398">
        <ele>210.910306</ele>
        <time>2026-08-29T12:33:41Z</time>
      </trkpt>
      <trkpt lat="43.95711" lon="1.93397">
        <ele>211.019398</ele>
        <time>2026-08-29T12:33:42Z</time>
      </trkpt>
      <trkpt lat="43.95712" lon="1.93395">
        <ele>211.148126</ele>
        <time>2026-08-29T12:33:43Z</time>
      </trkpt>
      <trkpt lat="43.95713" lon="1.93394">
        <ele>211.280769</ele>
        <time>2026-08-29T12:33:44Z</time>
      </trkpt>
      <trkpt lat="43.95714" lon="1.93392">
        <ele>211.399465</ele>
        <time>2026-08-29T12:33:45Z</time>
      </trkpt>
      <trkpt lat="43.95715" lon="1.9339">
        <ele>211.532725</ele>
        <time>2026-08-29T12:33:46Z</time>
      </trkpt>
      <trkpt lat="43.95716" lon="1.93388">
        <ele>211.65643</ele>
        <time>2026-08-29T12:33:47Z</time>
      </trkpt>
      <trkpt lat="43.95716" lon="1.93385">
        <ele>211.793791</ele>
        <time>2026-08-29T12:33:48Z</time>
      </trkpt>
      <trkpt lat="43.95717" lon="1.93383">
        <ele>211.92369</ele>
        <time>2026-08-29T12:33:49Z</time>
      </trkpt>
      <trkpt lat="43.95717" lon="1.93381">
        <ele>212.053589</ele>
        <time>2026-08-29T12:33:50Z</time>
      </trkpt>
      <trkpt lat="43.95718" lon="1.93379">
        <ele>212.185726</ele>
        <time>2026-08-29T12:33:51Z</time>
      </trkpt>
      <trkpt lat="43.9572" lon="1.93378">
        <ele>212.31312</ele>
        <time>2026-08-29T12:33:52Z</time>
      </trkpt>
      <trkpt lat="43.95721" lon="1.93377">
        <ele>212.414432</ele>
        <time>2026-08-29T12:33:53Z</time>
      </trkpt>
      <trkpt lat="43.95722" lon="1.93377">
        <ele>212.528253</ele>
        <time>2026-08-29T12:33:54Z</time>
      </trkpt>
      <trkpt lat="43.95724" lon="1.93378">
        <ele>212.660026</ele>
        <time>2026-08-29T12:33:55Z</time>
      </trkpt>
      <trkpt lat="43.95725" lon="1.9338">
        <ele>212.788754</ele>
        <time>2026-08-29T12:33:56Z</time>
      </trkpt>
      <trkpt lat="43.95726" lon="1.93382">
        <ele>212.91595</ele>
        <time>2026-08-29T12:33:57Z</time>
      </trkpt>
      <trkpt lat="43.95726" lon="1.93384">
        <ele>213.035132</ele>
        <time>2026-08-29T12:33:58Z</time>
      </trkpt>
      <trkpt lat="43.95726" lon="1.93387">
        <ele>213.163061</ele>
        <time>2026-08-29T12:33:59Z</time>
      </trkpt>
      <trkpt lat="43.95727" lon="1.93389">
        <ele>213.295199</ele>
        <time>2026-08-29T12:34:00Z</time>
      </trkpt>
      <trkpt lat="43.95728" lon="1.93391">
        <ele>213.335369</ele>
        <time>2026-08-29T12:34:01Z</time>
      </trkpt>
      <trkpt lat="43.95728" lon="1.93392">
        <ele>213.355328</ele>
        <time>2026-08-29T12:34:02Z</time>
      </trkpt>
      <trkpt lat="43.95729" lon="1.93394">
        <ele>213.377195</ele>
        <time>2026-08-29T12:34:03Z</time>
      </trkpt>
      <trkpt lat="43.9573" lon="1.93396">
        <ele>213.39998</ele>
        <time>2026-08-29T12:34:04Z</time>
      </trkpt>
      <trkpt lat="43.95731" lon="1.93398">
        <ele>213.425776</ele>
        <time>2026-08-29T12:34:05Z</time>
      </trkpt>
      <trkpt lat="43.95732" lon="1.934">
        <ele>213.453246</ele>
        <time>2026-08-29T12:34:06Z</time>
      </trkpt>
      <trkpt lat="43.95733" lon="1.93402">
        <ele>213.481828</ele>
        <time>2026-08-29T12:34:07Z</time>
      </trkpt>
      <trkpt lat="43.95735" lon="1.93404">
        <ele>213.510719</ele>
        <time>2026-08-29T12:34:08Z</time>
      </trkpt>
      <trkpt lat="43.95737" lon="1.93406">
        <ele>213.541141</ele>
        <time>2026-08-29T12:34:09Z</time>
      </trkpt>
      <trkpt lat="43.95738" lon="1.93408">
        <ele>213.568613</ele>
        <time>2026-08-29T12:34:10Z</time>
      </trkpt>
      <trkpt lat="43.9574" lon="1.93409">
        <ele>213.597029</ele>
        <time>2026-08-29T12:34:11Z</time>
      </trkpt>
      <trkpt lat="43.95742" lon="1.9341">
        <ele>213.628971</ele>
        <time>2026-08-29T12:34:12Z</time>
      </trkpt>
      <trkpt lat="43.95744" lon="1.93411">
        <ele>213.663851</ele>
        <time>2026-08-29T12:34:13Z</time>
      </trkpt>
      <trkpt lat="43.95747" lon="1.93413">
        <ele>213.700013</ele>
        <time>2026-08-29T12:34:14Z</time>
      </trkpt>
      <trkpt lat="43.95749" lon="1.93414">
        <ele>213.733621</ele>
        <time>2026-08-29T12:34:15Z</time>
      </trkpt>
      <trkpt lat="43.95752" lon="1.93416">
        <ele>213.776712</ele>
        <time>2026-08-29T12:34:16Z</time>
      </trkpt>
      <trkpt lat="43.95754" lon="1.93418">
        <ele>213.81678</ele>
        <time>2026-08-29T12:34:17Z</time>
      </trkpt>
      <trkpt lat="43.95757" lon="1.93419">
        <ele>213.863462</ele>
        <time>2026-08-29T12:34:18Z</time>
      </trkpt>
      <trkpt lat="43.9576" lon="1.9342">
        <ele>213.904361</ele>
        <time>2026-08-29T12:34:19Z</time>
      </trkpt>
      <trkpt lat="43.95763" lon="1.93422">
        <ele>213.944429</ele>
        <time>2026-08-29T12:34:20Z</time>
      </trkpt>
      <trkpt lat="43.95767" lon="1.93423">
        <ele>214.006852</ele>
        <time>2026-08-29T12:34:21Z</time>
      </trkpt>
      <trkpt lat="43.9577" lon="1.93424">
        <ele>214.058415</ele>
        <time>2026-08-29T12:34:22Z</time>
      </trkpt>
      <trkpt lat="43.95774" lon="1.93425">
        <ele>214.112491</ele>
        <time>2026-08-29T12:34:23Z</time>
      </trkpt>
      <trkpt lat="43.95778" lon="1.93427">
        <ele>214.164953</ele>
        <time>2026-08-29T12:34:24Z</time>
      </trkpt>
      <trkpt lat="43.95781" lon="1.93428">
        <ele>214.220416</ele>
        <time>2026-08-29T12:34:25Z</time>
      </trkpt>
      <trkpt lat="43.95785" lon="1.93429">
        <ele>214.268165</ele>
        <time>2026-08-29T12:34:26Z</time>
      </trkpt>
      <trkpt lat="43.95789" lon="1.9343">
        <ele>214.328648</ele>
        <time>2026-08-29T12:34:27Z</time>
      </trkpt>
      <trkpt lat="43.95793" lon="1.93431">
        <ele>214.383349</ele>
        <time>2026-08-29T12:34:28Z</time>
      </trkpt>
      <trkpt lat="43.95797" lon="1.93432">
        <ele>214.440866</ele>
        <time>2026-08-29T12:34:29Z</time>
      </trkpt>
      <trkpt lat="43.95801" lon="1.93432">
        <ele>214.502484</ele>
        <time>2026-08-29T12:34:30Z</time>
      </trkpt>
      <trkpt lat="43.95805" lon="1.93433">
        <ele>214.555779</ele>
        <time>2026-08-29T12:34:31Z</time>
      </trkpt>
      <trkpt lat="43.95808" lon="1.93434">
        <ele>214.60924</ele>
        <time>2026-08-29T12:34:32Z</time>
      </trkpt>
      <trkpt lat="43.95812" lon="1.93435">
        <ele>214.6664</ele>
        <time>2026-08-29T12:34:33Z</time>
      </trkpt>
      <trkpt lat="43.95816" lon="1.93435">
        <ele>214.720638</ele>
        <time>2026-08-29T12:34:34Z</time>
      </trkpt>
      <trkpt lat="43.9582" lon="1.93435">
        <ele>214.777798</ele>
        <time>2026-08-29T12:34:35Z</time>
      </trkpt>
      <trkpt lat="43.95825" lon="1.93437">
        <ele>214.842828</ele>
        <time>2026-08-29T12:34:36Z</time>
      </trkpt>
      <trkpt lat="43.95829" lon="1.93438">
        <ele>214.90407</ele>
        <time>2026-08-29T12:34:37Z</time>
      </trkpt>
      <trkpt lat="43.95833" lon="1.93439">
        <ele>214.96893</ele>
        <time>2026-08-29T12:34:38Z</time>
      </trkpt>
      <trkpt lat="43.95838" lon="1.9344">
        <ele>215.036766</ele>
        <time>2026-08-29T12:34:39Z</time>
      </trkpt>
      <trkpt lat="43.95843" lon="1.93441">
        <ele>215.105701</ele>
        <time>2026-08-29T12:34:40Z</time>
      </trkpt>
      <trkpt lat="43.95848" lon="1.93442">
        <ele>215.176188</ele>
        <time>2026-08-29T12:34:41Z</time>
      </trkpt>
      <trkpt lat="43.95853" lon="1.93443">
        <ele>215.252182</ele>
        <time>2026-08-29T12:34:42Z</time>
      </trkpt>
      <trkpt lat="43.95858" lon="1.93444">
        <ele>215.325351</ele>
        <time>2026-08-29T12:34:43Z</time>
      </trkpt>
      <trkpt lat="43.95863" lon="1.93444">
        <ele>215.401123</ele>
        <time>2026-08-29T12:34:44Z</time>
      </trkpt>
      <trkpt lat="43.95867" lon="1.93447">
        <ele>215.462737</ele>
        <time>2026-08-29T12:34:45Z</time>
      </trkpt>
      <trkpt lat="43.95872" lon="1.9345">
        <ele>215.540239</ele>
        <time>2026-08-29T12:34:46Z</time>
      </trkpt>
      <trkpt lat="43.95876" lon="1.93454">
        <ele>215.613495</ele>
        <time>2026-08-29T12:34:47Z</time>
      </trkpt>
      <trkpt lat="43.95879" lon="1.9346">
        <ele>215.685012</ele>
        <time>2026-08-29T12:34:48Z</time>
      </trkpt>
      <trkpt lat="43.95882" lon="1.93467">
        <ele>215.759216</ele>
        <time>2026-08-29T12:34:49Z</time>
      </trkpt>
      <trkpt lat="43.95883" lon="1.93474">
        <ele>215.836847</ele>
        <time>2026-08-29T12:34:50Z</time>
      </trkpt>
      <trkpt lat="43.95884" lon="1.93481">
        <ele>215.918583</ele>
        <time>2026-08-29T12:34:51Z</time>
      </trkpt>
      <trkpt lat="43.95885" lon="1.93488">
        <ele>216.007848</ele>
        <time>2026-08-29T12:34:52Z</time>
      </trkpt>
      <trkpt lat="43.95885" lon="1.93495">
        <ele>216.09034</ele>
        <time>2026-08-29T12:34:53Z</time>
      </trkpt>
      <trkpt lat="43.95884" lon="1.93502">
        <ele>216.170781</ele>
        <time>2026-08-29T12:34:54Z</time>
      </trkpt>
      <trkpt lat="43.95883" lon="1.93508">
        <ele>216.248978</ele>
        <time>2026-08-29T12:34:55Z</time>
      </trkpt>
      <trkpt lat="43.95882" lon="1.93514">
        <ele>216.324459</ele>
        <time>2026-08-29T12:34:56Z</time>
      </trkpt>
      <trkpt lat="43.95881" lon="1.9352">
        <ele>216.39716</ele>
        <time>2026-08-29T12:34:57Z</time>
      </trkpt>
      <trkpt lat="43.9588" lon="1.93525">
        <ele>216.466177</ele>
        <time>2026-08-29T12:34:58Z</time>
      </trkpt>
      <trkpt lat="43.95878" lon="1.9353">
        <ele>216.533471</ele>
        <time>2026-08-29T12:34:59Z</time>
      </trkpt>
      <trkpt lat="43.95877" lon="1.93535">
        <ele>216.59337</ele>
        <time>2026-08-29T12:35:00Z</time>
      </trkpt>
      <trkpt lat="43.95876" lon="1.93538">
        <ele>216.637401</ele>
        <time>2026-08-29T12:35:01Z</time>
      </trkpt>
      <trkpt lat="43.95876" lon="1.93542">
        <ele>216.683737</ele>
        <time>2026-08-29T12:35:02Z</time>
      </trkpt>
      <trkpt lat="43.95876" lon="1.93546">
        <ele>216.726461</ele>
        <time>2026-08-29T12:35:03Z</time>
      </trkpt>
      <trkpt lat="43.95876" lon="1.93549">
        <ele>216.766778</ele>
        <time>2026-08-29T12:35:04Z</time>
      </trkpt>
      <trkpt lat="43.95875" lon="1.93553">
        <ele>216.812409</ele>
        <time>2026-08-29T12:35:05Z</time>
      </trkpt>
      <trkpt lat="43.95875" lon="1.93556">
        <ele>216.850322</ele>
        <time>2026-08-29T12:35:06Z</time>
      </trkpt>
      <trkpt lat="43.95875" lon="1.93559">
        <ele>216.886725</ele>
        <time>2026-08-29T12:35:07Z</time>
      </trkpt>
      <trkpt lat="43.95874" lon="1.93561">
        <ele>216.909558</ele>
        <time>2026-08-29T12:35:08Z</time>
      </trkpt>
      <trkpt lat="43.95874" lon="1.93563">
        <ele>216.934719</ele>
        <time>2026-08-29T12:35:09Z</time>
      </trkpt>
      <trkpt lat="43.95874" lon="1.93565">
        <ele>216.963399</ele>
        <time>2026-08-29T12:35:10Z</time>
      </trkpt>
      <trkpt lat="43.95875" lon="1.93567">
        <ele>216.991732</ele>
        <time>2026-08-29T12:35:11Z</time>
      </trkpt>
      <trkpt lat="43.95875" lon="1.9357">
        <ele>217.022081</ele>
        <time>2026-08-29T12:35:12Z</time>
      </trkpt>
      <trkpt lat="43.95875" lon="1.93572">
        <ele>217.05001</ele>
        <time>2026-08-29T12:35:13Z</time>
      </trkpt>
      <trkpt lat="43.95875" lon="1.93574">
        <ele>217.079295</ele>
        <time>2026-08-29T12:35:14Z</time>
      </trkpt>
      <trkpt lat="43.95875" lon="1.93577">
        <ele>217.108386</ele>
        <time>2026-08-29T12:35:15Z</time>
      </trkpt>
      <trkpt lat="43.95876" lon="1.93579">
        <ele>217.143831</ele>
        <time>2026-08-29T12:35:16Z</time>
      </trkpt>
      <trkpt lat="43.95877" lon="1.93582">
        <ele>217.173691</ele>
        <time>2026-08-29T12:35:17Z</time>
      </trkpt>
      <trkpt lat="43.95877" lon="1.93585">
        <ele>217.21021</ele>
        <time>2026-08-29T12:35:18Z</time>
      </trkpt>
      <trkpt lat="43.95877" lon="1.93588">
        <ele>217.247823</ele>
        <time>2026-08-29T12:35:19Z</time>
      </trkpt>
      <trkpt lat="43.95877" lon="1.93591">
        <ele>217.284342</ele>
        <time>2026-08-29T12:35:20Z</time>
      </trkpt>
      <trkpt lat="43.95878" lon="1.93594">
        <ele>217.322082</ele>
        <time>2026-08-29T12:35:21Z</time>
      </trkpt>
      <trkpt lat="43.95877" lon="1.93597">
        <ele>217.359996</ele>
        <time>2026-08-29T12:35:22Z</time>
      </trkpt>
      <trkpt lat="43.95878" lon="1.936">
        <ele>217.399376</ele>
        <time>2026-08-29T12:35:23Z</time>
      </trkpt>
      <trkpt lat="43.95879" lon="1.93603">
        <ele>217.440632</ele>
        <time>2026-08-29T12:35:24Z</time>
      </trkpt>
      <trkpt lat="43.95879" lon="1.93607">
        <ele>217.483587</ele>
        <time>2026-08-29T12:35:25Z</time>
      </trkpt>
      <trkpt lat="43.9588" lon="1.9361">
        <ele>217.528098</ele>
        <time>2026-08-29T12:35:26Z</time>
      </trkpt>
      <trkpt lat="43.95881" lon="1.93614">
        <ele>217.574762</ele>
        <time>2026-08-29T12:35:27Z</time>
      </trkpt>
      <trkpt lat="43.95883" lon="1.93617">
        <ele>217.624135</ele>
        <time>2026-08-29T12:35:28Z</time>
      </trkpt>
      <trkpt lat="43.95884" lon="1.93621">
        <ele>217.673509</ele>
        <time>2026-08-29T12:35:29Z</time>
      </trkpt>
      <trkpt lat="43.95886" lon="1.93624">
        <ele>217.722745</ele>
        <time>2026-08-29T12:35:30Z</time>
      </trkpt>
      <trkpt lat="43.95888" lon="1.93627">
        <ele>217.771932</ele>
        <time>2026-08-29T12:35:31Z</time>
      </trkpt>
      <trkpt lat="43.95889" lon="1.9363">
        <ele>217.818219</ele>
        <time>2026-08-29T12:35:32Z</time>
      </trkpt>
      <trkpt lat="43.95891" lon="1.93634">
        <ele>217.867406</ele>
        <time>2026-08-29T12:35:33Z</time>
      </trkpt>
      <trkpt lat="43.95892" lon="1.93637">
        <ele>217.914712</ele>
        <time>2026-08-29T12:35:34Z</time>
      </trkpt>
      <trkpt lat="43.95894" lon="1.93641">
        <ele>217.964085</ele>
        <time>2026-08-29T12:35:35Z</time>
      </trkpt>
      <trkpt lat="43.95895" lon="1.93644">
        <ele>218.012619</ele>
        <time>2026-08-29T12:35:36Z</time>
      </trkpt>
      <trkpt lat="43.95897" lon="1.93648">
        <ele>218.063037</ele>
        <time>2026-08-29T12:35:37Z</time>
      </trkpt>
      <trkpt lat="43.95898" lon="1.93651">
        <ele>218.112634</ele>
        <time>2026-08-29T12:35:38Z</time>
      </trkpt>
      <trkpt lat="43.959" lon="1.93655">
        <ele>218.165164</ele>
        <time>2026-08-29T12:35:39Z</time>
      </trkpt>
      <trkpt lat="43.95901" lon="1.93659">
        <ele>218.21583</ele>
        <time>2026-08-29T12:35:40Z</time>
      </trkpt>
      <trkpt lat="43.95902" lon="1.93662">
        <ele>218.264649</ele>
        <time>2026-08-29T12:35:41Z</time>
      </trkpt>
      <trkpt lat="43.95903" lon="1.93666">
        <ele>218.309831</ele>
        <time>2026-08-29T12:35:42Z</time>
      </trkpt>
      <trkpt lat="43.95905" lon="1.93669">
        <ele>218.360086</ele>
        <time>2026-08-29T12:35:43Z</time>
      </trkpt>
      <trkpt lat="43.95907" lon="1.93673">
        <ele>218.412273</ele>
        <time>2026-08-29T12:35:44Z</time>
      </trkpt>
      <trkpt lat="43.95909" lon="1.93677">
        <ele>218.468354</ele>
        <time>2026-08-29T12:35:45Z</time>
      </trkpt>
      <trkpt lat="43.95911" lon="1.93681">
        <ele>218.530407</ele>
        <time>2026-08-29T12:35:46Z</time>
      </trkpt>
      <trkpt lat="43.95913" lon="1.93685">
        <ele>218.593412</ele>
        <time>2026-08-29T12:35:47Z</time>
      </trkpt>
      <trkpt lat="43.95916" lon="1.93689">
        <ele>218.662799</ele>
        <time>2026-08-29T12:35:48Z</time>
      </trkpt>
      <trkpt lat="43.95918" lon="1.93693">
        <ele>218.721832</ele>
        <time>2026-08-29T12:35:49Z</time>
      </trkpt>
      <trkpt lat="43.9592" lon="1.93697">
        <ele>218.780935</ele>
        <time>2026-08-29T12:35:50Z</time>
      </trkpt>
      <trkpt lat="43.95922" lon="1.93701">
        <ele>218.840967</ele>
        <time>2026-08-29T12:35:51Z</time>
      </trkpt>
      <trkpt lat="43.95924" lon="1.93705">
        <ele>218.900001</ele>
        <time>2026-08-29T12:35:52Z</time>
      </trkpt>
      <trkpt lat="43.95926" lon="1.93709">
        <ele>218.878601</ele>
        <time>2026-08-29T12:35:53Z</time>
      </trkpt>
      <trkpt lat="43.95928" lon="1.93713">
        <ele>218.84657</ele>
        <time>2026-08-29T12:35:54Z</time>
      </trkpt>
      <trkpt lat="43.9593" lon="1.93717">
        <ele>218.817058</ele>
        <time>2026-08-29T12:35:55Z</time>
      </trkpt>
      <trkpt lat="43.95932" lon="1.9372">
        <ele>218.788997</ele>
        <time>2026-08-29T12:35:56Z</time>
      </trkpt>
      <trkpt lat="43.95935" lon="1.93724">
        <ele>218.759773</ele>
        <time>2026-08-29T12:35:57Z</time>
      </trkpt>
      <trkpt lat="43.95937" lon="1.93727">
        <ele>218.732321</ele>
        <time>2026-08-29T12:35:58Z</time>
      </trkpt>
      <trkpt lat="43.95939" lon="1.9373">
        <ele>218.706358</ele>
        <time>2026-08-29T12:35:59Z</time>
      </trkpt>
      <trkpt lat="43.95942" lon="1.93732">
        <ele>218.678681</ele>
        <time>2026-08-29T12:36:00Z</time>
      </trkpt>
      <trkpt lat="43.95944" lon="1.93735">
        <ele>218.65141</ele>
        <time>2026-08-29T12:36:01Z</time>
      </trkpt>
      <trkpt lat="43.95947" lon="1.93738">
        <ele>218.622824</ele>
        <time>2026-08-29T12:36:02Z</time>
      </trkpt>
      <trkpt lat="43.9595" lon="1.9374">
        <ele>218.593767</ele>
        <time>2026-08-29T12:36:03Z</time>
      </trkpt>
      <trkpt lat="43.95952" lon="1.93743">
        <ele>218.565139</ele>
        <time>2026-08-29T12:36:04Z</time>
      </trkpt>
      <trkpt lat="43.95955" lon="1.93745">
        <ele>218.537965</ele>
        <time>2026-08-29T12:36:05Z</time>
      </trkpt>
      <trkpt lat="43.95957" lon="1.93748">
        <ele>218.508806</ele>
        <time>2026-08-29T12:36:06Z</time>
      </trkpt>
      <trkpt lat="43.9596" lon="1.93751">
        <ele>218.48056</ele>
        <time>2026-08-29T12:36:07Z</time>
      </trkpt>
      <trkpt lat="43.95963" lon="1.93753">
        <ele>218.453046</ele>
        <time>2026-08-29T12:36:08Z</time>
      </trkpt>
      <trkpt lat="43.95966" lon="1.93756">
        <ele>218.423231</ele>
        <time>2026-08-29T12:36:09Z</time>
      </trkpt>
      <trkpt lat="43.95968" lon="1.93758">
        <ele>218.394644</ele>
        <time>2026-08-29T12:36:10Z</time>
      </trkpt>
      <trkpt lat="43.95971" lon="1.93761">
        <ele>218.367408</ele>
        <time>2026-08-29T12:36:11Z</time>
      </trkpt>
      <trkpt lat="43.95973" lon="1.93763">
        <ele>218.341987</ele>
        <time>2026-08-29T12:36:12Z</time>
      </trkpt>
      <trkpt lat="43.95976" lon="1.93765">
        <ele>218.314087</ele>
        <time>2026-08-29T12:36:13Z</time>
      </trkpt>
      <trkpt lat="43.95979" lon="1.93767">
        <ele>218.286528</ele>
        <time>2026-08-29T12:36:14Z</time>
      </trkpt>
      <trkpt lat="43.95982" lon="1.93769">
        <ele>218.259903</ele>
        <time>2026-08-29T12:36:15Z</time>
      </trkpt>
      <trkpt lat="43.95984" lon="1.93771">
        <ele>218.232741</ele>
        <time>2026-08-29T12:36:16Z</time>
      </trkpt>
      <trkpt lat="43.95987" lon="1.93774">
        <ele>218.203044</ele>
        <time>2026-08-29T12:36:17Z</time>
      </trkpt>
      <trkpt lat="43.9599" lon="1.93777">
        <ele>218.172819</ele>
        <time>2026-08-29T12:36:18Z</time>
      </trkpt>
      <trkpt lat="43.95992" lon="1.93781">
        <ele>218.141317</ele>
        <time>2026-08-29T12:36:19Z</time>
      </trkpt>
      <trkpt lat="43.95994" lon="1.93785">
        <ele>218.110282</ele>
        <time>2026-08-29T12:36:20Z</time>
      </trkpt>
      <trkpt lat="43.95997" lon="1.93789">
        <ele>218.076525</ele>
        <time>2026-08-29T12:36:21Z</time>
      </trkpt>
      <trkpt lat="43.96" lon="1.93793">
        <ele>218.043815</ele>
        <time>2026-08-29T12:36:22Z</time>
      </trkpt>
      <trkpt lat="43.96002" lon="1.93797">
        <ele>218.010748</ele>
        <time>2026-08-29T12:36:23Z</time>
      </trkpt>
      <trkpt lat="43.96004" lon="1.93801">
        <ele>217.976667</ele>
        <time>2026-08-29T12:36:24Z</time>
      </trkpt>
      <trkpt lat="43.96007" lon="1.93805">
        <ele>217.942911</ele>
        <time>2026-08-29T12:36:25Z</time>
      </trkpt>
      <trkpt lat="43.96009" lon="1.93809">
        <ele>217.910294</ele>
        <time>2026-08-29T12:36:26Z</time>
      </trkpt>
      <trkpt lat="43.96011" lon="1.93813">
        <ele>217.87926</ele>
        <time>2026-08-29T12:36:27Z</time>
      </trkpt>
      <trkpt lat="43.96013" lon="1.93817">
        <ele>217.849201</ele>
        <time>2026-08-29T12:36:28Z</time>
      </trkpt>
      <trkpt lat="43.96016" lon="1.93821">
        <ele>217.818191</ele>
        <time>2026-08-29T12:36:29Z</time>
      </trkpt>
      <trkpt lat="43.96018" lon="1.93825">
        <ele>217.784603</ele>
        <time>2026-08-29T12:36:30Z</time>
      </trkpt>
      <trkpt lat="43.9602" lon="1.93829">
        <ele>217.752573</ele>
        <time>2026-08-29T12:36:31Z</time>
      </trkpt>
      <trkpt lat="43.96022" lon="1.93833">
        <ele>217.720909</ele>
        <time>2026-08-29T12:36:32Z</time>
      </trkpt>
      <trkpt lat="43.96025" lon="1.93837">
        <ele>217.690289</ele>
        <time>2026-08-29T12:36:33Z</time>
      </trkpt>
      <trkpt lat="43.96027" lon="1.93841">
        <ele>217.656208</ele>
        <time>2026-08-29T12:36:34Z</time>
      </trkpt>
      <trkpt lat="43.96029" lon="1.93845">
        <ele>217.624142</ele>
        <time>2026-08-29T12:36:35Z</time>
      </trkpt>
      <trkpt lat="43.96032" lon="1.9385">
        <ele>217.590006</ele>
        <time>2026-08-29T12:36:36Z</time>
      </trkpt>
      <trkpt lat="43.96034" lon="1.93854">
        <ele>217.555059</ele>
        <time>2026-08-29T12:36:37Z</time>
      </trkpt>
      <trkpt lat="43.96037" lon="1.93858">
        <ele>217.519056</ele>
        <time>2026-08-29T12:36:38Z</time>
      </trkpt>
      <trkpt lat="43.9604" lon="1.93861">
        <ele>217.484149</ele>
        <time>2026-08-29T12:36:39Z</time>
      </trkpt>
      <trkpt lat="43.96043" lon="1.93865">
        <ele>217.451238</ele>
        <time>2026-08-29T12:36:40Z</time>
      </trkpt>
      <trkpt lat="43.96046" lon="1.93868">
        <ele>217.420848</ele>
        <time>2026-08-29T12:36:41Z</time>
      </trkpt>
      <trkpt lat="43.96049" lon="1.9387">
        <ele>217.391901</ele>
        <time>2026-08-29T12:36:42Z</time>
      </trkpt>
      <trkpt lat="43.96051" lon="1.93873">
        <ele>217.362087</ele>
        <time>2026-08-29T12:36:43Z</time>
      </trkpt>
      <trkpt lat="43.96054" lon="1.93876">
        <ele>217.326073</ele>
        <time>2026-08-29T12:36:44Z</time>
      </trkpt>
      <trkpt lat="43.96056" lon="1.93879">
        <ele>217.250253</ele>
        <time>2026-08-29T12:36:45Z</time>
      </trkpt>
      <trkpt lat="43.96059" lon="1.93881">
        <ele>217.171277</ele>
        <time>2026-08-29T12:36:46Z</time>
      </trkpt>
      <trkpt lat="43.96061" lon="1.93883">
        <ele>217.09766</ele>
        <time>2026-08-29T12:36:47Z</time>
      </trkpt>
      <trkpt lat="43.96064" lon="1.93886">
        <ele>217.021403</ele>
        <time>2026-08-29T12:36:48Z</time>
      </trkpt>
      <trkpt lat="43.96066" lon="1.93888">
        <ele>216.945727</ele>
        <time>2026-08-29T12:36:49Z</time>
      </trkpt>
      <trkpt lat="43.96069" lon="1.9389">
        <ele>216.866238</ele>
        <time>2026-08-29T12:36:50Z</time>
      </trkpt>
      <trkpt lat="43.96072" lon="1.93892">
        <ele>216.793459</ele>
        <time>2026-08-29T12:36:51Z</time>
      </trkpt>
      <trkpt lat="43.96074" lon="1.93894">
        <ele>216.721733</ele>
        <time>2026-08-29T12:36:52Z</time>
      </trkpt>
      <trkpt lat="43.96077" lon="1.93897">
        <ele>216.641772</ele>
        <time>2026-08-29T12:36:53Z</time>
      </trkpt>
      <trkpt lat="43.9608" lon="1.93899">
        <ele>216.562796</ele>
        <time>2026-08-29T12:36:54Z</time>
      </trkpt>
      <trkpt lat="43.96083" lon="1.93901">
        <ele>216.483307</ele>
        <time>2026-08-29T12:36:55Z</time>
      </trkpt>
      <trkpt lat="43.96085" lon="1.93904">
        <ele>216.40159</ele>
        <time>2026-08-29T12:36:56Z</time>
      </trkpt>
      <trkpt lat="43.96088" lon="1.93905">
        <ele>216.337683</ele>
        <time>2026-08-29T12:36:57Z</time>
      </trkpt>
      <trkpt lat="43.9609" lon="1.93906">
        <ele>216.277365</ele>
        <time>2026-08-29T12:36:58Z</time>
      </trkpt>
      <trkpt lat="43.96093" lon="1.93907">
        <ele>216.203372</ele>
        <time>2026-08-29T12:36:59Z</time>
      </trkpt>
      <trkpt lat="43.96096" lon="1.93908">
        <ele>216.122439</ele>
        <time>2026-08-29T12:37:00Z</time>
      </trkpt>
      <trkpt lat="43.96099" lon="1.93909">
        <ele>216.04908</ele>
        <time>2026-08-29T12:37:01Z</time>
      </trkpt>
      <trkpt lat="43.96102" lon="1.93911">
        <ele>215.968851</ele>
        <time>2026-08-29T12:37:02Z</time>
      </trkpt>
      <trkpt lat="43.96105" lon="1.93913">
        <ele>215.883386</ele>
        <time>2026-08-29T12:37:03Z</time>
      </trkpt>
      <trkpt lat="43.96108" lon="1.93914">
        <ele>215.805107</ele>
        <time>2026-08-29T12:37:04Z</time>
      </trkpt>
      <trkpt lat="43.96111" lon="1.93916">
        <ele>215.733668</ele>
        <time>2026-08-29T12:37:05Z</time>
      </trkpt>
      <trkpt lat="43.96114" lon="1.93917">
        <ele>215.662689</ele>
        <time>2026-08-29T12:37:06Z</time>
      </trkpt>
      <trkpt lat="43.96116" lon="1.93918">
        <ele>215.594353</ele>
        <time>2026-08-29T12:37:07Z</time>
      </trkpt>
      <trkpt lat="43.96119" lon="1.9392">
        <ele>215.519231</ele>
        <time>2026-08-29T12:37:08Z</time>
      </trkpt>
      <trkpt lat="43.96122" lon="1.93922">
        <ele>215.449415</ele>
        <time>2026-08-29T12:37:09Z</time>
      </trkpt>
      <trkpt lat="43.96124" lon="1.93923">
        <ele>215.390006</ele>
        <time>2026-08-29T12:37:10Z</time>
      </trkpt>
      <trkpt lat="43.96126" lon="1.93925">
        <ele>215.319178</ele>
        <time>2026-08-29T12:37:11Z</time>
      </trkpt>
      <trkpt lat="43.96129" lon="1.93928">
        <ele>215.24525</ele>
        <time>2026-08-29T12:37:12Z</time>
      </trkpt>
      <trkpt lat="43.96131" lon="1.9393">
        <ele>215.181652</ele>
        <time>2026-08-29T12:37:13Z</time>
      </trkpt>
      <trkpt lat="43.96134" lon="1.93932">
        <ele>215.101791</ele>
        <time>2026-08-29T12:37:14Z</time>
      </trkpt>
      <trkpt lat="43.96136" lon="1.93935">
        <ele>215.024048</ele>
        <time>2026-08-29T12:37:15Z</time>
      </trkpt>
      <trkpt lat="43.96138" lon="1.93938">
        <ele>214.943254</ele>
        <time>2026-08-29T12:37:16Z</time>
      </trkpt>
      <trkpt lat="43.96141" lon="1.93941">
        <ele>214.863293</ele>
        <time>2026-08-29T12:37:17Z</time>
      </trkpt>
      <trkpt lat="43.96144" lon="1.93944">
        <ele>214.779174</ele>
        <time>2026-08-29T12:37:18Z</time>
      </trkpt>
      <trkpt lat="43.96146" lon="1.93947">
        <ele>214.704093</ele>
        <time>2026-08-29T12:37:19Z</time>
      </trkpt>
      <trkpt lat="43.96148" lon="1.9395">
        <ele>214.632396</ele>
        <time>2026-08-29T12:37:20Z</time>
      </trkpt>
      <trkpt lat="43.96151" lon="1.93952">
        <ele>214.555452</ele>
        <time>2026-08-29T12:37:21Z</time>
      </trkpt>
      <trkpt lat="43.96153" lon="1.93955">
        <ele>214.484476</ele>
        <time>2026-08-29T12:37:22Z</time>
      </trkpt>
      <trkpt lat="43.96155" lon="1.93958">
        <ele>214.406384</ele>
        <time>2026-08-29T12:37:23Z</time>
      </trkpt>
      <trkpt lat="43.96158" lon="1.93961">
        <ele>214.321502</ele>
        <time>2026-08-29T12:37:24Z</time>
      </trkpt>
      <trkpt lat="43.96161" lon="1.93964">
        <ele>214.222615</ele>
        <time>2026-08-29T12:37:25Z</time>
      </trkpt>
      <trkpt lat="43.96164" lon="1.93967">
        <ele>214.138823</ele>
        <time>2026-08-29T12:37:26Z</time>
      </trkpt>
      <trkpt lat="43.96167" lon="1.93969">
        <ele>214.046904</ele>
        <time>2026-08-29T12:37:27Z</time>
      </trkpt>
      <trkpt lat="43.9617" lon="1.93971">
        <ele>213.968783</ele>
        <time>2026-08-29T12:37:28Z</time>
      </trkpt>
      <trkpt lat="43.96173" lon="1.93973">
        <ele>213.884868</ele>
        <time>2026-08-29T12:37:29Z</time>
      </trkpt>
      <trkpt lat="43.96176" lon="1.93976">
        <ele>213.796136</ele>
        <time>2026-08-29T12:37:30Z</time>
      </trkpt>
      <trkpt lat="43.96179" lon="1.93979">
        <ele>213.702505</ele>
        <time>2026-08-29T12:37:31Z</time>
      </trkpt>
      <trkpt lat="43.96183" lon="1.93981">
        <ele>213.607447</ele>
        <time>2026-08-29T12:37:32Z</time>
      </trkpt>
      <trkpt lat="43.96186" lon="1.93984">
        <ele>213.509645</ele>
        <time>2026-08-29T12:37:33Z</time>
      </trkpt>
      <trkpt lat="43.9619" lon="1.93988">
        <ele>213.405532</ele>
        <time>2026-08-29T12:37:34Z</time>
      </trkpt>
      <trkpt lat="43.96193" lon="1.93992">
        <ele>213.29801</ele>
        <time>2026-08-29T12:37:35Z</time>
      </trkpt>
      <trkpt lat="43.96196" lon="1.93996">
        <ele>213.184835</ele>
        <time>2026-08-29T12:37:36Z</time>
      </trkpt>
      <trkpt lat="43.962" lon="1.94">
        <ele>213.067528</ele>
        <time>2026-08-29T12:37:37Z</time>
      </trkpt>
      <trkpt lat="43.96204" lon="1.94004">
        <ele>212.955828</ele>
        <time>2026-08-29T12:37:38Z</time>
      </trkpt>
      <trkpt lat="43.96207" lon="1.94009">
        <ele>212.661426</ele>
        <time>2026-08-29T12:37:39Z</time>
      </trkpt>
      <trkpt lat="43.9621" lon="1.94015">
        <ele>212.303615</ele>
        <time>2026-08-29T12:37:40Z</time>
      </trkpt>
      <trkpt lat="43.96214" lon="1.94021">
        <ele>211.925278</ele>
        <time>2026-08-29T12:37:41Z</time>
      </trkpt>
      <trkpt lat="43.96217" lon="1.94026">
        <ele>211.614328</ele>
        <time>2026-08-29T12:37:42Z</time>
      </trkpt>
      <trkpt lat="43.9622" lon="1.9403">
        <ele>211.3159</ele>
        <time>2026-08-29T12:37:43Z</time>
      </trkpt>
      <trkpt lat="43.96222" lon="1.94034">
        <ele>211.073253</ele>
        <time>2026-08-29T12:37:44Z</time>
      </trkpt>
      <trkpt lat="43.96225" lon="1.94037">
        <ele>210.830436</ele>
        <time>2026-08-29T12:37:45Z</time>
      </trkpt>
      <trkpt lat="43.96228" lon="1.94038">
        <ele>210.612061</ele>
        <time>2026-08-29T12:37:46Z</time>
      </trkpt>
      <trkpt lat="43.96231" lon="1.9404">
        <ele>210.402399</ele>
        <time>2026-08-29T12:37:47Z</time>
      </trkpt>
      <trkpt lat="43.96234" lon="1.94043">
        <ele>210.170779</ele>
        <time>2026-08-29T12:37:48Z</time>
      </trkpt>
      <trkpt lat="43.96237" lon="1.94046">
        <ele>209.935833</ele>
        <time>2026-08-29T12:37:49Z</time>
      </trkpt>
      <trkpt lat="43.96239" lon="1.9405">
        <ele>209.705568</ele>
        <time>2026-08-29T12:37:50Z</time>
      </trkpt>
      <trkpt lat="43.9624" lon="1.94053">
        <ele>209.479247</ele>
        <time>2026-08-29T12:37:51Z</time>
      </trkpt>
      <trkpt lat="43.96242" lon="1.94058">
        <ele>209.224057</ele>
        <time>2026-08-29T12:37:52Z</time>
      </trkpt>
      <trkpt lat="43.96244" lon="1.94062">
        <ele>208.999088</ele>
        <time>2026-08-29T12:37:53Z</time>
      </trkpt>
      <trkpt lat="43.96245" lon="1.94067">
        <ele>208.743643</ele>
        <time>2026-08-29T12:37:54Z</time>
      </trkpt>
      <trkpt lat="43.96246" lon="1.94071">
        <ele>208.545281</ele>
        <time>2026-08-29T12:37:55Z</time>
      </trkpt>
      <trkpt lat="43.96247" lon="1.94075">
        <ele>208.350205</ele>
        <time>2026-08-29T12:37:56Z</time>
      </trkpt>
      <trkpt lat="43.96247" lon="1.94078">
        <ele>208.168076</ele>
        <time>2026-08-29T12:37:57Z</time>
      </trkpt>
      <trkpt lat="43.96247" lon="1.94082">
        <ele>207.976223</ele>
        <time>2026-08-29T12:37:58Z</time>
      </trkpt>
      <trkpt lat="43.96248" lon="1.94086">
        <ele>207.810524</ele>
        <time>2026-08-29T12:37:59Z</time>
      </trkpt>
      <trkpt lat="43.9625" lon="1.94088">
        <ele>207.631794</ele>
        <time>2026-08-29T12:38:00Z</time>
      </trkpt>
      <trkpt lat="43.96251" lon="1.94092">
        <ele>207.450946</ele>
        <time>2026-08-29T12:38:01Z</time>
      </trkpt>
      <trkpt lat="43.96252" lon="1.94095">
        <ele>207.270099</ele>
        <time>2026-08-29T12:38:02Z</time>
      </trkpt>
      <trkpt lat="43.96253" lon="1.94098">
        <ele>207.090363</ele>
        <time>2026-08-29T12:38:03Z</time>
      </trkpt>
      <trkpt lat="43.96254" lon="1.94102">
        <ele>206.903951</ele>
        <time>2026-08-29T12:38:04Z</time>
      </trkpt>
      <trkpt lat="43.96254" lon="1.94106">
        <ele>206.692633</ele>
        <time>2026-08-29T12:38:05Z</time>
      </trkpt>
      <trkpt lat="43.96254" lon="1.9411">
        <ele>206.496975</ele>
        <time>2026-08-29T12:38:06Z</time>
      </trkpt>
      <trkpt lat="43.96254" lon="1.94115">
        <ele>206.242256</ele>
        <time>2026-08-29T12:38:07Z</time>
      </trkpt>
      <trkpt lat="43.96254" lon="1.9412">
        <ele>206.001038</ele>
        <time>2026-08-29T12:38:08Z</time>
      </trkpt>
      <trkpt lat="43.96253" lon="1.94125">
        <ele>205.75496</ele>
        <time>2026-08-29T12:38:09Z</time>
      </trkpt>
      <trkpt lat="43.96252" lon="1.9413">
        <ele>205.508557</ele>
        <time>2026-08-29T12:38:10Z</time>
      </trkpt>
      <trkpt lat="43.96252" lon="1.94136">
        <ele>205.230536</ele>
        <time>2026-08-29T12:38:11Z</time>
      </trkpt>
      <trkpt lat="43.96251" lon="1.94141">
        <ele>204.948757</ele>
        <time>2026-08-29T12:38:12Z</time>
      </trkpt>
      <trkpt lat="43.96251" lon="1.94147">
        <ele>204.687292</ele>
        <time>2026-08-29T12:38:13Z</time>
      </trkpt>
      <trkpt lat="43.9625" lon="1.94152">
        <ele>204.427956</ele>
        <time>2026-08-29T12:38:14Z</time>
      </trkpt>
      <trkpt lat="43.9625" lon="1.94156">
        <ele>204.216638</ele>
        <time>2026-08-29T12:38:15Z</time>
      </trkpt>
      <trkpt lat="43.9625" lon="1.94159">
        <ele>204.069894</ele>
        <time>2026-08-29T12:38:16Z</time>
      </trkpt>
      <trkpt lat="43.9625" lon="1.94161">
        <ele>203.981586</ele>
        <time>2026-08-29T12:38:17Z</time>
      </trkpt>
      <trkpt lat="43.9625" lon="1.94162">
        <ele>203.94502</ele>
        <time>2026-08-29T12:38:18Z</time>
      </trkpt>
      <trkpt lat="43.9625" lon="1.94162">
        <ele>203.928848</ele>
        <time>2026-08-29T12:38:19Z</time>
      </trkpt>
      <trkpt lat="43.96249" lon="1.94162">
        <ele>203.889639</ele>
        <time>2026-08-29T12:38:20Z</time>
      </trkpt>
      <trkpt lat="43.96249" lon="1.94164">
        <ele>203.780858</ele>
        <time>2026-08-29T12:44:53Z</time>
      </trkpt>
      <trkpt lat="43.96248" lon="1.94166">
        <ele>203.679323</ele>
        <time>2026-08-29T12:44:54Z</time>
      </trkpt>
      <trkpt lat="43.96248" lon="1.94169">
        <ele>203.561731</ele>
        <time>2026-08-29T12:44:55Z</time>
      </trkpt>
      <trkpt lat="43.96248" lon="1.94171">
        <ele>203.452205</ele>
        <time>2026-08-29T12:44:56Z</time>
      </trkpt>
      <trkpt lat="43.96248" lon="1.94173">
        <ele>203.324303</ele>
        <time>2026-08-29T12:44:57Z</time>
      </trkpt>
      <trkpt lat="43.96248" lon="1.94176">
        <ele>203.176931</ele>
        <time>2026-08-29T12:44:58Z</time>
      </trkpt>
      <trkpt lat="43.96248" lon="1.94179">
        <ele>203.030029</ele>
        <time>2026-08-29T12:44:59Z</time>
      </trkpt>
      <trkpt lat="43.96248" lon="1.94183">
        <ele>202.872914</ele>
        <time>2026-08-29T12:45:00Z</time>
      </trkpt>
      <trkpt lat="43.96248" lon="1.94186">
        <ele>202.709223</ele>
        <time>2026-08-29T12:45:01Z</time>
      </trkpt>
      <trkpt lat="43.96249" lon="1.94189">
        <ele>202.581321</ele>
        <time>2026-08-29T12:45:02Z</time>
      </trkpt>
      <trkpt lat="43.96249" lon="1.94192">
        <ele>202.424646</ele>
        <time>2026-08-29T12:45:03Z</time>
      </trkpt>
      <trkpt lat="43.96249" lon="1.94196">
        <ele>202.238647</ele>
        <time>2026-08-29T12:45:04Z</time>
      </trkpt>
      <trkpt lat="43.96249" lon="1.94199">
        <ele>202.080798</ele>
        <time>2026-08-29T12:45:05Z</time>
      </trkpt>
      <trkpt lat="43.96249" lon="1.94202">
        <ele>201.924124</ele>
        <time>2026-08-29T12:45:06Z</time>
      </trkpt>
      <trkpt lat="43.9625" lon="1.94205">
        <ele>201.766275</ele>
        <time>2026-08-29T12:45:07Z</time>
      </trkpt>
      <trkpt lat="43.9625" lon="1.94208">
        <ele>201.614032</ele>
        <time>2026-08-29T12:45:08Z</time>
      </trkpt>
      <trkpt lat="43.9625" lon="1.94211">
        <ele>201.481265</ele>
        <time>2026-08-29T12:45:09Z</time>
      </trkpt>
      <trkpt lat="43.9625" lon="1.94214">
        <ele>201.328265</ele>
        <time>2026-08-29T12:45:10Z</time>
      </trkpt>
      <trkpt lat="43.9625" lon="1.94217">
        <ele>201.189795</ele>
        <time>2026-08-29T12:45:11Z</time>
      </trkpt>
      <trkpt lat="43.96251" lon="1.94219">
        <ele>201.059745</ele>
        <time>2026-08-29T12:45:12Z</time>
      </trkpt>
      <trkpt lat="43.96251" lon="1.94222">
        <ele>200.926111</ele>
        <time>2026-08-29T12:45:13Z</time>
      </trkpt>
      <trkpt lat="43.96251" lon="1.94225">
        <ele>200.796061</ele>
        <time>2026-08-29T12:45:14Z</time>
      </trkpt>
      <trkpt lat="43.96252" lon="1.94227">
        <ele>200.721145</ele>
        <time>2026-08-29T12:45:15Z</time>
      </trkpt>
      <trkpt lat="43.96252" lon="1.9423">
        <ele>200.809313</ele>
        <time>2026-08-29T12:45:16Z</time>
      </trkpt>
      <trkpt lat="43.96252" lon="1.94232">
        <ele>200.88243</ele>
        <time>2026-08-29T12:45:17Z</time>
      </trkpt>
      <trkpt lat="43.96253" lon="1.94233">
        <ele>200.949852</ele>
        <time>2026-08-29T12:45:18Z</time>
      </trkpt>
      <trkpt lat="43.96253" lon="1.94235">
        <ele>201.022254</ele>
        <time>2026-08-29T12:45:19Z</time>
      </trkpt>
      <trkpt lat="43.96254" lon="1.94237">
        <ele>201.101035</ele>
        <time>2026-08-29T12:45:20Z</time>
      </trkpt>
      <trkpt lat="43.96254" lon="1.94239">
        <ele>201.17878</ele>
        <time>2026-08-29T12:45:21Z</time>
      </trkpt>
      <trkpt lat="43.96254" lon="1.94241">
        <ele>201.250532</ele>
        <time>2026-08-29T12:45:22Z</time>
      </trkpt>
      <trkpt lat="43.96255" lon="1.94243">
        <ele>201.311577</ele>
        <time>2026-08-29T12:45:23Z</time>
      </trkpt>
      <trkpt lat="43.96255" lon="1.94245">
        <ele>201.384695</ele>
        <time>2026-08-29T12:45:24Z</time>
      </trkpt>
      <trkpt lat="43.96255" lon="1.94247">
        <ele>201.475623</ele>
        <time>2026-08-29T12:45:25Z</time>
      </trkpt>
      <trkpt lat="43.96256" lon="1.94249">
        <ele>201.541749</ele>
        <time>2026-08-29T12:45:26Z</time>
      </trkpt>
      <trkpt lat="43.96256" lon="1.94251">
        <ele>201.624065</ele>
        <time>2026-08-29T12:45:27Z</time>
      </trkpt>
      <trkpt lat="43.96256" lon="1.94254">
        <ele>201.699224</ele>
        <time>2026-08-29T12:45:28Z</time>
      </trkpt>
      <trkpt lat="43.96256" lon="1.94255">
        <ele>201.764408</ele>
        <time>2026-08-29T12:45:29Z</time>
      </trkpt>
      <trkpt lat="43.96256" lon="1.94257">
        <ele>201.833132</ele>
        <time>2026-08-29T12:45:30Z</time>
      </trkpt>
      <trkpt lat="43.96256" lon="1.9426">
        <ele>201.915448</ele>
        <time>2026-08-29T12:45:31Z</time>
      </trkpt>
      <trkpt lat="43.96256" lon="1.94261">
        <ele>201.978093</ele>
        <time>2026-08-29T12:45:32Z</time>
      </trkpt>
      <trkpt lat="43.96255" lon="1.94263">
        <ele>202.045514</ele>
        <time>2026-08-29T12:45:33Z</time>
      </trkpt>
      <trkpt lat="43.96255" lon="1.94265">
        <ele>202.109495</ele>
        <time>2026-08-29T12:45:34Z</time>
      </trkpt>
      <trkpt lat="43.96254" lon="1.94267">
        <ele>202.19453</ele>
        <time>2026-08-29T12:45:35Z</time>
      </trkpt>
      <trkpt lat="43.96253" lon="1.94269">
        <ele>202.278947</ele>
        <time>2026-08-29T12:45:36Z</time>
      </trkpt>
      <trkpt lat="43.96252" lon="1.94271">
        <ele>202.373606</ele>
        <time>2026-08-29T12:45:37Z</time>
      </trkpt>
      <trkpt lat="43.96252" lon="1.94273">
        <ele>202.452769</ele>
        <time>2026-08-29T12:45:38Z</time>
      </trkpt>
      <trkpt lat="43.96251" lon="1.94275">
        <ele>202.525172</ele>
        <time>2026-08-29T12:45:39Z</time>
      </trkpt>
      <trkpt lat="43.96251" lon="1.94277">
        <ele>202.597574</ele>
        <time>2026-08-29T12:45:40Z</time>
      </trkpt>
      <trkpt lat="43.9625" lon="1.94279">
        <ele>202.660219</ele>
        <time>2026-08-29T12:45:41Z</time>
      </trkpt>
      <trkpt lat="43.9625" lon="1.9428">
        <ele>202.702319</ele>
        <time>2026-08-29T12:45:42Z</time>
      </trkpt>
      <trkpt lat="43.9625" lon="1.94282">
        <ele>202.766932</ele>
        <time>2026-08-29T12:45:43Z</time>
      </trkpt>
      <trkpt lat="43.9625" lon="1.94284">
        <ele>202.845826</ele>
        <time>2026-08-29T12:45:44Z</time>
      </trkpt>
      <trkpt lat="43.9625" lon="1.94285">
        <ele>202.906445</ele>
        <time>2026-08-29T12:45:45Z</time>
      </trkpt>
      <trkpt lat="43.96249" lon="1.94287">
        <ele>202.96909</ele>
        <time>2026-08-29T12:45:46Z</time>
      </trkpt>
      <trkpt lat="43.96249" lon="1.94288">
        <ele>203.020173</ele>
        <time>2026-08-29T12:45:47Z</time>
      </trkpt>
      <trkpt lat="43.96249" lon="1.9429">
        <ele>203.079334</ele>
        <time>2026-08-29T12:45:48Z</time>
      </trkpt>
      <trkpt lat="43.96248" lon="1.94291">
        <ele>203.136585</ele>
        <time>2026-08-29T12:45:49Z</time>
      </trkpt>
      <trkpt lat="43.96248" lon="1.94293">
        <ele>203.188864</ele>
        <time>2026-08-29T12:45:50Z</time>
      </trkpt>
      <trkpt lat="43.96247" lon="1.94295">
        <ele>203.256627</ele>
        <time>2026-08-29T12:45:51Z</time>
      </trkpt>
      <trkpt lat="43.96247" lon="1.94296">
        <ele>203.323638</ele>
        <time>2026-08-29T12:45:52Z</time>
      </trkpt>
      <trkpt lat="43.96246" lon="1.94298">
        <ele>203.394633</ele>
        <time>2026-08-29T12:45:53Z</time>
      </trkpt>
      <trkpt lat="43.96246" lon="1.943">
        <ele>203.468924</ele>
        <time>2026-08-29T12:45:54Z</time>
      </trkpt>
      <trkpt lat="43.96245" lon="1.94302">
        <ele>203.534108</ele>
        <time>2026-08-29T12:45:55Z</time>
      </trkpt>
      <trkpt lat="43.96245" lon="1.94304">
        <ele>203.617023</ele>
        <time>2026-08-29T12:45:56Z</time>
      </trkpt>
      <trkpt lat="43.96245" lon="1.94306">
        <ele>203.703493</ele>
        <time>2026-08-29T12:45:57Z</time>
      </trkpt>
      <trkpt lat="43.96245" lon="1.94309">
        <ele>203.778815</ele>
        <time>2026-08-29T12:45:58Z</time>
      </trkpt>
      <trkpt lat="43.96245" lon="1.9431">
        <ele>203.848433</ele>
        <time>2026-08-29T12:45:59Z</time>
      </trkpt>
      <trkpt lat="43.96246" lon="1.94312">
        <ele>203.914559</ele>
        <time>2026-08-29T12:46:00Z</time>
      </trkpt>
      <trkpt lat="43.96246" lon="1.94314">
        <ele>203.976209</ele>
        <time>2026-08-29T12:46:01Z</time>
      </trkpt>
      <trkpt lat="43.96246" lon="1.94316">
        <ele>204.045826</ele>
        <time>2026-08-29T12:46:02Z</time>
      </trkpt>
      <trkpt lat="43.96246" lon="1.94318">
        <ele>204.12472</ele>
        <time>2026-08-29T12:46:03Z</time>
      </trkpt>
      <trkpt lat="43.96246" lon="1.9432">
        <ele>204.196472</ele>
        <time>2026-08-29T12:46:04Z</time>
      </trkpt>
      <trkpt lat="43.96247" lon="1.94322">
        <ele>204.275835</ele>
        <time>2026-08-29T12:46:05Z</time>
      </trkpt>
      <trkpt lat="43.96247" lon="1.94325">
        <ele>204.372468</ele>
        <time>2026-08-29T12:46:06Z</time>
      </trkpt>
      <trkpt lat="43.96246" lon="1.94328">
        <ele>204.476377</ele>
        <time>2026-08-29T12:46:07Z</time>
      </trkpt>
      <trkpt lat="43.96246" lon="1.9433">
        <ele>204.559292</ele>
        <time>2026-08-29T12:46:08Z</time>
      </trkpt>
      <trkpt lat="43.96246" lon="1.94332">
        <ele>204.635106</ele>
        <time>2026-08-29T12:46:09Z</time>
      </trkpt>
      <trkpt lat="43.96246" lon="1.94335">
        <ele>204.721145</ele>
        <time>2026-08-29T12:46:10Z</time>
      </trkpt>
      <trkpt lat="43.96246" lon="1.94337">
        <ele>204.803611</ele>
        <time>2026-08-29T12:46:11Z</time>
      </trkpt>
      <trkpt lat="43.96246" lon="1.94339">
        <ele>204.893224</ele>
        <time>2026-08-29T12:46:12Z</time>
      </trkpt>
      <trkpt lat="43.96246" lon="1.94342">
        <ele>204.97569</ele>
        <time>2026-08-29T12:46:13Z</time>
      </trkpt>
      <trkpt lat="43.96246" lon="1.94344">
        <ele>205.051504</ele>
        <time>2026-08-29T12:46:14Z</time>
      </trkpt>
      <trkpt lat="43.96246" lon="1.94346">
        <ele>205.131642</ele>
        <time>2026-08-29T12:46:15Z</time>
      </trkpt>
      <trkpt lat="43.96245" lon="1.94349">
        <ele>205.229419</ele>
        <time>2026-08-29T12:46:16Z</time>
      </trkpt>
      <trkpt lat="43.96245" lon="1.94352">
        <ele>205.333328</ele>
        <time>2026-08-29T12:46:17Z</time>
      </trkpt>
      <trkpt lat="43.96245" lon="1.94355">
        <ele>205.437118</ele>
        <time>2026-08-29T12:46:18Z</time>
      </trkpt>
      <trkpt lat="43.96245" lon="1.94357">
        <ele>205.537453</ele>
        <time>2026-08-29T12:46:19Z</time>
      </trkpt>
      <trkpt lat="43.96246" lon="1.9436">
        <ele>205.628162</ele>
        <time>2026-08-29T12:46:20Z</time>
      </trkpt>
      <trkpt lat="43.96246" lon="1.94362">
        <ele>205.711077</ele>
        <time>2026-08-29T12:46:21Z</time>
      </trkpt>
      <trkpt lat="43.96246" lon="1.94364">
        <ele>205.782829</ele>
        <time>2026-08-29T12:46:22Z</time>
      </trkpt>
      <trkpt lat="43.96246" lon="1.94367">
        <ele>205.877071</ele>
        <time>2026-08-29T12:46:23Z</time>
      </trkpt>
      <trkpt lat="43.96246" lon="1.94369">
        <ele>205.953695</ele>
        <time>2026-08-29T12:46:24Z</time>
      </trkpt>
      <trkpt lat="43.96245" lon="1.94371">
        <ele>206.03838</ele>
        <time>2026-08-29T12:46:25Z</time>
      </trkpt>
      <trkpt lat="43.96245" lon="1.94375">
        <ele>206.160976</ele>
        <time>2026-08-29T12:46:26Z</time>
      </trkpt>
      <trkpt lat="43.96245" lon="1.94378">
        <ele>206.282763</ele>
        <time>2026-08-29T12:46:27Z</time>
      </trkpt>
      <trkpt lat="43.96245" lon="1.94381">
        <ele>206.399004</ele>
        <time>2026-08-29T12:46:28Z</time>
      </trkpt>
      <trkpt lat="43.96244" lon="1.94384">
        <ele>206.506833</ele>
        <time>2026-08-29T12:46:29Z</time>
      </trkpt>
      <trkpt lat="43.96244" lon="1.94387">
        <ele>206.608999</ele>
        <time>2026-08-29T12:46:30Z</time>
      </trkpt>
      <trkpt lat="43.96244" lon="1.94389">
        <ele>206.699709</ele>
        <time>2026-08-29T12:46:31Z</time>
      </trkpt>
      <trkpt lat="43.96245" lon="1.94392">
        <ele>206.786178</ele>
        <time>2026-08-29T12:46:32Z</time>
      </trkpt>
      <trkpt lat="43.96244" lon="1.94394">
        <ele>206.87579</ele>
        <time>2026-08-29T12:46:33Z</time>
      </trkpt>
      <trkpt lat="43.96244" lon="1.94397">
        <ele>206.977106</ele>
        <time>2026-08-29T12:46:34Z</time>
      </trkpt>
      <trkpt lat="43.96244" lon="1.944">
        <ele>207.063575</ele>
        <time>2026-08-29T12:46:35Z</time>
      </trkpt>
      <trkpt lat="43.96244" lon="1.94402">
        <ele>207.146041</ele>
        <time>2026-08-29T12:46:36Z</time>
      </trkpt>
      <trkpt lat="43.96244" lon="1.94404">
        <ele>207.232081</ele>
        <time>2026-08-29T12:46:37Z</time>
      </trkpt>
      <trkpt lat="43.96244" lon="1.94407">
        <ele>207.31855</ele>
        <time>2026-08-29T12:46:38Z</time>
      </trkpt>
      <trkpt lat="43.96244" lon="1.9441">
        <ele>207.431267</ele>
        <time>2026-08-29T12:46:39Z</time>
      </trkpt>
      <trkpt lat="43.96243" lon="1.94412">
        <ele>207.524131</ele>
        <time>2026-08-29T12:46:40Z</time>
      </trkpt>
      <trkpt lat="43.96242" lon="1.94415">
        <ele>207.640389</ele>
        <time>2026-08-29T12:46:41Z</time>
      </trkpt>
      <trkpt lat="43.9624" lon="1.94418">
        <ele>207.779869</ele>
        <time>2026-08-29T12:46:42Z</time>
      </trkpt>
      <trkpt lat="43.96238" lon="1.94422">
        <ele>207.942625</ele>
        <time>2026-08-29T12:46:43Z</time>
      </trkpt>
      <trkpt lat="43.96236" lon="1.94425">
        <ele>208.112241</ele>
        <time>2026-08-29T12:46:44Z</time>
      </trkpt>
      <trkpt lat="43.96233" lon="1.94429">
        <ele>208.326276</ele>
        <time>2026-08-29T12:46:45Z</time>
      </trkpt>
      <trkpt lat="43.9623" lon="1.94434">
        <ele>208.557081</ele>
        <time>2026-08-29T12:46:46Z</time>
      </trkpt>
      <trkpt lat="43.96227" lon="1.94439">
        <ele>208.789519</ele>
        <time>2026-08-29T12:46:47Z</time>
      </trkpt>
      <trkpt lat="43.96223" lon="1.94444">
        <ele>209.034958</ele>
        <time>2026-08-29T12:46:48Z</time>
      </trkpt>
      <trkpt lat="43.9622" lon="1.94448">
        <ele>209.283057</ele>
        <time>2026-08-29T12:46:49Z</time>
      </trkpt>
      <trkpt lat="43.96215" lon="1.94453">
        <ele>209.560849</ele>
        <time>2026-08-29T12:46:50Z</time>
      </trkpt>
      <trkpt lat="43.96211" lon="1.94458">
        <ele>209.652079</ele>
        <time>2026-08-29T12:46:51Z</time>
      </trkpt>
      <trkpt lat="43.96207" lon="1.94463">
        <ele>209.661585</ele>
        <time>2026-08-29T12:46:52Z</time>
      </trkpt>
      <trkpt lat="43.96202" lon="1.94467">
        <ele>209.671272</ele>
        <time>2026-08-29T12:46:53Z</time>
      </trkpt>
      <trkpt lat="43.96198" lon="1.94472">
        <ele>209.680539</ele>
        <time>2026-08-29T12:46:54Z</time>
      </trkpt>
      <trkpt lat="43.96194" lon="1.94477">
        <ele>209.690214</ele>
        <time>2026-08-29T12:46:55Z</time>
      </trkpt>
      <trkpt lat="43.96189" lon="1.94482">
        <ele>209.699343</ele>
        <time>2026-08-29T12:46:56Z</time>
      </trkpt>
      <trkpt lat="43.96185" lon="1.94486">
        <ele>209.708755</ele>
        <time>2026-08-29T12:46:57Z</time>
      </trkpt>
      <trkpt lat="43.9618" lon="1.94491">
        <ele>209.718653</ele>
        <time>2026-08-29T12:46:58Z</time>
      </trkpt>
      <trkpt lat="43.96175" lon="1.94495">
        <ele>209.72864</ele>
        <time>2026-08-29T12:46:59Z</time>
      </trkpt>
      <trkpt lat="43.9617" lon="1.94499">
        <ele>209.73826</ele>
        <time>2026-08-29T12:47:00Z</time>
      </trkpt>
      <trkpt lat="43.96166" lon="1.94504">
        <ele>209.747214</ele>
        <time>2026-08-29T12:47:01Z</time>
      </trkpt>
      <trkpt lat="43.96163" lon="1.94509">
        <ele>209.75616</ele>
        <time>2026-08-29T12:47:02Z</time>
      </trkpt>
      <trkpt lat="43.96159" lon="1.94514">
        <ele>209.764671</ele>
        <time>2026-08-29T12:47:03Z</time>
      </trkpt>
      <trkpt lat="43.96157" lon="1.9452">
        <ele>209.772665</ele>
        <time>2026-08-29T12:47:04Z</time>
      </trkpt>
      <trkpt lat="43.96155" lon="1.94525">
        <ele>209.780192</ele>
        <time>2026-08-29T12:47:05Z</time>
      </trkpt>
      <trkpt lat="43.96153" lon="1.9453">
        <ele>209.787744</ele>
        <time>2026-08-29T12:47:06Z</time>
      </trkpt>
      <trkpt lat="43.96151" lon="1.94535">
        <ele>209.794547</ele>
        <time>2026-08-29T12:47:07Z</time>
      </trkpt>
      <trkpt lat="43.96149" lon="1.94541">
        <ele>209.801378</ele>
        <time>2026-08-29T12:47:08Z</time>
      </trkpt>
      <trkpt lat="43.96148" lon="1.94545">
        <ele>209.807803</ele>
        <time>2026-08-29T12:47:09Z</time>
      </trkpt>
      <trkpt lat="43.96147" lon="1.94551">
        <ele>209.814634</ele>
        <time>2026-08-29T12:47:10Z</time>
      </trkpt>
      <trkpt lat="43.96145" lon="1.94555">
        <ele>209.821105</ele>
        <time>2026-08-29T12:47:11Z</time>
      </trkpt>
      <trkpt lat="43.96144" lon="1.9456">
        <ele>209.827024</ele>
        <time>2026-08-29T12:47:12Z</time>
      </trkpt>
      <trkpt lat="43.96142" lon="1.94564">
        <ele>209.832876</ele>
        <time>2026-08-29T12:47:13Z</time>
      </trkpt>
      <trkpt lat="43.96141" lon="1.94568">
        <ele>209.838164</ele>
        <time>2026-08-29T12:47:14Z</time>
      </trkpt>
      <trkpt lat="43.9614" lon="1.94572">
        <ele>209.843674</ele>
        <time>2026-08-29T12:47:15Z</time>
      </trkpt>
      <trkpt lat="43.96139" lon="1.94577">
        <ele>209.849869</ele>
        <time>2026-08-29T12:47:16Z</time>
      </trkpt>
      <trkpt lat="43.96138" lon="1.94582">
        <ele>209.856004</ele>
        <time>2026-08-29T12:47:17Z</time>
      </trkpt>
      <trkpt lat="43.96136" lon="1.94587">
        <ele>209.862429</ele>
        <time>2026-08-29T12:47:18Z</time>
      </trkpt>
      <trkpt lat="43.96135" lon="1.94591">
        <ele>209.868868</ele>
        <time>2026-08-29T12:47:19Z</time>
      </trkpt>
      <trkpt lat="43.96133" lon="1.94596">
        <ele>209.875126</ele>
        <time>2026-08-29T12:47:20Z</time>
      </trkpt>
      <trkpt lat="43.96132" lon="1.94601">
        <ele>209.881651</ele>
        <time>2026-08-29T12:47:21Z</time>
      </trkpt>
      <trkpt lat="43.9613" lon="1.94605">
        <ele>209.887716</ele>
        <time>2026-08-29T12:47:22Z</time>
      </trkpt>
      <trkpt lat="43.96128" lon="1.9461">
        <ele>209.893782</ele>
        <time>2026-08-29T12:47:23Z</time>
      </trkpt>
      <trkpt lat="43.96127" lon="1.94614">
        <ele>209.899586</ele>
        <time>2026-08-29T12:47:24Z</time>
      </trkpt>
      <trkpt lat="43.96125" lon="1.94618">
        <ele>209.905578</ele>
        <time>2026-08-29T12:47:25Z</time>
      </trkpt>
      <trkpt lat="43.96123" lon="1.94622">
        <ele>209.911382</ele>
        <time>2026-08-29T12:47:26Z</time>
      </trkpt>
      <trkpt lat="43.96121" lon="1.94626">
        <ele>209.917681</ele>
        <time>2026-08-29T12:47:27Z</time>
      </trkpt>
      <trkpt lat="43.96119" lon="1.9463">
        <ele>209.923575</ele>
        <time>2026-08-29T12:47:28Z</time>
      </trkpt>
      <trkpt lat="43.96116" lon="1.94633">
        <ele>209.92948</ele>
        <time>2026-08-29T12:47:29Z</time>
      </trkpt>
      <trkpt lat="43.96114" lon="1.94637">
        <ele>209.935086</ele>
        <time>2026-08-29T12:47:30Z</time>
      </trkpt>
      <trkpt lat="43.96112" lon="1.9464">
        <ele>209.940787</ele>
        <time>2026-08-29T12:47:31Z</time>
      </trkpt>
      <trkpt lat="43.9611" lon="1.94644">
        <ele>209.946709</ele>
        <time>2026-08-29T12:47:32Z</time>
      </trkpt>
      <trkpt lat="43.96108" lon="1.94648">
        <ele>209.952724</ele>
        <time>2026-08-29T12:47:33Z</time>
      </trkpt>
      <trkpt lat="43.96106" lon="1.94652">
        <ele>210.045226</ele>
        <time>2026-08-29T12:47:34Z</time>
      </trkpt>
      <trkpt lat="43.96103" lon="1.94655">
        <ele>210.149832</ele>
        <time>2026-08-29T12:47:35Z</time>
      </trkpt>
      <trkpt lat="43.96101" lon="1.94659">
        <ele>210.25258</ele>
        <time>2026-08-29T12:47:36Z</time>
      </trkpt>
      <trkpt lat="43.96099" lon="1.94663">
        <ele>210.353518</ele>
        <time>2026-08-29T12:47:37Z</time>
      </trkpt>
      <trkpt lat="43.96097" lon="1.94667">
        <ele>210.456265</ele>
        <time>2026-08-29T12:47:38Z</time>
      </trkpt>
      <trkpt lat="43.96095" lon="1.94671">
        <ele>210.562493</ele>
        <time>2026-08-29T12:47:39Z</time>
      </trkpt>
      <trkpt lat="43.96092" lon="1.94674">
        <ele>210.660123</ele>
        <time>2026-08-29T12:47:40Z</time>
      </trkpt>
      <trkpt lat="43.96091" lon="1.94678">
        <ele>210.750754</ele>
        <time>2026-08-29T12:47:41Z</time>
      </trkpt>
      <trkpt lat="43.96089" lon="1.94681">
        <ele>210.843559</ele>
        <time>2026-08-29T12:47:42Z</time>
      </trkpt>
      <trkpt lat="43.96086" lon="1.94684">
        <ele>210.938327</ele>
        <time>2026-08-29T12:47:43Z</time>
      </trkpt>
      <trkpt lat="43.96084" lon="1.94688">
        <ele>211.035957</ele>
        <time>2026-08-29T12:47:44Z</time>
      </trkpt>
      <trkpt lat="43.96082" lon="1.94692">
        <ele>211.14027</ele>
        <time>2026-08-29T12:47:45Z</time>
      </trkpt>
      <trkpt lat="43.9608" lon="1.94696">
        <ele>211.244668</ele>
        <time>2026-08-29T12:47:46Z</time>
      </trkpt>
      <trkpt lat="43.96078" lon="1.947">
        <ele>211.345782</ele>
        <time>2026-08-29T12:47:47Z</time>
      </trkpt>
      <trkpt lat="43.96076" lon="1.94703">
        <ele>211.446896</ele>
        <time>2026-08-29T12:47:48Z</time>
      </trkpt>
      <trkpt lat="43.96074" lon="1.94707">
        <ele>211.53941</ele>
        <time>2026-08-29T12:47:49Z</time>
      </trkpt>
      <trkpt lat="43.96071" lon="1.9471">
        <ele>211.629101</ele>
        <time>2026-08-29T12:47:50Z</time>
      </trkpt>
      <trkpt lat="43.9607" lon="1.94713">
        <ele>211.718137</ele>
        <time>2026-08-29T12:47:51Z</time>
      </trkpt>
      <trkpt lat="43.96067" lon="1.94716">
        <ele>211.809374</ele>
        <time>2026-08-29T12:47:52Z</time>
      </trkpt>
      <trkpt lat="43.96065" lon="1.9472">
        <ele>211.903767</ele>
        <time>2026-08-29T12:47:53Z</time>
      </trkpt>
      <trkpt lat="43.96064" lon="1.94723">
        <ele>211.991004</ele>
        <time>2026-08-29T12:47:54Z</time>
      </trkpt>
      <trkpt lat="43.96062" lon="1.94727">
        <ele>212.085059</ele>
        <time>2026-08-29T12:47:55Z</time>
      </trkpt>
      <trkpt lat="43.9606" lon="1.9473">
        <ele>212.173984</ele>
        <time>2026-08-29T12:47:56Z</time>
      </trkpt>
      <trkpt lat="43.96058" lon="1.94733">
        <ele>212.268378</ele>
        <time>2026-08-29T12:47:57Z</time>
      </trkpt>
      <trkpt lat="43.96056" lon="1.94737">
        <ele>212.35927</ele>
        <time>2026-08-29T12:47:58Z</time>
      </trkpt>
      <trkpt lat="43.96054" lon="1.9474">
        <ele>212.448414</ele>
        <time>2026-08-29T12:47:59Z</time>
      </trkpt>
      <trkpt lat="43.96052" lon="1.94744">
        <ele>212.535637</ele>
        <time>2026-08-29T12:48:00Z</time>
      </trkpt>
      <trkpt lat="43.96051" lon="1.94747">
        <ele>212.617925</ele>
        <time>2026-08-29T12:48:01Z</time>
      </trkpt>
      <trkpt lat="43.96049" lon="1.9475">
        <ele>212.703493</ele>
        <time>2026-08-29T12:48:02Z</time>
      </trkpt>
      <trkpt lat="43.96047" lon="1.94753">
        <ele>212.790716</ele>
        <time>2026-08-29T12:48:03Z</time>
      </trkpt>
      <trkpt lat="43.96045" lon="1.94757">
        <ele>212.879751</ele>
        <time>2026-08-29T12:48:04Z</time>
      </trkpt>
      <trkpt lat="43.96044" lon="1.9476">
        <ele>212.965252</ele>
        <time>2026-08-29T12:48:05Z</time>
      </trkpt>
      <trkpt lat="43.96042" lon="1.94763">
        <ele>213.054288</ele>
        <time>2026-08-29T12:48:06Z</time>
      </trkpt>
      <trkpt lat="43.9604" lon="1.94767">
        <ele>213.143214</ele>
        <time>2026-08-29T12:48:07Z</time>
      </trkpt>
      <trkpt lat="43.96038" lon="1.9477">
        <ele>213.235568</ele>
        <time>2026-08-29T12:48:08Z</time>
      </trkpt>
      <trkpt lat="43.96036" lon="1.94774">
        <ele>213.329723</ele>
        <time>2026-08-29T12:48:09Z</time>
      </trkpt>
      <trkpt lat="43.96034" lon="1.94777">
        <ele>213.426049</ele>
        <time>2026-08-29T12:48:10Z</time>
      </trkpt>
      <trkpt lat="43.96032" lon="1.94781">
        <ele>213.520204</ele>
        <time>2026-08-29T12:48:11Z</time>
      </trkpt>
      <trkpt lat="43.9603" lon="1.94784">
        <ele>213.61948</ele>
        <time>2026-08-29T12:48:12Z</time>
      </trkpt>
      <trkpt lat="43.96028" lon="1.94788">
        <ele>213.715295</ele>
        <time>2026-08-29T12:48:13Z</time>
      </trkpt>
      <trkpt lat="43.96026" lon="1.94791">
        <ele>213.80935</ele>
        <time>2026-08-29T12:48:14Z</time>
      </trkpt>
      <trkpt lat="43.96024" lon="1.94795">
        <ele>213.901714</ele>
        <time>2026-08-29T12:48:15Z</time>
      </trkpt>
      <trkpt lat="43.96022" lon="1.94798">
        <ele>213.985735</ele>
        <time>2026-08-29T12:48:16Z</time>
      </trkpt>
      <trkpt lat="43.96021" lon="1.94802">
        <ele>214.079828</ele>
        <time>2026-08-29T12:48:17Z</time>
      </trkpt>
      <trkpt lat="43.96019" lon="1.94806">
        <ele>214.17392</ele>
        <time>2026-08-29T12:48:18Z</time>
      </trkpt>
      <trkpt lat="43.96017" lon="1.9481">
        <ele>214.268188</ele>
        <time>2026-08-29T12:48:19Z</time>
      </trkpt>
      <trkpt lat="43.96015" lon="1.94813">
        <ele>214.362456</ele>
        <time>2026-08-29T12:48:20Z</time>
      </trkpt>
      <trkpt lat="43.96014" lon="1.94817">
        <ele>214.449815</ele>
        <time>2026-08-29T12:48:21Z</time>
      </trkpt>
      <trkpt lat="43.96012" lon="1.9482">
        <ele>214.533647</ele>
        <time>2026-08-29T12:48:22Z</time>
      </trkpt>
      <trkpt lat="43.96011" lon="1.94824">
        <ele>214.617668</ele>
        <time>2026-08-29T12:48:23Z</time>
      </trkpt>
      <trkpt lat="43.96009" lon="1.94827">
        <ele>214.704892</ele>
        <time>2026-08-29T12:48:24Z</time>
      </trkpt>
      <trkpt lat="43.96007" lon="1.9483">
        <ele>214.792115</ele>
        <time>2026-08-29T12:48:25Z</time>
      </trkpt>
      <trkpt lat="43.96006" lon="1.94834">
        <ele>214.882832</ele>
        <time>2026-08-29T12:48:26Z</time>
      </trkpt>
      <trkpt lat="43.96004" lon="1.94838">
        <ele>214.976924</ele>
        <time>2026-08-29T12:48:27Z</time>
      </trkpt>
      <trkpt lat="43.96002" lon="1.94841">
        <ele>215.071192</ele>
        <time>2026-08-29T12:48:28Z</time>
      </trkpt>
      <trkpt lat="43.96001" lon="1.94845">
        <ele>215.15678</ele>
        <time>2026-08-29T12:48:29Z</time>
      </trkpt>
      <trkpt lat="43.95999" lon="1.94848">
        <ele>215.23954</ele>
        <time>2026-08-29T12:48:30Z</time>
      </trkpt>
      <trkpt lat="43.95998" lon="1.94852">
        <ele>215.310647</ele>
        <time>2026-08-29T12:48:31Z</time>
      </trkpt>
      <trkpt lat="43.95996" lon="1.94856">
        <ele>215.382196</ele>
        <time>2026-08-29T12:48:32Z</time>
      </trkpt>
      <trkpt lat="43.95995" lon="1.94859">
        <ele>215.449099</ele>
        <time>2026-08-29T12:48:33Z</time>
      </trkpt>
      <trkpt lat="43.95994" lon="1.94863">
        <ele>215.52174</ele>
        <time>2026-08-29T12:48:34Z</time>
      </trkpt>
      <trkpt lat="43.95992" lon="1.94866">
        <ele>215.592847</ele>
        <time>2026-08-29T12:48:35Z</time>
      </trkpt>
      <trkpt lat="43.95991" lon="1.9487">
        <ele>215.66243</ele>
        <time>2026-08-29T12:48:36Z</time>
      </trkpt>
      <trkpt lat="43.95989" lon="1.94874">
        <ele>215.736225</ele>
        <time>2026-08-29T12:48:37Z</time>
      </trkpt>
      <trkpt lat="43.95988" lon="1.94877">
        <ele>215.811959</ele>
        <time>2026-08-29T12:48:38Z</time>
      </trkpt>
      <trkpt lat="43.95987" lon="1.94881">
        <ele>215.881951</ele>
        <time>2026-08-29T12:48:39Z</time>
      </trkpt>
      <trkpt lat="43.95985" lon="1.94885">
        <ele>215.951943</ele>
        <time>2026-08-29T12:48:40Z</time>
      </trkpt>
      <trkpt lat="43.95984" lon="1.94888">
        <ele>216.024229</ele>
        <time>2026-08-29T12:48:41Z</time>
      </trkpt>
      <trkpt lat="43.95982" lon="1.94891">
        <ele>216.09059</ele>
        <time>2026-08-29T12:48:42Z</time>
      </trkpt>
      <trkpt lat="43.95981" lon="1.94895">
        <ele>216.151214</ele>
        <time>2026-08-29T12:48:43Z</time>
      </trkpt>
      <trkpt lat="43.9598" lon="1.94898">
        <ele>216.214412</ele>
        <time>2026-08-29T12:48:44Z</time>
      </trkpt>
      <trkpt lat="43.95979" lon="1.94902">
        <ele>216.284723</ele>
        <time>2026-08-29T12:48:45Z</time>
      </trkpt>
      <trkpt lat="43.95978" lon="1.94905">
        <ele>216.346854</ele>
        <time>2026-08-29T12:48:46Z</time>
      </trkpt>
      <trkpt lat="43.95976" lon="1.94908">
        <ele>216.409201</ele>
        <time>2026-08-29T12:48:47Z</time>
      </trkpt>
      <trkpt lat="43.95975" lon="1.94911">
        <ele>216.474113</ele>
        <time>2026-08-29T12:48:48Z</time>
      </trkpt>
      <trkpt lat="43.95974" lon="1.94914">
        <ele>216.53771</ele>
        <time>2026-08-29T12:48:49Z</time>
      </trkpt>
      <trkpt lat="43.95972" lon="1.94917">
        <ele>216.601307</ele>
        <time>2026-08-29T12:48:50Z</time>
      </trkpt>
      <trkpt lat="43.95971" lon="1.94921">
        <ele>216.66821</ele>
        <time>2026-08-29T12:48:51Z</time>
      </trkpt>
      <trkpt lat="43.9597" lon="1.94924">
        <ele>216.736653</ele>
        <time>2026-08-29T12:48:52Z</time>
      </trkpt>
      <trkpt lat="43.95968" lon="1.94927">
        <ele>216.797308</ele>
        <time>2026-08-29T12:48:53Z</time>
      </trkpt>
      <trkpt lat="43.95967" lon="1.9493">
        <ele>216.859366</ele>
        <time>2026-08-29T12:48:54Z</time>
      </trkpt>
      <trkpt lat="43.95965" lon="1.94933">
        <ele>216.922843</ele>
        <time>2026-08-29T12:48:55Z</time>
      </trkpt>
      <trkpt lat="43.95964" lon="1.94936">
        <ele>216.990667</ele>
        <time>2026-08-29T12:48:56Z</time>
      </trkpt>
      <trkpt lat="43.95962" lon="1.9494">
        <ele>217.064463</ele>
        <time>2026-08-29T12:48:57Z</time>
      </trkpt>
      <trkpt lat="43.95961" lon="1.94943">
        <ele>217.137104</ele>
        <time>2026-08-29T12:48:58Z</time>
      </trkpt>
      <trkpt lat="43.95959" lon="1.94947">
        <ele>217.202477</ele>
        <time>2026-08-29T12:48:59Z</time>
      </trkpt>
      <trkpt lat="43.95958" lon="1.9495">
        <ele>217.273585</ele>
        <time>2026-08-29T12:49:00Z</time>
      </trkpt>
      <trkpt lat="43.95957" lon="1.94954">
        <ele>217.343577</ele>
        <time>2026-08-29T12:49:01Z</time>
      </trkpt>
      <trkpt lat="43.95955" lon="1.94957">
        <ele>217.41202</ele>
        <time>2026-08-29T12:49:02Z</time>
      </trkpt>
      <trkpt lat="43.95954" lon="1.94961">
        <ele>217.476799</ele>
        <time>2026-08-29T12:49:03Z</time>
      </trkpt>
      <trkpt lat="43.95953" lon="1.94965">
        <ele>217.547975</ele>
        <time>2026-08-29T12:49:04Z</time>
      </trkpt>
      <trkpt lat="43.95952" lon="1.94968">
        <ele>217.620087</ele>
        <time>2026-08-29T12:49:05Z</time>
      </trkpt>
      <trkpt lat="43.95951" lon="1.94972">
        <ele>217.6922</ele>
        <time>2026-08-29T12:49:06Z</time>
      </trkpt>
      <trkpt lat="43.9595" lon="1.94976">
        <ele>217.764312</ele>
        <time>2026-08-29T12:49:07Z</time>
      </trkpt>
      <trkpt lat="43.95948" lon="1.9498">
        <ele>217.835419</ele>
        <time>2026-08-29T12:49:08Z</time>
      </trkpt>
      <trkpt lat="43.95947" lon="1.94984">
        <ele>217.910108</ele>
        <time>2026-08-29T12:49:09Z</time>
      </trkpt>
      <trkpt lat="43.95946" lon="1.94987">
        <ele>217.983223</ele>
        <time>2026-08-29T12:49:10Z</time>
      </trkpt>
      <trkpt lat="43.95944" lon="1.94991">
        <ele>218.052166</ele>
        <time>2026-08-29T12:49:11Z</time>
      </trkpt>
      <trkpt lat="43.95943" lon="1.94995">
        <ele>218.119224</ele>
        <time>2026-08-29T12:49:12Z</time>
      </trkpt>
      <trkpt lat="43.95942" lon="1.94998">
        <ele>218.189748</ele>
        <time>2026-08-29T12:49:13Z</time>
      </trkpt>
      <trkpt lat="43.95941" lon="1.95002">
        <ele>218.253998</ele>
        <time>2026-08-29T12:49:14Z</time>
      </trkpt>
      <trkpt lat="43.9594" lon="1.95005">
        <ele>218.319372</ele>
        <time>2026-08-29T12:49:15Z</time>
      </trkpt>
      <trkpt lat="43.95938" lon="1.95008">
        <ele>218.383227</ele>
        <time>2026-08-29T12:49:16Z</time>
      </trkpt>
      <trkpt lat="43.95937" lon="1.95011">
        <ele>218.448303</ele>
        <time>2026-08-29T12:49:17Z</time>
      </trkpt>
      <trkpt lat="43.95936" lon="1.95015">
        <ele>218.516373</ele>
        <time>2026-08-29T12:49:18Z</time>
      </trkpt>
      <trkpt lat="43.95934" lon="1.95018">
        <ele>218.587922</ele>
        <time>2026-08-29T12:49:19Z</time>
      </trkpt>
      <trkpt lat="43.95933" lon="1.95022">
        <ele>218.657915</ele>
        <time>2026-08-29T12:49:20Z</time>
      </trkpt>
      <trkpt lat="43.95932" lon="1.95026">
        <ele>218.732604</ele>
        <time>2026-08-29T12:49:21Z</time>
      </trkpt>
      <trkpt lat="43.9593" lon="1.9503">
        <ele>218.805719</ele>
        <time>2026-08-29T12:49:22Z</time>
      </trkpt>
      <trkpt lat="43.95929" lon="1.95034">
        <ele>218.884099</ele>
        <time>2026-08-29T12:49:23Z</time>
      </trkpt>
      <trkpt lat="43.95928" lon="1.95038">
        <ele>218.959407</ele>
        <time>2026-08-29T12:49:24Z</time>
      </trkpt>
      <trkpt lat="43.95927" lon="1.95042">
        <ele>219.031353</ele>
        <time>2026-08-29T12:49:25Z</time>
      </trkpt>
      <trkpt lat="43.95925" lon="1.95046">
        <ele>219.109733</ele>
        <time>2026-08-29T12:49:26Z</time>
      </trkpt>
      <trkpt lat="43.95923" lon="1.95049">
        <ele>219.184555</ele>
        <time>2026-08-29T12:49:27Z</time>
      </trkpt>
      <trkpt lat="43.95922" lon="1.95053">
        <ele>219.254139</ele>
        <time>2026-08-29T12:49:28Z</time>
      </trkpt>
      <trkpt lat="43.95921" lon="1.95056">
        <ele>219.322582</ele>
        <time>2026-08-29T12:49:29Z</time>
      </trkpt>
      <trkpt lat="43.9592" lon="1.9506">
        <ele>219.38895</ele>
        <time>2026-08-29T12:49:30Z</time>
      </trkpt>
      <trkpt lat="43.95919" lon="1.95063">
        <ele>219.45439</ele>
        <time>2026-08-29T12:49:31Z</time>
      </trkpt>
      <trkpt lat="43.95918" lon="1.95066">
        <ele>219.516613</ele>
        <time>2026-08-29T12:49:32Z</time>
      </trkpt>
      <trkpt lat="43.95917" lon="1.95069">
        <ele>219.545014</ele>
        <time>2026-08-29T12:49:33Z</time>
      </trkpt>
      <trkpt lat="43.95916" lon="1.95073">
        <ele>219.467826</ele>
        <time>2026-08-29T12:49:34Z</time>
      </trkpt>
      <trkpt lat="43.95915" lon="1.95076">
        <ele>219.394713</ele>
        <time>2026-08-29T12:49:35Z</time>
      </trkpt>
      <trkpt lat="43.95914" lon="1.95079">
        <ele>219.312303</ele>
        <time>2026-08-29T12:49:36Z</time>
      </trkpt>
      <trkpt lat="43.95913" lon="1.95083">
        <ele>219.224803</ele>
        <time>2026-08-29T12:49:37Z</time>
      </trkpt>
      <trkpt lat="43.95913" lon="1.95088">
        <ele>219.125209</ele>
        <time>2026-08-29T12:49:38Z</time>
      </trkpt>
      <trkpt lat="43.95912" lon="1.95093">
        <ele>219.010018</ele>
        <time>2026-08-29T12:49:39Z</time>
      </trkpt>
      <trkpt lat="43.95912" lon="1.95098">
        <ele>218.90561</ele>
        <time>2026-08-29T12:49:40Z</time>
      </trkpt>
      <trkpt lat="43.9591" lon="1.95102">
        <ele>218.796532</ele>
        <time>2026-08-29T12:49:41Z</time>
      </trkpt>
      <trkpt lat="43.95909" lon="1.95107">
        <ele>218.696533</ele>
        <time>2026-08-29T12:49:42Z</time>
      </trkpt>
      <trkpt lat="43.95908" lon="1.9511">
        <ele>218.603762</ele>
        <time>2026-08-29T12:49:43Z</time>
      </trkpt>
      <trkpt lat="43.95907" lon="1.95115">
        <ele>218.505769</ele>
        <time>2026-08-29T12:49:44Z</time>
      </trkpt>
      <trkpt lat="43.95905" lon="1.95119">
        <ele>218.402542</ele>
        <time>2026-08-29T12:49:45Z</time>
      </trkpt>
      <trkpt lat="43.95904" lon="1.95123">
        <ele>218.295236</ele>
        <time>2026-08-29T12:49:46Z</time>
      </trkpt>
      <trkpt lat="43.95902" lon="1.95128">
        <ele>218.182135</ele>
        <time>2026-08-29T12:49:47Z</time>
      </trkpt>
      <trkpt lat="43.959" lon="1.95132">
        <ele>218.065687</ele>
        <time>2026-08-29T12:49:48Z</time>
      </trkpt>
      <trkpt lat="43.95898" lon="1.95138">
        <ele>217.93618</ele>
        <time>2026-08-29T12:49:49Z</time>
      </trkpt>
      <trkpt lat="43.95897" lon="1.95144">
        <ele>217.800319</ele>
        <time>2026-08-29T12:49:50Z</time>
      </trkpt>
      <trkpt lat="43.95895" lon="1.9515">
        <ele>217.653099</ele>
        <time>2026-08-29T12:49:51Z</time>
      </trkpt>
      <trkpt lat="43.95893" lon="1.95157">
        <ele>217.49257</ele>
        <time>2026-08-29T12:49:52Z</time>
      </trkpt>
      <trkpt lat="43.95891" lon="1.95163">
        <ele>217.337091</ele>
        <time>2026-08-29T12:49:53Z</time>
      </trkpt>
      <trkpt lat="43.95889" lon="1.9517">
        <ele>217.18647</ele>
        <time>2026-08-29T12:49:54Z</time>
      </trkpt>
      <trkpt lat="43.95887" lon="1.95176">
        <ele>217.026683</ele>
        <time>2026-08-29T12:49:55Z</time>
      </trkpt>
      <trkpt lat="43.95884" lon="1.95182">
        <ele>216.864426</ele>
        <time>2026-08-29T12:49:56Z</time>
      </trkpt>
      <trkpt lat="43.95881" lon="1.95189">
        <ele>216.695537</ele>
        <time>2026-08-29T12:49:57Z</time>
      </trkpt>
      <trkpt lat="43.95878" lon="1.95196">
        <ele>216.523244</ele>
        <time>2026-08-29T12:49:58Z</time>
      </trkpt>
      <trkpt lat="43.95876" lon="1.95203">
        <ele>216.349005</ele>
        <time>2026-08-29T12:49:59Z</time>
      </trkpt>
      <trkpt lat="43.95873" lon="1.9521">
        <ele>216.174238</ele>
        <time>2026-08-29T12:50:00Z</time>
      </trkpt>
      <trkpt lat="43.9587" lon="1.95217">
        <ele>215.992272</ele>
        <time>2026-08-29T12:50:01Z</time>
      </trkpt>
      <trkpt lat="43.95867" lon="1.95224">
        <ele>215.810306</ele>
        <time>2026-08-29T12:50:02Z</time>
      </trkpt>
      <trkpt lat="43.95864" lon="1.95231">
        <ele>215.628928</ele>
        <time>2026-08-29T12:50:03Z</time>
      </trkpt>
      <trkpt lat="43.9586" lon="1.95238">
        <ele>215.445903</ele>
        <time>2026-08-29T12:50:04Z</time>
      </trkpt>
      <trkpt lat="43.95857" lon="1.95246">
        <ele>215.259202</ele>
        <time>2026-08-29T12:50:05Z</time>
      </trkpt>
      <trkpt lat="43.95854" lon="1.95253">
        <ele>215.074116</ele>
        <time>2026-08-29T12:50:06Z</time>
      </trkpt>
      <trkpt lat="43.95851" lon="1.9526">
        <ele>214.888351</ele>
        <time>2026-08-29T12:50:07Z</time>
      </trkpt>
      <trkpt lat="43.95848" lon="1.95267">
        <ele>214.708583</ele>
        <time>2026-08-29T12:50:08Z</time>
      </trkpt>
      <trkpt lat="43.95845" lon="1.95274">
        <ele>214.534133</ele>
        <time>2026-08-29T12:50:09Z</time>
      </trkpt>
      <trkpt lat="43.95842" lon="1.9528">
        <ele>214.361887</ele>
        <time>2026-08-29T12:50:10Z</time>
      </trkpt>
      <trkpt lat="43.95839" lon="1.95287">
        <ele>214.189298</ele>
        <time>2026-08-29T12:50:11Z</time>
      </trkpt>
      <trkpt lat="43.95836" lon="1.95294">
        <ele>214.072066</ele>
        <time>2026-08-29T12:50:12Z</time>
      </trkpt>
      <trkpt lat="43.95833" lon="1.95301">
        <ele>214.023441</ele>
        <time>2026-08-29T12:50:13Z</time>
      </trkpt>
      <trkpt lat="43.9583" lon="1.95307">
        <ele>213.975793</ele>
        <time>2026-08-29T12:50:14Z</time>
      </trkpt>
      <trkpt lat="43.95827" lon="1.95314">
        <ele>213.930627</ele>
        <time>2026-08-29T12:50:15Z</time>
      </trkpt>
      <trkpt lat="43.95825" lon="1.9532">
        <ele>213.888191</ele>
        <time>2026-08-29T12:50:16Z</time>
      </trkpt>
      <trkpt lat="43.95823" lon="1.95326">
        <ele>213.845912</ele>
        <time>2026-08-29T12:50:17Z</time>
      </trkpt>
      <trkpt lat="43.95821" lon="1.95331">
        <ele>213.808397</ele>
        <time>2026-08-29T12:50:18Z</time>
      </trkpt>
      <trkpt lat="43.95819" lon="1.95336">
        <ele>213.776794</ele>
        <time>2026-08-29T12:50:19Z</time>
      </trkpt>
      <trkpt lat="43.95819" lon="1.9534">
        <ele>213.749827</ele>
        <time>2026-08-29T12:50:20Z</time>
      </trkpt>
      <trkpt lat="43.95819" lon="1.95344">
        <ele>213.724268</ele>
        <time>2026-08-29T12:50:21Z</time>
      </trkpt>
      <trkpt lat="43.9582" lon="1.95348">
        <ele>213.699943</ele>
        <time>2026-08-29T12:50:22Z</time>
      </trkpt>
      <trkpt lat="43.95822" lon="1.95351">
        <ele>213.672643</ele>
        <time>2026-08-29T12:50:23Z</time>
      </trkpt>
      <trkpt lat="43.95824" lon="1.95355">
        <ele>213.643752</ele>
        <time>2026-08-29T12:50:24Z</time>
      </trkpt>
      <trkpt lat="43.95825" lon="1.9536">
        <ele>213.615316</ele>
        <time>2026-08-29T12:50:25Z</time>
      </trkpt>
      <trkpt lat="43.95827" lon="1.95364">
        <ele>213.584804</ele>
        <time>2026-08-29T12:50:26Z</time>
      </trkpt>
      <trkpt lat="43.95828" lon="1.95368">
        <ele>213.557849</ele>
        <time>2026-08-29T12:50:27Z</time>
      </trkpt>
      <trkpt lat="43.9583" lon="1.95371">
        <ele>213.52951</ele>
        <time>2026-08-29T12:50:28Z</time>
      </trkpt>
      <trkpt lat="43.95832" lon="1.95375">
        <ele>213.502008</ele>
        <time>2026-08-29T12:50:29Z</time>
      </trkpt>
      <trkpt lat="43.95833" lon="1.95379">
        <ele>213.473651</ele>
        <time>2026-08-29T12:50:30Z</time>
      </trkpt>
      <trkpt lat="43.95835" lon="1.95383">
        <ele>213.446389</ele>
        <time>2026-08-29T12:50:31Z</time>
      </trkpt>
      <trkpt lat="43.95837" lon="1.95386">
        <ele>213.419558</ele>
        <time>2026-08-29T12:50:32Z</time>
      </trkpt>
      <trkpt lat="43.95839" lon="1.95389">
        <ele>213.393308</ele>
        <time>2026-08-29T12:50:33Z</time>
      </trkpt>
      <trkpt lat="43.95841" lon="1.95393">
        <ele>213.368069</ele>
        <time>2026-08-29T12:50:34Z</time>
      </trkpt>
      <trkpt lat="43.95843" lon="1.95396">
        <ele>213.340807</ele>
        <time>2026-08-29T12:50:35Z</time>
      </trkpt>
      <trkpt lat="43.95844" lon="1.954">
        <ele>213.314028</ele>
        <time>2026-08-29T12:50:36Z</time>
      </trkpt>
      <trkpt lat="43.95846" lon="1.95403">
        <ele>213.289639</ele>
        <time>2026-08-29T12:50:37Z</time>
      </trkpt>
      <trkpt lat="43.95848" lon="1.95406">
        <ele>213.264837</ele>
        <time>2026-08-29T12:50:38Z</time>
      </trkpt>
      <trkpt lat="43.95849" lon="1.95409">
        <ele>213.24009</ele>
        <time>2026-08-29T12:50:39Z</time>
      </trkpt>
      <trkpt lat="43.95851" lon="1.95412">
        <ele>213.215319</ele>
        <time>2026-08-29T12:50:40Z</time>
      </trkpt>
      <trkpt lat="43.95853" lon="1.95415">
        <ele>213.192097</ele>
        <time>2026-08-29T12:50:41Z</time>
      </trkpt>
      <trkpt lat="43.95854" lon="1.95418">
        <ele>213.170379</ele>
        <time>2026-08-29T12:50:42Z</time>
      </trkpt>
      <trkpt lat="43.95855" lon="1.95421">
        <ele>213.148662</ele>
        <time>2026-08-29T12:50:43Z</time>
      </trkpt>
      <trkpt lat="43.95857" lon="1.95424">
        <ele>213.127966</ele>
        <time>2026-08-29T12:50:44Z</time>
      </trkpt>
      <trkpt lat="43.95858" lon="1.95427">
        <ele>213.106762</ele>
        <time>2026-08-29T12:50:45Z</time>
      </trkpt>
      <trkpt lat="43.9586" lon="1.95429">
        <ele>213.08758</ele>
        <time>2026-08-29T12:50:46Z</time>
      </trkpt>
      <trkpt lat="43.95861" lon="1.95433">
        <ele>213.062834</ele>
        <time>2026-08-29T12:50:47Z</time>
      </trkpt>
      <trkpt lat="43.95863" lon="1.95436">
        <ele>213.035572</ele>
        <time>2026-08-29T12:50:48Z</time>
      </trkpt>
      <trkpt lat="43.95865" lon="1.9544">
        <ele>213.007304</ele>
        <time>2026-08-29T12:50:49Z</time>
      </trkpt>
      <trkpt lat="43.95867" lon="1.95443">
        <ele>212.982065</ele>
        <time>2026-08-29T12:50:50Z</time>
      </trkpt>
      <trkpt lat="43.95869" lon="1.95447">
        <ele>212.954756</ele>
        <time>2026-08-29T12:50:51Z</time>
      </trkpt>
      <trkpt lat="43.95871" lon="1.9545">
        <ele>212.927361</ele>
        <time>2026-08-29T12:50:52Z</time>
      </trkpt>
      <trkpt lat="43.95873" lon="1.95453">
        <ele>212.900051</ele>
        <time>2026-08-29T12:50:53Z</time>
      </trkpt>
      <trkpt lat="43.95875" lon="1.95457">
        <ele>212.871783</ele>
        <time>2026-08-29T12:50:54Z</time>
      </trkpt>
      <trkpt lat="43.95876" lon="1.95461">
        <ele>212.844019</ele>
        <time>2026-08-29T12:50:55Z</time>
      </trkpt>
      <trkpt lat="43.95878" lon="1.95464">
        <ele>212.815241</ele>
        <time>2026-08-29T12:50:56Z</time>
      </trkpt>
      <trkpt lat="43.9588" lon="1.95468">
        <ele>212.786465</ele>
        <time>2026-08-29T12:50:57Z</time>
      </trkpt>
      <trkpt lat="43.95882" lon="1.95472">
        <ele>212.756174</ele>
        <time>2026-08-29T12:50:58Z</time>
      </trkpt>
      <trkpt lat="43.95884" lon="1.95476">
        <ele>212.727881</ele>
        <time>2026-08-29T12:50:59Z</time>
      </trkpt>
      <trkpt lat="43.95886" lon="1.9548">
        <ele>212.698099</ele>
        <time>2026-08-29T12:51:00Z</time>
      </trkpt>
      <trkpt lat="43.95888" lon="1.95484">
        <ele>212.668303</ele>
        <time>2026-08-29T12:51:01Z</time>
      </trkpt>
      <trkpt lat="43.9589" lon="1.95487">
        <ele>212.638931</ele>
        <time>2026-08-29T12:51:02Z</time>
      </trkpt>
      <trkpt lat="43.95892" lon="1.95491">
        <ele>212.609654</ele>
        <time>2026-08-29T12:51:03Z</time>
      </trkpt>
      <trkpt lat="43.95895" lon="1.95495">
        <ele>212.579806</ele>
        <time>2026-08-29T12:51:04Z</time>
      </trkpt>
      <trkpt lat="43.95897" lon="1.95498">
        <ele>212.551942</ele>
        <time>2026-08-29T12:51:05Z</time>
      </trkpt>
      <trkpt lat="43.95899" lon="1.95502">
        <ele>212.537986</ele>
        <time>2026-08-29T12:51:06Z</time>
      </trkpt>
      <trkpt lat="43.959" lon="1.95505">
        <ele>212.533635</ele>
        <time>2026-08-29T12:51:07Z</time>
      </trkpt>
      <trkpt lat="43.95902" lon="1.95509">
        <ele>212.529118</ele>
        <time>2026-08-29T12:51:08Z</time>
      </trkpt>
      <trkpt lat="43.95904" lon="1.95512">
        <ele>212.524507</ele>
        <time>2026-08-29T12:51:09Z</time>
      </trkpt>
      <trkpt lat="43.95906" lon="1.95516">
        <ele>212.519569</ele>
        <time>2026-08-29T12:51:10Z</time>
      </trkpt>
      <trkpt lat="43.95908" lon="1.9552">
        <ele>212.514543</ele>
        <time>2026-08-29T12:51:11Z</time>
      </trkpt>
      <trkpt lat="43.9591" lon="1.95524">
        <ele>212.509427</ele>
        <time>2026-08-29T12:51:12Z</time>
      </trkpt>
      <trkpt lat="43.95913" lon="1.95528">
        <ele>212.504482</ele>
        <time>2026-08-29T12:51:13Z</time>
      </trkpt>
      <trkpt lat="43.95915" lon="1.95531">
        <ele>212.499787</ele>
        <time>2026-08-29T12:51:14Z</time>
      </trkpt>
      <trkpt lat="43.95916" lon="1.95535">
        <ele>212.495185</ele>
        <time>2026-08-29T12:51:15Z</time>
      </trkpt>
      <trkpt lat="43.95918" lon="1.95539">
        <ele>212.490575</ele>
        <time>2026-08-29T12:51:16Z</time>
      </trkpt>
      <trkpt lat="43.9592" lon="1.95542">
        <ele>212.486379</ele>
        <time>2026-08-29T12:51:17Z</time>
      </trkpt>
      <trkpt lat="43.95922" lon="1.95545">
        <ele>212.482104</ele>
        <time>2026-08-29T12:51:18Z</time>
      </trkpt>
      <trkpt lat="43.95924" lon="1.95548">
        <ele>212.478006</ele>
        <time>2026-08-29T12:51:19Z</time>
      </trkpt>
      <trkpt lat="43.95925" lon="1.95551">
        <ele>212.474322</ele>
        <time>2026-08-29T12:51:20Z</time>
      </trkpt>
      <trkpt lat="43.95926" lon="1.95554">
        <ele>212.470695</ele>
        <time>2026-08-29T12:51:21Z</time>
      </trkpt>
      <trkpt lat="43.95928" lon="1.95557">
        <ele>212.466846</ele>
        <time>2026-08-29T12:51:22Z</time>
      </trkpt>
      <trkpt lat="43.95929" lon="1.9556">
        <ele>212.462997</ele>
        <time>2026-08-29T12:51:23Z</time>
      </trkpt>
      <trkpt lat="43.95931" lon="1.95563">
        <ele>212.4594</ele>
        <time>2026-08-29T12:51:24Z</time>
      </trkpt>
      <trkpt lat="43.95932" lon="1.95566">
        <ele>212.455804</ele>
        <time>2026-08-29T12:51:25Z</time>
      </trkpt>
      <trkpt lat="43.95934" lon="1.95569">
        <ele>212.45237</ele>
        <time>2026-08-29T12:51:26Z</time>
      </trkpt>
      <trkpt lat="43.95935" lon="1.95571">
        <ele>212.448941</ele>
        <time>2026-08-29T12:51:27Z</time>
      </trkpt>
      <trkpt lat="43.95937" lon="1.95574">
        <ele>212.445595</ele>
        <time>2026-08-29T12:51:28Z</time>
      </trkpt>
      <trkpt lat="43.95938" lon="1.95577">
        <ele>212.441999</ele>
        <time>2026-08-29T12:51:29Z</time>
      </trkpt>
      <trkpt lat="43.9594" lon="1.95579">
        <ele>212.438735</ele>
        <time>2026-08-29T12:51:30Z</time>
      </trkpt>
      <trkpt lat="43.95941" lon="1.95581">
        <ele>212.435807</ele>
        <time>2026-08-29T12:51:31Z</time>
      </trkpt>
      <trkpt lat="43.95942" lon="1.95584">
        <ele>212.432782</ele>
        <time>2026-08-29T12:51:32Z</time>
      </trkpt>
      <trkpt lat="43.95944" lon="1.95586">
        <ele>212.429348</ele>
        <time>2026-08-29T12:51:33Z</time>
      </trkpt>
      <trkpt lat="43.95945" lon="1.95589">
        <ele>212.425804</ele>
        <time>2026-08-29T12:51:34Z</time>
      </trkpt>
      <trkpt lat="43.95947" lon="1.95591">
        <ele>212.42226</ele>
        <time>2026-08-29T12:51:35Z</time>
      </trkpt>
      <trkpt lat="43.95949" lon="1.95594">
        <ele>212.419062</ele>
        <time>2026-08-29T12:51:36Z</time>
      </trkpt>
      <trkpt lat="43.9595" lon="1.95596">
        <ele>212.415518</ele>
        <time>2026-08-29T12:51:37Z</time>
      </trkpt>
      <trkpt lat="43.95952" lon="1.95598">
        <ele>212.41232</ele>
        <time>2026-08-29T12:51:38Z</time>
      </trkpt>
      <trkpt lat="43.95953" lon="1.95601">
        <ele>212.408949</ele>
        <time>2026-08-29T12:51:39Z</time>
      </trkpt>
      <trkpt lat="43.95955" lon="1.95603">
        <ele>212.405653</ele>
        <time>2026-08-29T12:51:40Z</time>
      </trkpt>
      <trkpt lat="43.95957" lon="1.95605">
        <ele>212.402327</ele>
        <time>2026-08-29T12:51:41Z</time>
      </trkpt>
      <trkpt lat="43.95959" lon="1.95607">
        <ele>212.398962</ele>
        <time>2026-08-29T12:51:42Z</time>
      </trkpt>
      <trkpt lat="43.95961" lon="1.95609">
        <ele>212.395494</ele>
        <time>2026-08-29T12:51:43Z</time>
      </trkpt>
      <trkpt lat="43.95963" lon="1.95611">
        <ele>212.391906</ele>
        <time>2026-08-29T12:51:44Z</time>
      </trkpt>
      <trkpt lat="43.95965" lon="1.95613">
        <ele>212.38779</ele>
        <time>2026-08-29T12:51:45Z</time>
      </trkpt>
      <trkpt lat="43.95968" lon="1.95615">
        <ele>212.383235</ele>
        <time>2026-08-29T12:51:46Z</time>
      </trkpt>
      <trkpt lat="43.95971" lon="1.95617">
        <ele>212.378515</ele>
        <time>2026-08-29T12:51:47Z</time>
      </trkpt>
      <trkpt lat="43.95974" lon="1.95619">
        <ele>212.373877</ele>
        <time>2026-08-29T12:51:48Z</time>
      </trkpt>
      <trkpt lat="43.95977" lon="1.9562">
        <ele>212.369617</ele>
        <time>2026-08-29T12:51:49Z</time>
      </trkpt>
      <trkpt lat="43.95979" lon="1.95622">
        <ele>212.365454</ele>
        <time>2026-08-29T12:51:50Z</time>
      </trkpt>
      <trkpt lat="43.95982" lon="1.95623">
        <ele>212.361291</ele>
        <time>2026-08-29T12:51:51Z</time>
      </trkpt>
      <trkpt lat="43.95985" lon="1.95625">
        <ele>212.356957</ele>
        <time>2026-08-29T12:51:52Z</time>
      </trkpt>
      <trkpt lat="43.95988" lon="1.95627">
        <ele>212.352583</ele>
        <time>2026-08-29T12:51:53Z</time>
      </trkpt>
      <trkpt lat="43.95991" lon="1.95628">
        <ele>212.348188</ele>
        <time>2026-08-29T12:51:54Z</time>
      </trkpt>
      <trkpt lat="43.95994" lon="1.9563">
        <ele>212.343587</ele>
        <time>2026-08-29T12:51:55Z</time>
      </trkpt>
      <trkpt lat="43.95997" lon="1.95631">
        <ele>212.338785</ele>
        <time>2026-08-29T12:51:56Z</time>
      </trkpt>
      <trkpt lat="43.96" lon="1.95633">
        <ele>212.333571</ele>
        <time>2026-08-29T12:51:57Z</time>
      </trkpt>
      <trkpt lat="43.96004" lon="1.95634">
        <ele>212.327915</ele>
        <time>2026-08-29T12:51:58Z</time>
      </trkpt>
      <trkpt lat="43.96008" lon="1.95636">
        <ele>212.321819</ele>
        <time>2026-08-29T12:51:59Z</time>
      </trkpt>
      <trkpt lat="43.96012" lon="1.95637">
        <ele>212.315831</ele>
        <time>2026-08-29T12:52:00Z</time>
      </trkpt>
      <trkpt lat="43.96016" lon="1.95639">
        <ele>212.30981</ele>
        <time>2026-08-29T12:52:01Z</time>
      </trkpt>
      <trkpt lat="43.9602" lon="1.9564">
        <ele>212.304321</ele>
        <time>2026-08-29T12:52:02Z</time>
      </trkpt>
      <trkpt lat="43.96024" lon="1.95641">
        <ele>212.298857</ele>
        <time>2026-08-29T12:52:03Z</time>
      </trkpt>
      <trkpt lat="43.96027" lon="1.95643">
        <ele>212.293477</ele>
        <time>2026-08-29T12:52:04Z</time>
      </trkpt>
      <trkpt lat="43.96031" lon="1.95645">
        <ele>212.287561</ele>
        <time>2026-08-29T12:52:05Z</time>
      </trkpt>
      <trkpt lat="43.96035" lon="1.95647">
        <ele>212.250063</ele>
        <time>2026-08-29T12:52:06Z</time>
      </trkpt>
      <trkpt lat="43.96039" lon="1.9565">
        <ele>212.129283</ele>
        <time>2026-08-29T12:52:07Z</time>
      </trkpt>
      <trkpt lat="43.96043" lon="1.95652">
        <ele>212.000997</ele>
        <time>2026-08-29T12:52:08Z</time>
      </trkpt>
      <trkpt lat="43.96047" lon="1.95655">
        <ele>211.872711</ele>
        <time>2026-08-29T12:52:09Z</time>
      </trkpt>
      <trkpt lat="43.96052" lon="1.95658">
        <ele>211.742738</ele>
        <time>2026-08-29T12:52:10Z</time>
      </trkpt>
      <trkpt lat="43.96055" lon="1.9566">
        <ele>211.620257</ele>
        <time>2026-08-29T12:52:11Z</time>
      </trkpt>
      <trkpt lat="43.9606" lon="1.95663">
        <ele>211.495335</ele>
        <time>2026-08-29T12:52:12Z</time>
      </trkpt>
      <trkpt lat="43.96064" lon="1.95664">
        <ele>211.369398</ele>
        <time>2026-08-29T12:52:13Z</time>
      </trkpt>
      <trkpt lat="43.96068" lon="1.95666">
        <ele>211.260211</ele>
        <time>2026-08-29T12:52:14Z</time>
      </trkpt>
      <trkpt lat="43.96071" lon="1.95667">
        <ele>211.152097</ele>
        <time>2026-08-29T12:52:15Z</time>
      </trkpt>
      <trkpt lat="43.96075" lon="1.95669">
        <ele>211.051943</ele>
        <time>2026-08-29T12:52:16Z</time>
      </trkpt>
      <trkpt lat="43.96078" lon="1.9567">
        <ele>210.947084</ele>
        <time>2026-08-29T12:52:17Z</time>
      </trkpt>
      <trkpt lat="43.96082" lon="1.95671">
        <ele>210.838787</ele>
        <time>2026-08-29T12:52:18Z</time>
      </trkpt>
      <trkpt lat="43.96086" lon="1.95672">
        <ele>210.733988</ele>
        <time>2026-08-29T12:52:19Z</time>
      </trkpt>
      <trkpt lat="43.9609" lon="1.95673">
        <ele>210.620223</ele>
        <time>2026-08-29T12:52:20Z</time>
      </trkpt>
      <trkpt lat="43.96094" lon="1.95674">
        <ele>210.50098</ele>
        <time>2026-08-29T12:52:21Z</time>
      </trkpt>
      <trkpt lat="43.96098" lon="1.95675">
        <ele>210.385172</ele>
        <time>2026-08-29T12:52:22Z</time>
      </trkpt>
      <trkpt lat="43.96102" lon="1.95676">
        <ele>210.279606</ele>
        <time>2026-08-29T12:52:23Z</time>
      </trkpt>
      <trkpt lat="43.96106" lon="1.95677">
        <ele>210.175424</ele>
        <time>2026-08-29T12:52:24Z</time>
      </trkpt>
      <trkpt lat="43.96109" lon="1.95678">
        <ele>210.073371</ele>
        <time>2026-08-29T12:52:25Z</time>
      </trkpt>
      <trkpt lat="43.96113" lon="1.95679">
        <ele>209.970081</ele>
        <time>2026-08-29T12:52:26Z</time>
      </trkpt>
      <trkpt lat="43.96116" lon="1.9568">
        <ele>209.869502</ele>
        <time>2026-08-29T12:52:27Z</time>
      </trkpt>
      <trkpt lat="43.9612" lon="1.95682">
        <ele>209.764643</ele>
        <time>2026-08-29T12:52:28Z</time>
      </trkpt>
      <trkpt lat="43.96124" lon="1.95683">
        <ele>209.653197</ele>
        <time>2026-08-29T12:52:29Z</time>
      </trkpt>
      <trkpt lat="43.96128" lon="1.95684">
        <ele>209.544901</ele>
        <time>2026-08-29T12:52:30Z</time>
      </trkpt>
      <trkpt lat="43.96131" lon="1.95685">
        <ele>209.443483</ele>
        <time>2026-08-29T12:52:31Z</time>
      </trkpt>
      <trkpt lat="43.96135" lon="1.95685">
        <ele>209.336989</ele>
        <time>2026-08-29T12:52:32Z</time>
      </trkpt>
      <trkpt lat="43.96139" lon="1.95686">
        <ele>209.235571</ele>
        <time>2026-08-29T12:52:33Z</time>
      </trkpt>
      <trkpt lat="43.96142" lon="1.95687">
        <ele>209.134412</ele>
        <time>2026-08-29T12:52:34Z</time>
      </trkpt>
      <trkpt lat="43.96146" lon="1.95687">
        <ele>209.036433</ele>
        <time>2026-08-29T12:52:35Z</time>
      </trkpt>
      <trkpt lat="43.96149" lon="1.95687">
        <ele>208.935913</ele>
        <time>2026-08-29T12:52:36Z</time>
      </trkpt>
      <trkpt lat="43.96153" lon="1.95687">
        <ele>208.832509</ele>
        <time>2026-08-29T12:52:37Z</time>
      </trkpt>
      <trkpt lat="43.96157" lon="1.95687">
        <ele>208.723681</ele>
        <time>2026-08-29T12:52:38Z</time>
      </trkpt>
      <trkpt lat="43.96161" lon="1.95687">
        <ele>208.609221</ele>
        <time>2026-08-29T12:52:39Z</time>
      </trkpt>
      <trkpt lat="43.96165" lon="1.95687">
        <ele>208.494674</ele>
        <time>2026-08-29T12:52:40Z</time>
      </trkpt>
      <trkpt lat="43.96169" lon="1.95687">
        <ele>208.380285</ele>
        <time>2026-08-29T12:52:41Z</time>
      </trkpt>
      <trkpt lat="43.96173" lon="1.95687">
        <ele>208.271457</ele>
        <time>2026-08-29T12:52:42Z</time>
      </trkpt>
      <trkpt lat="43.96177" lon="1.95687">
        <ele>208.154261</ele>
        <time>2026-08-29T12:52:43Z</time>
      </trkpt>
      <trkpt lat="43.96182" lon="1.95686">
        <ele>208.034023</ele>
        <time>2026-08-29T12:52:44Z</time>
      </trkpt>
      <trkpt lat="43.96186" lon="1.95686">
        <ele>207.913987</ele>
        <time>2026-08-29T12:52:45Z</time>
      </trkpt>
      <trkpt lat="43.9619" lon="1.95686">
        <ele>207.791212</ele>
        <time>2026-08-29T12:52:46Z</time>
      </trkpt>
      <trkpt lat="43.96195" lon="1.95686">
        <ele>207.668043</ele>
        <time>2026-08-29T12:52:47Z</time>
      </trkpt>
      <trkpt lat="43.96199" lon="1.95687">
        <ele>207.545267</ele>
        <time>2026-08-29T12:52:48Z</time>
      </trkpt>
      <trkpt lat="43.96204" lon="1.95687">
        <ele>207.419654</ele>
        <time>2026-08-29T12:52:49Z</time>
      </trkpt>
      <trkpt lat="43.96208" lon="1.95687">
        <ele>207.294041</ele>
        <time>2026-08-29T12:52:50Z</time>
      </trkpt>
      <trkpt lat="43.96213" lon="1.95687">
        <ele>207.259214</ele>
        <time>2026-08-29T12:52:51Z</time>
      </trkpt>
      <trkpt lat="43.96217" lon="1.95687">
        <ele>207.251755</ele>
        <time>2026-08-29T12:52:52Z</time>
      </trkpt>
      <trkpt lat="43.96221" lon="1.95688">
        <ele>207.244472</ele>
        <time>2026-08-29T12:52:53Z</time>
      </trkpt>
      <trkpt lat="43.96226" lon="1.95688">
        <ele>207.23698</ele>
        <time>2026-08-29T12:52:54Z</time>
      </trkpt>
      <trkpt lat="43.9623" lon="1.95689">
        <ele>207.229343</ele>
        <time>2026-08-29T12:52:55Z</time>
      </trkpt>
      <trkpt lat="43.96235" lon="1.95688">
        <ele>207.221875</ele>
        <time>2026-08-29T12:52:56Z</time>
      </trkpt>
      <trkpt lat="43.96239" lon="1.95687">
        <ele>207.214732</ele>
        <time>2026-08-29T12:52:57Z</time>
      </trkpt>
      <trkpt lat="43.96243" lon="1.95685">
        <ele>207.207202</ele>
        <time>2026-08-29T12:52:58Z</time>
      </trkpt>
      <trkpt lat="43.96247" lon="1.95683">
        <ele>207.20001</ele>
        <time>2026-08-29T12:52:59Z</time>
      </trkpt>
      <trkpt lat="43.96252" lon="1.95681">
        <ele>207.19198</ele>
        <time>2026-08-29T12:53:00Z</time>
      </trkpt>
      <trkpt lat="43.96256" lon="1.95679">
        <ele>207.183862</ele>
        <time>2026-08-29T12:53:01Z</time>
      </trkpt>
      <trkpt lat="43.9626" lon="1.95678">
        <ele>207.176229</ele>
        <time>2026-08-29T12:53:02Z</time>
      </trkpt>
      <trkpt lat="43.96265" lon="1.95676">
        <ele>207.168469</ele>
        <time>2026-08-29T12:53:03Z</time>
      </trkpt>
      <trkpt lat="43.96269" lon="1.95674">
        <ele>207.160668</ele>
        <time>2026-08-29T12:53:04Z</time>
      </trkpt>
      <trkpt lat="43.96274" lon="1.95673">
        <ele>207.153224</ele>
        <time>2026-08-29T12:53:05Z</time>
      </trkpt>
      <trkpt lat="43.96278" lon="1.95672">
        <ele>207.146301</ele>
        <time>2026-08-29T12:53:06Z</time>
      </trkpt>
      <trkpt lat="43.96282" lon="1.95671">
        <ele>207.139569</ele>
        <time>2026-08-29T12:53:07Z</time>
      </trkpt>
      <trkpt lat="43.96285" lon="1.9567">
        <ele>207.133131</ele>
        <time>2026-08-29T12:53:08Z</time>
      </trkpt>
      <trkpt lat="43.96289" lon="1.95671">
        <ele>207.12692</ele>
        <time>2026-08-29T12:53:09Z</time>
      </trkpt>
      <trkpt lat="43.96292" lon="1.95673">
        <ele>207.120877</ele>
        <time>2026-08-29T12:53:10Z</time>
      </trkpt>
      <trkpt lat="43.96295" lon="1.95676">
        <ele>207.114874</ele>
        <time>2026-08-29T12:53:11Z</time>
      </trkpt>
      <trkpt lat="43.96298" lon="1.95678">
        <ele>207.109108</ele>
        <time>2026-08-29T12:53:12Z</time>
      </trkpt>
      <trkpt lat="43.96301" lon="1.95681">
        <ele>207.103727</ele>
        <time>2026-08-29T12:53:13Z</time>
      </trkpt>
      <trkpt lat="43.96302" lon="1.95685">
        <ele>207.098486</ele>
        <time>2026-08-29T12:53:14Z</time>
      </trkpt>
      <trkpt lat="43.96304" lon="1.95688">
        <ele>207.093526</ele>
        <time>2026-08-29T12:53:15Z</time>
      </trkpt>
      <trkpt lat="43.96306" lon="1.95693">
        <ele>207.086975</ele>
        <time>2026-08-29T12:53:16Z</time>
      </trkpt>
      <trkpt lat="43.96307" lon="1.95696">
        <ele>207.082125</ele>
        <time>2026-08-29T12:53:17Z</time>
      </trkpt>
      <trkpt lat="43.9631" lon="1.95699">
        <ele>207.076901</ele>
        <time>2026-08-29T12:53:18Z</time>
      </trkpt>
      <trkpt lat="43.96312" lon="1.957">
        <ele>207.072067</ele>
        <time>2026-08-29T12:53:19Z</time>
      </trkpt>
      <trkpt lat="43.96315" lon="1.957">
        <ele>207.067587</ele>
        <time>2026-08-29T12:53:20Z</time>
      </trkpt>
      <trkpt lat="43.96317" lon="1.95698">
        <ele>207.063029</ele>
        <time>2026-08-29T12:53:21Z</time>
      </trkpt>
      <trkpt lat="43.9632" lon="1.95696">
        <ele>207.058503</ele>
        <time>2026-08-29T12:53:22Z</time>
      </trkpt>
      <trkpt lat="43.96322" lon="1.95694">
        <ele>207.054121</ele>
        <time>2026-08-29T12:53:23Z</time>
      </trkpt>
      <trkpt lat="43.96324" lon="1.95692">
        <ele>207.049937</ele>
        <time>2026-08-29T12:53:24Z</time>
      </trkpt>
      <trkpt lat="43.96326" lon="1.9569">
        <ele>207.045489</ele>
        <time>2026-08-29T12:53:25Z</time>
      </trkpt>
      <trkpt lat="43.96328" lon="1.95688">
        <ele>207.040765</ele>
        <time>2026-08-29T12:53:26Z</time>
      </trkpt>
      <trkpt lat="43.96331" lon="1.95685">
        <ele>207.035879</ele>
        <time>2026-08-29T12:53:27Z</time>
      </trkpt>
      <trkpt lat="43.96333" lon="1.95682">
        <ele>207.031121</ele>
        <time>2026-08-29T12:53:28Z</time>
      </trkpt>
      <trkpt lat="43.96335" lon="1.9568">
        <ele>207.02665</ele>
        <time>2026-08-29T12:53:29Z</time>
      </trkpt>
      <trkpt lat="43.96337" lon="1.95678">
        <ele>207.022179</ele>
        <time>2026-08-29T12:53:30Z</time>
      </trkpt>
      <trkpt lat="43.96339" lon="1.95676">
        <ele>207.017802</ele>
        <time>2026-08-29T12:53:31Z</time>
      </trkpt>
      <trkpt lat="43.96341" lon="1.95673">
        <ele>207.013425</ele>
        <time>2026-08-29T12:53:32Z</time>
      </trkpt>
      <trkpt lat="43.96343" lon="1.95671">
        <ele>207.008978</ele>
        <time>2026-08-29T12:53:33Z</time>
      </trkpt>
      <trkpt lat="43.96345" lon="1.95669">
        <ele>207.004322</ele>
        <time>2026-08-29T12:53:34Z</time>
      </trkpt>
      <trkpt lat="43.96347" lon="1.95667">
        <ele>206.999945</ele>
        <time>2026-08-29T12:53:35Z</time>
      </trkpt>
      <trkpt lat="43.9635" lon="1.95665">
        <ele>206.995771</ele>
        <time>2026-08-29T12:53:36Z</time>
      </trkpt>
      <trkpt lat="43.96352" lon="1.95663">
        <ele>206.991323</ele>
        <time>2026-08-29T12:53:37Z</time>
      </trkpt>
      <trkpt lat="43.96354" lon="1.95661">
        <ele>206.986667</ele>
        <time>2026-08-29T12:53:38Z</time>
      </trkpt>
      <trkpt lat="43.96356" lon="1.95659">
        <ele>206.982426</ele>
        <time>2026-08-29T12:53:39Z</time>
      </trkpt>
      <trkpt lat="43.96358" lon="1.95657">
        <ele>206.978121</ele>
        <time>2026-08-29T12:53:40Z</time>
      </trkpt>
      <trkpt lat="43.9636" lon="1.95654">
        <ele>206.973443</ele>
        <time>2026-08-29T12:53:41Z</time>
      </trkpt>
      <trkpt lat="43.96362" lon="1.95652">
        <ele>206.968843</ele>
        <time>2026-08-29T12:53:42Z</time>
      </trkpt>
      <trkpt lat="43.96364" lon="1.95649">
        <ele>206.963902</ele>
        <time>2026-08-29T12:53:43Z</time>
      </trkpt>
      <trkpt lat="43.96367" lon="1.95647">
        <ele>207.010449</ele>
        <time>2026-08-29T12:53:44Z</time>
      </trkpt>
      <trkpt lat="43.96369" lon="1.95644">
        <ele>207.133263</ele>
        <time>2026-08-29T12:53:45Z</time>
      </trkpt>
      <trkpt lat="43.96371" lon="1.95641">
        <ele>207.242614</ele>
        <time>2026-08-29T12:53:46Z</time>
      </trkpt>
      <trkpt lat="43.96373" lon="1.95639">
        <ele>207.351965</ele>
        <time>2026-08-29T12:53:47Z</time>
      </trkpt>
      <trkpt lat="43.96375" lon="1.95636">
        <ele>207.458345</ele>
        <time>2026-08-29T12:53:48Z</time>
      </trkpt>
      <trkpt lat="43.96377" lon="1.95634">
        <ele>207.559883</ele>
        <time>2026-08-29T12:53:49Z</time>
      </trkpt>
      <trkpt lat="43.96379" lon="1.95632">
        <ele>207.670297</ele>
        <time>2026-08-29T12:53:50Z</time>
      </trkpt>
      <trkpt lat="43.96382" lon="1.9563">
        <ele>207.784367</ele>
        <time>2026-08-29T12:53:51Z</time>
      </trkpt>
      <trkpt lat="43.96384" lon="1.95628">
        <ele>207.899884</ele>
        <time>2026-08-29T12:53:52Z</time>
      </trkpt>
      <trkpt lat="43.96387" lon="1.95625">
        <ele>208.02004</ele>
        <time>2026-08-29T12:53:53Z</time>
      </trkpt>
      <trkpt lat="43.96389" lon="1.95623">
        <ele>208.133779</ele>
        <time>2026-08-29T12:53:54Z</time>
      </trkpt>
      <trkpt lat="43.96391" lon="1.9562">
        <ele>208.236439</ele>
        <time>2026-08-29T12:53:55Z</time>
      </trkpt>
      <trkpt lat="43.96393" lon="1.95619">
        <ele>208.335531</ele>
        <time>2026-08-29T12:53:56Z</time>
      </trkpt>
      <trkpt lat="43.96395" lon="1.95616">
        <ele>208.430742</ele>
        <time>2026-08-29T12:53:57Z</time>
      </trkpt>
      <trkpt lat="43.96397" lon="1.95614">
        <ele>208.526744</ele>
        <time>2026-08-29T12:53:58Z</time>
      </trkpt>
      <trkpt lat="43.96399" lon="1.95612">
        <ele>208.624543</ele>
        <time>2026-08-29T12:53:59Z</time>
      </trkpt>
      <trkpt lat="43.964" lon="1.9561">
        <ele>208.714491</ele>
        <time>2026-08-29T12:54:00Z</time>
      </trkpt>
      <trkpt lat="43.96403" lon="1.95607">
        <ele>208.824906</ele>
        <time>2026-08-29T12:54:01Z</time>
      </trkpt>
      <trkpt lat="43.96405" lon="1.95605">
        <ele>208.933774</ele>
        <time>2026-08-29T12:54:02Z</time>
      </trkpt>
      <trkpt lat="43.96407" lon="1.95603">
        <ele>209.05393</ele>
        <time>2026-08-29T12:54:03Z</time>
      </trkpt>
      <trkpt lat="43.9641" lon="1.95601">
        <ele>209.172848</ele>
        <time>2026-08-29T12:54:04Z</time>
      </trkpt>
      <trkpt lat="43.96413" lon="1.95599">
        <ele>209.291766</ele>
        <time>2026-08-29T12:54:05Z</time>
      </trkpt>
      <trkpt lat="43.96415" lon="1.95596">
        <ele>209.410683</ele>
        <time>2026-08-29T12:54:06Z</time>
      </trkpt>
      <trkpt lat="43.96418" lon="1.95594">
        <ele>209.546169</ele>
        <time>2026-08-29T12:54:07Z</time>
      </trkpt>
      <trkpt lat="43.96422" lon="1.95592">
        <ele>209.686351</ele>
        <time>2026-08-29T12:54:08Z</time>
      </trkpt>
      <trkpt lat="43.96425" lon="1.95591">
        <ele>209.832044</ele>
        <time>2026-08-29T12:54:09Z</time>
      </trkpt>
      <trkpt lat="43.96428" lon="1.9559">
        <ele>209.951691</ele>
        <time>2026-08-29T12:54:10Z</time>
      </trkpt>
      <trkpt lat="43.96431" lon="1.95588">
        <ele>210.067554</ele>
        <time>2026-08-29T12:54:11Z</time>
      </trkpt>
      <trkpt lat="43.96433" lon="1.95588">
        <ele>210.175259</ele>
        <time>2026-08-29T12:54:12Z</time>
      </trkpt>
      <trkpt lat="43.96436" lon="1.95588">
        <ele>210.27842</ele>
        <time>2026-08-29T12:54:13Z</time>
      </trkpt>
      <trkpt lat="43.96439" lon="1.95587">
        <ele>210.394354</ele>
        <time>2026-08-29T12:54:14Z</time>
      </trkpt>
      <trkpt lat="43.96442" lon="1.95586">
        <ele>210.503516</ele>
        <time>2026-08-29T12:54:15Z</time>
      </trkpt>
      <trkpt lat="43.96445" lon="1.95586">
        <ele>210.622173</ele>
        <time>2026-08-29T12:54:16Z</time>
      </trkpt>
      <trkpt lat="43.96448" lon="1.95585">
        <ele>210.742019</ele>
        <time>2026-08-29T12:54:17Z</time>
      </trkpt>
      <trkpt lat="43.96451" lon="1.95585">
        <ele>210.864729</ele>
        <time>2026-08-29T12:54:18Z</time>
      </trkpt>
      <trkpt lat="43.96454" lon="1.95585">
        <ele>210.987339</ele>
        <time>2026-08-29T12:54:19Z</time>
      </trkpt>
      <trkpt lat="43.96457" lon="1.95585">
        <ele>211.102044</ele>
        <time>2026-08-29T12:54:20Z</time>
      </trkpt>
      <trkpt lat="43.9646" lon="1.95585">
        <ele>211.216713</ele>
        <time>2026-08-29T12:54:21Z</time>
      </trkpt>
      <trkpt lat="43.96462" lon="1.95585">
        <ele>211.327464</ele>
        <time>2026-08-29T12:54:22Z</time>
      </trkpt>
      <trkpt lat="43.96465" lon="1.95585">
        <ele>211.438216</ele>
        <time>2026-08-29T12:54:23Z</time>
      </trkpt>
      <trkpt lat="43.96468" lon="1.95585">
        <ele>211.545318</ele>
        <time>2026-08-29T12:54:24Z</time>
      </trkpt>
      <trkpt lat="43.9647" lon="1.95586">
        <ele>211.640897</ele>
        <time>2026-08-29T12:54:25Z</time>
      </trkpt>
      <trkpt lat="43.96473" lon="1.95586">
        <ele>211.728073</ele>
        <time>2026-08-29T12:54:26Z</time>
      </trkpt>
      <trkpt lat="43.96475" lon="1.95586">
        <ele>211.820125</ele>
        <time>2026-08-29T12:54:27Z</time>
      </trkpt>
      <trkpt lat="43.96477" lon="1.95587">
        <ele>211.911779</ele>
        <time>2026-08-29T12:54:28Z</time>
      </trkpt>
      <trkpt lat="43.9648" lon="1.95587">
        <ele>212.007739</ele>
        <time>2026-08-29T12:54:29Z</time>
      </trkpt>
      <trkpt lat="43.96482" lon="1.95588">
        <ele>212.09979</ele>
        <time>2026-08-29T12:54:30Z</time>
      </trkpt>
      <trkpt lat="43.96484" lon="1.95588">
        <ele>212.203225</ele>
        <time>2026-08-29T12:54:31Z</time>
      </trkpt>
      <trkpt lat="43.96487" lon="1.95588">
        <ele>212.298507</ele>
        <time>2026-08-29T12:54:32Z</time>
      </trkpt>
      <trkpt lat="43.96489" lon="1.95589">
        <ele>212.391041</ele>
        <time>2026-08-29T12:54:33Z</time>
      </trkpt>
      <trkpt lat="43.96491" lon="1.95589">
        <ele>212.479187</ele>
        <time>2026-08-29T12:54:34Z</time>
      </trkpt>
      <trkpt lat="43.96494" lon="1.9559">
        <ele>212.566919</ele>
        <time>2026-08-29T12:54:35Z</time>
      </trkpt>
      <trkpt lat="43.96496" lon="1.9559">
        <ele>212.66614</ele>
        <time>2026-08-29T12:54:36Z</time>
      </trkpt>
      <trkpt lat="43.96499" lon="1.9559">
        <ele>212.765361</ele>
        <time>2026-08-29T12:54:37Z</time>
      </trkpt>
      <trkpt lat="43.96501" lon="1.95591">
        <ele>212.870659</ele>
        <time>2026-08-29T12:54:38Z</time>
      </trkpt>
      <trkpt lat="43.96504" lon="1.95591">
        <ele>212.969675</ele>
        <time>2026-08-29T12:54:39Z</time>
      </trkpt>
      <trkpt lat="43.96506" lon="1.95592">
        <ele>213.069547</ele>
        <time>2026-08-29T12:54:40Z</time>
      </trkpt>
      <trkpt lat="43.96509" lon="1.95592">
        <ele>213.165507</ele>
        <time>2026-08-29T12:54:41Z</time>
      </trkpt>
      <trkpt lat="43.96511" lon="1.95593">
        <ele>213.257161</ele>
        <time>2026-08-29T12:54:42Z</time>
      </trkpt>
      <trkpt lat="43.96513" lon="1.95593">
        <ele>213.345812</ele>
        <time>2026-08-29T12:54:43Z</time>
      </trkpt>
      <trkpt lat="43.96515" lon="1.95594">
        <ele>213.434462</ele>
        <time>2026-08-29T12:54:44Z</time>
      </trkpt>
      <trkpt lat="43.96518" lon="1.95595">
        <ele>213.527563</ele>
        <time>2026-08-29T12:54:45Z</time>
      </trkpt>
      <trkpt lat="43.9652" lon="1.95595">
        <ele>213.614972</ele>
        <time>2026-08-29T12:54:46Z</time>
      </trkpt>
      <trkpt lat="43.96522" lon="1.95595">
        <ele>213.710551</ele>
        <time>2026-08-29T12:54:47Z</time>
      </trkpt>
      <trkpt lat="43.96525" lon="1.95596">
        <ele>213.806973</ele>
        <time>2026-08-29T12:54:48Z</time>
      </trkpt>
      <trkpt lat="43.96527" lon="1.95597">
        <ele>213.906845</ele>
        <time>2026-08-29T12:54:49Z</time>
      </trkpt>
      <trkpt lat="43.96529" lon="1.95597">
        <ele>214.003268</ele>
        <time>2026-08-29T12:54:50Z</time>
      </trkpt>
      <trkpt lat="43.96532" lon="1.95598">
        <ele>214.0902</ele>
        <time>2026-08-29T12:54:51Z</time>
      </trkpt>
      <trkpt lat="43.96534" lon="1.95598">
        <ele>214.146119</ele>
        <time>2026-08-29T12:54:52Z</time>
      </trkpt>
      <trkpt lat="43.96536" lon="1.95599">
        <ele>214.194694</ele>
        <time>2026-08-29T12:54:53Z</time>
      </trkpt>
      <trkpt lat="43.96539" lon="1.956">
        <ele>214.246219</ele>
        <time>2026-08-29T12:54:54Z</time>
      </trkpt>
      <trkpt lat="43.96541" lon="1.95601">
        <ele>214.295148</ele>
        <time>2026-08-29T12:54:55Z</time>
      </trkpt>
      <trkpt lat="43.96543" lon="1.95601">
        <ele>214.343173</ele>
        <time>2026-08-29T12:54:56Z</time>
      </trkpt>
      <trkpt lat="43.96545" lon="1.95602">
        <ele>214.390327</ele>
        <time>2026-08-29T12:54:57Z</time>
      </trkpt>
      <trkpt lat="43.96547" lon="1.95603">
        <ele>214.437482</ele>
        <time>2026-08-29T12:54:58Z</time>
      </trkpt>
      <trkpt lat="43.96549" lon="1.95604">
        <ele>214.482035</ele>
        <time>2026-08-29T12:54:59Z</time>
      </trkpt>
      <trkpt lat="43.9655" lon="1.95605">
        <ele>214.521144</ele>
        <time>2026-08-29T12:55:00Z</time>
      </trkpt>
      <trkpt lat="43.96552" lon="1.95606">
        <ele>214.563633</ele>
        <time>2026-08-29T12:55:01Z</time>
      </trkpt>
      <trkpt lat="43.96554" lon="1.95607">
        <ele>214.61393</ele>
        <time>2026-08-29T12:55:02Z</time>
      </trkpt>
      <trkpt lat="43.96557" lon="1.95608">
        <ele>214.673857</ele>
        <time>2026-08-29T12:55:03Z</time>
      </trkpt>
      <trkpt lat="43.96559" lon="1.95609">
        <ele>214.73222</ele>
        <time>2026-08-29T12:55:04Z</time>
      </trkpt>
      <trkpt lat="43.96562" lon="1.9561">
        <ele>214.794826</ele>
        <time>2026-08-29T12:55:05Z</time>
      </trkpt>
      <trkpt lat="43.96564" lon="1.95611">
        <ele>214.855161</ele>
        <time>2026-08-29T12:55:06Z</time>
      </trkpt>
      <trkpt lat="43.96566" lon="1.95612">
        <ele>214.906297</ele>
        <time>2026-08-29T12:55:07Z</time>
      </trkpt>
      <trkpt lat="43.96569" lon="1.95612">
        <ele>214.961063</ele>
        <time>2026-08-29T12:55:08Z</time>
      </trkpt>
      <trkpt lat="43.96571" lon="1.95613">
        <ele>215.01441</ele>
        <time>2026-08-29T12:55:09Z</time>
      </trkpt>
      <trkpt lat="43.96573" lon="1.95614">
        <ele>215.067756</ele>
        <time>2026-08-29T12:55:10Z</time>
      </trkpt>
      <trkpt lat="43.96576" lon="1.95615">
        <ele>215.124079</ele>
        <time>2026-08-29T12:55:11Z</time>
      </trkpt>
      <trkpt lat="43.96578" lon="1.95616">
        <ele>215.182441</ele>
        <time>2026-08-29T12:55:12Z</time>
      </trkpt>
      <trkpt lat="43.96581" lon="1.95617">
        <ele>215.242921</ele>
        <time>2026-08-29T12:55:13Z</time>
      </trkpt>
      <trkpt lat="43.96584" lon="1.95619">
        <ele>215.311961</ele>
        <time>2026-08-29T12:55:14Z</time>
      </trkpt>
      <trkpt lat="43.96586" lon="1.9562">
        <ele>215.380534</ele>
        <time>2026-08-29T12:55:15Z</time>
      </trkpt>
      <trkpt lat="43.96589" lon="1.95622">
        <ele>215.443596</ele>
        <time>2026-08-29T12:55:16Z</time>
      </trkpt>
      <trkpt lat="43.96591" lon="1.95624">
        <ele>215.511448</ele>
        <time>2026-08-29T12:55:17Z</time>
      </trkpt>
      <trkpt lat="43.96594" lon="1.95626">
        <ele>215.582049</ele>
        <time>2026-08-29T12:55:18Z</time>
      </trkpt>
      <trkpt lat="43.96597" lon="1.95628">
        <ele>215.656087</ele>
        <time>2026-08-29T12:55:19Z</time>
      </trkpt>
      <trkpt lat="43.966" lon="1.9563">
        <ele>215.731478</ele>
        <time>2026-08-29T12:55:20Z</time>
      </trkpt>
      <trkpt lat="43.96603" lon="1.95632">
        <ele>215.810323</ele>
        <time>2026-08-29T12:55:21Z</time>
      </trkpt>
      <trkpt lat="43.96607" lon="1.95634">
        <ele>215.893971</ele>
        <time>2026-08-29T12:55:22Z</time>
      </trkpt>
      <trkpt lat="43.9661" lon="1.95636">
        <ele>215.983893</ele>
        <time>2026-08-29T12:55:23Z</time>
      </trkpt>
      <trkpt lat="43.96614" lon="1.95639">
        <ele>216.073058</ele>
        <time>2026-08-29T12:55:24Z</time>
      </trkpt>
      <trkpt lat="43.96617" lon="1.95641">
        <ele>216.162223</ele>
        <time>2026-08-29T12:55:25Z</time>
      </trkpt>
      <trkpt lat="43.96621" lon="1.95644">
        <ele>216.253409</ele>
        <time>2026-08-29T12:55:26Z</time>
      </trkpt>
      <trkpt lat="43.96625" lon="1.95646">
        <ele>216.346627</ele>
        <time>2026-08-29T12:55:27Z</time>
      </trkpt>
      <trkpt lat="43.96628" lon="1.95649">
        <ele>216.436549</ele>
        <time>2026-08-29T12:55:28Z</time>
      </trkpt>
      <trkpt lat="43.96631" lon="1.95652">
        <ele>216.520538</ele>
        <time>2026-08-29T12:55:29Z</time>
      </trkpt>
      <trkpt lat="43.96634" lon="1.95654">
        <ele>216.590326</ele>
        <time>2026-08-29T12:55:30Z</time>
      </trkpt>
      <trkpt lat="43.96636" lon="1.95657">
        <ele>216.665697</ele>
        <time>2026-08-29T12:55:31Z</time>
      </trkpt>
      <trkpt lat="43.96639" lon="1.9566">
        <ele>216.745056</ele>
        <time>2026-08-29T12:55:32Z</time>
      </trkpt>
      <trkpt lat="43.96642" lon="1.95663">
        <ele>216.828721</ele>
        <time>2026-08-29T12:55:33Z</time>
      </trkpt>
      <trkpt lat="43.96645" lon="1.95667">
        <ele>216.911281</ele>
        <time>2026-08-29T12:55:34Z</time>
      </trkpt>
      <trkpt lat="43.96647" lon="1.9567">
        <ele>216.999392</ele>
        <time>2026-08-29T12:55:35Z</time>
      </trkpt>
      <trkpt lat="43.9665" lon="1.95674">
        <ele>217.084728</ele>
        <time>2026-08-29T12:55:36Z</time>
      </trkpt>
      <trkpt lat="43.96653" lon="1.95677">
        <ele>217.169657</ele>
        <time>2026-08-29T12:55:37Z</time>
      </trkpt>
      <trkpt lat="43.96656" lon="1.9568">
        <ele>217.249768</ele>
        <time>2026-08-29T12:55:38Z</time>
      </trkpt>
      <trkpt lat="43.96659" lon="1.95682">
        <ele>217.323281</ele>
        <time>2026-08-29T12:55:39Z</time>
      </trkpt>
      <trkpt lat="43.96661" lon="1.95685">
        <ele>217.394034</ele>
        <time>2026-08-29T12:55:40Z</time>
      </trkpt>
      <trkpt lat="43.96664" lon="1.95687">
        <ele>217.466656</ele>
        <time>2026-08-29T12:55:41Z</time>
      </trkpt>
      <trkpt lat="43.96667" lon="1.9569">
        <ele>217.541188</ele>
        <time>2026-08-29T12:55:42Z</time>
      </trkpt>
      <trkpt lat="43.96669" lon="1.95693">
        <ele>217.615719</ele>
        <time>2026-08-29T12:55:43Z</time>
      </trkpt>
      <trkpt lat="43.96672" lon="1.95696">
        <ele>217.697194</ele>
        <time>2026-08-29T12:55:44Z</time>
      </trkpt>
      <trkpt lat="43.96674" lon="1.95699">
        <ele>217.774209</ele>
        <time>2026-08-29T12:55:45Z</time>
      </trkpt>
      <trkpt lat="43.96677" lon="1.95702">
        <ele>217.852372</ele>
        <time>2026-08-29T12:55:46Z</time>
      </trkpt>
      <trkpt lat="43.96679" lon="1.95705">
        <ele>217.915746</ele>
        <time>2026-08-29T12:55:47Z</time>
      </trkpt>
      <trkpt lat="43.96682" lon="1.95707">
        <ele>217.978126</ele>
        <time>2026-08-29T12:55:48Z</time>
      </trkpt>
      <trkpt lat="43.96684" lon="1.95709">
        <ele>218.038001</ele>
        <time>2026-08-29T12:55:49Z</time>
      </trkpt>
      <trkpt lat="43.96686" lon="1.95712">
        <ele>218.094038</ele>
        <time>2026-08-29T12:55:50Z</time>
      </trkpt>
      <trkpt lat="43.96688" lon="1.95714">
        <ele>218.160365</ele>
        <time>2026-08-29T12:55:51Z</time>
      </trkpt>
      <trkpt lat="43.9669" lon="1.95716">
        <ele>218.287112</ele>
        <time>2026-08-29T12:55:52Z</time>
      </trkpt>
      <trkpt lat="43.96692" lon="1.95718">
        <ele>218.418045</ele>
        <time>2026-08-29T12:55:53Z</time>
      </trkpt>
      <trkpt lat="43.96694" lon="1.9572">
        <ele>218.53904</ele>
        <time>2026-08-29T12:55:54Z</time>
      </trkpt>
      <trkpt lat="43.96696" lon="1.95721">
        <ele>218.660035</ele>
        <time>2026-08-29T12:55:55Z</time>
      </trkpt>
      <trkpt lat="43.96698" lon="1.95723">
        <ele>218.77064</ele>
        <time>2026-08-29T12:55:56Z</time>
      </trkpt>
      <trkpt lat="43.967" lon="1.95725">
        <ele>218.881245</ele>
        <time>2026-08-29T12:55:57Z</time>
      </trkpt>
      <trkpt lat="43.96702" lon="1.95726">
        <ele>218.996137</ele>
        <time>2026-08-29T12:55:58Z</time>
      </trkpt>
      <trkpt lat="43.96703" lon="1.95728">
        <ele>219.094275</ele>
        <time>2026-08-29T12:55:59Z</time>
      </trkpt>
      <trkpt lat="43.96705" lon="1.95729">
        <ele>219.205764</ele>
        <time>2026-08-29T12:56:00Z</time>
      </trkpt>
      <trkpt lat="43.96707" lon="1.95731">
        <ele>219.316369</ele>
        <time>2026-08-29T12:56:01Z</time>
      </trkpt>
      <trkpt lat="43.96709" lon="1.95732">
        <ele>219.420641</ele>
        <time>2026-08-29T12:56:02Z</time>
      </trkpt>
      <trkpt lat="43.9671" lon="1.95734">
        <ele>219.50447</ele>
        <time>2026-08-29T12:56:03Z</time>
      </trkpt>
      <trkpt lat="43.96712" lon="1.95735">
        <ele>219.591811</ele>
        <time>2026-08-29T12:56:04Z</time>
      </trkpt>
      <trkpt lat="43.96714" lon="1.95736">
        <ele>219.681769</ele>
        <time>2026-08-29T12:56:05Z</time>
      </trkpt>
      <trkpt lat="43.96715" lon="1.95738">
        <ele>219.796253</ele>
        <time>2026-08-29T12:56:06Z</time>
      </trkpt>
      <trkpt lat="43.96717" lon="1.9574">
        <ele>219.906659</ele>
        <time>2026-08-29T12:56:07Z</time>
      </trkpt>
      <trkpt lat="43.96719" lon="1.95741">
        <ele>220.03198</ele>
        <time>2026-08-29T12:56:08Z</time>
      </trkpt>
      <trkpt lat="43.96721" lon="1.95743">
        <ele>220.15061</ele>
        <time>2026-08-29T12:56:09Z</time>
      </trkpt>
      <trkpt lat="43.96724" lon="1.95745">
        <ele>220.281494</ele>
        <time>2026-08-29T12:56:10Z</time>
      </trkpt>
      <trkpt lat="43.96726" lon="1.95747">
        <ele>220.414704</ele>
        <time>2026-08-29T12:56:11Z</time>
      </trkpt>
      <trkpt lat="43.96728" lon="1.95749">
        <ele>220.541806</ele>
        <time>2026-08-29T12:56:12Z</time>
      </trkpt>
      <trkpt lat="43.9673" lon="1.95751">
        <ele>220.667127</ele>
        <time>2026-08-29T12:56:13Z</time>
      </trkpt>
      <trkpt lat="43.96733" lon="1.95753">
        <ele>220.802204</ele>
        <time>2026-08-29T12:56:14Z</time>
      </trkpt>
      <trkpt lat="43.96735" lon="1.95754">
        <ele>220.929306</ele>
        <time>2026-08-29T12:56:15Z</time>
      </trkpt>
      <trkpt lat="43.96737" lon="1.95756">
        <ele>221.054627</ele>
        <time>2026-08-29T12:56:16Z</time>
      </trkpt>
      <trkpt lat="43.96739" lon="1.95758">
        <ele>221.188737</ele>
        <time>2026-08-29T12:56:17Z</time>
      </trkpt>
      <trkpt lat="43.96742" lon="1.9576">
        <ele>221.321948</ele>
        <time>2026-08-29T12:56:18Z</time>
      </trkpt>
      <trkpt lat="43.96744" lon="1.95762">
        <ele>221.449049</ele>
        <time>2026-08-29T12:56:19Z</time>
      </trkpt>
      <trkpt lat="43.96746" lon="1.95763">
        <ele>221.563941</ele>
        <time>2026-08-29T12:56:20Z</time>
      </trkpt>
      <trkpt lat="43.96748" lon="1.95765">
        <ele>221.68594</ele>
        <time>2026-08-29T12:56:21Z</time>
      </trkpt>
      <trkpt lat="43.9675" lon="1.95766">
        <ele>221.797428</ele>
        <time>2026-08-29T12:56:22Z</time>
      </trkpt>
      <trkpt lat="43.96752" lon="1.95767">
        <ele>221.905881</ele>
        <time>2026-08-29T12:56:23Z</time>
      </trkpt>
      <trkpt lat="43.96754" lon="1.95769">
        <ele>222.015804</ele>
        <time>2026-08-29T12:56:24Z</time>
      </trkpt>
      <trkpt lat="43.96756" lon="1.9577">
        <ele>222.128845</ele>
        <time>2026-08-29T12:56:25Z</time>
      </trkpt>
      <trkpt lat="43.96758" lon="1.95771">
        <ele>222.235223</ele>
        <time>2026-08-29T12:56:26Z</time>
      </trkpt>
      <trkpt lat="43.9676" lon="1.95773">
        <ele>222.342289</ele>
        <time>2026-08-29T12:56:27Z</time>
      </trkpt>
      <trkpt lat="43.96762" lon="1.95774">
        <ele>222.440183</ele>
        <time>2026-08-29T12:56:28Z</time>
      </trkpt>
      <trkpt lat="43.96764" lon="1.95775">
        <ele>222.550788</ele>
        <time>2026-08-29T12:56:29Z</time>
      </trkpt>
      <trkpt lat="43.96766" lon="1.95777">
        <ele>222.656223</ele>
        <time>2026-08-29T12:56:30Z</time>
      </trkpt>
      <trkpt lat="43.96767" lon="1.95778">
        <ele>222.757215</ele>
        <time>2026-08-29T12:56:31Z</time>
      </trkpt>
      <trkpt lat="43.96769" lon="1.95779">
        <ele>222.859686</ele>
        <time>2026-08-29T12:56:32Z</time>
      </trkpt>
      <trkpt lat="43.96772" lon="1.9578">
        <ele>222.983299</ele>
        <time>2026-08-29T12:56:33Z</time>
      </trkpt>
      <trkpt lat="43.96774" lon="1.95782">
        <ele>223.109786</ele>
        <time>2026-08-29T12:56:34Z</time>
      </trkpt>
      <trkpt lat="43.96776" lon="1.95783">
        <ele>223.230249</ele>
        <time>2026-08-29T12:56:35Z</time>
      </trkpt>
      <trkpt lat="43.96778" lon="1.95785">
        <ele>223.331242</ele>
        <time>2026-08-29T12:56:36Z</time>
      </trkpt>
      <trkpt lat="43.9678" lon="1.95786">
        <ele>223.43762</ele>
        <time>2026-08-29T12:56:37Z</time>
      </trkpt>
      <trkpt lat="43.96782" lon="1.95788">
        <ele>223.558486</ele>
        <time>2026-08-29T12:56:38Z</time>
      </trkpt>
      <trkpt lat="43.96784" lon="1.9579">
        <ele>223.677115</ele>
        <time>2026-08-29T12:56:39Z</time>
      </trkpt>
      <trkpt lat="43.96786" lon="1.95791">
        <ele>223.787038</ele>
        <time>2026-08-29T12:56:40Z</time>
      </trkpt>
      <trkpt lat="43.96787" lon="1.95793">
        <ele>223.895828</ele>
        <time>2026-08-29T12:56:41Z</time>
      </trkpt>
      <trkpt lat="43.96789" lon="1.95794">
        <ele>224.002912</ele>
        <time>2026-08-29T12:56:42Z</time>
      </trkpt>
      <trkpt lat="43.96791" lon="1.95795">
        <ele>224.112834</ele>
        <time>2026-08-29T12:56:43Z</time>
      </trkpt>
      <trkpt lat="43.96794" lon="1.95797">
        <ele>224.22879</ele>
        <time>2026-08-29T12:56:44Z</time>
      </trkpt>
      <trkpt lat="43.96796" lon="1.95798">
        <ele>224.342961</ele>
        <time>2026-08-29T12:56:45Z</time>
      </trkpt>
      <trkpt lat="43.96798" lon="1.95799">
        <ele>224.450044</ele>
        <time>2026-08-29T12:56:46Z</time>
      </trkpt>
      <trkpt lat="43.968" lon="1.958">
        <ele>224.546552</ele>
        <time>2026-08-29T12:56:47Z</time>
      </trkpt>
      <trkpt lat="43.96801" lon="1.95801">
        <ele>224.645942</ele>
        <time>2026-08-29T12:56:48Z</time>
      </trkpt>
      <trkpt lat="43.96803" lon="1.95802">
        <ele>224.748413</ele>
        <time>2026-08-29T12:56:49Z</time>
      </trkpt>
      <trkpt lat="43.96805" lon="1.95803">
        <ele>224.841771</ele>
        <time>2026-08-29T12:56:50Z</time>
      </trkpt>
      <trkpt lat="43.96807" lon="1.95805">
        <ele>224.948837</ele>
        <time>2026-08-29T12:56:51Z</time>
      </trkpt>
      <trkpt lat="43.96809" lon="1.95806">
        <ele>225.054654</ele>
        <time>2026-08-29T12:56:52Z</time>
      </trkpt>
      <trkpt lat="43.96811" lon="1.95807">
        <ele>225.160471</ele>
        <time>2026-08-29T12:56:53Z</time>
      </trkpt>
      <trkpt lat="43.96813" lon="1.95808">
        <ele>225.268924</ele>
        <time>2026-08-29T12:56:54Z</time>
      </trkpt>
      <trkpt lat="43.96815" lon="1.95809">
        <ele>225.384879</ele>
        <time>2026-08-29T12:56:55Z</time>
      </trkpt>
      <trkpt lat="43.96817" lon="1.95811">
        <ele>225.49367</ele>
        <time>2026-08-29T12:56:56Z</time>
      </trkpt>
      <trkpt lat="43.96819" lon="1.95812">
        <ele>225.604274</ele>
        <time>2026-08-29T12:56:57Z</time>
      </trkpt>
      <trkpt lat="43.96821" lon="1.95814">
        <ele>225.716777</ele>
        <time>2026-08-29T12:56:58Z</time>
      </trkpt>
      <trkpt lat="43.96822" lon="1.95816">
        <ele>225.825129</ele>
        <time>2026-08-29T12:56:59Z</time>
      </trkpt>
      <trkpt lat="43.96824" lon="1.95817">
        <ele>225.919271</ele>
        <time>2026-08-29T12:57:00Z</time>
      </trkpt>
      <trkpt lat="43.96825" lon="1.95819">
        <ele>226.005729</ele>
        <time>2026-08-29T12:57:01Z</time>
      </trkpt>
      <trkpt lat="43.96827" lon="1.9582">
        <ele>226.083427</ele>
        <time>2026-08-29T12:57:02Z</time>
      </trkpt>
      <trkpt lat="43.96828" lon="1.95821">
        <ele>226.167864</ele>
        <time>2026-08-29T12:57:03Z</time>
      </trkpt>
      <trkpt lat="43.9683" lon="1.95822">
        <ele>226.254032</ele>
        <time>2026-08-29T12:57:04Z</time>
      </trkpt>
      <trkpt lat="43.96831" lon="1.95824">
        <ele>226.335924</ele>
        <time>2026-08-29T12:57:05Z</time>
      </trkpt>
      <trkpt lat="43.96832" lon="1.95825">
        <ele>226.420361</ele>
        <time>2026-08-29T12:57:06Z</time>
      </trkpt>
      <trkpt lat="43.96834" lon="1.95826">
        <ele>226.508372</ele>
        <time>2026-08-29T12:57:07Z</time>
      </trkpt>
      <trkpt lat="43.96835" lon="1.95827">
        <ele>226.596383</ele>
        <time>2026-08-29T12:57:08Z</time>
      </trkpt>
      <trkpt lat="43.96837" lon="1.95829">
        <ele>226.686341</ele>
        <time>2026-08-29T12:57:09Z</time>
      </trkpt>
      <trkpt lat="43.96839" lon="1.9583">
        <ele>226.776857</ele>
        <time>2026-08-29T12:57:10Z</time>
      </trkpt>
      <trkpt lat="43.9684" lon="1.95831">
        <ele>226.870216</ele>
        <time>2026-08-29T12:57:11Z</time>
      </trkpt>
      <trkpt lat="43.96842" lon="1.95832">
        <ele>226.980729</ele>
        <time>2026-08-29T12:57:12Z</time>
      </trkpt>
      <trkpt lat="43.96844" lon="1.95833">
        <ele>227.071246</ele>
        <time>2026-08-29T12:57:13Z</time>
      </trkpt>
      <trkpt lat="43.96846" lon="1.95835">
        <ele>227.209664</ele>
        <time>2026-08-29T12:57:14Z</time>
      </trkpt>
      <trkpt lat="43.96847" lon="1.95836">
        <ele>227.352236</ele>
        <time>2026-08-29T12:57:15Z</time>
      </trkpt>
      <trkpt lat="43.96848" lon="1.95837">
        <ele>227.491515</ele>
        <time>2026-08-29T12:57:16Z</time>
      </trkpt>
      <trkpt lat="43.9685" lon="1.95838">
        <ele>227.613238</ele>
        <time>2026-08-29T12:57:17Z</time>
      </trkpt>
      <trkpt lat="43.96851" lon="1.95839">
        <ele>227.724539</ele>
        <time>2026-08-29T12:57:18Z</time>
      </trkpt>
      <trkpt lat="43.96852" lon="1.9584">
        <ele>227.834734</ele>
        <time>2026-08-29T12:57:19Z</time>
      </trkpt>
      <trkpt lat="43.96853" lon="1.95841">
        <ele>227.978342</ele>
        <time>2026-08-29T12:57:20Z</time>
      </trkpt>
      <trkpt lat="43.96855" lon="1.95842">
        <ele>228.117621</ele>
        <time>2026-08-29T12:57:21Z</time>
      </trkpt>
      <trkpt lat="43.96856" lon="1.95843">
        <ele>228.256899</ele>
        <time>2026-08-29T12:57:22Z</time>
      </trkpt>
      <trkpt lat="43.96857" lon="1.95845">
        <ele>228.389047</ele>
        <time>2026-08-29T12:57:23Z</time>
      </trkpt>
      <trkpt lat="43.96859" lon="1.95846">
        <ele>228.514229</ele>
        <time>2026-08-29T12:57:24Z</time>
      </trkpt>
      <trkpt lat="43.9686" lon="1.95847">
        <ele>228.674326</ele>
        <time>2026-08-29T12:57:25Z</time>
      </trkpt>
      <trkpt lat="43.96862" lon="1.95848">
        <ele>228.835774</ele>
        <time>2026-08-29T12:57:26Z</time>
      </trkpt>
      <trkpt lat="43.96864" lon="1.95849">
        <ele>228.987744</ele>
        <time>2026-08-29T12:57:27Z</time>
      </trkpt>
      <trkpt lat="43.96865" lon="1.95849">
        <ele>229.08088</ele>
        <time>2026-08-29T12:57:28Z</time>
      </trkpt>
      <trkpt lat="43.96865" lon="1.95849">
        <ele>229.133124</ele>
        <time>2026-08-29T12:57:29Z</time>
      </trkpt>
      <trkpt lat="43.96865" lon="1.95849">
        <ele>229.163593</ele>
        <time>2026-08-29T12:57:30Z</time>
      </trkpt>
      <trkpt lat="43.96868" lon="1.95853">
        <ele>229.509614</ele>
        <time>2026-08-29T12:58:04Z</time>
      </trkpt>
      <trkpt lat="43.9687" lon="1.95854">
        <ele>229.662612</ele>
        <time>2026-08-29T12:58:05Z</time>
      </trkpt>
      <trkpt lat="43.96871" lon="1.95855">
        <ele>229.805185</ele>
        <time>2026-08-29T12:58:06Z</time>
      </trkpt>
      <trkpt lat="43.96873" lon="1.95857">
        <ele>229.954872</ele>
        <time>2026-08-29T12:58:07Z</time>
      </trkpt>
      <trkpt lat="43.96874" lon="1.95858">
        <ele>230.098481</ele>
        <time>2026-08-29T12:58:08Z</time>
      </trkpt>
      <trkpt lat="43.96876" lon="1.95859">
        <ele>230.258577</ele>
        <time>2026-08-29T12:58:09Z</time>
      </trkpt>
      <trkpt lat="43.96878" lon="1.95861">
        <ele>230.422875</ele>
        <time>2026-08-29T12:58:10Z</time>
      </trkpt>
      <trkpt lat="43.96879" lon="1.95862">
        <ele>230.569427</ele>
        <time>2026-08-29T12:58:11Z</time>
      </trkpt>
      <trkpt lat="43.9688" lon="1.95863">
        <ele>230.708706</ele>
        <time>2026-08-29T12:58:12Z</time>
      </trkpt>
      <trkpt lat="43.96882" lon="1.95864">
        <ele>230.865639</ele>
        <time>2026-08-29T12:58:13Z</time>
      </trkpt>
      <trkpt lat="43.96884" lon="1.95865">
        <ele>231.032134</ele>
        <time>2026-08-29T12:58:14Z</time>
      </trkpt>
      <trkpt lat="43.96885" lon="1.95867">
        <ele>231.189068</ele>
        <time>2026-08-29T12:58:15Z</time>
      </trkpt>
      <trkpt lat="43.96887" lon="1.95868">
        <ele>231.33562</ele>
        <time>2026-08-29T12:58:16Z</time>
      </trkpt>
      <trkpt lat="43.96888" lon="1.95869">
        <ele>231.482172</ele>
        <time>2026-08-29T12:58:17Z</time>
      </trkpt>
      <trkpt lat="43.9689" lon="1.9587">
        <ele>231.600648</ele>
        <time>2026-08-29T12:58:18Z</time>
      </trkpt>
      <trkpt lat="43.96891" lon="1.95871">
        <ele>231.729523</ele>
        <time>2026-08-29T12:58:19Z</time>
      </trkpt>
      <trkpt lat="43.96892" lon="1.95872">
        <ele>231.872095</ele>
        <time>2026-08-29T12:58:20Z</time>
      </trkpt>
      <trkpt lat="43.96894" lon="1.95874">
        <ele>232.021781</ele>
        <time>2026-08-29T12:58:21Z</time>
      </trkpt>
      <trkpt lat="43.96895" lon="1.95875">
        <ele>232.157395</ele>
        <time>2026-08-29T12:58:22Z</time>
      </trkpt>
      <trkpt lat="43.96896" lon="1.95876">
        <ele>232.275808</ele>
        <time>2026-08-29T12:58:23Z</time>
      </trkpt>
      <trkpt lat="43.96898" lon="1.95877">
        <ele>232.407955</ele>
        <time>2026-08-29T12:58:24Z</time>
      </trkpt>
      <trkpt lat="43.96899" lon="1.95878">
        <ele>232.541239</ele>
        <time>2026-08-29T12:58:25Z</time>
      </trkpt>
      <trkpt lat="43.969" lon="1.9588">
        <ele>232.684847</ele>
        <time>2026-08-29T12:58:26Z</time>
      </trkpt>
      <trkpt lat="43.96902" lon="1.95881">
        <ele>232.852169</ele>
        <time>2026-08-29T12:58:27Z</time>
      </trkpt>
      <trkpt lat="43.96904" lon="1.95882">
        <ele>232.988347</ele>
        <time>2026-08-29T12:58:28Z</time>
      </trkpt>
      <trkpt lat="43.96905" lon="1.95883">
        <ele>233.139494</ele>
        <time>2026-08-29T12:58:29Z</time>
      </trkpt>
      <trkpt lat="43.96907" lon="1.95884">
        <ele>233.286046</ele>
        <time>2026-08-29T12:58:30Z</time>
      </trkpt>
      <trkpt lat="43.96908" lon="1.95886">
        <ele>233.418193</ele>
        <time>2026-08-29T12:58:31Z</time>
      </trkpt>
      <trkpt lat="43.96909" lon="1.95886">
        <ele>233.54117</ele>
        <time>2026-08-29T12:58:32Z</time>
      </trkpt>
      <trkpt lat="43.96911" lon="1.95887">
        <ele>233.661553</ele>
        <time>2026-08-29T12:58:33Z</time>
      </trkpt>
      <trkpt lat="43.96912" lon="1.95888">
        <ele>233.78003</ele>
        <time>2026-08-29T12:58:34Z</time>
      </trkpt>
      <trkpt lat="43.96913" lon="1.95889">
        <ele>233.916207</ele>
        <time>2026-08-29T12:58:35Z</time>
      </trkpt>
      <trkpt lat="43.96915" lon="1.9589">
        <ele>234.057074</ele>
        <time>2026-08-29T12:58:36Z</time>
      </trkpt>
      <trkpt lat="43.96916" lon="1.95891">
        <ele>234.180051</ele>
        <time>2026-08-29T12:58:37Z</time>
      </trkpt>
      <trkpt lat="43.96917" lon="1.95892">
        <ele>234.316229</ele>
        <time>2026-08-29T12:58:38Z</time>
      </trkpt>
      <trkpt lat="43.96919" lon="1.95893">
        <ele>234.430438</ele>
        <time>2026-08-29T12:58:39Z</time>
      </trkpt>
      <trkpt lat="43.9692" lon="1.95894">
        <ele>234.572466</ele>
        <time>2026-08-29T12:58:40Z</time>
      </trkpt>
      <trkpt lat="43.96922" lon="1.95894">
        <ele>234.710806</ele>
        <time>2026-08-29T12:58:41Z</time>
      </trkpt>
      <trkpt lat="43.96923" lon="1.95895">
        <ele>234.821001</ele>
        <time>2026-08-29T12:58:42Z</time>
      </trkpt>
      <trkpt lat="43.96924" lon="1.95896">
        <ele>234.954284</ele>
        <time>2026-08-29T12:58:43Z</time>
      </trkpt>
      <trkpt lat="43.96926" lon="1.95897">
        <ele>235.096856</ele>
        <time>2026-08-29T12:58:44Z</time>
      </trkpt>
      <trkpt lat="43.96927" lon="1.95899">
        <ele>235.242902</ele>
        <time>2026-08-29T12:58:45Z</time>
      </trkpt>
      <trkpt lat="43.96929" lon="1.959">
        <ele>235.392587</ele>
        <time>2026-08-29T12:58:46Z</time>
      </trkpt>
      <trkpt lat="43.9693" lon="1.95901">
        <ele>235.524734</ele>
        <time>2026-08-29T12:58:47Z</time>
      </trkpt>
      <trkpt lat="43.96931" lon="1.95902">
        <ele>235.636034</ele>
        <time>2026-08-29T12:58:48Z</time>
      </trkpt>
      <trkpt lat="43.96932" lon="1.95903">
        <ele>235.746229</ele>
        <time>2026-08-29T12:58:49Z</time>
      </trkpt>
      <trkpt lat="43.96933" lon="1.95904">
        <ele>235.846285</ele>
        <time>2026-08-29T12:58:50Z</time>
      </trkpt>
      <trkpt lat="43.96935" lon="1.95904">
        <ele>235.960494</ele>
        <time>2026-08-29T12:58:51Z</time>
      </trkpt>
      <trkpt lat="43.96936" lon="1.95905">
        <ele>236.070689</ele>
        <time>2026-08-29T12:58:52Z</time>
      </trkpt>
      <trkpt lat="43.96937" lon="1.95906">
        <ele>236.191072</ele>
        <time>2026-08-29T12:58:53Z</time>
      </trkpt>
      <trkpt lat="43.96939" lon="1.95907">
        <ele>236.35252</ele>
        <time>2026-08-29T12:58:54Z</time>
      </trkpt>
      <trkpt lat="43.9694" lon="1.95908">
        <ele>236.484667</ele>
        <time>2026-08-29T12:58:55Z</time>
      </trkpt>
      <trkpt lat="43.96941" lon="1.95909">
        <ele>236.62028</ele>
        <time>2026-08-29T12:58:56Z</time>
      </trkpt>
      <trkpt lat="43.96943" lon="1.9591">
        <ele>236.768826</ele>
        <time>2026-08-29T12:58:57Z</time>
      </trkpt>
      <trkpt lat="43.96945" lon="1.95911">
        <ele>236.932962</ele>
        <time>2026-08-29T12:58:58Z</time>
      </trkpt>
      <trkpt lat="43.96946" lon="1.95913">
        <ele>237.079514</ele>
        <time>2026-08-29T12:58:59Z</time>
      </trkpt>
      <trkpt lat="43.96948" lon="1.95913">
        <ele>237.194974</ele>
        <time>2026-08-29T12:59:00Z</time>
      </trkpt>
      <trkpt lat="43.96949" lon="1.95914">
        <ele>237.306274</ele>
        <time>2026-08-29T12:59:01Z</time>
      </trkpt>
      <trkpt lat="43.9695" lon="1.95915">
        <ele>237.410593</ele>
        <time>2026-08-29T12:59:02Z</time>
      </trkpt>
      <trkpt lat="43.96951" lon="1.95917">
        <ele>237.520513</ele>
        <time>2026-08-29T12:59:03Z</time>
      </trkpt>
      <trkpt lat="43.96952" lon="1.95918">
        <ele>237.657181</ele>
        <time>2026-08-29T12:59:04Z</time>
      </trkpt>
      <trkpt lat="43.96953" lon="1.9592">
        <ele>237.810665</ele>
        <time>2026-08-29T12:59:05Z</time>
      </trkpt>
      <trkpt lat="43.96955" lon="1.95921">
        <ele>237.963663</ele>
        <time>2026-08-29T12:59:06Z</time>
      </trkpt>
      <trkpt lat="43.96956" lon="1.95923">
        <ele>238.102924</ele>
        <time>2026-08-29T12:59:07Z</time>
      </trkpt>
      <trkpt lat="43.96957" lon="1.95924">
        <ele>238.245496</ele>
        <time>2026-08-29T12:59:08Z</time>
      </trkpt>
      <trkpt lat="43.96959" lon="1.95925">
        <ele>238.398493</ele>
        <time>2026-08-29T12:59:09Z</time>
      </trkpt>
      <trkpt lat="43.9696" lon="1.95926">
        <ele>238.531776</ele>
        <time>2026-08-29T12:59:10Z</time>
      </trkpt>
      <trkpt lat="43.96962" lon="1.95928">
        <ele>238.695201</ele>
        <time>2026-08-29T12:59:11Z</time>
      </trkpt>
      <trkpt lat="43.96963" lon="1.95929">
        <ele>238.851678</ele>
        <time>2026-08-29T12:59:12Z</time>
      </trkpt>
      <trkpt lat="43.96965" lon="1.95931">
        <ele>239.008611</ele>
        <time>2026-08-29T12:59:13Z</time>
      </trkpt>
      <trkpt lat="43.96967" lon="1.95932">
        <ele>239.182463</ele>
        <time>2026-08-29T12:59:14Z</time>
      </trkpt>
      <trkpt lat="43.96968" lon="1.95934">
        <ele>239.335946</ele>
        <time>2026-08-29T12:59:15Z</time>
      </trkpt>
      <trkpt lat="43.96969" lon="1.95936">
        <ele>239.459224</ele>
        <time>2026-08-29T12:59:16Z</time>
      </trkpt>
      <trkpt lat="43.96968" lon="1.95938">
        <ele>239.589689</ele>
        <time>2026-08-29T12:59:17Z</time>
      </trkpt>
      <trkpt lat="43.96968" lon="1.9594">
        <ele>239.738768</ele>
        <time>2026-08-29T12:59:18Z</time>
      </trkpt>
      <trkpt lat="43.96967" lon="1.95942">
        <ele>239.88736</ele>
        <time>2026-08-29T12:59:19Z</time>
      </trkpt>
      <trkpt lat="43.96965" lon="1.95944">
        <ele>240.053059</ele>
        <time>2026-08-29T12:59:20Z</time>
      </trkpt>
      <trkpt lat="43.96964" lon="1.95946">
        <ele>240.23662</ele>
        <time>2026-08-29T12:59:21Z</time>
      </trkpt>
      <trkpt lat="43.96962" lon="1.95949">
        <ele>240.459849</ele>
        <time>2026-08-29T12:59:22Z</time>
      </trkpt>
      <trkpt lat="43.9696" lon="1.95952">
        <ele>240.697856</ele>
        <time>2026-08-29T12:59:23Z</time>
      </trkpt>
      <trkpt lat="43.96958" lon="1.95956">
        <ele>240.974986</ele>
        <time>2026-08-29T12:59:24Z</time>
      </trkpt>
      <trkpt lat="43.96956" lon="1.95959">
        <ele>241.237881</ele>
        <time>2026-08-29T12:59:25Z</time>
      </trkpt>
      <trkpt lat="43.96955" lon="1.95962">
        <ele>241.480251</ele>
        <time>2026-08-29T12:59:26Z</time>
      </trkpt>
      <trkpt lat="43.96953" lon="1.95965">
        <ele>241.709031</ele>
        <time>2026-08-29T12:59:27Z</time>
      </trkpt>
      <trkpt lat="43.96951" lon="1.95968">
        <ele>241.95633</ele>
        <time>2026-08-29T12:59:28Z</time>
      </trkpt>
      <trkpt lat="43.96949" lon="1.95971">
        <ele>242.203821</ele>
        <time>2026-08-29T12:59:29Z</time>
      </trkpt>
      <trkpt lat="43.96947" lon="1.95975">
        <ele>242.380847</ele>
        <time>2026-08-29T12:59:30Z</time>
      </trkpt>
      <trkpt lat="43.96946" lon="1.95978">
        <ele>242.485107</ele>
        <time>2026-08-29T12:59:31Z</time>
      </trkpt>
      <trkpt lat="43.96944" lon="1.95982">
        <ele>242.581454</ele>
        <time>2026-08-29T12:59:32Z</time>
      </trkpt>
      <trkpt lat="43.96942" lon="1.95985">
        <ele>242.681717</ele>
        <time>2026-08-29T12:59:33Z</time>
      </trkpt>
      <trkpt lat="43.96941" lon="1.95988">
        <ele>242.780081</ele>
        <time>2026-08-29T12:59:34Z</time>
      </trkpt>
      <trkpt lat="43.96939" lon="1.95992">
        <ele>242.871175</ele>
        <time>2026-08-29T12:59:35Z</time>
      </trkpt>
      <trkpt lat="43.96938" lon="1.95995">
        <ele>242.967522</ele>
        <time>2026-08-29T12:59:36Z</time>
      </trkpt>
      <trkpt lat="43.96936" lon="1.95998">
        <ele>243.060278</ele>
        <time>2026-08-29T12:59:37Z</time>
      </trkpt>
      <trkpt lat="43.96935" lon="1.96002">
        <ele>243.155648</ele>
        <time>2026-08-29T12:59:38Z</time>
      </trkpt>
      <trkpt lat="43.96934" lon="1.96005">
        <ele>243.250157</ele>
        <time>2026-08-29T12:59:39Z</time>
      </trkpt>
      <trkpt lat="43.96932" lon="1.96009">
        <ele>243.347685</ele>
        <time>2026-08-29T12:59:40Z</time>
      </trkpt>
      <trkpt lat="43.96931" lon="1.96012">
        <ele>243.440163</ele>
        <time>2026-08-29T12:59:41Z</time>
      </trkpt>
      <trkpt lat="43.9693" lon="1.96016">
        <ele>243.534865</ele>
        <time>2026-08-29T12:59:42Z</time>
      </trkpt>
      <trkpt lat="43.96929" lon="1.96019">
        <ele>243.633134</ele>
        <time>2026-08-29T12:59:43Z</time>
      </trkpt>
      <trkpt lat="43.96928" lon="1.96023">
        <ele>243.733615</ele>
        <time>2026-08-29T12:59:44Z</time>
      </trkpt>
      <trkpt lat="43.96927" lon="1.96027">
        <ele>243.835095</ele>
        <time>2026-08-29T12:59:45Z</time>
      </trkpt>
      <trkpt lat="43.96926" lon="1.96031">
        <ele>243.935622</ele>
        <time>2026-08-29T12:59:46Z</time>
      </trkpt>
      <trkpt lat="43.96925" lon="1.96035">
        <ele>244.024543</ele>
        <time>2026-08-29T12:59:47Z</time>
      </trkpt>
      <trkpt lat="43.96925" lon="1.96038">
        <ele>244.104614</ele>
        <time>2026-08-29T12:59:48Z</time>
      </trkpt>
      <trkpt lat="43.96924" lon="1.96041">
        <ele>244.189381</ele>
        <time>2026-08-29T12:59:49Z</time>
      </trkpt>
      <trkpt lat="43.96924" lon="1.96045">
        <ele>244.275193</ele>
        <time>2026-08-29T12:59:50Z</time>
      </trkpt>
      <trkpt lat="43.96923" lon="1.96048">
        <ele>244.361596</ele>
        <time>2026-08-29T12:59:51Z</time>
      </trkpt>
      <trkpt lat="43.96923" lon="1.96052">
        <ele>244.452754</ele>
        <time>2026-08-29T12:59:52Z</time>
      </trkpt>
      <trkpt lat="43.96922" lon="1.96056">
        <ele>244.540958</ele>
        <time>2026-08-29T12:59:53Z</time>
      </trkpt>
      <trkpt lat="43.96922" lon="1.96059">
        <ele>244.623355</ele>
        <time>2026-08-29T12:59:54Z</time>
      </trkpt>
      <trkpt lat="43.96922" lon="1.96063">
        <ele>244.708371</ele>
        <time>2026-08-29T12:59:55Z</time>
      </trkpt>
      <trkpt lat="43.96922" lon="1.96066">
        <ele>244.788278</ele>
        <time>2026-08-29T12:59:56Z</time>
      </trkpt>
      <trkpt lat="43.96922" lon="1.96069">
        <ele>244.865837</ele>
        <time>2026-08-29T12:59:57Z</time>
      </trkpt>
      <trkpt lat="43.96922" lon="1.96072">
        <ele>244.939177</ele>
        <time>2026-08-29T12:59:58Z</time>
      </trkpt>
      <trkpt lat="43.96922" lon="1.96076">
        <ele>245.024526</ele>
        <time>2026-08-29T12:59:59Z</time>
      </trkpt>
      <trkpt lat="43.96923" lon="1.9608">
        <ele>245.121907</ele>
        <time>2026-08-29T13:00:00Z</time>
      </trkpt>
      <trkpt lat="43.96923" lon="1.96084">
        <ele>245.222093</ele>
        <time>2026-08-29T13:00:01Z</time>
      </trkpt>
      <trkpt lat="43.96924" lon="1.96087">
        <ele>245.311571</ele>
        <time>2026-08-29T13:00:02Z</time>
      </trkpt>
      <trkpt lat="43.96924" lon="1.96091">
        <ele>245.402169</ele>
        <time>2026-08-29T13:00:03Z</time>
      </trkpt>
      <trkpt lat="43.96925" lon="1.96094">
        <ele>245.488572</ele>
        <time>2026-08-29T13:00:04Z</time>
      </trkpt>
      <trkpt lat="43.96925" lon="1.96098">
        <ele>245.574383</ele>
        <time>2026-08-29T13:00:05Z</time>
      </trkpt>
      <trkpt lat="43.96925" lon="1.96102">
        <ele>245.664542</ele>
        <time>2026-08-29T13:00:06Z</time>
      </trkpt>
      <trkpt lat="43.96926" lon="1.96105">
        <ele>245.747487</ele>
        <time>2026-08-29T13:00:07Z</time>
      </trkpt>
      <trkpt lat="43.96926" lon="1.96109">
        <ele>245.832836</ele>
        <time>2026-08-29T13:00:08Z</time>
      </trkpt>
      <trkpt lat="43.96926" lon="1.96112">
        <ele>245.913377</ele>
        <time>2026-08-29T13:00:09Z</time>
      </trkpt>
      <trkpt lat="43.96927" lon="1.96115">
        <ele>246.001131</ele>
        <time>2026-08-29T13:00:10Z</time>
      </trkpt>
      <trkpt lat="43.96927" lon="1.96119">
        <ele>246.086942</ele>
        <time>2026-08-29T13:00:11Z</time>
      </trkpt>
      <trkpt lat="43.96927" lon="1.96122">
        <ele>246.1686</ele>
        <time>2026-08-29T13:00:12Z</time>
      </trkpt>
      <trkpt lat="43.96928" lon="1.96126">
        <ele>246.252021</ele>
        <time>2026-08-29T13:00:13Z</time>
      </trkpt>
      <trkpt lat="43.96928" lon="1.96129">
        <ele>246.336838</ele>
        <time>2026-08-29T13:00:14Z</time>
      </trkpt>
      <trkpt lat="43.96928" lon="1.96133">
        <ele>246.436173</ele>
        <time>2026-08-29T13:00:15Z</time>
      </trkpt>
      <trkpt lat="43.96928" lon="1.96137">
        <ele>246.533554</ele>
        <time>2026-08-29T13:00:16Z</time>
      </trkpt>
      <trkpt lat="43.96928" lon="1.96141">
        <ele>246.635476</ele>
        <time>2026-08-29T13:00:17Z</time>
      </trkpt>
      <trkpt lat="43.96928" lon="1.96145">
        <ele>246.729971</ele>
        <time>2026-08-29T13:00:18Z</time>
      </trkpt>
      <trkpt lat="43.96929" lon="1.9615">
        <ele>246.83217</ele>
        <time>2026-08-29T13:00:19Z</time>
      </trkpt>
      <trkpt lat="43.96929" lon="1.96154">
        <ele>246.931505</ele>
        <time>2026-08-29T13:00:20Z</time>
      </trkpt>
      <trkpt lat="43.96929" lon="1.96157">
        <ele>247.021161</ele>
        <time>2026-08-29T13:00:21Z</time>
      </trkpt>
      <trkpt lat="43.96929" lon="1.96161">
        <ele>247.111006</ele>
        <time>2026-08-29T13:00:22Z</time>
      </trkpt>
      <trkpt lat="43.96929" lon="1.96165">
        <ele>247.198241</ele>
        <time>2026-08-29T13:00:23Z</time>
      </trkpt>
      <trkpt lat="43.96929" lon="1.96168">
        <ele>247.285477</ele>
        <time>2026-08-29T13:00:24Z</time>
      </trkpt>
      <trkpt lat="43.96929" lon="1.96172">
        <ele>247.380152</ele>
        <time>2026-08-29T13:00:25Z</time>
      </trkpt>
      <trkpt lat="43.96929" lon="1.96176">
        <ele>247.472227</ele>
        <time>2026-08-29T13:00:26Z</time>
      </trkpt>
      <trkpt lat="43.96929" lon="1.9618">
        <ele>247.565766</ele>
        <time>2026-08-29T13:00:27Z</time>
      </trkpt>
      <trkpt lat="43.96928" lon="1.96183">
        <ele>247.657605</ele>
        <time>2026-08-29T13:00:28Z</time>
      </trkpt>
      <trkpt lat="43.96927" lon="1.96187">
        <ele>247.744008</ele>
        <time>2026-08-29T13:00:29Z</time>
      </trkpt>
      <trkpt lat="43.96927" lon="1.96191">
        <ele>247.837556</ele>
        <time>2026-08-29T13:00:30Z</time>
      </trkpt>
      <trkpt lat="43.96926" lon="1.96194">
        <ele>247.922323</ele>
        <time>2026-08-29T13:00:31Z</time>
      </trkpt>
      <trkpt lat="43.96926" lon="1.96197">
        <ele>248.005267</ele>
        <time>2026-08-29T13:00:32Z</time>
      </trkpt>
      <trkpt lat="43.96925" lon="1.96201">
        <ele>248.094047</ele>
        <time>2026-08-29T13:00:33Z</time>
      </trkpt>
      <trkpt lat="43.96925" lon="1.96205">
        <ele>248.181477</ele>
        <time>2026-08-29T13:00:34Z</time>
      </trkpt>
      <trkpt lat="43.96925" lon="1.96208">
        <ele>248.266493</ele>
        <time>2026-08-29T13:00:35Z</time>
      </trkpt>
      <trkpt lat="43.96925" lon="1.96211">
        <ele>248.344052</ele>
        <time>2026-08-29T13:00:36Z</time>
      </trkpt>
      <trkpt lat="43.96924" lon="1.96215">
        <ele>248.380274</ele>
        <time>2026-08-29T13:00:37Z</time>
      </trkpt>
      <trkpt lat="43.96924" lon="1.96218">
        <ele>248.375684</ele>
        <time>2026-08-29T13:00:38Z</time>
      </trkpt>
      <trkpt lat="43.96924" lon="1.96221">
        <ele>248.370973</ele>
        <time>2026-08-29T13:00:39Z</time>
      </trkpt>
      <trkpt lat="43.96924" lon="1.96225">
        <ele>248.365959</ele>
        <time>2026-08-29T13:00:40Z</time>
      </trkpt>
      <trkpt lat="43.96923" lon="1.96228">
        <ele>248.360497</ele>
        <time>2026-08-29T13:00:41Z</time>
      </trkpt>
      <trkpt lat="43.96923" lon="1.96232">
        <ele>248.3552</ele>
        <time>2026-08-29T13:00:42Z</time>
      </trkpt>
      <trkpt lat="43.96922" lon="1.96235">
        <ele>248.350306</ele>
        <time>2026-08-29T13:00:43Z</time>
      </trkpt>
      <trkpt lat="43.96922" lon="1.96239">
        <ele>248.344812</ele>
        <time>2026-08-29T13:00:44Z</time>
      </trkpt>
      <trkpt lat="43.96921" lon="1.96242">
        <ele>248.340015</ele>
        <time>2026-08-29T13:00:45Z</time>
      </trkpt>
      <trkpt lat="43.96921" lon="1.96245">
        <ele>248.336401</ele>
        <time>2026-08-29T13:00:46Z</time>
      </trkpt>
      <trkpt lat="43.9692" lon="1.96245">
        <ele>248.335579</ele>
        <time>2026-08-29T13:00:47Z</time>
      </trkpt>
      <trkpt lat="43.96921" lon="1.96245">
        <ele>248.335184</ele>
        <time>2026-08-29T13:00:48Z</time>
      </trkpt>
      <trkpt lat="43.96921" lon="1.96245">
        <ele>248.333964</ele>
        <time>2026-08-29T13:00:49Z</time>
      </trkpt>
      <trkpt lat="43.96922" lon="1.96253">
        <ele>248.322699</ele>
        <time>2026-08-29T13:04:21Z</time>
      </trkpt>
      <trkpt lat="43.96922" lon="1.96256">
        <ele>248.318716</ele>
        <time>2026-08-29T13:04:22Z</time>
      </trkpt>
      <trkpt lat="43.96921" lon="1.96259">
        <ele>248.314018</ele>
        <time>2026-08-29T13:04:23Z</time>
      </trkpt>
      <trkpt lat="43.96922" lon="1.96263">
        <ele>248.309145</ele>
        <time>2026-08-29T13:04:24Z</time>
      </trkpt>
      <trkpt lat="43.96922" lon="1.96266">
        <ele>248.304305</ele>
        <time>2026-08-29T13:04:25Z</time>
      </trkpt>
      <trkpt lat="43.96922" lon="1.9627">
        <ele>248.299508</ele>
        <time>2026-08-29T13:04:26Z</time>
      </trkpt>
      <trkpt lat="43.96923" lon="1.96273">
        <ele>248.294572</ele>
        <time>2026-08-29T13:04:27Z</time>
      </trkpt>
      <trkpt lat="43.96923" lon="1.96276">
        <ele>248.289636</ele>
        <time>2026-08-29T13:04:28Z</time>
      </trkpt>
      <trkpt lat="43.96924" lon="1.9628">
        <ele>248.284656</ele>
        <time>2026-08-29T13:04:29Z</time>
      </trkpt>
      <trkpt lat="43.96925" lon="1.96283">
        <ele>248.279352</ele>
        <time>2026-08-29T13:04:30Z</time>
      </trkpt>
      <trkpt lat="43.96925" lon="1.96287">
        <ele>248.274128</ele>
        <time>2026-08-29T13:04:31Z</time>
      </trkpt>
      <trkpt lat="43.96926" lon="1.96291">
        <ele>248.268167</ele>
        <time>2026-08-29T13:04:32Z</time>
      </trkpt>
      <trkpt lat="43.96927" lon="1.96295">
        <ele>248.261874</ele>
        <time>2026-08-29T13:04:33Z</time>
      </trkpt>
      <trkpt lat="43.96928" lon="1.963">
        <ele>248.255114</ele>
        <time>2026-08-29T13:04:34Z</time>
      </trkpt>
      <trkpt lat="43.9693" lon="1.96304">
        <ele>248.247751</ele>
        <time>2026-08-29T13:04:35Z</time>
      </trkpt>
      <trkpt lat="43.96931" lon="1.9631">
        <ele>248.239652</ele>
        <time>2026-08-29T13:04:36Z</time>
      </trkpt>
      <trkpt lat="43.96932" lon="1.96315">
        <ele>248.231552</ele>
        <time>2026-08-29T13:04:37Z</time>
      </trkpt>
      <trkpt lat="43.96934" lon="1.96321">
        <ele>248.223388</ele>
        <time>2026-08-29T13:04:38Z</time>
      </trkpt>
      <trkpt lat="43.96935" lon="1.96326">
        <ele>248.215287</ele>
        <time>2026-08-29T13:04:39Z</time>
      </trkpt>
      <trkpt lat="43.96937" lon="1.96331">
        <ele>248.207503</ele>
        <time>2026-08-29T13:04:40Z</time>
      </trkpt>
      <trkpt lat="43.96938" lon="1.96336">
        <ele>248.199572</ele>
        <time>2026-08-29T13:04:41Z</time>
      </trkpt>
      <trkpt lat="43.96938" lon="1.96341">
        <ele>248.192187</ele>
        <time>2026-08-29T13:04:42Z</time>
      </trkpt>
      <trkpt lat="43.96938" lon="1.96346">
        <ele>248.185644</ele>
        <time>2026-08-29T13:04:43Z</time>
      </trkpt>
      <trkpt lat="43.96937" lon="1.9635">
        <ele>248.17953</ele>
        <time>2026-08-29T13:04:44Z</time>
      </trkpt>
      <trkpt lat="43.96935" lon="1.96354">
        <ele>248.173177</ele>
        <time>2026-08-29T13:04:45Z</time>
      </trkpt>
      <trkpt lat="43.96933" lon="1.96357">
        <ele>248.166012</ele>
        <time>2026-08-29T13:04:46Z</time>
      </trkpt>
      <trkpt lat="43.96929" lon="1.9636">
        <ele>248.157028</ele>
        <time>2026-08-29T13:04:47Z</time>
      </trkpt>
      <trkpt lat="43.96925" lon="1.96363">
        <ele>248.148701</ele>
        <time>2026-08-29T13:04:48Z</time>
      </trkpt>
      <trkpt lat="43.96922" lon="1.96365">
        <ele>248.141227</ele>
        <time>2026-08-29T13:04:49Z</time>
      </trkpt>
      <trkpt lat="43.96919" lon="1.96368">
        <ele>248.134165</ele>
        <time>2026-08-29T13:04:50Z</time>
      </trkpt>
      <trkpt lat="43.96916" lon="1.96371">
        <ele>248.12702</ele>
        <time>2026-08-29T13:04:51Z</time>
      </trkpt>
      <trkpt lat="43.96913" lon="1.96374">
        <ele>248.119788</ele>
        <time>2026-08-29T13:04:52Z</time>
      </trkpt>
      <trkpt lat="43.9691" lon="1.96378">
        <ele>248.111982</ele>
        <time>2026-08-29T13:04:53Z</time>
      </trkpt>
      <trkpt lat="43.96907" lon="1.96381">
        <ele>248.104296</ele>
        <time>2026-08-29T13:04:54Z</time>
      </trkpt>
      <trkpt lat="43.96904" lon="1.96385">
        <ele>248.096368</ele>
        <time>2026-08-29T13:04:55Z</time>
      </trkpt>
      <trkpt lat="43.96901" lon="1.96389">
        <ele>248.088431</ele>
        <time>2026-08-29T13:04:56Z</time>
      </trkpt>
      <trkpt lat="43.96898" lon="1.96393">
        <ele>248.080553</ele>
        <time>2026-08-29T13:04:57Z</time>
      </trkpt>
      <trkpt lat="43.96896" lon="1.96397">
        <ele>248.073157</ele>
        <time>2026-08-29T13:04:58Z</time>
      </trkpt>
      <trkpt lat="43.96893" lon="1.964">
        <ele>248.065761</ele>
        <time>2026-08-29T13:04:59Z</time>
      </trkpt>
      <trkpt lat="43.9689" lon="1.96404">
        <ele>248.058199</ele>
        <time>2026-08-29T13:05:00Z</time>
      </trkpt>
      <trkpt lat="43.96888" lon="1.96408">
        <ele>248.050555</ele>
        <time>2026-08-29T13:05:01Z</time>
      </trkpt>
      <trkpt lat="43.96885" lon="1.96412">
        <ele>248.04302</ele>
        <time>2026-08-29T13:05:02Z</time>
      </trkpt>
      <trkpt lat="43.96883" lon="1.96416">
        <ele>248.035484</ele>
        <time>2026-08-29T13:05:03Z</time>
      </trkpt>
      <trkpt lat="43.9688" lon="1.9642">
        <ele>248.028201</ele>
        <time>2026-08-29T13:05:04Z</time>
      </trkpt>
      <trkpt lat="43.96878" lon="1.96424">
        <ele>248.099839</ele>
        <time>2026-08-29T13:05:05Z</time>
      </trkpt>
      <trkpt lat="43.96876" lon="1.96428">
        <ele>248.178414</ele>
        <time>2026-08-29T13:05:06Z</time>
      </trkpt>
      <trkpt lat="43.96874" lon="1.96432">
        <ele>248.254625</ele>
        <time>2026-08-29T13:05:07Z</time>
      </trkpt>
      <trkpt lat="43.96872" lon="1.96435">
        <ele>248.331906</ele>
        <time>2026-08-29T13:05:08Z</time>
      </trkpt>
      <trkpt lat="43.96869" lon="1.96439">
        <ele>248.412088</ele>
        <time>2026-08-29T13:05:09Z</time>
      </trkpt>
      <trkpt lat="43.96867" lon="1.96442">
        <ele>248.489817</ele>
        <time>2026-08-29T13:05:10Z</time>
      </trkpt>
      <trkpt lat="43.96865" lon="1.96446">
        <ele>248.571248</ele>
        <time>2026-08-29T13:05:11Z</time>
      </trkpt>
      <trkpt lat="43.96863" lon="1.9645">
        <ele>248.648977</ele>
        <time>2026-08-29T13:05:12Z</time>
      </trkpt>
      <trkpt lat="43.9686" lon="1.96453">
        <ele>248.724977</ele>
        <time>2026-08-29T13:05:13Z</time>
      </trkpt>
      <trkpt lat="43.96858" lon="1.96457">
        <ele>248.805159</ele>
        <time>2026-08-29T13:05:14Z</time>
      </trkpt>
      <trkpt lat="43.96856" lon="1.96461">
        <ele>248.881371</ele>
        <time>2026-08-29T13:05:15Z</time>
      </trkpt>
      <trkpt lat="43.96854" lon="1.96464">
        <ele>248.958313</ele>
        <time>2026-08-29T13:05:16Z</time>
      </trkpt>
      <trkpt lat="43.96851" lon="1.96467">
        <ele>249.03484</ele>
        <time>2026-08-29T13:05:17Z</time>
      </trkpt>
      <trkpt lat="43.96849" lon="1.96471">
        <ele>249.109572</ele>
        <time>2026-08-29T13:05:18Z</time>
      </trkpt>
      <trkpt lat="43.96847" lon="1.96474">
        <ele>249.186098</ele>
        <time>2026-08-29T13:05:19Z</time>
      </trkpt>
      <trkpt lat="43.96845" lon="1.96477">
        <ele>249.258677</ele>
        <time>2026-08-29T13:05:20Z</time>
      </trkpt>
      <trkpt lat="43.96842" lon="1.9648">
        <ele>249.326662</ele>
        <time>2026-08-29T13:05:21Z</time>
      </trkpt>
      <trkpt lat="43.9684" lon="1.96483">
        <ele>249.394228</ele>
        <time>2026-08-29T13:05:22Z</time>
      </trkpt>
      <trkpt lat="43.96838" lon="1.96485">
        <ele>249.457245</ele>
        <time>2026-08-29T13:05:23Z</time>
      </trkpt>
      <trkpt lat="43.96836" lon="1.96488">
        <ele>249.525523</ele>
        <time>2026-08-29T13:05:24Z</time>
      </trkpt>
      <trkpt lat="43.96834" lon="1.96491">
        <ele>249.59741</ele>
        <time>2026-08-29T13:05:25Z</time>
      </trkpt>
      <trkpt lat="43.96831" lon="1.96494">
        <ele>249.671623</ele>
        <time>2026-08-29T13:05:26Z</time>
      </trkpt>
      <trkpt lat="43.96829" lon="1.96497">
        <ele>249.745188</ele>
        <time>2026-08-29T13:05:27Z</time>
      </trkpt>
      <trkpt lat="43.96826" lon="1.965">
        <ele>249.817342</ele>
        <time>2026-08-29T13:05:28Z</time>
      </trkpt>
      <trkpt lat="43.96824" lon="1.96503">
        <ele>249.881438</ele>
        <time>2026-08-29T13:05:29Z</time>
      </trkpt>
      <trkpt lat="43.96822" lon="1.96505">
        <ele>249.946202</ele>
        <time>2026-08-29T13:05:30Z</time>
      </trkpt>
      <trkpt lat="43.9682" lon="1.96508">
        <ele>250.012016</ele>
        <time>2026-08-29T13:05:31Z</time>
      </trkpt>
      <trkpt lat="43.96818" lon="1.9651">
        <ele>250.076715</ele>
        <time>2026-08-29T13:05:32Z</time>
      </trkpt>
      <trkpt lat="43.96816" lon="1.96513">
        <ele>250.135875</ele>
        <time>2026-08-29T13:05:33Z</time>
      </trkpt>
      <trkpt lat="43.96814" lon="1.96515">
        <ele>250.190743</ele>
        <time>2026-08-29T13:05:34Z</time>
      </trkpt>
      <trkpt lat="43.96812" lon="1.96518">
        <ele>250.248739</ele>
        <time>2026-08-29T13:05:35Z</time>
      </trkpt>
      <trkpt lat="43.96811" lon="1.9652">
        <ele>250.298455</ele>
        <time>2026-08-29T13:05:36Z</time>
      </trkpt>
      <trkpt lat="43.96809" lon="1.96522">
        <ele>250.34861</ele>
        <time>2026-08-29T13:05:37Z</time>
      </trkpt>
      <trkpt lat="43.96807" lon="1.96524">
        <ele>250.407638</ele>
        <time>2026-08-29T13:05:38Z</time>
      </trkpt>
      <trkpt lat="43.96805" lon="1.96526">
        <ele>250.461956</ele>
        <time>2026-08-29T13:05:39Z</time>
      </trkpt>
      <trkpt lat="43.96803" lon="1.96528">
        <ele>250.522175</ele>
        <time>2026-08-29T13:05:40Z</time>
      </trkpt>
      <trkpt lat="43.96801" lon="1.9653">
        <ele>250.582395</ele>
        <time>2026-08-29T13:05:41Z</time>
      </trkpt>
      <trkpt lat="43.96799" lon="1.96532">
        <ele>250.638546</ele>
        <time>2026-08-29T13:05:42Z</time>
      </trkpt>
      <trkpt lat="43.96797" lon="1.96534">
        <ele>250.692865</ele>
        <time>2026-08-29T13:05:43Z</time>
      </trkpt>
      <trkpt lat="43.96795" lon="1.96536">
        <ele>250.749016</ele>
        <time>2026-08-29T13:05:44Z</time>
      </trkpt>
      <trkpt lat="43.96793" lon="1.96538">
        <ele>250.805168</ele>
        <time>2026-08-29T13:05:45Z</time>
      </trkpt>
      <trkpt lat="43.96791" lon="1.96541">
        <ele>250.864127</ele>
        <time>2026-08-29T13:05:46Z</time>
      </trkpt>
      <trkpt lat="43.96789" lon="1.96543">
        <ele>250.922143</ele>
        <time>2026-08-29T13:05:47Z</time>
      </trkpt>
      <trkpt lat="43.96787" lon="1.96545">
        <ele>250.98391</ele>
        <time>2026-08-29T13:05:48Z</time>
      </trkpt>
      <trkpt lat="43.96785" lon="1.96547">
        <ele>251.04307</ele>
        <time>2026-08-29T13:05:49Z</time>
      </trkpt>
      <trkpt lat="43.96783" lon="1.9655">
        <ele>251.104375</ele>
        <time>2026-08-29T13:05:50Z</time>
      </trkpt>
      <trkpt lat="43.96781" lon="1.96552">
        <ele>251.165144</ele>
        <time>2026-08-29T13:05:51Z</time>
      </trkpt>
      <trkpt lat="43.96779" lon="1.96554">
        <ele>251.225076</ele>
        <time>2026-08-29T13:05:52Z</time>
      </trkpt>
      <trkpt lat="43.96777" lon="1.96557">
        <ele>251.288814</ele>
        <time>2026-08-29T13:05:53Z</time>
      </trkpt>
      <trkpt lat="43.96775" lon="1.96559">
        <ele>251.352359</ele>
        <time>2026-08-29T13:05:54Z</time>
      </trkpt>
      <trkpt lat="43.96772" lon="1.96562">
        <ele>251.416455</ele>
        <time>2026-08-29T13:05:55Z</time>
      </trkpt>
      <trkpt lat="43.9677" lon="1.96565">
        <ele>251.48</ele>
        <time>2026-08-29T13:05:56Z</time>
      </trkpt>
      <trkpt lat="43.96768" lon="1.96567">
        <ele>251.544096</ele>
        <time>2026-08-29T13:05:57Z</time>
      </trkpt>
      <trkpt lat="43.96766" lon="1.9657">
        <ele>251.609294</ele>
        <time>2026-08-29T13:05:58Z</time>
      </trkpt>
      <trkpt lat="43.96764" lon="1.96573">
        <ele>251.67728</ele>
        <time>2026-08-29T13:05:59Z</time>
      </trkpt>
      <trkpt lat="43.96762" lon="1.96576">
        <ele>251.744347</ele>
        <time>2026-08-29T13:06:00Z</time>
      </trkpt>
      <trkpt lat="43.9676" lon="1.96579">
        <ele>251.816825</ele>
        <time>2026-08-29T13:06:01Z</time>
      </trkpt>
      <trkpt lat="43.96757" lon="1.96582">
        <ele>251.888238</ele>
        <time>2026-08-29T13:06:02Z</time>
      </trkpt>
      <trkpt lat="43.96755" lon="1.96584">
        <ele>251.961411</ele>
        <time>2026-08-29T13:06:03Z</time>
      </trkpt>
      <trkpt lat="43.96752" lon="1.96587">
        <ele>252.039483</ele>
        <time>2026-08-29T13:06:04Z</time>
      </trkpt>
      <trkpt lat="43.96749" lon="1.96591">
        <ele>252.122861</ele>
        <time>2026-08-29T13:06:05Z</time>
      </trkpt>
      <trkpt lat="43.96746" lon="1.96593">
        <ele>252.153266</ele>
        <time>2026-08-29T13:06:06Z</time>
      </trkpt>
      <trkpt lat="43.96744" lon="1.96596">
        <ele>252.183566</ele>
        <time>2026-08-29T13:06:07Z</time>
      </trkpt>
      <trkpt lat="43.96741" lon="1.96599">
        <ele>252.210769</ele>
        <time>2026-08-29T13:06:08Z</time>
      </trkpt>
      <trkpt lat="43.96738" lon="1.96601">
        <ele>252.236292</ele>
        <time>2026-08-29T13:06:09Z</time>
      </trkpt>
      <trkpt lat="43.96736" lon="1.96604">
        <ele>252.261494</ele>
        <time>2026-08-29T13:06:10Z</time>
      </trkpt>
      <trkpt lat="43.96734" lon="1.96607">
        <ele>252.285705</ele>
        <time>2026-08-29T13:06:11Z</time>
      </trkpt>
      <trkpt lat="43.96735" lon="1.96611">
        <ele>252.308488</ele>
        <time>2026-08-29T13:06:12Z</time>
      </trkpt>
      <trkpt lat="43.96735" lon="1.96615">
        <ele>252.329808</ele>
        <time>2026-08-29T13:06:13Z</time>
      </trkpt>
      <trkpt lat="43.96737" lon="1.96617">
        <ele>252.348034</ele>
        <time>2026-08-29T13:06:14Z</time>
      </trkpt>
      <trkpt lat="43.96739" lon="1.96619">
        <ele>252.367119</ele>
        <time>2026-08-29T13:06:15Z</time>
      </trkpt>
      <trkpt lat="43.96741" lon="1.96621">
        <ele>252.386583</ele>
        <time>2026-08-29T13:06:16Z</time>
      </trkpt>
      <trkpt lat="43.96742" lon="1.96623">
        <ele>252.404012</ele>
        <time>2026-08-29T13:06:17Z</time>
      </trkpt>
      <trkpt lat="43.96744" lon="1.96625">
        <ele>252.424262</ele>
        <time>2026-08-29T13:06:18Z</time>
      </trkpt>
      <trkpt lat="43.96746" lon="1.96627">
        <ele>252.443911</ele>
        <time>2026-08-29T13:06:19Z</time>
      </trkpt>
      <trkpt lat="43.96748" lon="1.9663">
        <ele>252.46541</ele>
        <time>2026-08-29T13:06:20Z</time>
      </trkpt>
      <trkpt lat="43.9675" lon="1.96632">
        <ele>252.488209</ele>
        <time>2026-08-29T13:06:21Z</time>
      </trkpt>
      <trkpt lat="43.96752" lon="1.96634">
        <ele>252.509708</ele>
        <time>2026-08-29T13:06:22Z</time>
      </trkpt>
      <trkpt lat="43.96754" lon="1.96637">
        <ele>252.530972</ele>
        <time>2026-08-29T13:06:23Z</time>
      </trkpt>
      <trkpt lat="43.96756" lon="1.96639">
        <ele>252.554664</ele>
        <time>2026-08-29T13:06:24Z</time>
      </trkpt>
      <trkpt lat="43.96758" lon="1.96642">
        <ele>252.579218</ele>
        <time>2026-08-29T13:06:25Z</time>
      </trkpt>
      <trkpt lat="43.9676" lon="1.96645">
        <ele>252.60454</ele>
        <time>2026-08-29T13:06:26Z</time>
      </trkpt>
      <trkpt lat="43.96762" lon="1.96648">
        <ele>252.630195</ele>
        <time>2026-08-29T13:06:27Z</time>
      </trkpt>
      <trkpt lat="43.96764" lon="1.96652">
        <ele>252.654382</ele>
        <time>2026-08-29T13:06:28Z</time>
      </trkpt>
      <trkpt lat="43.96764" lon="1.96656">
        <ele>252.680024</ele>
        <time>2026-08-29T13:06:29Z</time>
      </trkpt>
      <trkpt lat="43.96763" lon="1.9666">
        <ele>252.702786</ele>
        <time>2026-08-29T13:06:30Z</time>
      </trkpt>
      <trkpt lat="43.96761" lon="1.96663">
        <ele>252.727862</ele>
        <time>2026-08-29T13:06:31Z</time>
      </trkpt>
      <trkpt lat="43.9676" lon="1.96667">
        <ele>252.751727</ele>
        <time>2026-08-29T13:06:32Z</time>
      </trkpt>
      <trkpt lat="43.96758" lon="1.9667">
        <ele>252.775938</ele>
        <time>2026-08-29T13:06:33Z</time>
      </trkpt>
      <trkpt lat="43.96757" lon="1.96674">
        <ele>252.80073</ele>
        <time>2026-08-29T13:06:34Z</time>
      </trkpt>
      <trkpt lat="43.96755" lon="1.96678">
        <ele>252.825643</ele>
        <time>2026-08-29T13:06:35Z</time>
      </trkpt>
      <trkpt lat="43.96754" lon="1.96681">
        <ele>252.851805</ele>
        <time>2026-08-29T13:06:36Z</time>
      </trkpt>
      <trkpt lat="43.96752" lon="1.96685">
        <ele>252.877531</ele>
        <time>2026-08-29T13:06:37Z</time>
      </trkpt>
      <trkpt lat="43.9675" lon="1.96689">
        <ele>252.904621</ele>
        <time>2026-08-29T13:06:38Z</time>
      </trkpt>
      <trkpt lat="43.96748" lon="1.96692">
        <ele>252.930995</ele>
        <time>2026-08-29T13:06:39Z</time>
      </trkpt>
      <trkpt lat="43.96746" lon="1.96695">
        <ele>252.958244</ele>
        <time>2026-08-29T13:06:40Z</time>
      </trkpt>
      <trkpt lat="43.96744" lon="1.96699">
        <ele>252.985053</ele>
        <time>2026-08-29T13:06:41Z</time>
      </trkpt>
      <trkpt lat="43.96741" lon="1.96702">
        <ele>253.013201</ele>
        <time>2026-08-29T13:06:42Z</time>
      </trkpt>
      <trkpt lat="43.96738" lon="1.96705">
        <ele>253.043597</ele>
        <time>2026-08-29T13:06:43Z</time>
      </trkpt>
      <trkpt lat="43.96736" lon="1.96709">
        <ele>253.073575</ele>
        <time>2026-08-29T13:06:44Z</time>
      </trkpt>
      <trkpt lat="43.96733" lon="1.96712">
        <ele>253.102964</ele>
        <time>2026-08-29T13:06:45Z</time>
      </trkpt>
      <trkpt lat="43.96731" lon="1.96716">
        <ele>253.131568</ele>
        <time>2026-08-29T13:06:46Z</time>
      </trkpt>
      <trkpt lat="43.96729" lon="1.9672">
        <ele>253.159263</ele>
        <time>2026-08-29T13:06:47Z</time>
      </trkpt>
      <trkpt lat="43.96727" lon="1.96723">
        <ele>253.18741</ele>
        <time>2026-08-29T13:06:48Z</time>
      </trkpt>
      <trkpt lat="43.96725" lon="1.96727">
        <ele>253.214045</ele>
        <time>2026-08-29T13:06:49Z</time>
      </trkpt>
      <trkpt lat="43.96723" lon="1.9673">
        <ele>253.239683</ele>
        <time>2026-08-29T13:06:50Z</time>
      </trkpt>
      <trkpt lat="43.96721" lon="1.96734">
        <ele>253.264357</ele>
        <time>2026-08-29T13:06:51Z</time>
      </trkpt>
      <trkpt lat="43.96719" lon="1.96737">
        <ele>253.287635</ele>
        <time>2026-08-29T13:06:52Z</time>
      </trkpt>
      <trkpt lat="43.96718" lon="1.9674">
        <ele>253.311452</ele>
        <time>2026-08-29T13:06:53Z</time>
      </trkpt>
      <trkpt lat="43.96716" lon="1.96743">
        <ele>253.336176</ele>
        <time>2026-08-29T13:06:54Z</time>
      </trkpt>
      <trkpt lat="43.96714" lon="1.96746">
        <ele>253.361118</ele>
        <time>2026-08-29T13:06:55Z</time>
      </trkpt>
      <trkpt lat="43.96712" lon="1.96749">
        <ele>253.385386</ele>
        <time>2026-08-29T13:06:56Z</time>
      </trkpt>
      <trkpt lat="43.9671" lon="1.96752">
        <ele>253.410198</ele>
        <time>2026-08-29T13:06:57Z</time>
      </trkpt>
      <trkpt lat="43.96707" lon="1.96755">
        <ele>253.435132</ele>
        <time>2026-08-29T13:06:58Z</time>
      </trkpt>
      <trkpt lat="43.96705" lon="1.96757">
        <ele>253.459049</ele>
        <time>2026-08-29T13:06:59Z</time>
      </trkpt>
      <trkpt lat="43.96703" lon="1.9676">
        <ele>253.481848</ele>
        <time>2026-08-29T13:07:00Z</time>
      </trkpt>
      <trkpt lat="43.96701" lon="1.96762">
        <ele>253.503517</ele>
        <time>2026-08-29T13:07:01Z</time>
      </trkpt>
      <trkpt lat="43.96699" lon="1.96765">
        <ele>253.524593</ele>
        <time>2026-08-29T13:07:02Z</time>
      </trkpt>
      <trkpt lat="43.96698" lon="1.96767">
        <ele>253.54409</ele>
        <time>2026-08-29T13:07:03Z</time>
      </trkpt>
      <trkpt lat="43.96696" lon="1.96769">
        <ele>253.564159</ele>
        <time>2026-08-29T13:07:04Z</time>
      </trkpt>
      <trkpt lat="43.96694" lon="1.96772">
        <ele>253.584098</ele>
        <time>2026-08-29T13:07:05Z</time>
      </trkpt>
      <trkpt lat="43.96692" lon="1.96775">
        <ele>253.607471</ele>
        <time>2026-08-29T13:07:06Z</time>
      </trkpt>
      <trkpt lat="43.9669" lon="1.96778">
        <ele>253.569722</ele>
        <time>2026-08-29T13:07:07Z</time>
      </trkpt>
      <trkpt lat="43.96689" lon="1.9678">
        <ele>253.502545</ele>
        <time>2026-08-29T13:07:08Z</time>
      </trkpt>
      <trkpt lat="43.96687" lon="1.96783">
        <ele>253.432496</ele>
        <time>2026-08-29T13:07:09Z</time>
      </trkpt>
      <trkpt lat="43.96684" lon="1.96786">
        <ele>253.364399</ele>
        <time>2026-08-29T13:07:10Z</time>
      </trkpt>
      <trkpt lat="43.96682" lon="1.96789">
        <ele>253.294896</ele>
        <time>2026-08-29T13:07:11Z</time>
      </trkpt>
      <trkpt lat="43.9668" lon="1.96792">
        <ele>253.21806</ele>
        <time>2026-08-29T13:07:12Z</time>
      </trkpt>
      <trkpt lat="43.96677" lon="1.96795">
        <ele>253.136482</ele>
        <time>2026-08-29T13:07:13Z</time>
      </trkpt>
      <trkpt lat="43.96675" lon="1.96799">
        <ele>253.052733</ele>
        <time>2026-08-29T13:07:14Z</time>
      </trkpt>
      <trkpt lat="43.96673" lon="1.96803">
        <ele>252.964835</ele>
        <time>2026-08-29T13:07:15Z</time>
      </trkpt>
      <trkpt lat="43.9667" lon="1.96807">
        <ele>252.871623</ele>
        <time>2026-08-29T13:07:16Z</time>
      </trkpt>
      <trkpt lat="43.96668" lon="1.96811">
        <ele>252.776725</ele>
        <time>2026-08-29T13:07:17Z</time>
      </trkpt>
      <trkpt lat="43.96665" lon="1.96816">
        <ele>252.676116</ele>
        <time>2026-08-29T13:07:18Z</time>
      </trkpt>
      <trkpt lat="43.96662" lon="1.9682">
        <ele>252.577155</ele>
        <time>2026-08-29T13:07:19Z</time>
      </trkpt>
      <trkpt lat="43.96659" lon="1.96823">
        <ele>252.485186</ele>
        <time>2026-08-29T13:07:20Z</time>
      </trkpt>
      <trkpt lat="43.96656" lon="1.96827">
        <ele>252.388367</ele>
        <time>2026-08-29T13:07:21Z</time>
      </trkpt>
      <trkpt lat="43.96654" lon="1.96831">
        <ele>252.29567</ele>
        <time>2026-08-29T13:07:22Z</time>
      </trkpt>
      <trkpt lat="43.96651" lon="1.96835">
        <ele>252.200474</ele>
        <time>2026-08-29T13:07:23Z</time>
      </trkpt>
      <trkpt lat="43.96648" lon="1.9684">
        <ele>252.104007</ele>
        <time>2026-08-29T13:07:24Z</time>
      </trkpt>
      <trkpt lat="43.96646" lon="1.96844">
        <ele>252.007803</ele>
        <time>2026-08-29T13:07:25Z</time>
      </trkpt>
      <trkpt lat="43.96643" lon="1.96849">
        <ele>251.900627</ele>
        <time>2026-08-29T13:07:26Z</time>
      </trkpt>
      <trkpt lat="43.9664" lon="1.96854">
        <ele>251.794915</ele>
        <time>2026-08-29T13:07:27Z</time>
      </trkpt>
      <trkpt lat="43.96638" lon="1.96859">
        <ele>251.688898</ele>
        <time>2026-08-29T13:07:28Z</time>
      </trkpt>
      <trkpt lat="43.96636" lon="1.96865">
        <ele>251.582845</ele>
        <time>2026-08-29T13:07:29Z</time>
      </trkpt>
      <trkpt lat="43.96634" lon="1.9687">
        <ele>251.478037</ele>
        <time>2026-08-29T13:07:30Z</time>
      </trkpt>
      <trkpt lat="43.96632" lon="1.96875">
        <ele>251.371384</ele>
        <time>2026-08-29T13:07:31Z</time>
      </trkpt>
      <trkpt lat="43.9663" lon="1.96881">
        <ele>251.259667</ele>
        <time>2026-08-29T13:07:32Z</time>
      </trkpt>
      <trkpt lat="43.96627" lon="1.96887">
        <ele>251.152179</ele>
        <time>2026-08-29T13:07:33Z</time>
      </trkpt>
      <trkpt lat="43.96625" lon="1.96892">
        <ele>251.043461</ele>
        <time>2026-08-29T13:07:34Z</time>
      </trkpt>
      <trkpt lat="43.96622" lon="1.96897">
        <ele>250.943348</ele>
        <time>2026-08-29T13:07:35Z</time>
      </trkpt>
      <trkpt lat="43.9662" lon="1.96902">
        <ele>250.848338</ele>
        <time>2026-08-29T13:07:36Z</time>
      </trkpt>
      <trkpt lat="43.96618" lon="1.96906">
        <ele>250.749557</ele>
        <time>2026-08-29T13:07:37Z</time>
      </trkpt>
      <trkpt lat="43.96616" lon="1.96911">
        <ele>250.646668</ele>
        <time>2026-08-29T13:07:38Z</time>
      </trkpt>
      <trkpt lat="43.96613" lon="1.96916">
        <ele>250.547951</ele>
        <time>2026-08-29T13:07:39Z</time>
      </trkpt>
      <trkpt lat="43.9661" lon="1.96921">
        <ele>250.439279</ele>
        <time>2026-08-29T13:07:40Z</time>
      </trkpt>
      <trkpt lat="43.96607" lon="1.96925">
        <ele>250.336078</ele>
        <time>2026-08-29T13:07:41Z</time>
      </trkpt>
      <trkpt lat="43.96605" lon="1.9693">
        <ele>250.236376</ele>
        <time>2026-08-29T13:07:42Z</time>
      </trkpt>
      <trkpt lat="43.96602" lon="1.96933">
        <ele>250.143818</ele>
        <time>2026-08-29T13:07:43Z</time>
      </trkpt>
      <trkpt lat="43.96598" lon="1.96937">
        <ele>250.046888</ele>
        <time>2026-08-29T13:07:44Z</time>
      </trkpt>
      <trkpt lat="43.96595" lon="1.9694">
        <ele>249.956871</ele>
        <time>2026-08-29T13:07:45Z</time>
      </trkpt>
      <trkpt lat="43.96592" lon="1.96944">
        <ele>249.861396</ele>
        <time>2026-08-29T13:07:46Z</time>
      </trkpt>
      <trkpt lat="43.96589" lon="1.96948">
        <ele>249.763613</ele>
        <time>2026-08-29T13:07:47Z</time>
      </trkpt>
      <trkpt lat="43.96587" lon="1.96951">
        <ele>249.669905</ele>
        <time>2026-08-29T13:07:48Z</time>
      </trkpt>
      <trkpt lat="43.96584" lon="1.96955">
        <ele>249.580262</ele>
        <time>2026-08-29T13:07:49Z</time>
      </trkpt>
      <trkpt lat="43.96581" lon="1.96958">
        <ele>249.495282</ele>
        <time>2026-08-29T13:07:50Z</time>
      </trkpt>
      <trkpt lat="43.96579" lon="1.96962">
        <ele>249.410302</ele>
        <time>2026-08-29T13:07:51Z</time>
      </trkpt>
      <trkpt lat="43.96576" lon="1.96965">
        <ele>249.307291</ele>
        <time>2026-08-29T13:07:52Z</time>
      </trkpt>
      <trkpt lat="43.96573" lon="1.96969">
        <ele>249.120841</ele>
        <time>2026-08-29T13:07:53Z</time>
      </trkpt>
      <trkpt lat="43.9657" lon="1.96972">
        <ele>248.936859</ele>
        <time>2026-08-29T13:07:54Z</time>
      </trkpt>
      <trkpt lat="43.96568" lon="1.96976">
        <ele>248.745374</ele>
        <time>2026-08-29T13:07:55Z</time>
      </trkpt>
      <trkpt lat="43.96565" lon="1.9698">
        <ele>248.564907</ele>
        <time>2026-08-29T13:07:56Z</time>
      </trkpt>
      <trkpt lat="43.96562" lon="1.96984">
        <ele>248.380925</ele>
        <time>2026-08-29T13:07:57Z</time>
      </trkpt>
      <trkpt lat="43.9656" lon="1.96987">
        <ele>248.207788</ele>
        <time>2026-08-29T13:07:58Z</time>
      </trkpt>
      <trkpt lat="43.96557" lon="1.9699">
        <ele>248.01893</ele>
        <time>2026-08-29T13:07:59Z</time>
      </trkpt>
      <trkpt lat="43.96554" lon="1.96994">
        <ele>247.822945</ele>
        <time>2026-08-29T13:08:00Z</time>
      </trkpt>
      <trkpt lat="43.96551" lon="1.96998">
        <ele>247.636495</ele>
        <time>2026-08-29T13:08:01Z</time>
      </trkpt>
      <trkpt lat="43.96549" lon="1.97002">
        <ele>247.447544</ele>
        <time>2026-08-29T13:08:02Z</time>
      </trkpt>
      <trkpt lat="43.96546" lon="1.97005">
        <ele>247.252652</ele>
        <time>2026-08-29T13:08:03Z</time>
      </trkpt>
      <trkpt lat="43.96543" lon="1.97009">
        <ele>247.06867</ele>
        <time>2026-08-29T13:08:04Z</time>
      </trkpt>
      <trkpt lat="43.9654" lon="1.97013">
        <ele>246.883139</ele>
        <time>2026-08-29T13:08:05Z</time>
      </trkpt>
      <trkpt lat="43.96538" lon="1.97017">
        <ele>246.689087</ele>
        <time>2026-08-29T13:08:06Z</time>
      </trkpt>
      <trkpt lat="43.96535" lon="1.97021">
        <ele>246.483133</ele>
        <time>2026-08-29T13:08:07Z</time>
      </trkpt>
      <trkpt lat="43.96532" lon="1.97025">
        <ele>246.270253</ele>
        <time>2026-08-29T13:08:08Z</time>
      </trkpt>
      <trkpt lat="43.96529" lon="1.9703">
        <ele>246.047261</ele>
        <time>2026-08-29T13:08:09Z</time>
      </trkpt>
      <trkpt lat="43.96526" lon="1.97034">
        <ele>245.828196</ele>
        <time>2026-08-29T13:08:10Z</time>
      </trkpt>
      <trkpt lat="43.96522" lon="1.97039">
        <ele>245.594065</ele>
        <time>2026-08-29T13:08:11Z</time>
      </trkpt>
      <trkpt lat="43.96519" lon="1.97044">
        <ele>245.36321</ele>
        <time>2026-08-29T13:08:12Z</time>
      </trkpt>
      <trkpt lat="43.96517" lon="1.97049">
        <ele>245.136229</ele>
        <time>2026-08-29T13:08:13Z</time>
      </trkpt>
      <trkpt lat="43.96514" lon="1.97054">
        <ele>244.908998</ele>
        <time>2026-08-29T13:08:14Z</time>
      </trkpt>
      <trkpt lat="43.96511" lon="1.97059">
        <ele>244.682104</ele>
        <time>2026-08-29T13:08:15Z</time>
      </trkpt>
      <trkpt lat="43.96508" lon="1.97065">
        <ele>244.452299</ele>
        <time>2026-08-29T13:08:16Z</time>
      </trkpt>
      <trkpt lat="43.96505" lon="1.9707">
        <ele>244.219629</ele>
        <time>2026-08-29T13:08:17Z</time>
      </trkpt>
      <trkpt lat="43.96503" lon="1.97075">
        <ele>243.989855</ele>
        <time>2026-08-29T13:08:18Z</time>
      </trkpt>
      <trkpt lat="43.965" lon="1.97081">
        <ele>243.760082</ele>
        <time>2026-08-29T13:08:19Z</time>
      </trkpt>
      <trkpt lat="43.96497" lon="1.97086">
        <ele>243.538888</ele>
        <time>2026-08-29T13:08:20Z</time>
      </trkpt>
      <trkpt lat="43.96495" lon="1.97091">
        <ele>243.320515</ele>
        <time>2026-08-29T13:08:21Z</time>
      </trkpt>
      <trkpt lat="43.96492" lon="1.97095">
        <ele>243.105095</ele>
        <time>2026-08-29T13:08:22Z</time>
      </trkpt>
      <trkpt lat="43.96489" lon="1.97101">
        <ele>242.872019</ele>
        <time>2026-08-29T13:08:23Z</time>
      </trkpt>
      <trkpt lat="43.96486" lon="1.97106">
        <ele>242.638942</ele>
        <time>2026-08-29T13:08:24Z</time>
      </trkpt>
      <trkpt lat="43.96483" lon="1.97111">
        <ele>242.399522</ele>
        <time>2026-08-29T13:08:25Z</time>
      </trkpt>
      <trkpt lat="43.9648" lon="1.97116">
        <ele>242.166445</ele>
        <time>2026-08-29T13:08:26Z</time>
      </trkpt>
      <trkpt lat="43.96477" lon="1.97121">
        <ele>241.93924</ele>
        <time>2026-08-29T13:08:27Z</time>
      </trkpt>
      <trkpt lat="43.96475" lon="1.97126">
        <ele>241.720961</ele>
        <time>2026-08-29T13:08:28Z</time>
      </trkpt>
      <trkpt lat="43.96472" lon="1.97131">
        <ele>241.519914</ele>
        <time>2026-08-29T13:08:29Z</time>
      </trkpt>
      <trkpt lat="43.9647" lon="1.97134">
        <ele>241.346271</ele>
        <time>2026-08-29T13:08:30Z</time>
      </trkpt>
      <trkpt lat="43.96467" lon="1.97137">
        <ele>241.192739</ele>
        <time>2026-08-29T13:08:31Z</time>
      </trkpt>
      <trkpt lat="43.96465" lon="1.97139">
        <ele>241.045199</ele>
        <time>2026-08-29T13:08:32Z</time>
      </trkpt>
      <trkpt lat="43.96462" lon="1.97139">
        <ele>240.906407</ele>
        <time>2026-08-29T13:08:33Z</time>
      </trkpt>
      <trkpt lat="43.96459" lon="1.97138">
        <ele>240.776201</ele>
        <time>2026-08-29T13:08:34Z</time>
      </trkpt>
      <trkpt lat="43.96457" lon="1.97138">
        <ele>240.645996</ele>
        <time>2026-08-29T13:08:35Z</time>
      </trkpt>
      <trkpt lat="43.96454" lon="1.97136">
        <ele>240.486977</ele>
        <time>2026-08-29T13:08:36Z</time>
      </trkpt>
      <trkpt lat="43.9645" lon="1.97134">
        <ele>240.254282</ele>
        <time>2026-08-29T13:08:37Z</time>
      </trkpt>
      <trkpt lat="43.96447" lon="1.97132">
        <ele>240.013832</ele>
        <time>2026-08-29T13:08:38Z</time>
      </trkpt>
      <trkpt lat="43.96443" lon="1.97129">
        <ele>239.750066</ele>
        <time>2026-08-29T13:08:39Z</time>
      </trkpt>
      <trkpt lat="43.96439" lon="1.97127">
        <ele>239.476443</ele>
        <time>2026-08-29T13:08:40Z</time>
      </trkpt>
      <trkpt lat="43.96435" lon="1.97124">
        <ele>239.175799</ele>
        <time>2026-08-29T13:08:41Z</time>
      </trkpt>
      <trkpt lat="43.96431" lon="1.97121">
        <ele>238.877148</ele>
        <time>2026-08-29T13:08:42Z</time>
      </trkpt>
      <trkpt lat="43.96427" lon="1.97118">
        <ele>238.57439</ele>
        <time>2026-08-29T13:08:43Z</time>
      </trkpt>
      <trkpt lat="43.96422" lon="1.97115">
        <ele>238.252384</ele>
        <time>2026-08-29T13:08:44Z</time>
      </trkpt>
      <trkpt lat="43.96418" lon="1.97112">
        <ele>237.916837</ele>
        <time>2026-08-29T13:08:45Z</time>
      </trkpt>
      <trkpt lat="43.96413" lon="1.97109">
        <ele>237.577492</ele>
        <time>2026-08-29T13:08:46Z</time>
      </trkpt>
      <trkpt lat="43.96408" lon="1.97106">
        <ele>237.238147</ele>
        <time>2026-08-29T13:08:47Z</time>
      </trkpt>
      <trkpt lat="43.96403" lon="1.97102">
        <ele>236.9026</ele>
        <time>2026-08-29T13:08:48Z</time>
      </trkpt>
      <trkpt lat="43.96399" lon="1.97099">
        <ele>236.56289</ele>
        <time>2026-08-29T13:08:49Z</time>
      </trkpt>
      <trkpt lat="43.96394" lon="1.97096">
        <ele>236.211758</ele>
        <time>2026-08-29T13:08:50Z</time>
      </trkpt>
      <trkpt lat="43.96389" lon="1.97092">
        <ele>235.852826</ele>
        <time>2026-08-29T13:08:51Z</time>
      </trkpt>
      <trkpt lat="43.96384" lon="1.97088">
        <ele>235.491598</ele>
        <time>2026-08-29T13:08:52Z</time>
      </trkpt>
      <trkpt lat="43.96379" lon="1.97084">
        <ele>235.120047</ele>
        <time>2026-08-29T13:08:53Z</time>
      </trkpt>
      <trkpt lat="43.96374" lon="1.9708">
        <ele>234.745469</ele>
        <time>2026-08-29T13:08:54Z</time>
      </trkpt>
      <trkpt lat="43.96369" lon="1.97075">
        <ele>234.367722</ele>
        <time>2026-08-29T13:08:55Z</time>
      </trkpt>
      <trkpt lat="43.96364" lon="1.97071">
        <ele>233.990736</ele>
        <time>2026-08-29T13:08:56Z</time>
      </trkpt>
      <trkpt lat="43.96359" lon="1.97067">
        <ele>233.619507</ele>
        <time>2026-08-29T13:08:57Z</time>
      </trkpt>
      <trkpt lat="43.96354" lon="1.97062">
        <ele>233.256159</ele>
        <time>2026-08-29T13:08:58Z</time>
      </trkpt>
      <trkpt lat="43.9635" lon="1.97057">
        <ele>232.877955</ele>
        <time>2026-08-29T13:08:59Z</time>
      </trkpt>
      <trkpt lat="43.96345" lon="1.97051">
        <ele>232.4828</ele>
        <time>2026-08-29T13:09:00Z</time>
      </trkpt>
      <trkpt lat="43.96341" lon="1.97045">
        <ele>232.093958</ele>
        <time>2026-08-29T13:09:01Z</time>
      </trkpt>
      <trkpt lat="43.96337" lon="1.9704">
        <ele>231.717554</ele>
        <time>2026-08-29T13:09:02Z</time>
      </trkpt>
      <trkpt lat="43.96333" lon="1.97034">
        <ele>231.366362</ele>
        <time>2026-08-29T13:09:03Z</time>
      </trkpt>
      <trkpt lat="43.96329" lon="1.97029">
        <ele>231.035301</ele>
        <time>2026-08-29T13:09:04Z</time>
      </trkpt>
      <trkpt lat="43.96326" lon="1.97023">
        <ele>230.701968</ele>
        <time>2026-08-29T13:09:05Z</time>
      </trkpt>
      <trkpt lat="43.96323" lon="1.97016">
        <ele>230.297389</ele>
        <time>2026-08-29T13:09:06Z</time>
      </trkpt>
      <trkpt lat="43.96319" lon="1.97009">
        <ele>229.896176</ele>
        <time>2026-08-29T13:09:07Z</time>
      </trkpt>
      <trkpt lat="43.96314" lon="1.97003">
        <ele>229.496531</ele>
        <time>2026-08-29T13:09:08Z</time>
      </trkpt>
      <trkpt lat="43.9631" lon="1.96996">
        <ele>229.065287</ele>
        <time>2026-08-29T13:09:09Z</time>
      </trkpt>
      <trkpt lat="43.96306" lon="1.96988">
        <ele>228.744358</ele>
        <time>2026-08-29T13:09:10Z</time>
      </trkpt>
      <trkpt lat="43.96302" lon="1.96982">
        <ele>228.478403</ele>
        <time>2026-08-29T13:09:11Z</time>
      </trkpt>
      <trkpt lat="43.96298" lon="1.96975">
        <ele>228.231923</ele>
        <time>2026-08-29T13:09:12Z</time>
      </trkpt>
      <trkpt lat="43.96295" lon="1.9697">
        <ele>228.004137</ele>
        <time>2026-08-29T13:09:13Z</time>
      </trkpt>
      <trkpt lat="43.96291" lon="1.96964">
        <ele>227.766064</ele>
        <time>2026-08-29T13:09:14Z</time>
      </trkpt>
      <trkpt lat="43.96287" lon="1.96959">
        <ele>227.531437</ele>
        <time>2026-08-29T13:09:15Z</time>
      </trkpt>
      <trkpt lat="43.96283" lon="1.96953">
        <ele>227.2742</ele>
        <time>2026-08-29T13:09:16Z</time>
      </trkpt>
      <trkpt lat="43.96278" lon="1.96947">
        <ele>227.016963</ele>
        <time>2026-08-29T13:09:17Z</time>
      </trkpt>
      <trkpt lat="43.96274" lon="1.96941">
        <ele>226.75641</ele>
        <time>2026-08-29T13:09:18Z</time>
      </trkpt>
      <trkpt lat="43.96269" lon="1.96936">
        <ele>226.498041</ele>
        <time>2026-08-29T13:09:19Z</time>
      </trkpt>
      <trkpt lat="43.96264" lon="1.96931">
        <ele>226.240065</ele>
        <time>2026-08-29T13:09:20Z</time>
      </trkpt>
      <trkpt lat="43.96259" lon="1.96926">
        <ele>225.97686</ele>
        <time>2026-08-29T13:09:21Z</time>
      </trkpt>
      <trkpt lat="43.96253" lon="1.96921">
        <ele>225.700716</ele>
        <time>2026-08-29T13:09:22Z</time>
      </trkpt>
      <trkpt lat="43.96248" lon="1.96917">
        <ele>225.416477</ele>
        <time>2026-08-29T13:09:23Z</time>
      </trkpt>
      <trkpt lat="43.96242" lon="1.96912">
        <ele>225.12779</ele>
        <time>2026-08-29T13:09:24Z</time>
      </trkpt>
      <trkpt lat="43.96236" lon="1.96908">
        <ele>224.84061</ele>
        <time>2026-08-29T13:09:25Z</time>
      </trkpt>
      <trkpt lat="43.9623" lon="1.96903">
        <ele>224.567524</ele>
        <time>2026-08-29T13:09:26Z</time>
      </trkpt>
      <trkpt lat="43.96225" lon="1.96899">
        <ele>224.31373</ele>
        <time>2026-08-29T13:09:27Z</time>
      </trkpt>
      <trkpt lat="43.9622" lon="1.96896">
        <ele>224.093312</ele>
        <time>2026-08-29T13:09:28Z</time>
      </trkpt>
      <trkpt lat="43.96216" lon="1.96892">
        <ele>223.897385</ele>
        <time>2026-08-29T13:09:29Z</time>
      </trkpt>
      <trkpt lat="43.96213" lon="1.96891">
        <ele>223.750843</ele>
        <time>2026-08-29T13:09:30Z</time>
      </trkpt>
      <trkpt lat="43.96211" lon="1.9689">
        <ele>223.648546</ele>
        <time>2026-08-29T13:09:31Z</time>
      </trkpt>
      <trkpt lat="43.96209" lon="1.9689">
        <ele>223.584802</ele>
        <time>2026-08-29T13:09:32Z</time>
      </trkpt>
      <trkpt lat="43.96209" lon="1.9689">
        <ele>223.562716</ele>
        <time>2026-08-29T13:09:33Z</time>
      </trkpt>
      <trkpt lat="43.96209" lon="1.96889">
        <ele>223.530345</ele>
        <time>2026-08-29T13:09:34Z</time>
      </trkpt>
      <trkpt lat="43.9621" lon="1.96889">
        <ele>223.514655</ele>
        <time>2026-08-29T13:09:35Z</time>
      </trkpt>
      <trkpt lat="43.96204" lon="1.96891">
        <ele>223.260058</ele>
        <time>2026-08-29T13:09:51Z</time>
      </trkpt>
      <trkpt lat="43.96203" lon="1.96894">
        <ele>223.153667</ele>
        <time>2026-08-29T13:09:52Z</time>
      </trkpt>
      <trkpt lat="43.96204" lon="1.96897">
        <ele>223.039774</ele>
        <time>2026-08-29T13:09:53Z</time>
      </trkpt>
      <trkpt lat="43.96206" lon="1.96901">
        <ele>222.90083</ele>
        <time>2026-08-29T13:09:54Z</time>
      </trkpt>
      <trkpt lat="43.96208" lon="1.96904">
        <ele>222.774345</ele>
        <time>2026-08-29T13:09:55Z</time>
      </trkpt>
      <trkpt lat="43.96209" lon="1.96908">
        <ele>222.64303</ele>
        <time>2026-08-29T13:09:56Z</time>
      </trkpt>
      <trkpt lat="43.9621" lon="1.96912">
        <ele>222.529138</ele>
        <time>2026-08-29T13:09:57Z</time>
      </trkpt>
      <trkpt lat="43.96212" lon="1.96915">
        <ele>222.417533</ele>
        <time>2026-08-29T13:09:58Z</time>
      </trkpt>
      <trkpt lat="43.96213" lon="1.96917">
        <ele>222.320809</ele>
        <time>2026-08-29T13:09:59Z</time>
      </trkpt>
      <trkpt lat="43.96214" lon="1.9692">
        <ele>222.217017</ele>
        <time>2026-08-29T13:10:00Z</time>
      </trkpt>
      <trkpt lat="43.96215" lon="1.96923">
        <ele>222.122651</ele>
        <time>2026-08-29T13:10:01Z</time>
      </trkpt>
      <trkpt lat="43.96217" lon="1.96926">
        <ele>222.013412</ele>
        <time>2026-08-29T13:10:02Z</time>
      </trkpt>
      <trkpt lat="43.96218" lon="1.9693">
        <ele>221.888393</ele>
        <time>2026-08-29T13:10:03Z</time>
      </trkpt>
      <trkpt lat="43.96219" lon="1.96933">
        <ele>221.773979</ele>
        <time>2026-08-29T13:10:04Z</time>
      </trkpt>
      <trkpt lat="43.96221" lon="1.96936">
        <ele>221.664362</ele>
        <time>2026-08-29T13:10:05Z</time>
      </trkpt>
      <trkpt lat="43.96222" lon="1.96939">
        <ele>221.549423</ele>
        <time>2026-08-29T13:10:06Z</time>
      </trkpt>
      <trkpt lat="43.96223" lon="1.96942">
        <ele>221.440185</ele>
        <time>2026-08-29T13:10:07Z</time>
      </trkpt>
      <trkpt lat="43.96225" lon="1.96946">
        <ele>221.329073</ele>
        <time>2026-08-29T13:10:08Z</time>
      </trkpt>
      <trkpt lat="43.96226" lon="1.96949">
        <ele>221.430013</ele>
        <time>2026-08-29T13:10:09Z</time>
      </trkpt>
      <trkpt lat="43.96227" lon="1.96952">
        <ele>221.526446</ele>
        <time>2026-08-29T13:10:10Z</time>
      </trkpt>
      <trkpt lat="43.96228" lon="1.96954">
        <ele>221.623851</ele>
        <time>2026-08-29T13:10:11Z</time>
      </trkpt>
      <trkpt lat="43.96229" lon="1.96957">
        <ele>221.713323</ele>
        <time>2026-08-29T13:10:12Z</time>
      </trkpt>
      <trkpt lat="43.9623" lon="1.96959">
        <ele>221.803339</ele>
        <time>2026-08-29T13:10:13Z</time>
      </trkpt>
      <trkpt lat="43.96231" lon="1.96962">
        <ele>221.897514</ele>
        <time>2026-08-29T13:10:14Z</time>
      </trkpt>
      <trkpt lat="43.96233" lon="1.96964">
        <ele>221.997403</ele>
        <time>2026-08-29T13:10:15Z</time>
      </trkpt>
      <trkpt lat="43.96234" lon="1.96967">
        <ele>222.089121</ele>
        <time>2026-08-29T13:10:16Z</time>
      </trkpt>
      <trkpt lat="43.96235" lon="1.96969">
        <ele>222.178788</ele>
        <time>2026-08-29T13:10:17Z</time>
      </trkpt>
      <trkpt lat="43.96237" lon="1.96971">
        <ele>222.26802</ele>
        <time>2026-08-29T13:10:18Z</time>
      </trkpt>
      <trkpt lat="43.96238" lon="1.96974">
        <ele>222.367527</ele>
        <time>2026-08-29T13:10:19Z</time>
      </trkpt>
      <trkpt lat="43.96239" lon="1.96977">
        <ele>222.46967</ele>
        <time>2026-08-29T13:10:20Z</time>
      </trkpt>
      <trkpt lat="43.9624" lon="1.9698">
        <ele>222.566103</ele>
        <time>2026-08-29T13:10:21Z</time>
      </trkpt>
      <trkpt lat="43.96241" lon="1.96982">
        <ele>222.655334</ele>
        <time>2026-08-29T13:10:22Z</time>
      </trkpt>
      <trkpt lat="43.96243" lon="1.96985">
        <ele>222.754716</ele>
        <time>2026-08-29T13:10:23Z</time>
      </trkpt>
      <trkpt lat="43.96244" lon="1.96987">
        <ele>222.853865</ele>
        <time>2026-08-29T13:10:24Z</time>
      </trkpt>
      <trkpt lat="43.96245" lon="1.9699">
        <ele>222.96049</ele>
        <time>2026-08-29T13:10:25Z</time>
      </trkpt>
      <trkpt lat="43.96247" lon="1.96993">
        <ele>223.0621</ele>
        <time>2026-08-29T13:10:26Z</time>
      </trkpt>
      <trkpt lat="43.96248" lon="1.96996">
        <ele>223.156411</ele>
        <time>2026-08-29T13:10:27Z</time>
      </trkpt>
      <trkpt lat="43.96249" lon="1.96998">
        <ele>223.243745</ele>
        <time>2026-08-29T13:10:28Z</time>
      </trkpt>
      <trkpt lat="43.9625" lon="1.97001">
        <ele>223.343252</ele>
        <time>2026-08-29T13:10:29Z</time>
      </trkpt>
      <trkpt lat="43.96251" lon="1.97004">
        <ele>223.435972</ele>
        <time>2026-08-29T13:10:30Z</time>
      </trkpt>
      <trkpt lat="43.96252" lon="1.97006">
        <ele>223.533377</ele>
        <time>2026-08-29T13:10:31Z</time>
      </trkpt>
      <trkpt lat="43.96253" lon="1.97009">
        <ele>223.630782</ele>
        <time>2026-08-29T13:10:32Z</time>
      </trkpt>
      <trkpt lat="43.96254" lon="1.97012">
        <ele>223.731341</ele>
        <time>2026-08-29T13:10:33Z</time>
      </trkpt>
      <trkpt lat="43.96255" lon="1.97015">
        <ele>223.834148</ele>
        <time>2026-08-29T13:10:34Z</time>
      </trkpt>
      <trkpt lat="43.96256" lon="1.97018">
        <ele>223.931553</ele>
        <time>2026-08-29T13:10:35Z</time>
      </trkpt>
      <trkpt lat="43.96257" lon="1.97021">
        <ele>224.029743</ele>
        <time>2026-08-29T13:10:36Z</time>
      </trkpt>
      <trkpt lat="43.96259" lon="1.97024">
        <ele>224.124479</ele>
        <time>2026-08-29T13:10:37Z</time>
      </trkpt>
      <trkpt lat="43.9626" lon="1.97027">
        <ele>224.229279</ele>
        <time>2026-08-29T13:10:38Z</time>
      </trkpt>
      <trkpt lat="43.96261" lon="1.9703">
        <ele>224.333601</ele>
        <time>2026-08-29T13:10:39Z</time>
      </trkpt>
      <trkpt lat="43.96262" lon="1.97033">
        <ele>224.450568</ele>
        <time>2026-08-29T13:10:40Z</time>
      </trkpt>
      <trkpt lat="43.96264" lon="1.97036">
        <ele>224.572835</ele>
        <time>2026-08-29T13:10:41Z</time>
      </trkpt>
      <trkpt lat="43.96265" lon="1.9704">
        <ele>224.695821</ele>
        <time>2026-08-29T13:10:42Z</time>
      </trkpt>
      <trkpt lat="43.96267" lon="1.97043">
        <ele>224.815428</ele>
        <time>2026-08-29T13:10:43Z</time>
      </trkpt>
      <trkpt lat="43.96268" lon="1.97047">
        <ele>224.932987</ele>
        <time>2026-08-29T13:10:44Z</time>
      </trkpt>
      <trkpt lat="43.96269" lon="1.9705">
        <ele>225.040467</ele>
        <time>2026-08-29T13:10:45Z</time>
      </trkpt>
      <trkpt lat="43.9627" lon="1.97053">
        <ele>225.137134</ele>
        <time>2026-08-29T13:10:46Z</time>
      </trkpt>
      <trkpt lat="43.96272" lon="1.97055">
        <ele>225.231445</ele>
        <time>2026-08-29T13:10:47Z</time>
      </trkpt>
      <trkpt lat="43.96273" lon="1.97058">
        <ele>225.318325</ele>
        <time>2026-08-29T13:10:48Z</time>
      </trkpt>
      <trkpt lat="43.96274" lon="1.9706">
        <ele>225.405659</ele>
        <time>2026-08-29T13:10:49Z</time>
      </trkpt>
      <trkpt lat="43.96275" lon="1.97062">
        <ele>225.489946</ele>
        <time>2026-08-29T13:10:50Z</time>
      </trkpt>
      <trkpt lat="43.96276" lon="1.97065">
        <ele>225.579177</ele>
        <time>2026-08-29T13:10:51Z</time>
      </trkpt>
      <trkpt lat="43.96277" lon="1.97067">
        <ele>225.675898</ele>
        <time>2026-08-29T13:10:52Z</time>
      </trkpt>
      <trkpt lat="43.96279" lon="1.9707">
        <ele>225.775046</ele>
        <time>2026-08-29T13:10:53Z</time>
      </trkpt>
      <trkpt lat="43.9628" lon="1.97072">
        <ele>225.869375</ele>
        <time>2026-08-29T13:10:54Z</time>
      </trkpt>
      <trkpt lat="43.96282" lon="1.97075">
        <ele>225.973478</ele>
        <time>2026-08-29T13:10:55Z</time>
      </trkpt>
      <trkpt lat="43.96283" lon="1.97078">
        <ele>226.080958</ele>
        <time>2026-08-29T13:10:56Z</time>
      </trkpt>
      <trkpt lat="43.96284" lon="1.97081">
        <ele>226.187582</ele>
        <time>2026-08-29T13:10:57Z</time>
      </trkpt>
      <trkpt lat="43.96285" lon="1.97084">
        <ele>226.282318</ele>
        <time>2026-08-29T13:10:58Z</time>
      </trkpt>
      <trkpt lat="43.96286" lon="1.97087">
        <ele>226.38327</ele>
        <time>2026-08-29T13:10:59Z</time>
      </trkpt>
      <trkpt lat="43.96287" lon="1.97089">
        <ele>226.469611</ele>
        <time>2026-08-29T13:11:00Z</time>
      </trkpt>
      <trkpt lat="43.96288" lon="1.97092">
        <ele>226.561328</ele>
        <time>2026-08-29T13:11:01Z</time>
      </trkpt>
      <trkpt lat="43.9629" lon="1.97094">
        <ele>226.653418</ele>
        <time>2026-08-29T13:11:02Z</time>
      </trkpt>
      <trkpt lat="43.96291" lon="1.97098">
        <ele>226.767243</ele>
        <time>2026-08-29T13:11:03Z</time>
      </trkpt>
      <trkpt lat="43.96292" lon="1.97101">
        <ele>226.889481</ele>
        <time>2026-08-29T13:11:04Z</time>
      </trkpt>
      <trkpt lat="43.96293" lon="1.97105">
        <ele>227.003306</ele>
        <time>2026-08-29T13:11:05Z</time>
      </trkpt>
      <trkpt lat="43.96294" lon="1.97108">
        <ele>227.117131</ele>
        <time>2026-08-29T13:11:06Z</time>
      </trkpt>
      <trkpt lat="43.96295" lon="1.97111">
        <ele>227.226684</ele>
        <time>2026-08-29T13:11:07Z</time>
      </trkpt>
      <trkpt lat="43.96297" lon="1.97115">
        <ele>227.363756</ele>
        <time>2026-08-29T13:11:08Z</time>
      </trkpt>
      <trkpt lat="43.96299" lon="1.9712">
        <ele>227.518295</ele>
        <time>2026-08-29T13:11:09Z</time>
      </trkpt>
      <trkpt lat="43.963" lon="1.97123">
        <ele>227.650632</ele>
        <time>2026-08-29T13:11:10Z</time>
      </trkpt>
      <trkpt lat="43.96301" lon="1.97126">
        <ele>227.760184</ele>
        <time>2026-08-29T13:11:11Z</time>
      </trkpt>
      <trkpt lat="43.96303" lon="1.97129">
        <ele>227.862326</ele>
        <time>2026-08-29T13:11:12Z</time>
      </trkpt>
      <trkpt lat="43.96304" lon="1.97132">
        <ele>227.963277</ele>
        <time>2026-08-29T13:11:13Z</time>
      </trkpt>
      <trkpt lat="43.96305" lon="1.97135">
        <ele>228.07283</ele>
        <time>2026-08-29T13:11:14Z</time>
      </trkpt>
      <trkpt lat="43.96306" lon="1.97138">
        <ele>228.179755</ele>
        <time>2026-08-29T13:11:15Z</time>
      </trkpt>
      <trkpt lat="43.96308" lon="1.97141">
        <ele>228.281501</ele>
        <time>2026-08-29T13:11:16Z</time>
      </trkpt>
      <trkpt lat="43.96309" lon="1.97144">
        <ele>228.381007</ele>
        <time>2026-08-29T13:11:17Z</time>
      </trkpt>
      <trkpt lat="43.9631" lon="1.97147">
        <ele>228.481959</ele>
        <time>2026-08-29T13:11:18Z</time>
      </trkpt>
      <trkpt lat="43.96311" lon="1.9715">
        <ele>228.585397</ele>
        <time>2026-08-29T13:11:19Z</time>
      </trkpt>
      <trkpt lat="43.96312" lon="1.97154">
        <ele>228.701765</ele>
        <time>2026-08-29T13:11:20Z</time>
      </trkpt>
      <trkpt lat="43.96313" lon="1.97157">
        <ele>228.81559</ele>
        <time>2026-08-29T13:11:21Z</time>
      </trkpt>
      <trkpt lat="43.96314" lon="1.9716">
        <ele>228.925768</ele>
        <time>2026-08-29T13:11:22Z</time>
      </trkpt>
      <trkpt lat="43.96315" lon="1.97163">
        <ele>228.99733</ele>
        <time>2026-08-29T13:11:23Z</time>
      </trkpt>
      <trkpt lat="43.96316" lon="1.97166">
        <ele>229.050906</ele>
        <time>2026-08-29T13:11:24Z</time>
      </trkpt>
      <trkpt lat="43.96317" lon="1.97169">
        <ele>229.10526</ele>
        <time>2026-08-29T13:11:25Z</time>
      </trkpt>
      <trkpt lat="43.96318" lon="1.97172">
        <ele>229.163278</ele>
        <time>2026-08-29T13:11:26Z</time>
      </trkpt>
      <trkpt lat="43.96319" lon="1.97176">
        <ele>229.223068</ele>
        <time>2026-08-29T13:11:27Z</time>
      </trkpt>
      <trkpt lat="43.96321" lon="1.97179">
        <ele>229.282052</ele>
        <time>2026-08-29T13:11:28Z</time>
      </trkpt>
      <trkpt lat="43.96322" lon="1.97182">
        <ele>229.339921</ele>
        <time>2026-08-29T13:11:29Z</time>
      </trkpt>
      <trkpt lat="43.96323" lon="1.97185">
        <ele>229.402898</ele>
        <time>2026-08-29T13:11:30Z</time>
      </trkpt>
      <trkpt lat="43.96325" lon="1.97188">
        <ele>229.461882</ele>
        <time>2026-08-29T13:11:31Z</time>
      </trkpt>
      <trkpt lat="43.96326" lon="1.97192">
        <ele>229.524859</ele>
        <time>2026-08-29T13:11:32Z</time>
      </trkpt>
      <trkpt lat="43.96328" lon="1.97195">
        <ele>229.590422</ele>
        <time>2026-08-29T13:11:33Z</time>
      </trkpt>
      <trkpt lat="43.96329" lon="1.97198">
        <ele>229.655984</ele>
        <time>2026-08-29T13:11:34Z</time>
      </trkpt>
      <trkpt lat="43.96331" lon="1.97201">
        <ele>229.718756</ele>
        <time>2026-08-29T13:11:35Z</time>
      </trkpt>
      <trkpt lat="43.96332" lon="1.97204">
        <ele>229.77881</ele>
        <time>2026-08-29T13:11:36Z</time>
      </trkpt>
      <trkpt lat="43.96334" lon="1.97208">
        <ele>229.843209</ele>
        <time>2026-08-29T13:11:37Z</time>
      </trkpt>
      <trkpt lat="43.96335" lon="1.97211">
        <ele>229.909926</ele>
        <time>2026-08-29T13:11:38Z</time>
      </trkpt>
      <trkpt lat="43.96337" lon="1.97215">
        <ele>229.977198</ele>
        <time>2026-08-29T13:11:39Z</time>
      </trkpt>
      <trkpt lat="43.96339" lon="1.97219">
        <ele>230.053366</ele>
        <time>2026-08-29T13:11:40Z</time>
      </trkpt>
      <trkpt lat="43.9634" lon="1.97223">
        <ele>230.130042</ele>
        <time>2026-08-29T13:11:41Z</time>
      </trkpt>
      <trkpt lat="43.96342" lon="1.97227">
        <ele>230.217235</ele>
        <time>2026-08-29T13:11:42Z</time>
      </trkpt>
      <trkpt lat="43.96344" lon="1.97232">
        <ele>230.302791</ele>
        <time>2026-08-29T13:11:43Z</time>
      </trkpt>
      <trkpt lat="43.96346" lon="1.97236">
        <ele>230.391414</ele>
        <time>2026-08-29T13:11:44Z</time>
      </trkpt>
      <trkpt lat="43.96348" lon="1.97241">
        <ele>230.479364</ele>
        <time>2026-08-29T13:11:45Z</time>
      </trkpt>
      <trkpt lat="43.96349" lon="1.97246">
        <ele>230.568793</ele>
        <time>2026-08-29T13:11:46Z</time>
      </trkpt>
      <trkpt lat="43.96351" lon="1.97251">
        <ele>230.655986</ele>
        <time>2026-08-29T13:11:47Z</time>
      </trkpt>
      <trkpt lat="43.96353" lon="1.97255">
        <ele>230.742465</ele>
        <time>2026-08-29T13:11:48Z</time>
      </trkpt>
      <trkpt lat="43.96355" lon="1.9726">
        <ele>230.82567</ele>
        <time>2026-08-29T13:11:49Z</time>
      </trkpt>
      <trkpt lat="43.96357" lon="1.97264">
        <ele>230.90745</ele>
        <time>2026-08-29T13:11:50Z</time>
      </trkpt>
      <trkpt lat="43.96358" lon="1.97268">
        <ele>230.987814</ele>
        <time>2026-08-29T13:11:51Z</time>
      </trkpt>
      <trkpt lat="43.9636" lon="1.97272">
        <ele>231.067033</ele>
        <time>2026-08-29T13:11:52Z</time>
      </trkpt>
      <trkpt lat="43.96362" lon="1.97276">
        <ele>231.1432</ele>
        <time>2026-08-29T13:11:53Z</time>
      </trkpt>
      <trkpt lat="43.96363" lon="1.9728">
        <ele>231.218435</ele>
        <time>2026-08-29T13:11:54Z</time>
      </trkpt>
      <trkpt lat="43.96365" lon="1.97284">
        <ele>231.293669</ele>
        <time>2026-08-29T13:11:55Z</time>
      </trkpt>
      <trkpt lat="43.96367" lon="1.97289">
        <ele>231.372888</ele>
        <time>2026-08-29T13:11:56Z</time>
      </trkpt>
      <trkpt lat="43.96368" lon="1.97293">
        <ele>231.449971</ele>
        <time>2026-08-29T13:11:57Z</time>
      </trkpt>
      <trkpt lat="43.9637" lon="1.97297">
        <ele>231.530627</ele>
        <time>2026-08-29T13:11:58Z</time>
      </trkpt>
      <trkpt lat="43.96372" lon="1.97301">
        <ele>231.612728</ele>
        <time>2026-08-29T13:11:59Z</time>
      </trkpt>
      <trkpt lat="43.96374" lon="1.97306">
        <ele>231.697085</ele>
        <time>2026-08-29T13:12:00Z</time>
      </trkpt>
      <trkpt lat="43.96375" lon="1.9731">
        <ele>231.781724</ele>
        <time>2026-08-29T13:12:01Z</time>
      </trkpt>
      <trkpt lat="43.96377" lon="1.97315">
        <ele>231.862087</ele>
        <time>2026-08-29T13:12:02Z</time>
      </trkpt>
      <trkpt lat="43.96379" lon="1.97319">
        <ele>231.950037</ele>
        <time>2026-08-29T13:12:03Z</time>
      </trkpt>
      <trkpt lat="43.9638" lon="1.97324">
        <ele>232.032553</ele>
        <time>2026-08-29T13:12:04Z</time>
      </trkpt>
      <trkpt lat="43.96382" lon="1.97328">
        <ele>232.117565</ele>
        <time>2026-08-29T13:12:05Z</time>
      </trkpt>
      <trkpt lat="43.96384" lon="1.97333">
        <ele>232.199666</ele>
        <time>2026-08-29T13:12:06Z</time>
      </trkpt>
      <trkpt lat="43.96386" lon="1.97337">
        <ele>232.285745</ele>
        <time>2026-08-29T13:12:07Z</time>
      </trkpt>
      <trkpt lat="43.96388" lon="1.97342">
        <ele>232.374368</ele>
        <time>2026-08-29T13:12:08Z</time>
      </trkpt>
      <trkpt lat="43.96389" lon="1.97347">
        <ele>232.456468</ele>
        <time>2026-08-29T13:12:09Z</time>
      </trkpt>
      <trkpt lat="43.96391" lon="1.97351">
        <ele>232.543662</ele>
        <time>2026-08-29T13:12:10Z</time>
      </trkpt>
      <trkpt lat="43.96393" lon="1.97355">
        <ele>232.630395</ele>
        <time>2026-08-29T13:12:11Z</time>
      </trkpt>
      <trkpt lat="43.96395" lon="1.9736">
        <ele>232.714564</ele>
        <time>2026-08-29T13:12:12Z</time>
      </trkpt>
      <trkpt lat="43.96397" lon="1.97364">
        <ele>232.80136</ele>
        <time>2026-08-29T13:12:13Z</time>
      </trkpt>
      <trkpt lat="43.964" lon="1.97368">
        <ele>232.886759</ele>
        <time>2026-08-29T13:12:14Z</time>
      </trkpt>
      <trkpt lat="43.96402" lon="1.97373">
        <ele>232.973492</ele>
        <time>2026-08-29T13:12:15Z</time>
      </trkpt>
      <trkpt lat="43.96404" lon="1.97377">
        <ele>233.061571</ele>
        <time>2026-08-29T13:12:16Z</time>
      </trkpt>
      <trkpt lat="43.96406" lon="1.97381">
        <ele>233.045181</ele>
        <time>2026-08-29T13:12:17Z</time>
      </trkpt>
      <trkpt lat="43.96409" lon="1.97385">
        <ele>233.025336</ele>
        <time>2026-08-29T13:12:18Z</time>
      </trkpt>
      <trkpt lat="43.96411" lon="1.97389">
        <ele>233.00582</ele>
        <time>2026-08-29T13:12:19Z</time>
      </trkpt>
      <trkpt lat="43.96414" lon="1.97394">
        <ele>232.985406</ele>
        <time>2026-08-29T13:12:20Z</time>
      </trkpt>
      <trkpt lat="43.96416" lon="1.97398">
        <ele>232.964992</ele>
        <time>2026-08-29T13:12:21Z</time>
      </trkpt>
      <trkpt lat="43.96419" lon="1.97402">
        <ele>232.943919</ele>
        <time>2026-08-29T13:12:22Z</time>
      </trkpt>
      <trkpt lat="43.96422" lon="1.97406">
        <ele>232.923046</ele>
        <time>2026-08-29T13:12:23Z</time>
      </trkpt>
      <trkpt lat="43.96425" lon="1.9741">
        <ele>232.902703</ele>
        <time>2026-08-29T13:12:24Z</time>
      </trkpt>
      <trkpt lat="43.96427" lon="1.97414">
        <ele>232.88236</ele>
        <time>2026-08-29T13:12:25Z</time>
      </trkpt>
      <trkpt lat="43.9643" lon="1.97418">
        <ele>232.861393</ele>
        <time>2026-08-29T13:12:26Z</time>
      </trkpt>
      <trkpt lat="43.96433" lon="1.97422">
        <ele>232.839685</ele>
        <time>2026-08-29T13:12:27Z</time>
      </trkpt>
      <trkpt lat="43.96437" lon="1.97426">
        <ele>232.817725</ele>
        <time>2026-08-29T13:12:28Z</time>
      </trkpt>
      <trkpt lat="43.9644" lon="1.9743">
        <ele>232.795733</ele>
        <time>2026-08-29T13:12:29Z</time>
      </trkpt>
      <trkpt lat="43.96443" lon="1.97434">
        <ele>232.772874</ele>
        <time>2026-08-29T13:12:30Z</time>
      </trkpt>
      <trkpt lat="43.96447" lon="1.97438">
        <ele>232.749898</ele>
        <time>2026-08-29T13:12:31Z</time>
      </trkpt>
      <trkpt lat="43.96451" lon="1.97442">
        <ele>232.726089</ele>
        <time>2026-08-29T13:12:32Z</time>
      </trkpt>
      <trkpt lat="43.96454" lon="1.97445">
        <ele>232.702696</ele>
        <time>2026-08-29T13:12:33Z</time>
      </trkpt>
      <trkpt lat="43.96458" lon="1.97449">
        <ele>232.678242</ele>
        <time>2026-08-29T13:12:34Z</time>
      </trkpt>
      <trkpt lat="43.96463" lon="1.97452">
        <ele>232.653113</ele>
        <time>2026-08-29T13:12:35Z</time>
      </trkpt>
      <trkpt lat="43.96467" lon="1.97456">
        <ele>232.626284</ele>
        <time>2026-08-29T13:12:36Z</time>
      </trkpt>
      <trkpt lat="43.96471" lon="1.97459">
        <ele>232.600714</ele>
        <time>2026-08-29T13:12:37Z</time>
      </trkpt>
      <trkpt lat="43.96476" lon="1.97463">
        <ele>232.575773</ele>
        <time>2026-08-29T13:12:38Z</time>
      </trkpt>
      <trkpt lat="43.9648" lon="1.97466">
        <ele>232.549665</ele>
        <time>2026-08-29T13:12:39Z</time>
      </trkpt>
      <trkpt lat="43.96485" lon="1.97469">
        <ele>232.523126</ele>
        <time>2026-08-29T13:12:40Z</time>
      </trkpt>
      <trkpt lat="43.9649" lon="1.97472">
        <ele>232.49627</ele>
        <time>2026-08-29T13:12:41Z</time>
      </trkpt>
      <trkpt lat="43.96495" lon="1.97475">
        <ele>232.468326</ele>
        <time>2026-08-29T13:12:42Z</time>
      </trkpt>
      <trkpt lat="43.965" lon="1.97478">
        <ele>232.440851</ele>
        <time>2026-08-29T13:12:43Z</time>
      </trkpt>
      <trkpt lat="43.96504" lon="1.97481">
        <ele>232.413524</ele>
        <time>2026-08-29T13:12:44Z</time>
      </trkpt>
      <trkpt lat="43.96509" lon="1.97484">
        <ele>232.385724</ele>
        <time>2026-08-29T13:12:45Z</time>
      </trkpt>
      <trkpt lat="43.96515" lon="1.97486">
        <ele>232.357975</ele>
        <time>2026-08-29T13:12:46Z</time>
      </trkpt>
      <trkpt lat="43.9652" lon="1.97489">
        <ele>232.329975</ele>
        <time>2026-08-29T13:12:47Z</time>
      </trkpt>
      <trkpt lat="43.96525" lon="1.97491">
        <ele>232.301374</ele>
        <time>2026-08-29T13:12:48Z</time>
      </trkpt>
      <trkpt lat="43.9653" lon="1.97493">
        <ele>232.272602</ele>
        <time>2026-08-29T13:12:49Z</time>
      </trkpt>
      <trkpt lat="43.96536" lon="1.97495">
        <ele>232.24361</ele>
        <time>2026-08-29T13:12:50Z</time>
      </trkpt>
      <trkpt lat="43.96541" lon="1.97497">
        <ele>232.2152</ele>
        <time>2026-08-29T13:12:51Z</time>
      </trkpt>
      <trkpt lat="43.96547" lon="1.97498">
        <ele>232.186291</ele>
        <time>2026-08-29T13:12:52Z</time>
      </trkpt>
      <trkpt lat="43.96552" lon="1.975">
        <ele>232.157532</ele>
        <time>2026-08-29T13:12:53Z</time>
      </trkpt>
      <trkpt lat="43.96558" lon="1.97501">
        <ele>232.075576</ele>
        <time>2026-08-29T13:12:54Z</time>
      </trkpt>
      <trkpt lat="43.96564" lon="1.97502">
        <ele>231.926933</ele>
        <time>2026-08-29T13:12:55Z</time>
      </trkpt>
      <trkpt lat="43.96569" lon="1.97503">
        <ele>231.781096</ele>
        <time>2026-08-29T13:12:56Z</time>
      </trkpt>
      <trkpt lat="43.96575" lon="1.97504">
        <ele>231.637568</ele>
        <time>2026-08-29T13:12:57Z</time>
      </trkpt>
      <trkpt lat="43.9658" lon="1.97505">
        <ele>231.496315</ele>
        <time>2026-08-29T13:12:58Z</time>
      </trkpt>
      <trkpt lat="43.96586" lon="1.97506">
        <ele>231.356229</ele>
        <time>2026-08-29T13:12:59Z</time>
      </trkpt>
      <trkpt lat="43.96591" lon="1.97507">
        <ele>231.215957</ele>
        <time>2026-08-29T13:13:00Z</time>
      </trkpt>
      <trkpt lat="43.96596" lon="1.97508">
        <ele>231.073457</ele>
        <time>2026-08-29T13:13:01Z</time>
      </trkpt>
      <trkpt lat="43.96602" lon="1.97508">
        <ele>230.933667</ele>
        <time>2026-08-29T13:13:02Z</time>
      </trkpt>
      <trkpt lat="43.96607" lon="1.97508">
        <ele>230.799301</ele>
        <time>2026-08-29T13:13:03Z</time>
      </trkpt>
      <trkpt lat="43.96612" lon="1.97508">
        <ele>230.667556</ele>
        <time>2026-08-29T13:13:04Z</time>
      </trkpt>
      <trkpt lat="43.96617" lon="1.97508">
        <ele>230.535614</ele>
        <time>2026-08-29T13:13:05Z</time>
      </trkpt>
      <trkpt lat="43.96622" lon="1.97508">
        <ele>230.40387</ele>
        <time>2026-08-29T13:13:06Z</time>
      </trkpt>
      <trkpt lat="43.96627" lon="1.97508">
        <ele>230.277181</ele>
        <time>2026-08-29T13:13:07Z</time>
      </trkpt>
      <trkpt lat="43.96632" lon="1.9751">
        <ele>230.157603</ele>
        <time>2026-08-29T13:13:08Z</time>
      </trkpt>
      <trkpt lat="43.96635" lon="1.97514">
        <ele>230.04009</ele>
        <time>2026-08-29T13:13:09Z</time>
      </trkpt>
      <trkpt lat="43.96637" lon="1.9752">
        <ele>229.91698</ele>
        <time>2026-08-29T13:13:10Z</time>
      </trkpt>
      <trkpt lat="43.96638" lon="1.97527">
        <ele>229.793305</ele>
        <time>2026-08-29T13:13:11Z</time>
      </trkpt>
      <trkpt lat="43.96638" lon="1.97533">
        <ele>229.670605</ele>
        <time>2026-08-29T13:13:12Z</time>
      </trkpt>
      <trkpt lat="43.96638" lon="1.97541">
        <ele>229.532936</ele>
        <time>2026-08-29T13:13:13Z</time>
      </trkpt>
      <trkpt lat="43.96637" lon="1.97549">
        <ele>229.385705</ele>
        <time>2026-08-29T13:13:14Z</time>
      </trkpt>
      <trkpt lat="43.96637" lon="1.97556">
        <ele>229.242345</ele>
        <time>2026-08-29T13:13:15Z</time>
      </trkpt>
      <trkpt lat="43.96637" lon="1.97564">
        <ele>229.100842</ele>
        <time>2026-08-29T13:13:16Z</time>
      </trkpt>
      <trkpt lat="43.96637" lon="1.97572">
        <ele>228.959339</ele>
        <time>2026-08-29T13:13:17Z</time>
      </trkpt>
      <trkpt lat="43.96637" lon="1.97579">
        <ele>228.814124</ele>
        <time>2026-08-29T13:13:18Z</time>
      </trkpt>
      <trkpt lat="43.96638" lon="1.97587">
        <ele>228.67262</ele>
        <time>2026-08-29T13:13:19Z</time>
      </trkpt>
      <trkpt lat="43.96638" lon="1.97595">
        <ele>228.531117</ele>
        <time>2026-08-29T13:13:20Z</time>
      </trkpt>
      <trkpt lat="43.96639" lon="1.97602">
        <ele>228.385283</ele>
        <time>2026-08-29T13:13:21Z</time>
      </trkpt>
      <trkpt lat="43.96639" lon="1.9761">
        <ele>228.233285</ele>
        <time>2026-08-29T13:13:22Z</time>
      </trkpt>
      <trkpt lat="43.9664" lon="1.97618">
        <ele>228.085519</ele>
        <time>2026-08-29T13:13:23Z</time>
      </trkpt>
      <trkpt lat="43.96641" lon="1.97626">
        <ele>227.934566</ele>
        <time>2026-08-29T13:13:24Z</time>
      </trkpt>
      <trkpt lat="43.96643" lon="1.97634">
        <ele>227.778467</ele>
        <time>2026-08-29T13:13:25Z</time>
      </trkpt>
      <trkpt lat="43.96644" lon="1.97643">
        <ele>227.617569</ele>
        <time>2026-08-29T13:13:26Z</time>
      </trkpt>
      <trkpt lat="43.96646" lon="1.97651">
        <ele>227.42188</ele>
        <time>2026-08-29T13:13:27Z</time>
      </trkpt>
      <trkpt lat="43.96648" lon="1.97659">
        <ele>227.043794</ele>
        <time>2026-08-29T13:13:28Z</time>
      </trkpt>
      <trkpt lat="43.96649" lon="1.97667">
        <ele>226.684288</ele>
        <time>2026-08-29T13:13:29Z</time>
      </trkpt>
      <trkpt lat="43.96651" lon="1.97675">
        <ele>226.318937</ele>
        <time>2026-08-29T13:13:30Z</time>
      </trkpt>
      <trkpt lat="43.96652" lon="1.97683">
        <ele>225.938118</ele>
        <time>2026-08-29T13:13:31Z</time>
      </trkpt>
      <trkpt lat="43.96654" lon="1.97692">
        <ele>225.551448</ele>
        <time>2026-08-29T13:13:32Z</time>
      </trkpt>
      <trkpt lat="43.96655" lon="1.977">
        <ele>225.168127</ele>
        <time>2026-08-29T13:13:33Z</time>
      </trkpt>
      <trkpt lat="43.96655" lon="1.97709">
        <ele>224.77575</ele>
        <time>2026-08-29T13:13:34Z</time>
      </trkpt>
      <trkpt lat="43.96655" lon="1.97719">
        <ele>224.37052</ele>
        <time>2026-08-29T13:13:35Z</time>
      </trkpt>
      <trkpt lat="43.96654" lon="1.97728">
        <ele>223.945942</ele>
        <time>2026-08-29T13:13:36Z</time>
      </trkpt>
      <trkpt lat="43.96653" lon="1.97738">
        <ele>223.501699</ele>
        <time>2026-08-29T13:13:37Z</time>
      </trkpt>
      <trkpt lat="43.96652" lon="1.97749">
        <ele>223.035655</ele>
        <time>2026-08-29T13:13:38Z</time>
      </trkpt>
      <trkpt lat="43.96651" lon="1.97761">
        <ele>222.487847</ele>
        <time>2026-08-29T13:13:39Z</time>
      </trkpt>
      <trkpt lat="43.9665" lon="1.97774">
        <ele>221.91816</ele>
        <time>2026-08-29T13:13:40Z</time>
      </trkpt>
      <trkpt lat="43.96649" lon="1.97788">
        <ele>221.301395</ele>
        <time>2026-08-29T13:13:41Z</time>
      </trkpt>
      <trkpt lat="43.96647" lon="1.97803">
        <ele>220.630672</ele>
        <time>2026-08-29T13:13:42Z</time>
      </trkpt>
      <trkpt lat="43.96645" lon="1.97819">
        <ele>219.919363</ele>
        <time>2026-08-29T13:13:43Z</time>
      </trkpt>
      <trkpt lat="43.96643" lon="1.97835">
        <ele>219.189634</ele>
        <time>2026-08-29T13:13:44Z</time>
      </trkpt>
      <trkpt lat="43.9664" lon="1.97851">
        <ele>218.458753</ele>
        <time>2026-08-29T13:13:45Z</time>
      </trkpt>
      <trkpt lat="43.96639" lon="1.97869">
        <ele>217.666955</ele>
        <time>2026-08-29T13:13:46Z</time>
      </trkpt>
      <trkpt lat="43.96637" lon="1.97887">
        <ele>216.863771</ele>
        <time>2026-08-29T13:13:47Z</time>
      </trkpt>
      <trkpt lat="43.96635" lon="1.97906">
        <ele>215.564855</ele>
        <time>2026-08-29T13:13:48Z</time>
      </trkpt>
      <trkpt lat="43.96634" lon="1.97925">
        <ele>213.955547</ele>
        <time>2026-08-29T13:13:49Z</time>
      </trkpt>
      <trkpt lat="43.96634" lon="1.97943">
        <ele>212.371346</ele>
        <time>2026-08-29T13:13:50Z</time>
      </trkpt>
      <trkpt lat="43.96636" lon="1.97959">
        <ele>210.929977</ele>
        <time>2026-08-29T13:13:51Z</time>
      </trkpt>
      <trkpt lat="43.96638" lon="1.97976">
        <ele>209.467065</ele>
        <time>2026-08-29T13:13:52Z</time>
      </trkpt>
      <trkpt lat="43.9664" lon="1.97992">
        <ele>208.038354</ele>
        <time>2026-08-29T13:13:53Z</time>
      </trkpt>
      <trkpt lat="43.96642" lon="1.98008">
        <ele>206.599069</ele>
        <time>2026-08-29T13:13:54Z</time>
      </trkpt>
      <trkpt lat="43.96645" lon="1.98025">
        <ele>205.126194</ele>
        <time>2026-08-29T13:13:55Z</time>
      </trkpt>
      <trkpt lat="43.96649" lon="1.98041">
        <ele>203.595466</ele>
        <time>2026-08-29T13:13:56Z</time>
      </trkpt>
      <trkpt lat="43.96652" lon="1.98058">
        <ele>202.067232</ele>
        <time>2026-08-29T13:13:57Z</time>
      </trkpt>
      <trkpt lat="43.96657" lon="1.98075">
        <ele>200.490556</ele>
        <time>2026-08-29T13:13:58Z</time>
      </trkpt>
      <trkpt lat="43.96661" lon="1.98091">
        <ele>199.032669</ele>
        <time>2026-08-29T13:13:59Z</time>
      </trkpt>
      <trkpt lat="43.96664" lon="1.98106">
        <ele>197.684934</ele>
        <time>2026-08-29T13:14:00Z</time>
      </trkpt>
      <trkpt lat="43.96667" lon="1.98119">
        <ele>196.483624</ele>
        <time>2026-08-29T13:14:01Z</time>
      </trkpt>
      <trkpt lat="43.96669" lon="1.98131">
        <ele>195.383279</ele>
        <time>2026-08-29T13:14:02Z</time>
      </trkpt>
      <trkpt lat="43.9667" lon="1.98143">
        <ele>194.579232</ele>
        <time>2026-08-29T13:14:03Z</time>
      </trkpt>
      <trkpt lat="43.96669" lon="1.98154">
        <ele>194.165987</ele>
        <time>2026-08-29T13:14:04Z</time>
      </trkpt>
      <trkpt lat="43.96666" lon="1.98164">
        <ele>193.745218</ele>
        <time>2026-08-29T13:14:05Z</time>
      </trkpt>
      <trkpt lat="43.96662" lon="1.98173">
        <ele>193.329574</ele>
        <time>2026-08-29T13:14:06Z</time>
      </trkpt>
      <trkpt lat="43.96658" lon="1.98183">
        <ele>192.918574</ele>
        <time>2026-08-29T13:14:07Z</time>
      </trkpt>
      <trkpt lat="43.96656" lon="1.98194">
        <ele>192.499174</ele>
        <time>2026-08-29T13:14:08Z</time>
      </trkpt>
      <trkpt lat="43.96655" lon="1.98204">
        <ele>192.086696</ele>
        <time>2026-08-29T13:14:09Z</time>
      </trkpt>
      <trkpt lat="43.96654" lon="1.98215">
        <ele>191.674372</ele>
        <time>2026-08-29T13:14:10Z</time>
      </trkpt>
      <trkpt lat="43.96654" lon="1.98226">
        <ele>191.277308</ele>
        <time>2026-08-29T13:14:11Z</time>
      </trkpt>
      <trkpt lat="43.96654" lon="1.98236">
        <ele>190.876152</ele>
        <time>2026-08-29T13:14:12Z</time>
      </trkpt>
      <trkpt lat="43.96654" lon="1.98246">
        <ele>190.497959</ele>
        <time>2026-08-29T13:14:13Z</time>
      </trkpt>
      <trkpt lat="43.96654" lon="1.98256">
        <ele>190.138672</ele>
        <time>2026-08-29T13:14:14Z</time>
      </trkpt>
      <trkpt lat="43.96654" lon="1.98265">
        <ele>189.805895</ele>
        <time>2026-08-29T13:14:15Z</time>
      </trkpt>
      <trkpt lat="43.96654" lon="1.98273">
        <ele>189.4882</ele>
        <time>2026-08-29T13:14:16Z</time>
      </trkpt>
      <trkpt lat="43.96654" lon="1.98281">
        <ele>189.170505</ele>
        <time>2026-08-29T13:14:17Z</time>
      </trkpt>
      <trkpt lat="43.96654" lon="1.98289">
        <ele>188.879325</ele>
        <time>2026-08-29T13:14:18Z</time>
      </trkpt>
      <trkpt lat="43.96654" lon="1.98296">
        <ele>188.60327</ele>
        <time>2026-08-29T13:14:19Z</time>
      </trkpt>
      <trkpt lat="43.96654" lon="1.98303">
        <ele>188.349906</ele>
        <time>2026-08-29T13:14:20Z</time>
      </trkpt>
      <trkpt lat="43.96654" lon="1.98309">
        <ele>188.111609</ele>
        <time>2026-08-29T13:14:21Z</time>
      </trkpt>
      <trkpt lat="43.96654" lon="1.98316">
        <ele>187.880874</ele>
        <time>2026-08-29T13:14:22Z</time>
      </trkpt>
      <trkpt lat="43.96654" lon="1.98322">
        <ele>187.642578</ele>
        <time>2026-08-29T13:14:23Z</time>
      </trkpt>
      <trkpt lat="43.96655" lon="1.98328">
        <ele>187.40033</ele>
        <time>2026-08-29T13:14:24Z</time>
      </trkpt>
      <trkpt lat="43.96655" lon="1.98335">
        <ele>187.150691</ele>
        <time>2026-08-29T13:14:25Z</time>
      </trkpt>
      <trkpt lat="43.96655" lon="1.98341">
        <ele>186.927517</ele>
        <time>2026-08-29T13:14:26Z</time>
      </trkpt>
      <trkpt lat="43.96655" lon="1.98347">
        <ele>186.70038</ele>
        <time>2026-08-29T13:14:27Z</time>
      </trkpt>
      <trkpt lat="43.96655" lon="1.98353">
        <ele>186.465688</ele>
        <time>2026-08-29T13:14:28Z</time>
      </trkpt>
      <trkpt lat="43.96655" lon="1.98359">
        <ele>186.234953</ele>
        <time>2026-08-29T13:14:29Z</time>
      </trkpt>
      <trkpt lat="43.96655" lon="1.98366">
        <ele>185.988926</ele>
        <time>2026-08-29T13:14:30Z</time>
      </trkpt>
      <trkpt lat="43.96656" lon="1.98372">
        <ele>185.746849</ele>
        <time>2026-08-29T13:14:31Z</time>
      </trkpt>
      <trkpt lat="43.96656" lon="1.98378">
        <ele>185.515935</ele>
        <time>2026-08-29T13:14:32Z</time>
      </trkpt>
      <trkpt lat="43.96656" lon="1.98384">
        <ele>185.313843</ele>
        <time>2026-08-29T13:14:33Z</time>
      </trkpt>
      <trkpt lat="43.96656" lon="1.9839">
        <ele>185.624188</ele>
        <time>2026-08-29T13:14:34Z</time>
      </trkpt>
      <trkpt lat="43.96656" lon="1.98396">
        <ele>185.924533</ele>
        <time>2026-08-29T13:14:35Z</time>
      </trkpt>
      <trkpt lat="43.96656" lon="1.98402">
        <ele>186.229791</ele>
        <time>2026-08-29T13:14:36Z</time>
      </trkpt>
      <trkpt lat="43.96656" lon="1.98408">
        <ele>186.524707</ele>
        <time>2026-08-29T13:14:37Z</time>
      </trkpt>
      <trkpt lat="43.96656" lon="1.98413">
        <ele>186.824708</ele>
        <time>2026-08-29T13:14:38Z</time>
      </trkpt>
      <trkpt lat="43.96656" lon="1.98419">
        <ele>187.129881</ele>
        <time>2026-08-29T13:14:39Z</time>
      </trkpt>
      <trkpt lat="43.96656" lon="1.98425">
        <ele>187.409285</ele>
        <time>2026-08-29T13:14:40Z</time>
      </trkpt>
      <trkpt lat="43.96656" lon="1.9843">
        <ele>187.679783</ele>
        <time>2026-08-29T13:14:41Z</time>
      </trkpt>
      <trkpt lat="43.96655" lon="1.98435">
        <ele>187.943251</ele>
        <time>2026-08-29T13:14:42Z</time>
      </trkpt>
      <trkpt lat="43.96654" lon="1.9844">
        <ele>188.20172</ele>
        <time>2026-08-29T13:14:43Z</time>
      </trkpt>
      <trkpt lat="43.96652" lon="1.98444">
        <ele>188.44888</ele>
        <time>2026-08-29T13:14:44Z</time>
      </trkpt>
      <trkpt lat="43.96651" lon="1.98448">
        <ele>188.702454</ele>
        <time>2026-08-29T13:14:45Z</time>
      </trkpt>
      <trkpt lat="43.9665" lon="1.98453">
        <ele>188.945832</ele>
        <time>2026-08-29T13:14:46Z</time>
      </trkpt>
      <trkpt lat="43.9665" lon="1.98458">
        <ele>189.189042</ele>
        <time>2026-08-29T13:14:47Z</time>
      </trkpt>
      <trkpt lat="43.9665" lon="1.98462">
        <ele>189.416743</ele>
        <time>2026-08-29T13:14:48Z</time>
      </trkpt>
      <trkpt lat="43.9665" lon="1.98466">
        <ele>189.63446</ele>
        <time>2026-08-29T13:14:49Z</time>
      </trkpt>
      <trkpt lat="43.9665" lon="1.9847">
        <ele>189.832191</ele>
        <time>2026-08-29T13:14:50Z</time>
      </trkpt>
      <trkpt lat="43.9665" lon="1.98473">
        <ele>189.979845</ele>
        <time>2026-08-29T13:14:51Z</time>
      </trkpt>
      <trkpt lat="43.96651" lon="1.98475">
        <ele>190.126005</ele>
        <time>2026-08-29T13:14:52Z</time>
      </trkpt>
      <trkpt lat="43.96651" lon="1.98478">
        <ele>190.28025</ele>
        <time>2026-08-29T13:14:53Z</time>
      </trkpt>
      <trkpt lat="43.96652" lon="1.98481">
        <ele>190.421476</ele>
        <time>2026-08-29T13:14:54Z</time>
      </trkpt>
      <trkpt lat="43.96653" lon="1.98483">
        <ele>190.562992</ele>
        <time>2026-08-29T13:14:55Z</time>
      </trkpt>
      <trkpt lat="43.96653" lon="1.98486">
        <ele>190.704218</ele>
        <time>2026-08-29T13:14:56Z</time>
      </trkpt>
      <trkpt lat="43.96654" lon="1.98488">
        <ele>190.818629</ele>
        <time>2026-08-29T13:14:57Z</time>
      </trkpt>
      <trkpt lat="43.96654" lon="1.9849">
        <ele>190.933039</ele>
        <time>2026-08-29T13:14:58Z</time>
      </trkpt>
      <trkpt lat="43.96655" lon="1.98492">
        <ele>191.060531</ele>
        <time>2026-08-29T13:14:59Z</time>
      </trkpt>
      <trkpt lat="43.96656" lon="1.98495">
        <ele>191.188023</ele>
        <time>2026-08-29T13:15:00Z</time>
      </trkpt>
      <trkpt lat="43.96657" lon="1.98497">
        <ele>191.324333</ele>
        <time>2026-08-29T13:15:01Z</time>
      </trkpt>
      <trkpt lat="43.96657" lon="1.985">
        <ele>191.458277</ele>
        <time>2026-08-29T13:15:02Z</time>
      </trkpt>
      <trkpt lat="43.96658" lon="1.98502">
        <ele>191.584696</ele>
        <time>2026-08-29T13:15:03Z</time>
      </trkpt>
      <trkpt lat="43.96659" lon="1.98503">
        <ele>191.660642</ele>
        <time>2026-08-29T13:15:04Z</time>
      </trkpt>
      <trkpt lat="43.96659" lon="1.98504">
        <ele>191.731256</ele>
        <time>2026-08-29T13:15:05Z</time>
      </trkpt>
      <trkpt lat="43.9666" lon="1.98505">
        <ele>191.785968</ele>
        <time>2026-08-29T13:15:06Z</time>
      </trkpt>
      <trkpt lat="43.9666" lon="1.98505">
        <ele>191.815175</ele>
        <time>2026-08-29T13:15:07Z</time>
      </trkpt>
      <trkpt lat="43.9666" lon="1.98505">
        <ele>191.830451</ele>
        <time>2026-08-29T13:15:08Z</time>
      </trkpt>
      <trkpt lat="43.96661" lon="1.98504">
        <ele>191.876681</ele>
        <time>2026-08-29T13:15:09Z</time>
      </trkpt>
      <trkpt lat="43.96659" lon="1.98511">
        <ele>192.222057</ele>
        <time>2026-08-29T13:15:28Z</time>
      </trkpt>
      <trkpt lat="43.9666" lon="1.98513">
        <ele>192.343746</ele>
        <time>2026-08-29T13:15:29Z</time>
      </trkpt>
      <trkpt lat="43.96661" lon="1.98515">
        <ele>192.468163</ele>
        <time>2026-08-29T13:15:30Z</time>
      </trkpt>
      <trkpt lat="43.96662" lon="1.98517">
        <ele>192.581725</ele>
        <time>2026-08-29T13:15:31Z</time>
      </trkpt>
      <trkpt lat="43.96662" lon="1.98519">
        <ele>192.677293</ele>
        <time>2026-08-29T13:15:32Z</time>
      </trkpt>
      <trkpt lat="43.96663" lon="1.9852">
        <ele>192.773858</ele>
        <time>2026-08-29T13:15:33Z</time>
      </trkpt>
      <trkpt lat="43.96664" lon="1.98522">
        <ele>192.884261</ele>
        <time>2026-08-29T13:15:34Z</time>
      </trkpt>
      <trkpt lat="43.96664" lon="1.98524">
        <ele>192.989319</ele>
        <time>2026-08-29T13:15:35Z</time>
      </trkpt>
      <trkpt lat="43.96665" lon="1.98526">
        <ele>193.099722</ele>
        <time>2026-08-29T13:15:36Z</time>
      </trkpt>
      <trkpt lat="43.96666" lon="1.98528">
        <ele>193.21358</ele>
        <time>2026-08-29T13:15:37Z</time>
      </trkpt>
      <trkpt lat="43.96667" lon="1.9853">
        <ele>193.336477</ele>
        <time>2026-08-29T13:15:38Z</time>
      </trkpt>
      <trkpt lat="43.96667" lon="1.98532">
        <ele>193.455809</ele>
        <time>2026-08-29T13:15:39Z</time>
      </trkpt>
      <trkpt lat="43.96668" lon="1.98534">
        <ele>193.583231</ele>
        <time>2026-08-29T13:15:40Z</time>
      </trkpt>
      <trkpt lat="43.96668" lon="1.98536">
        <ele>193.688902</ele>
        <time>2026-08-29T13:15:41Z</time>
      </trkpt>
      <trkpt lat="43.96668" lon="1.98538">
        <ele>193.778001</ele>
        <time>2026-08-29T13:15:42Z</time>
      </trkpt>
      <trkpt lat="43.96668" lon="1.9854">
        <ele>193.863521</ele>
        <time>2026-08-29T13:15:43Z</time>
      </trkpt>
      <trkpt lat="43.96669" lon="1.98542">
        <ele>193.962843</ele>
        <time>2026-08-29T13:15:44Z</time>
      </trkpt>
      <trkpt lat="43.96669" lon="1.98544">
        <ele>194.071464</ele>
        <time>2026-08-29T13:15:45Z</time>
      </trkpt>
      <trkpt lat="43.96668" lon="1.98546">
        <ele>194.200973</ele>
        <time>2026-08-29T13:15:46Z</time>
      </trkpt>
      <trkpt lat="43.96668" lon="1.98549">
        <ele>194.345801</ele>
        <time>2026-08-29T13:15:47Z</time>
      </trkpt>
      <trkpt lat="43.96669" lon="1.98551">
        <ele>194.460498</ele>
        <time>2026-08-29T13:15:48Z</time>
      </trkpt>
      <trkpt lat="43.96668" lon="1.98553">
        <ele>194.571238</ele>
        <time>2026-08-29T13:15:49Z</time>
      </trkpt>
      <trkpt lat="43.96668" lon="1.98555">
        <ele>194.671851</ele>
        <time>2026-08-29T13:15:50Z</time>
      </trkpt>
      <trkpt lat="43.96668" lon="1.98557">
        <ele>194.776293</ele>
        <time>2026-08-29T13:15:51Z</time>
      </trkpt>
      <trkpt lat="43.96668" lon="1.98559">
        <ele>194.878687</ele>
        <time>2026-08-29T13:15:52Z</time>
      </trkpt>
      <trkpt lat="43.96668" lon="1.98561">
        <ele>194.998518</ele>
        <time>2026-08-29T13:15:53Z</time>
      </trkpt>
      <trkpt lat="43.96669" lon="1.98563">
        <ele>195.086742</ele>
        <time>2026-08-29T13:15:54Z</time>
      </trkpt>
      <trkpt lat="43.96668" lon="1.98565">
        <ele>195.177278</ele>
        <time>2026-08-29T13:15:55Z</time>
      </trkpt>
      <trkpt lat="43.96668" lon="1.98566">
        <ele>195.261254</ele>
        <time>2026-08-29T13:15:56Z</time>
      </trkpt>
      <trkpt lat="43.96667" lon="1.98567">
        <ele>195.328547</ele>
        <time>2026-08-29T13:15:57Z</time>
      </trkpt>
      <trkpt lat="43.96667" lon="1.98569">
        <ele>195.400961</ele>
        <time>2026-08-29T13:15:58Z</time>
      </trkpt>
      <trkpt lat="43.96667" lon="1.9857">
        <ele>195.47268</ele>
        <time>2026-08-29T13:15:59Z</time>
      </trkpt>
      <trkpt lat="43.96666" lon="1.98571">
        <ele>195.552559</ele>
        <time>2026-08-29T13:16:00Z</time>
      </trkpt>
      <trkpt lat="43.96665" lon="1.98572">
        <ele>195.645858</ele>
        <time>2026-08-29T13:16:01Z</time>
      </trkpt>
      <trkpt lat="43.96664" lon="1.98574">
        <ele>195.748462</ele>
        <time>2026-08-29T13:16:02Z</time>
      </trkpt>
      <trkpt lat="43.96663" lon="1.98576">
        <ele>195.874423</ele>
        <time>2026-08-29T13:16:03Z</time>
      </trkpt>
      <trkpt lat="43.96663" lon="1.98578">
        <ele>195.969412</ele>
        <time>2026-08-29T13:16:04Z</time>
      </trkpt>
      <trkpt lat="43.96663" lon="1.9858">
        <ele>196.058511</ele>
        <time>2026-08-29T13:16:05Z</time>
      </trkpt>
      <trkpt lat="43.96662" lon="1.98581">
        <ele>196.151829</ele>
        <time>2026-08-29T13:16:06Z</time>
      </trkpt>
      <trkpt lat="43.96662" lon="1.98583">
        <ele>196.25115</ele>
        <time>2026-08-29T13:16:07Z</time>
      </trkpt>
      <trkpt lat="43.96662" lon="1.98585">
        <ele>196.349688</ele>
        <time>2026-08-29T13:16:08Z</time>
      </trkpt>
      <trkpt lat="43.96662" lon="1.98587">
        <ele>196.457057</ele>
        <time>2026-08-29T13:16:09Z</time>
      </trkpt>
      <trkpt lat="43.96663" lon="1.98589">
        <ele>196.567796</ele>
        <time>2026-08-29T13:16:10Z</time>
      </trkpt>
      <trkpt lat="43.96663" lon="1.98591">
        <ele>196.687627</ele>
        <time>2026-08-29T13:16:11Z</time>
      </trkpt>
      <trkpt lat="43.96663" lon="1.98594">
        <ele>196.822876</ele>
        <time>2026-08-29T13:16:12Z</time>
      </trkpt>
      <trkpt lat="43.96663" lon="1.98596">
        <ele>196.947844</ele>
        <time>2026-08-29T13:16:13Z</time>
      </trkpt>
      <trkpt lat="43.96663" lon="1.98599">
        <ele>197.056702</ele>
        <time>2026-08-29T13:16:14Z</time>
      </trkpt>
      <trkpt lat="43.96663" lon="1.986">
        <ele>197.149805</ele>
        <time>2026-08-29T13:16:15Z</time>
      </trkpt>
      <trkpt lat="43.96663" lon="1.98602">
        <ele>197.232876</ele>
        <time>2026-08-29T13:16:16Z</time>
      </trkpt>
      <trkpt lat="43.96662" lon="1.98604">
        <ele>197.33527</ele>
        <time>2026-08-29T13:16:17Z</time>
      </trkpt>
      <trkpt lat="43.96662" lon="1.98606">
        <ele>197.433546</ele>
        <time>2026-08-29T13:16:18Z</time>
      </trkpt>
      <trkpt lat="43.96662" lon="1.98607">
        <ele>197.516304</ele>
        <time>2026-08-29T13:16:19Z</time>
      </trkpt>
      <trkpt lat="43.96663" lon="1.98609">
        <ele>197.620747</ele>
        <time>2026-08-29T13:16:20Z</time>
      </trkpt>
      <trkpt lat="43.96663" lon="1.98611">
        <ele>197.729367</ele>
        <time>2026-08-29T13:16:21Z</time>
      </trkpt>
      <trkpt lat="43.96663" lon="1.98613">
        <ele>197.833065</ele>
        <time>2026-08-29T13:16:22Z</time>
      </trkpt>
      <trkpt lat="43.96663" lon="1.98616">
        <ele>197.957411</ele>
        <time>2026-08-29T13:16:23Z</time>
      </trkpt>
      <trkpt lat="43.96663" lon="1.98618">
        <ele>198.071431</ele>
        <time>2026-08-29T13:16:24Z</time>
      </trkpt>
      <trkpt lat="43.96663" lon="1.9862">
        <ele>198.190397</ele>
        <time>2026-08-29T13:16:25Z</time>
      </trkpt>
      <trkpt lat="43.96663" lon="1.98622">
        <ele>198.329059</ele>
        <time>2026-08-29T13:16:26Z</time>
      </trkpt>
      <trkpt lat="43.96663" lon="1.98625">
        <ele>198.486292</ele>
        <time>2026-08-29T13:16:27Z</time>
      </trkpt>
      <trkpt lat="43.96663" lon="1.98626">
        <ele>198.607953</ele>
        <time>2026-08-29T13:16:28Z</time>
      </trkpt>
      <trkpt lat="43.96663" lon="1.98628">
        <ele>198.708302</ele>
        <time>2026-08-29T13:16:29Z</time>
      </trkpt>
      <trkpt lat="43.96663" lon="1.98629">
        <ele>198.812492</ele>
        <time>2026-08-29T13:16:30Z</time>
      </trkpt>
      <trkpt lat="43.96663" lon="1.9863">
        <ele>198.903101</ele>
        <time>2026-08-29T13:16:31Z</time>
      </trkpt>
      <trkpt lat="43.96664" lon="1.98632">
        <ele>199.01054</ele>
        <time>2026-08-29T13:16:32Z</time>
      </trkpt>
      <trkpt lat="43.96664" lon="1.98634">
        <ele>199.1586</ele>
        <time>2026-08-29T13:16:33Z</time>
      </trkpt>
      <trkpt lat="43.96665" lon="1.98636">
        <ele>199.33017</ele>
        <time>2026-08-29T13:16:34Z</time>
      </trkpt>
      <trkpt lat="43.96665" lon="1.98638">
        <ele>199.47166</ele>
        <time>2026-08-29T13:16:35Z</time>
      </trkpt>
      <trkpt lat="43.96666" lon="1.9864">
        <ele>199.629431</ele>
        <time>2026-08-29T13:16:36Z</time>
      </trkpt>
      <trkpt lat="43.96667" lon="1.98642">
        <ele>199.775363</ele>
        <time>2026-08-29T13:16:37Z</time>
      </trkpt>
      <trkpt lat="43.96667" lon="1.98643">
        <ele>199.899779</ele>
        <time>2026-08-29T13:16:38Z</time>
      </trkpt>
      <trkpt lat="43.96668" lon="1.98645">
        <ele>200.007218</ele>
        <time>2026-08-29T13:16:39Z</time>
      </trkpt>
      <trkpt lat="43.96668" lon="1.98646">
        <ele>200.146916</ele>
        <time>2026-08-29T13:16:40Z</time>
      </trkpt>
      <trkpt lat="43.96668" lon="1.98648">
        <ele>200.269781</ele>
        <time>2026-08-29T13:16:41Z</time>
      </trkpt>
      <trkpt lat="43.96669" lon="1.9865">
        <ele>200.420928</ele>
        <time>2026-08-29T13:16:42Z</time>
      </trkpt>
      <trkpt lat="43.96671" lon="1.98651">
        <ele>200.583982</ele>
        <time>2026-08-29T13:16:43Z</time>
      </trkpt>
      <trkpt lat="43.96671" lon="1.98653">
        <ele>200.718351</ele>
        <time>2026-08-29T13:16:44Z</time>
      </trkpt>
      <trkpt lat="43.96671" lon="1.98655">
        <ele>200.857096</ele>
        <time>2026-08-29T13:16:45Z</time>
      </trkpt>
      <trkpt lat="43.96672" lon="1.98657">
        <ele>201.032906</ele>
        <time>2026-08-29T13:16:46Z</time>
      </trkpt>
      <trkpt lat="43.96672" lon="1.98659">
        <ele>201.18785</ele>
        <time>2026-08-29T13:16:47Z</time>
      </trkpt>
      <trkpt lat="43.96674" lon="1.98662">
        <ele>201.390472</ele>
        <time>2026-08-29T13:16:48Z</time>
      </trkpt>
      <trkpt lat="43.96675" lon="1.98664">
        <ele>201.582691</ele>
        <time>2026-08-29T13:16:49Z</time>
      </trkpt>
      <trkpt lat="43.96676" lon="1.98665">
        <ele>201.733489</ele>
        <time>2026-08-29T13:16:50Z</time>
      </trkpt>
      <trkpt lat="43.96676" lon="1.98665">
        <ele>201.774695</ele>
        <time>2026-08-29T13:16:51Z</time>
      </trkpt>
      <trkpt lat="43.96676" lon="1.98664">
        <ele>201.828668</ele>
        <time>2026-08-29T13:16:52Z</time>
      </trkpt>
      <trkpt lat="43.96676" lon="1.98665">
        <ele>201.881991</ele>
        <time>2026-08-29T13:16:53Z</time>
      </trkpt>
      <trkpt lat="43.96676" lon="1.98665">
        <ele>201.899361</ele>
        <time>2026-08-29T13:16:54Z</time>
      </trkpt>
      <trkpt lat="43.96677" lon="1.98668">
        <ele>202.137786</ele>
        <time>2026-08-29T13:17:08Z</time>
      </trkpt>
      <trkpt lat="43.96678" lon="1.98669">
        <ele>202.282628</ele>
        <time>2026-08-29T13:17:09Z</time>
      </trkpt>
      <trkpt lat="43.96679" lon="1.98671">
        <ele>202.422326</ele>
        <time>2026-08-29T13:17:10Z</time>
      </trkpt>
      <trkpt lat="43.9668" lon="1.98673">
        <ele>202.585379</ele>
        <time>2026-08-29T13:17:11Z</time>
      </trkpt>
      <trkpt lat="43.9668" lon="1.98675">
        <ele>202.754854</ele>
        <time>2026-08-29T13:17:12Z</time>
      </trkpt>
      <trkpt lat="43.96682" lon="1.98677">
        <ele>202.935155</ele>
        <time>2026-08-29T13:17:13Z</time>
      </trkpt>
      <trkpt lat="43.96682" lon="1.98679">
        <ele>203.097004</ele>
        <time>2026-08-29T13:17:14Z</time>
      </trkpt>
      <trkpt lat="43.96683" lon="1.98681">
        <ele>203.254774</ele>
        <time>2026-08-29T13:17:15Z</time>
      </trkpt>
      <trkpt lat="43.96683" lon="1.98683">
        <ele>203.439849</ele>
        <time>2026-08-29T13:17:16Z</time>
      </trkpt>
      <trkpt lat="43.96684" lon="1.98685">
        <ele>203.594399</ele>
        <time>2026-08-29T13:17:17Z</time>
      </trkpt>
      <trkpt lat="43.96684" lon="1.98688">
        <ele>203.77021</ele>
        <time>2026-08-29T13:17:18Z</time>
      </trkpt>
      <trkpt lat="43.96685" lon="1.9869">
        <ele>203.941779</ele>
        <time>2026-08-29T13:17:19Z</time>
      </trkpt>
      <trkpt lat="43.96686" lon="1.98692">
        <ele>204.104017</ele>
        <time>2026-08-29T13:17:20Z</time>
      </trkpt>
      <trkpt lat="43.96687" lon="1.98694">
        <ele>204.308714</ele>
        <time>2026-08-29T13:17:21Z</time>
      </trkpt>
      <trkpt lat="43.96687" lon="1.98697">
        <ele>204.466484</ele>
        <time>2026-08-29T13:17:22Z</time>
      </trkpt>
      <trkpt lat="43.96688" lon="1.98699">
        <ele>204.625111</ele>
        <time>2026-08-29T13:17:23Z</time>
      </trkpt>
      <trkpt lat="43.96688" lon="1.98701">
        <ele>204.769135</ele>
        <time>2026-08-29T13:17:24Z</time>
      </trkpt>
      <trkpt lat="43.96689" lon="1.98703">
        <ele>204.934206</ele>
        <time>2026-08-29T13:17:25Z</time>
      </trkpt>
      <trkpt lat="43.9669" lon="1.98705">
        <ele>205.114507</ele>
        <time>2026-08-29T13:17:26Z</time>
      </trkpt>
      <trkpt lat="43.96691" lon="1.98707">
        <ele>205.292624</ele>
        <time>2026-08-29T13:17:27Z</time>
      </trkpt>
      <trkpt lat="43.96692" lon="1.98709">
        <ele>205.449632</ele>
        <time>2026-08-29T13:17:28Z</time>
      </trkpt>
      <trkpt lat="43.96692" lon="1.98711">
        <ele>205.595563</ele>
        <time>2026-08-29T13:17:29Z</time>
      </trkpt>
      <trkpt lat="43.96693" lon="1.98712">
        <ele>205.746458</ele>
        <time>2026-08-29T13:17:30Z</time>
      </trkpt>
      <trkpt lat="43.96694" lon="1.98714">
        <ele>205.920788</ele>
        <time>2026-08-29T13:17:31Z</time>
      </trkpt>
      <trkpt lat="43.96695" lon="1.98717">
        <ele>206.120168</ele>
        <time>2026-08-29T13:17:32Z</time>
      </trkpt>
      <trkpt lat="43.96696" lon="1.98719">
        <ele>206.311504</ele>
        <time>2026-08-29T13:17:33Z</time>
      </trkpt>
      <trkpt lat="43.96696" lon="1.98721">
        <ele>206.462518</ele>
        <time>2026-08-29T13:17:34Z</time>
      </trkpt>
      <trkpt lat="43.96696" lon="1.98724">
        <ele>206.624367</ele>
        <time>2026-08-29T13:17:35Z</time>
      </trkpt>
      <trkpt lat="43.96697" lon="1.98726">
        <ele>206.81302</ele>
        <time>2026-08-29T13:17:36Z</time>
      </trkpt>
      <trkpt lat="43.96698" lon="1.98728">
        <ele>207.001672</ele>
        <time>2026-08-29T13:17:37Z</time>
      </trkpt>
      <trkpt lat="43.96699" lon="1.98731">
        <ele>207.190324</ele>
        <time>2026-08-29T13:17:38Z</time>
      </trkpt>
      <trkpt lat="43.967" lon="1.98733">
        <ele>207.359799</ele>
        <time>2026-08-29T13:17:39Z</time>
      </trkpt>
      <trkpt lat="43.967" lon="1.98735">
        <ele>207.548451</ele>
        <time>2026-08-29T13:17:40Z</time>
      </trkpt>
      <trkpt lat="43.96701" lon="1.98738">
        <ele>207.735181</ele>
        <time>2026-08-29T13:17:41Z</time>
      </trkpt>
      <trkpt lat="43.96702" lon="1.9874">
        <ele>207.928207</ele>
        <time>2026-08-29T13:17:42Z</time>
      </trkpt>
      <trkpt lat="43.96703" lon="1.98742">
        <ele>208.106324</ele>
        <time>2026-08-29T13:17:43Z</time>
      </trkpt>
      <trkpt lat="43.96703" lon="1.98744">
        <ele>208.264093</ele>
        <time>2026-08-29T13:17:44Z</time>
      </trkpt>
      <trkpt lat="43.96704" lon="1.98747">
        <ele>208.452063</ele>
        <time>2026-08-29T13:17:45Z</time>
      </trkpt>
      <trkpt lat="43.96705" lon="1.9875">
        <ele>208.656759</ele>
        <time>2026-08-29T13:17:46Z</time>
      </trkpt>
      <trkpt lat="43.96705" lon="1.98752">
        <ele>208.839429</ele>
        <time>2026-08-29T13:17:47Z</time>
      </trkpt>
      <trkpt lat="43.96705" lon="1.98755">
        <ele>209.020208</ele>
        <time>2026-08-29T13:17:48Z</time>
      </trkpt>
      <trkpt lat="43.96706" lon="1.98757">
        <ele>209.202878</ele>
        <time>2026-08-29T13:17:49Z</time>
      </trkpt>
      <trkpt lat="43.96706" lon="1.9876">
        <ele>209.376625</ele>
        <time>2026-08-29T13:17:50Z</time>
      </trkpt>
      <trkpt lat="43.96706" lon="1.98762">
        <ele>209.548954</ele>
        <time>2026-08-29T13:17:51Z</time>
      </trkpt>
      <trkpt lat="43.96707" lon="1.98764">
        <ele>209.685916</ele>
        <time>2026-08-29T13:17:52Z</time>
      </trkpt>
      <trkpt lat="43.96706" lon="1.98766">
        <ele>209.815826</ele>
        <time>2026-08-29T13:17:53Z</time>
      </trkpt>
      <trkpt lat="43.96706" lon="1.98768">
        <ele>209.96594</ele>
        <time>2026-08-29T13:17:54Z</time>
      </trkpt>
      <trkpt lat="43.96707" lon="1.98771">
        <ele>210.165901</ele>
        <time>2026-08-29T13:17:55Z</time>
      </trkpt>
      <trkpt lat="43.96707" lon="1.98773">
        <ele>210.369512</ele>
        <time>2026-08-29T13:17:56Z</time>
      </trkpt>
      <trkpt lat="43.96707" lon="1.98776">
        <ele>210.547724</ele>
        <time>2026-08-29T13:17:57Z</time>
      </trkpt>
      <trkpt lat="43.96708" lon="1.98778">
        <ele>210.729928</ele>
        <time>2026-08-29T13:17:58Z</time>
      </trkpt>
      <trkpt lat="43.96709" lon="1.9878">
        <ele>210.92159</ele>
        <time>2026-08-29T13:17:59Z</time>
      </trkpt>
      <trkpt lat="43.9671" lon="1.98782">
        <ele>211.067521</ele>
        <time>2026-08-29T13:18:00Z</time>
      </trkpt>
      <trkpt lat="43.96711" lon="1.98784">
        <ele>211.235762</ele>
        <time>2026-08-29T13:18:01Z</time>
      </trkpt>
      <trkpt lat="43.96712" lon="1.98786">
        <ele>211.39277</ele>
        <time>2026-08-29T13:18:02Z</time>
      </trkpt>
      <trkpt lat="43.96713" lon="1.98788">
        <ele>211.557592</ele>
        <time>2026-08-29T13:18:03Z</time>
      </trkpt>
      <trkpt lat="43.96714" lon="1.98789">
        <ele>211.732795</ele>
        <time>2026-08-29T13:18:04Z</time>
      </trkpt>
      <trkpt lat="43.96716" lon="1.98791">
        <ele>211.904904</ele>
        <time>2026-08-29T13:18:05Z</time>
      </trkpt>
      <trkpt lat="43.96717" lon="1.98792">
        <ele>212.084551</ele>
        <time>2026-08-29T13:18:06Z</time>
      </trkpt>
      <trkpt lat="43.96718" lon="1.98794">
        <ele>212.271958</ele>
        <time>2026-08-29T13:18:07Z</time>
      </trkpt>
      <trkpt lat="43.9672" lon="1.98796">
        <ele>212.475445</ele>
        <time>2026-08-29T13:18:08Z</time>
      </trkpt>
      <trkpt lat="43.96722" lon="1.98797">
        <ele>212.659129</ele>
        <time>2026-08-29T13:18:09Z</time>
      </trkpt>
      <trkpt lat="43.96723" lon="1.98798">
        <ele>212.846514</ele>
        <time>2026-08-29T13:18:10Z</time>
      </trkpt>
      <trkpt lat="43.96725" lon="1.98799">
        <ele>213.023426</ele>
        <time>2026-08-29T13:18:11Z</time>
      </trkpt>
      <trkpt lat="43.96726" lon="1.98801">
        <ele>213.194958</ele>
        <time>2026-08-29T13:18:12Z</time>
      </trkpt>
      <trkpt lat="43.96728" lon="1.98802">
        <ele>213.353688</ele>
        <time>2026-08-29T13:18:13Z</time>
      </trkpt>
      <trkpt lat="43.96729" lon="1.98803">
        <ele>213.528891</ele>
        <time>2026-08-29T13:18:14Z</time>
      </trkpt>
      <trkpt lat="43.96731" lon="1.98805">
        <ele>213.704092</ele>
        <time>2026-08-29T13:18:15Z</time>
      </trkpt>
      <trkpt lat="43.96732" lon="1.98806">
        <ele>213.848031</ele>
        <time>2026-08-29T13:18:16Z</time>
      </trkpt>
      <trkpt lat="43.96733" lon="1.98807">
        <ele>214.012909</ele>
        <time>2026-08-29T13:18:17Z</time>
      </trkpt>
      <trkpt lat="43.96735" lon="1.98808">
        <ele>214.180995</ele>
        <time>2026-08-29T13:18:18Z</time>
      </trkpt>
      <trkpt lat="43.96736" lon="1.98809">
        <ele>214.336281</ele>
        <time>2026-08-29T13:18:19Z</time>
      </trkpt>
      <trkpt lat="43.96737" lon="1.98811">
        <ele>214.469444</ele>
        <time>2026-08-29T13:18:20Z</time>
      </trkpt>
      <trkpt lat="43.96738" lon="1.98811">
        <ele>214.579334</ele>
        <time>2026-08-29T13:18:21Z</time>
      </trkpt>
      <trkpt lat="43.96739" lon="1.98812">
        <ele>214.720979</ele>
        <time>2026-08-29T13:18:22Z</time>
      </trkpt>
      <trkpt lat="43.96741" lon="1.98813">
        <ele>214.889066</ele>
        <time>2026-08-29T13:18:23Z</time>
      </trkpt>
      <trkpt lat="43.96742" lon="1.98814">
        <ele>215.041938</ele>
        <time>2026-08-29T13:18:24Z</time>
      </trkpt>
      <trkpt lat="43.96744" lon="1.98815">
        <ele>215.221016</ele>
        <time>2026-08-29T13:18:25Z</time>
      </trkpt>
      <trkpt lat="43.96745" lon="1.98817">
        <ele>215.400093</ele>
        <time>2026-08-29T13:18:26Z</time>
      </trkpt>
      <trkpt lat="43.96746" lon="1.98818">
        <ele>215.534404</ele>
        <time>2026-08-29T13:18:27Z</time>
      </trkpt>
      <trkpt lat="43.96748" lon="1.98819">
        <ele>215.675306</ele>
        <time>2026-08-29T13:18:28Z</time>
      </trkpt>
      <trkpt lat="43.96749" lon="1.98819">
        <ele>215.832119</ele>
        <time>2026-08-29T13:18:29Z</time>
      </trkpt>
      <trkpt lat="43.9675" lon="1.9882">
        <ele>215.949229</ele>
        <time>2026-08-29T13:18:30Z</time>
      </trkpt>
      <trkpt lat="43.96751" lon="1.98821">
        <ele>216.086641</ele>
        <time>2026-08-29T13:18:31Z</time>
      </trkpt>
      <trkpt lat="43.96753" lon="1.98823">
        <ele>216.250089</ele>
        <time>2026-08-29T13:18:32Z</time>
      </trkpt>
      <trkpt lat="43.96755" lon="1.98824">
        <ele>216.396966</ele>
        <time>2026-08-29T13:18:33Z</time>
      </trkpt>
      <trkpt lat="43.96757" lon="1.98825">
        <ele>216.536087</ele>
        <time>2026-08-29T13:18:34Z</time>
      </trkpt>
      <trkpt lat="43.96758" lon="1.98827">
        <ele>216.654838</ele>
        <time>2026-08-29T13:18:35Z</time>
      </trkpt>
      <trkpt lat="43.96759" lon="1.98828">
        <ele>216.773589</ele>
        <time>2026-08-29T13:18:36Z</time>
      </trkpt>
      <trkpt lat="43.9676" lon="1.9883">
        <ele>216.904924</ele>
        <time>2026-08-29T13:18:37Z</time>
      </trkpt>
      <trkpt lat="43.96762" lon="1.98832">
        <ele>217.029241</ele>
        <time>2026-08-29T13:18:38Z</time>
      </trkpt>
      <trkpt lat="43.96763" lon="1.98833">
        <ele>217.180299</ele>
        <time>2026-08-29T13:18:39Z</time>
      </trkpt>
      <trkpt lat="43.96765" lon="1.98835">
        <ele>217.307197</ele>
        <time>2026-08-29T13:18:40Z</time>
      </trkpt>
      <trkpt lat="43.96766" lon="1.98836">
        <ele>217.446302</ele>
        <time>2026-08-29T13:18:41Z</time>
      </trkpt>
      <trkpt lat="43.96768" lon="1.98837">
        <ele>217.562111</ele>
        <time>2026-08-29T13:18:42Z</time>
      </trkpt>
      <trkpt lat="43.96769" lon="1.98838">
        <ele>217.67088</ele>
        <time>2026-08-29T13:18:43Z</time>
      </trkpt>
      <trkpt lat="43.9677" lon="1.9884">
        <ele>217.786156</ele>
        <time>2026-08-29T13:18:44Z</time>
      </trkpt>
      <trkpt lat="43.96771" lon="1.98841">
        <ele>217.892396</ele>
        <time>2026-08-29T13:18:45Z</time>
      </trkpt>
      <trkpt lat="43.96773" lon="1.98842">
        <ele>218.031517</ele>
        <time>2026-08-29T13:18:46Z</time>
      </trkpt>
      <trkpt lat="43.96774" lon="1.98843">
        <ele>218.13446</ele>
        <time>2026-08-29T13:18:47Z</time>
      </trkpt>
      <trkpt lat="43.96775" lon="1.98845">
        <ele>218.247848</ele>
        <time>2026-08-29T13:18:48Z</time>
      </trkpt>
      <trkpt lat="43.96776" lon="1.98846">
        <ele>218.34817</ele>
        <time>2026-08-29T13:18:49Z</time>
      </trkpt>
      <trkpt lat="43.96778" lon="1.98847">
        <ele>218.450739</ele>
        <time>2026-08-29T13:18:50Z</time>
      </trkpt>
      <trkpt lat="43.96779" lon="1.98848">
        <ele>218.553681</ele>
        <time>2026-08-29T13:18:51Z</time>
      </trkpt>
      <trkpt lat="43.9678" lon="1.98849">
        <ele>218.659445</ele>
        <time>2026-08-29T13:18:52Z</time>
      </trkpt>
      <trkpt lat="43.96782" lon="1.9885">
        <ele>218.786434</ele>
        <time>2026-08-29T13:18:53Z</time>
      </trkpt>
      <trkpt lat="43.96783" lon="1.9885">
        <ele>218.894217</ele>
        <time>2026-08-29T13:18:54Z</time>
      </trkpt>
      <trkpt lat="43.96784" lon="1.9885">
        <ele>218.960428</ele>
        <time>2026-08-29T13:18:55Z</time>
      </trkpt>
      <trkpt lat="43.96784" lon="1.98851">
        <ele>218.995439</ele>
        <time>2026-08-29T13:18:56Z</time>
      </trkpt>
      <trkpt lat="43.96784" lon="1.98851">
        <ele>219.038576</ele>
        <time>2026-08-29T13:18:57Z</time>
      </trkpt>
      <trkpt lat="43.96788" lon="1.98851">
        <ele>219.314053</ele>
        <time>2026-08-29T13:19:20Z</time>
      </trkpt>
      <trkpt lat="43.9679" lon="1.98851">
        <ele>219.439566</ele>
        <time>2026-08-29T13:19:21Z</time>
      </trkpt>
      <trkpt lat="43.96791" lon="1.98852">
        <ele>219.555976</ele>
        <time>2026-08-29T13:19:22Z</time>
      </trkpt>
      <trkpt lat="43.96793" lon="1.98852">
        <ele>219.651614</ele>
        <time>2026-08-29T13:19:23Z</time>
      </trkpt>
      <trkpt lat="43.96793" lon="1.98851">
        <ele>219.721777</ele>
        <time>2026-08-29T13:19:24Z</time>
      </trkpt>
      <trkpt lat="43.96795" lon="1.9885">
        <ele>219.836611</ele>
        <time>2026-08-29T13:19:25Z</time>
      </trkpt>
      <trkpt lat="43.96796" lon="1.98849">
        <ele>219.965648</ele>
        <time>2026-08-29T13:19:26Z</time>
      </trkpt>
      <trkpt lat="43.96798" lon="1.98849">
        <ele>220.101827</ele>
        <time>2026-08-29T13:19:27Z</time>
      </trkpt>
      <trkpt lat="43.968" lon="1.98848">
        <ele>220.238007</ele>
        <time>2026-08-29T13:19:28Z</time>
      </trkpt>
      <trkpt lat="43.96802" lon="1.98848">
        <ele>220.359927</ele>
        <time>2026-08-29T13:19:29Z</time>
      </trkpt>
      <trkpt lat="43.96804" lon="1.98847">
        <ele>220.504536</ele>
        <time>2026-08-29T13:19:30Z</time>
      </trkpt>
      <trkpt lat="43.96805" lon="1.98846">
        <ele>220.655964</ele>
        <time>2026-08-29T13:19:31Z</time>
      </trkpt>
      <trkpt lat="43.96807" lon="1.98844">
        <ele>220.807022</ele>
        <time>2026-08-29T13:19:32Z</time>
      </trkpt>
      <trkpt lat="43.96809" lon="1.98843">
        <ele>220.955175</ele>
        <time>2026-08-29T13:19:33Z</time>
      </trkpt>
      <trkpt lat="43.96811" lon="1.98842">
        <ele>221.102051</ele>
        <time>2026-08-29T13:19:34Z</time>
      </trkpt>
      <trkpt lat="43.96812" lon="1.9884">
        <ele>221.220374</ele>
        <time>2026-08-29T13:19:35Z</time>
      </trkpt>
      <trkpt lat="43.96814" lon="1.98839">
        <ele>221.34771</ele>
        <time>2026-08-29T13:19:36Z</time>
      </trkpt>
      <trkpt lat="43.96816" lon="1.98838">
        <ele>221.510151</ele>
        <time>2026-08-29T13:19:37Z</time>
      </trkpt>
      <trkpt lat="43.96818" lon="1.98837">
        <ele>221.68216</ele>
        <time>2026-08-29T13:19:38Z</time>
      </trkpt>
      <trkpt lat="43.9682" lon="1.98835">
        <ele>221.842928</ele>
        <time>2026-08-29T13:19:39Z</time>
      </trkpt>
      <trkpt lat="43.96822" lon="1.98834">
        <ele>222.01206</ele>
        <time>2026-08-29T13:19:40Z</time>
      </trkpt>
      <trkpt lat="43.96824" lon="1.98833">
        <ele>222.196791</ele>
        <time>2026-08-29T13:19:41Z</time>
      </trkpt>
      <trkpt lat="43.96826" lon="1.98831">
        <ele>222.384093</ele>
        <time>2026-08-29T13:19:42Z</time>
      </trkpt>
      <trkpt lat="43.96828" lon="1.9883">
        <ele>222.563043</ele>
        <time>2026-08-29T13:19:43Z</time>
      </trkpt>
      <trkpt lat="43.96831" lon="1.98828">
        <ele>222.743785</ele>
        <time>2026-08-29T13:19:44Z</time>
      </trkpt>
      <trkpt lat="43.96833" lon="1.98828">
        <ele>222.917002</ele>
        <time>2026-08-29T13:19:45Z</time>
      </trkpt>
      <trkpt lat="43.96835" lon="1.98827">
        <ele>223.089012</ele>
        <time>2026-08-29T13:19:46Z</time>
      </trkpt>
      <trkpt lat="43.96837" lon="1.98825">
        <ele>223.265208</ele>
        <time>2026-08-29T13:19:47Z</time>
      </trkpt>
      <trkpt lat="43.9684" lon="1.98824">
        <ele>223.466761</ele>
        <time>2026-08-29T13:19:48Z</time>
      </trkpt>
      <trkpt lat="43.96842" lon="1.98823">
        <ele>223.647172</ele>
        <time>2026-08-29T13:19:49Z</time>
      </trkpt>
      <trkpt lat="43.96844" lon="1.98822">
        <ele>223.800283</ele>
        <time>2026-08-29T13:19:50Z</time>
      </trkpt>
      <trkpt lat="43.96847" lon="1.98821">
        <ele>223.969002</ele>
        <time>2026-08-29T13:19:51Z</time>
      </trkpt>
      <trkpt lat="43.96849" lon="1.9882">
        <ele>224.127246</ele>
        <time>2026-08-29T13:19:52Z</time>
      </trkpt>
      <trkpt lat="43.96851" lon="1.98819">
        <ele>224.285489</ele>
        <time>2026-08-29T13:19:53Z</time>
      </trkpt>
      <trkpt lat="43.96853" lon="1.98818">
        <ele>224.440149</ele>
        <time>2026-08-29T13:19:54Z</time>
      </trkpt>
      <trkpt lat="43.96854" lon="1.98818">
        <ele>224.580329</ele>
        <time>2026-08-29T13:19:55Z</time>
      </trkpt>
      <trkpt lat="43.96857" lon="1.98819">
        <ele>224.735183</ele>
        <time>2026-08-29T13:19:56Z</time>
      </trkpt>
      <trkpt lat="43.96859" lon="1.98818">
        <ele>224.905133</ele>
        <time>2026-08-29T13:19:57Z</time>
      </trkpt>
      <trkpt lat="43.9686" lon="1.98818">
        <ele>225.030231</ele>
        <time>2026-08-29T13:19:58Z</time>
      </trkpt>
      <trkpt lat="43.96862" lon="1.98817">
        <ele>225.143714</ele>
        <time>2026-08-29T13:19:59Z</time>
      </trkpt>
      <trkpt lat="43.96864" lon="1.98816">
        <ele>225.279893</ele>
        <time>2026-08-29T13:20:00Z</time>
      </trkpt>
      <trkpt lat="43.96866" lon="1.98816">
        <ele>225.427572</ele>
        <time>2026-08-29T13:20:01Z</time>
      </trkpt>
      <trkpt lat="43.96867" lon="1.98815">
        <ele>225.563751</ele>
        <time>2026-08-29T13:20:02Z</time>
      </trkpt>
      <trkpt lat="43.9687" lon="1.98815">
        <ele>225.718243</ele>
        <time>2026-08-29T13:20:03Z</time>
      </trkpt>
      <trkpt lat="43.96872" lon="1.98815">
        <ele>225.882243</ele>
        <time>2026-08-29T13:20:04Z</time>
      </trkpt>
      <trkpt lat="43.96874" lon="1.98816">
        <ele>226.022423</ele>
        <time>2026-08-29T13:20:05Z</time>
      </trkpt>
      <trkpt lat="43.96875" lon="1.98815">
        <ele>226.158602</ele>
        <time>2026-08-29T13:20:06Z</time>
      </trkpt>
      <trkpt lat="43.96877" lon="1.98814">
        <ele>226.289044</ele>
        <time>2026-08-29T13:20:07Z</time>
      </trkpt>
      <trkpt lat="43.96879" lon="1.98814">
        <ele>226.409692</ele>
        <time>2026-08-29T13:20:08Z</time>
      </trkpt>
      <trkpt lat="43.9688" lon="1.98814">
        <ele>226.520044</ele>
        <time>2026-08-29T13:20:09Z</time>
      </trkpt>
      <trkpt lat="43.96882" lon="1.98814">
        <ele>226.623039</ele>
        <time>2026-08-29T13:20:10Z</time>
      </trkpt>
      <trkpt lat="43.96883" lon="1.98814">
        <ele>226.741223</ele>
        <time>2026-08-29T13:20:11Z</time>
      </trkpt>
      <trkpt lat="43.96884" lon="1.98814">
        <ele>226.823691</ele>
        <time>2026-08-29T13:20:12Z</time>
      </trkpt>
      <trkpt lat="43.96886" lon="1.98815">
        <ele>226.921646</ele>
        <time>2026-08-29T13:20:13Z</time>
      </trkpt>
      <trkpt lat="43.96887" lon="1.98816">
        <ele>227.039848</ele>
        <time>2026-08-29T13:20:14Z</time>
      </trkpt>
      <trkpt lat="43.96889" lon="1.98816">
        <ele>227.149309</ele>
        <time>2026-08-29T13:20:15Z</time>
      </trkpt>
      <trkpt lat="43.9689" lon="1.98817">
        <ele>227.241474</ele>
        <time>2026-08-29T13:20:16Z</time>
      </trkpt>
      <trkpt lat="43.96891" lon="1.98816">
        <ele>227.316737</ele>
        <time>2026-08-29T13:20:17Z</time>
      </trkpt>
      <trkpt lat="43.96892" lon="1.98817">
        <ele>227.397835</ele>
        <time>2026-08-29T13:20:18Z</time>
      </trkpt>
      <trkpt lat="43.96893" lon="1.98817">
        <ele>227.501373</ele>
        <time>2026-08-29T13:20:19Z</time>
      </trkpt>
      <trkpt lat="43.96895" lon="1.98817">
        <ele>227.626885</ele>
        <time>2026-08-29T13:20:20Z</time>
      </trkpt>
      <trkpt lat="43.96897" lon="1.98817">
        <ele>227.76099</ele>
        <time>2026-08-29T13:20:21Z</time>
      </trkpt>
      <trkpt lat="43.96899" lon="1.98817">
        <ele>227.908126</ele>
        <time>2026-08-29T13:20:22Z</time>
      </trkpt>
      <trkpt lat="43.96901" lon="1.98818">
        <ele>228.04097</ele>
        <time>2026-08-29T13:20:23Z</time>
      </trkpt>
      <trkpt lat="43.96902" lon="1.98818">
        <ele>228.155804</ele>
        <time>2026-08-29T13:20:24Z</time>
      </trkpt>
      <trkpt lat="43.96903" lon="1.98819">
        <ele>228.253011</ele>
        <time>2026-08-29T13:20:25Z</time>
      </trkpt>
      <trkpt lat="43.96904" lon="1.98821">
        <ele>228.334797</ele>
        <time>2026-08-29T13:20:26Z</time>
      </trkpt>
      <trkpt lat="43.96904" lon="1.98822">
        <ele>228.417549</ele>
        <time>2026-08-29T13:20:27Z</time>
      </trkpt>
      <trkpt lat="43.96905" lon="1.98823">
        <ele>228.505075</ele>
        <time>2026-08-29T13:20:28Z</time>
      </trkpt>
      <trkpt lat="43.96905" lon="1.98825">
        <ele>228.600602</ele>
        <time>2026-08-29T13:20:29Z</time>
      </trkpt>
      <trkpt lat="43.96906" lon="1.98826">
        <ele>228.677967</ele>
        <time>2026-08-29T13:20:30Z</time>
      </trkpt>
      <trkpt lat="43.96906" lon="1.98827">
        <ele>228.695472</ele>
        <time>2026-08-29T13:20:31Z</time>
      </trkpt>
      <trkpt lat="43.96906" lon="1.98826">
        <ele>228.728081</ele>
        <time>2026-08-29T13:20:32Z</time>
      </trkpt>
      <trkpt lat="43.96906" lon="1.98825">
        <ele>228.765868</ele>
        <time>2026-08-29T13:20:33Z</time>
      </trkpt>
      <trkpt lat="43.96909" lon="1.98857">
        <ele>229.969955</ele>
        <time>2026-08-29T13:24:20Z</time>
      </trkpt>
      <trkpt lat="43.96908" lon="1.98859">
        <ele>230.01953</ele>
        <time>2026-08-29T13:24:21Z</time>
      </trkpt>
      <trkpt lat="43.96908" lon="1.98861">
        <ele>230.08186</ele>
        <time>2026-08-29T13:24:22Z</time>
      </trkpt>
      <trkpt lat="43.96908" lon="1.98863">
        <ele>230.152986</ele>
        <time>2026-08-29T13:24:23Z</time>
      </trkpt>
      <trkpt lat="43.96908" lon="1.98866">
        <ele>230.230632</ele>
        <time>2026-08-29T13:24:24Z</time>
      </trkpt>
      <trkpt lat="43.96908" lon="1.98868">
        <ele>230.29602</ele>
        <time>2026-08-29T13:24:25Z</time>
      </trkpt>
      <trkpt lat="43.96907" lon="1.98869">
        <ele>230.353819</ele>
        <time>2026-08-29T13:24:26Z</time>
      </trkpt>
      <trkpt lat="43.96907" lon="1.98871">
        <ele>230.422268</ele>
        <time>2026-08-29T13:24:27Z</time>
      </trkpt>
      <trkpt lat="43.96906" lon="1.98873">
        <ele>230.486344</ele>
        <time>2026-08-29T13:24:28Z</time>
      </trkpt>
      <trkpt lat="43.96906" lon="1.98875">
        <ele>230.545618</ele>
        <time>2026-08-29T13:24:29Z</time>
      </trkpt>
      <trkpt lat="43.96906" lon="1.98878">
        <ele>230.613663</ele>
        <time>2026-08-29T13:24:30Z</time>
      </trkpt>
      <trkpt lat="43.96906" lon="1.98879">
        <ele>230.659966</ele>
        <time>2026-08-29T13:24:31Z</time>
      </trkpt>
      <trkpt lat="43.96906" lon="1.9888">
        <ele>230.697008</ele>
        <time>2026-08-29T13:24:32Z</time>
      </trkpt>
      <trkpt lat="43.96906" lon="1.98882">
        <ele>230.741066</ele>
        <time>2026-08-29T13:24:33Z</time>
      </trkpt>
      <trkpt lat="43.96905" lon="1.98883">
        <ele>230.800624</ele>
        <time>2026-08-29T13:24:34Z</time>
      </trkpt>
      <trkpt lat="43.96905" lon="1.98886">
        <ele>230.867679</ele>
        <time>2026-08-29T13:24:35Z</time>
      </trkpt>
      <trkpt lat="43.96904" lon="1.98887">
        <ele>230.932823</ele>
        <time>2026-08-29T13:24:36Z</time>
      </trkpt>
      <trkpt lat="43.96904" lon="1.9889">
        <ele>231.011249</ele>
        <time>2026-08-29T13:24:37Z</time>
      </trkpt>
      <trkpt lat="43.96902" lon="1.98892">
        <ele>231.104346</ele>
        <time>2026-08-29T13:24:38Z</time>
      </trkpt>
      <trkpt lat="43.96902" lon="1.98895">
        <ele>231.181471</ele>
        <time>2026-08-29T13:24:39Z</time>
      </trkpt>
      <trkpt lat="43.96901" lon="1.98897">
        <ele>231.270523</ele>
        <time>2026-08-29T13:24:40Z</time>
      </trkpt>
      <trkpt lat="43.96901" lon="1.989">
        <ele>231.344688</ele>
        <time>2026-08-29T13:24:41Z</time>
      </trkpt>
      <trkpt lat="43.969" lon="1.98902">
        <ele>231.421813</ele>
        <time>2026-08-29T13:24:42Z</time>
      </trkpt>
      <trkpt lat="43.969" lon="1.98904">
        <ele>231.490092</ele>
        <time>2026-08-29T13:24:43Z</time>
      </trkpt>
      <trkpt lat="43.969" lon="1.98906">
        <ele>231.550136</ele>
        <time>2026-08-29T13:24:44Z</time>
      </trkpt>
      <trkpt lat="43.96899" lon="1.98908">
        <ele>231.626222</ele>
        <time>2026-08-29T13:24:45Z</time>
      </trkpt>
      <trkpt lat="43.96898" lon="1.9891">
        <ele>231.688907</ele>
        <time>2026-08-29T13:24:46Z</time>
      </trkpt>
      <trkpt lat="43.96897" lon="1.98912">
        <ele>231.761797</ele>
        <time>2026-08-29T13:24:47Z</time>
      </trkpt>
      <trkpt lat="43.96896" lon="1.98914">
        <ele>231.842609</ele>
        <time>2026-08-29T13:24:48Z</time>
      </trkpt>
      <trkpt lat="43.96895" lon="1.98916">
        <ele>231.928213</ele>
        <time>2026-08-29T13:24:49Z</time>
      </trkpt>
      <trkpt lat="43.96894" lon="1.98919">
        <ele>232.029402</ele>
        <time>2026-08-29T13:24:50Z</time>
      </trkpt>
      <trkpt lat="43.96893" lon="1.98921">
        <ele>232.102746</ele>
        <time>2026-08-29T13:24:51Z</time>
      </trkpt>
      <trkpt lat="43.96892" lon="1.98923">
        <ele>232.16789</ele>
        <time>2026-08-29T13:24:52Z</time>
      </trkpt>
      <trkpt lat="43.96892" lon="1.98925">
        <ele>232.234776</ele>
        <time>2026-08-29T13:24:53Z</time>
      </trkpt>
      <trkpt lat="43.96891" lon="1.98927">
        <ele>232.289956</ele>
        <time>2026-08-29T13:24:54Z</time>
      </trkpt>
      <trkpt lat="43.9689" lon="1.98928">
        <ele>232.365226</ele>
        <time>2026-08-29T13:24:55Z</time>
      </trkpt>
      <trkpt lat="43.96889" lon="1.9893">
        <ele>232.427911</ele>
        <time>2026-08-29T13:24:56Z</time>
      </trkpt>
      <trkpt lat="43.96888" lon="1.98932">
        <ele>232.493266</ele>
        <time>2026-08-29T13:24:57Z</time>
      </trkpt>
      <trkpt lat="43.96887" lon="1.98934">
        <ele>232.563897</ele>
        <time>2026-08-29T13:24:58Z</time>
      </trkpt>
      <trkpt lat="43.96887" lon="1.98936">
        <ele>232.634527</ele>
        <time>2026-08-29T13:24:59Z</time>
      </trkpt>
      <trkpt lat="43.96886" lon="1.98938">
        <ele>232.705158</ele>
        <time>2026-08-29T13:25:00Z</time>
      </trkpt>
      <trkpt lat="43.96885" lon="1.9894">
        <ele>232.779323</ele>
        <time>2026-08-29T13:25:01Z</time>
      </trkpt>
      <trkpt lat="43.96885" lon="1.98943">
        <ele>232.866608</ele>
        <time>2026-08-29T13:25:02Z</time>
      </trkpt>
      <trkpt lat="43.96883" lon="1.98945">
        <ele>232.959592</ele>
        <time>2026-08-29T13:25:03Z</time>
      </trkpt>
      <trkpt lat="43.96882" lon="1.98948">
        <ele>233.057711</ele>
        <time>2026-08-29T13:25:04Z</time>
      </trkpt>
      <trkpt lat="43.9688" lon="1.9895">
        <ele>233.167844</ele>
        <time>2026-08-29T13:25:05Z</time>
      </trkpt>
      <trkpt lat="43.96878" lon="1.98952">
        <ele>233.277976</ele>
        <time>2026-08-29T13:25:06Z</time>
      </trkpt>
      <trkpt lat="43.96876" lon="1.98955">
        <ele>233.391054</ele>
        <time>2026-08-29T13:25:07Z</time>
      </trkpt>
      <trkpt lat="43.96874" lon="1.98958">
        <ele>233.499486</ele>
        <time>2026-08-29T13:25:08Z</time>
      </trkpt>
      <trkpt lat="43.96873" lon="1.9896">
        <ele>233.609618</ele>
        <time>2026-08-29T13:25:09Z</time>
      </trkpt>
      <trkpt lat="43.96871" lon="1.98964">
        <ele>233.732442</ele>
        <time>2026-08-29T13:25:10Z</time>
      </trkpt>
      <trkpt lat="43.96869" lon="1.98967">
        <ele>233.850324</ele>
        <time>2026-08-29T13:25:11Z</time>
      </trkpt>
      <trkpt lat="43.96868" lon="1.9897">
        <ele>233.978118</ele>
        <time>2026-08-29T13:25:12Z</time>
      </trkpt>
      <trkpt lat="43.96866" lon="1.98973">
        <ele>234.103389</ele>
        <time>2026-08-29T13:25:13Z</time>
      </trkpt>
      <trkpt lat="43.96865" lon="1.98977">
        <ele>234.226994</ele>
        <time>2026-08-29T13:25:14Z</time>
      </trkpt>
      <trkpt lat="43.96863" lon="1.98981">
        <ele>234.358769</ele>
        <time>2026-08-29T13:25:15Z</time>
      </trkpt>
      <trkpt lat="43.96862" lon="1.98985">
        <ele>234.497998</ele>
        <time>2026-08-29T13:25:16Z</time>
      </trkpt>
      <trkpt lat="43.9686" lon="1.98989">
        <ele>234.632529</ele>
        <time>2026-08-29T13:25:17Z</time>
      </trkpt>
      <trkpt lat="43.96859" lon="1.98993">
        <ele>234.767059</ele>
        <time>2026-08-29T13:25:18Z</time>
      </trkpt>
      <trkpt lat="43.96858" lon="1.98997">
        <ele>234.91839</ele>
        <time>2026-08-29T13:25:19Z</time>
      </trkpt>
      <trkpt lat="43.96856" lon="1.99">
        <ele>235.038871</ele>
        <time>2026-08-29T13:25:20Z</time>
      </trkpt>
      <trkpt lat="43.96855" lon="1.99003">
        <ele>235.13665</ele>
        <time>2026-08-29T13:25:21Z</time>
      </trkpt>
      <trkpt lat="43.96853" lon="1.99006">
        <ele>235.247019</ele>
        <time>2026-08-29T13:25:22Z</time>
      </trkpt>
      <trkpt lat="43.96852" lon="1.99008">
        <ele>235.329966</ele>
        <time>2026-08-29T13:25:23Z</time>
      </trkpt>
      <trkpt lat="43.96851" lon="1.9901">
        <ele>235.42295</ele>
        <time>2026-08-29T13:25:24Z</time>
      </trkpt>
      <trkpt lat="43.96849" lon="1.99012">
        <ele>235.509072</ele>
        <time>2026-08-29T13:25:25Z</time>
      </trkpt>
      <trkpt lat="43.96848" lon="1.99015">
        <ele>235.605617</ele>
        <time>2026-08-29T13:25:26Z</time>
      </trkpt>
      <trkpt lat="43.96846" lon="1.99017">
        <ele>235.707853</ele>
        <time>2026-08-29T13:25:27Z</time>
      </trkpt>
      <trkpt lat="43.96844" lon="1.99019">
        <ele>235.814851</ele>
        <time>2026-08-29T13:25:28Z</time>
      </trkpt>
      <trkpt lat="43.96843" lon="1.99022">
        <ele>235.917711</ele>
        <time>2026-08-29T13:25:29Z</time>
      </trkpt>
      <trkpt lat="43.96841" lon="1.99024">
        <ele>236.018182</ele>
        <time>2026-08-29T13:25:30Z</time>
      </trkpt>
      <trkpt lat="43.9684" lon="1.99027">
        <ele>236.121043</ele>
        <time>2026-08-29T13:25:31Z</time>
      </trkpt>
      <trkpt lat="43.96838" lon="1.99029">
        <ele>236.229475</ele>
        <time>2026-08-29T13:25:32Z</time>
      </trkpt>
      <trkpt lat="43.96836" lon="1.99032">
        <ele>236.337436</ele>
        <time>2026-08-29T13:25:33Z</time>
      </trkpt>
      <trkpt lat="43.96835" lon="1.99034">
        <ele>236.441382</ele>
        <time>2026-08-29T13:25:34Z</time>
      </trkpt>
      <trkpt lat="43.96833" lon="1.99037">
        <ele>236.54838</ele>
        <time>2026-08-29T13:25:35Z</time>
      </trkpt>
      <trkpt lat="43.96831" lon="1.9904">
        <ele>236.664944</ele>
        <time>2026-08-29T13:25:36Z</time>
      </trkpt>
      <trkpt lat="43.96829" lon="1.99042">
        <ele>236.77855</ele>
        <time>2026-08-29T13:25:37Z</time>
      </trkpt>
      <trkpt lat="43.96827" lon="1.99044">
        <ele>236.894805</ele>
        <time>2026-08-29T13:25:38Z</time>
      </trkpt>
      <trkpt lat="43.96825" lon="1.99046">
        <ele>236.999302</ele>
        <time>2026-08-29T13:25:39Z</time>
      </trkpt>
      <trkpt lat="43.96823" lon="1.99048">
        <ele>237.029922</ele>
        <time>2026-08-29T13:25:40Z</time>
      </trkpt>
      <trkpt lat="43.96821" lon="1.99051">
        <ele>237.063149</ele>
        <time>2026-08-29T13:25:41Z</time>
      </trkpt>
      <trkpt lat="43.96818" lon="1.99053">
        <ele>237.100565</ele>
        <time>2026-08-29T13:25:42Z</time>
      </trkpt>
      <trkpt lat="43.96816" lon="1.99056">
        <ele>237.133404</ele>
        <time>2026-08-29T13:25:43Z</time>
      </trkpt>
      <trkpt lat="43.96815" lon="1.99058">
        <ele>237.158032</ele>
        <time>2026-08-29T13:25:44Z</time>
      </trkpt>
      <trkpt lat="43.96814" lon="1.9906">
        <ele>237.183835</ele>
        <time>2026-08-29T13:25:45Z</time>
      </trkpt>
      <trkpt lat="43.96814" lon="1.99064">
        <ele>237.216926</ele>
        <time>2026-08-29T13:25:46Z</time>
      </trkpt>
      <trkpt lat="43.96814" lon="1.99068">
        <ele>237.254571</ele>
        <time>2026-08-29T13:25:47Z</time>
      </trkpt>
      <trkpt lat="43.96814" lon="1.99072">
        <ele>237.288579</ele>
        <time>2026-08-29T13:25:48Z</time>
      </trkpt>
      <trkpt lat="43.96814" lon="1.99076">
        <ele>237.325268</ele>
        <time>2026-08-29T13:25:49Z</time>
      </trkpt>
      <trkpt lat="43.96814" lon="1.9908">
        <ele>237.362126</ele>
        <time>2026-08-29T13:25:50Z</time>
      </trkpt>
      <trkpt lat="43.96813" lon="1.99084">
        <ele>237.397554</ele>
        <time>2026-08-29T13:25:51Z</time>
      </trkpt>
      <trkpt lat="43.96812" lon="1.99088">
        <ele>237.434183</ele>
        <time>2026-08-29T13:25:52Z</time>
      </trkpt>
      <trkpt lat="43.96811" lon="1.99092">
        <ele>237.468735</ele>
        <time>2026-08-29T13:25:53Z</time>
      </trkpt>
      <trkpt lat="43.96811" lon="1.99096">
        <ele>237.508163</ele>
        <time>2026-08-29T13:25:54Z</time>
      </trkpt>
      <trkpt lat="43.9681" lon="1.991">
        <ele>237.545167</ele>
        <time>2026-08-29T13:25:55Z</time>
      </trkpt>
      <trkpt lat="43.9681" lon="1.99105">
        <ele>237.587366</ele>
        <time>2026-08-29T13:25:56Z</time>
      </trkpt>
      <trkpt lat="43.9681" lon="1.99109">
        <ele>237.629694</ele>
        <time>2026-08-29T13:25:57Z</time>
      </trkpt>
      <trkpt lat="43.96809" lon="1.99114">
        <ele>237.667767</ele>
        <time>2026-08-29T13:25:58Z</time>
      </trkpt>
      <trkpt lat="43.96809" lon="1.99118">
        <ele>237.704076</ele>
        <time>2026-08-29T13:25:59Z</time>
      </trkpt>
      <trkpt lat="43.96808" lon="1.99122">
        <ele>237.741558</ele>
        <time>2026-08-29T13:26:00Z</time>
      </trkpt>
      <trkpt lat="43.96807" lon="1.99125">
        <ele>237.775905</ele>
        <time>2026-08-29T13:26:01Z</time>
      </trkpt>
      <trkpt lat="43.96807" lon="1.9913">
        <ele>237.813096</ele>
        <time>2026-08-29T13:26:02Z</time>
      </trkpt>
      <trkpt lat="43.96806" lon="1.99134">
        <ele>237.854404</ele>
        <time>2026-08-29T13:26:03Z</time>
      </trkpt>
      <trkpt lat="43.96806" lon="1.99139">
        <ele>237.895579</ele>
        <time>2026-08-29T13:26:04Z</time>
      </trkpt>
      <trkpt lat="43.96805" lon="1.99143">
        <ele>237.937035</ele>
        <time>2026-08-29T13:26:05Z</time>
      </trkpt>
      <trkpt lat="43.96804" lon="1.99147">
        <ele>237.979244</ele>
        <time>2026-08-29T13:26:06Z</time>
      </trkpt>
      <trkpt lat="43.96802" lon="1.99151">
        <ele>238.019392</ele>
        <time>2026-08-29T13:26:07Z</time>
      </trkpt>
      <trkpt lat="43.968" lon="1.99155">
        <ele>238.060836</ele>
        <time>2026-08-29T13:26:08Z</time>
      </trkpt>
      <trkpt lat="43.96798" lon="1.99158">
        <ele>238.100414</ele>
        <time>2026-08-29T13:26:09Z</time>
      </trkpt>
      <trkpt lat="43.96795" lon="1.99161">
        <ele>238.145098</ele>
        <time>2026-08-29T13:26:10Z</time>
      </trkpt>
      <trkpt lat="43.96792" lon="1.99164">
        <ele>238.188058</ele>
        <time>2026-08-29T13:26:11Z</time>
      </trkpt>
      <trkpt lat="43.9679" lon="1.99168">
        <ele>238.232157</ele>
        <time>2026-08-29T13:26:12Z</time>
      </trkpt>
      <trkpt lat="43.96787" lon="1.99171">
        <ele>238.276704</ele>
        <time>2026-08-29T13:26:13Z</time>
      </trkpt>
      <trkpt lat="43.96784" lon="1.99175">
        <ele>238.32259</ele>
        <time>2026-08-29T13:26:14Z</time>
      </trkpt>
      <trkpt lat="43.96782" lon="1.99177">
        <ele>238.365477</ele>
        <time>2026-08-29T13:26:15Z</time>
      </trkpt>
      <trkpt lat="43.96779" lon="1.9918">
        <ele>238.407884</ele>
        <time>2026-08-29T13:26:16Z</time>
      </trkpt>
      <trkpt lat="43.96776" lon="1.99184">
        <ele>238.449218</ele>
        <time>2026-08-29T13:26:17Z</time>
      </trkpt>
      <trkpt lat="43.96774" lon="1.99187">
        <ele>238.491791</ele>
        <time>2026-08-29T13:26:18Z</time>
      </trkpt>
      <trkpt lat="43.96771" lon="1.9919">
        <ele>238.535315</ele>
        <time>2026-08-29T13:26:19Z</time>
      </trkpt>
      <trkpt lat="43.96768" lon="1.99193">
        <ele>238.580243</ele>
        <time>2026-08-29T13:26:20Z</time>
      </trkpt>
      <trkpt lat="43.96766" lon="1.99196">
        <ele>238.621327</ele>
        <time>2026-08-29T13:26:21Z</time>
      </trkpt>
      <trkpt lat="43.96764" lon="1.99199">
        <ele>238.661556</ele>
        <time>2026-08-29T13:26:22Z</time>
      </trkpt>
      <trkpt lat="43.96761" lon="1.99203">
        <ele>238.704148</ele>
        <time>2026-08-29T13:26:23Z</time>
      </trkpt>
      <trkpt lat="43.96759" lon="1.99206">
        <ele>238.748516</ele>
        <time>2026-08-29T13:26:24Z</time>
      </trkpt>
      <trkpt lat="43.96756" lon="1.9921">
        <ele>238.792617</ele>
        <time>2026-08-29T13:26:25Z</time>
      </trkpt>
      <trkpt lat="43.96754" lon="1.99213">
        <ele>238.837602</ele>
        <time>2026-08-29T13:26:26Z</time>
      </trkpt>
      <trkpt lat="43.96751" lon="1.99216">
        <ele>238.880452</ele>
        <time>2026-08-29T13:26:27Z</time>
      </trkpt>
      <trkpt lat="43.96749" lon="1.9922">
        <ele>238.923044</ele>
        <time>2026-08-29T13:26:28Z</time>
      </trkpt>
      <trkpt lat="43.96746" lon="1.99223">
        <ele>238.964128</ele>
        <time>2026-08-29T13:26:29Z</time>
      </trkpt>
      <trkpt lat="43.96744" lon="1.99226">
        <ele>239.004848</ele>
        <time>2026-08-29T13:26:30Z</time>
      </trkpt>
      <trkpt lat="43.96742" lon="1.99229">
        <ele>239.044667</ele>
        <time>2026-08-29T13:26:31Z</time>
      </trkpt>
      <trkpt lat="43.96739" lon="1.99232">
        <ele>239.086305</ele>
        <time>2026-08-29T13:26:32Z</time>
      </trkpt>
      <trkpt lat="43.96737" lon="1.99235">
        <ele>239.125829</ele>
        <time>2026-08-29T13:26:33Z</time>
      </trkpt>
      <trkpt lat="43.96734" lon="1.99238">
        <ele>239.166298</ele>
        <time>2026-08-29T13:26:34Z</time>
      </trkpt>
      <trkpt lat="43.96732" lon="1.99241">
        <ele>239.209166</ele>
        <time>2026-08-29T13:26:35Z</time>
      </trkpt>
      <trkpt lat="43.96729" lon="1.99244">
        <ele>239.259686</ele>
        <time>2026-08-29T13:26:36Z</time>
      </trkpt>
      <trkpt lat="43.96726" lon="1.99247">
        <ele>239.317108</ele>
        <time>2026-08-29T13:26:37Z</time>
      </trkpt>
      <trkpt lat="43.96723" lon="1.99249">
        <ele>239.373165</ele>
        <time>2026-08-29T13:26:38Z</time>
      </trkpt>
      <trkpt lat="43.9672" lon="1.99252">
        <ele>239.427171</ele>
        <time>2026-08-29T13:26:39Z</time>
      </trkpt>
      <trkpt lat="43.96718" lon="1.99254">
        <ele>239.482571</ele>
        <time>2026-08-29T13:26:40Z</time>
      </trkpt>
      <trkpt lat="43.96715" lon="1.99256">
        <ele>239.536112</ele>
        <time>2026-08-29T13:26:41Z</time>
      </trkpt>
      <trkpt lat="43.96712" lon="1.99259">
        <ele>239.590545</ele>
        <time>2026-08-29T13:26:42Z</time>
      </trkpt>
      <trkpt lat="43.96709" lon="1.99261">
        <ele>239.645306</ele>
        <time>2026-08-29T13:26:43Z</time>
      </trkpt>
      <trkpt lat="43.96706" lon="1.99263">
        <ele>239.700887</ele>
        <time>2026-08-29T13:26:44Z</time>
      </trkpt>
      <trkpt lat="43.96703" lon="1.99265">
        <ele>239.757351</ele>
        <time>2026-08-29T13:26:45Z</time>
      </trkpt>
      <trkpt lat="43.967" lon="1.99268">
        <ele>239.814383</ele>
        <time>2026-08-29T13:26:46Z</time>
      </trkpt>
      <trkpt lat="43.96697" lon="1.9927">
        <ele>239.871114</ele>
        <time>2026-08-29T13:26:47Z</time>
      </trkpt>
      <trkpt lat="43.96695" lon="1.99273">
        <ele>239.927193</ele>
        <time>2026-08-29T13:26:48Z</time>
      </trkpt>
      <trkpt lat="43.96692" lon="1.99276">
        <ele>239.984</ele>
        <time>2026-08-29T13:26:49Z</time>
      </trkpt>
      <trkpt lat="43.96689" lon="1.99278">
        <ele>240.040807</ele>
        <time>2026-08-29T13:26:50Z</time>
      </trkpt>
      <trkpt lat="43.96686" lon="1.99281">
        <ele>240.098254</ele>
        <time>2026-08-29T13:26:51Z</time>
      </trkpt>
      <trkpt lat="43.96683" lon="1.99284">
        <ele>240.153751</ele>
        <time>2026-08-29T13:26:52Z</time>
      </trkpt>
      <trkpt lat="43.96681" lon="1.99287">
        <ele>240.213224</ele>
        <time>2026-08-29T13:26:53Z</time>
      </trkpt>
      <trkpt lat="43.96678" lon="1.99289">
        <ele>240.272005</ele>
        <time>2026-08-29T13:26:54Z</time>
      </trkpt>
      <trkpt lat="43.96675" lon="1.99292">
        <ele>240.332161</ele>
        <time>2026-08-29T13:26:55Z</time>
      </trkpt>
      <trkpt lat="43.96672" lon="1.99295">
        <ele>240.391656</ele>
        <time>2026-08-29T13:26:56Z</time>
      </trkpt>
      <trkpt lat="43.96669" lon="1.99298">
        <ele>240.451129</ele>
        <time>2026-08-29T13:26:57Z</time>
      </trkpt>
      <trkpt lat="43.96666" lon="1.99301">
        <ele>240.511961</ele>
        <time>2026-08-29T13:26:58Z</time>
      </trkpt>
      <trkpt lat="43.96663" lon="1.99304">
        <ele>240.573485</ele>
        <time>2026-08-29T13:26:59Z</time>
      </trkpt>
      <trkpt lat="43.9666" lon="1.99307">
        <ele>240.63334</ele>
        <time>2026-08-29T13:27:00Z</time>
      </trkpt>
      <trkpt lat="43.96658" lon="1.9931">
        <ele>240.688707</ele>
        <time>2026-08-29T13:27:01Z</time>
      </trkpt>
      <trkpt lat="43.96655" lon="1.99314">
        <ele>240.745759</ele>
        <time>2026-08-29T13:27:02Z</time>
      </trkpt>
      <trkpt lat="43.96653" lon="1.99317">
        <ele>240.804184</ele>
        <time>2026-08-29T13:27:03Z</time>
      </trkpt>
      <trkpt lat="43.96651" lon="1.99321">
        <ele>240.86765</ele>
        <time>2026-08-29T13:27:04Z</time>
      </trkpt>
      <trkpt lat="43.96648" lon="1.99326">
        <ele>240.935114</ele>
        <time>2026-08-29T13:27:05Z</time>
      </trkpt>
      <trkpt lat="43.96646" lon="1.9933">
        <ele>240.99739</ele>
        <time>2026-08-29T13:27:06Z</time>
      </trkpt>
      <trkpt lat="43.96643" lon="1.99334">
        <ele>241.059621</ele>
        <time>2026-08-29T13:27:07Z</time>
      </trkpt>
      <trkpt lat="43.96641" lon="1.99338">
        <ele>241.127723</ele>
        <time>2026-08-29T13:27:08Z</time>
      </trkpt>
      <trkpt lat="43.96638" lon="1.99343">
        <ele>241.200659</ele>
        <time>2026-08-29T13:27:09Z</time>
      </trkpt>
      <trkpt lat="43.96636" lon="1.99349">
        <ele>241.274802</ele>
        <time>2026-08-29T13:27:10Z</time>
      </trkpt>
      <trkpt lat="43.96634" lon="1.99354">
        <ele>241.345009</ele>
        <time>2026-08-29T13:27:11Z</time>
      </trkpt>
      <trkpt lat="43.96632" lon="1.9936">
        <ele>241.419423</ele>
        <time>2026-08-29T13:27:12Z</time>
      </trkpt>
      <trkpt lat="43.96632" lon="1.99365">
        <ele>241.488987</ele>
        <time>2026-08-29T13:27:13Z</time>
      </trkpt>
      <trkpt lat="43.96634" lon="1.99371">
        <ele>241.561763</ele>
        <time>2026-08-29T13:27:14Z</time>
      </trkpt>
      <trkpt lat="43.96637" lon="1.99375">
        <ele>241.63063</ele>
        <time>2026-08-29T13:27:15Z</time>
      </trkpt>
      <trkpt lat="43.9664" lon="1.99378">
        <ele>241.697854</ele>
        <time>2026-08-29T13:27:16Z</time>
      </trkpt>
      <trkpt lat="43.96644" lon="1.9938">
        <ele>241.761954</ele>
        <time>2026-08-29T13:27:17Z</time>
      </trkpt>
      <trkpt lat="43.96647" lon="1.99382">
        <ele>241.824074</ele>
        <time>2026-08-29T13:27:18Z</time>
      </trkpt>
      <trkpt lat="43.96651" lon="1.99384">
        <ele>241.889536</ele>
        <time>2026-08-29T13:27:19Z</time>
      </trkpt>
      <trkpt lat="43.96654" lon="1.99386">
        <ele>241.953013</ele>
        <time>2026-08-29T13:27:20Z</time>
      </trkpt>
      <trkpt lat="43.96658" lon="1.99388">
        <ele>242.014469</ele>
        <time>2026-08-29T13:27:21Z</time>
      </trkpt>
      <trkpt lat="43.96661" lon="1.9939">
        <ele>242.072393</ele>
        <time>2026-08-29T13:27:22Z</time>
      </trkpt>
      <trkpt lat="43.96664" lon="1.99392">
        <ele>242.129798</ele>
        <time>2026-08-29T13:27:23Z</time>
      </trkpt>
      <trkpt lat="43.96667" lon="1.99394">
        <ele>242.187262</ele>
        <time>2026-08-29T13:27:24Z</time>
      </trkpt>
      <trkpt lat="43.9667" lon="1.99396">
        <ele>242.243679</ele>
        <time>2026-08-29T13:27:25Z</time>
      </trkpt>
      <trkpt lat="43.96674" lon="1.99398">
        <ele>242.292203</ele>
        <time>2026-08-29T13:27:26Z</time>
      </trkpt>
      <trkpt lat="43.96677" lon="1.994">
        <ele>242.342535</ele>
        <time>2026-08-29T13:27:27Z</time>
      </trkpt>
      <trkpt lat="43.9668" lon="1.99402">
        <ele>242.394564</ele>
        <time>2026-08-29T13:27:28Z</time>
      </trkpt>
      <trkpt lat="43.96684" lon="1.99404">
        <ele>242.444896</ele>
        <time>2026-08-29T13:27:29Z</time>
      </trkpt>
      <trkpt lat="43.96687" lon="1.99406">
        <ele>242.494712</ele>
        <time>2026-08-29T13:27:30Z</time>
      </trkpt>
      <trkpt lat="43.9669" lon="1.99408">
        <ele>242.543237</ele>
        <time>2026-08-29T13:27:31Z</time>
      </trkpt>
      <trkpt lat="43.96693" lon="1.9941">
        <ele>242.59134</ele>
        <time>2026-08-29T13:27:32Z</time>
      </trkpt>
      <trkpt lat="43.96696" lon="1.99412">
        <ele>242.640304</ele>
        <time>2026-08-29T13:27:33Z</time>
      </trkpt>
      <trkpt lat="43.96699" lon="1.99414">
        <ele>242.68997</ele>
        <time>2026-08-29T13:27:34Z</time>
      </trkpt>
      <trkpt lat="43.96702" lon="1.99417">
        <ele>242.738423</ele>
        <time>2026-08-29T13:27:35Z</time>
      </trkpt>
      <trkpt lat="43.96705" lon="1.99419">
        <ele>242.783902</ele>
        <time>2026-08-29T13:27:36Z</time>
      </trkpt>
      <trkpt lat="43.96707" lon="1.99422">
        <ele>242.829491</ele>
        <time>2026-08-29T13:27:37Z</time>
      </trkpt>
      <trkpt lat="43.9671" lon="1.99425">
        <ele>242.875729</ele>
        <time>2026-08-29T13:27:38Z</time>
      </trkpt>
      <trkpt lat="43.96712" lon="1.99428">
        <ele>242.922953</ele>
        <time>2026-08-29T13:27:39Z</time>
      </trkpt>
      <trkpt lat="43.96714" lon="1.99431">
        <ele>242.968787</ele>
        <time>2026-08-29T13:27:40Z</time>
      </trkpt>
      <trkpt lat="43.96717" lon="1.99434">
        <ele>243.017046</ele>
        <time>2026-08-29T13:27:41Z</time>
      </trkpt>
      <trkpt lat="43.96719" lon="1.99438">
        <ele>243.065708</ele>
        <time>2026-08-29T13:27:42Z</time>
      </trkpt>
      <trkpt lat="43.96722" lon="1.99441">
        <ele>243.11585</ele>
        <time>2026-08-29T13:27:43Z</time>
      </trkpt>
      <trkpt lat="43.96724" lon="1.99445">
        <ele>243.169425</ele>
        <time>2026-08-29T13:27:44Z</time>
      </trkpt>
      <trkpt lat="43.96726" lon="1.99449">
        <ele>243.218466</ele>
        <time>2026-08-29T13:27:45Z</time>
      </trkpt>
      <trkpt lat="43.96729" lon="1.99453">
        <ele>243.269906</ele>
        <time>2026-08-29T13:27:46Z</time>
      </trkpt>
      <trkpt lat="43.96731" lon="1.99457">
        <ele>243.318029</ele>
        <time>2026-08-29T13:27:47Z</time>
      </trkpt>
      <trkpt lat="43.96733" lon="1.9946">
        <ele>243.364498</ele>
        <time>2026-08-29T13:27:48Z</time>
      </trkpt>
      <trkpt lat="43.96735" lon="1.99464">
        <ele>243.410968</ele>
        <time>2026-08-29T13:27:49Z</time>
      </trkpt>
      <trkpt lat="43.96737" lon="1.99468">
        <ele>243.460156</ele>
        <time>2026-08-29T13:27:50Z</time>
      </trkpt>
      <trkpt lat="43.96739" lon="1.99471">
        <ele>243.509113</ele>
        <time>2026-08-29T13:27:51Z</time>
      </trkpt>
      <trkpt lat="43.96742" lon="1.99474">
        <ele>243.560847</ele>
        <time>2026-08-29T13:27:52Z</time>
      </trkpt>
      <trkpt lat="43.96745" lon="1.99478">
        <ele>243.615811</ele>
        <time>2026-08-29T13:27:53Z</time>
      </trkpt>
      <trkpt lat="43.96748" lon="1.99481">
        <ele>243.677126</ele>
        <time>2026-08-29T13:27:54Z</time>
      </trkpt>
      <trkpt lat="43.96752" lon="1.99485">
        <ele>243.741466</ele>
        <time>2026-08-29T13:27:55Z</time>
      </trkpt>
      <trkpt lat="43.96756" lon="1.99489">
        <ele>243.805653</ele>
        <time>2026-08-29T13:27:56Z</time>
      </trkpt>
      <trkpt lat="43.96759" lon="1.99493">
        <ele>243.870463</ele>
        <time>2026-08-29T13:27:57Z</time>
      </trkpt>
      <trkpt lat="43.96763" lon="1.99497">
        <ele>243.932288</ele>
        <time>2026-08-29T13:27:58Z</time>
      </trkpt>
      <trkpt lat="43.96767" lon="1.995">
        <ele>243.999334</ele>
        <time>2026-08-29T13:27:59Z</time>
      </trkpt>
      <trkpt lat="43.9677" lon="1.99504">
        <ele>244.066379</ele>
        <time>2026-08-29T13:28:00Z</time>
      </trkpt>
      <trkpt lat="43.96774" lon="1.99508">
        <ele>244.134598</ele>
        <time>2026-08-29T13:28:01Z</time>
      </trkpt>
      <trkpt lat="43.96778" lon="1.99511">
        <ele>244.200513</ele>
        <time>2026-08-29T13:28:02Z</time>
      </trkpt>
      <trkpt lat="43.96782" lon="1.99515">
        <ele>244.262338</ele>
        <time>2026-08-29T13:28:03Z</time>
      </trkpt>
      <trkpt lat="43.96785" lon="1.99518">
        <ele>244.321811</ele>
        <time>2026-08-29T13:28:04Z</time>
      </trkpt>
      <trkpt lat="43.96789" lon="1.99522">
        <ele>244.38594</ele>
        <time>2026-08-29T13:28:05Z</time>
      </trkpt>
      <trkpt lat="43.96793" lon="1.99525">
        <ele>244.448919</ele>
        <time>2026-08-29T13:28:06Z</time>
      </trkpt>
      <trkpt lat="43.96796" lon="1.99529">
        <ele>244.51364</ele>
        <time>2026-08-29T13:28:07Z</time>
      </trkpt>
      <trkpt lat="43.968" lon="1.99533">
        <ele>244.57836</ele>
        <time>2026-08-29T13:28:08Z</time>
      </trkpt>
      <trkpt lat="43.96804" lon="1.99537">
        <ele>244.643081</ele>
        <time>2026-08-29T13:28:09Z</time>
      </trkpt>
      <trkpt lat="43.96807" lon="1.9954">
        <ele>244.705461</ele>
        <time>2026-08-29T13:28:10Z</time>
      </trkpt>
      <trkpt lat="43.96811" lon="1.99544">
        <ele>244.771936</ele>
        <time>2026-08-29T13:28:11Z</time>
      </trkpt>
      <trkpt lat="43.96815" lon="1.99547">
        <ele>244.727626</ele>
        <time>2026-08-29T13:28:12Z</time>
      </trkpt>
      <trkpt lat="43.96819" lon="1.99551">
        <ele>244.674773</ele>
        <time>2026-08-29T13:28:13Z</time>
      </trkpt>
      <trkpt lat="43.96823" lon="1.99555">
        <ele>244.619552</ele>
        <time>2026-08-29T13:28:14Z</time>
      </trkpt>
      <trkpt lat="43.96827" lon="1.99558">
        <ele>244.563847</ele>
        <time>2026-08-29T13:28:15Z</time>
      </trkpt>
      <trkpt lat="43.96831" lon="1.99562">
        <ele>244.507198</ele>
        <time>2026-08-29T13:28:16Z</time>
      </trkpt>
      <trkpt lat="43.96835" lon="1.99566">
        <ele>244.449988</ele>
        <time>2026-08-29T13:28:17Z</time>
      </trkpt>
      <trkpt lat="43.96839" lon="1.99569">
        <ele>244.395472</ele>
        <time>2026-08-29T13:28:18Z</time>
      </trkpt>
      <trkpt lat="43.96843" lon="1.99573">
        <ele>244.340223</ele>
        <time>2026-08-29T13:28:19Z</time>
      </trkpt>
      <trkpt lat="43.96847" lon="1.99576">
        <ele>244.286848</ele>
        <time>2026-08-29T13:28:20Z</time>
      </trkpt>
      <trkpt lat="43.96851" lon="1.9958">
        <ele>244.231063</ele>
        <time>2026-08-29T13:28:21Z</time>
      </trkpt>
      <trkpt lat="43.96855" lon="1.99583">
        <ele>244.175278</ele>
        <time>2026-08-29T13:28:22Z</time>
      </trkpt>
      <trkpt lat="43.96859" lon="1.99587">
        <ele>244.119493</ele>
        <time>2026-08-29T13:28:23Z</time>
      </trkpt>
      <trkpt lat="43.96863" lon="1.9959">
        <ele>244.067602</ele>
        <time>2026-08-29T13:28:24Z</time>
      </trkpt>
      <trkpt lat="43.96866" lon="1.99594">
        <ele>244.017379</ele>
        <time>2026-08-29T13:28:25Z</time>
      </trkpt>
      <trkpt lat="43.96869" lon="1.99598">
        <ele>243.966005</ele>
        <time>2026-08-29T13:28:26Z</time>
      </trkpt>
      <trkpt lat="43.96872" lon="1.99603">
        <ele>243.917911</ele>
        <time>2026-08-29T13:28:27Z</time>
      </trkpt>
      <trkpt lat="43.96874" lon="1.99608">
        <ele>243.871829</ele>
        <time>2026-08-29T13:28:28Z</time>
      </trkpt>
      <trkpt lat="43.96876" lon="1.99612">
        <ele>243.827084</ele>
        <time>2026-08-29T13:28:29Z</time>
      </trkpt>
      <trkpt lat="43.96879" lon="1.99616">
        <ele>243.785015</ele>
        <time>2026-08-29T13:28:30Z</time>
      </trkpt>
      <trkpt lat="43.96881" lon="1.99619">
        <ele>243.746084</ele>
        <time>2026-08-29T13:28:31Z</time>
      </trkpt>
      <trkpt lat="43.96883" lon="1.99623">
        <ele>243.710192</ele>
        <time>2026-08-29T13:28:32Z</time>
      </trkpt>
      <trkpt lat="43.96885" lon="1.99626">
        <ele>243.672173</ele>
        <time>2026-08-29T13:28:33Z</time>
      </trkpt>
      <trkpt lat="43.96887" lon="1.9963">
        <ele>243.635535</ele>
        <time>2026-08-29T13:28:34Z</time>
      </trkpt>
      <trkpt lat="43.96888" lon="1.99633">
        <ele>243.602125</ele>
        <time>2026-08-29T13:28:35Z</time>
      </trkpt>
      <trkpt lat="43.96889" lon="1.99637">
        <ele>243.567487</ele>
        <time>2026-08-29T13:28:36Z</time>
      </trkpt>
      <trkpt lat="43.96888" lon="1.99641">
        <ele>243.529783</ele>
        <time>2026-08-29T13:28:37Z</time>
      </trkpt>
      <trkpt lat="43.96887" lon="1.99646">
        <ele>243.489325</ele>
        <time>2026-08-29T13:28:38Z</time>
      </trkpt>
      <trkpt lat="43.96885" lon="1.99651">
        <ele>243.443002</ele>
        <time>2026-08-29T13:28:39Z</time>
      </trkpt>
      <trkpt lat="43.96883" lon="1.99656">
        <ele>243.392331</ele>
        <time>2026-08-29T13:28:40Z</time>
      </trkpt>
      <trkpt lat="43.96881" lon="1.99662">
        <ele>243.336664</ele>
        <time>2026-08-29T13:28:41Z</time>
      </trkpt>
      <trkpt lat="43.96879" lon="1.99669">
        <ele>243.276212</ele>
        <time>2026-08-29T13:28:42Z</time>
      </trkpt>
      <trkpt lat="43.96878" lon="1.99676">
        <ele>243.216151</ele>
        <time>2026-08-29T13:28:43Z</time>
      </trkpt>
      <trkpt lat="43.96877" lon="1.99683">
        <ele>243.153877</ele>
        <time>2026-08-29T13:28:44Z</time>
      </trkpt>
      <trkpt lat="43.96876" lon="1.9969">
        <ele>243.09627</ele>
        <time>2026-08-29T13:28:45Z</time>
      </trkpt>
      <trkpt lat="43.96875" lon="1.99698">
        <ele>243.030102</ele>
        <time>2026-08-29T13:28:46Z</time>
      </trkpt>
      <trkpt lat="43.96875" lon="1.99706">
        <ele>242.962271</ele>
        <time>2026-08-29T13:28:47Z</time>
      </trkpt>
      <trkpt lat="43.96875" lon="1.99716">
        <ele>242.880471</ele>
        <time>2026-08-29T13:28:48Z</time>
      </trkpt>
      <trkpt lat="43.96875" lon="1.99726">
        <ele>242.792794</ele>
        <time>2026-08-29T13:28:49Z</time>
      </trkpt>
      <trkpt lat="43.96874" lon="1.99738">
        <ele>242.697424</ele>
        <time>2026-08-29T13:28:50Z</time>
      </trkpt>
      <trkpt lat="43.96873" lon="1.9975">
        <ele>242.357623</ele>
        <time>2026-08-29T13:28:51Z</time>
      </trkpt>
      <trkpt lat="43.96873" lon="1.99761">
        <ele>242.000367</ele>
        <time>2026-08-29T13:28:52Z</time>
      </trkpt>
      <trkpt lat="43.96872" lon="1.99773">
        <ele>241.640104</ele>
        <time>2026-08-29T13:28:53Z</time>
      </trkpt>
      <trkpt lat="43.96871" lon="1.99785">
        <ele>241.270058</ele>
        <time>2026-08-29T13:28:54Z</time>
      </trkpt>
      <trkpt lat="43.9687" lon="1.99798">
        <ele>240.894942</ele>
        <time>2026-08-29T13:28:55Z</time>
      </trkpt>
      <trkpt lat="43.96868" lon="1.9981">
        <ele>240.524465</ele>
        <time>2026-08-29T13:28:56Z</time>
      </trkpt>
      <trkpt lat="43.96866" lon="1.99822">
        <ele>240.158394</ele>
        <time>2026-08-29T13:28:57Z</time>
      </trkpt>
      <trkpt lat="43.96864" lon="1.99833">
        <ele>239.79455</ele>
        <time>2026-08-29T13:28:58Z</time>
      </trkpt>
      <trkpt lat="43.96862" lon="1.99845">
        <ele>239.416415</ele>
        <time>2026-08-29T13:28:59Z</time>
      </trkpt>
      <trkpt lat="43.96858" lon="1.99857">
        <ele>239.032893</ele>
        <time>2026-08-29T13:29:00Z</time>
      </trkpt>
      <trkpt lat="43.96854" lon="1.99869">
        <ele>238.636597</ele>
        <time>2026-08-29T13:29:01Z</time>
      </trkpt>
      <trkpt lat="43.9685" lon="1.9988">
        <ele>238.25553</ele>
        <time>2026-08-29T13:29:02Z</time>
      </trkpt>
      <trkpt lat="43.96846" lon="1.99891">
        <ele>237.873749</ele>
        <time>2026-08-29T13:29:03Z</time>
      </trkpt>
      <trkpt lat="43.96841" lon="1.99902">
        <ele>237.512338</ele>
        <time>2026-08-29T13:29:04Z</time>
      </trkpt>
      <trkpt lat="43.96837" lon="1.99912">
        <ele>237.146576</ele>
        <time>2026-08-29T13:29:05Z</time>
      </trkpt>
      <trkpt lat="43.96832" lon="1.99922">
        <ele>236.773475</ele>
        <time>2026-08-29T13:29:06Z</time>
      </trkpt>
      <trkpt lat="43.96828" lon="1.99933">
        <ele>236.395766</ele>
        <time>2026-08-29T13:29:07Z</time>
      </trkpt>
      <trkpt lat="43.96823" lon="1.99944">
        <ele>236.022703</ele>
        <time>2026-08-29T13:29:08Z</time>
      </trkpt>
      <trkpt lat="43.96819" lon="1.99956">
        <ele>235.640862</ele>
        <time>2026-08-29T13:29:09Z</time>
      </trkpt>
      <trkpt lat="43.96815" lon="1.99967">
        <ele>235.24549</ele>
        <time>2026-08-29T13:29:10Z</time>
      </trkpt>
      <trkpt lat="43.96811" lon="1.99979">
        <ele>234.799335</ele>
        <time>2026-08-29T13:29:11Z</time>
      </trkpt>
      <trkpt lat="43.96808" lon="1.99991">
        <ele>234.328697</ele>
        <time>2026-08-29T13:29:12Z</time>
      </trkpt>
      <trkpt lat="43.96804" lon="2.00002">
        <ele>233.858822</ele>
        <time>2026-08-29T13:29:13Z</time>
      </trkpt>
      <trkpt lat="43.96801" lon="2.00014">
        <ele>233.379157</ele>
        <time>2026-08-29T13:29:14Z</time>
      </trkpt>
      <trkpt lat="43.96797" lon="2.00027">
        <ele>232.890959</ele>
        <time>2026-08-29T13:29:15Z</time>
      </trkpt>
      <trkpt lat="43.96794" lon="2.00039">
        <ele>232.397505</ele>
        <time>2026-08-29T13:29:16Z</time>
      </trkpt>
      <trkpt lat="43.9679" lon="2.00052">
        <ele>231.903756</ele>
        <time>2026-08-29T13:29:17Z</time>
      </trkpt>
      <trkpt lat="43.96787" lon="2.00064">
        <ele>231.411904</ele>
        <time>2026-08-29T13:29:18Z</time>
      </trkpt>
      <trkpt lat="43.96783" lon="2.00077">
        <ele>230.901136</ele>
        <time>2026-08-29T13:29:19Z</time>
      </trkpt>
      <trkpt lat="43.9678" lon="2.0009">
        <ele>230.393658</ele>
        <time>2026-08-29T13:29:20Z</time>
      </trkpt>
      <trkpt lat="43.96776" lon="2.00103">
        <ele>229.878941</ele>
        <time>2026-08-29T13:29:21Z</time>
      </trkpt>
      <trkpt lat="43.96772" lon="2.00116">
        <ele>229.366144</ele>
        <time>2026-08-29T13:29:22Z</time>
      </trkpt>
      <trkpt lat="43.96769" lon="2.00129">
        <ele>228.846676</ele>
        <time>2026-08-29T13:29:23Z</time>
      </trkpt>
      <trkpt lat="43.96765" lon="2.00142">
        <ele>228.316683</ele>
        <time>2026-08-29T13:29:24Z</time>
      </trkpt>
      <trkpt lat="43.96761" lon="2.00155">
        <ele>227.7912</ele>
        <time>2026-08-29T13:29:25Z</time>
      </trkpt>
      <trkpt lat="43.96757" lon="2.00169">
        <ele>227.262781</ele>
        <time>2026-08-29T13:29:26Z</time>
      </trkpt>
      <trkpt lat="43.96755" lon="2.00183">
        <ele>226.729763</ele>
        <time>2026-08-29T13:29:27Z</time>
      </trkpt>
      <trkpt lat="43.96753" lon="2.00197">
        <ele>226.193685</ele>
        <time>2026-08-29T13:29:28Z</time>
      </trkpt>
      <trkpt lat="43.96753" lon="2.00211">
        <ele>225.697216</ele>
        <time>2026-08-29T13:29:29Z</time>
      </trkpt>
      <trkpt lat="43.96755" lon="2.00224">
        <ele>225.236624</ele>
        <time>2026-08-29T13:29:30Z</time>
      </trkpt>
      <trkpt lat="43.96758" lon="2.00237">
        <ele>224.790879</ele>
        <time>2026-08-29T13:29:31Z</time>
      </trkpt>
      <trkpt lat="43.96762" lon="2.00249">
        <ele>224.339888</ele>
        <time>2026-08-29T13:29:32Z</time>
      </trkpt>
      <trkpt lat="43.96767" lon="2.00261">
        <ele>223.896565</ele>
        <time>2026-08-29T13:29:33Z</time>
      </trkpt>
      <trkpt lat="43.96771" lon="2.00272">
        <ele>223.472315</ele>
        <time>2026-08-29T13:29:34Z</time>
      </trkpt>
      <trkpt lat="43.96777" lon="2.00283">
        <ele>223.038999</ele>
        <time>2026-08-29T13:29:35Z</time>
      </trkpt>
      <trkpt lat="43.96782" lon="2.00294">
        <ele>222.595077</ele>
        <time>2026-08-29T13:29:36Z</time>
      </trkpt>
      <trkpt lat="43.96787" lon="2.00305">
        <ele>222.153412</ele>
        <time>2026-08-29T13:29:37Z</time>
      </trkpt>
      <trkpt lat="43.96791" lon="2.00317">
        <ele>221.71129</ele>
        <time>2026-08-29T13:29:38Z</time>
      </trkpt>
      <trkpt lat="43.96795" lon="2.00329">
        <ele>221.267286</ele>
        <time>2026-08-29T13:29:39Z</time>
      </trkpt>
      <trkpt lat="43.96796" lon="2.00342">
        <ele>220.825816</ele>
        <time>2026-08-29T13:29:40Z</time>
      </trkpt>
      <trkpt lat="43.96798" lon="2.00356">
        <ele>220.3604</ele>
        <time>2026-08-29T13:29:41Z</time>
      </trkpt>
      <trkpt lat="43.96799" lon="2.0037">
        <ele>219.888352</ele>
        <time>2026-08-29T13:29:42Z</time>
      </trkpt>
      <trkpt lat="43.96799" lon="2.00385">
        <ele>219.408056</ele>
        <time>2026-08-29T13:29:43Z</time>
      </trkpt>
      <trkpt lat="43.96798" lon="2.00398">
        <ele>218.950043</ele>
        <time>2026-08-29T13:29:44Z</time>
      </trkpt>
      <trkpt lat="43.96796" lon="2.00412">
        <ele>218.474732</ele>
        <time>2026-08-29T13:29:45Z</time>
      </trkpt>
      <trkpt lat="43.96794" lon="2.00426">
        <ele>218.008851</ele>
        <time>2026-08-29T13:29:46Z</time>
      </trkpt>
      <trkpt lat="43.96791" lon="2.00439">
        <ele>217.543565</ele>
        <time>2026-08-29T13:29:47Z</time>
      </trkpt>
      <trkpt lat="43.96788" lon="2.00451">
        <ele>217.042451</ele>
        <time>2026-08-29T13:29:48Z</time>
      </trkpt>
      <trkpt lat="43.96785" lon="2.00464">
        <ele>216.526392</ele>
        <time>2026-08-29T13:29:49Z</time>
      </trkpt>
      <trkpt lat="43.96782" lon="2.00478">
        <ele>216.010977</ele>
        <time>2026-08-29T13:29:50Z</time>
      </trkpt>
      <trkpt lat="43.9678" lon="2.0049">
        <ele>215.507991</ele>
        <time>2026-08-29T13:29:51Z</time>
      </trkpt>
      <trkpt lat="43.96778" lon="2.00503">
        <ele>215.001295</ele>
        <time>2026-08-29T13:29:52Z</time>
      </trkpt>
      <trkpt lat="43.96776" lon="2.00517">
        <ele>214.484567</ele>
        <time>2026-08-29T13:29:53Z</time>
      </trkpt>
      <trkpt lat="43.96774" lon="2.0053">
        <ele>213.958159</ele>
        <time>2026-08-29T13:29:54Z</time>
      </trkpt>
      <trkpt lat="43.96772" lon="2.00544">
        <ele>213.430558</ele>
        <time>2026-08-29T13:29:55Z</time>
      </trkpt>
      <trkpt lat="43.9677" lon="2.00557">
        <ele>212.896729</ele>
        <time>2026-08-29T13:29:56Z</time>
      </trkpt>
      <trkpt lat="43.96768" lon="2.00571">
        <ele>212.366125</ele>
        <time>2026-08-29T13:29:57Z</time>
      </trkpt>
      <trkpt lat="43.96766" lon="2.00585">
        <ele>211.835522</ele>
        <time>2026-08-29T13:29:58Z</time>
      </trkpt>
      <trkpt lat="43.96764" lon="2.00599">
        <ele>211.307688</ele>
        <time>2026-08-29T13:29:59Z</time>
      </trkpt>
      <trkpt lat="43.96763" lon="2.00612">
        <ele>210.781443</ele>
        <time>2026-08-29T13:30:00Z</time>
      </trkpt>
      <trkpt lat="43.96761" lon="2.00626">
        <ele>210.254429</ele>
        <time>2026-08-29T13:30:01Z</time>
      </trkpt>
      <trkpt lat="43.96761" lon="2.0064">
        <ele>209.725566</ele>
        <time>2026-08-29T13:30:02Z</time>
      </trkpt>
      <trkpt lat="43.9676" lon="2.00654">
        <ele>209.191018</ele>
        <time>2026-08-29T13:30:03Z</time>
      </trkpt>
      <trkpt lat="43.96759" lon="2.00668">
        <ele>208.650404</ele>
        <time>2026-08-29T13:30:04Z</time>
      </trkpt>
      <trkpt lat="43.96757" lon="2.00682">
        <ele>208.12257</ele>
        <time>2026-08-29T13:30:05Z</time>
      </trkpt>
      <trkpt lat="43.96756" lon="2.00696">
        <ele>207.603132</ele>
        <time>2026-08-29T13:30:06Z</time>
      </trkpt>
      <trkpt lat="43.96754" lon="2.0071">
        <ele>207.066712</ele>
        <time>2026-08-29T13:30:07Z</time>
      </trkpt>
      <trkpt lat="43.96752" lon="2.00724">
        <ele>206.530292</ele>
        <time>2026-08-29T13:30:08Z</time>
      </trkpt>
      <trkpt lat="43.96751" lon="2.00739">
        <ele>205.999469</ele>
        <time>2026-08-29T13:30:09Z</time>
      </trkpt>
      <trkpt lat="43.96749" lon="2.00752">
        <ele>205.483142</ele>
        <time>2026-08-29T13:30:10Z</time>
      </trkpt>
      <trkpt lat="43.96747" lon="2.00766">
        <ele>204.96933</ele>
        <time>2026-08-29T13:30:11Z</time>
      </trkpt>
      <trkpt lat="43.96746" lon="2.0078">
        <ele>204.44772</ele>
        <time>2026-08-29T13:30:12Z</time>
      </trkpt>
      <trkpt lat="43.96746" lon="2.00794">
        <ele>203.924042</ele>
        <time>2026-08-29T13:30:13Z</time>
      </trkpt>
      <trkpt lat="43.96745" lon="2.00809">
        <ele>203.401165</ele>
        <time>2026-08-29T13:30:14Z</time>
      </trkpt>
      <trkpt lat="43.96746" lon="2.00823">
        <ele>202.874606</ele>
        <time>2026-08-29T13:30:15Z</time>
      </trkpt>
      <trkpt lat="43.96746" lon="2.00837">
        <ele>202.347526</ele>
        <time>2026-08-29T13:30:16Z</time>
      </trkpt>
      <trkpt lat="43.96747" lon="2.00852">
        <ele>201.812823</ele>
        <time>2026-08-29T13:30:17Z</time>
      </trkpt>
      <trkpt lat="43.96747" lon="2.00866">
        <ele>201.278609</ele>
        <time>2026-08-29T13:30:18Z</time>
      </trkpt>
      <trkpt lat="43.96747" lon="2.00881">
        <ele>200.744689</ele>
        <time>2026-08-29T13:30:19Z</time>
      </trkpt>
      <trkpt lat="43.96747" lon="2.00896">
        <ele>200.188401</ele>
        <time>2026-08-29T13:30:20Z</time>
      </trkpt>
      <trkpt lat="43.96746" lon="2.00911">
        <ele>199.642359</ele>
        <time>2026-08-29T13:30:21Z</time>
      </trkpt>
      <trkpt lat="43.96745" lon="2.00926">
        <ele>199.077207</ele>
        <time>2026-08-29T13:30:22Z</time>
      </trkpt>
      <trkpt lat="43.96744" lon="2.00941">
        <ele>198.597693</ele>
        <time>2026-08-29T13:30:23Z</time>
      </trkpt>
      <trkpt lat="43.96741" lon="2.00956">
        <ele>198.161343</ele>
        <time>2026-08-29T13:30:24Z</time>
      </trkpt>
      <trkpt lat="43.96738" lon="2.00969">
        <ele>197.735923</ele>
        <time>2026-08-29T13:30:25Z</time>
      </trkpt>
      <trkpt lat="43.96733" lon="2.00983">
        <ele>197.319989</ele>
        <time>2026-08-29T13:30:26Z</time>
      </trkpt>
      <trkpt lat="43.96728" lon="2.00995">
        <ele>196.91442</ele>
        <time>2026-08-29T13:30:27Z</time>
      </trkpt>
      <trkpt lat="43.96723" lon="2.01007">
        <ele>196.514719</ele>
        <time>2026-08-29T13:30:28Z</time>
      </trkpt>
      <trkpt lat="43.96718" lon="2.01017">
        <ele>196.130163</ele>
        <time>2026-08-29T13:30:29Z</time>
      </trkpt>
      <trkpt lat="43.96712" lon="2.01028">
        <ele>195.766737</ele>
        <time>2026-08-29T13:30:30Z</time>
      </trkpt>
      <trkpt lat="43.96707" lon="2.01037">
        <ele>195.407513</ele>
        <time>2026-08-29T13:30:31Z</time>
      </trkpt>
      <trkpt lat="43.96701" lon="2.01046">
        <ele>195.068179</ele>
        <time>2026-08-29T13:30:32Z</time>
      </trkpt>
      <trkpt lat="43.96695" lon="2.01054">
        <ele>194.740925</ele>
        <time>2026-08-29T13:30:33Z</time>
      </trkpt>
      <trkpt lat="43.9669" lon="2.01062">
        <ele>194.424696</ele>
        <time>2026-08-29T13:30:34Z</time>
      </trkpt>
      <trkpt lat="43.96684" lon="2.01069">
        <ele>194.121058</ele>
        <time>2026-08-29T13:30:35Z</time>
      </trkpt>
      <trkpt lat="43.96679" lon="2.01077">
        <ele>193.829943</ele>
        <time>2026-08-29T13:30:36Z</time>
      </trkpt>
      <trkpt lat="43.96675" lon="2.01084">
        <ele>193.547857</ele>
        <time>2026-08-29T13:30:37Z</time>
      </trkpt>
      <trkpt lat="43.9667" lon="2.01091">
        <ele>193.276156</ele>
        <time>2026-08-29T13:30:38Z</time>
      </trkpt>
      <trkpt lat="43.96666" lon="2.01097">
        <ele>193.01838</ele>
        <time>2026-08-29T13:30:39Z</time>
      </trkpt>
      <trkpt lat="43.96661" lon="2.01103">
        <ele>192.764013</ele>
        <time>2026-08-29T13:30:40Z</time>
      </trkpt>
      <trkpt lat="43.96657" lon="2.0111">
        <ele>192.513193</ele>
        <time>2026-08-29T13:30:41Z</time>
      </trkpt>
      <trkpt lat="43.96653" lon="2.01116">
        <ele>192.272082</ele>
        <time>2026-08-29T13:30:42Z</time>
      </trkpt>
      <trkpt lat="43.96649" lon="2.01122">
        <ele>192.040025</ele>
        <time>2026-08-29T13:30:43Z</time>
      </trkpt>
      <trkpt lat="43.96645" lon="2.01127">
        <ele>191.810046</ele>
        <time>2026-08-29T13:30:44Z</time>
      </trkpt>
      <trkpt lat="43.96641" lon="2.01132">
        <ele>191.672741</ele>
        <time>2026-08-29T13:30:45Z</time>
      </trkpt>
      <trkpt lat="43.96637" lon="2.01138">
        <ele>191.696005</ele>
        <time>2026-08-29T13:30:46Z</time>
      </trkpt>
      <trkpt lat="43.96634" lon="2.01143">
        <ele>191.718301</ele>
        <time>2026-08-29T13:30:47Z</time>
      </trkpt>
      <trkpt lat="43.96633" lon="2.01149">
        <ele>191.739034</ele>
        <time>2026-08-29T13:30:48Z</time>
      </trkpt>
      <trkpt lat="43.96634" lon="2.01156">
        <ele>191.759701</ele>
        <time>2026-08-29T13:30:49Z</time>
      </trkpt>
      <trkpt lat="43.96636" lon="2.0116">
        <ele>191.776555</ele>
        <time>2026-08-29T13:30:50Z</time>
      </trkpt>
      <trkpt lat="43.9664" lon="2.01162">
        <ele>191.793284</ele>
        <time>2026-08-29T13:30:51Z</time>
      </trkpt>
      <trkpt lat="43.96644" lon="2.01163">
        <ele>191.812506</ele>
        <time>2026-08-29T13:30:52Z</time>
      </trkpt>
      <trkpt lat="43.96648" lon="2.01163">
        <ele>191.83158</ele>
        <time>2026-08-29T13:30:53Z</time>
      </trkpt>
      <trkpt lat="43.96652" lon="2.01164">
        <ele>191.84998</ele>
        <time>2026-08-29T13:30:54Z</time>
      </trkpt>
      <trkpt lat="43.96656" lon="2.01165">
        <ele>191.866931</ele>
        <time>2026-08-29T13:30:55Z</time>
      </trkpt>
      <trkpt lat="43.9666" lon="2.01167">
        <ele>191.885521</ele>
        <time>2026-08-29T13:30:56Z</time>
      </trkpt>
      <trkpt lat="43.96664" lon="2.01168">
        <ele>191.90411</ele>
        <time>2026-08-29T13:30:57Z</time>
      </trkpt>
      <trkpt lat="43.96668" lon="2.0117">
        <ele>191.92251</ele>
        <time>2026-08-29T13:30:58Z</time>
      </trkpt>
      <trkpt lat="43.96672" lon="2.01172">
        <ele>191.941196</ele>
        <time>2026-08-29T13:30:59Z</time>
      </trkpt>
      <trkpt lat="43.96676" lon="2.01174">
        <ele>191.96005</ele>
        <time>2026-08-29T13:31:00Z</time>
      </trkpt>
      <trkpt lat="43.9668" lon="2.01177">
        <ele>191.978917</ele>
        <time>2026-08-29T13:31:01Z</time>
      </trkpt>
      <trkpt lat="43.96684" lon="2.0118">
        <ele>191.997695</ele>
        <time>2026-08-29T13:31:02Z</time>
      </trkpt>
      <trkpt lat="43.96687" lon="2.01182">
        <ele>192.015778</ele>
        <time>2026-08-29T13:31:03Z</time>
      </trkpt>
      <trkpt lat="43.96691" lon="2.01185">
        <ele>192.034335</ele>
        <time>2026-08-29T13:31:04Z</time>
      </trkpt>
      <trkpt lat="43.96694" lon="2.01188">
        <ele>192.052418</ele>
        <time>2026-08-29T13:31:05Z</time>
      </trkpt>
      <trkpt lat="43.96698" lon="2.01191">
        <ele>192.069889</ele>
        <time>2026-08-29T13:31:06Z</time>
      </trkpt>
      <trkpt lat="43.96701" lon="2.01194">
        <ele>192.087149</ele>
        <time>2026-08-29T13:31:07Z</time>
      </trkpt>
      <trkpt lat="43.96704" lon="2.01197">
        <ele>192.104758</ele>
        <time>2026-08-29T13:31:08Z</time>
      </trkpt>
      <trkpt lat="43.96708" lon="2.012">
        <ele>192.122228</ele>
        <time>2026-08-29T13:31:09Z</time>
      </trkpt>
      <trkpt lat="43.96711" lon="2.01202">
        <ele>192.139699</ele>
        <time>2026-08-29T13:31:10Z</time>
      </trkpt>
      <trkpt lat="43.96715" lon="2.01205">
        <ele>192.157676</ele>
        <time>2026-08-29T13:31:11Z</time>
      </trkpt>
      <trkpt lat="43.96718" lon="2.01209">
        <ele>192.175464</ele>
        <time>2026-08-29T13:31:12Z</time>
      </trkpt>
      <trkpt lat="43.96721" lon="2.01212">
        <ele>192.192727</ele>
        <time>2026-08-29T13:31:13Z</time>
      </trkpt>
      <trkpt lat="43.96724" lon="2.01215">
        <ele>192.208709</ele>
        <time>2026-08-29T13:31:14Z</time>
      </trkpt>
      <trkpt lat="43.96727" lon="2.01218">
        <ele>192.225235</ele>
        <time>2026-08-29T13:31:15Z</time>
      </trkpt>
      <trkpt lat="43.9673" lon="2.01221">
        <ele>192.241061</ele>
        <time>2026-08-29T13:31:16Z</time>
      </trkpt>
      <trkpt lat="43.96733" lon="2.01225">
        <ele>192.257834</ele>
        <time>2026-08-29T13:31:17Z</time>
      </trkpt>
      <trkpt lat="43.96736" lon="2.01228">
        <ele>192.27515</ele>
        <time>2026-08-29T13:31:18Z</time>
      </trkpt>
      <trkpt lat="43.96738" lon="2.01232">
        <ele>192.292231</ele>
        <time>2026-08-29T13:31:19Z</time>
      </trkpt>
      <trkpt lat="43.96741" lon="2.01235">
        <ele>192.309211</ele>
        <time>2026-08-29T13:31:20Z</time>
      </trkpt>
      <trkpt lat="43.96744" lon="2.01239">
        <ele>192.326292</ele>
        <time>2026-08-29T13:31:21Z</time>
      </trkpt>
      <trkpt lat="43.96746" lon="2.01243">
        <ele>192.34283</ele>
        <time>2026-08-29T13:31:22Z</time>
      </trkpt>
      <trkpt lat="43.96749" lon="2.01248">
        <ele>192.360912</ele>
        <time>2026-08-29T13:31:23Z</time>
      </trkpt>
      <trkpt lat="43.96751" lon="2.01252">
        <ele>192.378297</ele>
        <time>2026-08-29T13:31:24Z</time>
      </trkpt>
      <trkpt lat="43.96754" lon="2.01256">
        <ele>192.395393</ele>
        <time>2026-08-29T13:31:25Z</time>
      </trkpt>
      <trkpt lat="43.96756" lon="2.0126">
        <ele>192.411308</ele>
        <time>2026-08-29T13:31:26Z</time>
      </trkpt>
      <trkpt lat="43.96759" lon="2.01263">
        <ele>192.427849</ele>
        <time>2026-08-29T13:31:27Z</time>
      </trkpt>
      <trkpt lat="43.96761" lon="2.01267">
        <ele>192.443859</ele>
        <time>2026-08-29T13:31:28Z</time>
      </trkpt>
      <trkpt lat="43.96763" lon="2.01271">
        <ele>192.458474</ele>
        <time>2026-08-29T13:31:29Z</time>
      </trkpt>
      <trkpt lat="43.96765" lon="2.01275">
        <ele>192.502515</ele>
        <time>2026-08-29T13:31:30Z</time>
      </trkpt>
      <trkpt lat="43.96767" lon="2.01279">
        <ele>192.5528</ele>
        <time>2026-08-29T13:31:31Z</time>
      </trkpt>
      <trkpt lat="43.96769" lon="2.01284">
        <ele>192.605477</ele>
        <time>2026-08-29T13:31:32Z</time>
      </trkpt>
      <trkpt lat="43.96771" lon="2.01288">
        <ele>192.654483</ele>
        <time>2026-08-29T13:31:33Z</time>
      </trkpt>
      <trkpt lat="43.96772" lon="2.01292">
        <ele>192.698042</ele>
        <time>2026-08-29T13:31:34Z</time>
      </trkpt>
      <trkpt lat="43.96774" lon="2.01296">
        <ele>192.744719</ele>
        <time>2026-08-29T13:31:35Z</time>
      </trkpt>
      <trkpt lat="43.96776" lon="2.01301">
        <ele>192.796881</ele>
        <time>2026-08-29T13:31:36Z</time>
      </trkpt>
      <trkpt lat="43.96777" lon="2.01306">
        <ele>192.848093</ele>
        <time>2026-08-29T13:31:37Z</time>
      </trkpt>
      <trkpt lat="43.96778" lon="2.01311">
        <ele>192.907804</ele>
        <time>2026-08-29T13:31:38Z</time>
      </trkpt>
      <trkpt lat="43.96779" lon="2.01317">
        <ele>192.965526</ele>
        <time>2026-08-29T13:31:39Z</time>
      </trkpt>
      <trkpt lat="43.96781" lon="2.01322">
        <ele>193.02148</ele>
        <time>2026-08-29T13:31:40Z</time>
      </trkpt>
      <trkpt lat="43.96782" lon="2.01327">
        <ele>193.076412</ele>
        <time>2026-08-29T13:31:41Z</time>
      </trkpt>
      <trkpt lat="43.96784" lon="2.01332">
        <ele>193.128218</ele>
        <time>2026-08-29T13:31:42Z</time>
      </trkpt>
      <trkpt lat="43.96786" lon="2.01336">
        <ele>193.177879</ele>
        <time>2026-08-29T13:31:43Z</time>
      </trkpt>
      <trkpt lat="43.96787" lon="2.01341">
        <ele>193.223675</ele>
        <time>2026-08-29T13:31:44Z</time>
      </trkpt>
      <trkpt lat="43.96789" lon="2.01344">
        <ele>193.265692</ele>
        <time>2026-08-29T13:31:45Z</time>
      </trkpt>
      <trkpt lat="43.9679" lon="2.01348">
        <ele>193.30857</ele>
        <time>2026-08-29T13:31:46Z</time>
      </trkpt>
      <trkpt lat="43.96791" lon="2.01352">
        <ele>193.348189</ele>
        <time>2026-08-29T13:31:47Z</time>
      </trkpt>
      <trkpt lat="43.96793" lon="2.01356">
        <ele>193.39636</ele>
        <time>2026-08-29T13:31:48Z</time>
      </trkpt>
      <trkpt lat="43.96794" lon="2.01361">
        <ele>193.447523</ele>
        <time>2026-08-29T13:31:49Z</time>
      </trkpt>
      <trkpt lat="43.96796" lon="2.01366">
        <ele>193.5021</ele>
        <time>2026-08-29T13:31:50Z</time>
      </trkpt>
      <trkpt lat="43.96796" lon="2.01372">
        <ele>193.565396</ele>
        <time>2026-08-29T13:31:51Z</time>
      </trkpt>
      <trkpt lat="43.96797" lon="2.01378">
        <ele>193.626657</ele>
        <time>2026-08-29T13:31:52Z</time>
      </trkpt>
      <trkpt lat="43.96799" lon="2.01384">
        <ele>193.688878</ele>
        <time>2026-08-29T13:31:53Z</time>
      </trkpt>
      <trkpt lat="43.968" lon="2.0139">
        <ele>193.747888</ele>
        <time>2026-08-29T13:31:54Z</time>
      </trkpt>
      <trkpt lat="43.96801" lon="2.01397">
        <ele>193.81172</ele>
        <time>2026-08-29T13:31:55Z</time>
      </trkpt>
      <trkpt lat="43.96802" lon="2.01403">
        <ele>193.873621</ele>
        <time>2026-08-29T13:31:56Z</time>
      </trkpt>
      <trkpt lat="43.96802" lon="2.01408">
        <ele>193.927332</ele>
        <time>2026-08-29T13:31:57Z</time>
      </trkpt>
      <trkpt lat="43.96802" lon="2.01413">
        <ele>193.977811</ele>
        <time>2026-08-29T13:31:58Z</time>
      </trkpt>
      <trkpt lat="43.96802" lon="2.01418">
        <ele>194.027359</ele>
        <time>2026-08-29T13:31:59Z</time>
      </trkpt>
      <trkpt lat="43.96802" lon="2.01423">
        <ele>194.077838</ele>
        <time>2026-08-29T13:32:00Z</time>
      </trkpt>
      <trkpt lat="43.96802" lon="2.01429">
        <ele>194.131338</ele>
        <time>2026-08-29T13:32:01Z</time>
      </trkpt>
      <trkpt lat="43.96802" lon="2.01434">
        <ele>194.187735</ele>
        <time>2026-08-29T13:32:02Z</time>
      </trkpt>
      <trkpt lat="43.96803" lon="2.0144">
        <ele>194.240462</ele>
        <time>2026-08-29T13:32:03Z</time>
      </trkpt>
      <trkpt lat="43.96803" lon="2.01445">
        <ele>194.29495</ele>
        <time>2026-08-29T13:32:04Z</time>
      </trkpt>
      <trkpt lat="43.96803" lon="2.01451">
        <ele>194.351347</ele>
        <time>2026-08-29T13:32:05Z</time>
      </trkpt>
      <trkpt lat="43.96803" lon="2.01456">
        <ele>194.403805</ele>
        <time>2026-08-29T13:32:06Z</time>
      </trkpt>
      <trkpt lat="43.96803" lon="2.01461">
        <ele>194.455548</ele>
        <time>2026-08-29T13:32:07Z</time>
      </trkpt>
      <trkpt lat="43.96804" lon="2.01467">
        <ele>194.509417</ele>
        <time>2026-08-29T13:32:08Z</time>
      </trkpt>
      <trkpt lat="43.96804" lon="2.01472">
        <ele>194.566082</ele>
        <time>2026-08-29T13:32:09Z</time>
      </trkpt>
      <trkpt lat="43.96803" lon="2.01478">
        <ele>194.616561</ele>
        <time>2026-08-29T13:32:10Z</time>
      </trkpt>
      <trkpt lat="43.96804" lon="2.01482">
        <ele>194.664371</ele>
        <time>2026-08-29T13:32:11Z</time>
      </trkpt>
      <trkpt lat="43.96804" lon="2.01487">
        <ele>194.71485</ele>
        <time>2026-08-29T13:32:12Z</time>
      </trkpt>
      <trkpt lat="43.96804" lon="2.01493">
        <ele>194.770326</ele>
        <time>2026-08-29T13:32:13Z</time>
      </trkpt>
      <trkpt lat="43.96803" lon="2.01499">
        <ele>194.829707</ele>
        <time>2026-08-29T13:32:14Z</time>
      </trkpt>
      <trkpt lat="43.96803" lon="2.01505">
        <ele>194.884195</ele>
        <time>2026-08-29T13:32:15Z</time>
      </trkpt>
      <trkpt lat="43.96803" lon="2.0151">
        <ele>194.939163</ele>
        <time>2026-08-29T13:32:16Z</time>
      </trkpt>
      <trkpt lat="43.96804" lon="2.01516">
        <ele>194.976672</ele>
        <time>2026-08-29T13:32:17Z</time>
      </trkpt>
      <trkpt lat="43.96804" lon="2.01521">
        <ele>195.013279</ele>
        <time>2026-08-29T13:32:18Z</time>
      </trkpt>
      <trkpt lat="43.96804" lon="2.01526">
        <ele>195.049186</ele>
        <time>2026-08-29T13:32:19Z</time>
      </trkpt>
      <trkpt lat="43.96804" lon="2.01532">
        <ele>195.089291</ele>
        <time>2026-08-29T13:32:20Z</time>
      </trkpt>
      <trkpt lat="43.96804" lon="2.01537">
        <ele>195.126495</ele>
        <time>2026-08-29T13:32:21Z</time>
      </trkpt>
      <trkpt lat="43.96804" lon="2.01543">
        <ele>195.167241</ele>
        <time>2026-08-29T13:32:22Z</time>
      </trkpt>
      <trkpt lat="43.96804" lon="2.01548">
        <ele>195.20655</ele>
        <time>2026-08-29T13:32:23Z</time>
      </trkpt>
      <trkpt lat="43.96804" lon="2.01554">
        <ele>195.245157</ele>
        <time>2026-08-29T13:32:24Z</time>
      </trkpt>
      <trkpt lat="43.96804" lon="2.01559">
        <ele>195.283062</ele>
        <time>2026-08-29T13:32:25Z</time>
      </trkpt>
      <trkpt lat="43.96804" lon="2.01564">
        <ele>195.319565</ele>
        <time>2026-08-29T13:32:26Z</time>
      </trkpt>
      <trkpt lat="43.96803" lon="2.01569">
        <ele>195.351859</ele>
        <time>2026-08-29T13:32:27Z</time>
      </trkpt>
      <trkpt lat="43.96803" lon="2.01574">
        <ele>195.383451</ele>
        <time>2026-08-29T13:32:28Z</time>
      </trkpt>
      <trkpt lat="43.96803" lon="2.01578">
        <ele>195.415745</ele>
        <time>2026-08-29T13:32:29Z</time>
      </trkpt>
      <trkpt lat="43.96804" lon="2.01583">
        <ele>195.448259</ele>
        <time>2026-08-29T13:32:30Z</time>
      </trkpt>
      <trkpt lat="43.96804" lon="2.01587">
        <ele>195.47938</ele>
        <time>2026-08-29T13:32:31Z</time>
      </trkpt>
      <trkpt lat="43.96805" lon="2.01592">
        <ele>195.511093</ele>
        <time>2026-08-29T13:32:32Z</time>
      </trkpt>
      <trkpt lat="43.96805" lon="2.01596">
        <ele>195.543607</ele>
        <time>2026-08-29T13:32:33Z</time>
      </trkpt>
      <trkpt lat="43.96805" lon="2.01601">
        <ele>195.578211</ele>
        <time>2026-08-29T13:32:34Z</time>
      </trkpt>
      <trkpt lat="43.96806" lon="2.01606">
        <ele>195.613018</ele>
        <time>2026-08-29T13:32:35Z</time>
      </trkpt>
      <trkpt lat="43.96807" lon="2.01611">
        <ele>195.649036</ele>
        <time>2026-08-29T13:32:36Z</time>
      </trkpt>
      <trkpt lat="43.96808" lon="2.01616">
        <ele>195.684523</ele>
        <time>2026-08-29T13:32:37Z</time>
      </trkpt>
      <trkpt lat="43.96809" lon="2.01621">
        <ele>195.720689</ele>
        <time>2026-08-29T13:32:38Z</time>
      </trkpt>
      <trkpt lat="43.9681" lon="2.01626">
        <ele>195.757781</ele>
        <time>2026-08-29T13:32:39Z</time>
      </trkpt>
      <trkpt lat="43.96811" lon="2.01631">
        <ele>195.796229</ele>
        <time>2026-08-29T13:32:40Z</time>
      </trkpt>
      <trkpt lat="43.96812" lon="2.01636">
        <ele>195.834442</ele>
        <time>2026-08-29T13:32:41Z</time>
      </trkpt>
      <trkpt lat="43.96813" lon="2.01642">
        <ele>195.873569</ele>
        <time>2026-08-29T13:32:42Z</time>
      </trkpt>
      <trkpt lat="43.96814" lon="2.01647">
        <ele>195.913227</ele>
        <time>2026-08-29T13:32:43Z</time>
      </trkpt>
      <trkpt lat="43.96815" lon="2.01653">
        <ele>195.952885</ele>
        <time>2026-08-29T13:32:44Z</time>
      </trkpt>
      <trkpt lat="43.96817" lon="2.01658">
        <ele>195.992942</ele>
        <time>2026-08-29T13:32:45Z</time>
      </trkpt>
      <trkpt lat="43.96818" lon="2.01663">
        <ele>196.030593</ele>
        <time>2026-08-29T13:32:46Z</time>
      </trkpt>
      <trkpt lat="43.96819" lon="2.01668">
        <ele>196.066914</ele>
        <time>2026-08-29T13:32:47Z</time>
      </trkpt>
      <trkpt lat="43.9682" lon="2.01673">
        <ele>196.105873</ele>
        <time>2026-08-29T13:32:48Z</time>
      </trkpt>
      <trkpt lat="43.96822" lon="2.01678">
        <ele>196.143178</ele>
        <time>2026-08-29T13:32:49Z</time>
      </trkpt>
      <trkpt lat="43.96823" lon="2.01684">
        <ele>196.182469</ele>
        <time>2026-08-29T13:32:50Z</time>
      </trkpt>
      <trkpt lat="43.96825" lon="2.01689">
        <ele>196.22064</ele>
        <time>2026-08-29T13:32:51Z</time>
      </trkpt>
      <trkpt lat="43.96826" lon="2.01694">
        <ele>196.260079</ele>
        <time>2026-08-29T13:32:52Z</time>
      </trkpt>
      <trkpt lat="43.96828" lon="2.01698">
        <ele>196.297791</ele>
        <time>2026-08-29T13:32:53Z</time>
      </trkpt>
      <trkpt lat="43.9683" lon="2.01703">
        <ele>196.336105</ele>
        <time>2026-08-29T13:32:54Z</time>
      </trkpt>
      <trkpt lat="43.96833" lon="2.01708">
        <ele>196.374861</ele>
        <time>2026-08-29T13:32:55Z</time>
      </trkpt>
      <trkpt lat="43.96835" lon="2.01712">
        <ele>196.411404</ele>
        <time>2026-08-29T13:32:56Z</time>
      </trkpt>
      <trkpt lat="43.96837" lon="2.01715">
        <ele>196.447531</ele>
        <time>2026-08-29T13:32:57Z</time>
      </trkpt>
      <trkpt lat="43.9684" lon="2.01719">
        <ele>196.484726</ele>
        <time>2026-08-29T13:32:58Z</time>
      </trkpt>
      <trkpt lat="43.96843" lon="2.01723">
        <ele>196.522641</ele>
        <time>2026-08-29T13:32:59Z</time>
      </trkpt>
      <trkpt lat="43.96846" lon="2.01726">
        <ele>196.563415</ele>
        <time>2026-08-29T13:33:00Z</time>
      </trkpt>
      <trkpt lat="43.9685" lon="2.0173">
        <ele>196.603892</ele>
        <time>2026-08-29T13:33:01Z</time>
      </trkpt>
      <trkpt lat="43.96853" lon="2.01733">
        <ele>196.642332</ele>
        <time>2026-08-29T13:33:02Z</time>
      </trkpt>
      <trkpt lat="43.96856" lon="2.01736">
        <ele>196.679165</ele>
        <time>2026-08-29T13:33:03Z</time>
      </trkpt>
      <trkpt lat="43.96859" lon="2.01739">
        <ele>196.721001</ele>
        <time>2026-08-29T13:33:04Z</time>
      </trkpt>
      <trkpt lat="43.96862" lon="2.01742">
        <ele>196.765077</ele>
        <time>2026-08-29T13:33:05Z</time>
      </trkpt>
      <trkpt lat="43.96866" lon="2.01745">
        <ele>196.81001</ele>
        <time>2026-08-29T13:33:06Z</time>
      </trkpt>
      <trkpt lat="43.96869" lon="2.01747">
        <ele>196.85393</ele>
        <time>2026-08-29T13:33:07Z</time>
      </trkpt>
      <trkpt lat="43.96872" lon="2.0175">
        <ele>196.897244</ele>
        <time>2026-08-29T13:33:08Z</time>
      </trkpt>
      <trkpt lat="43.96875" lon="2.01753">
        <ele>196.937564</ele>
        <time>2026-08-29T13:33:09Z</time>
      </trkpt>
      <trkpt lat="43.96878" lon="2.01756">
        <ele>196.980698</ele>
        <time>2026-08-29T13:33:10Z</time>
      </trkpt>
      <trkpt lat="43.96881" lon="2.01758">
        <ele>197.020555</ele>
        <time>2026-08-29T13:33:11Z</time>
      </trkpt>
      <trkpt lat="43.96884" lon="2.01761">
        <ele>197.063738</ele>
        <time>2026-08-29T13:33:12Z</time>
      </trkpt>
      <trkpt lat="43.96887" lon="2.01765">
        <ele>197.108326</ele>
        <time>2026-08-29T13:33:13Z</time>
      </trkpt>
      <trkpt lat="43.9689" lon="2.01768">
        <ele>197.153419</ele>
        <time>2026-08-29T13:33:14Z</time>
      </trkpt>
      <trkpt lat="43.96893" lon="2.01772">
        <ele>197.199219</ele>
        <time>2026-08-29T13:33:15Z</time>
      </trkpt>
      <trkpt lat="43.96896" lon="2.01776">
        <ele>197.244486</ele>
        <time>2026-08-29T13:33:16Z</time>
      </trkpt>
      <trkpt lat="43.96899" lon="2.0178">
        <ele>197.291378</ele>
        <time>2026-08-29T13:33:17Z</time>
      </trkpt>
      <trkpt lat="43.96902" lon="2.01784">
        <ele>197.336645</ele>
        <time>2026-08-29T13:33:18Z</time>
      </trkpt>
      <trkpt lat="43.96904" lon="2.01788">
        <ele>197.380714</ele>
        <time>2026-08-29T13:33:19Z</time>
      </trkpt>
      <trkpt lat="43.96907" lon="2.01792">
        <ele>197.425004</ele>
        <time>2026-08-29T13:33:20Z</time>
      </trkpt>
      <trkpt lat="43.96909" lon="2.01796">
        <ele>197.470528</ele>
        <time>2026-08-29T13:33:21Z</time>
      </trkpt>
      <trkpt lat="43.96912" lon="2.018">
        <ele>197.516194</ele>
        <time>2026-08-29T13:33:22Z</time>
      </trkpt>
      <trkpt lat="43.96915" lon="2.01805">
        <ele>197.563086</ele>
        <time>2026-08-29T13:33:23Z</time>
      </trkpt>
      <trkpt lat="43.96917" lon="2.01809">
        <ele>197.60861</ele>
        <time>2026-08-29T13:33:24Z</time>
      </trkpt>
      <trkpt lat="43.9692" lon="2.01813">
        <ele>197.653296</ele>
        <time>2026-08-29T13:33:25Z</time>
      </trkpt>
      <trkpt lat="43.96922" lon="2.01818">
        <ele>197.698663</ele>
        <time>2026-08-29T13:33:26Z</time>
      </trkpt>
      <trkpt lat="43.96924" lon="2.01822">
        <ele>197.744122</ele>
        <time>2026-08-29T13:33:27Z</time>
      </trkpt>
      <trkpt lat="43.96926" lon="2.01827">
        <ele>197.790985</ele>
        <time>2026-08-29T13:33:28Z</time>
      </trkpt>
      <trkpt lat="43.96928" lon="2.01832">
        <ele>197.839845</ele>
        <time>2026-08-29T13:33:29Z</time>
      </trkpt>
      <trkpt lat="43.96931" lon="2.01837">
        <ele>197.885304</ele>
        <time>2026-08-29T13:33:30Z</time>
      </trkpt>
      <trkpt lat="43.96932" lon="2.01842">
        <ele>197.928176</ele>
        <time>2026-08-29T13:33:31Z</time>
      </trkpt>
      <trkpt lat="43.96934" lon="2.01846">
        <ele>197.971201</ele>
        <time>2026-08-29T13:33:32Z</time>
      </trkpt>
      <trkpt lat="43.96936" lon="2.01851">
        <ele>198.015678</ele>
        <time>2026-08-29T13:33:33Z</time>
      </trkpt>
      <trkpt lat="43.96938" lon="2.01856">
        <ele>198.058703</ele>
        <time>2026-08-29T13:33:34Z</time>
      </trkpt>
      <trkpt lat="43.9694" lon="2.0186">
        <ele>198.102285</ele>
        <time>2026-08-29T13:33:35Z</time>
      </trkpt>
      <trkpt lat="43.96942" lon="2.01865">
        <ele>198.145311</ele>
        <time>2026-08-29T13:33:36Z</time>
      </trkpt>
      <trkpt lat="43.96944" lon="2.01869">
        <ele>198.189473</ele>
        <time>2026-08-29T13:33:37Z</time>
      </trkpt>
      <trkpt lat="43.96945" lon="2.01874">
        <ele>198.233055</ele>
        <time>2026-08-29T13:33:38Z</time>
      </trkpt>
      <trkpt lat="43.96947" lon="2.01879">
        <ele>198.274818</ele>
        <time>2026-08-29T13:33:39Z</time>
      </trkpt>
      <trkpt lat="43.96949" lon="2.01883">
        <ele>198.31658</ele>
        <time>2026-08-29T13:33:40Z</time>
      </trkpt>
      <trkpt lat="43.9695" lon="2.01887">
        <ele>198.355109</ele>
        <time>2026-08-29T13:33:41Z</time>
      </trkpt>
      <trkpt lat="43.96952" lon="2.01891">
        <ele>198.390723</ele>
        <time>2026-08-29T13:33:42Z</time>
      </trkpt>
      <trkpt lat="43.96953" lon="2.01895">
        <ele>198.426337</ele>
        <time>2026-08-29T13:33:43Z</time>
      </trkpt>
      <trkpt lat="43.96955" lon="2.01899">
        <ele>198.461951</ele>
        <time>2026-08-29T13:33:44Z</time>
      </trkpt>
      <trkpt lat="43.96956" lon="2.01903">
        <ele>198.499014</ele>
        <time>2026-08-29T13:33:45Z</time>
      </trkpt>
      <trkpt lat="43.96958" lon="2.01907">
        <ele>198.53734</ele>
        <time>2026-08-29T13:33:46Z</time>
      </trkpt>
      <trkpt lat="43.9696" lon="2.01911">
        <ele>198.576389</ele>
        <time>2026-08-29T13:33:47Z</time>
      </trkpt>
      <trkpt lat="43.96961" lon="2.01915">
        <ele>198.614917</ele>
        <time>2026-08-29T13:33:48Z</time>
      </trkpt>
      <trkpt lat="43.96963" lon="2.0192">
        <ele>198.655954</ele>
        <time>2026-08-29T13:33:49Z</time>
      </trkpt>
      <trkpt lat="43.96964" lon="2.01924">
        <ele>198.699178</ele>
        <time>2026-08-29T13:33:50Z</time>
      </trkpt>
      <trkpt lat="43.96966" lon="2.01929">
        <ele>198.738956</ele>
        <time>2026-08-29T13:33:51Z</time>
      </trkpt>
      <trkpt lat="43.96968" lon="2.01933">
        <ele>198.774881</ele>
        <time>2026-08-29T13:33:52Z</time>
      </trkpt>
      <trkpt lat="43.96969" lon="2.01937">
        <ele>198.810441</ele>
        <time>2026-08-29T13:33:53Z</time>
      </trkpt>
      <trkpt lat="43.9697" lon="2.0194">
        <ele>198.842705</ele>
        <time>2026-08-29T13:33:54Z</time>
      </trkpt>
      <trkpt lat="43.96972" lon="2.01944">
        <ele>198.875675</ele>
        <time>2026-08-29T13:33:55Z</time>
      </trkpt>
      <trkpt lat="43.96973" lon="2.01948">
        <ele>198.907237</ele>
        <time>2026-08-29T13:33:56Z</time>
      </trkpt>
      <trkpt lat="43.96974" lon="2.01951">
        <ele>198.940513</ele>
        <time>2026-08-29T13:33:57Z</time>
      </trkpt>
      <trkpt lat="43.96976" lon="2.01955">
        <ele>198.976373</ele>
        <time>2026-08-29T13:33:58Z</time>
      </trkpt>
      <trkpt lat="43.96978" lon="2.01959">
        <ele>199.01334</ele>
        <time>2026-08-29T13:33:59Z</time>
      </trkpt>
      <trkpt lat="43.9698" lon="2.01963">
        <ele>199.047749</ele>
        <time>2026-08-29T13:34:00Z</time>
      </trkpt>
      <trkpt lat="43.96982" lon="2.01966">
        <ele>199.086202</ele>
        <time>2026-08-29T13:34:01Z</time>
      </trkpt>
      <trkpt lat="43.96984" lon="2.0197">
        <ele>199.123209</ele>
        <time>2026-08-29T13:34:02Z</time>
      </trkpt>
      <trkpt lat="43.96987" lon="2.01974">
        <ele>199.161376</ele>
        <time>2026-08-29T13:34:03Z</time>
      </trkpt>
      <trkpt lat="43.96989" lon="2.01978">
        <ele>199.198985</ele>
        <time>2026-08-29T13:34:04Z</time>
      </trkpt>
      <trkpt lat="43.96991" lon="2.01981">
        <ele>199.235747</ele>
        <time>2026-08-29T13:34:05Z</time>
      </trkpt>
      <trkpt lat="43.96994" lon="2.01984">
        <ele>199.275952</ele>
        <time>2026-08-29T13:34:06Z</time>
      </trkpt>
      <trkpt lat="43.96997" lon="2.01988">
        <ele>199.315927</ele>
        <time>2026-08-29T13:34:07Z</time>
      </trkpt>
      <trkpt lat="43.97" lon="2.01991">
        <ele>199.356171</ele>
        <time>2026-08-29T13:34:08Z</time>
      </trkpt>
      <trkpt lat="43.97003" lon="2.01994">
        <ele>199.398218</ele>
        <time>2026-08-29T13:34:09Z</time>
      </trkpt>
      <trkpt lat="43.97006" lon="2.01997">
        <ele>199.440318</ele>
        <time>2026-08-29T13:34:10Z</time>
      </trkpt>
      <trkpt lat="43.9701" lon="2.01999">
        <ele>199.483166</ele>
        <time>2026-08-29T13:34:11Z</time>
      </trkpt>
      <trkpt lat="43.97013" lon="2.02002">
        <ele>199.524338</ele>
        <time>2026-08-29T13:34:12Z</time>
      </trkpt>
      <trkpt lat="43.97016" lon="2.02004">
        <ele>199.564535</ele>
        <time>2026-08-29T13:34:13Z</time>
      </trkpt>
      <trkpt lat="43.9702" lon="2.02006">
        <ele>199.604732</ele>
        <time>2026-08-29T13:34:14Z</time>
      </trkpt>
      <trkpt lat="43.97023" lon="2.02008">
        <ele>199.645568</ele>
        <time>2026-08-29T13:34:15Z</time>
      </trkpt>
      <trkpt lat="43.97026" lon="2.02011">
        <ele>199.68516</ele>
        <time>2026-08-29T13:34:16Z</time>
      </trkpt>
      <trkpt lat="43.97029" lon="2.02013">
        <ele>199.724387</ele>
        <time>2026-08-29T13:34:17Z</time>
      </trkpt>
      <trkpt lat="43.97033" lon="2.02015">
        <ele>199.763279</ele>
        <time>2026-08-29T13:34:18Z</time>
      </trkpt>
      <trkpt lat="43.97036" lon="2.02017">
        <ele>199.801878</ele>
        <time>2026-08-29T13:34:19Z</time>
      </trkpt>
      <trkpt lat="43.97039" lon="2.02019">
        <ele>199.84041</ele>
        <time>2026-08-29T13:34:20Z</time>
      </trkpt>
      <trkpt lat="43.97043" lon="2.02021">
        <ele>199.881583</ele>
        <time>2026-08-29T13:34:21Z</time>
      </trkpt>
      <trkpt lat="43.97046" lon="2.02023">
        <ele>199.920455</ele>
        <time>2026-08-29T13:34:22Z</time>
      </trkpt>
      <trkpt lat="43.97049" lon="2.02026">
        <ele>199.960307</ele>
        <time>2026-08-29T13:34:23Z</time>
      </trkpt>
      <trkpt lat="43.97052" lon="2.02028">
        <ele>200.000506</ele>
        <time>2026-08-29T13:34:24Z</time>
      </trkpt>
      <trkpt lat="43.97056" lon="2.0203">
        <ele>200.037719</ele>
        <time>2026-08-29T13:34:25Z</time>
      </trkpt>
      <trkpt lat="43.97059" lon="2.02032">
        <ele>200.076592</ele>
        <time>2026-08-29T13:34:26Z</time>
      </trkpt>
      <trkpt lat="43.97062" lon="2.02034">
        <ele>200.116444</ele>
        <time>2026-08-29T13:34:27Z</time>
      </trkpt>
      <trkpt lat="43.97065" lon="2.02036">
        <ele>200.156414</ele>
        <time>2026-08-29T13:34:28Z</time>
      </trkpt>
      <trkpt lat="43.97069" lon="2.02039">
        <ele>200.197936</ele>
        <time>2026-08-29T13:34:29Z</time>
      </trkpt>
      <trkpt lat="43.97072" lon="2.02041">
        <ele>200.24009</ele>
        <time>2026-08-29T13:34:30Z</time>
      </trkpt>
      <trkpt lat="43.97076" lon="2.02043">
        <ele>200.280602</ele>
        <time>2026-08-29T13:34:31Z</time>
      </trkpt>
      <trkpt lat="43.97079" lon="2.02045">
        <ele>200.32211</ele>
        <time>2026-08-29T13:34:32Z</time>
      </trkpt>
      <trkpt lat="43.97082" lon="2.02048">
        <ele>200.363033</ele>
        <time>2026-08-29T13:34:33Z</time>
      </trkpt>
      <trkpt lat="43.97086" lon="2.0205">
        <ele>200.404555</ele>
        <time>2026-08-29T13:34:34Z</time>
      </trkpt>
      <trkpt lat="43.97089" lon="2.02053">
        <ele>200.445109</ele>
        <time>2026-08-29T13:34:35Z</time>
      </trkpt>
      <trkpt lat="43.97092" lon="2.02055">
        <ele>200.485663</ele>
        <time>2026-08-29T13:34:36Z</time>
      </trkpt>
      <trkpt lat="43.97095" lon="2.02058">
        <ele>200.525498</ele>
        <time>2026-08-29T13:34:37Z</time>
      </trkpt>
      <trkpt lat="43.97099" lon="2.0206">
        <ele>200.566052</ele>
        <time>2026-08-29T13:34:38Z</time>
      </trkpt>
      <trkpt lat="43.97102" lon="2.02062">
        <ele>200.609193</ele>
        <time>2026-08-29T13:34:39Z</time>
      </trkpt>
      <trkpt lat="43.97106" lon="2.02065">
        <ele>200.652667</ele>
        <time>2026-08-29T13:34:40Z</time>
      </trkpt>
      <trkpt lat="43.9711" lon="2.02067">
        <ele>200.696486</ele>
        <time>2026-08-29T13:34:41Z</time>
      </trkpt>
      <trkpt lat="43.97113" lon="2.0207">
        <ele>200.807187</ele>
        <time>2026-08-29T13:34:42Z</time>
      </trkpt>
      <trkpt lat="43.97117" lon="2.02072">
        <ele>200.917247</ele>
        <time>2026-08-29T13:34:43Z</time>
      </trkpt>
      <trkpt lat="43.9712" lon="2.02074">
        <ele>201.022056</ele>
        <time>2026-08-29T13:34:44Z</time>
      </trkpt>
      <trkpt lat="43.97124" lon="2.02076">
        <ele>201.131254</ele>
        <time>2026-08-29T13:34:45Z</time>
      </trkpt>
      <trkpt lat="43.97127" lon="2.02079">
        <ele>201.237951</ele>
        <time>2026-08-29T13:34:46Z</time>
      </trkpt>
      <trkpt lat="43.9713" lon="2.02081">
        <ele>201.34291</ele>
        <time>2026-08-29T13:34:47Z</time>
      </trkpt>
      <trkpt lat="43.97133" lon="2.02084">
        <ele>201.447712</ele>
        <time>2026-08-29T13:34:48Z</time>
      </trkpt>
      <trkpt lat="43.97137" lon="2.02086">
        <ele>201.547318</ele>
        <time>2026-08-29T13:34:49Z</time>
      </trkpt>
      <trkpt lat="43.9714" lon="2.02087">
        <ele>201.646535</ele>
        <time>2026-08-29T13:34:50Z</time>
      </trkpt>
      <trkpt lat="43.97143" lon="2.02089">
        <ele>201.746444</ele>
        <time>2026-08-29T13:34:51Z</time>
      </trkpt>
      <trkpt lat="43.97146" lon="2.02091">
        <ele>201.840035</ele>
        <time>2026-08-29T13:34:52Z</time>
      </trkpt>
      <trkpt lat="43.97149" lon="2.02093">
        <ele>201.933626</ele>
        <time>2026-08-29T13:34:53Z</time>
      </trkpt>
      <trkpt lat="43.97152" lon="2.02095">
        <ele>202.023528</ele>
        <time>2026-08-29T13:34:54Z</time>
      </trkpt>
      <trkpt lat="43.97155" lon="2.02097">
        <ele>202.115434</ele>
        <time>2026-08-29T13:34:55Z</time>
      </trkpt>
      <trkpt lat="43.97158" lon="2.02099">
        <ele>202.20389</ele>
        <time>2026-08-29T13:34:56Z</time>
      </trkpt>
      <trkpt lat="43.9716" lon="2.02101">
        <ele>202.286818</ele>
        <time>2026-08-29T13:34:57Z</time>
      </trkpt>
      <trkpt lat="43.97162" lon="2.02103">
        <ele>202.359293</ele>
        <time>2026-08-29T13:34:58Z</time>
      </trkpt>
      <trkpt lat="43.97165" lon="2.02104">
        <ele>202.429355</ele>
        <time>2026-08-29T13:34:59Z</time>
      </trkpt>
      <trkpt lat="43.97167" lon="2.02104">
        <ele>202.488969</ele>
        <time>2026-08-29T13:35:00Z</time>
      </trkpt>
      <trkpt lat="43.97169" lon="2.02104">
        <ele>202.54352</ele>
        <time>2026-08-29T13:35:01Z</time>
      </trkpt>
      <trkpt lat="43.9717" lon="2.02105">
        <ele>202.596135</ele>
        <time>2026-08-29T13:35:02Z</time>
      </trkpt>
      <trkpt lat="43.97172" lon="2.02107">
        <ele>202.648914</ele>
        <time>2026-08-29T13:35:03Z</time>
      </trkpt>
      <trkpt lat="43.97173" lon="2.02109">
        <ele>202.710827</ele>
        <time>2026-08-29T13:35:04Z</time>
      </trkpt>
      <trkpt lat="43.97175" lon="2.02112">
        <ele>202.790622</ele>
        <time>2026-08-29T13:35:05Z</time>
      </trkpt>
      <trkpt lat="43.97177" lon="2.02114">
        <ele>202.865557</ele>
        <time>2026-08-29T13:35:06Z</time>
      </trkpt>
      <trkpt lat="43.9718" lon="2.02115">
        <ele>202.935299</ele>
        <time>2026-08-29T13:35:07Z</time>
      </trkpt>
      <trkpt lat="43.97182" lon="2.02115">
        <ele>203.00355</ele>
        <time>2026-08-29T13:35:08Z</time>
      </trkpt>
      <trkpt lat="43.97184" lon="2.02114">
        <ele>203.080852</ele>
        <time>2026-08-29T13:35:09Z</time>
      </trkpt>
      <trkpt lat="43.97186" lon="2.02111">
        <ele>203.148904</ele>
        <time>2026-08-29T13:35:10Z</time>
      </trkpt>
      <trkpt lat="43.97188" lon="2.02109">
        <ele>203.213582</ele>
        <time>2026-08-29T13:35:11Z</time>
      </trkpt>
      <trkpt lat="43.97188" lon="2.02107">
        <ele>203.25454</ele>
        <time>2026-08-29T13:35:12Z</time>
      </trkpt>
      <trkpt lat="43.97188" lon="2.02107">
        <ele>203.272056</ele>
        <time>2026-08-29T13:35:13Z</time>
      </trkpt>
      <trkpt lat="43.97188" lon="2.02107">
        <ele>203.28921</ele>
        <time>2026-08-29T13:35:14Z</time>
      </trkpt>
      <trkpt lat="43.97182" lon="2.02114">
        <ele>203.514835</ele>
        <time>2026-08-29T13:41:43Z</time>
      </trkpt>
      <trkpt lat="43.97181" lon="2.02116">
        <ele>203.564962</ele>
        <time>2026-08-29T13:41:44Z</time>
      </trkpt>
      <trkpt lat="43.97179" lon="2.02118">
        <ele>203.615638</ele>
        <time>2026-08-29T13:41:45Z</time>
      </trkpt>
      <trkpt lat="43.97178" lon="2.02119">
        <ele>203.668418</ele>
        <time>2026-08-29T13:41:46Z</time>
      </trkpt>
      <trkpt lat="43.97176" lon="2.02121">
        <ele>203.722563</ele>
        <time>2026-08-29T13:41:47Z</time>
      </trkpt>
      <trkpt lat="43.97175" lon="2.02123">
        <ele>203.78301</ele>
        <time>2026-08-29T13:41:48Z</time>
      </trkpt>
      <trkpt lat="43.97173" lon="2.02125">
        <ele>203.844103</ele>
        <time>2026-08-29T13:41:49Z</time>
      </trkpt>
      <trkpt lat="43.97171" lon="2.02127">
        <ele>203.909383</ele>
        <time>2026-08-29T13:41:50Z</time>
      </trkpt>
      <trkpt lat="43.97169" lon="2.02129">
        <ele>203.979426</ele>
        <time>2026-08-29T13:41:51Z</time>
      </trkpt>
      <trkpt lat="43.97167" lon="2.02131">
        <ele>204.043576</ele>
        <time>2026-08-29T13:41:52Z</time>
      </trkpt>
      <trkpt lat="43.97166" lon="2.02132">
        <ele>204.101863</ele>
        <time>2026-08-29T13:41:53Z</time>
      </trkpt>
      <trkpt lat="43.97164" lon="2.02134">
        <ele>204.156654</ele>
        <time>2026-08-29T13:41:54Z</time>
      </trkpt>
      <trkpt lat="43.97162" lon="2.02135">
        <ele>204.217312</ele>
        <time>2026-08-29T13:41:55Z</time>
      </trkpt>
      <trkpt lat="43.97161" lon="2.02137">
        <ele>204.279244</ele>
        <time>2026-08-29T13:41:56Z</time>
      </trkpt>
      <trkpt lat="43.97159" lon="2.02139">
        <ele>204.331342</ele>
        <time>2026-08-29T13:41:57Z</time>
      </trkpt>
      <trkpt lat="43.97158" lon="2.02141">
        <ele>204.38896</ele>
        <time>2026-08-29T13:41:58Z</time>
      </trkpt>
      <trkpt lat="43.97156" lon="2.02143">
        <ele>204.444514</ele>
        <time>2026-08-29T13:41:59Z</time>
      </trkpt>
      <trkpt lat="43.97155" lon="2.02145">
        <ele>204.498659</ele>
        <time>2026-08-29T13:42:00Z</time>
      </trkpt>
      <trkpt lat="43.97154" lon="2.02146">
        <ele>204.548786</ele>
        <time>2026-08-29T13:42:01Z</time>
      </trkpt>
      <trkpt lat="43.97153" lon="2.02148">
        <ele>204.597029</ele>
        <time>2026-08-29T13:42:02Z</time>
      </trkpt>
      <trkpt lat="43.97152" lon="2.0215">
        <ele>204.640145</ele>
        <time>2026-08-29T13:42:03Z</time>
      </trkpt>
      <trkpt lat="43.97151" lon="2.02151">
        <ele>204.680043</ele>
        <time>2026-08-29T13:42:04Z</time>
      </trkpt>
      <trkpt lat="43.9715" lon="2.02153">
        <ele>204.724899</ele>
        <time>2026-08-29T13:42:05Z</time>
      </trkpt>
      <trkpt lat="43.97149" lon="2.02155">
        <ele>204.775575</ele>
        <time>2026-08-29T13:42:06Z</time>
      </trkpt>
      <trkpt lat="43.97147" lon="2.02157">
        <ele>204.826251</ele>
        <time>2026-08-29T13:42:07Z</time>
      </trkpt>
      <trkpt lat="43.97146" lon="2.02158">
        <ele>204.87422</ele>
        <time>2026-08-29T13:42:08Z</time>
      </trkpt>
      <trkpt lat="43.97145" lon="2.0216">
        <ele>204.915716</ele>
        <time>2026-08-29T13:42:09Z</time>
      </trkpt>
      <trkpt lat="43.97144" lon="2.02161">
        <ele>204.957489</ele>
        <time>2026-08-29T13:42:10Z</time>
      </trkpt>
      <trkpt lat="43.97143" lon="2.02163">
        <ele>204.998976</ele>
        <time>2026-08-29T13:42:11Z</time>
      </trkpt>
      <trkpt lat="43.97143" lon="2.02165">
        <ele>205.043948</ele>
        <time>2026-08-29T13:42:12Z</time>
      </trkpt>
      <trkpt lat="43.97142" lon="2.02167">
        <ele>205.090419</ele>
        <time>2026-08-29T13:42:13Z</time>
      </trkpt>
      <trkpt lat="43.97141" lon="2.02168">
        <ele>205.138662</ele>
        <time>2026-08-29T13:42:14Z</time>
      </trkpt>
      <trkpt lat="43.9714" lon="2.0217">
        <ele>205.183634</ele>
        <time>2026-08-29T13:42:15Z</time>
      </trkpt>
      <trkpt lat="43.97139" lon="2.02172">
        <ele>205.225433</ele>
        <time>2026-08-29T13:42:16Z</time>
      </trkpt>
      <trkpt lat="43.97138" lon="2.02174">
        <ele>205.266929</ele>
        <time>2026-08-29T13:42:17Z</time>
      </trkpt>
      <trkpt lat="43.97137" lon="2.02176">
        <ele>205.31015</ele>
        <time>2026-08-29T13:42:18Z</time>
      </trkpt>
      <trkpt lat="43.97137" lon="2.02178">
        <ele>205.360084</ele>
        <time>2026-08-29T13:42:19Z</time>
      </trkpt>
      <trkpt lat="43.97136" lon="2.0218">
        <ele>205.406831</ele>
        <time>2026-08-29T13:42:20Z</time>
      </trkpt>
      <trkpt lat="43.97135" lon="2.02182">
        <ele>205.44922</ele>
        <time>2026-08-29T13:42:21Z</time>
      </trkpt>
      <trkpt lat="43.97134" lon="2.02183">
        <ele>205.494076</ele>
        <time>2026-08-29T13:42:22Z</time>
      </trkpt>
      <trkpt lat="43.97133" lon="2.02185">
        <ele>205.532219</ele>
        <time>2026-08-29T13:42:23Z</time>
      </trkpt>
      <trkpt lat="43.97133" lon="2.02186">
        <ele>205.568742</ele>
        <time>2026-08-29T13:42:24Z</time>
      </trkpt>
      <trkpt lat="43.97132" lon="2.02188">
        <ele>205.611858</ele>
        <time>2026-08-29T13:42:25Z</time>
      </trkpt>
      <trkpt lat="43.97131" lon="2.0219">
        <ele>205.656636</ele>
        <time>2026-08-29T13:42:26Z</time>
      </trkpt>
      <trkpt lat="43.9713" lon="2.02191">
        <ele>205.699929</ele>
        <time>2026-08-29T13:42:27Z</time>
      </trkpt>
      <trkpt lat="43.97129" lon="2.02194">
        <ele>205.74609</ele>
        <time>2026-08-29T13:42:28Z</time>
      </trkpt>
      <trkpt lat="43.97128" lon="2.02195">
        <ele>205.790867</ele>
        <time>2026-08-29T13:42:29Z</time>
      </trkpt>
      <trkpt lat="43.97128" lon="2.02197">
        <ele>205.850278</ele>
        <time>2026-08-29T13:42:30Z</time>
      </trkpt>
      <trkpt lat="43.97127" lon="2.02199">
        <ele>205.910868</ele>
        <time>2026-08-29T13:42:31Z</time>
      </trkpt>
      <trkpt lat="43.97126" lon="2.02201">
        <ele>205.976064</ele>
        <time>2026-08-29T13:42:32Z</time>
      </trkpt>
      <trkpt lat="43.97126" lon="2.02203">
        <ele>206.041457</ele>
        <time>2026-08-29T13:42:33Z</time>
      </trkpt>
      <trkpt lat="43.97126" lon="2.02205">
        <ele>206.10764</ele>
        <time>2026-08-29T13:42:34Z</time>
      </trkpt>
      <trkpt lat="43.97125" lon="2.02207">
        <ele>206.172836</ele>
        <time>2026-08-29T13:42:35Z</time>
      </trkpt>
      <trkpt lat="43.97124" lon="2.02209">
        <ele>206.247489</ele>
        <time>2026-08-29T13:42:36Z</time>
      </trkpt>
      <trkpt lat="43.97123" lon="2.02211">
        <ele>206.320875</ele>
        <time>2026-08-29T13:42:37Z</time>
      </trkpt>
      <trkpt lat="43.97123" lon="2.02214">
        <ele>206.391563</ele>
        <time>2026-08-29T13:42:38Z</time>
      </trkpt>
      <trkpt lat="43.97122" lon="2.02216">
        <ele>206.461452</ele>
        <time>2026-08-29T13:42:39Z</time>
      </trkpt>
      <trkpt lat="43.97121" lon="2.02218">
        <ele>206.538337</ele>
        <time>2026-08-29T13:42:40Z</time>
      </trkpt>
      <trkpt lat="43.9712" lon="2.0222">
        <ele>206.632678</ele>
        <time>2026-08-29T13:42:41Z</time>
      </trkpt>
      <trkpt lat="43.97119" lon="2.02222">
        <ele>206.707332</ele>
        <time>2026-08-29T13:42:42Z</time>
      </trkpt>
      <trkpt lat="43.97118" lon="2.02224">
        <ele>206.784244</ele>
        <time>2026-08-29T13:42:43Z</time>
      </trkpt>
      <trkpt lat="43.97117" lon="2.02226">
        <ele>206.861128</ele>
        <time>2026-08-29T13:42:44Z</time>
      </trkpt>
      <trkpt lat="43.97116" lon="2.02228">
        <ele>206.933174</ele>
        <time>2026-08-29T13:42:45Z</time>
      </trkpt>
      <trkpt lat="43.97115" lon="2.02231">
        <ele>207.016742</ele>
        <time>2026-08-29T13:42:46Z</time>
      </trkpt>
      <trkpt lat="43.97114" lon="2.02233">
        <ele>207.096219</ele>
        <time>2026-08-29T13:42:47Z</time>
      </trkpt>
      <trkpt lat="43.97113" lon="2.02235">
        <ele>207.173513</ele>
        <time>2026-08-29T13:42:48Z</time>
      </trkpt>
      <trkpt lat="43.97112" lon="2.02237">
        <ele>207.247897</ele>
        <time>2026-08-29T13:42:49Z</time>
      </trkpt>
      <trkpt lat="43.97111" lon="2.02239">
        <ele>207.305089</ele>
        <time>2026-08-29T13:42:50Z</time>
      </trkpt>
      <trkpt lat="43.97111" lon="2.02241">
        <ele>207.369706</ele>
        <time>2026-08-29T13:42:51Z</time>
      </trkpt>
      <trkpt lat="43.97109" lon="2.02243">
        <ele>207.459207</ele>
        <time>2026-08-29T13:42:52Z</time>
      </trkpt>
      <trkpt lat="43.97108" lon="2.02245">
        <ele>207.541029</ele>
        <time>2026-08-29T13:42:53Z</time>
      </trkpt>
      <trkpt lat="43.97107" lon="2.02247">
        <ele>207.615412</ele>
        <time>2026-08-29T13:42:54Z</time>
      </trkpt>
      <trkpt lat="43.97106" lon="2.02249">
        <ele>207.687459</ele>
        <time>2026-08-29T13:42:55Z</time>
      </trkpt>
      <trkpt lat="43.97105" lon="2.02252">
        <ele>207.774368</ele>
        <time>2026-08-29T13:42:56Z</time>
      </trkpt>
      <trkpt lat="43.97104" lon="2.02254">
        <ele>207.861277</ele>
        <time>2026-08-29T13:42:57Z</time>
      </trkpt>
      <trkpt lat="43.97103" lon="2.02256">
        <ele>207.938571</ele>
        <time>2026-08-29T13:42:58Z</time>
      </trkpt>
      <trkpt lat="43.97103" lon="2.02259">
        <ele>208.016596</ele>
        <time>2026-08-29T13:42:59Z</time>
      </trkpt>
      <trkpt lat="43.97102" lon="2.02261">
        <ele>208.096073</ele>
        <time>2026-08-29T13:43:00Z</time>
      </trkpt>
      <trkpt lat="43.97101" lon="2.02263">
        <ele>208.178149</ele>
        <time>2026-08-29T13:43:01Z</time>
      </trkpt>
      <trkpt lat="43.971" lon="2.02266">
        <ele>208.260809</ele>
        <time>2026-08-29T13:43:02Z</time>
      </trkpt>
      <trkpt lat="43.97099" lon="2.02268">
        <ele>208.352929</ele>
        <time>2026-08-29T13:43:03Z</time>
      </trkpt>
      <trkpt lat="43.97097" lon="2.02271">
        <ele>208.455104</ele>
        <time>2026-08-29T13:43:04Z</time>
      </trkpt>
      <trkpt lat="43.97096" lon="2.02274">
        <ele>208.559242</ele>
        <time>2026-08-29T13:43:05Z</time>
      </trkpt>
      <trkpt lat="43.97095" lon="2.02276">
        <ele>208.643557</ele>
        <time>2026-08-29T13:43:06Z</time>
      </trkpt>
      <trkpt lat="43.97093" lon="2.02279">
        <ele>208.745338</ele>
        <time>2026-08-29T13:43:07Z</time>
      </trkpt>
      <trkpt lat="43.97092" lon="2.02281">
        <ele>208.832247</ele>
        <time>2026-08-29T13:43:08Z</time>
      </trkpt>
      <trkpt lat="43.97091" lon="2.02284">
        <ele>208.929174</ele>
        <time>2026-08-29T13:43:09Z</time>
      </trkpt>
      <trkpt lat="43.9709" lon="2.02286">
        <ele>209.015944</ele>
        <time>2026-08-29T13:43:10Z</time>
      </trkpt>
      <trkpt lat="43.97089" lon="2.02288">
        <ele>209.089415</ele>
        <time>2026-08-29T13:43:11Z</time>
      </trkpt>
      <trkpt lat="43.97088" lon="2.0229">
        <ele>209.164702</ele>
        <time>2026-08-29T13:43:12Z</time>
      </trkpt>
      <trkpt lat="43.97087" lon="2.02293">
        <ele>209.242728</ele>
        <time>2026-08-29T13:43:13Z</time>
      </trkpt>
      <trkpt lat="43.97087" lon="2.02295">
        <ele>209.316199</ele>
        <time>2026-08-29T13:43:14Z</time>
      </trkpt>
      <trkpt lat="43.97086" lon="2.02297">
        <ele>209.384128</ele>
        <time>2026-08-29T13:43:15Z</time>
      </trkpt>
      <trkpt lat="43.97086" lon="2.02299">
        <ele>209.463382</ele>
        <time>2026-08-29T13:43:16Z</time>
      </trkpt>
      <trkpt lat="43.97085" lon="2.02302">
        <ele>209.544169</ele>
        <time>2026-08-29T13:43:17Z</time>
      </trkpt>
      <trkpt lat="43.97084" lon="2.02304">
        <ele>209.623502</ele>
        <time>2026-08-29T13:43:18Z</time>
      </trkpt>
      <trkpt lat="43.97083" lon="2.02306">
        <ele>209.695549</ele>
        <time>2026-08-29T13:43:19Z</time>
      </trkpt>
      <trkpt lat="43.97082" lon="2.02308">
        <ele>209.773152</ele>
        <time>2026-08-29T13:43:20Z</time>
      </trkpt>
      <trkpt lat="43.97082" lon="2.02311">
        <ele>209.861268</ele>
        <time>2026-08-29T13:43:21Z</time>
      </trkpt>
      <trkpt lat="43.97081" lon="2.02314">
        <ele>209.964739</ele>
        <time>2026-08-29T13:43:22Z</time>
      </trkpt>
      <trkpt lat="43.9708" lon="2.02317">
        <ele>210.070309</ele>
        <time>2026-08-29T13:43:23Z</time>
      </trkpt>
      <trkpt lat="43.97079" lon="2.02321">
        <ele>210.174072</ele>
        <time>2026-08-29T13:43:24Z</time>
      </trkpt>
      <trkpt lat="43.97078" lon="2.02324">
        <ele>210.274662</ele>
        <time>2026-08-29T13:43:25Z</time>
      </trkpt>
      <trkpt lat="43.97077" lon="2.02327">
        <ele>210.372882</ele>
        <time>2026-08-29T13:43:26Z</time>
      </trkpt>
      <trkpt lat="43.97076" lon="2.0233">
        <ele>210.479843</ele>
        <time>2026-08-29T13:43:27Z</time>
      </trkpt>
      <trkpt lat="43.97074" lon="2.02333">
        <ele>210.592081</ele>
        <time>2026-08-29T13:43:28Z</time>
      </trkpt>
      <trkpt lat="43.97073" lon="2.02336">
        <ele>210.709677</ele>
        <time>2026-08-29T13:43:29Z</time>
      </trkpt>
      <trkpt lat="43.97072" lon="2.0234">
        <ele>210.824698</ele>
        <time>2026-08-29T13:43:30Z</time>
      </trkpt>
      <trkpt lat="43.97071" lon="2.02344">
        <ele>210.95425</ele>
        <time>2026-08-29T13:43:31Z</time>
      </trkpt>
      <trkpt lat="43.9707" lon="2.02347">
        <ele>211.082194</ele>
        <time>2026-08-29T13:43:32Z</time>
      </trkpt>
      <trkpt lat="43.97068" lon="2.02351">
        <ele>211.207956</ele>
        <time>2026-08-29T13:43:33Z</time>
      </trkpt>
      <trkpt lat="43.97067" lon="2.02355">
        <ele>211.338348</ele>
        <time>2026-08-29T13:43:34Z</time>
      </trkpt>
      <trkpt lat="43.97066" lon="2.02358">
        <ele>211.454014</ele>
        <time>2026-08-29T13:43:35Z</time>
      </trkpt>
      <trkpt lat="43.97065" lon="2.02362">
        <ele>211.580763</ele>
        <time>2026-08-29T13:43:36Z</time>
      </trkpt>
      <trkpt lat="43.97063" lon="2.02366">
        <ele>211.707513</ele>
        <time>2026-08-29T13:43:37Z</time>
      </trkpt>
      <trkpt lat="43.97062" lon="2.0237">
        <ele>211.826972</ele>
        <time>2026-08-29T13:43:38Z</time>
      </trkpt>
      <trkpt lat="43.97061" lon="2.02373">
        <ele>211.946431</ele>
        <time>2026-08-29T13:43:39Z</time>
      </trkpt>
      <trkpt lat="43.9706" lon="2.02377">
        <ele>212.059955</ele>
        <time>2026-08-29T13:43:40Z</time>
      </trkpt>
      <trkpt lat="43.97059" lon="2.0238">
        <ele>212.180675</ele>
        <time>2026-08-29T13:43:41Z</time>
      </trkpt>
      <trkpt lat="43.97058" lon="2.02384">
        <ele>212.30578</ele>
        <time>2026-08-29T13:43:42Z</time>
      </trkpt>
      <trkpt lat="43.97057" lon="2.02388">
        <ele>212.442897</ele>
        <time>2026-08-29T13:43:43Z</time>
      </trkpt>
      <trkpt lat="43.97055" lon="2.02392">
        <ele>212.587052</ele>
        <time>2026-08-29T13:43:44Z</time>
      </trkpt>
      <trkpt lat="43.97054" lon="2.02396">
        <ele>212.722911</ele>
        <time>2026-08-29T13:43:45Z</time>
      </trkpt>
      <trkpt lat="43.97052" lon="2.024">
        <ele>212.863394</ele>
        <time>2026-08-29T13:43:46Z</time>
      </trkpt>
      <trkpt lat="43.97051" lon="2.02404">
        <ele>212.993787</ele>
        <time>2026-08-29T13:43:47Z</time>
      </trkpt>
      <trkpt lat="43.97049" lon="2.02408">
        <ele>213.125632</ele>
        <time>2026-08-29T13:43:48Z</time>
      </trkpt>
      <trkpt lat="43.97048" lon="2.02412">
        <ele>213.262297</ele>
        <time>2026-08-29T13:43:49Z</time>
      </trkpt>
      <trkpt lat="43.97046" lon="2.02415">
        <ele>213.385322</ele>
        <time>2026-08-29T13:43:50Z</time>
      </trkpt>
      <trkpt lat="43.97045" lon="2.02419">
        <ele>213.46387</ele>
        <time>2026-08-29T13:43:51Z</time>
      </trkpt>
      <trkpt lat="43.97044" lon="2.02423">
        <ele>213.5137</ele>
        <time>2026-08-29T13:43:52Z</time>
      </trkpt>
      <trkpt lat="43.97043" lon="2.02427">
        <ele>213.562165</ele>
        <time>2026-08-29T13:43:53Z</time>
      </trkpt>
      <trkpt lat="43.97041" lon="2.0243">
        <ele>213.609216</ele>
        <time>2026-08-29T13:43:54Z</time>
      </trkpt>
      <trkpt lat="43.9704" lon="2.02434">
        <ele>213.656314</ele>
        <time>2026-08-29T13:43:55Z</time>
      </trkpt>
      <trkpt lat="43.97038" lon="2.02437">
        <ele>213.703543</ele>
        <time>2026-08-29T13:43:56Z</time>
      </trkpt>
      <trkpt lat="43.97037" lon="2.02441">
        <ele>213.753373</ele>
        <time>2026-08-29T13:43:57Z</time>
      </trkpt>
      <trkpt lat="43.97036" lon="2.02445">
        <ele>213.803901</ele>
        <time>2026-08-29T13:43:58Z</time>
      </trkpt>
      <trkpt lat="43.97034" lon="2.02449">
        <ele>213.857974</ele>
        <time>2026-08-29T13:43:59Z</time>
      </trkpt>
      <trkpt lat="43.97032" lon="2.02453">
        <ele>213.913655</ele>
        <time>2026-08-29T13:44:00Z</time>
      </trkpt>
      <trkpt lat="43.9703" lon="2.02458">
        <ele>213.973146</ele>
        <time>2026-08-29T13:44:01Z</time>
      </trkpt>
      <trkpt lat="43.97028" lon="2.02462">
        <ele>214.033634</ele>
        <time>2026-08-29T13:44:02Z</time>
      </trkpt>
      <trkpt lat="43.97026" lon="2.02466">
        <ele>214.092022</ele>
        <time>2026-08-29T13:44:03Z</time>
      </trkpt>
      <trkpt lat="43.97025" lon="2.02471">
        <ele>214.150522</ele>
        <time>2026-08-29T13:44:04Z</time>
      </trkpt>
      <trkpt lat="43.97023" lon="2.02475">
        <ele>214.20891</ele>
        <time>2026-08-29T13:44:05Z</time>
      </trkpt>
      <trkpt lat="43.97021" lon="2.02479">
        <ele>214.269398</ele>
        <time>2026-08-29T13:44:06Z</time>
      </trkpt>
      <trkpt lat="43.97019" lon="2.02484">
        <ele>214.330609</ele>
        <time>2026-08-29T13:44:07Z</time>
      </trkpt>
      <trkpt lat="43.97016" lon="2.02488">
        <ele>214.388976</ele>
        <time>2026-08-29T13:44:08Z</time>
      </trkpt>
      <trkpt lat="43.97014" lon="2.02492">
        <ele>214.446426</ele>
        <time>2026-08-29T13:44:09Z</time>
      </trkpt>
      <trkpt lat="43.97012" lon="2.02496">
        <ele>214.508728</ele>
        <time>2026-08-29T13:44:10Z</time>
      </trkpt>
      <trkpt lat="43.97009" lon="2.025">
        <ele>214.568954</ele>
        <time>2026-08-29T13:44:11Z</time>
      </trkpt>
      <trkpt lat="43.97007" lon="2.02504">
        <ele>214.632309</ele>
        <time>2026-08-29T13:44:12Z</time>
      </trkpt>
      <trkpt lat="43.97004" lon="2.02508">
        <ele>214.690925</ele>
        <time>2026-08-29T13:44:13Z</time>
      </trkpt>
      <trkpt lat="43.97002" lon="2.02512">
        <ele>214.752197</ele>
        <time>2026-08-29T13:44:14Z</time>
      </trkpt>
      <trkpt lat="43.97" lon="2.02516">
        <ele>214.813385</ele>
        <time>2026-08-29T13:44:15Z</time>
      </trkpt>
      <trkpt lat="43.96997" lon="2.0252">
        <ele>214.873655</ele>
        <time>2026-08-29T13:44:16Z</time>
      </trkpt>
      <trkpt lat="43.96995" lon="2.02525">
        <ele>214.934822</ele>
        <time>2026-08-29T13:44:17Z</time>
      </trkpt>
      <trkpt lat="43.96993" lon="2.02529">
        <ele>214.996938</ele>
        <time>2026-08-29T13:44:18Z</time>
      </trkpt>
      <trkpt lat="43.96991" lon="2.02533">
        <ele>215.057164</ele>
        <time>2026-08-29T13:44:19Z</time>
      </trkpt>
      <trkpt lat="43.96989" lon="2.02537">
        <ele>215.116456</ele>
        <time>2026-08-29T13:44:20Z</time>
      </trkpt>
      <trkpt lat="43.96987" lon="2.02542">
        <ele>215.178572</ele>
        <time>2026-08-29T13:44:21Z</time>
      </trkpt>
      <trkpt lat="43.96985" lon="2.02546">
        <ele>215.237072</ele>
        <time>2026-08-29T13:44:22Z</time>
      </trkpt>
      <trkpt lat="43.96983" lon="2.0255">
        <ele>215.295461</ele>
        <time>2026-08-29T13:44:23Z</time>
      </trkpt>
      <trkpt lat="43.96981" lon="2.02554">
        <ele>215.352864</ele>
        <time>2026-08-29T13:44:24Z</time>
      </trkpt>
      <trkpt lat="43.96978" lon="2.02558">
        <ele>215.411322</ele>
        <time>2026-08-29T13:44:25Z</time>
      </trkpt>
      <trkpt lat="43.96976" lon="2.02562">
        <ele>215.46978</ele>
        <time>2026-08-29T13:44:26Z</time>
      </trkpt>
      <trkpt lat="43.96973" lon="2.02566">
        <ele>215.530331</ele>
        <time>2026-08-29T13:44:27Z</time>
      </trkpt>
      <trkpt lat="43.96972" lon="2.0257">
        <ele>215.588524</ele>
        <time>2026-08-29T13:44:28Z</time>
      </trkpt>
      <trkpt lat="43.9697" lon="2.02575">
        <ele>215.643383</ele>
        <time>2026-08-29T13:44:29Z</time>
      </trkpt>
      <trkpt lat="43.96968" lon="2.02578">
        <ele>215.697985</ele>
        <time>2026-08-29T13:44:30Z</time>
      </trkpt>
      <trkpt lat="43.96966" lon="2.02582">
        <ele>215.755735</ele>
        <time>2026-08-29T13:44:31Z</time>
      </trkpt>
      <trkpt lat="43.96964" lon="2.02586">
        <ele>215.812206</ele>
        <time>2026-08-29T13:44:32Z</time>
      </trkpt>
      <trkpt lat="43.96962" lon="2.0259">
        <ele>215.868677</ele>
        <time>2026-08-29T13:44:33Z</time>
      </trkpt>
      <trkpt lat="43.9696" lon="2.02594">
        <ele>215.925148</ele>
        <time>2026-08-29T13:44:34Z</time>
      </trkpt>
      <trkpt lat="43.96957" lon="2.02598">
        <ele>215.98444</ele>
        <time>2026-08-29T13:44:35Z</time>
      </trkpt>
      <trkpt lat="43.96956" lon="2.02602">
        <ele>216.040978</ele>
        <time>2026-08-29T13:44:36Z</time>
      </trkpt>
      <trkpt lat="43.96954" lon="2.02606">
        <ele>216.096543</ele>
        <time>2026-08-29T13:44:37Z</time>
      </trkpt>
      <trkpt lat="43.96952" lon="2.0261">
        <ele>216.151145</ele>
        <time>2026-08-29T13:44:38Z</time>
      </trkpt>
      <trkpt lat="43.9695" lon="2.02614">
        <ele>216.206711</ele>
        <time>2026-08-29T13:44:39Z</time>
      </trkpt>
      <trkpt lat="43.96948" lon="2.02618">
        <ele>216.263181</ele>
        <time>2026-08-29T13:44:40Z</time>
      </trkpt>
      <trkpt lat="43.96946" lon="2.02622">
        <ele>216.323407</ele>
        <time>2026-08-29T13:44:41Z</time>
      </trkpt>
      <trkpt lat="43.96944" lon="2.02626">
        <ele>216.348341</ele>
        <time>2026-08-29T13:44:42Z</time>
      </trkpt>
      <trkpt lat="43.96941" lon="2.0263">
        <ele>216.365357</ele>
        <time>2026-08-29T13:44:43Z</time>
      </trkpt>
      <trkpt lat="43.96939" lon="2.02635">
        <ele>216.383169</ele>
        <time>2026-08-29T13:44:44Z</time>
      </trkpt>
      <trkpt lat="43.96936" lon="2.02639">
        <ele>216.401604</ele>
        <time>2026-08-29T13:44:45Z</time>
      </trkpt>
      <trkpt lat="43.96934" lon="2.02643">
        <ele>216.419555</ele>
        <time>2026-08-29T13:44:46Z</time>
      </trkpt>
      <trkpt lat="43.96931" lon="2.02647">
        <ele>216.436651</ele>
        <time>2026-08-29T13:44:47Z</time>
      </trkpt>
      <trkpt lat="43.96929" lon="2.0265">
        <ele>216.452475</ele>
        <time>2026-08-29T13:44:48Z</time>
      </trkpt>
      <trkpt lat="43.96926" lon="2.02654">
        <ele>216.46883</ele>
        <time>2026-08-29T13:44:49Z</time>
      </trkpt>
      <trkpt lat="43.96923" lon="2.02657">
        <ele>216.485443</ele>
        <time>2026-08-29T13:44:50Z</time>
      </trkpt>
      <trkpt lat="43.96921" lon="2.02661">
        <ele>216.501819</ele>
        <time>2026-08-29T13:44:51Z</time>
      </trkpt>
      <trkpt lat="43.96918" lon="2.02665">
        <ele>216.518672</ele>
        <time>2026-08-29T13:44:52Z</time>
      </trkpt>
      <trkpt lat="43.96916" lon="2.02668">
        <ele>216.535137</ele>
        <time>2026-08-29T13:44:53Z</time>
      </trkpt>
      <trkpt lat="43.96913" lon="2.02672">
        <ele>216.551048</ele>
        <time>2026-08-29T13:44:54Z</time>
      </trkpt>
      <trkpt lat="43.96911" lon="2.02675">
        <ele>216.566014</ele>
        <time>2026-08-29T13:44:55Z</time>
      </trkpt>
      <trkpt lat="43.96909" lon="2.02678">
        <ele>216.581603</ele>
        <time>2026-08-29T13:44:56Z</time>
      </trkpt>
      <trkpt lat="43.96907" lon="2.02682">
        <ele>216.596089</ele>
        <time>2026-08-29T13:44:57Z</time>
      </trkpt>
      <trkpt lat="43.96904" lon="2.02685">
        <ele>216.611447</ele>
        <time>2026-08-29T13:44:58Z</time>
      </trkpt>
      <trkpt lat="43.96902" lon="2.02688">
        <ele>216.626413</ele>
        <time>2026-08-29T13:44:59Z</time>
      </trkpt>
      <trkpt lat="43.969" lon="2.02692">
        <ele>216.640899</ele>
        <time>2026-08-29T13:45:00Z</time>
      </trkpt>
      <trkpt lat="43.96898" lon="2.02694">
        <ele>216.654365</ele>
        <time>2026-08-29T13:45:01Z</time>
      </trkpt>
      <trkpt lat="43.96896" lon="2.02697">
        <ele>216.667447</ele>
        <time>2026-08-29T13:45:02Z</time>
      </trkpt>
      <trkpt lat="43.96894" lon="2.02701">
        <ele>216.679947</ele>
        <time>2026-08-29T13:45:03Z</time>
      </trkpt>
      <trkpt lat="43.96893" lon="2.02704">
        <ele>216.693055</ele>
        <time>2026-08-29T13:45:04Z</time>
      </trkpt>
      <trkpt lat="43.96891" lon="2.02707">
        <ele>216.70608</ele>
        <time>2026-08-29T13:45:05Z</time>
      </trkpt>
      <trkpt lat="43.9689" lon="2.0271">
        <ele>216.717528</ele>
        <time>2026-08-29T13:45:06Z</time>
      </trkpt>
      <trkpt lat="43.96888" lon="2.02712">
        <ele>216.726984</ele>
        <time>2026-08-29T13:45:07Z</time>
      </trkpt>
      <trkpt lat="43.96888" lon="2.02713">
        <ele>216.731243</ele>
        <time>2026-08-29T13:45:08Z</time>
      </trkpt>
      <trkpt lat="43.96888" lon="2.02713">
        <ele>216.73204</ele>
        <time>2026-08-29T13:45:09Z</time>
      </trkpt>
      <trkpt lat="43.96888" lon="2.02714">
        <ele>216.734993</ele>
        <time>2026-08-29T13:45:10Z</time>
      </trkpt>
      <trkpt lat="43.96885" lon="2.02718">
        <ele>216.751298</ele>
        <time>2026-08-29T13:45:18Z</time>
      </trkpt>
      <trkpt lat="43.96885" lon="2.02721">
        <ele>216.760136</ele>
        <time>2026-08-29T13:45:19Z</time>
      </trkpt>
      <trkpt lat="43.96886" lon="2.02725">
        <ele>216.774481</ele>
        <time>2026-08-29T13:45:20Z</time>
      </trkpt>
      <trkpt lat="43.96887" lon="2.02729">
        <ele>216.788386</ele>
        <time>2026-08-29T13:45:21Z</time>
      </trkpt>
      <trkpt lat="43.96887" lon="2.02734">
        <ele>216.803506</ele>
        <time>2026-08-29T13:45:22Z</time>
      </trkpt>
      <trkpt lat="43.96887" lon="2.02738">
        <ele>216.819634</ele>
        <time>2026-08-29T13:45:23Z</time>
      </trkpt>
      <trkpt lat="43.96885" lon="2.02743">
        <ele>216.835868</ele>
        <time>2026-08-29T13:45:24Z</time>
      </trkpt>
      <trkpt lat="43.96883" lon="2.02747">
        <ele>216.852385</ele>
        <time>2026-08-29T13:45:25Z</time>
      </trkpt>
      <trkpt lat="43.96881" lon="2.02751">
        <ele>216.869726</ele>
        <time>2026-08-29T13:45:26Z</time>
      </trkpt>
      <trkpt lat="43.96878" lon="2.02756">
        <ele>216.887528</ele>
        <time>2026-08-29T13:45:27Z</time>
      </trkpt>
      <trkpt lat="43.96876" lon="2.0276">
        <ele>216.905793</ele>
        <time>2026-08-29T13:45:28Z</time>
      </trkpt>
      <trkpt lat="43.96873" lon="2.02763">
        <ele>216.923273</ele>
        <time>2026-08-29T13:45:29Z</time>
      </trkpt>
      <trkpt lat="43.9687" lon="2.02767">
        <ele>216.940521</ele>
        <time>2026-08-29T13:45:30Z</time>
      </trkpt>
      <trkpt lat="43.96868" lon="2.02771">
        <ele>216.957769</ele>
        <time>2026-08-29T13:45:31Z</time>
      </trkpt>
      <trkpt lat="43.96865" lon="2.02774">
        <ele>216.975344</ele>
        <time>2026-08-29T13:45:32Z</time>
      </trkpt>
      <trkpt lat="43.96862" lon="2.02778">
        <ele>216.991168</ele>
        <time>2026-08-29T13:45:33Z</time>
      </trkpt>
      <trkpt lat="43.9686" lon="2.02781">
        <ele>217.006758</ele>
        <time>2026-08-29T13:45:34Z</time>
      </trkpt>
      <trkpt lat="43.96858" lon="2.02785">
        <ele>217.021724</ele>
        <time>2026-08-29T13:45:35Z</time>
      </trkpt>
      <trkpt lat="43.96855" lon="2.02788">
        <ele>217.036964</ele>
        <time>2026-08-29T13:45:36Z</time>
      </trkpt>
      <trkpt lat="43.96853" lon="2.02791">
        <ele>217.051338</ele>
        <time>2026-08-29T13:45:37Z</time>
      </trkpt>
      <trkpt lat="43.96851" lon="2.02795">
        <ele>217.066853</ele>
        <time>2026-08-29T13:45:38Z</time>
      </trkpt>
      <trkpt lat="43.96849" lon="2.02798">
        <ele>217.08261</ele>
        <time>2026-08-29T13:45:39Z</time>
      </trkpt>
      <trkpt lat="43.96846" lon="2.02801">
        <ele>217.098334</ele>
        <time>2026-08-29T13:45:40Z</time>
      </trkpt>
      <trkpt lat="43.96843" lon="2.02805">
        <ele>217.115129</ele>
        <time>2026-08-29T13:45:41Z</time>
      </trkpt>
      <trkpt lat="43.96841" lon="2.02809">
        <ele>217.132667</ele>
        <time>2026-08-29T13:45:42Z</time>
      </trkpt>
      <trkpt lat="43.96838" lon="2.02813">
        <ele>217.151578</ele>
        <time>2026-08-29T13:45:43Z</time>
      </trkpt>
      <trkpt lat="43.96835" lon="2.02818">
        <ele>217.022528</ele>
        <time>2026-08-29T13:45:44Z</time>
      </trkpt>
      <trkpt lat="43.96832" lon="2.02822">
        <ele>216.876075</ele>
        <time>2026-08-29T13:45:45Z</time>
      </trkpt>
      <trkpt lat="43.96829" lon="2.02827">
        <ele>216.727346</ele>
        <time>2026-08-29T13:45:46Z</time>
      </trkpt>
      <trkpt lat="43.96826" lon="2.02831">
        <ele>216.583503</ele>
        <time>2026-08-29T13:45:47Z</time>
      </trkpt>
      <trkpt lat="43.96823" lon="2.02836">
        <ele>216.429905</ele>
        <time>2026-08-29T13:45:48Z</time>
      </trkpt>
      <trkpt lat="43.9682" lon="2.02841">
        <ele>216.279913</ele>
        <time>2026-08-29T13:45:49Z</time>
      </trkpt>
      <trkpt lat="43.96817" lon="2.02846">
        <ele>216.126315</ele>
        <time>2026-08-29T13:45:50Z</time>
      </trkpt>
      <trkpt lat="43.96814" lon="2.02851">
        <ele>215.970547</ele>
        <time>2026-08-29T13:45:51Z</time>
      </trkpt>
      <trkpt lat="43.96811" lon="2.02856">
        <ele>215.812978</ele>
        <time>2026-08-29T13:45:52Z</time>
      </trkpt>
      <trkpt lat="43.96808" lon="2.02861">
        <ele>215.657791</ele>
        <time>2026-08-29T13:45:53Z</time>
      </trkpt>
      <trkpt lat="43.96805" lon="2.02866">
        <ele>215.502603</ele>
        <time>2026-08-29T13:45:54Z</time>
      </trkpt>
      <trkpt lat="43.96802" lon="2.02871">
        <ele>215.345337</ele>
        <time>2026-08-29T13:45:55Z</time>
      </trkpt>
      <trkpt lat="43.96799" lon="2.02876">
        <ele>215.191739</ele>
        <time>2026-08-29T13:45:56Z</time>
      </trkpt>
      <trkpt lat="43.96796" lon="2.02881">
        <ele>215.035521</ele>
        <time>2026-08-29T13:45:57Z</time>
      </trkpt>
      <trkpt lat="43.96793" lon="2.02886">
        <ele>214.877543</ele>
        <time>2026-08-29T13:45:58Z</time>
      </trkpt>
      <trkpt lat="43.96789" lon="2.0289">
        <ele>214.714399</ele>
        <time>2026-08-29T13:45:59Z</time>
      </trkpt>
      <trkpt lat="43.96786" lon="2.02895">
        <ele>214.552147</ele>
        <time>2026-08-29T13:46:00Z</time>
      </trkpt>
      <trkpt lat="43.96782" lon="2.02899">
        <ele>214.394655</ele>
        <time>2026-08-29T13:46:01Z</time>
      </trkpt>
      <trkpt lat="43.96778" lon="2.02903">
        <ele>214.240234</ele>
        <time>2026-08-29T13:46:02Z</time>
      </trkpt>
      <trkpt lat="43.96774" lon="2.02908">
        <ele>214.073907</ele>
        <time>2026-08-29T13:46:03Z</time>
      </trkpt>
      <trkpt lat="43.9677" lon="2.02912">
        <ele>213.911797</ele>
        <time>2026-08-29T13:46:04Z</time>
      </trkpt>
      <trkpt lat="43.96767" lon="2.02915">
        <ele>213.760358</ele>
        <time>2026-08-29T13:46:05Z</time>
      </trkpt>
      <trkpt lat="43.96763" lon="2.02919">
        <ele>213.599546</ele>
        <time>2026-08-29T13:46:06Z</time>
      </trkpt>
      <trkpt lat="43.96759" lon="2.02924">
        <ele>213.430561</ele>
        <time>2026-08-29T13:46:07Z</time>
      </trkpt>
      <trkpt lat="43.96755" lon="2.02928">
        <ele>213.258892</ele>
        <time>2026-08-29T13:46:08Z</time>
      </trkpt>
      <trkpt lat="43.9675" lon="2.02931">
        <ele>213.093914</ele>
        <time>2026-08-29T13:46:09Z</time>
      </trkpt>
      <trkpt lat="43.96746" lon="2.02935">
        <ele>212.923562</ele>
        <time>2026-08-29T13:46:10Z</time>
      </trkpt>
      <trkpt lat="43.96742" lon="2.02939">
        <ele>212.757017</ele>
        <time>2026-08-29T13:46:11Z</time>
      </trkpt>
      <trkpt lat="43.96737" lon="2.02943">
        <ele>212.586399</ele>
        <time>2026-08-29T13:46:12Z</time>
      </trkpt>
      <trkpt lat="43.96733" lon="2.02946">
        <ele>212.413259</ele>
        <time>2026-08-29T13:46:13Z</time>
      </trkpt>
      <trkpt lat="43.96728" lon="2.0295">
        <ele>212.240998</ele>
        <time>2026-08-29T13:46:14Z</time>
      </trkpt>
      <trkpt lat="43.96724" lon="2.02953">
        <ele>212.076243</ele>
        <time>2026-08-29T13:46:15Z</time>
      </trkpt>
      <trkpt lat="43.96719" lon="2.02957">
        <ele>211.904501</ele>
        <time>2026-08-29T13:46:16Z</time>
      </trkpt>
      <trkpt lat="43.96715" lon="2.0296">
        <ele>211.732758</ele>
        <time>2026-08-29T13:46:17Z</time>
      </trkpt>
      <trkpt lat="43.9671" lon="2.02963">
        <ele>211.556141</ele>
        <time>2026-08-29T13:46:18Z</time>
      </trkpt>
      <trkpt lat="43.96705" lon="2.02967">
        <ele>211.375186</ele>
        <time>2026-08-29T13:46:19Z</time>
      </trkpt>
      <trkpt lat="43.96701" lon="2.0297">
        <ele>211.200041</ele>
        <time>2026-08-29T13:46:20Z</time>
      </trkpt>
      <trkpt lat="43.96696" lon="2.02974">
        <ele>210.950759</ele>
        <time>2026-08-29T13:46:21Z</time>
      </trkpt>
      <trkpt lat="43.96691" lon="2.02977">
        <ele>210.686209</ele>
        <time>2026-08-29T13:46:22Z</time>
      </trkpt>
      <trkpt lat="43.96686" lon="2.02981">
        <ele>210.418427</ele>
        <time>2026-08-29T13:46:23Z</time>
      </trkpt>
      <trkpt lat="43.96681" lon="2.02985">
        <ele>210.155438</ele>
        <time>2026-08-29T13:46:24Z</time>
      </trkpt>
      <trkpt lat="43.96676" lon="2.02988">
        <ele>209.885035</ele>
        <time>2026-08-29T13:46:25Z</time>
      </trkpt>
      <trkpt lat="43.96672" lon="2.02992">
        <ele>209.627336</ele>
        <time>2026-08-29T13:46:26Z</time>
      </trkpt>
      <trkpt lat="43.96667" lon="2.02995">
        <ele>209.356933</ele>
        <time>2026-08-29T13:46:27Z</time>
      </trkpt>
      <trkpt lat="43.96662" lon="2.03">
        <ele>209.084558</ele>
        <time>2026-08-29T13:46:28Z</time>
      </trkpt>
      <trkpt lat="43.96657" lon="2.03004">
        <ele>208.814241</ele>
        <time>2026-08-29T13:46:29Z</time>
      </trkpt>
      <trkpt lat="43.96653" lon="2.0301">
        <ele>208.552293</ele>
        <time>2026-08-29T13:46:30Z</time>
      </trkpt>
      <trkpt lat="43.9665" lon="2.03016">
        <ele>208.273484</ele>
        <time>2026-08-29T13:46:31Z</time>
      </trkpt>
      <trkpt lat="43.96646" lon="2.03022">
        <ele>207.99005</ele>
        <time>2026-08-29T13:46:32Z</time>
      </trkpt>
      <trkpt lat="43.96643" lon="2.03029">
        <ele>207.700859</ele>
        <time>2026-08-29T13:46:33Z</time>
      </trkpt>
      <trkpt lat="43.9664" lon="2.03037">
        <ele>207.404955</ele>
        <time>2026-08-29T13:46:34Z</time>
      </trkpt>
      <trkpt lat="43.96637" lon="2.03045">
        <ele>207.106811</ele>
        <time>2026-08-29T13:46:35Z</time>
      </trkpt>
      <trkpt lat="43.96634" lon="2.03053">
        <ele>206.796267</ele>
        <time>2026-08-29T13:46:36Z</time>
      </trkpt>
      <trkpt lat="43.96632" lon="2.03061">
        <ele>206.485722</ele>
        <time>2026-08-29T13:46:37Z</time>
      </trkpt>
      <trkpt lat="43.96629" lon="2.03069">
        <ele>206.166865</ele>
        <time>2026-08-29T13:46:38Z</time>
      </trkpt>
      <trkpt lat="43.96625" lon="2.03078">
        <ele>205.82613</ele>
        <time>2026-08-29T13:46:39Z</time>
      </trkpt>
      <trkpt lat="43.96622" lon="2.03087">
        <ele>205.483202</ele>
        <time>2026-08-29T13:46:40Z</time>
      </trkpt>
      <trkpt lat="43.96619" lon="2.03095">
        <ele>205.148621</ele>
        <time>2026-08-29T13:46:41Z</time>
      </trkpt>
      <trkpt lat="43.96616" lon="2.03103">
        <ele>204.84841</ele>
        <time>2026-08-29T13:46:42Z</time>
      </trkpt>
      <trkpt lat="43.96614" lon="2.0311">
        <ele>204.578086</ele>
        <time>2026-08-29T13:46:43Z</time>
      </trkpt>
      <trkpt lat="43.96611" lon="2.03118">
        <ele>204.295257</ele>
        <time>2026-08-29T13:46:44Z</time>
      </trkpt>
      <trkpt lat="43.96608" lon="2.03125">
        <ele>203.992661</ele>
        <time>2026-08-29T13:46:45Z</time>
      </trkpt>
      <trkpt lat="43.96605" lon="2.03133">
        <ele>203.680908</ele>
        <time>2026-08-29T13:46:46Z</time>
      </trkpt>
      <trkpt lat="43.96602" lon="2.03142">
        <ele>203.353732</ele>
        <time>2026-08-29T13:46:47Z</time>
      </trkpt>
      <trkpt lat="43.96599" lon="2.03151">
        <ele>203.004659</ele>
        <time>2026-08-29T13:46:48Z</time>
      </trkpt>
      <trkpt lat="43.96595" lon="2.0316">
        <ele>202.648815</ele>
        <time>2026-08-29T13:46:49Z</time>
      </trkpt>
      <trkpt lat="43.96592" lon="2.03169">
        <ele>202.356211</ele>
        <time>2026-08-29T13:46:50Z</time>
      </trkpt>
      <trkpt lat="43.96588" lon="2.03178">
        <ele>202.080519</ele>
        <time>2026-08-29T13:46:51Z</time>
      </trkpt>
      <trkpt lat="43.96584" lon="2.03187">
        <ele>201.803413</ele>
        <time>2026-08-29T13:46:52Z</time>
      </trkpt>
      <trkpt lat="43.9658" lon="2.03195">
        <ele>201.53993</ele>
        <time>2026-08-29T13:46:53Z</time>
      </trkpt>
      <trkpt lat="43.96576" lon="2.03203">
        <ele>201.27444</ele>
        <time>2026-08-29T13:46:54Z</time>
      </trkpt>
      <trkpt lat="43.96572" lon="2.0321">
        <ele>201.039614</ele>
        <time>2026-08-29T13:46:55Z</time>
      </trkpt>
      <trkpt lat="43.96567" lon="2.03215">
        <ele>200.816445</ele>
        <time>2026-08-29T13:46:56Z</time>
      </trkpt>
      <trkpt lat="43.96562" lon="2.0322">
        <ele>200.592204</ele>
        <time>2026-08-29T13:46:57Z</time>
      </trkpt>
      <trkpt lat="43.96558" lon="2.03225">
        <ele>200.389015</ele>
        <time>2026-08-29T13:46:58Z</time>
      </trkpt>
      <trkpt lat="43.96553" lon="2.03229">
        <ele>200.18735</ele>
        <time>2026-08-29T13:46:59Z</time>
      </trkpt>
      <trkpt lat="43.96549" lon="2.03233">
        <ele>199.996221</ele>
        <time>2026-08-29T13:47:00Z</time>
      </trkpt>
      <trkpt lat="43.96544" lon="2.03237">
        <ele>199.810857</ele>
        <time>2026-08-29T13:47:01Z</time>
      </trkpt>
      <trkpt lat="43.9654" lon="2.0324">
        <ele>199.641034</ele>
        <time>2026-08-29T13:47:02Z</time>
      </trkpt>
      <trkpt lat="43.96537" lon="2.03243">
        <ele>199.485813</ele>
        <time>2026-08-29T13:47:03Z</time>
      </trkpt>
      <trkpt lat="43.96533" lon="2.03246">
        <ele>199.329299</ele>
        <time>2026-08-29T13:47:04Z</time>
      </trkpt>
      <trkpt lat="43.9653" lon="2.0325">
        <ele>199.169381</ele>
        <time>2026-08-29T13:47:05Z</time>
      </trkpt>
      <trkpt lat="43.96526" lon="2.03254">
        <ele>199.009849</ele>
        <time>2026-08-29T13:47:06Z</time>
      </trkpt>
      <trkpt lat="43.96523" lon="2.03257">
        <ele>198.845739</ele>
        <time>2026-08-29T13:47:07Z</time>
      </trkpt>
      <trkpt lat="43.9652" lon="2.03261">
        <ele>198.702614</ele>
        <time>2026-08-29T13:47:08Z</time>
      </trkpt>
      <trkpt lat="43.96517" lon="2.03265">
        <ele>198.548392</ele>
        <time>2026-08-29T13:47:09Z</time>
      </trkpt>
      <trkpt lat="43.96513" lon="2.03269">
        <ele>198.383398</ele>
        <time>2026-08-29T13:47:10Z</time>
      </trkpt>
      <trkpt lat="43.9651" lon="2.03273">
        <ele>198.222462</ele>
        <time>2026-08-29T13:47:11Z</time>
      </trkpt>
      <trkpt lat="43.96507" lon="2.03277">
        <ele>198.0727</ele>
        <time>2026-08-29T13:47:12Z</time>
      </trkpt>
      <trkpt lat="43.96505" lon="2.03282">
        <ele>197.919176</ele>
        <time>2026-08-29T13:47:13Z</time>
      </trkpt>
      <trkpt lat="43.96502" lon="2.03286">
        <ele>197.769414</ele>
        <time>2026-08-29T13:47:14Z</time>
      </trkpt>
      <trkpt lat="43.96499" lon="2.0329">
        <ele>197.624761</ele>
        <time>2026-08-29T13:47:15Z</time>
      </trkpt>
      <trkpt lat="43.96496" lon="2.03294">
        <ele>197.473751</ele>
        <time>2026-08-29T13:47:16Z</time>
      </trkpt>
      <trkpt lat="43.96493" lon="2.03299">
        <ele>197.310453</ele>
        <time>2026-08-29T13:47:17Z</time>
      </trkpt>
      <trkpt lat="43.9649" lon="2.03303">
        <ele>197.155531</ele>
        <time>2026-08-29T13:47:18Z</time>
      </trkpt>
      <trkpt lat="43.96488" lon="2.03307">
        <ele>197.017771</ele>
        <time>2026-08-29T13:47:19Z</time>
      </trkpt>
      <trkpt lat="43.96486" lon="2.03311">
        <ele>196.884414</ele>
        <time>2026-08-29T13:47:20Z</time>
      </trkpt>
      <trkpt lat="43.96483" lon="2.03313">
        <ele>196.774527</ele>
        <time>2026-08-29T13:47:21Z</time>
      </trkpt>
      <trkpt lat="43.9648" lon="2.03316">
        <ele>196.649454</ele>
        <time>2026-08-29T13:47:22Z</time>
      </trkpt>
      <trkpt lat="43.96477" lon="2.03319">
        <ele>196.517003</ele>
        <time>2026-08-29T13:47:23Z</time>
      </trkpt>
      <trkpt lat="43.96474" lon="2.03322">
        <ele>196.384497</ele>
        <time>2026-08-29T13:47:24Z</time>
      </trkpt>
      <trkpt lat="43.96471" lon="2.03325">
        <ele>196.244518</ele>
        <time>2026-08-29T13:47:25Z</time>
      </trkpt>
      <trkpt lat="43.96468" lon="2.03328">
        <ele>196.096907</ele>
        <time>2026-08-29T13:47:26Z</time>
      </trkpt>
      <trkpt lat="43.96465" lon="2.03331">
        <ele>195.95073</ele>
        <time>2026-08-29T13:47:27Z</time>
      </trkpt>
      <trkpt lat="43.96461" lon="2.03335">
        <ele>195.860028</ele>
        <time>2026-08-29T13:47:28Z</time>
      </trkpt>
      <trkpt lat="43.96458" lon="2.03338">
        <ele>195.771893</ele>
        <time>2026-08-29T13:47:29Z</time>
      </trkpt>
      <trkpt lat="43.96454" lon="2.03341">
        <ele>195.681864</ele>
        <time>2026-08-29T13:47:30Z</time>
      </trkpt>
      <trkpt lat="43.9645" lon="2.03344">
        <ele>195.595898</ele>
        <time>2026-08-29T13:47:31Z</time>
      </trkpt>
      <trkpt lat="43.96447" lon="2.03346">
        <ele>195.5132</ele>
        <time>2026-08-29T13:47:32Z</time>
      </trkpt>
      <trkpt lat="43.96443" lon="2.03349">
        <ele>195.43</ele>
        <time>2026-08-29T13:47:33Z</time>
      </trkpt>
      <trkpt lat="43.9644" lon="2.03351">
        <ele>195.352388</ele>
        <time>2026-08-29T13:47:34Z</time>
      </trkpt>
      <trkpt lat="43.96436" lon="2.03354">
        <ele>195.270788</ele>
        <time>2026-08-29T13:47:35Z</time>
      </trkpt>
      <trkpt lat="43.96433" lon="2.03357">
        <ele>195.188433</ele>
        <time>2026-08-29T13:47:36Z</time>
      </trkpt>
      <trkpt lat="43.9643" lon="2.03359">
        <ele>195.106431</ele>
        <time>2026-08-29T13:47:37Z</time>
      </trkpt>
      <trkpt lat="43.96426" lon="2.03362">
        <ele>195.019349</ele>
        <time>2026-08-29T13:47:38Z</time>
      </trkpt>
      <trkpt lat="43.96422" lon="2.03365">
        <ele>194.931559</ele>
        <time>2026-08-29T13:47:39Z</time>
      </trkpt>
      <trkpt lat="43.96419" lon="2.03367">
        <ele>194.849557</ele>
        <time>2026-08-29T13:47:40Z</time>
      </trkpt>
      <trkpt lat="43.96415" lon="2.0337">
        <ele>194.773061</ele>
        <time>2026-08-29T13:47:41Z</time>
      </trkpt>
      <trkpt lat="43.96412" lon="2.03372">
        <ele>194.692195</ele>
        <time>2026-08-29T13:47:42Z</time>
      </trkpt>
      <trkpt lat="43.96409" lon="2.03375">
        <ele>194.61204</ele>
        <time>2026-08-29T13:47:43Z</time>
      </trkpt>
      <trkpt lat="43.96405" lon="2.03377">
        <ele>194.532577</ele>
        <time>2026-08-29T13:47:44Z</time>
      </trkpt>
      <trkpt lat="43.96402" lon="2.03379">
        <ele>194.45631</ele>
        <time>2026-08-29T13:47:45Z</time>
      </trkpt>
      <trkpt lat="43.96398" lon="2.03382">
        <ele>194.374308</ele>
        <time>2026-08-29T13:47:46Z</time>
      </trkpt>
      <trkpt lat="43.96395" lon="2.03384">
        <ele>194.292361</ele>
        <time>2026-08-29T13:47:47Z</time>
      </trkpt>
      <trkpt lat="43.96391" lon="2.03386">
        <ele>194.211686</ele>
        <time>2026-08-29T13:47:48Z</time>
      </trkpt>
      <trkpt lat="43.96388" lon="2.03389">
        <ele>194.131532</ele>
        <time>2026-08-29T13:47:49Z</time>
      </trkpt>
      <trkpt lat="43.96384" lon="2.03391">
        <ele>194.050858</ele>
        <time>2026-08-29T13:47:50Z</time>
      </trkpt>
      <trkpt lat="43.96381" lon="2.03393">
        <ele>193.97459</ele>
        <time>2026-08-29T13:47:51Z</time>
      </trkpt>
      <trkpt lat="43.96378" lon="2.03395">
        <ele>193.896293</ele>
        <time>2026-08-29T13:47:52Z</time>
      </trkpt>
      <trkpt lat="43.96374" lon="2.03397">
        <ele>193.819933</ele>
        <time>2026-08-29T13:47:53Z</time>
      </trkpt>
      <trkpt lat="43.96371" lon="2.034">
        <ele>193.744862</ele>
        <time>2026-08-29T13:47:54Z</time>
      </trkpt>
      <trkpt lat="43.96368" lon="2.03402">
        <ele>193.671635</ele>
        <time>2026-08-29T13:47:55Z</time>
      </trkpt>
      <trkpt lat="43.96365" lon="2.03404">
        <ele>193.594393</ele>
        <time>2026-08-29T13:47:56Z</time>
      </trkpt>
      <trkpt lat="43.96361" lon="2.03407">
        <ele>193.513823</ele>
        <time>2026-08-29T13:47:57Z</time>
      </trkpt>
      <trkpt lat="43.96358" lon="2.0341">
        <ele>193.427114</ele>
        <time>2026-08-29T13:47:58Z</time>
      </trkpt>
      <trkpt lat="43.96354" lon="2.03413">
        <ele>193.338863</ele>
        <time>2026-08-29T13:47:59Z</time>
      </trkpt>
      <trkpt lat="43.9635" lon="2.03417">
        <ele>193.242121</ele>
        <time>2026-08-29T13:48:00Z</time>
      </trkpt>
      <trkpt lat="43.96346" lon="2.0342">
        <ele>193.145187</ele>
        <time>2026-08-29T13:48:01Z</time>
      </trkpt>
      <trkpt lat="43.96342" lon="2.03424">
        <ele>193.042492</ele>
        <time>2026-08-29T13:48:02Z</time>
      </trkpt>
      <trkpt lat="43.96338" lon="2.03427">
        <ele>192.940443</ele>
        <time>2026-08-29T13:48:03Z</time>
      </trkpt>
      <trkpt lat="43.96334" lon="2.03431">
        <ele>192.841944</ele>
        <time>2026-08-29T13:48:04Z</time>
      </trkpt>
      <trkpt lat="43.9633" lon="2.03434">
        <ele>192.739116</ele>
        <time>2026-08-29T13:48:05Z</time>
      </trkpt>
      <trkpt lat="43.96326" lon="2.03438">
        <ele>192.643179</ele>
        <time>2026-08-29T13:48:06Z</time>
      </trkpt>
      <trkpt lat="43.96322" lon="2.03441">
        <ele>192.545615</ele>
        <time>2026-08-29T13:48:07Z</time>
      </trkpt>
      <trkpt lat="43.96318" lon="2.03445">
        <ele>192.448353</ele>
        <time>2026-08-29T13:48:08Z</time>
      </trkpt>
      <trkpt lat="43.96314" lon="2.03448">
        <ele>192.351091</ele>
        <time>2026-08-29T13:48:09Z</time>
      </trkpt>
      <trkpt lat="43.9631" lon="2.03451">
        <ele>192.253104</ele>
        <time>2026-08-29T13:48:10Z</time>
      </trkpt>
      <trkpt lat="43.96306" lon="2.03454">
        <ele>192.151656</ele>
        <time>2026-08-29T13:48:11Z</time>
      </trkpt>
      <trkpt lat="43.96302" lon="2.03457">
        <ele>192.037242</ele>
        <time>2026-08-29T13:48:12Z</time>
      </trkpt>
      <trkpt lat="43.96298" lon="2.0346">
        <ele>191.9189</ele>
        <time>2026-08-29T13:48:13Z</time>
      </trkpt>
      <trkpt lat="43.96294" lon="2.03463">
        <ele>191.80579</ele>
        <time>2026-08-29T13:48:14Z</time>
      </trkpt>
      <trkpt lat="43.96289" lon="2.03466">
        <ele>191.68964</ele>
        <time>2026-08-29T13:48:15Z</time>
      </trkpt>
      <trkpt lat="43.96285" lon="2.03469">
        <ele>191.566948</ele>
        <time>2026-08-29T13:48:16Z</time>
      </trkpt>
      <trkpt lat="43.96281" lon="2.03472">
        <ele>191.443369</ele>
        <time>2026-08-29T13:48:17Z</time>
      </trkpt>
      <trkpt lat="43.96276" lon="2.03475">
        <ele>191.323638</ele>
        <time>2026-08-29T13:48:18Z</time>
      </trkpt>
      <trkpt lat="43.96272" lon="2.03478">
        <ele>191.203573</ele>
        <time>2026-08-29T13:48:19Z</time>
      </trkpt>
      <trkpt lat="43.96268" lon="2.03481">
        <ele>191.082192</ele>
        <time>2026-08-29T13:48:20Z</time>
      </trkpt>
      <trkpt lat="43.96263" lon="2.03485">
        <ele>190.952539</ele>
        <time>2026-08-29T13:48:21Z</time>
      </trkpt>
      <trkpt lat="43.96259" lon="2.03488">
        <ele>190.825321</ele>
        <time>2026-08-29T13:48:22Z</time>
      </trkpt>
      <trkpt lat="43.96254" lon="2.03491">
        <ele>190.703941</ele>
        <time>2026-08-29T13:48:23Z</time>
      </trkpt>
      <trkpt lat="43.9625" lon="2.03494">
        <ele>190.587236</ele>
        <time>2026-08-29T13:48:24Z</time>
      </trkpt>
      <trkpt lat="43.96246" lon="2.03496">
        <ele>190.475822</ele>
        <time>2026-08-29T13:48:25Z</time>
      </trkpt>
      <trkpt lat="43.96242" lon="2.03499">
        <ele>190.371954</ele>
        <time>2026-08-29T13:48:26Z</time>
      </trkpt>
      <trkpt lat="43.96238" lon="2.03501">
        <ele>190.262813</ele>
        <time>2026-08-29T13:48:27Z</time>
      </trkpt>
      <trkpt lat="43.96234" lon="2.03504">
        <ele>190.161205</ele>
        <time>2026-08-29T13:48:28Z</time>
      </trkpt>
      <trkpt lat="43.96231" lon="2.03507">
        <ele>190.050279</ele>
        <time>2026-08-29T13:48:29Z</time>
      </trkpt>
      <trkpt lat="43.96226" lon="2.03509">
        <ele>189.937377</ele>
        <time>2026-08-29T13:48:30Z</time>
      </trkpt>
      <trkpt lat="43.96222" lon="2.03512">
        <ele>189.828959</ele>
        <time>2026-08-29T13:48:31Z</time>
      </trkpt>
      <trkpt lat="43.96219" lon="2.03514">
        <ele>189.722083</ele>
        <time>2026-08-29T13:48:32Z</time>
      </trkpt>
      <trkpt lat="43.96215" lon="2.03517">
        <ele>189.612196</ele>
        <time>2026-08-29T13:48:33Z</time>
      </trkpt>
      <trkpt lat="43.96211" lon="2.0352">
        <ele>189.499086</ele>
        <time>2026-08-29T13:48:34Z</time>
      </trkpt>
      <trkpt lat="43.96207" lon="2.03524">
        <ele>189.378508</ele>
        <time>2026-08-29T13:48:35Z</time>
      </trkpt>
      <trkpt lat="43.96203" lon="2.03527">
        <ele>189.262749</ele>
        <time>2026-08-29T13:48:36Z</time>
      </trkpt>
      <trkpt lat="43.96198" lon="2.0353">
        <ele>189.13855</ele>
        <time>2026-08-29T13:48:37Z</time>
      </trkpt>
      <trkpt lat="43.96193" lon="2.03533">
        <ele>189.009089</ele>
        <time>2026-08-29T13:48:38Z</time>
      </trkpt>
      <trkpt lat="43.96189" lon="2.03536">
        <ele>188.881871</ele>
        <time>2026-08-29T13:48:39Z</time>
      </trkpt>
      <trkpt lat="43.96184" lon="2.03539">
        <ele>188.753167</ele>
        <time>2026-08-29T13:48:40Z</time>
      </trkpt>
      <trkpt lat="43.9618" lon="2.03542">
        <ele>188.628968</ele>
        <time>2026-08-29T13:48:41Z</time>
      </trkpt>
      <trkpt lat="43.96175" lon="2.03546">
        <ele>188.508011</ele>
        <time>2026-08-29T13:48:42Z</time>
      </trkpt>
      <trkpt lat="43.96171" lon="2.03549">
        <ele>188.386356</ele>
        <time>2026-08-29T13:48:43Z</time>
      </trkpt>
      <trkpt lat="43.96167" lon="2.03553">
        <ele>188.269853</ele>
        <time>2026-08-29T13:48:44Z</time>
      </trkpt>
      <trkpt lat="43.96164" lon="2.03557">
        <ele>188.15948</ele>
        <time>2026-08-29T13:48:45Z</time>
      </trkpt>
      <trkpt lat="43.9616" lon="2.03561">
        <ele>188.041921</ele>
        <time>2026-08-29T13:48:46Z</time>
      </trkpt>
      <trkpt lat="43.96157" lon="2.03565">
        <ele>187.923258</ele>
        <time>2026-08-29T13:48:47Z</time>
      </trkpt>
      <trkpt lat="43.96153" lon="2.0357">
        <ele>187.799616</ele>
        <time>2026-08-29T13:48:48Z</time>
      </trkpt>
      <trkpt lat="43.96149" lon="2.03574">
        <ele>187.680153</ele>
        <time>2026-08-29T13:48:49Z</time>
      </trkpt>
      <trkpt lat="43.96146" lon="2.03578">
        <ele>187.567829</ele>
        <time>2026-08-29T13:48:50Z</time>
      </trkpt>
      <trkpt lat="43.96144" lon="2.03583">
        <ele>187.461206</ele>
        <time>2026-08-29T13:48:51Z</time>
      </trkpt>
      <trkpt lat="43.96142" lon="2.03587">
        <ele>187.368342</ele>
        <time>2026-08-29T13:48:52Z</time>
      </trkpt>
      <trkpt lat="43.9614" lon="2.03591">
        <ele>187.281443</ele>
        <time>2026-08-29T13:48:53Z</time>
      </trkpt>
      <trkpt lat="43.96138" lon="2.03595">
        <ele>187.186984</ele>
        <time>2026-08-29T13:48:54Z</time>
      </trkpt>
      <trkpt lat="43.96136" lon="2.036">
        <ele>187.08042</ele>
        <time>2026-08-29T13:48:55Z</time>
      </trkpt>
      <trkpt lat="43.96134" lon="2.03604">
        <ele>186.984177</ele>
        <time>2026-08-29T13:48:56Z</time>
      </trkpt>
      <trkpt lat="43.96132" lon="2.03609">
        <ele>186.872555</ele>
        <time>2026-08-29T13:48:57Z</time>
      </trkpt>
      <trkpt lat="43.9613" lon="2.03615">
        <ele>186.761967</ele>
        <time>2026-08-29T13:48:58Z</time>
      </trkpt>
      <trkpt lat="43.96128" lon="2.0362">
        <ele>186.648488</ele>
        <time>2026-08-29T13:48:59Z</time>
      </trkpt>
      <trkpt lat="43.96126" lon="2.03625">
        <ele>186.537901</ele>
        <time>2026-08-29T13:49:00Z</time>
      </trkpt>
      <trkpt lat="43.96124" lon="2.03631">
        <ele>186.416585</ele>
        <time>2026-08-29T13:49:01Z</time>
      </trkpt>
      <trkpt lat="43.96122" lon="2.03635">
        <ele>186.314412</ele>
        <time>2026-08-29T13:49:02Z</time>
      </trkpt>
      <trkpt lat="43.9612" lon="2.0364">
        <ele>186.212001</ele>
        <time>2026-08-29T13:49:03Z</time>
      </trkpt>
      <trkpt lat="43.96117" lon="2.03645">
        <ele>186.098522</ele>
        <time>2026-08-29T13:49:04Z</time>
      </trkpt>
      <trkpt lat="43.96115" lon="2.03651">
        <ele>185.978415</ele>
        <time>2026-08-29T13:49:05Z</time>
      </trkpt>
      <trkpt lat="43.96114" lon="2.03657">
        <ele>185.858218</ele>
        <time>2026-08-29T13:49:06Z</time>
      </trkpt>
      <trkpt lat="43.96112" lon="2.03663">
        <ele>185.736292</ele>
        <time>2026-08-29T13:49:07Z</time>
      </trkpt>
      <trkpt lat="43.9611" lon="2.03668">
        <ele>185.625704</ele>
        <time>2026-08-29T13:49:08Z</time>
      </trkpt>
      <trkpt lat="43.96107" lon="2.03672">
        <ele>185.529461</ele>
        <time>2026-08-29T13:49:09Z</time>
      </trkpt>
      <trkpt lat="43.96105" lon="2.03677">
        <ele>185.422494</ele>
        <time>2026-08-29T13:49:10Z</time>
      </trkpt>
      <trkpt lat="43.96103" lon="2.03681">
        <ele>185.32625</ele>
        <time>2026-08-29T13:49:11Z</time>
      </trkpt>
      <trkpt lat="43.96101" lon="2.03686">
        <ele>185.220592</ele>
        <time>2026-08-29T13:49:12Z</time>
      </trkpt>
      <trkpt lat="43.96099" lon="2.0369">
        <ele>185.129238</ele>
        <time>2026-08-29T13:49:13Z</time>
      </trkpt>
      <trkpt lat="43.96098" lon="2.03694">
        <ele>185.040487</ele>
        <time>2026-08-29T13:49:14Z</time>
      </trkpt>
      <trkpt lat="43.96096" lon="2.03699">
        <ele>184.940627</ele>
        <time>2026-08-29T13:49:15Z</time>
      </trkpt>
      <trkpt lat="43.96094" lon="2.03703">
        <ele>184.850246</ele>
        <time>2026-08-29T13:49:16Z</time>
      </trkpt>
      <trkpt lat="43.96092" lon="2.03707">
        <ele>184.754217</ele>
        <time>2026-08-29T13:49:17Z</time>
      </trkpt>
      <trkpt lat="43.9609" lon="2.03712">
        <ele>184.653415</ele>
        <time>2026-08-29T13:49:18Z</time>
      </trkpt>
      <trkpt lat="43.96088" lon="2.03717">
        <ele>184.547994</ele>
        <time>2026-08-29T13:49:19Z</time>
      </trkpt>
      <trkpt lat="43.96086" lon="2.03723">
        <ele>184.432412</ele>
        <time>2026-08-29T13:49:20Z</time>
      </trkpt>
      <trkpt lat="43.96084" lon="2.03728">
        <ele>184.321111</ele>
        <time>2026-08-29T13:49:21Z</time>
      </trkpt>
      <trkpt lat="43.96082" lon="2.03733">
        <ele>184.20981</ele>
        <time>2026-08-29T13:49:22Z</time>
      </trkpt>
      <trkpt lat="43.96079" lon="2.03737">
        <ele>184.101486</ele>
        <time>2026-08-29T13:49:23Z</time>
      </trkpt>
      <trkpt lat="43.96077" lon="2.03742">
        <ele>183.99176</ele>
        <time>2026-08-29T13:49:24Z</time>
      </trkpt>
      <trkpt lat="43.96075" lon="2.03747">
        <ele>183.889586</ele>
        <time>2026-08-29T13:49:25Z</time>
      </trkpt>
      <trkpt lat="43.96073" lon="2.03751">
        <ele>183.793665</ele>
        <time>2026-08-29T13:49:26Z</time>
      </trkpt>
      <trkpt lat="43.96071" lon="2.03755">
        <ele>183.699278</ele>
        <time>2026-08-29T13:49:27Z</time>
      </trkpt>
      <trkpt lat="43.96069" lon="2.03759">
        <ele>183.607813</ele>
        <time>2026-08-29T13:49:28Z</time>
      </trkpt>
      <trkpt lat="43.96067" lon="2.03763">
        <ele>183.522487</ele>
        <time>2026-08-29T13:49:29Z</time>
      </trkpt>
      <trkpt lat="43.96065" lon="2.03767">
        <ele>183.438565</ele>
        <time>2026-08-29T13:49:30Z</time>
      </trkpt>
      <trkpt lat="43.96064" lon="2.03771">
        <ele>183.356229</ele>
        <time>2026-08-29T13:49:31Z</time>
      </trkpt>
      <trkpt lat="43.96062" lon="2.03775">
        <ele>183.266336</ele>
        <time>2026-08-29T13:49:32Z</time>
      </trkpt>
      <trkpt lat="43.9606" lon="2.03779">
        <ele>183.176517</ele>
        <time>2026-08-29T13:49:33Z</time>
      </trkpt>
      <trkpt lat="43.96058" lon="2.03783">
        <ele>183.086624</ele>
        <time>2026-08-29T13:49:34Z</time>
      </trkpt>
      <trkpt lat="43.96057" lon="2.03787">
        <ele>183.1302</ele>
        <time>2026-08-29T13:49:35Z</time>
      </trkpt>
      <trkpt lat="43.96056" lon="2.03791">
        <ele>183.259613</ele>
        <time>2026-08-29T13:49:36Z</time>
      </trkpt>
      <trkpt lat="43.96055" lon="2.03795">
        <ele>183.389772</ele>
        <time>2026-08-29T13:49:37Z</time>
      </trkpt>
      <trkpt lat="43.96055" lon="2.038">
        <ele>183.528716</ele>
        <time>2026-08-29T13:49:38Z</time>
      </trkpt>
      <trkpt lat="43.96055" lon="2.03805">
        <ele>183.678133</ele>
        <time>2026-08-29T13:49:39Z</time>
      </trkpt>
      <trkpt lat="43.96056" lon="2.0381">
        <ele>183.833739</ele>
        <time>2026-08-29T13:49:40Z</time>
      </trkpt>
      <trkpt lat="43.96058" lon="2.03815">
        <ele>184.003424</ele>
        <time>2026-08-29T13:49:41Z</time>
      </trkpt>
      <trkpt lat="43.9606" lon="2.0382">
        <ele>184.166171</ele>
        <time>2026-08-29T13:49:42Z</time>
      </trkpt>
      <trkpt lat="43.96062" lon="2.03824">
        <ele>184.318968</ele>
        <time>2026-08-29T13:49:43Z</time>
      </trkpt>
      <trkpt lat="43.96064" lon="2.03828">
        <ele>184.483143</ele>
        <time>2026-08-29T13:49:44Z</time>
      </trkpt>
      <trkpt lat="43.96066" lon="2.03832">
        <ele>184.630189</ele>
        <time>2026-08-29T13:49:45Z</time>
      </trkpt>
      <trkpt lat="43.96068" lon="2.03836">
        <ele>184.779663</ele>
        <time>2026-08-29T13:49:46Z</time>
      </trkpt>
      <trkpt lat="43.9607" lon="2.0384">
        <ele>184.929138</ele>
        <time>2026-08-29T13:49:47Z</time>
      </trkpt>
      <trkpt lat="43.96072" lon="2.03844">
        <ele>185.071262</ele>
        <time>2026-08-29T13:49:48Z</time>
      </trkpt>
      <trkpt lat="43.96074" lon="2.03848">
        <ele>185.223246</ele>
        <time>2026-08-29T13:49:49Z</time>
      </trkpt>
      <trkpt lat="43.96076" lon="2.03852">
        <ele>185.355583</ele>
        <time>2026-08-29T13:49:50Z</time>
      </trkpt>
      <trkpt lat="43.96078" lon="2.03855">
        <ele>185.483008</ele>
        <time>2026-08-29T13:49:51Z</time>
      </trkpt>
      <trkpt lat="43.9608" lon="2.03859">
        <ele>185.615345</ele>
        <time>2026-08-29T13:49:52Z</time>
      </trkpt>
      <trkpt lat="43.96082" lon="2.03862">
        <ele>185.733005</ele>
        <time>2026-08-29T13:49:53Z</time>
      </trkpt>
      <trkpt lat="43.96084" lon="2.03864">
        <ele>185.840004</ele>
        <time>2026-08-29T13:49:54Z</time>
      </trkpt>
      <trkpt lat="43.96086" lon="2.03866">
        <ele>185.969791</ele>
        <time>2026-08-29T13:49:55Z</time>
      </trkpt>
      <trkpt lat="43.96089" lon="2.03868">
        <ele>186.083599</ele>
        <time>2026-08-29T13:49:56Z</time>
      </trkpt>
      <trkpt lat="43.96091" lon="2.03871">
        <ele>186.204854</ele>
        <time>2026-08-29T13:49:57Z</time>
      </trkpt>
      <trkpt lat="43.96093" lon="2.03873">
        <ele>186.315578</ele>
        <time>2026-08-29T13:49:58Z</time>
      </trkpt>
      <trkpt lat="43.96095" lon="2.03874">
        <ele>186.405799</ele>
        <time>2026-08-29T13:49:59Z</time>
      </trkpt>
      <trkpt lat="43.96096" lon="2.03874">
        <ele>186.464829</ele>
        <time>2026-08-29T13:50:00Z</time>
      </trkpt>
      <trkpt lat="43.96098" lon="2.03875">
        <ele>186.523308</ele>
        <time>2026-08-29T13:50:01Z</time>
      </trkpt>
      <trkpt lat="43.96098" lon="2.03875">
        <ele>186.56144</ele>
        <time>2026-08-29T13:50:02Z</time>
      </trkpt>
      <trkpt lat="43.96099" lon="2.03876">
        <ele>186.589354</ele>
        <time>2026-08-29T13:50:03Z</time>
      </trkpt>
      <trkpt lat="43.96099" lon="2.03875">
        <ele>186.604857</ele>
        <time>2026-08-29T13:50:04Z</time>
      </trkpt>
      <trkpt lat="43.96106" lon="2.03878">
        <ele>186.890259</ele>
        <time>2026-08-29T13:50:26Z</time>
      </trkpt>
      <trkpt lat="43.96107" lon="2.03879">
        <ele>186.972946</ele>
        <time>2026-08-29T13:50:27Z</time>
      </trkpt>
      <trkpt lat="43.96109" lon="2.0388">
        <ele>187.055425</ele>
        <time>2026-08-29T13:50:28Z</time>
      </trkpt>
      <trkpt lat="43.96111" lon="2.03882">
        <ele>187.14176</ele>
        <time>2026-08-29T13:50:29Z</time>
      </trkpt>
      <trkpt lat="43.96113" lon="2.03883">
        <ele>187.226851</ele>
        <time>2026-08-29T13:50:30Z</time>
      </trkpt>
      <trkpt lat="43.96114" lon="2.03884">
        <ele>187.299451</ele>
        <time>2026-08-29T13:50:31Z</time>
      </trkpt>
      <trkpt lat="43.96116" lon="2.03886">
        <ele>187.382587</ele>
        <time>2026-08-29T13:50:32Z</time>
      </trkpt>
      <trkpt lat="43.96118" lon="2.03887">
        <ele>187.466328</ele>
        <time>2026-08-29T13:50:33Z</time>
      </trkpt>
      <trkpt lat="43.96119" lon="2.03888">
        <ele>187.532355</ele>
        <time>2026-08-29T13:50:34Z</time>
      </trkpt>
      <trkpt lat="43.96121" lon="2.03889">
        <ele>187.604956</ele>
        <time>2026-08-29T13:50:35Z</time>
      </trkpt>
      <trkpt lat="43.96122" lon="2.03891">
        <ele>187.675585</ele>
        <time>2026-08-29T13:50:36Z</time>
      </trkpt>
      <trkpt lat="43.96124" lon="2.03892">
        <ele>187.75185</ele>
        <time>2026-08-29T13:50:37Z</time>
      </trkpt>
      <trkpt lat="43.96125" lon="2.03893">
        <ele>187.825437</ele>
        <time>2026-08-29T13:50:38Z</time>
      </trkpt>
      <trkpt lat="43.96127" lon="2.03894">
        <ele>187.906397</ele>
        <time>2026-08-29T13:50:39Z</time>
      </trkpt>
      <trkpt lat="43.96129" lon="2.03895">
        <ele>187.986377</ele>
        <time>2026-08-29T13:50:40Z</time>
      </trkpt>
      <trkpt lat="43.9613" lon="2.03897">
        <ele>188.066357</ele>
        <time>2026-08-29T13:50:41Z</time>
      </trkpt>
      <trkpt lat="43.96132" lon="2.03898">
        <ele>188.149247</ele>
        <time>2026-08-29T13:50:42Z</time>
      </trkpt>
      <trkpt lat="43.96133" lon="2.039">
        <ele>188.228567</ele>
        <time>2026-08-29T13:50:43Z</time>
      </trkpt>
      <trkpt lat="43.96135" lon="2.03901">
        <ele>188.312308</ele>
        <time>2026-08-29T13:50:44Z</time>
      </trkpt>
      <trkpt lat="43.96137" lon="2.03902">
        <ele>188.389739</ele>
        <time>2026-08-29T13:50:45Z</time>
      </trkpt>
      <trkpt lat="43.96139" lon="2.03903">
        <ele>188.47105</ele>
        <time>2026-08-29T13:50:46Z</time>
      </trkpt>
      <trkpt lat="43.9614" lon="2.03904">
        <ele>188.534876</ele>
        <time>2026-08-29T13:50:47Z</time>
      </trkpt>
      <trkpt lat="43.96142" lon="2.03906">
        <ele>188.614187</ele>
        <time>2026-08-29T13:50:48Z</time>
      </trkpt>
      <trkpt lat="43.96143" lon="2.03907">
        <ele>188.687033</ele>
        <time>2026-08-29T13:50:49Z</time>
      </trkpt>
      <trkpt lat="43.96144" lon="2.03909">
        <ele>188.762827</ele>
        <time>2026-08-29T13:50:50Z</time>
      </trkpt>
      <trkpt lat="43.96146" lon="2.0391">
        <ele>188.844219</ele>
        <time>2026-08-29T13:50:51Z</time>
      </trkpt>
      <trkpt lat="43.96148" lon="2.03911">
        <ele>188.92353</ele>
        <time>2026-08-29T13:50:52Z</time>
      </trkpt>
      <trkpt lat="43.96149" lon="2.03912">
        <ele>189.006009</ele>
        <time>2026-08-29T13:50:53Z</time>
      </trkpt>
      <trkpt lat="43.96151" lon="2.03913">
        <ele>189.075793</ele>
        <time>2026-08-29T13:50:54Z</time>
      </trkpt>
      <trkpt lat="43.96153" lon="2.03914">
        <ele>189.148194</ele>
        <time>2026-08-29T13:50:55Z</time>
      </trkpt>
      <trkpt lat="43.96154" lon="2.03915">
        <ele>189.217705</ele>
        <time>2026-08-29T13:50:56Z</time>
      </trkpt>
      <trkpt lat="43.96156" lon="2.03916">
        <ele>189.286237</ele>
        <time>2026-08-29T13:50:57Z</time>
      </trkpt>
      <trkpt lat="43.96157" lon="2.03917">
        <ele>189.347158</ele>
        <time>2026-08-29T13:50:58Z</time>
      </trkpt>
      <trkpt lat="43.96159" lon="2.03918">
        <ele>189.423422</ele>
        <time>2026-08-29T13:50:59Z</time>
      </trkpt>
      <trkpt lat="43.9616" lon="2.03919">
        <ele>189.49242</ele>
        <time>2026-08-29T13:51:00Z</time>
      </trkpt>
      <trkpt lat="43.96161" lon="2.0392">
        <ele>189.56502</ele>
        <time>2026-08-29T13:51:01Z</time>
      </trkpt>
      <trkpt lat="43.96163" lon="2.03921">
        <ele>189.638608</ele>
        <time>2026-08-29T13:51:02Z</time>
      </trkpt>
      <trkpt lat="43.96165" lon="2.03922">
        <ele>189.713485</ele>
        <time>2026-08-29T13:51:03Z</time>
      </trkpt>
      <trkpt lat="43.96166" lon="2.03923">
        <ele>189.788361</ele>
        <time>2026-08-29T13:51:04Z</time>
      </trkpt>
      <trkpt lat="43.96168" lon="2.03924">
        <ele>189.858145</ele>
        <time>2026-08-29T13:51:05Z</time>
      </trkpt>
      <trkpt lat="43.96169" lon="2.03926">
        <ele>189.933022</ele>
        <time>2026-08-29T13:51:06Z</time>
      </trkpt>
      <trkpt lat="43.96171" lon="2.03927">
        <ele>190.005623</ele>
        <time>2026-08-29T13:51:07Z</time>
      </trkpt>
      <trkpt lat="43.96172" lon="2.03928">
        <ele>190.071087</ele>
        <time>2026-08-29T13:51:08Z</time>
      </trkpt>
      <trkpt lat="43.96174" lon="2.03929">
        <ele>190.137115</ele>
        <time>2026-08-29T13:51:09Z</time>
      </trkpt>
      <trkpt lat="43.96175" lon="2.0393">
        <ele>190.197416</ele>
        <time>2026-08-29T13:51:10Z</time>
      </trkpt>
      <trkpt lat="43.96176" lon="2.03931">
        <ele>190.264598</ele>
        <time>2026-08-29T13:51:11Z</time>
      </trkpt>
      <trkpt lat="43.96177" lon="2.03933">
        <ele>190.335228</ele>
        <time>2026-08-29T13:51:12Z</time>
      </trkpt>
      <trkpt lat="43.96179" lon="2.03934">
        <ele>190.402411</ele>
        <time>2026-08-29T13:51:13Z</time>
      </trkpt>
      <trkpt lat="43.9618" lon="2.03935">
        <ele>190.478205</ele>
        <time>2026-08-29T13:51:14Z</time>
      </trkpt>
      <trkpt lat="43.96182" lon="2.03937">
        <ele>190.550805</ele>
        <time>2026-08-29T13:51:15Z</time>
      </trkpt>
      <trkpt lat="43.96183" lon="2.03938">
        <ele>190.654701</ele>
        <time>2026-08-29T13:51:16Z</time>
      </trkpt>
      <trkpt lat="43.96185" lon="2.03939">
        <ele>190.781426</ele>
        <time>2026-08-29T13:51:17Z</time>
      </trkpt>
      <trkpt lat="43.96187" lon="2.03941">
        <ele>190.903117</ele>
        <time>2026-08-29T13:51:18Z</time>
      </trkpt>
      <trkpt lat="43.96188" lon="2.03942">
        <ele>191.022136</ele>
        <time>2026-08-29T13:51:19Z</time>
      </trkpt>
      <trkpt lat="43.96189" lon="2.03944">
        <ele>191.148846</ele>
        <time>2026-08-29T13:51:20Z</time>
      </trkpt>
      <trkpt lat="43.96191" lon="2.03945">
        <ele>191.237406</ele>
        <time>2026-08-29T13:51:21Z</time>
      </trkpt>
      <trkpt lat="43.96192" lon="2.03946">
        <ele>191.372217</ele>
        <time>2026-08-29T13:51:22Z</time>
      </trkpt>
      <trkpt lat="43.96194" lon="2.03948">
        <ele>191.493556</ele>
        <time>2026-08-29T13:51:23Z</time>
      </trkpt>
      <trkpt lat="43.96195" lon="2.03949">
        <ele>191.591115</ele>
        <time>2026-08-29T13:51:24Z</time>
      </trkpt>
      <trkpt lat="43.96196" lon="2.0395">
        <ele>191.682985</ele>
        <time>2026-08-29T13:51:25Z</time>
      </trkpt>
      <trkpt lat="43.96198" lon="2.03951">
        <ele>191.782918</ele>
        <time>2026-08-29T13:51:26Z</time>
      </trkpt>
      <trkpt lat="43.96199" lon="2.03952">
        <ele>191.898104</ele>
        <time>2026-08-29T13:51:27Z</time>
      </trkpt>
      <trkpt lat="43.962" lon="2.03953">
        <ele>192.006093</ele>
        <time>2026-08-29T13:51:28Z</time>
      </trkpt>
      <trkpt lat="43.96202" lon="2.03955">
        <ele>192.135521</ele>
        <time>2026-08-29T13:51:29Z</time>
      </trkpt>
      <trkpt lat="43.96204" lon="2.03956">
        <ele>192.254161</ele>
        <time>2026-08-29T13:51:30Z</time>
      </trkpt>
      <trkpt lat="43.96205" lon="2.03957">
        <ele>192.343692</ele>
        <time>2026-08-29T13:51:31Z</time>
      </trkpt>
      <trkpt lat="43.96205" lon="2.03959">
        <ele>192.428172</ele>
        <time>2026-08-29T13:51:32Z</time>
      </trkpt>
      <trkpt lat="43.96207" lon="2.0396">
        <ele>192.523531</ele>
        <time>2026-08-29T13:51:33Z</time>
      </trkpt>
      <trkpt lat="43.96208" lon="2.0396">
        <ele>192.602966</ele>
        <time>2026-08-29T13:51:34Z</time>
      </trkpt>
      <trkpt lat="43.96209" lon="2.03961">
        <ele>192.690351</ele>
        <time>2026-08-29T13:51:35Z</time>
      </trkpt>
      <trkpt lat="43.9621" lon="2.03962">
        <ele>192.793702</ele>
        <time>2026-08-29T13:51:36Z</time>
      </trkpt>
      <trkpt lat="43.96212" lon="2.03964">
        <ele>192.893608</ele>
        <time>2026-08-29T13:51:37Z</time>
      </trkpt>
      <trkpt lat="43.96213" lon="2.03965">
        <ele>193.012982</ele>
        <time>2026-08-29T13:51:38Z</time>
      </trkpt>
      <trkpt lat="43.96214" lon="2.03967">
        <ele>193.132435</ele>
        <time>2026-08-29T13:51:39Z</time>
      </trkpt>
      <trkpt lat="43.96216" lon="2.03968">
        <ele>193.246459</ele>
        <time>2026-08-29T13:51:40Z</time>
      </trkpt>
      <trkpt lat="43.96217" lon="2.03969">
        <ele>193.3601</ele>
        <time>2026-08-29T13:51:41Z</time>
      </trkpt>
      <trkpt lat="43.96219" lon="2.03971">
        <ele>193.484243</ele>
        <time>2026-08-29T13:51:42Z</time>
      </trkpt>
      <trkpt lat="43.9622" lon="2.03972">
        <ele>193.602883</ele>
        <time>2026-08-29T13:51:43Z</time>
      </trkpt>
      <trkpt lat="43.96222" lon="2.03973">
        <ele>193.728074</ele>
        <time>2026-08-29T13:51:44Z</time>
      </trkpt>
      <trkpt lat="43.96224" lon="2.03975">
        <ele>193.849412</ele>
        <time>2026-08-29T13:51:45Z</time>
      </trkpt>
      <trkpt lat="43.96225" lon="2.03976">
        <ele>193.965486</ele>
        <time>2026-08-29T13:51:46Z</time>
      </trkpt>
      <trkpt lat="43.96226" lon="2.03978">
        <ele>194.076041</ele>
        <time>2026-08-29T13:51:47Z</time>
      </trkpt>
      <trkpt lat="43.96228" lon="2.03979">
        <ele>194.178512</ele>
        <time>2026-08-29T13:51:48Z</time>
      </trkpt>
      <trkpt lat="43.96229" lon="2.0398">
        <ele>194.303703</ele>
        <time>2026-08-29T13:51:49Z</time>
      </trkpt>
      <trkpt lat="43.96231" lon="2.03981">
        <ele>194.425393</ele>
        <time>2026-08-29T13:51:50Z</time>
      </trkpt>
      <trkpt lat="43.96232" lon="2.03984">
        <ele>194.552103</ele>
        <time>2026-08-29T13:51:51Z</time>
      </trkpt>
      <trkpt lat="43.96233" lon="2.03985">
        <ele>194.660092</ele>
        <time>2026-08-29T13:51:52Z</time>
      </trkpt>
      <trkpt lat="43.96235" lon="2.03986">
        <ele>194.779467</ele>
        <time>2026-08-29T13:51:53Z</time>
      </trkpt>
      <trkpt lat="43.96237" lon="2.03988">
        <ele>194.911685</ele>
        <time>2026-08-29T13:51:54Z</time>
      </trkpt>
      <trkpt lat="43.96238" lon="2.03989">
        <ele>195.028889</ele>
        <time>2026-08-29T13:51:55Z</time>
      </trkpt>
      <trkpt lat="43.9624" lon="2.0399">
        <ele>195.153047</ele>
        <time>2026-08-29T13:51:56Z</time>
      </trkpt>
      <trkpt lat="43.96241" lon="2.03991">
        <ele>195.252433</ele>
        <time>2026-08-29T13:51:57Z</time>
      </trkpt>
      <trkpt lat="43.96243" lon="2.03992">
        <ele>195.347792</ele>
        <time>2026-08-29T13:51:58Z</time>
      </trkpt>
      <trkpt lat="43.96244" lon="2.03993">
        <ele>195.434546</ele>
        <time>2026-08-29T13:51:59Z</time>
      </trkpt>
      <trkpt lat="43.96244" lon="2.03994">
        <ele>195.513245</ele>
        <time>2026-08-29T13:52:00Z</time>
      </trkpt>
      <trkpt lat="43.96246" lon="2.03995">
        <ele>195.60478</ele>
        <time>2026-08-29T13:52:01Z</time>
      </trkpt>
      <trkpt lat="43.96247" lon="2.03996">
        <ele>195.716138</ele>
        <time>2026-08-29T13:52:02Z</time>
      </trkpt>
      <trkpt lat="43.96249" lon="2.03998">
        <ele>195.827085</ele>
        <time>2026-08-29T13:52:03Z</time>
      </trkpt>
      <trkpt lat="43.9625" lon="2.03999">
        <ele>195.941109</ele>
        <time>2026-08-29T13:52:04Z</time>
      </trkpt>
      <trkpt lat="43.96251" lon="2.04001">
        <ele>196.059748</ele>
        <time>2026-08-29T13:52:05Z</time>
      </trkpt>
      <trkpt lat="43.96253" lon="2.04002">
        <ele>196.178766</ele>
        <time>2026-08-29T13:52:06Z</time>
      </trkpt>
      <trkpt lat="43.96254" lon="2.04004">
        <ele>196.30291</ele>
        <time>2026-08-29T13:52:07Z</time>
      </trkpt>
      <trkpt lat="43.96256" lon="2.04005">
        <ele>196.430001</ele>
        <time>2026-08-29T13:52:08Z</time>
      </trkpt>
      <trkpt lat="43.96257" lon="2.04007">
        <ele>196.554159</ele>
        <time>2026-08-29T13:52:09Z</time>
      </trkpt>
      <trkpt lat="43.96258" lon="2.04008">
        <ele>196.652101</ele>
        <time>2026-08-29T13:52:10Z</time>
      </trkpt>
      <trkpt lat="43.9626" lon="2.04009">
        <ele>196.757697</ele>
        <time>2026-08-29T13:52:11Z</time>
      </trkpt>
      <trkpt lat="43.96261" lon="2.0401">
        <ele>196.861048</ele>
        <time>2026-08-29T13:52:12Z</time>
      </trkpt>
      <trkpt lat="43.96263" lon="2.04012">
        <ele>196.980423</ele>
        <time>2026-08-29T13:52:13Z</time>
      </trkpt>
      <trkpt lat="43.96264" lon="2.04013">
        <ele>197.074811</ele>
        <time>2026-08-29T13:52:14Z</time>
      </trkpt>
      <trkpt lat="43.96265" lon="2.04014">
        <ele>197.185757</ele>
        <time>2026-08-29T13:52:15Z</time>
      </trkpt>
      <trkpt lat="43.96267" lon="2.04016">
        <ele>197.285662</ele>
        <time>2026-08-29T13:52:16Z</time>
      </trkpt>
      <trkpt lat="43.96268" lon="2.04017">
        <ele>197.398183</ele>
        <time>2026-08-29T13:52:17Z</time>
      </trkpt>
      <trkpt lat="43.96269" lon="2.04019">
        <ele>197.521226</ele>
        <time>2026-08-29T13:52:18Z</time>
      </trkpt>
      <trkpt lat="43.9627" lon="2.04021">
        <ele>197.640172</ele>
        <time>2026-08-29T13:52:19Z</time>
      </trkpt>
      <trkpt lat="43.96271" lon="2.04023">
        <ele>197.759624</ele>
        <time>2026-08-29T13:52:20Z</time>
      </trkpt>
      <trkpt lat="43.96272" lon="2.04025">
        <ele>197.871209</ele>
        <time>2026-08-29T13:52:21Z</time>
      </trkpt>
      <trkpt lat="43.96274" lon="2.04027">
        <ele>198.007704</ele>
        <time>2026-08-29T13:52:22Z</time>
      </trkpt>
      <trkpt lat="43.96275" lon="2.04029">
        <ele>198.132939</ele>
        <time>2026-08-29T13:52:23Z</time>
      </trkpt>
      <trkpt lat="43.96277" lon="2.04031">
        <ele>198.271708</ele>
        <time>2026-08-29T13:52:24Z</time>
      </trkpt>
      <trkpt lat="43.96278" lon="2.04033">
        <ele>198.406219</ele>
        <time>2026-08-29T13:52:25Z</time>
      </trkpt>
      <trkpt lat="43.9628" lon="2.04035">
        <ele>198.543736</ele>
        <time>2026-08-29T13:52:26Z</time>
      </trkpt>
      <trkpt lat="43.96281" lon="2.04037">
        <ele>198.663187</ele>
        <time>2026-08-29T13:52:27Z</time>
      </trkpt>
      <trkpt lat="43.96282" lon="2.04039">
        <ele>198.787067</ele>
        <time>2026-08-29T13:52:28Z</time>
      </trkpt>
      <trkpt lat="43.96283" lon="2.0404">
        <ele>198.893046</ele>
        <time>2026-08-29T13:52:29Z</time>
      </trkpt>
      <trkpt lat="43.96285" lon="2.04042">
        <ele>199.002243</ele>
        <time>2026-08-29T13:52:30Z</time>
      </trkpt>
      <trkpt lat="43.96286" lon="2.04044">
        <ele>199.113827</ele>
        <time>2026-08-29T13:52:31Z</time>
      </trkpt>
      <trkpt lat="43.96287" lon="2.04046">
        <ele>199.236562</ele>
        <time>2026-08-29T13:52:32Z</time>
      </trkpt>
      <trkpt lat="43.96288" lon="2.04048">
        <ele>199.367454</ele>
        <time>2026-08-29T13:52:33Z</time>
      </trkpt>
      <trkpt lat="43.96289" lon="2.0405">
        <ele>199.489827</ele>
        <time>2026-08-29T13:52:34Z</time>
      </trkpt>
      <trkpt lat="43.9629" lon="2.04052">
        <ele>199.624067</ele>
        <time>2026-08-29T13:52:35Z</time>
      </trkpt>
      <trkpt lat="43.96291" lon="2.04055">
        <ele>199.746802</ele>
        <time>2026-08-29T13:52:36Z</time>
      </trkpt>
      <trkpt lat="43.96292" lon="2.04057">
        <ele>199.865748</ele>
        <time>2026-08-29T13:52:37Z</time>
      </trkpt>
      <trkpt lat="43.96294" lon="2.04058">
        <ele>199.992839</ele>
        <time>2026-08-29T13:52:38Z</time>
      </trkpt>
      <trkpt lat="43.96295" lon="2.0406">
        <ele>200.104303</ele>
        <time>2026-08-29T13:52:39Z</time>
      </trkpt>
      <trkpt lat="43.96295" lon="2.04062">
        <ele>200.204273</ele>
        <time>2026-08-29T13:52:40Z</time>
      </trkpt>
      <trkpt lat="43.96297" lon="2.04064">
        <ele>200.33754</ele>
        <time>2026-08-29T13:52:41Z</time>
      </trkpt>
      <trkpt lat="43.96298" lon="2.04066">
        <ele>200.453481</ele>
        <time>2026-08-29T13:52:42Z</time>
      </trkpt>
      <trkpt lat="43.96299" lon="2.04067">
        <ele>200.561506</ele>
        <time>2026-08-29T13:52:43Z</time>
      </trkpt>
      <trkpt lat="43.963" lon="2.04069">
        <ele>200.672453</ele>
        <time>2026-08-29T13:52:44Z</time>
      </trkpt>
      <trkpt lat="43.96302" lon="2.04071">
        <ele>200.786476</ele>
        <time>2026-08-29T13:52:45Z</time>
      </trkpt>
      <trkpt lat="43.96303" lon="2.04072">
        <ele>200.897423</ele>
        <time>2026-08-29T13:52:46Z</time>
      </trkpt>
      <trkpt lat="43.96304" lon="2.04073">
        <ele>201.007977</ele>
        <time>2026-08-29T13:52:47Z</time>
      </trkpt>
      <trkpt lat="43.96306" lon="2.04075">
        <ele>201.110855</ele>
        <time>2026-08-29T13:52:48Z</time>
      </trkpt>
      <trkpt lat="43.96307" lon="2.04077">
        <ele>201.241747</ele>
        <time>2026-08-29T13:52:49Z</time>
      </trkpt>
      <trkpt lat="43.96308" lon="2.04078">
        <ele>201.347726</ele>
        <time>2026-08-29T13:52:50Z</time>
      </trkpt>
      <trkpt lat="43.96309" lon="2.0408">
        <ele>201.456922</ele>
        <time>2026-08-29T13:52:51Z</time>
      </trkpt>
      <trkpt lat="43.9631" lon="2.04082">
        <ele>201.560493</ele>
        <time>2026-08-29T13:52:52Z</time>
      </trkpt>
      <trkpt lat="43.96311" lon="2.04083">
        <ele>201.669689</ele>
        <time>2026-08-29T13:52:53Z</time>
      </trkpt>
      <trkpt lat="43.96313" lon="2.04085">
        <ele>201.794924</ele>
        <time>2026-08-29T13:52:54Z</time>
      </trkpt>
      <trkpt lat="43.96314" lon="2.04087">
        <ele>201.929163</ele>
        <time>2026-08-29T13:52:55Z</time>
      </trkpt>
      <trkpt lat="43.96315" lon="2.0409">
        <ele>202.067358</ele>
        <time>2026-08-29T13:52:56Z</time>
      </trkpt>
      <trkpt lat="43.96317" lon="2.04092">
        <ele>202.205554</ele>
        <time>2026-08-29T13:52:57Z</time>
      </trkpt>
      <trkpt lat="43.96318" lon="2.04094">
        <ele>202.346859</ele>
        <time>2026-08-29T13:52:58Z</time>
      </trkpt>
      <trkpt lat="43.96319" lon="2.04096">
        <ele>202.45758</ele>
        <time>2026-08-29T13:52:59Z</time>
      </trkpt>
      <trkpt lat="43.9632" lon="2.04099">
        <ele>202.565113</ele>
        <time>2026-08-29T13:53:00Z</time>
      </trkpt>
      <trkpt lat="43.96321" lon="2.04101">
        <ele>202.660429</ele>
        <time>2026-08-29T13:53:01Z</time>
      </trkpt>
      <trkpt lat="43.96323" lon="2.04103">
        <ele>202.747085</ele>
        <time>2026-08-29T13:53:02Z</time>
      </trkpt>
      <trkpt lat="43.96324" lon="2.04104">
        <ele>202.830977</ele>
        <time>2026-08-29T13:53:03Z</time>
      </trkpt>
      <trkpt lat="43.96325" lon="2.04106">
        <ele>202.913281</ele>
        <time>2026-08-29T13:53:04Z</time>
      </trkpt>
      <trkpt lat="43.96326" lon="2.04108">
        <ele>202.998083</ele>
        <time>2026-08-29T13:53:05Z</time>
      </trkpt>
      <trkpt lat="43.96327" lon="2.04109">
        <ele>203.094288</ele>
        <time>2026-08-29T13:53:06Z</time>
      </trkpt>
      <trkpt lat="43.96329" lon="2.04112">
        <ele>203.202864</ele>
        <time>2026-08-29T13:53:07Z</time>
      </trkpt>
      <trkpt lat="43.96331" lon="2.04114">
        <ele>203.316444</ele>
        <time>2026-08-29T13:53:08Z</time>
      </trkpt>
      <trkpt lat="43.96332" lon="2.04116">
        <ele>203.43743</ele>
        <time>2026-08-29T13:53:09Z</time>
      </trkpt>
      <trkpt lat="43.96333" lon="2.04118">
        <ele>203.541681</ele>
        <time>2026-08-29T13:53:10Z</time>
      </trkpt>
      <trkpt lat="43.96335" lon="2.0412">
        <ele>203.650257</ele>
        <time>2026-08-29T13:53:11Z</time>
      </trkpt>
      <trkpt lat="43.96336" lon="2.04122">
        <ele>203.749155</ele>
        <time>2026-08-29T13:53:12Z</time>
      </trkpt>
      <trkpt lat="43.96338" lon="2.04124">
        <ele>203.84536</ele>
        <time>2026-08-29T13:53:13Z</time>
      </trkpt>
      <trkpt lat="43.96339" lon="2.04126">
        <ele>203.932743</ele>
        <time>2026-08-29T13:53:14Z</time>
      </trkpt>
      <trkpt lat="43.9634" lon="2.04128">
        <ele>204.026323</ele>
        <time>2026-08-29T13:53:15Z</time>
      </trkpt>
      <trkpt lat="43.96342" lon="2.04129">
        <ele>204.135275</ele>
        <time>2026-08-29T13:53:16Z</time>
      </trkpt>
      <trkpt lat="43.96343" lon="2.04131">
        <ele>204.212913</ele>
        <time>2026-08-29T13:53:17Z</time>
      </trkpt>
      <trkpt lat="43.96343" lon="2.04133">
        <ele>204.284408</ele>
        <time>2026-08-29T13:53:18Z</time>
      </trkpt>
      <trkpt lat="43.96345" lon="2.04134">
        <ele>204.379212</ele>
        <time>2026-08-29T13:53:19Z</time>
      </trkpt>
      <trkpt lat="43.96346" lon="2.04136">
        <ele>204.471978</ele>
        <time>2026-08-29T13:53:20Z</time>
      </trkpt>
      <trkpt lat="43.96348" lon="2.04137">
        <ele>204.560231</ele>
        <time>2026-08-29T13:53:21Z</time>
      </trkpt>
      <trkpt lat="43.96349" lon="2.0414">
        <ele>204.658843</ele>
        <time>2026-08-29T13:53:22Z</time>
      </trkpt>
      <trkpt lat="43.9635" lon="2.04142">
        <ele>204.766087</ele>
        <time>2026-08-29T13:53:23Z</time>
      </trkpt>
      <trkpt lat="43.96351" lon="2.04144">
        <ele>204.870547</ele>
        <time>2026-08-29T13:53:24Z</time>
      </trkpt>
      <trkpt lat="43.96352" lon="2.04146">
        <ele>204.966753</ele>
        <time>2026-08-29T13:53:25Z</time>
      </trkpt>
      <trkpt lat="43.96354" lon="2.04148">
        <ele>205.060332</ele>
        <time>2026-08-29T13:53:26Z</time>
      </trkpt>
      <trkpt lat="43.96355" lon="2.0415">
        <ele>205.135365</ele>
        <time>2026-08-29T13:53:27Z</time>
      </trkpt>
      <trkpt lat="43.96356" lon="2.04152">
        <ele>205.251611</ele>
        <time>2026-08-29T13:53:28Z</time>
      </trkpt>
      <trkpt lat="43.96358" lon="2.04154">
        <ele>205.358928</ele>
        <time>2026-08-29T13:53:29Z</time>
      </trkpt>
      <trkpt lat="43.9636" lon="2.04156">
        <ele>205.476182</ele>
        <time>2026-08-29T13:53:30Z</time>
      </trkpt>
      <trkpt lat="43.96361" lon="2.04158">
        <ele>205.582184</ele>
        <time>2026-08-29T13:53:31Z</time>
      </trkpt>
      <trkpt lat="43.96363" lon="2.04159">
        <ele>205.680883</ele>
        <time>2026-08-29T13:53:32Z</time>
      </trkpt>
      <trkpt lat="43.96364" lon="2.04161">
        <ele>205.783268</ele>
        <time>2026-08-29T13:53:33Z</time>
      </trkpt>
      <trkpt lat="43.96366" lon="2.04164">
        <ele>205.913039</ele>
        <time>2026-08-29T13:53:34Z</time>
      </trkpt>
      <trkpt lat="43.96367" lon="2.04166">
        <ele>206.027815</ele>
        <time>2026-08-29T13:53:35Z</time>
      </trkpt>
      <trkpt lat="43.96369" lon="2.04168">
        <ele>206.1438</ele>
        <time>2026-08-29T13:53:36Z</time>
      </trkpt>
      <trkpt lat="43.96371" lon="2.0417">
        <ele>206.256025</ele>
        <time>2026-08-29T13:53:37Z</time>
      </trkpt>
      <trkpt lat="43.96372" lon="2.04172">
        <ele>206.35444</ele>
        <time>2026-08-29T13:53:38Z</time>
      </trkpt>
      <trkpt lat="43.96374" lon="2.04174">
        <ele>206.470424</ele>
        <time>2026-08-29T13:53:39Z</time>
      </trkpt>
      <trkpt lat="43.96375" lon="2.04176">
        <ele>206.575471</ele>
        <time>2026-08-29T13:53:40Z</time>
      </trkpt>
      <trkpt lat="43.96377" lon="2.04178">
        <ele>206.671026</ele>
        <time>2026-08-29T13:53:41Z</time>
      </trkpt>
      <trkpt lat="43.96378" lon="2.0418">
        <ele>206.760511</ele>
        <time>2026-08-29T13:53:42Z</time>
      </trkpt>
      <trkpt lat="43.96379" lon="2.04182">
        <ele>206.861853</ele>
        <time>2026-08-29T13:53:43Z</time>
      </trkpt>
      <trkpt lat="43.9638" lon="2.04184">
        <ele>206.957342</ele>
        <time>2026-08-29T13:53:44Z</time>
      </trkpt>
      <trkpt lat="43.96381" lon="2.04187">
        <ele>207.061593</ele>
        <time>2026-08-29T13:53:45Z</time>
      </trkpt>
      <trkpt lat="43.96382" lon="2.04189">
        <ele>207.162895</ele>
        <time>2026-08-29T13:53:46Z</time>
      </trkpt>
      <trkpt lat="43.96384" lon="2.04191">
        <ele>207.270662</ele>
        <time>2026-08-29T13:53:47Z</time>
      </trkpt>
      <trkpt lat="43.96385" lon="2.04193">
        <ele>207.369361</ele>
        <time>2026-08-29T13:53:48Z</time>
      </trkpt>
      <trkpt lat="43.96387" lon="2.04195">
        <ele>207.472061</ele>
        <time>2026-08-29T13:53:49Z</time>
      </trkpt>
      <trkpt lat="43.96388" lon="2.04196">
        <ele>207.577032</ele>
        <time>2026-08-29T13:53:50Z</time>
      </trkpt>
      <trkpt lat="43.9639" lon="2.04198">
        <ele>207.684349</ele>
        <time>2026-08-29T13:53:51Z</time>
      </trkpt>
      <trkpt lat="43.96391" lon="2.042">
        <ele>207.784135</ele>
        <time>2026-08-29T13:53:52Z</time>
      </trkpt>
      <trkpt lat="43.96392" lon="2.04202">
        <ele>207.876901</ele>
        <time>2026-08-29T13:53:53Z</time>
      </trkpt>
      <trkpt lat="43.96394" lon="2.04204">
        <ele>207.96933</ele>
        <time>2026-08-29T13:53:54Z</time>
      </trkpt>
      <trkpt lat="43.96395" lon="2.04205">
        <ele>208.057279</ele>
        <time>2026-08-29T13:53:55Z</time>
      </trkpt>
      <trkpt lat="43.96397" lon="2.04207">
        <ele>208.159979</ele>
        <time>2026-08-29T13:53:56Z</time>
      </trkpt>
      <trkpt lat="43.96398" lon="2.04209">
        <ele>208.262363</ele>
        <time>2026-08-29T13:53:57Z</time>
      </trkpt>
      <trkpt lat="43.964" lon="2.04211">
        <ele>208.364747</ele>
        <time>2026-08-29T13:53:58Z</time>
      </trkpt>
      <trkpt lat="43.96401" lon="2.04212">
        <ele>208.452696</ele>
        <time>2026-08-29T13:53:59Z</time>
      </trkpt>
      <trkpt lat="43.96402" lon="2.04214">
        <ele>208.549953</ele>
        <time>2026-08-29T13:54:00Z</time>
      </trkpt>
      <trkpt lat="43.96404" lon="2.04216">
        <ele>208.644756</ele>
        <time>2026-08-29T13:54:01Z</time>
      </trkpt>
      <trkpt lat="43.96405" lon="2.04217">
        <ele>208.737185</ele>
        <time>2026-08-29T13:54:02Z</time>
      </trkpt>
      <trkpt lat="43.96407" lon="2.04219">
        <ele>208.838244</ele>
        <time>2026-08-29T13:54:03Z</time>
      </trkpt>
      <trkpt lat="43.96408" lon="2.04221">
        <ele>208.939302</ele>
        <time>2026-08-29T13:54:04Z</time>
      </trkpt>
      <trkpt lat="43.9641" lon="2.04223">
        <ele>209.04662</ele>
        <time>2026-08-29T13:54:05Z</time>
      </trkpt>
      <trkpt lat="43.96412" lon="2.04225">
        <ele>209.155599</ele>
        <time>2026-08-29T13:54:06Z</time>
      </trkpt>
      <trkpt lat="43.96413" lon="2.04226">
        <ele>209.24983</ele>
        <time>2026-08-29T13:54:07Z</time>
      </trkpt>
      <trkpt lat="43.96415" lon="2.04228">
        <ele>209.354524</ele>
        <time>2026-08-29T13:54:08Z</time>
      </trkpt>
      <trkpt lat="43.96417" lon="2.04229">
        <ele>209.459702</ele>
        <time>2026-08-29T13:54:09Z</time>
      </trkpt>
      <trkpt lat="43.96418" lon="2.04231">
        <ele>209.564396</ele>
        <time>2026-08-29T13:54:10Z</time>
      </trkpt>
      <trkpt lat="43.9642" lon="2.04232">
        <ele>209.656531</ele>
        <time>2026-08-29T13:54:11Z</time>
      </trkpt>
      <trkpt lat="43.9642" lon="2.04233">
        <ele>209.687941</ele>
        <time>2026-08-29T13:54:12Z</time>
      </trkpt>
      <trkpt lat="43.9642" lon="2.04233">
        <ele>209.712207</ele>
        <time>2026-08-29T13:54:13Z</time>
      </trkpt>
      <trkpt lat="43.9642" lon="2.04233">
        <ele>209.731054</ele>
        <time>2026-08-29T13:54:14Z</time>
      </trkpt>
      <trkpt lat="43.9642" lon="2.04233">
        <ele>209.743618</ele>
        <time>2026-08-29T13:54:15Z</time>
      </trkpt>
      <trkpt lat="43.9642" lon="2.04233">
        <ele>209.758297</ele>
        <time>2026-08-29T13:54:16Z</time>
      </trkpt>
      <trkpt lat="43.96423" lon="2.04237">
        <ele>209.961152</ele>
        <time>2026-08-29T13:55:14Z</time>
      </trkpt>
      <trkpt lat="43.96424" lon="2.04238">
        <ele>210.047009</ele>
        <time>2026-08-29T13:55:15Z</time>
      </trkpt>
      <trkpt lat="43.96425" lon="2.0424">
        <ele>210.129014</ele>
        <time>2026-08-29T13:55:16Z</time>
      </trkpt>
      <trkpt lat="43.96427" lon="2.04241">
        <ele>210.214871</ele>
        <time>2026-08-29T13:55:17Z</time>
      </trkpt>
      <trkpt lat="43.96428" lon="2.04242">
        <ele>210.307299</ele>
        <time>2026-08-29T13:55:18Z</time>
      </trkpt>
      <trkpt lat="43.9643" lon="2.04244">
        <ele>210.409683</ele>
        <time>2026-08-29T13:55:19Z</time>
      </trkpt>
      <trkpt lat="43.96431" lon="2.04246">
        <ele>210.50858</ele>
        <time>2026-08-29T13:55:20Z</time>
      </trkpt>
      <trkpt lat="43.96432" lon="2.04248">
        <ele>210.609638</ele>
        <time>2026-08-29T13:55:21Z</time>
      </trkpt>
      <trkpt lat="43.96433" lon="2.04251">
        <ele>210.711409</ele>
        <time>2026-08-29T13:55:22Z</time>
      </trkpt>
      <trkpt lat="43.96435" lon="2.04253">
        <ele>210.815868</ele>
        <time>2026-08-29T13:55:23Z</time>
      </trkpt>
      <trkpt lat="43.96436" lon="2.04255">
        <ele>210.915654</ele>
        <time>2026-08-29T13:55:24Z</time>
      </trkpt>
      <trkpt lat="43.96438" lon="2.04256">
        <ele>211.020348</ele>
        <time>2026-08-29T13:55:25Z</time>
      </trkpt>
      <trkpt lat="43.9644" lon="2.04258">
        <ele>211.127143</ele>
        <time>2026-08-29T13:55:26Z</time>
      </trkpt>
      <trkpt lat="43.96441" lon="2.0426">
        <ele>211.242402</ele>
        <time>2026-08-29T13:55:27Z</time>
      </trkpt>
      <trkpt lat="43.96443" lon="2.04262">
        <ele>211.34346</ele>
        <time>2026-08-29T13:55:28Z</time>
      </trkpt>
      <trkpt lat="43.96444" lon="2.04264">
        <ele>211.445844</ele>
        <time>2026-08-29T13:55:29Z</time>
      </trkpt>
      <trkpt lat="43.96446" lon="2.04265">
        <ele>211.540075</ele>
        <time>2026-08-29T13:55:30Z</time>
      </trkpt>
      <trkpt lat="43.96447" lon="2.04267">
        <ele>211.567326</ele>
        <time>2026-08-29T13:55:31Z</time>
      </trkpt>
      <trkpt lat="43.96449" lon="2.04269">
        <ele>211.560826</ele>
        <time>2026-08-29T13:55:32Z</time>
      </trkpt>
      <trkpt lat="43.96451" lon="2.0427">
        <ele>211.553955</ele>
        <time>2026-08-29T13:55:33Z</time>
      </trkpt>
      <trkpt lat="43.96453" lon="2.04272">
        <ele>211.547207</ele>
        <time>2026-08-29T13:55:34Z</time>
      </trkpt>
      <trkpt lat="43.96454" lon="2.04274">
        <ele>211.540206</ele>
        <time>2026-08-29T13:55:35Z</time>
      </trkpt>
      <trkpt lat="43.96456" lon="2.04276">
        <ele>211.534028</ele>
        <time>2026-08-29T13:55:36Z</time>
      </trkpt>
      <trkpt lat="43.96457" lon="2.04278">
        <ele>211.527383</ele>
        <time>2026-08-29T13:55:37Z</time>
      </trkpt>
      <trkpt lat="43.96459" lon="2.04279">
        <ele>211.521144</ele>
        <time>2026-08-29T13:55:38Z</time>
      </trkpt>
      <trkpt lat="43.96461" lon="2.04281">
        <ele>211.514921</ele>
        <time>2026-08-29T13:55:39Z</time>
      </trkpt>
      <trkpt lat="43.96462" lon="2.04283">
        <ele>211.508742</ele>
        <time>2026-08-29T13:55:40Z</time>
      </trkpt>
      <trkpt lat="43.96464" lon="2.04285">
        <ele>211.50171</ele>
        <time>2026-08-29T13:55:41Z</time>
      </trkpt>
      <trkpt lat="43.96465" lon="2.04286">
        <ele>211.495211</ele>
        <time>2026-08-29T13:55:42Z</time>
      </trkpt>
      <trkpt lat="43.96467" lon="2.04288">
        <ele>211.488178</ele>
        <time>2026-08-29T13:55:43Z</time>
      </trkpt>
      <trkpt lat="43.96468" lon="2.0429">
        <ele>211.482085</ele>
        <time>2026-08-29T13:55:44Z</time>
      </trkpt>
      <trkpt lat="43.9647" lon="2.04292">
        <ele>211.475907</ele>
        <time>2026-08-29T13:55:45Z</time>
      </trkpt>
      <trkpt lat="43.96471" lon="2.04294">
        <ele>211.469019</ele>
        <time>2026-08-29T13:55:46Z</time>
      </trkpt>
      <trkpt lat="43.96473" lon="2.04296">
        <ele>211.462272</ele>
        <time>2026-08-29T13:55:47Z</time>
      </trkpt>
      <trkpt lat="43.96475" lon="2.04298">
        <ele>211.455401</ele>
        <time>2026-08-29T13:55:48Z</time>
      </trkpt>
      <trkpt lat="43.96476" lon="2.04299">
        <ele>211.450066</ele>
        <time>2026-08-29T13:55:49Z</time>
      </trkpt>
      <trkpt lat="43.96478" lon="2.043">
        <ele>211.444323</ele>
        <time>2026-08-29T13:55:50Z</time>
      </trkpt>
      <trkpt lat="43.9648" lon="2.04301">
        <ele>211.437686</ele>
        <time>2026-08-29T13:55:51Z</time>
      </trkpt>
      <trkpt lat="43.96482" lon="2.04303">
        <ele>211.4304</ele>
        <time>2026-08-29T13:55:52Z</time>
      </trkpt>
      <trkpt lat="43.96484" lon="2.04304">
        <ele>211.42333</ele>
        <time>2026-08-29T13:55:53Z</time>
      </trkpt>
      <trkpt lat="43.96485" lon="2.04306">
        <ele>211.416685</ele>
        <time>2026-08-29T13:55:54Z</time>
      </trkpt>
      <trkpt lat="43.96487" lon="2.04308">
        <ele>211.40916</ele>
        <time>2026-08-29T13:55:55Z</time>
      </trkpt>
      <trkpt lat="43.9649" lon="2.0431">
        <ele>211.400594</ele>
        <time>2026-08-29T13:55:56Z</time>
      </trkpt>
      <trkpt lat="43.96492" lon="2.04312">
        <ele>211.391807</ele>
        <time>2026-08-29T13:55:57Z</time>
      </trkpt>
      <trkpt lat="43.96495" lon="2.04313">
        <ele>211.383404</ele>
        <time>2026-08-29T13:55:58Z</time>
      </trkpt>
      <trkpt lat="43.96497" lon="2.04315">
        <ele>211.374516</ele>
        <time>2026-08-29T13:55:59Z</time>
      </trkpt>
      <trkpt lat="43.965" lon="2.04316">
        <ele>211.365827</ele>
        <time>2026-08-29T13:56:00Z</time>
      </trkpt>
      <trkpt lat="43.96502" lon="2.04317">
        <ele>211.35742</ele>
        <time>2026-08-29T13:56:01Z</time>
      </trkpt>
      <trkpt lat="43.96505" lon="2.04317">
        <ele>211.349199</ele>
        <time>2026-08-29T13:56:02Z</time>
      </trkpt>
      <trkpt lat="43.96507" lon="2.04318">
        <ele>211.341591</ele>
        <time>2026-08-29T13:56:03Z</time>
      </trkpt>
      <trkpt lat="43.96509" lon="2.04318">
        <ele>211.335524</ele>
        <time>2026-08-29T13:56:04Z</time>
      </trkpt>
      <trkpt lat="43.96511" lon="2.04319">
        <ele>211.329319</ele>
        <time>2026-08-29T13:56:05Z</time>
      </trkpt>
      <trkpt lat="43.96513" lon="2.04319">
        <ele>211.32294</ele>
        <time>2026-08-29T13:56:06Z</time>
      </trkpt>
      <trkpt lat="43.96515" lon="2.0432">
        <ele>211.316066</ele>
        <time>2026-08-29T13:56:07Z</time>
      </trkpt>
      <trkpt lat="43.96518" lon="2.04321">
        <ele>211.307716</ele>
        <time>2026-08-29T13:56:08Z</time>
      </trkpt>
      <trkpt lat="43.9652" lon="2.04323">
        <ele>211.298913</ele>
        <time>2026-08-29T13:56:09Z</time>
      </trkpt>
      <trkpt lat="43.96522" lon="2.04324">
        <ele>211.290986</ele>
        <time>2026-08-29T13:56:10Z</time>
      </trkpt>
      <trkpt lat="43.96525" lon="2.04326">
        <ele>211.283249</ele>
        <time>2026-08-29T13:56:11Z</time>
      </trkpt>
      <trkpt lat="43.96527" lon="2.04327">
        <ele>211.275457</ele>
        <time>2026-08-29T13:56:12Z</time>
      </trkpt>
      <trkpt lat="43.9653" lon="2.04327">
        <ele>211.266124</ele>
        <time>2026-08-29T13:56:13Z</time>
      </trkpt>
      <trkpt lat="43.96533" lon="2.04329">
        <ele>211.255236</ele>
        <time>2026-08-29T13:56:14Z</time>
      </trkpt>
      <trkpt lat="43.96536" lon="2.04331">
        <ele>211.245616</ele>
        <time>2026-08-29T13:56:15Z</time>
      </trkpt>
      <trkpt lat="43.96539" lon="2.04332">
        <ele>211.233984</ele>
        <time>2026-08-29T13:56:16Z</time>
      </trkpt>
      <trkpt lat="43.96543" lon="2.04333">
        <ele>211.223098</ele>
        <time>2026-08-29T13:56:17Z</time>
      </trkpt>
      <trkpt lat="43.96547" lon="2.04335">
        <ele>211.209824</ele>
        <time>2026-08-29T13:56:18Z</time>
      </trkpt>
      <trkpt lat="43.96551" lon="2.04337">
        <ele>211.194909</ele>
        <time>2026-08-29T13:56:19Z</time>
      </trkpt>
      <trkpt lat="43.96556" lon="2.04339">
        <ele>211.179153</ele>
        <time>2026-08-29T13:56:20Z</time>
      </trkpt>
      <trkpt lat="43.96561" lon="2.04341">
        <ele>211.163182</ele>
        <time>2026-08-29T13:56:21Z</time>
      </trkpt>
      <trkpt lat="43.96565" lon="2.04344">
        <ele>211.14819</ele>
        <time>2026-08-29T13:56:22Z</time>
      </trkpt>
      <trkpt lat="43.9657" lon="2.04347">
        <ele>211.132243</ele>
        <time>2026-08-29T13:56:23Z</time>
      </trkpt>
      <trkpt lat="43.96574" lon="2.0435">
        <ele>211.1159</ele>
        <time>2026-08-29T13:56:24Z</time>
      </trkpt>
      <trkpt lat="43.96579" lon="2.04353">
        <ele>211.099572</ele>
        <time>2026-08-29T13:56:25Z</time>
      </trkpt>
      <trkpt lat="43.96584" lon="2.04356">
        <ele>211.083601</ele>
        <time>2026-08-29T13:56:26Z</time>
      </trkpt>
      <trkpt lat="43.96588" lon="2.04359">
        <ele>211.067713</ele>
        <time>2026-08-29T13:56:27Z</time>
      </trkpt>
      <trkpt lat="43.96593" lon="2.04361">
        <ele>211.052127</ele>
        <time>2026-08-29T13:56:28Z</time>
      </trkpt>
      <trkpt lat="43.96598" lon="2.04363">
        <ele>211.035779</ele>
        <time>2026-08-29T13:56:29Z</time>
      </trkpt>
      <trkpt lat="43.96603" lon="2.04365">
        <ele>211.018684</ele>
        <time>2026-08-29T13:56:30Z</time>
      </trkpt>
      <trkpt lat="43.96608" lon="2.04367">
        <ele>210.988733</ele>
        <time>2026-08-29T13:56:31Z</time>
      </trkpt>
      <trkpt lat="43.96613" lon="2.04369">
        <ele>210.797639</ele>
        <time>2026-08-29T13:56:32Z</time>
      </trkpt>
      <trkpt lat="43.96619" lon="2.04371">
        <ele>210.595074</ele>
        <time>2026-08-29T13:56:33Z</time>
      </trkpt>
      <trkpt lat="43.96624" lon="2.04373">
        <ele>210.385815</ele>
        <time>2026-08-29T13:56:34Z</time>
      </trkpt>
      <trkpt lat="43.9663" lon="2.04375">
        <ele>210.18006</ele>
        <time>2026-08-29T13:56:35Z</time>
      </trkpt>
      <trkpt lat="43.96635" lon="2.04377">
        <ele>209.971435</ele>
        <time>2026-08-29T13:56:36Z</time>
      </trkpt>
      <trkpt lat="43.96641" lon="2.0438">
        <ele>209.758561</ele>
        <time>2026-08-29T13:56:37Z</time>
      </trkpt>
      <trkpt lat="43.96646" lon="2.04382">
        <ele>209.549963</ele>
        <time>2026-08-29T13:56:38Z</time>
      </trkpt>
      <trkpt lat="43.96652" lon="2.04385">
        <ele>209.331673</ele>
        <time>2026-08-29T13:56:39Z</time>
      </trkpt>
      <trkpt lat="43.96658" lon="2.04387">
        <ele>209.119581</ele>
        <time>2026-08-29T13:56:40Z</time>
      </trkpt>
      <trkpt lat="43.96664" lon="2.0439">
        <ele>208.88665</ele>
        <time>2026-08-29T13:56:41Z</time>
      </trkpt>
      <trkpt lat="43.9667" lon="2.04393">
        <ele>208.655871</ele>
        <time>2026-08-29T13:56:42Z</time>
      </trkpt>
      <trkpt lat="43.96676" lon="2.04395">
        <ele>208.430232</ele>
        <time>2026-08-29T13:56:43Z</time>
      </trkpt>
      <trkpt lat="43.96683" lon="2.04399">
        <ele>208.162561</ele>
        <time>2026-08-29T13:56:44Z</time>
      </trkpt>
      <trkpt lat="43.9669" lon="2.04403">
        <ele>207.881203</ele>
        <time>2026-08-29T13:56:45Z</time>
      </trkpt>
      <trkpt lat="43.96697" lon="2.04408">
        <ele>207.590021</ele>
        <time>2026-08-29T13:56:46Z</time>
      </trkpt>
      <trkpt lat="43.96704" lon="2.04413">
        <ele>207.291931</ele>
        <time>2026-08-29T13:56:47Z</time>
      </trkpt>
      <trkpt lat="43.96712" lon="2.04419">
        <ele>206.970519</ele>
        <time>2026-08-29T13:56:48Z</time>
      </trkpt>
      <trkpt lat="43.9672" lon="2.04426">
        <ele>206.63583</ele>
        <time>2026-08-29T13:56:49Z</time>
      </trkpt>
      <trkpt lat="43.9673" lon="2.04433">
        <ele>206.23647</ele>
        <time>2026-08-29T13:56:50Z</time>
      </trkpt>
      <trkpt lat="43.9674" lon="2.0444">
        <ele>205.837674</ele>
        <time>2026-08-29T13:56:51Z</time>
      </trkpt>
      <trkpt lat="43.9675" lon="2.04445">
        <ele>205.454776</ele>
        <time>2026-08-29T13:56:52Z</time>
      </trkpt>
      <trkpt lat="43.96758" lon="2.04449">
        <ele>205.124866</ele>
        <time>2026-08-29T13:56:53Z</time>
      </trkpt>
      <trkpt lat="43.96768" lon="2.04454">
        <ele>204.759825</ele>
        <time>2026-08-29T13:56:54Z</time>
      </trkpt>
      <trkpt lat="43.96777" lon="2.04457">
        <ele>204.425985</ele>
        <time>2026-08-29T13:56:55Z</time>
      </trkpt>
      <trkpt lat="43.96786" lon="2.04461">
        <ele>204.109309</ele>
        <time>2026-08-29T13:56:56Z</time>
      </trkpt>
      <trkpt lat="43.96794" lon="2.04466">
        <ele>203.80569</ele>
        <time>2026-08-29T13:56:57Z</time>
      </trkpt>
      <trkpt lat="43.96802" lon="2.04469">
        <ele>203.551293</ele>
        <time>2026-08-29T13:56:58Z</time>
      </trkpt>
      <trkpt lat="43.96809" lon="2.04472">
        <ele>203.30146</ele>
        <time>2026-08-29T13:56:59Z</time>
      </trkpt>
      <trkpt lat="43.96815" lon="2.04474">
        <ele>203.082434</ele>
        <time>2026-08-29T13:57:00Z</time>
      </trkpt>
      <trkpt lat="43.9682" lon="2.04476">
        <ele>202.899402</ele>
        <time>2026-08-29T13:57:01Z</time>
      </trkpt>
      <trkpt lat="43.96825" lon="2.04478">
        <ele>202.741367</ele>
        <time>2026-08-29T13:57:02Z</time>
      </trkpt>
      <trkpt lat="43.96829" lon="2.04479">
        <ele>202.605146</ele>
        <time>2026-08-29T13:57:03Z</time>
      </trkpt>
      <trkpt lat="43.96832" lon="2.04481">
        <ele>202.486098</ele>
        <time>2026-08-29T13:57:04Z</time>
      </trkpt>
      <trkpt lat="43.96835" lon="2.04484">
        <ele>202.384674</ele>
        <time>2026-08-29T13:57:05Z</time>
      </trkpt>
      <trkpt lat="43.96836" lon="2.04487">
        <ele>202.292792</ele>
        <time>2026-08-29T13:57:06Z</time>
      </trkpt>
      <trkpt lat="43.96836" lon="2.04491">
        <ele>202.205418</ele>
        <time>2026-08-29T13:57:07Z</time>
      </trkpt>
      <trkpt lat="43.96836" lon="2.04495">
        <ele>202.113724</ele>
        <time>2026-08-29T13:57:08Z</time>
      </trkpt>
      <trkpt lat="43.96835" lon="2.04499">
        <ele>201.997067</ele>
        <time>2026-08-29T13:57:09Z</time>
      </trkpt>
      <trkpt lat="43.96835" lon="2.04505">
        <ele>201.867817</ele>
        <time>2026-08-29T13:57:10Z</time>
      </trkpt>
      <trkpt lat="43.96834" lon="2.0451">
        <ele>201.734386</ele>
        <time>2026-08-29T13:57:11Z</time>
      </trkpt>
      <trkpt lat="43.96833" lon="2.04516">
        <ele>201.591462</ele>
        <time>2026-08-29T13:57:12Z</time>
      </trkpt>
      <trkpt lat="43.96833" lon="2.04522">
        <ele>201.457491</ele>
        <time>2026-08-29T13:57:13Z</time>
      </trkpt>
      <trkpt lat="43.96832" lon="2.04526">
        <ele>201.337631</ele>
        <time>2026-08-29T13:57:14Z</time>
      </trkpt>
      <trkpt lat="43.96831" lon="2.04531">
        <ele>201.210842</ele>
        <time>2026-08-29T13:57:15Z</time>
      </trkpt>
      <trkpt lat="43.9683" lon="2.04538">
        <ele>201.060004</ele>
        <time>2026-08-29T13:57:16Z</time>
      </trkpt>
      <trkpt lat="43.96829" lon="2.04544">
        <ele>200.905259</ele>
        <time>2026-08-29T13:57:17Z</time>
      </trkpt>
      <trkpt lat="43.96828" lon="2.04551">
        <ele>200.729973</ele>
        <time>2026-08-29T13:57:18Z</time>
      </trkpt>
      <trkpt lat="43.96826" lon="2.04558">
        <ele>200.547264</ele>
        <time>2026-08-29T13:57:19Z</time>
      </trkpt>
      <trkpt lat="43.96825" lon="2.04566">
        <ele>200.364225</ele>
        <time>2026-08-29T13:57:20Z</time>
      </trkpt>
      <trkpt lat="43.96823" lon="2.04573">
        <ele>200.168977</ele>
        <time>2026-08-29T13:57:21Z</time>
      </trkpt>
      <trkpt lat="43.96821" lon="2.04582">
        <ele>199.957777</ele>
        <time>2026-08-29T13:57:22Z</time>
      </trkpt>
      <trkpt lat="43.96819" lon="2.0459">
        <ele>199.746576</ele>
        <time>2026-08-29T13:57:23Z</time>
      </trkpt>
      <trkpt lat="43.96817" lon="2.04599">
        <ele>199.531004</ele>
        <time>2026-08-29T13:57:24Z</time>
      </trkpt>
      <trkpt lat="43.96814" lon="2.04607">
        <ele>199.316451</ele>
        <time>2026-08-29T13:57:25Z</time>
      </trkpt>
      <trkpt lat="43.96812" lon="2.04615">
        <ele>199.102336</ele>
        <time>2026-08-29T13:57:26Z</time>
      </trkpt>
      <trkpt lat="43.96809" lon="2.04623">
        <ele>198.880291</ele>
        <time>2026-08-29T13:57:27Z</time>
      </trkpt>
      <trkpt lat="43.96806" lon="2.04631">
        <ele>198.665436</ele>
        <time>2026-08-29T13:57:28Z</time>
      </trkpt>
      <trkpt lat="43.96803" lon="2.04639">
        <ele>198.502726</ele>
        <time>2026-08-29T13:57:29Z</time>
      </trkpt>
      <trkpt lat="43.96801" lon="2.04647">
        <ele>198.514497</ele>
        <time>2026-08-29T13:57:30Z</time>
      </trkpt>
      <trkpt lat="43.96799" lon="2.04655">
        <ele>198.525677</ele>
        <time>2026-08-29T13:57:31Z</time>
      </trkpt>
      <trkpt lat="43.96797" lon="2.04663">
        <ele>198.536598</ele>
        <time>2026-08-29T13:57:32Z</time>
      </trkpt>
      <trkpt lat="43.96795" lon="2.0467">
        <ele>198.54714</ele>
        <time>2026-08-29T13:57:33Z</time>
      </trkpt>
      <trkpt lat="43.96793" lon="2.04677">
        <ele>198.556923</ele>
        <time>2026-08-29T13:57:34Z</time>
      </trkpt>
      <trkpt lat="43.96792" lon="2.04683">
        <ele>198.565672</ele>
        <time>2026-08-29T13:57:35Z</time>
      </trkpt>
      <trkpt lat="43.96791" lon="2.04689">
        <ele>198.573984</ele>
        <time>2026-08-29T13:57:36Z</time>
      </trkpt>
      <trkpt lat="43.9679" lon="2.04695">
        <ele>198.582079</ele>
        <time>2026-08-29T13:57:37Z</time>
      </trkpt>
      <trkpt lat="43.96789" lon="2.04701">
        <ele>198.590086</ele>
        <time>2026-08-29T13:57:38Z</time>
      </trkpt>
      <trkpt lat="43.96788" lon="2.04707">
        <ele>198.59789</ele>
        <time>2026-08-29T13:57:39Z</time>
      </trkpt>
      <trkpt lat="43.96788" lon="2.04712">
        <ele>198.605664</ele>
        <time>2026-08-29T13:57:40Z</time>
      </trkpt>
      <trkpt lat="43.96787" lon="2.04718">
        <ele>198.613439</ele>
        <time>2026-08-29T13:57:41Z</time>
      </trkpt>
      <trkpt lat="43.96787" lon="2.04723">
        <ele>198.620497</ele>
        <time>2026-08-29T13:57:42Z</time>
      </trkpt>
      <trkpt lat="43.96786" lon="2.04728">
        <ele>198.627402</ele>
        <time>2026-08-29T13:57:43Z</time>
      </trkpt>
      <trkpt lat="43.96786" lon="2.04733">
        <ele>198.633948</ele>
        <time>2026-08-29T13:57:44Z</time>
      </trkpt>
      <trkpt lat="43.96786" lon="2.04738">
        <ele>198.640719</ele>
        <time>2026-08-29T13:57:45Z</time>
      </trkpt>
      <trkpt lat="43.96785" lon="2.04743">
        <ele>198.647398</ele>
        <time>2026-08-29T13:57:46Z</time>
      </trkpt>
      <trkpt lat="43.96785" lon="2.04748">
        <ele>198.654345</ele>
        <time>2026-08-29T13:57:47Z</time>
      </trkpt>
      <trkpt lat="43.96784" lon="2.04753">
        <ele>198.661</ele>
        <time>2026-08-29T13:57:48Z</time>
      </trkpt>
      <trkpt lat="43.96784" lon="2.04758">
        <ele>198.667679</ele>
        <time>2026-08-29T13:57:49Z</time>
      </trkpt>
      <trkpt lat="43.96783" lon="2.04763">
        <ele>198.674625</ele>
        <time>2026-08-29T13:57:50Z</time>
      </trkpt>
      <trkpt lat="43.96783" lon="2.04768">
        <ele>198.681281</ele>
        <time>2026-08-29T13:57:51Z</time>
      </trkpt>
      <trkpt lat="43.96782" lon="2.04773">
        <ele>198.688227</ele>
        <time>2026-08-29T13:57:52Z</time>
      </trkpt>
      <trkpt lat="43.96782" lon="2.04778">
        <ele>198.694864</ele>
        <time>2026-08-29T13:57:53Z</time>
      </trkpt>
      <trkpt lat="43.96782" lon="2.04783">
        <ele>198.701276</ele>
        <time>2026-08-29T13:57:54Z</time>
      </trkpt>
      <trkpt lat="43.96781" lon="2.04788">
        <ele>198.707931</ele>
        <time>2026-08-29T13:57:55Z</time>
      </trkpt>
      <trkpt lat="43.96781" lon="2.04793">
        <ele>198.714905</ele>
        <time>2026-08-29T13:57:56Z</time>
      </trkpt>
      <trkpt lat="43.9678" lon="2.04798">
        <ele>198.721852</ele>
        <time>2026-08-29T13:57:57Z</time>
      </trkpt>
      <trkpt lat="43.9678" lon="2.04803">
        <ele>198.728932</ele>
        <time>2026-08-29T13:57:58Z</time>
      </trkpt>
      <trkpt lat="43.96779" lon="2.04808">
        <ele>198.736124</ele>
        <time>2026-08-29T13:57:59Z</time>
      </trkpt>
      <trkpt lat="43.96779" lon="2.04814">
        <ele>198.743299</ele>
        <time>2026-08-29T13:58:00Z</time>
      </trkpt>
      <trkpt lat="43.96778" lon="2.04818">
        <ele>198.749954</ele>
        <time>2026-08-29T13:58:01Z</time>
      </trkpt>
      <trkpt lat="43.96778" lon="2.04824">
        <ele>198.7569</ele>
        <time>2026-08-29T13:58:02Z</time>
      </trkpt>
      <trkpt lat="43.96778" lon="2.04829">
        <ele>198.764593</ele>
        <time>2026-08-29T13:58:03Z</time>
      </trkpt>
      <trkpt lat="43.96777" lon="2.04835">
        <ele>198.772075</ele>
        <time>2026-08-29T13:58:04Z</time>
      </trkpt>
      <trkpt lat="43.96777" lon="2.0484">
        <ele>198.779669</ele>
        <time>2026-08-29T13:58:05Z</time>
      </trkpt>
      <trkpt lat="43.96777" lon="2.04846">
        <ele>198.787017</ele>
        <time>2026-08-29T13:58:06Z</time>
      </trkpt>
      <trkpt lat="43.96776" lon="2.04851">
        <ele>198.79383</ele>
        <time>2026-08-29T13:58:07Z</time>
      </trkpt>
      <trkpt lat="43.96776" lon="2.04856">
        <ele>198.80129</ele>
        <time>2026-08-29T13:58:08Z</time>
      </trkpt>
      <trkpt lat="43.96775" lon="2.04862">
        <ele>198.808465</ele>
        <time>2026-08-29T13:58:09Z</time>
      </trkpt>
      <trkpt lat="43.96775" lon="2.04867">
        <ele>198.815493</ele>
        <time>2026-08-29T13:58:10Z</time>
      </trkpt>
      <trkpt lat="43.96775" lon="2.04872">
        <ele>198.822783</ele>
        <time>2026-08-29T13:58:11Z</time>
      </trkpt>
      <trkpt lat="43.96775" lon="2.04878">
        <ele>198.83035</ele>
        <time>2026-08-29T13:58:12Z</time>
      </trkpt>
      <trkpt lat="43.96775" lon="2.04883">
        <ele>198.850671</ele>
        <time>2026-08-29T13:58:13Z</time>
      </trkpt>
      <trkpt lat="43.96775" lon="2.04889">
        <ele>198.989075</ele>
        <time>2026-08-29T13:58:14Z</time>
      </trkpt>
      <trkpt lat="43.96775" lon="2.04893">
        <ele>199.114127</ele>
        <time>2026-08-29T13:58:15Z</time>
      </trkpt>
      <trkpt lat="43.96775" lon="2.04898">
        <ele>199.244552</ele>
        <time>2026-08-29T13:58:16Z</time>
      </trkpt>
      <trkpt lat="43.96775" lon="2.04903">
        <ele>199.372318</ele>
        <time>2026-08-29T13:58:17Z</time>
      </trkpt>
      <trkpt lat="43.96775" lon="2.04908">
        <ele>199.492105</ele>
        <time>2026-08-29T13:58:18Z</time>
      </trkpt>
      <trkpt lat="43.96774" lon="2.04912">
        <ele>199.614719</ele>
        <time>2026-08-29T13:58:19Z</time>
      </trkpt>
      <trkpt lat="43.96774" lon="2.04917">
        <ele>199.742485</ele>
        <time>2026-08-29T13:58:20Z</time>
      </trkpt>
      <trkpt lat="43.96774" lon="2.04922">
        <ele>199.865099</ele>
        <time>2026-08-29T13:58:21Z</time>
      </trkpt>
      <trkpt lat="43.96774" lon="2.04926">
        <ele>199.985057</ele>
        <time>2026-08-29T13:58:22Z</time>
      </trkpt>
      <trkpt lat="43.96774" lon="2.0493">
        <ele>200.102651</ele>
        <time>2026-08-29T13:58:23Z</time>
      </trkpt>
      <trkpt lat="43.96773" lon="2.04935">
        <ele>200.231217</ele>
        <time>2026-08-29T13:58:24Z</time>
      </trkpt>
      <trkpt lat="43.96773" lon="2.0494">
        <ele>200.349736</ele>
        <time>2026-08-29T13:58:25Z</time>
      </trkpt>
      <trkpt lat="43.96772" lon="2.04944">
        <ele>200.468256</ele>
        <time>2026-08-29T13:58:26Z</time>
      </trkpt>
      <trkpt lat="43.96772" lon="2.04948">
        <ele>200.579576</ele>
        <time>2026-08-29T13:58:27Z</time>
      </trkpt>
      <trkpt lat="43.96771" lon="2.04952">
        <ele>200.690218</ele>
        <time>2026-08-29T13:58:28Z</time>
      </trkpt>
      <trkpt lat="43.96771" lon="2.04956">
        <ele>200.803485</ele>
        <time>2026-08-29T13:58:29Z</time>
      </trkpt>
      <trkpt lat="43.9677" lon="2.0496">
        <ele>200.905197</ele>
        <time>2026-08-29T13:58:30Z</time>
      </trkpt>
      <trkpt lat="43.9677" lon="2.04964">
        <ele>201.008707</ele>
        <time>2026-08-29T13:58:31Z</time>
      </trkpt>
      <trkpt lat="43.96769" lon="2.04968">
        <ele>201.115146</ele>
        <time>2026-08-29T13:58:32Z</time>
      </trkpt>
      <trkpt lat="43.96768" lon="2.04972">
        <ele>201.228172</ele>
        <time>2026-08-29T13:58:33Z</time>
      </trkpt>
      <trkpt lat="43.96767" lon="2.04976">
        <ele>201.340287</ele>
        <time>2026-08-29T13:58:34Z</time>
      </trkpt>
      <trkpt lat="43.96766" lon="2.04985">
        <ele>201.574051</ele>
        <time>2026-08-29T13:58:35Z</time>
      </trkpt>
      <trkpt lat="43.96765" lon="2.04989">
        <ele>201.6932</ele>
        <time>2026-08-29T13:58:36Z</time>
      </trkpt>
      <trkpt lat="43.96764" lon="2.04993">
        <ele>201.802727</ele>
        <time>2026-08-29T13:58:37Z</time>
      </trkpt>
      <trkpt lat="43.96763" lon="2.04997">
        <ele>201.907092</ele>
        <time>2026-08-29T13:58:38Z</time>
      </trkpt>
      <trkpt lat="43.96763" lon="2.05">
        <ele>202.009884</ele>
        <time>2026-08-29T13:58:39Z</time>
      </trkpt>
      <trkpt lat="43.96762" lon="2.05004">
        <ele>202.103778</ele>
        <time>2026-08-29T13:58:40Z</time>
      </trkpt>
      <trkpt lat="43.96761" lon="2.05007">
        <ele>202.194339</ele>
        <time>2026-08-29T13:58:41Z</time>
      </trkpt>
      <trkpt lat="43.9676" lon="2.05011">
        <ele>202.296128</ele>
        <time>2026-08-29T13:58:42Z</time>
      </trkpt>
      <trkpt lat="43.9676" lon="2.05014">
        <ele>202.39368</ele>
        <time>2026-08-29T13:58:43Z</time>
      </trkpt>
      <trkpt lat="43.96759" lon="2.05018">
        <ele>202.48797</ele>
        <time>2026-08-29T13:58:44Z</time>
      </trkpt>
      <trkpt lat="43.96759" lon="2.05021">
        <ele>202.583699</ele>
        <time>2026-08-29T13:58:45Z</time>
      </trkpt>
      <trkpt lat="43.96758" lon="2.05024">
        <ele>202.670824</ele>
        <time>2026-08-29T13:58:46Z</time>
      </trkpt>
      <trkpt lat="43.96758" lon="2.05028">
        <ele>202.758447</ele>
        <time>2026-08-29T13:58:47Z</time>
      </trkpt>
      <trkpt lat="43.96757" lon="2.05031">
        <ele>202.849859</ele>
        <time>2026-08-29T13:58:48Z</time>
      </trkpt>
      <trkpt lat="43.96756" lon="2.05034">
        <ele>202.949041</ele>
        <time>2026-08-29T13:58:49Z</time>
      </trkpt>
      <trkpt lat="43.96755" lon="2.05037">
        <ele>203.04169</ele>
        <time>2026-08-29T13:58:50Z</time>
      </trkpt>
      <trkpt lat="43.96754" lon="2.05041">
        <ele>203.139415</ele>
        <time>2026-08-29T13:58:51Z</time>
      </trkpt>
      <trkpt lat="43.96753" lon="2.05044">
        <ele>203.228997</ele>
        <time>2026-08-29T13:58:52Z</time>
      </trkpt>
      <trkpt lat="43.96752" lon="2.05047">
        <ele>203.310588</ele>
        <time>2026-08-29T13:58:53Z</time>
      </trkpt>
      <trkpt lat="43.96751" lon="2.0505">
        <ele>203.393221</ele>
        <time>2026-08-29T13:58:54Z</time>
      </trkpt>
      <trkpt lat="43.9675" lon="2.05052">
        <ele>203.469578</ele>
        <time>2026-08-29T13:58:55Z</time>
      </trkpt>
      <trkpt lat="43.96749" lon="2.05055">
        <ele>203.552212</ele>
        <time>2026-08-29T13:58:56Z</time>
      </trkpt>
      <trkpt lat="43.96748" lon="2.05058">
        <ele>203.639431</ele>
        <time>2026-08-29T13:58:57Z</time>
      </trkpt>
      <trkpt lat="43.96747" lon="2.05061">
        <ele>203.727397</ele>
        <time>2026-08-29T13:58:58Z</time>
      </trkpt>
      <trkpt lat="43.96746" lon="2.05064">
        <ele>203.816335</ele>
        <time>2026-08-29T13:58:59Z</time>
      </trkpt>
      <trkpt lat="43.96746" lon="2.05067">
        <ele>203.902781</ele>
        <time>2026-08-29T13:59:00Z</time>
      </trkpt>
      <trkpt lat="43.96745" lon="2.0507">
        <ele>203.982124</ele>
        <time>2026-08-29T13:59:01Z</time>
      </trkpt>
      <trkpt lat="43.96744" lon="2.05073">
        <ele>204.067247</ele>
        <time>2026-08-29T13:59:02Z</time>
      </trkpt>
      <trkpt lat="43.96744" lon="2.05076">
        <ele>204.156234</ele>
        <time>2026-08-29T13:59:03Z</time>
      </trkpt>
      <trkpt lat="43.96743" lon="2.0508">
        <ele>204.247771</ele>
        <time>2026-08-29T13:59:04Z</time>
      </trkpt>
      <trkpt lat="43.96742" lon="2.05083">
        <ele>204.34042</ele>
        <time>2026-08-29T13:59:05Z</time>
      </trkpt>
      <trkpt lat="43.96741" lon="2.05086">
        <ele>204.429359</ele>
        <time>2026-08-29T13:59:06Z</time>
      </trkpt>
      <trkpt lat="43.96741" lon="2.05089">
        <ele>204.509644</ele>
        <time>2026-08-29T13:59:07Z</time>
      </trkpt>
      <trkpt lat="43.9674" lon="2.05092">
        <ele>204.594767</ele>
        <time>2026-08-29T13:59:08Z</time>
      </trkpt>
      <trkpt lat="43.96739" lon="2.05095">
        <ele>204.684899</ele>
        <time>2026-08-29T13:59:09Z</time>
      </trkpt>
      <trkpt lat="43.96738" lon="2.05098">
        <ele>204.775286</ele>
        <time>2026-08-29T13:59:10Z</time>
      </trkpt>
      <trkpt lat="43.96737" lon="2.05101">
        <ele>204.864274</ele>
        <time>2026-08-29T13:59:11Z</time>
      </trkpt>
      <trkpt lat="43.96737" lon="2.05105">
        <ele>204.95581</ele>
        <time>2026-08-29T13:59:12Z</time>
      </trkpt>
      <trkpt lat="43.96736" lon="2.05108">
        <ele>205.043794</ele>
        <time>2026-08-29T13:59:13Z</time>
      </trkpt>
      <trkpt lat="43.96735" lon="2.05111">
        <ele>205.135331</ele>
        <time>2026-08-29T13:59:14Z</time>
      </trkpt>
      <trkpt lat="43.96735" lon="2.05114">
        <ele>205.219241</ele>
        <time>2026-08-29T13:59:15Z</time>
      </trkpt>
      <trkpt lat="43.96734" lon="2.05117">
        <ele>205.310653</ele>
        <time>2026-08-29T13:59:16Z</time>
      </trkpt>
      <trkpt lat="43.96733" lon="2.05121">
        <ele>205.402065</ele>
        <time>2026-08-29T13:59:17Z</time>
      </trkpt>
      <trkpt lat="43.96732" lon="2.05124">
        <ele>205.489537</ele>
        <time>2026-08-29T13:59:18Z</time>
      </trkpt>
      <trkpt lat="43.96731" lon="2.05127">
        <ele>205.622318</ele>
        <time>2026-08-29T13:59:19Z</time>
      </trkpt>
      <trkpt lat="43.9673" lon="2.0513">
        <ele>205.751423</ele>
        <time>2026-08-29T13:59:20Z</time>
      </trkpt>
      <trkpt lat="43.96729" lon="2.05132">
        <ele>205.858921</ele>
        <time>2026-08-29T13:59:21Z</time>
      </trkpt>
      <trkpt lat="43.96729" lon="2.05135">
        <ele>205.982288</ele>
        <time>2026-08-29T13:59:22Z</time>
      </trkpt>
      <trkpt lat="43.96728" lon="2.05138">
        <ele>206.109372</ele>
        <time>2026-08-29T13:59:23Z</time>
      </trkpt>
      <trkpt lat="43.96727" lon="2.05141">
        <ele>206.23843</ele>
        <time>2026-08-29T13:59:24Z</time>
      </trkpt>
      <trkpt lat="43.96726" lon="2.05144">
        <ele>206.350677</ele>
        <time>2026-08-29T13:59:25Z</time>
      </trkpt>
      <trkpt lat="43.96726" lon="2.05147">
        <ele>206.466725</ele>
        <time>2026-08-29T13:59:26Z</time>
      </trkpt>
      <trkpt lat="43.96725" lon="2.05149">
        <ele>206.577469</ele>
        <time>2026-08-29T13:59:27Z</time>
      </trkpt>
      <trkpt lat="43.96724" lon="2.05152">
        <ele>206.706574</ele>
        <time>2026-08-29T13:59:28Z</time>
      </trkpt>
      <trkpt lat="43.96724" lon="2.05155">
        <ele>206.833658</ele>
        <time>2026-08-29T13:59:29Z</time>
      </trkpt>
      <trkpt lat="43.96723" lon="2.05158">
        <ele>206.957341</ele>
        <time>2026-08-29T13:59:30Z</time>
      </trkpt>
      <trkpt lat="43.96723" lon="2.05161">
        <ele>207.083536</ele>
        <time>2026-08-29T13:59:31Z</time>
      </trkpt>
      <trkpt lat="43.96722" lon="2.05164">
        <ele>207.205857</ele>
        <time>2026-08-29T13:59:32Z</time>
      </trkpt>
      <trkpt lat="43.96722" lon="2.05167">
        <ele>207.328178</ele>
        <time>2026-08-29T13:59:33Z</time>
      </trkpt>
      <trkpt lat="43.96721" lon="2.05171">
        <ele>207.455693</ele>
        <time>2026-08-29T13:59:34Z</time>
      </trkpt>
      <trkpt lat="43.9672" lon="2.05173">
        <ele>207.577194</ele>
        <time>2026-08-29T13:59:35Z</time>
      </trkpt>
      <trkpt lat="43.9672" lon="2.05176">
        <ele>207.681876</ele>
        <time>2026-08-29T13:59:36Z</time>
      </trkpt>
      <trkpt lat="43.96719" lon="2.05179">
        <ele>207.79786</ele>
        <time>2026-08-29T13:59:37Z</time>
      </trkpt>
      <trkpt lat="43.96718" lon="2.05181">
        <ele>207.902922</ele>
        <time>2026-08-29T13:59:38Z</time>
      </trkpt>
      <trkpt lat="43.96717" lon="2.05184">
        <ele>208.021117</ele>
        <time>2026-08-29T13:59:39Z</time>
      </trkpt>
      <trkpt lat="43.96716" lon="2.05186">
        <ele>208.126179</ele>
        <time>2026-08-29T13:59:40Z</time>
      </trkpt>
      <trkpt lat="43.96715" lon="2.05189">
        <ele>208.246797</ele>
        <time>2026-08-29T13:59:41Z</time>
      </trkpt>
      <trkpt lat="43.96715" lon="2.05191">
        <ele>208.357065</ele>
        <time>2026-08-29T13:59:42Z</time>
      </trkpt>
      <trkpt lat="43.96714" lon="2.05194">
        <ele>208.474807</ele>
        <time>2026-08-29T13:59:43Z</time>
      </trkpt>
      <trkpt lat="43.96713" lon="2.05197">
        <ele>208.594668</ele>
        <time>2026-08-29T13:59:44Z</time>
      </trkpt>
      <trkpt lat="43.96713" lon="2.052">
        <ele>208.718035</ele>
        <time>2026-08-29T13:59:45Z</time>
      </trkpt>
      <trkpt lat="43.96712" lon="2.05203">
        <ele>208.841719</ele>
        <time>2026-08-29T13:59:46Z</time>
      </trkpt>
      <trkpt lat="43.96711" lon="2.05206">
        <ele>208.974572</ele>
        <time>2026-08-29T13:59:47Z</time>
      </trkpt>
      <trkpt lat="43.96711" lon="2.05209">
        <ele>209.099846</ele>
        <time>2026-08-29T13:59:48Z</time>
      </trkpt>
      <trkpt lat="43.9671" lon="2.05212">
        <ele>209.22353</ele>
        <time>2026-08-29T13:59:49Z</time>
      </trkpt>
      <trkpt lat="43.96709" lon="2.05215">
        <ele>209.351045</ele>
        <time>2026-08-29T13:59:50Z</time>
      </trkpt>
      <trkpt lat="43.96709" lon="2.05218">
        <ele>209.478129</ele>
        <time>2026-08-29T13:59:51Z</time>
      </trkpt>
      <trkpt lat="43.96708" lon="2.05221">
        <ele>209.59799</ele>
        <time>2026-08-29T13:59:52Z</time>
      </trkpt>
      <trkpt lat="43.96707" lon="2.05225">
        <ele>209.735837</ele>
        <time>2026-08-29T13:59:53Z</time>
      </trkpt>
      <trkpt lat="43.96707" lon="2.05228">
        <ele>209.880135</ele>
        <time>2026-08-29T13:59:54Z</time>
      </trkpt>
      <trkpt lat="43.96706" lon="2.05231">
        <ele>210.01149</ele>
        <time>2026-08-29T13:59:55Z</time>
      </trkpt>
      <trkpt lat="43.96706" lon="2.05235">
        <ele>210.142845</ele>
        <time>2026-08-29T13:59:56Z</time>
      </trkpt>
      <trkpt lat="43.96705" lon="2.05238">
        <ele>210.288717</ele>
        <time>2026-08-29T13:59:57Z</time>
      </trkpt>
      <trkpt lat="43.96704" lon="2.05241">
        <ele>210.416451</ele>
        <time>2026-08-29T13:59:58Z</time>
      </trkpt>
      <trkpt lat="43.96703" lon="2.05244">
        <ele>210.547779</ele>
        <time>2026-08-29T13:59:59Z</time>
      </trkpt>
      <trkpt lat="43.96702" lon="2.05247">
        <ele>210.673053</ele>
        <time>2026-08-29T14:00:00Z</time>
      </trkpt>
      <trkpt lat="43.96701" lon="2.0525">
        <ele>210.80387</ele>
        <time>2026-08-29T14:00:01Z</time>
      </trkpt>
      <trkpt lat="43.96701" lon="2.05253">
        <ele>210.935225</ele>
        <time>2026-08-29T14:00:02Z</time>
      </trkpt>
      <trkpt lat="43.967" lon="2.05256">
        <ele>211.06274</ele>
        <time>2026-08-29T14:00:03Z</time>
      </trkpt>
      <trkpt lat="43.96699" lon="2.0526">
        <ele>211.195594</ele>
        <time>2026-08-29T14:00:04Z</time>
      </trkpt>
      <trkpt lat="43.96699" lon="2.05263">
        <ele>211.320868</ele>
        <time>2026-08-29T14:00:05Z</time>
      </trkpt>
      <trkpt lat="43.96698" lon="2.05265">
        <ele>211.434866</ele>
        <time>2026-08-29T14:00:06Z</time>
      </trkpt>
      <trkpt lat="43.96697" lon="2.05268">
        <ele>211.539548</ele>
        <time>2026-08-29T14:00:07Z</time>
      </trkpt>
      <trkpt lat="43.96697" lon="2.05271">
        <ele>211.657291</ele>
        <time>2026-08-29T14:00:08Z</time>
      </trkpt>
      <trkpt lat="43.96696" lon="2.05273">
        <ele>211.771894</ele>
        <time>2026-08-29T14:00:09Z</time>
      </trkpt>
      <trkpt lat="43.96695" lon="2.05276">
        <ele>211.896058</ele>
        <time>2026-08-29T14:00:10Z</time>
      </trkpt>
      <trkpt lat="43.96694" lon="2.05279">
        <ele>212.017869</ele>
        <time>2026-08-29T14:00:11Z</time>
      </trkpt>
      <trkpt lat="43.96693" lon="2.05282">
        <ele>212.152432</ele>
        <time>2026-08-29T14:00:12Z</time>
      </trkpt>
      <trkpt lat="43.96692" lon="2.05285">
        <ele>212.290753</ele>
        <time>2026-08-29T14:00:13Z</time>
      </trkpt>
      <trkpt lat="43.96691" lon="2.05288">
        <ele>212.425315</ele>
        <time>2026-08-29T14:00:14Z</time>
      </trkpt>
      <trkpt lat="43.96691" lon="2.05292">
        <ele>212.559878</ele>
        <time>2026-08-29T14:00:15Z</time>
      </trkpt>
      <trkpt lat="43.9669" lon="2.05295">
        <ele>212.683562</ele>
        <time>2026-08-29T14:00:16Z</time>
      </trkpt>
      <trkpt lat="43.9669" lon="2.05298">
        <ele>212.813636</ele>
        <time>2026-08-29T14:00:17Z</time>
      </trkpt>
      <trkpt lat="43.96689" lon="2.05301">
        <ele>212.94371</ele>
        <time>2026-08-29T14:00:18Z</time>
      </trkpt>
      <trkpt lat="43.96689" lon="2.05305">
        <ele>213.084481</ele>
        <time>2026-08-29T14:00:19Z</time>
      </trkpt>
      <trkpt lat="43.96688" lon="2.05308">
        <ele>213.210676</ele>
        <time>2026-08-29T14:00:20Z</time>
      </trkpt>
      <trkpt lat="43.96688" lon="2.05311">
        <ele>213.345879</ele>
        <time>2026-08-29T14:00:21Z</time>
      </trkpt>
      <trkpt lat="43.96687" lon="2.05314">
        <ele>213.477235</ele>
        <time>2026-08-29T14:00:22Z</time>
      </trkpt>
      <trkpt lat="43.96686" lon="2.05318">
        <ele>213.618977</ele>
        <time>2026-08-29T14:00:23Z</time>
      </trkpt>
      <trkpt lat="43.96686" lon="2.05321">
        <ele>213.74621</ele>
        <time>2026-08-29T14:00:24Z</time>
      </trkpt>
      <trkpt lat="43.96686" lon="2.05324">
        <ele>213.881267</ele>
        <time>2026-08-29T14:00:25Z</time>
      </trkpt>
      <trkpt lat="43.96686" lon="2.05328">
        <ele>214.016325</ele>
        <time>2026-08-29T14:00:26Z</time>
      </trkpt>
      <trkpt lat="43.96686" lon="2.05331">
        <ele>214.14741</ele>
        <time>2026-08-29T14:00:27Z</time>
      </trkpt>
      <trkpt lat="43.96686" lon="2.05334">
        <ele>214.278612</ele>
        <time>2026-08-29T14:00:28Z</time>
      </trkpt>
      <trkpt lat="43.96687" lon="2.05338">
        <ele>214.41412</ele>
        <time>2026-08-29T14:00:29Z</time>
      </trkpt>
      <trkpt lat="43.96687" lon="2.05341">
        <ele>214.560906</ele>
        <time>2026-08-29T14:00:30Z</time>
      </trkpt>
      <trkpt lat="43.96688" lon="2.05345">
        <ele>214.701678</ele>
        <time>2026-08-29T14:00:31Z</time>
      </trkpt>
      <trkpt lat="43.96688" lon="2.05349">
        <ele>214.855126</ele>
        <time>2026-08-29T14:00:32Z</time>
      </trkpt>
      <trkpt lat="43.96689" lon="2.05352">
        <ele>215.012398</ele>
        <time>2026-08-29T14:00:33Z</time>
      </trkpt>
      <trkpt lat="43.96689" lon="2.05356">
        <ele>215.146356</ele>
        <time>2026-08-29T14:00:34Z</time>
      </trkpt>
      <trkpt lat="43.9669" lon="2.05359">
        <ele>215.264811</ele>
        <time>2026-08-29T14:00:35Z</time>
      </trkpt>
      <trkpt lat="43.9669" lon="2.05362">
        <ele>215.391006</ele>
        <time>2026-08-29T14:00:36Z</time>
      </trkpt>
      <trkpt lat="43.96691" lon="2.05364">
        <ele>215.415658</ele>
        <time>2026-08-29T14:00:37Z</time>
      </trkpt>
      <trkpt lat="43.96691" lon="2.05364">
        <ele>215.415929</ele>
        <time>2026-08-29T14:00:38Z</time>
      </trkpt>
      <trkpt lat="43.96691" lon="2.05363">
        <ele>215.4162</ele>
        <time>2026-08-29T14:00:39Z</time>
      </trkpt>
      <trkpt lat="43.96691" lon="2.05365">
        <ele>215.419554</ele>
        <time>2026-08-29T14:05:19Z</time>
      </trkpt>
      <trkpt lat="43.96692" lon="2.05368">
        <ele>215.424473</ele>
        <time>2026-08-29T14:05:20Z</time>
      </trkpt>
      <trkpt lat="43.96693" lon="2.05371">
        <ele>215.429245</ele>
        <time>2026-08-29T14:05:21Z</time>
      </trkpt>
      <trkpt lat="43.96694" lon="2.05374">
        <ele>215.43424</ele>
        <time>2026-08-29T14:05:22Z</time>
      </trkpt>
      <trkpt lat="43.96694" lon="2.05378">
        <ele>215.439906</ele>
        <time>2026-08-29T14:05:23Z</time>
      </trkpt>
      <trkpt lat="43.96695" lon="2.05381">
        <ele>215.445793</ele>
        <time>2026-08-29T14:05:24Z</time>
      </trkpt>
      <trkpt lat="43.96696" lon="2.05385">
        <ele>215.45168</ele>
        <time>2026-08-29T14:05:25Z</time>
      </trkpt>
      <trkpt lat="43.96697" lon="2.05388">
        <ele>215.457648</ele>
        <time>2026-08-29T14:05:26Z</time>
      </trkpt>
      <trkpt lat="43.96698" lon="2.05392">
        <ele>215.464224</ele>
        <time>2026-08-29T14:05:27Z</time>
      </trkpt>
      <trkpt lat="43.96698" lon="2.05396">
        <ele>215.47059</ele>
        <time>2026-08-29T14:05:28Z</time>
      </trkpt>
      <trkpt lat="43.96699" lon="2.054">
        <ele>215.477062</ele>
        <time>2026-08-29T14:05:29Z</time>
      </trkpt>
      <trkpt lat="43.967" lon="2.05404">
        <ele>215.483398</ele>
        <time>2026-08-29T14:05:30Z</time>
      </trkpt>
      <trkpt lat="43.96701" lon="2.05408">
        <ele>215.489735</ele>
        <time>2026-08-29T14:05:31Z</time>
      </trkpt>
      <trkpt lat="43.96702" lon="2.05412">
        <ele>215.496255</ele>
        <time>2026-08-29T14:05:32Z</time>
      </trkpt>
      <trkpt lat="43.96702" lon="2.05416">
        <ele>215.503137</ele>
        <time>2026-08-29T14:05:33Z</time>
      </trkpt>
      <trkpt lat="43.96703" lon="2.0542">
        <ele>215.510382</ele>
        <time>2026-08-29T14:05:34Z</time>
      </trkpt>
      <trkpt lat="43.96704" lon="2.05425">
        <ele>215.51778</ele>
        <time>2026-08-29T14:05:35Z</time>
      </trkpt>
      <trkpt lat="43.96705" lon="2.05429">
        <ele>215.525543</ele>
        <time>2026-08-29T14:05:36Z</time>
      </trkpt>
      <trkpt lat="43.96706" lon="2.05434">
        <ele>215.533673</ele>
        <time>2026-08-29T14:05:37Z</time>
      </trkpt>
      <trkpt lat="43.96707" lon="2.05439">
        <ele>215.541501</ele>
        <time>2026-08-29T14:05:38Z</time>
      </trkpt>
      <trkpt lat="43.96709" lon="2.05443">
        <ele>215.54907</ele>
        <time>2026-08-29T14:05:39Z</time>
      </trkpt>
      <trkpt lat="43.9671" lon="2.05448">
        <ele>215.556751</ele>
        <time>2026-08-29T14:05:40Z</time>
      </trkpt>
      <trkpt lat="43.96711" lon="2.05452">
        <ele>215.563908</ele>
        <time>2026-08-29T14:05:41Z</time>
      </trkpt>
      <trkpt lat="43.96712" lon="2.05456">
        <ele>215.57079</ele>
        <time>2026-08-29T14:05:42Z</time>
      </trkpt>
      <trkpt lat="43.96713" lon="2.05461">
        <ele>215.577947</ele>
        <time>2026-08-29T14:05:43Z</time>
      </trkpt>
      <trkpt lat="43.96714" lon="2.05465">
        <ele>215.584737</ele>
        <time>2026-08-29T14:05:44Z</time>
      </trkpt>
      <trkpt lat="43.96715" lon="2.05469">
        <ele>215.591982</ele>
        <time>2026-08-29T14:05:45Z</time>
      </trkpt>
      <trkpt lat="43.96716" lon="2.05474">
        <ele>215.599593</ele>
        <time>2026-08-29T14:05:46Z</time>
      </trkpt>
      <trkpt lat="43.96717" lon="2.05479">
        <ele>215.607552</ele>
        <time>2026-08-29T14:05:47Z</time>
      </trkpt>
      <trkpt lat="43.96718" lon="2.05483">
        <ele>215.615409</ele>
        <time>2026-08-29T14:05:48Z</time>
      </trkpt>
      <trkpt lat="43.96718" lon="2.05488">
        <ele>215.622904</ele>
        <time>2026-08-29T14:05:49Z</time>
      </trkpt>
      <trkpt lat="43.96719" lon="2.05493">
        <ele>215.630667</ele>
        <time>2026-08-29T14:05:50Z</time>
      </trkpt>
      <trkpt lat="43.9672" lon="2.05497">
        <ele>215.638279</ele>
        <time>2026-08-29T14:05:51Z</time>
      </trkpt>
      <trkpt lat="43.96722" lon="2.05502">
        <ele>215.646029</ele>
        <time>2026-08-29T14:05:52Z</time>
      </trkpt>
      <trkpt lat="43.96723" lon="2.05506">
        <ele>215.653488</ele>
        <time>2026-08-29T14:05:53Z</time>
      </trkpt>
      <trkpt lat="43.96723" lon="2.05511">
        <ele>215.661138</ele>
        <time>2026-08-29T14:05:54Z</time>
      </trkpt>
      <trkpt lat="43.96724" lon="2.05516">
        <ele>215.668942</ele>
        <time>2026-08-29T14:05:55Z</time>
      </trkpt>
      <trkpt lat="43.96725" lon="2.05521">
        <ele>215.6767</ele>
        <time>2026-08-29T14:05:56Z</time>
      </trkpt>
      <trkpt lat="43.96726" lon="2.05526">
        <ele>215.68471</ele>
        <time>2026-08-29T14:05:57Z</time>
      </trkpt>
      <trkpt lat="43.96727" lon="2.0553">
        <ele>215.69272</ele>
        <time>2026-08-29T14:05:58Z</time>
      </trkpt>
      <trkpt lat="43.96728" lon="2.05536">
        <ele>215.701245</ele>
        <time>2026-08-29T14:05:59Z</time>
      </trkpt>
      <trkpt lat="43.96729" lon="2.05541">
        <ele>215.70987</ele>
        <time>2026-08-29T14:06:00Z</time>
      </trkpt>
      <trkpt lat="43.96729" lon="2.05546">
        <ele>215.717939</ele>
        <time>2026-08-29T14:06:01Z</time>
      </trkpt>
      <trkpt lat="43.9673" lon="2.0555">
        <ele>215.725466</ele>
        <time>2026-08-29T14:06:02Z</time>
      </trkpt>
      <trkpt lat="43.96731" lon="2.05555">
        <ele>215.732864</ele>
        <time>2026-08-29T14:06:03Z</time>
      </trkpt>
      <trkpt lat="43.96732" lon="2.0556">
        <ele>215.740977</ele>
        <time>2026-08-29T14:06:04Z</time>
      </trkpt>
      <trkpt lat="43.96733" lon="2.05565">
        <ele>215.749006</ele>
        <time>2026-08-29T14:06:05Z</time>
      </trkpt>
      <trkpt lat="43.96734" lon="2.0557">
        <ele>215.757838</ele>
        <time>2026-08-29T14:06:06Z</time>
      </trkpt>
      <trkpt lat="43.96735" lon="2.05576">
        <ele>215.766772</ele>
        <time>2026-08-29T14:06:07Z</time>
      </trkpt>
      <trkpt lat="43.96736" lon="2.05581">
        <ele>215.775757</ele>
        <time>2026-08-29T14:06:08Z</time>
      </trkpt>
      <trkpt lat="43.96737" lon="2.05587">
        <ele>215.784282</ele>
        <time>2026-08-29T14:06:09Z</time>
      </trkpt>
      <trkpt lat="43.96738" lon="2.05591">
        <ele>215.792197</ele>
        <time>2026-08-29T14:06:10Z</time>
      </trkpt>
      <trkpt lat="43.96739" lon="2.05596">
        <ele>215.800515</ele>
        <time>2026-08-29T14:06:11Z</time>
      </trkpt>
      <trkpt lat="43.9674" lon="2.05602">
        <ele>215.806438</ele>
        <time>2026-08-29T14:06:12Z</time>
      </trkpt>
      <trkpt lat="43.96741" lon="2.05608">
        <ele>215.677605</ele>
        <time>2026-08-29T14:06:13Z</time>
      </trkpt>
      <trkpt lat="43.96742" lon="2.05614">
        <ele>215.548085</ele>
        <time>2026-08-29T14:06:14Z</time>
      </trkpt>
      <trkpt lat="43.96743" lon="2.0562">
        <ele>215.406156</ele>
        <time>2026-08-29T14:06:15Z</time>
      </trkpt>
      <trkpt lat="43.96744" lon="2.05627">
        <ele>215.266229</ele>
        <time>2026-08-29T14:06:16Z</time>
      </trkpt>
      <trkpt lat="43.96746" lon="2.05633">
        <ele>215.131383</ele>
        <time>2026-08-29T14:06:17Z</time>
      </trkpt>
      <trkpt lat="43.96747" lon="2.05639">
        <ele>214.992572</ele>
        <time>2026-08-29T14:06:18Z</time>
      </trkpt>
      <trkpt lat="43.96749" lon="2.05645">
        <ele>214.853783</ele>
        <time>2026-08-29T14:06:19Z</time>
      </trkpt>
      <trkpt lat="43.96751" lon="2.05651">
        <ele>214.70973</ele>
        <time>2026-08-29T14:06:20Z</time>
      </trkpt>
      <trkpt lat="43.96754" lon="2.05658">
        <ele>214.565676</ele>
        <time>2026-08-29T14:06:21Z</time>
      </trkpt>
      <trkpt lat="43.96756" lon="2.05664">
        <ele>214.415185</ele>
        <time>2026-08-29T14:06:22Z</time>
      </trkpt>
      <trkpt lat="43.96758" lon="2.0567">
        <ele>214.270364</ele>
        <time>2026-08-29T14:06:23Z</time>
      </trkpt>
      <trkpt lat="43.9676" lon="2.05677">
        <ele>214.118849</ele>
        <time>2026-08-29T14:06:24Z</time>
      </trkpt>
      <trkpt lat="43.96762" lon="2.05683">
        <ele>213.970152</ele>
        <time>2026-08-29T14:06:25Z</time>
      </trkpt>
      <trkpt lat="43.96765" lon="2.0569">
        <ele>213.819897</ele>
        <time>2026-08-29T14:06:26Z</time>
      </trkpt>
      <trkpt lat="43.96767" lon="2.05696">
        <ele>213.666502</ele>
        <time>2026-08-29T14:06:27Z</time>
      </trkpt>
      <trkpt lat="43.96769" lon="2.05703">
        <ele>213.504906</ele>
        <time>2026-08-29T14:06:28Z</time>
      </trkpt>
      <trkpt lat="43.96772" lon="2.0571">
        <ele>213.3461</ele>
        <time>2026-08-29T14:06:29Z</time>
      </trkpt>
      <trkpt lat="43.96775" lon="2.05716">
        <ele>213.190917</ele>
        <time>2026-08-29T14:06:30Z</time>
      </trkpt>
      <trkpt lat="43.96778" lon="2.05723">
        <ele>213.02885</ele>
        <time>2026-08-29T14:06:31Z</time>
      </trkpt>
      <trkpt lat="43.9678" lon="2.0573">
        <ele>212.86315</ele>
        <time>2026-08-29T14:06:32Z</time>
      </trkpt>
      <trkpt lat="43.96783" lon="2.05737">
        <ele>212.699684</ele>
        <time>2026-08-29T14:06:33Z</time>
      </trkpt>
      <trkpt lat="43.96785" lon="2.05744">
        <ele>212.537173</ele>
        <time>2026-08-29T14:06:34Z</time>
      </trkpt>
      <trkpt lat="43.96787" lon="2.05751">
        <ele>212.370477</ele>
        <time>2026-08-29T14:06:35Z</time>
      </trkpt>
      <trkpt lat="43.96789" lon="2.05759">
        <ele>212.209036</ele>
        <time>2026-08-29T14:06:36Z</time>
      </trkpt>
      <trkpt lat="43.96791" lon="2.05766">
        <ele>212.041669</ele>
        <time>2026-08-29T14:06:37Z</time>
      </trkpt>
      <trkpt lat="43.96792" lon="2.05774">
        <ele>211.872148</ele>
        <time>2026-08-29T14:06:38Z</time>
      </trkpt>
      <trkpt lat="43.96793" lon="2.05782">
        <ele>211.70112</ele>
        <time>2026-08-29T14:06:39Z</time>
      </trkpt>
      <trkpt lat="43.96794" lon="2.05791">
        <ele>211.522934</ele>
        <time>2026-08-29T14:06:40Z</time>
      </trkpt>
      <trkpt lat="43.96794" lon="2.05799">
        <ele>211.339463</ele>
        <time>2026-08-29T14:06:41Z</time>
      </trkpt>
      <trkpt lat="43.96796" lon="2.05808">
        <ele>211.150937</ele>
        <time>2026-08-29T14:06:42Z</time>
      </trkpt>
      <trkpt lat="43.96797" lon="2.05817">
        <ele>210.963797</ele>
        <time>2026-08-29T14:06:43Z</time>
      </trkpt>
      <trkpt lat="43.96798" lon="2.05826">
        <ele>210.777865</ele>
        <time>2026-08-29T14:06:44Z</time>
      </trkpt>
      <trkpt lat="43.96799" lon="2.05835">
        <ele>210.575465</ele>
        <time>2026-08-29T14:06:45Z</time>
      </trkpt>
      <trkpt lat="43.96801" lon="2.05844">
        <ele>210.359587</ele>
        <time>2026-08-29T14:06:46Z</time>
      </trkpt>
      <trkpt lat="43.96803" lon="2.05853">
        <ele>210.149142</ele>
        <time>2026-08-29T14:06:47Z</time>
      </trkpt>
      <trkpt lat="43.96805" lon="2.05861">
        <ele>209.94774</ele>
        <time>2026-08-29T14:06:48Z</time>
      </trkpt>
      <trkpt lat="43.96808" lon="2.05869">
        <ele>209.746217</ele>
        <time>2026-08-29T14:06:49Z</time>
      </trkpt>
      <trkpt lat="43.9681" lon="2.05876">
        <ele>209.567534</ele>
        <time>2026-08-29T14:06:50Z</time>
      </trkpt>
      <trkpt lat="43.96813" lon="2.05883">
        <ele>209.380955</ele>
        <time>2026-08-29T14:06:51Z</time>
      </trkpt>
      <trkpt lat="43.96815" lon="2.05889">
        <ele>209.21107</ele>
        <time>2026-08-29T14:06:52Z</time>
      </trkpt>
      <trkpt lat="43.96818" lon="2.05895">
        <ele>209.038096</ele>
        <time>2026-08-29T14:06:53Z</time>
      </trkpt>
      <trkpt lat="43.96821" lon="2.05901">
        <ele>208.865265</ele>
        <time>2026-08-29T14:06:54Z</time>
      </trkpt>
      <trkpt lat="43.96824" lon="2.05907">
        <ele>208.690499</ele>
        <time>2026-08-29T14:06:55Z</time>
      </trkpt>
      <trkpt lat="43.96827" lon="2.05913">
        <ele>208.524965</ele>
        <time>2026-08-29T14:06:56Z</time>
      </trkpt>
      <trkpt lat="43.9683" lon="2.0592">
        <ele>208.35344</ele>
        <time>2026-08-29T14:06:57Z</time>
      </trkpt>
      <trkpt lat="43.96832" lon="2.05926">
        <ele>208.18392</ele>
        <time>2026-08-29T14:06:58Z</time>
      </trkpt>
      <trkpt lat="43.96835" lon="2.05932">
        <ele>208.017174</ele>
        <time>2026-08-29T14:06:59Z</time>
      </trkpt>
      <trkpt lat="43.96837" lon="2.05939">
        <ele>207.852634</ele>
        <time>2026-08-29T14:07:00Z</time>
      </trkpt>
      <trkpt lat="43.96839" lon="2.05945">
        <ele>207.677385</ele>
        <time>2026-08-29T14:07:01Z</time>
      </trkpt>
      <trkpt lat="43.96841" lon="2.05953">
        <ele>207.500186</ele>
        <time>2026-08-29T14:07:02Z</time>
      </trkpt>
      <trkpt lat="43.96842" lon="2.0596">
        <ele>207.312546</ele>
        <time>2026-08-29T14:07:03Z</time>
      </trkpt>
      <trkpt lat="43.96842" lon="2.05969">
        <ele>207.117706</ele>
        <time>2026-08-29T14:07:04Z</time>
      </trkpt>
      <trkpt lat="43.96843" lon="2.05978">
        <ele>206.910927</ele>
        <time>2026-08-29T14:07:05Z</time>
      </trkpt>
      <trkpt lat="43.96844" lon="2.05987">
        <ele>206.699765</ele>
        <time>2026-08-29T14:07:06Z</time>
      </trkpt>
      <trkpt lat="43.96845" lon="2.05996">
        <ele>206.465432</ele>
        <time>2026-08-29T14:07:07Z</time>
      </trkpt>
      <trkpt lat="43.96845" lon="2.06006">
        <ele>206.243105</ele>
        <time>2026-08-29T14:07:08Z</time>
      </trkpt>
      <trkpt lat="43.96845" lon="2.06015">
        <ele>206.025527</ele>
        <time>2026-08-29T14:07:09Z</time>
      </trkpt>
      <trkpt lat="43.96845" lon="2.06025">
        <ele>205.791598</ele>
        <time>2026-08-29T14:07:10Z</time>
      </trkpt>
      <trkpt lat="43.96845" lon="2.06036">
        <ele>205.543634</ele>
        <time>2026-08-29T14:07:11Z</time>
      </trkpt>
      <trkpt lat="43.96845" lon="2.06047">
        <ele>205.276876</ele>
        <time>2026-08-29T14:07:12Z</time>
      </trkpt>
      <trkpt lat="43.96845" lon="2.06059">
        <ele>205.007681</ele>
        <time>2026-08-29T14:07:13Z</time>
      </trkpt>
      <trkpt lat="43.96846" lon="2.0607">
        <ele>204.735007</ele>
        <time>2026-08-29T14:07:14Z</time>
      </trkpt>
      <trkpt lat="43.96846" lon="2.06082">
        <ele>204.663392</ele>
        <time>2026-08-29T14:07:15Z</time>
      </trkpt>
      <trkpt lat="43.96847" lon="2.06094">
        <ele>204.592853</ele>
        <time>2026-08-29T14:07:16Z</time>
      </trkpt>
      <trkpt lat="43.96848" lon="2.06106">
        <ele>204.520883</ele>
        <time>2026-08-29T14:07:17Z</time>
      </trkpt>
      <trkpt lat="43.96849" lon="2.06118">
        <ele>204.448001</ele>
        <time>2026-08-29T14:07:18Z</time>
      </trkpt>
      <trkpt lat="43.9685" lon="2.06129">
        <ele>204.376795</ele>
        <time>2026-08-29T14:07:19Z</time>
      </trkpt>
      <trkpt lat="43.96852" lon="2.0614">
        <ele>204.308569</ele>
        <time>2026-08-29T14:07:20Z</time>
      </trkpt>
      <trkpt lat="43.96855" lon="2.0615">
        <ele>204.24224</ele>
        <time>2026-08-29T14:07:21Z</time>
      </trkpt>
      <trkpt lat="43.96857" lon="2.0616">
        <ele>204.17972</ele>
        <time>2026-08-29T14:07:22Z</time>
      </trkpt>
      <trkpt lat="43.96859" lon="2.06169">
        <ele>204.121668</ele>
        <time>2026-08-29T14:07:23Z</time>
      </trkpt>
      <trkpt lat="43.96861" lon="2.06178">
        <ele>204.064284</ele>
        <time>2026-08-29T14:07:24Z</time>
      </trkpt>
      <trkpt lat="43.96863" lon="2.06187">
        <ele>204.0103</ele>
        <time>2026-08-29T14:07:25Z</time>
      </trkpt>
      <trkpt lat="43.96865" lon="2.06195">
        <ele>203.95606</ele>
        <time>2026-08-29T14:07:26Z</time>
      </trkpt>
      <trkpt lat="43.96867" lon="2.06204">
        <ele>203.902117</ele>
        <time>2026-08-29T14:07:27Z</time>
      </trkpt>
      <trkpt lat="43.96869" lon="2.06212">
        <ele>203.851606</ele>
        <time>2026-08-29T14:07:28Z</time>
      </trkpt>
      <trkpt lat="43.96872" lon="2.06218">
        <ele>203.805485</ele>
        <time>2026-08-29T14:07:29Z</time>
      </trkpt>
      <trkpt lat="43.96874" lon="2.06225">
        <ele>203.760785</ele>
        <time>2026-08-29T14:07:30Z</time>
      </trkpt>
      <trkpt lat="43.96877" lon="2.0623">
        <ele>203.719432</ele>
        <time>2026-08-29T14:07:31Z</time>
      </trkpt>
      <trkpt lat="43.9688" lon="2.06236">
        <ele>203.680043</ele>
        <time>2026-08-29T14:07:32Z</time>
      </trkpt>
      <trkpt lat="43.96883" lon="2.0624">
        <ele>203.641821</ele>
        <time>2026-08-29T14:07:33Z</time>
      </trkpt>
      <trkpt lat="43.96886" lon="2.06244">
        <ele>203.604277</ele>
        <time>2026-08-29T14:07:34Z</time>
      </trkpt>
      <trkpt lat="43.9689" lon="2.06248">
        <ele>203.566971</ele>
        <time>2026-08-29T14:07:35Z</time>
      </trkpt>
      <trkpt lat="43.96893" lon="2.06252">
        <ele>203.531509</ele>
        <time>2026-08-29T14:07:36Z</time>
      </trkpt>
      <trkpt lat="43.96895" lon="2.06257">
        <ele>203.496338</ele>
        <time>2026-08-29T14:07:37Z</time>
      </trkpt>
      <trkpt lat="43.96898" lon="2.06261">
        <ele>203.460863</ele>
        <time>2026-08-29T14:07:38Z</time>
      </trkpt>
      <trkpt lat="43.969" lon="2.06266">
        <ele>203.425414</ele>
        <time>2026-08-29T14:07:39Z</time>
      </trkpt>
      <trkpt lat="43.96902" lon="2.06271">
        <ele>203.390302</ele>
        <time>2026-08-29T14:07:40Z</time>
      </trkpt>
      <trkpt lat="43.96904" lon="2.06276">
        <ele>203.357077</ele>
        <time>2026-08-29T14:07:41Z</time>
      </trkpt>
      <trkpt lat="43.96906" lon="2.06281">
        <ele>203.324909</ele>
        <time>2026-08-29T14:07:42Z</time>
      </trkpt>
      <trkpt lat="43.96908" lon="2.06285">
        <ele>203.294084</ele>
        <time>2026-08-29T14:07:43Z</time>
      </trkpt>
      <trkpt lat="43.9691" lon="2.0629">
        <ele>203.263259</ele>
        <time>2026-08-29T14:07:44Z</time>
      </trkpt>
      <trkpt lat="43.96911" lon="2.06294">
        <ele>203.231355</ele>
        <time>2026-08-29T14:07:45Z</time>
      </trkpt>
      <trkpt lat="43.96913" lon="2.06299">
        <ele>203.273557</ele>
        <time>2026-08-29T14:07:46Z</time>
      </trkpt>
      <trkpt lat="43.96914" lon="2.06303">
        <ele>203.359443</ele>
        <time>2026-08-29T14:07:47Z</time>
      </trkpt>
      <trkpt lat="43.96916" lon="2.06307">
        <ele>203.446489</ele>
        <time>2026-08-29T14:07:48Z</time>
      </trkpt>
      <trkpt lat="43.96917" lon="2.06311">
        <ele>203.530738</ele>
        <time>2026-08-29T14:07:49Z</time>
      </trkpt>
      <trkpt lat="43.96919" lon="2.06315">
        <ele>203.616623</ele>
        <time>2026-08-29T14:07:50Z</time>
      </trkpt>
      <trkpt lat="43.9692" lon="2.06319">
        <ele>203.697018</ele>
        <time>2026-08-29T14:07:51Z</time>
      </trkpt>
      <trkpt lat="43.96921" lon="2.06323">
        <ele>203.771357</ele>
        <time>2026-08-29T14:07:52Z</time>
      </trkpt>
      <trkpt lat="43.96923" lon="2.06327">
        <ele>203.844686</ele>
        <time>2026-08-29T14:07:53Z</time>
      </trkpt>
      <trkpt lat="43.96924" lon="2.0633">
        <ele>203.919025</ele>
        <time>2026-08-29T14:07:54Z</time>
      </trkpt>
      <trkpt lat="43.96925" lon="2.06334">
        <ele>203.992373</ele>
        <time>2026-08-29T14:07:55Z</time>
      </trkpt>
      <trkpt lat="43.96926" lon="2.06338">
        <ele>204.071102</ele>
        <time>2026-08-29T14:07:56Z</time>
      </trkpt>
      <trkpt lat="43.96928" lon="2.06341">
        <ele>204.142116</ele>
        <time>2026-08-29T14:07:57Z</time>
      </trkpt>
      <trkpt lat="43.96929" lon="2.06345">
        <ele>204.215446</ele>
        <time>2026-08-29T14:07:58Z</time>
      </trkpt>
      <trkpt lat="43.9693" lon="2.06349">
        <ele>204.287086</ele>
        <time>2026-08-29T14:07:59Z</time>
      </trkpt>
      <trkpt lat="43.96931" lon="2.06352">
        <ele>204.359232</ele>
        <time>2026-08-29T14:08:00Z</time>
      </trkpt>
      <trkpt lat="43.96933" lon="2.06355">
        <ele>204.432117</ele>
        <time>2026-08-29T14:08:01Z</time>
      </trkpt>
      <trkpt lat="43.96934" lon="2.06359">
        <ele>204.503507</ele>
        <time>2026-08-29T14:08:02Z</time>
      </trkpt>
      <trkpt lat="43.96936" lon="2.06362">
        <ele>204.577918</ele>
        <time>2026-08-29T14:08:03Z</time>
      </trkpt>
      <trkpt lat="43.96938" lon="2.06365">
        <ele>204.649308</ele>
        <time>2026-08-29T14:08:04Z</time>
      </trkpt>
      <trkpt lat="43.96939" lon="2.06368">
        <ele>204.71782</ele>
        <time>2026-08-29T14:08:05Z</time>
      </trkpt>
      <trkpt lat="43.96941" lon="2.06371">
        <ele>204.786332</ele>
        <time>2026-08-29T14:08:06Z</time>
      </trkpt>
      <trkpt lat="43.96943" lon="2.06374">
        <ele>204.850269</ele>
        <time>2026-08-29T14:08:07Z</time>
      </trkpt>
      <trkpt lat="43.96944" lon="2.06377">
        <ele>204.918781</ele>
        <time>2026-08-29T14:08:08Z</time>
      </trkpt>
      <trkpt lat="43.96946" lon="2.0638">
        <ele>204.985694</ele>
        <time>2026-08-29T14:08:09Z</time>
      </trkpt>
      <trkpt lat="43.96948" lon="2.06383">
        <ele>205.055635</ele>
        <time>2026-08-29T14:08:10Z</time>
      </trkpt>
      <trkpt lat="43.96949" lon="2.06386">
        <ele>205.131624</ele>
        <time>2026-08-29T14:08:11Z</time>
      </trkpt>
      <trkpt lat="43.96951" lon="2.06389">
        <ele>205.206209</ele>
        <time>2026-08-29T14:08:12Z</time>
      </trkpt>
      <trkpt lat="43.96953" lon="2.06392">
        <ele>205.277598</ele>
        <time>2026-08-29T14:08:13Z</time>
      </trkpt>
      <trkpt lat="43.96955" lon="2.06395">
        <ele>205.349142</ele>
        <time>2026-08-29T14:08:14Z</time>
      </trkpt>
      <trkpt lat="43.96957" lon="2.06398">
        <ele>205.425131</ele>
        <time>2026-08-29T14:08:15Z</time>
      </trkpt>
      <trkpt lat="43.96959" lon="2.06401">
        <ele>205.498331</ele>
        <time>2026-08-29T14:08:16Z</time>
      </trkpt>
      <trkpt lat="43.96961" lon="2.06404">
        <ele>205.571903</ele>
        <time>2026-08-29T14:08:17Z</time>
      </trkpt>
      <trkpt lat="43.96963" lon="2.06407">
        <ele>205.648561</ele>
        <time>2026-08-29T14:08:18Z</time>
      </trkpt>
      <trkpt lat="43.96965" lon="2.0641">
        <ele>205.72482</ele>
        <time>2026-08-29T14:08:19Z</time>
      </trkpt>
      <trkpt lat="43.96967" lon="2.06413">
        <ele>205.803867</ele>
        <time>2026-08-29T14:08:20Z</time>
      </trkpt>
      <trkpt lat="43.96969" lon="2.06416">
        <ele>205.885422</ele>
        <time>2026-08-29T14:08:21Z</time>
      </trkpt>
      <trkpt lat="43.96972" lon="2.06419">
        <ele>205.967586</ele>
        <time>2026-08-29T14:08:22Z</time>
      </trkpt>
      <trkpt lat="43.96974" lon="2.06422">
        <ele>206.046039</ele>
        <time>2026-08-29T14:08:23Z</time>
      </trkpt>
      <trkpt lat="43.96976" lon="2.06425">
        <ele>206.127765</ele>
        <time>2026-08-29T14:08:24Z</time>
      </trkpt>
      <trkpt lat="43.96979" lon="2.06428">
        <ele>206.207242</ele>
        <time>2026-08-29T14:08:25Z</time>
      </trkpt>
      <trkpt lat="43.96982" lon="2.0643">
        <ele>206.289855</ele>
        <time>2026-08-29T14:08:26Z</time>
      </trkpt>
      <trkpt lat="43.96984" lon="2.06433">
        <ele>206.374712</ele>
        <time>2026-08-29T14:08:27Z</time>
      </trkpt>
      <trkpt lat="43.96987" lon="2.06436">
        <ele>206.46046</ele>
        <time>2026-08-29T14:08:28Z</time>
      </trkpt>
      <trkpt lat="43.9699" lon="2.06439">
        <ele>206.549307</ele>
        <time>2026-08-29T14:08:29Z</time>
      </trkpt>
      <trkpt lat="43.96992" lon="2.06441">
        <ele>206.632915</ele>
        <time>2026-08-29T14:08:30Z</time>
      </trkpt>
      <trkpt lat="43.96995" lon="2.06443">
        <ele>206.710393</ele>
        <time>2026-08-29T14:08:31Z</time>
      </trkpt>
      <trkpt lat="43.96998" lon="2.06446">
        <ele>206.79538</ele>
        <time>2026-08-29T14:08:32Z</time>
      </trkpt>
      <trkpt lat="43.97001" lon="2.06448">
        <ele>206.880067</ele>
        <time>2026-08-29T14:08:33Z</time>
      </trkpt>
      <trkpt lat="43.97004" lon="2.0645">
        <ele>206.96416</ele>
        <time>2026-08-29T14:08:34Z</time>
      </trkpt>
      <trkpt lat="43.97007" lon="2.06452">
        <ele>207.051021</ele>
        <time>2026-08-29T14:08:35Z</time>
      </trkpt>
      <trkpt lat="43.9701" lon="2.06455">
        <ele>207.1409</ele>
        <time>2026-08-29T14:08:36Z</time>
      </trkpt>
      <trkpt lat="43.97012" lon="2.06458">
        <ele>207.231221</ele>
        <time>2026-08-29T14:08:37Z</time>
      </trkpt>
      <trkpt lat="43.97015" lon="2.06461">
        <ele>207.321211</ele>
        <time>2026-08-29T14:08:38Z</time>
      </trkpt>
      <trkpt lat="43.97018" lon="2.06464">
        <ele>207.4092</ele>
        <time>2026-08-29T14:08:39Z</time>
      </trkpt>
      <trkpt lat="43.9702" lon="2.06467">
        <ele>207.489673</ele>
        <time>2026-08-29T14:08:40Z</time>
      </trkpt>
      <trkpt lat="43.97023" lon="2.06469">
        <ele>207.570277</ele>
        <time>2026-08-29T14:08:41Z</time>
      </trkpt>
      <trkpt lat="43.97026" lon="2.06472">
        <ele>207.653063</ele>
        <time>2026-08-29T14:08:42Z</time>
      </trkpt>
      <trkpt lat="43.97029" lon="2.06474">
        <ele>207.743382</ele>
        <time>2026-08-29T14:08:43Z</time>
      </trkpt>
      <trkpt lat="43.97032" lon="2.06476">
        <ele>207.825166</ele>
        <time>2026-08-29T14:08:44Z</time>
      </trkpt>
      <trkpt lat="43.97035" lon="2.06478">
        <ele>207.893326</ele>
        <time>2026-08-29T14:08:45Z</time>
      </trkpt>
      <trkpt lat="43.97038" lon="2.0648">
        <ele>207.956666</ele>
        <time>2026-08-29T14:08:46Z</time>
      </trkpt>
      <trkpt lat="43.97041" lon="2.06482">
        <ele>208.017021</ele>
        <time>2026-08-29T14:08:47Z</time>
      </trkpt>
      <trkpt lat="43.97044" lon="2.06484">
        <ele>208.079805</ele>
        <time>2026-08-29T14:08:48Z</time>
      </trkpt>
      <trkpt lat="43.97046" lon="2.06486">
        <ele>208.14259</ele>
        <time>2026-08-29T14:08:49Z</time>
      </trkpt>
      <trkpt lat="43.97049" lon="2.06488">
        <ele>208.204056</ele>
        <time>2026-08-29T14:08:50Z</time>
      </trkpt>
      <trkpt lat="43.97052" lon="2.06491">
        <ele>208.268759</ele>
        <time>2026-08-29T14:08:51Z</time>
      </trkpt>
      <trkpt lat="43.97055" lon="2.06493">
        <ele>208.334367</ele>
        <time>2026-08-29T14:08:52Z</time>
      </trkpt>
      <trkpt lat="43.97057" lon="2.06496">
        <ele>208.403982</ele>
        <time>2026-08-29T14:08:53Z</time>
      </trkpt>
      <trkpt lat="43.9706" lon="2.06498">
        <ele>208.473743</ele>
        <time>2026-08-29T14:08:54Z</time>
      </trkpt>
      <trkpt lat="43.97063" lon="2.06501">
        <ele>208.544996</ele>
        <time>2026-08-29T14:08:55Z</time>
      </trkpt>
      <trkpt lat="43.97066" lon="2.06504">
        <ele>208.613822</ele>
        <time>2026-08-29T14:08:56Z</time>
      </trkpt>
      <trkpt lat="43.97069" lon="2.06507">
        <ele>208.68367</ele>
        <time>2026-08-29T14:08:57Z</time>
      </trkpt>
      <trkpt lat="43.97072" lon="2.0651">
        <ele>208.751725</ele>
        <time>2026-08-29T14:08:58Z</time>
      </trkpt>
      <trkpt lat="43.97074" lon="2.06513">
        <ele>208.818912</ele>
        <time>2026-08-29T14:08:59Z</time>
      </trkpt>
      <trkpt lat="43.97077" lon="2.06516">
        <ele>208.880849</ele>
        <time>2026-08-29T14:09:00Z</time>
      </trkpt>
      <trkpt lat="43.97079" lon="2.06519">
        <ele>208.94475</ele>
        <time>2026-08-29T14:09:01Z</time>
      </trkpt>
      <trkpt lat="43.97081" lon="2.06522">
        <ele>209.010097</ele>
        <time>2026-08-29T14:09:02Z</time>
      </trkpt>
      <trkpt lat="43.97084" lon="2.06525">
        <ele>209.074657</ele>
        <time>2026-08-29T14:09:03Z</time>
      </trkpt>
      <trkpt lat="43.97086" lon="2.06528">
        <ele>209.140277</ele>
        <time>2026-08-29T14:09:04Z</time>
      </trkpt>
      <trkpt lat="43.97088" lon="2.06532">
        <ele>209.208059</ele>
        <time>2026-08-29T14:09:05Z</time>
      </trkpt>
      <trkpt lat="43.9709" lon="2.06536">
        <ele>209.279548</ele>
        <time>2026-08-29T14:09:06Z</time>
      </trkpt>
      <trkpt lat="43.97093" lon="2.06539">
        <ele>209.347571</ele>
        <time>2026-08-29T14:09:07Z</time>
      </trkpt>
      <trkpt lat="43.97095" lon="2.06543">
        <ele>209.420132</ele>
        <time>2026-08-29T14:09:08Z</time>
      </trkpt>
      <trkpt lat="43.97098" lon="2.06547">
        <ele>209.490906</ele>
        <time>2026-08-29T14:09:09Z</time>
      </trkpt>
      <trkpt lat="43.971" lon="2.0655">
        <ele>209.562616</ele>
        <time>2026-08-29T14:09:10Z</time>
      </trkpt>
      <trkpt lat="43.97103" lon="2.06553">
        <ele>209.633039</ele>
        <time>2026-08-29T14:09:11Z</time>
      </trkpt>
      <trkpt lat="43.97106" lon="2.06555">
        <ele>209.699396</ele>
        <time>2026-08-29T14:09:12Z</time>
      </trkpt>
      <trkpt lat="43.97109" lon="2.06556">
        <ele>209.765494</ele>
        <time>2026-08-29T14:09:13Z</time>
      </trkpt>
      <trkpt lat="43.97112" lon="2.06557">
        <ele>209.828126</ele>
        <time>2026-08-29T14:09:14Z</time>
      </trkpt>
      <trkpt lat="43.97116" lon="2.06557">
        <ele>209.889946</ele>
        <time>2026-08-29T14:09:15Z</time>
      </trkpt>
      <trkpt lat="43.97119" lon="2.06556">
        <ele>209.951834</ele>
        <time>2026-08-29T14:09:16Z</time>
      </trkpt>
      <trkpt lat="43.97122" lon="2.06556">
        <ele>210.015665</ele>
        <time>2026-08-29T14:09:17Z</time>
      </trkpt>
      <trkpt lat="43.97125" lon="2.06556">
        <ele>210.083605</ele>
        <time>2026-08-29T14:09:18Z</time>
      </trkpt>
      <trkpt lat="43.97129" lon="2.06556">
        <ele>210.149414</ele>
        <time>2026-08-29T14:09:19Z</time>
      </trkpt>
      <trkpt lat="43.97131" lon="2.06556">
        <ele>210.207317</ele>
        <time>2026-08-29T14:09:20Z</time>
      </trkpt>
      <trkpt lat="43.97135" lon="2.06556">
        <ele>210.273142</ele>
        <time>2026-08-29T14:09:21Z</time>
      </trkpt>
      <trkpt lat="43.97138" lon="2.06556">
        <ele>210.34096</ele>
        <time>2026-08-29T14:09:22Z</time>
      </trkpt>
      <trkpt lat="43.97142" lon="2.06556">
        <ele>210.408764</ele>
        <time>2026-08-29T14:09:23Z</time>
      </trkpt>
      <trkpt lat="43.97145" lon="2.06556">
        <ele>210.470601</ele>
        <time>2026-08-29T14:09:24Z</time>
      </trkpt>
      <trkpt lat="43.97148" lon="2.06556">
        <ele>210.532422</ele>
        <time>2026-08-29T14:09:25Z</time>
      </trkpt>
      <trkpt lat="43.97151" lon="2.06556">
        <ele>210.592266</ele>
        <time>2026-08-29T14:09:26Z</time>
      </trkpt>
      <trkpt lat="43.97154" lon="2.06555">
        <ele>210.654236</ele>
        <time>2026-08-29T14:09:27Z</time>
      </trkpt>
      <trkpt lat="43.97157" lon="2.06555">
        <ele>210.716207</ele>
        <time>2026-08-29T14:09:28Z</time>
      </trkpt>
      <trkpt lat="43.9716" lon="2.06555">
        <ele>210.774676</ele>
        <time>2026-08-29T14:09:29Z</time>
      </trkpt>
      <trkpt lat="43.97163" lon="2.06554">
        <ele>210.833375</ele>
        <time>2026-08-29T14:09:30Z</time>
      </trkpt>
      <trkpt lat="43.97166" lon="2.06554">
        <ele>210.891278</ele>
        <time>2026-08-29T14:09:31Z</time>
      </trkpt>
      <trkpt lat="43.97169" lon="2.06554">
        <ele>210.955093</ele>
        <time>2026-08-29T14:09:32Z</time>
      </trkpt>
      <trkpt lat="43.97172" lon="2.06554">
        <ele>211.013086</ele>
        <time>2026-08-29T14:09:33Z</time>
      </trkpt>
      <trkpt lat="43.97175" lon="2.06554">
        <ele>211.068997</ele>
        <time>2026-08-29T14:09:34Z</time>
      </trkpt>
      <trkpt lat="43.97177" lon="2.06554">
        <ele>211.124854</ele>
        <time>2026-08-29T14:09:35Z</time>
      </trkpt>
      <trkpt lat="43.9718" lon="2.06554">
        <ele>211.180858</ele>
        <time>2026-08-29T14:09:36Z</time>
      </trkpt>
      <trkpt lat="43.97183" lon="2.06554">
        <ele>211.23869</ele>
        <time>2026-08-29T14:09:37Z</time>
      </trkpt>
      <trkpt lat="43.97186" lon="2.06554">
        <ele>211.294528</ele>
        <time>2026-08-29T14:09:38Z</time>
      </trkpt>
      <trkpt lat="43.97189" lon="2.06554">
        <ele>211.348391</ele>
        <time>2026-08-29T14:09:39Z</time>
      </trkpt>
      <trkpt lat="43.97191" lon="2.06553">
        <ele>211.404207</ele>
        <time>2026-08-29T14:09:40Z</time>
      </trkpt>
      <trkpt lat="43.97194" lon="2.06552">
        <ele>211.483246</ele>
        <time>2026-08-29T14:09:41Z</time>
      </trkpt>
      <trkpt lat="43.97196" lon="2.06552">
        <ele>211.569795</ele>
        <time>2026-08-29T14:09:42Z</time>
      </trkpt>
      <trkpt lat="43.97199" lon="2.06552">
        <ele>211.653608</ele>
        <time>2026-08-29T14:09:43Z</time>
      </trkpt>
      <trkpt lat="43.97201" lon="2.06554">
        <ele>211.727147</ele>
        <time>2026-08-29T14:09:44Z</time>
      </trkpt>
      <trkpt lat="43.97203" lon="2.06558">
        <ele>211.809172</ele>
        <time>2026-08-29T14:09:45Z</time>
      </trkpt>
      <trkpt lat="43.97204" lon="2.06561">
        <ele>211.895682</ele>
        <time>2026-08-29T14:09:46Z</time>
      </trkpt>
      <trkpt lat="43.97205" lon="2.06565">
        <ele>211.980571</ele>
        <time>2026-08-29T14:09:47Z</time>
      </trkpt>
      <trkpt lat="43.97205" lon="2.06569">
        <ele>212.066692</ele>
        <time>2026-08-29T14:09:48Z</time>
      </trkpt>
      <trkpt lat="43.97205" lon="2.06573">
        <ele>212.154805</ele>
        <time>2026-08-29T14:09:49Z</time>
      </trkpt>
      <trkpt lat="43.97205" lon="2.06577">
        <ele>212.249733</ele>
        <time>2026-08-29T14:09:50Z</time>
      </trkpt>
      <trkpt lat="43.97205" lon="2.06582">
        <ele>212.342523</ele>
        <time>2026-08-29T14:09:51Z</time>
      </trkpt>
      <trkpt lat="43.97204" lon="2.06586">
        <ele>212.441729</ele>
        <time>2026-08-29T14:09:52Z</time>
      </trkpt>
      <trkpt lat="43.97204" lon="2.06591">
        <ele>212.544998</ele>
        <time>2026-08-29T14:09:53Z</time>
      </trkpt>
      <trkpt lat="43.97204" lon="2.06596">
        <ele>212.643979</ele>
        <time>2026-08-29T14:09:54Z</time>
      </trkpt>
      <trkpt lat="43.97203" lon="2.06601">
        <ele>212.752033</ele>
        <time>2026-08-29T14:09:55Z</time>
      </trkpt>
      <trkpt lat="43.97203" lon="2.06606">
        <ele>212.864357</ele>
        <time>2026-08-29T14:09:56Z</time>
      </trkpt>
      <trkpt lat="43.97203" lon="2.06611">
        <ele>212.979167</ele>
        <time>2026-08-29T14:09:57Z</time>
      </trkpt>
      <trkpt lat="43.97202" lon="2.06616">
        <ele>213.093378</ele>
        <time>2026-08-29T14:09:58Z</time>
      </trkpt>
      <trkpt lat="43.97201" lon="2.06621">
        <ele>213.196466</ele>
        <time>2026-08-29T14:09:59Z</time>
      </trkpt>
      <trkpt lat="43.97201" lon="2.06626">
        <ele>213.302386</ele>
        <time>2026-08-29T14:10:00Z</time>
      </trkpt>
      <trkpt lat="43.972" lon="2.06631">
        <ele>213.407026</ele>
        <time>2026-08-29T14:10:01Z</time>
      </trkpt>
      <trkpt lat="43.972" lon="2.06636">
        <ele>213.519706</ele>
        <time>2026-08-29T14:10:02Z</time>
      </trkpt>
      <trkpt lat="43.97199" lon="2.06641">
        <ele>213.632821</ele>
        <time>2026-08-29T14:10:03Z</time>
      </trkpt>
      <trkpt lat="43.97199" lon="2.06646">
        <ele>213.742523</ele>
        <time>2026-08-29T14:10:04Z</time>
      </trkpt>
      <trkpt lat="43.97198" lon="2.06651">
        <ele>213.846008</ele>
        <time>2026-08-29T14:10:05Z</time>
      </trkpt>
      <trkpt lat="43.97198" lon="2.06656">
        <ele>213.943075</ele>
        <time>2026-08-29T14:10:06Z</time>
      </trkpt>
      <trkpt lat="43.97198" lon="2.0666">
        <ele>214.031137</ele>
        <time>2026-08-29T14:10:07Z</time>
      </trkpt>
      <trkpt lat="43.97198" lon="2.06664">
        <ele>214.112755</ele>
        <time>2026-08-29T14:10:08Z</time>
      </trkpt>
      <trkpt lat="43.97198" lon="2.06667">
        <ele>214.194428</ele>
        <time>2026-08-29T14:10:09Z</time>
      </trkpt>
      <trkpt lat="43.97198" lon="2.06671">
        <ele>214.266861</ele>
        <time>2026-08-29T14:10:10Z</time>
      </trkpt>
      <trkpt lat="43.97197" lon="2.06674">
        <ele>214.346229</ele>
        <time>2026-08-29T14:10:11Z</time>
      </trkpt>
      <trkpt lat="43.97196" lon="2.06678">
        <ele>214.431888</ele>
        <time>2026-08-29T14:10:12Z</time>
      </trkpt>
      <trkpt lat="43.97195" lon="2.06682">
        <ele>214.526012</ele>
        <time>2026-08-29T14:10:13Z</time>
      </trkpt>
      <trkpt lat="43.97195" lon="2.06686">
        <ele>214.614429</ele>
        <time>2026-08-29T14:10:14Z</time>
      </trkpt>
      <trkpt lat="43.97194" lon="2.06691">
        <ele>214.706399</ele>
        <time>2026-08-29T14:10:15Z</time>
      </trkpt>
      <trkpt lat="43.97194" lon="2.06695">
        <ele>214.792778</ele>
        <time>2026-08-29T14:10:16Z</time>
      </trkpt>
      <trkpt lat="43.97193" lon="2.06698">
        <ele>214.868895</ele>
        <time>2026-08-29T14:10:17Z</time>
      </trkpt>
      <trkpt lat="43.97193" lon="2.06702">
        <ele>214.949257</ele>
        <time>2026-08-29T14:10:18Z</time>
      </trkpt>
      <trkpt lat="43.97193" lon="2.06705">
        <ele>215.014789</ele>
        <time>2026-08-29T14:10:19Z</time>
      </trkpt>
      <trkpt lat="43.97192" lon="2.06708">
        <ele>215.082526</ele>
        <time>2026-08-29T14:10:20Z</time>
      </trkpt>
      <trkpt lat="43.97192" lon="2.06711">
        <ele>215.154404</ele>
        <time>2026-08-29T14:10:21Z</time>
      </trkpt>
      <trkpt lat="43.97191" lon="2.06715">
        <ele>215.231956</ele>
        <time>2026-08-29T14:10:22Z</time>
      </trkpt>
      <trkpt lat="43.97191" lon="2.06718">
        <ele>215.305062</ele>
        <time>2026-08-29T14:10:23Z</time>
      </trkpt>
      <trkpt lat="43.9719" lon="2.06721">
        <ele>215.374374</ele>
        <time>2026-08-29T14:10:24Z</time>
      </trkpt>
      <trkpt lat="43.9719" lon="2.06724">
        <ele>215.438039</ele>
        <time>2026-08-29T14:10:25Z</time>
      </trkpt>
      <trkpt lat="43.97189" lon="2.06727">
        <ele>215.504746</ele>
        <time>2026-08-29T14:10:26Z</time>
      </trkpt>
      <trkpt lat="43.97188" lon="2.0673">
        <ele>215.569557</ele>
        <time>2026-08-29T14:10:27Z</time>
      </trkpt>
      <trkpt lat="43.97188" lon="2.06732">
        <ele>215.628322</ele>
        <time>2026-08-29T14:10:28Z</time>
      </trkpt>
      <trkpt lat="43.97186" lon="2.06735">
        <ele>215.698095</ele>
        <time>2026-08-29T14:10:29Z</time>
      </trkpt>
      <trkpt lat="43.97185" lon="2.06737">
        <ele>215.763187</ele>
        <time>2026-08-29T14:10:30Z</time>
      </trkpt>
      <trkpt lat="43.97183" lon="2.06739">
        <ele>215.828278</ele>
        <time>2026-08-29T14:10:31Z</time>
      </trkpt>
      <trkpt lat="43.97182" lon="2.06741">
        <ele>215.887428</ele>
        <time>2026-08-29T14:10:32Z</time>
      </trkpt>
      <trkpt lat="43.9718" lon="2.06744">
        <ele>215.960905</ele>
        <time>2026-08-29T14:10:33Z</time>
      </trkpt>
      <trkpt lat="43.97178" lon="2.06746">
        <ele>216.037033</ele>
        <time>2026-08-29T14:10:34Z</time>
      </trkpt>
      <trkpt lat="43.97177" lon="2.06748">
        <ele>216.104212</ele>
        <time>2026-08-29T14:10:35Z</time>
      </trkpt>
      <trkpt lat="43.97174" lon="2.0675">
        <ele>216.180194</ele>
        <time>2026-08-29T14:10:36Z</time>
      </trkpt>
      <trkpt lat="43.97172" lon="2.06752">
        <ele>216.254983</ele>
        <time>2026-08-29T14:10:37Z</time>
      </trkpt>
      <trkpt lat="43.97171" lon="2.06754">
        <ele>216.320075</ele>
        <time>2026-08-29T14:10:38Z</time>
      </trkpt>
      <trkpt lat="43.97169" lon="2.06756">
        <ele>216.39022</ele>
        <time>2026-08-29T14:10:39Z</time>
      </trkpt>
      <trkpt lat="43.97167" lon="2.06758">
        <ele>216.457055</ele>
        <time>2026-08-29T14:10:40Z</time>
      </trkpt>
      <trkpt lat="43.97165" lon="2.0676">
        <ele>216.530694</ele>
        <time>2026-08-29T14:10:41Z</time>
      </trkpt>
      <trkpt lat="43.97163" lon="2.06762">
        <ele>216.615265</ele>
        <time>2026-08-29T14:10:42Z</time>
      </trkpt>
      <trkpt lat="43.9716" lon="2.06764">
        <ele>216.697432</ele>
        <time>2026-08-29T14:10:43Z</time>
      </trkpt>
      <trkpt lat="43.97158" lon="2.06767">
        <ele>216.730806</ele>
        <time>2026-08-29T14:10:44Z</time>
      </trkpt>
      <trkpt lat="43.97156" lon="2.06769">
        <ele>216.670153</ele>
        <time>2026-08-29T14:10:45Z</time>
      </trkpt>
      <trkpt lat="43.97154" lon="2.06772">
        <ele>216.617627</ele>
        <time>2026-08-29T14:10:46Z</time>
      </trkpt>
      <trkpt lat="43.97152" lon="2.06774">
        <ele>216.567264</ele>
        <time>2026-08-29T14:10:47Z</time>
      </trkpt>
      <trkpt lat="43.97151" lon="2.06777">
        <ele>216.516735</ele>
        <time>2026-08-29T14:10:48Z</time>
      </trkpt>
      <trkpt lat="43.9715" lon="2.06781">
        <ele>216.460513</ele>
        <time>2026-08-29T14:10:49Z</time>
      </trkpt>
      <trkpt lat="43.97148" lon="2.06784">
        <ele>216.400271</ele>
        <time>2026-08-29T14:10:50Z</time>
      </trkpt>
      <trkpt lat="43.97147" lon="2.06788">
        <ele>216.337423</ele>
        <time>2026-08-29T14:10:51Z</time>
      </trkpt>
      <trkpt lat="43.97146" lon="2.06792">
        <ele>216.270115</ele>
        <time>2026-08-29T14:10:52Z</time>
      </trkpt>
      <trkpt lat="43.97144" lon="2.06796">
        <ele>216.201452</ele>
        <time>2026-08-29T14:10:53Z</time>
      </trkpt>
      <trkpt lat="43.97143" lon="2.06801">
        <ele>216.129775</ele>
        <time>2026-08-29T14:10:54Z</time>
      </trkpt>
      <trkpt lat="43.97141" lon="2.06805">
        <ele>216.056254</ele>
        <time>2026-08-29T14:10:55Z</time>
      </trkpt>
      <trkpt lat="43.97139" lon="2.0681">
        <ele>215.976171</ele>
        <time>2026-08-29T14:10:56Z</time>
      </trkpt>
      <trkpt lat="43.97138" lon="2.06815">
        <ele>215.891558</ele>
        <time>2026-08-29T14:10:57Z</time>
      </trkpt>
      <trkpt lat="43.97136" lon="2.06822">
        <ele>215.793881</ele>
        <time>2026-08-29T14:10:58Z</time>
      </trkpt>
      <trkpt lat="43.97135" lon="2.06828">
        <ele>215.691986</ele>
        <time>2026-08-29T14:10:59Z</time>
      </trkpt>
      <trkpt lat="43.97133" lon="2.06836">
        <ele>215.572853</ele>
        <time>2026-08-29T14:11:00Z</time>
      </trkpt>
      <trkpt lat="43.9713" lon="2.06844">
        <ele>215.444101</ele>
        <time>2026-08-29T14:11:01Z</time>
      </trkpt>
      <trkpt lat="43.97127" lon="2.06852">
        <ele>215.309626</ele>
        <time>2026-08-29T14:11:02Z</time>
      </trkpt>
      <trkpt lat="43.97123" lon="2.0686">
        <ele>215.161058</ele>
        <time>2026-08-29T14:11:03Z</time>
      </trkpt>
      <trkpt lat="43.97119" lon="2.0687">
        <ele>214.996714</ele>
        <time>2026-08-29T14:11:04Z</time>
      </trkpt>
      <trkpt lat="43.97114" lon="2.06879">
        <ele>214.826914</ele>
        <time>2026-08-29T14:11:05Z</time>
      </trkpt>
      <trkpt lat="43.97108" lon="2.06888">
        <ele>214.654211</ele>
        <time>2026-08-29T14:11:06Z</time>
      </trkpt>
      <trkpt lat="43.97103" lon="2.06897">
        <ele>214.480169</ele>
        <time>2026-08-29T14:11:07Z</time>
      </trkpt>
      <trkpt lat="43.97097" lon="2.06906">
        <ele>214.3039</ele>
        <time>2026-08-29T14:11:08Z</time>
      </trkpt>
      <trkpt lat="43.97091" lon="2.06914">
        <ele>214.127179</ele>
        <time>2026-08-29T14:11:09Z</time>
      </trkpt>
      <trkpt lat="43.97085" lon="2.06924">
        <ele>213.948661</ele>
        <time>2026-08-29T14:11:10Z</time>
      </trkpt>
      <trkpt lat="43.97079" lon="2.06933">
        <ele>213.770805</ele>
        <time>2026-08-29T14:11:11Z</time>
      </trkpt>
      <trkpt lat="43.97074" lon="2.06941">
        <ele>213.597597</ele>
        <time>2026-08-29T14:11:12Z</time>
      </trkpt>
      <trkpt lat="43.97068" lon="2.06949">
        <ele>213.428962</ele>
        <time>2026-08-29T14:11:13Z</time>
      </trkpt>
      <trkpt lat="43.97062" lon="2.06957">
        <ele>213.258294</ele>
        <time>2026-08-29T14:11:14Z</time>
      </trkpt>
      <trkpt lat="43.97055" lon="2.06964">
        <ele>213.089336</ele>
        <time>2026-08-29T14:11:15Z</time>
      </trkpt>
      <trkpt lat="43.97049" lon="2.06971">
        <ele>212.875904</ele>
        <time>2026-08-29T14:11:16Z</time>
      </trkpt>
      <trkpt lat="43.97043" lon="2.06978">
        <ele>212.663371</ele>
        <time>2026-08-29T14:11:17Z</time>
      </trkpt>
      <trkpt lat="43.97037" lon="2.06985">
        <ele>212.45373</ele>
        <time>2026-08-29T14:11:18Z</time>
      </trkpt>
      <trkpt lat="43.97031" lon="2.06992">
        <ele>212.245372</ele>
        <time>2026-08-29T14:11:19Z</time>
      </trkpt>
      <trkpt lat="43.97025" lon="2.06997">
        <ele>212.04479</ele>
        <time>2026-08-29T14:11:20Z</time>
      </trkpt>
      <trkpt lat="43.9702" lon="2.07003">
        <ele>211.856112</ele>
        <time>2026-08-29T14:11:21Z</time>
      </trkpt>
      <trkpt lat="43.97014" lon="2.07009">
        <ele>211.670793</ele>
        <time>2026-08-29T14:11:22Z</time>
      </trkpt>
      <trkpt lat="43.97009" lon="2.07015">
        <ele>211.485738</ele>
        <time>2026-08-29T14:11:23Z</time>
      </trkpt>
      <trkpt lat="43.97004" lon="2.07021">
        <ele>211.30254</ele>
        <time>2026-08-29T14:11:24Z</time>
      </trkpt>
      <trkpt lat="43.96999" lon="2.07027">
        <ele>211.126053</ele>
        <time>2026-08-29T14:11:25Z</time>
      </trkpt>
      <trkpt lat="43.96994" lon="2.07032">
        <ele>210.95375</ele>
        <time>2026-08-29T14:11:26Z</time>
      </trkpt>
      <trkpt lat="43.96989" lon="2.07038">
        <ele>210.788573</ele>
        <time>2026-08-29T14:11:27Z</time>
      </trkpt>
      <trkpt lat="43.96985" lon="2.07043">
        <ele>210.624625</ele>
        <time>2026-08-29T14:11:28Z</time>
      </trkpt>
      <trkpt lat="43.9698" lon="2.07048">
        <ele>210.462804</ele>
        <time>2026-08-29T14:11:29Z</time>
      </trkpt>
      <trkpt lat="43.96975" lon="2.07053">
        <ele>210.304338</ele>
        <time>2026-08-29T14:11:30Z</time>
      </trkpt>
      <trkpt lat="43.96971" lon="2.07059">
        <ele>210.14001</ele>
        <time>2026-08-29T14:11:31Z</time>
      </trkpt>
      <trkpt lat="43.96966" lon="2.07063">
        <ele>209.977475</ele>
        <time>2026-08-29T14:11:32Z</time>
      </trkpt>
      <trkpt lat="43.96961" lon="2.07068">
        <ele>209.810305</ele>
        <time>2026-08-29T14:11:33Z</time>
      </trkpt>
      <trkpt lat="43.96955" lon="2.07072">
        <ele>209.634465</ele>
        <time>2026-08-29T14:11:34Z</time>
      </trkpt>
      <trkpt lat="43.96949" lon="2.07073">
        <ele>209.463876</ele>
        <time>2026-08-29T14:11:35Z</time>
      </trkpt>
      <trkpt lat="43.96943" lon="2.07074">
        <ele>209.291244</ele>
        <time>2026-08-29T14:11:36Z</time>
      </trkpt>
      <trkpt lat="43.96936" lon="2.07074">
        <ele>209.116589</ele>
        <time>2026-08-29T14:11:37Z</time>
      </trkpt>
      <trkpt lat="43.9693" lon="2.07074">
        <ele>208.938944</ele>
        <time>2026-08-29T14:11:38Z</time>
      </trkpt>
      <trkpt lat="43.96923" lon="2.07073">
        <ele>208.755061</ele>
        <time>2026-08-29T14:11:39Z</time>
      </trkpt>
      <trkpt lat="43.96916" lon="2.07072">
        <ele>208.565945</ele>
        <time>2026-08-29T14:11:40Z</time>
      </trkpt>
      <trkpt lat="43.96909" lon="2.07071">
        <ele>208.371841</ele>
        <time>2026-08-29T14:11:41Z</time>
      </trkpt>
      <trkpt lat="43.96901" lon="2.07072">
        <ele>208.165353</ele>
        <time>2026-08-29T14:11:42Z</time>
      </trkpt>
      <trkpt lat="43.96893" lon="2.07074">
        <ele>208.203016</ele>
        <time>2026-08-29T14:11:43Z</time>
      </trkpt>
      <trkpt lat="43.96885" lon="2.07077">
        <ele>208.241007</ele>
        <time>2026-08-29T14:11:44Z</time>
      </trkpt>
      <trkpt lat="43.96878" lon="2.07083">
        <ele>208.278379</ele>
        <time>2026-08-29T14:11:45Z</time>
      </trkpt>
      <trkpt lat="43.96872" lon="2.0709">
        <ele>208.316232</ele>
        <time>2026-08-29T14:11:46Z</time>
      </trkpt>
      <trkpt lat="43.96866" lon="2.07097">
        <ele>208.353571</ele>
        <time>2026-08-29T14:11:47Z</time>
      </trkpt>
      <trkpt lat="43.9686" lon="2.07103">
        <ele>208.390239</ele>
        <time>2026-08-29T14:11:48Z</time>
      </trkpt>
      <trkpt lat="43.96854" lon="2.07109">
        <ele>208.423449</ele>
        <time>2026-08-29T14:11:49Z</time>
      </trkpt>
      <trkpt lat="43.96848" lon="2.07114">
        <ele>208.453982</ele>
        <time>2026-08-29T14:11:50Z</time>
      </trkpt>
      <trkpt lat="43.96843" lon="2.0712">
        <ele>208.484329</ele>
        <time>2026-08-29T14:11:51Z</time>
      </trkpt>
      <trkpt lat="43.96838" lon="2.07125">
        <ele>208.513531</ele>
        <time>2026-08-29T14:11:52Z</time>
      </trkpt>
      <trkpt lat="43.96833" lon="2.07129">
        <ele>208.540113</ele>
        <time>2026-08-29T14:11:53Z</time>
      </trkpt>
      <trkpt lat="43.96829" lon="2.07133">
        <ele>208.565122</ele>
        <time>2026-08-29T14:11:54Z</time>
      </trkpt>
      <trkpt lat="43.96825" lon="2.07137">
        <ele>208.586705</ele>
        <time>2026-08-29T14:11:55Z</time>
      </trkpt>
      <trkpt lat="43.96822" lon="2.07141">
        <ele>208.607057</ele>
        <time>2026-08-29T14:11:56Z</time>
      </trkpt>
      <trkpt lat="43.96819" lon="2.07145">
        <ele>208.625813</ele>
        <time>2026-08-29T14:11:57Z</time>
      </trkpt>
      <trkpt lat="43.96816" lon="2.07149">
        <ele>208.645605</ele>
        <time>2026-08-29T14:11:58Z</time>
      </trkpt>
      <trkpt lat="43.96812" lon="2.07152">
        <ele>208.663928</ele>
        <time>2026-08-29T14:11:59Z</time>
      </trkpt>
      <trkpt lat="43.96809" lon="2.07156">
        <ele>208.682704</ele>
        <time>2026-08-29T14:12:00Z</time>
      </trkpt>
      <trkpt lat="43.96807" lon="2.0716">
        <ele>208.701292</ele>
        <time>2026-08-29T14:12:01Z</time>
      </trkpt>
      <trkpt lat="43.96804" lon="2.07163">
        <ele>208.717953</ele>
        <time>2026-08-29T14:12:02Z</time>
      </trkpt>
      <trkpt lat="43.96802" lon="2.07167">
        <ele>208.733318</ele>
        <time>2026-08-29T14:12:03Z</time>
      </trkpt>
      <trkpt lat="43.96799" lon="2.0717">
        <ele>208.750376</ele>
        <time>2026-08-29T14:12:04Z</time>
      </trkpt>
      <trkpt lat="43.96796" lon="2.07173">
        <ele>208.766981</ele>
        <time>2026-08-29T14:12:05Z</time>
      </trkpt>
      <trkpt lat="43.96794" lon="2.07176">
        <ele>208.783211</ele>
        <time>2026-08-29T14:12:06Z</time>
      </trkpt>
      <trkpt lat="43.96791" lon="2.07179">
        <ele>208.798563</ele>
        <time>2026-08-29T14:12:07Z</time>
      </trkpt>
      <trkpt lat="43.96789" lon="2.07182">
        <ele>208.813344</ele>
        <time>2026-08-29T14:12:08Z</time>
      </trkpt>
      <trkpt lat="43.96787" lon="2.07185">
        <ele>208.827438</ele>
        <time>2026-08-29T14:12:09Z</time>
      </trkpt>
      <trkpt lat="43.96785" lon="2.07188">
        <ele>208.84076</ele>
        <time>2026-08-29T14:12:10Z</time>
      </trkpt>
      <trkpt lat="43.96783" lon="2.07191">
        <ele>208.854896</ele>
        <time>2026-08-29T14:12:11Z</time>
      </trkpt>
      <trkpt lat="43.96781" lon="2.07195">
        <ele>208.870657</ele>
        <time>2026-08-29T14:12:12Z</time>
      </trkpt>
      <trkpt lat="43.96778" lon="2.07198">
        <ele>208.886022</ele>
        <time>2026-08-29T14:12:13Z</time>
      </trkpt>
      <trkpt lat="43.96776" lon="2.07201">
        <ele>208.90125</ele>
        <time>2026-08-29T14:12:14Z</time>
      </trkpt>
      <trkpt lat="43.96774" lon="2.07204">
        <ele>208.915685</ele>
        <time>2026-08-29T14:12:15Z</time>
      </trkpt>
      <trkpt lat="43.96772" lon="2.07207">
        <ele>208.928893</ele>
        <time>2026-08-29T14:12:16Z</time>
      </trkpt>
      <trkpt lat="43.96769" lon="2.07209">
        <ele>208.942255</ele>
        <time>2026-08-29T14:12:17Z</time>
      </trkpt>
      <trkpt lat="43.96767" lon="2.07211">
        <ele>208.955804</ele>
        <time>2026-08-29T14:12:18Z</time>
      </trkpt>
      <trkpt lat="43.96764" lon="2.07214">
        <ele>208.969547</ele>
        <time>2026-08-29T14:12:19Z</time>
      </trkpt>
      <trkpt lat="43.96762" lon="2.07216">
        <ele>208.983871</ele>
        <time>2026-08-29T14:12:20Z</time>
      </trkpt>
      <trkpt lat="43.96759" lon="2.07218">
        <ele>208.997682</ele>
        <time>2026-08-29T14:12:21Z</time>
      </trkpt>
      <trkpt lat="43.96756" lon="2.0722">
        <ele>209.080695</ele>
        <time>2026-08-29T14:12:22Z</time>
      </trkpt>
      <trkpt lat="43.96754" lon="2.07222">
        <ele>209.185391</ele>
        <time>2026-08-29T14:12:23Z</time>
      </trkpt>
      <trkpt lat="43.96751" lon="2.07224">
        <ele>209.292107</ele>
        <time>2026-08-29T14:12:24Z</time>
      </trkpt>
      <trkpt lat="43.96748" lon="2.07225">
        <ele>209.39786</ele>
        <time>2026-08-29T14:12:25Z</time>
      </trkpt>
      <trkpt lat="43.96745" lon="2.07227">
        <ele>209.496482</ele>
        <time>2026-08-29T14:12:26Z</time>
      </trkpt>
      <trkpt lat="43.96742" lon="2.07228">
        <ele>209.606001</ele>
        <time>2026-08-29T14:12:27Z</time>
      </trkpt>
      <trkpt lat="43.96739" lon="2.0723">
        <ele>209.714797</ele>
        <time>2026-08-29T14:12:28Z</time>
      </trkpt>
      <trkpt lat="43.96736" lon="2.07231">
        <ele>209.822296</ele>
        <time>2026-08-29T14:12:29Z</time>
      </trkpt>
      <trkpt lat="43.96733" lon="2.07232">
        <ele>209.928625</ele>
        <time>2026-08-29T14:12:30Z</time>
      </trkpt>
      <trkpt lat="43.9673" lon="2.07234">
        <ele>210.026324</ele>
        <time>2026-08-29T14:12:31Z</time>
      </trkpt>
      <trkpt lat="43.96727" lon="2.07235">
        <ele>210.127989</ele>
        <time>2026-08-29T14:12:32Z</time>
      </trkpt>
      <trkpt lat="43.96724" lon="2.07236">
        <ele>210.22899</ele>
        <time>2026-08-29T14:12:33Z</time>
      </trkpt>
      <trkpt lat="43.96721" lon="2.07237">
        <ele>210.331625</ele>
        <time>2026-08-29T14:12:34Z</time>
      </trkpt>
      <trkpt lat="43.96718" lon="2.07238">
        <ele>210.434743</ele>
        <time>2026-08-29T14:12:35Z</time>
      </trkpt>
      <trkpt lat="43.96715" lon="2.07238">
        <ele>210.543583</ele>
        <time>2026-08-29T14:12:36Z</time>
      </trkpt>
      <trkpt lat="43.96712" lon="2.07239">
        <ele>210.650508</ele>
        <time>2026-08-29T14:12:37Z</time>
      </trkpt>
      <trkpt lat="43.96709" lon="2.0724">
        <ele>210.760709</ele>
        <time>2026-08-29T14:12:38Z</time>
      </trkpt>
      <trkpt lat="43.96706" lon="2.07241">
        <ele>210.8737</ele>
        <time>2026-08-29T14:12:39Z</time>
      </trkpt>
      <trkpt lat="43.96702" lon="2.07242">
        <ele>210.980626</ele>
        <time>2026-08-29T14:12:40Z</time>
      </trkpt>
      <trkpt lat="43.96699" lon="2.07243">
        <ele>211.085515</ele>
        <time>2026-08-29T14:12:41Z</time>
      </trkpt>
      <trkpt lat="43.96697" lon="2.07245">
        <ele>211.18718</ele>
        <time>2026-08-29T14:12:42Z</time>
      </trkpt>
      <trkpt lat="43.96694" lon="2.07246">
        <ele>211.289562</ele>
        <time>2026-08-29T14:12:43Z</time>
      </trkpt>
      <trkpt lat="43.96691" lon="2.07247">
        <ele>211.379248</ele>
        <time>2026-08-29T14:12:44Z</time>
      </trkpt>
      <trkpt lat="43.96689" lon="2.07249">
        <ele>211.468934</ele>
        <time>2026-08-29T14:12:45Z</time>
      </trkpt>
      <trkpt lat="43.96686" lon="2.0725">
        <ele>211.568123</ele>
        <time>2026-08-29T14:12:46Z</time>
      </trkpt>
      <trkpt lat="43.96683" lon="2.07251">
        <ele>211.658765</ele>
        <time>2026-08-29T14:12:47Z</time>
      </trkpt>
      <trkpt lat="43.96681" lon="2.07252">
        <ele>211.748791</ele>
        <time>2026-08-29T14:12:48Z</time>
      </trkpt>
      <trkpt lat="43.96678" lon="2.07253">
        <ele>211.853037</ele>
        <time>2026-08-29T14:12:49Z</time>
      </trkpt>
      <trkpt lat="43.96675" lon="2.07254">
        <ele>211.950171</ele>
        <time>2026-08-29T14:12:50Z</time>
      </trkpt>
      <trkpt lat="43.96672" lon="2.07255">
        <ele>212.046999</ele>
        <time>2026-08-29T14:12:51Z</time>
      </trkpt>
      <trkpt lat="43.96669" lon="2.07256">
        <ele>212.144133</ele>
        <time>2026-08-29T14:12:52Z</time>
      </trkpt>
      <trkpt lat="43.96667" lon="2.07257">
        <ele>212.239719</ele>
        <time>2026-08-29T14:12:53Z</time>
      </trkpt>
      <trkpt lat="43.96664" lon="2.07258">
        <ele>212.324959</ele>
        <time>2026-08-29T14:12:54Z</time>
      </trkpt>
      <trkpt lat="43.96661" lon="2.07258">
        <ele>212.42152</ele>
        <time>2026-08-29T14:12:55Z</time>
      </trkpt>
      <trkpt lat="43.96658" lon="2.0726">
        <ele>212.525766</ele>
        <time>2026-08-29T14:12:56Z</time>
      </trkpt>
      <trkpt lat="43.96655" lon="2.07261">
        <ele>212.635967</ele>
        <time>2026-08-29T14:12:57Z</time>
      </trkpt>
      <trkpt lat="43.96652" lon="2.07262">
        <ele>212.743934</ele>
        <time>2026-08-29T14:12:58Z</time>
      </trkpt>
      <trkpt lat="43.96649" lon="2.07264">
        <ele>212.853453</ele>
        <time>2026-08-29T14:12:59Z</time>
      </trkpt>
      <trkpt lat="43.96646" lon="2.07265">
        <ele>212.949462</ele>
        <time>2026-08-29T14:13:00Z</time>
      </trkpt>
      <trkpt lat="43.96643" lon="2.07266">
        <ele>213.055046</ele>
        <time>2026-08-29T14:13:01Z</time>
      </trkpt>
      <trkpt lat="43.9664" lon="2.07267">
        <ele>213.159292</ele>
        <time>2026-08-29T14:13:02Z</time>
      </trkpt>
      <trkpt lat="43.96638" lon="2.07268">
        <ele>213.254536</ele>
        <time>2026-08-29T14:13:03Z</time>
      </trkpt>
      <trkpt lat="43.96635" lon="2.0727">
        <ele>213.355538</ele>
        <time>2026-08-29T14:13:04Z</time>
      </trkpt>
      <trkpt lat="43.96632" lon="2.07271">
        <ele>213.451546</ele>
        <time>2026-08-29T14:13:05Z</time>
      </trkpt>
      <trkpt lat="43.96629" lon="2.07272">
        <ele>213.548374</ele>
        <time>2026-08-29T14:13:06Z</time>
      </trkpt>
      <trkpt lat="43.96626" lon="2.07274">
        <ele>213.647563</ele>
        <time>2026-08-29T14:13:07Z</time>
      </trkpt>
      <trkpt lat="43.96624" lon="2.07275">
        <ele>213.746013</ele>
        <time>2026-08-29T14:13:08Z</time>
      </trkpt>
      <trkpt lat="43.96621" lon="2.07276">
        <ele>213.850259</ele>
        <time>2026-08-29T14:13:09Z</time>
      </trkpt>
      <trkpt lat="43.96618" lon="2.07277">
        <ele>213.953378</ele>
        <time>2026-08-29T14:13:10Z</time>
      </trkpt>
      <trkpt lat="43.96615" lon="2.07278">
        <ele>214.051827</ele>
        <time>2026-08-29T14:13:11Z</time>
      </trkpt>
      <trkpt lat="43.96612" lon="2.07279">
        <ele>214.154209</ele>
        <time>2026-08-29T14:13:12Z</time>
      </trkpt>
      <trkpt lat="43.96609" lon="2.0728">
        <ele>214.244235</ele>
        <time>2026-08-29T14:13:13Z</time>
      </trkpt>
      <trkpt lat="43.96607" lon="2.07281">
        <ele>214.334877</ele>
        <time>2026-08-29T14:13:14Z</time>
      </trkpt>
      <trkpt lat="43.96604" lon="2.07282">
        <ele>214.425518</ele>
        <time>2026-08-29T14:13:15Z</time>
      </trkpt>
      <trkpt lat="43.96602" lon="2.07283">
        <ele>214.512288</ele>
        <time>2026-08-29T14:13:16Z</time>
      </trkpt>
      <trkpt lat="43.96599" lon="2.07284">
        <ele>214.59581</ele>
        <time>2026-08-29T14:13:17Z</time>
      </trkpt>
      <trkpt lat="43.96597" lon="2.07285">
        <ele>214.679332</ele>
        <time>2026-08-29T14:13:18Z</time>
      </trkpt>
      <trkpt lat="43.96594" lon="2.07286">
        <ele>214.774576</ele>
        <time>2026-08-29T14:13:19Z</time>
      </trkpt>
      <trkpt lat="43.96591" lon="2.07287">
        <ele>214.870585</ele>
        <time>2026-08-29T14:13:20Z</time>
      </trkpt>
      <trkpt lat="43.96589" lon="2.07288">
        <ele>214.971586</ele>
        <time>2026-08-29T14:13:21Z</time>
      </trkpt>
      <trkpt lat="43.96586" lon="2.07289">
        <ele>215.067236</ele>
        <time>2026-08-29T14:13:22Z</time>
      </trkpt>
      <trkpt lat="43.96583" lon="2.0729">
        <ele>215.185261</ele>
        <time>2026-08-29T14:13:23Z</time>
      </trkpt>
      <trkpt lat="43.96581" lon="2.07291">
        <ele>215.304722</ele>
        <time>2026-08-29T14:13:24Z</time>
      </trkpt>
      <trkpt lat="43.96578" lon="2.07292">
        <ele>215.415131</ele>
        <time>2026-08-29T14:13:25Z</time>
      </trkpt>
      <trkpt lat="43.96576" lon="2.07293">
        <ele>215.523174</ele>
        <time>2026-08-29T14:13:26Z</time>
      </trkpt>
      <trkpt lat="43.96573" lon="2.07294">
        <ele>215.645384</ele>
        <time>2026-08-29T14:13:27Z</time>
      </trkpt>
      <trkpt lat="43.9657" lon="2.07295">
        <ele>215.759937</ele>
        <time>2026-08-29T14:13:28Z</time>
      </trkpt>
      <trkpt lat="43.96568" lon="2.07296">
        <ele>215.876357</ele>
        <time>2026-08-29T14:13:29Z</time>
      </trkpt>
      <trkpt lat="43.96565" lon="2.07298">
        <ele>215.998521</ele>
        <time>2026-08-29T14:13:30Z</time>
      </trkpt>
      <trkpt lat="43.96562" lon="2.07299">
        <ele>216.117982</ele>
        <time>2026-08-29T14:13:31Z</time>
      </trkpt>
      <trkpt lat="43.9656" lon="2.073">
        <ele>216.238272</ele>
        <time>2026-08-29T14:13:32Z</time>
      </trkpt>
      <trkpt lat="43.96557" lon="2.07301">
        <ele>216.361139</ele>
        <time>2026-08-29T14:13:33Z</time>
      </trkpt>
      <trkpt lat="43.96554" lon="2.07301">
        <ele>216.482259</ele>
        <time>2026-08-29T14:13:34Z</time>
      </trkpt>
      <trkpt lat="43.96551" lon="2.07302">
        <ele>216.60719</ele>
        <time>2026-08-29T14:13:35Z</time>
      </trkpt>
      <trkpt lat="43.96549" lon="2.07303">
        <ele>216.720413</ele>
        <time>2026-08-29T14:13:36Z</time>
      </trkpt>
      <trkpt lat="43.96546" lon="2.07303">
        <ele>216.83309</ele>
        <time>2026-08-29T14:13:37Z</time>
      </trkpt>
      <trkpt lat="43.96543" lon="2.07304">
        <ele>216.946313</ele>
        <time>2026-08-29T14:13:38Z</time>
      </trkpt>
      <trkpt lat="43.96541" lon="2.07305">
        <ele>217.060865</ele>
        <time>2026-08-29T14:13:39Z</time>
      </trkpt>
      <trkpt lat="43.96538" lon="2.07306">
        <ele>217.181155</ele>
        <time>2026-08-29T14:13:40Z</time>
      </trkpt>
      <trkpt lat="43.96536" lon="2.07307">
        <ele>217.293266</ele>
        <time>2026-08-29T14:13:41Z</time>
      </trkpt>
      <trkpt lat="43.96533" lon="2.07308">
        <ele>217.405378</ele>
        <time>2026-08-29T14:13:42Z</time>
      </trkpt>
      <trkpt lat="43.96531" lon="2.07309">
        <ele>217.520612</ele>
        <time>2026-08-29T14:13:43Z</time>
      </trkpt>
      <trkpt lat="43.96528" lon="2.0731">
        <ele>217.635165</ele>
        <time>2026-08-29T14:13:44Z</time>
      </trkpt>
      <trkpt lat="43.96525" lon="2.07312">
        <ele>217.756357</ele>
        <time>2026-08-29T14:13:45Z</time>
      </trkpt>
      <trkpt lat="43.96523" lon="2.07312">
        <ele>217.873779</ele>
        <time>2026-08-29T14:13:46Z</time>
      </trkpt>
      <trkpt lat="43.9652" lon="2.07313">
        <ele>217.99023</ele>
        <time>2026-08-29T14:13:47Z</time>
      </trkpt>
      <trkpt lat="43.96517" lon="2.07313">
        <ele>218.106681</ele>
        <time>2026-08-29T14:13:48Z</time>
      </trkpt>
      <trkpt lat="43.96515" lon="2.07314">
        <ele>218.221233</ele>
        <time>2026-08-29T14:13:49Z</time>
      </trkpt>
      <trkpt lat="43.96512" lon="2.07315">
        <ele>218.327509</ele>
        <time>2026-08-29T14:13:50Z</time>
      </trkpt>
      <trkpt lat="43.96509" lon="2.07316">
        <ele>218.446215</ele>
        <time>2026-08-29T14:13:51Z</time>
      </trkpt>
      <trkpt lat="43.96507" lon="2.07317">
        <ele>218.56424</ele>
        <time>2026-08-29T14:13:52Z</time>
      </trkpt>
      <trkpt lat="43.96504" lon="2.07317">
        <ele>218.676074</ele>
        <time>2026-08-29T14:13:53Z</time>
      </trkpt>
      <trkpt lat="43.96502" lon="2.07318">
        <ele>218.784055</ele>
        <time>2026-08-29T14:13:54Z</time>
      </trkpt>
      <trkpt lat="43.96499" lon="2.07318">
        <ele>218.897278</ele>
        <time>2026-08-29T14:13:55Z</time>
      </trkpt>
      <trkpt lat="43.96497" lon="2.07319">
        <ele>219.005259</ele>
        <time>2026-08-29T14:13:56Z</time>
      </trkpt>
      <trkpt lat="43.96494" lon="2.07319">
        <ele>219.109511</ele>
        <time>2026-08-29T14:13:57Z</time>
      </trkpt>
      <trkpt lat="43.96492" lon="2.0732">
        <ele>219.217492</ele>
        <time>2026-08-29T14:13:58Z</time>
      </trkpt>
      <trkpt lat="43.96489" lon="2.0732">
        <ele>219.329326</ele>
        <time>2026-08-29T14:13:59Z</time>
      </trkpt>
      <trkpt lat="43.96487" lon="2.07321">
        <ele>219.437789</ele>
        <time>2026-08-29T14:14:00Z</time>
      </trkpt>
      <trkpt lat="43.96484" lon="2.07322">
        <ele>219.542041</ele>
        <time>2026-08-29T14:14:01Z</time>
      </trkpt>
      <trkpt lat="43.96482" lon="2.07322">
        <ele>219.650022</ele>
        <time>2026-08-29T14:14:02Z</time>
      </trkpt>
      <trkpt lat="43.96479" lon="2.07323">
        <ele>219.762699</ele>
        <time>2026-08-29T14:14:03Z</time>
      </trkpt>
      <trkpt lat="43.96476" lon="2.07323">
        <ele>219.875377</ele>
        <time>2026-08-29T14:14:04Z</time>
      </trkpt>
      <trkpt lat="43.96474" lon="2.07324">
        <ele>219.992799</ele>
        <time>2026-08-29T14:14:05Z</time>
      </trkpt>
      <trkpt lat="43.96471" lon="2.07325">
        <ele>220.110222</ele>
        <time>2026-08-29T14:14:06Z</time>
      </trkpt>
      <trkpt lat="43.96469" lon="2.07326">
        <ele>220.220631</ele>
        <time>2026-08-29T14:14:07Z</time>
      </trkpt>
      <trkpt lat="43.96466" lon="2.07326">
        <ele>220.33104</ele>
        <time>2026-08-29T14:14:08Z</time>
      </trkpt>
      <trkpt lat="43.96464" lon="2.07328">
        <ele>220.437195</ele>
        <time>2026-08-29T14:14:09Z</time>
      </trkpt>
      <trkpt lat="43.96462" lon="2.07329">
        <ele>220.541964</ele>
        <time>2026-08-29T14:14:10Z</time>
      </trkpt>
      <trkpt lat="43.96459" lon="2.07331">
        <ele>220.648119</ele>
        <time>2026-08-29T14:14:11Z</time>
      </trkpt>
      <trkpt lat="43.96457" lon="2.07332">
        <ele>220.743024</ele>
        <time>2026-08-29T14:14:12Z</time>
      </trkpt>
      <trkpt lat="43.96455" lon="2.07333">
        <ele>220.829886</ele>
        <time>2026-08-29T14:14:13Z</time>
      </trkpt>
      <trkpt lat="43.96453" lon="2.07334">
        <ele>220.924284</ele>
        <time>2026-08-29T14:14:14Z</time>
      </trkpt>
      <trkpt lat="43.96451" lon="2.07335">
        <ele>221.041959</ele>
        <time>2026-08-29T14:14:15Z</time>
      </trkpt>
      <trkpt lat="43.96448" lon="2.07337">
        <ele>221.155764</ele>
        <time>2026-08-29T14:14:16Z</time>
      </trkpt>
      <trkpt lat="43.96446" lon="2.07339">
        <ele>221.272184</ele>
        <time>2026-08-29T14:14:17Z</time>
      </trkpt>
      <trkpt lat="43.96443" lon="2.0734">
        <ele>221.383466</ele>
        <time>2026-08-29T14:14:18Z</time>
      </trkpt>
      <trkpt lat="43.96441" lon="2.07341">
        <ele>221.490818</ele>
        <time>2026-08-29T14:14:19Z</time>
      </trkpt>
      <trkpt lat="43.96439" lon="2.07342">
        <ele>221.590777</ele>
        <time>2026-08-29T14:14:20Z</time>
      </trkpt>
      <trkpt lat="43.96437" lon="2.07344">
        <ele>221.682723</ele>
        <time>2026-08-29T14:14:21Z</time>
      </trkpt>
      <trkpt lat="43.96435" lon="2.07345">
        <ele>221.777707</ele>
        <time>2026-08-29T14:14:22Z</time>
      </trkpt>
      <trkpt lat="43.96434" lon="2.07347">
        <ele>221.86382</ele>
        <time>2026-08-29T14:14:23Z</time>
      </trkpt>
      <trkpt lat="43.96432" lon="2.07349">
        <ele>221.934925</ele>
        <time>2026-08-29T14:14:24Z</time>
      </trkpt>
      <trkpt lat="43.96432" lon="2.0735">
        <ele>221.975832</ele>
        <time>2026-08-29T14:14:25Z</time>
      </trkpt>
      <trkpt lat="43.96432" lon="2.07351">
        <ele>221.991218</ele>
        <time>2026-08-29T14:14:26Z</time>
      </trkpt>
      <trkpt lat="43.96432" lon="2.0735">
        <ele>222.022822</ele>
        <time>2026-08-29T14:14:27Z</time>
      </trkpt>
      <trkpt lat="43.96426" lon="2.07351">
        <ele>222.258251</ele>
        <time>2026-08-29T14:14:41Z</time>
      </trkpt>
      <trkpt lat="43.96424" lon="2.07351">
        <ele>222.344636</ele>
        <time>2026-08-29T14:14:42Z</time>
      </trkpt>
      <trkpt lat="43.96422" lon="2.07351">
        <ele>222.430636</ele>
        <time>2026-08-29T14:14:43Z</time>
      </trkpt>
      <trkpt lat="43.9642" lon="2.07352">
        <ele>222.512388</ele>
        <time>2026-08-29T14:14:44Z</time>
      </trkpt>
      <trkpt lat="43.96418" lon="2.07352">
        <ele>222.594139</ele>
        <time>2026-08-29T14:14:45Z</time>
      </trkpt>
      <trkpt lat="43.96416" lon="2.07353">
        <ele>222.677439</ele>
        <time>2026-08-29T14:14:46Z</time>
      </trkpt>
      <trkpt lat="43.96414" lon="2.07353">
        <ele>222.799115</ele>
        <time>2026-08-29T14:14:47Z</time>
      </trkpt>
      <trkpt lat="43.96412" lon="2.07354">
        <ele>222.971938</ele>
        <time>2026-08-29T14:14:48Z</time>
      </trkpt>
      <trkpt lat="43.9641" lon="2.07354">
        <ele>223.159937</ele>
        <time>2026-08-29T14:14:49Z</time>
      </trkpt>
      <trkpt lat="43.96408" lon="2.07354">
        <ele>223.339474</ele>
        <time>2026-08-29T14:14:50Z</time>
      </trkpt>
      <trkpt lat="43.96406" lon="2.07355">
        <ele>223.506646</ele>
        <time>2026-08-29T14:14:51Z</time>
      </trkpt>
      <trkpt lat="43.96405" lon="2.07356">
        <ele>223.661364</ele>
        <time>2026-08-29T14:14:52Z</time>
      </trkpt>
      <trkpt lat="43.96403" lon="2.07357">
        <ele>223.792553</ele>
        <time>2026-08-29T14:14:53Z</time>
      </trkpt>
      <trkpt lat="43.96401" lon="2.07357">
        <ele>223.92986</ele>
        <time>2026-08-29T14:14:54Z</time>
      </trkpt>
      <trkpt lat="43.964" lon="2.07357">
        <ele>224.075599</ele>
        <time>2026-08-29T14:14:55Z</time>
      </trkpt>
      <trkpt lat="43.96398" lon="2.07358">
        <ele>224.216541</ele>
        <time>2026-08-29T14:14:56Z</time>
      </trkpt>
      <trkpt lat="43.96397" lon="2.07359">
        <ele>224.353186</ele>
        <time>2026-08-29T14:14:57Z</time>
      </trkpt>
      <trkpt lat="43.96395" lon="2.07358">
        <ele>224.484375</ele>
        <time>2026-08-29T14:14:58Z</time>
      </trkpt>
      <trkpt lat="43.96393" lon="2.07358">
        <ele>224.629082</ele>
        <time>2026-08-29T14:14:59Z</time>
      </trkpt>
      <trkpt lat="43.96391" lon="2.07358">
        <ele>224.799173</ele>
        <time>2026-08-29T14:15:00Z</time>
      </trkpt>
      <trkpt lat="43.96389" lon="2.07358">
        <ele>224.994778</ele>
        <time>2026-08-29T14:15:01Z</time>
      </trkpt>
      <trkpt lat="43.96387" lon="2.07358">
        <ele>225.165858</ele>
        <time>2026-08-29T14:15:02Z</time>
      </trkpt>
      <trkpt lat="43.96385" lon="2.07358">
        <ele>225.344873</ele>
        <time>2026-08-29T14:15:03Z</time>
      </trkpt>
      <trkpt lat="43.96383" lon="2.07359">
        <ele>225.509332</ele>
        <time>2026-08-29T14:15:04Z</time>
      </trkpt>
      <trkpt lat="43.96381" lon="2.07359">
        <ele>225.655072</ele>
        <time>2026-08-29T14:15:05Z</time>
      </trkpt>
      <trkpt lat="43.9638" lon="2.07359">
        <ele>225.808276</ele>
        <time>2026-08-29T14:15:06Z</time>
      </trkpt>
      <trkpt lat="43.96378" lon="2.07359">
        <ele>225.944486</ele>
        <time>2026-08-29T14:15:07Z</time>
      </trkpt>
      <trkpt lat="43.96376" lon="2.07359">
        <ele>226.089064</ele>
        <time>2026-08-29T14:15:08Z</time>
      </trkpt>
      <trkpt lat="43.96375" lon="2.07359">
        <ele>226.234803</ele>
        <time>2026-08-29T14:15:09Z</time>
      </trkpt>
      <trkpt lat="43.96373" lon="2.07359">
        <ele>226.388007</ele>
        <time>2026-08-29T14:15:10Z</time>
      </trkpt>
      <trkpt lat="43.96371" lon="2.07359">
        <ele>226.542187</ele>
        <time>2026-08-29T14:15:11Z</time>
      </trkpt>
      <trkpt lat="43.96369" lon="2.0736">
        <ele>226.704237</ele>
        <time>2026-08-29T14:15:12Z</time>
      </trkpt>
      <trkpt lat="43.96367" lon="2.0736">
        <ele>226.883774</ele>
        <time>2026-08-29T14:15:13Z</time>
      </trkpt>
      <trkpt lat="43.96365" lon="2.0736">
        <ele>227.037954</ele>
        <time>2026-08-29T14:15:14Z</time>
      </trkpt>
      <trkpt lat="43.96363" lon="2.07361">
        <ele>227.202414</ele>
        <time>2026-08-29T14:15:15Z</time>
      </trkpt>
      <trkpt lat="43.96362" lon="2.07361">
        <ele>227.340672</ele>
        <time>2026-08-29T14:15:16Z</time>
      </trkpt>
      <trkpt lat="43.9636" lon="2.07361">
        <ele>227.502375</ele>
        <time>2026-08-29T14:15:17Z</time>
      </trkpt>
      <trkpt lat="43.96358" lon="2.07361">
        <ele>227.646952</ele>
        <time>2026-08-29T14:15:18Z</time>
      </trkpt>
      <trkpt lat="43.96357" lon="2.07361">
        <ele>227.766644</ele>
        <time>2026-08-29T14:15:19Z</time>
      </trkpt>
      <trkpt lat="43.96355" lon="2.07361">
        <ele>227.902854</ele>
        <time>2026-08-29T14:15:20Z</time>
      </trkpt>
      <trkpt lat="43.96353" lon="2.07361">
        <ele>228.047561</ele>
        <time>2026-08-29T14:15:21Z</time>
      </trkpt>
      <trkpt lat="43.96352" lon="2.0736">
        <ele>228.159635</ele>
        <time>2026-08-29T14:15:22Z</time>
      </trkpt>
      <trkpt lat="43.9635" lon="2.0736">
        <ele>228.30473</ele>
        <time>2026-08-29T14:15:23Z</time>
      </trkpt>
      <trkpt lat="43.96349" lon="2.0736">
        <ele>228.424422</ele>
        <time>2026-08-29T14:15:24Z</time>
      </trkpt>
      <trkpt lat="43.96348" lon="2.0736">
        <ele>228.544894</ele>
        <time>2026-08-29T14:15:25Z</time>
      </trkpt>
      <trkpt lat="43.96346" lon="2.07359">
        <ele>228.6822</ele>
        <time>2026-08-29T14:15:26Z</time>
      </trkpt>
      <trkpt lat="43.96345" lon="2.07359">
        <ele>228.809769</ele>
        <time>2026-08-29T14:15:27Z</time>
      </trkpt>
      <trkpt lat="43.96343" lon="2.07359">
        <ele>228.962973</ele>
        <time>2026-08-29T14:15:28Z</time>
      </trkpt>
      <trkpt lat="43.96341" lon="2.07359">
        <ele>229.118001</ele>
        <time>2026-08-29T14:15:29Z</time>
      </trkpt>
      <trkpt lat="43.96339" lon="2.07359">
        <ele>229.279703</ele>
        <time>2026-08-29T14:15:30Z</time>
      </trkpt>
      <trkpt lat="43.96337" lon="2.07358">
        <ele>229.43713</ele>
        <time>2026-08-29T14:15:31Z</time>
      </trkpt>
      <trkpt lat="43.96336" lon="2.07358">
        <ele>229.564698</ele>
        <time>2026-08-29T14:15:32Z</time>
      </trkpt>
      <trkpt lat="43.96334" lon="2.07358">
        <ele>229.683919</ele>
        <time>2026-08-29T14:15:33Z</time>
      </trkpt>
      <trkpt lat="43.96333" lon="2.07359">
        <ele>229.797116</ele>
        <time>2026-08-29T14:15:34Z</time>
      </trkpt>
      <trkpt lat="43.96332" lon="2.07359">
        <ele>229.934422</ele>
        <time>2026-08-29T14:15:35Z</time>
      </trkpt>
      <trkpt lat="43.9633" lon="2.0736">
        <ele>230.057357</ele>
        <time>2026-08-29T14:15:36Z</time>
      </trkpt>
      <trkpt lat="43.96329" lon="2.0736">
        <ele>230.180292</ele>
        <time>2026-08-29T14:15:37Z</time>
      </trkpt>
      <trkpt lat="43.96327" lon="2.0736">
        <ele>230.299513</ele>
        <time>2026-08-29T14:15:38Z</time>
      </trkpt>
      <trkpt lat="43.96326" lon="2.0736">
        <ele>230.435724</ele>
        <time>2026-08-29T14:15:39Z</time>
      </trkpt>
      <trkpt lat="43.96324" lon="2.0736">
        <ele>230.572346</ele>
        <time>2026-08-29T14:15:40Z</time>
      </trkpt>
      <trkpt lat="43.96323" lon="2.0736">
        <ele>230.708969</ele>
        <time>2026-08-29T14:15:41Z</time>
      </trkpt>
      <trkpt lat="43.96321" lon="2.0736">
        <ele>230.871019</ele>
        <time>2026-08-29T14:15:42Z</time>
      </trkpt>
      <trkpt lat="43.96319" lon="2.0736">
        <ele>230.999173</ele>
        <time>2026-08-29T14:15:43Z</time>
      </trkpt>
      <trkpt lat="43.96318" lon="2.07359">
        <ele>231.118865</ele>
        <time>2026-08-29T14:15:44Z</time>
      </trkpt>
      <trkpt lat="43.96316" lon="2.07359">
        <ele>231.264604</ele>
        <time>2026-08-29T14:15:45Z</time>
      </trkpt>
      <trkpt lat="43.96314" lon="2.07359">
        <ele>231.409311</ele>
        <time>2026-08-29T14:15:46Z</time>
      </trkpt>
      <trkpt lat="43.96313" lon="2.07359">
        <ele>231.546617</ele>
        <time>2026-08-29T14:15:47Z</time>
      </trkpt>
      <trkpt lat="43.96311" lon="2.07359">
        <ele>231.665839</ele>
        <time>2026-08-29T14:15:48Z</time>
      </trkpt>
      <trkpt lat="43.9631" lon="2.0736">
        <ele>231.788773</ele>
        <time>2026-08-29T14:15:49Z</time>
      </trkpt>
      <trkpt lat="43.96309" lon="2.0736">
        <ele>231.911708</ele>
        <time>2026-08-29T14:15:50Z</time>
      </trkpt>
      <trkpt lat="43.96307" lon="2.07361">
        <ele>232.023783</ele>
        <time>2026-08-29T14:15:51Z</time>
      </trkpt>
      <trkpt lat="43.96306" lon="2.07361">
        <ele>232.142355</ele>
        <time>2026-08-29T14:15:52Z</time>
      </trkpt>
      <trkpt lat="43.96305" lon="2.07362">
        <ele>232.268895</ele>
        <time>2026-08-29T14:15:53Z</time>
      </trkpt>
      <trkpt lat="43.96303" lon="2.07363">
        <ele>232.410391</ele>
        <time>2026-08-29T14:15:54Z</time>
      </trkpt>
      <trkpt lat="43.96301" lon="2.07364">
        <ele>232.573085</ele>
        <time>2026-08-29T14:15:55Z</time>
      </trkpt>
      <trkpt lat="43.96299" lon="2.07365">
        <ele>232.730511</ele>
        <time>2026-08-29T14:15:56Z</time>
      </trkpt>
      <trkpt lat="43.96298" lon="2.07366">
        <ele>232.872007</ele>
        <time>2026-08-29T14:15:57Z</time>
      </trkpt>
      <trkpt lat="43.96296" lon="2.07367">
        <ele>233.037039</ele>
        <time>2026-08-29T14:15:58Z</time>
      </trkpt>
      <trkpt lat="43.96295" lon="2.07368">
        <ele>233.184245</ele>
        <time>2026-08-29T14:15:59Z</time>
      </trkpt>
      <trkpt lat="43.96294" lon="2.07369">
        <ele>233.313659</ele>
        <time>2026-08-29T14:16:00Z</time>
      </trkpt>
      <trkpt lat="43.96292" lon="2.07371">
        <ele>233.468394</ele>
        <time>2026-08-29T14:16:01Z</time>
      </trkpt>
      <trkpt lat="43.96291" lon="2.07373">
        <ele>233.60166</ele>
        <time>2026-08-29T14:16:02Z</time>
      </trkpt>
      <trkpt lat="43.9629" lon="2.07374">
        <ele>233.747415</ele>
        <time>2026-08-29T14:16:03Z</time>
      </trkpt>
      <trkpt lat="43.96289" lon="2.07376">
        <ele>233.891133</ele>
        <time>2026-08-29T14:16:04Z</time>
      </trkpt>
      <trkpt lat="43.96287" lon="2.07377">
        <ele>234.023871</ele>
        <time>2026-08-29T14:16:05Z</time>
      </trkpt>
      <trkpt lat="43.96286" lon="2.07379">
        <ele>234.161154</ele>
        <time>2026-08-29T14:16:06Z</time>
      </trkpt>
      <trkpt lat="43.96285" lon="2.0738">
        <ele>234.29442</ele>
        <time>2026-08-29T14:16:07Z</time>
      </trkpt>
      <trkpt lat="43.96284" lon="2.07382">
        <ele>234.43587</ele>
        <time>2026-08-29T14:16:08Z</time>
      </trkpt>
      <trkpt lat="43.96282" lon="2.07383">
        <ele>234.579587</ele>
        <time>2026-08-29T14:16:09Z</time>
      </trkpt>
      <trkpt lat="43.96281" lon="2.07385">
        <ele>234.71503</ele>
        <time>2026-08-29T14:16:10Z</time>
      </trkpt>
      <trkpt lat="43.9628" lon="2.07386">
        <ele>234.86173</ele>
        <time>2026-08-29T14:16:11Z</time>
      </trkpt>
      <trkpt lat="43.96279" lon="2.07387">
        <ele>235.00494</ele>
        <time>2026-08-29T14:16:12Z</time>
      </trkpt>
      <trkpt lat="43.96277" lon="2.07389">
        <ele>235.164327</ele>
        <time>2026-08-29T14:16:13Z</time>
      </trkpt>
      <trkpt lat="43.96276" lon="2.07391">
        <ele>235.318407</ele>
        <time>2026-08-29T14:16:14Z</time>
      </trkpt>
      <trkpt lat="43.96275" lon="2.07394">
        <ele>235.487962</ele>
        <time>2026-08-29T14:16:15Z</time>
      </trkpt>
      <trkpt lat="43.96274" lon="2.07396">
        <ele>235.64695</ele>
        <time>2026-08-29T14:16:16Z</time>
      </trkpt>
      <trkpt lat="43.96272" lon="2.07398">
        <ele>235.822169</ele>
        <time>2026-08-29T14:16:17Z</time>
      </trkpt>
      <trkpt lat="43.96271" lon="2.07399">
        <ele>235.974001</ele>
        <time>2026-08-29T14:16:18Z</time>
      </trkpt>
      <trkpt lat="43.9627" lon="2.07401">
        <ele>236.119757</ele>
        <time>2026-08-29T14:16:19Z</time>
      </trkpt>
      <trkpt lat="43.96269" lon="2.07403">
        <ele>236.26902</ele>
        <time>2026-08-29T14:16:20Z</time>
      </trkpt>
      <trkpt lat="43.96268" lon="2.07405">
        <ele>236.410471</ele>
        <time>2026-08-29T14:16:21Z</time>
      </trkpt>
      <trkpt lat="43.96267" lon="2.07407">
        <ele>236.564551</ele>
        <time>2026-08-29T14:16:22Z</time>
      </trkpt>
      <trkpt lat="43.96265" lon="2.07409">
        <ele>236.723539</ele>
        <time>2026-08-29T14:16:23Z</time>
      </trkpt>
      <trkpt lat="43.96265" lon="2.07411">
        <ele>236.863604</ele>
        <time>2026-08-29T14:16:24Z</time>
      </trkpt>
      <trkpt lat="43.96263" lon="2.07413">
        <ele>237.018339</ele>
        <time>2026-08-29T14:16:25Z</time>
      </trkpt>
      <trkpt lat="43.96262" lon="2.07414">
        <ele>237.162883</ele>
        <time>2026-08-29T14:16:26Z</time>
      </trkpt>
      <trkpt lat="43.96261" lon="2.07416">
        <ele>237.302073</ele>
        <time>2026-08-29T14:16:27Z</time>
      </trkpt>
      <trkpt lat="43.9626" lon="2.07418">
        <ele>237.441264</ele>
        <time>2026-08-29T14:16:28Z</time>
      </trkpt>
      <trkpt lat="43.96259" lon="2.0742">
        <ele>237.576706</ele>
        <time>2026-08-29T14:16:29Z</time>
      </trkpt>
      <trkpt lat="43.96258" lon="2.07421">
        <ele>237.709973</ele>
        <time>2026-08-29T14:16:30Z</time>
      </trkpt>
      <trkpt lat="43.96257" lon="2.07423">
        <ele>237.839687</ele>
        <time>2026-08-29T14:16:31Z</time>
      </trkpt>
      <trkpt lat="43.96256" lon="2.07425">
        <ele>237.993768</ele>
        <time>2026-08-29T14:16:32Z</time>
      </trkpt>
      <trkpt lat="43.96255" lon="2.07427">
        <ele>238.134133</ele>
        <time>2026-08-29T14:16:33Z</time>
      </trkpt>
      <trkpt lat="43.96254" lon="2.07428">
        <ele>238.2701</ele>
        <time>2026-08-29T14:16:34Z</time>
      </trkpt>
      <trkpt lat="43.96253" lon="2.0743">
        <ele>238.380076</ele>
        <time>2026-08-29T14:16:35Z</time>
      </trkpt>
      <trkpt lat="43.96252" lon="2.07431">
        <ele>238.478824</ele>
        <time>2026-08-29T14:16:36Z</time>
      </trkpt>
      <trkpt lat="43.9625" lon="2.07433">
        <ele>238.601784</ele>
        <time>2026-08-29T14:16:37Z</time>
      </trkpt>
      <trkpt lat="43.96249" lon="2.07435">
        <ele>238.728393</ele>
        <time>2026-08-29T14:16:38Z</time>
      </trkpt>
      <trkpt lat="43.96248" lon="2.07437">
        <ele>238.872481</ele>
        <time>2026-08-29T14:16:39Z</time>
      </trkpt>
      <trkpt lat="43.96247" lon="2.07439">
        <ele>238.985995</ele>
        <time>2026-08-29T14:16:40Z</time>
      </trkpt>
      <trkpt lat="43.96246" lon="2.07441">
        <ele>239.138796</ele>
        <time>2026-08-29T14:16:41Z</time>
      </trkpt>
      <trkpt lat="43.96245" lon="2.07443">
        <ele>239.269785</ele>
        <time>2026-08-29T14:16:42Z</time>
      </trkpt>
      <trkpt lat="43.96244" lon="2.07445">
        <ele>239.412053</ele>
        <time>2026-08-29T14:16:43Z</time>
      </trkpt>
      <trkpt lat="43.96244" lon="2.07447">
        <ele>239.520871</ele>
        <time>2026-08-29T14:16:44Z</time>
      </trkpt>
      <trkpt lat="43.96243" lon="2.0745">
        <ele>239.650109</ele>
        <time>2026-08-29T14:16:45Z</time>
      </trkpt>
      <trkpt lat="43.96243" lon="2.07452">
        <ele>239.776657</ele>
        <time>2026-08-29T14:16:46Z</time>
      </trkpt>
      <trkpt lat="43.96242" lon="2.07454">
        <ele>239.912099</ele>
        <time>2026-08-29T14:16:47Z</time>
      </trkpt>
      <trkpt lat="43.96241" lon="2.07456">
        <ele>240.034446</ele>
        <time>2026-08-29T14:16:48Z</time>
      </trkpt>
      <trkpt lat="43.9624" lon="2.07457">
        <ele>240.15874</ele>
        <time>2026-08-29T14:16:49Z</time>
      </trkpt>
      <trkpt lat="43.96238" lon="2.07459">
        <ele>240.308805</ele>
        <time>2026-08-29T14:16:50Z</time>
      </trkpt>
      <trkpt lat="43.96237" lon="2.07461">
        <ele>240.440271</ele>
        <time>2026-08-29T14:16:51Z</time>
      </trkpt>
      <trkpt lat="43.96237" lon="2.07464">
        <ele>240.585838</ele>
        <time>2026-08-29T14:16:52Z</time>
      </trkpt>
      <trkpt lat="43.96236" lon="2.07466">
        <ele>240.728106</ele>
        <time>2026-08-29T14:16:53Z</time>
      </trkpt>
      <trkpt lat="43.96235" lon="2.07469">
        <ele>240.870374</ele>
        <time>2026-08-29T14:16:54Z</time>
      </trkpt>
      <trkpt lat="43.96234" lon="2.07471">
        <ele>240.989354</ele>
        <time>2026-08-29T14:16:55Z</time>
      </trkpt>
      <trkpt lat="43.96234" lon="2.07473">
        <ele>241.110887</ele>
        <time>2026-08-29T14:16:56Z</time>
      </trkpt>
      <trkpt lat="43.96233" lon="2.07475">
        <ele>241.248646</ele>
        <time>2026-08-29T14:16:57Z</time>
      </trkpt>
      <trkpt lat="43.96233" lon="2.07477">
        <ele>241.360251</ele>
        <time>2026-08-29T14:16:58Z</time>
      </trkpt>
      <trkpt lat="43.96232" lon="2.07479">
        <ele>241.478655</ele>
        <time>2026-08-29T14:16:59Z</time>
      </trkpt>
      <trkpt lat="43.96231" lon="2.07481">
        <ele>241.605264</ele>
        <time>2026-08-29T14:17:00Z</time>
      </trkpt>
      <trkpt lat="43.9623" lon="2.07483">
        <ele>241.740656</ele>
        <time>2026-08-29T14:17:01Z</time>
      </trkpt>
      <trkpt lat="43.96229" lon="2.07485">
        <ele>241.897959</ele>
        <time>2026-08-29T14:17:02Z</time>
      </trkpt>
      <trkpt lat="43.96227" lon="2.07488">
        <ele>242.055146</ele>
        <time>2026-08-29T14:17:03Z</time>
      </trkpt>
      <trkpt lat="43.96226" lon="2.0749">
        <ele>242.199683</ele>
        <time>2026-08-29T14:17:04Z</time>
      </trkpt>
      <trkpt lat="43.96226" lon="2.07492">
        <ele>242.341951</ele>
        <time>2026-08-29T14:17:05Z</time>
      </trkpt>
      <trkpt lat="43.96225" lon="2.07495">
        <ele>242.48422</ele>
        <time>2026-08-29T14:17:06Z</time>
      </trkpt>
      <trkpt lat="43.96224" lon="2.07498">
        <ele>242.636218</ele>
        <time>2026-08-29T14:17:07Z</time>
      </trkpt>
      <trkpt lat="43.96224" lon="2.075">
        <ele>242.762767</ele>
        <time>2026-08-29T14:17:08Z</time>
      </trkpt>
      <trkpt lat="43.96223" lon="2.07502">
        <ele>242.884301</ele>
        <time>2026-08-29T14:17:09Z</time>
      </trkpt>
      <trkpt lat="43.96222" lon="2.07504">
        <ele>243.021707</ele>
        <time>2026-08-29T14:17:10Z</time>
      </trkpt>
      <trkpt lat="43.96221" lon="2.07506">
        <ele>243.152697</ele>
        <time>2026-08-29T14:17:11Z</time>
      </trkpt>
      <trkpt lat="43.9622" lon="2.07508">
        <ele>243.280774</ele>
        <time>2026-08-29T14:17:12Z</time>
      </trkpt>
      <trkpt lat="43.96219" lon="2.0751">
        <ele>243.412746</ele>
        <time>2026-08-29T14:17:13Z</time>
      </trkpt>
      <trkpt lat="43.96218" lon="2.07512">
        <ele>243.543905</ele>
        <time>2026-08-29T14:17:14Z</time>
      </trkpt>
      <trkpt lat="43.96217" lon="2.07514">
        <ele>243.673291</ele>
        <time>2026-08-29T14:17:15Z</time>
      </trkpt>
      <trkpt lat="43.96217" lon="2.07516">
        <ele>243.802529</ele>
        <time>2026-08-29T14:17:16Z</time>
      </trkpt>
      <trkpt lat="43.96216" lon="2.07518">
        <ele>243.921508</ele>
        <time>2026-08-29T14:17:17Z</time>
      </trkpt>
      <trkpt lat="43.96215" lon="2.0752">
        <ele>244.048058</ele>
        <time>2026-08-29T14:17:18Z</time>
      </trkpt>
      <trkpt lat="43.96215" lon="2.07522">
        <ele>244.161943</ele>
        <time>2026-08-29T14:17:19Z</time>
      </trkpt>
      <trkpt lat="43.96214" lon="2.07525">
        <ele>244.286041</ele>
        <time>2026-08-29T14:17:20Z</time>
      </trkpt>
      <trkpt lat="43.96214" lon="2.07526">
        <ele>244.384825</ele>
        <time>2026-08-29T14:17:21Z</time>
      </trkpt>
      <trkpt lat="43.96214" lon="2.07528">
        <ele>244.460874</ele>
        <time>2026-08-29T14:17:22Z</time>
      </trkpt>
      <trkpt lat="43.96213" lon="2.07529">
        <ele>244.570127</ele>
        <time>2026-08-29T14:17:23Z</time>
      </trkpt>
      <trkpt lat="43.96212" lon="2.07531">
        <ele>244.705569</ele>
        <time>2026-08-29T14:17:24Z</time>
      </trkpt>
      <trkpt lat="43.96211" lon="2.07534">
        <ele>244.867204</ele>
        <time>2026-08-29T14:17:25Z</time>
      </trkpt>
      <trkpt lat="43.9621" lon="2.07535">
        <ele>244.977181</ele>
        <time>2026-08-29T14:17:26Z</time>
      </trkpt>
      <trkpt lat="43.96208" lon="2.07538">
        <ele>245.12127</ele>
        <time>2026-08-29T14:17:27Z</time>
      </trkpt>
      <trkpt lat="43.96207" lon="2.0754">
        <ele>245.265498</ele>
        <time>2026-08-29T14:17:28Z</time>
      </trkpt>
      <trkpt lat="43.96206" lon="2.07542">
        <ele>245.432446</ele>
        <time>2026-08-29T14:17:29Z</time>
      </trkpt>
      <trkpt lat="43.96204" lon="2.07544">
        <ele>245.585896</ele>
        <time>2026-08-29T14:17:30Z</time>
      </trkpt>
      <trkpt lat="43.96203" lon="2.07545">
        <ele>245.705595</ele>
        <time>2026-08-29T14:17:31Z</time>
      </trkpt>
      <trkpt lat="43.96202" lon="2.07546">
        <ele>245.80794</ele>
        <time>2026-08-29T14:17:32Z</time>
      </trkpt>
      <trkpt lat="43.96201" lon="2.07547">
        <ele>245.891025</ele>
        <time>2026-08-29T14:17:33Z</time>
      </trkpt>
      <trkpt lat="43.962" lon="2.07549">
        <ele>245.995817</ele>
        <time>2026-08-29T14:17:34Z</time>
      </trkpt>
      <trkpt lat="43.96199" lon="2.0755">
        <ele>246.100859</ele>
        <time>2026-08-29T14:17:35Z</time>
      </trkpt>
      <trkpt lat="43.96199" lon="2.07552">
        <ele>246.206208</ele>
        <time>2026-08-29T14:17:36Z</time>
      </trkpt>
      <trkpt lat="43.96198" lon="2.07554">
        <ele>246.316185</ele>
        <time>2026-08-29T14:17:37Z</time>
      </trkpt>
      <trkpt lat="43.96197" lon="2.07555">
        <ele>246.439146</ele>
        <time>2026-08-29T14:17:38Z</time>
      </trkpt>
      <trkpt lat="43.96195" lon="2.07557">
        <ele>246.554331</ele>
        <time>2026-08-29T14:17:39Z</time>
      </trkpt>
      <trkpt lat="43.96194" lon="2.07558">
        <ele>246.677264</ele>
        <time>2026-08-29T14:17:40Z</time>
      </trkpt>
      <trkpt lat="43.96193" lon="2.07559">
        <ele>246.790982</ele>
        <time>2026-08-29T14:17:41Z</time>
      </trkpt>
      <trkpt lat="43.96191" lon="2.07561">
        <ele>246.920334</ele>
        <time>2026-08-29T14:17:42Z</time>
      </trkpt>
      <trkpt lat="43.9619" lon="2.07561">
        <ele>247.019801</ele>
        <time>2026-08-29T14:17:43Z</time>
      </trkpt>
      <trkpt lat="43.9619" lon="2.07562">
        <ele>247.060501</ele>
        <time>2026-08-29T14:17:44Z</time>
      </trkpt>
      <trkpt lat="43.96189" lon="2.07561">
        <ele>247.092271</ele>
        <time>2026-08-29T14:17:45Z</time>
      </trkpt>
      <trkpt lat="43.96189" lon="2.07561">
        <ele>247.092271</ele>
        <time>2026-08-29T14:17:46Z</time>
      </trkpt>
      <trkpt lat="43.96185" lon="2.07571">
        <ele>247.684291</ele>
        <time>2026-08-29T14:18:30Z</time>
      </trkpt>
      <trkpt lat="43.96184" lon="2.07573">
        <ele>247.815282</ele>
        <time>2026-08-29T14:18:31Z</time>
      </trkpt>
      <trkpt lat="43.96183" lon="2.07575">
        <ele>247.977307</ele>
        <time>2026-08-29T14:18:32Z</time>
      </trkpt>
      <trkpt lat="43.96181" lon="2.07577">
        <ele>248.132675</ele>
        <time>2026-08-29T14:18:33Z</time>
      </trkpt>
      <trkpt lat="43.9618" lon="2.07579">
        <ele>248.247861</ele>
        <time>2026-08-29T14:18:34Z</time>
      </trkpt>
      <trkpt lat="43.96179" lon="2.0758">
        <ele>248.364963</ele>
        <time>2026-08-29T14:18:35Z</time>
      </trkpt>
      <trkpt lat="43.96178" lon="2.07582">
        <ele>248.500437</ele>
        <time>2026-08-29T14:18:36Z</time>
      </trkpt>
      <trkpt lat="43.96176" lon="2.07583">
        <ele>248.620632</ele>
        <time>2026-08-29T14:18:37Z</time>
      </trkpt>
      <trkpt lat="43.96175" lon="2.07584">
        <ele>248.732116</ele>
        <time>2026-08-29T14:18:38Z</time>
      </trkpt>
      <trkpt lat="43.96174" lon="2.07586">
        <ele>248.851131</ele>
        <time>2026-08-29T14:18:39Z</time>
      </trkpt>
      <trkpt lat="43.96173" lon="2.07588">
        <ele>249.001197</ele>
        <time>2026-08-29T14:18:40Z</time>
      </trkpt>
      <trkpt lat="43.96171" lon="2.0759">
        <ele>249.149319</ele>
        <time>2026-08-29T14:18:41Z</time>
      </trkpt>
      <trkpt lat="43.9617" lon="2.07591">
        <ele>249.263038</ele>
        <time>2026-08-29T14:18:42Z</time>
      </trkpt>
      <trkpt lat="43.96169" lon="2.07592">
        <ele>249.370476</ele>
        <time>2026-08-29T14:18:43Z</time>
      </trkpt>
      <trkpt lat="43.96168" lon="2.07593">
        <ele>249.471445</ele>
        <time>2026-08-29T14:18:44Z</time>
      </trkpt>
      <trkpt lat="43.96167" lon="2.07594">
        <ele>249.563521</ele>
        <time>2026-08-29T14:18:45Z</time>
      </trkpt>
      <trkpt lat="43.96166" lon="2.07597">
        <ele>249.698964</ele>
        <time>2026-08-29T14:18:46Z</time>
      </trkpt>
      <trkpt lat="43.96165" lon="2.07599">
        <ele>249.834408</ele>
        <time>2026-08-29T14:18:47Z</time>
      </trkpt>
      <trkpt lat="43.96164" lon="2.07601">
        <ele>249.982947</ele>
        <time>2026-08-29T14:18:48Z</time>
      </trkpt>
      <trkpt lat="43.96163" lon="2.07603">
        <ele>250.109557</ele>
        <time>2026-08-29T14:18:49Z</time>
      </trkpt>
      <trkpt lat="43.96161" lon="2.07604">
        <ele>250.238464</ele>
        <time>2026-08-29T14:18:50Z</time>
      </trkpt>
      <trkpt lat="43.9616" lon="2.07605">
        <ele>250.352214</ele>
        <time>2026-08-29T14:18:51Z</time>
      </trkpt>
      <trkpt lat="43.96159" lon="2.07607">
        <ele>250.463698</ele>
        <time>2026-08-29T14:18:52Z</time>
      </trkpt>
      <trkpt lat="43.96158" lon="2.07609">
        <ele>250.599816</ele>
        <time>2026-08-29T14:18:53Z</time>
      </trkpt>
      <trkpt lat="43.96157" lon="2.07611">
        <ele>250.730975</ele>
        <time>2026-08-29T14:18:54Z</time>
      </trkpt>
      <trkpt lat="43.96156" lon="2.07613">
        <ele>250.866944</ele>
        <time>2026-08-29T14:18:55Z</time>
      </trkpt>
      <trkpt lat="43.96155" lon="2.07614">
        <ele>250.98504</ele>
        <time>2026-08-29T14:18:56Z</time>
      </trkpt>
      <trkpt lat="43.96154" lon="2.07616">
        <ele>251.1162</ele>
        <time>2026-08-29T14:18:57Z</time>
      </trkpt>
      <trkpt lat="43.96153" lon="2.07618">
        <ele>251.251593</ele>
        <time>2026-08-29T14:18:58Z</time>
      </trkpt>
      <trkpt lat="43.96151" lon="2.0762">
        <ele>251.386987</ele>
        <time>2026-08-29T14:18:59Z</time>
      </trkpt>
      <trkpt lat="43.9615" lon="2.07622">
        <ele>251.497098</ele>
        <time>2026-08-29T14:19:00Z</time>
      </trkpt>
      <trkpt lat="43.96149" lon="2.07625">
        <ele>251.569811</ele>
        <time>2026-08-29T14:19:01Z</time>
      </trkpt>
      <trkpt lat="43.96148" lon="2.07627">
        <ele>251.636528</ele>
        <time>2026-08-29T14:19:02Z</time>
      </trkpt>
      <trkpt lat="43.96147" lon="2.07629">
        <ele>251.707353</ele>
        <time>2026-08-29T14:19:03Z</time>
      </trkpt>
      <trkpt lat="43.96146" lon="2.07631">
        <ele>251.770006</ele>
        <time>2026-08-29T14:19:04Z</time>
      </trkpt>
      <trkpt lat="43.96144" lon="2.07633">
        <ele>251.830678</ele>
        <time>2026-08-29T14:19:05Z</time>
      </trkpt>
      <trkpt lat="43.96143" lon="2.07635">
        <ele>251.899362</ele>
        <time>2026-08-29T14:19:06Z</time>
      </trkpt>
      <trkpt lat="43.96142" lon="2.07638">
        <ele>251.968364</ele>
        <time>2026-08-29T14:19:07Z</time>
      </trkpt>
      <trkpt lat="43.96141" lon="2.0764">
        <ele>252.039047</ele>
        <time>2026-08-29T14:19:08Z</time>
      </trkpt>
      <trkpt lat="43.9614" lon="2.07642">
        <ele>252.107758</ele>
        <time>2026-08-29T14:19:09Z</time>
      </trkpt>
      <trkpt lat="43.96139" lon="2.07644">
        <ele>252.171205</ele>
        <time>2026-08-29T14:19:10Z</time>
      </trkpt>
      <trkpt lat="43.96138" lon="2.07646">
        <ele>252.231877</ele>
        <time>2026-08-29T14:19:11Z</time>
      </trkpt>
      <trkpt lat="43.96137" lon="2.07648">
        <ele>252.29247</ele>
        <time>2026-08-29T14:19:12Z</time>
      </trkpt>
      <trkpt lat="43.96136" lon="2.0765">
        <ele>252.356032</ele>
        <time>2026-08-29T14:19:13Z</time>
      </trkpt>
      <trkpt lat="43.96135" lon="2.07653">
        <ele>252.429384</ele>
        <time>2026-08-29T14:19:14Z</time>
      </trkpt>
      <trkpt lat="43.96133" lon="2.07655">
        <ele>252.508199</ele>
        <time>2026-08-29T14:19:15Z</time>
      </trkpt>
      <trkpt lat="43.96132" lon="2.07657">
        <ele>252.580961</ele>
        <time>2026-08-29T14:19:16Z</time>
      </trkpt>
      <trkpt lat="43.9613" lon="2.07659">
        <ele>252.65878</ele>
        <time>2026-08-29T14:19:17Z</time>
      </trkpt>
      <trkpt lat="43.96129" lon="2.07661">
        <ele>252.725505</ele>
        <time>2026-08-29T14:19:18Z</time>
      </trkpt>
      <trkpt lat="43.96128" lon="2.07662">
        <ele>252.755802</ele>
        <time>2026-08-29T14:19:19Z</time>
      </trkpt>
      <trkpt lat="43.96128" lon="2.07662">
        <ele>252.773265</ele>
        <time>2026-08-29T14:19:20Z</time>
      </trkpt>
      <trkpt lat="43.96128" lon="2.07662">
        <ele>252.783439</ele>
        <time>2026-08-29T14:19:21Z</time>
      </trkpt>
      <trkpt lat="43.96127" lon="2.07664">
        <ele>252.854122</ele>
        <time>2026-08-29T14:20:57Z</time>
      </trkpt>
      <trkpt lat="43.96125" lon="2.07664">
        <ele>252.913361</ele>
        <time>2026-08-29T14:20:58Z</time>
      </trkpt>
      <trkpt lat="43.96123" lon="2.07662">
        <ele>252.988906</ele>
        <time>2026-08-29T14:20:59Z</time>
      </trkpt>
      <trkpt lat="43.96121" lon="2.0766">
        <ele>253.07131</ele>
        <time>2026-08-29T14:21:00Z</time>
      </trkpt>
      <trkpt lat="43.96119" lon="2.07657">
        <ele>253.169464</ele>
        <time>2026-08-29T14:21:01Z</time>
      </trkpt>
      <trkpt lat="43.96117" lon="2.07654">
        <ele>253.282841</ele>
        <time>2026-08-29T14:21:02Z</time>
      </trkpt>
      <trkpt lat="43.96115" lon="2.0765">
        <ele>253.389876</ele>
        <time>2026-08-29T14:21:03Z</time>
      </trkpt>
      <trkpt lat="43.96113" lon="2.07646">
        <ele>253.515087</ele>
        <time>2026-08-29T14:21:04Z</time>
      </trkpt>
      <trkpt lat="43.96111" lon="2.07643">
        <ele>253.624688</ele>
        <time>2026-08-29T14:21:05Z</time>
      </trkpt>
      <trkpt lat="43.96109" lon="2.0764">
        <ele>253.740787</ele>
        <time>2026-08-29T14:21:06Z</time>
      </trkpt>
      <trkpt lat="43.96106" lon="2.07637">
        <ele>253.850093</ele>
        <time>2026-08-29T14:21:07Z</time>
      </trkpt>
      <trkpt lat="43.96103" lon="2.07635">
        <ele>253.958003</ele>
        <time>2026-08-29T14:21:08Z</time>
      </trkpt>
      <trkpt lat="43.96101" lon="2.07632">
        <ele>254.066341</ele>
        <time>2026-08-29T14:21:09Z</time>
      </trkpt>
      <trkpt lat="43.96099" lon="2.07629">
        <ele>254.1756</ele>
        <time>2026-08-29T14:21:10Z</time>
      </trkpt>
      <trkpt lat="43.96097" lon="2.07626">
        <ele>254.27503</ele>
        <time>2026-08-29T14:21:11Z</time>
      </trkpt>
      <trkpt lat="43.96095" lon="2.07623">
        <ele>254.363015</ele>
        <time>2026-08-29T14:21:12Z</time>
      </trkpt>
      <trkpt lat="43.96094" lon="2.07621">
        <ele>254.44926</ele>
        <time>2026-08-29T14:21:13Z</time>
      </trkpt>
      <trkpt lat="43.96092" lon="2.07618">
        <ele>254.534375</ele>
        <time>2026-08-29T14:21:14Z</time>
      </trkpt>
      <trkpt lat="43.9609" lon="2.07615">
        <ele>254.643435</ele>
        <time>2026-08-29T14:21:15Z</time>
      </trkpt>
      <trkpt lat="43.96087" lon="2.07613">
        <ele>254.741687</ele>
        <time>2026-08-29T14:21:16Z</time>
      </trkpt>
      <trkpt lat="43.96085" lon="2.0761">
        <ele>254.835391</ele>
        <time>2026-08-29T14:21:17Z</time>
      </trkpt>
      <trkpt lat="43.96083" lon="2.07608">
        <ele>254.930992</ele>
        <time>2026-08-29T14:21:18Z</time>
      </trkpt>
      <trkpt lat="43.96081" lon="2.07605">
        <ele>255.029904</ele>
        <time>2026-08-29T14:21:19Z</time>
      </trkpt>
      <trkpt lat="43.96079" lon="2.07602">
        <ele>255.130523</ele>
        <time>2026-08-29T14:21:20Z</time>
      </trkpt>
      <trkpt lat="43.96077" lon="2.076">
        <ele>255.228676</ele>
        <time>2026-08-29T14:21:21Z</time>
      </trkpt>
      <trkpt lat="43.96075" lon="2.07597">
        <ele>255.326252</ele>
        <time>2026-08-29T14:21:22Z</time>
      </trkpt>
      <trkpt lat="43.96073" lon="2.07594">
        <ele>255.413654</ele>
        <time>2026-08-29T14:21:23Z</time>
      </trkpt>
      <trkpt lat="43.96071" lon="2.07592">
        <ele>255.504118</ele>
        <time>2026-08-29T14:21:24Z</time>
      </trkpt>
      <trkpt lat="43.9607" lon="2.07589">
        <ele>255.589694</ele>
        <time>2026-08-29T14:21:25Z</time>
      </trkpt>
      <trkpt lat="43.96068" lon="2.07586">
        <ele>255.678953</ele>
        <time>2026-08-29T14:21:26Z</time>
      </trkpt>
      <trkpt lat="43.96066" lon="2.07584">
        <ele>255.768212</ele>
        <time>2026-08-29T14:21:27Z</time>
      </trkpt>
      <trkpt lat="43.96065" lon="2.07581">
        <ele>255.855234</ele>
        <time>2026-08-29T14:21:28Z</time>
      </trkpt>
      <trkpt lat="43.96063" lon="2.07578">
        <ele>255.942636</ele>
        <time>2026-08-29T14:21:29Z</time>
      </trkpt>
      <trkpt lat="43.96061" lon="2.07576">
        <ele>256.02389</ele>
        <time>2026-08-29T14:21:30Z</time>
      </trkpt>
      <trkpt lat="43.96059" lon="2.07574">
        <ele>256.109393</ele>
        <time>2026-08-29T14:21:31Z</time>
      </trkpt>
      <trkpt lat="43.96058" lon="2.07572">
        <ele>256.194969</ele>
        <time>2026-08-29T14:21:32Z</time>
      </trkpt>
      <trkpt lat="43.96056" lon="2.07569">
        <ele>256.281819</ele>
        <time>2026-08-29T14:21:33Z</time>
      </trkpt>
      <trkpt lat="43.96055" lon="2.07566">
        <ele>256.366935</ele>
        <time>2026-08-29T14:21:34Z</time>
      </trkpt>
      <trkpt lat="43.96053" lon="2.07564">
        <ele>256.45072</ele>
        <time>2026-08-29T14:21:35Z</time>
      </trkpt>
      <trkpt lat="43.96051" lon="2.07561">
        <ele>256.531705</ele>
        <time>2026-08-29T14:21:36Z</time>
      </trkpt>
      <trkpt lat="43.9605" lon="2.07559">
        <ele>256.606444</ele>
        <time>2026-08-29T14:21:37Z</time>
      </trkpt>
      <trkpt lat="43.96048" lon="2.07556">
        <ele>256.689684</ele>
        <time>2026-08-29T14:21:38Z</time>
      </trkpt>
      <trkpt lat="43.96047" lon="2.07554">
        <ele>256.766551</ele>
        <time>2026-08-29T14:21:39Z</time>
      </trkpt>
      <trkpt lat="43.96045" lon="2.07552">
        <ele>256.847949</ele>
        <time>2026-08-29T14:21:40Z</time>
      </trkpt>
      <trkpt lat="43.96044" lon="2.07549">
        <ele>256.935081</ele>
        <time>2026-08-29T14:21:41Z</time>
      </trkpt>
      <trkpt lat="43.96043" lon="2.07546">
        <ele>257.024039</ele>
        <time>2026-08-29T14:21:42Z</time>
      </trkpt>
      <trkpt lat="43.96041" lon="2.07543">
        <ele>257.10695</ele>
        <time>2026-08-29T14:21:43Z</time>
      </trkpt>
      <trkpt lat="43.96039" lon="2.07541">
        <ele>257.194352</ele>
        <time>2026-08-29T14:21:44Z</time>
      </trkpt>
      <trkpt lat="43.96037" lon="2.07538">
        <ele>257.286545</ele>
        <time>2026-08-29T14:21:45Z</time>
      </trkpt>
      <trkpt lat="43.96036" lon="2.07535">
        <ele>257.369785</ele>
        <time>2026-08-29T14:21:46Z</time>
      </trkpt>
      <trkpt lat="43.96035" lon="2.07533">
        <ele>257.444555</ele>
        <time>2026-08-29T14:21:47Z</time>
      </trkpt>
      <trkpt lat="43.96033" lon="2.0753">
        <ele>257.525642</ele>
        <time>2026-08-29T14:21:48Z</time>
      </trkpt>
      <trkpt lat="43.96032" lon="2.07527">
        <ele>257.604601</ele>
        <time>2026-08-29T14:21:49Z</time>
      </trkpt>
      <trkpt lat="43.96031" lon="2.07525">
        <ele>257.687836</ele>
        <time>2026-08-29T14:21:50Z</time>
      </trkpt>
      <trkpt lat="43.96029" lon="2.07521">
        <ele>257.754493</ele>
        <time>2026-08-29T14:21:51Z</time>
      </trkpt>
      <trkpt lat="43.96028" lon="2.07518">
        <ele>257.819978</ele>
        <time>2026-08-29T14:21:52Z</time>
      </trkpt>
      <trkpt lat="43.96027" lon="2.07514">
        <ele>257.879634</ele>
        <time>2026-08-29T14:21:53Z</time>
      </trkpt>
      <trkpt lat="43.96026" lon="2.07511">
        <ele>257.936111</ele>
        <time>2026-08-29T14:21:54Z</time>
      </trkpt>
      <trkpt lat="43.96025" lon="2.07508">
        <ele>257.986652</ele>
        <time>2026-08-29T14:21:55Z</time>
      </trkpt>
      <trkpt lat="43.96024" lon="2.07505">
        <ele>258.041635</ele>
        <time>2026-08-29T14:21:56Z</time>
      </trkpt>
      <trkpt lat="43.96024" lon="2.07501">
        <ele>258.096106</ele>
        <time>2026-08-29T14:21:57Z</time>
      </trkpt>
      <trkpt lat="43.96023" lon="2.07498">
        <ele>258.148085</ele>
        <time>2026-08-29T14:21:58Z</time>
      </trkpt>
      <trkpt lat="43.96023" lon="2.07495">
        <ele>258.197915</ele>
        <time>2026-08-29T14:21:59Z</time>
      </trkpt>
      <trkpt lat="43.96022" lon="2.07492">
        <ele>258.244085</ele>
        <time>2026-08-29T14:22:00Z</time>
      </trkpt>
      <trkpt lat="43.96021" lon="2.07489">
        <ele>258.299143</ele>
        <time>2026-08-29T14:22:01Z</time>
      </trkpt>
      <trkpt lat="43.96021" lon="2.07486">
        <ele>258.351122</ele>
        <time>2026-08-29T14:22:02Z</time>
      </trkpt>
      <trkpt lat="43.96021" lon="2.07483">
        <ele>258.406257</ele>
        <time>2026-08-29T14:22:03Z</time>
      </trkpt>
      <trkpt lat="43.9602" lon="2.07479">
        <ele>258.461077</ele>
        <time>2026-08-29T14:22:04Z</time>
      </trkpt>
      <trkpt lat="43.9602" lon="2.07476">
        <ele>258.513937</ele>
        <time>2026-08-29T14:22:05Z</time>
      </trkpt>
      <trkpt lat="43.9602" lon="2.07473">
        <ele>258.565342</ele>
        <time>2026-08-29T14:22:06Z</time>
      </trkpt>
      <trkpt lat="43.9602" lon="2.07469">
        <ele>258.616747</ele>
        <time>2026-08-29T14:22:07Z</time>
      </trkpt>
      <trkpt lat="43.9602" lon="2.07466">
        <ele>258.666029</ele>
        <time>2026-08-29T14:22:08Z</time>
      </trkpt>
      <trkpt lat="43.9602" lon="2.07463">
        <ele>258.723815</ele>
        <time>2026-08-29T14:22:09Z</time>
      </trkpt>
      <trkpt lat="43.9602" lon="2.07459">
        <ele>258.78943</ele>
        <time>2026-08-29T14:22:10Z</time>
      </trkpt>
      <trkpt lat="43.9602" lon="2.07455">
        <ele>258.85061</ele>
        <time>2026-08-29T14:22:11Z</time>
      </trkpt>
      <trkpt lat="43.96021" lon="2.07451">
        <ele>258.908906</ele>
        <time>2026-08-29T14:22:12Z</time>
      </trkpt>
      <trkpt lat="43.96021" lon="2.07448">
        <ele>258.968045</ele>
        <time>2026-08-29T14:22:13Z</time>
      </trkpt>
      <trkpt lat="43.96021" lon="2.07444">
        <ele>259.027633</ele>
        <time>2026-08-29T14:22:14Z</time>
      </trkpt>
      <trkpt lat="43.96022" lon="2.07441">
        <ele>259.084043</ele>
        <time>2026-08-29T14:22:15Z</time>
      </trkpt>
      <trkpt lat="43.96022" lon="2.07437">
        <ele>259.140233</ele>
        <time>2026-08-29T14:22:16Z</time>
      </trkpt>
      <trkpt lat="43.96022" lon="2.07433">
        <ele>259.201088</ele>
        <time>2026-08-29T14:22:17Z</time>
      </trkpt>
      <trkpt lat="43.96021" lon="2.0743">
        <ele>259.258668</ele>
        <time>2026-08-29T14:22:18Z</time>
      </trkpt>
      <trkpt lat="43.9602" lon="2.07426">
        <ele>259.318325</ele>
        <time>2026-08-29T14:22:19Z</time>
      </trkpt>
      <trkpt lat="43.96018" lon="2.07424">
        <ele>259.383591</ele>
        <time>2026-08-29T14:22:20Z</time>
      </trkpt>
      <trkpt lat="43.96016" lon="2.07423">
        <ele>259.436717</ele>
        <time>2026-08-29T14:22:21Z</time>
      </trkpt>
      <trkpt lat="43.96014" lon="2.07423">
        <ele>259.483516</ele>
        <time>2026-08-29T14:22:22Z</time>
      </trkpt>
      <trkpt lat="43.96013" lon="2.07425">
        <ele>259.520495</ele>
        <time>2026-08-29T14:22:23Z</time>
      </trkpt>
      <trkpt lat="43.96012" lon="2.07427">
        <ele>259.560792</ele>
        <time>2026-08-29T14:22:24Z</time>
      </trkpt>
      <trkpt lat="43.96011" lon="2.07429">
        <ele>259.605526</ele>
        <time>2026-08-29T14:22:25Z</time>
      </trkpt>
      <trkpt lat="43.9601" lon="2.07431">
        <ele>259.646408</ele>
        <time>2026-08-29T14:22:26Z</time>
      </trkpt>
      <trkpt lat="43.96009" lon="2.07434">
        <ele>259.69163</ele>
        <time>2026-08-29T14:22:27Z</time>
      </trkpt>
      <trkpt lat="43.96009" lon="2.07437">
        <ele>259.733478</ele>
        <time>2026-08-29T14:22:28Z</time>
      </trkpt>
      <trkpt lat="43.96009" lon="2.07439">
        <ele>259.767741</ele>
        <time>2026-08-29T14:22:29Z</time>
      </trkpt>
      <trkpt lat="43.96008" lon="2.07441">
        <ele>259.806192</ele>
        <time>2026-08-29T14:22:30Z</time>
      </trkpt>
      <trkpt lat="43.96008" lon="2.07443">
        <ele>259.841681</ele>
        <time>2026-08-29T14:22:31Z</time>
      </trkpt>
      <trkpt lat="43.96007" lon="2.07445">
        <ele>259.874423</ele>
        <time>2026-08-29T14:22:32Z</time>
      </trkpt>
      <trkpt lat="43.96006" lon="2.07446">
        <ele>259.903802</ele>
        <time>2026-08-29T14:22:33Z</time>
      </trkpt>
      <trkpt lat="43.96006" lon="2.07448">
        <ele>259.93903</ele>
        <time>2026-08-29T14:22:34Z</time>
      </trkpt>
      <trkpt lat="43.96004" lon="2.07451">
        <ele>259.985922</ele>
        <time>2026-08-29T14:22:35Z</time>
      </trkpt>
      <trkpt lat="43.96003" lon="2.07453">
        <ele>260.036614</ele>
        <time>2026-08-29T14:22:36Z</time>
      </trkpt>
      <trkpt lat="43.96002" lon="2.07456">
        <ele>260.092473</ele>
        <time>2026-08-29T14:22:37Z</time>
      </trkpt>
      <trkpt lat="43.96" lon="2.07459">
        <ele>260.148332</ele>
        <time>2026-08-29T14:22:38Z</time>
      </trkpt>
      <trkpt lat="43.95998" lon="2.07461">
        <ele>260.20109</ele>
        <time>2026-08-29T14:22:39Z</time>
      </trkpt>
      <trkpt lat="43.95997" lon="2.07463">
        <ele>260.25335</ele>
        <time>2026-08-29T14:22:40Z</time>
      </trkpt>
      <trkpt lat="43.95994" lon="2.07466">
        <ele>260.312804</ele>
        <time>2026-08-29T14:22:41Z</time>
      </trkpt>
      <trkpt lat="43.95992" lon="2.07468">
        <ele>260.374996</ele>
        <time>2026-08-29T14:22:42Z</time>
      </trkpt>
      <trkpt lat="43.9599" lon="2.0747">
        <ele>260.443481</ele>
        <time>2026-08-29T14:22:43Z</time>
      </trkpt>
      <trkpt lat="43.95987" lon="2.07473">
        <ele>260.509227</ele>
        <time>2026-08-29T14:22:44Z</time>
      </trkpt>
      <trkpt lat="43.95985" lon="2.07475">
        <ele>260.574973</ele>
        <time>2026-08-29T14:22:45Z</time>
      </trkpt>
      <trkpt lat="43.95983" lon="2.07478">
        <ele>260.639797</ele>
        <time>2026-08-29T14:22:46Z</time>
      </trkpt>
      <trkpt lat="43.9598" lon="2.0748">
        <ele>260.704726</ele>
        <time>2026-08-29T14:22:47Z</time>
      </trkpt>
      <trkpt lat="43.95978" lon="2.07483">
        <ele>260.776867</ele>
        <time>2026-08-29T14:22:48Z</time>
      </trkpt>
      <trkpt lat="43.95975" lon="2.07486">
        <ele>260.860959</ele>
        <time>2026-08-29T14:22:49Z</time>
      </trkpt>
      <trkpt lat="43.95971" lon="2.07489">
        <ele>260.955043</ele>
        <time>2026-08-29T14:22:50Z</time>
      </trkpt>
      <trkpt lat="43.95967" lon="2.07493">
        <ele>261.061043</ele>
        <time>2026-08-29T14:22:51Z</time>
      </trkpt>
      <trkpt lat="43.95963" lon="2.07497">
        <ele>261.171562</ele>
        <time>2026-08-29T14:22:52Z</time>
      </trkpt>
      <trkpt lat="43.95959" lon="2.07501">
        <ele>261.283878</ele>
        <time>2026-08-29T14:22:53Z</time>
      </trkpt>
      <trkpt lat="43.95955" lon="2.07505">
        <ele>261.392528</ele>
        <time>2026-08-29T14:22:54Z</time>
      </trkpt>
      <trkpt lat="43.95952" lon="2.07509">
        <ele>261.49483</ele>
        <time>2026-08-29T14:22:55Z</time>
      </trkpt>
      <trkpt lat="43.95948" lon="2.07513">
        <ele>261.599829</ele>
        <time>2026-08-29T14:22:56Z</time>
      </trkpt>
      <trkpt lat="43.95944" lon="2.07517">
        <ele>261.680383</ele>
        <time>2026-08-29T14:22:57Z</time>
      </trkpt>
      <trkpt lat="43.9594" lon="2.07521">
        <ele>261.621276</ele>
        <time>2026-08-29T14:22:58Z</time>
      </trkpt>
      <trkpt lat="43.95937" lon="2.07525">
        <ele>261.56172</ele>
        <time>2026-08-29T14:22:59Z</time>
      </trkpt>
      <trkpt lat="43.95933" lon="2.0753">
        <ele>261.500299</ele>
        <time>2026-08-29T14:23:00Z</time>
      </trkpt>
      <trkpt lat="43.9593" lon="2.07535">
        <ele>261.439474</ele>
        <time>2026-08-29T14:23:01Z</time>
      </trkpt>
      <trkpt lat="43.95926" lon="2.07539">
        <ele>261.376385</ele>
        <time>2026-08-29T14:23:02Z</time>
      </trkpt>
      <trkpt lat="43.95921" lon="2.07542">
        <ele>261.314434</ele>
        <time>2026-08-29T14:23:03Z</time>
      </trkpt>
      <trkpt lat="43.95916" lon="2.07543">
        <ele>261.250901</ele>
        <time>2026-08-29T14:23:04Z</time>
      </trkpt>
      <trkpt lat="43.95911" lon="2.07545">
        <ele>261.185402</ele>
        <time>2026-08-29T14:23:05Z</time>
      </trkpt>
      <trkpt lat="43.95906" lon="2.07546">
        <ele>261.120157</ele>
        <time>2026-08-29T14:23:06Z</time>
      </trkpt>
      <trkpt lat="43.95901" lon="2.07547">
        <ele>261.054597</ele>
        <time>2026-08-29T14:23:07Z</time>
      </trkpt>
      <trkpt lat="43.95896" lon="2.07549">
        <ele>260.987924</ele>
        <time>2026-08-29T14:23:08Z</time>
      </trkpt>
      <trkpt lat="43.95891" lon="2.07553">
        <ele>260.91522</ele>
        <time>2026-08-29T14:23:09Z</time>
      </trkpt>
      <trkpt lat="43.95885" lon="2.07558">
        <ele>260.834703</ele>
        <time>2026-08-29T14:23:10Z</time>
      </trkpt>
      <trkpt lat="43.9588" lon="2.07564">
        <ele>260.751618</ele>
        <time>2026-08-29T14:23:11Z</time>
      </trkpt>
      <trkpt lat="43.95874" lon="2.07569">
        <ele>260.665969</ele>
        <time>2026-08-29T14:23:12Z</time>
      </trkpt>
      <trkpt lat="43.95869" lon="2.07574">
        <ele>260.581849</ele>
        <time>2026-08-29T14:23:13Z</time>
      </trkpt>
      <trkpt lat="43.95863" lon="2.07579">
        <ele>260.497993</ele>
        <time>2026-08-29T14:23:14Z</time>
      </trkpt>
      <trkpt lat="43.95857" lon="2.07584">
        <ele>260.414281</ele>
        <time>2026-08-29T14:23:15Z</time>
      </trkpt>
      <trkpt lat="43.95851" lon="2.07589">
        <ele>260.333034</ele>
        <time>2026-08-29T14:23:16Z</time>
      </trkpt>
      <trkpt lat="43.95846" lon="2.07593">
        <ele>260.25203</ele>
        <time>2026-08-29T14:23:17Z</time>
      </trkpt>
      <trkpt lat="43.9584" lon="2.07598">
        <ele>260.170322</ele>
        <time>2026-08-29T14:23:18Z</time>
      </trkpt>
      <trkpt lat="43.95835" lon="2.07602">
        <ele>260.091309</ele>
        <time>2026-08-29T14:23:19Z</time>
      </trkpt>
      <trkpt lat="43.9583" lon="2.07607">
        <ele>260.017922</ele>
        <time>2026-08-29T14:23:20Z</time>
      </trkpt>
      <trkpt lat="43.95825" lon="2.07611">
        <ele>259.948698</ele>
        <time>2026-08-29T14:23:21Z</time>
      </trkpt>
      <trkpt lat="43.95821" lon="2.07613">
        <ele>259.886466</ele>
        <time>2026-08-29T14:23:22Z</time>
      </trkpt>
      <trkpt lat="43.95816" lon="2.07615">
        <ele>259.833281</ele>
        <time>2026-08-29T14:23:23Z</time>
      </trkpt>
      <trkpt lat="43.95813" lon="2.07617">
        <ele>259.782533</ele>
        <time>2026-08-29T14:23:24Z</time>
      </trkpt>
      <trkpt lat="43.95809" lon="2.07619">
        <ele>259.736015</ele>
        <time>2026-08-29T14:23:25Z</time>
      </trkpt>
      <trkpt lat="43.95806" lon="2.07621">
        <ele>259.6937</ele>
        <time>2026-08-29T14:23:26Z</time>
      </trkpt>
      <trkpt lat="43.95803" lon="2.07623">
        <ele>259.651014</ele>
        <time>2026-08-29T14:23:27Z</time>
      </trkpt>
      <trkpt lat="43.958" lon="2.07625">
        <ele>259.607553</ele>
        <time>2026-08-29T14:23:28Z</time>
      </trkpt>
      <trkpt lat="43.95797" lon="2.07627">
        <ele>259.565238</ele>
        <time>2026-08-29T14:23:29Z</time>
      </trkpt>
      <trkpt lat="43.95794" lon="2.07628">
        <ele>259.523938</ele>
        <time>2026-08-29T14:23:30Z</time>
      </trkpt>
      <trkpt lat="43.95791" lon="2.0763">
        <ele>259.485293</ele>
        <time>2026-08-29T14:23:31Z</time>
      </trkpt>
      <trkpt lat="43.95788" lon="2.07632">
        <ele>259.445625</ele>
        <time>2026-08-29T14:23:32Z</time>
      </trkpt>
      <trkpt lat="43.95785" lon="2.07633">
        <ele>259.499174</ele>
        <time>2026-08-29T14:23:33Z</time>
      </trkpt>
      <trkpt lat="43.95783" lon="2.07635">
        <ele>259.563541</ele>
        <time>2026-08-29T14:23:34Z</time>
      </trkpt>
      <trkpt lat="43.9578" lon="2.07637">
        <ele>259.625417</ele>
        <time>2026-08-29T14:23:35Z</time>
      </trkpt>
      <trkpt lat="43.95778" lon="2.07639">
        <ele>259.687852</ele>
        <time>2026-08-29T14:23:36Z</time>
      </trkpt>
      <trkpt lat="43.95775" lon="2.07641">
        <ele>259.751288</ele>
        <time>2026-08-29T14:23:37Z</time>
      </trkpt>
      <trkpt lat="43.95773" lon="2.07643">
        <ele>259.811055</ele>
        <time>2026-08-29T14:23:38Z</time>
      </trkpt>
      <trkpt lat="43.9577" lon="2.07645">
        <ele>259.868857</ele>
        <time>2026-08-29T14:23:39Z</time>
      </trkpt>
      <trkpt lat="43.95768" lon="2.07646">
        <ele>259.920769</ele>
        <time>2026-08-29T14:23:40Z</time>
      </trkpt>
      <trkpt lat="43.95766" lon="2.07647">
        <ele>259.968073</ele>
        <time>2026-08-29T14:23:41Z</time>
      </trkpt>
      <trkpt lat="43.95764" lon="2.07648">
        <ele>260.01478</ele>
        <time>2026-08-29T14:23:42Z</time>
      </trkpt>
      <trkpt lat="43.95762" lon="2.07649">
        <ele>260.0647</ele>
        <time>2026-08-29T14:23:43Z</time>
      </trkpt>
      <trkpt lat="43.9576" lon="2.07651">
        <ele>260.1114</ele>
        <time>2026-08-29T14:23:44Z</time>
      </trkpt>
      <trkpt lat="43.95758" lon="2.07652">
        <ele>260.155517</ele>
        <time>2026-08-29T14:23:45Z</time>
      </trkpt>
      <trkpt lat="43.95756" lon="2.07653">
        <ele>260.203236</ele>
        <time>2026-08-29T14:23:46Z</time>
      </trkpt>
      <trkpt lat="43.95754" lon="2.07653">
        <ele>260.245544</ele>
        <time>2026-08-29T14:23:47Z</time>
      </trkpt>
      <trkpt lat="43.95752" lon="2.07654">
        <ele>260.289669</ele>
        <time>2026-08-29T14:23:48Z</time>
      </trkpt>
      <trkpt lat="43.9575" lon="2.07655">
        <ele>260.33486</ele>
        <time>2026-08-29T14:23:49Z</time>
      </trkpt>
      <trkpt lat="43.95748" lon="2.07655">
        <ele>260.377168</ele>
        <time>2026-08-29T14:23:50Z</time>
      </trkpt>
      <trkpt lat="43.95746" lon="2.07656">
        <ele>260.425849</ele>
        <time>2026-08-29T14:23:51Z</time>
      </trkpt>
      <trkpt lat="43.95744" lon="2.07657">
        <ele>260.474052</ele>
        <time>2026-08-29T14:23:52Z</time>
      </trkpt>
      <trkpt lat="43.95742" lon="2.07657">
        <ele>260.51848</ele>
        <time>2026-08-29T14:23:53Z</time>
      </trkpt>
      <trkpt lat="43.9574" lon="2.07658">
        <ele>260.564505</ele>
        <time>2026-08-29T14:23:54Z</time>
      </trkpt>
      <trkpt lat="43.95738" lon="2.07658">
        <ele>260.611057</ele>
        <time>2026-08-29T14:23:55Z</time>
      </trkpt>
      <trkpt lat="43.95736" lon="2.07659">
        <ele>260.65761</ele>
        <time>2026-08-29T14:23:56Z</time>
      </trkpt>
      <trkpt lat="43.95734" lon="2.0766">
        <ele>260.703764</ele>
        <time>2026-08-29T14:23:57Z</time>
      </trkpt>
      <trkpt lat="43.95732" lon="2.07661">
        <ele>260.747116</ele>
        <time>2026-08-29T14:23:58Z</time>
      </trkpt>
      <trkpt lat="43.9573" lon="2.07663">
        <ele>260.795273</ele>
        <time>2026-08-29T14:23:59Z</time>
      </trkpt>
      <trkpt lat="43.95729" lon="2.07666">
        <ele>260.847284</ele>
        <time>2026-08-29T14:24:00Z</time>
      </trkpt>
      <trkpt lat="43.95727" lon="2.07669">
        <ele>260.913523</ele>
        <time>2026-08-29T14:24:01Z</time>
      </trkpt>
      <trkpt lat="43.95725" lon="2.07672">
        <ele>260.975654</ele>
        <time>2026-08-29T14:24:02Z</time>
      </trkpt>
      <trkpt lat="43.95722" lon="2.07674">
        <ele>261.033614</ele>
        <time>2026-08-29T14:24:03Z</time>
      </trkpt>
      <trkpt lat="43.9572" lon="2.07676">
        <ele>261.089863</ele>
        <time>2026-08-29T14:24:04Z</time>
      </trkpt>
      <trkpt lat="43.95718" lon="2.07677">
        <ele>261.145248</ele>
        <time>2026-08-29T14:24:05Z</time>
      </trkpt>
      <trkpt lat="43.95715" lon="2.07678">
        <ele>261.206378</ele>
        <time>2026-08-29T14:24:06Z</time>
      </trkpt>
      <trkpt lat="43.95713" lon="2.07679">
        <ele>261.260355</ele>
        <time>2026-08-29T14:24:07Z</time>
      </trkpt>
      <trkpt lat="43.9571" lon="2.0768">
        <ele>261.316844</ele>
        <time>2026-08-29T14:24:08Z</time>
      </trkpt>
      <trkpt lat="43.95708" lon="2.07682">
        <ele>261.379421</ele>
        <time>2026-08-29T14:24:09Z</time>
      </trkpt>
      <trkpt lat="43.95705" lon="2.07683">
        <ele>261.441469</ele>
        <time>2026-08-29T14:24:10Z</time>
      </trkpt>
      <trkpt lat="43.95702" lon="2.07684">
        <ele>261.500599</ele>
        <time>2026-08-29T14:24:11Z</time>
      </trkpt>
      <trkpt lat="43.957" lon="2.07686">
        <ele>261.561037</ele>
        <time>2026-08-29T14:24:12Z</time>
      </trkpt>
      <trkpt lat="43.95698" lon="2.07688">
        <ele>261.615562</ele>
        <time>2026-08-29T14:24:13Z</time>
      </trkpt>
      <trkpt lat="43.95696" lon="2.07689">
        <ele>261.664914</ele>
        <time>2026-08-29T14:24:14Z</time>
      </trkpt>
      <trkpt lat="43.95693" lon="2.07691">
        <ele>261.718127</ele>
        <time>2026-08-29T14:24:15Z</time>
      </trkpt>
      <trkpt lat="43.95691" lon="2.07692">
        <ele>261.778108</ele>
        <time>2026-08-29T14:24:16Z</time>
      </trkpt>
      <trkpt lat="43.95688" lon="2.07694">
        <ele>261.840749</ele>
        <time>2026-08-29T14:24:17Z</time>
      </trkpt>
      <trkpt lat="43.95686" lon="2.07697">
        <ele>261.904059</ele>
        <time>2026-08-29T14:24:18Z</time>
      </trkpt>
      <trkpt lat="43.95684" lon="2.07699">
        <ele>261.964829</ele>
        <time>2026-08-29T14:24:19Z</time>
      </trkpt>
      <trkpt lat="43.95681" lon="2.07701">
        <ele>262.03443</ele>
        <time>2026-08-29T14:24:20Z</time>
      </trkpt>
      <trkpt lat="43.95678" lon="2.07703">
        <ele>262.106938</ele>
        <time>2026-08-29T14:24:21Z</time>
      </trkpt>
      <trkpt lat="43.95675" lon="2.07706">
        <ele>262.176539</ele>
        <time>2026-08-29T14:24:22Z</time>
      </trkpt>
      <trkpt lat="43.95673" lon="2.07709">
        <ele>262.250549</ele>
        <time>2026-08-29T14:24:23Z</time>
      </trkpt>
      <trkpt lat="43.95669" lon="2.07711">
        <ele>262.328381</ele>
        <time>2026-08-29T14:24:24Z</time>
      </trkpt>
      <trkpt lat="43.95666" lon="2.07714">
        <ele>262.405998</ele>
        <time>2026-08-29T14:24:25Z</time>
      </trkpt>
      <trkpt lat="43.95664" lon="2.07716">
        <ele>262.478506</ele>
        <time>2026-08-29T14:24:26Z</time>
      </trkpt>
      <trkpt lat="43.95661" lon="2.07718">
        <ele>262.549138</ele>
        <time>2026-08-29T14:24:27Z</time>
      </trkpt>
      <trkpt lat="43.95658" lon="2.07721">
        <ele>262.618986</ele>
        <time>2026-08-29T14:24:28Z</time>
      </trkpt>
      <trkpt lat="43.95655" lon="2.07722">
        <ele>262.690577</ele>
        <time>2026-08-29T14:24:29Z</time>
      </trkpt>
      <trkpt lat="43.95652" lon="2.07724">
        <ele>262.75511</ele>
        <time>2026-08-29T14:24:30Z</time>
      </trkpt>
      <trkpt lat="43.9565" lon="2.07726">
        <ele>262.8189</ele>
        <time>2026-08-29T14:24:31Z</time>
      </trkpt>
      <trkpt lat="43.95647" lon="2.07729">
        <ele>262.890339</ele>
        <time>2026-08-29T14:24:32Z</time>
      </trkpt>
      <trkpt lat="43.95644" lon="2.07731">
        <ele>262.956443</ele>
        <time>2026-08-29T14:24:33Z</time>
      </trkpt>
      <trkpt lat="43.95642" lon="2.07733">
        <ele>263.023372</ele>
        <time>2026-08-29T14:24:34Z</time>
      </trkpt>
      <trkpt lat="43.95639" lon="2.07735">
        <ele>263.087631</ele>
        <time>2026-08-29T14:24:35Z</time>
      </trkpt>
      <trkpt lat="43.95637" lon="2.07737">
        <ele>263.150273</ele>
        <time>2026-08-29T14:24:36Z</time>
      </trkpt>
      <trkpt lat="43.95634" lon="2.07739">
        <ele>263.219242</ele>
        <time>2026-08-29T14:24:37Z</time>
      </trkpt>
      <trkpt lat="43.95631" lon="2.07741">
        <ele>263.284546</ele>
        <time>2026-08-29T14:24:38Z</time>
      </trkpt>
      <trkpt lat="43.95629" lon="2.07744">
        <ele>263.336256</ele>
        <time>2026-08-29T14:24:39Z</time>
      </trkpt>
      <trkpt lat="43.95626" lon="2.07746">
        <ele>263.190891</ele>
        <time>2026-08-29T14:24:40Z</time>
      </trkpt>
      <trkpt lat="43.95623" lon="2.07748">
        <ele>263.034762</ele>
        <time>2026-08-29T14:24:41Z</time>
      </trkpt>
      <trkpt lat="43.9562" lon="2.07751">
        <ele>262.879203</ele>
        <time>2026-08-29T14:24:42Z</time>
      </trkpt>
      <trkpt lat="43.95616" lon="2.07753">
        <ele>262.717688</ele>
        <time>2026-08-29T14:24:43Z</time>
      </trkpt>
      <trkpt lat="43.95613" lon="2.07756">
        <ele>262.557702</ele>
        <time>2026-08-29T14:24:44Z</time>
      </trkpt>
      <trkpt lat="43.9561" lon="2.07758">
        <ele>262.389921</ele>
        <time>2026-08-29T14:24:45Z</time>
      </trkpt>
      <trkpt lat="43.95606" lon="2.07761">
        <ele>262.224558</ele>
        <time>2026-08-29T14:24:46Z</time>
      </trkpt>
      <trkpt lat="43.95603" lon="2.07763">
        <ele>262.061467</ele>
        <time>2026-08-29T14:24:47Z</time>
      </trkpt>
      <trkpt lat="43.956" lon="2.07766">
        <ele>261.903772</ele>
        <time>2026-08-29T14:24:48Z</time>
      </trkpt>
      <trkpt lat="43.95597" lon="2.07768">
        <ele>261.753621</ele>
        <time>2026-08-29T14:24:49Z</time>
      </trkpt>
      <trkpt lat="43.95594" lon="2.0777">
        <ele>261.610516</ele>
        <time>2026-08-29T14:24:50Z</time>
      </trkpt>
      <trkpt lat="43.95592" lon="2.07772">
        <ele>261.480102</ele>
        <time>2026-08-29T14:24:51Z</time>
      </trkpt>
      <trkpt lat="43.95589" lon="2.07774">
        <ele>261.349908</ele>
        <time>2026-08-29T14:24:52Z</time>
      </trkpt>
      <trkpt lat="43.95587" lon="2.07777">
        <ele>261.232261</ele>
        <time>2026-08-29T14:24:53Z</time>
      </trkpt>
      <trkpt lat="43.95586" lon="2.07778">
        <ele>261.152505</ele>
        <time>2026-08-29T14:24:54Z</time>
      </trkpt>
      <trkpt lat="43.95585" lon="2.0778">
        <ele>261.092252</ele>
        <time>2026-08-29T14:24:55Z</time>
      </trkpt>
      <trkpt lat="43.95584" lon="2.0778">
        <ele>261.071638</ele>
        <time>2026-08-29T14:24:56Z</time>
      </trkpt>
      <trkpt lat="43.95585" lon="2.0778">
        <ele>261.067239</ele>
        <time>2026-08-29T14:24:57Z</time>
      </trkpt>
      <trkpt lat="43.95579" lon="2.07781">
        <ele>260.840185</ele>
        <time>2026-08-29T14:25:37Z</time>
      </trkpt>
      <trkpt lat="43.95578" lon="2.07783">
        <ele>260.740103</ele>
        <time>2026-08-29T14:25:38Z</time>
      </trkpt>
      <trkpt lat="43.95576" lon="2.07786">
        <ele>260.63034</ele>
        <time>2026-08-29T14:25:39Z</time>
      </trkpt>
      <trkpt lat="43.95574" lon="2.07789">
        <ele>260.490206</ele>
        <time>2026-08-29T14:25:40Z</time>
      </trkpt>
      <trkpt lat="43.95571" lon="2.07793">
        <ele>260.308321</ele>
        <time>2026-08-29T14:25:41Z</time>
      </trkpt>
      <trkpt lat="43.95567" lon="2.07797">
        <ele>260.083857</ele>
        <time>2026-08-29T14:25:42Z</time>
      </trkpt>
      <trkpt lat="43.95562" lon="2.07802">
        <ele>259.811054</ele>
        <time>2026-08-29T14:25:43Z</time>
      </trkpt>
      <trkpt lat="43.95556" lon="2.07807">
        <ele>259.530852</ele>
        <time>2026-08-29T14:25:44Z</time>
      </trkpt>
      <trkpt lat="43.95551" lon="2.07813">
        <ele>259.214591</ele>
        <time>2026-08-29T14:25:45Z</time>
      </trkpt>
      <trkpt lat="43.95545" lon="2.0782">
        <ele>258.890158</ele>
        <time>2026-08-29T14:25:46Z</time>
      </trkpt>
      <trkpt lat="43.9554" lon="2.07826">
        <ele>258.585665</ele>
        <time>2026-08-29T14:25:47Z</time>
      </trkpt>
      <trkpt lat="43.95534" lon="2.07831">
        <ele>258.294787</ele>
        <time>2026-08-29T14:25:48Z</time>
      </trkpt>
      <trkpt lat="43.95529" lon="2.07837">
        <ele>258.009329</ele>
        <time>2026-08-29T14:25:49Z</time>
      </trkpt>
      <trkpt lat="43.95524" lon="2.07841">
        <ele>257.752693</ele>
        <time>2026-08-29T14:25:50Z</time>
      </trkpt>
      <trkpt lat="43.9552" lon="2.07846">
        <ele>257.503352</ele>
        <time>2026-08-29T14:25:51Z</time>
      </trkpt>
      <trkpt lat="43.95515" lon="2.0785">
        <ele>257.244123</ele>
        <time>2026-08-29T14:25:52Z</time>
      </trkpt>
      <trkpt lat="43.95509" lon="2.07853">
        <ele>256.985952</ele>
        <time>2026-08-29T14:25:53Z</time>
      </trkpt>
      <trkpt lat="43.95504" lon="2.07857">
        <ele>256.73283</ele>
        <time>2026-08-29T14:25:54Z</time>
      </trkpt>
      <trkpt lat="43.95499" lon="2.07861">
        <ele>256.466599</ele>
        <time>2026-08-29T14:25:55Z</time>
      </trkpt>
      <trkpt lat="43.95494" lon="2.07866">
        <ele>256.199717</ele>
        <time>2026-08-29T14:25:56Z</time>
      </trkpt>
      <trkpt lat="43.95488" lon="2.0787">
        <ele>255.915636</ele>
        <time>2026-08-29T14:25:57Z</time>
      </trkpt>
      <trkpt lat="43.95482" lon="2.07875">
        <ele>255.614836</ele>
        <time>2026-08-29T14:25:58Z</time>
      </trkpt>
      <trkpt lat="43.95476" lon="2.07879">
        <ele>255.33478</ele>
        <time>2026-08-29T14:25:59Z</time>
      </trkpt>
      <trkpt lat="43.9547" lon="2.07884">
        <ele>255.081111</ele>
        <time>2026-08-29T14:26:00Z</time>
      </trkpt>
      <trkpt lat="43.95464" lon="2.07889">
        <ele>254.831891</ele>
        <time>2026-08-29T14:26:01Z</time>
      </trkpt>
      <trkpt lat="43.95458" lon="2.07893">
        <ele>254.580099</ele>
        <time>2026-08-29T14:26:02Z</time>
      </trkpt>
      <trkpt lat="43.95452" lon="2.07898">
        <ele>254.328765</ele>
        <time>2026-08-29T14:26:03Z</time>
      </trkpt>
      <trkpt lat="43.95446" lon="2.07903">
        <ele>254.077431</ele>
        <time>2026-08-29T14:26:04Z</time>
      </trkpt>
      <trkpt lat="43.9544" lon="2.07908">
        <ele>253.826097</ele>
        <time>2026-08-29T14:26:05Z</time>
      </trkpt>
      <trkpt lat="43.95435" lon="2.07913">
        <ele>253.588165</ele>
        <time>2026-08-29T14:26:06Z</time>
      </trkpt>
      <trkpt lat="43.95429" lon="2.07917">
        <ele>253.359171</ele>
        <time>2026-08-29T14:26:07Z</time>
      </trkpt>
      <trkpt lat="43.95424" lon="2.0792">
        <ele>253.134604</ele>
        <time>2026-08-29T14:26:08Z</time>
      </trkpt>
      <trkpt lat="43.95418" lon="2.07923">
        <ele>252.909508</ele>
        <time>2026-08-29T14:26:09Z</time>
      </trkpt>
      <trkpt lat="43.95412" lon="2.07926">
        <ele>252.685191</ele>
        <time>2026-08-29T14:26:10Z</time>
      </trkpt>
      <trkpt lat="43.95406" lon="2.07928">
        <ele>252.469338</ele>
        <time>2026-08-29T14:26:11Z</time>
      </trkpt>
      <trkpt lat="43.954" lon="2.0793">
        <ele>252.250695</ele>
        <time>2026-08-29T14:26:12Z</time>
      </trkpt>
      <trkpt lat="43.95395" lon="2.07932">
        <ele>252.041667</ele>
        <time>2026-08-29T14:26:13Z</time>
      </trkpt>
      <trkpt lat="43.95389" lon="2.07933">
        <ele>251.834747</ele>
        <time>2026-08-29T14:26:14Z</time>
      </trkpt>
      <trkpt lat="43.95384" lon="2.07935">
        <ele>251.63751</ele>
        <time>2026-08-29T14:26:15Z</time>
      </trkpt>
      <trkpt lat="43.95379" lon="2.07936">
        <ele>251.452025</ele>
        <time>2026-08-29T14:26:16Z</time>
      </trkpt>
      <trkpt lat="43.95374" lon="2.07937">
        <ele>251.278243</ele>
        <time>2026-08-29T14:26:17Z</time>
      </trkpt>
      <trkpt lat="43.95369" lon="2.07938">
        <ele>251.098138</ele>
        <time>2026-08-29T14:26:18Z</time>
      </trkpt>
      <trkpt lat="43.95364" lon="2.0794">
        <ele>250.921224</ele>
        <time>2026-08-29T14:26:19Z</time>
      </trkpt>
      <trkpt lat="43.9536" lon="2.07941">
        <ele>250.76985</ele>
        <time>2026-08-29T14:26:20Z</time>
      </trkpt>
      <trkpt lat="43.95356" lon="2.07942">
        <ele>250.604517</ele>
        <time>2026-08-29T14:26:21Z</time>
      </trkpt>
      <trkpt lat="43.95352" lon="2.07943">
        <ele>250.44909</ele>
        <time>2026-08-29T14:26:22Z</time>
      </trkpt>
      <trkpt lat="43.95347" lon="2.07944">
        <ele>250.289594</ele>
        <time>2026-08-29T14:26:23Z</time>
      </trkpt>
      <trkpt lat="43.95343" lon="2.07946">
        <ele>250.13541</ele>
        <time>2026-08-29T14:26:24Z</time>
      </trkpt>
      <trkpt lat="43.95339" lon="2.07947">
        <ele>249.968263</ele>
        <time>2026-08-29T14:26:25Z</time>
      </trkpt>
      <trkpt lat="43.95334" lon="2.07949">
        <ele>249.801459</ele>
        <time>2026-08-29T14:26:26Z</time>
      </trkpt>
      <trkpt lat="43.9533" lon="2.07952">
        <ele>249.636453</ele>
        <time>2026-08-29T14:26:27Z</time>
      </trkpt>
      <trkpt lat="43.95326" lon="2.07954">
        <ele>249.470285</ele>
        <time>2026-08-29T14:26:28Z</time>
      </trkpt>
      <trkpt lat="43.95322" lon="2.07956">
        <ele>249.308823</ele>
        <time>2026-08-29T14:26:29Z</time>
      </trkpt>
      <trkpt lat="43.95318" lon="2.07958">
        <ele>249.151391</ele>
        <time>2026-08-29T14:26:30Z</time>
      </trkpt>
      <trkpt lat="43.95314" lon="2.07961">
        <ele>248.994076</ele>
        <time>2026-08-29T14:26:31Z</time>
      </trkpt>
      <trkpt lat="43.9531" lon="2.07963">
        <ele>248.873618</ele>
        <time>2026-08-29T14:26:32Z</time>
      </trkpt>
      <trkpt lat="43.95306" lon="2.07966">
        <ele>248.814449</ele>
        <time>2026-08-29T14:26:33Z</time>
      </trkpt>
      <trkpt lat="43.95302" lon="2.07968">
        <ele>248.757294</ele>
        <time>2026-08-29T14:26:34Z</time>
      </trkpt>
      <trkpt lat="43.95298" lon="2.0797">
        <ele>248.701379</ele>
        <time>2026-08-29T14:26:35Z</time>
      </trkpt>
      <trkpt lat="43.95295" lon="2.07973">
        <ele>248.648725</ele>
        <time>2026-08-29T14:26:36Z</time>
      </trkpt>
      <trkpt lat="43.95291" lon="2.07975">
        <ele>248.594044</ele>
        <time>2026-08-29T14:26:37Z</time>
      </trkpt>
      <trkpt lat="43.95287" lon="2.07977">
        <ele>248.537261</ele>
        <time>2026-08-29T14:26:38Z</time>
      </trkpt>
      <trkpt lat="43.95283" lon="2.0798">
        <ele>248.481727</ele>
        <time>2026-08-29T14:26:39Z</time>
      </trkpt>
      <trkpt lat="43.9528" lon="2.07982">
        <ele>248.425416</ele>
        <time>2026-08-29T14:26:40Z</time>
      </trkpt>
      <trkpt lat="43.95276" lon="2.07984">
        <ele>248.371124</ele>
        <time>2026-08-29T14:26:41Z</time>
      </trkpt>
      <trkpt lat="43.95272" lon="2.07986">
        <ele>248.320071</ele>
        <time>2026-08-29T14:26:42Z</time>
      </trkpt>
      <trkpt lat="43.95269" lon="2.07988">
        <ele>248.26938</ele>
        <time>2026-08-29T14:26:43Z</time>
      </trkpt>
      <trkpt lat="43.95265" lon="2.07991">
        <ele>248.215087</ele>
        <time>2026-08-29T14:26:44Z</time>
      </trkpt>
      <trkpt lat="43.95262" lon="2.07993">
        <ele>248.162856</ele>
        <time>2026-08-29T14:26:45Z</time>
      </trkpt>
      <trkpt lat="43.95258" lon="2.07995">
        <ele>248.110203</ele>
        <time>2026-08-29T14:26:46Z</time>
      </trkpt>
      <trkpt lat="43.95255" lon="2.07997">
        <ele>248.05838</ele>
        <time>2026-08-29T14:26:47Z</time>
      </trkpt>
      <trkpt lat="43.95252" lon="2.08">
        <ele>248.009415</ele>
        <time>2026-08-29T14:26:48Z</time>
      </trkpt>
      <trkpt lat="43.95249" lon="2.08001">
        <ele>247.969426</ele>
        <time>2026-08-29T14:26:49Z</time>
      </trkpt>
      <trkpt lat="43.95246" lon="2.08003">
        <ele>247.927389</ele>
        <time>2026-08-29T14:26:50Z</time>
      </trkpt>
      <trkpt lat="43.95243" lon="2.08005">
        <ele>247.88656</ele>
        <time>2026-08-29T14:26:51Z</time>
      </trkpt>
      <trkpt lat="43.95241" lon="2.08007">
        <ele>247.845338</ele>
        <time>2026-08-29T14:26:52Z</time>
      </trkpt>
      <trkpt lat="43.95238" lon="2.08009">
        <ele>247.802413</ele>
        <time>2026-08-29T14:26:53Z</time>
      </trkpt>
      <trkpt lat="43.95235" lon="2.08011">
        <ele>247.763002</ele>
        <time>2026-08-29T14:26:54Z</time>
      </trkpt>
      <trkpt lat="43.95232" lon="2.08013">
        <ele>247.718043</ele>
        <time>2026-08-29T14:26:55Z</time>
      </trkpt>
      <trkpt lat="43.95229" lon="2.08014">
        <ele>247.67396</ele>
        <time>2026-08-29T14:26:56Z</time>
      </trkpt>
      <trkpt lat="43.95226" lon="2.08016">
        <ele>247.628252</ele>
        <time>2026-08-29T14:26:57Z</time>
      </trkpt>
      <trkpt lat="43.95223" lon="2.08018">
        <ele>247.582928</ele>
        <time>2026-08-29T14:26:58Z</time>
      </trkpt>
      <trkpt lat="43.9522" lon="2.0802">
        <ele>247.54008</ele>
        <time>2026-08-29T14:26:59Z</time>
      </trkpt>
      <trkpt lat="43.95217" lon="2.08022">
        <ele>247.497619</ele>
        <time>2026-08-29T14:27:00Z</time>
      </trkpt>
      <trkpt lat="43.95214" lon="2.08023">
        <ele>247.456204</ele>
        <time>2026-08-29T14:27:01Z</time>
      </trkpt>
      <trkpt lat="43.95211" lon="2.08025">
        <ele>247.412854</ele>
        <time>2026-08-29T14:27:02Z</time>
      </trkpt>
      <trkpt lat="43.95208" lon="2.08026">
        <ele>247.366638</ele>
        <time>2026-08-29T14:27:03Z</time>
      </trkpt>
      <trkpt lat="43.95205" lon="2.08028">
        <ele>247.31845</ele>
        <time>2026-08-29T14:27:04Z</time>
      </trkpt>
      <trkpt lat="43.95201" lon="2.0803">
        <ele>247.268433</ele>
        <time>2026-08-29T14:27:05Z</time>
      </trkpt>
      <trkpt lat="43.95198" lon="2.08032">
        <ele>247.220954</ele>
        <time>2026-08-29T14:27:06Z</time>
      </trkpt>
      <trkpt lat="43.95195" lon="2.08034">
        <ele>247.173619</ele>
        <time>2026-08-29T14:27:07Z</time>
      </trkpt>
      <trkpt lat="43.95192" lon="2.08037">
        <ele>247.124842</ele>
        <time>2026-08-29T14:27:08Z</time>
      </trkpt>
      <trkpt lat="43.95189" lon="2.08039">
        <ele>247.076967</ele>
        <time>2026-08-29T14:27:09Z</time>
      </trkpt>
      <trkpt lat="43.95186" lon="2.08041">
        <ele>247.031205</ele>
        <time>2026-08-29T14:27:10Z</time>
      </trkpt>
      <trkpt lat="43.95183" lon="2.08044">
        <ele>246.982428</ele>
        <time>2026-08-29T14:27:11Z</time>
      </trkpt>
      <trkpt lat="43.9518" lon="2.08047">
        <ele>246.936387</ele>
        <time>2026-08-29T14:27:12Z</time>
      </trkpt>
      <trkpt lat="43.95177" lon="2.0805">
        <ele>246.888086</ele>
        <time>2026-08-29T14:27:13Z</time>
      </trkpt>
      <trkpt lat="43.95174" lon="2.08054">
        <ele>246.835856</ele>
        <time>2026-08-29T14:27:14Z</time>
      </trkpt>
      <trkpt lat="43.95171" lon="2.08057">
        <ele>246.783228</ele>
        <time>2026-08-29T14:27:15Z</time>
      </trkpt>
      <trkpt lat="43.95168" lon="2.0806">
        <ele>246.730542</ele>
        <time>2026-08-29T14:27:16Z</time>
      </trkpt>
      <trkpt lat="43.95165" lon="2.08064">
        <ele>246.672871</ele>
        <time>2026-08-29T14:27:17Z</time>
      </trkpt>
      <trkpt lat="43.95161" lon="2.08067">
        <ele>246.614607</ele>
        <time>2026-08-29T14:27:18Z</time>
      </trkpt>
      <trkpt lat="43.95158" lon="2.08071">
        <ele>246.558093</ele>
        <time>2026-08-29T14:27:19Z</time>
      </trkpt>
      <trkpt lat="43.95155" lon="2.08074">
        <ele>246.500884</ele>
        <time>2026-08-29T14:27:20Z</time>
      </trkpt>
      <trkpt lat="43.95152" lon="2.08078">
        <ele>246.32568</ele>
        <time>2026-08-29T14:27:21Z</time>
      </trkpt>
      <trkpt lat="43.95149" lon="2.08082">
        <ele>245.932363</ele>
        <time>2026-08-29T14:27:22Z</time>
      </trkpt>
      <trkpt lat="43.95146" lon="2.08085">
        <ele>245.55611</ele>
        <time>2026-08-29T14:27:23Z</time>
      </trkpt>
      <trkpt lat="43.95143" lon="2.08089">
        <ele>245.187222</ele>
        <time>2026-08-29T14:27:24Z</time>
      </trkpt>
      <trkpt lat="43.95141" lon="2.08092">
        <ele>244.832677</ele>
        <time>2026-08-29T14:27:25Z</time>
      </trkpt>
      <trkpt lat="43.95138" lon="2.08095">
        <ele>244.480885</ele>
        <time>2026-08-29T14:27:26Z</time>
      </trkpt>
      <trkpt lat="43.95135" lon="2.08099">
        <ele>244.11094</ele>
        <time>2026-08-29T14:27:27Z</time>
      </trkpt>
      <trkpt lat="43.95132" lon="2.08102">
        <ele>243.741707</ele>
        <time>2026-08-29T14:27:28Z</time>
      </trkpt>
      <trkpt lat="43.95129" lon="2.08105">
        <ele>243.371762</ele>
        <time>2026-08-29T14:27:29Z</time>
      </trkpt>
      <trkpt lat="43.95126" lon="2.08108">
        <ele>242.993997</ele>
        <time>2026-08-29T14:27:30Z</time>
      </trkpt>
      <trkpt lat="43.95123" lon="2.0811">
        <ele>242.640797</ele>
        <time>2026-08-29T14:27:31Z</time>
      </trkpt>
      <trkpt lat="43.9512" lon="2.08113">
        <ele>242.316541</ele>
        <time>2026-08-29T14:27:32Z</time>
      </trkpt>
      <trkpt lat="43.95118" lon="2.08115">
        <ele>242.000174</ele>
        <time>2026-08-29T14:27:33Z</time>
      </trkpt>
      <trkpt lat="43.95115" lon="2.08117">
        <ele>241.673758</ele>
        <time>2026-08-29T14:27:34Z</time>
      </trkpt>
      <trkpt lat="43.95112" lon="2.0812">
        <ele>241.345145</ele>
        <time>2026-08-29T14:27:35Z</time>
      </trkpt>
      <trkpt lat="43.9511" lon="2.08123">
        <ele>240.990598</ele>
        <time>2026-08-29T14:27:36Z</time>
      </trkpt>
      <trkpt lat="43.95107" lon="2.08127">
        <ele>240.627089</ele>
        <time>2026-08-29T14:27:37Z</time>
      </trkpt>
      <trkpt lat="43.95105" lon="2.08132">
        <ele>240.239471</ele>
        <time>2026-08-29T14:27:38Z</time>
      </trkpt>
      <trkpt lat="43.95103" lon="2.08135">
        <ele>239.910735</ele>
        <time>2026-08-29T14:27:39Z</time>
      </trkpt>
      <trkpt lat="43.95101" lon="2.08138">
        <ele>239.592551</ele>
        <time>2026-08-29T14:27:40Z</time>
      </trkpt>
      <trkpt lat="43.95098" lon="2.08141">
        <ele>239.293031</ele>
        <time>2026-08-29T14:27:41Z</time>
      </trkpt>
      <trkpt lat="43.95096" lon="2.08143">
        <ele>239.02199</ele>
        <time>2026-08-29T14:27:42Z</time>
      </trkpt>
      <trkpt lat="43.95094" lon="2.08145">
        <ele>238.766954</ele>
        <time>2026-08-29T14:27:43Z</time>
      </trkpt>
      <trkpt lat="43.95092" lon="2.08146">
        <ele>238.564309</ele>
        <time>2026-08-29T14:27:44Z</time>
      </trkpt>
      <trkpt lat="43.95091" lon="2.08147">
        <ele>238.383799</ele>
        <time>2026-08-29T14:27:45Z</time>
      </trkpt>
      <trkpt lat="43.9509" lon="2.08148">
        <ele>238.26478</ele>
        <time>2026-08-29T14:27:46Z</time>
      </trkpt>
      <trkpt lat="43.95089" lon="2.08149">
        <ele>238.223243</ele>
        <time>2026-08-29T14:27:47Z</time>
      </trkpt>
      <trkpt lat="43.95089" lon="2.08149">
        <ele>238.183288</ele>
        <time>2026-08-29T14:27:48Z</time>
      </trkpt>
      <trkpt lat="43.95086" lon="2.08156">
        <ele>237.568686</ele>
        <time>2026-08-29T14:28:33Z</time>
      </trkpt>
      <trkpt lat="43.95086" lon="2.08158">
        <ele>237.369071</ele>
        <time>2026-08-29T14:28:34Z</time>
      </trkpt>
      <trkpt lat="43.95087" lon="2.08161">
        <ele>237.193903</ele>
        <time>2026-08-29T14:28:35Z</time>
      </trkpt>
      <trkpt lat="43.95087" lon="2.08164">
        <ele>236.970756</ele>
        <time>2026-08-29T14:28:36Z</time>
      </trkpt>
      <trkpt lat="43.95087" lon="2.08167">
        <ele>236.776596</ele>
        <time>2026-08-29T14:28:37Z</time>
      </trkpt>
      <trkpt lat="43.95087" lon="2.08171">
        <ele>236.487396</ele>
        <time>2026-08-29T14:28:38Z</time>
      </trkpt>
      <trkpt lat="43.95087" lon="2.08176">
        <ele>236.097923</ele>
        <time>2026-08-29T14:28:39Z</time>
      </trkpt>
      <trkpt lat="43.95087" lon="2.08181">
        <ele>235.709605</ele>
        <time>2026-08-29T14:28:40Z</time>
      </trkpt>
      <trkpt lat="43.95087" lon="2.08186">
        <ele>235.364432</ele>
        <time>2026-08-29T14:28:41Z</time>
      </trkpt>
      <trkpt lat="43.95088" lon="2.08191">
        <ele>235.028579</ele>
        <time>2026-08-29T14:28:42Z</time>
      </trkpt>
      <trkpt lat="43.9509" lon="2.08194">
        <ele>234.734557</ele>
        <time>2026-08-29T14:28:43Z</time>
      </trkpt>
      <trkpt lat="43.95093" lon="2.08196">
        <ele>234.389791</ele>
        <time>2026-08-29T14:28:44Z</time>
      </trkpt>
      <trkpt lat="43.95097" lon="2.082">
        <ele>233.950459</ele>
        <time>2026-08-29T14:28:45Z</time>
      </trkpt>
      <trkpt lat="43.95101" lon="2.08205">
        <ele>233.419474</ele>
        <time>2026-08-29T14:28:46Z</time>
      </trkpt>
      <trkpt lat="43.95105" lon="2.08209">
        <ele>232.906715</ele>
        <time>2026-08-29T14:28:47Z</time>
      </trkpt>
      <trkpt lat="43.95109" lon="2.08211">
        <ele>232.455771</ele>
        <time>2026-08-29T14:28:48Z</time>
      </trkpt>
      <trkpt lat="43.95113" lon="2.08212">
        <ele>232.09389</ele>
        <time>2026-08-29T14:28:49Z</time>
      </trkpt>
      <trkpt lat="43.95116" lon="2.08214">
        <ele>231.777774</ele>
        <time>2026-08-29T14:28:50Z</time>
      </trkpt>
      <trkpt lat="43.95118" lon="2.08216">
        <ele>231.469878</ele>
        <time>2026-08-29T14:28:51Z</time>
      </trkpt>
      <trkpt lat="43.9512" lon="2.08219">
        <ele>231.235553</ele>
        <time>2026-08-29T14:28:52Z</time>
      </trkpt>
      <trkpt lat="43.9512" lon="2.08222">
        <ele>231.01775</ele>
        <time>2026-08-29T14:28:53Z</time>
      </trkpt>
      <trkpt lat="43.95119" lon="2.08225">
        <ele>230.772995</ele>
        <time>2026-08-29T14:28:54Z</time>
      </trkpt>
      <trkpt lat="43.95117" lon="2.08227">
        <ele>230.501954</ele>
        <time>2026-08-29T14:28:55Z</time>
      </trkpt>
      <trkpt lat="43.95115" lon="2.08228">
        <ele>230.247171</ele>
        <time>2026-08-29T14:28:56Z</time>
      </trkpt>
      <trkpt lat="43.95112" lon="2.08229">
        <ele>229.945366</ele>
        <time>2026-08-29T14:28:57Z</time>
      </trkpt>
      <trkpt lat="43.95108" lon="2.0823">
        <ele>229.619247</ele>
        <time>2026-08-29T14:28:58Z</time>
      </trkpt>
      <trkpt lat="43.95105" lon="2.0823">
        <ele>229.237984</ele>
        <time>2026-08-29T14:28:59Z</time>
      </trkpt>
      <trkpt lat="43.951" lon="2.08231">
        <ele>228.823373</ele>
        <time>2026-08-29T14:29:00Z</time>
      </trkpt>
      <trkpt lat="43.95096" lon="2.08233">
        <ele>228.425482</ele>
        <time>2026-08-29T14:29:01Z</time>
      </trkpt>
      <trkpt lat="43.95092" lon="2.08235">
        <ele>228.115323</ele>
        <time>2026-08-29T14:29:02Z</time>
      </trkpt>
      <trkpt lat="43.95088" lon="2.08239">
        <ele>227.768123</ele>
        <time>2026-08-29T14:29:03Z</time>
      </trkpt>
      <trkpt lat="43.95084" lon="2.08244">
        <ele>227.37968</ele>
        <time>2026-08-29T14:29:04Z</time>
      </trkpt>
      <trkpt lat="43.95079" lon="2.0825">
        <ele>226.938992</ele>
        <time>2026-08-29T14:29:05Z</time>
      </trkpt>
      <trkpt lat="43.95074" lon="2.08257">
        <ele>226.455668</ele>
        <time>2026-08-29T14:29:06Z</time>
      </trkpt>
      <trkpt lat="43.95069" lon="2.08265">
        <ele>225.935661</ele>
        <time>2026-08-29T14:29:07Z</time>
      </trkpt>
      <trkpt lat="43.95064" lon="2.08273">
        <ele>225.377778</ele>
        <time>2026-08-29T14:29:08Z</time>
      </trkpt>
      <trkpt lat="43.95058" lon="2.08281">
        <ele>224.784139</ele>
        <time>2026-08-29T14:29:09Z</time>
      </trkpt>
      <trkpt lat="43.95052" lon="2.0829">
        <ele>224.183336</ele>
        <time>2026-08-29T14:29:10Z</time>
      </trkpt>
      <trkpt lat="43.95046" lon="2.08299">
        <ele>223.593019</ele>
        <time>2026-08-29T14:29:11Z</time>
      </trkpt>
      <trkpt lat="43.9504" lon="2.08308">
        <ele>223.002701</ele>
        <time>2026-08-29T14:29:12Z</time>
      </trkpt>
      <trkpt lat="43.95034" lon="2.08317">
        <ele>222.40404</ele>
        <time>2026-08-29T14:29:13Z</time>
      </trkpt>
      <trkpt lat="43.95029" lon="2.08325">
        <ele>221.828049</ele>
        <time>2026-08-29T14:29:14Z</time>
      </trkpt>
      <trkpt lat="43.95025" lon="2.08334">
        <ele>221.330178</ele>
        <time>2026-08-29T14:29:15Z</time>
      </trkpt>
      <trkpt lat="43.95022" lon="2.08342">
        <ele>220.850551</ele>
        <time>2026-08-29T14:29:16Z</time>
      </trkpt>
      <trkpt lat="43.9502" lon="2.08352">
        <ele>220.347848</ele>
        <time>2026-08-29T14:29:17Z</time>
      </trkpt>
      <trkpt lat="43.9502" lon="2.08363">
        <ele>219.813844</ele>
        <time>2026-08-29T14:29:18Z</time>
      </trkpt>
      <trkpt lat="43.95021" lon="2.08375">
        <ele>219.215531</ele>
        <time>2026-08-29T14:29:19Z</time>
      </trkpt>
      <trkpt lat="43.95023" lon="2.08387">
        <ele>218.589634</ele>
        <time>2026-08-29T14:29:20Z</time>
      </trkpt>
      <trkpt lat="43.95027" lon="2.08399">
        <ele>217.920885</ele>
        <time>2026-08-29T14:29:21Z</time>
      </trkpt>
      <trkpt lat="43.9503" lon="2.08413">
        <ele>217.205331</ele>
        <time>2026-08-29T14:29:22Z</time>
      </trkpt>
      <trkpt lat="43.95033" lon="2.08427">
        <ele>216.484901</ele>
        <time>2026-08-29T14:29:23Z</time>
      </trkpt>
      <trkpt lat="43.95037" lon="2.08441">
        <ele>215.732216</ele>
        <time>2026-08-29T14:29:24Z</time>
      </trkpt>
      <trkpt lat="43.9504" lon="2.08455">
        <ele>214.955463</ele>
        <time>2026-08-29T14:29:25Z</time>
      </trkpt>
      <trkpt lat="43.95044" lon="2.0847">
        <ele>214.154842</ele>
        <time>2026-08-29T14:29:26Z</time>
      </trkpt>
      <trkpt lat="43.95047" lon="2.08484">
        <ele>213.368841</ele>
        <time>2026-08-29T14:29:27Z</time>
      </trkpt>
      <trkpt lat="43.95051" lon="2.08498">
        <ele>212.624161</ele>
        <time>2026-08-29T14:29:28Z</time>
      </trkpt>
      <trkpt lat="43.95054" lon="2.08512">
        <ele>211.872575</ele>
        <time>2026-08-29T14:29:29Z</time>
      </trkpt>
      <trkpt lat="43.95056" lon="2.08526">
        <ele>211.101012</ele>
        <time>2026-08-29T14:29:30Z</time>
      </trkpt>
      <trkpt lat="43.95057" lon="2.08541">
        <ele>210.326955</ele>
        <time>2026-08-29T14:29:31Z</time>
      </trkpt>
      <trkpt lat="43.95057" lon="2.08556">
        <ele>209.551034</ele>
        <time>2026-08-29T14:29:32Z</time>
      </trkpt>
      <trkpt lat="43.95057" lon="2.08571">
        <ele>208.800871</ele>
        <time>2026-08-29T14:29:33Z</time>
      </trkpt>
      <trkpt lat="43.95057" lon="2.08585">
        <ele>208.040365</ele>
        <time>2026-08-29T14:29:34Z</time>
      </trkpt>
      <trkpt lat="43.95055" lon="2.086">
        <ele>207.294811</ele>
        <time>2026-08-29T14:29:35Z</time>
      </trkpt>
      <trkpt lat="43.95053" lon="2.08614">
        <ele>206.55653</ele>
        <time>2026-08-29T14:29:36Z</time>
      </trkpt>
      <trkpt lat="43.9505" lon="2.08628">
        <ele>205.798016</ele>
        <time>2026-08-29T14:29:37Z</time>
      </trkpt>
      <trkpt lat="43.95047" lon="2.08642">
        <ele>205.03866</ele>
        <time>2026-08-29T14:29:38Z</time>
      </trkpt>
      <trkpt lat="43.95043" lon="2.08654">
        <ele>204.325584</ele>
        <time>2026-08-29T14:29:39Z</time>
      </trkpt>
      <trkpt lat="43.95041" lon="2.08666">
        <ele>203.689336</ele>
        <time>2026-08-29T14:29:40Z</time>
      </trkpt>
      <trkpt lat="43.9504" lon="2.08678">
        <ele>203.093533</ele>
        <time>2026-08-29T14:29:41Z</time>
      </trkpt>
      <trkpt lat="43.95042" lon="2.08689">
        <ele>202.532104</ele>
        <time>2026-08-29T14:29:42Z</time>
      </trkpt>
      <trkpt lat="43.95044" lon="2.08699">
        <ele>201.972421</ele>
        <time>2026-08-29T14:29:43Z</time>
      </trkpt>
      <trkpt lat="43.95049" lon="2.08708">
        <ele>201.390993</ele>
        <time>2026-08-29T14:29:44Z</time>
      </trkpt>
      <trkpt lat="43.95055" lon="2.08717">
        <ele>200.779542</ele>
        <time>2026-08-29T14:29:45Z</time>
      </trkpt>
      <trkpt lat="43.9506" lon="2.08725">
        <ele>200.192181</ele>
        <time>2026-08-29T14:29:46Z</time>
      </trkpt>
      <trkpt lat="43.95065" lon="2.08734">
        <ele>199.623942</ele>
        <time>2026-08-29T14:29:47Z</time>
      </trkpt>
      <trkpt lat="43.95068" lon="2.08745">
        <ele>199.064261</ele>
        <time>2026-08-29T14:29:48Z</time>
      </trkpt>
      <trkpt lat="43.95069" lon="2.08755">
        <ele>198.505291</ele>
        <time>2026-08-29T14:29:49Z</time>
      </trkpt>
      <trkpt lat="43.95071" lon="2.08766">
        <ele>197.929683</ele>
        <time>2026-08-29T14:29:50Z</time>
      </trkpt>
      <trkpt lat="43.95072" lon="2.08777">
        <ele>197.344579</ele>
        <time>2026-08-29T14:29:51Z</time>
      </trkpt>
      <trkpt lat="43.95074" lon="2.08789">
        <ele>196.71683</ele>
        <time>2026-08-29T14:29:52Z</time>
      </trkpt>
      <trkpt lat="43.95074" lon="2.08802">
        <ele>196.052695</ele>
        <time>2026-08-29T14:29:53Z</time>
      </trkpt>
      <trkpt lat="43.95073" lon="2.08816">
        <ele>195.327818</ele>
        <time>2026-08-29T14:29:54Z</time>
      </trkpt>
      <trkpt lat="43.95071" lon="2.08831">
        <ele>194.568723</ele>
        <time>2026-08-29T14:29:55Z</time>
      </trkpt>
      <trkpt lat="43.95068" lon="2.08845">
        <ele>193.822843</ele>
        <time>2026-08-29T14:29:56Z</time>
      </trkpt>
      <trkpt lat="43.95064" lon="2.08858">
        <ele>193.072096</ele>
        <time>2026-08-29T14:29:57Z</time>
      </trkpt>
      <trkpt lat="43.95061" lon="2.08872">
        <ele>192.349799</ele>
        <time>2026-08-29T14:29:58Z</time>
      </trkpt>
      <trkpt lat="43.95058" lon="2.08885">
        <ele>191.647135</ele>
        <time>2026-08-29T14:29:59Z</time>
      </trkpt>
      <trkpt lat="43.95056" lon="2.08897">
        <ele>190.992248</ele>
        <time>2026-08-29T14:30:00Z</time>
      </trkpt>
      <trkpt lat="43.95054" lon="2.08908">
        <ele>190.414998</ele>
        <time>2026-08-29T14:30:01Z</time>
      </trkpt>
      <trkpt lat="43.95051" lon="2.08918">
        <ele>189.978036</ele>
        <time>2026-08-29T14:30:02Z</time>
      </trkpt>
      <trkpt lat="43.95046" lon="2.08926">
        <ele>189.605136</ele>
        <time>2026-08-29T14:30:03Z</time>
      </trkpt>
      <trkpt lat="43.9504" lon="2.08935">
        <ele>189.192146</ele>
        <time>2026-08-29T14:30:04Z</time>
      </trkpt>
      <trkpt lat="43.95034" lon="2.08942">
        <ele>188.796112</ele>
        <time>2026-08-29T14:30:05Z</time>
      </trkpt>
      <trkpt lat="43.95028" lon="2.08948">
        <ele>188.415557</ele>
        <time>2026-08-29T14:30:06Z</time>
      </trkpt>
      <trkpt lat="43.95021" lon="2.08954">
        <ele>187.997499</ele>
        <time>2026-08-29T14:30:07Z</time>
      </trkpt>
      <trkpt lat="43.95012" lon="2.08959">
        <ele>187.548739</ele>
        <time>2026-08-29T14:30:08Z</time>
      </trkpt>
      <trkpt lat="43.95004" lon="2.08964">
        <ele>187.091045</ele>
        <time>2026-08-29T14:30:09Z</time>
      </trkpt>
      <trkpt lat="43.94996" lon="2.08969">
        <ele>186.670217</ele>
        <time>2026-08-29T14:30:10Z</time>
      </trkpt>
      <trkpt lat="43.94987" lon="2.08973">
        <ele>186.227896</ele>
        <time>2026-08-29T14:30:11Z</time>
      </trkpt>
      <trkpt lat="43.94978" lon="2.08973">
        <ele>185.77441</ele>
        <time>2026-08-29T14:30:12Z</time>
      </trkpt>
      <trkpt lat="43.9497" lon="2.08972">
        <ele>185.369876</ele>
        <time>2026-08-29T14:30:13Z</time>
      </trkpt>
      <trkpt lat="43.94962" lon="2.0897">
        <ele>184.984942</ele>
        <time>2026-08-29T14:30:14Z</time>
      </trkpt>
      <trkpt lat="43.94956" lon="2.08966">
        <ele>184.631085</ele>
        <time>2026-08-29T14:30:15Z</time>
      </trkpt>
      <trkpt lat="43.94949" lon="2.08963">
        <ele>184.286634</ele>
        <time>2026-08-29T14:30:16Z</time>
      </trkpt>
      <trkpt lat="43.94943" lon="2.08959">
        <ele>183.949706</ele>
        <time>2026-08-29T14:30:17Z</time>
      </trkpt>
      <trkpt lat="43.94937" lon="2.08955">
        <ele>183.6247</ele>
        <time>2026-08-29T14:30:18Z</time>
      </trkpt>
      <trkpt lat="43.94932" lon="2.08952">
        <ele>183.354835</ele>
        <time>2026-08-29T14:30:19Z</time>
      </trkpt>
      <trkpt lat="43.94927" lon="2.08948">
        <ele>183.047189</ele>
        <time>2026-08-29T14:30:20Z</time>
      </trkpt>
      <trkpt lat="43.94921" lon="2.08944">
        <ele>182.751977</ele>
        <time>2026-08-29T14:30:21Z</time>
      </trkpt>
      <trkpt lat="43.94916" lon="2.08941">
        <ele>182.474682</ele>
        <time>2026-08-29T14:30:22Z</time>
      </trkpt>
      <trkpt lat="43.94912" lon="2.08939">
        <ele>182.2474</ele>
        <time>2026-08-29T14:30:23Z</time>
      </trkpt>
      <trkpt lat="43.94908" lon="2.08937">
        <ele>182.049522</ele>
        <time>2026-08-29T14:30:24Z</time>
      </trkpt>
      <trkpt lat="43.94904" lon="2.08936">
        <ele>181.857446</ele>
        <time>2026-08-29T14:30:25Z</time>
      </trkpt>
      <trkpt lat="43.94901" lon="2.08935">
        <ele>181.712374</ele>
        <time>2026-08-29T14:30:26Z</time>
      </trkpt>
      <trkpt lat="43.94898" lon="2.08933">
        <ele>181.539428</ele>
        <time>2026-08-29T14:30:27Z</time>
      </trkpt>
      <trkpt lat="43.94895" lon="2.08931">
        <ele>181.404189</ele>
        <time>2026-08-29T14:30:28Z</time>
      </trkpt>
      <trkpt lat="43.94892" lon="2.08929">
        <ele>181.454929</ele>
        <time>2026-08-29T14:30:29Z</time>
      </trkpt>
      <trkpt lat="43.94889" lon="2.08928">
        <ele>181.50138</ele>
        <time>2026-08-29T14:30:30Z</time>
      </trkpt>
      <trkpt lat="43.94886" lon="2.08927">
        <ele>181.55249</ele>
        <time>2026-08-29T14:30:31Z</time>
      </trkpt>
      <trkpt lat="43.94884" lon="2.08925">
        <ele>181.596461</ele>
        <time>2026-08-29T14:30:32Z</time>
      </trkpt>
      <trkpt lat="43.94881" lon="2.08925">
        <ele>181.644877</ele>
        <time>2026-08-29T14:30:33Z</time>
      </trkpt>
      <trkpt lat="43.94878" lon="2.08924">
        <ele>181.683643</ele>
        <time>2026-08-29T14:30:34Z</time>
      </trkpt>
      <trkpt lat="43.94876" lon="2.08924">
        <ele>181.719253</ele>
        <time>2026-08-29T14:30:35Z</time>
      </trkpt>
      <trkpt lat="43.94874" lon="2.08923">
        <ele>181.75628</ele>
        <time>2026-08-29T14:30:36Z</time>
      </trkpt>
      <trkpt lat="43.94871" lon="2.08923">
        <ele>181.793467</ele>
        <time>2026-08-29T14:30:37Z</time>
      </trkpt>
      <trkpt lat="43.94869" lon="2.08922">
        <ele>181.830369</ele>
        <time>2026-08-29T14:30:38Z</time>
      </trkpt>
      <trkpt lat="43.94867" lon="2.08922">
        <ele>181.861769</ele>
        <time>2026-08-29T14:30:39Z</time>
      </trkpt>
      <trkpt lat="43.94865" lon="2.08922">
        <ele>181.900176</ele>
        <time>2026-08-29T14:30:40Z</time>
      </trkpt>
      <trkpt lat="43.94863" lon="2.08922">
        <ele>181.935618</ele>
        <time>2026-08-29T14:30:41Z</time>
      </trkpt>
      <trkpt lat="43.9486" lon="2.08922">
        <ele>181.982</ele>
        <time>2026-08-29T14:30:42Z</time>
      </trkpt>
      <trkpt lat="43.94857" lon="2.08922">
        <ele>182.026786</ele>
        <time>2026-08-29T14:30:43Z</time>
      </trkpt>
      <trkpt lat="43.94854" lon="2.08921">
        <ele>182.07016</ele>
        <time>2026-08-29T14:30:44Z</time>
      </trkpt>
      <trkpt lat="43.94852" lon="2.08921">
        <ele>182.112089</ele>
        <time>2026-08-29T14:30:45Z</time>
      </trkpt>
      <trkpt lat="43.94849" lon="2.0892">
        <ele>182.1556</ele>
        <time>2026-08-29T14:30:46Z</time>
      </trkpt>
      <trkpt lat="43.94846" lon="2.0892">
        <ele>182.197702</ele>
        <time>2026-08-29T14:30:47Z</time>
      </trkpt>
      <trkpt lat="43.94844" lon="2.08919">
        <ele>182.240797</ele>
        <time>2026-08-29T14:30:48Z</time>
      </trkpt>
      <trkpt lat="43.94841" lon="2.08917">
        <ele>182.288334</ele>
        <time>2026-08-29T14:30:49Z</time>
      </trkpt>
      <trkpt lat="43.94838" lon="2.08916">
        <ele>182.332304</ele>
        <time>2026-08-29T14:30:50Z</time>
      </trkpt>
      <trkpt lat="43.94836" lon="2.08914">
        <ele>182.375339</ele>
        <time>2026-08-29T14:30:51Z</time>
      </trkpt>
      <trkpt lat="43.94833" lon="2.08912">
        <ele>182.423384</ele>
        <time>2026-08-29T14:30:52Z</time>
      </trkpt>
      <trkpt lat="43.94831" lon="2.08909">
        <ele>182.474684</ele>
        <time>2026-08-29T14:30:53Z</time>
      </trkpt>
      <trkpt lat="43.94829" lon="2.08906">
        <ele>182.523419</ele>
        <time>2026-08-29T14:30:54Z</time>
      </trkpt>
      <trkpt lat="43.94827" lon="2.08902">
        <ele>182.580354</ele>
        <time>2026-08-29T14:30:55Z</time>
      </trkpt>
      <trkpt lat="43.94825" lon="2.08897">
        <ele>182.640198</ele>
        <time>2026-08-29T14:30:56Z</time>
      </trkpt>
      <trkpt lat="43.94823" lon="2.08893">
        <ele>182.695611</ele>
        <time>2026-08-29T14:30:57Z</time>
      </trkpt>
      <trkpt lat="43.94822" lon="2.08889">
        <ele>182.753688</ele>
        <time>2026-08-29T14:30:58Z</time>
      </trkpt>
      <trkpt lat="43.9482" lon="2.08884">
        <ele>182.811593</ele>
        <time>2026-08-29T14:30:59Z</time>
      </trkpt>
      <trkpt lat="43.94819" lon="2.0888">
        <ele>182.863116</ele>
        <time>2026-08-29T14:31:00Z</time>
      </trkpt>
      <trkpt lat="43.94818" lon="2.08876">
        <ele>182.915084</ele>
        <time>2026-08-29T14:31:01Z</time>
      </trkpt>
      <trkpt lat="43.94817" lon="2.08871">
        <ele>182.970273</ele>
        <time>2026-08-29T14:31:02Z</time>
      </trkpt>
      <trkpt lat="43.94815" lon="2.08866">
        <ele>183.029399</ele>
        <time>2026-08-29T14:31:03Z</time>
      </trkpt>
      <trkpt lat="43.94814" lon="2.08862">
        <ele>183.084098</ele>
        <time>2026-08-29T14:31:04Z</time>
      </trkpt>
      <trkpt lat="43.94812" lon="2.08858">
        <ele>183.143105</ele>
        <time>2026-08-29T14:31:05Z</time>
      </trkpt>
      <trkpt lat="43.9481" lon="2.08853">
        <ele>183.199181</ele>
        <time>2026-08-29T14:31:06Z</time>
      </trkpt>
      <trkpt lat="43.94807" lon="2.0885">
        <ele>183.254274</ele>
        <time>2026-08-29T14:31:07Z</time>
      </trkpt>
      <trkpt lat="43.94805" lon="2.08847">
        <ele>183.309035</ele>
        <time>2026-08-29T14:31:08Z</time>
      </trkpt>
      <trkpt lat="43.94803" lon="2.08843">
        <ele>183.368919</ele>
        <time>2026-08-29T14:31:09Z</time>
      </trkpt>
      <trkpt lat="43.948" lon="2.08839">
        <ele>183.424999</ele>
        <time>2026-08-29T14:31:10Z</time>
      </trkpt>
      <trkpt lat="43.94798" lon="2.08835">
        <ele>183.480352</ele>
        <time>2026-08-29T14:31:11Z</time>
      </trkpt>
      <trkpt lat="43.94796" lon="2.08832">
        <ele>183.538996</ele>
        <time>2026-08-29T14:31:12Z</time>
      </trkpt>
      <trkpt lat="43.94792" lon="2.08828">
        <ele>183.602812</ele>
        <time>2026-08-29T14:31:13Z</time>
      </trkpt>
      <trkpt lat="43.9479" lon="2.08825">
        <ele>183.660573</ele>
        <time>2026-08-29T14:31:14Z</time>
      </trkpt>
      <trkpt lat="43.94786" lon="2.08822">
        <ele>183.726207</ele>
        <time>2026-08-29T14:31:15Z</time>
      </trkpt>
      <trkpt lat="43.94783" lon="2.08818">
        <ele>183.795204</ele>
        <time>2026-08-29T14:31:16Z</time>
      </trkpt>
      <trkpt lat="43.9478" lon="2.08815">
        <ele>183.853659</ele>
        <time>2026-08-29T14:31:17Z</time>
      </trkpt>
      <trkpt lat="43.94777" lon="2.08813">
        <ele>183.907583</ele>
        <time>2026-08-29T14:31:18Z</time>
      </trkpt>
      <trkpt lat="43.94774" lon="2.0881">
        <ele>183.966804</ele>
        <time>2026-08-29T14:31:19Z</time>
      </trkpt>
      <trkpt lat="43.9477" lon="2.08807">
        <ele>184.029944</ele>
        <time>2026-08-29T14:31:20Z</time>
      </trkpt>
      <trkpt lat="43.94768" lon="2.08805">
        <ele>184.082187</ele>
        <time>2026-08-29T14:31:21Z</time>
      </trkpt>
      <trkpt lat="43.94764" lon="2.08803">
        <ele>184.139448</ele>
        <time>2026-08-29T14:31:22Z</time>
      </trkpt>
      <trkpt lat="43.94761" lon="2.08801">
        <ele>184.196512</ele>
        <time>2026-08-29T14:31:23Z</time>
      </trkpt>
      <trkpt lat="43.94757" lon="2.08799">
        <ele>184.260803</ele>
        <time>2026-08-29T14:31:24Z</time>
      </trkpt>
      <trkpt lat="43.94754" lon="2.08797">
        <ele>184.279043</ele>
        <time>2026-08-29T14:31:25Z</time>
      </trkpt>
      <trkpt lat="43.9475" lon="2.08795">
        <ele>184.291541</ele>
        <time>2026-08-29T14:31:26Z</time>
      </trkpt>
      <trkpt lat="43.94747" lon="2.08792">
        <ele>184.303845</ele>
        <time>2026-08-29T14:31:27Z</time>
      </trkpt>
      <trkpt lat="43.94743" lon="2.0879">
        <ele>184.317183</ele>
        <time>2026-08-29T14:31:28Z</time>
      </trkpt>
      <trkpt lat="43.94739" lon="2.08787">
        <ele>184.329959</ele>
        <time>2026-08-29T14:31:29Z</time>
      </trkpt>
      <trkpt lat="43.94735" lon="2.08785">
        <ele>184.343113</ele>
        <time>2026-08-29T14:31:30Z</time>
      </trkpt>
      <trkpt lat="43.94732" lon="2.08783">
        <ele>184.353919</ele>
        <time>2026-08-29T14:31:31Z</time>
      </trkpt>
      <trkpt lat="43.94729" lon="2.08781">
        <ele>184.365285</ele>
        <time>2026-08-29T14:31:32Z</time>
      </trkpt>
      <trkpt lat="43.94725" lon="2.08778">
        <ele>184.377559</ele>
        <time>2026-08-29T14:31:33Z</time>
      </trkpt>
      <trkpt lat="43.94722" lon="2.08775">
        <ele>184.390312</ele>
        <time>2026-08-29T14:31:34Z</time>
      </trkpt>
      <trkpt lat="43.94719" lon="2.08772">
        <ele>184.399627</ele>
        <time>2026-08-29T14:31:35Z</time>
      </trkpt>
      <trkpt lat="43.94717" lon="2.08769">
        <ele>184.409958</ele>
        <time>2026-08-29T14:31:36Z</time>
      </trkpt>
      <trkpt lat="43.94714" lon="2.08766">
        <ele>184.41991</ele>
        <time>2026-08-29T14:31:37Z</time>
      </trkpt>
      <trkpt lat="43.94712" lon="2.08763">
        <ele>184.431006</ele>
        <time>2026-08-29T14:31:38Z</time>
      </trkpt>
      <trkpt lat="43.94708" lon="2.08761">
        <ele>184.443661</ele>
        <time>2026-08-29T14:31:39Z</time>
      </trkpt>
      <trkpt lat="43.94705" lon="2.08758">
        <ele>184.454953</ele>
        <time>2026-08-29T14:31:40Z</time>
      </trkpt>
      <trkpt lat="43.94702" lon="2.08756">
        <ele>184.464647</ele>
        <time>2026-08-29T14:31:41Z</time>
      </trkpt>
      <trkpt lat="43.94699" lon="2.08753">
        <ele>184.476635</ele>
        <time>2026-08-29T14:31:42Z</time>
      </trkpt>
      <trkpt lat="43.94696" lon="2.0875">
        <ele>184.489132</ele>
        <time>2026-08-29T14:31:43Z</time>
      </trkpt>
      <trkpt lat="43.94693" lon="2.08746">
        <ele>184.502271</ele>
        <time>2026-08-29T14:31:44Z</time>
      </trkpt>
      <trkpt lat="43.9469" lon="2.08743">
        <ele>184.512352</ele>
        <time>2026-08-29T14:31:45Z</time>
      </trkpt>
      <trkpt lat="43.94687" lon="2.0874">
        <ele>184.522706</ele>
        <time>2026-08-29T14:31:46Z</time>
      </trkpt>
      <trkpt lat="43.94683" lon="2.08736">
        <ele>184.538011</ele>
        <time>2026-08-29T14:31:47Z</time>
      </trkpt>
      <trkpt lat="43.94679" lon="2.08733">
        <ele>184.552725</ele>
        <time>2026-08-29T14:31:48Z</time>
      </trkpt>
      <trkpt lat="43.94675" lon="2.0873">
        <ele>184.568225</ele>
        <time>2026-08-29T14:31:49Z</time>
      </trkpt>
      <trkpt lat="43.9467" lon="2.08727">
        <ele>184.584101</ele>
        <time>2026-08-29T14:31:50Z</time>
      </trkpt>
      <trkpt lat="43.94666" lon="2.08723">
        <ele>184.600257</ele>
        <time>2026-08-29T14:31:51Z</time>
      </trkpt>
      <trkpt lat="43.94661" lon="2.08721">
        <ele>184.615595</ele>
        <time>2026-08-29T14:31:52Z</time>
      </trkpt>
      <trkpt lat="43.94656" lon="2.08719">
        <ele>184.631729</ele>
        <time>2026-08-29T14:31:53Z</time>
      </trkpt>
      <trkpt lat="43.94651" lon="2.08717">
        <ele>184.648524</ele>
        <time>2026-08-29T14:31:54Z</time>
      </trkpt>
      <trkpt lat="43.94645" lon="2.08716">
        <ele>184.666602</ele>
        <time>2026-08-29T14:31:55Z</time>
      </trkpt>
      <trkpt lat="43.94639" lon="2.08716">
        <ele>184.6859</ele>
        <time>2026-08-29T14:31:56Z</time>
      </trkpt>
      <trkpt lat="43.94633" lon="2.08716">
        <ele>184.704843</ele>
        <time>2026-08-29T14:31:57Z</time>
      </trkpt>
      <trkpt lat="43.94626" lon="2.08716">
        <ele>184.725348</ele>
        <time>2026-08-29T14:31:58Z</time>
      </trkpt>
      <trkpt lat="43.94619" lon="2.08715">
        <ele>184.745861</ele>
        <time>2026-08-29T14:31:59Z</time>
      </trkpt>
      <trkpt lat="43.94613" lon="2.08715">
        <ele>184.76547</ele>
        <time>2026-08-29T14:32:00Z</time>
      </trkpt>
      <trkpt lat="43.94607" lon="2.08715">
        <ele>184.783791</ele>
        <time>2026-08-29T14:32:01Z</time>
      </trkpt>
      <trkpt lat="43.94601" lon="2.08714">
        <ele>184.804345</ele>
        <time>2026-08-29T14:32:02Z</time>
      </trkpt>
      <trkpt lat="43.94594" lon="2.08713">
        <ele>184.824156</ele>
        <time>2026-08-29T14:32:03Z</time>
      </trkpt>
      <trkpt lat="43.94589" lon="2.08711">
        <ele>184.953474</ele>
        <time>2026-08-29T14:32:04Z</time>
      </trkpt>
      <trkpt lat="43.94583" lon="2.08708">
        <ele>185.095042</ele>
        <time>2026-08-29T14:32:05Z</time>
      </trkpt>
      <trkpt lat="43.94579" lon="2.08706">
        <ele>185.222713</ele>
        <time>2026-08-29T14:32:06Z</time>
      </trkpt>
      <trkpt lat="43.94574" lon="2.08703">
        <ele>185.347088</ele>
        <time>2026-08-29T14:32:07Z</time>
      </trkpt>
      <trkpt lat="43.9457" lon="2.08699">
        <ele>185.474158</ele>
        <time>2026-08-29T14:32:08Z</time>
      </trkpt>
      <trkpt lat="43.94566" lon="2.08696">
        <ele>185.584703</ele>
        <time>2026-08-29T14:32:09Z</time>
      </trkpt>
      <trkpt lat="43.94563" lon="2.08693">
        <ele>185.686275</ele>
        <time>2026-08-29T14:32:10Z</time>
      </trkpt>
      <trkpt lat="43.9456" lon="2.0869">
        <ele>185.788995</ele>
        <time>2026-08-29T14:32:11Z</time>
      </trkpt>
      <trkpt lat="43.94557" lon="2.08687">
        <ele>185.881444</ele>
        <time>2026-08-29T14:32:12Z</time>
      </trkpt>
      <trkpt lat="43.94554" lon="2.08684">
        <ele>185.966889</ele>
        <time>2026-08-29T14:32:13Z</time>
      </trkpt>
      <trkpt lat="43.94552" lon="2.08681">
        <ele>186.03936</ele>
        <time>2026-08-29T14:32:14Z</time>
      </trkpt>
      <trkpt lat="43.9455" lon="2.08679">
        <ele>186.099142</ele>
        <time>2026-08-29T14:32:15Z</time>
      </trkpt>
      <trkpt lat="43.94548" lon="2.08678">
        <ele>186.15778</ele>
        <time>2026-08-29T14:32:16Z</time>
      </trkpt>
      <trkpt lat="43.94547" lon="2.08676">
        <ele>186.203856</ele>
        <time>2026-08-29T14:32:17Z</time>
      </trkpt>
      <trkpt lat="43.94545" lon="2.08675">
        <ele>186.246792</ele>
        <time>2026-08-29T14:32:18Z</time>
      </trkpt>
      <trkpt lat="43.94544" lon="2.08673">
        <ele>186.289881</ele>
        <time>2026-08-29T14:32:19Z</time>
      </trkpt>
      <trkpt lat="43.94542" lon="2.08671">
        <ele>186.362139</ele>
        <time>2026-08-29T14:32:20Z</time>
      </trkpt>
      <trkpt lat="43.9454" lon="2.08668">
        <ele>186.42835</ele>
        <time>2026-08-29T14:32:21Z</time>
      </trkpt>
      <trkpt lat="43.94538" lon="2.08666">
        <ele>186.495078</ele>
        <time>2026-08-29T14:32:22Z</time>
      </trkpt>
      <trkpt lat="43.94536" lon="2.08664">
        <ele>186.560125</ele>
        <time>2026-08-29T14:32:23Z</time>
      </trkpt>
      <trkpt lat="43.94534" lon="2.08662">
        <ele>186.623439</ele>
        <time>2026-08-29T14:32:24Z</time>
      </trkpt>
      <trkpt lat="43.94532" lon="2.0866">
        <ele>186.689489</ele>
        <time>2026-08-29T14:32:25Z</time>
      </trkpt>
      <trkpt lat="43.94529" lon="2.08658">
        <ele>186.759664</ele>
        <time>2026-08-29T14:32:26Z</time>
      </trkpt>
      <trkpt lat="43.94527" lon="2.08656">
        <ele>186.82984</ele>
        <time>2026-08-29T14:32:27Z</time>
      </trkpt>
      <trkpt lat="43.94525" lon="2.08654">
        <ele>186.900271</ele>
        <time>2026-08-29T14:32:28Z</time>
      </trkpt>
      <trkpt lat="43.94522" lon="2.08652">
        <ele>186.976628</ele>
        <time>2026-08-29T14:32:29Z</time>
      </trkpt>
      <trkpt lat="43.94519" lon="2.08651">
        <ele>187.052985</ele>
        <time>2026-08-29T14:32:30Z</time>
      </trkpt>
      <trkpt lat="43.94517" lon="2.08649">
        <ele>187.12217</ele>
        <time>2026-08-29T14:32:31Z</time>
      </trkpt>
      <trkpt lat="43.94515" lon="2.08647">
        <ele>187.189478</ele>
        <time>2026-08-29T14:32:32Z</time>
      </trkpt>
      <trkpt lat="43.94512" lon="2.08645">
        <ele>187.259018</ele>
        <time>2026-08-29T14:32:33Z</time>
      </trkpt>
      <trkpt lat="43.9451" lon="2.08643">
        <ele>187.333922</ele>
        <time>2026-08-29T14:32:34Z</time>
      </trkpt>
      <trkpt lat="43.94507" lon="2.08641">
        <ele>187.408826</ele>
        <time>2026-08-29T14:32:35Z</time>
      </trkpt>
      <trkpt lat="43.94505" lon="2.08639">
        <ele>187.481483</ele>
        <time>2026-08-29T14:32:36Z</time>
      </trkpt>
      <trkpt lat="43.94502" lon="2.08638">
        <ele>187.546266</ele>
        <time>2026-08-29T14:32:37Z</time>
      </trkpt>
      <trkpt lat="43.945" lon="2.08636">
        <ele>187.612633</ele>
        <time>2026-08-29T14:32:38Z</time>
      </trkpt>
      <trkpt lat="43.94497" lon="2.08635">
        <ele>187.678311</ele>
        <time>2026-08-29T14:32:39Z</time>
      </trkpt>
      <trkpt lat="43.94495" lon="2.08634">
        <ele>187.741691</ele>
        <time>2026-08-29T14:32:40Z</time>
      </trkpt>
      <trkpt lat="43.94493" lon="2.08633">
        <ele>187.801951</ele>
        <time>2026-08-29T14:32:41Z</time>
      </trkpt>
      <trkpt lat="43.94491" lon="2.08632">
        <ele>187.862874</ele>
        <time>2026-08-29T14:32:42Z</time>
      </trkpt>
      <trkpt lat="43.94488" lon="2.08632">
        <ele>187.924747</ele>
        <time>2026-08-29T14:32:43Z</time>
      </trkpt>
      <trkpt lat="43.94486" lon="2.08631">
        <ele>187.992269</ele>
        <time>2026-08-29T14:32:44Z</time>
      </trkpt>
      <trkpt lat="43.94483" lon="2.0863">
        <ele>188.051623</ele>
        <time>2026-08-29T14:32:45Z</time>
      </trkpt>
      <trkpt lat="43.94481" lon="2.0863">
        <ele>188.118543</ele>
        <time>2026-08-29T14:32:46Z</time>
      </trkpt>
      <trkpt lat="43.94478" lon="2.08629">
        <ele>188.186859</ele>
        <time>2026-08-29T14:32:47Z</time>
      </trkpt>
      <trkpt lat="43.94475" lon="2.08628">
        <ele>188.255175</ele>
        <time>2026-08-29T14:32:48Z</time>
      </trkpt>
      <trkpt lat="43.94473" lon="2.08627">
        <ele>188.318102</ele>
        <time>2026-08-29T14:32:49Z</time>
      </trkpt>
      <trkpt lat="43.94471" lon="2.08626">
        <ele>188.38351</ele>
        <time>2026-08-29T14:32:50Z</time>
      </trkpt>
      <trkpt lat="43.94468" lon="2.08626">
        <ele>188.455742</ele>
        <time>2026-08-29T14:32:51Z</time>
      </trkpt>
      <trkpt lat="43.94465" lon="2.08626">
        <ele>188.524799</ele>
        <time>2026-08-29T14:32:52Z</time>
      </trkpt>
      <trkpt lat="43.94463" lon="2.08625">
        <ele>188.587323</ele>
        <time>2026-08-29T14:32:53Z</time>
      </trkpt>
      <trkpt lat="43.9446" lon="2.08624">
        <ele>188.649847</ele>
        <time>2026-08-29T14:32:54Z</time>
      </trkpt>
      <trkpt lat="43.94458" lon="2.08624">
        <ele>188.716363</ele>
        <time>2026-08-29T14:32:55Z</time>
      </trkpt>
      <trkpt lat="43.94455" lon="2.08624">
        <ele>188.7778</ele>
        <time>2026-08-29T14:32:56Z</time>
      </trkpt>
      <trkpt lat="43.94453" lon="2.08623">
        <ele>188.844316</ele>
        <time>2026-08-29T14:32:57Z</time>
      </trkpt>
      <trkpt lat="43.9445" lon="2.08623">
        <ele>188.908476</ele>
        <time>2026-08-29T14:32:58Z</time>
      </trkpt>
      <trkpt lat="43.94448" lon="2.08623">
        <ele>188.972452</ele>
        <time>2026-08-29T14:32:59Z</time>
      </trkpt>
      <trkpt lat="43.94445" lon="2.08622">
        <ele>189.038766</ele>
        <time>2026-08-29T14:33:00Z</time>
      </trkpt>
      <trkpt lat="43.94442" lon="2.08622">
        <ele>189.105282</ele>
        <time>2026-08-29T14:33:01Z</time>
      </trkpt>
      <trkpt lat="43.9444" lon="2.08622">
        <ele>189.171976</ele>
        <time>2026-08-29T14:33:02Z</time>
      </trkpt>
      <trkpt lat="43.94437" lon="2.08621">
        <ele>189.242362</ele>
        <time>2026-08-29T14:33:03Z</time>
      </trkpt>
      <trkpt lat="43.94434" lon="2.0862">
        <ele>189.317115</ele>
        <time>2026-08-29T14:33:04Z</time>
      </trkpt>
      <trkpt lat="43.94431" lon="2.0862">
        <ele>189.391619</ele>
        <time>2026-08-29T14:33:05Z</time>
      </trkpt>
      <trkpt lat="43.94428" lon="2.08619">
        <ele>189.409883</ele>
        <time>2026-08-29T14:33:06Z</time>
      </trkpt>
      <trkpt lat="43.94425" lon="2.08619">
        <ele>189.40541</ele>
        <time>2026-08-29T14:33:07Z</time>
      </trkpt>
      <trkpt lat="43.94422" lon="2.08619">
        <ele>189.400665</ele>
        <time>2026-08-29T14:33:08Z</time>
      </trkpt>
      <trkpt lat="43.94418" lon="2.08619">
        <ele>189.395348</ele>
        <time>2026-08-29T14:33:09Z</time>
      </trkpt>
      <trkpt lat="43.94414" lon="2.08618">
        <ele>189.389873</ele>
        <time>2026-08-29T14:33:10Z</time>
      </trkpt>
      <trkpt lat="43.94411" lon="2.08618">
        <ele>189.384265</ele>
        <time>2026-08-29T14:33:11Z</time>
      </trkpt>
      <trkpt lat="43.94406" lon="2.08618">
        <ele>189.378367</ele>
        <time>2026-08-29T14:33:12Z</time>
      </trkpt>
      <trkpt lat="43.94402" lon="2.08618">
        <ele>189.372475</ele>
        <time>2026-08-29T14:33:13Z</time>
      </trkpt>
      <trkpt lat="43.94398" lon="2.08618">
        <ele>189.366294</ele>
        <time>2026-08-29T14:33:14Z</time>
      </trkpt>
      <trkpt lat="43.94394" lon="2.08617">
        <ele>189.360171</ele>
        <time>2026-08-29T14:33:15Z</time>
      </trkpt>
      <trkpt lat="43.94389" lon="2.08615">
        <ele>189.353662</ele>
        <time>2026-08-29T14:33:16Z</time>
      </trkpt>
      <trkpt lat="43.94385" lon="2.08614">
        <ele>189.346988</ele>
        <time>2026-08-29T14:33:17Z</time>
      </trkpt>
      <trkpt lat="43.9438" lon="2.08613">
        <ele>189.340122</ele>
        <time>2026-08-29T14:33:18Z</time>
      </trkpt>
      <trkpt lat="43.94376" lon="2.08611">
        <ele>189.333197</ele>
        <time>2026-08-29T14:33:19Z</time>
      </trkpt>
      <trkpt lat="43.94371" lon="2.08608">
        <ele>189.326188</ele>
        <time>2026-08-29T14:33:20Z</time>
      </trkpt>
      <trkpt lat="43.94367" lon="2.08604">
        <ele>189.319219</ele>
        <time>2026-08-29T14:33:21Z</time>
      </trkpt>
      <trkpt lat="43.94363" lon="2.08601">
        <ele>189.312371</ele>
        <time>2026-08-29T14:33:22Z</time>
      </trkpt>
      <trkpt lat="43.94359" lon="2.08597">
        <ele>189.305466</ele>
        <time>2026-08-29T14:33:23Z</time>
      </trkpt>
      <trkpt lat="43.94355" lon="2.08592">
        <ele>189.298376</ele>
        <time>2026-08-29T14:33:24Z</time>
      </trkpt>
      <trkpt lat="43.94352" lon="2.08588">
        <ele>189.291486</ele>
        <time>2026-08-29T14:33:25Z</time>
      </trkpt>
      <trkpt lat="43.94348" lon="2.08584">
        <ele>189.284879</ele>
        <time>2026-08-29T14:33:26Z</time>
      </trkpt>
      <trkpt lat="43.94345" lon="2.08579">
        <ele>189.277987</ele>
        <time>2026-08-29T14:33:27Z</time>
      </trkpt>
      <trkpt lat="43.94342" lon="2.08574">
        <ele>189.271411</ele>
        <time>2026-08-29T14:33:28Z</time>
      </trkpt>
      <trkpt lat="43.9434" lon="2.0857">
        <ele>189.265865</ele>
        <time>2026-08-29T14:33:29Z</time>
      </trkpt>
      <trkpt lat="43.94337" lon="2.08567">
        <ele>189.261507</ele>
        <time>2026-08-29T14:33:30Z</time>
      </trkpt>
      <trkpt lat="43.94336" lon="2.08566">
        <ele>189.258789</ele>
        <time>2026-08-29T14:33:31Z</time>
      </trkpt>
      <trkpt lat="43.94335" lon="2.08565">
        <ele>189.257944</ele>
        <time>2026-08-29T14:33:32Z</time>
      </trkpt>
      <trkpt lat="43.94335" lon="2.08565">
        <ele>189.257692</ele>
        <time>2026-08-29T14:33:33Z</time>
      </trkpt>
      <trkpt lat="43.94335" lon="2.08565">
        <ele>189.25744</ele>
        <time>2026-08-29T14:33:34Z</time>
      </trkpt>
      <trkpt lat="43.94332" lon="2.08561">
        <ele>189.251281</ele>
        <time>2026-08-29T14:33:59Z</time>
      </trkpt>
      <trkpt lat="43.94331" lon="2.0856">
        <ele>189.248861</ele>
        <time>2026-08-29T14:34:00Z</time>
      </trkpt>
      <trkpt lat="43.94329" lon="2.08559">
        <ele>189.246588</ele>
        <time>2026-08-29T14:34:01Z</time>
      </trkpt>
      <trkpt lat="43.94327" lon="2.08558">
        <ele>189.243802</ele>
        <time>2026-08-29T14:34:02Z</time>
      </trkpt>
      <trkpt lat="43.94326" lon="2.08557">
        <ele>189.241189</ele>
        <time>2026-08-29T14:34:03Z</time>
      </trkpt>
      <trkpt lat="43.94324" lon="2.08557">
        <ele>189.238711</ele>
        <time>2026-08-29T14:34:04Z</time>
      </trkpt>
      <trkpt lat="43.94323" lon="2.08556">
        <ele>189.236743</ele>
        <time>2026-08-29T14:34:05Z</time>
      </trkpt>
      <trkpt lat="43.94322" lon="2.08556">
        <ele>189.235385</ele>
        <time>2026-08-29T14:34:06Z</time>
      </trkpt>
      <trkpt lat="43.94321" lon="2.08555">
        <ele>189.234788</ele>
        <time>2026-08-29T14:34:07Z</time>
      </trkpt>
      <trkpt lat="43.94321" lon="2.08556">
        <ele>189.234684</ele>
        <time>2026-08-29T14:34:08Z</time>
      </trkpt>
      <trkpt lat="43.94321" lon="2.08555">
        <ele>189.233338</ele>
        <time>2026-08-29T14:34:42Z</time>
      </trkpt>
      <trkpt lat="43.9432" lon="2.08553">
        <ele>189.230816</ele>
        <time>2026-08-29T14:34:43Z</time>
      </trkpt>
      <trkpt lat="43.94318" lon="2.0855">
        <ele>189.227282</ele>
        <time>2026-08-29T14:34:44Z</time>
      </trkpt>
      <trkpt lat="43.94317" lon="2.08548">
        <ele>189.224541</ele>
        <time>2026-08-29T14:34:45Z</time>
      </trkpt>
      <trkpt lat="43.94315" lon="2.08546">
        <ele>189.221767</ele>
        <time>2026-08-29T14:34:46Z</time>
      </trkpt>
      <trkpt lat="43.94314" lon="2.08545">
        <ele>189.218935</ele>
        <time>2026-08-29T14:34:47Z</time>
      </trkpt>
      <trkpt lat="43.94312" lon="2.08543">
        <ele>189.216102</ele>
        <time>2026-08-29T14:34:48Z</time>
      </trkpt>
      <trkpt lat="43.94311" lon="2.08542">
        <ele>189.213385</ele>
        <time>2026-08-29T14:34:49Z</time>
      </trkpt>
      <trkpt lat="43.94309" lon="2.0854">
        <ele>189.211065</ele>
        <time>2026-08-29T14:34:50Z</time>
      </trkpt>
      <trkpt lat="43.94308" lon="2.08539">
        <ele>189.209166</ele>
        <time>2026-08-29T14:34:51Z</time>
      </trkpt>
      <trkpt lat="43.94307" lon="2.08538">
        <ele>189.206803</ele>
        <time>2026-08-29T14:34:52Z</time>
      </trkpt>
      <trkpt lat="43.94306" lon="2.08536">
        <ele>189.204262</ele>
        <time>2026-08-29T14:34:53Z</time>
      </trkpt>
      <trkpt lat="43.94304" lon="2.08535">
        <ele>189.201369</ele>
        <time>2026-08-29T14:34:54Z</time>
      </trkpt>
      <trkpt lat="43.94302" lon="2.08533">
        <ele>189.198581</ele>
        <time>2026-08-29T14:34:55Z</time>
      </trkpt>
      <trkpt lat="43.94301" lon="2.08532">
        <ele>189.19563</ele>
        <time>2026-08-29T14:34:56Z</time>
      </trkpt>
      <trkpt lat="43.94299" lon="2.0853">
        <ele>189.192736</ele>
        <time>2026-08-29T14:34:57Z</time>
      </trkpt>
      <trkpt lat="43.94297" lon="2.08529">
        <ele>189.189904</ele>
        <time>2026-08-29T14:34:58Z</time>
      </trkpt>
      <trkpt lat="43.94296" lon="2.08527">
        <ele>189.18701</ele>
        <time>2026-08-29T14:34:59Z</time>
      </trkpt>
      <trkpt lat="43.94294" lon="2.08525">
        <ele>189.183939</ele>
        <time>2026-08-29T14:35:00Z</time>
      </trkpt>
      <trkpt lat="43.94292" lon="2.08524">
        <ele>189.180868</ele>
        <time>2026-08-29T14:35:01Z</time>
      </trkpt>
      <trkpt lat="43.94291" lon="2.08522">
        <ele>189.177974</ele>
        <time>2026-08-29T14:35:02Z</time>
      </trkpt>
      <trkpt lat="43.94289" lon="2.0852">
        <ele>189.175233</ele>
        <time>2026-08-29T14:35:03Z</time>
      </trkpt>
      <trkpt lat="43.94288" lon="2.08519">
        <ele>189.172737</ele>
        <time>2026-08-29T14:35:04Z</time>
      </trkpt>
      <trkpt lat="43.94286" lon="2.08517">
        <ele>189.169996</ele>
        <time>2026-08-29T14:35:05Z</time>
      </trkpt>
      <trkpt lat="43.94285" lon="2.08515">
        <ele>189.167215</ele>
        <time>2026-08-29T14:35:06Z</time>
      </trkpt>
      <trkpt lat="43.94283" lon="2.08514">
        <ele>189.164321</ele>
        <time>2026-08-29T14:35:07Z</time>
      </trkpt>
      <trkpt lat="43.94282" lon="2.08512">
        <ele>189.161658</ele>
        <time>2026-08-29T14:35:08Z</time>
      </trkpt>
      <trkpt lat="43.9428" lon="2.08511">
        <ele>189.159117</ele>
        <time>2026-08-29T14:35:09Z</time>
      </trkpt>
      <trkpt lat="43.94279" lon="2.08509">
        <ele>189.156285</ele>
        <time>2026-08-29T14:35:10Z</time>
      </trkpt>
      <trkpt lat="43.94277" lon="2.08508">
        <ele>189.166484</ele>
        <time>2026-08-29T14:35:11Z</time>
      </trkpt>
      <trkpt lat="43.94275" lon="2.08507">
        <ele>189.207694</ele>
        <time>2026-08-29T14:35:12Z</time>
      </trkpt>
      <trkpt lat="43.94274" lon="2.08506">
        <ele>189.244233</ele>
        <time>2026-08-29T14:35:13Z</time>
      </trkpt>
      <trkpt lat="43.94272" lon="2.08505">
        <ele>189.283403</ele>
        <time>2026-08-29T14:35:14Z</time>
      </trkpt>
      <trkpt lat="43.9427" lon="2.08503">
        <ele>189.328622</ele>
        <time>2026-08-29T14:35:15Z</time>
      </trkpt>
      <trkpt lat="43.94268" lon="2.08502">
        <ele>189.3757</ele>
        <time>2026-08-29T14:35:16Z</time>
      </trkpt>
      <trkpt lat="43.94267" lon="2.085">
        <ele>189.421736</ele>
        <time>2026-08-29T14:35:17Z</time>
      </trkpt>
      <trkpt lat="43.94265" lon="2.08498">
        <ele>189.480319</ele>
        <time>2026-08-29T14:35:18Z</time>
      </trkpt>
      <trkpt lat="43.94262" lon="2.08496">
        <ele>189.536125</ele>
        <time>2026-08-29T14:35:19Z</time>
      </trkpt>
      <trkpt lat="43.9426" lon="2.08494">
        <ele>189.598095</ele>
        <time>2026-08-29T14:35:20Z</time>
      </trkpt>
      <trkpt lat="43.94257" lon="2.08491">
        <ele>189.665344</ele>
        <time>2026-08-29T14:35:21Z</time>
      </trkpt>
      <trkpt lat="43.94255" lon="2.08489">
        <ele>189.732004</ele>
        <time>2026-08-29T14:35:22Z</time>
      </trkpt>
      <trkpt lat="43.94252" lon="2.08487">
        <ele>189.801751</ele>
        <time>2026-08-29T14:35:23Z</time>
      </trkpt>
      <trkpt lat="43.94249" lon="2.08485">
        <ele>189.866266</ele>
        <time>2026-08-29T14:35:24Z</time>
      </trkpt>
      <trkpt lat="43.94246" lon="2.08484">
        <ele>189.930912</ele>
        <time>2026-08-29T14:35:25Z</time>
      </trkpt>
      <trkpt lat="43.94243" lon="2.08482">
        <ele>189.999336</ele>
        <time>2026-08-29T14:35:26Z</time>
      </trkpt>
      <trkpt lat="43.9424" lon="2.08481">
        <ele>190.06699</ele>
        <time>2026-08-29T14:35:27Z</time>
      </trkpt>
      <trkpt lat="43.94237" lon="2.08481">
        <ele>190.129939</ele>
        <time>2026-08-29T14:35:28Z</time>
      </trkpt>
      <trkpt lat="43.94234" lon="2.08481">
        <ele>190.194562</ele>
        <time>2026-08-29T14:35:29Z</time>
      </trkpt>
      <trkpt lat="43.94231" lon="2.08481">
        <ele>190.261501</ele>
        <time>2026-08-29T14:35:30Z</time>
      </trkpt>
      <trkpt lat="43.94228" lon="2.08481">
        <ele>190.326198</ele>
        <time>2026-08-29T14:35:31Z</time>
      </trkpt>
      <trkpt lat="43.94225" lon="2.08481">
        <ele>190.397301</ele>
        <time>2026-08-29T14:35:32Z</time>
      </trkpt>
      <trkpt lat="43.94222" lon="2.08481">
        <ele>190.468538</ele>
        <time>2026-08-29T14:35:33Z</time>
      </trkpt>
      <trkpt lat="43.94218" lon="2.08482">
        <ele>190.540045</ele>
        <time>2026-08-29T14:35:34Z</time>
      </trkpt>
      <trkpt lat="43.94215" lon="2.08482">
        <ele>190.611737</ele>
        <time>2026-08-29T14:35:35Z</time>
      </trkpt>
      <trkpt lat="43.94212" lon="2.08483">
        <ele>190.681103</ele>
        <time>2026-08-29T14:35:36Z</time>
      </trkpt>
      <trkpt lat="43.94209" lon="2.08484">
        <ele>190.749324</ele>
        <time>2026-08-29T14:35:37Z</time>
      </trkpt>
      <trkpt lat="43.94206" lon="2.08484">
        <ele>190.81273</ele>
        <time>2026-08-29T14:35:38Z</time>
      </trkpt>
      <trkpt lat="43.94203" lon="2.08485">
        <ele>190.876739</ele>
        <time>2026-08-29T14:35:39Z</time>
      </trkpt>
      <trkpt lat="43.942" lon="2.08486">
        <ele>190.937351</ele>
        <time>2026-08-29T14:35:40Z</time>
      </trkpt>
      <trkpt lat="43.94198" lon="2.08487">
        <ele>190.999628</ele>
        <time>2026-08-29T14:35:41Z</time>
      </trkpt>
      <trkpt lat="43.94195" lon="2.08488">
        <ele>191.059822</ele>
        <time>2026-08-29T14:35:42Z</time>
      </trkpt>
      <trkpt lat="43.94192" lon="2.08489">
        <ele>191.120015</ele>
        <time>2026-08-29T14:35:43Z</time>
      </trkpt>
      <trkpt lat="43.9419" lon="2.0849">
        <ele>191.178563</ele>
        <time>2026-08-29T14:35:44Z</time>
      </trkpt>
      <trkpt lat="43.94187" lon="2.08491">
        <ele>191.234604</ele>
        <time>2026-08-29T14:35:45Z</time>
      </trkpt>
      <trkpt lat="43.94184" lon="2.08492">
        <ele>191.294798</ele>
        <time>2026-08-29T14:35:46Z</time>
      </trkpt>
      <trkpt lat="43.94182" lon="2.08493">
        <ele>191.351847</ele>
        <time>2026-08-29T14:35:47Z</time>
      </trkpt>
      <trkpt lat="43.94179" lon="2.08494">
        <ele>191.402258</ele>
        <time>2026-08-29T14:35:48Z</time>
      </trkpt>
      <trkpt lat="43.94178" lon="2.08494">
        <ele>191.438393</ele>
        <time>2026-08-29T14:35:49Z</time>
      </trkpt>
      <trkpt lat="43.94177" lon="2.08495">
        <ele>191.456709</ele>
        <time>2026-08-29T14:35:50Z</time>
      </trkpt>
      <trkpt lat="43.94177" lon="2.08494">
        <ele>191.465581</ele>
        <time>2026-08-29T14:35:51Z</time>
      </trkpt>
      <trkpt lat="43.94177" lon="2.08494">
        <ele>191.465581</ele>
        <time>2026-08-29T14:35:52Z</time>
      </trkpt>
      <trkpt lat="43.94174" lon="2.08498">
        <ele>191.548783</ele>
        <time>2026-08-29T14:36:23Z</time>
      </trkpt>
      <trkpt lat="43.94172" lon="2.08498">
        <ele>191.596578</ele>
        <time>2026-08-29T14:36:24Z</time>
      </trkpt>
      <trkpt lat="43.94169" lon="2.08499">
        <ele>191.649745</ele>
        <time>2026-08-29T14:36:25Z</time>
      </trkpt>
      <trkpt lat="43.94167" lon="2.085">
        <ele>191.702911</ele>
        <time>2026-08-29T14:36:26Z</time>
      </trkpt>
      <trkpt lat="43.94164" lon="2.085">
        <ele>191.754385</ele>
        <time>2026-08-29T14:36:27Z</time>
      </trkpt>
      <trkpt lat="43.94162" lon="2.08501">
        <ele>191.814578</ele>
        <time>2026-08-29T14:36:28Z</time>
      </trkpt>
      <trkpt lat="43.94159" lon="2.08502">
        <ele>191.866052</ele>
        <time>2026-08-29T14:36:29Z</time>
      </trkpt>
      <trkpt lat="43.94157" lon="2.08504">
        <ele>191.918977</ele>
        <time>2026-08-29T14:36:30Z</time>
      </trkpt>
      <trkpt lat="43.94155" lon="2.08505">
        <ele>191.970892</ele>
        <time>2026-08-29T14:36:31Z</time>
      </trkpt>
      <trkpt lat="43.94153" lon="2.08505">
        <ele>192.022366</ele>
        <time>2026-08-29T14:36:32Z</time>
      </trkpt>
      <trkpt lat="43.9415" lon="2.08507">
        <ele>192.074766</ele>
        <time>2026-08-29T14:36:33Z</time>
      </trkpt>
      <trkpt lat="43.94148" lon="2.08508">
        <ele>192.12568</ele>
        <time>2026-08-29T14:36:34Z</time>
      </trkpt>
      <trkpt lat="43.94146" lon="2.08509">
        <ele>192.17808</ele>
        <time>2026-08-29T14:36:35Z</time>
      </trkpt>
      <trkpt lat="43.94143" lon="2.0851">
        <ele>192.231247</ele>
        <time>2026-08-29T14:36:36Z</time>
      </trkpt>
      <trkpt lat="43.94141" lon="2.08511">
        <ele>192.287288</ele>
        <time>2026-08-29T14:36:37Z</time>
      </trkpt>
      <trkpt lat="43.94139" lon="2.08512">
        <ele>192.337152</ele>
        <time>2026-08-29T14:36:38Z</time>
      </trkpt>
      <trkpt lat="43.94136" lon="2.08513">
        <ele>192.392644</ele>
        <time>2026-08-29T14:36:39Z</time>
      </trkpt>
      <trkpt lat="43.94134" lon="2.08514">
        <ele>192.446619</ele>
        <time>2026-08-29T14:36:40Z</time>
      </trkpt>
      <trkpt lat="43.94132" lon="2.08515">
        <ele>192.496797</ele>
        <time>2026-08-29T14:36:41Z</time>
      </trkpt>
      <trkpt lat="43.9413" lon="2.08516">
        <ele>192.543704</ele>
        <time>2026-08-29T14:36:42Z</time>
      </trkpt>
      <trkpt lat="43.94127" lon="2.08517">
        <ele>192.592322</ele>
        <time>2026-08-29T14:36:43Z</time>
      </trkpt>
      <trkpt lat="43.94125" lon="2.08517">
        <ele>192.640618</ele>
        <time>2026-08-29T14:36:44Z</time>
      </trkpt>
      <trkpt lat="43.94123" lon="2.08518">
        <ele>192.691029</ele>
        <time>2026-08-29T14:36:45Z</time>
      </trkpt>
      <trkpt lat="43.94121" lon="2.08519">
        <ele>192.739647</ele>
        <time>2026-08-29T14:36:46Z</time>
      </trkpt>
      <trkpt lat="43.94118" lon="2.08519">
        <ele>192.792176</ele>
        <time>2026-08-29T14:36:47Z</time>
      </trkpt>
      <trkpt lat="43.94116" lon="2.0852">
        <ele>192.842324</ele>
        <time>2026-08-29T14:36:48Z</time>
      </trkpt>
      <trkpt lat="43.94114" lon="2.08521">
        <ele>192.893797</ele>
        <time>2026-08-29T14:36:49Z</time>
      </trkpt>
      <trkpt lat="43.94112" lon="2.08522">
        <ele>192.944165</ele>
        <time>2026-08-29T14:36:50Z</time>
      </trkpt>
      <trkpt lat="43.94109" lon="2.08523">
        <ele>192.993569</ele>
        <time>2026-08-29T14:36:51Z</time>
      </trkpt>
      <trkpt lat="43.94107" lon="2.08523">
        <ele>193.062979</ele>
        <time>2026-08-29T14:36:52Z</time>
      </trkpt>
      <trkpt lat="43.94105" lon="2.08524">
        <ele>193.166757</ele>
        <time>2026-08-29T14:36:53Z</time>
      </trkpt>
      <trkpt lat="43.94103" lon="2.08525">
        <ele>193.25858</ele>
        <time>2026-08-29T14:36:54Z</time>
      </trkpt>
      <trkpt lat="43.94101" lon="2.08526">
        <ele>193.350097</ele>
        <time>2026-08-29T14:36:55Z</time>
      </trkpt>
      <trkpt lat="43.94099" lon="2.08526">
        <ele>193.455833</ele>
        <time>2026-08-29T14:36:56Z</time>
      </trkpt>
      <trkpt lat="43.94097" lon="2.08527">
        <ele>193.562447</ele>
        <time>2026-08-29T14:36:57Z</time>
      </trkpt>
      <trkpt lat="43.94095" lon="2.08528">
        <ele>193.674734</ele>
        <time>2026-08-29T14:36:58Z</time>
      </trkpt>
      <trkpt lat="43.94093" lon="2.08529">
        <ele>193.777666</ele>
        <time>2026-08-29T14:36:59Z</time>
      </trkpt>
      <trkpt lat="43.94091" lon="2.08529">
        <ele>193.87716</ele>
        <time>2026-08-29T14:37:00Z</time>
      </trkpt>
      <trkpt lat="43.94089" lon="2.0853">
        <ele>193.98579</ele>
        <time>2026-08-29T14:37:01Z</time>
      </trkpt>
      <trkpt lat="43.94087" lon="2.08531">
        <ele>194.097133</ele>
        <time>2026-08-29T14:37:02Z</time>
      </trkpt>
      <trkpt lat="43.94084" lon="2.08531">
        <ele>194.214125</ele>
        <time>2026-08-29T14:37:03Z</time>
      </trkpt>
      <trkpt lat="43.94082" lon="2.08532">
        <ele>194.328702</ele>
        <time>2026-08-29T14:37:04Z</time>
      </trkpt>
      <trkpt lat="43.9408" lon="2.08532">
        <ele>194.44219</ele>
        <time>2026-08-29T14:37:05Z</time>
      </trkpt>
      <trkpt lat="43.94078" lon="2.08533">
        <ele>194.546505</ele>
        <time>2026-08-29T14:37:06Z</time>
      </trkpt>
      <trkpt lat="43.94075" lon="2.08534">
        <ele>194.661082</ele>
        <time>2026-08-29T14:37:07Z</time>
      </trkpt>
      <trkpt lat="43.94073" lon="2.08534">
        <ele>194.778639</ele>
        <time>2026-08-29T14:37:08Z</time>
      </trkpt>
      <trkpt lat="43.94071" lon="2.08534">
        <ele>194.887783</ele>
        <time>2026-08-29T14:37:09Z</time>
      </trkpt>
      <trkpt lat="43.94069" lon="2.08535">
        <ele>194.991561</ele>
        <time>2026-08-29T14:37:10Z</time>
      </trkpt>
      <trkpt lat="43.94067" lon="2.08535">
        <ele>195.090491</ele>
        <time>2026-08-29T14:37:11Z</time>
      </trkpt>
      <trkpt lat="43.94065" lon="2.08535">
        <ele>195.184114</ele>
        <time>2026-08-29T14:37:12Z</time>
      </trkpt>
      <trkpt lat="43.94063" lon="2.08535">
        <ele>195.287171</ele>
        <time>2026-08-29T14:37:13Z</time>
      </trkpt>
      <trkpt lat="43.9406" lon="2.08536">
        <ele>195.399999</ele>
        <time>2026-08-29T14:37:14Z</time>
      </trkpt>
      <trkpt lat="43.94058" lon="2.08536">
        <ele>195.512662</ele>
        <time>2026-08-29T14:37:15Z</time>
      </trkpt>
      <trkpt lat="43.94056" lon="2.08535">
        <ele>195.625765</ele>
        <time>2026-08-29T14:37:16Z</time>
      </trkpt>
      <trkpt lat="43.94053" lon="2.08535">
        <ele>195.748621</ele>
        <time>2026-08-29T14:37:17Z</time>
      </trkpt>
      <trkpt lat="43.94051" lon="2.08534">
        <ele>195.878287</ele>
        <time>2026-08-29T14:37:18Z</time>
      </trkpt>
      <trkpt lat="43.94048" lon="2.08533">
        <ele>196.015098</ele>
        <time>2026-08-29T14:37:19Z</time>
      </trkpt>
      <trkpt lat="43.94045" lon="2.08532">
        <ele>196.159644</ele>
        <time>2026-08-29T14:37:20Z</time>
      </trkpt>
      <trkpt lat="43.94042" lon="2.08531">
        <ele>196.311155</ele>
        <time>2026-08-29T14:37:21Z</time>
      </trkpt>
      <trkpt lat="43.94039" lon="2.08529">
        <ele>196.469792</ele>
        <time>2026-08-29T14:37:22Z</time>
      </trkpt>
      <trkpt lat="43.94036" lon="2.08528">
        <ele>196.613258</ele>
        <time>2026-08-29T14:37:23Z</time>
      </trkpt>
      <trkpt lat="43.94033" lon="2.08526">
        <ele>196.782196</ele>
        <time>2026-08-29T14:37:24Z</time>
      </trkpt>
      <trkpt lat="43.9403" lon="2.08525">
        <ele>196.956857</ele>
        <time>2026-08-29T14:37:25Z</time>
      </trkpt>
      <trkpt lat="43.94026" lon="2.08523">
        <ele>197.138395</ele>
        <time>2026-08-29T14:37:26Z</time>
      </trkpt>
      <trkpt lat="43.94023" lon="2.08521">
        <ele>197.316544</ele>
        <time>2026-08-29T14:37:27Z</time>
      </trkpt>
      <trkpt lat="43.9402" lon="2.08519">
        <ele>197.492954</ele>
        <time>2026-08-29T14:37:28Z</time>
      </trkpt>
      <trkpt lat="43.94016" lon="2.08517">
        <ele>197.673727</ele>
        <time>2026-08-29T14:37:29Z</time>
      </trkpt>
      <trkpt lat="43.94013" lon="2.08515">
        <ele>197.832254</ele>
        <time>2026-08-29T14:37:30Z</time>
      </trkpt>
      <trkpt lat="43.94011" lon="2.08513">
        <ele>197.977397</ele>
        <time>2026-08-29T14:37:31Z</time>
      </trkpt>
      <trkpt lat="43.94009" lon="2.08511">
        <ele>198.100107</ele>
        <time>2026-08-29T14:37:32Z</time>
      </trkpt>
      <trkpt lat="43.94007" lon="2.0851">
        <ele>198.212675</ele>
        <time>2026-08-29T14:37:33Z</time>
      </trkpt>
      <trkpt lat="43.94005" lon="2.08509">
        <ele>198.314575</ele>
        <time>2026-08-29T14:37:34Z</time>
      </trkpt>
      <trkpt lat="43.94003" lon="2.08508">
        <ele>198.405206</ele>
        <time>2026-08-29T14:37:35Z</time>
      </trkpt>
      <trkpt lat="43.94001" lon="2.08508">
        <ele>198.479325</ele>
        <time>2026-08-29T14:37:36Z</time>
      </trkpt>
      <trkpt lat="43.94" lon="2.08507">
        <ele>198.566734</ele>
        <time>2026-08-29T14:37:37Z</time>
      </trkpt>
      <trkpt lat="43.93998" lon="2.08505">
        <ele>198.657232</ele>
        <time>2026-08-29T14:37:38Z</time>
      </trkpt>
      <trkpt lat="43.93997" lon="2.08504">
        <ele>198.743799</ele>
        <time>2026-08-29T14:37:39Z</time>
      </trkpt>
      <trkpt lat="43.93995" lon="2.08503">
        <ele>198.840041</ele>
        <time>2026-08-29T14:37:40Z</time>
      </trkpt>
      <trkpt lat="43.93993" lon="2.08502">
        <ele>198.934958</ele>
        <time>2026-08-29T14:37:41Z</time>
      </trkpt>
      <trkpt lat="43.93991" lon="2.08501">
        <ele>199.040278</ele>
        <time>2026-08-29T14:37:42Z</time>
      </trkpt>
      <trkpt lat="43.93989" lon="2.085">
        <ele>199.133943</ele>
        <time>2026-08-29T14:37:43Z</time>
      </trkpt>
      <trkpt lat="43.93987" lon="2.08499">
        <ele>199.233423</ele>
        <time>2026-08-29T14:37:44Z</time>
      </trkpt>
      <trkpt lat="43.93986" lon="2.08498">
        <ele>199.316681</ele>
        <time>2026-08-29T14:37:45Z</time>
      </trkpt>
      <trkpt lat="43.93984" lon="2.08498">
        <ele>199.391463</ele>
        <time>2026-08-29T14:37:46Z</time>
      </trkpt>
      <trkpt lat="43.93983" lon="2.08498">
        <ele>199.46566</ele>
        <time>2026-08-29T14:37:47Z</time>
      </trkpt>
      <trkpt lat="43.93982" lon="2.08497">
        <ele>199.526454</ele>
        <time>2026-08-29T14:37:48Z</time>
      </trkpt>
      <trkpt lat="43.93981" lon="2.08496">
        <ele>199.573913</ele>
        <time>2026-08-29T14:37:49Z</time>
      </trkpt>
      <trkpt lat="43.9398" lon="2.08496">
        <ele>199.621372</ele>
        <time>2026-08-29T14:37:50Z</time>
      </trkpt>
      <trkpt lat="43.93979" lon="2.08495">
        <ele>199.680612</ele>
        <time>2026-08-29T14:37:51Z</time>
      </trkpt>
      <trkpt lat="43.93978" lon="2.08495">
        <ele>199.737279</ele>
        <time>2026-08-29T14:37:52Z</time>
      </trkpt>
      <trkpt lat="43.93976" lon="2.08494">
        <ele>199.799723</ele>
        <time>2026-08-29T14:37:53Z</time>
      </trkpt>
      <trkpt lat="43.93975" lon="2.08493">
        <ele>199.865767</ele>
        <time>2026-08-29T14:37:54Z</time>
      </trkpt>
      <trkpt lat="43.93974" lon="2.08493">
        <ele>199.930937</ele>
        <time>2026-08-29T14:37:55Z</time>
      </trkpt>
      <trkpt lat="43.93973" lon="2.08492">
        <ele>200.005469</ele>
        <time>2026-08-29T14:37:56Z</time>
      </trkpt>
      <trkpt lat="43.93971" lon="2.08491">
        <ele>200.077202</ele>
        <time>2026-08-29T14:37:57Z</time>
      </trkpt>
      <trkpt lat="43.9397" lon="2.0849">
        <ele>200.149962</ele>
        <time>2026-08-29T14:37:58Z</time>
      </trkpt>
      <trkpt lat="43.93969" lon="2.08489">
        <ele>200.212469</ele>
        <time>2026-08-29T14:37:59Z</time>
      </trkpt>
      <trkpt lat="43.93968" lon="2.08488">
        <ele>200.268971</ele>
        <time>2026-08-29T14:38:00Z</time>
      </trkpt>
      <trkpt lat="43.93967" lon="2.08488">
        <ele>200.309245</ele>
        <time>2026-08-29T14:38:01Z</time>
      </trkpt>
      <trkpt lat="43.93966" lon="2.08487">
        <ele>200.375611</ele>
        <time>2026-08-29T14:38:02Z</time>
      </trkpt>
      <trkpt lat="43.93965" lon="2.08485">
        <ele>200.452867</ele>
        <time>2026-08-29T14:38:03Z</time>
      </trkpt>
      <trkpt lat="43.93964" lon="2.08483">
        <ele>200.539756</ele>
        <time>2026-08-29T14:38:04Z</time>
      </trkpt>
      <trkpt lat="43.93964" lon="2.08481">
        <ele>200.61614</ele>
        <time>2026-08-29T14:38:05Z</time>
      </trkpt>
      <trkpt lat="43.93964" lon="2.08479">
        <ele>200.686819</ele>
        <time>2026-08-29T14:38:06Z</time>
      </trkpt>
      <trkpt lat="43.93964" lon="2.08477">
        <ele>200.746951</ele>
        <time>2026-08-29T14:38:07Z</time>
      </trkpt>
      <trkpt lat="43.93964" lon="2.08476">
        <ele>200.793043</ele>
        <time>2026-08-29T14:38:08Z</time>
      </trkpt>
      <trkpt lat="43.93964" lon="2.08475">
        <ele>200.817775</ele>
        <time>2026-08-29T14:38:09Z</time>
      </trkpt>
      <trkpt lat="43.93964" lon="2.08476">
        <ele>200.852111</ele>
        <time>2026-08-29T14:38:10Z</time>
      </trkpt>
      <trkpt lat="43.93977" lon="2.08466">
        <ele>201.5823</ele>
        <time>2026-08-29T14:40:15Z</time>
      </trkpt>
      <trkpt lat="43.93975" lon="2.08467">
        <ele>201.663441</ele>
        <time>2026-08-29T14:40:16Z</time>
      </trkpt>
      <trkpt lat="43.93973" lon="2.08468">
        <ele>201.769177</ele>
        <time>2026-08-29T14:40:17Z</time>
      </trkpt>
      <trkpt lat="43.93971" lon="2.08469">
        <ele>201.890142</ele>
        <time>2026-08-29T14:40:18Z</time>
      </trkpt>
      <trkpt lat="43.93968" lon="2.0847">
        <ele>202.01374</ele>
        <time>2026-08-29T14:40:19Z</time>
      </trkpt>
      <trkpt lat="43.93965" lon="2.08471">
        <ele>202.138025</ele>
        <time>2026-08-29T14:40:20Z</time>
      </trkpt>
      <trkpt lat="43.93962" lon="2.08471">
        <ele>202.254642</ele>
        <time>2026-08-29T14:40:21Z</time>
      </trkpt>
      <trkpt lat="43.9396" lon="2.0847">
        <ele>202.344117</ele>
        <time>2026-08-29T14:40:22Z</time>
      </trkpt>
      <trkpt lat="43.93959" lon="2.08467">
        <ele>202.427829</ele>
        <time>2026-08-29T14:40:23Z</time>
      </trkpt>
      <trkpt lat="43.93958" lon="2.08466">
        <ele>202.498539</ele>
        <time>2026-08-29T14:40:24Z</time>
      </trkpt>
      <trkpt lat="43.93957" lon="2.08464">
        <ele>202.576316</ele>
        <time>2026-08-29T14:40:25Z</time>
      </trkpt>
      <trkpt lat="43.93956" lon="2.08461">
        <ele>202.661524</ele>
        <time>2026-08-29T14:40:26Z</time>
      </trkpt>
      <trkpt lat="43.93955" lon="2.08459">
        <ele>202.746761</ele>
        <time>2026-08-29T14:40:27Z</time>
      </trkpt>
      <trkpt lat="43.93953" lon="2.08457">
        <ele>202.829706</ele>
        <time>2026-08-29T14:40:28Z</time>
      </trkpt>
      <trkpt lat="43.93952" lon="2.08455">
        <ele>202.910176</ele>
        <time>2026-08-29T14:40:29Z</time>
      </trkpt>
      <trkpt lat="43.93951" lon="2.08453">
        <ele>202.983645</ele>
        <time>2026-08-29T14:40:30Z</time>
      </trkpt>
      <trkpt lat="43.9395" lon="2.08451">
        <ele>203.056838</ele>
        <time>2026-08-29T14:40:31Z</time>
      </trkpt>
      <trkpt lat="43.9395" lon="2.08448">
        <ele>203.127297</ele>
        <time>2026-08-29T14:40:32Z</time>
      </trkpt>
      <trkpt lat="43.9395" lon="2.08446">
        <ele>203.193189</ele>
        <time>2026-08-29T14:40:33Z</time>
      </trkpt>
      <trkpt lat="43.93949" lon="2.08444">
        <ele>203.257311</ele>
        <time>2026-08-29T14:40:34Z</time>
      </trkpt>
      <trkpt lat="43.93949" lon="2.08442">
        <ele>203.330268</ele>
        <time>2026-08-29T14:40:35Z</time>
      </trkpt>
      <trkpt lat="43.93948" lon="2.08439">
        <ele>203.403536</ele>
        <time>2026-08-29T14:40:36Z</time>
      </trkpt>
      <trkpt lat="43.93948" lon="2.08437">
        <ele>203.480038</ele>
        <time>2026-08-29T14:40:37Z</time>
      </trkpt>
      <trkpt lat="43.93947" lon="2.08434">
        <ele>203.565987</ele>
        <time>2026-08-29T14:40:38Z</time>
      </trkpt>
      <trkpt lat="43.93946" lon="2.08431">
        <ele>203.657366</ele>
        <time>2026-08-29T14:40:39Z</time>
      </trkpt>
      <trkpt lat="43.93946" lon="2.08429">
        <ele>203.733276</ele>
        <time>2026-08-29T14:40:40Z</time>
      </trkpt>
      <trkpt lat="43.93946" lon="2.08427">
        <ele>203.803283</ele>
        <time>2026-08-29T14:40:41Z</time>
      </trkpt>
      <trkpt lat="43.93945" lon="2.08424">
        <ele>203.875241</ele>
        <time>2026-08-29T14:40:42Z</time>
      </trkpt>
      <trkpt lat="43.93945" lon="2.08422">
        <ele>203.944253</ele>
        <time>2026-08-29T14:40:43Z</time>
      </trkpt>
      <trkpt lat="43.93945" lon="2.0842">
        <ele>204.01959</ele>
        <time>2026-08-29T14:40:44Z</time>
      </trkpt>
      <trkpt lat="43.93945" lon="2.08417">
        <ele>204.098516</ele>
        <time>2026-08-29T14:40:45Z</time>
      </trkpt>
      <trkpt lat="43.93945" lon="2.08414">
        <ele>204.182482</ele>
        <time>2026-08-29T14:40:46Z</time>
      </trkpt>
      <trkpt lat="43.93945" lon="2.08412">
        <ele>204.260796</ele>
        <time>2026-08-29T14:40:47Z</time>
      </trkpt>
      <trkpt lat="43.93946" lon="2.08409">
        <ele>204.345427</ele>
        <time>2026-08-29T14:40:48Z</time>
      </trkpt>
      <trkpt lat="43.93945" lon="2.08408">
        <ele>204.372912</ele>
        <time>2026-08-29T14:40:49Z</time>
      </trkpt>
      <trkpt lat="43.93945" lon="2.08408">
        <ele>204.390595</ele>
        <time>2026-08-29T14:40:50Z</time>
      </trkpt>
      <trkpt lat="43.93945" lon="2.08408">
        <ele>204.403277</ele>
        <time>2026-08-29T14:40:51Z</time>
      </trkpt>
      <trkpt lat="43.9396" lon="2.08314">
        <ele>207.263784</ele>
        <time>2026-08-29T14:47:29Z</time>
      </trkpt>
      <trkpt lat="43.93958" lon="2.08318">
        <ele>207.385434</ele>
        <time>2026-08-29T14:47:30Z</time>
      </trkpt>
      <trkpt lat="43.93957" lon="2.08322">
        <ele>207.515226</ele>
        <time>2026-08-29T14:47:31Z</time>
      </trkpt>
      <trkpt lat="43.93955" lon="2.08326">
        <ele>207.649662</ele>
        <time>2026-08-29T14:47:32Z</time>
      </trkpt>
      <trkpt lat="43.93954" lon="2.08329">
        <ele>207.772204</ele>
        <time>2026-08-29T14:47:33Z</time>
      </trkpt>
      <trkpt lat="43.93952" lon="2.08332">
        <ele>207.889086</ele>
        <time>2026-08-29T14:47:34Z</time>
      </trkpt>
      <trkpt lat="43.93951" lon="2.08336">
        <ele>208.004653</ele>
        <time>2026-08-29T14:47:35Z</time>
      </trkpt>
      <trkpt lat="43.93951" lon="2.0834">
        <ele>208.130168</ele>
        <time>2026-08-29T14:47:36Z</time>
      </trkpt>
      <trkpt lat="43.9395" lon="2.08344">
        <ele>208.249979</ele>
        <time>2026-08-29T14:47:37Z</time>
      </trkpt>
      <trkpt lat="43.93949" lon="2.08348">
        <ele>208.389859</ele>
        <time>2026-08-29T14:47:38Z</time>
      </trkpt>
      <trkpt lat="43.93948" lon="2.08353">
        <ele>208.54619</ele>
        <time>2026-08-29T14:47:39Z</time>
      </trkpt>
      <trkpt lat="43.93947" lon="2.08358">
        <ele>208.69145</ele>
        <time>2026-08-29T14:47:40Z</time>
      </trkpt>
      <trkpt lat="43.93947" lon="2.08362">
        <ele>208.819695</ele>
        <time>2026-08-29T14:47:41Z</time>
      </trkpt>
      <trkpt lat="43.93946" lon="2.08366">
        <ele>208.937681</ele>
        <time>2026-08-29T14:47:42Z</time>
      </trkpt>
      <trkpt lat="43.93946" lon="2.0837">
        <ele>209.048499</ele>
        <time>2026-08-29T14:47:43Z</time>
      </trkpt>
      <trkpt lat="43.93946" lon="2.08374">
        <ele>209.168302</ele>
        <time>2026-08-29T14:47:44Z</time>
      </trkpt>
      <trkpt lat="43.93946" lon="2.08379">
        <ele>209.310598</ele>
        <time>2026-08-29T14:47:45Z</time>
      </trkpt>
      <trkpt lat="43.93946" lon="2.08383">
        <ele>209.072945</ele>
        <time>2026-08-29T14:47:46Z</time>
      </trkpt>
      <trkpt lat="43.93946" lon="2.08387">
        <ele>208.806016</ele>
        <time>2026-08-29T14:47:47Z</time>
      </trkpt>
      <trkpt lat="43.93946" lon="2.08391">
        <ele>208.562769</ele>
        <time>2026-08-29T14:47:48Z</time>
      </trkpt>
      <trkpt lat="43.93946" lon="2.08396">
        <ele>208.289643</ele>
        <time>2026-08-29T14:47:49Z</time>
      </trkpt>
      <trkpt lat="43.93945" lon="2.084">
        <ele>208.037371</ele>
        <time>2026-08-29T14:47:50Z</time>
      </trkpt>
      <trkpt lat="43.93945" lon="2.08404">
        <ele>207.811489</ele>
        <time>2026-08-29T14:47:51Z</time>
      </trkpt>
      <trkpt lat="43.93945" lon="2.08407">
        <ele>207.605054</ele>
        <time>2026-08-29T14:47:52Z</time>
      </trkpt>
      <trkpt lat="43.93945" lon="2.08411">
        <ele>207.386495</ele>
        <time>2026-08-29T14:47:53Z</time>
      </trkpt>
      <trkpt lat="43.93945" lon="2.08414">
        <ele>207.198242</ele>
        <time>2026-08-29T14:47:54Z</time>
      </trkpt>
      <trkpt lat="43.93944" lon="2.08416">
        <ele>207.011166</ele>
        <time>2026-08-29T14:47:55Z</time>
      </trkpt>
      <trkpt lat="43.93942" lon="2.08416">
        <ele>206.851092</ele>
        <time>2026-08-29T14:47:56Z</time>
      </trkpt>
      <trkpt lat="43.9394" lon="2.08415">
        <ele>206.697891</ele>
        <time>2026-08-29T14:47:57Z</time>
      </trkpt>
      <trkpt lat="43.9394" lon="2.08413">
        <ele>206.574688</ele>
        <time>2026-08-29T14:47:58Z</time>
      </trkpt>
      <trkpt lat="43.9394" lon="2.08411">
        <ele>206.410026</ele>
        <time>2026-08-29T14:47:59Z</time>
      </trkpt>
      <trkpt lat="43.9394" lon="2.08408">
        <ele>206.233894</ele>
        <time>2026-08-29T14:48:00Z</time>
      </trkpt>
      <trkpt lat="43.9394" lon="2.08406">
        <ele>206.099369</ele>
        <time>2026-08-29T14:48:01Z</time>
      </trkpt>
      <trkpt lat="43.9394" lon="2.08404">
        <ele>205.982879</ele>
        <time>2026-08-29T14:48:02Z</time>
      </trkpt>
      <trkpt lat="43.93939" lon="2.08402">
        <ele>205.860383</ele>
        <time>2026-08-29T14:48:03Z</time>
      </trkpt>
      <trkpt lat="43.93939" lon="2.084">
        <ele>205.731875</ele>
        <time>2026-08-29T14:48:04Z</time>
      </trkpt>
      <trkpt lat="43.93939" lon="2.08397">
        <ele>205.573247</ele>
        <time>2026-08-29T14:48:05Z</time>
      </trkpt>
      <trkpt lat="43.93939" lon="2.08394">
        <ele>205.385183</ele>
        <time>2026-08-29T14:48:06Z</time>
      </trkpt>
      <trkpt lat="43.93939" lon="2.0839">
        <ele>205.14252</ele>
        <time>2026-08-29T14:48:07Z</time>
      </trkpt>
      <trkpt lat="43.93939" lon="2.08386">
        <ele>204.909539</ele>
        <time>2026-08-29T14:48:08Z</time>
      </trkpt>
      <trkpt lat="43.93938" lon="2.08382">
        <ele>204.645297</ele>
        <time>2026-08-29T14:48:09Z</time>
      </trkpt>
      <trkpt lat="43.93938" lon="2.08377">
        <ele>204.382266</ele>
        <time>2026-08-29T14:48:10Z</time>
      </trkpt>
      <trkpt lat="43.93938" lon="2.08373">
        <ele>204.121403</ele>
        <time>2026-08-29T14:48:11Z</time>
      </trkpt>
      <trkpt lat="43.93938" lon="2.08369">
        <ele>203.860404</ele>
        <time>2026-08-29T14:48:12Z</time>
      </trkpt>
      <trkpt lat="43.93937" lon="2.08364">
        <ele>203.564853</ele>
        <time>2026-08-29T14:48:13Z</time>
      </trkpt>
      <trkpt lat="43.93936" lon="2.08359">
        <ele>203.232469</ele>
        <time>2026-08-29T14:48:14Z</time>
      </trkpt>
      <trkpt lat="43.93935" lon="2.08354">
        <ele>202.931563</ele>
        <time>2026-08-29T14:48:15Z</time>
      </trkpt>
      <trkpt lat="43.93934" lon="2.08349">
        <ele>202.626121</ele>
        <time>2026-08-29T14:48:16Z</time>
      </trkpt>
      <trkpt lat="43.93932" lon="2.08344">
        <ele>202.274965</ele>
        <time>2026-08-29T14:48:17Z</time>
      </trkpt>
      <trkpt lat="43.93929" lon="2.0834">
        <ele>201.934859</ele>
        <time>2026-08-29T14:48:18Z</time>
      </trkpt>
      <trkpt lat="43.93926" lon="2.08337">
        <ele>201.580137</ele>
        <time>2026-08-29T14:48:19Z</time>
      </trkpt>
      <trkpt lat="43.93923" lon="2.08332">
        <ele>201.227128</ele>
        <time>2026-08-29T14:48:20Z</time>
      </trkpt>
      <trkpt lat="43.9392" lon="2.08328">
        <ele>200.882386</ele>
        <time>2026-08-29T14:48:21Z</time>
      </trkpt>
      <trkpt lat="43.93919" lon="2.08323">
        <ele>200.55689</ele>
        <time>2026-08-29T14:48:22Z</time>
      </trkpt>
      <trkpt lat="43.93919" lon="2.08317">
        <ele>200.209455</ele>
        <time>2026-08-29T14:48:23Z</time>
      </trkpt>
      <trkpt lat="43.93919" lon="2.08311">
        <ele>199.868058</ele>
        <time>2026-08-29T14:48:24Z</time>
      </trkpt>
      <trkpt lat="43.9392" lon="2.08306">
        <ele>199.568891</ele>
        <time>2026-08-29T14:48:25Z</time>
      </trkpt>
      <trkpt lat="43.9392" lon="2.08301">
        <ele>199.27115</ele>
        <time>2026-08-29T14:48:26Z</time>
      </trkpt>
      <trkpt lat="43.9392" lon="2.08296">
        <ele>198.955574</ele>
        <time>2026-08-29T14:48:27Z</time>
      </trkpt>
      <trkpt lat="43.9392" lon="2.08291">
        <ele>198.639998</ele>
        <time>2026-08-29T14:48:28Z</time>
      </trkpt>
      <trkpt lat="43.9392" lon="2.08286">
        <ele>198.342615</ele>
        <time>2026-08-29T14:48:29Z</time>
      </trkpt>
      <trkpt lat="43.9392" lon="2.08281">
        <ele>198.051297</ele>
        <time>2026-08-29T14:48:30Z</time>
      </trkpt>
      <trkpt lat="43.93921" lon="2.08277">
        <ele>197.754188</ele>
        <time>2026-08-29T14:48:31Z</time>
      </trkpt>
      <trkpt lat="43.93922" lon="2.08273">
        <ele>197.48982</ele>
        <time>2026-08-29T14:48:32Z</time>
      </trkpt>
      <trkpt lat="43.93923" lon="2.08268">
        <ele>197.22039</ele>
        <time>2026-08-29T14:48:33Z</time>
      </trkpt>
      <trkpt lat="43.93923" lon="2.08263">
        <ele>196.921222</ele>
        <time>2026-08-29T14:48:34Z</time>
      </trkpt>
      <trkpt lat="43.93924" lon="2.08259">
        <ele>196.619692</ele>
        <time>2026-08-29T14:48:35Z</time>
      </trkpt>
      <trkpt lat="43.93924" lon="2.08254">
        <ele>196.314496</ele>
        <time>2026-08-29T14:48:36Z</time>
      </trkpt>
      <trkpt lat="43.93925" lon="2.08248">
        <ele>195.968145</ele>
        <time>2026-08-29T14:48:37Z</time>
      </trkpt>
      <trkpt lat="43.93926" lon="2.08242">
        <ele>195.591995</ele>
        <time>2026-08-29T14:48:38Z</time>
      </trkpt>
      <trkpt lat="43.93927" lon="2.08236">
        <ele>195.20235</ele>
        <time>2026-08-29T14:48:39Z</time>
      </trkpt>
      <trkpt lat="43.93928" lon="2.08229">
        <ele>194.8246</ele>
        <time>2026-08-29T14:48:40Z</time>
      </trkpt>
      <trkpt lat="43.93929" lon="2.08223">
        <ele>194.433229</ele>
        <time>2026-08-29T14:48:41Z</time>
      </trkpt>
      <trkpt lat="43.9393" lon="2.08217">
        <ele>194.076918</ele>
        <time>2026-08-29T14:48:42Z</time>
      </trkpt>
      <trkpt lat="43.93931" lon="2.08213">
        <ele>193.782563</ele>
        <time>2026-08-29T14:48:43Z</time>
      </trkpt>
      <trkpt lat="43.9393" lon="2.08208">
        <ele>193.511069</ele>
        <time>2026-08-29T14:48:44Z</time>
      </trkpt>
      <trkpt lat="43.93928" lon="2.08206">
        <ele>193.264657</ele>
        <time>2026-08-29T14:48:45Z</time>
      </trkpt>
      <trkpt lat="43.93925" lon="2.08205">
        <ele>192.971691</ele>
        <time>2026-08-29T14:48:46Z</time>
      </trkpt>
      <trkpt lat="43.93921" lon="2.08205">
        <ele>192.696481</ele>
        <time>2026-08-29T14:48:47Z</time>
      </trkpt>
      <trkpt lat="43.93919" lon="2.08207">
        <ele>192.444905</ele>
        <time>2026-08-29T14:48:48Z</time>
      </trkpt>
      <trkpt lat="43.93917" lon="2.08211">
        <ele>192.181853</ele>
        <time>2026-08-29T14:48:49Z</time>
      </trkpt>
      <trkpt lat="43.93916" lon="2.08215">
        <ele>191.916252</ele>
        <time>2026-08-29T14:48:50Z</time>
      </trkpt>
      <trkpt lat="43.93914" lon="2.08219">
        <ele>191.634168</ele>
        <time>2026-08-29T14:48:51Z</time>
      </trkpt>
      <trkpt lat="43.93913" lon="2.08223">
        <ele>191.372233</ele>
        <time>2026-08-29T14:48:52Z</time>
      </trkpt>
      <trkpt lat="43.93912" lon="2.08227">
        <ele>191.112071</ele>
        <time>2026-08-29T14:48:53Z</time>
      </trkpt>
      <trkpt lat="43.9391" lon="2.08231">
        <ele>190.855655</ele>
        <time>2026-08-29T14:48:54Z</time>
      </trkpt>
      <trkpt lat="43.93909" lon="2.08234">
        <ele>190.621025</ele>
        <time>2026-08-29T14:48:55Z</time>
      </trkpt>
      <trkpt lat="43.93908" lon="2.08237">
        <ele>190.404904</ele>
        <time>2026-08-29T14:48:56Z</time>
      </trkpt>
      <trkpt lat="43.93907" lon="2.08241">
        <ele>190.177721</ele>
        <time>2026-08-29T14:48:57Z</time>
      </trkpt>
      <trkpt lat="43.93905" lon="2.08244">
        <ele>189.949506</ele>
        <time>2026-08-29T14:48:58Z</time>
      </trkpt>
      <trkpt lat="43.93904" lon="2.08247">
        <ele>189.755102</ele>
        <time>2026-08-29T14:48:59Z</time>
      </trkpt>
      <trkpt lat="43.93904" lon="2.08249">
        <ele>189.593911</ele>
        <time>2026-08-29T14:49:00Z</time>
      </trkpt>
      <trkpt lat="43.93903" lon="2.08251">
        <ele>189.467398</ele>
        <time>2026-08-29T14:49:01Z</time>
      </trkpt>
      <trkpt lat="43.93903" lon="2.08253">
        <ele>189.349809</ele>
        <time>2026-08-29T14:49:02Z</time>
      </trkpt>
      <trkpt lat="43.93902" lon="2.08255">
        <ele>189.2092</ele>
        <time>2026-08-29T14:49:03Z</time>
      </trkpt>
      <trkpt lat="43.93902" lon="2.08257">
        <ele>189.074391</ele>
        <time>2026-08-29T14:49:04Z</time>
      </trkpt>
      <trkpt lat="43.93901" lon="2.08259">
        <ele>188.975414</ele>
        <time>2026-08-29T14:49:05Z</time>
      </trkpt>
      <trkpt lat="43.93901" lon="2.08261">
        <ele>188.868734</ele>
        <time>2026-08-29T14:49:06Z</time>
      </trkpt>
      <trkpt lat="43.93901" lon="2.08262">
        <ele>188.750179</ele>
        <time>2026-08-29T14:49:07Z</time>
      </trkpt>
      <trkpt lat="43.93901" lon="2.08264">
        <ele>188.661152</ele>
        <time>2026-08-29T14:49:08Z</time>
      </trkpt>
      <trkpt lat="43.939" lon="2.08266">
        <ele>188.514556</ele>
        <time>2026-08-29T14:49:09Z</time>
      </trkpt>
      <trkpt lat="43.93899" lon="2.08268">
        <ele>188.390778</ele>
        <time>2026-08-29T14:49:10Z</time>
      </trkpt>
      <trkpt lat="43.93899" lon="2.0827">
        <ele>188.266263</ele>
        <time>2026-08-29T14:49:11Z</time>
      </trkpt>
      <trkpt lat="43.93899" lon="2.08271">
        <ele>188.174448</ele>
        <time>2026-08-29T14:49:12Z</time>
      </trkpt>
      <trkpt lat="43.93899" lon="2.08272">
        <ele>188.102756</ele>
        <time>2026-08-29T14:49:13Z</time>
      </trkpt>
      <trkpt lat="43.93898" lon="2.08272">
        <ele>188.022722</ele>
        <time>2026-08-29T14:49:14Z</time>
      </trkpt>
      <trkpt lat="43.93894" lon="2.08273">
        <ele>187.646276</ele>
        <time>2026-08-29T14:49:27Z</time>
      </trkpt>
      <trkpt lat="43.93892" lon="2.08272">
        <ele>187.459664</ele>
        <time>2026-08-29T14:49:28Z</time>
      </trkpt>
      <trkpt lat="43.9389" lon="2.08272">
        <ele>187.289394</ele>
        <time>2026-08-29T14:49:29Z</time>
      </trkpt>
      <trkpt lat="43.93887" lon="2.08272">
        <ele>187.103081</ele>
        <time>2026-08-29T14:49:30Z</time>
      </trkpt>
      <trkpt lat="43.93885" lon="2.08272">
        <ele>186.941224</ele>
        <time>2026-08-29T14:49:31Z</time>
      </trkpt>
      <trkpt lat="43.93884" lon="2.08271">
        <ele>186.795108</ele>
        <time>2026-08-29T14:49:32Z</time>
      </trkpt>
      <trkpt lat="43.93883" lon="2.0827">
        <ele>186.702904</ele>
        <time>2026-08-29T14:49:33Z</time>
      </trkpt>
      <trkpt lat="43.93882" lon="2.0827">
        <ele>186.654062</ele>
        <time>2026-08-29T14:49:34Z</time>
      </trkpt>
      <trkpt lat="43.93882" lon="2.0827">
        <ele>186.618078</ele>
        <time>2026-08-29T14:49:35Z</time>
      </trkpt>
      <trkpt lat="43.93882" lon="2.0827">
        <ele>186.589911</ele>
        <time>2026-08-29T14:49:36Z</time>
      </trkpt>
      <trkpt lat="43.93882" lon="2.0827">
        <ele>186.57507</ele>
        <time>2026-08-29T14:49:37Z</time>
      </trkpt>
      <trkpt lat="43.93882" lon="2.0827">
        <ele>186.546903</ele>
        <time>2026-08-29T14:49:38Z</time>
      </trkpt>
      <trkpt lat="43.93882" lon="2.08269">
        <ele>186.512042</ele>
        <time>2026-08-29T14:49:39Z</time>
      </trkpt>
      <trkpt lat="43.93881" lon="2.08269">
        <ele>186.451551</ele>
        <time>2026-08-29T14:49:40Z</time>
      </trkpt>
      <trkpt lat="43.93881" lon="2.08269">
        <ele>186.415567</ele>
        <time>2026-08-29T14:49:41Z</time>
      </trkpt>
      <trkpt lat="43.9388" lon="2.08269">
        <ele>186.345428</ele>
        <time>2026-08-29T14:49:42Z</time>
      </trkpt>
      <trkpt lat="43.93879" lon="2.08269">
        <ele>186.282845</ele>
        <time>2026-08-29T14:49:43Z</time>
      </trkpt>
      <trkpt lat="43.93879" lon="2.08268">
        <ele>186.251217</ele>
        <time>2026-08-29T14:49:44Z</time>
      </trkpt>
      <trkpt lat="43.93885" lon="2.08261">
        <ele>185.598774</ele>
        <time>2026-08-29T14:50:51Z</time>
      </trkpt>
      <trkpt lat="43.93886" lon="2.08258">
        <ele>185.397285</ele>
        <time>2026-08-29T14:50:52Z</time>
      </trkpt>
      <trkpt lat="43.93887" lon="2.08253">
        <ele>185.136039</ele>
        <time>2026-08-29T14:50:53Z</time>
      </trkpt>
      <trkpt lat="43.93886" lon="2.08249">
        <ele>184.85852</ele>
        <time>2026-08-29T14:50:54Z</time>
      </trkpt>
      <trkpt lat="43.93884" lon="2.08246">
        <ele>184.614004</ele>
        <time>2026-08-29T14:50:55Z</time>
      </trkpt>
      <trkpt lat="43.93881" lon="2.08247">
        <ele>184.390916</ele>
        <time>2026-08-29T14:50:56Z</time>
      </trkpt>
      <trkpt lat="43.9388" lon="2.08249">
        <ele>184.197888</ele>
        <time>2026-08-29T14:50:57Z</time>
      </trkpt>
      <trkpt lat="43.93879" lon="2.08253">
        <ele>183.981765</ele>
        <time>2026-08-29T14:50:58Z</time>
      </trkpt>
      <trkpt lat="43.93877" lon="2.08256">
        <ele>183.744319</ele>
        <time>2026-08-29T14:50:59Z</time>
      </trkpt>
      <trkpt lat="43.93875" lon="2.08259">
        <ele>183.520056</ele>
        <time>2026-08-29T14:51:00Z</time>
      </trkpt>
      <trkpt lat="43.93873" lon="2.0826">
        <ele>183.2817</ele>
        <time>2026-08-29T14:51:01Z</time>
      </trkpt>
      <trkpt lat="43.9387" lon="2.08261">
        <ele>183.036989</ele>
        <time>2026-08-29T14:51:02Z</time>
      </trkpt>
      <trkpt lat="43.93868" lon="2.08262">
        <ele>182.811582</ele>
        <time>2026-08-29T14:51:03Z</time>
      </trkpt>
      <trkpt lat="43.93866" lon="2.08263">
        <ele>182.687568</ele>
        <time>2026-08-29T14:51:04Z</time>
      </trkpt>
      <trkpt lat="43.93866" lon="2.08264">
        <ele>182.628206</ele>
        <time>2026-08-29T14:51:05Z</time>
      </trkpt>
      <trkpt lat="43.93866" lon="2.08264">
        <ele>182.582305</ele>
        <time>2026-08-29T14:51:06Z</time>
      </trkpt>
      <trkpt lat="43.93866" lon="2.08265">
        <ele>182.516278</ele>
        <time>2026-08-29T14:51:07Z</time>
      </trkpt>
      <trkpt lat="43.93867" lon="2.08266">
        <ele>182.42215</ele>
        <time>2026-08-29T14:51:08Z</time>
      </trkpt>
      <trkpt lat="43.93868" lon="2.08268">
        <ele>182.288002</ele>
        <time>2026-08-29T14:51:09Z</time>
      </trkpt>
      <trkpt lat="43.93869" lon="2.08269">
        <ele>182.151997</ele>
        <time>2026-08-29T14:51:10Z</time>
      </trkpt>
      <trkpt lat="43.9387" lon="2.08268">
        <ele>182.051252</ele>
        <time>2026-08-29T14:51:11Z</time>
      </trkpt>
      <trkpt lat="43.9387" lon="2.08265">
        <ele>181.898974</ele>
        <time>2026-08-29T14:51:12Z</time>
      </trkpt>
      <trkpt lat="43.93871" lon="2.08263">
        <ele>181.769937</ele>
        <time>2026-08-29T14:51:13Z</time>
      </trkpt>
      <trkpt lat="43.93871" lon="2.08261">
        <ele>181.635581</ele>
        <time>2026-08-29T14:51:14Z</time>
      </trkpt>
      <trkpt lat="43.93872" lon="2.08259">
        <ele>181.48339</ele>
        <time>2026-08-29T14:51:15Z</time>
      </trkpt>
      <trkpt lat="43.93872" lon="2.08255">
        <ele>181.267857</ele>
        <time>2026-08-29T14:51:16Z</time>
      </trkpt>
      <trkpt lat="43.93873" lon="2.08251">
        <ele>180.985349</ele>
        <time>2026-08-29T14:51:17Z</time>
      </trkpt>
      <trkpt lat="43.93873" lon="2.08247">
        <ele>180.721088</ele>
        <time>2026-08-29T14:51:18Z</time>
      </trkpt>
      <trkpt lat="43.93873" lon="2.08242">
        <ele>180.446814</ele>
        <time>2026-08-29T14:51:19Z</time>
      </trkpt>
      <trkpt lat="43.93873" lon="2.08238">
        <ele>180.182553</ele>
        <time>2026-08-29T14:51:20Z</time>
      </trkpt>
      <trkpt lat="43.93873" lon="2.08233">
        <ele>179.907107</ele>
        <time>2026-08-29T14:51:21Z</time>
      </trkpt>
      <trkpt lat="43.93872" lon="2.08229">
        <ele>179.643796</ele>
        <time>2026-08-29T14:51:22Z</time>
      </trkpt>
      <trkpt lat="43.93872" lon="2.08224">
        <ele>179.341483</ele>
        <time>2026-08-29T14:51:23Z</time>
      </trkpt>
      <trkpt lat="43.9387" lon="2.08219">
        <ele>179.022563</ele>
        <time>2026-08-29T14:51:24Z</time>
      </trkpt>
      <trkpt lat="43.93868" lon="2.08215">
        <ele>178.679185</ele>
        <time>2026-08-29T14:51:25Z</time>
      </trkpt>
      <trkpt lat="43.93864" lon="2.08213">
        <ele>178.344899</ele>
        <time>2026-08-29T14:51:26Z</time>
      </trkpt>
      <trkpt lat="43.93862" lon="2.08212">
        <ele>178.130906</ele>
        <time>2026-08-29T14:51:27Z</time>
      </trkpt>
      <trkpt lat="43.93861" lon="2.08212">
        <ele>178.030496</ele>
        <time>2026-08-29T14:51:28Z</time>
      </trkpt>
      <trkpt lat="43.93861" lon="2.08212">
        <ele>177.976174</ele>
        <time>2026-08-29T14:51:29Z</time>
      </trkpt>
      <trkpt lat="43.93861" lon="2.08213">
        <ele>177.910355</ele>
        <time>2026-08-29T14:51:30Z</time>
      </trkpt>
      <trkpt lat="43.93869" lon="2.08203">
        <ele>176.93588</ele>
        <time>2026-08-29T14:56:11Z</time>
      </trkpt>
      <trkpt lat="43.93868" lon="2.082">
        <ele>176.751666</ele>
        <time>2026-08-29T14:56:12Z</time>
      </trkpt>
      <trkpt lat="43.93867" lon="2.08197">
        <ele>176.497058</ele>
        <time>2026-08-29T14:56:13Z</time>
      </trkpt>
      <trkpt lat="43.93866" lon="2.08191">
        <ele>176.142054</ele>
        <time>2026-08-29T14:56:14Z</time>
      </trkpt>
      <trkpt lat="43.93865" lon="2.08186">
        <ele>175.734141</ele>
        <time>2026-08-29T14:56:15Z</time>
      </trkpt>
      <trkpt lat="43.93862" lon="2.08179">
        <ele>175.238445</ele>
        <time>2026-08-29T14:56:16Z</time>
      </trkpt>
      <trkpt lat="43.93861" lon="2.08171">
        <ele>174.718458</ele>
        <time>2026-08-29T14:56:17Z</time>
      </trkpt>
      <trkpt lat="43.9386" lon="2.08162">
        <ele>174.163397</ele>
        <time>2026-08-29T14:56:18Z</time>
      </trkpt>
      <trkpt lat="43.93859" lon="2.08154">
        <ele>173.628731</ele>
        <time>2026-08-29T14:56:19Z</time>
      </trkpt>
      <trkpt lat="43.93857" lon="2.08148">
        <ele>173.202305</ele>
        <time>2026-08-29T14:56:20Z</time>
      </trkpt>
      <trkpt lat="43.93855" lon="2.08144">
        <ele>172.872392</ele>
        <time>2026-08-29T14:56:21Z</time>
      </trkpt>
      <trkpt lat="43.93853" lon="2.0814">
        <ele>172.528252</ele>
        <time>2026-08-29T14:56:22Z</time>
      </trkpt>
      <trkpt lat="43.93851" lon="2.08136">
        <ele>172.205526</ele>
        <time>2026-08-29T14:56:23Z</time>
      </trkpt>
      <trkpt lat="43.9385" lon="2.08132">
        <ele>171.966967</ele>
        <time>2026-08-29T14:56:24Z</time>
      </trkpt>
      <trkpt lat="43.93848" lon="2.08129">
        <ele>171.712389</ele>
        <time>2026-08-29T14:56:25Z</time>
      </trkpt>
      <trkpt lat="43.93847" lon="2.08126">
        <ele>171.465536</ele>
        <time>2026-08-29T14:56:26Z</time>
      </trkpt>
      <trkpt lat="43.93846" lon="2.08122">
        <ele>171.213679</ele>
        <time>2026-08-29T14:56:27Z</time>
      </trkpt>
      <trkpt lat="43.93845" lon="2.08119">
        <ele>170.96806</ele>
        <time>2026-08-29T14:56:28Z</time>
      </trkpt>
      <trkpt lat="43.93844" lon="2.08116">
        <ele>170.740641</ele>
        <time>2026-08-29T14:56:29Z</time>
      </trkpt>
      <trkpt lat="43.93843" lon="2.08112">
        <ele>170.506766</ele>
        <time>2026-08-29T14:56:30Z</time>
      </trkpt>
      <trkpt lat="43.93842" lon="2.08109">
        <ele>170.262658</ele>
        <time>2026-08-29T14:56:31Z</time>
      </trkpt>
      <trkpt lat="43.9384" lon="2.08106">
        <ele>170.015805</ele>
        <time>2026-08-29T14:56:32Z</time>
      </trkpt>
      <trkpt lat="43.9384" lon="2.08103">
        <ele>169.834841</ele>
        <time>2026-08-29T14:56:33Z</time>
      </trkpt>
      <trkpt lat="43.93839" lon="2.08101">
        <ele>169.664185</ele>
        <time>2026-08-29T14:56:34Z</time>
      </trkpt>
      <trkpt lat="43.93838" lon="2.081">
        <ele>169.557972</ele>
        <time>2026-08-29T14:56:35Z</time>
      </trkpt>
      <trkpt lat="43.93838" lon="2.08099">
        <ele>169.489021</ele>
        <time>2026-08-29T14:56:36Z</time>
      </trkpt>
      <trkpt lat="43.93838" lon="2.08099">
        <ele>169.470914</ele>
        <time>2026-08-29T14:56:37Z</time>
      </trkpt>
      <trkpt lat="43.93837" lon="2.08098">
        <ele>169.396336</ele>
        <time>2026-08-29T14:56:38Z</time>
      </trkpt>
      <trkpt lat="43.93822" lon="2.08087">
        <ele>167.83949</ele>
        <time>2026-08-29T14:57:21Z</time>
      </trkpt>
      <trkpt lat="43.93822" lon="2.08084">
        <ele>167.654937</ele>
        <time>2026-08-29T14:57:22Z</time>
      </trkpt>
      <trkpt lat="43.93824" lon="2.08081">
        <ele>167.425981</ele>
        <time>2026-08-29T14:57:23Z</time>
      </trkpt>
      <trkpt lat="43.93825" lon="2.08078">
        <ele>167.177015</ele>
        <time>2026-08-29T14:57:24Z</time>
      </trkpt>
      <trkpt lat="43.93826" lon="2.08073">
        <ele>166.863405</ele>
        <time>2026-08-29T14:57:25Z</time>
      </trkpt>
      <trkpt lat="43.93828" lon="2.08068">
        <ele>166.470777</ele>
        <time>2026-08-29T14:57:26Z</time>
      </trkpt>
      <trkpt lat="43.9383" lon="2.08061">
        <ele>165.964336</ele>
        <time>2026-08-29T14:57:27Z</time>
      </trkpt>
      <trkpt lat="43.93832" lon="2.08054">
        <ele>165.473367</ele>
        <time>2026-08-29T14:57:28Z</time>
      </trkpt>
      <trkpt lat="43.93834" lon="2.08046">
        <ele>164.939714</ele>
        <time>2026-08-29T14:57:29Z</time>
      </trkpt>
      <trkpt lat="43.93836" lon="2.08038">
        <ele>164.390526</ele>
        <time>2026-08-29T14:57:30Z</time>
      </trkpt>
      <trkpt lat="43.93838" lon="2.08029">
        <ele>163.792321</ele>
        <time>2026-08-29T14:57:31Z</time>
      </trkpt>
      <trkpt lat="43.9384" lon="2.0802">
        <ele>163.163572</ele>
        <time>2026-08-29T14:57:32Z</time>
      </trkpt>
      <trkpt lat="43.93843" lon="2.08011">
        <ele>162.636449</ele>
        <time>2026-08-29T14:57:33Z</time>
      </trkpt>
      <trkpt lat="43.93845" lon="2.08001">
        <ele>162.54297</ele>
        <time>2026-08-29T14:57:34Z</time>
      </trkpt>
      <trkpt lat="43.93847" lon="2.07991">
        <ele>162.44949</ele>
        <time>2026-08-29T14:57:35Z</time>
      </trkpt>
      <trkpt lat="43.9385" lon="2.07981">
        <ele>162.352594</ele>
        <time>2026-08-29T14:57:36Z</time>
      </trkpt>
      <trkpt lat="43.93852" lon="2.07971">
        <ele>162.252673</ele>
        <time>2026-08-29T14:57:37Z</time>
      </trkpt>
      <trkpt lat="43.93855" lon="2.07961">
        <ele>162.152666</ele>
        <time>2026-08-29T14:57:38Z</time>
      </trkpt>
      <trkpt lat="43.93858" lon="2.07951">
        <ele>162.050609</ele>
        <time>2026-08-29T14:57:39Z</time>
      </trkpt>
      <trkpt lat="43.93861" lon="2.0794">
        <ele>161.950701</ele>
        <time>2026-08-29T14:57:40Z</time>
      </trkpt>
      <trkpt lat="43.93863" lon="2.0793">
        <ele>161.84993</ele>
        <time>2026-08-29T14:57:41Z</time>
      </trkpt>
      <trkpt lat="43.93866" lon="2.0792">
        <ele>161.750887</ele>
        <time>2026-08-29T14:57:42Z</time>
      </trkpt>
      <trkpt lat="43.93868" lon="2.0791">
        <ele>161.654401</ele>
        <time>2026-08-29T14:57:43Z</time>
      </trkpt>
      <trkpt lat="43.93871" lon="2.079">
        <ele>161.560921</ele>
        <time>2026-08-29T14:57:44Z</time>
      </trkpt>
      <trkpt lat="43.93872" lon="2.07891">
        <ele>161.473655</ele>
        <time>2026-08-29T14:57:45Z</time>
      </trkpt>
      <trkpt lat="43.93874" lon="2.07882">
        <ele>161.392905</ele>
        <time>2026-08-29T14:57:46Z</time>
      </trkpt>
      <trkpt lat="43.93876" lon="2.07875">
        <ele>161.319697</ele>
        <time>2026-08-29T14:57:47Z</time>
      </trkpt>
      <trkpt lat="43.93878" lon="2.07868">
        <ele>161.247741</ele>
        <time>2026-08-29T14:57:48Z</time>
      </trkpt>
      <trkpt lat="43.9388" lon="2.07861">
        <ele>161.181998</ele>
        <time>2026-08-29T14:57:49Z</time>
      </trkpt>
      <trkpt lat="43.93882" lon="2.07856">
        <ele>161.1277</ele>
        <time>2026-08-29T14:57:50Z</time>
      </trkpt>
      <trkpt lat="43.93883" lon="2.07851">
        <ele>161.081081</ele>
        <time>2026-08-29T14:57:51Z</time>
      </trkpt>
      <trkpt lat="43.93882" lon="2.07845">
        <ele>161.030226</ele>
        <time>2026-08-29T14:57:52Z</time>
      </trkpt>
      <trkpt lat="43.93883" lon="2.0784">
        <ele>160.981803</ele>
        <time>2026-08-29T14:57:53Z</time>
      </trkpt>
      <trkpt lat="43.93883" lon="2.07835">
        <ele>160.935877</ele>
        <time>2026-08-29T14:57:54Z</time>
      </trkpt>
      <trkpt lat="43.93884" lon="2.07832">
        <ele>160.900994</ele>
        <time>2026-08-29T14:57:55Z</time>
      </trkpt>
      <trkpt lat="43.93884" lon="2.07827">
        <ele>160.857673</ele>
        <time>2026-08-29T14:57:56Z</time>
      </trkpt>
      <trkpt lat="43.93884" lon="2.07822">
        <ele>160.817398</ele>
        <time>2026-08-29T14:57:57Z</time>
      </trkpt>
      <trkpt lat="43.93884" lon="2.07818">
        <ele>160.777955</ele>
        <time>2026-08-29T14:57:58Z</time>
      </trkpt>
      <trkpt lat="43.93885" lon="2.07814">
        <ele>160.739955</ele>
        <time>2026-08-29T14:57:59Z</time>
      </trkpt>
      <trkpt lat="43.93886" lon="2.07811">
        <ele>160.703643</ele>
        <time>2026-08-29T14:58:00Z</time>
      </trkpt>
      <trkpt lat="43.93888" lon="2.07808">
        <ele>160.676898</ele>
        <time>2026-08-29T14:58:01Z</time>
      </trkpt>
      <trkpt lat="43.93889" lon="2.07805">
        <ele>160.644953</ele>
        <time>2026-08-29T14:58:02Z</time>
      </trkpt>
      <trkpt lat="43.9389" lon="2.07803">
        <ele>160.615127</ele>
        <time>2026-08-29T14:58:03Z</time>
      </trkpt>
      <trkpt lat="43.93891" lon="2.07799">
        <ele>160.583973</ele>
        <time>2026-08-29T14:58:04Z</time>
      </trkpt>
      <trkpt lat="43.93891" lon="2.07796">
        <ele>160.552747</ele>
        <time>2026-08-29T14:58:05Z</time>
      </trkpt>
      <trkpt lat="43.93889" lon="2.07793">
        <ele>160.521334</ele>
        <time>2026-08-29T14:58:06Z</time>
      </trkpt>
      <trkpt lat="43.93888" lon="2.0779">
        <ele>160.488973</ele>
        <time>2026-08-29T14:58:07Z</time>
      </trkpt>
      <trkpt lat="43.93886" lon="2.07789">
        <ele>160.459362</ele>
        <time>2026-08-29T14:58:08Z</time>
      </trkpt>
      <trkpt lat="43.93883" lon="2.07788">
        <ele>160.424736</ele>
        <time>2026-08-29T14:58:09Z</time>
      </trkpt>
      <trkpt lat="43.9388" lon="2.07789">
        <ele>160.387826</ele>
        <time>2026-08-29T14:58:10Z</time>
      </trkpt>
      <trkpt lat="43.93877" lon="2.0779">
        <ele>160.379053</ele>
        <time>2026-08-29T14:58:11Z</time>
      </trkpt>
      <trkpt lat="43.93874" lon="2.07791">
        <ele>160.399879</ele>
        <time>2026-08-29T14:58:12Z</time>
      </trkpt>
      <trkpt lat="43.93871" lon="2.07793">
        <ele>160.420626</ele>
        <time>2026-08-29T14:58:13Z</time>
      </trkpt>
      <trkpt lat="43.93868" lon="2.07795">
        <ele>160.443306</ele>
        <time>2026-08-29T14:58:14Z</time>
      </trkpt>
      <trkpt lat="43.93865" lon="2.07796">
        <ele>160.463991</ele>
        <time>2026-08-29T14:58:15Z</time>
      </trkpt>
      <trkpt lat="43.93861" lon="2.07795">
        <ele>160.484245</ele>
        <time>2026-08-29T14:58:16Z</time>
      </trkpt>
      <trkpt lat="43.93859" lon="2.07793">
        <ele>160.502812</ele>
        <time>2026-08-29T14:58:17Z</time>
      </trkpt>
      <trkpt lat="43.93858" lon="2.0779">
        <ele>160.519409</ele>
        <time>2026-08-29T14:58:18Z</time>
      </trkpt>
      <trkpt lat="43.93859" lon="2.07786">
        <ele>160.537802</ele>
        <time>2026-08-29T14:58:19Z</time>
      </trkpt>
      <trkpt lat="43.9386" lon="2.07782">
        <ele>160.555725</ele>
        <time>2026-08-29T14:58:20Z</time>
      </trkpt>
      <trkpt lat="43.93861" lon="2.07779">
        <ele>160.571883</ele>
        <time>2026-08-29T14:58:21Z</time>
      </trkpt>
      <trkpt lat="43.93862" lon="2.07776">
        <ele>160.588706</ele>
        <time>2026-08-29T14:58:22Z</time>
      </trkpt>
      <trkpt lat="43.93863" lon="2.07773">
        <ele>160.605083</ele>
        <time>2026-08-29T14:58:23Z</time>
      </trkpt>
      <trkpt lat="43.93864" lon="2.0777">
        <ele>160.619915</ele>
        <time>2026-08-29T14:58:24Z</time>
      </trkpt>
      <trkpt lat="43.93864" lon="2.07767">
        <ele>160.634767</ele>
        <time>2026-08-29T14:58:25Z</time>
      </trkpt>
      <trkpt lat="43.93865" lon="2.07764">
        <ele>160.646946</ele>
        <time>2026-08-29T14:58:26Z</time>
      </trkpt>
      <trkpt lat="43.93866" lon="2.07761">
        <ele>160.662226</ele>
        <time>2026-08-29T14:58:27Z</time>
      </trkpt>
      <trkpt lat="43.93866" lon="2.07758">
        <ele>160.676709</ele>
        <time>2026-08-29T14:58:28Z</time>
      </trkpt>
      <trkpt lat="43.93867" lon="2.07756">
        <ele>160.688296</ele>
        <time>2026-08-29T14:58:29Z</time>
      </trkpt>
      <trkpt lat="43.93867" lon="2.07753">
        <ele>160.701529</ele>
        <time>2026-08-29T14:58:30Z</time>
      </trkpt>
      <trkpt lat="43.93867" lon="2.0775">
        <ele>160.713574</ele>
        <time>2026-08-29T14:58:31Z</time>
      </trkpt>
      <trkpt lat="43.93866" lon="2.07748">
        <ele>160.725523</ele>
        <time>2026-08-29T14:58:32Z</time>
      </trkpt>
      <trkpt lat="43.93864" lon="2.07745">
        <ele>160.743089</ele>
        <time>2026-08-29T14:58:33Z</time>
      </trkpt>
      <trkpt lat="43.93863" lon="2.07742">
        <ele>160.760845</ele>
        <time>2026-08-29T14:58:34Z</time>
      </trkpt>
      <trkpt lat="43.9386" lon="2.0774">
        <ele>160.779118</ele>
        <time>2026-08-29T14:58:35Z</time>
      </trkpt>
      <trkpt lat="43.93858" lon="2.07738">
        <ele>160.797901</ele>
        <time>2026-08-29T14:58:36Z</time>
      </trkpt>
      <trkpt lat="43.93855" lon="2.07737">
        <ele>160.820067</ele>
        <time>2026-08-29T14:58:37Z</time>
      </trkpt>
      <trkpt lat="43.93852" lon="2.07736">
        <ele>160.839379</ele>
        <time>2026-08-29T14:58:38Z</time>
      </trkpt>
      <trkpt lat="43.93848" lon="2.07735">
        <ele>160.861711</ele>
        <time>2026-08-29T14:58:39Z</time>
      </trkpt>
      <trkpt lat="43.93845" lon="2.07735">
        <ele>160.884161</ele>
        <time>2026-08-29T14:58:40Z</time>
      </trkpt>
      <trkpt lat="43.93842" lon="2.07734">
        <ele>160.905965</ele>
        <time>2026-08-29T14:58:41Z</time>
      </trkpt>
      <trkpt lat="43.93838" lon="2.07733">
        <ele>160.927769</ele>
        <time>2026-08-29T14:58:42Z</time>
      </trkpt>
      <trkpt lat="43.93835" lon="2.07733">
        <ele>160.94886</ele>
        <time>2026-08-29T14:58:43Z</time>
      </trkpt>
      <trkpt lat="43.93832" lon="2.07732">
        <ele>160.970419</ele>
        <time>2026-08-29T14:58:44Z</time>
      </trkpt>
      <trkpt lat="43.93829" lon="2.07732">
        <ele>160.991105</ele>
        <time>2026-08-29T14:58:45Z</time>
      </trkpt>
      <trkpt lat="43.93825" lon="2.07731">
        <ele>161.012787</ele>
        <time>2026-08-29T14:58:46Z</time>
      </trkpt>
      <trkpt lat="43.93822" lon="2.07731">
        <ele>161.034387</ele>
        <time>2026-08-29T14:58:47Z</time>
      </trkpt>
      <trkpt lat="43.93819" lon="2.0773">
        <ele>161.055988</ele>
        <time>2026-08-29T14:58:48Z</time>
      </trkpt>
      <trkpt lat="43.93816" lon="2.0773">
        <ele>161.07767</ele>
        <time>2026-08-29T14:58:49Z</time>
      </trkpt>
      <trkpt lat="43.93812" lon="2.07729">
        <ele>161.100838</ele>
        <time>2026-08-29T14:58:50Z</time>
      </trkpt>
      <trkpt lat="43.93809" lon="2.07728">
        <ele>161.122752</ele>
        <time>2026-08-29T14:58:51Z</time>
      </trkpt>
      <trkpt lat="43.93805" lon="2.07727">
        <ele>161.145359</ele>
        <time>2026-08-29T14:58:52Z</time>
      </trkpt>
      <trkpt lat="43.93802" lon="2.07726">
        <ele>161.166518</ele>
        <time>2026-08-29T14:58:53Z</time>
      </trkpt>
      <trkpt lat="43.93799" lon="2.07725">
        <ele>161.189042</ele>
        <time>2026-08-29T14:58:54Z</time>
      </trkpt>
      <trkpt lat="43.93795" lon="2.07724">
        <ele>161.212291</ele>
        <time>2026-08-29T14:58:55Z</time>
      </trkpt>
      <trkpt lat="43.93792" lon="2.07723">
        <ele>161.237005</ele>
        <time>2026-08-29T14:58:56Z</time>
      </trkpt>
      <trkpt lat="43.93788" lon="2.07723">
        <ele>161.261985</ele>
        <time>2026-08-29T14:58:57Z</time>
      </trkpt>
      <trkpt lat="43.93784" lon="2.07722">
        <ele>161.286877</ele>
        <time>2026-08-29T14:58:58Z</time>
      </trkpt>
      <trkpt lat="43.9378" lon="2.07722">
        <ele>161.312389</ele>
        <time>2026-08-29T14:58:59Z</time>
      </trkpt>
      <trkpt lat="43.93777" lon="2.07722">
        <ele>161.335249</ele>
        <time>2026-08-29T14:59:00Z</time>
      </trkpt>
      <trkpt lat="43.93773" lon="2.07722">
        <ele>161.360831</ele>
        <time>2026-08-29T14:59:01Z</time>
      </trkpt>
      <trkpt lat="43.93769" lon="2.07721">
        <ele>161.385451</ele>
        <time>2026-08-29T14:59:02Z</time>
      </trkpt>
      <trkpt lat="43.93765" lon="2.0772">
        <ele>161.409264</ele>
        <time>2026-08-29T14:59:03Z</time>
      </trkpt>
      <trkpt lat="43.93762" lon="2.07719">
        <ele>161.433595</ele>
        <time>2026-08-29T14:59:04Z</time>
      </trkpt>
      <trkpt lat="43.93758" lon="2.07719">
        <ele>161.456533</ele>
        <time>2026-08-29T14:59:05Z</time>
      </trkpt>
      <trkpt lat="43.93755" lon="2.07717">
        <ele>161.481222</ele>
        <time>2026-08-29T14:59:06Z</time>
      </trkpt>
      <trkpt lat="43.93751" lon="2.07714">
        <ele>161.507532</ele>
        <time>2026-08-29T14:59:07Z</time>
      </trkpt>
      <trkpt lat="43.93748" lon="2.07711">
        <ele>161.534898</ele>
        <time>2026-08-29T14:59:08Z</time>
      </trkpt>
      <trkpt lat="43.93745" lon="2.07706">
        <ele>161.523412</ele>
        <time>2026-08-29T14:59:09Z</time>
      </trkpt>
      <trkpt lat="43.93742" lon="2.07701">
        <ele>161.495579</ele>
        <time>2026-08-29T14:59:10Z</time>
      </trkpt>
      <trkpt lat="43.9374" lon="2.07696">
        <ele>161.47077</ele>
        <time>2026-08-29T14:59:11Z</time>
      </trkpt>
      <trkpt lat="43.93739" lon="2.0769">
        <ele>161.446073</ele>
        <time>2026-08-29T14:59:12Z</time>
      </trkpt>
      <trkpt lat="43.93737" lon="2.07684">
        <ele>161.419773</ele>
        <time>2026-08-29T14:59:13Z</time>
      </trkpt>
      <trkpt lat="43.93736" lon="2.07678">
        <ele>161.393081</ele>
        <time>2026-08-29T14:59:14Z</time>
      </trkpt>
      <trkpt lat="43.93735" lon="2.07673">
        <ele>161.368097</ele>
        <time>2026-08-29T14:59:15Z</time>
      </trkpt>
      <trkpt lat="43.93733" lon="2.07667">
        <ele>161.341797</ele>
        <time>2026-08-29T14:59:16Z</time>
      </trkpt>
      <trkpt lat="43.93732" lon="2.0766">
        <ele>161.312715</ele>
        <time>2026-08-29T14:59:17Z</time>
      </trkpt>
      <trkpt lat="43.9373" lon="2.07654">
        <ele>161.284432</ele>
        <time>2026-08-29T14:59:18Z</time>
      </trkpt>
      <trkpt lat="43.93729" lon="2.07647">
        <ele>161.255871</ele>
        <time>2026-08-29T14:59:19Z</time>
      </trkpt>
      <trkpt lat="43.93727" lon="2.0764">
        <ele>161.224545</ele>
        <time>2026-08-29T14:59:20Z</time>
      </trkpt>
      <trkpt lat="43.93725" lon="2.07634">
        <ele>161.194058</ele>
        <time>2026-08-29T14:59:21Z</time>
      </trkpt>
      <trkpt lat="43.93723" lon="2.07628">
        <ele>161.165654</ele>
        <time>2026-08-29T14:59:22Z</time>
      </trkpt>
      <trkpt lat="43.9372" lon="2.07622">
        <ele>161.134261</ele>
        <time>2026-08-29T14:59:23Z</time>
      </trkpt>
      <trkpt lat="43.93717" lon="2.07617">
        <ele>161.106088</ele>
        <time>2026-08-29T14:59:24Z</time>
      </trkpt>
      <trkpt lat="43.93714" lon="2.07612">
        <ele>161.078534</ele>
        <time>2026-08-29T14:59:25Z</time>
      </trkpt>
      <trkpt lat="43.93711" lon="2.07606">
        <ele>161.051393</ele>
        <time>2026-08-29T14:59:26Z</time>
      </trkpt>
      <trkpt lat="43.93708" lon="2.07601">
        <ele>161.024937</ele>
        <time>2026-08-29T14:59:27Z</time>
      </trkpt>
      <trkpt lat="43.93706" lon="2.07596">
        <ele>160.997451</ele>
        <time>2026-08-29T14:59:28Z</time>
      </trkpt>
      <trkpt lat="43.93703" lon="2.07592">
        <ele>160.973354</ele>
        <time>2026-08-29T14:59:29Z</time>
      </trkpt>
      <trkpt lat="43.937" lon="2.07587">
        <ele>160.946457</ele>
        <time>2026-08-29T14:59:30Z</time>
      </trkpt>
      <trkpt lat="43.93697" lon="2.07583">
        <ele>160.922425</ele>
        <time>2026-08-29T14:59:31Z</time>
      </trkpt>
      <trkpt lat="43.93694" lon="2.07578">
        <ele>160.896996</ele>
        <time>2026-08-29T14:59:32Z</time>
      </trkpt>
      <trkpt lat="43.93692" lon="2.07573">
        <ele>160.870885</ele>
        <time>2026-08-29T14:59:33Z</time>
      </trkpt>
      <trkpt lat="43.93689" lon="2.07568">
        <ele>160.841647</ele>
        <time>2026-08-29T14:59:34Z</time>
      </trkpt>
      <trkpt lat="43.93686" lon="2.07562">
        <ele>160.81308</ele>
        <time>2026-08-29T14:59:35Z</time>
      </trkpt>
      <trkpt lat="43.93684" lon="2.07556">
        <ele>160.784455</ele>
        <time>2026-08-29T14:59:36Z</time>
      </trkpt>
      <trkpt lat="43.93683" lon="2.0755">
        <ele>160.755361</ele>
        <time>2026-08-29T14:59:37Z</time>
      </trkpt>
      <trkpt lat="43.93681" lon="2.07543">
        <ele>160.727668</ele>
        <time>2026-08-29T14:59:38Z</time>
      </trkpt>
      <trkpt lat="43.9368" lon="2.07538">
        <ele>160.704614</ele>
        <time>2026-08-29T14:59:39Z</time>
      </trkpt>
      <trkpt lat="43.9368" lon="2.07532">
        <ele>160.680417</ele>
        <time>2026-08-29T14:59:40Z</time>
      </trkpt>
      <trkpt lat="43.9368" lon="2.07525">
        <ele>160.650306</ele>
        <time>2026-08-29T14:59:41Z</time>
      </trkpt>
      <trkpt lat="43.9368" lon="2.07519">
        <ele>160.624473</ele>
        <time>2026-08-29T14:59:42Z</time>
      </trkpt>
      <trkpt lat="43.9368" lon="2.07513">
        <ele>160.598165</ele>
        <time>2026-08-29T14:59:43Z</time>
      </trkpt>
      <trkpt lat="43.9368" lon="2.07507">
        <ele>160.573918</ele>
        <time>2026-08-29T14:59:44Z</time>
      </trkpt>
      <trkpt lat="43.93681" lon="2.07502">
        <ele>160.549948</ele>
        <time>2026-08-29T14:59:45Z</time>
      </trkpt>
      <trkpt lat="43.93681" lon="2.07496">
        <ele>160.525637</ele>
        <time>2026-08-29T14:59:46Z</time>
      </trkpt>
      <trkpt lat="43.93682" lon="2.0749">
        <ele>160.501747</ele>
        <time>2026-08-29T14:59:47Z</time>
      </trkpt>
      <trkpt lat="43.93682" lon="2.07485">
        <ele>160.49903</ele>
        <time>2026-08-29T14:59:48Z</time>
      </trkpt>
      <trkpt lat="43.93683" lon="2.07479">
        <ele>160.539441</ele>
        <time>2026-08-29T14:59:49Z</time>
      </trkpt>
      <trkpt lat="43.93684" lon="2.07474">
        <ele>160.578221</ele>
        <time>2026-08-29T14:59:50Z</time>
      </trkpt>
      <trkpt lat="43.93685" lon="2.07468">
        <ele>160.61815</ele>
        <time>2026-08-29T14:59:51Z</time>
      </trkpt>
      <trkpt lat="43.93686" lon="2.07463">
        <ele>160.656449</ele>
        <time>2026-08-29T14:59:52Z</time>
      </trkpt>
      <trkpt lat="43.93686" lon="2.07458">
        <ele>160.697153</ele>
        <time>2026-08-29T14:59:53Z</time>
      </trkpt>
      <trkpt lat="43.93687" lon="2.07452">
        <ele>160.73674</ele>
        <time>2026-08-29T14:59:54Z</time>
      </trkpt>
      <trkpt lat="43.93687" lon="2.07447">
        <ele>160.774747</ele>
        <time>2026-08-29T14:59:55Z</time>
      </trkpt>
      <trkpt lat="43.93687" lon="2.07442">
        <ele>160.810568</ele>
        <time>2026-08-29T14:59:56Z</time>
      </trkpt>
      <trkpt lat="43.93687" lon="2.07438">
        <ele>160.841378</ele>
        <time>2026-08-29T14:59:57Z</time>
      </trkpt>
      <trkpt lat="43.93687" lon="2.07433">
        <ele>160.87295</ele>
        <time>2026-08-29T14:59:58Z</time>
      </trkpt>
      <trkpt lat="43.93687" lon="2.07429">
        <ele>160.903044</ele>
        <time>2026-08-29T14:59:59Z</time>
      </trkpt>
      <trkpt lat="43.93687" lon="2.07424">
        <ele>160.935515</ele>
        <time>2026-08-29T15:00:00Z</time>
      </trkpt>
      <trkpt lat="43.93686" lon="2.0742">
        <ele>160.966325</ele>
        <time>2026-08-29T15:00:01Z</time>
      </trkpt>
      <trkpt lat="43.93686" lon="2.07416">
        <ele>160.996988</ele>
        <time>2026-08-29T15:00:02Z</time>
      </trkpt>
      <trkpt lat="43.93685" lon="2.07412">
        <ele>161.02695</ele>
        <time>2026-08-29T15:00:03Z</time>
      </trkpt>
      <trkpt lat="43.93684" lon="2.07408">
        <ele>161.057613</ele>
        <time>2026-08-29T15:00:04Z</time>
      </trkpt>
      <trkpt lat="43.93683" lon="2.07403">
        <ele>161.092685</ele>
        <time>2026-08-29T15:00:05Z</time>
      </trkpt>
      <trkpt lat="43.93683" lon="2.07398">
        <ele>161.130065</ele>
        <time>2026-08-29T15:00:06Z</time>
      </trkpt>
      <trkpt lat="43.93682" lon="2.07393">
        <ele>161.168072</ele>
        <time>2026-08-29T15:00:07Z</time>
      </trkpt>
      <trkpt lat="43.93682" lon="2.07388">
        <ele>161.20498</ele>
        <time>2026-08-29T15:00:08Z</time>
      </trkpt>
      <trkpt lat="43.93681" lon="2.07383">
        <ele>161.242142</ele>
        <time>2026-08-29T15:00:09Z</time>
      </trkpt>
      <trkpt lat="43.9368" lon="2.07378">
        <ele>161.278619</ele>
        <time>2026-08-29T15:00:10Z</time>
      </trkpt>
      <trkpt lat="43.93679" lon="2.07372">
        <ele>161.317163</ele>
        <time>2026-08-29T15:00:11Z</time>
      </trkpt>
      <trkpt lat="43.93677" lon="2.07367">
        <ele>161.35692</ele>
        <time>2026-08-29T15:00:12Z</time>
      </trkpt>
      <trkpt lat="43.93676" lon="2.07362">
        <ele>161.39847</ele>
        <time>2026-08-29T15:00:13Z</time>
      </trkpt>
      <trkpt lat="43.93674" lon="2.07357">
        <ele>161.4366</ele>
        <time>2026-08-29T15:00:14Z</time>
      </trkpt>
      <trkpt lat="43.93673" lon="2.07352">
        <ele>161.476715</ele>
        <time>2026-08-29T15:00:15Z</time>
      </trkpt>
      <trkpt lat="43.93671" lon="2.07346">
        <ele>161.517817</ele>
        <time>2026-08-29T15:00:16Z</time>
      </trkpt>
      <trkpt lat="43.9367" lon="2.07341">
        <ele>161.560605</ele>
        <time>2026-08-29T15:00:17Z</time>
      </trkpt>
      <trkpt lat="43.93668" lon="2.07335">
        <ele>161.602422</ele>
        <time>2026-08-29T15:00:18Z</time>
      </trkpt>
      <trkpt lat="43.93667" lon="2.0733">
        <ele>161.644239</ele>
        <time>2026-08-29T15:00:19Z</time>
      </trkpt>
      <trkpt lat="43.93665" lon="2.07325">
        <ele>161.684735</ele>
        <time>2026-08-29T15:00:20Z</time>
      </trkpt>
      <trkpt lat="43.93664" lon="2.0732">
        <ele>161.722487</ele>
        <time>2026-08-29T15:00:21Z</time>
      </trkpt>
      <trkpt lat="43.93662" lon="2.07315">
        <ele>161.759958</ele>
        <time>2026-08-29T15:00:22Z</time>
      </trkpt>
      <trkpt lat="43.9366" lon="2.0731">
        <ele>161.79999</ele>
        <time>2026-08-29T15:00:23Z</time>
      </trkpt>
      <trkpt lat="43.93658" lon="2.07305">
        <ele>161.843312</ele>
        <time>2026-08-29T15:00:24Z</time>
      </trkpt>
      <trkpt lat="43.93656" lon="2.07299">
        <ele>161.888241</ele>
        <time>2026-08-29T15:00:25Z</time>
      </trkpt>
      <trkpt lat="43.93654" lon="2.07294">
        <ele>161.930459</ele>
        <time>2026-08-29T15:00:26Z</time>
      </trkpt>
      <trkpt lat="43.93652" lon="2.07289">
        <ele>161.975041</ele>
        <time>2026-08-29T15:00:27Z</time>
      </trkpt>
      <trkpt lat="43.9365" lon="2.07284">
        <ele>162.018135</ele>
        <time>2026-08-29T15:00:28Z</time>
      </trkpt>
      <trkpt lat="43.93647" lon="2.07279">
        <ele>162.060097</ele>
        <time>2026-08-29T15:00:29Z</time>
      </trkpt>
      <trkpt lat="43.93645" lon="2.07274">
        <ele>162.099952</ele>
        <time>2026-08-29T15:00:30Z</time>
      </trkpt>
      <trkpt lat="43.93644" lon="2.07269">
        <ele>162.139177</ele>
        <time>2026-08-29T15:00:31Z</time>
      </trkpt>
      <trkpt lat="43.93641" lon="2.07264">
        <ele>162.179322</ele>
        <time>2026-08-29T15:00:32Z</time>
      </trkpt>
      <trkpt lat="43.93639" lon="2.0726">
        <ele>162.218273</ele>
        <time>2026-08-29T15:00:33Z</time>
      </trkpt>
      <trkpt lat="43.93637" lon="2.07255">
        <ele>162.260235</ele>
        <time>2026-08-29T15:00:34Z</time>
      </trkpt>
      <trkpt lat="43.93635" lon="2.07249">
        <ele>162.255997</ele>
        <time>2026-08-29T15:00:35Z</time>
      </trkpt>
      <trkpt lat="43.93632" lon="2.07244">
        <ele>162.22965</ele>
        <time>2026-08-29T15:00:36Z</time>
      </trkpt>
      <trkpt lat="43.9363" lon="2.07239">
        <ele>162.200464</ele>
        <time>2026-08-29T15:00:37Z</time>
      </trkpt>
      <trkpt lat="43.93627" lon="2.07233">
        <ele>162.171803</ele>
        <time>2026-08-29T15:00:38Z</time>
      </trkpt>
      <trkpt lat="43.93625" lon="2.07227">
        <ele>162.143891</ele>
        <time>2026-08-29T15:00:39Z</time>
      </trkpt>
      <trkpt lat="43.93623" lon="2.07221">
        <ele>162.114096</ele>
        <time>2026-08-29T15:00:40Z</time>
      </trkpt>
      <trkpt lat="43.9362" lon="2.07215">
        <ele>162.084112</ele>
        <time>2026-08-29T15:00:41Z</time>
      </trkpt>
      <trkpt lat="43.93618" lon="2.07208">
        <ele>162.053937</ele>
        <time>2026-08-29T15:00:42Z</time>
      </trkpt>
      <trkpt lat="43.93615" lon="2.07202">
        <ele>162.024388</ele>
        <time>2026-08-29T15:00:43Z</time>
      </trkpt>
      <trkpt lat="43.93612" lon="2.07197">
        <ele>161.996306</ele>
        <time>2026-08-29T15:00:44Z</time>
      </trkpt>
      <trkpt lat="43.9361" lon="2.07192">
        <ele>161.969871</ele>
        <time>2026-08-29T15:00:45Z</time>
      </trkpt>
      <trkpt lat="43.93608" lon="2.07187">
        <ele>161.943436</ele>
        <time>2026-08-29T15:00:46Z</time>
      </trkpt>
      <trkpt lat="43.93605" lon="2.07181">
        <ele>161.91669</ele>
        <time>2026-08-29T15:00:47Z</time>
      </trkpt>
      <trkpt lat="43.93603" lon="2.07176">
        <ele>161.889216</ele>
        <time>2026-08-29T15:00:48Z</time>
      </trkpt>
      <trkpt lat="43.936" lon="2.07171">
        <ele>161.862522</ele>
        <time>2026-08-29T15:00:49Z</time>
      </trkpt>
      <trkpt lat="43.93598" lon="2.07166">
        <ele>161.837203</ele>
        <time>2026-08-29T15:00:50Z</time>
      </trkpt>
      <trkpt lat="43.93595" lon="2.07162">
        <ele>161.812831</ele>
        <time>2026-08-29T15:00:51Z</time>
      </trkpt>
      <trkpt lat="43.93593" lon="2.07157">
        <ele>161.787176</ele>
        <time>2026-08-29T15:00:52Z</time>
      </trkpt>
      <trkpt lat="43.9359" lon="2.07152">
        <ele>161.760135</ele>
        <time>2026-08-29T15:00:53Z</time>
      </trkpt>
      <trkpt lat="43.93587" lon="2.07147">
        <ele>161.734133</ele>
        <time>2026-08-29T15:00:54Z</time>
      </trkpt>
      <trkpt lat="43.93585" lon="2.07141">
        <ele>161.706737</ele>
        <time>2026-08-29T15:00:55Z</time>
      </trkpt>
      <trkpt lat="43.93582" lon="2.07136">
        <ele>161.68071</ele>
        <time>2026-08-29T15:00:56Z</time>
      </trkpt>
      <trkpt lat="43.9358" lon="2.07131">
        <ele>161.655039</ele>
        <time>2026-08-29T15:00:57Z</time>
      </trkpt>
      <trkpt lat="43.93577" lon="2.07126">
        <ele>161.629037</ele>
        <time>2026-08-29T15:00:58Z</time>
      </trkpt>
      <trkpt lat="43.93575" lon="2.07121">
        <ele>161.601303</ele>
        <time>2026-08-29T15:00:59Z</time>
      </trkpt>
      <trkpt lat="43.93572" lon="2.07116">
        <ele>161.572866</ele>
        <time>2026-08-29T15:01:00Z</time>
      </trkpt>
      <trkpt lat="43.93569" lon="2.0711">
        <ele>161.545081</ele>
        <time>2026-08-29T15:01:01Z</time>
      </trkpt>
      <trkpt lat="43.93567" lon="2.07105">
        <ele>161.519011</ele>
        <time>2026-08-29T15:01:02Z</time>
      </trkpt>
      <trkpt lat="43.93564" lon="2.071">
        <ele>161.493704</ele>
        <time>2026-08-29T15:01:03Z</time>
      </trkpt>
      <trkpt lat="43.93562" lon="2.07096">
        <ele>161.469781</ele>
        <time>2026-08-29T15:01:04Z</time>
      </trkpt>
      <trkpt lat="43.9356" lon="2.07091">
        <ele>161.445859</ele>
        <time>2026-08-29T15:01:05Z</time>
      </trkpt>
      <trkpt lat="43.93557" lon="2.07087">
        <ele>161.420836</ele>
        <time>2026-08-29T15:01:06Z</time>
      </trkpt>
      <trkpt lat="43.93554" lon="2.07082">
        <ele>161.396189</ele>
        <time>2026-08-29T15:01:07Z</time>
      </trkpt>
      <trkpt lat="43.93552" lon="2.07078">
        <ele>161.37013</ele>
        <time>2026-08-29T15:01:08Z</time>
      </trkpt>
      <trkpt lat="43.93549" lon="2.07073">
        <ele>161.344332</ele>
        <time>2026-08-29T15:01:09Z</time>
      </trkpt>
      <trkpt lat="43.93546" lon="2.07068">
        <ele>161.317565</ele>
        <time>2026-08-29T15:01:10Z</time>
      </trkpt>
      <trkpt lat="43.93543" lon="2.07064">
        <ele>161.29188</ele>
        <time>2026-08-29T15:01:11Z</time>
      </trkpt>
      <trkpt lat="43.9354" lon="2.07059">
        <ele>161.266149</ele>
        <time>2026-08-29T15:01:12Z</time>
      </trkpt>
      <trkpt lat="43.93537" lon="2.07055">
        <ele>161.240742</ele>
        <time>2026-08-29T15:01:13Z</time>
      </trkpt>
      <trkpt lat="43.93535" lon="2.0705">
        <ele>161.215976</ele>
        <time>2026-08-29T15:01:14Z</time>
      </trkpt>
      <trkpt lat="43.93532" lon="2.07046">
        <ele>161.268731</ele>
        <time>2026-08-29T15:01:15Z</time>
      </trkpt>
      <trkpt lat="43.9353" lon="2.07042">
        <ele>161.356294</ele>
        <time>2026-08-29T15:01:16Z</time>
      </trkpt>
      <trkpt lat="43.93527" lon="2.07039">
        <ele>161.439622</ele>
        <time>2026-08-29T15:01:17Z</time>
      </trkpt>
      <trkpt lat="43.93525" lon="2.07036">
        <ele>161.517632</ele>
        <time>2026-08-29T15:01:18Z</time>
      </trkpt>
      <trkpt lat="43.93523" lon="2.07033">
        <ele>161.582578</ele>
        <time>2026-08-29T15:01:19Z</time>
      </trkpt>
      <trkpt lat="43.93523" lon="2.07031">
        <ele>161.616646</ele>
        <time>2026-08-29T15:01:20Z</time>
      </trkpt>
      <trkpt lat="43.93522" lon="2.07031">
        <ele>161.626465</ele>
        <time>2026-08-29T15:01:21Z</time>
      </trkpt>
      <trkpt lat="43.93522" lon="2.07031">
        <ele>161.641372</ele>
        <time>2026-08-29T15:01:22Z</time>
      </trkpt>
      <trkpt lat="43.9352" lon="2.07024">
        <ele>161.774244</ele>
        <time>2026-08-29T15:02:04Z</time>
      </trkpt>
      <trkpt lat="43.93518" lon="2.07021">
        <ele>161.82931</ele>
        <time>2026-08-29T15:02:05Z</time>
      </trkpt>
      <trkpt lat="43.93517" lon="2.07018">
        <ele>161.891719</ele>
        <time>2026-08-29T15:02:06Z</time>
      </trkpt>
      <trkpt lat="43.93515" lon="2.07015">
        <ele>161.960928</ele>
        <time>2026-08-29T15:02:07Z</time>
      </trkpt>
      <trkpt lat="43.93514" lon="2.07011">
        <ele>162.037174</ele>
        <time>2026-08-29T15:02:08Z</time>
      </trkpt>
      <trkpt lat="43.93512" lon="2.07007">
        <ele>162.113529</ele>
        <time>2026-08-29T15:02:09Z</time>
      </trkpt>
      <trkpt lat="43.9351" lon="2.07003">
        <ele>162.190448</ele>
        <time>2026-08-29T15:02:10Z</time>
      </trkpt>
      <trkpt lat="43.93509" lon="2.06999">
        <ele>162.27311</ele>
        <time>2026-08-29T15:02:11Z</time>
      </trkpt>
      <trkpt lat="43.93507" lon="2.06995">
        <ele>162.351568</ele>
        <time>2026-08-29T15:02:12Z</time>
      </trkpt>
      <trkpt lat="43.93506" lon="2.06991">
        <ele>162.428562</ele>
        <time>2026-08-29T15:02:13Z</time>
      </trkpt>
      <trkpt lat="43.93505" lon="2.06987">
        <ele>162.50879</ele>
        <time>2026-08-29T15:02:14Z</time>
      </trkpt>
      <trkpt lat="43.93503" lon="2.06983">
        <ele>162.591452</ele>
        <time>2026-08-29T15:02:15Z</time>
      </trkpt>
      <trkpt lat="43.93502" lon="2.06978">
        <ele>162.681402</ele>
        <time>2026-08-29T15:02:16Z</time>
      </trkpt>
      <trkpt lat="43.935" lon="2.06973">
        <ele>162.768711</ele>
        <time>2026-08-29T15:02:17Z</time>
      </trkpt>
      <trkpt lat="43.93498" lon="2.06969">
        <ele>162.85602</ele>
        <time>2026-08-29T15:02:18Z</time>
      </trkpt>
      <trkpt lat="43.93497" lon="2.06965">
        <ele>162.942889</ele>
        <time>2026-08-29T15:02:19Z</time>
      </trkpt>
      <trkpt lat="43.93495" lon="2.0696">
        <ele>163.025551</ele>
        <time>2026-08-29T15:02:20Z</time>
      </trkpt>
      <trkpt lat="43.93494" lon="2.06956">
        <ele>163.114036</ele>
        <time>2026-08-29T15:02:21Z</time>
      </trkpt>
      <trkpt lat="43.93492" lon="2.06951">
        <ele>163.207365</ele>
        <time>2026-08-29T15:02:22Z</time>
      </trkpt>
      <trkpt lat="43.93491" lon="2.06946">
        <ele>163.293632</ele>
        <time>2026-08-29T15:02:23Z</time>
      </trkpt>
      <trkpt lat="43.93489" lon="2.06942">
        <ele>163.375193</ele>
        <time>2026-08-29T15:02:24Z</time>
      </trkpt>
      <trkpt lat="43.93488" lon="2.06938">
        <ele>163.459011</ele>
        <time>2026-08-29T15:02:25Z</time>
      </trkpt>
      <trkpt lat="43.93486" lon="2.06933">
        <ele>163.546778</ele>
        <time>2026-08-29T15:02:26Z</time>
      </trkpt>
      <trkpt lat="43.93484" lon="2.0693">
        <ele>163.63011</ele>
        <time>2026-08-29T15:02:27Z</time>
      </trkpt>
      <trkpt lat="43.93482" lon="2.06926">
        <ele>163.707759</ele>
        <time>2026-08-29T15:02:28Z</time>
      </trkpt>
      <trkpt lat="43.9348" lon="2.06922">
        <ele>163.785408</ele>
        <time>2026-08-29T15:02:29Z</time>
      </trkpt>
      <trkpt lat="43.93478" lon="2.06919">
        <ele>163.861763</ele>
        <time>2026-08-29T15:02:30Z</time>
      </trkpt>
      <trkpt lat="43.93476" lon="2.06916">
        <ele>163.929537</ele>
        <time>2026-08-29T15:02:31Z</time>
      </trkpt>
      <trkpt lat="43.93475" lon="2.06912">
        <ele>163.99589</ele>
        <time>2026-08-29T15:02:32Z</time>
      </trkpt>
      <trkpt lat="43.93473" lon="2.06909">
        <ele>164.065169</ele>
        <time>2026-08-29T15:02:33Z</time>
      </trkpt>
      <trkpt lat="43.93471" lon="2.06907">
        <ele>164.132099</ele>
        <time>2026-08-29T15:02:34Z</time>
      </trkpt>
      <trkpt lat="43.93469" lon="2.06904">
        <ele>164.194844</ele>
        <time>2026-08-29T15:02:35Z</time>
      </trkpt>
      <trkpt lat="43.93468" lon="2.06901">
        <ele>164.259899</ele>
        <time>2026-08-29T15:02:36Z</time>
      </trkpt>
      <trkpt lat="43.93466" lon="2.06898">
        <ele>164.330559</ele>
        <time>2026-08-29T15:02:37Z</time>
      </trkpt>
      <trkpt lat="43.93465" lon="2.06895">
        <ele>164.391471</ele>
        <time>2026-08-29T15:02:38Z</time>
      </trkpt>
      <trkpt lat="43.93463" lon="2.06891">
        <ele>164.457897</ele>
        <time>2026-08-29T15:02:39Z</time>
      </trkpt>
      <trkpt lat="43.93462" lon="2.06888">
        <ele>164.524323</ele>
        <time>2026-08-29T15:02:40Z</time>
      </trkpt>
      <trkpt lat="43.9346" lon="2.06885">
        <ele>164.592214</ele>
        <time>2026-08-29T15:02:41Z</time>
      </trkpt>
      <trkpt lat="43.93459" lon="2.06882">
        <ele>164.659988</ele>
        <time>2026-08-29T15:02:42Z</time>
      </trkpt>
      <trkpt lat="43.93457" lon="2.06879">
        <ele>164.725042</ele>
        <time>2026-08-29T15:02:43Z</time>
      </trkpt>
      <trkpt lat="43.93455" lon="2.06876">
        <ele>164.793653</ele>
        <time>2026-08-29T15:02:44Z</time>
      </trkpt>
      <trkpt lat="43.93453" lon="2.06873">
        <ele>164.859328</ele>
        <time>2026-08-29T15:02:45Z</time>
      </trkpt>
      <trkpt lat="43.93451" lon="2.0687">
        <ele>164.922885</ele>
        <time>2026-08-29T15:02:46Z</time>
      </trkpt>
      <trkpt lat="43.9345" lon="2.06868">
        <ele>164.982314</ele>
        <time>2026-08-29T15:02:47Z</time>
      </trkpt>
      <trkpt lat="43.93449" lon="2.06864">
        <ele>165.046629</ele>
        <time>2026-08-29T15:02:48Z</time>
      </trkpt>
      <trkpt lat="43.93448" lon="2.06861">
        <ele>165.109038</ele>
        <time>2026-08-29T15:02:49Z</time>
      </trkpt>
      <trkpt lat="43.93446" lon="2.06858">
        <ele>165.174478</ele>
        <time>2026-08-29T15:02:50Z</time>
      </trkpt>
      <trkpt lat="43.93445" lon="2.06855">
        <ele>165.239617</ele>
        <time>2026-08-29T15:02:51Z</time>
      </trkpt>
      <trkpt lat="43.93443" lon="2.06852">
        <ele>165.303156</ele>
        <time>2026-08-29T15:02:52Z</time>
      </trkpt>
      <trkpt lat="43.93442" lon="2.06849">
        <ele>165.366815</ele>
        <time>2026-08-29T15:02:53Z</time>
      </trkpt>
      <trkpt lat="43.93441" lon="2.06845">
        <ele>165.428504</ele>
        <time>2026-08-29T15:02:54Z</time>
      </trkpt>
      <trkpt lat="43.9344" lon="2.06842">
        <ele>165.493943</ele>
        <time>2026-08-29T15:02:55Z</time>
      </trkpt>
      <trkpt lat="43.93438" lon="2.06839">
        <ele>165.554362</ele>
        <time>2026-08-29T15:02:56Z</time>
      </trkpt>
      <trkpt lat="43.93437" lon="2.06835">
        <ele>165.570802</ele>
        <time>2026-08-29T15:02:57Z</time>
      </trkpt>
      <trkpt lat="43.93435" lon="2.06832">
        <ele>165.586648</ele>
        <time>2026-08-29T15:02:58Z</time>
      </trkpt>
      <trkpt lat="43.93434" lon="2.06829">
        <ele>165.602422</ele>
        <time>2026-08-29T15:02:59Z</time>
      </trkpt>
      <trkpt lat="43.93433" lon="2.06826">
        <ele>165.618557</ele>
        <time>2026-08-29T15:03:00Z</time>
      </trkpt>
      <trkpt lat="43.93431" lon="2.06822">
        <ele>165.635317</ele>
        <time>2026-08-29T15:03:01Z</time>
      </trkpt>
      <trkpt lat="43.9343" lon="2.06819">
        <ele>165.651756</ele>
        <time>2026-08-29T15:03:02Z</time>
      </trkpt>
      <trkpt lat="43.93428" lon="2.06816">
        <ele>165.667892</ele>
        <time>2026-08-29T15:03:03Z</time>
      </trkpt>
      <trkpt lat="43.93427" lon="2.06812">
        <ele>165.684391</ele>
        <time>2026-08-29T15:03:04Z</time>
      </trkpt>
      <trkpt lat="43.93425" lon="2.06809">
        <ele>165.700803</ele>
        <time>2026-08-29T15:03:05Z</time>
      </trkpt>
      <trkpt lat="43.93424" lon="2.06806">
        <ele>165.716938</ele>
        <time>2026-08-29T15:03:06Z</time>
      </trkpt>
      <trkpt lat="43.93422" lon="2.06803">
        <ele>165.732051</ele>
        <time>2026-08-29T15:03:07Z</time>
      </trkpt>
      <trkpt lat="43.93421" lon="2.06799">
        <ele>165.748186</ele>
        <time>2026-08-29T15:03:08Z</time>
      </trkpt>
      <trkpt lat="43.93419" lon="2.06796">
        <ele>165.764938</ele>
        <time>2026-08-29T15:03:09Z</time>
      </trkpt>
      <trkpt lat="43.93418" lon="2.06793">
        <ele>165.78135</ele>
        <time>2026-08-29T15:03:10Z</time>
      </trkpt>
      <trkpt lat="43.93416" lon="2.06789">
        <ele>165.799332</ele>
        <time>2026-08-29T15:03:11Z</time>
      </trkpt>
      <trkpt lat="43.93415" lon="2.06785">
        <ele>165.817055</ele>
        <time>2026-08-29T15:03:12Z</time>
      </trkpt>
      <trkpt lat="43.93414" lon="2.06782">
        <ele>165.834778</ele>
        <time>2026-08-29T15:03:13Z</time>
      </trkpt>
      <trkpt lat="43.93412" lon="2.06778">
        <ele>165.852501</ele>
        <time>2026-08-29T15:03:14Z</time>
      </trkpt>
      <trkpt lat="43.93411" lon="2.06774">
        <ele>165.869368</ele>
        <time>2026-08-29T15:03:15Z</time>
      </trkpt>
      <trkpt lat="43.9341" lon="2.06771">
        <ele>165.886711</ele>
        <time>2026-08-29T15:03:16Z</time>
      </trkpt>
      <trkpt lat="43.93408" lon="2.06767">
        <ele>165.902928</ele>
        <time>2026-08-29T15:03:17Z</time>
      </trkpt>
      <trkpt lat="43.93407" lon="2.06764">
        <ele>165.919519</ele>
        <time>2026-08-29T15:03:18Z</time>
      </trkpt>
      <trkpt lat="43.93406" lon="2.0676">
        <ele>165.936168</ele>
        <time>2026-08-29T15:03:19Z</time>
      </trkpt>
      <trkpt lat="43.93405" lon="2.06757">
        <ele>165.952758</ele>
        <time>2026-08-29T15:03:20Z</time>
      </trkpt>
      <trkpt lat="43.93404" lon="2.06753">
        <ele>165.969724</ele>
        <time>2026-08-29T15:03:21Z</time>
      </trkpt>
      <trkpt lat="43.93402" lon="2.06749">
        <ele>165.988082</ele>
        <time>2026-08-29T15:03:22Z</time>
      </trkpt>
      <trkpt lat="43.93401" lon="2.06746">
        <ele>166.004949</ele>
        <time>2026-08-29T15:03:23Z</time>
      </trkpt>
      <trkpt lat="43.934" lon="2.06742">
        <ele>166.020032</ele>
        <time>2026-08-29T15:03:24Z</time>
      </trkpt>
      <trkpt lat="43.93399" lon="2.06739">
        <ele>166.036362</ele>
        <time>2026-08-29T15:03:25Z</time>
      </trkpt>
      <trkpt lat="43.93397" lon="2.06735">
        <ele>166.053457</ele>
        <time>2026-08-29T15:03:26Z</time>
      </trkpt>
      <trkpt lat="43.93396" lon="2.06731">
        <ele>166.072573</ele>
        <time>2026-08-29T15:03:27Z</time>
      </trkpt>
      <trkpt lat="43.93395" lon="2.06726">
        <ele>166.093205</ele>
        <time>2026-08-29T15:03:28Z</time>
      </trkpt>
      <trkpt lat="43.93394" lon="2.06722">
        <ele>166.113816</ele>
        <time>2026-08-29T15:03:29Z</time>
      </trkpt>
      <trkpt lat="43.93393" lon="2.06717">
        <ele>166.13586</ele>
        <time>2026-08-29T15:03:30Z</time>
      </trkpt>
      <trkpt lat="43.93391" lon="2.06712">
        <ele>166.158773</ele>
        <time>2026-08-29T15:03:31Z</time>
      </trkpt>
      <trkpt lat="43.93389" lon="2.06706">
        <ele>166.185567</ele>
        <time>2026-08-29T15:03:32Z</time>
      </trkpt>
      <trkpt lat="43.93386" lon="2.067">
        <ele>166.214406</ele>
        <time>2026-08-29T15:03:33Z</time>
      </trkpt>
      <trkpt lat="43.93383" lon="2.06694">
        <ele>166.246676</ele>
        <time>2026-08-29T15:03:34Z</time>
      </trkpt>
      <trkpt lat="43.9338" lon="2.06687">
        <ele>166.279201</ele>
        <time>2026-08-29T15:03:35Z</time>
      </trkpt>
      <trkpt lat="43.93377" lon="2.0668">
        <ele>166.312566</ele>
        <time>2026-08-29T15:03:36Z</time>
      </trkpt>
      <trkpt lat="43.93375" lon="2.06673">
        <ele>166.348156</ele>
        <time>2026-08-29T15:03:37Z</time>
      </trkpt>
      <trkpt lat="43.93372" lon="2.06666">
        <ele>166.382728</ele>
        <time>2026-08-29T15:03:38Z</time>
      </trkpt>
      <trkpt lat="43.93369" lon="2.06658">
        <ele>166.418372</ele>
        <time>2026-08-29T15:03:39Z</time>
      </trkpt>
      <trkpt lat="43.93365" lon="2.06651">
        <ele>166.45461</ele>
        <time>2026-08-29T15:03:40Z</time>
      </trkpt>
      <trkpt lat="43.93361" lon="2.06644">
        <ele>166.493944</ele>
        <time>2026-08-29T15:03:41Z</time>
      </trkpt>
      <trkpt lat="43.93357" lon="2.06636">
        <ele>166.534043</ele>
        <time>2026-08-29T15:03:42Z</time>
      </trkpt>
      <trkpt lat="43.93354" lon="2.06628">
        <ele>166.572454</ele>
        <time>2026-08-29T15:03:43Z</time>
      </trkpt>
      <trkpt lat="43.93351" lon="2.0662">
        <ele>166.606381</ele>
        <time>2026-08-29T15:03:44Z</time>
      </trkpt>
      <trkpt lat="43.93348" lon="2.06612">
        <ele>166.615643</ele>
        <time>2026-08-29T15:03:45Z</time>
      </trkpt>
      <trkpt lat="43.93346" lon="2.06604">
        <ele>166.624227</ele>
        <time>2026-08-29T15:03:46Z</time>
      </trkpt>
      <trkpt lat="43.93344" lon="2.06596">
        <ele>166.63267</ele>
        <time>2026-08-29T15:03:47Z</time>
      </trkpt>
      <trkpt lat="43.93342" lon="2.06589">
        <ele>166.640624</ele>
        <time>2026-08-29T15:03:48Z</time>
      </trkpt>
      <trkpt lat="43.93341" lon="2.06581">
        <ele>166.648689</ele>
        <time>2026-08-29T15:03:49Z</time>
      </trkpt>
      <trkpt lat="43.9334" lon="2.06574">
        <ele>166.655974</ele>
        <time>2026-08-29T15:03:50Z</time>
      </trkpt>
      <trkpt lat="43.93339" lon="2.06568">
        <ele>166.663326</ele>
        <time>2026-08-29T15:03:51Z</time>
      </trkpt>
      <trkpt lat="43.93337" lon="2.06562">
        <ele>166.669921</ele>
        <time>2026-08-29T15:03:52Z</time>
      </trkpt>
      <trkpt lat="43.93335" lon="2.06556">
        <ele>166.676024</ele>
        <time>2026-08-29T15:03:53Z</time>
      </trkpt>
      <trkpt lat="43.93333" lon="2.06551">
        <ele>166.68192</ele>
        <time>2026-08-29T15:03:54Z</time>
      </trkpt>
      <trkpt lat="43.93332" lon="2.06547">
        <ele>166.686285</ele>
        <time>2026-08-29T15:03:55Z</time>
      </trkpt>
      <trkpt lat="43.93332" lon="2.06544">
        <ele>166.689586</ele>
        <time>2026-08-29T15:03:56Z</time>
      </trkpt>
      <trkpt lat="43.93332" lon="2.06543">
        <ele>166.690856</ele>
        <time>2026-08-29T15:03:57Z</time>
      </trkpt>
      <trkpt lat="43.93332" lon="2.06543">
        <ele>166.691429</ele>
        <time>2026-08-29T15:03:58Z</time>
      </trkpt>
      <trkpt lat="43.93331" lon="2.06542">
        <ele>166.692794</ele>
        <time>2026-08-29T15:03:59Z</time>
      </trkpt>
      <trkpt lat="43.9333" lon="2.06541">
        <ele>166.694729</ele>
        <time>2026-08-29T15:04:00Z</time>
      </trkpt>
      <trkpt lat="43.9333" lon="2.06539">
        <ele>166.696474</ele>
        <time>2026-08-29T15:04:01Z</time>
      </trkpt>
      <trkpt lat="43.9333" lon="2.06537">
        <ele>166.698953</ele>
        <time>2026-08-29T15:04:02Z</time>
      </trkpt>
      <trkpt lat="43.9333" lon="2.06534">
        <ele>166.701443</ele>
        <time>2026-08-29T15:04:03Z</time>
      </trkpt>
      <trkpt lat="43.93329" lon="2.06532">
        <ele>166.703965</ele>
        <time>2026-08-29T15:04:04Z</time>
      </trkpt>
      <trkpt lat="43.93328" lon="2.06529">
        <ele>166.706681</ele>
        <time>2026-08-29T15:04:05Z</time>
      </trkpt>
      <trkpt lat="43.93328" lon="2.06527">
        <ele>166.709501</ele>
        <time>2026-08-29T15:04:06Z</time>
      </trkpt>
      <trkpt lat="43.93327" lon="2.06524">
        <ele>166.712611</ele>
        <time>2026-08-29T15:04:07Z</time>
      </trkpt>
      <trkpt lat="43.93326" lon="2.06521">
        <ele>166.716298</ele>
        <time>2026-08-29T15:04:08Z</time>
      </trkpt>
      <trkpt lat="43.93326" lon="2.06517">
        <ele>166.720208</ele>
        <time>2026-08-29T15:04:09Z</time>
      </trkpt>
      <trkpt lat="43.93325" lon="2.06513">
        <ele>166.724218</ele>
        <time>2026-08-29T15:04:10Z</time>
      </trkpt>
      <trkpt lat="43.93325" lon="2.06509">
        <ele>166.727973</ele>
        <time>2026-08-29T15:04:11Z</time>
      </trkpt>
      <trkpt lat="43.93324" lon="2.06505">
        <ele>166.732631</ele>
        <time>2026-08-29T15:04:12Z</time>
      </trkpt>
      <trkpt lat="43.93323" lon="2.06501">
        <ele>166.737093</ele>
        <time>2026-08-29T15:04:13Z</time>
      </trkpt>
      <trkpt lat="43.93321" lon="2.06497">
        <ele>166.742033</ele>
        <time>2026-08-29T15:04:14Z</time>
      </trkpt>
      <trkpt lat="43.93319" lon="2.06493">
        <ele>166.746958</ele>
        <time>2026-08-29T15:04:15Z</time>
      </trkpt>
      <trkpt lat="43.93318" lon="2.06488">
        <ele>166.752098</ele>
        <time>2026-08-29T15:04:16Z</time>
      </trkpt>
      <trkpt lat="43.93317" lon="2.06484">
        <ele>166.756714</ele>
        <time>2026-08-29T15:04:17Z</time>
      </trkpt>
      <trkpt lat="43.93316" lon="2.0648">
        <ele>166.761321</ele>
        <time>2026-08-29T15:04:18Z</time>
      </trkpt>
      <trkpt lat="43.93316" lon="2.06475">
        <ele>166.765709</ele>
        <time>2026-08-29T15:04:19Z</time>
      </trkpt>
      <trkpt lat="43.93315" lon="2.06471">
        <ele>166.769931</ele>
        <time>2026-08-29T15:04:20Z</time>
      </trkpt>
      <trkpt lat="43.93314" lon="2.06468">
        <ele>166.774014</ele>
        <time>2026-08-29T15:04:21Z</time>
      </trkpt>
      <trkpt lat="43.93314" lon="2.06463">
        <ele>166.778327</ele>
        <time>2026-08-29T15:04:22Z</time>
      </trkpt>
      <trkpt lat="43.93313" lon="2.0646">
        <ele>166.78237</ele>
        <time>2026-08-29T15:04:23Z</time>
      </trkpt>
      <trkpt lat="43.93313" lon="2.06456">
        <ele>166.786431</ele>
        <time>2026-08-29T15:04:24Z</time>
      </trkpt>
      <trkpt lat="43.93312" lon="2.06452">
        <ele>166.790616</ele>
        <time>2026-08-29T15:04:25Z</time>
      </trkpt>
      <trkpt lat="43.93312" lon="2.06448">
        <ele>166.794741</ele>
        <time>2026-08-29T15:04:26Z</time>
      </trkpt>
      <trkpt lat="43.93312" lon="2.06444">
        <ele>166.798953</ele>
        <time>2026-08-29T15:04:27Z</time>
      </trkpt>
      <trkpt lat="43.93311" lon="2.0644">
        <ele>166.803124</ele>
        <time>2026-08-29T15:04:28Z</time>
      </trkpt>
      <trkpt lat="43.9331" lon="2.06436">
        <ele>166.807391</ele>
        <time>2026-08-29T15:04:29Z</time>
      </trkpt>
      <trkpt lat="43.93308" lon="2.06432">
        <ele>166.811858</ele>
        <time>2026-08-29T15:04:30Z</time>
      </trkpt>
      <trkpt lat="43.93306" lon="2.06428">
        <ele>166.816627</ele>
        <time>2026-08-29T15:04:31Z</time>
      </trkpt>
      <trkpt lat="43.93304" lon="2.06425">
        <ele>166.821323</ele>
        <time>2026-08-29T15:04:32Z</time>
      </trkpt>
      <trkpt lat="43.93302" lon="2.06421">
        <ele>166.826262</ele>
        <time>2026-08-29T15:04:33Z</time>
      </trkpt>
      <trkpt lat="43.933" lon="2.06417">
        <ele>166.830962</ele>
        <time>2026-08-29T15:04:34Z</time>
      </trkpt>
      <trkpt lat="43.93299" lon="2.06413">
        <ele>166.835839</ele>
        <time>2026-08-29T15:04:35Z</time>
      </trkpt>
      <trkpt lat="43.93297" lon="2.06409">
        <ele>166.840487</ele>
        <time>2026-08-29T15:04:36Z</time>
      </trkpt>
      <trkpt lat="43.93296" lon="2.06405">
        <ele>166.844917</ele>
        <time>2026-08-29T15:04:37Z</time>
      </trkpt>
      <trkpt lat="43.93295" lon="2.06401">
        <ele>166.849254</ele>
        <time>2026-08-29T15:04:38Z</time>
      </trkpt>
      <trkpt lat="43.93293" lon="2.06397">
        <ele>166.853531</ele>
        <time>2026-08-29T15:04:39Z</time>
      </trkpt>
      <trkpt lat="43.93292" lon="2.06394">
        <ele>166.858023</ele>
        <time>2026-08-29T15:04:40Z</time>
      </trkpt>
      <trkpt lat="43.93291" lon="2.0639">
        <ele>166.86978</ele>
        <time>2026-08-29T15:04:41Z</time>
      </trkpt>
      <trkpt lat="43.93289" lon="2.06386">
        <ele>166.986237</ele>
        <time>2026-08-29T15:04:42Z</time>
      </trkpt>
      <trkpt lat="43.93288" lon="2.06382">
        <ele>167.108877</ele>
        <time>2026-08-29T15:04:43Z</time>
      </trkpt>
      <trkpt lat="43.93287" lon="2.06379">
        <ele>167.228863</ele>
        <time>2026-08-29T15:04:44Z</time>
      </trkpt>
      <trkpt lat="43.93286" lon="2.06375">
        <ele>167.341948</ele>
        <time>2026-08-29T15:04:45Z</time>
      </trkpt>
      <trkpt lat="43.93285" lon="2.06371">
        <ele>167.456661</ele>
        <time>2026-08-29T15:04:46Z</time>
      </trkpt>
      <trkpt lat="43.93283" lon="2.06368">
        <ele>167.582673</ele>
        <time>2026-08-29T15:04:47Z</time>
      </trkpt>
      <trkpt lat="43.93282" lon="2.06364">
        <ele>167.707984</ele>
        <time>2026-08-29T15:04:48Z</time>
      </trkpt>
      <trkpt lat="43.9328" lon="2.0636">
        <ele>167.829638</ele>
        <time>2026-08-29T15:04:49Z</time>
      </trkpt>
      <trkpt lat="43.93279" lon="2.06356">
        <ele>167.956541</ele>
        <time>2026-08-29T15:04:50Z</time>
      </trkpt>
      <trkpt lat="43.93278" lon="2.06352">
        <ele>168.079972</ele>
        <time>2026-08-29T15:04:51Z</time>
      </trkpt>
      <trkpt lat="43.93276" lon="2.06348">
        <ele>168.205984</ele>
        <time>2026-08-29T15:04:52Z</time>
      </trkpt>
      <trkpt lat="43.93275" lon="2.06344">
        <ele>168.331996</ele>
        <time>2026-08-29T15:04:53Z</time>
      </trkpt>
      <trkpt lat="43.93273" lon="2.0634">
        <ele>168.462408</ele>
        <time>2026-08-29T15:04:54Z</time>
      </trkpt>
      <trkpt lat="43.93272" lon="2.06336">
        <ele>168.58842</ele>
        <time>2026-08-29T15:04:55Z</time>
      </trkpt>
      <trkpt lat="43.93271" lon="2.06333">
        <ele>168.709284</ele>
        <time>2026-08-29T15:04:56Z</time>
      </trkpt>
      <trkpt lat="43.93269" lon="2.06329">
        <ele>168.832715</ele>
        <time>2026-08-29T15:04:57Z</time>
      </trkpt>
      <trkpt lat="43.93268" lon="2.06325">
        <ele>168.954369</ele>
        <time>2026-08-29T15:04:58Z</time>
      </trkpt>
      <trkpt lat="43.93267" lon="2.06321">
        <ele>169.086565</ele>
        <time>2026-08-29T15:04:59Z</time>
      </trkpt>
      <trkpt lat="43.93265" lon="2.06317">
        <ele>169.214419</ele>
        <time>2026-08-29T15:05:00Z</time>
      </trkpt>
      <trkpt lat="43.93264" lon="2.06313">
        <ele>169.333469</ele>
        <time>2026-08-29T15:05:01Z</time>
      </trkpt>
      <trkpt lat="43.93262" lon="2.0631">
        <ele>169.455123</ele>
        <time>2026-08-29T15:05:02Z</time>
      </trkpt>
      <trkpt lat="43.93261" lon="2.06306">
        <ele>169.575395</ele>
        <time>2026-08-29T15:05:03Z</time>
      </trkpt>
      <trkpt lat="43.93259" lon="2.06302">
        <ele>169.698178</ele>
        <time>2026-08-29T15:05:04Z</time>
      </trkpt>
      <trkpt lat="43.93258" lon="2.06299">
        <ele>169.817227</ele>
        <time>2026-08-29T15:05:05Z</time>
      </trkpt>
      <trkpt lat="43.93257" lon="2.06295">
        <ele>169.938091</ele>
        <time>2026-08-29T15:05:06Z</time>
      </trkpt>
      <trkpt lat="43.93255" lon="2.06291">
        <ele>170.067635</ele>
        <time>2026-08-29T15:05:07Z</time>
      </trkpt>
      <trkpt lat="43.93254" lon="2.06287">
        <ele>170.196242</ele>
        <time>2026-08-29T15:05:08Z</time>
      </trkpt>
      <trkpt lat="43.93253" lon="2.06283">
        <ele>170.326905</ele>
        <time>2026-08-29T15:05:09Z</time>
      </trkpt>
      <trkpt lat="43.93252" lon="2.06278">
        <ele>170.452082</ele>
        <time>2026-08-29T15:05:10Z</time>
      </trkpt>
      <trkpt lat="43.93251" lon="2.06275">
        <ele>170.567758</ele>
        <time>2026-08-29T15:05:11Z</time>
      </trkpt>
      <trkpt lat="43.9325" lon="2.06271">
        <ele>170.679471</ele>
        <time>2026-08-29T15:05:12Z</time>
      </trkpt>
      <trkpt lat="43.93249" lon="2.06267">
        <ele>170.786941</ele>
        <time>2026-08-29T15:05:13Z</time>
      </trkpt>
      <trkpt lat="43.93249" lon="2.06264">
        <ele>170.894772</ele>
        <time>2026-08-29T15:05:14Z</time>
      </trkpt>
      <trkpt lat="43.93248" lon="2.0626">
        <ele>171.007268</ele>
        <time>2026-08-29T15:05:15Z</time>
      </trkpt>
      <trkpt lat="43.93247" lon="2.06256">
        <ele>171.116942</ele>
        <time>2026-08-29T15:05:16Z</time>
      </trkpt>
      <trkpt lat="43.93247" lon="2.06252">
        <ele>171.23879</ele>
        <time>2026-08-29T15:05:17Z</time>
      </trkpt>
      <trkpt lat="43.93246" lon="2.06248">
        <ele>171.365506</ele>
        <time>2026-08-29T15:05:18Z</time>
      </trkpt>
      <trkpt lat="43.93245" lon="2.06244">
        <ele>171.494997</ele>
        <time>2026-08-29T15:05:19Z</time>
      </trkpt>
      <trkpt lat="43.93244" lon="2.0624">
        <ele>171.609548</ele>
        <time>2026-08-29T15:05:20Z</time>
      </trkpt>
      <trkpt lat="43.93243" lon="2.06236">
        <ele>171.730732</ele>
        <time>2026-08-29T15:05:21Z</time>
      </trkpt>
      <trkpt lat="43.93243" lon="2.06232">
        <ele>171.84093</ele>
        <time>2026-08-29T15:05:22Z</time>
      </trkpt>
      <trkpt lat="43.93242" lon="2.06229">
        <ele>171.949815</ele>
        <time>2026-08-29T15:05:23Z</time>
      </trkpt>
      <trkpt lat="43.9324" lon="2.06225">
        <ele>172.066273</ele>
        <time>2026-08-29T15:05:24Z</time>
      </trkpt>
      <trkpt lat="43.93239" lon="2.06221">
        <ele>172.188715</ele>
        <time>2026-08-29T15:05:25Z</time>
      </trkpt>
      <trkpt lat="43.93238" lon="2.06217">
        <ele>172.300428</ele>
        <time>2026-08-29T15:05:26Z</time>
      </trkpt>
      <trkpt lat="43.93238" lon="2.06214">
        <ele>172.40547</ele>
        <time>2026-08-29T15:05:27Z</time>
      </trkpt>
      <trkpt lat="43.93237" lon="2.0621">
        <ele>172.508653</ele>
        <time>2026-08-29T15:05:28Z</time>
      </trkpt>
      <trkpt lat="43.93237" lon="2.06207">
        <ele>172.597699</ele>
        <time>2026-08-29T15:05:29Z</time>
      </trkpt>
      <trkpt lat="43.93237" lon="2.06204">
        <ele>172.696346</ele>
        <time>2026-08-29T15:05:30Z</time>
      </trkpt>
      <trkpt lat="43.93236" lon="2.06201">
        <ele>172.795969</ele>
        <time>2026-08-29T15:05:31Z</time>
      </trkpt>
      <trkpt lat="43.93236" lon="2.06197">
        <ele>172.888592</ele>
        <time>2026-08-29T15:05:32Z</time>
      </trkpt>
      <trkpt lat="43.93236" lon="2.06194">
        <ele>172.978595</ele>
        <time>2026-08-29T15:05:33Z</time>
      </trkpt>
      <trkpt lat="43.93236" lon="2.06191">
        <ele>173.06284</ele>
        <time>2026-08-29T15:05:34Z</time>
      </trkpt>
      <trkpt lat="43.93236" lon="2.06189">
        <ele>173.140917</ele>
        <time>2026-08-29T15:05:35Z</time>
      </trkpt>
      <trkpt lat="43.93236" lon="2.06186">
        <ele>173.21621</ele>
        <time>2026-08-29T15:05:36Z</time>
      </trkpt>
      <trkpt lat="43.93236" lon="2.06184">
        <ele>173.295162</ele>
        <time>2026-08-29T15:05:37Z</time>
      </trkpt>
      <trkpt lat="43.93237" lon="2.06181">
        <ele>173.382747</ele>
        <time>2026-08-29T15:05:38Z</time>
      </trkpt>
      <trkpt lat="43.93237" lon="2.06178">
        <ele>173.456037</ele>
        <time>2026-08-29T15:05:39Z</time>
      </trkpt>
      <trkpt lat="43.93237" lon="2.06175">
        <ele>173.537106</ele>
        <time>2026-08-29T15:05:40Z</time>
      </trkpt>
      <trkpt lat="43.93237" lon="2.06172">
        <ele>173.618174</ele>
        <time>2026-08-29T15:05:41Z</time>
      </trkpt>
      <trkpt lat="43.93237" lon="2.06169">
        <ele>173.70502</ele>
        <time>2026-08-29T15:05:42Z</time>
      </trkpt>
      <trkpt lat="43.93237" lon="2.06166">
        <ele>173.794664</ele>
        <time>2026-08-29T15:05:43Z</time>
      </trkpt>
      <trkpt lat="43.93237" lon="2.06163">
        <ele>173.881788</ele>
        <time>2026-08-29T15:05:44Z</time>
      </trkpt>
      <trkpt lat="43.93237" lon="2.0616">
        <ele>173.966032</ele>
        <time>2026-08-29T15:05:45Z</time>
      </trkpt>
      <trkpt lat="43.93236" lon="2.06157">
        <ele>174.053156</ele>
        <time>2026-08-29T15:05:46Z</time>
      </trkpt>
      <trkpt lat="43.93236" lon="2.06154">
        <ele>174.151969</ele>
        <time>2026-08-29T15:05:47Z</time>
      </trkpt>
      <trkpt lat="43.93236" lon="2.06152">
        <ele>174.245723</ele>
        <time>2026-08-29T15:05:48Z</time>
      </trkpt>
      <trkpt lat="43.93236" lon="2.06149">
        <ele>174.332551</ele>
        <time>2026-08-29T15:05:49Z</time>
      </trkpt>
      <trkpt lat="43.93236" lon="2.06147">
        <ele>174.419379</ele>
        <time>2026-08-29T15:05:50Z</time>
      </trkpt>
      <trkpt lat="43.93236" lon="2.06144">
        <ele>174.510054</ele>
        <time>2026-08-29T15:05:51Z</time>
      </trkpt>
      <trkpt lat="43.93236" lon="2.06142">
        <ele>174.597944</ele>
        <time>2026-08-29T15:05:52Z</time>
      </trkpt>
      <trkpt lat="43.93236" lon="2.06139">
        <ele>174.681726</ele>
        <time>2026-08-29T15:05:53Z</time>
      </trkpt>
      <trkpt lat="43.93236" lon="2.06137">
        <ele>174.768953</ele>
        <time>2026-08-29T15:05:54Z</time>
      </trkpt>
      <trkpt lat="43.93236" lon="2.06134">
        <ele>174.859115</ele>
        <time>2026-08-29T15:05:55Z</time>
      </trkpt>
      <trkpt lat="43.93236" lon="2.06132">
        <ele>174.928638</ele>
        <time>2026-08-29T15:05:56Z</time>
      </trkpt>
      <trkpt lat="43.93236" lon="2.0613">
        <ele>175.018929</ele>
        <time>2026-08-29T15:05:57Z</time>
      </trkpt>
      <trkpt lat="43.93236" lon="2.06127">
        <ele>175.112682</ele>
        <time>2026-08-29T15:05:58Z</time>
      </trkpt>
      <trkpt lat="43.93236" lon="2.06124">
        <ele>175.19991</ele>
        <time>2026-08-29T15:05:59Z</time>
      </trkpt>
      <trkpt lat="43.93235" lon="2.06122">
        <ele>175.2989</ele>
        <time>2026-08-29T15:06:00Z</time>
      </trkpt>
      <trkpt lat="43.93235" lon="2.06119">
        <ele>175.397889</ele>
        <time>2026-08-29T15:06:01Z</time>
      </trkpt>
      <trkpt lat="43.93235" lon="2.06116">
        <ele>175.495464</ele>
        <time>2026-08-29T15:06:02Z</time>
      </trkpt>
      <trkpt lat="43.93234" lon="2.06113">
        <ele>175.58766</ele>
        <time>2026-08-29T15:06:03Z</time>
      </trkpt>
      <trkpt lat="43.93234" lon="2.06111">
        <ele>175.677636</ele>
        <time>2026-08-29T15:06:04Z</time>
      </trkpt>
      <trkpt lat="43.93233" lon="2.06109">
        <ele>175.760949</ele>
        <time>2026-08-29T15:06:05Z</time>
      </trkpt>
      <trkpt lat="43.93233" lon="2.06106">
        <ele>175.84578</ele>
        <time>2026-08-29T15:06:06Z</time>
      </trkpt>
      <trkpt lat="43.93232" lon="2.06104">
        <ele>175.938796</ele>
        <time>2026-08-29T15:06:07Z</time>
      </trkpt>
      <trkpt lat="43.93231" lon="2.06101">
        <ele>176.03572</ele>
        <time>2026-08-29T15:06:08Z</time>
      </trkpt>
      <trkpt lat="43.9323" lon="2.06099">
        <ele>176.141006</ele>
        <time>2026-08-29T15:06:09Z</time>
      </trkpt>
      <trkpt lat="43.93229" lon="2.06096">
        <ele>176.247337</ele>
        <time>2026-08-29T15:06:10Z</time>
      </trkpt>
      <trkpt lat="43.93229" lon="2.06093">
        <ele>176.346849</ele>
        <time>2026-08-29T15:06:11Z</time>
      </trkpt>
      <trkpt lat="43.93228" lon="2.0609">
        <ele>176.440171</ele>
        <time>2026-08-29T15:06:12Z</time>
      </trkpt>
      <trkpt lat="43.93227" lon="2.06088">
        <ele>176.544631</ele>
        <time>2026-08-29T15:06:13Z</time>
      </trkpt>
      <trkpt lat="43.93227" lon="2.06085">
        <ele>176.652602</ele>
        <time>2026-08-29T15:06:14Z</time>
      </trkpt>
      <trkpt lat="43.93226" lon="2.06082">
        <ele>176.757235</ele>
        <time>2026-08-29T15:06:15Z</time>
      </trkpt>
      <trkpt lat="43.93226" lon="2.06079">
        <ele>176.858541</ele>
        <time>2026-08-29T15:06:16Z</time>
      </trkpt>
      <trkpt lat="43.93225" lon="2.06076">
        <ele>176.976568</ele>
        <time>2026-08-29T15:06:17Z</time>
      </trkpt>
      <trkpt lat="43.93224" lon="2.06072">
        <ele>177.09351</ele>
        <time>2026-08-29T15:06:18Z</time>
      </trkpt>
      <trkpt lat="43.93224" lon="2.06069">
        <ele>177.209557</ele>
        <time>2026-08-29T15:06:19Z</time>
      </trkpt>
      <trkpt lat="43.93224" lon="2.06066">
        <ele>177.310238</ele>
        <time>2026-08-29T15:06:20Z</time>
      </trkpt>
      <trkpt lat="43.93224" lon="2.06064">
        <ele>177.40155</ele>
        <time>2026-08-29T15:06:21Z</time>
      </trkpt>
      <trkpt lat="43.93223" lon="2.06061">
        <ele>177.492862</ele>
        <time>2026-08-29T15:06:22Z</time>
      </trkpt>
      <trkpt lat="43.93223" lon="2.06058">
        <ele>177.59008</ele>
        <time>2026-08-29T15:06:23Z</time>
      </trkpt>
      <trkpt lat="43.93223" lon="2.06056">
        <ele>177.680755</ele>
        <time>2026-08-29T15:06:24Z</time>
      </trkpt>
      <trkpt lat="43.93223" lon="2.06053">
        <ele>177.774879</ele>
        <time>2026-08-29T15:06:25Z</time>
      </trkpt>
      <trkpt lat="43.93222" lon="2.0605">
        <ele>177.866261</ele>
        <time>2026-08-29T15:06:26Z</time>
      </trkpt>
      <trkpt lat="43.93222" lon="2.06048">
        <ele>177.958458</ele>
        <time>2026-08-29T15:06:27Z</time>
      </trkpt>
      <trkpt lat="43.93222" lon="2.06045">
        <ele>178.056032</ele>
        <time>2026-08-29T15:06:28Z</time>
      </trkpt>
      <trkpt lat="43.93222" lon="2.06042">
        <ele>178.15313</ele>
        <time>2026-08-29T15:06:29Z</time>
      </trkpt>
      <trkpt lat="43.93221" lon="2.06039">
        <ele>178.254436</ele>
        <time>2026-08-29T15:06:30Z</time>
      </trkpt>
      <trkpt lat="43.93221" lon="2.06037">
        <ele>178.346632</ele>
        <time>2026-08-29T15:06:31Z</time>
      </trkpt>
      <trkpt lat="43.9322" lon="2.06034">
        <ele>178.443309</ele>
        <time>2026-08-29T15:06:32Z</time>
      </trkpt>
      <trkpt lat="43.9322" lon="2.06031">
        <ele>178.535505</ele>
        <time>2026-08-29T15:06:33Z</time>
      </trkpt>
      <trkpt lat="43.9322" lon="2.06029">
        <ele>178.63308</ele>
        <time>2026-08-29T15:06:34Z</time>
      </trkpt>
      <trkpt lat="43.93219" lon="2.06026">
        <ele>178.733118</ele>
        <time>2026-08-29T15:06:35Z</time>
      </trkpt>
      <trkpt lat="43.93219" lon="2.06023">
        <ele>178.821927</ele>
        <time>2026-08-29T15:06:36Z</time>
      </trkpt>
      <trkpt lat="43.93218" lon="2.06021">
        <ele>178.92144</ele>
        <time>2026-08-29T15:06:37Z</time>
      </trkpt>
      <trkpt lat="43.93217" lon="2.06018">
        <ele>179.017697</ele>
        <time>2026-08-29T15:06:38Z</time>
      </trkpt>
      <trkpt lat="43.93217" lon="2.06015">
        <ele>179.115683</ele>
        <time>2026-08-29T15:06:39Z</time>
      </trkpt>
      <trkpt lat="43.93216" lon="2.06013">
        <ele>179.21236</ele>
        <time>2026-08-29T15:06:40Z</time>
      </trkpt>
      <trkpt lat="43.93216" lon="2.0601">
        <ele>179.305681</ele>
        <time>2026-08-29T15:06:41Z</time>
      </trkpt>
      <trkpt lat="43.93215" lon="2.06007">
        <ele>179.404671</ele>
        <time>2026-08-29T15:06:42Z</time>
      </trkpt>
      <trkpt lat="43.93215" lon="2.06005">
        <ele>179.500928</ele>
        <time>2026-08-29T15:06:43Z</time>
      </trkpt>
      <trkpt lat="43.93214" lon="2.06002">
        <ele>179.589028</ele>
        <time>2026-08-29T15:06:44Z</time>
      </trkpt>
      <trkpt lat="43.93213" lon="2.06">
        <ele>179.687075</ele>
        <time>2026-08-29T15:06:45Z</time>
      </trkpt>
      <trkpt lat="43.93212" lon="2.05997">
        <ele>179.781943</ele>
        <time>2026-08-29T15:06:46Z</time>
      </trkpt>
      <trkpt lat="43.93212" lon="2.05994">
        <ele>179.891301</ele>
        <time>2026-08-29T15:06:47Z</time>
      </trkpt>
      <trkpt lat="43.93211" lon="2.05991">
        <ele>180.000807</ele>
        <time>2026-08-29T15:06:48Z</time>
      </trkpt>
      <trkpt lat="43.9321" lon="2.05988">
        <ele>180.110314</ele>
        <time>2026-08-29T15:06:49Z</time>
      </trkpt>
      <trkpt lat="43.93209" lon="2.05986">
        <ele>180.214884</ele>
        <time>2026-08-29T15:06:50Z</time>
      </trkpt>
      <trkpt lat="43.93208" lon="2.05983">
        <ele>180.318057</ele>
        <time>2026-08-29T15:06:51Z</time>
      </trkpt>
      <trkpt lat="43.93207" lon="2.05981">
        <ele>180.406632</ele>
        <time>2026-08-29T15:06:52Z</time>
      </trkpt>
      <trkpt lat="43.93206" lon="2.05979">
        <ele>180.484978</ele>
        <time>2026-08-29T15:06:53Z</time>
      </trkpt>
      <trkpt lat="43.93205" lon="2.05977">
        <ele>180.569411</ele>
        <time>2026-08-29T15:06:54Z</time>
      </trkpt>
      <trkpt lat="43.93204" lon="2.05974">
        <ele>180.670731</ele>
        <time>2026-08-29T15:06:55Z</time>
      </trkpt>
      <trkpt lat="43.93203" lon="2.05972">
        <ele>180.761503</ele>
        <time>2026-08-29T15:06:56Z</time>
      </trkpt>
      <trkpt lat="43.93202" lon="2.0597">
        <ele>180.852276</ele>
        <time>2026-08-29T15:06:57Z</time>
      </trkpt>
      <trkpt lat="43.93201" lon="2.05967">
        <ele>180.954085</ele>
        <time>2026-08-29T15:06:58Z</time>
      </trkpt>
      <trkpt lat="43.932" lon="2.05965">
        <ele>181.061018</ele>
        <time>2026-08-29T15:06:59Z</time>
      </trkpt>
      <trkpt lat="43.93199" lon="2.05962">
        <ele>181.177003</ele>
        <time>2026-08-29T15:07:00Z</time>
      </trkpt>
      <trkpt lat="43.93197" lon="2.05959">
        <ele>181.29905</ele>
        <time>2026-08-29T15:07:01Z</time>
      </trkpt>
      <trkpt lat="43.93195" lon="2.05956">
        <ele>181.427502</ele>
        <time>2026-08-29T15:07:02Z</time>
      </trkpt>
      <trkpt lat="43.93194" lon="2.05954">
        <ele>181.551453</ele>
        <time>2026-08-29T15:07:03Z</time>
      </trkpt>
      <trkpt lat="43.93192" lon="2.05951">
        <ele>181.682362</ele>
        <time>2026-08-29T15:07:04Z</time>
      </trkpt>
      <trkpt lat="43.9319" lon="2.05948">
        <ele>181.801598</ele>
        <time>2026-08-29T15:07:05Z</time>
      </trkpt>
      <trkpt lat="43.93189" lon="2.05945">
        <ele>181.942299</ele>
        <time>2026-08-29T15:07:06Z</time>
      </trkpt>
      <trkpt lat="43.93187" lon="2.05942">
        <ele>182.083145</ele>
        <time>2026-08-29T15:07:07Z</time>
      </trkpt>
      <trkpt lat="43.93185" lon="2.05939">
        <ele>182.212659</ele>
        <time>2026-08-29T15:07:08Z</time>
      </trkpt>
      <trkpt lat="43.93184" lon="2.05936">
        <ele>182.328187</ele>
        <time>2026-08-29T15:07:09Z</time>
      </trkpt>
      <trkpt lat="43.93183" lon="2.05933">
        <ele>182.438008</ele>
        <time>2026-08-29T15:07:10Z</time>
      </trkpt>
      <trkpt lat="43.93181" lon="2.05931">
        <ele>182.545612</ele>
        <time>2026-08-29T15:07:11Z</time>
      </trkpt>
      <trkpt lat="43.9318" lon="2.05928">
        <ele>182.664209</ele>
        <time>2026-08-29T15:07:12Z</time>
      </trkpt>
      <trkpt lat="43.93178" lon="2.05925">
        <ele>182.692914</ele>
        <time>2026-08-29T15:07:13Z</time>
      </trkpt>
      <trkpt lat="43.93176" lon="2.05921">
        <ele>182.563256</ele>
        <time>2026-08-29T15:07:14Z</time>
      </trkpt>
      <trkpt lat="43.93174" lon="2.05917">
        <ele>182.420754</ele>
        <time>2026-08-29T15:07:15Z</time>
      </trkpt>
      <trkpt lat="43.93173" lon="2.05912">
        <ele>182.267614</ele>
        <time>2026-08-29T15:07:16Z</time>
      </trkpt>
      <trkpt lat="43.93171" lon="2.05907">
        <ele>182.109611</ele>
        <time>2026-08-29T15:07:17Z</time>
      </trkpt>
      <trkpt lat="43.9317" lon="2.05902">
        <ele>181.946882</ele>
        <time>2026-08-29T15:07:18Z</time>
      </trkpt>
      <trkpt lat="43.93168" lon="2.05896">
        <ele>181.758061</ele>
        <time>2026-08-29T15:07:19Z</time>
      </trkpt>
      <trkpt lat="43.93166" lon="2.0589">
        <ele>181.568626</ele>
        <time>2026-08-29T15:07:20Z</time>
      </trkpt>
      <trkpt lat="43.93164" lon="2.05885">
        <ele>181.379686</ele>
        <time>2026-08-29T15:07:21Z</time>
      </trkpt>
      <trkpt lat="43.93161" lon="2.05878">
        <ele>181.170068</ele>
        <time>2026-08-29T15:07:22Z</time>
      </trkpt>
      <trkpt lat="43.93158" lon="2.05872">
        <ele>180.964948</ele>
        <time>2026-08-29T15:07:23Z</time>
      </trkpt>
      <trkpt lat="43.93155" lon="2.05867">
        <ele>180.764515</ele>
        <time>2026-08-29T15:07:24Z</time>
      </trkpt>
      <trkpt lat="43.93153" lon="2.05861">
        <ele>180.571148</ele>
        <time>2026-08-29T15:07:25Z</time>
      </trkpt>
      <trkpt lat="43.9315" lon="2.05856">
        <ele>180.376823</ele>
        <time>2026-08-29T15:07:26Z</time>
      </trkpt>
      <trkpt lat="43.93148" lon="2.0585">
        <ele>180.177439</ele>
        <time>2026-08-29T15:07:27Z</time>
      </trkpt>
      <trkpt lat="43.93145" lon="2.05844">
        <ele>179.96752</ele>
        <time>2026-08-29T15:07:28Z</time>
      </trkpt>
      <trkpt lat="43.93142" lon="2.05837">
        <ele>179.752934</ele>
        <time>2026-08-29T15:07:29Z</time>
      </trkpt>
      <trkpt lat="43.93138" lon="2.05831">
        <ele>179.519018</ele>
        <time>2026-08-29T15:07:30Z</time>
      </trkpt>
      <trkpt lat="43.93135" lon="2.05825">
        <ele>179.280807</ele>
        <time>2026-08-29T15:07:31Z</time>
      </trkpt>
      <trkpt lat="43.93131" lon="2.05818">
        <ele>179.030767</ele>
        <time>2026-08-29T15:07:32Z</time>
      </trkpt>
      <trkpt lat="43.93127" lon="2.05811">
        <ele>178.792556</ele>
        <time>2026-08-29T15:07:33Z</time>
      </trkpt>
      <trkpt lat="43.93123" lon="2.05805">
        <ele>178.554137</ele>
        <time>2026-08-29T15:07:34Z</time>
      </trkpt>
      <trkpt lat="43.9312" lon="2.05799">
        <ele>178.319832</ele>
        <time>2026-08-29T15:07:35Z</time>
      </trkpt>
      <trkpt lat="43.93116" lon="2.05793">
        <ele>178.085526</ele>
        <time>2026-08-29T15:07:36Z</time>
      </trkpt>
      <trkpt lat="43.93112" lon="2.05787">
        <ele>177.854324</ele>
        <time>2026-08-29T15:07:37Z</time>
      </trkpt>
      <trkpt lat="43.93108" lon="2.05782">
        <ele>177.639154</ele>
        <time>2026-08-29T15:07:38Z</time>
      </trkpt>
      <trkpt lat="43.93103" lon="2.05778">
        <ele>177.417077</ele>
        <time>2026-08-29T15:07:39Z</time>
      </trkpt>
      <trkpt lat="43.93098" lon="2.05774">
        <ele>177.189251</ele>
        <time>2026-08-29T15:07:40Z</time>
      </trkpt>
      <trkpt lat="43.93094" lon="2.05771">
        <ele>177.006518</ele>
        <time>2026-08-29T15:07:41Z</time>
      </trkpt>
      <trkpt lat="43.93091" lon="2.05768">
        <ele>176.823785</ele>
        <time>2026-08-29T15:07:42Z</time>
      </trkpt>
      <trkpt lat="43.93087" lon="2.05764">
        <ele>176.636402</ele>
        <time>2026-08-29T15:07:43Z</time>
      </trkpt>
      <trkpt lat="43.93083" lon="2.05758">
        <ele>176.414608</ele>
        <time>2026-08-29T15:07:44Z</time>
      </trkpt>
      <trkpt lat="43.9308" lon="2.05752">
        <ele>176.18292</ele>
        <time>2026-08-29T15:07:45Z</time>
      </trkpt>
      <trkpt lat="43.93076" lon="2.05746">
        <ele>175.962675</ele>
        <time>2026-08-29T15:07:46Z</time>
      </trkpt>
      <trkpt lat="43.93072" lon="2.0574">
        <ele>175.723012</ele>
        <time>2026-08-29T15:07:47Z</time>
      </trkpt>
      <trkpt lat="43.93068" lon="2.05735">
        <ele>175.488681</ele>
        <time>2026-08-29T15:07:48Z</time>
      </trkpt>
      <trkpt lat="43.93063" lon="2.0573">
        <ele>175.103423</ele>
        <time>2026-08-29T15:07:49Z</time>
      </trkpt>
      <trkpt lat="43.93058" lon="2.05726">
        <ele>174.726099</ele>
        <time>2026-08-29T15:07:50Z</time>
      </trkpt>
      <trkpt lat="43.93053" lon="2.05721">
        <ele>174.361438</ele>
        <time>2026-08-29T15:07:51Z</time>
      </trkpt>
      <trkpt lat="43.93048" lon="2.05717">
        <ele>173.970877</ele>
        <time>2026-08-29T15:07:52Z</time>
      </trkpt>
      <trkpt lat="43.93042" lon="2.05712">
        <ele>173.5703</ele>
        <time>2026-08-29T15:07:53Z</time>
      </trkpt>
      <trkpt lat="43.93038" lon="2.05707">
        <ele>173.195086</ele>
        <time>2026-08-29T15:07:54Z</time>
      </trkpt>
      <trkpt lat="43.93034" lon="2.05701">
        <ele>172.831703</ele>
        <time>2026-08-29T15:07:55Z</time>
      </trkpt>
      <trkpt lat="43.9303" lon="2.05696">
        <ele>172.463057</ele>
        <time>2026-08-29T15:07:56Z</time>
      </trkpt>
      <trkpt lat="43.93026" lon="2.0569">
        <ele>172.105447</ele>
        <time>2026-08-29T15:07:57Z</time>
      </trkpt>
      <trkpt lat="43.93022" lon="2.05685">
        <ele>171.767649</ele>
        <time>2026-08-29T15:07:58Z</time>
      </trkpt>
      <trkpt lat="43.93019" lon="2.05679">
        <ele>171.469593</ele>
        <time>2026-08-29T15:07:59Z</time>
      </trkpt>
      <trkpt lat="43.93018" lon="2.05675">
        <ele>171.25638</ele>
        <time>2026-08-29T15:08:00Z</time>
      </trkpt>
      <trkpt lat="43.93017" lon="2.05673">
        <ele>171.111418</ele>
        <time>2026-08-29T15:08:01Z</time>
      </trkpt>
      <trkpt lat="43.93015" lon="2.0567">
        <ele>170.953579</ele>
        <time>2026-08-29T15:08:02Z</time>
      </trkpt>
      <trkpt lat="43.93013" lon="2.05668">
        <ele>170.775162</ele>
        <time>2026-08-29T15:08:03Z</time>
      </trkpt>
      <trkpt lat="43.93011" lon="2.05666">
        <ele>170.60499</ele>
        <time>2026-08-29T15:08:04Z</time>
      </trkpt>
      <trkpt lat="43.93009" lon="2.05666">
        <ele>170.496241</ele>
        <time>2026-08-29T15:08:05Z</time>
      </trkpt>
      <trkpt lat="43.93008" lon="2.05662">
        <ele>170.322425</ele>
        <time>2026-08-29T15:08:06Z</time>
      </trkpt>
      <trkpt lat="43.93005" lon="2.05659">
        <ele>170.092848</ele>
        <time>2026-08-29T15:08:07Z</time>
      </trkpt>
      <trkpt lat="43.93003" lon="2.05654">
        <ele>169.850533</ele>
        <time>2026-08-29T15:08:08Z</time>
      </trkpt>
      <trkpt lat="43.93001" lon="2.0565">
        <ele>169.589678</ele>
        <time>2026-08-29T15:08:09Z</time>
      </trkpt>
      <trkpt lat="43.92998" lon="2.05645">
        <ele>169.328919</ele>
        <time>2026-08-29T15:08:10Z</time>
      </trkpt>
      <trkpt lat="43.92996" lon="2.0564">
        <ele>169.045811</ele>
        <time>2026-08-29T15:08:11Z</time>
      </trkpt>
      <trkpt lat="43.92993" lon="2.05635">
        <ele>168.755208</ele>
        <time>2026-08-29T15:08:12Z</time>
      </trkpt>
      <trkpt lat="43.9299" lon="2.05629">
        <ele>168.442018</ele>
        <time>2026-08-29T15:08:13Z</time>
      </trkpt>
      <trkpt lat="43.92988" lon="2.05623">
        <ele>168.112664</ele>
        <time>2026-08-29T15:08:14Z</time>
      </trkpt>
      <trkpt lat="43.92985" lon="2.05617">
        <ele>167.789538</ele>
        <time>2026-08-29T15:08:15Z</time>
      </trkpt>
      <trkpt lat="43.92983" lon="2.05611">
        <ele>167.465404</ele>
        <time>2026-08-29T15:08:16Z</time>
      </trkpt>
      <trkpt lat="43.9298" lon="2.05605">
        <ele>167.145006</ele>
        <time>2026-08-29T15:08:17Z</time>
      </trkpt>
      <trkpt lat="43.92977" lon="2.056">
        <ele>166.861797</ele>
        <time>2026-08-29T15:08:18Z</time>
      </trkpt>
      <trkpt lat="43.92974" lon="2.05595">
        <ele>166.571224</ele>
        <time>2026-08-29T15:08:19Z</time>
      </trkpt>
      <trkpt lat="43.92972" lon="2.0559">
        <ele>166.283222</ele>
        <time>2026-08-29T15:08:20Z</time>
      </trkpt>
      <trkpt lat="43.9297" lon="2.05585">
        <ele>166.010865</ele>
        <time>2026-08-29T15:08:21Z</time>
      </trkpt>
      <trkpt lat="43.92967" lon="2.05581">
        <ele>165.758066</ele>
        <time>2026-08-29T15:08:22Z</time>
      </trkpt>
      <trkpt lat="43.92965" lon="2.05576">
        <ele>165.522552</ele>
        <time>2026-08-29T15:08:23Z</time>
      </trkpt>
      <trkpt lat="43.92963" lon="2.05572">
        <ele>165.290963</ele>
        <time>2026-08-29T15:08:24Z</time>
      </trkpt>
      <trkpt lat="43.92961" lon="2.05568">
        <ele>165.074439</ele>
        <time>2026-08-29T15:08:25Z</time>
      </trkpt>
      <trkpt lat="43.9296" lon="2.05564">
        <ele>164.86333</ele>
        <time>2026-08-29T15:08:26Z</time>
      </trkpt>
      <trkpt lat="43.92958" lon="2.0556">
        <ele>164.650115</ele>
        <time>2026-08-29T15:08:27Z</time>
      </trkpt>
      <trkpt lat="43.92956" lon="2.05556">
        <ele>164.44084</ele>
        <time>2026-08-29T15:08:28Z</time>
      </trkpt>
      <trkpt lat="43.92955" lon="2.05552">
        <ele>164.215656</ele>
        <time>2026-08-29T15:08:29Z</time>
      </trkpt>
      <trkpt lat="43.92953" lon="2.05548">
        <ele>164.004812</ele>
        <time>2026-08-29T15:08:30Z</time>
      </trkpt>
      <trkpt lat="43.92951" lon="2.05543">
        <ele>163.860394</ele>
        <time>2026-08-29T15:08:31Z</time>
      </trkpt>
      <trkpt lat="43.9295" lon="2.05539">
        <ele>163.702988</ele>
        <time>2026-08-29T15:08:32Z</time>
      </trkpt>
      <trkpt lat="43.92948" lon="2.05534">
        <ele>163.542223</ele>
        <time>2026-08-29T15:08:33Z</time>
      </trkpt>
      <trkpt lat="43.92946" lon="2.05529">
        <ele>163.371032</ele>
        <time>2026-08-29T15:08:34Z</time>
      </trkpt>
      <trkpt lat="43.92944" lon="2.05524">
        <ele>163.203193</ele>
        <time>2026-08-29T15:08:35Z</time>
      </trkpt>
      <trkpt lat="43.92942" lon="2.0552">
        <ele>163.036713</ele>
        <time>2026-08-29T15:08:36Z</time>
      </trkpt>
      <trkpt lat="43.9294" lon="2.05514">
        <ele>162.839398</ele>
        <time>2026-08-29T15:08:37Z</time>
      </trkpt>
      <trkpt lat="43.92938" lon="2.05507">
        <ele>162.611714</ele>
        <time>2026-08-29T15:08:38Z</time>
      </trkpt>
      <trkpt lat="43.92936" lon="2.05499">
        <ele>162.353902</ele>
        <time>2026-08-29T15:08:39Z</time>
      </trkpt>
      <trkpt lat="43.92933" lon="2.0549">
        <ele>162.066368</ele>
        <time>2026-08-29T15:08:40Z</time>
      </trkpt>
      <trkpt lat="43.9293" lon="2.0548">
        <ele>161.740254</ele>
        <time>2026-08-29T15:08:41Z</time>
      </trkpt>
      <trkpt lat="43.92927" lon="2.0547">
        <ele>161.393101</ele>
        <time>2026-08-29T15:08:42Z</time>
      </trkpt>
      <trkpt lat="43.92924" lon="2.05459">
        <ele>161.048489</ele>
        <time>2026-08-29T15:08:43Z</time>
      </trkpt>
      <trkpt lat="43.92922" lon="2.05448">
        <ele>160.699137</ele>
        <time>2026-08-29T15:08:44Z</time>
      </trkpt>
      <trkpt lat="43.9292" lon="2.05437">
        <ele>160.355066</ele>
        <time>2026-08-29T15:08:45Z</time>
      </trkpt>
      <trkpt lat="43.92917" lon="2.05427">
        <ele>160.007571</ele>
        <time>2026-08-29T15:08:46Z</time>
      </trkpt>
      <trkpt lat="43.92914" lon="2.05416">
        <ele>159.667695</ele>
        <time>2026-08-29T15:08:47Z</time>
      </trkpt>
      <trkpt lat="43.9291" lon="2.05406">
        <ele>159.332311</ele>
        <time>2026-08-29T15:08:48Z</time>
      </trkpt>
      <trkpt lat="43.92907" lon="2.05396">
        <ele>158.997927</ele>
        <time>2026-08-29T15:08:49Z</time>
      </trkpt>
      <trkpt lat="43.92903" lon="2.05388">
        <ele>158.681907</ele>
        <time>2026-08-29T15:08:50Z</time>
      </trkpt>
      <trkpt lat="43.92898" lon="2.05381">
        <ele>158.396708</ele>
        <time>2026-08-29T15:08:51Z</time>
      </trkpt>
      <trkpt lat="43.92893" lon="2.05374">
        <ele>158.116745</ele>
        <time>2026-08-29T15:08:52Z</time>
      </trkpt>
      <trkpt lat="43.92889" lon="2.05368">
        <ele>157.850708</ele>
        <time>2026-08-29T15:08:53Z</time>
      </trkpt>
      <trkpt lat="43.92885" lon="2.05361">
        <ele>157.596488</ele>
        <time>2026-08-29T15:08:54Z</time>
      </trkpt>
      <trkpt lat="43.92882" lon="2.05355">
        <ele>157.369426</ele>
        <time>2026-08-29T15:08:55Z</time>
      </trkpt>
      <trkpt lat="43.92879" lon="2.05349">
        <ele>157.152116</ele>
        <time>2026-08-29T15:08:56Z</time>
      </trkpt>
      <trkpt lat="43.92877" lon="2.05344">
        <ele>156.944748</ele>
        <time>2026-08-29T15:08:57Z</time>
      </trkpt>
      <trkpt lat="43.92874" lon="2.05338">
        <ele>156.757022</ele>
        <time>2026-08-29T15:08:58Z</time>
      </trkpt>
      <trkpt lat="43.92872" lon="2.05334">
        <ele>156.5937</ele>
        <time>2026-08-29T15:08:59Z</time>
      </trkpt>
      <trkpt lat="43.92871" lon="2.0533">
        <ele>156.461987</ele>
        <time>2026-08-29T15:09:00Z</time>
      </trkpt>
      <trkpt lat="43.9287" lon="2.05326">
        <ele>156.431386</ele>
        <time>2026-08-29T15:09:01Z</time>
      </trkpt>
      <trkpt lat="43.92868" lon="2.05322">
        <ele>156.42797</ele>
        <time>2026-08-29T15:09:02Z</time>
      </trkpt>
      <trkpt lat="43.92868" lon="2.05318">
        <ele>156.424975</ele>
        <time>2026-08-29T15:09:03Z</time>
      </trkpt>
      <trkpt lat="43.92866" lon="2.05315">
        <ele>156.422173</ele>
        <time>2026-08-29T15:09:04Z</time>
      </trkpt>
      <trkpt lat="43.92864" lon="2.05311">
        <ele>156.419074</ele>
        <time>2026-08-29T15:09:05Z</time>
      </trkpt>
      <trkpt lat="43.92862" lon="2.05307">
        <ele>156.41549</ele>
        <time>2026-08-29T15:09:06Z</time>
      </trkpt>
      <trkpt lat="43.92861" lon="2.05303">
        <ele>156.41218</ele>
        <time>2026-08-29T15:09:07Z</time>
      </trkpt>
      <trkpt lat="43.92859" lon="2.053">
        <ele>156.408776</ele>
        <time>2026-08-29T15:09:08Z</time>
      </trkpt>
      <trkpt lat="43.92857" lon="2.05296">
        <ele>156.405363</ele>
        <time>2026-08-29T15:09:09Z</time>
      </trkpt>
      <trkpt lat="43.92856" lon="2.05292">
        <ele>156.401886</ele>
        <time>2026-08-29T15:09:10Z</time>
      </trkpt>
      <trkpt lat="43.92854" lon="2.05288">
        <ele>156.398526</ele>
        <time>2026-08-29T15:09:11Z</time>
      </trkpt>
      <trkpt lat="43.92852" lon="2.05284">
        <ele>156.395167</ele>
        <time>2026-08-29T15:09:12Z</time>
      </trkpt>
      <trkpt lat="43.92851" lon="2.0528">
        <ele>156.391944</ele>
        <time>2026-08-29T15:09:13Z</time>
      </trkpt>
      <trkpt lat="43.92849" lon="2.05277">
        <ele>156.389086</ele>
        <time>2026-08-29T15:09:14Z</time>
      </trkpt>
      <trkpt lat="43.92848" lon="2.05274">
        <ele>156.386165</ele>
        <time>2026-08-29T15:09:15Z</time>
      </trkpt>
      <trkpt lat="43.92846" lon="2.05271">
        <ele>156.383187</ele>
        <time>2026-08-29T15:09:16Z</time>
      </trkpt>
      <trkpt lat="43.92845" lon="2.05267">
        <ele>156.380465</ele>
        <time>2026-08-29T15:09:17Z</time>
      </trkpt>
      <trkpt lat="43.92844" lon="2.05264">
        <ele>156.377402</ele>
        <time>2026-08-29T15:09:18Z</time>
      </trkpt>
      <trkpt lat="43.92842" lon="2.0526">
        <ele>156.3745</ele>
        <time>2026-08-29T15:09:19Z</time>
      </trkpt>
      <trkpt lat="43.92841" lon="2.05256">
        <ele>156.371463</ele>
        <time>2026-08-29T15:09:20Z</time>
      </trkpt>
      <trkpt lat="43.9284" lon="2.05253">
        <ele>156.368357</ele>
        <time>2026-08-29T15:09:21Z</time>
      </trkpt>
      <trkpt lat="43.92839" lon="2.05249">
        <ele>156.365429</ele>
        <time>2026-08-29T15:09:22Z</time>
      </trkpt>
      <trkpt lat="43.92838" lon="2.05246">
        <ele>156.362647</ele>
        <time>2026-08-29T15:09:23Z</time>
      </trkpt>
      <trkpt lat="43.92836" lon="2.05242">
        <ele>156.359362</ele>
        <time>2026-08-29T15:09:24Z</time>
      </trkpt>
      <trkpt lat="43.92835" lon="2.05238">
        <ele>156.356414</ele>
        <time>2026-08-29T15:09:25Z</time>
      </trkpt>
      <trkpt lat="43.92834" lon="2.05235">
        <ele>156.353482</ele>
        <time>2026-08-29T15:09:26Z</time>
      </trkpt>
      <trkpt lat="43.92833" lon="2.05231">
        <ele>156.350664</ele>
        <time>2026-08-29T15:09:27Z</time>
      </trkpt>
      <trkpt lat="43.92831" lon="2.05228">
        <ele>156.347782</ele>
        <time>2026-08-29T15:09:28Z</time>
      </trkpt>
      <trkpt lat="43.9283" lon="2.05225">
        <ele>156.344742</ele>
        <time>2026-08-29T15:09:29Z</time>
      </trkpt>
      <trkpt lat="43.92828" lon="2.05222">
        <ele>156.341876</ele>
        <time>2026-08-29T15:09:30Z</time>
      </trkpt>
      <trkpt lat="43.92826" lon="2.05219">
        <ele>156.339082</ele>
        <time>2026-08-29T15:09:31Z</time>
      </trkpt>
      <trkpt lat="43.92825" lon="2.05215">
        <ele>156.336291</ele>
        <time>2026-08-29T15:09:32Z</time>
      </trkpt>
      <trkpt lat="43.92825" lon="2.05212">
        <ele>156.334008</ele>
        <time>2026-08-29T15:09:33Z</time>
      </trkpt>
      <trkpt lat="43.92824" lon="2.05209">
        <ele>156.331505</ele>
        <time>2026-08-29T15:09:34Z</time>
      </trkpt>
      <trkpt lat="43.92823" lon="2.05206">
        <ele>156.328714</ele>
        <time>2026-08-29T15:09:35Z</time>
      </trkpt>
      <trkpt lat="43.92823" lon="2.05202">
        <ele>156.326021</ele>
        <time>2026-08-29T15:09:36Z</time>
      </trkpt>
      <trkpt lat="43.92822" lon="2.05198">
        <ele>156.322992</ele>
        <time>2026-08-29T15:09:37Z</time>
      </trkpt>
      <trkpt lat="43.9282" lon="2.05194">
        <ele>156.319707</ele>
        <time>2026-08-29T15:09:38Z</time>
      </trkpt>
      <trkpt lat="43.92818" lon="2.0519">
        <ele>156.316</ele>
        <time>2026-08-29T15:09:39Z</time>
      </trkpt>
      <trkpt lat="43.92816" lon="2.05186">
        <ele>156.312295</ele>
        <time>2026-08-29T15:09:40Z</time>
      </trkpt>
      <trkpt lat="43.92814" lon="2.05182">
        <ele>156.308206</ele>
        <time>2026-08-29T15:09:41Z</time>
      </trkpt>
      <trkpt lat="43.92811" lon="2.05178">
        <ele>156.304133</ele>
        <time>2026-08-29T15:09:42Z</time>
      </trkpt>
      <trkpt lat="43.92809" lon="2.05173">
        <ele>156.299749</ele>
        <time>2026-08-29T15:09:43Z</time>
      </trkpt>
      <trkpt lat="43.92805" lon="2.05169">
        <ele>156.295087</ele>
        <time>2026-08-29T15:09:44Z</time>
      </trkpt>
      <trkpt lat="43.92802" lon="2.05164">
        <ele>156.290273</ele>
        <time>2026-08-29T15:09:45Z</time>
      </trkpt>
      <trkpt lat="43.928" lon="2.05159">
        <ele>156.285532</ele>
        <time>2026-08-29T15:09:46Z</time>
      </trkpt>
      <trkpt lat="43.92796" lon="2.05154">
        <ele>156.280618</ele>
        <time>2026-08-29T15:09:47Z</time>
      </trkpt>
      <trkpt lat="43.92793" lon="2.0515">
        <ele>156.275917</ele>
        <time>2026-08-29T15:09:48Z</time>
      </trkpt>
      <trkpt lat="43.9279" lon="2.05145">
        <ele>156.271103</ele>
        <time>2026-08-29T15:09:49Z</time>
      </trkpt>
      <trkpt lat="43.92787" lon="2.05139">
        <ele>156.265868</ele>
        <time>2026-08-29T15:09:50Z</time>
      </trkpt>
      <trkpt lat="43.92784" lon="2.05134">
        <ele>156.260499</ele>
        <time>2026-08-29T15:09:51Z</time>
      </trkpt>
      <trkpt lat="43.92781" lon="2.05128">
        <ele>156.255211</ele>
        <time>2026-08-29T15:09:52Z</time>
      </trkpt>
      <trkpt lat="43.92777" lon="2.05122">
        <ele>156.249555</ele>
        <time>2026-08-29T15:09:53Z</time>
      </trkpt>
      <trkpt lat="43.92774" lon="2.05116">
        <ele>156.265262</ele>
        <time>2026-08-29T15:09:54Z</time>
      </trkpt>
      <trkpt lat="43.9277" lon="2.0511">
        <ele>156.297265</ele>
        <time>2026-08-29T15:09:55Z</time>
      </trkpt>
      <trkpt lat="43.92767" lon="2.05104">
        <ele>156.328649</ele>
        <time>2026-08-29T15:09:56Z</time>
      </trkpt>
      <trkpt lat="43.92763" lon="2.05099">
        <ele>156.358282</ele>
        <time>2026-08-29T15:09:57Z</time>
      </trkpt>
      <trkpt lat="43.92759" lon="2.05094">
        <ele>156.386137</ele>
        <time>2026-08-29T15:09:58Z</time>
      </trkpt>
      <trkpt lat="43.92756" lon="2.05089">
        <ele>156.412943</ele>
        <time>2026-08-29T15:09:59Z</time>
      </trkpt>
      <trkpt lat="43.92752" lon="2.05084">
        <ele>156.440599</ele>
        <time>2026-08-29T15:10:00Z</time>
      </trkpt>
      <trkpt lat="43.92749" lon="2.05078">
        <ele>156.469674</ele>
        <time>2026-08-29T15:10:01Z</time>
      </trkpt>
      <trkpt lat="43.92746" lon="2.05073">
        <ele>156.497997</ele>
        <time>2026-08-29T15:10:02Z</time>
      </trkpt>
      <trkpt lat="43.92742" lon="2.05067">
        <ele>156.529102</ele>
        <time>2026-08-29T15:10:03Z</time>
      </trkpt>
      <trkpt lat="43.92737" lon="2.05062">
        <ele>156.562759</ele>
        <time>2026-08-29T15:10:04Z</time>
      </trkpt>
      <trkpt lat="43.92733" lon="2.05056">
        <ele>156.593961</ele>
        <time>2026-08-29T15:10:05Z</time>
      </trkpt>
      <trkpt lat="43.9273" lon="2.0505">
        <ele>156.624031</ele>
        <time>2026-08-29T15:10:06Z</time>
      </trkpt>
      <trkpt lat="43.92727" lon="2.05045">
        <ele>156.650837</ele>
        <time>2026-08-29T15:10:07Z</time>
      </trkpt>
      <trkpt lat="43.92724" lon="2.05039">
        <ele>156.676994</ele>
        <time>2026-08-29T15:10:08Z</time>
      </trkpt>
      <trkpt lat="43.92721" lon="2.05034">
        <ele>156.703482</ele>
        <time>2026-08-29T15:10:09Z</time>
      </trkpt>
      <trkpt lat="43.92719" lon="2.05028">
        <ele>156.729757</ele>
        <time>2026-08-29T15:10:10Z</time>
      </trkpt>
      <trkpt lat="43.92717" lon="2.05022">
        <ele>156.757418</ele>
        <time>2026-08-29T15:10:11Z</time>
      </trkpt>
      <trkpt lat="43.92715" lon="2.05016">
        <ele>156.783965</ele>
        <time>2026-08-29T15:10:12Z</time>
      </trkpt>
      <trkpt lat="43.92713" lon="2.05011">
        <ele>156.807418</ele>
        <time>2026-08-29T15:10:13Z</time>
      </trkpt>
      <trkpt lat="43.92712" lon="2.05005">
        <ele>156.831212</ele>
        <time>2026-08-29T15:10:14Z</time>
      </trkpt>
      <trkpt lat="43.9271" lon="2.04999">
        <ele>156.855765</ele>
        <time>2026-08-29T15:10:15Z</time>
      </trkpt>
      <trkpt lat="43.92709" lon="2.04994">
        <ele>156.878604</ele>
        <time>2026-08-29T15:10:16Z</time>
      </trkpt>
      <trkpt lat="43.92707" lon="2.04989">
        <ele>156.900696</ele>
        <time>2026-08-29T15:10:17Z</time>
      </trkpt>
      <trkpt lat="43.92706" lon="2.04983">
        <ele>156.922601</ele>
        <time>2026-08-29T15:10:18Z</time>
      </trkpt>
      <trkpt lat="43.92705" lon="2.04978">
        <ele>156.943635</ele>
        <time>2026-08-29T15:10:19Z</time>
      </trkpt>
      <trkpt lat="43.92704" lon="2.04973">
        <ele>156.963242</ele>
        <time>2026-08-29T15:10:20Z</time>
      </trkpt>
      <trkpt lat="43.92704" lon="2.04969">
        <ele>156.982848</ele>
        <time>2026-08-29T15:10:21Z</time>
      </trkpt>
      <trkpt lat="43.92703" lon="2.04964">
        <ele>157.001294</ele>
        <time>2026-08-29T15:10:22Z</time>
      </trkpt>
      <trkpt lat="43.92702" lon="2.0496">
        <ele>157.019276</ele>
        <time>2026-08-29T15:10:23Z</time>
      </trkpt>
      <trkpt lat="43.92701" lon="2.04956">
        <ele>157.03706</ele>
        <time>2026-08-29T15:10:24Z</time>
      </trkpt>
      <trkpt lat="43.927" lon="2.04951">
        <ele>157.055595</ele>
        <time>2026-08-29T15:10:25Z</time>
      </trkpt>
      <trkpt lat="43.92699" lon="2.04947">
        <ele>157.073798</ele>
        <time>2026-08-29T15:10:26Z</time>
      </trkpt>
      <trkpt lat="43.92697" lon="2.04942">
        <ele>157.092521</ele>
        <time>2026-08-29T15:10:27Z</time>
      </trkpt>
      <trkpt lat="43.92697" lon="2.04939">
        <ele>157.108658</ele>
        <time>2026-08-29T15:10:28Z</time>
      </trkpt>
      <trkpt lat="43.92696" lon="2.04935">
        <ele>157.123751</ele>
        <time>2026-08-29T15:10:29Z</time>
      </trkpt>
      <trkpt lat="43.92695" lon="2.04931">
        <ele>157.13859</ele>
        <time>2026-08-29T15:10:30Z</time>
      </trkpt>
      <trkpt lat="43.92694" lon="2.04927">
        <ele>157.154509</ele>
        <time>2026-08-29T15:10:31Z</time>
      </trkpt>
      <trkpt lat="43.92693" lon="2.04923">
        <ele>157.171359</ele>
        <time>2026-08-29T15:10:32Z</time>
      </trkpt>
      <trkpt lat="43.92693" lon="2.04919">
        <ele>157.188797</ele>
        <time>2026-08-29T15:10:33Z</time>
      </trkpt>
      <trkpt lat="43.92692" lon="2.04915">
        <ele>157.206401</ele>
        <time>2026-08-29T15:10:34Z</time>
      </trkpt>
      <trkpt lat="43.92691" lon="2.04911">
        <ele>157.225142</ele>
        <time>2026-08-29T15:10:35Z</time>
      </trkpt>
      <trkpt lat="43.9269" lon="2.04906">
        <ele>157.251858</ele>
        <time>2026-08-29T15:10:36Z</time>
      </trkpt>
      <trkpt lat="43.92689" lon="2.04902">
        <ele>157.326922</ele>
        <time>2026-08-29T15:10:37Z</time>
      </trkpt>
      <trkpt lat="43.92688" lon="2.04898">
        <ele>157.399904</ele>
        <time>2026-08-29T15:10:38Z</time>
      </trkpt>
      <trkpt lat="43.92687" lon="2.04893">
        <ele>157.475751</ele>
        <time>2026-08-29T15:10:39Z</time>
      </trkpt>
      <trkpt lat="43.92687" lon="2.04889">
        <ele>157.55328</ele>
        <time>2026-08-29T15:10:40Z</time>
      </trkpt>
      <trkpt lat="43.92686" lon="2.04884">
        <ele>157.629127</ele>
        <time>2026-08-29T15:10:41Z</time>
      </trkpt>
      <trkpt lat="43.92686" lon="2.0488">
        <ele>157.710403</ele>
        <time>2026-08-29T15:10:42Z</time>
      </trkpt>
      <trkpt lat="43.92686" lon="2.04875">
        <ele>157.789049</ele>
        <time>2026-08-29T15:10:43Z</time>
      </trkpt>
      <trkpt lat="43.92685" lon="2.04871">
        <ele>157.860914</ele>
        <time>2026-08-29T15:10:44Z</time>
      </trkpt>
      <trkpt lat="43.92685" lon="2.04867">
        <ele>157.926052</ele>
        <time>2026-08-29T15:10:45Z</time>
      </trkpt>
      <trkpt lat="43.92685" lon="2.04863">
        <ele>157.994161</ele>
        <time>2026-08-29T15:10:46Z</time>
      </trkpt>
      <trkpt lat="43.92684" lon="2.04859">
        <ele>158.062434</ele>
        <time>2026-08-29T15:10:47Z</time>
      </trkpt>
      <trkpt lat="43.92684" lon="2.04855">
        <ele>158.132406</ele>
        <time>2026-08-29T15:10:48Z</time>
      </trkpt>
      <trkpt lat="43.92684" lon="2.04851">
        <ele>158.204077</ele>
        <time>2026-08-29T15:10:49Z</time>
      </trkpt>
      <trkpt lat="43.92684" lon="2.04847">
        <ele>158.273928</ele>
        <time>2026-08-29T15:10:50Z</time>
      </trkpt>
      <trkpt lat="43.92685" lon="2.04843">
        <ele>158.345482</ele>
        <time>2026-08-29T15:10:51Z</time>
      </trkpt>
      <trkpt lat="43.92685" lon="2.04838">
        <ele>158.417036</ele>
        <time>2026-08-29T15:10:52Z</time>
      </trkpt>
      <trkpt lat="43.92684" lon="2.04835">
        <ele>158.479059</ele>
        <time>2026-08-29T15:10:53Z</time>
      </trkpt>
      <trkpt lat="43.92684" lon="2.04831">
        <ele>158.5394</ele>
        <time>2026-08-29T15:10:54Z</time>
      </trkpt>
      <trkpt lat="43.92684" lon="2.04828">
        <ele>158.588779</ele>
        <time>2026-08-29T15:10:55Z</time>
      </trkpt>
      <trkpt lat="43.92685" lon="2.04824">
        <ele>158.66605</ele>
        <time>2026-08-29T15:10:56Z</time>
      </trkpt>
      <trkpt lat="43.92685" lon="2.0482">
        <ele>158.740628</ele>
        <time>2026-08-29T15:10:57Z</time>
      </trkpt>
      <trkpt lat="43.92686" lon="2.04815">
        <ele>158.819841</ele>
        <time>2026-08-29T15:10:58Z</time>
      </trkpt>
      <trkpt lat="43.92686" lon="2.04811">
        <ele>158.895355</ele>
        <time>2026-08-29T15:10:59Z</time>
      </trkpt>
      <trkpt lat="43.92687" lon="2.04807">
        <ele>158.968263</ele>
        <time>2026-08-29T15:11:00Z</time>
      </trkpt>
      <trkpt lat="43.92687" lon="2.04803">
        <ele>159.037833</ele>
        <time>2026-08-29T15:11:01Z</time>
      </trkpt>
      <trkpt lat="43.92688" lon="2.04799">
        <ele>159.104617</ele>
        <time>2026-08-29T15:11:02Z</time>
      </trkpt>
      <trkpt lat="43.92688" lon="2.04795">
        <ele>159.166325</ele>
        <time>2026-08-29T15:11:03Z</time>
      </trkpt>
      <trkpt lat="43.92688" lon="2.04792">
        <ele>159.225967</ele>
        <time>2026-08-29T15:11:04Z</time>
      </trkpt>
      <trkpt lat="43.92688" lon="2.04788">
        <ele>159.288968</ele>
        <time>2026-08-29T15:11:05Z</time>
      </trkpt>
      <trkpt lat="43.92688" lon="2.04784">
        <ele>159.356044</ele>
        <time>2026-08-29T15:11:06Z</time>
      </trkpt>
      <trkpt lat="43.92689" lon="2.0478">
        <ele>159.422284</ele>
        <time>2026-08-29T15:11:07Z</time>
      </trkpt>
      <trkpt lat="43.92689" lon="2.04777">
        <ele>159.483545</ele>
        <time>2026-08-29T15:11:08Z</time>
      </trkpt>
      <trkpt lat="43.9269" lon="2.04773">
        <ele>159.542204</ele>
        <time>2026-08-29T15:11:09Z</time>
      </trkpt>
      <trkpt lat="43.92691" lon="2.04769">
        <ele>159.608991</ele>
        <time>2026-08-29T15:11:10Z</time>
      </trkpt>
      <trkpt lat="43.92691" lon="2.04766">
        <ele>159.671909</ele>
        <time>2026-08-29T15:11:11Z</time>
      </trkpt>
      <trkpt lat="43.92692" lon="2.04762">
        <ele>159.7373</ele>
        <time>2026-08-29T15:11:12Z</time>
      </trkpt>
      <trkpt lat="43.92692" lon="2.04758">
        <ele>159.809165</ele>
        <time>2026-08-29T15:11:13Z</time>
      </trkpt>
      <trkpt lat="43.92693" lon="2.04754">
        <ele>159.878212</ele>
        <time>2026-08-29T15:11:14Z</time>
      </trkpt>
      <trkpt lat="43.92693" lon="2.0475">
        <ele>159.946975</ele>
        <time>2026-08-29T15:11:15Z</time>
      </trkpt>
      <trkpt lat="43.92694" lon="2.04745">
        <ele>160.027871</ele>
        <time>2026-08-29T15:11:16Z</time>
      </trkpt>
      <trkpt lat="43.92694" lon="2.0474">
        <ele>160.110452</ele>
        <time>2026-08-29T15:11:17Z</time>
      </trkpt>
      <trkpt lat="43.92694" lon="2.04736">
        <ele>160.19442</ele>
        <time>2026-08-29T15:11:18Z</time>
      </trkpt>
      <trkpt lat="43.92695" lon="2.04731">
        <ele>160.27137</ele>
        <time>2026-08-29T15:11:19Z</time>
      </trkpt>
      <trkpt lat="43.92695" lon="2.04726">
        <ele>160.354323</ele>
        <time>2026-08-29T15:11:20Z</time>
      </trkpt>
      <trkpt lat="43.92696" lon="2.04722">
        <ele>160.433535</ele>
        <time>2026-08-29T15:11:21Z</time>
      </trkpt>
      <trkpt lat="43.92696" lon="2.04717">
        <ele>160.511459</ele>
        <time>2026-08-29T15:11:22Z</time>
      </trkpt>
      <trkpt lat="43.92697" lon="2.04713">
        <ele>160.58771</ele>
        <time>2026-08-29T15:11:23Z</time>
      </trkpt>
      <trkpt lat="43.92698" lon="2.04709">
        <ele>160.654497</ele>
        <time>2026-08-29T15:11:24Z</time>
      </trkpt>
      <trkpt lat="43.92698" lon="2.04705">
        <ele>160.729075</ele>
        <time>2026-08-29T15:11:25Z</time>
      </trkpt>
      <trkpt lat="43.92699" lon="2.047">
        <ele>160.808287</ele>
        <time>2026-08-29T15:11:26Z</time>
      </trkpt>
      <trkpt lat="43.927" lon="2.04695">
        <ele>160.893346</ele>
        <time>2026-08-29T15:11:27Z</time>
      </trkpt>
      <trkpt lat="43.927" lon="2.0469">
        <ele>160.979006</ele>
        <time>2026-08-29T15:11:28Z</time>
      </trkpt>
      <trkpt lat="43.927" lon="2.04685">
        <ele>161.066358</ele>
        <time>2026-08-29T15:11:29Z</time>
      </trkpt>
      <trkpt lat="43.92701" lon="2.0468">
        <ele>161.155685</ele>
        <time>2026-08-29T15:11:30Z</time>
      </trkpt>
      <trkpt lat="43.92701" lon="2.04674">
        <ele>161.252999</ele>
        <time>2026-08-29T15:11:31Z</time>
      </trkpt>
      <trkpt lat="43.92701" lon="2.04668">
        <ele>161.353488</ele>
        <time>2026-08-29T15:11:32Z</time>
      </trkpt>
      <trkpt lat="43.92701" lon="2.04662">
        <ele>161.455761</ele>
        <time>2026-08-29T15:11:33Z</time>
      </trkpt>
      <trkpt lat="43.927" lon="2.04656">
        <ele>161.412578</ele>
        <time>2026-08-29T15:11:34Z</time>
      </trkpt>
      <trkpt lat="43.92699" lon="2.04649">
        <ele>161.283442</ele>
        <time>2026-08-29T15:11:35Z</time>
      </trkpt>
      <trkpt lat="43.92698" lon="2.04642">
        <ele>161.148877</ele>
        <time>2026-08-29T15:11:36Z</time>
      </trkpt>
      <trkpt lat="43.92697" lon="2.04635">
        <ele>161.011191</ele>
        <time>2026-08-29T15:11:37Z</time>
      </trkpt>
      <trkpt lat="43.92696" lon="2.04627">
        <ele>160.871187</ele>
        <time>2026-08-29T15:11:38Z</time>
      </trkpt>
      <trkpt lat="43.92695" lon="2.0462">
        <ele>160.728831</ele>
        <time>2026-08-29T15:11:39Z</time>
      </trkpt>
      <trkpt lat="43.92694" lon="2.04612">
        <ele>160.584667</ele>
        <time>2026-08-29T15:11:40Z</time>
      </trkpt>
      <trkpt lat="43.92693" lon="2.04604">
        <ele>160.436044</ele>
        <time>2026-08-29T15:11:41Z</time>
      </trkpt>
      <trkpt lat="43.92691" lon="2.04596">
        <ele>160.278659</ele>
        <time>2026-08-29T15:11:42Z</time>
      </trkpt>
      <trkpt lat="43.9269" lon="2.04588">
        <ele>160.126386</ele>
        <time>2026-08-29T15:11:43Z</time>
      </trkpt>
      <trkpt lat="43.92689" lon="2.0458">
        <ele>159.970811</ele>
        <time>2026-08-29T15:11:44Z</time>
      </trkpt>
      <trkpt lat="43.92688" lon="2.04571">
        <ele>159.805054</ele>
        <time>2026-08-29T15:11:45Z</time>
      </trkpt>
      <trkpt lat="43.92686" lon="2.04562">
        <ele>159.63208</ele>
        <time>2026-08-29T15:11:46Z</time>
      </trkpt>
      <trkpt lat="43.92685" lon="2.04553">
        <ele>159.461474</ele>
        <time>2026-08-29T15:11:47Z</time>
      </trkpt>
      <trkpt lat="43.92683" lon="2.04544">
        <ele>159.292678</ele>
        <time>2026-08-29T15:11:48Z</time>
      </trkpt>
      <trkpt lat="43.92682" lon="2.04535">
        <ele>159.121511</ele>
        <time>2026-08-29T15:11:49Z</time>
      </trkpt>
      <trkpt lat="43.92681" lon="2.04526">
        <ele>158.949612</ele>
        <time>2026-08-29T15:11:50Z</time>
      </trkpt>
      <trkpt lat="43.92679" lon="2.04516">
        <ele>158.772257</ele>
        <time>2026-08-29T15:11:51Z</time>
      </trkpt>
      <trkpt lat="43.92678" lon="2.04507">
        <ele>158.600358</ele>
        <time>2026-08-29T15:11:52Z</time>
      </trkpt>
      <trkpt lat="43.92677" lon="2.04498">
        <ele>158.424314</ele>
        <time>2026-08-29T15:11:53Z</time>
      </trkpt>
      <trkpt lat="43.92675" lon="2.04488">
        <ele>158.241951</ele>
        <time>2026-08-29T15:11:54Z</time>
      </trkpt>
      <trkpt lat="43.92674" lon="2.04478">
        <ele>158.052278</ele>
        <time>2026-08-29T15:11:55Z</time>
      </trkpt>
      <trkpt lat="43.92673" lon="2.04468">
        <ele>157.86888</ele>
        <time>2026-08-29T15:11:56Z</time>
      </trkpt>
      <trkpt lat="43.92672" lon="2.04459">
        <ele>157.691338</ele>
        <time>2026-08-29T15:11:57Z</time>
      </trkpt>
      <trkpt lat="43.92671" lon="2.0445">
        <ele>157.518538</ele>
        <time>2026-08-29T15:11:58Z</time>
      </trkpt>
      <trkpt lat="43.9267" lon="2.0444">
        <ele>157.337321</ele>
        <time>2026-08-29T15:11:59Z</time>
      </trkpt>
      <trkpt lat="43.92669" lon="2.0443">
        <ele>157.159779</ele>
        <time>2026-08-29T15:12:00Z</time>
      </trkpt>
      <trkpt lat="43.92668" lon="2.04421">
        <ele>156.97514</ele>
        <time>2026-08-29T15:12:01Z</time>
      </trkpt>
      <trkpt lat="43.92667" lon="2.04411">
        <ele>156.804913</ele>
        <time>2026-08-29T15:12:02Z</time>
      </trkpt>
      <trkpt lat="43.92667" lon="2.04401">
        <ele>156.66178</ele>
        <time>2026-08-29T15:12:03Z</time>
      </trkpt>
      <trkpt lat="43.92666" lon="2.04392">
        <ele>156.51482</ele>
        <time>2026-08-29T15:12:04Z</time>
      </trkpt>
      <trkpt lat="43.92665" lon="2.04382">
        <ele>156.362552</ele>
        <time>2026-08-29T15:12:05Z</time>
      </trkpt>
      <trkpt lat="43.92664" lon="2.04371">
        <ele>156.204014</ele>
        <time>2026-08-29T15:12:06Z</time>
      </trkpt>
      <trkpt lat="43.92662" lon="2.0436">
        <ele>156.034019</ele>
        <time>2026-08-29T15:12:07Z</time>
      </trkpt>
      <trkpt lat="43.92661" lon="2.04349">
        <ele>155.859356</ele>
        <time>2026-08-29T15:12:08Z</time>
      </trkpt>
      <trkpt lat="43.92659" lon="2.04337">
        <ele>155.684921</ele>
        <time>2026-08-29T15:12:09Z</time>
      </trkpt>
      <trkpt lat="43.92657" lon="2.04326">
        <ele>155.511575</ele>
        <time>2026-08-29T15:12:10Z</time>
      </trkpt>
      <trkpt lat="43.92656" lon="2.04315">
        <ele>155.340313</ele>
        <time>2026-08-29T15:12:11Z</time>
      </trkpt>
      <trkpt lat="43.92654" lon="2.04304">
        <ele>155.171987</ele>
        <time>2026-08-29T15:12:12Z</time>
      </trkpt>
      <trkpt lat="43.92652" lon="2.04294">
        <ele>155.015863</ele>
        <time>2026-08-29T15:12:13Z</time>
      </trkpt>
      <trkpt lat="43.9265" lon="2.04284">
        <ele>154.864223</ele>
        <time>2026-08-29T15:12:14Z</time>
      </trkpt>
      <trkpt lat="43.92648" lon="2.04275">
        <ele>154.715449</ele>
        <time>2026-08-29T15:12:15Z</time>
      </trkpt>
      <trkpt lat="43.92646" lon="2.04266">
        <ele>154.568106</ele>
        <time>2026-08-29T15:12:16Z</time>
      </trkpt>
      <trkpt lat="43.92644" lon="2.04256">
        <ele>154.421149</ele>
        <time>2026-08-29T15:12:17Z</time>
      </trkpt>
      <trkpt lat="43.92642" lon="2.04247">
        <ele>154.278534</ele>
        <time>2026-08-29T15:12:18Z</time>
      </trkpt>
      <trkpt lat="43.9264" lon="2.04239">
        <ele>154.145343</ele>
        <time>2026-08-29T15:12:19Z</time>
      </trkpt>
      <trkpt lat="43.92639" lon="2.0423">
        <ele>154.02043</ele>
        <time>2026-08-29T15:12:20Z</time>
      </trkpt>
      <trkpt lat="43.92638" lon="2.04223">
        <ele>153.901386</ele>
        <time>2026-08-29T15:12:21Z</time>
      </trkpt>
      <trkpt lat="43.92636" lon="2.04215">
        <ele>153.786733</ele>
        <time>2026-08-29T15:12:22Z</time>
      </trkpt>
      <trkpt lat="43.92635" lon="2.04208">
        <ele>153.678245</ele>
        <time>2026-08-29T15:12:23Z</time>
      </trkpt>
      <trkpt lat="43.92633" lon="2.04202">
        <ele>153.575568</ele>
        <time>2026-08-29T15:12:24Z</time>
      </trkpt>
      <trkpt lat="43.92631" lon="2.04196">
        <ele>153.475709</ele>
        <time>2026-08-29T15:12:25Z</time>
      </trkpt>
      <trkpt lat="43.9263" lon="2.0419">
        <ele>153.377065</ele>
        <time>2026-08-29T15:12:26Z</time>
      </trkpt>
      <trkpt lat="43.92629" lon="2.04184">
        <ele>153.284194</ele>
        <time>2026-08-29T15:12:27Z</time>
      </trkpt>
      <trkpt lat="43.92627" lon="2.04178">
        <ele>153.196388</ele>
        <time>2026-08-29T15:12:28Z</time>
      </trkpt>
      <trkpt lat="43.92626" lon="2.04173">
        <ele>153.119908</ele>
        <time>2026-08-29T15:12:29Z</time>
      </trkpt>
      <trkpt lat="43.92625" lon="2.04169">
        <ele>153.232423</ele>
        <time>2026-08-29T15:12:30Z</time>
      </trkpt>
      <trkpt lat="43.92625" lon="2.04165">
        <ele>153.364307</ele>
        <time>2026-08-29T15:12:31Z</time>
      </trkpt>
      <trkpt lat="43.92624" lon="2.04161">
        <ele>153.499574</ele>
        <time>2026-08-29T15:12:32Z</time>
      </trkpt>
      <trkpt lat="43.92623" lon="2.04157">
        <ele>153.639299</ele>
        <time>2026-08-29T15:12:33Z</time>
      </trkpt>
      <trkpt lat="43.92622" lon="2.04153">
        <ele>153.77765</ele>
        <time>2026-08-29T15:12:34Z</time>
      </trkpt>
      <trkpt lat="43.92621" lon="2.04149">
        <ele>153.918876</ele>
        <time>2026-08-29T15:12:35Z</time>
      </trkpt>
      <trkpt lat="43.92619" lon="2.04145">
        <ele>154.058742</ele>
        <time>2026-08-29T15:12:36Z</time>
      </trkpt>
      <trkpt lat="43.92618" lon="2.0414">
        <ele>154.201594</ele>
        <time>2026-08-29T15:12:37Z</time>
      </trkpt>
      <trkpt lat="43.92617" lon="2.04137">
        <ele>154.335524</ele>
        <time>2026-08-29T15:12:38Z</time>
      </trkpt>
      <trkpt lat="43.92616" lon="2.04133">
        <ele>154.470719</ele>
        <time>2026-08-29T15:12:39Z</time>
      </trkpt>
      <trkpt lat="43.92615" lon="2.04129">
        <ele>154.603603</ele>
        <time>2026-08-29T15:12:40Z</time>
      </trkpt>
      <trkpt lat="43.92614" lon="2.04125">
        <ele>154.735797</ele>
        <time>2026-08-29T15:12:41Z</time>
      </trkpt>
      <trkpt lat="43.92612" lon="2.04122">
        <ele>154.86726</ele>
        <time>2026-08-29T15:12:42Z</time>
      </trkpt>
      <trkpt lat="43.92611" lon="2.04118">
        <ele>154.995959</ele>
        <time>2026-08-29T15:12:43Z</time>
      </trkpt>
      <trkpt lat="43.92609" lon="2.04115">
        <ele>155.124659</ele>
        <time>2026-08-29T15:12:44Z</time>
      </trkpt>
      <trkpt lat="43.92608" lon="2.04112">
        <ele>155.2479</ele>
        <time>2026-08-29T15:12:45Z</time>
      </trkpt>
      <trkpt lat="43.92606" lon="2.04109">
        <ele>155.363285</ele>
        <time>2026-08-29T15:12:46Z</time>
      </trkpt>
      <trkpt lat="43.92605" lon="2.04106">
        <ele>155.478531</ele>
        <time>2026-08-29T15:12:47Z</time>
      </trkpt>
      <trkpt lat="43.92603" lon="2.04103">
        <ele>155.59188</ele>
        <time>2026-08-29T15:12:48Z</time>
      </trkpt>
      <trkpt lat="43.92601" lon="2.04101">
        <ele>155.70286</ele>
        <time>2026-08-29T15:12:49Z</time>
      </trkpt>
      <trkpt lat="43.926" lon="2.04098">
        <ele>155.81384</ele>
        <time>2026-08-29T15:12:50Z</time>
      </trkpt>
      <trkpt lat="43.92598" lon="2.04095">
        <ele>155.92648</ele>
        <time>2026-08-29T15:12:51Z</time>
      </trkpt>
      <trkpt lat="43.92597" lon="2.04093">
        <ele>156.031265</ele>
        <time>2026-08-29T15:12:52Z</time>
      </trkpt>
      <trkpt lat="43.92595" lon="2.0409">
        <ele>156.133835</ele>
        <time>2026-08-29T15:12:53Z</time>
      </trkpt>
      <trkpt lat="43.92594" lon="2.04088">
        <ele>156.237051</ele>
        <time>2026-08-29T15:12:54Z</time>
      </trkpt>
      <trkpt lat="43.92592" lon="2.04086">
        <ele>156.340267</ele>
        <time>2026-08-29T15:12:55Z</time>
      </trkpt>
      <trkpt lat="43.9259" lon="2.04084">
        <ele>156.438941</ele>
        <time>2026-08-29T15:12:56Z</time>
      </trkpt>
      <trkpt lat="43.92589" lon="2.04081">
        <ele>156.548574</ele>
        <time>2026-08-29T15:12:57Z</time>
      </trkpt>
      <trkpt lat="43.92587" lon="2.04079">
        <ele>156.657412</ele>
        <time>2026-08-29T15:12:58Z</time>
      </trkpt>
      <trkpt lat="43.92585" lon="2.04077">
        <ele>156.770761</ele>
        <time>2026-08-29T15:12:59Z</time>
      </trkpt>
      <trkpt lat="43.92583" lon="2.04074">
        <ele>156.891906</ele>
        <time>2026-08-29T15:13:00Z</time>
      </trkpt>
      <trkpt lat="43.92581" lon="2.04072">
        <ele>157.011778</ele>
        <time>2026-08-29T15:13:01Z</time>
      </trkpt>
      <trkpt lat="43.92579" lon="2.04069">
        <ele>157.13165</ele>
        <time>2026-08-29T15:13:02Z</time>
      </trkpt>
      <trkpt lat="43.92577" lon="2.04067">
        <ele>157.251522</ele>
        <time>2026-08-29T15:13:03Z</time>
      </trkpt>
      <trkpt lat="43.92575" lon="2.04065">
        <ele>157.371395</ele>
        <time>2026-08-29T15:13:04Z</time>
      </trkpt>
      <trkpt lat="43.92573" lon="2.04062">
        <ele>157.489866</ele>
        <time>2026-08-29T15:13:05Z</time>
      </trkpt>
      <trkpt lat="43.92571" lon="2.0406">
        <ele>157.604985</ele>
        <time>2026-08-29T15:13:06Z</time>
      </trkpt>
      <trkpt lat="43.92569" lon="2.04057">
        <ele>157.721393</ele>
        <time>2026-08-29T15:13:07Z</time>
      </trkpt>
      <trkpt lat="43.92567" lon="2.04055">
        <ele>157.83178</ele>
        <time>2026-08-29T15:13:08Z</time>
      </trkpt>
      <trkpt lat="43.92566" lon="2.04053">
        <ele>157.928266</ele>
        <time>2026-08-29T15:13:09Z</time>
      </trkpt>
      <trkpt lat="43.92564" lon="2.0405">
        <ele>158.045581</ele>
        <time>2026-08-29T15:13:10Z</time>
      </trkpt>
      <trkpt lat="43.92562" lon="2.04048">
        <ele>158.151142</ele>
        <time>2026-08-29T15:13:11Z</time>
      </trkpt>
      <trkpt lat="43.92561" lon="2.04046">
        <ele>158.25312</ele>
        <time>2026-08-29T15:13:12Z</time>
      </trkpt>
      <trkpt lat="43.92559" lon="2.04044">
        <ele>158.348935</ele>
        <time>2026-08-29T15:13:13Z</time>
      </trkpt>
      <trkpt lat="43.92558" lon="2.04042">
        <ele>158.443696</ele>
        <time>2026-08-29T15:13:14Z</time>
      </trkpt>
      <trkpt lat="43.92556" lon="2.04039">
        <ele>158.540899</ele>
        <time>2026-08-29T15:13:15Z</time>
      </trkpt>
      <trkpt lat="43.92555" lon="2.04037">
        <ele>158.64059</ele>
        <time>2026-08-29T15:13:16Z</time>
      </trkpt>
      <trkpt lat="43.92553" lon="2.04035">
        <ele>158.736405</ele>
        <time>2026-08-29T15:13:17Z</time>
      </trkpt>
      <trkpt lat="43.92551" lon="2.04033">
        <ele>158.83949</ele>
        <time>2026-08-29T15:13:18Z</time>
      </trkpt>
      <trkpt lat="43.92549" lon="2.04031">
        <ele>158.945869</ele>
        <time>2026-08-29T15:13:19Z</time>
      </trkpt>
      <trkpt lat="43.92548" lon="2.04028">
        <ele>159.058729</ele>
        <time>2026-08-29T15:13:20Z</time>
      </trkpt>
      <trkpt lat="43.92546" lon="2.04025">
        <ele>159.182355</ele>
        <time>2026-08-29T15:13:21Z</time>
      </trkpt>
      <trkpt lat="43.92545" lon="2.04022">
        <ele>159.297601</ele>
        <time>2026-08-29T15:13:22Z</time>
      </trkpt>
      <trkpt lat="43.92543" lon="2.04019">
        <ele>159.418296</ele>
        <time>2026-08-29T15:13:23Z</time>
      </trkpt>
      <trkpt lat="43.92542" lon="2.04016">
        <ele>159.544064</ele>
        <time>2026-08-29T15:13:24Z</time>
      </trkpt>
      <trkpt lat="43.9254" lon="2.04014">
        <ele>159.659824</ele>
        <time>2026-08-29T15:13:25Z</time>
      </trkpt>
      <trkpt lat="43.92538" lon="2.04011">
        <ele>159.769891</ele>
        <time>2026-08-29T15:13:26Z</time>
      </trkpt>
      <trkpt lat="43.92537" lon="2.04008">
        <ele>159.869422</ele>
        <time>2026-08-29T15:13:27Z</time>
      </trkpt>
      <trkpt lat="43.92536" lon="2.04005">
        <ele>159.97738</ele>
        <time>2026-08-29T15:13:28Z</time>
      </trkpt>
      <trkpt lat="43.92535" lon="2.04003">
        <ele>160.082214</ele>
        <time>2026-08-29T15:13:29Z</time>
      </trkpt>
      <trkpt lat="43.92533" lon="2.04">
        <ele>160.192238</ele>
        <time>2026-08-29T15:13:30Z</time>
      </trkpt>
      <trkpt lat="43.92532" lon="2.03997">
        <ele>160.299627</ele>
        <time>2026-08-29T15:13:31Z</time>
      </trkpt>
      <trkpt lat="43.9253" lon="2.03995">
        <ele>160.399318</ele>
        <time>2026-08-29T15:13:32Z</time>
      </trkpt>
      <trkpt lat="43.92529" lon="2.03992">
        <ele>160.504152</ele>
        <time>2026-08-29T15:13:33Z</time>
      </trkpt>
      <trkpt lat="43.92528" lon="2.03989">
        <ele>160.614219</ele>
        <time>2026-08-29T15:13:34Z</time>
      </trkpt>
      <trkpt lat="43.92526" lon="2.03987">
        <ele>160.719005</ele>
        <time>2026-08-29T15:13:35Z</time>
      </trkpt>
      <trkpt lat="43.92525" lon="2.03984">
        <ele>160.821416</ele>
        <time>2026-08-29T15:13:36Z</time>
      </trkpt>
      <trkpt lat="43.92524" lon="2.03982">
        <ele>160.91598</ele>
        <time>2026-08-29T15:13:37Z</time>
      </trkpt>
      <trkpt lat="43.92523" lon="2.03979">
        <ele>161.023938</ele>
        <time>2026-08-29T15:13:38Z</time>
      </trkpt>
      <trkpt lat="43.92521" lon="2.03976">
        <ele>161.136951</ele>
        <time>2026-08-29T15:13:39Z</time>
      </trkpt>
      <trkpt lat="43.9252" lon="2.03973">
        <ele>161.217449</ele>
        <time>2026-08-29T15:13:40Z</time>
      </trkpt>
      <trkpt lat="43.92518" lon="2.0397">
        <ele>161.281698</ele>
        <time>2026-08-29T15:13:41Z</time>
      </trkpt>
      <trkpt lat="43.92517" lon="2.03967">
        <ele>161.344561</ele>
        <time>2026-08-29T15:13:42Z</time>
      </trkpt>
      <trkpt lat="43.92516" lon="2.03964">
        <ele>161.402809</ele>
        <time>2026-08-29T15:13:43Z</time>
      </trkpt>
      <trkpt lat="43.92514" lon="2.03962">
        <ele>161.464117</ele>
        <time>2026-08-29T15:13:44Z</time>
      </trkpt>
      <trkpt lat="43.92513" lon="2.03959">
        <ele>161.529823</ele>
        <time>2026-08-29T15:13:45Z</time>
      </trkpt>
      <trkpt lat="43.92512" lon="2.03956">
        <ele>161.592552</ele>
        <time>2026-08-29T15:13:46Z</time>
      </trkpt>
      <trkpt lat="43.9251" lon="2.03953">
        <ele>161.653778</ele>
        <time>2026-08-29T15:13:47Z</time>
      </trkpt>
      <trkpt lat="43.92509" lon="2.0395">
        <ele>161.719485</ele>
        <time>2026-08-29T15:13:48Z</time>
      </trkpt>
      <trkpt lat="43.92507" lon="2.03947">
        <ele>161.792694</ele>
        <time>2026-08-29T15:13:49Z</time>
      </trkpt>
      <trkpt lat="43.92505" lon="2.03944">
        <ele>161.867437</ele>
        <time>2026-08-29T15:13:50Z</time>
      </trkpt>
      <trkpt lat="43.92504" lon="2.0394">
        <ele>161.936342</ele>
        <time>2026-08-29T15:13:51Z</time>
      </trkpt>
      <trkpt lat="43.92503" lon="2.03937">
        <ele>162.003679</ele>
        <time>2026-08-29T15:13:52Z</time>
      </trkpt>
      <trkpt lat="43.92501" lon="2.03934">
        <ele>162.068112</ele>
        <time>2026-08-29T15:13:53Z</time>
      </trkpt>
      <trkpt lat="43.925" lon="2.03932">
        <ele>162.129338</ele>
        <time>2026-08-29T15:13:54Z</time>
      </trkpt>
      <trkpt lat="43.92499" lon="2.03929">
        <ele>162.189081</ele>
        <time>2026-08-29T15:13:55Z</time>
      </trkpt>
      <trkpt lat="43.92497" lon="2.03926">
        <ele>162.250307</ele>
        <time>2026-08-29T15:13:56Z</time>
      </trkpt>
      <trkpt lat="43.92496" lon="2.03924">
        <ele>162.313036</ele>
        <time>2026-08-29T15:13:57Z</time>
      </trkpt>
      <trkpt lat="43.92494" lon="2.03921">
        <ele>162.375765</ele>
        <time>2026-08-29T15:13:58Z</time>
      </trkpt>
      <trkpt lat="43.92493" lon="2.03918">
        <ele>162.440014</ele>
        <time>2026-08-29T15:13:59Z</time>
      </trkpt>
      <trkpt lat="43.92492" lon="2.03915">
        <ele>162.502877</ele>
        <time>2026-08-29T15:14:00Z</time>
      </trkpt>
      <trkpt lat="43.9249" lon="2.03912">
        <ele>162.570215</ele>
        <time>2026-08-29T15:14:01Z</time>
      </trkpt>
      <trkpt lat="43.92489" lon="2.03908">
        <ele>162.643592</ele>
        <time>2026-08-29T15:14:02Z</time>
      </trkpt>
      <trkpt lat="43.92487" lon="2.03905">
        <ele>162.709608</ele>
        <time>2026-08-29T15:14:03Z</time>
      </trkpt>
      <trkpt lat="43.92486" lon="2.03902">
        <ele>162.778421</ele>
        <time>2026-08-29T15:14:04Z</time>
      </trkpt>
      <trkpt lat="43.92484" lon="2.03899">
        <ele>162.848686</ele>
        <time>2026-08-29T15:14:05Z</time>
      </trkpt>
      <trkpt lat="43.92483" lon="2.03896">
        <ele>162.914702</ele>
        <time>2026-08-29T15:14:06Z</time>
      </trkpt>
      <trkpt lat="43.92482" lon="2.03893">
        <ele>162.982315</ele>
        <time>2026-08-29T15:14:07Z</time>
      </trkpt>
      <trkpt lat="43.9248" lon="2.0389">
        <ele>163.055692</ele>
        <time>2026-08-29T15:14:08Z</time>
      </trkpt>
      <trkpt lat="43.92479" lon="2.03886">
        <ele>163.129371</ele>
        <time>2026-08-29T15:14:09Z</time>
      </trkpt>
      <trkpt lat="43.92477" lon="2.03883">
        <ele>163.200213</ele>
        <time>2026-08-29T15:14:10Z</time>
      </trkpt>
      <trkpt lat="43.92476" lon="2.03879">
        <ele>163.271055</ele>
        <time>2026-08-29T15:14:11Z</time>
      </trkpt>
      <trkpt lat="43.92475" lon="2.03876">
        <ele>163.335823</ele>
        <time>2026-08-29T15:14:12Z</time>
      </trkpt>
      <trkpt lat="43.92474" lon="2.03873">
        <ele>163.399422</ele>
        <time>2026-08-29T15:14:13Z</time>
      </trkpt>
      <trkpt lat="43.92473" lon="2.03869">
        <ele>163.473535</ele>
        <time>2026-08-29T15:14:14Z</time>
      </trkpt>
      <trkpt lat="43.92471" lon="2.03866">
        <ele>163.544873</ele>
        <time>2026-08-29T15:14:15Z</time>
      </trkpt>
      <trkpt lat="43.9247" lon="2.03862">
        <ele>163.615882</ele>
        <time>2026-08-29T15:14:16Z</time>
      </trkpt>
      <trkpt lat="43.92469" lon="2.03859">
        <ele>163.68347</ele>
        <time>2026-08-29T15:14:17Z</time>
      </trkpt>
      <trkpt lat="43.92468" lon="2.03856">
        <ele>163.747665</ele>
        <time>2026-08-29T15:14:18Z</time>
      </trkpt>
      <trkpt lat="43.92467" lon="2.03853">
        <ele>163.808502</ele>
        <time>2026-08-29T15:14:19Z</time>
      </trkpt>
      <trkpt lat="43.92466" lon="2.0385">
        <ele>163.86831</ele>
        <time>2026-08-29T15:14:20Z</time>
      </trkpt>
      <trkpt lat="43.92465" lon="2.03847">
        <ele>163.932505</ele>
        <time>2026-08-29T15:14:21Z</time>
      </trkpt>
      <trkpt lat="43.92464" lon="2.03843">
        <ele>163.998901</ele>
        <time>2026-08-29T15:14:22Z</time>
      </trkpt>
      <trkpt lat="43.92463" lon="2.0384">
        <ele>164.070772</ele>
        <time>2026-08-29T15:14:23Z</time>
      </trkpt>
      <trkpt lat="43.92462" lon="2.03836">
        <ele>164.147132</ele>
        <time>2026-08-29T15:14:24Z</time>
      </trkpt>
      <trkpt lat="43.92461" lon="2.03832">
        <ele>164.22181</ele>
        <time>2026-08-29T15:14:25Z</time>
      </trkpt>
      <trkpt lat="43.9246" lon="2.03829">
        <ele>164.29194</ele>
        <time>2026-08-29T15:14:26Z</time>
      </trkpt>
      <trkpt lat="43.92459" lon="2.03825">
        <ele>164.364944</ele>
        <time>2026-08-29T15:14:27Z</time>
      </trkpt>
      <trkpt lat="43.92458" lon="2.03821">
        <ele>164.43861</ele>
        <time>2026-08-29T15:14:28Z</time>
      </trkpt>
      <trkpt lat="43.92456" lon="2.03818">
        <ele>164.513563</ele>
        <time>2026-08-29T15:14:29Z</time>
      </trkpt>
      <trkpt lat="43.92455" lon="2.03814">
        <ele>164.591253</ele>
        <time>2026-08-29T15:14:30Z</time>
      </trkpt>
      <trkpt lat="43.92453" lon="2.0381">
        <ele>164.676386</ele>
        <time>2026-08-29T15:14:31Z</time>
      </trkpt>
      <trkpt lat="43.92451" lon="2.03806">
        <ele>164.765999</ele>
        <time>2026-08-29T15:14:32Z</time>
      </trkpt>
      <trkpt lat="43.92449" lon="2.03802">
        <ele>164.855071</ele>
        <time>2026-08-29T15:14:33Z</time>
      </trkpt>
      <trkpt lat="43.92447" lon="2.03797">
        <ele>164.955536</ele>
        <time>2026-08-29T15:14:34Z</time>
      </trkpt>
      <trkpt lat="43.92445" lon="2.03793">
        <ele>165.055129</ele>
        <time>2026-08-29T15:14:35Z</time>
      </trkpt>
      <trkpt lat="43.92443" lon="2.03787">
        <ele>165.166877</ele>
        <time>2026-08-29T15:14:36Z</time>
      </trkpt>
      <trkpt lat="43.92441" lon="2.03782">
        <ele>165.276993</ele>
        <time>2026-08-29T15:14:37Z</time>
      </trkpt>
      <trkpt lat="43.92439" lon="2.03776">
        <ele>165.390381</ele>
        <time>2026-08-29T15:14:38Z</time>
      </trkpt>
      <trkpt lat="43.92437" lon="2.03771">
        <ele>165.506573</ele>
        <time>2026-08-29T15:14:39Z</time>
      </trkpt>
      <trkpt lat="43.92435" lon="2.03765">
        <ele>165.622029</ele>
        <time>2026-08-29T15:14:40Z</time>
      </trkpt>
      <trkpt lat="43.92433" lon="2.0376">
        <ele>165.736591</ele>
        <time>2026-08-29T15:14:41Z</time>
      </trkpt>
      <trkpt lat="43.92431" lon="2.03754">
        <ele>165.657106</ele>
        <time>2026-08-29T15:14:42Z</time>
      </trkpt>
      <trkpt lat="43.92428" lon="2.03748">
        <ele>165.514782</ele>
        <time>2026-08-29T15:14:43Z</time>
      </trkpt>
      <trkpt lat="43.92426" lon="2.03742">
        <ele>165.372862</ele>
        <time>2026-08-29T15:14:44Z</time>
      </trkpt>
      <trkpt lat="43.92424" lon="2.03735">
        <ele>165.219858</ele>
        <time>2026-08-29T15:14:45Z</time>
      </trkpt>
      <trkpt lat="43.92422" lon="2.03728">
        <ele>165.055354</ele>
        <time>2026-08-29T15:14:46Z</time>
      </trkpt>
      <trkpt lat="43.9242" lon="2.0372">
        <ele>164.887719</ele>
        <time>2026-08-29T15:14:47Z</time>
      </trkpt>
      <trkpt lat="43.92418" lon="2.03713">
        <ele>164.715101</ele>
        <time>2026-08-29T15:14:48Z</time>
      </trkpt>
      <trkpt lat="43.92416" lon="2.03705">
        <ele>164.53187</ele>
        <time>2026-08-29T15:14:49Z</time>
      </trkpt>
      <trkpt lat="43.92414" lon="2.03696">
        <ele>164.346675</ele>
        <time>2026-08-29T15:14:50Z</time>
      </trkpt>
      <trkpt lat="43.92411" lon="2.03688">
        <ele>164.15248</ele>
        <time>2026-08-29T15:14:51Z</time>
      </trkpt>
      <trkpt lat="43.92408" lon="2.03679">
        <ele>163.949429</ele>
        <time>2026-08-29T15:14:52Z</time>
      </trkpt>
      <trkpt lat="43.92406" lon="2.0367">
        <ele>163.744433</ele>
        <time>2026-08-29T15:14:53Z</time>
      </trkpt>
      <trkpt lat="43.92403" lon="2.0366">
        <ele>163.529494</ele>
        <time>2026-08-29T15:14:54Z</time>
      </trkpt>
      <trkpt lat="43.924" lon="2.0365">
        <ele>163.302659</ele>
        <time>2026-08-29T15:14:55Z</time>
      </trkpt>
      <trkpt lat="43.92397" lon="2.0364">
        <ele>163.081154</ele>
        <time>2026-08-29T15:14:56Z</time>
      </trkpt>
      <trkpt lat="43.92394" lon="2.0363">
        <ele>162.851531</ele>
        <time>2026-08-29T15:14:57Z</time>
      </trkpt>
      <trkpt lat="43.92391" lon="2.0362">
        <ele>162.621001</ele>
        <time>2026-08-29T15:14:58Z</time>
      </trkpt>
      <trkpt lat="43.92388" lon="2.0361">
        <ele>162.384188</ele>
        <time>2026-08-29T15:14:59Z</time>
      </trkpt>
      <trkpt lat="43.92385" lon="2.03599">
        <ele>162.14871</ele>
        <time>2026-08-29T15:15:00Z</time>
      </trkpt>
      <trkpt lat="43.92383" lon="2.03588">
        <ele>161.90318</ele>
        <time>2026-08-29T15:15:01Z</time>
      </trkpt>
      <trkpt lat="43.9238" lon="2.03577">
        <ele>161.655649</ele>
        <time>2026-08-29T15:15:02Z</time>
      </trkpt>
      <trkpt lat="43.92377" lon="2.03565">
        <ele>161.410321</ele>
        <time>2026-08-29T15:15:03Z</time>
      </trkpt>
      <trkpt lat="43.92375" lon="2.03555">
        <ele>161.174492</ele>
        <time>2026-08-29T15:15:04Z</time>
      </trkpt>
      <trkpt lat="43.92373" lon="2.03544">
        <ele>160.937623</ele>
        <time>2026-08-29T15:15:05Z</time>
      </trkpt>
      <trkpt lat="43.92371" lon="2.03533">
        <ele>160.707537</ele>
        <time>2026-08-29T15:15:06Z</time>
      </trkpt>
      <trkpt lat="43.9237" lon="2.03522">
        <ele>160.544708</ele>
        <time>2026-08-29T15:15:07Z</time>
      </trkpt>
      <trkpt lat="43.92368" lon="2.03512">
        <ele>160.590252</ele>
        <time>2026-08-29T15:15:08Z</time>
      </trkpt>
      <trkpt lat="43.92367" lon="2.03501">
        <ele>160.637977</ele>
        <time>2026-08-29T15:15:09Z</time>
      </trkpt>
      <trkpt lat="43.92365" lon="2.0349">
        <ele>160.683675</ele>
        <time>2026-08-29T15:15:10Z</time>
      </trkpt>
      <trkpt lat="43.92362" lon="2.0348">
        <ele>160.72949</ele>
        <time>2026-08-29T15:15:11Z</time>
      </trkpt>
      <trkpt lat="43.92359" lon="2.0347">
        <ele>160.77555</ele>
        <time>2026-08-29T15:15:12Z</time>
      </trkpt>
      <trkpt lat="43.92356" lon="2.0346">
        <ele>160.820148</ele>
        <time>2026-08-29T15:15:13Z</time>
      </trkpt>
      <trkpt lat="43.92352" lon="2.03452">
        <ele>160.863107</ele>
        <time>2026-08-29T15:15:14Z</time>
      </trkpt>
      <trkpt lat="43.92348" lon="2.03444">
        <ele>160.902793</ele>
        <time>2026-08-29T15:15:15Z</time>
      </trkpt>
      <trkpt lat="43.92344" lon="2.03437">
        <ele>160.938417</ele>
        <time>2026-08-29T15:15:16Z</time>
      </trkpt>
      <trkpt lat="43.92341" lon="2.03431">
        <ele>160.97437</ele>
        <time>2026-08-29T15:15:17Z</time>
      </trkpt>
      <trkpt lat="43.92337" lon="2.03425">
        <ele>161.005488</ele>
        <time>2026-08-29T15:15:18Z</time>
      </trkpt>
      <trkpt lat="43.92333" lon="2.0342">
        <ele>161.036006</ele>
        <time>2026-08-29T15:15:19Z</time>
      </trkpt>
      <trkpt lat="43.9233" lon="2.03416">
        <ele>161.063795</ele>
        <time>2026-08-29T15:15:20Z</time>
      </trkpt>
      <trkpt lat="43.92327" lon="2.03411">
        <ele>161.090047</ele>
        <time>2026-08-29T15:15:21Z</time>
      </trkpt>
      <trkpt lat="43.92324" lon="2.03407">
        <ele>161.111957</ele>
        <time>2026-08-29T15:15:22Z</time>
      </trkpt>
      <trkpt lat="43.92322" lon="2.03404">
        <ele>161.130435</ele>
        <time>2026-08-29T15:15:23Z</time>
      </trkpt>
      <trkpt lat="43.9232" lon="2.03401">
        <ele>161.148072</ele>
        <time>2026-08-29T15:15:24Z</time>
      </trkpt>
      <trkpt lat="43.92319" lon="2.03398">
        <ele>161.163142</ele>
        <time>2026-08-29T15:15:25Z</time>
      </trkpt>
      <trkpt lat="43.92317" lon="2.03395">
        <ele>161.179057</ele>
        <time>2026-08-29T15:15:26Z</time>
      </trkpt>
      <trkpt lat="43.92316" lon="2.03392">
        <ele>161.193427</ele>
        <time>2026-08-29T15:15:27Z</time>
      </trkpt>
      <trkpt lat="43.92314" lon="2.03389">
        <ele>161.207845</ele>
        <time>2026-08-29T15:15:28Z</time>
      </trkpt>
      <trkpt lat="43.92312" lon="2.03388">
        <ele>161.220169</ele>
        <time>2026-08-29T15:15:29Z</time>
      </trkpt>
      <trkpt lat="43.92311" lon="2.03385">
        <ele>161.233772</ele>
        <time>2026-08-29T15:15:30Z</time>
      </trkpt>
      <trkpt lat="43.92309" lon="2.03383">
        <ele>161.249171</ele>
        <time>2026-08-29T15:15:31Z</time>
      </trkpt>
      <trkpt lat="43.92307" lon="2.0338">
        <ele>161.265085</ele>
        <time>2026-08-29T15:15:32Z</time>
      </trkpt>
      <trkpt lat="43.92305" lon="2.03378">
        <ele>161.279693</ele>
        <time>2026-08-29T15:15:33Z</time>
      </trkpt>
      <trkpt lat="43.92303" lon="2.03375">
        <ele>161.296154</ele>
        <time>2026-08-29T15:15:34Z</time>
      </trkpt>
      <trkpt lat="43.92301" lon="2.03372">
        <ele>161.312248</ele>
        <time>2026-08-29T15:15:35Z</time>
      </trkpt>
      <trkpt lat="43.923" lon="2.0337">
        <ele>161.325599</ele>
        <time>2026-08-29T15:15:36Z</time>
      </trkpt>
      <trkpt lat="43.92298" lon="2.03367">
        <ele>161.341791</ele>
        <time>2026-08-29T15:15:37Z</time>
      </trkpt>
      <trkpt lat="43.92296" lon="2.03364">
        <ele>161.357192</ele>
        <time>2026-08-29T15:15:38Z</time>
      </trkpt>
      <trkpt lat="43.92295" lon="2.03361">
        <ele>161.372402</ele>
        <time>2026-08-29T15:15:39Z</time>
      </trkpt>
      <trkpt lat="43.92294" lon="2.03358">
        <ele>161.388499</ele>
        <time>2026-08-29T15:15:40Z</time>
      </trkpt>
      <trkpt lat="43.92292" lon="2.03354">
        <ele>161.404462</ele>
        <time>2026-08-29T15:15:41Z</time>
      </trkpt>
      <trkpt lat="43.92291" lon="2.03351">
        <ele>161.418655</ele>
        <time>2026-08-29T15:15:42Z</time>
      </trkpt>
      <trkpt lat="43.9229" lon="2.03349">
        <ele>161.434094</ele>
        <time>2026-08-29T15:15:43Z</time>
      </trkpt>
      <trkpt lat="43.92288" lon="2.03346">
        <ele>161.450187</ele>
        <time>2026-08-29T15:15:44Z</time>
      </trkpt>
      <trkpt lat="43.92287" lon="2.03342">
        <ele>161.465281</ele>
        <time>2026-08-29T15:15:45Z</time>
      </trkpt>
      <trkpt lat="43.92286" lon="2.03339">
        <ele>161.480708</ele>
        <time>2026-08-29T15:15:46Z</time>
      </trkpt>
      <trkpt lat="43.92285" lon="2.03336">
        <ele>161.495414</ele>
        <time>2026-08-29T15:15:47Z</time>
      </trkpt>
      <trkpt lat="43.92284" lon="2.03332">
        <ele>161.511289</ele>
        <time>2026-08-29T15:15:48Z</time>
      </trkpt>
      <trkpt lat="43.92282" lon="2.03329">
        <ele>161.527388</ele>
        <time>2026-08-29T15:15:49Z</time>
      </trkpt>
      <trkpt lat="43.92282" lon="2.03325">
        <ele>161.543517</ele>
        <time>2026-08-29T15:15:50Z</time>
      </trkpt>
      <trkpt lat="43.92281" lon="2.03322">
        <ele>161.559096</ele>
        <time>2026-08-29T15:15:51Z</time>
      </trkpt>
      <trkpt lat="43.9228" lon="2.03318">
        <ele>161.575383</ele>
        <time>2026-08-29T15:15:52Z</time>
      </trkpt>
      <trkpt lat="43.9228" lon="2.03314">
        <ele>161.598278</ele>
        <time>2026-08-29T15:15:53Z</time>
      </trkpt>
      <trkpt lat="43.92279" lon="2.0331">
        <ele>161.650783</ele>
        <time>2026-08-29T15:15:54Z</time>
      </trkpt>
      <trkpt lat="43.92279" lon="2.03306">
        <ele>161.708824</ele>
        <time>2026-08-29T15:15:55Z</time>
      </trkpt>
      <trkpt lat="43.92278" lon="2.03302">
        <ele>161.761614</ele>
        <time>2026-08-29T15:15:56Z</time>
      </trkpt>
      <trkpt lat="43.92278" lon="2.03298">
        <ele>161.813253</ele>
        <time>2026-08-29T15:15:57Z</time>
      </trkpt>
      <trkpt lat="43.92278" lon="2.03294">
        <ele>161.8646</ele>
        <time>2026-08-29T15:15:58Z</time>
      </trkpt>
      <trkpt lat="43.92278" lon="2.0329">
        <ele>161.918704</ele>
        <time>2026-08-29T15:15:59Z</time>
      </trkpt>
      <trkpt lat="43.92278" lon="2.03287">
        <ele>161.967452</ele>
        <time>2026-08-29T15:16:00Z</time>
      </trkpt>
      <trkpt lat="43.92278" lon="2.03283">
        <ele>162.010937</ele>
        <time>2026-08-29T15:16:01Z</time>
      </trkpt>
      <trkpt lat="43.92278" lon="2.0328">
        <ele>162.058475</ele>
        <time>2026-08-29T15:16:02Z</time>
      </trkpt>
      <trkpt lat="43.92278" lon="2.03276">
        <ele>162.104592</ele>
        <time>2026-08-29T15:16:03Z</time>
      </trkpt>
      <trkpt lat="43.92278" lon="2.03272">
        <ele>162.155939</ele>
        <time>2026-08-29T15:16:04Z</time>
      </trkpt>
      <trkpt lat="43.92278" lon="2.03268">
        <ele>162.208634</ele>
        <time>2026-08-29T15:16:05Z</time>
      </trkpt>
      <trkpt lat="43.92278" lon="2.03265">
        <ele>162.256066</ele>
        <time>2026-08-29T15:16:06Z</time>
      </trkpt>
      <trkpt lat="43.92278" lon="2.03261">
        <ele>162.302183</ele>
        <time>2026-08-29T15:16:07Z</time>
      </trkpt>
      <trkpt lat="43.92278" lon="2.03257">
        <ele>162.352246</ele>
        <time>2026-08-29T15:16:08Z</time>
      </trkpt>
      <trkpt lat="43.92277" lon="2.03254">
        <ele>162.402576</ele>
        <time>2026-08-29T15:16:09Z</time>
      </trkpt>
      <trkpt lat="43.92277" lon="2.03249">
        <ele>162.458354</ele>
        <time>2026-08-29T15:16:10Z</time>
      </trkpt>
      <trkpt lat="43.92277" lon="2.03245">
        <ele>162.515232</ele>
        <time>2026-08-29T15:16:11Z</time>
      </trkpt>
      <trkpt lat="43.92276" lon="2.03241">
        <ele>162.571606</ele>
        <time>2026-08-29T15:16:12Z</time>
      </trkpt>
      <trkpt lat="43.92275" lon="2.03236">
        <ele>162.633608</ele>
        <time>2026-08-29T15:16:13Z</time>
      </trkpt>
      <trkpt lat="43.92274" lon="2.03231">
        <ele>162.700669</ele>
        <time>2026-08-29T15:16:14Z</time>
      </trkpt>
      <trkpt lat="43.92273" lon="2.03226">
        <ele>162.766818</ele>
        <time>2026-08-29T15:16:15Z</time>
      </trkpt>
      <trkpt lat="43.92273" lon="2.03221">
        <ele>162.840909</ele>
        <time>2026-08-29T15:16:16Z</time>
      </trkpt>
      <trkpt lat="43.92273" lon="2.03215">
        <ele>162.91762</ele>
        <time>2026-08-29T15:16:17Z</time>
      </trkpt>
      <trkpt lat="43.92272" lon="2.03209">
        <ele>162.99216</ele>
        <time>2026-08-29T15:16:18Z</time>
      </trkpt>
      <trkpt lat="43.92272" lon="2.03204">
        <ele>163.061012</ele>
        <time>2026-08-29T15:16:19Z</time>
      </trkpt>
      <trkpt lat="43.92271" lon="2.03199">
        <ele>163.128073</ele>
        <time>2026-08-29T15:16:20Z</time>
      </trkpt>
      <trkpt lat="43.9227" lon="2.03194">
        <ele>163.198448</ele>
        <time>2026-08-29T15:16:21Z</time>
      </trkpt>
      <trkpt lat="43.9227" lon="2.03189">
        <ele>163.265185</ele>
        <time>2026-08-29T15:16:22Z</time>
      </trkpt>
      <trkpt lat="43.92269" lon="2.03184">
        <ele>163.334037</ele>
        <time>2026-08-29T15:16:23Z</time>
      </trkpt>
      <trkpt lat="43.92269" lon="2.03179">
        <ele>163.401406</ele>
        <time>2026-08-29T15:16:24Z</time>
      </trkpt>
      <trkpt lat="43.92268" lon="2.03174">
        <ele>163.469761</ele>
        <time>2026-08-29T15:16:25Z</time>
      </trkpt>
      <trkpt lat="43.92268" lon="2.03168">
        <ele>163.539096</ele>
        <time>2026-08-29T15:16:26Z</time>
      </trkpt>
      <trkpt lat="43.92267" lon="2.03163">
        <ele>163.608744</ele>
        <time>2026-08-29T15:16:27Z</time>
      </trkpt>
      <trkpt lat="43.92266" lon="2.03158">
        <ele>163.673222</ele>
        <time>2026-08-29T15:16:28Z</time>
      </trkpt>
      <trkpt lat="43.92266" lon="2.03154">
        <ele>163.738525</ele>
        <time>2026-08-29T15:16:29Z</time>
      </trkpt>
      <trkpt lat="43.92264" lon="2.03149">
        <ele>163.803589</ele>
        <time>2026-08-29T15:16:30Z</time>
      </trkpt>
      <trkpt lat="43.92263" lon="2.03144">
        <ele>163.874227</ele>
        <time>2026-08-29T15:16:31Z</time>
      </trkpt>
      <trkpt lat="43.92262" lon="2.03139">
        <ele>163.939879</ele>
        <time>2026-08-29T15:16:32Z</time>
      </trkpt>
      <trkpt lat="43.92261" lon="2.03134">
        <ele>164.003068</ele>
        <time>2026-08-29T15:16:33Z</time>
      </trkpt>
      <trkpt lat="43.92261" lon="2.03129">
        <ele>164.071104</ele>
        <time>2026-08-29T15:16:34Z</time>
      </trkpt>
      <trkpt lat="43.9226" lon="2.03124">
        <ele>164.146947</ele>
        <time>2026-08-29T15:16:35Z</time>
      </trkpt>
      <trkpt lat="43.92259" lon="2.03119">
        <ele>164.214801</ele>
        <time>2026-08-29T15:16:36Z</time>
      </trkpt>
      <trkpt lat="43.92259" lon="2.03114">
        <ele>164.271174</ele>
        <time>2026-08-29T15:16:37Z</time>
      </trkpt>
      <trkpt lat="43.92258" lon="2.0311">
        <ele>164.322813</ele>
        <time>2026-08-29T15:16:38Z</time>
      </trkpt>
      <trkpt lat="43.92257" lon="2.03106">
        <ele>164.389776</ele>
        <time>2026-08-29T15:16:39Z</time>
      </trkpt>
      <trkpt lat="43.92256" lon="2.03101">
        <ele>164.454933</ele>
        <time>2026-08-29T15:16:40Z</time>
      </trkpt>
      <trkpt lat="43.92256" lon="2.03096">
        <ele>164.514433</ele>
        <time>2026-08-29T15:16:41Z</time>
      </trkpt>
      <trkpt lat="43.92256" lon="2.03092">
        <ele>164.570807</ele>
        <time>2026-08-29T15:16:42Z</time>
      </trkpt>
      <trkpt lat="43.92255" lon="2.03088">
        <ele>164.630298</ele>
        <time>2026-08-29T15:16:43Z</time>
      </trkpt>
      <trkpt lat="43.92254" lon="2.03082">
        <ele>164.702536</ele>
        <time>2026-08-29T15:16:44Z</time>
      </trkpt>
      <trkpt lat="43.92253" lon="2.03077">
        <ele>164.774228</ele>
        <time>2026-08-29T15:16:45Z</time>
      </trkpt>
      <trkpt lat="43.92252" lon="2.03071">
        <ele>164.852748</ele>
        <time>2026-08-29T15:16:46Z</time>
      </trkpt>
      <trkpt lat="43.92251" lon="2.03066">
        <ele>164.865635</ele>
        <time>2026-08-29T15:16:47Z</time>
      </trkpt>
      <trkpt lat="43.92249" lon="2.0306">
        <ele>164.852356</ele>
        <time>2026-08-29T15:16:48Z</time>
      </trkpt>
      <trkpt lat="43.92248" lon="2.03054">
        <ele>164.838866</ele>
        <time>2026-08-29T15:16:49Z</time>
      </trkpt>
      <trkpt lat="43.92247" lon="2.03049">
        <ele>164.825804</ele>
        <time>2026-08-29T15:16:50Z</time>
      </trkpt>
      <trkpt lat="43.92245" lon="2.03043">
        <ele>164.81358</ele>
        <time>2026-08-29T15:16:51Z</time>
      </trkpt>
      <trkpt lat="43.92244" lon="2.03038">
        <ele>164.800817</ele>
        <time>2026-08-29T15:16:52Z</time>
      </trkpt>
      <trkpt lat="43.92243" lon="2.03032">
        <ele>164.788074</ele>
        <time>2026-08-29T15:16:53Z</time>
      </trkpt>
      <trkpt lat="43.92242" lon="2.03027">
        <ele>164.774958</ele>
        <time>2026-08-29T15:16:54Z</time>
      </trkpt>
      <trkpt lat="43.92241" lon="2.03021">
        <ele>164.761713</ele>
        <time>2026-08-29T15:16:55Z</time>
      </trkpt>
      <trkpt lat="43.9224" lon="2.03015">
        <ele>164.748252</ele>
        <time>2026-08-29T15:16:56Z</time>
      </trkpt>
      <trkpt lat="43.92239" lon="2.03009">
        <ele>164.735276</ele>
        <time>2026-08-29T15:16:57Z</time>
      </trkpt>
      <trkpt lat="43.92238" lon="2.03003">
        <ele>164.721232</ele>
        <time>2026-08-29T15:16:58Z</time>
      </trkpt>
      <trkpt lat="43.92236" lon="2.02997">
        <ele>164.706814</ele>
        <time>2026-08-29T15:16:59Z</time>
      </trkpt>
      <trkpt lat="43.92235" lon="2.02992">
        <ele>164.693846</ele>
        <time>2026-08-29T15:17:00Z</time>
      </trkpt>
      <trkpt lat="43.92233" lon="2.02986">
        <ele>164.681199</ele>
        <time>2026-08-29T15:17:01Z</time>
      </trkpt>
      <trkpt lat="43.92232" lon="2.02981">
        <ele>164.668648</ele>
        <time>2026-08-29T15:17:02Z</time>
      </trkpt>
      <trkpt lat="43.92231" lon="2.02975">
        <ele>164.655369</ele>
        <time>2026-08-29T15:17:03Z</time>
      </trkpt>
      <trkpt lat="43.92229" lon="2.0297">
        <ele>164.64142</ele>
        <time>2026-08-29T15:17:04Z</time>
      </trkpt>
      <trkpt lat="43.92227" lon="2.02964">
        <ele>164.62719</ele>
        <time>2026-08-29T15:17:05Z</time>
      </trkpt>
      <trkpt lat="43.92226" lon="2.02958">
        <ele>164.612971</ele>
        <time>2026-08-29T15:17:06Z</time>
      </trkpt>
      <trkpt lat="43.92224" lon="2.02952">
        <ele>164.598761</ele>
        <time>2026-08-29T15:17:07Z</time>
      </trkpt>
      <trkpt lat="43.92223" lon="2.02946">
        <ele>164.585283</ele>
        <time>2026-08-29T15:17:08Z</time>
      </trkpt>
      <trkpt lat="43.92221" lon="2.0294">
        <ele>164.572307</ele>
        <time>2026-08-29T15:17:09Z</time>
      </trkpt>
      <trkpt lat="43.9222" lon="2.02934">
        <ele>164.558722</ele>
        <time>2026-08-29T15:17:10Z</time>
      </trkpt>
      <trkpt lat="43.92219" lon="2.02928">
        <ele>164.544617</ele>
        <time>2026-08-29T15:17:11Z</time>
      </trkpt>
      <trkpt lat="43.92217" lon="2.02923">
        <ele>164.531031</ele>
        <time>2026-08-29T15:17:12Z</time>
      </trkpt>
      <trkpt lat="43.92215" lon="2.02917">
        <ele>164.516505</ele>
        <time>2026-08-29T15:17:13Z</time>
      </trkpt>
      <trkpt lat="43.92213" lon="2.0291">
        <ele>164.501619</ele>
        <time>2026-08-29T15:17:14Z</time>
      </trkpt>
      <trkpt lat="43.92212" lon="2.02904">
        <ele>164.48636</ele>
        <time>2026-08-29T15:17:15Z</time>
      </trkpt>
      <trkpt lat="43.9221" lon="2.02898">
        <ele>164.471002</ele>
        <time>2026-08-29T15:17:16Z</time>
      </trkpt>
      <trkpt lat="43.92208" lon="2.02892">
        <ele>164.456682</ele>
        <time>2026-08-29T15:17:17Z</time>
      </trkpt>
      <trkpt lat="43.92206" lon="2.02885">
        <ele>164.441836</ele>
        <time>2026-08-29T15:17:18Z</time>
      </trkpt>
      <trkpt lat="43.92205" lon="2.02879">
        <ele>164.426577</ele>
        <time>2026-08-29T15:17:19Z</time>
      </trkpt>
      <trkpt lat="43.92203" lon="2.02873">
        <ele>164.411408</ele>
        <time>2026-08-29T15:17:20Z</time>
      </trkpt>
      <trkpt lat="43.922" lon="2.02866">
        <ele>164.395919</ele>
        <time>2026-08-29T15:17:21Z</time>
      </trkpt>
      <trkpt lat="43.92198" lon="2.0286">
        <ele>164.380832</ele>
        <time>2026-08-29T15:17:22Z</time>
      </trkpt>
      <trkpt lat="43.92197" lon="2.02854">
        <ele>164.366805</ele>
        <time>2026-08-29T15:17:23Z</time>
      </trkpt>
      <trkpt lat="43.92194" lon="2.02849">
        <ele>164.352833</ele>
        <time>2026-08-29T15:17:24Z</time>
      </trkpt>
      <trkpt lat="43.92192" lon="2.02844">
        <ele>164.338576</ele>
        <time>2026-08-29T15:17:25Z</time>
      </trkpt>
      <trkpt lat="43.9219" lon="2.02838">
        <ele>164.324452</ele>
        <time>2026-08-29T15:17:26Z</time>
      </trkpt>
      <trkpt lat="43.92187" lon="2.02833">
        <ele>164.185584</ele>
        <time>2026-08-29T15:17:27Z</time>
      </trkpt>
      <trkpt lat="43.92184" lon="2.02828">
        <ele>163.99173</ele>
        <time>2026-08-29T15:17:28Z</time>
      </trkpt>
      <trkpt lat="43.92181" lon="2.02822">
        <ele>163.788894</ele>
        <time>2026-08-29T15:17:29Z</time>
      </trkpt>
      <trkpt lat="43.92178" lon="2.02816">
        <ele>163.572141</ele>
        <time>2026-08-29T15:17:30Z</time>
      </trkpt>
      <trkpt lat="43.92174" lon="2.0281">
        <ele>163.348167</ele>
        <time>2026-08-29T15:17:31Z</time>
      </trkpt>
      <trkpt lat="43.9217" lon="2.02804">
        <ele>163.132034</ele>
        <time>2026-08-29T15:17:32Z</time>
      </trkpt>
      <trkpt lat="43.92167" lon="2.02799">
        <ele>162.921695</ele>
        <time>2026-08-29T15:17:33Z</time>
      </trkpt>
      <trkpt lat="43.92164" lon="2.02793">
        <ele>162.70489</ele>
        <time>2026-08-29T15:17:34Z</time>
      </trkpt>
      <trkpt lat="43.92161" lon="2.02788">
        <ele>162.532409</ele>
        <time>2026-08-29T15:17:35Z</time>
      </trkpt>
      <trkpt lat="43.92159" lon="2.02784">
        <ele>162.411226</ele>
        <time>2026-08-29T15:17:36Z</time>
      </trkpt>
      <trkpt lat="43.92158" lon="2.02782">
        <ele>162.331703</ele>
        <time>2026-08-29T15:17:37Z</time>
      </trkpt>
      <trkpt lat="43.92157" lon="2.02782">
        <ele>162.303208</ele>
        <time>2026-08-29T15:17:38Z</time>
      </trkpt>
      <trkpt lat="43.92157" lon="2.02783">
        <ele>162.279729</ele>
        <time>2026-08-29T15:17:39Z</time>
      </trkpt>
      <trkpt lat="43.92156" lon="2.02783">
        <ele>162.235076</ele>
        <time>2026-08-29T15:17:40Z</time>
      </trkpt>
      <trkpt lat="43.92152" lon="2.02783">
        <ele>162.082236</ele>
        <time>2026-08-29T15:19:48Z</time>
      </trkpt>
      <trkpt lat="43.92151" lon="2.02779">
        <ele>161.960301</ele>
        <time>2026-08-29T15:19:49Z</time>
      </trkpt>
      <trkpt lat="43.92148" lon="2.02775">
        <ele>161.815543</ele>
        <time>2026-08-29T15:19:50Z</time>
      </trkpt>
      <trkpt lat="43.92145" lon="2.02771">
        <ele>161.642581</ele>
        <time>2026-08-29T15:19:51Z</time>
      </trkpt>
      <trkpt lat="43.92142" lon="2.02765">
        <ele>161.441758</ele>
        <time>2026-08-29T15:19:52Z</time>
      </trkpt>
      <trkpt lat="43.92139" lon="2.02759">
        <ele>161.21969</ele>
        <time>2026-08-29T15:19:53Z</time>
      </trkpt>
      <trkpt lat="43.92135" lon="2.02753">
        <ele>160.985446</ele>
        <time>2026-08-29T15:19:54Z</time>
      </trkpt>
      <trkpt lat="43.92131" lon="2.02746">
        <ele>160.73805</ele>
        <time>2026-08-29T15:19:55Z</time>
      </trkpt>
      <trkpt lat="43.92126" lon="2.0274">
        <ele>160.473388</ele>
        <time>2026-08-29T15:19:56Z</time>
      </trkpt>
      <trkpt lat="43.92122" lon="2.02732">
        <ele>160.19559</ele>
        <time>2026-08-29T15:19:57Z</time>
      </trkpt>
      <trkpt lat="43.92117" lon="2.02724">
        <ele>159.897097</ele>
        <time>2026-08-29T15:19:58Z</time>
      </trkpt>
      <trkpt lat="43.92113" lon="2.02715">
        <ele>159.591819</ele>
        <time>2026-08-29T15:19:59Z</time>
      </trkpt>
      <trkpt lat="43.92109" lon="2.02706">
        <ele>159.272266</ele>
        <time>2026-08-29T15:20:00Z</time>
      </trkpt>
      <trkpt lat="43.92105" lon="2.02696">
        <ele>158.950718</ele>
        <time>2026-08-29T15:20:01Z</time>
      </trkpt>
      <trkpt lat="43.92101" lon="2.02686">
        <ele>158.628829</ele>
        <time>2026-08-29T15:20:02Z</time>
      </trkpt>
      <trkpt lat="43.921" lon="2.02676">
        <ele>158.326219</ele>
        <time>2026-08-29T15:20:03Z</time>
      </trkpt>
      <trkpt lat="43.92099" lon="2.02664">
        <ele>157.997946</ele>
        <time>2026-08-29T15:20:04Z</time>
      </trkpt>
      <trkpt lat="43.921" lon="2.02653">
        <ele>157.663631</ele>
        <time>2026-08-29T15:20:05Z</time>
      </trkpt>
      <trkpt lat="43.92103" lon="2.02642">
        <ele>157.334677</ele>
        <time>2026-08-29T15:20:06Z</time>
      </trkpt>
      <trkpt lat="43.92105" lon="2.02631">
        <ele>157.012673</ele>
        <time>2026-08-29T15:20:07Z</time>
      </trkpt>
      <trkpt lat="43.92106" lon="2.02622">
        <ele>156.734849</ele>
        <time>2026-08-29T15:20:08Z</time>
      </trkpt>
      <trkpt lat="43.92106" lon="2.02614">
        <ele>156.487004</ele>
        <time>2026-08-29T15:20:09Z</time>
      </trkpt>
      <trkpt lat="43.92103" lon="2.02607">
        <ele>156.247943</ele>
        <time>2026-08-29T15:20:10Z</time>
      </trkpt>
      <trkpt lat="43.92098" lon="2.02603">
        <ele>155.995634</ele>
        <time>2026-08-29T15:20:11Z</time>
      </trkpt>
      <trkpt lat="43.92093" lon="2.026">
        <ele>155.767532</ele>
        <time>2026-08-29T15:20:12Z</time>
      </trkpt>
      <trkpt lat="43.92088" lon="2.02599">
        <ele>155.557205</ele>
        <time>2026-08-29T15:20:13Z</time>
      </trkpt>
      <trkpt lat="43.92083" lon="2.02599">
        <ele>155.366322</ele>
        <time>2026-08-29T15:20:14Z</time>
      </trkpt>
      <trkpt lat="43.92079" lon="2.026">
        <ele>155.212859</ele>
        <time>2026-08-29T15:20:15Z</time>
      </trkpt>
      <trkpt lat="43.92078" lon="2.02601">
        <ele>155.169722</ele>
        <time>2026-08-29T15:20:16Z</time>
      </trkpt>
      <trkpt lat="43.92079" lon="2.02601">
        <ele>155.154229</ele>
        <time>2026-08-29T15:20:17Z</time>
      </trkpt>
      <trkpt lat="43.92078" lon="2.02601">
        <ele>155.145939</ele>
        <time>2026-08-29T15:20:18Z</time>
      </trkpt>
      <trkpt lat="43.92074" lon="2.02603">
        <ele>154.950976</ele>
        <time>2026-08-29T15:20:30Z</time>
      </trkpt>
      <trkpt lat="43.92071" lon="2.02606">
        <ele>154.810842</ele>
        <time>2026-08-29T15:20:31Z</time>
      </trkpt>
      <trkpt lat="43.92069" lon="2.02611">
        <ele>154.641274</ele>
        <time>2026-08-29T15:20:32Z</time>
      </trkpt>
      <trkpt lat="43.92068" lon="2.02617">
        <ele>154.461102</ele>
        <time>2026-08-29T15:20:33Z</time>
      </trkpt>
      <trkpt lat="43.92068" lon="2.02623">
        <ele>154.275943</ele>
        <time>2026-08-29T15:20:34Z</time>
      </trkpt>
      <trkpt lat="43.92068" lon="2.02629">
        <ele>154.084679</ele>
        <time>2026-08-29T15:20:35Z</time>
      </trkpt>
      <trkpt lat="43.92068" lon="2.02636">
        <ele>153.88758</ele>
        <time>2026-08-29T15:20:36Z</time>
      </trkpt>
      <trkpt lat="43.92068" lon="2.02643">
        <ele>153.681568</ele>
        <time>2026-08-29T15:20:37Z</time>
      </trkpt>
      <trkpt lat="43.92068" lon="2.0265">
        <ele>153.469543</ele>
        <time>2026-08-29T15:20:38Z</time>
      </trkpt>
      <trkpt lat="43.92069" lon="2.02658">
        <ele>153.236327</ele>
        <time>2026-08-29T15:20:39Z</time>
      </trkpt>
      <trkpt lat="43.92069" lon="2.02666">
        <ele>152.994167</ele>
        <time>2026-08-29T15:20:40Z</time>
      </trkpt>
      <trkpt lat="43.92069" lon="2.02674">
        <ele>152.752007</ele>
        <time>2026-08-29T15:20:41Z</time>
      </trkpt>
      <trkpt lat="43.9207" lon="2.02682">
        <ele>152.512577</ele>
        <time>2026-08-29T15:20:42Z</time>
      </trkpt>
      <trkpt lat="43.9207" lon="2.0269">
        <ele>152.279546</ele>
        <time>2026-08-29T15:20:43Z</time>
      </trkpt>
      <trkpt lat="43.9207" lon="2.02697">
        <ele>152.052482</ele>
        <time>2026-08-29T15:20:44Z</time>
      </trkpt>
      <trkpt lat="43.9207" lon="2.02705">
        <ele>151.828517</ele>
        <time>2026-08-29T15:20:45Z</time>
      </trkpt>
      <trkpt lat="43.9207" lon="2.02712">
        <ele>151.60459</ele>
        <time>2026-08-29T15:20:46Z</time>
      </trkpt>
      <trkpt lat="43.9207" lon="2.02721">
        <ele>151.36243</ele>
        <time>2026-08-29T15:20:47Z</time>
      </trkpt>
      <trkpt lat="43.92071" lon="2.02729">
        <ele>151.108511</ele>
        <time>2026-08-29T15:20:48Z</time>
      </trkpt>
      <trkpt lat="43.92071" lon="2.02738">
        <ele>150.836529</ele>
        <time>2026-08-29T15:20:49Z</time>
      </trkpt>
      <trkpt lat="43.92071" lon="2.02747">
        <ele>150.558736</ele>
        <time>2026-08-29T15:20:50Z</time>
      </trkpt>
      <trkpt lat="43.92071" lon="2.02757">
        <ele>150.27184</ele>
        <time>2026-08-29T15:20:51Z</time>
      </trkpt>
      <trkpt lat="43.9207" lon="2.02766">
        <ele>149.995629</ele>
        <time>2026-08-29T15:20:52Z</time>
      </trkpt>
      <trkpt lat="43.92068" lon="2.02774">
        <ele>149.739686</ele>
        <time>2026-08-29T15:20:53Z</time>
      </trkpt>
      <trkpt lat="43.92066" lon="2.02782">
        <ele>149.671126</ele>
        <time>2026-08-29T15:20:54Z</time>
      </trkpt>
      <trkpt lat="43.92062" lon="2.02788">
        <ele>149.645213</ele>
        <time>2026-08-29T15:20:55Z</time>
      </trkpt>
      <trkpt lat="43.92059" lon="2.02793">
        <ele>149.62021</ele>
        <time>2026-08-29T15:20:56Z</time>
      </trkpt>
      <trkpt lat="43.92054" lon="2.02798">
        <ele>149.595282</ele>
        <time>2026-08-29T15:20:57Z</time>
      </trkpt>
      <trkpt lat="43.9205" lon="2.02801">
        <ele>149.570639</ele>
        <time>2026-08-29T15:20:58Z</time>
      </trkpt>
      <trkpt lat="43.92045" lon="2.02804">
        <ele>149.546777</ele>
        <time>2026-08-29T15:20:59Z</time>
      </trkpt>
      <trkpt lat="43.9204" lon="2.02807">
        <ele>149.5232</ele>
        <time>2026-08-29T15:21:00Z</time>
      </trkpt>
      <trkpt lat="43.92036" lon="2.0281">
        <ele>149.499624</ele>
        <time>2026-08-29T15:21:01Z</time>
      </trkpt>
      <trkpt lat="43.92031" lon="2.02813">
        <ele>149.476184</ele>
        <time>2026-08-29T15:21:02Z</time>
      </trkpt>
      <trkpt lat="43.92027" lon="2.02815">
        <ele>149.453131</ele>
        <time>2026-08-29T15:21:03Z</time>
      </trkpt>
      <trkpt lat="43.92022" lon="2.02818">
        <ele>149.430385</ele>
        <time>2026-08-29T15:21:04Z</time>
      </trkpt>
      <trkpt lat="43.92018" lon="2.0282">
        <ele>149.408444</ele>
        <time>2026-08-29T15:21:05Z</time>
      </trkpt>
      <trkpt lat="43.92013" lon="2.02823">
        <ele>149.386128</ele>
        <time>2026-08-29T15:21:06Z</time>
      </trkpt>
      <trkpt lat="43.92009" lon="2.02826">
        <ele>149.364385</ele>
        <time>2026-08-29T15:21:07Z</time>
      </trkpt>
      <trkpt lat="43.92005" lon="2.02828">
        <ele>149.342498</ele>
        <time>2026-08-29T15:21:08Z</time>
      </trkpt>
      <trkpt lat="43.92001" lon="2.02831">
        <ele>149.321302</ele>
        <time>2026-08-29T15:21:09Z</time>
      </trkpt>
      <trkpt lat="43.91996" lon="2.02833">
        <ele>149.299977</ele>
        <time>2026-08-29T15:21:10Z</time>
      </trkpt>
      <trkpt lat="43.91992" lon="2.02836">
        <ele>149.279079</ele>
        <time>2026-08-29T15:21:11Z</time>
      </trkpt>
      <trkpt lat="43.91988" lon="2.02838">
        <ele>149.259305</ele>
        <time>2026-08-29T15:21:12Z</time>
      </trkpt>
      <trkpt lat="43.91985" lon="2.0284">
        <ele>149.239959</ele>
        <time>2026-08-29T15:21:13Z</time>
      </trkpt>
      <trkpt lat="43.91981" lon="2.02843">
        <ele>149.220901</ele>
        <time>2026-08-29T15:21:14Z</time>
      </trkpt>
      <trkpt lat="43.91977" lon="2.02845">
        <ele>149.202491</ele>
        <time>2026-08-29T15:21:15Z</time>
      </trkpt>
      <trkpt lat="43.91974" lon="2.02847">
        <ele>149.183837</ele>
        <time>2026-08-29T15:21:16Z</time>
      </trkpt>
      <trkpt lat="43.9197" lon="2.02849">
        <ele>149.164107</ele>
        <time>2026-08-29T15:21:17Z</time>
      </trkpt>
      <trkpt lat="43.91966" lon="2.02851">
        <ele>149.144267</ele>
        <time>2026-08-29T15:21:18Z</time>
      </trkpt>
      <trkpt lat="43.91961" lon="2.02853">
        <ele>149.123987</ele>
        <time>2026-08-29T15:21:19Z</time>
      </trkpt>
      <trkpt lat="43.91957" lon="2.02854">
        <ele>149.103815</ele>
        <time>2026-08-29T15:21:20Z</time>
      </trkpt>
      <trkpt lat="43.91953" lon="2.02856">
        <ele>149.084636</ele>
        <time>2026-08-29T15:21:21Z</time>
      </trkpt>
      <trkpt lat="43.9195" lon="2.02858">
        <ele>149.065852</ele>
        <time>2026-08-29T15:21:22Z</time>
      </trkpt>
      <trkpt lat="43.91946" lon="2.0286">
        <ele>149.047323</ele>
        <time>2026-08-29T15:21:23Z</time>
      </trkpt>
      <trkpt lat="43.91943" lon="2.02862">
        <ele>149.029785</ele>
        <time>2026-08-29T15:21:24Z</time>
      </trkpt>
      <trkpt lat="43.91939" lon="2.02864">
        <ele>149.012481</ele>
        <time>2026-08-29T15:21:25Z</time>
      </trkpt>
      <trkpt lat="43.91936" lon="2.02866">
        <ele>148.995809</ele>
        <time>2026-08-29T15:21:26Z</time>
      </trkpt>
      <trkpt lat="43.91932" lon="2.02868">
        <ele>148.979137</ele>
        <time>2026-08-29T15:21:27Z</time>
      </trkpt>
      <trkpt lat="43.91929" lon="2.0287">
        <ele>148.961631</ele>
        <time>2026-08-29T15:21:28Z</time>
      </trkpt>
      <trkpt lat="43.91926" lon="2.02872">
        <ele>148.94356</ele>
        <time>2026-08-29T15:21:29Z</time>
      </trkpt>
      <trkpt lat="43.91922" lon="2.02875">
        <ele>148.924502</ele>
        <time>2026-08-29T15:21:30Z</time>
      </trkpt>
      <trkpt lat="43.91918" lon="2.02877">
        <ele>148.904995</ele>
        <time>2026-08-29T15:21:31Z</time>
      </trkpt>
      <trkpt lat="43.91914" lon="2.0288">
        <ele>148.885488</ele>
        <time>2026-08-29T15:21:32Z</time>
      </trkpt>
      <trkpt lat="43.9191" lon="2.02883">
        <ele>148.865017</ele>
        <time>2026-08-29T15:21:33Z</time>
      </trkpt>
      <trkpt lat="43.91906" lon="2.02885">
        <ele>148.859581</ele>
        <time>2026-08-29T15:21:34Z</time>
      </trkpt>
      <trkpt lat="43.91903" lon="2.02888">
        <ele>148.871114</ele>
        <time>2026-08-29T15:21:35Z</time>
      </trkpt>
      <trkpt lat="43.91898" lon="2.0289">
        <ele>148.883061</ele>
        <time>2026-08-29T15:21:36Z</time>
      </trkpt>
      <trkpt lat="43.91894" lon="2.02892">
        <ele>148.895083</ele>
        <time>2026-08-29T15:21:37Z</time>
      </trkpt>
      <trkpt lat="43.9189" lon="2.02895">
        <ele>148.90646</ele>
        <time>2026-08-29T15:21:38Z</time>
      </trkpt>
      <trkpt lat="43.91887" lon="2.02897">
        <ele>148.917623</ele>
        <time>2026-08-29T15:21:39Z</time>
      </trkpt>
      <trkpt lat="43.91883" lon="2.02899">
        <ele>148.928752</ele>
        <time>2026-08-29T15:21:40Z</time>
      </trkpt>
      <trkpt lat="43.91879" lon="2.02901">
        <ele>148.939961</ele>
        <time>2026-08-29T15:21:41Z</time>
      </trkpt>
      <trkpt lat="43.91875" lon="2.02904">
        <ele>148.951819</ele>
        <time>2026-08-29T15:21:42Z</time>
      </trkpt>
      <trkpt lat="43.91871" lon="2.02906">
        <ele>148.962784</ele>
        <time>2026-08-29T15:21:43Z</time>
      </trkpt>
      <trkpt lat="43.91867" lon="2.02909">
        <ele>148.974238</ele>
        <time>2026-08-29T15:21:44Z</time>
      </trkpt>
      <trkpt lat="43.91863" lon="2.02911">
        <ele>148.98611</ele>
        <time>2026-08-29T15:21:45Z</time>
      </trkpt>
      <trkpt lat="43.91859" lon="2.02914">
        <ele>148.998703</ele>
        <time>2026-08-29T15:21:46Z</time>
      </trkpt>
      <trkpt lat="43.91855" lon="2.02916">
        <ele>149.010402</ele>
        <time>2026-08-29T15:21:47Z</time>
      </trkpt>
      <trkpt lat="43.91851" lon="2.02919">
        <ele>149.022261</ele>
        <time>2026-08-29T15:21:48Z</time>
      </trkpt>
      <trkpt lat="43.91847" lon="2.02921">
        <ele>149.034207</ele>
        <time>2026-08-29T15:21:49Z</time>
      </trkpt>
      <trkpt lat="43.91843" lon="2.02923">
        <ele>149.046329</ele>
        <time>2026-08-29T15:21:50Z</time>
      </trkpt>
      <trkpt lat="43.91838" lon="2.02926">
        <ele>149.058845</ele>
        <time>2026-08-29T15:21:51Z</time>
      </trkpt>
      <trkpt lat="43.91834" lon="2.02929">
        <ele>149.070461</ele>
        <time>2026-08-29T15:21:52Z</time>
      </trkpt>
      <trkpt lat="43.91831" lon="2.02931">
        <ele>149.081915</ele>
        <time>2026-08-29T15:21:53Z</time>
      </trkpt>
      <trkpt lat="43.91827" lon="2.02933">
        <ele>149.092799</ele>
        <time>2026-08-29T15:21:54Z</time>
      </trkpt>
      <trkpt lat="43.91823" lon="2.02935">
        <ele>149.103531</ele>
        <time>2026-08-29T15:21:55Z</time>
      </trkpt>
      <trkpt lat="43.9182" lon="2.02938">
        <ele>149.113847</ele>
        <time>2026-08-29T15:21:56Z</time>
      </trkpt>
      <trkpt lat="43.91816" lon="2.0294">
        <ele>149.124257</ele>
        <time>2026-08-29T15:21:57Z</time>
      </trkpt>
      <trkpt lat="43.91813" lon="2.02942">
        <ele>149.134419</ele>
        <time>2026-08-29T15:21:58Z</time>
      </trkpt>
      <trkpt lat="43.91809" lon="2.02943">
        <ele>149.143941</ele>
        <time>2026-08-29T15:21:59Z</time>
      </trkpt>
      <trkpt lat="43.91806" lon="2.02944">
        <ele>149.153535</ele>
        <time>2026-08-29T15:22:00Z</time>
      </trkpt>
      <trkpt lat="43.91803" lon="2.02945">
        <ele>149.161593</ele>
        <time>2026-08-29T15:22:01Z</time>
      </trkpt>
      <trkpt lat="43.918" lon="2.02947">
        <ele>149.168917</ele>
        <time>2026-08-29T15:22:02Z</time>
      </trkpt>
      <trkpt lat="43.91798" lon="2.02949">
        <ele>149.175534</ele>
        <time>2026-08-29T15:22:03Z</time>
      </trkpt>
      <trkpt lat="43.91796" lon="2.02951">
        <ele>149.181548</ele>
        <time>2026-08-29T15:22:04Z</time>
      </trkpt>
      <trkpt lat="43.91794" lon="2.02952">
        <ele>149.189286</ele>
        <time>2026-08-29T15:22:05Z</time>
      </trkpt>
      <trkpt lat="43.91791" lon="2.02954">
        <ele>149.197596</ele>
        <time>2026-08-29T15:22:06Z</time>
      </trkpt>
      <trkpt lat="43.91788" lon="2.02956">
        <ele>149.20605</ele>
        <time>2026-08-29T15:22:07Z</time>
      </trkpt>
      <trkpt lat="43.91786" lon="2.02959">
        <ele>149.215215</ele>
        <time>2026-08-29T15:22:08Z</time>
      </trkpt>
      <trkpt lat="43.91782" lon="2.02961">
        <ele>149.224803</ele>
        <time>2026-08-29T15:22:09Z</time>
      </trkpt>
      <trkpt lat="43.91779" lon="2.02964">
        <ele>149.233968</ele>
        <time>2026-08-29T15:22:10Z</time>
      </trkpt>
      <trkpt lat="43.91776" lon="2.02967">
        <ele>149.244125</ele>
        <time>2026-08-29T15:22:11Z</time>
      </trkpt>
      <trkpt lat="43.91773" lon="2.0297">
        <ele>149.254739</ele>
        <time>2026-08-29T15:22:12Z</time>
      </trkpt>
      <trkpt lat="43.91769" lon="2.0297">
        <ele>149.266042</ele>
        <time>2026-08-29T15:22:13Z</time>
      </trkpt>
      <trkpt lat="43.91764" lon="2.0297">
        <ele>149.278406</ele>
        <time>2026-08-29T15:22:14Z</time>
      </trkpt>
      <trkpt lat="43.9176" lon="2.02969">
        <ele>149.290781</ele>
        <time>2026-08-29T15:22:15Z</time>
      </trkpt>
      <trkpt lat="43.91755" lon="2.02969">
        <ele>149.302863</ele>
        <time>2026-08-29T15:22:16Z</time>
      </trkpt>
      <trkpt lat="43.9175" lon="2.02969">
        <ele>149.316041</ele>
        <time>2026-08-29T15:22:17Z</time>
      </trkpt>
      <trkpt lat="43.91745" lon="2.02969">
        <ele>149.328965</ele>
        <time>2026-08-29T15:22:18Z</time>
      </trkpt>
      <trkpt lat="43.9174" lon="2.02968">
        <ele>149.334188</ele>
        <time>2026-08-29T15:22:19Z</time>
      </trkpt>
      <trkpt lat="43.91735" lon="2.02968">
        <ele>149.326859</ele>
        <time>2026-08-29T15:22:20Z</time>
      </trkpt>
      <trkpt lat="43.9173" lon="2.02967">
        <ele>149.319817</ele>
        <time>2026-08-29T15:22:21Z</time>
      </trkpt>
      <trkpt lat="43.91725" lon="2.02967">
        <ele>149.312631</ele>
        <time>2026-08-29T15:22:22Z</time>
      </trkpt>
      <trkpt lat="43.91721" lon="2.02967">
        <ele>149.305594</ele>
        <time>2026-08-29T15:22:23Z</time>
      </trkpt>
      <trkpt lat="43.91715" lon="2.02966">
        <ele>149.29827</ele>
        <time>2026-08-29T15:22:24Z</time>
      </trkpt>
      <trkpt lat="43.9171" lon="2.02966">
        <ele>149.290906</ele>
        <time>2026-08-29T15:22:25Z</time>
      </trkpt>
      <trkpt lat="43.91705" lon="2.02965">
        <ele>149.28353</ele>
        <time>2026-08-29T15:22:26Z</time>
      </trkpt>
      <trkpt lat="43.917" lon="2.02965">
        <ele>149.276209</ele>
        <time>2026-08-29T15:22:27Z</time>
      </trkpt>
      <trkpt lat="43.91695" lon="2.02964">
        <ele>149.269303</ele>
        <time>2026-08-29T15:22:28Z</time>
      </trkpt>
      <trkpt lat="43.9169" lon="2.02964">
        <ele>149.262111</ele>
        <time>2026-08-29T15:22:29Z</time>
      </trkpt>
      <trkpt lat="43.91685" lon="2.02963">
        <ele>149.255079</ele>
        <time>2026-08-29T15:22:30Z</time>
      </trkpt>
      <trkpt lat="43.9168" lon="2.02963">
        <ele>149.247469</ele>
        <time>2026-08-29T15:22:31Z</time>
      </trkpt>
      <trkpt lat="43.91675" lon="2.02963">
        <ele>149.23972</ele>
        <time>2026-08-29T15:22:32Z</time>
      </trkpt>
      <trkpt lat="43.91669" lon="2.02962">
        <ele>149.231796</ele>
        <time>2026-08-29T15:22:33Z</time>
      </trkpt>
      <trkpt lat="43.91663" lon="2.02962">
        <ele>149.223443</ele>
        <time>2026-08-29T15:22:34Z</time>
      </trkpt>
      <trkpt lat="43.91658" lon="2.02961">
        <ele>149.215342</ele>
        <time>2026-08-29T15:22:35Z</time>
      </trkpt>
      <trkpt lat="43.91652" lon="2.0296">
        <ele>149.207147</ele>
        <time>2026-08-29T15:22:36Z</time>
      </trkpt>
      <trkpt lat="43.91647" lon="2.02959">
        <ele>149.199356</ele>
        <time>2026-08-29T15:22:37Z</time>
      </trkpt>
      <trkpt lat="43.91641" lon="2.02959">
        <ele>149.191583</ele>
        <time>2026-08-29T15:22:38Z</time>
      </trkpt>
      <trkpt lat="43.91636" lon="2.02958">
        <ele>149.183824</ele>
        <time>2026-08-29T15:22:39Z</time>
      </trkpt>
      <trkpt lat="43.91631" lon="2.02958">
        <ele>149.176217</ele>
        <time>2026-08-29T15:22:40Z</time>
      </trkpt>
      <trkpt lat="43.91625" lon="2.02958">
        <ele>149.168755</ele>
        <time>2026-08-29T15:22:41Z</time>
      </trkpt>
      <trkpt lat="43.9162" lon="2.02958">
        <ele>149.161151</ele>
        <time>2026-08-29T15:22:42Z</time>
      </trkpt>
      <trkpt lat="43.91615" lon="2.02958">
        <ele>149.153403</ele>
        <time>2026-08-29T15:22:43Z</time>
      </trkpt>
      <trkpt lat="43.91609" lon="2.02958">
        <ele>149.145645</ele>
        <time>2026-08-29T15:22:44Z</time>
      </trkpt>
      <trkpt lat="43.91604" lon="2.02959">
        <ele>149.138023</ele>
        <time>2026-08-29T15:22:45Z</time>
      </trkpt>
      <trkpt lat="43.91599" lon="2.02959">
        <ele>149.130699</ele>
        <time>2026-08-29T15:22:46Z</time>
      </trkpt>
      <trkpt lat="43.91594" lon="2.02958">
        <ele>149.124086</ele>
        <time>2026-08-29T15:22:47Z</time>
      </trkpt>
      <trkpt lat="43.9159" lon="2.02958">
        <ele>149.117885</ele>
        <time>2026-08-29T15:22:48Z</time>
      </trkpt>
      <trkpt lat="43.91586" lon="2.02957">
        <ele>149.112409</ele>
        <time>2026-08-29T15:22:49Z</time>
      </trkpt>
      <trkpt lat="43.91582" lon="2.02957">
        <ele>149.106779</ele>
        <time>2026-08-29T15:22:50Z</time>
      </trkpt>
      <trkpt lat="43.91578" lon="2.02956">
        <ele>149.101088</ele>
        <time>2026-08-29T15:22:51Z</time>
      </trkpt>
      <trkpt lat="43.91574" lon="2.02955">
        <ele>149.095257</ele>
        <time>2026-08-29T15:22:52Z</time>
      </trkpt>
      <trkpt lat="43.9157" lon="2.02954">
        <ele>149.089143</ele>
        <time>2026-08-29T15:22:53Z</time>
      </trkpt>
      <trkpt lat="43.91566" lon="2.02953">
        <ele>149.083345</ele>
        <time>2026-08-29T15:22:54Z</time>
      </trkpt>
      <trkpt lat="43.91562" lon="2.02952">
        <ele>149.080134</ele>
        <time>2026-08-29T15:22:55Z</time>
      </trkpt>
      <trkpt lat="43.91558" lon="2.02952">
        <ele>149.084136</ele>
        <time>2026-08-29T15:22:56Z</time>
      </trkpt>
      <trkpt lat="43.91554" lon="2.02951">
        <ele>149.088419</ele>
        <time>2026-08-29T15:22:57Z</time>
      </trkpt>
      <trkpt lat="43.91549" lon="2.02951">
        <ele>149.092809</ele>
        <time>2026-08-29T15:22:58Z</time>
      </trkpt>
      <trkpt lat="43.91544" lon="2.0295">
        <ele>149.097337</ele>
        <time>2026-08-29T15:22:59Z</time>
      </trkpt>
      <trkpt lat="43.9154" lon="2.02949">
        <ele>149.10192</ele>
        <time>2026-08-29T15:23:00Z</time>
      </trkpt>
      <trkpt lat="43.91535" lon="2.02949">
        <ele>149.106686</ele>
        <time>2026-08-29T15:23:01Z</time>
      </trkpt>
      <trkpt lat="43.9153" lon="2.02949">
        <ele>149.111451</ele>
        <time>2026-08-29T15:23:02Z</time>
      </trkpt>
      <trkpt lat="43.91525" lon="2.02949">
        <ele>149.116313</ele>
        <time>2026-08-29T15:23:03Z</time>
      </trkpt>
      <trkpt lat="43.9152" lon="2.02949">
        <ele>149.120981</ele>
        <time>2026-08-29T15:23:04Z</time>
      </trkpt>
      <trkpt lat="43.91515" lon="2.02949">
        <ele>149.125649</ele>
        <time>2026-08-29T15:23:05Z</time>
      </trkpt>
      <trkpt lat="43.9151" lon="2.02949">
        <ele>149.130422</ele>
        <time>2026-08-29T15:23:06Z</time>
      </trkpt>
      <trkpt lat="43.91506" lon="2.02948">
        <ele>149.135205</ele>
        <time>2026-08-29T15:23:07Z</time>
      </trkpt>
      <trkpt lat="43.91501" lon="2.02948">
        <ele>149.13997</ele>
        <time>2026-08-29T15:23:08Z</time>
      </trkpt>
      <trkpt lat="43.91496" lon="2.02948">
        <ele>149.14454</ele>
        <time>2026-08-29T15:23:09Z</time>
      </trkpt>
      <trkpt lat="43.91491" lon="2.02948">
        <ele>149.149014</ele>
        <time>2026-08-29T15:23:10Z</time>
      </trkpt>
      <trkpt lat="43.91487" lon="2.02948">
        <ele>149.153686</ele>
        <time>2026-08-29T15:23:11Z</time>
      </trkpt>
      <trkpt lat="43.91482" lon="2.02948">
        <ele>149.158548</ele>
        <time>2026-08-29T15:23:12Z</time>
      </trkpt>
      <trkpt lat="43.91477" lon="2.02947">
        <ele>149.163172</ele>
        <time>2026-08-29T15:23:13Z</time>
      </trkpt>
      <trkpt lat="43.91473" lon="2.02944">
        <ele>149.167423</ele>
        <time>2026-08-29T15:23:14Z</time>
      </trkpt>
      <trkpt lat="43.91471" lon="2.02938">
        <ele>149.17183</ele>
        <time>2026-08-29T15:23:15Z</time>
      </trkpt>
      <trkpt lat="43.91469" lon="2.02932">
        <ele>149.176114</ele>
        <time>2026-08-29T15:23:16Z</time>
      </trkpt>
      <trkpt lat="43.9147" lon="2.02926">
        <ele>149.180817</ele>
        <time>2026-08-29T15:23:17Z</time>
      </trkpt>
      <trkpt lat="43.9147" lon="2.02919">
        <ele>149.185605</ele>
        <time>2026-08-29T15:23:18Z</time>
      </trkpt>
      <trkpt lat="43.91471" lon="2.02912">
        <ele>149.190393</ele>
        <time>2026-08-29T15:23:19Z</time>
      </trkpt>
      <trkpt lat="43.91471" lon="2.02905">
        <ele>149.195032</ele>
        <time>2026-08-29T15:23:20Z</time>
      </trkpt>
      <trkpt lat="43.91471" lon="2.02899">
        <ele>149.199525</ele>
        <time>2026-08-29T15:23:21Z</time>
      </trkpt>
      <trkpt lat="43.91472" lon="2.02892">
        <ele>149.204297</ele>
        <time>2026-08-29T15:23:22Z</time>
      </trkpt>
      <trkpt lat="43.91472" lon="2.02885">
        <ele>149.209085</ele>
        <time>2026-08-29T15:23:23Z</time>
      </trkpt>
      <trkpt lat="43.91473" lon="2.02878">
        <ele>149.213953</ele>
        <time>2026-08-29T15:23:24Z</time>
      </trkpt>
      <trkpt lat="43.91473" lon="2.02872">
        <ele>149.218752</ele>
        <time>2026-08-29T15:23:25Z</time>
      </trkpt>
      <trkpt lat="43.91474" lon="2.02865">
        <ele>149.223462</ele>
        <time>2026-08-29T15:23:26Z</time>
      </trkpt>
      <trkpt lat="43.91474" lon="2.02858">
        <ele>149.228094</ele>
        <time>2026-08-29T15:23:27Z</time>
      </trkpt>
      <trkpt lat="43.91475" lon="2.02852">
        <ele>149.232882</ele>
        <time>2026-08-29T15:23:28Z</time>
      </trkpt>
      <trkpt lat="43.91475" lon="2.02845">
        <ele>149.237654</ele>
        <time>2026-08-29T15:23:29Z</time>
      </trkpt>
      <trkpt lat="43.91475" lon="2.02838">
        <ele>149.242573</ele>
        <time>2026-08-29T15:23:30Z</time>
      </trkpt>
      <trkpt lat="43.91475" lon="2.02831">
        <ele>149.247617</ele>
        <time>2026-08-29T15:23:31Z</time>
      </trkpt>
      <trkpt lat="43.91475" lon="2.02824">
        <ele>149.252536</ele>
        <time>2026-08-29T15:23:32Z</time>
      </trkpt>
      <trkpt lat="43.91474" lon="2.02816">
        <ele>149.233166</ele>
        <time>2026-08-29T15:23:33Z</time>
      </trkpt>
      <trkpt lat="43.91473" lon="2.02808">
        <ele>149.206653</ele>
        <time>2026-08-29T15:23:34Z</time>
      </trkpt>
      <trkpt lat="43.91472" lon="2.02801">
        <ele>149.180128</ele>
        <time>2026-08-29T15:23:35Z</time>
      </trkpt>
      <trkpt lat="43.91471" lon="2.02794">
        <ele>149.154171</ele>
        <time>2026-08-29T15:23:36Z</time>
      </trkpt>
      <trkpt lat="43.9147" lon="2.02787">
        <ele>149.12904</ele>
        <time>2026-08-29T15:23:37Z</time>
      </trkpt>
      <trkpt lat="43.91469" lon="2.0278">
        <ele>149.105236</ele>
        <time>2026-08-29T15:23:38Z</time>
      </trkpt>
      <trkpt lat="43.91468" lon="2.02773">
        <ele>149.080624</ele>
        <time>2026-08-29T15:23:39Z</time>
      </trkpt>
      <trkpt lat="43.91467" lon="2.02766">
        <ele>149.054725</ele>
        <time>2026-08-29T15:23:40Z</time>
      </trkpt>
      <trkpt lat="43.91466" lon="2.02758">
        <ele>149.028136</ele>
        <time>2026-08-29T15:23:41Z</time>
      </trkpt>
      <trkpt lat="43.91465" lon="2.02751">
        <ele>149.002494</ele>
        <time>2026-08-29T15:23:42Z</time>
      </trkpt>
      <trkpt lat="43.91464" lon="2.02743">
        <ele>148.974596</ele>
        <time>2026-08-29T15:23:43Z</time>
      </trkpt>
      <trkpt lat="43.91464" lon="2.02735">
        <ele>148.945855</ele>
        <time>2026-08-29T15:23:44Z</time>
      </trkpt>
      <trkpt lat="43.91463" lon="2.02727">
        <ele>148.918471</ele>
        <time>2026-08-29T15:23:45Z</time>
      </trkpt>
      <trkpt lat="43.91463" lon="2.02719">
        <ele>148.89119</ele>
        <time>2026-08-29T15:23:46Z</time>
      </trkpt>
      <trkpt lat="43.91463" lon="2.02712">
        <ele>148.865312</ele>
        <time>2026-08-29T15:23:47Z</time>
      </trkpt>
      <trkpt lat="43.91464" lon="2.02704">
        <ele>148.837928</ele>
        <time>2026-08-29T15:23:48Z</time>
      </trkpt>
      <trkpt lat="43.91464" lon="2.02696">
        <ele>148.810984</ele>
        <time>2026-08-29T15:23:49Z</time>
      </trkpt>
      <trkpt lat="43.91465" lon="2.02689">
        <ele>148.783251</ele>
        <time>2026-08-29T15:23:50Z</time>
      </trkpt>
      <trkpt lat="43.91464" lon="2.02681">
        <ele>148.758068</ele>
        <time>2026-08-29T15:23:51Z</time>
      </trkpt>
      <trkpt lat="43.91464" lon="2.02674">
        <ele>148.73324</ele>
        <time>2026-08-29T15:23:52Z</time>
      </trkpt>
      <trkpt lat="43.91464" lon="2.02667">
        <ele>148.708455</ele>
        <time>2026-08-29T15:23:53Z</time>
      </trkpt>
      <trkpt lat="43.91462" lon="2.0266">
        <ele>148.68258</ele>
        <time>2026-08-29T15:23:54Z</time>
      </trkpt>
      <trkpt lat="43.91459" lon="2.02653">
        <ele>148.654886</ele>
        <time>2026-08-29T15:23:55Z</time>
      </trkpt>
      <trkpt lat="43.91457" lon="2.02647">
        <ele>148.628101</ele>
        <time>2026-08-29T15:23:56Z</time>
      </trkpt>
      <trkpt lat="43.91453" lon="2.0264">
        <ele>148.600858</ele>
        <time>2026-08-29T15:23:57Z</time>
      </trkpt>
      <trkpt lat="43.9145" lon="2.02634">
        <ele>148.572746</ele>
        <time>2026-08-29T15:23:58Z</time>
      </trkpt>
      <trkpt lat="43.91447" lon="2.02627">
        <ele>148.544309</ele>
        <time>2026-08-29T15:23:59Z</time>
      </trkpt>
      <trkpt lat="43.91444" lon="2.0262">
        <ele>148.516785</ele>
        <time>2026-08-29T15:24:00Z</time>
      </trkpt>
      <trkpt lat="43.9144" lon="2.02614">
        <ele>148.489828</ele>
        <time>2026-08-29T15:24:01Z</time>
      </trkpt>
      <trkpt lat="43.91437" lon="2.02608">
        <ele>148.463707</ele>
        <time>2026-08-29T15:24:02Z</time>
      </trkpt>
      <trkpt lat="43.91434" lon="2.02602">
        <ele>148.438436</ele>
        <time>2026-08-29T15:24:03Z</time>
      </trkpt>
      <trkpt lat="43.91431" lon="2.02597">
        <ele>148.41318</ele>
        <time>2026-08-29T15:24:04Z</time>
      </trkpt>
      <trkpt lat="43.91428" lon="2.02591">
        <ele>148.389342</ele>
        <time>2026-08-29T15:24:05Z</time>
      </trkpt>
      <trkpt lat="43.91425" lon="2.02585">
        <ele>148.372654</ele>
        <time>2026-08-29T15:24:06Z</time>
      </trkpt>
      <trkpt lat="43.91423" lon="2.0258">
        <ele>148.360614</ele>
        <time>2026-08-29T15:24:07Z</time>
      </trkpt>
      <trkpt lat="43.9142" lon="2.02575">
        <ele>148.348575</ele>
        <time>2026-08-29T15:24:08Z</time>
      </trkpt>
      <trkpt lat="43.91417" lon="2.0257">
        <ele>148.336446</ele>
        <time>2026-08-29T15:24:09Z</time>
      </trkpt>
      <trkpt lat="43.91413" lon="2.02566">
        <ele>148.324597</ele>
        <time>2026-08-29T15:24:10Z</time>
      </trkpt>
      <trkpt lat="43.91409" lon="2.02563">
        <ele>148.312751</ele>
        <time>2026-08-29T15:24:11Z</time>
      </trkpt>
      <trkpt lat="43.91404" lon="2.02562">
        <ele>148.300695</ele>
        <time>2026-08-29T15:24:12Z</time>
      </trkpt>
      <trkpt lat="43.914" lon="2.02561">
        <ele>148.288454</ele>
        <time>2026-08-29T15:24:13Z</time>
      </trkpt>
      <trkpt lat="43.91395" lon="2.0256">
        <ele>148.275806</ele>
        <time>2026-08-29T15:24:14Z</time>
      </trkpt>
      <trkpt lat="43.91389" lon="2.0256">
        <ele>148.26215</ele>
        <time>2026-08-29T15:24:15Z</time>
      </trkpt>
      <trkpt lat="43.91384" lon="2.02562">
        <ele>148.248295</ele>
        <time>2026-08-29T15:24:16Z</time>
      </trkpt>
      <trkpt lat="43.91378" lon="2.02564">
        <ele>148.233159</ele>
        <time>2026-08-29T15:24:17Z</time>
      </trkpt>
      <trkpt lat="43.91373" lon="2.02565">
        <ele>148.218257</ele>
        <time>2026-08-29T15:24:18Z</time>
      </trkpt>
      <trkpt lat="43.91367" lon="2.02567">
        <ele>148.203069</ele>
        <time>2026-08-29T15:24:19Z</time>
      </trkpt>
      <trkpt lat="43.91361" lon="2.02568">
        <ele>148.188387</ele>
        <time>2026-08-29T15:24:20Z</time>
      </trkpt>
      <trkpt lat="43.91356" lon="2.0257">
        <ele>148.173451</ele>
        <time>2026-08-29T15:24:21Z</time>
      </trkpt>
      <trkpt lat="43.9135" lon="2.02571">
        <ele>148.158381</ele>
        <time>2026-08-29T15:24:22Z</time>
      </trkpt>
      <trkpt lat="43.91344" lon="2.02572">
        <ele>148.143311</ele>
        <time>2026-08-29T15:24:23Z</time>
      </trkpt>
      <trkpt lat="43.91338" lon="2.02573">
        <ele>148.128265</ele>
        <time>2026-08-29T15:24:24Z</time>
      </trkpt>
      <trkpt lat="43.91333" lon="2.02574">
        <ele>148.114029</ele>
        <time>2026-08-29T15:24:25Z</time>
      </trkpt>
      <trkpt lat="43.91327" lon="2.02575">
        <ele>148.100283</ele>
        <time>2026-08-29T15:24:26Z</time>
      </trkpt>
      <trkpt lat="43.91322" lon="2.02575">
        <ele>148.08635</ele>
        <time>2026-08-29T15:24:27Z</time>
      </trkpt>
      <trkpt lat="43.91317" lon="2.02575">
        <ele>148.072444</ele>
        <time>2026-08-29T15:24:28Z</time>
      </trkpt>
      <trkpt lat="43.91311" lon="2.02575">
        <ele>148.059052</ele>
        <time>2026-08-29T15:24:29Z</time>
      </trkpt>
      <trkpt lat="43.91306" lon="2.02576">
        <ele>148.045403</ele>
        <time>2026-08-29T15:24:30Z</time>
      </trkpt>
      <trkpt lat="43.91301" lon="2.02576">
        <ele>148.032016</ele>
        <time>2026-08-29T15:24:31Z</time>
      </trkpt>
      <trkpt lat="43.91295" lon="2.02576">
        <ele>148.017598</ele>
        <time>2026-08-29T15:24:32Z</time>
      </trkpt>
      <trkpt lat="43.9129" lon="2.02576">
        <ele>148.003439</ele>
        <time>2026-08-29T15:24:33Z</time>
      </trkpt>
      <trkpt lat="43.91284" lon="2.02575">
        <ele>147.989275</ele>
        <time>2026-08-29T15:24:34Z</time>
      </trkpt>
      <trkpt lat="43.91278" lon="2.02574">
        <ele>147.974251</ele>
        <time>2026-08-29T15:24:35Z</time>
      </trkpt>
      <trkpt lat="43.91273" lon="2.02573">
        <ele>147.959888</ele>
        <time>2026-08-29T15:24:36Z</time>
      </trkpt>
      <trkpt lat="43.91267" lon="2.02572">
        <ele>147.945422</ele>
        <time>2026-08-29T15:24:37Z</time>
      </trkpt>
      <trkpt lat="43.91262" lon="2.0257">
        <ele>147.931167</ele>
        <time>2026-08-29T15:24:38Z</time>
      </trkpt>
      <trkpt lat="43.91257" lon="2.02567">
        <ele>147.918795</ele>
        <time>2026-08-29T15:24:39Z</time>
      </trkpt>
      <trkpt lat="43.91251" lon="2.02564">
        <ele>147.931239</ele>
        <time>2026-08-29T15:24:40Z</time>
      </trkpt>
      <trkpt lat="43.91246" lon="2.02561">
        <ele>147.943935</ele>
        <time>2026-08-29T15:24:41Z</time>
      </trkpt>
      <trkpt lat="43.91241" lon="2.02558">
        <ele>147.956235</ele>
        <time>2026-08-29T15:24:42Z</time>
      </trkpt>
      <trkpt lat="43.91236" lon="2.02555">
        <ele>147.968414</ele>
        <time>2026-08-29T15:24:43Z</time>
      </trkpt>
      <trkpt lat="43.91231" lon="2.02552">
        <ele>147.980038</ele>
        <time>2026-08-29T15:24:44Z</time>
      </trkpt>
      <trkpt lat="43.91227" lon="2.02549">
        <ele>147.991572</ele>
        <time>2026-08-29T15:24:45Z</time>
      </trkpt>
      <trkpt lat="43.91222" lon="2.02544">
        <ele>148.004174</ele>
        <time>2026-08-29T15:24:46Z</time>
      </trkpt>
      <trkpt lat="43.91218" lon="2.02539">
        <ele>148.016778</ele>
        <time>2026-08-29T15:24:47Z</time>
      </trkpt>
      <trkpt lat="43.91214" lon="2.02533">
        <ele>148.029269</ele>
        <time>2026-08-29T15:24:48Z</time>
      </trkpt>
      <trkpt lat="43.91211" lon="2.02527">
        <ele>148.041904</ele>
        <time>2026-08-29T15:24:49Z</time>
      </trkpt>
      <trkpt lat="43.91207" lon="2.02521">
        <ele>148.054379</ele>
        <time>2026-08-29T15:24:50Z</time>
      </trkpt>
      <trkpt lat="43.91204" lon="2.02514">
        <ele>148.066593</ele>
        <time>2026-08-29T15:24:51Z</time>
      </trkpt>
      <trkpt lat="43.91202" lon="2.02508">
        <ele>148.078487</ele>
        <time>2026-08-29T15:24:52Z</time>
      </trkpt>
      <trkpt lat="43.91199" lon="2.02501">
        <ele>148.090241</ele>
        <time>2026-08-29T15:24:53Z</time>
      </trkpt>
      <trkpt lat="43.91197" lon="2.02495">
        <ele>148.101607</ele>
        <time>2026-08-29T15:24:54Z</time>
      </trkpt>
      <trkpt lat="43.91194" lon="2.02489">
        <ele>148.113361</ele>
        <time>2026-08-29T15:24:55Z</time>
      </trkpt>
      <trkpt lat="43.91191" lon="2.02482">
        <ele>148.125087</ele>
        <time>2026-08-29T15:24:56Z</time>
      </trkpt>
      <trkpt lat="43.91189" lon="2.02476">
        <ele>148.136314</ele>
        <time>2026-08-29T15:24:57Z</time>
      </trkpt>
      <trkpt lat="43.91185" lon="2.0247">
        <ele>148.14839</ele>
        <time>2026-08-29T15:24:58Z</time>
      </trkpt>
      <trkpt lat="43.91183" lon="2.02464">
        <ele>148.15934</ele>
        <time>2026-08-29T15:24:59Z</time>
      </trkpt>
      <trkpt lat="43.9118" lon="2.02459">
        <ele>148.170268</ele>
        <time>2026-08-29T15:25:00Z</time>
      </trkpt>
      <trkpt lat="43.91178" lon="2.02453">
        <ele>148.180968</ele>
        <time>2026-08-29T15:25:01Z</time>
      </trkpt>
      <trkpt lat="43.91176" lon="2.02447">
        <ele>148.191392</ele>
        <time>2026-08-29T15:25:02Z</time>
      </trkpt>
      <trkpt lat="43.91173" lon="2.02442">
        <ele>148.201678</ele>
        <time>2026-08-29T15:25:03Z</time>
      </trkpt>
      <trkpt lat="43.91171" lon="2.02436">
        <ele>148.21224</ele>
        <time>2026-08-29T15:25:04Z</time>
      </trkpt>
      <trkpt lat="43.91168" lon="2.0243">
        <ele>148.222552</ele>
        <time>2026-08-29T15:25:05Z</time>
      </trkpt>
      <trkpt lat="43.91166" lon="2.02425">
        <ele>148.232955</ele>
        <time>2026-08-29T15:25:06Z</time>
      </trkpt>
      <trkpt lat="43.91164" lon="2.02419">
        <ele>148.243106</ele>
        <time>2026-08-29T15:25:07Z</time>
      </trkpt>
      <trkpt lat="43.91161" lon="2.02414">
        <ele>148.253667</ele>
        <time>2026-08-29T15:25:08Z</time>
      </trkpt>
      <trkpt lat="43.91159" lon="2.02408">
        <ele>148.264051</ele>
        <time>2026-08-29T15:25:09Z</time>
      </trkpt>
      <trkpt lat="43.91157" lon="2.02402">
        <ele>148.274537</ele>
        <time>2026-08-29T15:25:10Z</time>
      </trkpt>
      <trkpt lat="43.91154" lon="2.02397">
        <ele>148.284552</ele>
        <time>2026-08-29T15:25:11Z</time>
      </trkpt>
      <trkpt lat="43.91152" lon="2.02391">
        <ele>148.294587</ele>
        <time>2026-08-29T15:25:12Z</time>
      </trkpt>
      <trkpt lat="43.9115" lon="2.02386">
        <ele>148.304737</ele>
        <time>2026-08-29T15:25:13Z</time>
      </trkpt>
      <trkpt lat="43.91148" lon="2.0238">
        <ele>148.315082</ele>
        <time>2026-08-29T15:25:14Z</time>
      </trkpt>
      <trkpt lat="43.91145" lon="2.02375">
        <ele>148.326774</ele>
        <time>2026-08-29T15:25:15Z</time>
      </trkpt>
      <trkpt lat="43.91143" lon="2.0237">
        <ele>148.338789</ele>
        <time>2026-08-29T15:25:16Z</time>
      </trkpt>
      <trkpt lat="43.9114" lon="2.02365">
        <ele>148.350498</ele>
        <time>2026-08-29T15:25:17Z</time>
      </trkpt>
      <trkpt lat="43.91137" lon="2.0236">
        <ele>148.362057</ele>
        <time>2026-08-29T15:25:18Z</time>
      </trkpt>
      <trkpt lat="43.91134" lon="2.02355">
        <ele>148.374241</ele>
        <time>2026-08-29T15:25:19Z</time>
      </trkpt>
      <trkpt lat="43.91131" lon="2.0235">
        <ele>148.386573</ele>
        <time>2026-08-29T15:25:20Z</time>
      </trkpt>
      <trkpt lat="43.91128" lon="2.02344">
        <ele>148.399517</ele>
        <time>2026-08-29T15:25:21Z</time>
      </trkpt>
      <trkpt lat="43.91125" lon="2.02339">
        <ele>148.412475</ele>
        <time>2026-08-29T15:25:22Z</time>
      </trkpt>
      <trkpt lat="43.91122" lon="2.02334">
        <ele>148.424826</ele>
        <time>2026-08-29T15:25:23Z</time>
      </trkpt>
      <trkpt lat="43.91119" lon="2.02329">
        <ele>148.437032</ele>
        <time>2026-08-29T15:25:24Z</time>
      </trkpt>
      <trkpt lat="43.91116" lon="2.02324">
        <ele>148.449726</ele>
        <time>2026-08-29T15:25:25Z</time>
      </trkpt>
      <trkpt lat="43.91113" lon="2.02319">
        <ele>148.462832</ele>
        <time>2026-08-29T15:25:26Z</time>
      </trkpt>
      <trkpt lat="43.9111" lon="2.02313">
        <ele>148.475938</ele>
        <time>2026-08-29T15:25:27Z</time>
      </trkpt>
      <trkpt lat="43.91107" lon="2.02308">
        <ele>148.489505</ele>
        <time>2026-08-29T15:25:28Z</time>
      </trkpt>
      <trkpt lat="43.91103" lon="2.02302">
        <ele>148.503406</ele>
        <time>2026-08-29T15:25:29Z</time>
      </trkpt>
      <trkpt lat="43.911" lon="2.02297">
        <ele>148.516992</ele>
        <time>2026-08-29T15:25:30Z</time>
      </trkpt>
      <trkpt lat="43.91097" lon="2.02291">
        <ele>148.530725</ele>
        <time>2026-08-29T15:25:31Z</time>
      </trkpt>
      <trkpt lat="43.91094" lon="2.02286">
        <ele>148.544292</ele>
        <time>2026-08-29T15:25:32Z</time>
      </trkpt>
      <trkpt lat="43.9109" lon="2.0228">
        <ele>148.557273</ele>
        <time>2026-08-29T15:25:33Z</time>
      </trkpt>
      <trkpt lat="43.91087" lon="2.02275">
        <ele>148.57078</ele>
        <time>2026-08-29T15:25:34Z</time>
      </trkpt>
      <trkpt lat="43.91084" lon="2.0227">
        <ele>148.583592</ele>
        <time>2026-08-29T15:25:35Z</time>
      </trkpt>
      <trkpt lat="43.91081" lon="2.02265">
        <ele>148.596376</ele>
        <time>2026-08-29T15:25:36Z</time>
      </trkpt>
      <trkpt lat="43.91078" lon="2.02259">
        <ele>148.608873</ele>
        <time>2026-08-29T15:25:37Z</time>
      </trkpt>
      <trkpt lat="43.91074" lon="2.02254">
        <ele>148.622344</ele>
        <time>2026-08-29T15:25:38Z</time>
      </trkpt>
      <trkpt lat="43.91071" lon="2.02249">
        <ele>148.63547</ele>
        <time>2026-08-29T15:25:39Z</time>
      </trkpt>
      <trkpt lat="43.91068" lon="2.02244">
        <ele>148.648799</ele>
        <time>2026-08-29T15:25:40Z</time>
      </trkpt>
      <trkpt lat="43.91064" lon="2.02238">
        <ele>148.662411</ele>
        <time>2026-08-29T15:25:41Z</time>
      </trkpt>
      <trkpt lat="43.91061" lon="2.02233">
        <ele>148.676058</ele>
        <time>2026-08-29T15:25:42Z</time>
      </trkpt>
      <trkpt lat="43.91058" lon="2.02228">
        <ele>148.689499</ele>
        <time>2026-08-29T15:25:43Z</time>
      </trkpt>
      <trkpt lat="43.91054" lon="2.02222">
        <ele>148.703232</ele>
        <time>2026-08-29T15:25:44Z</time>
      </trkpt>
      <trkpt lat="43.91051" lon="2.02216">
        <ele>148.716818</ele>
        <time>2026-08-29T15:25:45Z</time>
      </trkpt>
      <trkpt lat="43.91048" lon="2.02211">
        <ele>148.730864</ele>
        <time>2026-08-29T15:25:46Z</time>
      </trkpt>
      <trkpt lat="43.91044" lon="2.02205">
        <ele>148.745329</ele>
        <time>2026-08-29T15:25:47Z</time>
      </trkpt>
      <trkpt lat="43.9104" lon="2.022">
        <ele>148.759117</ele>
        <time>2026-08-29T15:25:48Z</time>
      </trkpt>
      <trkpt lat="43.91037" lon="2.02195">
        <ele>148.772764</ele>
        <time>2026-08-29T15:25:49Z</time>
      </trkpt>
      <trkpt lat="43.91034" lon="2.02189">
        <ele>148.78606</ele>
        <time>2026-08-29T15:25:50Z</time>
      </trkpt>
      <trkpt lat="43.91031" lon="2.02184">
        <ele>148.788811</ele>
        <time>2026-08-29T15:25:51Z</time>
      </trkpt>
      <trkpt lat="43.91027" lon="2.02179">
        <ele>148.785257</ele>
        <time>2026-08-29T15:25:52Z</time>
      </trkpt>
      <trkpt lat="43.91024" lon="2.02173">
        <ele>148.781789</ele>
        <time>2026-08-29T15:25:53Z</time>
      </trkpt>
      <trkpt lat="43.91021" lon="2.02168">
        <ele>148.778112</ele>
        <time>2026-08-29T15:25:54Z</time>
      </trkpt>
      <trkpt lat="43.91018" lon="2.02162">
        <ele>148.774391</ele>
        <time>2026-08-29T15:25:55Z</time>
      </trkpt>
      <trkpt lat="43.91015" lon="2.02156">
        <ele>148.770631</ele>
        <time>2026-08-29T15:25:56Z</time>
      </trkpt>
      <trkpt lat="43.91011" lon="2.02151">
        <ele>148.766914</ele>
        <time>2026-08-29T15:25:57Z</time>
      </trkpt>
      <trkpt lat="43.91008" lon="2.02146">
        <ele>148.763072</ele>
        <time>2026-08-29T15:25:58Z</time>
      </trkpt>
      <trkpt lat="43.91004" lon="2.0214">
        <ele>148.759265</ele>
        <time>2026-08-29T15:25:59Z</time>
      </trkpt>
      <trkpt lat="43.91001" lon="2.02134">
        <ele>148.755372</ele>
        <time>2026-08-29T15:26:00Z</time>
      </trkpt>
      <trkpt lat="43.90998" lon="2.02129">
        <ele>148.751732</ele>
        <time>2026-08-29T15:26:01Z</time>
      </trkpt>
      <trkpt lat="43.90994" lon="2.02124">
        <ele>148.748027</ele>
        <time>2026-08-29T15:26:02Z</time>
      </trkpt>
      <trkpt lat="43.90991" lon="2.02119">
        <ele>148.744497</ele>
        <time>2026-08-29T15:26:03Z</time>
      </trkpt>
      <trkpt lat="43.90988" lon="2.02114">
        <ele>148.740928</ele>
        <time>2026-08-29T15:26:04Z</time>
      </trkpt>
      <trkpt lat="43.90984" lon="2.02109">
        <ele>148.737386</ele>
        <time>2026-08-29T15:26:05Z</time>
      </trkpt>
      <trkpt lat="43.90981" lon="2.02104">
        <ele>148.733856</ele>
        <time>2026-08-29T15:26:06Z</time>
      </trkpt>
      <trkpt lat="43.90978" lon="2.02099">
        <ele>148.730477</ele>
        <time>2026-08-29T15:26:07Z</time>
      </trkpt>
      <trkpt lat="43.90974" lon="2.02095">
        <ele>148.727097</ele>
        <time>2026-08-29T15:26:08Z</time>
      </trkpt>
      <trkpt lat="43.90971" lon="2.02091">
        <ele>148.724038</ele>
        <time>2026-08-29T15:26:09Z</time>
      </trkpt>
      <trkpt lat="43.90968" lon="2.02085">
        <ele>148.720529</ele>
        <time>2026-08-29T15:26:10Z</time>
      </trkpt>
      <trkpt lat="43.90965" lon="2.0208">
        <ele>148.717048</ele>
        <time>2026-08-29T15:26:11Z</time>
      </trkpt>
      <trkpt lat="43.90962" lon="2.02076">
        <ele>148.713719</ele>
        <time>2026-08-29T15:26:12Z</time>
      </trkpt>
      <trkpt lat="43.90958" lon="2.0207">
        <ele>148.709937</ele>
        <time>2026-08-29T15:26:13Z</time>
      </trkpt>
      <trkpt lat="43.90955" lon="2.02065">
        <ele>148.706211</ele>
        <time>2026-08-29T15:26:14Z</time>
      </trkpt>
      <trkpt lat="43.90952" lon="2.02059">
        <ele>148.702477</ele>
        <time>2026-08-29T15:26:15Z</time>
      </trkpt>
      <trkpt lat="43.90948" lon="2.02054">
        <ele>148.698608</ele>
        <time>2026-08-29T15:26:16Z</time>
      </trkpt>
      <trkpt lat="43.90945" lon="2.02049">
        <ele>148.694891</ele>
        <time>2026-08-29T15:26:17Z</time>
      </trkpt>
      <trkpt lat="43.90941" lon="2.02044">
        <ele>148.691196</ele>
        <time>2026-08-29T15:26:18Z</time>
      </trkpt>
      <trkpt lat="43.90937" lon="2.02039">
        <ele>148.687479</ele>
        <time>2026-08-29T15:26:19Z</time>
      </trkpt>
      <trkpt lat="43.90934" lon="2.02034">
        <ele>148.683761</ele>
        <time>2026-08-29T15:26:20Z</time>
      </trkpt>
      <trkpt lat="43.9093" lon="2.02029">
        <ele>148.680144</ele>
        <time>2026-08-29T15:26:21Z</time>
      </trkpt>
      <trkpt lat="43.90927" lon="2.02024">
        <ele>148.676575</ele>
        <time>2026-08-29T15:26:22Z</time>
      </trkpt>
      <trkpt lat="43.90923" lon="2.02019">
        <ele>148.672983</ele>
        <time>2026-08-29T15:26:23Z</time>
      </trkpt>
      <trkpt lat="43.9092" lon="2.02014">
        <ele>148.669391</ele>
        <time>2026-08-29T15:26:24Z</time>
      </trkpt>
      <trkpt lat="43.90916" lon="2.02009">
        <ele>148.665686</ele>
        <time>2026-08-29T15:26:25Z</time>
      </trkpt>
      <trkpt lat="43.90913" lon="2.02003">
        <ele>148.661943</ele>
        <time>2026-08-29T15:26:26Z</time>
      </trkpt>
      <trkpt lat="43.90909" lon="2.01998">
        <ele>148.65484</ele>
        <time>2026-08-29T15:26:27Z</time>
      </trkpt>
      <trkpt lat="43.90906" lon="2.01993">
        <ele>148.646872</ele>
        <time>2026-08-29T15:26:28Z</time>
      </trkpt>
      <trkpt lat="43.90902" lon="2.01988">
        <ele>148.638985</ele>
        <time>2026-08-29T15:26:29Z</time>
      </trkpt>
      <trkpt lat="43.90899" lon="2.01982">
        <ele>148.631042</ele>
        <time>2026-08-29T15:26:30Z</time>
      </trkpt>
      <trkpt lat="43.90895" lon="2.01977">
        <ele>148.623446</ele>
        <time>2026-08-29T15:26:31Z</time>
      </trkpt>
      <trkpt lat="43.90892" lon="2.01972">
        <ele>148.615606</ele>
        <time>2026-08-29T15:26:32Z</time>
      </trkpt>
      <trkpt lat="43.90888" lon="2.01967">
        <ele>148.607825</ele>
        <time>2026-08-29T15:26:33Z</time>
      </trkpt>
      <trkpt lat="43.90885" lon="2.01962">
        <ele>148.600433</ele>
        <time>2026-08-29T15:26:34Z</time>
      </trkpt>
      <trkpt lat="43.90881" lon="2.01957">
        <ele>148.592757</ele>
        <time>2026-08-29T15:26:35Z</time>
      </trkpt>
      <trkpt lat="43.90878" lon="2.01952">
        <ele>148.58479</ele>
        <time>2026-08-29T15:26:36Z</time>
      </trkpt>
      <trkpt lat="43.90874" lon="2.01947">
        <ele>148.576662</ele>
        <time>2026-08-29T15:26:37Z</time>
      </trkpt>
      <trkpt lat="43.90871" lon="2.01941">
        <ele>148.56888</ele>
        <time>2026-08-29T15:26:38Z</time>
      </trkpt>
      <trkpt lat="43.90867" lon="2.01936">
        <ele>148.560913</ele>
        <time>2026-08-29T15:26:39Z</time>
      </trkpt>
      <trkpt lat="43.90864" lon="2.01931">
        <ele>148.552822</ele>
        <time>2026-08-29T15:26:40Z</time>
      </trkpt>
      <trkpt lat="43.9086" lon="2.01925">
        <ele>148.545084</ele>
        <time>2026-08-29T15:26:41Z</time>
      </trkpt>
      <trkpt lat="43.90857" lon="2.0192">
        <ele>148.537455</ele>
        <time>2026-08-29T15:26:42Z</time>
      </trkpt>
      <trkpt lat="43.90854" lon="2.01914">
        <ele>148.529645</ele>
        <time>2026-08-29T15:26:43Z</time>
      </trkpt>
      <trkpt lat="43.90851" lon="2.01909">
        <ele>148.521749</ele>
        <time>2026-08-29T15:26:44Z</time>
      </trkpt>
      <trkpt lat="43.90848" lon="2.01903">
        <ele>148.514308</ele>
        <time>2026-08-29T15:26:45Z</time>
      </trkpt>
      <trkpt lat="43.90845" lon="2.01898">
        <ele>148.506679</ele>
        <time>2026-08-29T15:26:46Z</time>
      </trkpt>
      <trkpt lat="43.90843" lon="2.01892">
        <ele>148.499097</ele>
        <time>2026-08-29T15:26:47Z</time>
      </trkpt>
      <trkpt lat="43.90841" lon="2.01885">
        <ele>148.491562</ele>
        <time>2026-08-29T15:26:48Z</time>
      </trkpt>
      <trkpt lat="43.9084" lon="2.01879">
        <ele>148.484067</ele>
        <time>2026-08-29T15:26:49Z</time>
      </trkpt>
      <trkpt lat="43.90839" lon="2.01872">
        <ele>148.476905</ele>
        <time>2026-08-29T15:26:50Z</time>
      </trkpt>
      <trkpt lat="43.90838" lon="2.01865">
        <ele>148.469037</ele>
        <time>2026-08-29T15:26:51Z</time>
      </trkpt>
      <trkpt lat="43.90839" lon="2.01858">
        <ele>148.461408</ele>
        <time>2026-08-29T15:26:52Z</time>
      </trkpt>
      <trkpt lat="43.90839" lon="2.01852">
        <ele>148.454006</ele>
        <time>2026-08-29T15:26:53Z</time>
      </trkpt>
      <trkpt lat="43.90838" lon="2.01845">
        <ele>148.446492</ele>
        <time>2026-08-29T15:26:54Z</time>
      </trkpt>
      <trkpt lat="43.90838" lon="2.01838">
        <ele>148.438868</ele>
        <time>2026-08-29T15:26:55Z</time>
      </trkpt>
      <trkpt lat="43.90838" lon="2.01831">
        <ele>148.431244</ele>
        <time>2026-08-29T15:26:56Z</time>
      </trkpt>
      <trkpt lat="43.90838" lon="2.01824">
        <ele>148.4234</ele>
        <time>2026-08-29T15:26:57Z</time>
      </trkpt>
      <trkpt lat="43.90838" lon="2.01817">
        <ele>148.415887</ele>
        <time>2026-08-29T15:26:58Z</time>
      </trkpt>
      <trkpt lat="43.90838" lon="2.01811">
        <ele>148.408594</ele>
        <time>2026-08-29T15:26:59Z</time>
      </trkpt>
      <trkpt lat="43.90838" lon="2.01804">
        <ele>148.401412</ele>
        <time>2026-08-29T15:27:00Z</time>
      </trkpt>
      <trkpt lat="43.90838" lon="2.01797">
        <ele>148.394003</ele>
        <time>2026-08-29T15:27:01Z</time>
      </trkpt>
      <trkpt lat="43.90838" lon="2.01791">
        <ele>148.387042</ele>
        <time>2026-08-29T15:27:02Z</time>
      </trkpt>
      <trkpt lat="43.90838" lon="2.01785">
        <ele>148.354438</ele>
        <time>2026-08-29T15:27:03Z</time>
      </trkpt>
      <trkpt lat="43.90838" lon="2.01779">
        <ele>148.314768</ele>
        <time>2026-08-29T15:27:04Z</time>
      </trkpt>
      <trkpt lat="43.90837" lon="2.01773">
        <ele>148.274062</ele>
        <time>2026-08-29T15:27:05Z</time>
      </trkpt>
      <trkpt lat="43.90836" lon="2.01767">
        <ele>148.232245</ele>
        <time>2026-08-29T15:27:06Z</time>
      </trkpt>
      <trkpt lat="43.90836" lon="2.0176">
        <ele>148.191405</ele>
        <time>2026-08-29T15:27:07Z</time>
      </trkpt>
      <trkpt lat="43.90835" lon="2.01754">
        <ele>148.148605</ele>
        <time>2026-08-29T15:27:08Z</time>
      </trkpt>
      <trkpt lat="43.90834" lon="2.01747">
        <ele>148.103189</ele>
        <time>2026-08-29T15:27:09Z</time>
      </trkpt>
      <trkpt lat="43.90834" lon="2.0174">
        <ele>148.057237</ele>
        <time>2026-08-29T15:27:10Z</time>
      </trkpt>
      <trkpt lat="43.90833" lon="2.01733">
        <ele>148.010511</ele>
        <time>2026-08-29T15:27:11Z</time>
      </trkpt>
      <trkpt lat="43.90832" lon="2.01726">
        <ele>147.96444</ele>
        <time>2026-08-29T15:27:12Z</time>
      </trkpt>
      <trkpt lat="43.90831" lon="2.01719">
        <ele>147.916608</ele>
        <time>2026-08-29T15:27:13Z</time>
      </trkpt>
      <trkpt lat="43.9083" lon="2.01712">
        <ele>147.865528</ele>
        <time>2026-08-29T15:27:14Z</time>
      </trkpt>
      <trkpt lat="43.90829" lon="2.01704">
        <ele>147.815098</ele>
        <time>2026-08-29T15:27:15Z</time>
      </trkpt>
      <trkpt lat="43.90828" lon="2.01697">
        <ele>147.765967</ele>
        <time>2026-08-29T15:27:16Z</time>
      </trkpt>
      <trkpt lat="43.90827" lon="2.01689">
        <ele>147.715696</ele>
        <time>2026-08-29T15:27:17Z</time>
      </trkpt>
      <trkpt lat="43.90826" lon="2.01682">
        <ele>147.665916</ele>
        <time>2026-08-29T15:27:18Z</time>
      </trkpt>
      <trkpt lat="43.90825" lon="2.01675">
        <ele>147.616785</ele>
        <time>2026-08-29T15:27:19Z</time>
      </trkpt>
      <trkpt lat="43.90824" lon="2.01668">
        <ele>147.569772</ele>
        <time>2026-08-29T15:27:20Z</time>
      </trkpt>
      <trkpt lat="43.90823" lon="2.01661">
        <ele>147.522589</ele>
        <time>2026-08-29T15:27:21Z</time>
      </trkpt>
      <trkpt lat="43.90822" lon="2.01654">
        <ele>147.474757</ele>
        <time>2026-08-29T15:27:22Z</time>
      </trkpt>
      <trkpt lat="43.90821" lon="2.01647">
        <ele>147.427825</ele>
        <time>2026-08-29T15:27:23Z</time>
      </trkpt>
      <trkpt lat="43.9082" lon="2.0164">
        <ele>147.380251</ele>
        <time>2026-08-29T15:27:24Z</time>
      </trkpt>
      <trkpt lat="43.90819" lon="2.01633">
        <ele>147.33288</ele>
        <time>2026-08-29T15:27:25Z</time>
      </trkpt>
      <trkpt lat="43.90818" lon="2.01626">
        <ele>147.286993</ele>
        <time>2026-08-29T15:27:26Z</time>
      </trkpt>
      <trkpt lat="43.90817" lon="2.01619">
        <ele>147.238026</ele>
        <time>2026-08-29T15:27:27Z</time>
      </trkpt>
      <trkpt lat="43.90816" lon="2.01611">
        <ele>147.18971</ele>
        <time>2026-08-29T15:27:28Z</time>
      </trkpt>
      <trkpt lat="43.90815" lon="2.01604">
        <ele>147.141492</ele>
        <time>2026-08-29T15:27:29Z</time>
      </trkpt>
      <trkpt lat="43.90814" lon="2.01597">
        <ele>147.093475</ele>
        <time>2026-08-29T15:27:30Z</time>
      </trkpt>
      <trkpt lat="43.90813" lon="2.0159">
        <ele>147.045643</ele>
        <time>2026-08-29T15:27:31Z</time>
      </trkpt>
      <trkpt lat="43.90812" lon="2.01583">
        <ele>146.998129</ele>
        <time>2026-08-29T15:27:32Z</time>
      </trkpt>
      <trkpt lat="43.90811" lon="2.01576">
        <ele>146.949813</ele>
        <time>2026-08-29T15:27:33Z</time>
      </trkpt>
      <trkpt lat="43.9081" lon="2.01569">
        <ele>146.9028</ele>
        <time>2026-08-29T15:27:34Z</time>
      </trkpt>
      <trkpt lat="43.90809" lon="2.01562">
        <ele>146.856265</ele>
        <time>2026-08-29T15:27:35Z</time>
      </trkpt>
      <trkpt lat="43.90808" lon="2.01555">
        <ele>146.808751</ele>
        <time>2026-08-29T15:27:36Z</time>
      </trkpt>
      <trkpt lat="43.90807" lon="2.01548">
        <ele>146.761086</ele>
        <time>2026-08-29T15:27:37Z</time>
      </trkpt>
      <trkpt lat="43.90807" lon="2.0154">
        <ele>146.72573</ele>
        <time>2026-08-29T15:27:38Z</time>
      </trkpt>
      <trkpt lat="43.90806" lon="2.01533">
        <ele>146.706907</ele>
        <time>2026-08-29T15:27:39Z</time>
      </trkpt>
      <trkpt lat="43.90805" lon="2.01526">
        <ele>146.688339</ele>
        <time>2026-08-29T15:27:40Z</time>
      </trkpt>
      <trkpt lat="43.90803" lon="2.01519">
        <ele>146.66987</ele>
        <time>2026-08-29T15:27:41Z</time>
      </trkpt>
      <trkpt lat="43.90802" lon="2.01513">
        <ele>146.651401</ele>
        <time>2026-08-29T15:27:42Z</time>
      </trkpt>
      <trkpt lat="43.90801" lon="2.01505">
        <ele>146.63234</ele>
        <time>2026-08-29T15:27:43Z</time>
      </trkpt>
      <trkpt lat="43.90799" lon="2.01498">
        <ele>146.613438</ele>
        <time>2026-08-29T15:27:44Z</time>
      </trkpt>
      <trkpt lat="43.90798" lon="2.01491">
        <ele>146.594033</ele>
        <time>2026-08-29T15:27:45Z</time>
      </trkpt>
      <trkpt lat="43.90797" lon="2.01484">
        <ele>146.575137</ele>
        <time>2026-08-29T15:27:46Z</time>
      </trkpt>
      <trkpt lat="43.90796" lon="2.01477">
        <ele>146.556182</ele>
        <time>2026-08-29T15:27:47Z</time>
      </trkpt>
      <trkpt lat="43.90796" lon="2.0147">
        <ele>146.537227</ele>
        <time>2026-08-29T15:27:48Z</time>
      </trkpt>
      <trkpt lat="43.90795" lon="2.01462">
        <ele>146.518323</ele>
        <time>2026-08-29T15:27:49Z</time>
      </trkpt>
      <trkpt lat="43.90795" lon="2.01455">
        <ele>146.500078</ele>
        <time>2026-08-29T15:27:50Z</time>
      </trkpt>
      <trkpt lat="43.90794" lon="2.01448">
        <ele>146.481053</ele>
        <time>2026-08-29T15:27:51Z</time>
      </trkpt>
      <trkpt lat="43.90794" lon="2.0144">
        <ele>146.460989</ele>
        <time>2026-08-29T15:27:52Z</time>
      </trkpt>
      <trkpt lat="43.90794" lon="2.01433">
        <ele>146.440665</ele>
        <time>2026-08-29T15:27:53Z</time>
      </trkpt>
      <trkpt lat="43.90793" lon="2.01425">
        <ele>146.42029</ele>
        <time>2026-08-29T15:27:54Z</time>
      </trkpt>
      <trkpt lat="43.90793" lon="2.01417">
        <ele>146.399722</ele>
        <time>2026-08-29T15:27:55Z</time>
      </trkpt>
      <trkpt lat="43.90793" lon="2.01409">
        <ele>146.379414</ele>
        <time>2026-08-29T15:27:56Z</time>
      </trkpt>
      <trkpt lat="43.90793" lon="2.01401">
        <ele>146.358846</ele>
        <time>2026-08-29T15:27:57Z</time>
      </trkpt>
      <trkpt lat="43.90792" lon="2.01393">
        <ele>146.338003</ele>
        <time>2026-08-29T15:27:58Z</time>
      </trkpt>
      <trkpt lat="43.90792" lon="2.01385">
        <ele>146.317435</ele>
        <time>2026-08-29T15:27:59Z</time>
      </trkpt>
      <trkpt lat="43.90792" lon="2.01378">
        <ele>146.297647</ele>
        <time>2026-08-29T15:28:00Z</time>
      </trkpt>
      <trkpt lat="43.90792" lon="2.0137">
        <ele>146.277613</ele>
        <time>2026-08-29T15:28:01Z</time>
      </trkpt>
      <trkpt lat="43.90792" lon="2.01362">
        <ele>146.257825</ele>
        <time>2026-08-29T15:28:02Z</time>
      </trkpt>
      <trkpt lat="43.90792" lon="2.01355">
        <ele>146.23906</ele>
        <time>2026-08-29T15:28:03Z</time>
      </trkpt>
      <trkpt lat="43.90793" lon="2.01348">
        <ele>146.219462</ele>
        <time>2026-08-29T15:28:04Z</time>
      </trkpt>
      <trkpt lat="43.90794" lon="2.0134">
        <ele>146.199785</ele>
        <time>2026-08-29T15:28:05Z</time>
      </trkpt>
      <trkpt lat="43.90795" lon="2.01333">
        <ele>146.179287</ele>
        <time>2026-08-29T15:28:06Z</time>
      </trkpt>
      <trkpt lat="43.90796" lon="2.01325">
        <ele>146.159128</ele>
        <time>2026-08-29T15:28:07Z</time>
      </trkpt>
      <trkpt lat="43.90798" lon="2.01318">
        <ele>146.140126</ele>
        <time>2026-08-29T15:28:08Z</time>
      </trkpt>
      <trkpt lat="43.90799" lon="2.01311">
        <ele>146.120521</ele>
        <time>2026-08-29T15:28:09Z</time>
      </trkpt>
      <trkpt lat="43.90801" lon="2.01304">
        <ele>146.101413</ele>
        <time>2026-08-29T15:28:10Z</time>
      </trkpt>
      <trkpt lat="43.90803" lon="2.01297">
        <ele>146.072559</ele>
        <time>2026-08-29T15:28:11Z</time>
      </trkpt>
      <trkpt lat="43.90805" lon="2.0129">
        <ele>145.998798</ele>
        <time>2026-08-29T15:28:12Z</time>
      </trkpt>
      <trkpt lat="43.90807" lon="2.01283">
        <ele>145.925783</ele>
        <time>2026-08-29T15:28:13Z</time>
      </trkpt>
      <trkpt lat="43.90809" lon="2.01276">
        <ele>145.853426</ele>
        <time>2026-08-29T15:28:14Z</time>
      </trkpt>
      <trkpt lat="43.90811" lon="2.01269">
        <ele>145.78014</ele>
        <time>2026-08-29T15:28:15Z</time>
      </trkpt>
      <trkpt lat="43.90813" lon="2.01262">
        <ele>145.709102</ele>
        <time>2026-08-29T15:28:16Z</time>
      </trkpt>
      <trkpt lat="43.90815" lon="2.01256">
        <ele>145.63843</ele>
        <time>2026-08-29T15:28:17Z</time>
      </trkpt>
      <trkpt lat="43.90817" lon="2.01249">
        <ele>145.567197</ele>
        <time>2026-08-29T15:28:18Z</time>
      </trkpt>
      <trkpt lat="43.90819" lon="2.01243">
        <ele>145.497142</ele>
        <time>2026-08-29T15:28:19Z</time>
      </trkpt>
      <trkpt lat="43.90822" lon="2.01236">
        <ele>145.42385</ele>
        <time>2026-08-29T15:28:20Z</time>
      </trkpt>
      <trkpt lat="43.90824" lon="2.0123">
        <ele>145.355108</ele>
        <time>2026-08-29T15:28:21Z</time>
      </trkpt>
      <trkpt lat="43.90827" lon="2.01224">
        <ele>145.285955</ele>
        <time>2026-08-29T15:28:22Z</time>
      </trkpt>
      <trkpt lat="43.9083" lon="2.01218">
        <ele>145.2176</ele>
        <time>2026-08-29T15:28:23Z</time>
      </trkpt>
      <trkpt lat="43.90833" lon="2.01213">
        <ele>145.146735</ele>
        <time>2026-08-29T15:28:24Z</time>
      </trkpt>
      <trkpt lat="43.90836" lon="2.01208">
        <ele>145.079866</ele>
        <time>2026-08-29T15:28:25Z</time>
      </trkpt>
      <trkpt lat="43.90839" lon="2.01202">
        <ele>145.015375</ele>
        <time>2026-08-29T15:28:26Z</time>
      </trkpt>
      <trkpt lat="43.90842" lon="2.01198">
        <ele>144.95326</ele>
        <time>2026-08-29T15:28:27Z</time>
      </trkpt>
      <trkpt lat="43.90846" lon="2.01193">
        <ele>144.887559</ele>
        <time>2026-08-29T15:28:28Z</time>
      </trkpt>
      <trkpt lat="43.90849" lon="2.01188">
        <ele>144.819498</ele>
        <time>2026-08-29T15:28:29Z</time>
      </trkpt>
      <trkpt lat="43.90853" lon="2.01183">
        <ele>144.74929</ele>
        <time>2026-08-29T15:28:30Z</time>
      </trkpt>
      <trkpt lat="43.90856" lon="2.01177">
        <ele>144.679181</ele>
        <time>2026-08-29T15:28:31Z</time>
      </trkpt>
      <trkpt lat="43.9086" lon="2.01172">
        <ele>144.605656</ele>
        <time>2026-08-29T15:28:32Z</time>
      </trkpt>
      <trkpt lat="43.90863" lon="2.01166">
        <ele>144.534875</ele>
        <time>2026-08-29T15:28:33Z</time>
      </trkpt>
      <trkpt lat="43.90865" lon="2.01159">
        <ele>144.463434</ele>
        <time>2026-08-29T15:28:34Z</time>
      </trkpt>
      <trkpt lat="43.90865" lon="2.01152">
        <ele>144.389971</ele>
        <time>2026-08-29T15:28:35Z</time>
      </trkpt>
      <trkpt lat="43.90864" lon="2.01145">
        <ele>144.316557</ele>
        <time>2026-08-29T15:28:36Z</time>
      </trkpt>
      <trkpt lat="43.9086" lon="2.01138">
        <ele>144.236249</ele>
        <time>2026-08-29T15:28:37Z</time>
      </trkpt>
      <trkpt lat="43.90857" lon="2.01132">
        <ele>144.159766</ele>
        <time>2026-08-29T15:28:38Z</time>
      </trkpt>
      <trkpt lat="43.90853" lon="2.01126">
        <ele>144.082767</ele>
        <time>2026-08-29T15:28:39Z</time>
      </trkpt>
      <trkpt lat="43.90849" lon="2.01121">
        <ele>144.008561</ele>
        <time>2026-08-29T15:28:40Z</time>
      </trkpt>
      <trkpt lat="43.90845" lon="2.01115">
        <ele>143.934134</ele>
        <time>2026-08-29T15:28:41Z</time>
      </trkpt>
      <trkpt lat="43.90842" lon="2.0111">
        <ele>143.861517</ele>
        <time>2026-08-29T15:28:42Z</time>
      </trkpt>
      <trkpt lat="43.90838" lon="2.01104">
        <ele>143.784275</ele>
        <time>2026-08-29T15:28:43Z</time>
      </trkpt>
      <trkpt lat="43.90834" lon="2.01099">
        <ele>143.708411</ele>
        <time>2026-08-29T15:28:44Z</time>
      </trkpt>
      <trkpt lat="43.9083" lon="2.01093">
        <ele>143.638791</ele>
        <time>2026-08-29T15:28:45Z</time>
      </trkpt>
      <trkpt lat="43.90825" lon="2.01087">
        <ele>143.630804</ele>
        <time>2026-08-29T15:28:46Z</time>
      </trkpt>
      <trkpt lat="43.90821" lon="2.01082">
        <ele>143.623169</ele>
        <time>2026-08-29T15:28:47Z</time>
      </trkpt>
      <trkpt lat="43.90817" lon="2.01076">
        <ele>143.615601</ele>
        <time>2026-08-29T15:28:48Z</time>
      </trkpt>
      <trkpt lat="43.90813" lon="2.01071">
        <ele>143.60794</ele>
        <time>2026-08-29T15:28:49Z</time>
      </trkpt>
      <trkpt lat="43.9081" lon="2.01064">
        <ele>143.600387</ele>
        <time>2026-08-29T15:28:50Z</time>
      </trkpt>
      <trkpt lat="43.90806" lon="2.01058">
        <ele>143.592904</ele>
        <time>2026-08-29T15:28:51Z</time>
      </trkpt>
      <trkpt lat="43.90803" lon="2.01053">
        <ele>143.586468</ele>
        <time>2026-08-29T15:28:52Z</time>
      </trkpt>
      <trkpt lat="43.908" lon="2.01048">
        <ele>143.580282</ele>
        <time>2026-08-29T15:28:53Z</time>
      </trkpt>
      <trkpt lat="43.90797" lon="2.01043">
        <ele>143.574111</ele>
        <time>2026-08-29T15:28:54Z</time>
      </trkpt>
      <trkpt lat="43.90794" lon="2.01038">
        <ele>143.567952</ele>
        <time>2026-08-29T15:28:55Z</time>
      </trkpt>
      <trkpt lat="43.90791" lon="2.01034">
        <ele>143.561515</ele>
        <time>2026-08-29T15:28:56Z</time>
      </trkpt>
      <trkpt lat="43.90787" lon="2.01029">
        <ele>143.555161</ele>
        <time>2026-08-29T15:28:57Z</time>
      </trkpt>
      <trkpt lat="43.90784" lon="2.01025">
        <ele>143.548772</ele>
        <time>2026-08-29T15:28:58Z</time>
      </trkpt>
      <trkpt lat="43.9078" lon="2.0102">
        <ele>143.542282</ele>
        <time>2026-08-29T15:28:59Z</time>
      </trkpt>
      <trkpt lat="43.90776" lon="2.01015">
        <ele>143.535592</ele>
        <time>2026-08-29T15:29:00Z</time>
      </trkpt>
      <trkpt lat="43.90773" lon="2.01011">
        <ele>143.529525</ele>
        <time>2026-08-29T15:29:01Z</time>
      </trkpt>
      <trkpt lat="43.9077" lon="2.01006">
        <ele>143.523267</ele>
        <time>2026-08-29T15:29:02Z</time>
      </trkpt>
      <trkpt lat="43.90767" lon="2.01001">
        <ele>143.517384</ele>
        <time>2026-08-29T15:29:03Z</time>
      </trkpt>
      <trkpt lat="43.90764" lon="2.00997">
        <ele>143.511731</ele>
        <time>2026-08-29T15:29:04Z</time>
      </trkpt>
      <trkpt lat="43.90761" lon="2.00993">
        <ele>143.506124</ele>
        <time>2026-08-29T15:29:05Z</time>
      </trkpt>
      <trkpt lat="43.90758" lon="2.00989">
        <ele>143.500583</ele>
        <time>2026-08-29T15:29:06Z</time>
      </trkpt>
      <trkpt lat="43.90755" lon="2.00985">
        <ele>143.495271</ele>
        <time>2026-08-29T15:29:07Z</time>
      </trkpt>
      <trkpt lat="43.90753" lon="2.00981">
        <ele>143.490261</ele>
        <time>2026-08-29T15:29:08Z</time>
      </trkpt>
      <trkpt lat="43.9075" lon="2.00977">
        <ele>143.484539</ele>
        <time>2026-08-29T15:29:09Z</time>
      </trkpt>
      <trkpt lat="43.90747" lon="2.00973">
        <ele>143.479093</ele>
        <time>2026-08-29T15:29:10Z</time>
      </trkpt>
      <trkpt lat="43.90744" lon="2.0097">
        <ele>143.474224</ele>
        <time>2026-08-29T15:29:11Z</time>
      </trkpt>
      <trkpt lat="43.9074" lon="2.00969">
        <ele>143.468729</ele>
        <time>2026-08-29T15:29:12Z</time>
      </trkpt>
      <trkpt lat="43.90736" lon="2.00968">
        <ele>143.4638</ele>
        <time>2026-08-29T15:29:13Z</time>
      </trkpt>
      <trkpt lat="43.90733" lon="2.0097">
        <ele>143.458387</ele>
        <time>2026-08-29T15:29:14Z</time>
      </trkpt>
      <trkpt lat="43.90729" lon="2.00973">
        <ele>143.453244</ele>
        <time>2026-08-29T15:29:15Z</time>
      </trkpt>
      <trkpt lat="43.90727" lon="2.00977">
        <ele>143.448122</ele>
        <time>2026-08-29T15:29:16Z</time>
      </trkpt>
      <trkpt lat="43.90724" lon="2.00981">
        <ele>143.442792</ele>
        <time>2026-08-29T15:29:17Z</time>
      </trkpt>
      <trkpt lat="43.90721" lon="2.00985">
        <ele>143.437346</ele>
        <time>2026-08-29T15:29:18Z</time>
      </trkpt>
      <trkpt lat="43.90718" lon="2.00989">
        <ele>143.431814</ele>
        <time>2026-08-29T15:29:19Z</time>
      </trkpt>
      <trkpt lat="43.90714" lon="2.00992">
        <ele>143.425904</ele>
        <time>2026-08-29T15:29:20Z</time>
      </trkpt>
      <trkpt lat="43.9071" lon="2.00995">
        <ele>143.420056</ele>
        <time>2026-08-29T15:29:21Z</time>
      </trkpt>
      <trkpt lat="43.90707" lon="2.00998">
        <ele>143.414512</ele>
        <time>2026-08-29T15:29:22Z</time>
      </trkpt>
      <trkpt lat="43.90703" lon="2.01001">
        <ele>143.409178</ele>
        <time>2026-08-29T15:29:23Z</time>
      </trkpt>
      <trkpt lat="43.90699" lon="2.01002">
        <ele>143.403727</ele>
        <time>2026-08-29T15:29:24Z</time>
      </trkpt>
      <trkpt lat="43.90695" lon="2.01001">
        <ele>143.391428</ele>
        <time>2026-08-29T15:29:25Z</time>
      </trkpt>
      <trkpt lat="43.90691" lon="2.00999">
        <ele>143.367613</ele>
        <time>2026-08-29T15:29:26Z</time>
      </trkpt>
      <trkpt lat="43.90688" lon="2.00996">
        <ele>143.342814</ele>
        <time>2026-08-29T15:29:27Z</time>
      </trkpt>
      <trkpt lat="43.90685" lon="2.00992">
        <ele>143.317092</ele>
        <time>2026-08-29T15:29:28Z</time>
      </trkpt>
      <trkpt lat="43.90682" lon="2.00988">
        <ele>143.291369</ele>
        <time>2026-08-29T15:29:29Z</time>
      </trkpt>
      <trkpt lat="43.90679" lon="2.00984">
        <ele>143.26552</ele>
        <time>2026-08-29T15:29:30Z</time>
      </trkpt>
      <trkpt lat="43.90676" lon="2.0098">
        <ele>143.23967</ele>
        <time>2026-08-29T15:29:31Z</time>
      </trkpt>
      <trkpt lat="43.90673" lon="2.00975">
        <ele>143.213323</ele>
        <time>2026-08-29T15:29:32Z</time>
      </trkpt>
      <trkpt lat="43.9067" lon="2.00971">
        <ele>143.188114</ele>
        <time>2026-08-29T15:29:33Z</time>
      </trkpt>
      <trkpt lat="43.90667" lon="2.00966">
        <ele>143.163027</ele>
        <time>2026-08-29T15:29:34Z</time>
      </trkpt>
      <trkpt lat="43.90664" lon="2.00962">
        <ele>143.136882</ele>
        <time>2026-08-29T15:29:35Z</time>
      </trkpt>
      <trkpt lat="43.90662" lon="2.00957">
        <ele>143.110358</ele>
        <time>2026-08-29T15:29:36Z</time>
      </trkpt>
      <trkpt lat="43.90659" lon="2.00952">
        <ele>143.08244</ele>
        <time>2026-08-29T15:29:37Z</time>
      </trkpt>
      <trkpt lat="43.90656" lon="2.00947">
        <ele>143.056272</ele>
        <time>2026-08-29T15:29:38Z</time>
      </trkpt>
      <trkpt lat="43.90655" lon="2.00941">
        <ele>143.030491</ele>
        <time>2026-08-29T15:29:39Z</time>
      </trkpt>
      <trkpt lat="43.90654" lon="2.00935">
        <ele>143.003626</ele>
        <time>2026-08-29T15:29:40Z</time>
      </trkpt>
      <trkpt lat="43.90655" lon="2.00929">
        <ele>142.976986</ele>
        <time>2026-08-29T15:29:41Z</time>
      </trkpt>
      <trkpt lat="43.90656" lon="2.00923">
        <ele>142.950201</ele>
        <time>2026-08-29T15:29:42Z</time>
      </trkpt>
      <trkpt lat="43.90656" lon="2.00917">
        <ele>142.923499</ele>
        <time>2026-08-29T15:29:43Z</time>
      </trkpt>
      <trkpt lat="43.90656" lon="2.00911">
        <ele>142.897922</ele>
        <time>2026-08-29T15:29:44Z</time>
      </trkpt>
      <trkpt lat="43.90654" lon="2.00906">
        <ele>142.870606</ele>
        <time>2026-08-29T15:29:45Z</time>
      </trkpt>
      <trkpt lat="43.90651" lon="2.00901">
        <ele>142.845137</ele>
        <time>2026-08-29T15:29:46Z</time>
      </trkpt>
      <trkpt lat="43.90648" lon="2.00897">
        <ele>142.820147</ele>
        <time>2026-08-29T15:29:47Z</time>
      </trkpt>
      <trkpt lat="43.90645" lon="2.00893">
        <ele>142.795466</ele>
        <time>2026-08-29T15:29:48Z</time>
      </trkpt>
      <trkpt lat="43.90642" lon="2.0089">
        <ele>142.772155</ele>
        <time>2026-08-29T15:29:49Z</time>
      </trkpt>
      <trkpt lat="43.90639" lon="2.00887">
        <ele>142.749587</ele>
        <time>2026-08-29T15:29:50Z</time>
      </trkpt>
      <trkpt lat="43.90636" lon="2.00885">
        <ele>142.728754</ele>
        <time>2026-08-29T15:29:51Z</time>
      </trkpt>
      <trkpt lat="43.90633" lon="2.00882">
        <ele>142.707664</ele>
        <time>2026-08-29T15:29:52Z</time>
      </trkpt>
      <trkpt lat="43.9063" lon="2.00878">
        <ele>142.684824</ele>
        <time>2026-08-29T15:29:53Z</time>
      </trkpt>
      <trkpt lat="43.90626" lon="2.00876">
        <ele>142.659969</ele>
        <time>2026-08-29T15:29:54Z</time>
      </trkpt>
      <trkpt lat="43.90622" lon="2.00875">
        <ele>142.633402</ele>
        <time>2026-08-29T15:29:55Z</time>
      </trkpt>
      <trkpt lat="43.90617" lon="2.00875">
        <ele>142.604413</ele>
        <time>2026-08-29T15:29:56Z</time>
      </trkpt>
      <trkpt lat="43.90613" lon="2.00877">
        <ele>142.575985</ele>
        <time>2026-08-29T15:29:57Z</time>
      </trkpt>
      <trkpt lat="43.90608" lon="2.00878">
        <ele>142.548743</ele>
        <time>2026-08-29T15:29:58Z</time>
      </trkpt>
      <trkpt lat="43.90604" lon="2.00881">
        <ele>142.52333</ele>
        <time>2026-08-29T15:29:59Z</time>
      </trkpt>
      <trkpt lat="43.90601" lon="2.00883">
        <ele>142.498628</ele>
        <time>2026-08-29T15:30:00Z</time>
      </trkpt>
      <trkpt lat="43.90597" lon="2.00887">
        <ele>142.472095</ele>
        <time>2026-08-29T15:30:01Z</time>
      </trkpt>
      <trkpt lat="43.90594" lon="2.0089">
        <ele>142.446051</ele>
        <time>2026-08-29T15:30:02Z</time>
      </trkpt>
      <trkpt lat="43.9059" lon="2.00893">
        <ele>142.421005</ele>
        <time>2026-08-29T15:30:03Z</time>
      </trkpt>
      <trkpt lat="43.90587" lon="2.00897">
        <ele>142.397683</ele>
        <time>2026-08-29T15:30:04Z</time>
      </trkpt>
      <trkpt lat="43.90584" lon="2.00899">
        <ele>142.375038</ele>
        <time>2026-08-29T15:30:05Z</time>
      </trkpt>
      <trkpt lat="43.9058" lon="2.00901">
        <ele>142.352653</ele>
        <time>2026-08-29T15:30:06Z</time>
      </trkpt>
      <trkpt lat="43.90576" lon="2.00901">
        <ele>142.33011</ele>
        <time>2026-08-29T15:30:07Z</time>
      </trkpt>
      <trkpt lat="43.90573" lon="2.009">
        <ele>142.356837</ele>
        <time>2026-08-29T15:30:08Z</time>
      </trkpt>
      <trkpt lat="43.9057" lon="2.00899">
        <ele>142.497275</ele>
        <time>2026-08-29T15:30:09Z</time>
      </trkpt>
      <trkpt lat="43.90566" lon="2.00896">
        <ele>142.675448</ele>
        <time>2026-08-29T15:30:10Z</time>
      </trkpt>
      <trkpt lat="43.90562" lon="2.00892">
        <ele>142.873751</ele>
        <time>2026-08-29T15:30:11Z</time>
      </trkpt>
      <trkpt lat="43.90559" lon="2.00886">
        <ele>143.10243</ele>
        <time>2026-08-29T15:30:12Z</time>
      </trkpt>
      <trkpt lat="43.90555" lon="2.00879">
        <ele>143.363496</ele>
        <time>2026-08-29T15:30:13Z</time>
      </trkpt>
      <trkpt lat="43.9055" lon="2.00872">
        <ele>143.649545</ele>
        <time>2026-08-29T15:30:14Z</time>
      </trkpt>
      <trkpt lat="43.90546" lon="2.00865">
        <ele>143.924751</ele>
        <time>2026-08-29T15:30:15Z</time>
      </trkpt>
      <trkpt lat="43.90541" lon="2.00858">
        <ele>144.208579</ele>
        <time>2026-08-29T15:30:16Z</time>
      </trkpt>
      <trkpt lat="43.90537" lon="2.00851">
        <ele>144.461677</ele>
        <time>2026-08-29T15:30:17Z</time>
      </trkpt>
      <trkpt lat="43.90535" lon="2.00846">
        <ele>144.653763</ele>
        <time>2026-08-29T15:30:18Z</time>
      </trkpt>
      <trkpt lat="43.90532" lon="2.0084">
        <ele>144.863515</ele>
        <time>2026-08-29T15:30:19Z</time>
      </trkpt>
      <trkpt lat="43.90531" lon="2.00834">
        <ele>145.051213</ele>
        <time>2026-08-29T15:30:20Z</time>
      </trkpt>
      <trkpt lat="43.90531" lon="2.00829">
        <ele>145.213198</ele>
        <time>2026-08-29T15:30:21Z</time>
      </trkpt>
      <trkpt lat="43.90532" lon="2.00824">
        <ele>145.387865</ele>
        <time>2026-08-29T15:30:22Z</time>
      </trkpt>
      <trkpt lat="43.90534" lon="2.00819">
        <ele>145.535892</ele>
        <time>2026-08-29T15:30:23Z</time>
      </trkpt>
      <trkpt lat="43.90535" lon="2.00815">
        <ele>145.669114</ele>
        <time>2026-08-29T15:30:24Z</time>
      </trkpt>
      <trkpt lat="43.90537" lon="2.00812">
        <ele>145.797352</ele>
        <time>2026-08-29T15:30:25Z</time>
      </trkpt>
      <trkpt lat="43.90539" lon="2.0081">
        <ele>145.892532</ele>
        <time>2026-08-29T15:30:26Z</time>
      </trkpt>
      <trkpt lat="43.9054" lon="2.00806">
        <ele>146.011967</ele>
        <time>2026-08-29T15:30:27Z</time>
      </trkpt>
      <trkpt lat="43.90541" lon="2.00803">
        <ele>146.121968</ele>
        <time>2026-08-29T15:30:28Z</time>
      </trkpt>
      <trkpt lat="43.90541" lon="2.008">
        <ele>146.217923</ele>
        <time>2026-08-29T15:30:29Z</time>
      </trkpt>
      <trkpt lat="43.90541" lon="2.00797">
        <ele>146.292932</ele>
        <time>2026-08-29T15:30:30Z</time>
      </trkpt>
      <trkpt lat="43.9054" lon="2.00794">
        <ele>146.391114</ele>
        <time>2026-08-29T15:30:31Z</time>
      </trkpt>
      <trkpt lat="43.90538" lon="2.00793">
        <ele>146.461152</ele>
        <time>2026-08-29T15:30:32Z</time>
      </trkpt>
      <trkpt lat="43.90537" lon="2.00791">
        <ele>146.548449</ele>
        <time>2026-08-29T15:30:33Z</time>
      </trkpt>
      <trkpt lat="43.90535" lon="2.00791">
        <ele>146.600545</ele>
        <time>2026-08-29T15:30:34Z</time>
      </trkpt>
      <trkpt lat="43.90535" lon="2.00791">
        <ele>146.621549</ele>
        <time>2026-08-29T15:30:35Z</time>
      </trkpt>
      <trkpt lat="43.90535" lon="2.00791">
        <ele>146.636135</ele>
        <time>2026-08-29T15:30:36Z</time>
      </trkpt>
      <trkpt lat="43.90535" lon="2.00791">
        <ele>146.644974</ele>
        <time>2026-08-29T15:30:37Z</time>
      </trkpt>
      <trkpt lat="43.90425" lon="2.00834">
        <ele>151.27548</ele>
        <time>2026-08-29T15:33:21Z</time>
      </trkpt>
      <trkpt lat="43.90423" lon="2.00835">
        <ele>151.353679</ele>
        <time>2026-08-29T15:33:22Z</time>
      </trkpt>
      <trkpt lat="43.90421" lon="2.00835">
        <ele>151.436772</ele>
        <time>2026-08-29T15:33:23Z</time>
      </trkpt>
      <trkpt lat="43.90419" lon="2.00835">
        <ele>151.518861</ele>
        <time>2026-08-29T15:33:24Z</time>
      </trkpt>
      <trkpt lat="43.90417" lon="2.00835">
        <ele>151.612625</ele>
        <time>2026-08-29T15:33:25Z</time>
      </trkpt>
      <trkpt lat="43.90414" lon="2.00836">
        <ele>151.702365</ele>
        <time>2026-08-29T15:33:26Z</time>
      </trkpt>
      <trkpt lat="43.90412" lon="2.00836">
        <ele>151.792237</ele>
        <time>2026-08-29T15:33:27Z</time>
      </trkpt>
      <trkpt lat="43.9041" lon="2.00836">
        <ele>151.878033</ele>
        <time>2026-08-29T15:33:28Z</time>
      </trkpt>
      <trkpt lat="43.90408" lon="2.00836">
        <ele>151.9693</ele>
        <time>2026-08-29T15:33:29Z</time>
      </trkpt>
      <trkpt lat="43.90405" lon="2.00837">
        <ele>152.064171</ele>
        <time>2026-08-29T15:33:30Z</time>
      </trkpt>
      <trkpt lat="43.90403" lon="2.00838">
        <ele>152.161123</ele>
        <time>2026-08-29T15:33:31Z</time>
      </trkpt>
      <trkpt lat="43.90401" lon="2.00839">
        <ele>152.249815</ele>
        <time>2026-08-29T15:33:32Z</time>
      </trkpt>
      <trkpt lat="43.90399" lon="2.0084">
        <ele>152.332479</ele>
        <time>2026-08-29T15:33:33Z</time>
      </trkpt>
      <trkpt lat="43.90397" lon="2.00839">
        <ele>152.410678</ele>
        <time>2026-08-29T15:33:34Z</time>
      </trkpt>
      <trkpt lat="43.90395" lon="2.00839">
        <ele>152.48993</ele>
        <time>2026-08-29T15:33:35Z</time>
      </trkpt>
      <trkpt lat="43.90392" lon="2.00839">
        <ele>152.575726</ele>
        <time>2026-08-29T15:33:36Z</time>
      </trkpt>
      <trkpt lat="43.9039" lon="2.00839">
        <ele>152.654177</ele>
        <time>2026-08-29T15:33:37Z</time>
      </trkpt>
      <trkpt lat="43.90388" lon="2.00839">
        <ele>152.732173</ele>
        <time>2026-08-29T15:33:38Z</time>
      </trkpt>
      <trkpt lat="43.90386" lon="2.00839">
        <ele>152.806323</ele>
        <time>2026-08-29T15:33:39Z</time>
      </trkpt>
      <trkpt lat="43.90384" lon="2.0084">
        <ele>152.884774</ele>
        <time>2026-08-29T15:33:40Z</time>
      </trkpt>
      <trkpt lat="43.90383" lon="2.00839">
        <ele>152.959083</ele>
        <time>2026-08-29T15:33:41Z</time>
      </trkpt>
      <trkpt lat="43.90381" lon="2.00838">
        <ele>153.036958</ele>
        <time>2026-08-29T15:33:42Z</time>
      </trkpt>
      <trkpt lat="43.90379" lon="2.00836">
        <ele>153.114753</ele>
        <time>2026-08-29T15:33:43Z</time>
      </trkpt>
      <trkpt lat="43.90378" lon="2.00833">
        <ele>153.204364</ele>
        <time>2026-08-29T15:33:44Z</time>
      </trkpt>
      <trkpt lat="43.90378" lon="2.0083">
        <ele>153.301164</ele>
        <time>2026-08-29T15:33:45Z</time>
      </trkpt>
      <trkpt lat="43.90378" lon="2.00826">
        <ele>153.405201</ele>
        <time>2026-08-29T15:33:46Z</time>
      </trkpt>
      <trkpt lat="43.90379" lon="2.00822">
        <ele>153.511766</ele>
        <time>2026-08-29T15:33:47Z</time>
      </trkpt>
      <trkpt lat="43.90379" lon="2.00819">
        <ele>153.617543</ele>
        <time>2026-08-29T15:33:48Z</time>
      </trkpt>
      <trkpt lat="43.9038" lon="2.00815">
        <ele>153.726087</ele>
        <time>2026-08-29T15:33:49Z</time>
      </trkpt>
      <trkpt lat="43.90381" lon="2.00811">
        <ele>153.836296</ele>
        <time>2026-08-29T15:33:50Z</time>
      </trkpt>
      <trkpt lat="43.90382" lon="2.00807">
        <ele>153.951363</ele>
        <time>2026-08-29T15:33:51Z</time>
      </trkpt>
      <trkpt lat="43.90382" lon="2.00803">
        <ele>154.066431</ele>
        <time>2026-08-29T15:33:52Z</time>
      </trkpt>
      <trkpt lat="43.90383" lon="2.008">
        <ele>154.179364</ele>
        <time>2026-08-29T15:33:53Z</time>
      </trkpt>
      <trkpt lat="43.90384" lon="2.00796">
        <ele>154.295025</ele>
        <time>2026-08-29T15:33:54Z</time>
      </trkpt>
      <trkpt lat="43.90385" lon="2.00791">
        <ele>154.414378</ele>
        <time>2026-08-29T15:33:55Z</time>
      </trkpt>
      <trkpt lat="43.90386" lon="2.00787">
        <ele>154.540196</ele>
        <time>2026-08-29T15:33:56Z</time>
      </trkpt>
      <trkpt lat="43.90386" lon="2.00782">
        <ele>154.679561</ele>
        <time>2026-08-29T15:33:57Z</time>
      </trkpt>
      <trkpt lat="43.90388" lon="2.00777">
        <ele>154.83184</ele>
        <time>2026-08-29T15:33:58Z</time>
      </trkpt>
      <trkpt lat="43.90389" lon="2.00772">
        <ele>154.987941</ele>
        <time>2026-08-29T15:33:59Z</time>
      </trkpt>
      <trkpt lat="43.9039" lon="2.00767">
        <ele>155.14022</ele>
        <time>2026-08-29T15:34:00Z</time>
      </trkpt>
      <trkpt lat="43.90391" lon="2.00761">
        <ele>155.297899</ele>
        <time>2026-08-29T15:34:01Z</time>
      </trkpt>
      <trkpt lat="43.90392" lon="2.00756">
        <ele>155.463705</ele>
        <time>2026-08-29T15:34:02Z</time>
      </trkpt>
      <trkpt lat="43.90393" lon="2.0075">
        <ele>155.634946</ele>
        <time>2026-08-29T15:34:03Z</time>
      </trkpt>
      <trkpt lat="43.90394" lon="2.00744">
        <ele>155.805252</ele>
        <time>2026-08-29T15:34:04Z</time>
      </trkpt>
      <trkpt lat="43.90395" lon="2.00738">
        <ele>155.971058</ele>
        <time>2026-08-29T15:34:05Z</time>
      </trkpt>
      <trkpt lat="43.90396" lon="2.00732">
        <ele>156.136864</ele>
        <time>2026-08-29T15:34:06Z</time>
      </trkpt>
      <trkpt lat="43.90397" lon="2.00727">
        <ele>156.299957</ele>
        <time>2026-08-29T15:34:07Z</time>
      </trkpt>
      <trkpt lat="43.90399" lon="2.00721">
        <ele>156.467951</ele>
        <time>2026-08-29T15:34:08Z</time>
      </trkpt>
      <trkpt lat="43.904" lon="2.00715">
        <ele>156.635823</ele>
        <time>2026-08-29T15:34:09Z</time>
      </trkpt>
      <trkpt lat="43.90401" lon="2.0071">
        <ele>156.799985</ele>
        <time>2026-08-29T15:34:10Z</time>
      </trkpt>
      <trkpt lat="43.90403" lon="2.00704">
        <ele>156.790347</ele>
        <time>2026-08-29T15:34:11Z</time>
      </trkpt>
      <trkpt lat="43.90404" lon="2.00698">
        <ele>156.772039</ele>
        <time>2026-08-29T15:34:12Z</time>
      </trkpt>
      <trkpt lat="43.90406" lon="2.00693">
        <ele>156.754431</ele>
        <time>2026-08-29T15:34:13Z</time>
      </trkpt>
      <trkpt lat="43.90407" lon="2.00687">
        <ele>156.736546</ele>
        <time>2026-08-29T15:34:14Z</time>
      </trkpt>
      <trkpt lat="43.90409" lon="2.00681">
        <ele>156.718661</ele>
        <time>2026-08-29T15:34:15Z</time>
      </trkpt>
      <trkpt lat="43.9041" lon="2.00675">
        <ele>156.700354</ele>
        <time>2026-08-29T15:34:16Z</time>
      </trkpt>
      <trkpt lat="43.90411" lon="2.0067">
        <ele>156.682852</ele>
        <time>2026-08-29T15:34:17Z</time>
      </trkpt>
      <trkpt lat="43.90413" lon="2.00664">
        <ele>156.666479</ele>
        <time>2026-08-29T15:34:18Z</time>
      </trkpt>
      <trkpt lat="43.90414" lon="2.00659">
        <ele>156.649146</ele>
        <time>2026-08-29T15:34:19Z</time>
      </trkpt>
      <trkpt lat="43.90416" lon="2.00653">
        <ele>156.631778</ele>
        <time>2026-08-29T15:34:20Z</time>
      </trkpt>
      <trkpt lat="43.90418" lon="2.00648">
        <ele>156.614595</ele>
        <time>2026-08-29T15:34:21Z</time>
      </trkpt>
      <trkpt lat="43.9042" lon="2.00643">
        <ele>156.597147</ele>
        <time>2026-08-29T15:34:22Z</time>
      </trkpt>
      <trkpt lat="43.90421" lon="2.00638">
        <ele>156.579779</ele>
        <time>2026-08-29T15:34:23Z</time>
      </trkpt>
      <trkpt lat="43.90423" lon="2.00632">
        <ele>156.562146</ele>
        <time>2026-08-29T15:34:24Z</time>
      </trkpt>
      <trkpt lat="43.90425" lon="2.00627">
        <ele>156.544435</ele>
        <time>2026-08-29T15:34:25Z</time>
      </trkpt>
      <trkpt lat="43.90427" lon="2.00622">
        <ele>156.527122</ele>
        <time>2026-08-29T15:34:26Z</time>
      </trkpt>
      <trkpt lat="43.90429" lon="2.00617">
        <ele>156.511035</ele>
        <time>2026-08-29T15:34:27Z</time>
      </trkpt>
      <trkpt lat="43.90432" lon="2.00612">
        <ele>156.493572</ele>
        <time>2026-08-29T15:34:28Z</time>
      </trkpt>
      <trkpt lat="43.90434" lon="2.00607">
        <ele>156.477054</ele>
        <time>2026-08-29T15:34:29Z</time>
      </trkpt>
      <trkpt lat="43.90436" lon="2.00603">
        <ele>156.460038</ele>
        <time>2026-08-29T15:34:30Z</time>
      </trkpt>
      <trkpt lat="43.90438" lon="2.00598">
        <ele>156.442802</ele>
        <time>2026-08-29T15:34:31Z</time>
      </trkpt>
      <trkpt lat="43.9044" lon="2.00593">
        <ele>156.426204</ele>
        <time>2026-08-29T15:34:32Z</time>
      </trkpt>
      <trkpt lat="43.90442" lon="2.00588">
        <ele>156.409375</ele>
        <time>2026-08-29T15:34:33Z</time>
      </trkpt>
      <trkpt lat="43.90444" lon="2.00582">
        <ele>156.391571</ele>
        <time>2026-08-29T15:34:34Z</time>
      </trkpt>
      <trkpt lat="43.90446" lon="2.00577">
        <ele>156.374036</ele>
        <time>2026-08-29T15:34:35Z</time>
      </trkpt>
      <trkpt lat="43.90447" lon="2.00571">
        <ele>156.357206</ele>
        <time>2026-08-29T15:34:36Z</time>
      </trkpt>
      <trkpt lat="43.90449" lon="2.00567">
        <ele>156.341178</ele>
        <time>2026-08-29T15:34:37Z</time>
      </trkpt>
      <trkpt lat="43.9045" lon="2.00561">
        <ele>156.323708</ele>
        <time>2026-08-29T15:34:38Z</time>
      </trkpt>
      <trkpt lat="43.90452" lon="2.00555">
        <ele>156.306516</ele>
        <time>2026-08-29T15:34:39Z</time>
      </trkpt>
      <trkpt lat="43.90453" lon="2.0055">
        <ele>156.289512</ele>
        <time>2026-08-29T15:34:40Z</time>
      </trkpt>
      <trkpt lat="43.90454" lon="2.00545">
        <ele>156.274211</ele>
        <time>2026-08-29T15:34:41Z</time>
      </trkpt>
      <trkpt lat="43.90454" lon="2.00539">
        <ele>156.258543</ele>
        <time>2026-08-29T15:34:42Z</time>
      </trkpt>
      <trkpt lat="43.90454" lon="2.00534">
        <ele>156.242018</ele>
        <time>2026-08-29T15:34:43Z</time>
      </trkpt>
      <trkpt lat="43.90454" lon="2.00528">
        <ele>156.224292</ele>
        <time>2026-08-29T15:34:44Z</time>
      </trkpt>
      <trkpt lat="43.90455" lon="2.00522">
        <ele>156.207448</ele>
        <time>2026-08-29T15:34:45Z</time>
      </trkpt>
      <trkpt lat="43.90455" lon="2.00517">
        <ele>156.190817</ele>
        <time>2026-08-29T15:34:46Z</time>
      </trkpt>
      <trkpt lat="43.90456" lon="2.00511">
        <ele>156.173776</ele>
        <time>2026-08-29T15:34:47Z</time>
      </trkpt>
      <trkpt lat="43.90456" lon="2.00505">
        <ele>156.157145</ele>
        <time>2026-08-29T15:34:48Z</time>
      </trkpt>
      <trkpt lat="43.90457" lon="2.005">
        <ele>156.141099</ele>
        <time>2026-08-29T15:34:49Z</time>
      </trkpt>
      <trkpt lat="43.90457" lon="2.00494">
        <ele>156.125137</ele>
        <time>2026-08-29T15:34:50Z</time>
      </trkpt>
      <trkpt lat="43.90457" lon="2.00489">
        <ele>156.109175</ele>
        <time>2026-08-29T15:34:51Z</time>
      </trkpt>
      <trkpt lat="43.90458" lon="2.00484">
        <ele>156.092638</ele>
        <time>2026-08-29T15:34:52Z</time>
      </trkpt>
      <trkpt lat="43.90458" lon="2.00478">
        <ele>156.07523</ele>
        <time>2026-08-29T15:34:53Z</time>
      </trkpt>
      <trkpt lat="43.90459" lon="2.00472">
        <ele>156.049173</ele>
        <time>2026-08-29T15:34:54Z</time>
      </trkpt>
      <trkpt lat="43.90459" lon="2.00465">
        <ele>156.018227</ele>
        <time>2026-08-29T15:34:55Z</time>
      </trkpt>
      <trkpt lat="43.90459" lon="2.00459">
        <ele>155.98966</ele>
        <time>2026-08-29T15:34:56Z</time>
      </trkpt>
      <trkpt lat="43.9046" lon="2.00452">
        <ele>155.960548</ele>
        <time>2026-08-29T15:34:57Z</time>
      </trkpt>
      <trkpt lat="43.9046" lon="2.00446">
        <ele>155.932813</ele>
        <time>2026-08-29T15:34:58Z</time>
      </trkpt>
      <trkpt lat="43.9046" lon="2.0044">
        <ele>155.905625</ele>
        <time>2026-08-29T15:34:59Z</time>
      </trkpt>
      <trkpt lat="43.90461" lon="2.00435">
        <ele>155.879722</ele>
        <time>2026-08-29T15:35:00Z</time>
      </trkpt>
      <trkpt lat="43.90461" lon="2.00429">
        <ele>155.85061</ele>
        <time>2026-08-29T15:35:01Z</time>
      </trkpt>
      <trkpt lat="43.90462" lon="2.00423">
        <ele>155.822808</ele>
        <time>2026-08-29T15:35:02Z</time>
      </trkpt>
      <trkpt lat="43.90462" lon="2.00417">
        <ele>155.795837</ele>
        <time>2026-08-29T15:35:03Z</time>
      </trkpt>
      <trkpt lat="43.90462" lon="2.00411">
        <ele>155.769569</ele>
        <time>2026-08-29T15:35:04Z</time>
      </trkpt>
      <trkpt lat="43.90463" lon="2.00406">
        <ele>155.74422</ele>
        <time>2026-08-29T15:35:05Z</time>
      </trkpt>
      <trkpt lat="43.90463" lon="2.004">
        <ele>155.719791</ele>
        <time>2026-08-29T15:35:06Z</time>
      </trkpt>
      <trkpt lat="43.90463" lon="2.00395">
        <ele>155.695779</ele>
        <time>2026-08-29T15:35:07Z</time>
      </trkpt>
      <trkpt lat="43.90464" lon="2.0039">
        <ele>155.671175</ele>
        <time>2026-08-29T15:35:08Z</time>
      </trkpt>
      <trkpt lat="43.90464" lon="2.00384">
        <ele>155.644287</ele>
        <time>2026-08-29T15:35:09Z</time>
      </trkpt>
      <trkpt lat="43.90465" lon="2.00378">
        <ele>155.616404</ele>
        <time>2026-08-29T15:35:10Z</time>
      </trkpt>
      <trkpt lat="43.90466" lon="2.00372">
        <ele>155.588953</ele>
        <time>2026-08-29T15:35:11Z</time>
      </trkpt>
      <trkpt lat="43.90466" lon="2.00367">
        <ele>155.56415</ele>
        <time>2026-08-29T15:35:12Z</time>
      </trkpt>
      <trkpt lat="43.90467" lon="2.00361">
        <ele>155.538545</ele>
        <time>2026-08-29T15:35:13Z</time>
      </trkpt>
      <trkpt lat="43.90468" lon="2.00356">
        <ele>155.511464</ele>
        <time>2026-08-29T15:35:14Z</time>
      </trkpt>
      <trkpt lat="43.90469" lon="2.0035">
        <ele>155.484734</ele>
        <time>2026-08-29T15:35:15Z</time>
      </trkpt>
      <trkpt lat="43.9047" lon="2.00344">
        <ele>155.456974</ele>
        <time>2026-08-29T15:35:16Z</time>
      </trkpt>
      <trkpt lat="43.90471" lon="2.00338">
        <ele>155.429523</ele>
        <time>2026-08-29T15:35:17Z</time>
      </trkpt>
      <trkpt lat="43.90472" lon="2.00333">
        <ele>155.403413</ele>
        <time>2026-08-29T15:35:18Z</time>
      </trkpt>
      <trkpt lat="43.90473" lon="2.00327">
        <ele>155.376251</ele>
        <time>2026-08-29T15:35:19Z</time>
      </trkpt>
      <trkpt lat="43.90474" lon="2.00322">
        <ele>155.349977</ele>
        <time>2026-08-29T15:35:20Z</time>
      </trkpt>
      <trkpt lat="43.90475" lon="2.00316">
        <ele>155.322668</ele>
        <time>2026-08-29T15:35:21Z</time>
      </trkpt>
      <trkpt lat="43.90476" lon="2.0031">
        <ele>155.295696</ele>
        <time>2026-08-29T15:35:22Z</time>
      </trkpt>
      <trkpt lat="43.90476" lon="2.00304">
        <ele>155.269849</ele>
        <time>2026-08-29T15:35:23Z</time>
      </trkpt>
      <trkpt lat="43.90477" lon="2.00299">
        <ele>155.244461</ele>
        <time>2026-08-29T15:35:24Z</time>
      </trkpt>
      <trkpt lat="43.90478" lon="2.00294">
        <ele>155.221185</ele>
        <time>2026-08-29T15:35:25Z</time>
      </trkpt>
      <trkpt lat="43.90479" lon="2.0029">
        <ele>155.1988</ele>
        <time>2026-08-29T15:35:26Z</time>
      </trkpt>
      <trkpt lat="43.9048" lon="2.00285">
        <ele>155.177303</ele>
        <time>2026-08-29T15:35:27Z</time>
      </trkpt>
      <trkpt lat="43.9048" lon="2.00281">
        <ele>155.157908</ele>
        <time>2026-08-29T15:35:28Z</time>
      </trkpt>
      <trkpt lat="43.90481" lon="2.00277">
        <ele>155.139221</ele>
        <time>2026-08-29T15:35:29Z</time>
      </trkpt>
      <trkpt lat="43.90482" lon="2.00273">
        <ele>155.121315</ele>
        <time>2026-08-29T15:35:30Z</time>
      </trkpt>
      <trkpt lat="43.90482" lon="2.0027">
        <ele>155.104209</ele>
        <time>2026-08-29T15:35:31Z</time>
      </trkpt>
      <trkpt lat="43.90484" lon="2.00266">
        <ele>155.085951</ele>
        <time>2026-08-29T15:35:32Z</time>
      </trkpt>
      <trkpt lat="43.90485" lon="2.00263">
        <ele>155.067642</ele>
        <time>2026-08-29T15:35:33Z</time>
      </trkpt>
      <trkpt lat="43.90487" lon="2.0026">
        <ele>155.048572</ele>
        <time>2026-08-29T15:35:34Z</time>
      </trkpt>
      <trkpt lat="43.9049" lon="2.00258">
        <ele>155.029992</ele>
        <time>2026-08-29T15:35:35Z</time>
      </trkpt>
      <trkpt lat="43.90493" lon="2.00257">
        <ele>155.010278</ele>
        <time>2026-08-29T15:35:36Z</time>
      </trkpt>
      <trkpt lat="43.90495" lon="2.00255">
        <ele>154.996169</ele>
        <time>2026-08-29T15:35:37Z</time>
      </trkpt>
      <trkpt lat="43.90497" lon="2.00255">
        <ele>154.984343</ele>
        <time>2026-08-29T15:35:38Z</time>
      </trkpt>
      <trkpt lat="43.90497" lon="2.00254">
        <ele>154.98023</ele>
        <time>2026-08-29T15:35:39Z</time>
      </trkpt>
      <trkpt lat="43.90497" lon="2.00254">
        <ele>154.976369</ele>
        <time>2026-08-29T15:35:40Z</time>
      </trkpt>
      <trkpt lat="43.90497" lon="2.00254">
        <ele>154.974398</ele>
        <time>2026-08-29T15:35:41Z</time>
      </trkpt>
      <trkpt lat="43.90502" lon="2.00247">
        <ele>154.927193</ele>
        <time>2026-08-29T15:37:03Z</time>
      </trkpt>
      <trkpt lat="43.90504" lon="2.00245">
        <ele>154.864248</ele>
        <time>2026-08-29T15:37:04Z</time>
      </trkpt>
      <trkpt lat="43.90505" lon="2.00242">
        <ele>154.7551</ele>
        <time>2026-08-29T15:37:05Z</time>
      </trkpt>
      <trkpt lat="43.90507" lon="2.00239">
        <ele>154.634021</ele>
        <time>2026-08-29T15:37:06Z</time>
      </trkpt>
      <trkpt lat="43.90508" lon="2.00235">
        <ele>154.500448</ele>
        <time>2026-08-29T15:37:07Z</time>
      </trkpt>
      <trkpt lat="43.90509" lon="2.0023">
        <ele>154.358679</ele>
        <time>2026-08-29T15:37:08Z</time>
      </trkpt>
      <trkpt lat="43.9051" lon="2.00226">
        <ele>154.21638</ele>
        <time>2026-08-29T15:37:09Z</time>
      </trkpt>
      <trkpt lat="43.9051" lon="2.0022">
        <ele>154.051517</ele>
        <time>2026-08-29T15:37:10Z</time>
      </trkpt>
      <trkpt lat="43.90509" lon="2.00215">
        <ele>153.889965</ele>
        <time>2026-08-29T15:37:11Z</time>
      </trkpt>
      <trkpt lat="43.90509" lon="2.0021">
        <ele>153.724238</ele>
        <time>2026-08-29T15:37:12Z</time>
      </trkpt>
      <trkpt lat="43.90508" lon="2.00205">
        <ele>153.568332</ele>
        <time>2026-08-29T15:37:13Z</time>
      </trkpt>
      <trkpt lat="43.90507" lon="2.00199">
        <ele>153.392164</ele>
        <time>2026-08-29T15:37:14Z</time>
      </trkpt>
      <trkpt lat="43.90505" lon="2.00193">
        <ele>153.202723</ele>
        <time>2026-08-29T15:37:15Z</time>
      </trkpt>
      <trkpt lat="43.90504" lon="2.00186">
        <ele>152.980282</ele>
        <time>2026-08-29T15:37:16Z</time>
      </trkpt>
      <trkpt lat="43.90502" lon="2.00179">
        <ele>152.736342</ele>
        <time>2026-08-29T15:37:17Z</time>
      </trkpt>
      <trkpt lat="43.90501" lon="2.0017">
        <ele>152.463716</ele>
        <time>2026-08-29T15:37:18Z</time>
      </trkpt>
      <trkpt lat="43.905" lon="2.00161">
        <ele>152.185106</ele>
        <time>2026-08-29T15:37:19Z</time>
      </trkpt>
      <trkpt lat="43.90499" lon="2.00151">
        <ele>151.899473</ele>
        <time>2026-08-29T15:37:20Z</time>
      </trkpt>
      <trkpt lat="43.90499" lon="2.00141">
        <ele>151.594343</ele>
        <time>2026-08-29T15:37:21Z</time>
      </trkpt>
      <trkpt lat="43.90499" lon="2.0013">
        <ele>151.256038</ele>
        <time>2026-08-29T15:37:22Z</time>
      </trkpt>
      <trkpt lat="43.905" lon="2.00118">
        <ele>150.874393</ele>
        <time>2026-08-29T15:37:23Z</time>
      </trkpt>
      <trkpt lat="43.90501" lon="2.00104">
        <ele>150.46034</ele>
        <time>2026-08-29T15:37:24Z</time>
      </trkpt>
      <trkpt lat="43.90503" lon="2.00091">
        <ele>150.034174</ele>
        <time>2026-08-29T15:37:25Z</time>
      </trkpt>
      <trkpt lat="43.90504" lon="2.00077">
        <ele>149.612975</ele>
        <time>2026-08-29T15:37:26Z</time>
      </trkpt>
      <trkpt lat="43.90505" lon="2.00064">
        <ele>149.209851</ele>
        <time>2026-08-29T15:37:27Z</time>
      </trkpt>
      <trkpt lat="43.90506" lon="2.00051">
        <ele>148.818758</ele>
        <time>2026-08-29T15:37:28Z</time>
      </trkpt>
      <trkpt lat="43.90507" lon="2.00039">
        <ele>148.443967</ele>
        <time>2026-08-29T15:37:29Z</time>
      </trkpt>
      <trkpt lat="43.90507" lon="2.00027">
        <ele>148.081118</ele>
        <time>2026-08-29T15:37:30Z</time>
      </trkpt>
      <trkpt lat="43.90507" lon="2.00016">
        <ele>147.740166</ele>
        <time>2026-08-29T15:37:31Z</time>
      </trkpt>
      <trkpt lat="43.90507" lon="2.00005">
        <ele>147.417504</ele>
        <time>2026-08-29T15:37:32Z</time>
      </trkpt>
      <trkpt lat="43.90507" lon="1.99995">
        <ele>147.17778</ele>
        <time>2026-08-29T15:37:33Z</time>
      </trkpt>
      <trkpt lat="43.90507" lon="1.99984">
        <ele>146.968282</ele>
        <time>2026-08-29T15:37:34Z</time>
      </trkpt>
      <trkpt lat="43.90507" lon="1.99973">
        <ele>146.757012</ele>
        <time>2026-08-29T15:37:35Z</time>
      </trkpt>
      <trkpt lat="43.90508" lon="1.99963">
        <ele>146.549725</ele>
        <time>2026-08-29T15:37:36Z</time>
      </trkpt>
      <trkpt lat="43.90508" lon="1.99953">
        <ele>146.350481</ele>
        <time>2026-08-29T15:37:37Z</time>
      </trkpt>
      <trkpt lat="43.90508" lon="1.99943">
        <ele>146.155223</ele>
        <time>2026-08-29T15:37:38Z</time>
      </trkpt>
      <trkpt lat="43.90508" lon="1.99933">
        <ele>145.959886</ele>
        <time>2026-08-29T15:37:39Z</time>
      </trkpt>
      <trkpt lat="43.90508" lon="1.99924">
        <ele>145.762557</ele>
        <time>2026-08-29T15:37:40Z</time>
      </trkpt>
      <trkpt lat="43.90508" lon="1.99914">
        <ele>145.569212</ele>
        <time>2026-08-29T15:37:41Z</time>
      </trkpt>
      <trkpt lat="43.90508" lon="1.99905">
        <ele>145.383833</ele>
        <time>2026-08-29T15:37:42Z</time>
      </trkpt>
      <trkpt lat="43.90508" lon="1.99895">
        <ele>145.202522</ele>
        <time>2026-08-29T15:37:43Z</time>
      </trkpt>
      <trkpt lat="43.90508" lon="1.99887">
        <ele>145.0271</ele>
        <time>2026-08-29T15:37:44Z</time>
      </trkpt>
      <trkpt lat="43.90508" lon="1.99879">
        <ele>144.883405</ele>
        <time>2026-08-29T15:37:45Z</time>
      </trkpt>
      <trkpt lat="43.90509" lon="1.99873">
        <ele>144.763349</ele>
        <time>2026-08-29T15:37:46Z</time>
      </trkpt>
      <trkpt lat="43.90509" lon="1.99868">
        <ele>144.660798</ele>
        <time>2026-08-29T15:37:47Z</time>
      </trkpt>
      <trkpt lat="43.90509" lon="1.99865">
        <ele>144.598786</ele>
        <time>2026-08-29T15:37:48Z</time>
      </trkpt>
      <trkpt lat="43.90509" lon="1.99864">
        <ele>144.576182</ele>
        <time>2026-08-29T15:37:49Z</time>
      </trkpt>
      <trkpt lat="43.90509" lon="1.99864">
        <ele>144.572773</ele>
        <time>2026-08-29T15:37:50Z</time>
      </trkpt>
      <trkpt lat="43.90509" lon="1.99864">
        <ele>144.560819</ele>
        <time>2026-08-29T15:37:51Z</time>
      </trkpt>
      <trkpt lat="43.90511" lon="1.9986">
        <ele>144.483077</ele>
        <time>2026-08-29T15:37:58Z</time>
      </trkpt>
      <trkpt lat="43.90511" lon="1.99857">
        <ele>144.422961</ele>
        <time>2026-08-29T15:37:59Z</time>
      </trkpt>
      <trkpt lat="43.90513" lon="1.99854">
        <ele>144.34666</ele>
        <time>2026-08-29T15:38:00Z</time>
      </trkpt>
      <trkpt lat="43.90515" lon="1.99851">
        <ele>144.262494</ele>
        <time>2026-08-29T15:38:01Z</time>
      </trkpt>
      <trkpt lat="43.90517" lon="1.99848">
        <ele>144.172436</ele>
        <time>2026-08-29T15:38:02Z</time>
      </trkpt>
      <trkpt lat="43.90519" lon="1.99844">
        <ele>144.079514</ele>
        <time>2026-08-29T15:38:03Z</time>
      </trkpt>
      <trkpt lat="43.90521" lon="1.9984">
        <ele>143.984094</ele>
        <time>2026-08-29T15:38:04Z</time>
      </trkpt>
      <trkpt lat="43.90523" lon="1.99836">
        <ele>143.885443</ele>
        <time>2026-08-29T15:38:05Z</time>
      </trkpt>
      <trkpt lat="43.90525" lon="1.99832">
        <ele>143.794287</ele>
        <time>2026-08-29T15:38:06Z</time>
      </trkpt>
      <trkpt lat="43.90526" lon="1.99828">
        <ele>143.702669</ele>
        <time>2026-08-29T15:38:07Z</time>
      </trkpt>
      <trkpt lat="43.90528" lon="1.99824">
        <ele>143.610465</ele>
        <time>2026-08-29T15:38:08Z</time>
      </trkpt>
      <trkpt lat="43.90529" lon="1.99819">
        <ele>143.508207</ele>
        <time>2026-08-29T15:38:09Z</time>
      </trkpt>
      <trkpt lat="43.9053" lon="1.99814">
        <ele>143.404213</ele>
        <time>2026-08-29T15:38:10Z</time>
      </trkpt>
      <trkpt lat="43.90531" lon="1.99809">
        <ele>143.297659</ele>
        <time>2026-08-29T15:38:11Z</time>
      </trkpt>
      <trkpt lat="43.90532" lon="1.99804">
        <ele>143.19235</ele>
        <time>2026-08-29T15:38:12Z</time>
      </trkpt>
      <trkpt lat="43.90532" lon="1.99798">
        <ele>143.078032</ele>
        <time>2026-08-29T15:38:13Z</time>
      </trkpt>
      <trkpt lat="43.90533" lon="1.99792">
        <ele>142.962329</ele>
        <time>2026-08-29T15:38:14Z</time>
      </trkpt>
      <trkpt lat="43.90534" lon="1.99787">
        <ele>142.845158</ele>
        <time>2026-08-29T15:38:15Z</time>
      </trkpt>
      <trkpt lat="43.90535" lon="1.99781">
        <ele>142.730206</ele>
        <time>2026-08-29T15:38:16Z</time>
      </trkpt>
      <trkpt lat="43.90536" lon="1.99775">
        <ele>142.611996</ele>
        <time>2026-08-29T15:38:17Z</time>
      </trkpt>
      <trkpt lat="43.90536" lon="1.99769">
        <ele>142.491304</ele>
        <time>2026-08-29T15:38:18Z</time>
      </trkpt>
      <trkpt lat="43.90537" lon="1.99763">
        <ele>142.363042</ele>
        <time>2026-08-29T15:38:19Z</time>
      </trkpt>
      <trkpt lat="43.90537" lon="1.99757">
        <ele>142.334165</ele>
        <time>2026-08-29T15:38:20Z</time>
      </trkpt>
      <trkpt lat="43.90538" lon="1.9975">
        <ele>142.31545</ele>
        <time>2026-08-29T15:38:21Z</time>
      </trkpt>
      <trkpt lat="43.90538" lon="1.99744">
        <ele>142.298143</ele>
        <time>2026-08-29T15:38:22Z</time>
      </trkpt>
      <trkpt lat="43.90538" lon="1.99737">
        <ele>142.279111</ele>
        <time>2026-08-29T15:38:23Z</time>
      </trkpt>
      <trkpt lat="43.90539" lon="1.99731">
        <ele>142.260678</ele>
        <time>2026-08-29T15:38:24Z</time>
      </trkpt>
      <trkpt lat="43.90539" lon="1.99724">
        <ele>142.241465</ele>
        <time>2026-08-29T15:38:25Z</time>
      </trkpt>
      <trkpt lat="43.90539" lon="1.99718">
        <ele>142.223942</ele>
        <time>2026-08-29T15:38:26Z</time>
      </trkpt>
      <trkpt lat="43.90539" lon="1.99711">
        <ele>142.205559</ele>
        <time>2026-08-29T15:38:27Z</time>
      </trkpt>
      <trkpt lat="43.90538" lon="1.99705">
        <ele>142.188023</ele>
        <time>2026-08-29T15:38:28Z</time>
      </trkpt>
      <trkpt lat="43.90538" lon="1.99699">
        <ele>142.169653</ele>
        <time>2026-08-29T15:38:29Z</time>
      </trkpt>
      <trkpt lat="43.90538" lon="1.99692">
        <ele>142.150376</ele>
        <time>2026-08-29T15:38:30Z</time>
      </trkpt>
      <trkpt lat="43.90537" lon="1.99685">
        <ele>142.130781</ele>
        <time>2026-08-29T15:38:31Z</time>
      </trkpt>
      <trkpt lat="43.90537" lon="1.99678">
        <ele>142.111144</ele>
        <time>2026-08-29T15:38:32Z</time>
      </trkpt>
      <trkpt lat="43.90536" lon="1.99671">
        <ele>142.091175</ele>
        <time>2026-08-29T15:38:33Z</time>
      </trkpt>
      <trkpt lat="43.90536" lon="1.99664">
        <ele>142.07108</ele>
        <time>2026-08-29T15:38:34Z</time>
      </trkpt>
      <trkpt lat="43.90535" lon="1.99657">
        <ele>142.050112</ele>
        <time>2026-08-29T15:38:35Z</time>
      </trkpt>
      <trkpt lat="43.90535" lon="1.99649">
        <ele>142.028463</ele>
        <time>2026-08-29T15:38:36Z</time>
      </trkpt>
      <trkpt lat="43.90534" lon="1.99642">
        <ele>142.007495</ele>
        <time>2026-08-29T15:38:37Z</time>
      </trkpt>
      <trkpt lat="43.90534" lon="1.99634">
        <ele>141.987148</ele>
        <time>2026-08-29T15:38:38Z</time>
      </trkpt>
      <trkpt lat="43.90534" lon="1.99627">
        <ele>141.966206</ele>
        <time>2026-08-29T15:38:39Z</time>
      </trkpt>
      <trkpt lat="43.90535" lon="1.9962">
        <ele>141.945847</ele>
        <time>2026-08-29T15:38:40Z</time>
      </trkpt>
      <trkpt lat="43.90535" lon="1.99613">
        <ele>141.926288</ele>
        <time>2026-08-29T15:38:41Z</time>
      </trkpt>
      <trkpt lat="43.90535" lon="1.99606">
        <ele>141.907855</ele>
        <time>2026-08-29T15:38:42Z</time>
      </trkpt>
      <trkpt lat="43.90536" lon="1.996">
        <ele>141.888598</ele>
        <time>2026-08-29T15:38:43Z</time>
      </trkpt>
      <trkpt lat="43.90537" lon="1.99593">
        <ele>141.869408</ele>
        <time>2026-08-29T15:38:44Z</time>
      </trkpt>
      <trkpt lat="43.90537" lon="1.99586">
        <ele>141.850473</ele>
        <time>2026-08-29T15:38:45Z</time>
      </trkpt>
      <trkpt lat="43.90537" lon="1.9958">
        <ele>141.831825</ele>
        <time>2026-08-29T15:38:46Z</time>
      </trkpt>
      <trkpt lat="43.90537" lon="1.99574">
        <ele>141.814585</ele>
        <time>2026-08-29T15:38:47Z</time>
      </trkpt>
      <trkpt lat="43.90537" lon="1.99567">
        <ele>141.797331</ele>
        <time>2026-08-29T15:38:48Z</time>
      </trkpt>
      <trkpt lat="43.90537" lon="1.99561">
        <ele>141.780305</ele>
        <time>2026-08-29T15:38:49Z</time>
      </trkpt>
      <trkpt lat="43.90536" lon="1.99555">
        <ele>141.76319</ele>
        <time>2026-08-29T15:38:50Z</time>
      </trkpt>
      <trkpt lat="43.90535" lon="1.9955">
        <ele>141.746295</ele>
        <time>2026-08-29T15:38:51Z</time>
      </trkpt>
      <trkpt lat="43.90535" lon="1.99544">
        <ele>141.729269</ele>
        <time>2026-08-29T15:38:52Z</time>
      </trkpt>
      <trkpt lat="43.90534" lon="1.99538">
        <ele>141.712028</ele>
        <time>2026-08-29T15:38:53Z</time>
      </trkpt>
      <trkpt lat="43.90533" lon="1.99532">
        <ele>141.695065</ele>
        <time>2026-08-29T15:38:54Z</time>
      </trkpt>
      <trkpt lat="43.90532" lon="1.99526">
        <ele>141.678118</ele>
        <time>2026-08-29T15:38:55Z</time>
      </trkpt>
      <trkpt lat="43.90531" lon="1.9952">
        <ele>141.662364</ele>
        <time>2026-08-29T15:38:56Z</time>
      </trkpt>
      <trkpt lat="43.9053" lon="1.99515">
        <ele>141.645788</ele>
        <time>2026-08-29T15:38:57Z</time>
      </trkpt>
      <trkpt lat="43.90529" lon="1.99509">
        <ele>141.663803</ele>
        <time>2026-08-29T15:38:58Z</time>
      </trkpt>
      <trkpt lat="43.90528" lon="1.99504">
        <ele>141.684638</ele>
        <time>2026-08-29T15:38:59Z</time>
      </trkpt>
      <trkpt lat="43.90528" lon="1.99499">
        <ele>141.705025</ele>
        <time>2026-08-29T15:39:00Z</time>
      </trkpt>
      <trkpt lat="43.90527" lon="1.99493">
        <ele>141.726102</ele>
        <time>2026-08-29T15:39:01Z</time>
      </trkpt>
      <trkpt lat="43.90526" lon="1.99488">
        <ele>141.748403</ele>
        <time>2026-08-29T15:39:02Z</time>
      </trkpt>
      <trkpt lat="43.90526" lon="1.99482">
        <ele>141.769864</ele>
        <time>2026-08-29T15:39:03Z</time>
      </trkpt>
      <trkpt lat="43.90526" lon="1.99477">
        <ele>141.790494</ele>
        <time>2026-08-29T15:39:04Z</time>
      </trkpt>
      <trkpt lat="43.90525" lon="1.99472">
        <ele>141.810036</ele>
        <time>2026-08-29T15:39:05Z</time>
      </trkpt>
      <trkpt lat="43.90525" lon="1.99467">
        <ele>141.830554</ele>
        <time>2026-08-29T15:39:06Z</time>
      </trkpt>
      <trkpt lat="43.90525" lon="1.99461">
        <ele>141.850713</ele>
        <time>2026-08-29T15:39:07Z</time>
      </trkpt>
      <trkpt lat="43.90525" lon="1.99457">
        <ele>141.869713</ele>
        <time>2026-08-29T15:39:08Z</time>
      </trkpt>
      <trkpt lat="43.90525" lon="1.99452">
        <ele>141.889099</ele>
        <time>2026-08-29T15:39:09Z</time>
      </trkpt>
      <trkpt lat="43.90525" lon="1.99447">
        <ele>141.908137</ele>
        <time>2026-08-29T15:39:10Z</time>
      </trkpt>
      <trkpt lat="43.90525" lon="1.99442">
        <ele>141.926074</ele>
        <time>2026-08-29T15:39:11Z</time>
      </trkpt>
      <trkpt lat="43.90525" lon="1.99437">
        <ele>141.944664</ele>
        <time>2026-08-29T15:39:12Z</time>
      </trkpt>
      <trkpt lat="43.90525" lon="1.99432">
        <ele>141.96521</ele>
        <time>2026-08-29T15:39:13Z</time>
      </trkpt>
      <trkpt lat="43.90525" lon="1.99427">
        <ele>141.984983</ele>
        <time>2026-08-29T15:39:14Z</time>
      </trkpt>
      <trkpt lat="43.90525" lon="1.99422">
        <ele>142.005501</ele>
        <time>2026-08-29T15:39:15Z</time>
      </trkpt>
      <trkpt lat="43.90525" lon="1.99416">
        <ele>142.025661</ele>
        <time>2026-08-29T15:39:16Z</time>
      </trkpt>
      <trkpt lat="43.90526" lon="1.99411">
        <ele>142.04547</ele>
        <time>2026-08-29T15:39:17Z</time>
      </trkpt>
      <trkpt lat="43.90526" lon="1.99406">
        <ele>142.06406</ele>
        <time>2026-08-29T15:39:18Z</time>
      </trkpt>
      <trkpt lat="43.90526" lon="1.99402">
        <ele>142.081489</ele>
        <time>2026-08-29T15:39:19Z</time>
      </trkpt>
      <trkpt lat="43.90525" lon="1.99397">
        <ele>142.100527</ele>
        <time>2026-08-29T15:39:20Z</time>
      </trkpt>
      <trkpt lat="43.90525" lon="1.99392">
        <ele>142.119564</ele>
        <time>2026-08-29T15:39:21Z</time>
      </trkpt>
      <trkpt lat="43.90525" lon="1.99387">
        <ele>142.137831</ele>
        <time>2026-08-29T15:39:22Z</time>
      </trkpt>
      <trkpt lat="43.90524" lon="1.99383">
        <ele>142.156058</ele>
        <time>2026-08-29T15:39:23Z</time>
      </trkpt>
      <trkpt lat="43.90524" lon="1.99378">
        <ele>142.174917</ele>
        <time>2026-08-29T15:39:24Z</time>
      </trkpt>
      <trkpt lat="43.90523" lon="1.99373">
        <ele>142.194256</ele>
        <time>2026-08-29T15:39:25Z</time>
      </trkpt>
      <trkpt lat="43.90522" lon="1.99368">
        <ele>142.212857</ele>
        <time>2026-08-29T15:39:26Z</time>
      </trkpt>
      <trkpt lat="43.90521" lon="1.99364">
        <ele>142.231088</ele>
        <time>2026-08-29T15:39:27Z</time>
      </trkpt>
      <trkpt lat="43.9052" lon="1.9936">
        <ele>142.24914</ele>
        <time>2026-08-29T15:39:28Z</time>
      </trkpt>
      <trkpt lat="43.90518" lon="1.99355">
        <ele>142.268393</ele>
        <time>2026-08-29T15:39:29Z</time>
      </trkpt>
      <trkpt lat="43.90516" lon="1.99351">
        <ele>142.288207</ele>
        <time>2026-08-29T15:39:30Z</time>
      </trkpt>
      <trkpt lat="43.90514" lon="1.99347">
        <ele>142.30748</ele>
        <time>2026-08-29T15:39:31Z</time>
      </trkpt>
      <trkpt lat="43.90511" lon="1.99344">
        <ele>142.326185</ele>
        <time>2026-08-29T15:39:32Z</time>
      </trkpt>
      <trkpt lat="43.90509" lon="1.9934">
        <ele>142.347041</ele>
        <time>2026-08-29T15:39:33Z</time>
      </trkpt>
      <trkpt lat="43.90506" lon="1.99336">
        <ele>142.367541</ele>
        <time>2026-08-29T15:39:34Z</time>
      </trkpt>
      <trkpt lat="43.90504" lon="1.99332">
        <ele>142.387462</ele>
        <time>2026-08-29T15:39:35Z</time>
      </trkpt>
      <trkpt lat="43.90501" lon="1.99328">
        <ele>142.40918</ele>
        <time>2026-08-29T15:39:36Z</time>
      </trkpt>
      <trkpt lat="43.90497" lon="1.99325">
        <ele>142.431697</ele>
        <time>2026-08-29T15:39:37Z</time>
      </trkpt>
      <trkpt lat="43.90494" lon="1.99322">
        <ele>142.453599</ele>
        <time>2026-08-29T15:39:38Z</time>
      </trkpt>
      <trkpt lat="43.9049" lon="1.99319">
        <ele>142.477892</ele>
        <time>2026-08-29T15:39:39Z</time>
      </trkpt>
      <trkpt lat="43.90486" lon="1.99315">
        <ele>142.500409</ele>
        <time>2026-08-29T15:39:40Z</time>
      </trkpt>
      <trkpt lat="43.90483" lon="1.99312">
        <ele>142.523816</ele>
        <time>2026-08-29T15:39:41Z</time>
      </trkpt>
      <trkpt lat="43.90479" lon="1.99308">
        <ele>142.547657</ele>
        <time>2026-08-29T15:39:42Z</time>
      </trkpt>
      <trkpt lat="43.90476" lon="1.99305">
        <ele>142.571065</ele>
        <time>2026-08-29T15:39:43Z</time>
      </trkpt>
      <trkpt lat="43.90473" lon="1.99301">
        <ele>142.594353</ele>
        <time>2026-08-29T15:39:44Z</time>
      </trkpt>
      <trkpt lat="43.90469" lon="1.99296">
        <ele>142.606584</ele>
        <time>2026-08-29T15:39:45Z</time>
      </trkpt>
      <trkpt lat="43.90466" lon="1.99292">
        <ele>142.594861</ele>
        <time>2026-08-29T15:39:46Z</time>
      </trkpt>
      <trkpt lat="43.90463" lon="1.99288">
        <ele>142.582798</ele>
        <time>2026-08-29T15:39:47Z</time>
      </trkpt>
      <trkpt lat="43.9046" lon="1.99284">
        <ele>142.570453</ele>
        <time>2026-08-29T15:39:48Z</time>
      </trkpt>
      <trkpt lat="43.90456" lon="1.99281">
        <ele>142.558046</ele>
        <time>2026-08-29T15:39:49Z</time>
      </trkpt>
      <trkpt lat="43.90452" lon="1.99277">
        <ele>142.545639</ele>
        <time>2026-08-29T15:39:50Z</time>
      </trkpt>
      <trkpt lat="43.90449" lon="1.99273">
        <ele>142.532776</ele>
        <time>2026-08-29T15:39:51Z</time>
      </trkpt>
      <trkpt lat="43.90444" lon="1.9927">
        <ele>142.519103</ele>
        <time>2026-08-29T15:39:52Z</time>
      </trkpt>
      <trkpt lat="43.90441" lon="1.99266">
        <ele>142.506796</ele>
        <time>2026-08-29T15:39:53Z</time>
      </trkpt>
      <trkpt lat="43.90437" lon="1.99262">
        <ele>142.49473</ele>
        <time>2026-08-29T15:39:54Z</time>
      </trkpt>
      <trkpt lat="43.90434" lon="1.99259">
        <ele>142.482763</ele>
        <time>2026-08-29T15:39:55Z</time>
      </trkpt>
      <trkpt lat="43.9043" lon="1.99255">
        <ele>142.470356</ele>
        <time>2026-08-29T15:39:56Z</time>
      </trkpt>
      <trkpt lat="43.90427" lon="1.99251">
        <ele>142.45829</ele>
        <time>2026-08-29T15:39:57Z</time>
      </trkpt>
      <trkpt lat="43.90423" lon="1.99248">
        <ele>142.445534</ele>
        <time>2026-08-29T15:39:58Z</time>
      </trkpt>
      <trkpt lat="43.90419" lon="1.99244">
        <ele>142.433132</ele>
        <time>2026-08-29T15:39:59Z</time>
      </trkpt>
      <trkpt lat="43.90416" lon="1.99241">
        <ele>142.42095</ele>
        <time>2026-08-29T15:40:00Z</time>
      </trkpt>
      <trkpt lat="43.90412" lon="1.99238">
        <ele>142.40866</ele>
        <time>2026-08-29T15:40:01Z</time>
      </trkpt>
      <trkpt lat="43.90408" lon="1.99234">
        <ele>142.395771</ele>
        <time>2026-08-29T15:40:02Z</time>
      </trkpt>
      <trkpt lat="43.90404" lon="1.99231">
        <ele>142.383597</ele>
        <time>2026-08-29T15:40:03Z</time>
      </trkpt>
      <trkpt lat="43.904" lon="1.99227">
        <ele>142.370172</ele>
        <time>2026-08-29T15:40:04Z</time>
      </trkpt>
      <trkpt lat="43.90396" lon="1.99223">
        <ele>142.356517</ele>
        <time>2026-08-29T15:40:05Z</time>
      </trkpt>
      <trkpt lat="43.90392" lon="1.9922">
        <ele>142.343318</ele>
        <time>2026-08-29T15:40:06Z</time>
      </trkpt>
      <trkpt lat="43.90388" lon="1.99216">
        <ele>142.329663</ele>
        <time>2026-08-29T15:40:07Z</time>
      </trkpt>
      <trkpt lat="43.90384" lon="1.99212">
        <ele>142.315783</ele>
        <time>2026-08-29T15:40:08Z</time>
      </trkpt>
      <trkpt lat="43.9038" lon="1.99208">
        <ele>142.302232</ele>
        <time>2026-08-29T15:40:09Z</time>
      </trkpt>
      <trkpt lat="43.90376" lon="1.99204">
        <ele>142.288686</ele>
        <time>2026-08-29T15:40:10Z</time>
      </trkpt>
      <trkpt lat="43.90372" lon="1.99201">
        <ele>142.27459</ele>
        <time>2026-08-29T15:40:11Z</time>
      </trkpt>
      <trkpt lat="43.90367" lon="1.99197">
        <ele>142.26009</ele>
        <time>2026-08-29T15:40:12Z</time>
      </trkpt>
      <trkpt lat="43.90362" lon="1.99194">
        <ele>142.24559</ele>
        <time>2026-08-29T15:40:13Z</time>
      </trkpt>
      <trkpt lat="43.90357" lon="1.99191">
        <ele>142.231091</ele>
        <time>2026-08-29T15:40:14Z</time>
      </trkpt>
      <trkpt lat="43.90353" lon="1.99188">
        <ele>142.217349</ele>
        <time>2026-08-29T15:40:15Z</time>
      </trkpt>
      <trkpt lat="43.90349" lon="1.99186">
        <ele>142.204103</ele>
        <time>2026-08-29T15:40:16Z</time>
      </trkpt>
      <trkpt lat="43.90344" lon="1.99183">
        <ele>142.191446</ele>
        <time>2026-08-29T15:40:17Z</time>
      </trkpt>
      <trkpt lat="43.9034" lon="1.9918">
        <ele>142.179462</ele>
        <time>2026-08-29T15:40:18Z</time>
      </trkpt>
      <trkpt lat="43.90337" lon="1.99178">
        <ele>142.167638</ele>
        <time>2026-08-29T15:40:19Z</time>
      </trkpt>
      <trkpt lat="43.90332" lon="1.99176">
        <ele>142.154945</ele>
        <time>2026-08-29T15:40:20Z</time>
      </trkpt>
      <trkpt lat="43.90328" lon="1.99173">
        <ele>142.142287</ele>
        <time>2026-08-29T15:40:21Z</time>
      </trkpt>
      <trkpt lat="43.90324" lon="1.9917">
        <ele>142.129788</ele>
        <time>2026-08-29T15:40:22Z</time>
      </trkpt>
      <trkpt lat="43.9032" lon="1.99167">
        <ele>142.117533</ele>
        <time>2026-08-29T15:40:23Z</time>
      </trkpt>
      <trkpt lat="43.90316" lon="1.99164">
        <ele>142.078855</ele>
        <time>2026-08-29T15:40:24Z</time>
      </trkpt>
      <trkpt lat="43.90312" lon="1.99161">
        <ele>142.0198</ele>
        <time>2026-08-29T15:40:25Z</time>
      </trkpt>
      <trkpt lat="43.90308" lon="1.99158">
        <ele>141.962767</ele>
        <time>2026-08-29T15:40:26Z</time>
      </trkpt>
      <trkpt lat="43.90304" lon="1.99155">
        <ele>141.903711</ele>
        <time>2026-08-29T15:40:27Z</time>
      </trkpt>
      <trkpt lat="43.903" lon="1.99152">
        <ele>141.845538</ele>
        <time>2026-08-29T15:40:28Z</time>
      </trkpt>
      <trkpt lat="43.90297" lon="1.99149">
        <ele>141.789827</ele>
        <time>2026-08-29T15:40:29Z</time>
      </trkpt>
      <trkpt lat="43.90293" lon="1.99146">
        <ele>141.731547</ele>
        <time>2026-08-29T15:40:30Z</time>
      </trkpt>
      <trkpt lat="43.90289" lon="1.99142">
        <ele>141.67224</ele>
        <time>2026-08-29T15:40:31Z</time>
      </trkpt>
      <trkpt lat="43.90285" lon="1.99138">
        <ele>141.613455</ele>
        <time>2026-08-29T15:40:32Z</time>
      </trkpt>
      <trkpt lat="43.90282" lon="1.99135">
        <ele>141.554586</ele>
        <time>2026-08-29T15:40:33Z</time>
      </trkpt>
      <trkpt lat="43.90278" lon="1.99131">
        <ele>141.494696</ele>
        <time>2026-08-29T15:40:34Z</time>
      </trkpt>
      <trkpt lat="43.90274" lon="1.99127">
        <ele>141.432652</ele>
        <time>2026-08-29T15:40:35Z</time>
      </trkpt>
      <trkpt lat="43.9027" lon="1.99122">
        <ele>141.367865</ele>
        <time>2026-08-29T15:40:36Z</time>
      </trkpt>
      <trkpt lat="43.90267" lon="1.99117">
        <ele>141.30139</ele>
        <time>2026-08-29T15:40:37Z</time>
      </trkpt>
      <trkpt lat="43.90264" lon="1.99111">
        <ele>141.231222</ele>
        <time>2026-08-29T15:40:38Z</time>
      </trkpt>
      <trkpt lat="43.90261" lon="1.99105">
        <ele>141.165519</ele>
        <time>2026-08-29T15:40:39Z</time>
      </trkpt>
      <trkpt lat="43.90258" lon="1.99099">
        <ele>141.102211</ele>
        <time>2026-08-29T15:40:40Z</time>
      </trkpt>
      <trkpt lat="43.90256" lon="1.99094">
        <ele>141.040399</ele>
        <time>2026-08-29T15:40:41Z</time>
      </trkpt>
      <trkpt lat="43.90253" lon="1.99088">
        <ele>140.980678</ele>
        <time>2026-08-29T15:40:42Z</time>
      </trkpt>
      <trkpt lat="43.90251" lon="1.99082">
        <ele>140.920119</ele>
        <time>2026-08-29T15:40:43Z</time>
      </trkpt>
      <trkpt lat="43.90249" lon="1.99076">
        <ele>140.860398</ele>
        <time>2026-08-29T15:40:44Z</time>
      </trkpt>
      <trkpt lat="43.90247" lon="1.9907">
        <ele>140.796769</ele>
        <time>2026-08-29T15:40:45Z</time>
      </trkpt>
      <trkpt lat="43.90245" lon="1.99063">
        <ele>140.728552</ele>
        <time>2026-08-29T15:40:46Z</time>
      </trkpt>
      <trkpt lat="43.90243" lon="1.99056">
        <ele>140.655146</ele>
        <time>2026-08-29T15:40:47Z</time>
      </trkpt>
      <trkpt lat="43.90241" lon="1.99048">
        <ele>140.575896</ele>
        <time>2026-08-29T15:40:48Z</time>
      </trkpt>
      <trkpt lat="43.9024" lon="1.99039">
        <ele>140.4943</ele>
        <time>2026-08-29T15:40:49Z</time>
      </trkpt>
      <trkpt lat="43.90239" lon="1.99031">
        <ele>140.414764</ele>
        <time>2026-08-29T15:40:50Z</time>
      </trkpt>
      <trkpt lat="43.90237" lon="1.99022">
        <ele>140.332833</ele>
        <time>2026-08-29T15:40:51Z</time>
      </trkpt>
      <trkpt lat="43.90234" lon="1.99015">
        <ele>140.255138</ele>
        <time>2026-08-29T15:40:52Z</time>
      </trkpt>
      <trkpt lat="43.90229" lon="1.9901">
        <ele>140.180063</ele>
        <time>2026-08-29T15:40:53Z</time>
      </trkpt>
      <trkpt lat="43.90225" lon="1.99005">
        <ele>140.107512</ele>
        <time>2026-08-29T15:40:54Z</time>
      </trkpt>
      <trkpt lat="43.90221" lon="1.98999">
        <ele>140.03584</ele>
        <time>2026-08-29T15:40:55Z</time>
      </trkpt>
      <trkpt lat="43.90218" lon="1.98994">
        <ele>139.966136</ele>
        <time>2026-08-29T15:40:56Z</time>
      </trkpt>
      <trkpt lat="43.90215" lon="1.98988">
        <ele>139.899063</ele>
        <time>2026-08-29T15:40:57Z</time>
      </trkpt>
      <trkpt lat="43.90211" lon="1.98982">
        <ele>139.829506</ele>
        <time>2026-08-29T15:40:58Z</time>
      </trkpt>
      <trkpt lat="43.90208" lon="1.98977">
        <ele>139.778658</ele>
        <time>2026-08-29T15:40:59Z</time>
      </trkpt>
      <trkpt lat="43.90205" lon="1.98972">
        <ele>139.746316</ele>
        <time>2026-08-29T15:41:00Z</time>
      </trkpt>
      <trkpt lat="43.90202" lon="1.98967">
        <ele>139.715128</ele>
        <time>2026-08-29T15:41:01Z</time>
      </trkpt>
      <trkpt lat="43.90199" lon="1.98962">
        <ele>139.685198</ele>
        <time>2026-08-29T15:41:02Z</time>
      </trkpt>
      <trkpt lat="43.90197" lon="1.98957">
        <ele>139.658828</ele>
        <time>2026-08-29T15:41:03Z</time>
      </trkpt>
      <trkpt lat="43.90195" lon="1.98953">
        <ele>139.633513</ele>
        <time>2026-08-29T15:41:04Z</time>
      </trkpt>
      <trkpt lat="43.90193" lon="1.98948">
        <ele>139.605385</ele>
        <time>2026-08-29T15:41:05Z</time>
      </trkpt>
      <trkpt lat="43.90192" lon="1.98943">
        <ele>139.577747</ele>
        <time>2026-08-29T15:41:06Z</time>
      </trkpt>
      <trkpt lat="43.9019" lon="1.98938">
        <ele>139.55218</ele>
        <time>2026-08-29T15:41:07Z</time>
      </trkpt>
      <trkpt lat="43.90188" lon="1.98934">
        <ele>139.527827</ele>
        <time>2026-08-29T15:41:08Z</time>
      </trkpt>
      <trkpt lat="43.90186" lon="1.98931">
        <ele>139.505058</ele>
        <time>2026-08-29T15:41:09Z</time>
      </trkpt>
      <trkpt lat="43.90182" lon="1.98931">
        <ele>139.481849</ele>
        <time>2026-08-29T15:41:10Z</time>
      </trkpt>
      <trkpt lat="43.9018" lon="1.98933">
        <ele>139.461557</ele>
        <time>2026-08-29T15:41:11Z</time>
      </trkpt>
      <trkpt lat="43.90178" lon="1.98936">
        <ele>139.441975</ele>
        <time>2026-08-29T15:41:12Z</time>
      </trkpt>
      <trkpt lat="43.90176" lon="1.9894">
        <ele>139.420231</ele>
        <time>2026-08-29T15:41:13Z</time>
      </trkpt>
      <trkpt lat="43.90175" lon="1.98945">
        <ele>139.393771</ele>
        <time>2026-08-29T15:41:14Z</time>
      </trkpt>
      <trkpt lat="43.90173" lon="1.9895">
        <ele>139.368488</ele>
        <time>2026-08-29T15:41:15Z</time>
      </trkpt>
      <trkpt lat="43.90171" lon="1.98955">
        <ele>139.341739</ele>
        <time>2026-08-29T15:41:16Z</time>
      </trkpt>
      <trkpt lat="43.9017" lon="1.98959">
        <ele>139.314991</ele>
        <time>2026-08-29T15:41:17Z</time>
      </trkpt>
      <trkpt lat="43.90168" lon="1.98965">
        <ele>139.28718</ele>
        <time>2026-08-29T15:41:18Z</time>
      </trkpt>
      <trkpt lat="43.90167" lon="1.9897">
        <ele>139.260541</ele>
        <time>2026-08-29T15:41:19Z</time>
      </trkpt>
      <trkpt lat="43.90165" lon="1.98974">
        <ele>139.236238</ele>
        <time>2026-08-29T15:41:20Z</time>
      </trkpt>
      <trkpt lat="43.90164" lon="1.98978">
        <ele>139.215103</ele>
        <time>2026-08-29T15:41:21Z</time>
      </trkpt>
      <trkpt lat="43.90163" lon="1.98982">
        <ele>139.193672</ele>
        <time>2026-08-29T15:41:22Z</time>
      </trkpt>
      <trkpt lat="43.90161" lon="1.98986">
        <ele>139.168122</ele>
        <time>2026-08-29T15:41:23Z</time>
      </trkpt>
      <trkpt lat="43.90159" lon="1.98991">
        <ele>139.144522</ele>
        <time>2026-08-29T15:41:24Z</time>
      </trkpt>
      <trkpt lat="43.90159" lon="1.98995">
        <ele>139.121725</ele>
        <time>2026-08-29T15:41:25Z</time>
      </trkpt>
      <trkpt lat="43.90158" lon="1.99">
        <ele>139.099699</ele>
        <time>2026-08-29T15:41:26Z</time>
      </trkpt>
      <trkpt lat="43.90157" lon="1.99004">
        <ele>139.0791</ele>
        <time>2026-08-29T15:41:27Z</time>
      </trkpt>
      <trkpt lat="43.90156" lon="1.99008">
        <ele>139.056419</ele>
        <time>2026-08-29T15:41:28Z</time>
      </trkpt>
      <trkpt lat="43.90154" lon="1.99011">
        <ele>139.037052</ele>
        <time>2026-08-29T15:41:29Z</time>
      </trkpt>
      <trkpt lat="43.90153" lon="1.99015">
        <ele>139.01812</ele>
        <time>2026-08-29T15:41:30Z</time>
      </trkpt>
      <trkpt lat="43.90152" lon="1.99018">
        <ele>139.001244</ele>
        <time>2026-08-29T15:41:31Z</time>
      </trkpt>
      <trkpt lat="43.90151" lon="1.99021">
        <ele>138.984658</ele>
        <time>2026-08-29T15:41:32Z</time>
      </trkpt>
      <trkpt lat="43.90151" lon="1.99024">
        <ele>138.969033</ele>
        <time>2026-08-29T15:41:33Z</time>
      </trkpt>
      <trkpt lat="43.9015" lon="1.99028">
        <ele>138.951425</ele>
        <time>2026-08-29T15:41:34Z</time>
      </trkpt>
      <trkpt lat="43.90149" lon="1.99031">
        <ele>138.932895</ele>
        <time>2026-08-29T15:41:35Z</time>
      </trkpt>
      <trkpt lat="43.90148" lon="1.99035">
        <ele>138.915303</ele>
        <time>2026-08-29T15:41:36Z</time>
      </trkpt>
      <trkpt lat="43.90147" lon="1.99038">
        <ele>138.898408</ele>
        <time>2026-08-29T15:41:37Z</time>
      </trkpt>
      <trkpt lat="43.90146" lon="1.9904">
        <ele>138.882046</ele>
        <time>2026-08-29T15:41:38Z</time>
      </trkpt>
      <trkpt lat="43.90144" lon="1.99043">
        <ele>138.867014</ele>
        <time>2026-08-29T15:41:39Z</time>
      </trkpt>
      <trkpt lat="43.90142" lon="1.99044">
        <ele>138.849452</ele>
        <time>2026-08-29T15:41:40Z</time>
      </trkpt>
      <trkpt lat="43.9014" lon="1.99046">
        <ele>138.832263</ele>
        <time>2026-08-29T15:41:41Z</time>
      </trkpt>
      <trkpt lat="43.90137" lon="1.99047">
        <ele>138.810496</ele>
        <time>2026-08-29T15:41:42Z</time>
      </trkpt>
      <trkpt lat="43.90133" lon="1.99049">
        <ele>138.78378</ele>
        <time>2026-08-29T15:41:43Z</time>
      </trkpt>
      <trkpt lat="43.9013" lon="1.99049">
        <ele>138.759808</ele>
        <time>2026-08-29T15:41:44Z</time>
      </trkpt>
      <trkpt lat="43.90126" lon="1.99049">
        <ele>138.737233</ele>
        <time>2026-08-29T15:41:45Z</time>
      </trkpt>
      <trkpt lat="43.90123" lon="1.9905">
        <ele>138.714514</ele>
        <time>2026-08-29T15:41:46Z</time>
      </trkpt>
      <trkpt lat="43.9012" lon="1.99051">
        <ele>138.693748</ele>
        <time>2026-08-29T15:41:47Z</time>
      </trkpt>
      <trkpt lat="43.90117" lon="1.99051">
        <ele>138.675083</ele>
        <time>2026-08-29T15:41:48Z</time>
      </trkpt>
      <trkpt lat="43.90115" lon="1.99052">
        <ele>138.658516</ele>
        <time>2026-08-29T15:41:49Z</time>
      </trkpt>
      <trkpt lat="43.90112" lon="1.99052">
        <ele>138.641423</ele>
        <time>2026-08-29T15:41:50Z</time>
      </trkpt>
      <trkpt lat="43.9011" lon="1.99051">
        <ele>138.624293</ele>
        <time>2026-08-29T15:41:51Z</time>
      </trkpt>
      <trkpt lat="43.90108" lon="1.99051">
        <ele>138.608989</ele>
        <time>2026-08-29T15:41:52Z</time>
      </trkpt>
      <trkpt lat="43.90106" lon="1.99051">
        <ele>138.594645</ele>
        <time>2026-08-29T15:41:53Z</time>
      </trkpt>
      <trkpt lat="43.90104" lon="1.99051">
        <ele>138.583547</ele>
        <time>2026-08-29T15:41:54Z</time>
      </trkpt>
      <trkpt lat="43.90103" lon="1.99051">
        <ele>138.57394</ele>
        <time>2026-08-29T15:41:55Z</time>
      </trkpt>
      <trkpt lat="43.90101" lon="1.99053">
        <ele>138.604471</ele>
        <time>2026-08-29T15:41:56Z</time>
      </trkpt>
      <trkpt lat="43.90101" lon="1.99056">
        <ele>138.711779</ele>
        <time>2026-08-29T15:41:57Z</time>
      </trkpt>
      <trkpt lat="43.90101" lon="1.99058">
        <ele>138.80907</ele>
        <time>2026-08-29T15:41:58Z</time>
      </trkpt>
      <trkpt lat="43.90102" lon="1.9906">
        <ele>138.916654</ele>
        <time>2026-08-29T15:41:59Z</time>
      </trkpt>
      <trkpt lat="43.90104" lon="1.99062">
        <ele>139.029051</ele>
        <time>2026-08-29T15:42:00Z</time>
      </trkpt>
      <trkpt lat="43.90106" lon="1.99063">
        <ele>139.156619</ele>
        <time>2026-08-29T15:42:01Z</time>
      </trkpt>
      <trkpt lat="43.90107" lon="1.99065">
        <ele>139.274523</ele>
        <time>2026-08-29T15:42:02Z</time>
      </trkpt>
      <trkpt lat="43.90109" lon="1.99067">
        <ele>139.398125</ele>
        <time>2026-08-29T15:42:03Z</time>
      </trkpt>
      <trkpt lat="43.90111" lon="1.99069">
        <ele>139.521726</ele>
        <time>2026-08-29T15:42:04Z</time>
      </trkpt>
      <trkpt lat="43.90112" lon="1.99071">
        <ele>139.62931</ele>
        <time>2026-08-29T15:42:05Z</time>
      </trkpt>
      <trkpt lat="43.90113" lon="1.99074">
        <ele>139.750463</ele>
        <time>2026-08-29T15:42:06Z</time>
      </trkpt>
      <trkpt lat="43.90113" lon="1.99075">
        <ele>139.824428</ele>
        <time>2026-08-29T15:42:07Z</time>
      </trkpt>
      <trkpt lat="43.90113" lon="1.99076">
        <ele>139.848307</ele>
        <time>2026-08-29T15:42:08Z</time>
      </trkpt>
      <trkpt lat="43.90113" lon="1.99076">
        <ele>139.879208</ele>
        <time>2026-08-29T15:42:09Z</time>
      </trkpt>
      <trkpt lat="43.90114" lon="1.99076">
        <ele>139.910475</ele>
        <time>2026-08-29T15:42:10Z</time>
      </trkpt>
      <trkpt lat="43.90117" lon="1.99089">
        <ele>140.486362</ele>
        <time>2026-08-29T15:53:30Z</time>
      </trkpt>
      <trkpt lat="43.90117" lon="1.99091">
        <ele>140.561689</ele>
        <time>2026-08-29T15:53:31Z</time>
      </trkpt>
      <trkpt lat="43.90116" lon="1.99093">
        <ele>140.631735</ele>
        <time>2026-08-29T15:53:32Z</time>
      </trkpt>
      <trkpt lat="43.90116" lon="1.99094">
        <ele>140.673491</ele>
        <time>2026-08-29T15:53:33Z</time>
      </trkpt>
      <trkpt lat="43.90116" lon="1.99093">
        <ele>140.69682</ele>
        <time>2026-08-29T15:53:34Z</time>
      </trkpt>
      <trkpt lat="43.90116" lon="1.99093">
        <ele>140.69682</ele>
        <time>2026-08-29T15:53:35Z</time>
      </trkpt>
      <trkpt lat="43.90117" lon="1.991">
        <ele>140.981031</ele>
        <time>2026-08-29T15:54:07Z</time>
      </trkpt>
      <trkpt lat="43.90118" lon="1.99102">
        <ele>141.079278</ele>
        <time>2026-08-29T15:54:08Z</time>
      </trkpt>
      <trkpt lat="43.90118" lon="1.99104">
        <ele>141.173121</ele>
        <time>2026-08-29T15:54:09Z</time>
      </trkpt>
      <trkpt lat="43.90118" lon="1.99106">
        <ele>141.247568</ele>
        <time>2026-08-29T15:54:10Z</time>
      </trkpt>
      <trkpt lat="43.90118" lon="1.99108">
        <ele>141.329596</ele>
        <time>2026-08-29T15:54:11Z</time>
      </trkpt>
      <trkpt lat="43.90117" lon="1.9911">
        <ele>141.417066</ele>
        <time>2026-08-29T15:54:12Z</time>
      </trkpt>
      <trkpt lat="43.90116" lon="1.99112">
        <ele>141.508083</ele>
        <time>2026-08-29T15:54:13Z</time>
      </trkpt>
      <trkpt lat="43.90115" lon="1.99113">
        <ele>141.592603</ele>
        <time>2026-08-29T15:54:14Z</time>
      </trkpt>
      <trkpt lat="43.90114" lon="1.99114">
        <ele>141.66022</ele>
        <time>2026-08-29T15:54:15Z</time>
      </trkpt>
      <trkpt lat="43.90114" lon="1.99116">
        <ele>141.738513</ele>
        <time>2026-08-29T15:54:16Z</time>
      </trkpt>
      <trkpt lat="43.90113" lon="1.99118">
        <ele>141.82953</ele>
        <time>2026-08-29T15:54:17Z</time>
      </trkpt>
      <trkpt lat="43.90112" lon="1.9912">
        <ele>141.924031</ele>
        <time>2026-08-29T15:54:18Z</time>
      </trkpt>
      <trkpt lat="43.90111" lon="1.99122">
        <ele>142.032399</ele>
        <time>2026-08-29T15:54:19Z</time>
      </trkpt>
      <trkpt lat="43.90109" lon="1.99124">
        <ele>142.153552</ele>
        <time>2026-08-29T15:54:20Z</time>
      </trkpt>
      <trkpt lat="43.90109" lon="1.99126">
        <ele>142.258185</ele>
        <time>2026-08-29T15:54:21Z</time>
      </trkpt>
      <trkpt lat="43.90107" lon="1.99128">
        <ele>142.369589</ele>
        <time>2026-08-29T15:54:22Z</time>
      </trkpt>
      <trkpt lat="43.90106" lon="1.9913">
        <ele>142.47697</ele>
        <time>2026-08-29T15:54:23Z</time>
      </trkpt>
      <trkpt lat="43.90105" lon="1.99133">
        <ele>142.58634</ele>
        <time>2026-08-29T15:54:24Z</time>
      </trkpt>
      <trkpt lat="43.90104" lon="1.99135">
        <ele>142.697443</ele>
        <time>2026-08-29T15:54:25Z</time>
      </trkpt>
      <trkpt lat="43.90103" lon="1.99137">
        <ele>142.794969</ele>
        <time>2026-08-29T15:54:26Z</time>
      </trkpt>
      <trkpt lat="43.90103" lon="1.99139">
        <ele>142.899603</ele>
        <time>2026-08-29T15:54:27Z</time>
      </trkpt>
      <trkpt lat="43.90101" lon="1.99141">
        <ele>143.017828</ele>
        <time>2026-08-29T15:54:28Z</time>
      </trkpt>
      <trkpt lat="43.90099" lon="1.99143">
        <ele>143.133461</ele>
        <time>2026-08-29T15:54:29Z</time>
      </trkpt>
      <trkpt lat="43.90098" lon="1.99144">
        <ele>143.230504</ele>
        <time>2026-08-29T15:54:30Z</time>
      </trkpt>
      <trkpt lat="43.90097" lon="1.99146">
        <ele>143.337282</ele>
        <time>2026-08-29T15:54:31Z</time>
      </trkpt>
      <trkpt lat="43.90095" lon="1.99147">
        <ele>143.455186</ele>
        <time>2026-08-29T15:54:32Z</time>
      </trkpt>
      <trkpt lat="43.90093" lon="1.99149">
        <ele>143.556709</ele>
        <time>2026-08-29T15:54:33Z</time>
      </trkpt>
      <trkpt lat="43.90092" lon="1.9915">
        <ele>143.649055</ele>
        <time>2026-08-29T15:54:34Z</time>
      </trkpt>
      <trkpt lat="43.90091" lon="1.99151">
        <ele>143.731987</ele>
        <time>2026-08-29T15:54:35Z</time>
      </trkpt>
      <trkpt lat="43.9009" lon="1.99153">
        <ele>143.821972</ele>
        <time>2026-08-29T15:54:36Z</time>
      </trkpt>
      <trkpt lat="43.90089" lon="1.99154">
        <ele>143.902317</ele>
        <time>2026-08-29T15:54:37Z</time>
      </trkpt>
      <trkpt lat="43.90088" lon="1.99155">
        <ele>143.979916</ele>
        <time>2026-08-29T15:54:38Z</time>
      </trkpt>
      <trkpt lat="43.90086" lon="1.99157">
        <ele>144.079653</ele>
        <time>2026-08-29T15:54:39Z</time>
      </trkpt>
      <trkpt lat="43.90085" lon="1.99158">
        <ele>144.183414</ele>
        <time>2026-08-29T15:54:40Z</time>
      </trkpt>
      <trkpt lat="43.90084" lon="1.9916">
        <ele>144.27403</ele>
        <time>2026-08-29T15:54:41Z</time>
      </trkpt>
      <trkpt lat="43.90083" lon="1.99161">
        <ele>144.371072</ele>
        <time>2026-08-29T15:54:42Z</time>
      </trkpt>
      <trkpt lat="43.90082" lon="1.99163">
        <ele>144.462538</ele>
        <time>2026-08-29T15:54:43Z</time>
      </trkpt>
      <trkpt lat="43.9008" lon="1.99164">
        <ele>144.54992</ele>
        <time>2026-08-29T15:54:44Z</time>
      </trkpt>
      <trkpt lat="43.90079" lon="1.99165">
        <ele>144.647302</ele>
        <time>2026-08-29T15:54:45Z</time>
      </trkpt>
      <trkpt lat="43.90077" lon="1.99167">
        <ele>144.741754</ele>
        <time>2026-08-29T15:54:46Z</time>
      </trkpt>
      <trkpt lat="43.90076" lon="1.99168">
        <ele>144.839137</ele>
        <time>2026-08-29T15:54:47Z</time>
      </trkpt>
      <trkpt lat="43.90075" lon="1.99169">
        <ele>144.933589</ele>
        <time>2026-08-29T15:54:48Z</time>
      </trkpt>
      <trkpt lat="43.90073" lon="1.9917">
        <ele>145.028041</ele>
        <time>2026-08-29T15:54:49Z</time>
      </trkpt>
      <trkpt lat="43.90072" lon="1.99172">
        <ele>145.129551</ele>
        <time>2026-08-29T15:54:50Z</time>
      </trkpt>
      <trkpt lat="43.9007" lon="1.99173">
        <ele>145.221526</ele>
        <time>2026-08-29T15:54:51Z</time>
      </trkpt>
      <trkpt lat="43.90069" lon="1.99174">
        <ele>145.314227</ele>
        <time>2026-08-29T15:54:52Z</time>
      </trkpt>
      <trkpt lat="43.90068" lon="1.99176">
        <ele>145.397159</ele>
        <time>2026-08-29T15:54:53Z</time>
      </trkpt>
      <trkpt lat="43.90067" lon="1.99177">
        <ele>145.463337</ele>
        <time>2026-08-29T15:54:54Z</time>
      </trkpt>
      <trkpt lat="43.90066" lon="1.99178">
        <ele>145.524686</ele>
        <time>2026-08-29T15:54:55Z</time>
      </trkpt>
      <trkpt lat="43.90065" lon="1.99178">
        <ele>145.620982</ele>
        <time>2026-08-29T15:54:56Z</time>
      </trkpt>
      <trkpt lat="43.90064" lon="1.99179">
        <ele>145.673033</ele>
        <time>2026-08-29T15:54:57Z</time>
      </trkpt>
      <trkpt lat="43.90063" lon="1.9918">
        <ele>145.740156</ele>
        <time>2026-08-29T15:54:58Z</time>
      </trkpt>
      <trkpt lat="43.90063" lon="1.99182">
        <ele>145.814757</ele>
        <time>2026-08-29T15:54:59Z</time>
      </trkpt>
      <trkpt lat="43.90062" lon="1.99183">
        <ele>145.885237</ele>
        <time>2026-08-29T15:55:00Z</time>
      </trkpt>
      <trkpt lat="43.90061" lon="1.99185">
        <ele>145.962836</ele>
        <time>2026-08-29T15:55:01Z</time>
      </trkpt>
      <trkpt lat="43.9006" lon="1.99186">
        <ele>146.033315</ele>
        <time>2026-08-29T15:55:02Z</time>
      </trkpt>
      <trkpt lat="43.9006" lon="1.99188">
        <ele>146.104274</ele>
        <time>2026-08-29T15:55:03Z</time>
      </trkpt>
      <trkpt lat="43.9006" lon="1.99189">
        <ele>146.166579</ele>
        <time>2026-08-29T15:55:04Z</time>
      </trkpt>
      <trkpt lat="43.9006" lon="1.99191">
        <ele>146.233743</ele>
        <time>2026-08-29T15:55:05Z</time>
      </trkpt>
      <trkpt lat="43.9006" lon="1.99192">
        <ele>146.292774</ele>
        <time>2026-08-29T15:55:06Z</time>
      </trkpt>
      <trkpt lat="43.90059" lon="1.99194">
        <ele>146.366739</ele>
        <time>2026-08-29T15:55:07Z</time>
      </trkpt>
      <trkpt lat="43.90059" lon="1.99196">
        <ele>146.455</ele>
        <time>2026-08-29T15:55:08Z</time>
      </trkpt>
      <trkpt lat="43.90058" lon="1.99197">
        <ele>146.52739</ele>
        <time>2026-08-29T15:55:09Z</time>
      </trkpt>
      <trkpt lat="43.90058" lon="1.99199">
        <ele>146.613237</ele>
        <time>2026-08-29T15:55:10Z</time>
      </trkpt>
      <trkpt lat="43.90058" lon="1.99201">
        <ele>146.685627</ele>
        <time>2026-08-29T15:55:11Z</time>
      </trkpt>
      <trkpt lat="43.90057" lon="1.99203">
        <ele>146.765044</ele>
        <time>2026-08-29T15:55:12Z</time>
      </trkpt>
      <trkpt lat="43.90058" lon="1.99205">
        <ele>146.856217</ele>
        <time>2026-08-29T15:55:13Z</time>
      </trkpt>
      <trkpt lat="43.90057" lon="1.99207">
        <ele>146.943262</ele>
        <time>2026-08-29T15:55:14Z</time>
      </trkpt>
      <trkpt lat="43.90058" lon="1.9921">
        <ele>147.03908</ele>
        <time>2026-08-29T15:55:15Z</time>
      </trkpt>
      <trkpt lat="43.90058" lon="1.99212">
        <ele>147.122593</ele>
        <time>2026-08-29T15:55:16Z</time>
      </trkpt>
      <trkpt lat="43.90058" lon="1.99214">
        <ele>147.209638</ele>
        <time>2026-08-29T15:55:17Z</time>
      </trkpt>
      <trkpt lat="43.90058" lon="1.99215">
        <ele>147.280184</ele>
        <time>2026-08-29T15:55:18Z</time>
      </trkpt>
      <trkpt lat="43.90058" lon="1.99217">
        <ele>147.363696</ele>
        <time>2026-08-29T15:55:19Z</time>
      </trkpt>
      <trkpt lat="43.90059" lon="1.99219">
        <ele>147.443485</ele>
        <time>2026-08-29T15:55:20Z</time>
      </trkpt>
      <trkpt lat="43.90059" lon="1.99221">
        <ele>147.523933</ele>
        <time>2026-08-29T15:55:21Z</time>
      </trkpt>
      <trkpt lat="43.90059" lon="1.99223">
        <ele>147.607594</ele>
        <time>2026-08-29T15:55:22Z</time>
      </trkpt>
      <trkpt lat="43.9006" lon="1.99225">
        <ele>147.671979</ele>
        <time>2026-08-29T15:55:23Z</time>
      </trkpt>
      <trkpt lat="43.9006" lon="1.99226">
        <ele>147.743222</ele>
        <time>2026-08-29T15:55:24Z</time>
      </trkpt>
      <trkpt lat="43.9006" lon="1.99228">
        <ele>147.82264</ele>
        <time>2026-08-29T15:55:25Z</time>
      </trkpt>
      <trkpt lat="43.9006" lon="1.9923">
        <ele>147.905559</ele>
        <time>2026-08-29T15:55:26Z</time>
      </trkpt>
      <trkpt lat="43.9006" lon="1.99232">
        <ele>147.984977</ele>
        <time>2026-08-29T15:55:27Z</time>
      </trkpt>
      <trkpt lat="43.9006" lon="1.99234">
        <ele>148.066846</ele>
        <time>2026-08-29T15:55:28Z</time>
      </trkpt>
      <trkpt lat="43.90061" lon="1.99236">
        <ele>148.16069</ele>
        <time>2026-08-29T15:55:29Z</time>
      </trkpt>
      <trkpt lat="43.90061" lon="1.99238">
        <ele>148.244202</ele>
        <time>2026-08-29T15:55:30Z</time>
      </trkpt>
      <trkpt lat="43.9006" lon="1.9924">
        <ele>148.31953</ele>
        <time>2026-08-29T15:55:31Z</time>
      </trkpt>
      <trkpt lat="43.9006" lon="1.99241">
        <ele>148.381835</ele>
        <time>2026-08-29T15:55:32Z</time>
      </trkpt>
      <trkpt lat="43.9006" lon="1.99243">
        <ele>148.443875</ele>
        <time>2026-08-29T15:55:33Z</time>
      </trkpt>
      <trkpt lat="43.90061" lon="1.99244">
        <ele>148.506179</ele>
        <time>2026-08-29T15:55:34Z</time>
      </trkpt>
      <trkpt lat="43.90061" lon="1.99246">
        <ele>148.572604</ele>
        <time>2026-08-29T15:55:35Z</time>
      </trkpt>
      <trkpt lat="43.90061" lon="1.99247">
        <ele>148.633014</ele>
        <time>2026-08-29T15:55:36Z</time>
      </trkpt>
      <trkpt lat="43.90061" lon="1.99249">
        <ele>148.687087</ele>
        <time>2026-08-29T15:55:37Z</time>
      </trkpt>
      <trkpt lat="43.90061" lon="1.9925">
        <ele>148.759477</ele>
        <time>2026-08-29T15:55:38Z</time>
      </trkpt>
      <trkpt lat="43.90062" lon="1.99252">
        <ele>148.835421</ele>
        <time>2026-08-29T15:55:39Z</time>
      </trkpt>
      <trkpt lat="43.90063" lon="1.99254">
        <ele>148.902382</ele>
        <time>2026-08-29T15:55:40Z</time>
      </trkpt>
      <trkpt lat="43.90063" lon="1.99256">
        <ele>148.938889</ele>
        <time>2026-08-29T15:55:41Z</time>
      </trkpt>
      <trkpt lat="43.90063" lon="1.99257">
        <ele>148.971508</ele>
        <time>2026-08-29T15:55:42Z</time>
      </trkpt>
      <trkpt lat="43.90064" lon="1.99259">
        <ele>149.007096</ele>
        <time>2026-08-29T15:55:43Z</time>
      </trkpt>
      <trkpt lat="43.90065" lon="1.9926">
        <ele>149.040254</ele>
        <time>2026-08-29T15:55:44Z</time>
      </trkpt>
      <trkpt lat="43.90065" lon="1.99262">
        <ele>149.071687</ele>
        <time>2026-08-29T15:55:45Z</time>
      </trkpt>
      <trkpt lat="43.90065" lon="1.99264">
        <ele>149.1075</ele>
        <time>2026-08-29T15:55:46Z</time>
      </trkpt>
      <trkpt lat="43.90066" lon="1.99266">
        <ele>149.144177</ele>
        <time>2026-08-29T15:55:47Z</time>
      </trkpt>
      <trkpt lat="43.90066" lon="1.99267">
        <ele>149.179087</ele>
        <time>2026-08-29T15:55:48Z</time>
      </trkpt>
      <trkpt lat="43.90067" lon="1.99269">
        <ele>149.211286</ele>
        <time>2026-08-29T15:55:49Z</time>
      </trkpt>
      <trkpt lat="43.90067" lon="1.99271">
        <ele>149.248267</ele>
        <time>2026-08-29T15:55:50Z</time>
      </trkpt>
      <trkpt lat="43.90067" lon="1.99273">
        <ele>149.28773</ele>
        <time>2026-08-29T15:55:51Z</time>
      </trkpt>
      <trkpt lat="43.90067" lon="1.99275">
        <ele>149.327743</ele>
        <time>2026-08-29T15:55:52Z</time>
      </trkpt>
      <trkpt lat="43.90067" lon="1.99277">
        <ele>149.371789</ele>
        <time>2026-08-29T15:55:53Z</time>
      </trkpt>
      <trkpt lat="43.90068" lon="1.99279">
        <ele>149.407602</ele>
        <time>2026-08-29T15:55:54Z</time>
      </trkpt>
      <trkpt lat="43.90068" lon="1.99282">
        <ele>149.458596</ele>
        <time>2026-08-29T15:55:55Z</time>
      </trkpt>
      <trkpt lat="43.90069" lon="1.99284">
        <ele>149.503035</ele>
        <time>2026-08-29T15:55:56Z</time>
      </trkpt>
      <trkpt lat="43.90068" lon="1.99286">
        <ele>149.540262</ele>
        <time>2026-08-29T15:55:57Z</time>
      </trkpt>
      <trkpt lat="43.90067" lon="1.99286">
        <ele>149.571711</ele>
        <time>2026-08-29T15:55:58Z</time>
      </trkpt>
      <trkpt lat="43.90066" lon="1.99286">
        <ele>149.603431</ele>
        <time>2026-08-29T15:55:59Z</time>
      </trkpt>
      <trkpt lat="43.90065" lon="1.99285">
        <ele>149.64035</ele>
        <time>2026-08-29T15:56:00Z</time>
      </trkpt>
      <trkpt lat="43.90064" lon="1.99283">
        <ele>149.689576</ele>
        <time>2026-08-29T15:56:01Z</time>
      </trkpt>
      <trkpt lat="43.90064" lon="1.9928">
        <ele>149.739639</ele>
        <time>2026-08-29T15:56:02Z</time>
      </trkpt>
      <trkpt lat="43.90063" lon="1.99277">
        <ele>149.798833</ele>
        <time>2026-08-29T15:56:03Z</time>
      </trkpt>
      <trkpt lat="43.90063" lon="1.99274">
        <ele>149.856838</ele>
        <time>2026-08-29T15:56:04Z</time>
      </trkpt>
      <trkpt lat="43.90062" lon="1.99271">
        <ele>149.910659</ele>
        <time>2026-08-29T15:56:05Z</time>
      </trkpt>
      <trkpt lat="43.90062" lon="1.99268">
        <ele>149.966796</ele>
        <time>2026-08-29T15:56:06Z</time>
      </trkpt>
      <trkpt lat="43.90061" lon="1.99265">
        <ele>150.027193</ele>
        <time>2026-08-29T15:56:07Z</time>
      </trkpt>
      <trkpt lat="43.90061" lon="1.99262">
        <ele>150.09339</ele>
        <time>2026-08-29T15:56:08Z</time>
      </trkpt>
      <trkpt lat="43.9006" lon="1.99259">
        <ele>150.159706</ele>
        <time>2026-08-29T15:56:09Z</time>
      </trkpt>
      <trkpt lat="43.90058" lon="1.99256">
        <ele>150.229984</ele>
        <time>2026-08-29T15:56:10Z</time>
      </trkpt>
      <trkpt lat="43.90057" lon="1.99252">
        <ele>150.303677</ele>
        <time>2026-08-29T15:56:11Z</time>
      </trkpt>
      <trkpt lat="43.90056" lon="1.99248">
        <ele>150.377032</ele>
        <time>2026-08-29T15:56:12Z</time>
      </trkpt>
      <trkpt lat="43.90055" lon="1.99246">
        <ele>150.441968</ele>
        <time>2026-08-29T15:56:13Z</time>
      </trkpt>
      <trkpt lat="43.90054" lon="1.99242">
        <ele>150.518528</ele>
        <time>2026-08-29T15:56:14Z</time>
      </trkpt>
      <trkpt lat="43.90052" lon="1.99238">
        <ele>150.597983</ele>
        <time>2026-08-29T15:56:15Z</time>
      </trkpt>
      <trkpt lat="43.90051" lon="1.99234">
        <ele>150.675843</ele>
        <time>2026-08-29T15:56:16Z</time>
      </trkpt>
      <trkpt lat="43.9005" lon="1.9923">
        <ele>150.759271</ele>
        <time>2026-08-29T15:56:17Z</time>
      </trkpt>
      <trkpt lat="43.90049" lon="1.99227">
        <ele>150.84097</ele>
        <time>2026-08-29T15:56:18Z</time>
      </trkpt>
      <trkpt lat="43.90047" lon="1.99223">
        <ele>150.922114</ele>
        <time>2026-08-29T15:56:19Z</time>
      </trkpt>
      <trkpt lat="43.90046" lon="1.99219">
        <ele>151.003813</ele>
        <time>2026-08-29T15:56:20Z</time>
      </trkpt>
      <trkpt lat="43.90044" lon="1.99215">
        <ele>151.086192</ele>
        <time>2026-08-29T15:56:21Z</time>
      </trkpt>
      <trkpt lat="43.90042" lon="1.99212">
        <ele>151.171122</ele>
        <time>2026-08-29T15:56:22Z</time>
      </trkpt>
      <trkpt lat="43.9004" lon="1.99208">
        <ele>151.25166</ele>
        <time>2026-08-29T15:56:23Z</time>
      </trkpt>
      <trkpt lat="43.90039" lon="1.99205">
        <ele>151.324433</ele>
        <time>2026-08-29T15:56:24Z</time>
      </trkpt>
      <trkpt lat="43.90037" lon="1.99203">
        <ele>151.399392</ele>
        <time>2026-08-29T15:56:25Z</time>
      </trkpt>
      <trkpt lat="43.90035" lon="1.992">
        <ele>151.472518</ele>
        <time>2026-08-29T15:56:26Z</time>
      </trkpt>
      <trkpt lat="43.90033" lon="1.99197">
        <ele>151.55283</ele>
        <time>2026-08-29T15:56:27Z</time>
      </trkpt>
      <trkpt lat="43.90031" lon="1.99193">
        <ele>151.636278</ele>
        <time>2026-08-29T15:56:28Z</time>
      </trkpt>
      <trkpt lat="43.90028" lon="1.9919">
        <ele>151.729615</ele>
        <time>2026-08-29T15:56:29Z</time>
      </trkpt>
      <trkpt lat="43.90025" lon="1.99187">
        <ele>151.817426</ele>
        <time>2026-08-29T15:56:30Z</time>
      </trkpt>
      <trkpt lat="43.90023" lon="1.99185">
        <ele>151.883601</ele>
        <time>2026-08-29T15:56:31Z</time>
      </trkpt>
      <trkpt lat="43.9002" lon="1.99183">
        <ele>151.970437</ele>
        <time>2026-08-29T15:56:32Z</time>
      </trkpt>
      <trkpt lat="43.90018" lon="1.9918">
        <ele>152.053168</ele>
        <time>2026-08-29T15:56:33Z</time>
      </trkpt>
      <trkpt lat="43.90016" lon="1.99177">
        <ele>152.139596</ele>
        <time>2026-08-29T15:56:34Z</time>
      </trkpt>
      <trkpt lat="43.90013" lon="1.99172">
        <ele>152.255542</ele>
        <time>2026-08-29T15:56:35Z</time>
      </trkpt>
      <trkpt lat="43.90011" lon="1.99168">
        <ele>152.358955</ele>
        <time>2026-08-29T15:56:36Z</time>
      </trkpt>
      <trkpt lat="43.90008" lon="1.99163">
        <ele>152.468188</ele>
        <time>2026-08-29T15:56:37Z</time>
      </trkpt>
      <trkpt lat="43.90005" lon="1.9916">
        <ele>152.570853</ele>
        <time>2026-08-29T15:56:38Z</time>
      </trkpt>
      <trkpt lat="43.90002" lon="1.99157">
        <ele>152.67745</ele>
        <time>2026-08-29T15:56:39Z</time>
      </trkpt>
      <trkpt lat="43.89998" lon="1.99154">
        <ele>152.794733</ele>
        <time>2026-08-29T15:56:40Z</time>
      </trkpt>
      <trkpt lat="43.89994" lon="1.99151">
        <ele>152.901043</ele>
        <time>2026-08-29T15:56:41Z</time>
      </trkpt>
      <trkpt lat="43.89991" lon="1.99148">
        <ele>152.994707</ele>
        <time>2026-08-29T15:56:42Z</time>
      </trkpt>
      <trkpt lat="43.89989" lon="1.99146">
        <ele>153.08142</ele>
        <time>2026-08-29T15:56:43Z</time>
      </trkpt>
      <trkpt lat="43.89986" lon="1.99144">
        <ele>153.167274</ele>
        <time>2026-08-29T15:56:44Z</time>
      </trkpt>
      <trkpt lat="43.89983" lon="1.99141">
        <ele>153.25621</ele>
        <time>2026-08-29T15:56:45Z</time>
      </trkpt>
      <trkpt lat="43.8998" lon="1.99138">
        <ele>153.353777</ele>
        <time>2026-08-29T15:56:46Z</time>
      </trkpt>
      <trkpt lat="43.89977" lon="1.99135">
        <ele>153.452423</ele>
        <time>2026-08-29T15:56:47Z</time>
      </trkpt>
      <trkpt lat="43.89974" lon="1.99133">
        <ele>153.536016</ele>
        <time>2026-08-29T15:56:48Z</time>
      </trkpt>
      <trkpt lat="43.89972" lon="1.99129">
        <ele>153.628376</ele>
        <time>2026-08-29T15:56:49Z</time>
      </trkpt>
      <trkpt lat="43.89969" lon="1.99126">
        <ele>153.623519</ele>
        <time>2026-08-29T15:56:50Z</time>
      </trkpt>
      <trkpt lat="43.89967" lon="1.99123">
        <ele>153.609392</ele>
        <time>2026-08-29T15:56:51Z</time>
      </trkpt>
      <trkpt lat="43.89964" lon="1.9912">
        <ele>153.594348</ele>
        <time>2026-08-29T15:56:52Z</time>
      </trkpt>
      <trkpt lat="43.89962" lon="1.99118">
        <ele>153.58093</ele>
        <time>2026-08-29T15:56:53Z</time>
      </trkpt>
      <trkpt lat="43.89959" lon="1.99117">
        <ele>153.569374</ele>
        <time>2026-08-29T15:56:54Z</time>
      </trkpt>
      <trkpt lat="43.89957" lon="1.99115">
        <ele>153.555414</ele>
        <time>2026-08-29T15:56:55Z</time>
      </trkpt>
      <trkpt lat="43.89954" lon="1.99112">
        <ele>153.54075</ele>
        <time>2026-08-29T15:56:56Z</time>
      </trkpt>
      <trkpt lat="43.89951" lon="1.99109">
        <ele>153.523535</ele>
        <time>2026-08-29T15:56:57Z</time>
      </trkpt>
      <trkpt lat="43.89948" lon="1.99105">
        <ele>153.506815</ele>
        <time>2026-08-29T15:56:58Z</time>
      </trkpt>
      <trkpt lat="43.89945" lon="1.99102">
        <ele>153.489948</ele>
        <time>2026-08-29T15:56:59Z</time>
      </trkpt>
      <trkpt lat="43.89942" lon="1.99099">
        <ele>153.474741</ele>
        <time>2026-08-29T15:57:00Z</time>
      </trkpt>
      <trkpt lat="43.89939" lon="1.99097">
        <ele>153.458503</ele>
        <time>2026-08-29T15:57:01Z</time>
      </trkpt>
      <trkpt lat="43.89935" lon="1.99096">
        <ele>153.442963</ele>
        <time>2026-08-29T15:57:02Z</time>
      </trkpt>
      <trkpt lat="43.89932" lon="1.99093">
        <ele>153.427033</ele>
        <time>2026-08-29T15:57:03Z</time>
      </trkpt>
      <trkpt lat="43.8993" lon="1.9909">
        <ele>153.411388</ele>
        <time>2026-08-29T15:57:04Z</time>
      </trkpt>
      <trkpt lat="43.89927" lon="1.99086">
        <ele>153.39466</ele>
        <time>2026-08-29T15:57:05Z</time>
      </trkpt>
      <trkpt lat="43.89924" lon="1.99083">
        <ele>153.377988</ele>
        <time>2026-08-29T15:57:06Z</time>
      </trkpt>
      <trkpt lat="43.8992" lon="1.99081">
        <ele>153.360655</ele>
        <time>2026-08-29T15:57:07Z</time>
      </trkpt>
      <trkpt lat="43.89917" lon="1.99079">
        <ele>153.343725</ele>
        <time>2026-08-29T15:57:08Z</time>
      </trkpt>
      <trkpt lat="43.89914" lon="1.99077">
        <ele>153.328236</ele>
        <time>2026-08-29T15:57:09Z</time>
      </trkpt>
      <trkpt lat="43.8991" lon="1.99074">
        <ele>153.312275</ele>
        <time>2026-08-29T15:57:10Z</time>
      </trkpt>
      <trkpt lat="43.89908" lon="1.99071">
        <ele>153.295547</ele>
        <time>2026-08-29T15:57:11Z</time>
      </trkpt>
      <trkpt lat="43.89904" lon="1.99068">
        <ele>153.277949</ele>
        <time>2026-08-29T15:57:12Z</time>
      </trkpt>
      <trkpt lat="43.899" lon="1.99067">
        <ele>153.260276</ele>
        <time>2026-08-29T15:57:13Z</time>
      </trkpt>
      <trkpt lat="43.89896" lon="1.99065">
        <ele>153.242253</ele>
        <time>2026-08-29T15:57:14Z</time>
      </trkpt>
      <trkpt lat="43.89893" lon="1.99062">
        <ele>153.225445</ele>
        <time>2026-08-29T15:57:15Z</time>
      </trkpt>
      <trkpt lat="43.89889" lon="1.9906">
        <ele>153.208358</ele>
        <time>2026-08-29T15:57:16Z</time>
      </trkpt>
      <trkpt lat="43.89886" lon="1.99058">
        <ele>153.192208</ele>
        <time>2026-08-29T15:57:17Z</time>
      </trkpt>
      <trkpt lat="43.89883" lon="1.99057">
        <ele>153.176993</ele>
        <time>2026-08-29T15:57:18Z</time>
      </trkpt>
      <trkpt lat="43.8988" lon="1.99055">
        <ele>153.162463</ele>
        <time>2026-08-29T15:57:19Z</time>
      </trkpt>
      <trkpt lat="43.89877" lon="1.99052">
        <ele>153.149971</ele>
        <time>2026-08-29T15:57:20Z</time>
      </trkpt>
      <trkpt lat="43.89875" lon="1.99051">
        <ele>153.136237</ele>
        <time>2026-08-29T15:57:21Z</time>
      </trkpt>
      <trkpt lat="43.89872" lon="1.99048">
        <ele>153.121024</ele>
        <time>2026-08-29T15:57:22Z</time>
      </trkpt>
      <trkpt lat="43.89869" lon="1.99046">
        <ele>153.106523</ele>
        <time>2026-08-29T15:57:23Z</time>
      </trkpt>
      <trkpt lat="43.89866" lon="1.99044">
        <ele>153.091591</ele>
        <time>2026-08-29T15:57:24Z</time>
      </trkpt>
      <trkpt lat="43.89863" lon="1.99042">
        <ele>153.078256</ele>
        <time>2026-08-29T15:57:25Z</time>
      </trkpt>
      <trkpt lat="43.8986" lon="1.99041">
        <ele>153.064661</ele>
        <time>2026-08-29T15:57:26Z</time>
      </trkpt>
      <trkpt lat="43.89857" lon="1.9904">
        <ele>153.051725</ele>
        <time>2026-08-29T15:57:27Z</time>
      </trkpt>
      <trkpt lat="43.89855" lon="1.99037">
        <ele>153.038451</ele>
        <time>2026-08-29T15:57:28Z</time>
      </trkpt>
      <trkpt lat="43.89852" lon="1.99034">
        <ele>153.02301</ele>
        <time>2026-08-29T15:57:29Z</time>
      </trkpt>
      <trkpt lat="43.8985" lon="1.99031">
        <ele>153.008123</ele>
        <time>2026-08-29T15:57:30Z</time>
      </trkpt>
      <trkpt lat="43.89848" lon="1.99028">
        <ele>152.994912</ele>
        <time>2026-08-29T15:57:31Z</time>
      </trkpt>
      <trkpt lat="43.89846" lon="1.99025">
        <ele>152.98199</ele>
        <time>2026-08-29T15:57:32Z</time>
      </trkpt>
      <trkpt lat="43.89843" lon="1.99021">
        <ele>152.965804</ele>
        <time>2026-08-29T15:57:33Z</time>
      </trkpt>
      <trkpt lat="43.8984" lon="1.99018">
        <ele>152.950363</ele>
        <time>2026-08-29T15:57:34Z</time>
      </trkpt>
      <trkpt lat="43.89837" lon="1.99016">
        <ele>152.934024</ele>
        <time>2026-08-29T15:57:35Z</time>
      </trkpt>
      <trkpt lat="43.89834" lon="1.99013">
        <ele>152.91696</ele>
        <time>2026-08-29T15:57:36Z</time>
      </trkpt>
      <trkpt lat="43.8983" lon="1.99012">
        <ele>152.899975</ele>
        <time>2026-08-29T15:57:37Z</time>
      </trkpt>
      <trkpt lat="43.89826" lon="1.99011">
        <ele>152.882717</ele>
        <time>2026-08-29T15:57:38Z</time>
      </trkpt>
      <trkpt lat="43.89822" lon="1.99011">
        <ele>152.865925</ele>
        <time>2026-08-29T15:57:39Z</time>
      </trkpt>
      <trkpt lat="43.89819" lon="1.99011">
        <ele>152.849609</ele>
        <time>2026-08-29T15:57:40Z</time>
      </trkpt>
      <trkpt lat="43.89815" lon="1.99011">
        <ele>152.836576</ele>
        <time>2026-08-29T15:57:41Z</time>
      </trkpt>
      <trkpt lat="43.89811" lon="1.99012">
        <ele>152.825773</ele>
        <time>2026-08-29T15:57:42Z</time>
      </trkpt>
      <trkpt lat="43.89808" lon="1.99013">
        <ele>152.816106</ele>
        <time>2026-08-29T15:57:43Z</time>
      </trkpt>
      <trkpt lat="43.89805" lon="1.99015">
        <ele>152.805744</ele>
        <time>2026-08-29T15:57:44Z</time>
      </trkpt>
      <trkpt lat="43.89802" lon="1.99018">
        <ele>152.796445</ele>
        <time>2026-08-29T15:57:45Z</time>
      </trkpt>
      <trkpt lat="43.898" lon="1.99019">
        <ele>152.790488</ele>
        <time>2026-08-29T15:57:46Z</time>
      </trkpt>
      <trkpt lat="43.89799" lon="1.99021">
        <ele>152.785364</ele>
        <time>2026-08-29T15:57:47Z</time>
      </trkpt>
      <trkpt lat="43.89797" lon="1.99022">
        <ele>152.780185</ele>
        <time>2026-08-29T15:57:48Z</time>
      </trkpt>
      <trkpt lat="43.89794" lon="1.99024">
        <ele>152.77039</ele>
        <time>2026-08-29T15:57:49Z</time>
      </trkpt>
      <trkpt lat="43.89791" lon="1.99025">
        <ele>152.76096</ele>
        <time>2026-08-29T15:57:50Z</time>
      </trkpt>
      <trkpt lat="43.89788" lon="1.99026">
        <ele>152.752241</ele>
        <time>2026-08-29T15:57:51Z</time>
      </trkpt>
      <trkpt lat="43.89785" lon="1.99028">
        <ele>152.74271</ele>
        <time>2026-08-29T15:57:52Z</time>
      </trkpt>
      <trkpt lat="43.89783" lon="1.99031">
        <ele>152.73318</ele>
        <time>2026-08-29T15:57:53Z</time>
      </trkpt>
      <trkpt lat="43.8978" lon="1.99033">
        <ele>152.724124</ele>
        <time>2026-08-29T15:57:54Z</time>
      </trkpt>
      <trkpt lat="43.89778" lon="1.99036">
        <ele>152.71426</ele>
        <time>2026-08-29T15:57:55Z</time>
      </trkpt>
      <trkpt lat="43.89775" lon="1.9904">
        <ele>152.702806</ele>
        <time>2026-08-29T15:57:56Z</time>
      </trkpt>
      <trkpt lat="43.89772" lon="1.99044">
        <ele>152.691741</ele>
        <time>2026-08-29T15:57:57Z</time>
      </trkpt>
      <trkpt lat="43.8977" lon="1.99048">
        <ele>152.680812</ele>
        <time>2026-08-29T15:57:58Z</time>
      </trkpt>
      <trkpt lat="43.89768" lon="1.99051">
        <ele>152.671655</ele>
        <time>2026-08-29T15:57:59Z</time>
      </trkpt>
      <trkpt lat="43.89765" lon="1.99054">
        <ele>152.662562</ele>
        <time>2026-08-29T15:58:00Z</time>
      </trkpt>
      <trkpt lat="43.89762" lon="1.99057">
        <ele>152.651588</ele>
        <time>2026-08-29T15:58:01Z</time>
      </trkpt>
      <trkpt lat="43.89759" lon="1.99062">
        <ele>152.639169</ele>
        <time>2026-08-29T15:58:02Z</time>
      </trkpt>
      <trkpt lat="43.89756" lon="1.99065">
        <ele>152.627664</ele>
        <time>2026-08-29T15:58:03Z</time>
      </trkpt>
      <trkpt lat="43.89754" lon="1.99069">
        <ele>152.616362</ele>
        <time>2026-08-29T15:58:04Z</time>
      </trkpt>
      <trkpt lat="43.89751" lon="1.99073">
        <ele>152.6048</ele>
        <time>2026-08-29T15:58:05Z</time>
      </trkpt>
      <trkpt lat="43.89748" lon="1.99076">
        <ele>152.594637</ele>
        <time>2026-08-29T15:58:06Z</time>
      </trkpt>
      <trkpt lat="43.89746" lon="1.99079">
        <ele>152.585394</ele>
        <time>2026-08-29T15:58:07Z</time>
      </trkpt>
      <trkpt lat="43.89743" lon="1.99082">
        <ele>152.575885</ele>
        <time>2026-08-29T15:58:08Z</time>
      </trkpt>
      <trkpt lat="43.89741" lon="1.99085">
        <ele>152.567086</ele>
        <time>2026-08-29T15:58:09Z</time>
      </trkpt>
      <trkpt lat="43.89739" lon="1.99088">
        <ele>152.559347</ele>
        <time>2026-08-29T15:58:10Z</time>
      </trkpt>
      <trkpt lat="43.89737" lon="1.9909">
        <ele>152.551255</ele>
        <time>2026-08-29T15:58:11Z</time>
      </trkpt>
      <trkpt lat="43.89736" lon="1.99093">
        <ele>152.544304</ele>
        <time>2026-08-29T15:58:12Z</time>
      </trkpt>
      <trkpt lat="43.89734" lon="1.99095">
        <ele>152.537917</ele>
        <time>2026-08-29T15:58:13Z</time>
      </trkpt>
      <trkpt lat="43.89732" lon="1.99097">
        <ele>152.531587</ele>
        <time>2026-08-29T15:58:14Z</time>
      </trkpt>
      <trkpt lat="43.8973" lon="1.99099">
        <ele>152.524316</ele>
        <time>2026-08-29T15:58:15Z</time>
      </trkpt>
      <trkpt lat="43.89728" lon="1.99101">
        <ele>152.5174</ele>
        <time>2026-08-29T15:58:16Z</time>
      </trkpt>
      <trkpt lat="43.89726" lon="1.99103">
        <ele>152.509376</ele>
        <time>2026-08-29T15:58:17Z</time>
      </trkpt>
      <trkpt lat="43.89724" lon="1.99106">
        <ele>152.500296</ele>
        <time>2026-08-29T15:58:18Z</time>
      </trkpt>
      <trkpt lat="43.89721" lon="1.99107">
        <ele>152.491432</ele>
        <time>2026-08-29T15:58:19Z</time>
      </trkpt>
      <trkpt lat="43.89718" lon="1.9911">
        <ele>152.481888</ele>
        <time>2026-08-29T15:58:20Z</time>
      </trkpt>
      <trkpt lat="43.89715" lon="1.99111">
        <ele>152.472157</ele>
        <time>2026-08-29T15:58:21Z</time>
      </trkpt>
      <trkpt lat="43.89712" lon="1.99112">
        <ele>152.462978</ele>
        <time>2026-08-29T15:58:22Z</time>
      </trkpt>
      <trkpt lat="43.89709" lon="1.99114">
        <ele>152.453645</ele>
        <time>2026-08-29T15:58:23Z</time>
      </trkpt>
      <trkpt lat="43.89706" lon="1.99114">
        <ele>152.444785</ele>
        <time>2026-08-29T15:58:24Z</time>
      </trkpt>
      <trkpt lat="43.89703" lon="1.99116">
        <ele>152.435606</ele>
        <time>2026-08-29T15:58:25Z</time>
      </trkpt>
      <trkpt lat="43.897" lon="1.99117">
        <ele>152.428165</ele>
        <time>2026-08-29T15:58:26Z</time>
      </trkpt>
      <trkpt lat="43.89698" lon="1.99118">
        <ele>152.420077</ele>
        <time>2026-08-29T15:58:27Z</time>
      </trkpt>
      <trkpt lat="43.89695" lon="1.99119">
        <ele>152.412951</ele>
        <time>2026-08-29T15:58:28Z</time>
      </trkpt>
      <trkpt lat="43.89693" lon="1.99121">
        <ele>152.404616</ele>
        <time>2026-08-29T15:58:29Z</time>
      </trkpt>
      <trkpt lat="43.89689" lon="1.99122">
        <ele>152.394545</ele>
        <time>2026-08-29T15:58:30Z</time>
      </trkpt>
      <trkpt lat="43.89686" lon="1.99124">
        <ele>152.384953</ele>
        <time>2026-08-29T15:58:31Z</time>
      </trkpt>
      <trkpt lat="43.89684" lon="1.99124">
        <ele>152.376809</ele>
        <time>2026-08-29T15:58:32Z</time>
      </trkpt>
      <trkpt lat="43.89681" lon="1.99124">
        <ele>152.369798</ele>
        <time>2026-08-29T15:58:33Z</time>
      </trkpt>
      <trkpt lat="43.8968" lon="1.99122">
        <ele>152.364323</ele>
        <time>2026-08-29T15:58:34Z</time>
      </trkpt>
      <trkpt lat="43.89679" lon="1.9912">
        <ele>152.358884</ele>
        <time>2026-08-29T15:58:35Z</time>
      </trkpt>
      <trkpt lat="43.89677" lon="1.99117">
        <ele>152.351924</ele>
        <time>2026-08-29T15:58:36Z</time>
      </trkpt>
      <trkpt lat="43.89676" lon="1.99114">
        <ele>152.344012</ele>
        <time>2026-08-29T15:58:37Z</time>
      </trkpt>
      <trkpt lat="43.89675" lon="1.9911">
        <ele>152.335093</ele>
        <time>2026-08-29T15:58:38Z</time>
      </trkpt>
      <trkpt lat="43.89673" lon="1.99106">
        <ele>152.325532</ele>
        <time>2026-08-29T15:58:39Z</time>
      </trkpt>
      <trkpt lat="43.89671" lon="1.99102">
        <ele>152.325619</ele>
        <time>2026-08-29T15:58:40Z</time>
      </trkpt>
      <trkpt lat="43.89669" lon="1.99098">
        <ele>152.330864</ele>
        <time>2026-08-29T15:58:41Z</time>
      </trkpt>
      <trkpt lat="43.89667" lon="1.99094">
        <ele>152.336026</ele>
        <time>2026-08-29T15:58:42Z</time>
      </trkpt>
      <trkpt lat="43.89665" lon="1.9909">
        <ele>152.340926</ele>
        <time>2026-08-29T15:58:43Z</time>
      </trkpt>
      <trkpt lat="43.89664" lon="1.99087">
        <ele>152.3455</ele>
        <time>2026-08-29T15:58:44Z</time>
      </trkpt>
      <trkpt lat="43.89663" lon="1.99084">
        <ele>152.349534</ele>
        <time>2026-08-29T15:58:45Z</time>
      </trkpt>
      <trkpt lat="43.89661" lon="1.9908">
        <ele>152.353808</ele>
        <time>2026-08-29T15:58:46Z</time>
      </trkpt>
      <trkpt lat="43.8966" lon="1.99076">
        <ele>152.35818</ele>
        <time>2026-08-29T15:58:47Z</time>
      </trkpt>
      <trkpt lat="43.89659" lon="1.99073">
        <ele>152.362682</ele>
        <time>2026-08-29T15:58:48Z</time>
      </trkpt>
      <trkpt lat="43.89657" lon="1.99069">
        <ele>152.367257</ele>
        <time>2026-08-29T15:58:49Z</time>
      </trkpt>
      <trkpt lat="43.89656" lon="1.99065">
        <ele>152.372375</ele>
        <time>2026-08-29T15:58:50Z</time>
      </trkpt>
      <trkpt lat="43.89654" lon="1.9906">
        <ele>152.37766</ele>
        <time>2026-08-29T15:58:51Z</time>
      </trkpt>
      <trkpt lat="43.89652" lon="1.99056">
        <ele>152.382684</ele>
        <time>2026-08-29T15:58:52Z</time>
      </trkpt>
      <trkpt lat="43.89651" lon="1.99052">
        <ele>152.387613</ele>
        <time>2026-08-29T15:58:53Z</time>
      </trkpt>
      <trkpt lat="43.8965" lon="1.99048">
        <ele>152.392381</ele>
        <time>2026-08-29T15:58:54Z</time>
      </trkpt>
      <trkpt lat="43.89648" lon="1.99044">
        <ele>152.397311</ele>
        <time>2026-08-29T15:58:55Z</time>
      </trkpt>
      <trkpt lat="43.89647" lon="1.9904">
        <ele>152.401975</ele>
        <time>2026-08-29T15:58:56Z</time>
      </trkpt>
      <trkpt lat="43.89646" lon="1.99036">
        <ele>152.407144</ele>
        <time>2026-08-29T15:58:57Z</time>
      </trkpt>
      <trkpt lat="43.89644" lon="1.99032">
        <ele>152.411647</ele>
        <time>2026-08-29T15:58:58Z</time>
      </trkpt>
      <trkpt lat="43.89642" lon="1.99029">
        <ele>152.416039</ele>
        <time>2026-08-29T15:58:59Z</time>
      </trkpt>
      <trkpt lat="43.89638" lon="1.99027">
        <ele>152.421901</ele>
        <time>2026-08-29T15:59:00Z</time>
      </trkpt>
      <trkpt lat="43.89635" lon="1.99026">
        <ele>152.426952</ele>
        <time>2026-08-29T15:59:01Z</time>
      </trkpt>
      <trkpt lat="43.89632" lon="1.99024">
        <ele>152.432571</ele>
        <time>2026-08-29T15:59:02Z</time>
      </trkpt>
      <trkpt lat="43.89629" lon="1.99021">
        <ele>152.438171</ele>
        <time>2026-08-29T15:59:03Z</time>
      </trkpt>
      <trkpt lat="43.89625" lon="1.99019">
        <ele>152.443479</ele>
        <time>2026-08-29T15:59:04Z</time>
      </trkpt>
      <trkpt lat="43.89622" lon="1.99017">
        <ele>152.448685</ele>
        <time>2026-08-29T15:59:05Z</time>
      </trkpt>
      <trkpt lat="43.89619" lon="1.99014">
        <ele>152.453679</ele>
        <time>2026-08-29T15:59:06Z</time>
      </trkpt>
      <trkpt lat="43.89616" lon="1.99012">
        <ele>152.459289</ele>
        <time>2026-08-29T15:59:07Z</time>
      </trkpt>
      <trkpt lat="43.89613" lon="1.9901">
        <ele>152.464833</ele>
        <time>2026-08-29T15:59:08Z</time>
      </trkpt>
      <trkpt lat="43.8961" lon="1.99009">
        <ele>152.469143</ele>
        <time>2026-08-29T15:59:09Z</time>
      </trkpt>
      <trkpt lat="43.89607" lon="1.99007">
        <ele>152.473576</ele>
        <time>2026-08-29T15:59:10Z</time>
      </trkpt>
      <trkpt lat="43.89605" lon="1.99005">
        <ele>152.477262</ele>
        <time>2026-08-29T15:59:11Z</time>
      </trkpt>
      <trkpt lat="43.89604" lon="1.99003">
        <ele>152.480674</ele>
        <time>2026-08-29T15:59:12Z</time>
      </trkpt>
      <trkpt lat="43.89603" lon="1.98999">
        <ele>152.484599</ele>
        <time>2026-08-29T15:59:13Z</time>
      </trkpt>
      <trkpt lat="43.89604" lon="1.98995">
        <ele>152.489591</ele>
        <time>2026-08-29T15:59:14Z</time>
      </trkpt>
      <trkpt lat="43.89604" lon="1.9899">
        <ele>152.494797</ele>
        <time>2026-08-29T15:59:15Z</time>
      </trkpt>
      <trkpt lat="43.89605" lon="1.98985">
        <ele>152.49981</ele>
        <time>2026-08-29T15:59:16Z</time>
      </trkpt>
      <trkpt lat="43.89605" lon="1.9898">
        <ele>152.505307</ele>
        <time>2026-08-29T15:59:17Z</time>
      </trkpt>
      <trkpt lat="43.89605" lon="1.98976">
        <ele>152.510238</ele>
        <time>2026-08-29T15:59:18Z</time>
      </trkpt>
      <trkpt lat="43.89606" lon="1.98971">
        <ele>152.515063</ele>
        <time>2026-08-29T15:59:19Z</time>
      </trkpt>
      <trkpt lat="43.89607" lon="1.98967">
        <ele>152.520266</ele>
        <time>2026-08-29T15:59:20Z</time>
      </trkpt>
      <trkpt lat="43.89608" lon="1.98962">
        <ele>152.525402</ele>
        <time>2026-08-29T15:59:21Z</time>
      </trkpt>
      <trkpt lat="43.89609" lon="1.98957">
        <ele>152.530726</ele>
        <time>2026-08-29T15:59:22Z</time>
      </trkpt>
      <trkpt lat="43.8961" lon="1.98953">
        <ele>152.53611</ele>
        <time>2026-08-29T15:59:23Z</time>
      </trkpt>
      <trkpt lat="43.89611" lon="1.98947">
        <ele>152.542053</ele>
        <time>2026-08-29T15:59:24Z</time>
      </trkpt>
      <trkpt lat="43.89612" lon="1.98942">
        <ele>152.547397</ele>
        <time>2026-08-29T15:59:25Z</time>
      </trkpt>
      <trkpt lat="43.89613" lon="1.98938">
        <ele>152.552781</ele>
        <time>2026-08-29T15:59:26Z</time>
      </trkpt>
      <trkpt lat="43.89614" lon="1.98933">
        <ele>152.558153</ele>
        <time>2026-08-29T15:59:27Z</time>
      </trkpt>
      <trkpt lat="43.89616" lon="1.98928">
        <ele>152.564013</ele>
        <time>2026-08-29T15:59:28Z</time>
      </trkpt>
      <trkpt lat="43.89618" lon="1.98923">
        <ele>152.570006</ele>
        <time>2026-08-29T15:59:29Z</time>
      </trkpt>
      <trkpt lat="43.89619" lon="1.98918">
        <ele>152.575287</ele>
        <time>2026-08-29T15:59:30Z</time>
      </trkpt>
      <trkpt lat="43.8962" lon="1.98914">
        <ele>152.580411</ele>
        <time>2026-08-29T15:59:31Z</time>
      </trkpt>
      <trkpt lat="43.89622" lon="1.98909">
        <ele>152.586724</ele>
        <time>2026-08-29T15:59:32Z</time>
      </trkpt>
      <trkpt lat="43.89623" lon="1.98904">
        <ele>152.595773</ele>
        <time>2026-08-29T15:59:33Z</time>
      </trkpt>
      <trkpt lat="43.89625" lon="1.98899">
        <ele>152.613599</ele>
        <time>2026-08-29T15:59:34Z</time>
      </trkpt>
      <trkpt lat="43.89626" lon="1.98893">
        <ele>152.631591</ele>
        <time>2026-08-29T15:59:35Z</time>
      </trkpt>
      <trkpt lat="43.89627" lon="1.98888">
        <ele>152.649583</ele>
        <time>2026-08-29T15:59:36Z</time>
      </trkpt>
      <trkpt lat="43.89628" lon="1.98883">
        <ele>152.667885</ele>
        <time>2026-08-29T15:59:37Z</time>
      </trkpt>
      <trkpt lat="43.8963" lon="1.98878">
        <ele>152.685081</ele>
        <time>2026-08-29T15:59:38Z</time>
      </trkpt>
      <trkpt lat="43.89631" lon="1.98874">
        <ele>152.702513</ele>
        <time>2026-08-29T15:59:39Z</time>
      </trkpt>
      <trkpt lat="43.89633" lon="1.9887">
        <ele>152.717535</ele>
        <time>2026-08-29T15:59:40Z</time>
      </trkpt>
      <trkpt lat="43.89634" lon="1.98865">
        <ele>152.732521</ele>
        <time>2026-08-29T15:59:41Z</time>
      </trkpt>
      <trkpt lat="43.89635" lon="1.98861">
        <ele>152.747543</ele>
        <time>2026-08-29T15:59:42Z</time>
      </trkpt>
      <trkpt lat="43.89636" lon="1.98858">
        <ele>152.760497</ele>
        <time>2026-08-29T15:59:43Z</time>
      </trkpt>
      <trkpt lat="43.89635" lon="1.98854">
        <ele>152.774542</ele>
        <time>2026-08-29T15:59:44Z</time>
      </trkpt>
      <trkpt lat="43.89633" lon="1.9885">
        <ele>152.788779</ele>
        <time>2026-08-29T15:59:45Z</time>
      </trkpt>
      <trkpt lat="43.89632" lon="1.98846">
        <ele>152.803213</ele>
        <time>2026-08-29T15:59:46Z</time>
      </trkpt>
      <trkpt lat="43.8963" lon="1.98843">
        <ele>152.817397</ele>
        <time>2026-08-29T15:59:47Z</time>
      </trkpt>
      <trkpt lat="43.89628" lon="1.98839">
        <ele>152.834007</ele>
        <time>2026-08-29T15:59:48Z</time>
      </trkpt>
      <trkpt lat="43.89626" lon="1.98835">
        <ele>152.850067</ele>
        <time>2026-08-29T15:59:49Z</time>
      </trkpt>
      <trkpt lat="43.89624" lon="1.98831">
        <ele>152.865598</ele>
        <time>2026-08-29T15:59:50Z</time>
      </trkpt>
      <trkpt lat="43.89622" lon="1.98827">
        <ele>152.883011</ele>
        <time>2026-08-29T15:59:51Z</time>
      </trkpt>
      <trkpt lat="43.8962" lon="1.98823">
        <ele>152.899893</ele>
        <time>2026-08-29T15:59:52Z</time>
      </trkpt>
      <trkpt lat="43.89618" lon="1.98819">
        <ele>152.916241</ele>
        <time>2026-08-29T15:59:53Z</time>
      </trkpt>
      <trkpt lat="43.89616" lon="1.98815">
        <ele>152.932568</ele>
        <time>2026-08-29T15:59:54Z</time>
      </trkpt>
      <trkpt lat="43.89614" lon="1.98811">
        <ele>152.948915</ele>
        <time>2026-08-29T15:59:55Z</time>
      </trkpt>
      <trkpt lat="43.89612" lon="1.98806">
        <ele>152.966361</ele>
        <time>2026-08-29T15:59:56Z</time>
      </trkpt>
      <trkpt lat="43.8961" lon="1.98802">
        <ele>152.984876</ele>
        <time>2026-08-29T15:59:57Z</time>
      </trkpt>
      <trkpt lat="43.89607" lon="1.98797">
        <ele>153.004487</ele>
        <time>2026-08-29T15:59:58Z</time>
      </trkpt>
      <trkpt lat="43.89605" lon="1.98792">
        <ele>153.025196</ele>
        <time>2026-08-29T15:59:59Z</time>
      </trkpt>
      <trkpt lat="43.89603" lon="1.98787">
        <ele>153.045343</ele>
        <time>2026-08-29T16:00:00Z</time>
      </trkpt>
      <trkpt lat="43.896" lon="1.98782">
        <ele>153.065212</ele>
        <time>2026-08-29T16:00:01Z</time>
      </trkpt>
      <trkpt lat="43.89598" lon="1.98777">
        <ele>153.083228</ele>
        <time>2026-08-29T16:00:02Z</time>
      </trkpt>
      <trkpt lat="43.89596" lon="1.98772">
        <ele>153.102306</ele>
        <time>2026-08-29T16:00:03Z</time>
      </trkpt>
      <trkpt lat="43.89594" lon="1.98768">
        <ele>153.121101</ele>
        <time>2026-08-29T16:00:04Z</time>
      </trkpt>
      <trkpt lat="43.89592" lon="1.98763">
        <ele>153.139647</ele>
        <time>2026-08-29T16:00:05Z</time>
      </trkpt>
      <trkpt lat="43.8959" lon="1.98758">
        <ele>153.157908</ele>
        <time>2026-08-29T16:00:06Z</time>
      </trkpt>
      <trkpt lat="43.89587" lon="1.98754">
        <ele>153.176423</ele>
        <time>2026-08-29T16:00:07Z</time>
      </trkpt>
      <trkpt lat="43.89585" lon="1.98749">
        <ele>153.194402</ele>
        <time>2026-08-29T16:00:08Z</time>
      </trkpt>
      <trkpt lat="43.89583" lon="1.98745">
        <ele>153.212101</ele>
        <time>2026-08-29T16:00:09Z</time>
      </trkpt>
      <trkpt lat="43.89581" lon="1.98741">
        <ele>153.229514</ele>
        <time>2026-08-29T16:00:10Z</time>
      </trkpt>
      <trkpt lat="43.89579" lon="1.98736">
        <ele>153.24775</ele>
        <time>2026-08-29T16:00:11Z</time>
      </trkpt>
      <trkpt lat="43.89577" lon="1.98732">
        <ele>153.265729</ele>
        <time>2026-08-29T16:00:12Z</time>
      </trkpt>
      <trkpt lat="43.89575" lon="1.98727">
        <ele>153.283428</ele>
        <time>2026-08-29T16:00:13Z</time>
      </trkpt>
      <trkpt lat="43.89572" lon="1.98723">
        <ele>153.30193</ele>
        <time>2026-08-29T16:00:14Z</time>
      </trkpt>
      <trkpt lat="43.8957" lon="1.98718">
        <ele>153.319909</ele>
        <time>2026-08-29T16:00:15Z</time>
      </trkpt>
      <trkpt lat="43.89568" lon="1.98714">
        <ele>153.33817</ele>
        <time>2026-08-29T16:00:16Z</time>
      </trkpt>
      <trkpt lat="43.89566" lon="1.98709">
        <ele>153.357502</ele>
        <time>2026-08-29T16:00:17Z</time>
      </trkpt>
      <trkpt lat="43.89564" lon="1.98704">
        <ele>153.376047</ele>
        <time>2026-08-29T16:00:18Z</time>
      </trkpt>
      <trkpt lat="43.89562" lon="1.987">
        <ele>153.393467</ele>
        <time>2026-08-29T16:00:19Z</time>
      </trkpt>
      <trkpt lat="43.89559" lon="1.98695">
        <ele>153.411982</ele>
        <time>2026-08-29T16:00:20Z</time>
      </trkpt>
      <trkpt lat="43.89557" lon="1.98691">
        <ele>153.426918</ele>
        <time>2026-08-29T16:00:21Z</time>
      </trkpt>
      <trkpt lat="43.89555" lon="1.98686">
        <ele>153.4104</ele>
        <time>2026-08-29T16:00:22Z</time>
      </trkpt>
      <trkpt lat="43.89553" lon="1.98681">
        <ele>153.39367</ele>
        <time>2026-08-29T16:00:23Z</time>
      </trkpt>
      <trkpt lat="43.89551" lon="1.98677">
        <ele>153.376721</ele>
        <time>2026-08-29T16:00:24Z</time>
      </trkpt>
      <trkpt lat="43.89549" lon="1.98673">
        <ele>153.361303</ele>
        <time>2026-08-29T16:00:25Z</time>
      </trkpt>
      <trkpt lat="43.89547" lon="1.98669">
        <ele>153.347127</ele>
        <time>2026-08-29T16:00:26Z</time>
      </trkpt>
      <trkpt lat="43.89545" lon="1.98665">
        <ele>153.333121</ele>
        <time>2026-08-29T16:00:27Z</time>
      </trkpt>
      <trkpt lat="43.89542" lon="1.98662">
        <ele>153.317122</ele>
        <time>2026-08-29T16:00:28Z</time>
      </trkpt>
      <trkpt lat="43.8954" lon="1.98658">
        <ele>153.300611</ele>
        <time>2026-08-29T16:00:29Z</time>
      </trkpt>
      <trkpt lat="43.89537" lon="1.98653">
        <ele>153.282664</ele>
        <time>2026-08-29T16:00:30Z</time>
      </trkpt>
      <trkpt lat="43.89534" lon="1.98649">
        <ele>153.26495</ele>
        <time>2026-08-29T16:00:31Z</time>
      </trkpt>
      <trkpt lat="43.89532" lon="1.98645">
        <ele>153.247342</ele>
        <time>2026-08-29T16:00:32Z</time>
      </trkpt>
      <trkpt lat="43.89529" lon="1.98641">
        <ele>153.229646</ele>
        <time>2026-08-29T16:00:33Z</time>
      </trkpt>
      <trkpt lat="43.89526" lon="1.98636">
        <ele>153.211818</ele>
        <time>2026-08-29T16:00:34Z</time>
      </trkpt>
      <trkpt lat="43.89523" lon="1.98632">
        <ele>153.194641</ele>
        <time>2026-08-29T16:00:35Z</time>
      </trkpt>
      <trkpt lat="43.8952" lon="1.98628">
        <ele>153.176426</ele>
        <time>2026-08-29T16:00:36Z</time>
      </trkpt>
      <trkpt lat="43.89517" lon="1.98624">
        <ele>153.159455</ele>
        <time>2026-08-29T16:00:37Z</time>
      </trkpt>
      <trkpt lat="43.89515" lon="1.9862">
        <ele>153.14204</ele>
        <time>2026-08-29T16:00:38Z</time>
      </trkpt>
      <trkpt lat="43.89512" lon="1.98615">
        <ele>153.125069</ele>
        <time>2026-08-29T16:00:39Z</time>
      </trkpt>
      <trkpt lat="43.89509" lon="1.98612">
        <ele>153.108195</ele>
        <time>2026-08-29T16:00:40Z</time>
      </trkpt>
      <trkpt lat="43.89506" lon="1.98608">
        <ele>153.09237</ele>
        <time>2026-08-29T16:00:41Z</time>
      </trkpt>
      <trkpt lat="43.89504" lon="1.98605">
        <ele>153.076444</ele>
        <time>2026-08-29T16:00:42Z</time>
      </trkpt>
      <trkpt lat="43.89501" lon="1.98601">
        <ele>153.059894</ele>
        <time>2026-08-29T16:00:43Z</time>
      </trkpt>
      <trkpt lat="43.89498" lon="1.98598">
        <ele>153.043746</ele>
        <time>2026-08-29T16:00:44Z</time>
      </trkpt>
      <trkpt lat="43.89495" lon="1.98594">
        <ele>153.028239</ele>
        <time>2026-08-29T16:00:45Z</time>
      </trkpt>
      <trkpt lat="43.89493" lon="1.9859">
        <ele>153.012468</ele>
        <time>2026-08-29T16:00:46Z</time>
      </trkpt>
      <trkpt lat="43.8949" lon="1.98586">
        <ele>152.995497</ele>
        <time>2026-08-29T16:00:47Z</time>
      </trkpt>
      <trkpt lat="43.89487" lon="1.98582">
        <ele>152.978698</ele>
        <time>2026-08-29T16:00:48Z</time>
      </trkpt>
      <trkpt lat="43.89485" lon="1.98578">
        <ele>152.961824</ele>
        <time>2026-08-29T16:00:49Z</time>
      </trkpt>
      <trkpt lat="43.89482" lon="1.98574">
        <ele>152.9448</ele>
        <time>2026-08-29T16:00:50Z</time>
      </trkpt>
      <trkpt lat="43.89479" lon="1.9857">
        <ele>152.927626</ele>
        <time>2026-08-29T16:00:51Z</time>
      </trkpt>
      <trkpt lat="43.89477" lon="1.98565">
        <ele>152.910422</ele>
        <time>2026-08-29T16:00:52Z</time>
      </trkpt>
      <trkpt lat="43.89474" lon="1.98562">
        <ele>152.894361</ele>
        <time>2026-08-29T16:00:53Z</time>
      </trkpt>
      <trkpt lat="43.89471" lon="1.98558">
        <ele>152.877784</ele>
        <time>2026-08-29T16:00:54Z</time>
      </trkpt>
      <trkpt lat="43.89469" lon="1.98554">
        <ele>152.862338</ele>
        <time>2026-08-29T16:00:55Z</time>
      </trkpt>
      <trkpt lat="43.89467" lon="1.9855">
        <ele>152.847157</ele>
        <time>2026-08-29T16:00:56Z</time>
      </trkpt>
      <trkpt lat="43.89465" lon="1.98546">
        <ele>152.833474</ele>
        <time>2026-08-29T16:00:57Z</time>
      </trkpt>
      <trkpt lat="43.89464" lon="1.98542">
        <ele>152.820497</ele>
        <time>2026-08-29T16:00:58Z</time>
      </trkpt>
      <trkpt lat="43.89464" lon="1.98538">
        <ele>152.808207</ele>
        <time>2026-08-29T16:00:59Z</time>
      </trkpt>
      <trkpt lat="43.89465" lon="1.98535">
        <ele>152.796882</ele>
        <time>2026-08-29T16:01:00Z</time>
      </trkpt>
      <trkpt lat="43.89466" lon="1.98531">
        <ele>152.783884</ele>
        <time>2026-08-29T16:01:01Z</time>
      </trkpt>
      <trkpt lat="43.89468" lon="1.98527">
        <ele>152.771882</ele>
        <time>2026-08-29T16:01:02Z</time>
      </trkpt>
      <trkpt lat="43.8947" lon="1.98524">
        <ele>152.757446</ele>
        <time>2026-08-29T16:01:03Z</time>
      </trkpt>
      <trkpt lat="43.89472" lon="1.98519">
        <ele>152.742016</ele>
        <time>2026-08-29T16:01:04Z</time>
      </trkpt>
      <trkpt lat="43.89474" lon="1.98515">
        <ele>152.725498</ele>
        <time>2026-08-29T16:01:05Z</time>
      </trkpt>
      <trkpt lat="43.89475" lon="1.9851">
        <ele>152.708484</ele>
        <time>2026-08-29T16:01:06Z</time>
      </trkpt>
      <trkpt lat="43.89476" lon="1.98504">
        <ele>152.690397</ele>
        <time>2026-08-29T16:01:07Z</time>
      </trkpt>
      <trkpt lat="43.89477" lon="1.98498">
        <ele>152.67182</ele>
        <time>2026-08-29T16:01:08Z</time>
      </trkpt>
      <trkpt lat="43.89478" lon="1.98492">
        <ele>152.659626</ele>
        <time>2026-08-29T16:01:09Z</time>
      </trkpt>
      <trkpt lat="43.89479" lon="1.98486">
        <ele>152.654327</ele>
        <time>2026-08-29T16:01:10Z</time>
      </trkpt>
      <trkpt lat="43.8948" lon="1.98481">
        <ele>152.649049</ele>
        <time>2026-08-29T16:01:11Z</time>
      </trkpt>
      <trkpt lat="43.8948" lon="1.98475">
        <ele>152.643805</ele>
        <time>2026-08-29T16:01:12Z</time>
      </trkpt>
      <trkpt lat="43.89481" lon="1.9847">
        <ele>152.638601</ele>
        <time>2026-08-29T16:01:13Z</time>
      </trkpt>
      <trkpt lat="43.89481" lon="1.98465">
        <ele>152.633514</ele>
        <time>2026-08-29T16:01:14Z</time>
      </trkpt>
      <trkpt lat="43.89482" lon="1.9846">
        <ele>152.628442</ele>
        <time>2026-08-29T16:01:15Z</time>
      </trkpt>
      <trkpt lat="43.89483" lon="1.98455">
        <ele>152.623279</ele>
        <time>2026-08-29T16:01:16Z</time>
      </trkpt>
      <trkpt lat="43.89483" lon="1.9845">
        <ele>152.618499</ele>
        <time>2026-08-29T16:01:17Z</time>
      </trkpt>
      <trkpt lat="43.89484" lon="1.98444">
        <ele>152.613431</ele>
        <time>2026-08-29T16:01:18Z</time>
      </trkpt>
      <trkpt lat="43.89485" lon="1.98439">
        <ele>152.60816</ele>
        <time>2026-08-29T16:01:19Z</time>
      </trkpt>
      <trkpt lat="43.89486" lon="1.98434">
        <ele>152.602569</ele>
        <time>2026-08-29T16:01:20Z</time>
      </trkpt>
      <trkpt lat="43.89487" lon="1.98428">
        <ele>152.597089</ele>
        <time>2026-08-29T16:01:21Z</time>
      </trkpt>
      <trkpt lat="43.89488" lon="1.98423">
        <ele>152.591599</ele>
        <time>2026-08-29T16:01:22Z</time>
      </trkpt>
      <trkpt lat="43.89489" lon="1.98417">
        <ele>152.585824</ele>
        <time>2026-08-29T16:01:23Z</time>
      </trkpt>
      <trkpt lat="43.8949" lon="1.98412">
        <ele>152.580593</ele>
        <time>2026-08-29T16:01:24Z</time>
      </trkpt>
      <trkpt lat="43.8949" lon="1.98406">
        <ele>152.575173</ele>
        <time>2026-08-29T16:01:25Z</time>
      </trkpt>
      <trkpt lat="43.89491" lon="1.98401">
        <ele>152.570037</ele>
        <time>2026-08-29T16:01:26Z</time>
      </trkpt>
      <trkpt lat="43.89492" lon="1.98396">
        <ele>152.565117</ele>
        <time>2026-08-29T16:01:27Z</time>
      </trkpt>
      <trkpt lat="43.89492" lon="1.98391">
        <ele>152.56045</ele>
        <time>2026-08-29T16:01:28Z</time>
      </trkpt>
      <trkpt lat="43.89493" lon="1.98385">
        <ele>152.554783</ele>
        <time>2026-08-29T16:01:29Z</time>
      </trkpt>
      <trkpt lat="43.89495" lon="1.9838">
        <ele>152.5491</ele>
        <time>2026-08-29T16:01:30Z</time>
      </trkpt>
      <trkpt lat="43.89495" lon="1.98374">
        <ele>152.543325</ele>
        <time>2026-08-29T16:01:31Z</time>
      </trkpt>
      <trkpt lat="43.89496" lon="1.98368">
        <ele>152.537594</ele>
        <time>2026-08-29T16:01:32Z</time>
      </trkpt>
      <trkpt lat="43.89497" lon="1.98362">
        <ele>152.531984</ele>
        <time>2026-08-29T16:01:33Z</time>
      </trkpt>
      <trkpt lat="43.89498" lon="1.98357">
        <ele>152.526754</ele>
        <time>2026-08-29T16:01:34Z</time>
      </trkpt>
      <trkpt lat="43.89498" lon="1.98351">
        <ele>152.521318</ele>
        <time>2026-08-29T16:01:35Z</time>
      </trkpt>
      <trkpt lat="43.89498" lon="1.98346">
        <ele>152.5161</ele>
        <time>2026-08-29T16:01:36Z</time>
      </trkpt>
      <trkpt lat="43.89498" lon="1.98341">
        <ele>152.511049</ele>
        <time>2026-08-29T16:01:37Z</time>
      </trkpt>
      <trkpt lat="43.89499" lon="1.98336">
        <ele>152.506058</ele>
        <time>2026-08-29T16:01:38Z</time>
      </trkpt>
      <trkpt lat="43.895" lon="1.9833">
        <ele>152.500732</ele>
        <time>2026-08-29T16:01:39Z</time>
      </trkpt>
      <trkpt lat="43.89501" lon="1.98325">
        <ele>152.495433</ele>
        <time>2026-08-29T16:01:40Z</time>
      </trkpt>
      <trkpt lat="43.89501" lon="1.98319">
        <ele>152.490017</ele>
        <time>2026-08-29T16:01:41Z</time>
      </trkpt>
      <trkpt lat="43.895" lon="1.98314">
        <ele>152.485157</ele>
        <time>2026-08-29T16:01:42Z</time>
      </trkpt>
      <trkpt lat="43.895" lon="1.98309">
        <ele>152.48021</ele>
        <time>2026-08-29T16:01:43Z</time>
      </trkpt>
      <trkpt lat="43.89498" lon="1.98305">
        <ele>152.475795</ele>
        <time>2026-08-29T16:01:44Z</time>
      </trkpt>
      <trkpt lat="43.89497" lon="1.98301">
        <ele>152.471338</ele>
        <time>2026-08-29T16:01:45Z</time>
      </trkpt>
      <trkpt lat="43.89497" lon="1.98296">
        <ele>152.466501</ele>
        <time>2026-08-29T16:01:46Z</time>
      </trkpt>
      <trkpt lat="43.89498" lon="1.98291">
        <ele>152.461804</ele>
        <time>2026-08-29T16:01:47Z</time>
      </trkpt>
      <trkpt lat="43.89499" lon="1.98286">
        <ele>152.45675</ele>
        <time>2026-08-29T16:01:48Z</time>
      </trkpt>
      <trkpt lat="43.89501" lon="1.98281">
        <ele>152.450915</ele>
        <time>2026-08-29T16:01:49Z</time>
      </trkpt>
      <trkpt lat="43.89504" lon="1.98276">
        <ele>152.445427</ele>
        <time>2026-08-29T16:01:50Z</time>
      </trkpt>
      <trkpt lat="43.89507" lon="1.98272">
        <ele>152.439718</ele>
        <time>2026-08-29T16:01:51Z</time>
      </trkpt>
      <trkpt lat="43.89511" lon="1.9827">
        <ele>152.433713</ele>
        <time>2026-08-29T16:01:52Z</time>
      </trkpt>
      <trkpt lat="43.89515" lon="1.98268">
        <ele>152.42777</ele>
        <time>2026-08-29T16:01:53Z</time>
      </trkpt>
      <trkpt lat="43.89519" lon="1.98268">
        <ele>152.42227</ele>
        <time>2026-08-29T16:01:54Z</time>
      </trkpt>
      <trkpt lat="43.89523" lon="1.98268">
        <ele>152.428279</ele>
        <time>2026-08-29T16:01:55Z</time>
      </trkpt>
      <trkpt lat="43.89528" lon="1.98269">
        <ele>152.434666</ele>
        <time>2026-08-29T16:01:56Z</time>
      </trkpt>
      <trkpt lat="43.89532" lon="1.9827">
        <ele>152.441425</ele>
        <time>2026-08-29T16:01:57Z</time>
      </trkpt>
      <trkpt lat="43.89536" lon="1.98271">
        <ele>152.447826</ele>
        <time>2026-08-29T16:01:58Z</time>
      </trkpt>
      <trkpt lat="43.8954" lon="1.98271">
        <ele>152.454805</ele>
        <time>2026-08-29T16:01:59Z</time>
      </trkpt>
      <trkpt lat="43.89545" lon="1.98271">
        <ele>152.461322</ele>
        <time>2026-08-29T16:02:00Z</time>
      </trkpt>
      <trkpt lat="43.89549" lon="1.98269">
        <ele>152.467758</ele>
        <time>2026-08-29T16:02:01Z</time>
      </trkpt>
      <trkpt lat="43.89552" lon="1.98266">
        <ele>152.474173</ele>
        <time>2026-08-29T16:02:02Z</time>
      </trkpt>
      <trkpt lat="43.89555" lon="1.98262">
        <ele>152.480547</ele>
        <time>2026-08-29T16:02:03Z</time>
      </trkpt>
      <trkpt lat="43.89557" lon="1.98257">
        <ele>152.486724</ele>
        <time>2026-08-29T16:02:04Z</time>
      </trkpt>
      <trkpt lat="43.89558" lon="1.98251">
        <ele>152.493275</ele>
        <time>2026-08-29T16:02:05Z</time>
      </trkpt>
      <trkpt lat="43.8956" lon="1.98246">
        <ele>152.499827</ele>
        <time>2026-08-29T16:02:06Z</time>
      </trkpt>
      <trkpt lat="43.89561" lon="1.9824">
        <ele>152.5067</ele>
        <time>2026-08-29T16:02:07Z</time>
      </trkpt>
      <trkpt lat="43.89562" lon="1.98234">
        <ele>152.513669</ele>
        <time>2026-08-29T16:02:08Z</time>
      </trkpt>
      <trkpt lat="43.89563" lon="1.98228">
        <ele>152.520422</ele>
        <time>2026-08-29T16:02:09Z</time>
      </trkpt>
      <trkpt lat="43.89564" lon="1.98222">
        <ele>152.527211</ele>
        <time>2026-08-29T16:02:10Z</time>
      </trkpt>
      <trkpt lat="43.89565" lon="1.98216">
        <ele>152.534072</ele>
        <time>2026-08-29T16:02:11Z</time>
      </trkpt>
      <trkpt lat="43.89566" lon="1.9821">
        <ele>152.540681</ele>
        <time>2026-08-29T16:02:12Z</time>
      </trkpt>
      <trkpt lat="43.89567" lon="1.98205">
        <ele>152.547073</ele>
        <time>2026-08-29T16:02:13Z</time>
      </trkpt>
      <trkpt lat="43.89568" lon="1.98199">
        <ele>152.553392</ele>
        <time>2026-08-29T16:02:14Z</time>
      </trkpt>
      <trkpt lat="43.89569" lon="1.98194">
        <ele>152.559581</ele>
        <time>2026-08-29T16:02:15Z</time>
      </trkpt>
      <trkpt lat="43.89571" lon="1.98189">
        <ele>152.565924</ele>
        <time>2026-08-29T16:02:16Z</time>
      </trkpt>
      <trkpt lat="43.89572" lon="1.98183">
        <ele>152.572789</ele>
        <time>2026-08-29T16:02:17Z</time>
      </trkpt>
      <trkpt lat="43.89573" lon="1.98177">
        <ele>152.579216</ele>
        <time>2026-08-29T16:02:18Z</time>
      </trkpt>
      <trkpt lat="43.89574" lon="1.98172">
        <ele>152.585771</ele>
        <time>2026-08-29T16:02:19Z</time>
      </trkpt>
      <trkpt lat="43.89576" lon="1.98166">
        <ele>152.5926</ele>
        <time>2026-08-29T16:02:20Z</time>
      </trkpt>
      <trkpt lat="43.89577" lon="1.9816">
        <ele>152.599521</ele>
        <time>2026-08-29T16:02:21Z</time>
      </trkpt>
      <trkpt lat="43.89578" lon="1.98154">
        <ele>152.605758</ele>
        <time>2026-08-29T16:02:22Z</time>
      </trkpt>
      <trkpt lat="43.89579" lon="1.98149">
        <ele>152.612116</ele>
        <time>2026-08-29T16:02:23Z</time>
      </trkpt>
      <trkpt lat="43.8958" lon="1.98144">
        <ele>152.618261</ele>
        <time>2026-08-29T16:02:24Z</time>
      </trkpt>
      <trkpt lat="43.89581" lon="1.98138">
        <ele>152.624458</ele>
        <time>2026-08-29T16:02:25Z</time>
      </trkpt>
      <trkpt lat="43.8958" lon="1.98133">
        <ele>152.63057</ele>
        <time>2026-08-29T16:02:26Z</time>
      </trkpt>
      <trkpt lat="43.89577" lon="1.98128">
        <ele>152.637649</ele>
        <time>2026-08-29T16:02:27Z</time>
      </trkpt>
      <trkpt lat="43.89574" lon="1.98124">
        <ele>152.644261</ele>
        <time>2026-08-29T16:02:28Z</time>
      </trkpt>
      <trkpt lat="43.8957" lon="1.98122">
        <ele>152.650872</ele>
        <time>2026-08-29T16:02:29Z</time>
      </trkpt>
      <trkpt lat="43.89566" lon="1.9812">
        <ele>152.657668</ele>
        <time>2026-08-29T16:02:30Z</time>
      </trkpt>
      <trkpt lat="43.89561" lon="1.98118">
        <ele>152.664919</ele>
        <time>2026-08-29T16:02:31Z</time>
      </trkpt>
      <trkpt lat="43.89558" lon="1.98114">
        <ele>152.671859</ele>
        <time>2026-08-29T16:02:32Z</time>
      </trkpt>
      <trkpt lat="43.89556" lon="1.98109">
        <ele>152.678695</ele>
        <time>2026-08-29T16:02:33Z</time>
      </trkpt>
      <trkpt lat="43.89555" lon="1.98103">
        <ele>152.685556</ele>
        <time>2026-08-29T16:02:34Z</time>
      </trkpt>
      <trkpt lat="43.89555" lon="1.98096">
        <ele>152.692353</ele>
        <time>2026-08-29T16:02:35Z</time>
      </trkpt>
      <trkpt lat="43.89556" lon="1.98091">
        <ele>152.699014</ele>
        <time>2026-08-29T16:02:36Z</time>
      </trkpt>
      <trkpt lat="43.89556" lon="1.98085">
        <ele>152.695866</ele>
        <time>2026-08-29T16:02:37Z</time>
      </trkpt>
      <trkpt lat="43.89557" lon="1.98079">
        <ele>152.690485</ele>
        <time>2026-08-29T16:02:38Z</time>
      </trkpt>
      <trkpt lat="43.89558" lon="1.98072">
        <ele>152.684933</ele>
        <time>2026-08-29T16:02:39Z</time>
      </trkpt>
      <trkpt lat="43.89559" lon="1.98066">
        <ele>152.679491</ele>
        <time>2026-08-29T16:02:40Z</time>
      </trkpt>
      <trkpt lat="43.8956" lon="1.9806">
        <ele>152.673683</ele>
        <time>2026-08-29T16:02:41Z</time>
      </trkpt>
      <trkpt lat="43.89561" lon="1.98053">
        <ele>152.667875</ele>
        <time>2026-08-29T16:02:42Z</time>
      </trkpt>
      <trkpt lat="43.89562" lon="1.98047">
        <ele>152.661989</ele>
        <time>2026-08-29T16:02:43Z</time>
      </trkpt>
      <trkpt lat="43.89563" lon="1.9804">
        <ele>152.656095</ele>
        <time>2026-08-29T16:02:44Z</time>
      </trkpt>
      <trkpt lat="43.89563" lon="1.98033">
        <ele>152.650179</ele>
        <time>2026-08-29T16:02:45Z</time>
      </trkpt>
      <trkpt lat="43.89564" lon="1.98027">
        <ele>152.644138</ele>
        <time>2026-08-29T16:02:46Z</time>
      </trkpt>
      <trkpt lat="43.89565" lon="1.9802">
        <ele>152.63801</ele>
        <time>2026-08-29T16:02:47Z</time>
      </trkpt>
      <trkpt lat="43.89566" lon="1.98013">
        <ele>152.632312</ele>
        <time>2026-08-29T16:02:48Z</time>
      </trkpt>
      <trkpt lat="43.89567" lon="1.98006">
        <ele>152.626247</ele>
        <time>2026-08-29T16:02:49Z</time>
      </trkpt>
      <trkpt lat="43.89568" lon="1.97999">
        <ele>152.619676</ele>
        <time>2026-08-29T16:02:50Z</time>
      </trkpt>
      <trkpt lat="43.8957" lon="1.97992">
        <ele>152.613181</ele>
        <time>2026-08-29T16:02:51Z</time>
      </trkpt>
      <trkpt lat="43.89571" lon="1.97985">
        <ele>152.606795</ele>
        <time>2026-08-29T16:02:52Z</time>
      </trkpt>
      <trkpt lat="43.89572" lon="1.97978">
        <ele>152.600323</ele>
        <time>2026-08-29T16:02:53Z</time>
      </trkpt>
      <trkpt lat="43.89573" lon="1.9797">
        <ele>152.593891</ele>
        <time>2026-08-29T16:02:54Z</time>
      </trkpt>
      <trkpt lat="43.89574" lon="1.97963">
        <ele>152.587545</ele>
        <time>2026-08-29T16:02:55Z</time>
      </trkpt>
      <trkpt lat="43.89575" lon="1.97957">
        <ele>152.581512</ele>
        <time>2026-08-29T16:02:56Z</time>
      </trkpt>
      <trkpt lat="43.89577" lon="1.9795">
        <ele>152.575011</ele>
        <time>2026-08-29T16:02:57Z</time>
      </trkpt>
      <trkpt lat="43.89579" lon="1.97943">
        <ele>152.568517</ele>
        <time>2026-08-29T16:02:58Z</time>
      </trkpt>
      <trkpt lat="43.8958" lon="1.97935">
        <ele>152.56203</ele>
        <time>2026-08-29T16:02:59Z</time>
      </trkpt>
      <trkpt lat="43.89582" lon="1.97928">
        <ele>152.555175</ele>
        <time>2026-08-29T16:03:00Z</time>
      </trkpt>
      <trkpt lat="43.89583" lon="1.97921">
        <ele>152.548626</ele>
        <time>2026-08-29T16:03:01Z</time>
      </trkpt>
      <trkpt lat="43.89585" lon="1.97913">
        <ele>152.541966</ele>
        <time>2026-08-29T16:03:02Z</time>
      </trkpt>
      <trkpt lat="43.89587" lon="1.97906">
        <ele>152.535428</ele>
        <time>2026-08-29T16:03:03Z</time>
      </trkpt>
      <trkpt lat="43.89588" lon="1.97899">
        <ele>152.528558</ele>
        <time>2026-08-29T16:03:04Z</time>
      </trkpt>
      <trkpt lat="43.8959" lon="1.97891">
        <ele>152.521733</ele>
        <time>2026-08-29T16:03:05Z</time>
      </trkpt>
      <trkpt lat="43.89592" lon="1.97884">
        <ele>152.515196</ele>
        <time>2026-08-29T16:03:06Z</time>
      </trkpt>
      <trkpt lat="43.89594" lon="1.97878">
        <ele>152.508859</ele>
        <time>2026-08-29T16:03:07Z</time>
      </trkpt>
      <trkpt lat="43.89596" lon="1.97871">
        <ele>152.502734</ele>
        <time>2026-08-29T16:03:08Z</time>
      </trkpt>
      <trkpt lat="43.89597" lon="1.97864">
        <ele>152.496403</ele>
        <time>2026-08-29T16:03:09Z</time>
      </trkpt>
      <trkpt lat="43.89599" lon="1.97857">
        <ele>152.489865</ele>
        <time>2026-08-29T16:03:10Z</time>
      </trkpt>
      <trkpt lat="43.89601" lon="1.9785">
        <ele>152.483576</ele>
        <time>2026-08-29T16:03:11Z</time>
      </trkpt>
      <trkpt lat="43.89602" lon="1.97843">
        <ele>152.468099</ele>
        <time>2026-08-29T16:03:12Z</time>
      </trkpt>
      <trkpt lat="43.89604" lon="1.97836">
        <ele>152.449527</ele>
        <time>2026-08-29T16:03:13Z</time>
      </trkpt>
      <trkpt lat="43.89606" lon="1.97829">
        <ele>152.43129</ele>
        <time>2026-08-29T16:03:14Z</time>
      </trkpt>
      <trkpt lat="43.89608" lon="1.97821">
        <ele>152.412718</ele>
        <time>2026-08-29T16:03:15Z</time>
      </trkpt>
      <trkpt lat="43.89609" lon="1.97814">
        <ele>152.394022</ele>
        <time>2026-08-29T16:03:16Z</time>
      </trkpt>
      <trkpt lat="43.89611" lon="1.97807">
        <ele>152.375784</ele>
        <time>2026-08-29T16:03:17Z</time>
      </trkpt>
      <trkpt lat="43.89613" lon="1.97799">
        <ele>152.356648</ele>
        <time>2026-08-29T16:03:18Z</time>
      </trkpt>
      <trkpt lat="43.89615" lon="1.97792">
        <ele>152.33762</ele>
        <time>2026-08-29T16:03:19Z</time>
      </trkpt>
      <trkpt lat="43.89616" lon="1.97784">
        <ele>152.319023</ele>
        <time>2026-08-29T16:03:20Z</time>
      </trkpt>
      <trkpt lat="43.89618" lon="1.97777">
        <ele>152.301014</ele>
        <time>2026-08-29T16:03:21Z</time>
      </trkpt>
      <trkpt lat="43.8962" lon="1.9777">
        <ele>152.28244</ele>
        <time>2026-08-29T16:03:22Z</time>
      </trkpt>
      <trkpt lat="43.89622" lon="1.97763">
        <ele>152.263936</ele>
        <time>2026-08-29T16:03:23Z</time>
      </trkpt>
      <trkpt lat="43.89623" lon="1.97755">
        <ele>152.245799</ele>
        <time>2026-08-29T16:03:24Z</time>
      </trkpt>
      <trkpt lat="43.89625" lon="1.97748">
        <ele>152.22799</ele>
        <time>2026-08-29T16:03:25Z</time>
      </trkpt>
      <trkpt lat="43.89626" lon="1.97741">
        <ele>152.210209</ele>
        <time>2026-08-29T16:03:26Z</time>
      </trkpt>
      <trkpt lat="43.89627" lon="1.97735">
        <ele>152.193827</ele>
        <time>2026-08-29T16:03:27Z</time>
      </trkpt>
      <trkpt lat="43.89626" lon="1.97727">
        <ele>152.176205</ele>
        <time>2026-08-29T16:03:28Z</time>
      </trkpt>
      <trkpt lat="43.89625" lon="1.97721">
        <ele>152.159547</ele>
        <time>2026-08-29T16:03:29Z</time>
      </trkpt>
      <trkpt lat="43.89621" lon="1.97715">
        <ele>152.141378</ele>
        <time>2026-08-29T16:03:30Z</time>
      </trkpt>
      <trkpt lat="43.89618" lon="1.9771">
        <ele>152.124127</ele>
        <time>2026-08-29T16:03:31Z</time>
      </trkpt>
      <trkpt lat="43.89614" lon="1.97705">
        <ele>152.108331</ele>
        <time>2026-08-29T16:03:32Z</time>
      </trkpt>
      <trkpt lat="43.89613" lon="1.97699">
        <ele>152.092231</ele>
        <time>2026-08-29T16:03:33Z</time>
      </trkpt>
      <trkpt lat="43.89614" lon="1.97692">
        <ele>152.076935</ele>
        <time>2026-08-29T16:03:34Z</time>
      </trkpt>
      <trkpt lat="43.89616" lon="1.97686">
        <ele>152.059703</ele>
        <time>2026-08-29T16:03:35Z</time>
      </trkpt>
      <trkpt lat="43.8962" lon="1.97682">
        <ele>152.04276</ele>
        <time>2026-08-29T16:03:36Z</time>
      </trkpt>
      <trkpt lat="43.89624" lon="1.97678">
        <ele>152.025745</ele>
        <time>2026-08-29T16:03:37Z</time>
      </trkpt>
      <trkpt lat="43.89629" lon="1.97674">
        <ele>152.008433</ele>
        <time>2026-08-29T16:03:38Z</time>
      </trkpt>
      <trkpt lat="43.89633" lon="1.9767">
        <ele>151.990792</ele>
        <time>2026-08-29T16:03:39Z</time>
      </trkpt>
      <trkpt lat="43.89638" lon="1.97666">
        <ele>151.97291</ele>
        <time>2026-08-29T16:03:40Z</time>
      </trkpt>
      <trkpt lat="43.89643" lon="1.97663">
        <ele>151.954517</ele>
        <time>2026-08-29T16:03:41Z</time>
      </trkpt>
      <trkpt lat="43.89648" lon="1.9766">
        <ele>151.936428</ele>
        <time>2026-08-29T16:03:42Z</time>
      </trkpt>
      <trkpt lat="43.89653" lon="1.97657">
        <ele>151.919346</ele>
        <time>2026-08-29T16:03:43Z</time>
      </trkpt>
      <trkpt lat="43.89658" lon="1.97654">
        <ele>151.901196</ele>
        <time>2026-08-29T16:03:44Z</time>
      </trkpt>
      <trkpt lat="43.89662" lon="1.97652">
        <ele>151.885094</ele>
        <time>2026-08-29T16:03:45Z</time>
      </trkpt>
      <trkpt lat="43.89666" lon="1.97651">
        <ele>151.881182</ele>
        <time>2026-08-29T16:03:46Z</time>
      </trkpt>
      <trkpt lat="43.8967" lon="1.9765">
        <ele>151.881105</ele>
        <time>2026-08-29T16:03:47Z</time>
      </trkpt>
      <trkpt lat="43.89674" lon="1.97649">
        <ele>151.881019</ele>
        <time>2026-08-29T16:03:48Z</time>
      </trkpt>
      <trkpt lat="43.89678" lon="1.97647">
        <ele>151.880936</ele>
        <time>2026-08-29T16:03:49Z</time>
      </trkpt>
      <trkpt lat="43.89683" lon="1.97646">
        <ele>151.880847</ele>
        <time>2026-08-29T16:03:50Z</time>
      </trkpt>
      <trkpt lat="43.89687" lon="1.97644">
        <ele>151.880757</ele>
        <time>2026-08-29T16:03:51Z</time>
      </trkpt>
      <trkpt lat="43.89692" lon="1.97642">
        <ele>151.880659</ele>
        <time>2026-08-29T16:03:52Z</time>
      </trkpt>
      <trkpt lat="43.89696" lon="1.97639">
        <ele>151.880563</ele>
        <time>2026-08-29T16:03:53Z</time>
      </trkpt>
      <trkpt lat="43.897" lon="1.97635">
        <ele>151.880468</ele>
        <time>2026-08-29T16:03:54Z</time>
      </trkpt>
      <trkpt lat="43.89704" lon="1.97631">
        <ele>151.880367</ele>
        <time>2026-08-29T16:03:55Z</time>
      </trkpt>
      <trkpt lat="43.89708" lon="1.97627">
        <ele>151.880272</ele>
        <time>2026-08-29T16:03:56Z</time>
      </trkpt>
      <trkpt lat="43.89712" lon="1.97624">
        <ele>151.880182</ele>
        <time>2026-08-29T16:03:57Z</time>
      </trkpt>
      <trkpt lat="43.89715" lon="1.9762">
        <ele>151.880093</ele>
        <time>2026-08-29T16:03:58Z</time>
      </trkpt>
      <trkpt lat="43.89719" lon="1.97617">
        <ele>151.880008</ele>
        <time>2026-08-29T16:03:59Z</time>
      </trkpt>
      <trkpt lat="43.89722" lon="1.97614">
        <ele>151.879927</ele>
        <time>2026-08-29T16:04:00Z</time>
      </trkpt>
      <trkpt lat="43.89726" lon="1.97611">
        <ele>151.879846</ele>
        <time>2026-08-29T16:04:01Z</time>
      </trkpt>
      <trkpt lat="43.89729" lon="1.97607">
        <ele>151.879761</ele>
        <time>2026-08-29T16:04:02Z</time>
      </trkpt>
      <trkpt lat="43.89732" lon="1.97602">
        <ele>151.879669</ele>
        <time>2026-08-29T16:04:03Z</time>
      </trkpt>
      <trkpt lat="43.89736" lon="1.97598">
        <ele>151.879577</ele>
        <time>2026-08-29T16:04:04Z</time>
      </trkpt>
      <trkpt lat="43.89739" lon="1.97593">
        <ele>151.879483</ele>
        <time>2026-08-29T16:04:05Z</time>
      </trkpt>
      <trkpt lat="43.89743" lon="1.97588">
        <ele>151.879383</ele>
        <time>2026-08-29T16:04:06Z</time>
      </trkpt>
      <trkpt lat="43.89746" lon="1.97584">
        <ele>151.879283</ele>
        <time>2026-08-29T16:04:07Z</time>
      </trkpt>
      <trkpt lat="43.8975" lon="1.97579">
        <ele>151.879182</ele>
        <time>2026-08-29T16:04:08Z</time>
      </trkpt>
      <trkpt lat="43.89754" lon="1.97575">
        <ele>151.879087</ele>
        <time>2026-08-29T16:04:09Z</time>
      </trkpt>
      <trkpt lat="43.89757" lon="1.9757">
        <ele>151.87899</ele>
        <time>2026-08-29T16:04:10Z</time>
      </trkpt>
      <trkpt lat="43.8976" lon="1.97564">
        <ele>151.878894</ele>
        <time>2026-08-29T16:04:11Z</time>
      </trkpt>
      <trkpt lat="43.89764" lon="1.9756">
        <ele>151.878798</ele>
        <time>2026-08-29T16:04:12Z</time>
      </trkpt>
      <trkpt lat="43.89766" lon="1.97554">
        <ele>151.878706</ele>
        <time>2026-08-29T16:04:13Z</time>
      </trkpt>
      <trkpt lat="43.89769" lon="1.97549">
        <ele>151.878618</ele>
        <time>2026-08-29T16:04:14Z</time>
      </trkpt>
      <trkpt lat="43.89771" lon="1.97544">
        <ele>151.878531</ele>
        <time>2026-08-29T16:04:15Z</time>
      </trkpt>
      <trkpt lat="43.89774" lon="1.97539">
        <ele>151.878444</ele>
        <time>2026-08-29T16:04:16Z</time>
      </trkpt>
      <trkpt lat="43.89777" lon="1.97534">
        <ele>151.878355</ele>
        <time>2026-08-29T16:04:17Z</time>
      </trkpt>
      <trkpt lat="43.89779" lon="1.97529">
        <ele>151.878257</ele>
        <time>2026-08-29T16:04:18Z</time>
      </trkpt>
      <trkpt lat="43.89782" lon="1.97523">
        <ele>151.87816</ele>
        <time>2026-08-29T16:04:19Z</time>
      </trkpt>
      <trkpt lat="43.89785" lon="1.97518">
        <ele>151.87806</ele>
        <time>2026-08-29T16:04:20Z</time>
      </trkpt>
      <trkpt lat="43.89789" lon="1.97512">
        <ele>151.877958</ele>
        <time>2026-08-29T16:04:21Z</time>
      </trkpt>
      <trkpt lat="43.89792" lon="1.97506">
        <ele>151.877856</ele>
        <time>2026-08-29T16:04:22Z</time>
      </trkpt>
      <trkpt lat="43.89795" lon="1.97501">
        <ele>151.877755</ele>
        <time>2026-08-29T16:04:23Z</time>
      </trkpt>
      <trkpt lat="43.89797" lon="1.97495">
        <ele>151.875183</ele>
        <time>2026-08-29T16:04:24Z</time>
      </trkpt>
      <trkpt lat="43.898" lon="1.9749">
        <ele>151.858249</ele>
        <time>2026-08-29T16:04:25Z</time>
      </trkpt>
      <trkpt lat="43.89803" lon="1.97484">
        <ele>151.841519</ele>
        <time>2026-08-29T16:04:26Z</time>
      </trkpt>
      <trkpt lat="43.89806" lon="1.97479">
        <ele>151.824376</ele>
        <time>2026-08-29T16:04:27Z</time>
      </trkpt>
      <trkpt lat="43.89809" lon="1.97473">
        <ele>151.807234</ele>
        <time>2026-08-29T16:04:28Z</time>
      </trkpt>
      <trkpt lat="43.89811" lon="1.97468">
        <ele>151.790702</ele>
        <time>2026-08-29T16:04:29Z</time>
      </trkpt>
      <trkpt lat="43.89814" lon="1.97463">
        <ele>151.774365</ele>
        <time>2026-08-29T16:04:30Z</time>
      </trkpt>
      <trkpt lat="43.89816" lon="1.97457">
        <ele>151.757214</ele>
        <time>2026-08-29T16:04:31Z</time>
      </trkpt>
      <trkpt lat="43.89819" lon="1.97452">
        <ele>151.740486</ele>
        <time>2026-08-29T16:04:32Z</time>
      </trkpt>
      <trkpt lat="43.89822" lon="1.97446">
        <ele>151.723552</ele>
        <time>2026-08-29T16:04:33Z</time>
      </trkpt>
      <trkpt lat="43.89825" lon="1.97441">
        <ele>151.706401</ele>
        <time>2026-08-29T16:04:34Z</time>
      </trkpt>
      <trkpt lat="43.89827" lon="1.97435">
        <ele>151.689039</ele>
        <time>2026-08-29T16:04:35Z</time>
      </trkpt>
      <trkpt lat="43.8983" lon="1.9743">
        <ele>151.671691</ele>
        <time>2026-08-29T16:04:36Z</time>
      </trkpt>
      <trkpt lat="43.89833" lon="1.97424">
        <ele>151.654344</ele>
        <time>2026-08-29T16:04:37Z</time>
      </trkpt>
      <trkpt lat="43.89836" lon="1.97418">
        <ele>151.637193</ele>
        <time>2026-08-29T16:04:38Z</time>
      </trkpt>
      <trkpt lat="43.89839" lon="1.97412">
        <ele>151.619372</ele>
        <time>2026-08-29T16:04:39Z</time>
      </trkpt>
      <trkpt lat="43.89841" lon="1.97407">
        <ele>151.601582</ele>
        <time>2026-08-29T16:04:40Z</time>
      </trkpt>
      <trkpt lat="43.89844" lon="1.97401">
        <ele>151.584557</ele>
        <time>2026-08-29T16:04:41Z</time>
      </trkpt>
      <trkpt lat="43.89846" lon="1.97395">
        <ele>151.566954</ele>
        <time>2026-08-29T16:04:42Z</time>
      </trkpt>
      <trkpt lat="43.89849" lon="1.97389">
        <ele>151.549969</ele>
        <time>2026-08-29T16:04:43Z</time>
      </trkpt>
      <trkpt lat="43.89851" lon="1.97383">
        <ele>151.532894</ele>
        <time>2026-08-29T16:04:44Z</time>
      </trkpt>
      <trkpt lat="43.89853" lon="1.97377">
        <ele>151.516067</ele>
        <time>2026-08-29T16:04:45Z</time>
      </trkpt>
      <trkpt lat="43.89855" lon="1.97371">
        <ele>151.499008</ele>
        <time>2026-08-29T16:04:46Z</time>
      </trkpt>
      <trkpt lat="43.89857" lon="1.97365">
        <ele>151.481873</ele>
        <time>2026-08-29T16:04:47Z</time>
      </trkpt>
      <trkpt lat="43.89859" lon="1.97359">
        <ele>151.465351</ele>
        <time>2026-08-29T16:04:48Z</time>
      </trkpt>
      <trkpt lat="43.89861" lon="1.97354">
        <ele>151.449743</ele>
        <time>2026-08-29T16:04:49Z</time>
      </trkpt>
      <trkpt lat="43.89863" lon="1.97348">
        <ele>151.434655</ele>
        <time>2026-08-29T16:04:50Z</time>
      </trkpt>
      <trkpt lat="43.89864" lon="1.97343">
        <ele>151.419808</ele>
        <time>2026-08-29T16:04:51Z</time>
      </trkpt>
      <trkpt lat="43.89866" lon="1.97338">
        <ele>151.405581</ele>
        <time>2026-08-29T16:04:52Z</time>
      </trkpt>
      <trkpt lat="43.89868" lon="1.97333">
        <ele>151.391417</ele>
        <time>2026-08-29T16:04:53Z</time>
      </trkpt>
      <trkpt lat="43.89869" lon="1.97327">
        <ele>151.376418</ele>
        <time>2026-08-29T16:04:54Z</time>
      </trkpt>
      <trkpt lat="43.89871" lon="1.97322">
        <ele>151.361556</ele>
        <time>2026-08-29T16:04:55Z</time>
      </trkpt>
      <trkpt lat="43.89873" lon="1.97316">
        <ele>151.346089</ele>
        <time>2026-08-29T16:04:56Z</time>
      </trkpt>
      <trkpt lat="43.89874" lon="1.97311">
        <ele>151.330518</ele>
        <time>2026-08-29T16:04:57Z</time>
      </trkpt>
      <trkpt lat="43.89876" lon="1.97305">
        <ele>151.314763</ele>
        <time>2026-08-29T16:04:58Z</time>
      </trkpt>
      <trkpt lat="43.89878" lon="1.97299">
        <ele>151.298922</ele>
        <time>2026-08-29T16:04:59Z</time>
      </trkpt>
      <trkpt lat="43.8988" lon="1.97294">
        <ele>151.28322</ele>
        <time>2026-08-29T16:05:00Z</time>
      </trkpt>
      <trkpt lat="43.89881" lon="1.97288">
        <ele>151.267146</ele>
        <time>2026-08-29T16:05:01Z</time>
      </trkpt>
      <trkpt lat="43.89883" lon="1.97282">
        <ele>151.250779</ele>
        <time>2026-08-29T16:05:02Z</time>
      </trkpt>
      <trkpt lat="43.89885" lon="1.97276">
        <ele>151.242472</ele>
        <time>2026-08-29T16:05:03Z</time>
      </trkpt>
      <trkpt lat="43.89888" lon="1.97271">
        <ele>151.242826</ele>
        <time>2026-08-29T16:05:04Z</time>
      </trkpt>
      <trkpt lat="43.8989" lon="1.97265">
        <ele>151.243191</ele>
        <time>2026-08-29T16:05:05Z</time>
      </trkpt>
      <trkpt lat="43.89893" lon="1.97259">
        <ele>151.243552</ele>
        <time>2026-08-29T16:05:06Z</time>
      </trkpt>
      <trkpt lat="43.89895" lon="1.97253">
        <ele>151.243915</ele>
        <time>2026-08-29T16:05:07Z</time>
      </trkpt>
      <trkpt lat="43.89898" lon="1.97248">
        <ele>151.244257</ele>
        <time>2026-08-29T16:05:08Z</time>
      </trkpt>
      <trkpt lat="43.89901" lon="1.97243">
        <ele>151.244608</ele>
        <time>2026-08-29T16:05:09Z</time>
      </trkpt>
      <trkpt lat="43.89904" lon="1.97239">
        <ele>151.244947</ele>
        <time>2026-08-29T16:05:10Z</time>
      </trkpt>
      <trkpt lat="43.89907" lon="1.97234">
        <ele>151.245282</ele>
        <time>2026-08-29T16:05:11Z</time>
      </trkpt>
      <trkpt lat="43.8991" lon="1.9723">
        <ele>151.245607</ele>
        <time>2026-08-29T16:05:12Z</time>
      </trkpt>
      <trkpt lat="43.89913" lon="1.97225">
        <ele>151.245944</ele>
        <time>2026-08-29T16:05:13Z</time>
      </trkpt>
      <trkpt lat="43.89916" lon="1.97221">
        <ele>151.246279</ele>
        <time>2026-08-29T16:05:14Z</time>
      </trkpt>
      <trkpt lat="43.89919" lon="1.97216">
        <ele>151.246621</ele>
        <time>2026-08-29T16:05:15Z</time>
      </trkpt>
      <trkpt lat="43.89923" lon="1.97212">
        <ele>151.246967</ele>
        <time>2026-08-29T16:05:16Z</time>
      </trkpt>
      <trkpt lat="43.89926" lon="1.97207">
        <ele>151.24731</ele>
        <time>2026-08-29T16:05:17Z</time>
      </trkpt>
      <trkpt lat="43.89929" lon="1.97203">
        <ele>151.247644</ele>
        <time>2026-08-29T16:05:18Z</time>
      </trkpt>
      <trkpt lat="43.89932" lon="1.97199">
        <ele>151.24797</ele>
        <time>2026-08-29T16:05:19Z</time>
      </trkpt>
      <trkpt lat="43.89935" lon="1.97195">
        <ele>151.248293</ele>
        <time>2026-08-29T16:05:20Z</time>
      </trkpt>
      <trkpt lat="43.89939" lon="1.9719">
        <ele>151.248627</ele>
        <time>2026-08-29T16:05:21Z</time>
      </trkpt>
      <trkpt lat="43.89942" lon="1.97186">
        <ele>151.248953</ele>
        <time>2026-08-29T16:05:22Z</time>
      </trkpt>
      <trkpt lat="43.89945" lon="1.97182">
        <ele>151.249285</ele>
        <time>2026-08-29T16:05:23Z</time>
      </trkpt>
      <trkpt lat="43.89948" lon="1.97178">
        <ele>151.249604</ele>
        <time>2026-08-29T16:05:24Z</time>
      </trkpt>
      <trkpt lat="43.89951" lon="1.97174">
        <ele>151.249914</ele>
        <time>2026-08-29T16:05:25Z</time>
      </trkpt>
      <trkpt lat="43.89954" lon="1.9717">
        <ele>151.25023</ele>
        <time>2026-08-29T16:05:26Z</time>
      </trkpt>
      <trkpt lat="43.89958" lon="1.97166">
        <ele>151.25055</ele>
        <time>2026-08-29T16:05:27Z</time>
      </trkpt>
      <trkpt lat="43.8996" lon="1.97162">
        <ele>151.250853</ele>
        <time>2026-08-29T16:05:28Z</time>
      </trkpt>
      <trkpt lat="43.89963" lon="1.97159">
        <ele>151.251154</ele>
        <time>2026-08-29T16:05:29Z</time>
      </trkpt>
      <trkpt lat="43.89966" lon="1.97155">
        <ele>151.251469</ele>
        <time>2026-08-29T16:05:30Z</time>
      </trkpt>
      <trkpt lat="43.8997" lon="1.97151">
        <ele>151.251803</ele>
        <time>2026-08-29T16:05:31Z</time>
      </trkpt>
      <trkpt lat="43.89973" lon="1.97147">
        <ele>151.252121</ele>
        <time>2026-08-29T16:05:32Z</time>
      </trkpt>
      <trkpt lat="43.89976" lon="1.97143">
        <ele>151.252423</ele>
        <time>2026-08-29T16:05:33Z</time>
      </trkpt>
      <trkpt lat="43.89979" lon="1.97139">
        <ele>151.252728</ele>
        <time>2026-08-29T16:05:34Z</time>
      </trkpt>
      <trkpt lat="43.89982" lon="1.97135">
        <ele>151.253037</ele>
        <time>2026-08-29T16:05:35Z</time>
      </trkpt>
      <trkpt lat="43.89985" lon="1.97131">
        <ele>151.253351</ele>
        <time>2026-08-29T16:05:36Z</time>
      </trkpt>
      <trkpt lat="43.89988" lon="1.97127">
        <ele>151.253666</ele>
        <time>2026-08-29T16:05:37Z</time>
      </trkpt>
      <trkpt lat="43.89991" lon="1.97122">
        <ele>151.253993</ele>
        <time>2026-08-29T16:05:38Z</time>
      </trkpt>
      <trkpt lat="43.89994" lon="1.97118">
        <ele>151.254327</ele>
        <time>2026-08-29T16:05:39Z</time>
      </trkpt>
      <trkpt lat="43.89997" lon="1.97113">
        <ele>151.254677</ele>
        <time>2026-08-29T16:05:40Z</time>
      </trkpt>
      <trkpt lat="43.9" lon="1.97108">
        <ele>151.255034</ele>
        <time>2026-08-29T16:05:41Z</time>
      </trkpt>
      <trkpt lat="43.90003" lon="1.97103">
        <ele>151.255398</ele>
        <time>2026-08-29T16:05:42Z</time>
      </trkpt>
      <trkpt lat="43.90007" lon="1.97098">
        <ele>151.255763</ele>
        <time>2026-08-29T16:05:43Z</time>
      </trkpt>
      <trkpt lat="43.9001" lon="1.97093">
        <ele>151.209061</ele>
        <time>2026-08-29T16:05:44Z</time>
      </trkpt>
      <trkpt lat="43.90013" lon="1.97089">
        <ele>151.161622</ele>
        <time>2026-08-29T16:05:45Z</time>
      </trkpt>
      <trkpt lat="43.90016" lon="1.97084">
        <ele>151.116541</ele>
        <time>2026-08-29T16:05:46Z</time>
      </trkpt>
      <trkpt lat="43.90019" lon="1.9708">
        <ele>151.070505</ele>
        <time>2026-08-29T16:05:47Z</time>
      </trkpt>
      <trkpt lat="43.90022" lon="1.97075">
        <ele>151.024469</ele>
        <time>2026-08-29T16:05:48Z</time>
      </trkpt>
      <trkpt lat="43.90025" lon="1.9707">
        <ele>150.977177</ele>
        <time>2026-08-29T16:05:49Z</time>
      </trkpt>
      <trkpt lat="43.90028" lon="1.97066">
        <ele>150.929319</ele>
        <time>2026-08-29T16:05:50Z</time>
      </trkpt>
      <trkpt lat="43.90031" lon="1.97061">
        <ele>150.882027</ele>
        <time>2026-08-29T16:05:51Z</time>
      </trkpt>
      <trkpt lat="43.90034" lon="1.97056">
        <ele>150.833597</ele>
        <time>2026-08-29T16:05:52Z</time>
      </trkpt>
      <trkpt lat="43.90037" lon="1.97051">
        <ele>150.787082</ele>
        <time>2026-08-29T16:05:53Z</time>
      </trkpt>
      <trkpt lat="43.90039" lon="1.97046">
        <ele>150.740027</ele>
        <time>2026-08-29T16:05:54Z</time>
      </trkpt>
      <trkpt lat="43.90042" lon="1.97041">
        <ele>150.691735</ele>
        <time>2026-08-29T16:05:55Z</time>
      </trkpt>
      <trkpt lat="43.90044" lon="1.97035">
        <ele>150.643391</ele>
        <time>2026-08-29T16:05:56Z</time>
      </trkpt>
      <trkpt lat="43.90047" lon="1.9703">
        <ele>150.59572</ele>
        <time>2026-08-29T16:05:57Z</time>
      </trkpt>
      <trkpt lat="43.9005" lon="1.97025">
        <ele>150.548054</ele>
        <time>2026-08-29T16:05:58Z</time>
      </trkpt>
      <trkpt lat="43.90052" lon="1.9702">
        <ele>150.502175</ele>
        <time>2026-08-29T16:05:59Z</time>
      </trkpt>
      <trkpt lat="43.90054" lon="1.97015">
        <ele>150.457405</ele>
        <time>2026-08-29T16:06:00Z</time>
      </trkpt>
      <trkpt lat="43.90056" lon="1.97009">
        <ele>150.410158</ele>
        <time>2026-08-29T16:06:01Z</time>
      </trkpt>
      <trkpt lat="43.90059" lon="1.97004">
        <ele>150.360434</ele>
        <time>2026-08-29T16:06:02Z</time>
      </trkpt>
      <trkpt lat="43.90061" lon="1.96999">
        <ele>150.312763</ele>
        <time>2026-08-29T16:06:03Z</time>
      </trkpt>
      <trkpt lat="43.90064" lon="1.96993">
        <ele>150.266304</ele>
        <time>2026-08-29T16:06:04Z</time>
      </trkpt>
      <trkpt lat="43.90066" lon="1.96988">
        <ele>150.221407</ele>
        <time>2026-08-29T16:06:05Z</time>
      </trkpt>
      <trkpt lat="43.90068" lon="1.96983">
        <ele>150.173656</ele>
        <time>2026-08-29T16:06:06Z</time>
      </trkpt>
      <trkpt lat="43.9007" lon="1.96977">
        <ele>150.126774</ele>
        <time>2026-08-29T16:06:07Z</time>
      </trkpt>
      <trkpt lat="43.90072" lon="1.96971">
        <ele>150.080154</ele>
        <time>2026-08-29T16:06:08Z</time>
      </trkpt>
      <trkpt lat="43.90075" lon="1.96966">
        <ele>150.032442</ele>
        <time>2026-08-29T16:06:09Z</time>
      </trkpt>
      <trkpt lat="43.90077" lon="1.96961">
        <ele>149.987024</ele>
        <time>2026-08-29T16:06:10Z</time>
      </trkpt>
      <trkpt lat="43.90079" lon="1.96955">
        <ele>149.940623</ele>
        <time>2026-08-29T16:06:11Z</time>
      </trkpt>
      <trkpt lat="43.9008" lon="1.9695">
        <ele>149.898036</ele>
        <time>2026-08-29T16:06:12Z</time>
      </trkpt>
      <trkpt lat="43.90082" lon="1.96945">
        <ele>149.856547</ele>
        <time>2026-08-29T16:06:13Z</time>
      </trkpt>
      <trkpt lat="43.90084" lon="1.9694">
        <ele>149.813972</ele>
        <time>2026-08-29T16:06:14Z</time>
      </trkpt>
      <trkpt lat="43.90086" lon="1.96935">
        <ele>149.771125</ele>
        <time>2026-08-29T16:06:15Z</time>
      </trkpt>
      <trkpt lat="43.90089" lon="1.96931">
        <ele>149.72702</ele>
        <time>2026-08-29T16:06:16Z</time>
      </trkpt>
      <trkpt lat="43.90092" lon="1.96927">
        <ele>149.678926</ele>
        <time>2026-08-29T16:06:17Z</time>
      </trkpt>
      <trkpt lat="43.90096" lon="1.96924">
        <ele>149.632097</ele>
        <time>2026-08-29T16:06:18Z</time>
      </trkpt>
      <trkpt lat="43.901" lon="1.96922">
        <ele>149.588092</ele>
        <time>2026-08-29T16:06:19Z</time>
      </trkpt>
      <trkpt lat="43.90105" lon="1.96921">
        <ele>149.539716</ele>
        <time>2026-08-29T16:06:20Z</time>
      </trkpt>
      <trkpt lat="43.90109" lon="1.96919">
        <ele>149.492768</ele>
        <time>2026-08-29T16:06:21Z</time>
      </trkpt>
      <trkpt lat="43.90114" lon="1.96917">
        <ele>149.444818</ele>
        <time>2026-08-29T16:06:22Z</time>
      </trkpt>
      <trkpt lat="43.90118" lon="1.96915">
        <ele>149.397893</ele>
        <time>2026-08-29T16:06:23Z</time>
      </trkpt>
      <trkpt lat="43.90122" lon="1.96912">
        <ele>149.277408</ele>
        <time>2026-08-29T16:06:24Z</time>
      </trkpt>
      <trkpt lat="43.90127" lon="1.96909">
        <ele>149.091586</ele>
        <time>2026-08-29T16:06:25Z</time>
      </trkpt>
      <trkpt lat="43.90131" lon="1.96906">
        <ele>148.8933</ele>
        <time>2026-08-29T16:06:26Z</time>
      </trkpt>
      <trkpt lat="43.90136" lon="1.96903">
        <ele>148.689314</ele>
        <time>2026-08-29T16:06:27Z</time>
      </trkpt>
      <trkpt lat="43.90141" lon="1.96899">
        <ele>148.472518</ele>
        <time>2026-08-29T16:06:28Z</time>
      </trkpt>
      <trkpt lat="43.90147" lon="1.96895">
        <ele>148.239817</ele>
        <time>2026-08-29T16:06:29Z</time>
      </trkpt>
      <trkpt lat="43.90152" lon="1.96889">
        <ele>147.989041</ele>
        <time>2026-08-29T16:06:30Z</time>
      </trkpt>
      <trkpt lat="43.90158" lon="1.96883">
        <ele>147.731643</ele>
        <time>2026-08-29T16:06:31Z</time>
      </trkpt>
      <trkpt lat="43.90163" lon="1.96876">
        <ele>147.458439</ele>
        <time>2026-08-29T16:06:32Z</time>
      </trkpt>
      <trkpt lat="43.90168" lon="1.96868">
        <ele>147.155504</ele>
        <time>2026-08-29T16:06:33Z</time>
      </trkpt>
      <trkpt lat="43.90174" lon="1.96859">
        <ele>146.838668</ele>
        <time>2026-08-29T16:06:34Z</time>
      </trkpt>
      <trkpt lat="43.90179" lon="1.96849">
        <ele>146.512412</ele>
        <time>2026-08-29T16:06:35Z</time>
      </trkpt>
      <trkpt lat="43.90184" lon="1.96839">
        <ele>146.157553</ele>
        <time>2026-08-29T16:06:36Z</time>
      </trkpt>
      <trkpt lat="43.90189" lon="1.96827">
        <ele>145.795093</ele>
        <time>2026-08-29T16:06:37Z</time>
      </trkpt>
      <trkpt lat="43.90194" lon="1.96815">
        <ele>145.441329</ele>
        <time>2026-08-29T16:06:38Z</time>
      </trkpt>
      <trkpt lat="43.90197" lon="1.96804">
        <ele>145.101458</ele>
        <time>2026-08-29T16:06:39Z</time>
      </trkpt>
      <trkpt lat="43.90201" lon="1.96792">
        <ele>144.764906</ele>
        <time>2026-08-29T16:06:40Z</time>
      </trkpt>
      <trkpt lat="43.90204" lon="1.96781">
        <ele>144.446279</ele>
        <time>2026-08-29T16:06:41Z</time>
      </trkpt>
      <trkpt lat="43.90206" lon="1.96771">
        <ele>144.140336</ele>
        <time>2026-08-29T16:06:42Z</time>
      </trkpt>
      <trkpt lat="43.90208" lon="1.9676">
        <ele>143.837465</ele>
        <time>2026-08-29T16:06:43Z</time>
      </trkpt>
      <trkpt lat="43.90209" lon="1.96748">
        <ele>143.528371</ele>
        <time>2026-08-29T16:06:44Z</time>
      </trkpt>
      <trkpt lat="43.9021" lon="1.96738">
        <ele>143.237204</ele>
        <time>2026-08-29T16:06:45Z</time>
      </trkpt>
      <trkpt lat="43.90211" lon="1.96727">
        <ele>142.948203</ele>
        <time>2026-08-29T16:06:46Z</time>
      </trkpt>
      <trkpt lat="43.90212" lon="1.96717">
        <ele>142.670412</ele>
        <time>2026-08-29T16:06:47Z</time>
      </trkpt>
      <trkpt lat="43.90213" lon="1.96707">
        <ele>142.585628</ele>
        <time>2026-08-29T16:06:48Z</time>
      </trkpt>
      <trkpt lat="43.90214" lon="1.96698">
        <ele>142.527412</ele>
        <time>2026-08-29T16:06:49Z</time>
      </trkpt>
      <trkpt lat="43.90216" lon="1.96689">
        <ele>142.468136</ele>
        <time>2026-08-29T16:06:50Z</time>
      </trkpt>
      <trkpt lat="43.90217" lon="1.96679">
        <ele>142.407283</ele>
        <time>2026-08-29T16:06:51Z</time>
      </trkpt>
      <trkpt lat="43.90219" lon="1.9667">
        <ele>142.347041</ele>
        <time>2026-08-29T16:06:52Z</time>
      </trkpt>
      <trkpt lat="43.9022" lon="1.96661">
        <ele>142.288021</ele>
        <time>2026-08-29T16:06:53Z</time>
      </trkpt>
      <trkpt lat="43.90222" lon="1.96652">
        <ele>142.233038</ele>
        <time>2026-08-29T16:06:54Z</time>
      </trkpt>
      <trkpt lat="43.90223" lon="1.96644">
        <ele>142.183349</ele>
        <time>2026-08-29T16:06:55Z</time>
      </trkpt>
      <trkpt lat="43.90224" lon="1.96637">
        <ele>142.136239</ele>
        <time>2026-08-29T16:06:56Z</time>
      </trkpt>
      <trkpt lat="43.90225" lon="1.96629">
        <ele>142.087972</ele>
        <time>2026-08-29T16:06:57Z</time>
      </trkpt>
      <trkpt lat="43.90227" lon="1.96622">
        <ele>142.037068</ele>
        <time>2026-08-29T16:06:58Z</time>
      </trkpt>
      <trkpt lat="43.90228" lon="1.96614">
        <ele>141.985556</ele>
        <time>2026-08-29T16:06:59Z</time>
      </trkpt>
      <trkpt lat="43.90229" lon="1.96606">
        <ele>141.936262</ele>
        <time>2026-08-29T16:07:00Z</time>
      </trkpt>
      <trkpt lat="43.9023" lon="1.96598">
        <ele>141.887922</ele>
        <time>2026-08-29T16:07:01Z</time>
      </trkpt>
      <trkpt lat="43.90231" lon="1.96591">
        <ele>141.840348</ele>
        <time>2026-08-29T16:07:02Z</time>
      </trkpt>
      <trkpt lat="43.90232" lon="1.96583">
        <ele>141.791054</ele>
        <time>2026-08-29T16:07:03Z</time>
      </trkpt>
      <trkpt lat="43.90233" lon="1.96576">
        <ele>141.744549</ele>
        <time>2026-08-29T16:07:04Z</time>
      </trkpt>
      <trkpt lat="43.90234" lon="1.96568">
        <ele>141.698208</ele>
        <time>2026-08-29T16:07:05Z</time>
      </trkpt>
      <trkpt lat="43.90235" lon="1.96561">
        <ele>141.65055</ele>
        <time>2026-08-29T16:07:06Z</time>
      </trkpt>
      <trkpt lat="43.90236" lon="1.96553">
        <ele>141.601594</ele>
        <time>2026-08-29T16:07:07Z</time>
      </trkpt>
      <trkpt lat="43.90237" lon="1.96545">
        <ele>141.552167</ele>
        <time>2026-08-29T16:07:08Z</time>
      </trkpt>
      <trkpt lat="43.90238" lon="1.96538">
        <ele>141.505467</ele>
        <time>2026-08-29T16:07:09Z</time>
      </trkpt>
      <trkpt lat="43.90239" lon="1.9653">
        <ele>141.45635</ele>
        <time>2026-08-29T16:07:10Z</time>
      </trkpt>
      <trkpt lat="43.9024" lon="1.96523">
        <ele>141.408776</ele>
        <time>2026-08-29T16:07:11Z</time>
      </trkpt>
      <trkpt lat="43.9024" lon="1.96516">
        <ele>141.362967</ele>
        <time>2026-08-29T16:07:12Z</time>
      </trkpt>
      <trkpt lat="43.90241" lon="1.96508">
        <ele>141.316462</ele>
        <time>2026-08-29T16:07:13Z</time>
      </trkpt>
      <trkpt lat="43.90241" lon="1.96501">
        <ele>141.269246</ele>
        <time>2026-08-29T16:07:14Z</time>
      </trkpt>
      <trkpt lat="43.90242" lon="1.96494">
        <ele>141.224609</ele>
        <time>2026-08-29T16:07:15Z</time>
      </trkpt>
      <trkpt lat="43.90242" lon="1.96486">
        <ele>141.178307</ele>
        <time>2026-08-29T16:07:16Z</time>
      </trkpt>
      <trkpt lat="43.90242" lon="1.96479">
        <ele>141.132004</ele>
        <time>2026-08-29T16:07:17Z</time>
      </trkpt>
      <trkpt lat="43.90241" lon="1.96471">
        <ele>141.085629</ele>
        <time>2026-08-29T16:07:18Z</time>
      </trkpt>
      <trkpt lat="43.90241" lon="1.96464">
        <ele>141.065</ele>
        <time>2026-08-29T16:07:19Z</time>
      </trkpt>
      <trkpt lat="43.90241" lon="1.96456">
        <ele>141.050075</ele>
        <time>2026-08-29T16:07:20Z</time>
      </trkpt>
      <trkpt lat="43.90242" lon="1.96449">
        <ele>141.035339</ele>
        <time>2026-08-29T16:07:21Z</time>
      </trkpt>
      <trkpt lat="43.90242" lon="1.96441">
        <ele>141.020013</ele>
        <time>2026-08-29T16:07:22Z</time>
      </trkpt>
      <trkpt lat="43.90242" lon="1.96433">
        <ele>141.004084</ele>
        <time>2026-08-29T16:07:23Z</time>
      </trkpt>
      <trkpt lat="43.90242" lon="1.96426">
        <ele>140.988738</ele>
        <time>2026-08-29T16:07:24Z</time>
      </trkpt>
      <trkpt lat="43.90243" lon="1.96418">
        <ele>140.973971</ele>
        <time>2026-08-29T16:07:25Z</time>
      </trkpt>
      <trkpt lat="43.90243" lon="1.9641">
        <ele>140.958427</ele>
        <time>2026-08-29T16:07:26Z</time>
      </trkpt>
      <trkpt lat="43.90243" lon="1.96403">
        <ele>140.944201</ele>
        <time>2026-08-29T16:07:27Z</time>
      </trkpt>
      <trkpt lat="43.90244" lon="1.96396">
        <ele>140.930137</ele>
        <time>2026-08-29T16:07:28Z</time>
      </trkpt>
      <trkpt lat="43.90245" lon="1.96389">
        <ele>140.915791</ele>
        <time>2026-08-29T16:07:29Z</time>
      </trkpt>
      <trkpt lat="43.90246" lon="1.96382">
        <ele>140.900661</ele>
        <time>2026-08-29T16:07:30Z</time>
      </trkpt>
      <trkpt lat="43.90247" lon="1.96374">
        <ele>140.885482</ele>
        <time>2026-08-29T16:07:31Z</time>
      </trkpt>
      <trkpt lat="43.90248" lon="1.96367">
        <ele>140.870446</ele>
        <time>2026-08-29T16:07:32Z</time>
      </trkpt>
      <trkpt lat="43.90249" lon="1.9636">
        <ele>140.855994</ele>
        <time>2026-08-29T16:07:33Z</time>
      </trkpt>
      <trkpt lat="43.9025" lon="1.96353">
        <ele>140.841931</ele>
        <time>2026-08-29T16:07:34Z</time>
      </trkpt>
      <trkpt lat="43.90251" lon="1.96346">
        <ele>140.828173</ele>
        <time>2026-08-29T16:07:35Z</time>
      </trkpt>
      <trkpt lat="43.90252" lon="1.96339">
        <ele>140.813661</ele>
        <time>2026-08-29T16:07:36Z</time>
      </trkpt>
      <trkpt lat="43.90254" lon="1.96331">
        <ele>140.798435</ele>
        <time>2026-08-29T16:07:37Z</time>
      </trkpt>
      <trkpt lat="43.90255" lon="1.96324">
        <ele>140.783441</ele>
        <time>2026-08-29T16:07:38Z</time>
      </trkpt>
      <trkpt lat="43.90257" lon="1.96317">
        <ele>140.768257</ele>
        <time>2026-08-29T16:07:39Z</time>
      </trkpt>
      <trkpt lat="43.90259" lon="1.9631">
        <ele>140.753557</ele>
        <time>2026-08-29T16:07:40Z</time>
      </trkpt>
      <trkpt lat="43.90261" lon="1.96303">
        <ele>140.738672</ele>
        <time>2026-08-29T16:07:41Z</time>
      </trkpt>
      <trkpt lat="43.90263" lon="1.96296">
        <ele>140.723362</ele>
        <time>2026-08-29T16:07:42Z</time>
      </trkpt>
      <trkpt lat="43.90265" lon="1.96289">
        <ele>140.707935</ele>
        <time>2026-08-29T16:07:43Z</time>
      </trkpt>
      <trkpt lat="43.90268" lon="1.96281">
        <ele>140.691715</ele>
        <time>2026-08-29T16:07:44Z</time>
      </trkpt>
      <trkpt lat="43.90269" lon="1.96274">
        <ele>140.676082</ele>
        <time>2026-08-29T16:07:45Z</time>
      </trkpt>
      <trkpt lat="43.90271" lon="1.96267">
        <ele>140.661004</ele>
        <time>2026-08-29T16:07:46Z</time>
      </trkpt>
      <trkpt lat="43.90273" lon="1.9626">
        <ele>140.64565</ele>
        <time>2026-08-29T16:07:47Z</time>
      </trkpt>
      <trkpt lat="43.90274" lon="1.96252">
        <ele>140.63075</ele>
        <time>2026-08-29T16:07:48Z</time>
      </trkpt>
      <trkpt lat="43.90275" lon="1.96245">
        <ele>140.615979</ele>
        <time>2026-08-29T16:07:49Z</time>
      </trkpt>
      <trkpt lat="43.90277" lon="1.96238">
        <ele>140.600946</ele>
        <time>2026-08-29T16:07:50Z</time>
      </trkpt>
      <trkpt lat="43.90278" lon="1.9623">
        <ele>140.586046</ele>
        <time>2026-08-29T16:07:51Z</time>
      </trkpt>
      <trkpt lat="43.90279" lon="1.96223">
        <ele>140.574184</ele>
        <time>2026-08-29T16:07:52Z</time>
      </trkpt>
      <trkpt lat="43.9028" lon="1.96216">
        <ele>140.564327</ele>
        <time>2026-08-29T16:07:53Z</time>
      </trkpt>
      <trkpt lat="43.9028" lon="1.96208">
        <ele>140.554945</ele>
        <time>2026-08-29T16:07:54Z</time>
      </trkpt>
      <trkpt lat="43.9028" lon="1.96202">
        <ele>140.545827</ele>
        <time>2026-08-29T16:07:55Z</time>
      </trkpt>
      <trkpt lat="43.90281" lon="1.96194">
        <ele>140.536326</ele>
        <time>2026-08-29T16:07:56Z</time>
      </trkpt>
      <trkpt lat="43.90281" lon="1.96188">
        <ele>140.527352</ele>
        <time>2026-08-29T16:07:57Z</time>
      </trkpt>
      <trkpt lat="43.90281" lon="1.9618">
        <ele>140.517729</ele>
        <time>2026-08-29T16:07:58Z</time>
      </trkpt>
      <trkpt lat="43.90281" lon="1.96173">
        <ele>140.508112</ele>
        <time>2026-08-29T16:07:59Z</time>
      </trkpt>
      <trkpt lat="43.90281" lon="1.96166">
        <ele>140.49876</ele>
        <time>2026-08-29T16:08:00Z</time>
      </trkpt>
      <trkpt lat="43.90281" lon="1.96159">
        <ele>140.489474</ele>
        <time>2026-08-29T16:08:01Z</time>
      </trkpt>
      <trkpt lat="43.90281" lon="1.96152">
        <ele>140.480251</ele>
        <time>2026-08-29T16:08:02Z</time>
      </trkpt>
      <trkpt lat="43.9028" lon="1.96145">
        <ele>140.471276</ele>
        <time>2026-08-29T16:08:03Z</time>
      </trkpt>
      <trkpt lat="43.9028" lon="1.96138">
        <ele>140.46218</ele>
        <time>2026-08-29T16:08:04Z</time>
      </trkpt>
      <trkpt lat="43.9028" lon="1.96131">
        <ele>140.452298</ele>
        <time>2026-08-29T16:08:05Z</time>
      </trkpt>
      <trkpt lat="43.9028" lon="1.96123">
        <ele>140.441758</ele>
        <time>2026-08-29T16:08:06Z</time>
      </trkpt>
      <trkpt lat="43.9028" lon="1.96115">
        <ele>140.431613</ele>
        <time>2026-08-29T16:08:07Z</time>
      </trkpt>
      <trkpt lat="43.9028" lon="1.96107">
        <ele>140.421339</ele>
        <time>2026-08-29T16:08:08Z</time>
      </trkpt>
      <trkpt lat="43.9028" lon="1.961">
        <ele>140.411452</ele>
        <time>2026-08-29T16:08:09Z</time>
      </trkpt>
      <trkpt lat="43.9028" lon="1.96093">
        <ele>140.402229</ele>
        <time>2026-08-29T16:08:10Z</time>
      </trkpt>
      <trkpt lat="43.90281" lon="1.96085">
        <ele>140.392084</ele>
        <time>2026-08-29T16:08:11Z</time>
      </trkpt>
      <trkpt lat="43.90281" lon="1.96078">
        <ele>140.382593</ele>
        <time>2026-08-29T16:08:12Z</time>
      </trkpt>
      <trkpt lat="43.90281" lon="1.96071">
        <ele>140.373372</ele>
        <time>2026-08-29T16:08:13Z</time>
      </trkpt>
      <trkpt lat="43.90281" lon="1.96063">
        <ele>140.363477</ele>
        <time>2026-08-29T16:08:14Z</time>
      </trkpt>
      <trkpt lat="43.90281" lon="1.96057">
        <ele>140.355046</ele>
        <time>2026-08-29T16:08:15Z</time>
      </trkpt>
      <trkpt lat="43.90281" lon="1.9605">
        <ele>140.345818</ele>
        <time>2026-08-29T16:08:16Z</time>
      </trkpt>
      <trkpt lat="43.90281" lon="1.96042">
        <ele>140.336068</ele>
        <time>2026-08-29T16:08:17Z</time>
      </trkpt>
      <trkpt lat="43.90282" lon="1.96035">
        <ele>140.325779</ele>
        <time>2026-08-29T16:08:18Z</time>
      </trkpt>
      <trkpt lat="43.90281" lon="1.96027">
        <ele>140.315478</ele>
        <time>2026-08-29T16:08:19Z</time>
      </trkpt>
      <trkpt lat="43.90281" lon="1.96019">
        <ele>140.305465</ele>
        <time>2026-08-29T16:08:20Z</time>
      </trkpt>
      <trkpt lat="43.90282" lon="1.96012">
        <ele>140.295578</ele>
        <time>2026-08-29T16:08:21Z</time>
      </trkpt>
      <trkpt lat="43.90282" lon="1.96004">
        <ele>140.28556</ele>
        <time>2026-08-29T16:08:22Z</time>
      </trkpt>
      <trkpt lat="43.90282" lon="1.95997">
        <ele>140.275942</ele>
        <time>2026-08-29T16:08:23Z</time>
      </trkpt>
      <trkpt lat="43.90282" lon="1.9599">
        <ele>140.266326</ele>
        <time>2026-08-29T16:08:24Z</time>
      </trkpt>
      <trkpt lat="43.90282" lon="1.95983">
        <ele>140.257361</ele>
        <time>2026-08-29T16:08:25Z</time>
      </trkpt>
      <trkpt lat="43.90283" lon="1.95976">
        <ele>140.244058</ele>
        <time>2026-08-29T16:08:26Z</time>
      </trkpt>
      <trkpt lat="43.90283" lon="1.95969">
        <ele>140.224305</ele>
        <time>2026-08-29T16:08:27Z</time>
      </trkpt>
      <trkpt lat="43.90284" lon="1.95962">
        <ele>140.205066</ele>
        <time>2026-08-29T16:08:28Z</time>
      </trkpt>
      <trkpt lat="43.90284" lon="1.95955">
        <ele>140.185313</ele>
        <time>2026-08-29T16:08:29Z</time>
      </trkpt>
      <trkpt lat="43.90284" lon="1.95948">
        <ele>140.165652</ele>
        <time>2026-08-29T16:08:30Z</time>
      </trkpt>
      <trkpt lat="43.90284" lon="1.95941">
        <ele>140.146556</ele>
        <time>2026-08-29T16:08:31Z</time>
      </trkpt>
      <trkpt lat="43.90284" lon="1.95934">
        <ele>140.127457</ele>
        <time>2026-08-29T16:08:32Z</time>
      </trkpt>
      <trkpt lat="43.90284" lon="1.95927">
        <ele>140.1078</ele>
        <time>2026-08-29T16:08:33Z</time>
      </trkpt>
      <trkpt lat="43.90284" lon="1.95921">
        <ele>140.088981</ele>
        <time>2026-08-29T16:08:34Z</time>
      </trkpt>
      <trkpt lat="43.90284" lon="1.95914">
        <ele>140.071008</ele>
        <time>2026-08-29T16:08:35Z</time>
      </trkpt>
      <trkpt lat="43.90284" lon="1.95907">
        <ele>140.051897</ele>
        <time>2026-08-29T16:08:36Z</time>
      </trkpt>
      <trkpt lat="43.90284" lon="1.95901">
        <ele>140.032485</ele>
        <time>2026-08-29T16:08:37Z</time>
      </trkpt>
      <trkpt lat="43.90284" lon="1.95894">
        <ele>140.014195</ele>
        <time>2026-08-29T16:08:38Z</time>
      </trkpt>
      <trkpt lat="43.90284" lon="1.95888">
        <ele>139.996218</ele>
        <time>2026-08-29T16:08:39Z</time>
      </trkpt>
      <trkpt lat="43.90284" lon="1.95881">
        <ele>139.978246</ele>
        <time>2026-08-29T16:08:40Z</time>
      </trkpt>
      <trkpt lat="43.90283" lon="1.95875">
        <ele>139.961954</ele>
        <time>2026-08-29T16:08:41Z</time>
      </trkpt>
      <trkpt lat="43.90283" lon="1.9587">
        <ele>139.946185</ele>
        <time>2026-08-29T16:08:42Z</time>
      </trkpt>
      <trkpt lat="43.90283" lon="1.95864">
        <ele>139.930286</ele>
        <time>2026-08-29T16:08:43Z</time>
      </trkpt>
      <trkpt lat="43.90282" lon="1.95859">
        <ele>139.915678</ele>
        <time>2026-08-29T16:08:44Z</time>
      </trkpt>
      <trkpt lat="43.90283" lon="1.95854">
        <ele>139.902428</ele>
        <time>2026-08-29T16:08:45Z</time>
      </trkpt>
      <trkpt lat="43.90283" lon="1.9585">
        <ele>139.889301</ele>
        <time>2026-08-29T16:08:46Z</time>
      </trkpt>
      <trkpt lat="43.90284" lon="1.95846">
        <ele>139.877449</ele>
        <time>2026-08-29T16:08:47Z</time>
      </trkpt>
      <trkpt lat="43.90284" lon="1.95841">
        <ele>139.865317</ele>
        <time>2026-08-29T16:08:48Z</time>
      </trkpt>
      <trkpt lat="43.90284" lon="1.95837">
        <ele>139.852306</ele>
        <time>2026-08-29T16:08:49Z</time>
      </trkpt>
      <trkpt lat="43.90285" lon="1.95832">
        <ele>139.839016</ele>
        <time>2026-08-29T16:08:50Z</time>
      </trkpt>
      <trkpt lat="43.90285" lon="1.95827">
        <ele>139.825536</ele>
        <time>2026-08-29T16:08:51Z</time>
      </trkpt>
      <trkpt lat="43.90284" lon="1.95822">
        <ele>139.810887</ele>
        <time>2026-08-29T16:08:52Z</time>
      </trkpt>
      <trkpt lat="43.90284" lon="1.95816">
        <ele>139.795041</ele>
        <time>2026-08-29T16:08:53Z</time>
      </trkpt>
      <trkpt lat="43.90284" lon="1.95811">
        <ele>139.779797</ele>
        <time>2026-08-29T16:08:54Z</time>
      </trkpt>
      <trkpt lat="43.90284" lon="1.95805">
        <ele>139.76379</ele>
        <time>2026-08-29T16:08:55Z</time>
      </trkpt>
      <trkpt lat="43.90284" lon="1.958">
        <ele>139.748887</ele>
        <time>2026-08-29T16:08:56Z</time>
      </trkpt>
      <trkpt lat="43.90284" lon="1.95794">
        <ele>139.733084</ele>
        <time>2026-08-29T16:08:57Z</time>
      </trkpt>
      <trkpt lat="43.90284" lon="1.95789">
        <ele>139.7179</ele>
        <time>2026-08-29T16:08:58Z</time>
      </trkpt>
      <trkpt lat="43.90285" lon="1.95784">
        <ele>139.702996</ele>
        <time>2026-08-29T16:08:59Z</time>
      </trkpt>
      <trkpt lat="43.90285" lon="1.95778">
        <ele>139.687546</ele>
        <time>2026-08-29T16:09:00Z</time>
      </trkpt>
      <trkpt lat="43.90285" lon="1.95772">
        <ele>139.671254</ele>
        <time>2026-08-29T16:09:01Z</time>
      </trkpt>
      <trkpt lat="43.90285" lon="1.95766">
        <ele>139.654387</ele>
        <time>2026-08-29T16:09:02Z</time>
      </trkpt>
      <trkpt lat="43.90285" lon="1.9576">
        <ele>139.636097</ele>
        <time>2026-08-29T16:09:03Z</time>
      </trkpt>
      <trkpt lat="43.90285" lon="1.95753">
        <ele>139.616405</ele>
        <time>2026-08-29T16:09:04Z</time>
      </trkpt>
      <trkpt lat="43.90286" lon="1.95746">
        <ele>139.59693</ele>
        <time>2026-08-29T16:09:05Z</time>
      </trkpt>
      <trkpt lat="43.90286" lon="1.95739">
        <ele>139.577799</ele>
        <time>2026-08-29T16:09:06Z</time>
      </trkpt>
      <trkpt lat="43.90286" lon="1.95732">
        <ele>139.558423</ele>
        <time>2026-08-29T16:09:07Z</time>
      </trkpt>
      <trkpt lat="43.90286" lon="1.95726">
        <ele>139.548551</ele>
        <time>2026-08-29T16:09:08Z</time>
      </trkpt>
      <trkpt lat="43.90287" lon="1.95719">
        <ele>139.545091</ele>
        <time>2026-08-29T16:09:09Z</time>
      </trkpt>
      <trkpt lat="43.90287" lon="1.95712">
        <ele>139.541359</ele>
        <time>2026-08-29T16:09:10Z</time>
      </trkpt>
      <trkpt lat="43.90287" lon="1.95705">
        <ele>139.537787</ele>
        <time>2026-08-29T16:09:11Z</time>
      </trkpt>
      <trkpt lat="43.90287" lon="1.95699">
        <ele>139.534267</ele>
        <time>2026-08-29T16:09:12Z</time>
      </trkpt>
      <trkpt lat="43.90288" lon="1.95692">
        <ele>139.530698</ele>
        <time>2026-08-29T16:09:13Z</time>
      </trkpt>
      <trkpt lat="43.90288" lon="1.95685">
        <ele>139.527132</ele>
        <time>2026-08-29T16:09:14Z</time>
      </trkpt>
      <trkpt lat="43.90288" lon="1.95679">
        <ele>139.523501</ele>
        <time>2026-08-29T16:09:15Z</time>
      </trkpt>
      <trkpt lat="43.90289" lon="1.95672">
        <ele>139.519864</ele>
        <time>2026-08-29T16:09:16Z</time>
      </trkpt>
      <trkpt lat="43.90289" lon="1.95665">
        <ele>139.516173</ele>
        <time>2026-08-29T16:09:17Z</time>
      </trkpt>
      <trkpt lat="43.9029" lon="1.95658">
        <ele>139.512633</ele>
        <time>2026-08-29T16:09:18Z</time>
      </trkpt>
      <trkpt lat="43.9029" lon="1.95652">
        <ele>139.509117</ele>
        <time>2026-08-29T16:09:19Z</time>
      </trkpt>
      <trkpt lat="43.9029" lon="1.95645">
        <ele>139.505439</ele>
        <time>2026-08-29T16:09:20Z</time>
      </trkpt>
      <trkpt lat="43.90291" lon="1.95638">
        <ele>139.501581</ele>
        <time>2026-08-29T16:09:21Z</time>
      </trkpt>
      <trkpt lat="43.90292" lon="1.95631">
        <ele>139.497862</ele>
        <time>2026-08-29T16:09:22Z</time>
      </trkpt>
      <trkpt lat="43.90292" lon="1.95624">
        <ele>139.494312</ele>
        <time>2026-08-29T16:09:23Z</time>
      </trkpt>
      <trkpt lat="43.90293" lon="1.95617">
        <ele>139.490719</ele>
        <time>2026-08-29T16:09:24Z</time>
      </trkpt>
      <trkpt lat="43.90293" lon="1.9561">
        <ele>139.487028</ele>
        <time>2026-08-29T16:09:25Z</time>
      </trkpt>
      <trkpt lat="43.90294" lon="1.95603">
        <ele>139.483151</ele>
        <time>2026-08-29T16:09:26Z</time>
      </trkpt>
      <trkpt lat="43.90295" lon="1.95596">
        <ele>139.479338</ele>
        <time>2026-08-29T16:09:27Z</time>
      </trkpt>
      <trkpt lat="43.90297" lon="1.9559">
        <ele>139.475664</ele>
        <time>2026-08-29T16:09:28Z</time>
      </trkpt>
      <trkpt lat="43.90298" lon="1.95583">
        <ele>139.472007</ele>
        <time>2026-08-29T16:09:29Z</time>
      </trkpt>
      <trkpt lat="43.90299" lon="1.95576">
        <ele>139.468432</ele>
        <time>2026-08-29T16:09:30Z</time>
      </trkpt>
      <trkpt lat="43.903" lon="1.9557">
        <ele>139.464843</ele>
        <time>2026-08-29T16:09:31Z</time>
      </trkpt>
      <trkpt lat="43.90301" lon="1.95563">
        <ele>139.461324</ele>
        <time>2026-08-29T16:09:32Z</time>
      </trkpt>
      <trkpt lat="43.90302" lon="1.95557">
        <ele>139.457764</ele>
        <time>2026-08-29T16:09:33Z</time>
      </trkpt>
      <trkpt lat="43.90304" lon="1.9555">
        <ele>139.454154</ele>
        <time>2026-08-29T16:09:34Z</time>
      </trkpt>
      <trkpt lat="43.90305" lon="1.95544">
        <ele>139.450666</ele>
        <time>2026-08-29T16:09:35Z</time>
      </trkpt>
      <trkpt lat="43.90307" lon="1.95539">
        <ele>139.447275</ele>
        <time>2026-08-29T16:09:36Z</time>
      </trkpt>
      <trkpt lat="43.90309" lon="1.95533">
        <ele>139.443949</ele>
        <time>2026-08-29T16:09:37Z</time>
      </trkpt>
      <trkpt lat="43.90312" lon="1.95527">
        <ele>139.440379</ele>
        <time>2026-08-29T16:09:38Z</time>
      </trkpt>
      <trkpt lat="43.90314" lon="1.95521">
        <ele>139.436699</ele>
        <time>2026-08-29T16:09:39Z</time>
      </trkpt>
      <trkpt lat="43.90317" lon="1.95515">
        <ele>139.432979</ele>
        <time>2026-08-29T16:09:40Z</time>
      </trkpt>
      <trkpt lat="43.9032" lon="1.9551">
        <ele>139.429352</ele>
        <time>2026-08-29T16:09:41Z</time>
      </trkpt>
      <trkpt lat="43.90323" lon="1.95504">
        <ele>139.425768</ele>
        <time>2026-08-29T16:09:42Z</time>
      </trkpt>
      <trkpt lat="43.90325" lon="1.95499">
        <ele>139.422399</ele>
        <time>2026-08-29T16:09:43Z</time>
      </trkpt>
      <trkpt lat="43.90328" lon="1.95494">
        <ele>139.418945</ele>
        <time>2026-08-29T16:09:44Z</time>
      </trkpt>
      <trkpt lat="43.90331" lon="1.95489">
        <ele>139.413192</ele>
        <time>2026-08-29T16:09:45Z</time>
      </trkpt>
      <trkpt lat="43.90334" lon="1.95483">
        <ele>139.405904</ele>
        <time>2026-08-29T16:09:46Z</time>
      </trkpt>
      <trkpt lat="43.90337" lon="1.95478">
        <ele>139.398446</ele>
        <time>2026-08-29T16:09:47Z</time>
      </trkpt>
      <trkpt lat="43.9034" lon="1.95472">
        <ele>139.390895</ele>
        <time>2026-08-29T16:09:48Z</time>
      </trkpt>
      <trkpt lat="43.90343" lon="1.95466">
        <ele>139.38326</ele>
        <time>2026-08-29T16:09:49Z</time>
      </trkpt>
      <trkpt lat="43.90345" lon="1.95461">
        <ele>139.375626</ele>
        <time>2026-08-29T16:09:50Z</time>
      </trkpt>
      <trkpt lat="43.90348" lon="1.95455">
        <ele>139.367895</ele>
        <time>2026-08-29T16:09:51Z</time>
      </trkpt>
      <trkpt lat="43.90351" lon="1.95449">
        <ele>139.360165</ele>
        <time>2026-08-29T16:09:52Z</time>
      </trkpt>
      <trkpt lat="43.90354" lon="1.95443">
        <ele>139.352707</ele>
        <time>2026-08-29T16:09:53Z</time>
      </trkpt>
      <trkpt lat="43.90357" lon="1.95437">
        <ele>139.345337</ele>
        <time>2026-08-29T16:09:54Z</time>
      </trkpt>
      <trkpt lat="43.90359" lon="1.95432">
        <ele>139.338304</ele>
        <time>2026-08-29T16:09:55Z</time>
      </trkpt>
      <trkpt lat="43.90362" lon="1.95426">
        <ele>139.33118</ele>
        <time>2026-08-29T16:09:56Z</time>
      </trkpt>
      <trkpt lat="43.90365" lon="1.95421">
        <ele>139.323894</ele>
        <time>2026-08-29T16:09:57Z</time>
      </trkpt>
      <trkpt lat="43.90367" lon="1.95415">
        <ele>139.316523</ele>
        <time>2026-08-29T16:09:58Z</time>
      </trkpt>
      <trkpt lat="43.9037" lon="1.9541">
        <ele>139.309241</ele>
        <time>2026-08-29T16:09:59Z</time>
      </trkpt>
      <trkpt lat="43.90373" lon="1.95404">
        <ele>139.301954</ele>
        <time>2026-08-29T16:10:00Z</time>
      </trkpt>
      <trkpt lat="43.90376" lon="1.95398">
        <ele>139.294408</ele>
        <time>2026-08-29T16:10:01Z</time>
      </trkpt>
      <trkpt lat="43.90379" lon="1.95393">
        <ele>139.287125</ele>
        <time>2026-08-29T16:10:02Z</time>
      </trkpt>
      <trkpt lat="43.90382" lon="1.95388">
        <ele>139.279755</ele>
        <time>2026-08-29T16:10:03Z</time>
      </trkpt>
      <trkpt lat="43.90385" lon="1.95382">
        <ele>139.272295</ele>
        <time>2026-08-29T16:10:04Z</time>
      </trkpt>
      <trkpt lat="43.90388" lon="1.95377">
        <ele>139.265012</ele>
        <time>2026-08-29T16:10:05Z</time>
      </trkpt>
      <trkpt lat="43.90391" lon="1.95371">
        <ele>139.257808</ele>
        <time>2026-08-29T16:10:06Z</time>
      </trkpt>
      <trkpt lat="43.90393" lon="1.95366">
        <ele>139.250788</ele>
        <time>2026-08-29T16:10:07Z</time>
      </trkpt>
      <trkpt lat="43.90396" lon="1.95361">
        <ele>139.243499</ele>
        <time>2026-08-29T16:10:08Z</time>
      </trkpt>
      <trkpt lat="43.90399" lon="1.95356">
        <ele>139.236463</ele>
        <time>2026-08-29T16:10:09Z</time>
      </trkpt>
      <trkpt lat="43.90402" lon="1.95351">
        <ele>139.229343</ele>
        <time>2026-08-29T16:10:10Z</time>
      </trkpt>
      <trkpt lat="43.90405" lon="1.95346">
        <ele>139.222128</ele>
        <time>2026-08-29T16:10:11Z</time>
      </trkpt>
      <trkpt lat="43.90409" lon="1.95341">
        <ele>139.214849</ele>
        <time>2026-08-29T16:10:12Z</time>
      </trkpt>
      <trkpt lat="43.90412" lon="1.95336">
        <ele>139.207697</ele>
        <time>2026-08-29T16:10:13Z</time>
      </trkpt>
      <trkpt lat="43.90415" lon="1.95331">
        <ele>139.20004</ele>
        <time>2026-08-29T16:10:14Z</time>
      </trkpt>
      <trkpt lat="43.90419" lon="1.95325">
        <ele>139.192203</ele>
        <time>2026-08-29T16:10:15Z</time>
      </trkpt>
      <trkpt lat="43.90422" lon="1.9532">
        <ele>139.184871</ele>
        <time>2026-08-29T16:10:16Z</time>
      </trkpt>
      <trkpt lat="43.90425" lon="1.95315">
        <ele>139.177592</ele>
        <time>2026-08-29T16:10:17Z</time>
      </trkpt>
      <trkpt lat="43.90428" lon="1.95311">
        <ele>139.170882</ele>
        <time>2026-08-29T16:10:18Z</time>
      </trkpt>
      <trkpt lat="43.90432" lon="1.95306">
        <ele>139.163889</ele>
        <time>2026-08-29T16:10:19Z</time>
      </trkpt>
      <trkpt lat="43.90435" lon="1.95301">
        <ele>139.156477</ele>
        <time>2026-08-29T16:10:20Z</time>
      </trkpt>
      <trkpt lat="43.90439" lon="1.95296">
        <ele>139.148984</ele>
        <time>2026-08-29T16:10:21Z</time>
      </trkpt>
      <trkpt lat="43.90442" lon="1.95291">
        <ele>139.118221</ele>
        <time>2026-08-29T16:10:22Z</time>
      </trkpt>
      <trkpt lat="43.90446" lon="1.95286">
        <ele>139.082323</ele>
        <time>2026-08-29T16:10:23Z</time>
      </trkpt>
      <trkpt lat="43.90449" lon="1.95282">
        <ele>139.046426</ele>
        <time>2026-08-29T16:10:24Z</time>
      </trkpt>
      <trkpt lat="43.90453" lon="1.95277">
        <ele>139.012109</ele>
        <time>2026-08-29T16:10:25Z</time>
      </trkpt>
      <trkpt lat="43.90456" lon="1.95272">
        <ele>138.978142</ele>
        <time>2026-08-29T16:10:26Z</time>
      </trkpt>
      <trkpt lat="43.9046" lon="1.95268">
        <ele>138.944176</ele>
        <time>2026-08-29T16:10:27Z</time>
      </trkpt>
      <trkpt lat="43.90463" lon="1.95263">
        <ele>138.909771</ele>
        <time>2026-08-29T16:10:28Z</time>
      </trkpt>
      <trkpt lat="43.90466" lon="1.95258">
        <ele>138.875081</ele>
        <time>2026-08-29T16:10:29Z</time>
      </trkpt>
      <trkpt lat="43.90469" lon="1.95253">
        <ele>138.841351</ele>
        <time>2026-08-29T16:10:30Z</time>
      </trkpt>
      <trkpt lat="43.90472" lon="1.95247">
        <ele>138.805555</ele>
        <time>2026-08-29T16:10:31Z</time>
      </trkpt>
      <trkpt lat="43.90475" lon="1.95242">
        <ele>138.769736</ele>
        <time>2026-08-29T16:10:32Z</time>
      </trkpt>
      <trkpt lat="43.90478" lon="1.95236">
        <ele>138.733528</ele>
        <time>2026-08-29T16:10:33Z</time>
      </trkpt>
      <trkpt lat="43.90481" lon="1.9523">
        <ele>138.698141</ele>
        <time>2026-08-29T16:10:34Z</time>
      </trkpt>
      <trkpt lat="43.90484" lon="1.95224">
        <ele>138.662288</ele>
        <time>2026-08-29T16:10:35Z</time>
      </trkpt>
      <trkpt lat="43.90487" lon="1.95218">
        <ele>138.624754</ele>
        <time>2026-08-29T16:10:36Z</time>
      </trkpt>
      <trkpt lat="43.9049" lon="1.95212">
        <ele>138.588546</ele>
        <time>2026-08-29T16:10:37Z</time>
      </trkpt>
      <trkpt lat="43.90492" lon="1.95207">
        <ele>138.553159</ele>
        <time>2026-08-29T16:10:38Z</time>
      </trkpt>
      <trkpt lat="43.90495" lon="1.95201">
        <ele>138.517366</ele>
        <time>2026-08-29T16:10:39Z</time>
      </trkpt>
      <trkpt lat="43.90498" lon="1.95195">
        <ele>138.482402</ele>
        <time>2026-08-29T16:10:40Z</time>
      </trkpt>
      <trkpt lat="43.90501" lon="1.9519">
        <ele>138.447438</ele>
        <time>2026-08-29T16:10:41Z</time>
      </trkpt>
      <trkpt lat="43.90504" lon="1.95184">
        <ele>138.412478</ele>
        <time>2026-08-29T16:10:42Z</time>
      </trkpt>
      <trkpt lat="43.90506" lon="1.95179">
        <ele>138.379121</ele>
        <time>2026-08-29T16:10:43Z</time>
      </trkpt>
      <trkpt lat="43.90509" lon="1.95173">
        <ele>138.345378</ele>
        <time>2026-08-29T16:10:44Z</time>
      </trkpt>
      <trkpt lat="43.90511" lon="1.95168">
        <ele>138.312063</ele>
        <time>2026-08-29T16:10:45Z</time>
      </trkpt>
      <trkpt lat="43.90514" lon="1.95163">
        <ele>138.278749</ele>
        <time>2026-08-29T16:10:46Z</time>
      </trkpt>
      <trkpt lat="43.90517" lon="1.95157">
        <ele>138.243758</ele>
        <time>2026-08-29T16:10:47Z</time>
      </trkpt>
      <trkpt lat="43.90519" lon="1.95151">
        <ele>138.210443</ele>
        <time>2026-08-29T16:10:48Z</time>
      </trkpt>
      <trkpt lat="43.90522" lon="1.95146">
        <ele>138.175334</ele>
        <time>2026-08-29T16:10:49Z</time>
      </trkpt>
      <trkpt lat="43.90524" lon="1.9514">
        <ele>138.139858</ele>
        <time>2026-08-29T16:10:50Z</time>
      </trkpt>
      <trkpt lat="43.90527" lon="1.95134">
        <ele>138.103944</ele>
        <time>2026-08-29T16:10:51Z</time>
      </trkpt>
      <trkpt lat="43.9053" lon="1.95128">
        <ele>138.068091</ele>
        <time>2026-08-29T16:10:52Z</time>
      </trkpt>
      <trkpt lat="43.90533" lon="1.95122">
        <ele>138.031423</ele>
        <time>2026-08-29T16:10:53Z</time>
      </trkpt>
      <trkpt lat="43.90535" lon="1.95116">
        <ele>137.994262</ele>
        <time>2026-08-29T16:10:54Z</time>
      </trkpt>
      <trkpt lat="43.90538" lon="1.95109">
        <ele>137.955332</ele>
        <time>2026-08-29T16:10:55Z</time>
      </trkpt>
      <trkpt lat="43.90541" lon="1.95103">
        <ele>137.917644</ele>
        <time>2026-08-29T16:10:56Z</time>
      </trkpt>
      <trkpt lat="43.90543" lon="1.95096">
        <ele>137.880847</ele>
        <time>2026-08-29T16:10:57Z</time>
      </trkpt>
      <trkpt lat="43.90545" lon="1.9509">
        <ele>137.861579</ele>
        <time>2026-08-29T16:10:58Z</time>
      </trkpt>
      <trkpt lat="43.90548" lon="1.95084">
        <ele>137.85229</ele>
        <time>2026-08-29T16:10:59Z</time>
      </trkpt>
      <trkpt lat="43.90551" lon="1.95078">
        <ele>137.843023</ele>
        <time>2026-08-29T16:11:00Z</time>
      </trkpt>
      <trkpt lat="43.90553" lon="1.95072">
        <ele>137.833413</ele>
        <time>2026-08-29T16:11:01Z</time>
      </trkpt>
      <trkpt lat="43.90556" lon="1.95065">
        <ele>137.823893</ele>
        <time>2026-08-29T16:11:02Z</time>
      </trkpt>
      <trkpt lat="43.90558" lon="1.9506">
        <ele>137.814964</ele>
        <time>2026-08-29T16:11:03Z</time>
      </trkpt>
      <trkpt lat="43.90561" lon="1.95054">
        <ele>137.805881</ele>
        <time>2026-08-29T16:11:04Z</time>
      </trkpt>
      <trkpt lat="43.90563" lon="1.95048">
        <ele>137.796852</ele>
        <time>2026-08-29T16:11:05Z</time>
      </trkpt>
      <trkpt lat="43.90566" lon="1.95043">
        <ele>137.788566</ele>
        <time>2026-08-29T16:11:06Z</time>
      </trkpt>
      <trkpt lat="43.90568" lon="1.95038">
        <ele>137.780727</ele>
        <time>2026-08-29T16:11:07Z</time>
      </trkpt>
      <trkpt lat="43.90571" lon="1.95033">
        <ele>137.77321</ele>
        <time>2026-08-29T16:11:08Z</time>
      </trkpt>
      <trkpt lat="43.90573" lon="1.95029">
        <ele>137.766546</ele>
        <time>2026-08-29T16:11:09Z</time>
      </trkpt>
      <trkpt lat="43.90575" lon="1.95025">
        <ele>137.759561</ele>
        <time>2026-08-29T16:11:10Z</time>
      </trkpt>
      <trkpt lat="43.90577" lon="1.9502">
        <ele>137.751614</ele>
        <time>2026-08-29T16:11:11Z</time>
      </trkpt>
      <trkpt lat="43.9058" lon="1.95015">
        <ele>137.744092</ele>
        <time>2026-08-29T16:11:12Z</time>
      </trkpt>
      <trkpt lat="43.90582" lon="1.95012">
        <ele>137.737697</ele>
        <time>2026-08-29T16:11:13Z</time>
      </trkpt>
      <trkpt lat="43.90584" lon="1.95008">
        <ele>137.730923</ele>
        <time>2026-08-29T16:11:14Z</time>
      </trkpt>
      <trkpt lat="43.90587" lon="1.95003">
        <ele>137.723728</ele>
        <time>2026-08-29T16:11:15Z</time>
      </trkpt>
      <trkpt lat="43.90589" lon="1.94999">
        <ele>137.716099</ele>
        <time>2026-08-29T16:11:16Z</time>
      </trkpt>
      <trkpt lat="43.90592" lon="1.94994">
        <ele>137.70836</ele>
        <time>2026-08-29T16:11:17Z</time>
      </trkpt>
      <trkpt lat="43.90594" lon="1.94989">
        <ele>137.700507</ele>
        <time>2026-08-29T16:11:18Z</time>
      </trkpt>
      <trkpt lat="43.90597" lon="1.94985">
        <ele>137.692342</ele>
        <time>2026-08-29T16:11:19Z</time>
      </trkpt>
      <trkpt lat="43.906" lon="1.9498">
        <ele>137.684499</ele>
        <time>2026-08-29T16:11:20Z</time>
      </trkpt>
      <trkpt lat="43.90602" lon="1.94975">
        <ele>137.676767</ele>
        <time>2026-08-29T16:11:21Z</time>
      </trkpt>
      <trkpt lat="43.90605" lon="1.9497">
        <ele>137.668707</ele>
        <time>2026-08-29T16:11:22Z</time>
      </trkpt>
      <trkpt lat="43.90608" lon="1.94966">
        <ele>137.660532</ele>
        <time>2026-08-29T16:11:23Z</time>
      </trkpt>
      <trkpt lat="43.90611" lon="1.94961">
        <ele>137.652139</ele>
        <time>2026-08-29T16:11:24Z</time>
      </trkpt>
      <trkpt lat="43.90613" lon="1.94955">
        <ele>137.643655</ele>
        <time>2026-08-29T16:11:25Z</time>
      </trkpt>
      <trkpt lat="43.90616" lon="1.9495">
        <ele>137.635385</ele>
        <time>2026-08-29T16:11:26Z</time>
      </trkpt>
      <trkpt lat="43.90619" lon="1.94945">
        <ele>137.626681</ele>
        <time>2026-08-29T16:11:27Z</time>
      </trkpt>
      <trkpt lat="43.90622" lon="1.9494">
        <ele>137.618288</ele>
        <time>2026-08-29T16:11:28Z</time>
      </trkpt>
      <trkpt lat="43.90625" lon="1.94935">
        <ele>137.609802</ele>
        <time>2026-08-29T16:11:29Z</time>
      </trkpt>
      <trkpt lat="43.90627" lon="1.9493">
        <ele>137.60142</ele>
        <time>2026-08-29T16:11:30Z</time>
      </trkpt>
      <trkpt lat="43.9063" lon="1.94925">
        <ele>137.592716</ele>
        <time>2026-08-29T16:11:31Z</time>
      </trkpt>
      <trkpt lat="43.90633" lon="1.9492">
        <ele>137.584125</ele>
        <time>2026-08-29T16:11:32Z</time>
      </trkpt>
      <trkpt lat="43.90636" lon="1.94914">
        <ele>137.575206</ele>
        <time>2026-08-29T16:11:33Z</time>
      </trkpt>
      <trkpt lat="43.90638" lon="1.94908">
        <ele>137.566067</ele>
        <time>2026-08-29T16:11:34Z</time>
      </trkpt>
      <trkpt lat="43.90641" lon="1.94902">
        <ele>137.556984</ele>
        <time>2026-08-29T16:11:35Z</time>
      </trkpt>
      <trkpt lat="43.90643" lon="1.94896">
        <ele>137.548073</ele>
        <time>2026-08-29T16:11:36Z</time>
      </trkpt>
      <trkpt lat="43.90645" lon="1.9489">
        <ele>137.539481</ele>
        <time>2026-08-29T16:11:37Z</time>
      </trkpt>
      <trkpt lat="43.90646" lon="1.94884">
        <ele>137.54017</ele>
        <time>2026-08-29T16:11:38Z</time>
      </trkpt>
      <trkpt lat="43.90647" lon="1.94878">
        <ele>137.544967</ele>
        <time>2026-08-29T16:11:39Z</time>
      </trkpt>
      <trkpt lat="43.90649" lon="1.94871">
        <ele>137.549902</ele>
        <time>2026-08-29T16:11:40Z</time>
      </trkpt>
      <trkpt lat="43.9065" lon="1.94865">
        <ele>137.554791</ele>
        <time>2026-08-29T16:11:41Z</time>
      </trkpt>
      <trkpt lat="43.90652" lon="1.94859">
        <ele>137.559585</ele>
        <time>2026-08-29T16:11:42Z</time>
      </trkpt>
      <trkpt lat="43.90654" lon="1.94853">
        <ele>137.564075</ele>
        <time>2026-08-29T16:11:43Z</time>
      </trkpt>
      <trkpt lat="43.90656" lon="1.94847">
        <ele>137.568758</ele>
        <time>2026-08-29T16:11:44Z</time>
      </trkpt>
      <trkpt lat="43.90657" lon="1.94841">
        <ele>137.57344</ele>
        <time>2026-08-29T16:11:45Z</time>
      </trkpt>
      <trkpt lat="43.90658" lon="1.94834">
        <ele>137.578327</ele>
        <time>2026-08-29T16:11:46Z</time>
      </trkpt>
      <trkpt lat="43.90659" lon="1.94828">
        <ele>137.583073</ele>
        <time>2026-08-29T16:11:47Z</time>
      </trkpt>
      <trkpt lat="43.90661" lon="1.94821">
        <ele>137.588079</ele>
        <time>2026-08-29T16:11:48Z</time>
      </trkpt>
      <trkpt lat="43.90662" lon="1.94814">
        <ele>137.593014</ele>
        <time>2026-08-29T16:11:49Z</time>
      </trkpt>
      <trkpt lat="43.90663" lon="1.94808">
        <ele>137.598185</ele>
        <time>2026-08-29T16:11:50Z</time>
      </trkpt>
      <trkpt lat="43.90665" lon="1.94801">
        <ele>137.603287</ele>
        <time>2026-08-29T16:11:51Z</time>
      </trkpt>
      <trkpt lat="43.90666" lon="1.94794">
        <ele>137.608314</ele>
        <time>2026-08-29T16:11:52Z</time>
      </trkpt>
      <trkpt lat="43.90667" lon="1.94787">
        <ele>137.613302</ele>
        <time>2026-08-29T16:11:53Z</time>
      </trkpt>
      <trkpt lat="43.90668" lon="1.94781">
        <ele>137.618142</ele>
        <time>2026-08-29T16:11:54Z</time>
      </trkpt>
      <trkpt lat="43.9067" lon="1.94774">
        <ele>137.623134</ele>
        <time>2026-08-29T16:11:55Z</time>
      </trkpt>
      <trkpt lat="43.90671" lon="1.94768">
        <ele>137.627953</ele>
        <time>2026-08-29T16:11:56Z</time>
      </trkpt>
      <trkpt lat="43.90673" lon="1.94762">
        <ele>137.632874</ele>
        <time>2026-08-29T16:11:57Z</time>
      </trkpt>
      <trkpt lat="43.90675" lon="1.94756">
        <ele>137.637447</ele>
        <time>2026-08-29T16:11:58Z</time>
      </trkpt>
      <trkpt lat="43.90677" lon="1.9475">
        <ele>137.642028</ele>
        <time>2026-08-29T16:11:59Z</time>
      </trkpt>
      <trkpt lat="43.90678" lon="1.94744">
        <ele>137.646644</ele>
        <time>2026-08-29T16:12:00Z</time>
      </trkpt>
      <trkpt lat="43.9068" lon="1.94738">
        <ele>137.651326</ele>
        <time>2026-08-29T16:12:01Z</time>
      </trkpt>
      <trkpt lat="43.90682" lon="1.94731">
        <ele>137.656733</ele>
        <time>2026-08-29T16:12:02Z</time>
      </trkpt>
      <trkpt lat="43.90683" lon="1.94724">
        <ele>137.662031</ele>
        <time>2026-08-29T16:12:03Z</time>
      </trkpt>
      <trkpt lat="43.90685" lon="1.94717">
        <ele>137.667103</ele>
        <time>2026-08-29T16:12:04Z</time>
      </trkpt>
      <trkpt lat="43.90687" lon="1.94711">
        <ele>137.671872</ele>
        <time>2026-08-29T16:12:05Z</time>
      </trkpt>
      <trkpt lat="43.90689" lon="1.94706">
        <ele>137.676537</ele>
        <time>2026-08-29T16:12:06Z</time>
      </trkpt>
      <trkpt lat="43.90692" lon="1.947">
        <ele>137.681289</ele>
        <time>2026-08-29T16:12:07Z</time>
      </trkpt>
      <trkpt lat="43.90695" lon="1.94694">
        <ele>137.686206</ele>
        <time>2026-08-29T16:12:08Z</time>
      </trkpt>
      <trkpt lat="43.90697" lon="1.94689">
        <ele>137.691134</ele>
        <time>2026-08-29T16:12:09Z</time>
      </trkpt>
      <trkpt lat="43.907" lon="1.94683">
        <ele>137.695847</ele>
        <time>2026-08-29T16:12:10Z</time>
      </trkpt>
      <trkpt lat="43.90701" lon="1.94677">
        <ele>137.700336</ele>
        <time>2026-08-29T16:12:11Z</time>
      </trkpt>
      <trkpt lat="43.90703" lon="1.94671">
        <ele>137.704866</ele>
        <time>2026-08-29T16:12:12Z</time>
      </trkpt>
      <trkpt lat="43.90705" lon="1.94666">
        <ele>137.709311</ele>
        <time>2026-08-29T16:12:13Z</time>
      </trkpt>
      <trkpt lat="43.90707" lon="1.94661">
        <ele>137.713562</ele>
        <time>2026-08-29T16:12:14Z</time>
      </trkpt>
      <trkpt lat="43.90708" lon="1.94655">
        <ele>137.71525</ele>
        <time>2026-08-29T16:12:15Z</time>
      </trkpt>
      <trkpt lat="43.9071" lon="1.94649">
        <ele>137.706835</ele>
        <time>2026-08-29T16:12:16Z</time>
      </trkpt>
      <trkpt lat="43.9071" lon="1.94643">
        <ele>137.698221</ele>
        <time>2026-08-29T16:12:17Z</time>
      </trkpt>
      <trkpt lat="43.90711" lon="1.94636">
        <ele>137.688952</ele>
        <time>2026-08-29T16:12:18Z</time>
      </trkpt>
      <trkpt lat="43.90712" lon="1.9463">
        <ele>137.679511</ele>
        <time>2026-08-29T16:12:19Z</time>
      </trkpt>
      <trkpt lat="43.90712" lon="1.94623">
        <ele>137.670447</ele>
        <time>2026-08-29T16:12:20Z</time>
      </trkpt>
      <trkpt lat="43.90712" lon="1.94617">
        <ele>137.661101</ele>
        <time>2026-08-29T16:12:21Z</time>
      </trkpt>
      <trkpt lat="43.90712" lon="1.9461">
        <ele>137.651611</ele>
        <time>2026-08-29T16:12:22Z</time>
      </trkpt>
      <trkpt lat="43.90712" lon="1.94603">
        <ele>137.64211</ele>
        <time>2026-08-29T16:12:23Z</time>
      </trkpt>
      <trkpt lat="43.90712" lon="1.94596">
        <ele>137.632904</ele>
        <time>2026-08-29T16:12:24Z</time>
      </trkpt>
      <trkpt lat="43.90712" lon="1.9459">
        <ele>137.624116</ele>
        <time>2026-08-29T16:12:25Z</time>
      </trkpt>
      <trkpt lat="43.90713" lon="1.94583">
        <ele>137.614168</ele>
        <time>2026-08-29T16:12:26Z</time>
      </trkpt>
      <trkpt lat="43.90713" lon="1.94576">
        <ele>137.604358</ele>
        <time>2026-08-29T16:12:27Z</time>
      </trkpt>
      <trkpt lat="43.90714" lon="1.94569">
        <ele>137.594566</ele>
        <time>2026-08-29T16:12:28Z</time>
      </trkpt>
      <trkpt lat="43.90714" lon="1.94562">
        <ele>137.585222</ele>
        <time>2026-08-29T16:12:29Z</time>
      </trkpt>
      <trkpt lat="43.90714" lon="1.94555">
        <ele>137.575459</ele>
        <time>2026-08-29T16:12:30Z</time>
      </trkpt>
      <trkpt lat="43.90714" lon="1.94548">
        <ele>137.565968</ele>
        <time>2026-08-29T16:12:31Z</time>
      </trkpt>
      <trkpt lat="43.90714" lon="1.94542">
        <ele>137.556616</ele>
        <time>2026-08-29T16:12:32Z</time>
      </trkpt>
      <trkpt lat="43.90715" lon="1.94535">
        <ele>137.547201</ele>
        <time>2026-08-29T16:12:33Z</time>
      </trkpt>
      <trkpt lat="43.90715" lon="1.94529">
        <ele>137.538243</ele>
        <time>2026-08-29T16:12:34Z</time>
      </trkpt>
      <trkpt lat="43.90716" lon="1.94522">
        <ele>137.528849</ele>
        <time>2026-08-29T16:12:35Z</time>
      </trkpt>
      <trkpt lat="43.90716" lon="1.94515">
        <ele>137.519456</ele>
        <time>2026-08-29T16:12:36Z</time>
      </trkpt>
      <trkpt lat="43.90717" lon="1.94509">
        <ele>137.510062</ele>
        <time>2026-08-29T16:12:37Z</time>
      </trkpt>
      <trkpt lat="43.90717" lon="1.94502">
        <ele>137.500687</ele>
        <time>2026-08-29T16:12:38Z</time>
      </trkpt>
      <trkpt lat="43.90718" lon="1.94495">
        <ele>137.491108</ele>
        <time>2026-08-29T16:12:39Z</time>
      </trkpt>
      <trkpt lat="43.90718" lon="1.94489">
        <ele>137.481943</ele>
        <time>2026-08-29T16:12:40Z</time>
      </trkpt>
      <trkpt lat="43.90719" lon="1.94482">
        <ele>137.473022</ele>
        <time>2026-08-29T16:12:41Z</time>
      </trkpt>
      <trkpt lat="43.9072" lon="1.94476">
        <ele>137.463745</ele>
        <time>2026-08-29T16:12:42Z</time>
      </trkpt>
      <trkpt lat="43.9072" lon="1.94469">
        <ele>137.454442</ele>
        <time>2026-08-29T16:12:43Z</time>
      </trkpt>
      <trkpt lat="43.90721" lon="1.94463">
        <ele>137.445383</ele>
        <time>2026-08-29T16:12:44Z</time>
      </trkpt>
      <trkpt lat="43.90722" lon="1.94456">
        <ele>137.435968</ele>
        <time>2026-08-29T16:12:45Z</time>
      </trkpt>
      <trkpt lat="43.90722" lon="1.94449">
        <ele>137.426276</ele>
        <time>2026-08-29T16:12:46Z</time>
      </trkpt>
      <trkpt lat="43.90723" lon="1.94442">
        <ele>137.416483</ele>
        <time>2026-08-29T16:12:47Z</time>
      </trkpt>
      <trkpt lat="43.90723" lon="1.94435">
        <ele>137.407261</ele>
        <time>2026-08-29T16:12:48Z</time>
      </trkpt>
      <trkpt lat="43.90723" lon="1.94429">
        <ele>137.398752</ele>
        <time>2026-08-29T16:12:49Z</time>
      </trkpt>
      <trkpt lat="43.90723" lon="1.94423">
        <ele>137.389825</ele>
        <time>2026-08-29T16:12:50Z</time>
      </trkpt>
      <trkpt lat="43.90724" lon="1.94416">
        <ele>137.380311</ele>
        <time>2026-08-29T16:12:51Z</time>
      </trkpt>
      <trkpt lat="43.90724" lon="1.94409">
        <ele>137.370935</ele>
        <time>2026-08-29T16:12:52Z</time>
      </trkpt>
      <trkpt lat="43.90725" lon="1.94403">
        <ele>137.360477</ele>
        <time>2026-08-29T16:12:53Z</time>
      </trkpt>
      <trkpt lat="43.90725" lon="1.94397">
        <ele>137.349804</ele>
        <time>2026-08-29T16:12:54Z</time>
      </trkpt>
      <trkpt lat="43.90725" lon="1.9439">
        <ele>137.338829</ele>
        <time>2026-08-29T16:12:55Z</time>
      </trkpt>
      <trkpt lat="43.90725" lon="1.94384">
        <ele>137.328352</ele>
        <time>2026-08-29T16:12:56Z</time>
      </trkpt>
      <trkpt lat="43.90725" lon="1.94377">
        <ele>137.317552</ele>
        <time>2026-08-29T16:12:57Z</time>
      </trkpt>
      <trkpt lat="43.90725" lon="1.94371">
        <ele>137.306753</ele>
        <time>2026-08-29T16:12:58Z</time>
      </trkpt>
      <trkpt lat="43.90725" lon="1.94364">
        <ele>137.295944</ele>
        <time>2026-08-29T16:12:59Z</time>
      </trkpt>
      <trkpt lat="43.90725" lon="1.94358">
        <ele>137.285308</ele>
        <time>2026-08-29T16:13:00Z</time>
      </trkpt>
      <trkpt lat="43.90725" lon="1.94352">
        <ele>137.275005</ele>
        <time>2026-08-29T16:13:01Z</time>
      </trkpt>
      <trkpt lat="43.90725" lon="1.94345">
        <ele>137.264362</ele>
        <time>2026-08-29T16:13:02Z</time>
      </trkpt>
      <trkpt lat="43.90724" lon="1.94338">
        <ele>137.253026</ele>
        <time>2026-08-29T16:13:03Z</time>
      </trkpt>
      <trkpt lat="43.90724" lon="1.94331">
        <ele>137.241525</ele>
        <time>2026-08-29T16:13:04Z</time>
      </trkpt>
      <trkpt lat="43.90724" lon="1.94325">
        <ele>137.230024</ele>
        <time>2026-08-29T16:13:05Z</time>
      </trkpt>
      <trkpt lat="43.90723" lon="1.94318">
        <ele>137.218689</ele>
        <time>2026-08-29T16:13:06Z</time>
      </trkpt>
      <trkpt lat="43.90723" lon="1.94311">
        <ele>137.207536</ele>
        <time>2026-08-29T16:13:07Z</time>
      </trkpt>
      <trkpt lat="43.90723" lon="1.94305">
        <ele>137.196714</ele>
        <time>2026-08-29T16:13:08Z</time>
      </trkpt>
      <trkpt lat="43.90722" lon="1.94298">
        <ele>137.186237</ele>
        <time>2026-08-29T16:13:09Z</time>
      </trkpt>
      <trkpt lat="43.90722" lon="1.94292">
        <ele>137.175416</ele>
        <time>2026-08-29T16:13:10Z</time>
      </trkpt>
      <trkpt lat="43.90722" lon="1.94285">
        <ele>137.164773</ele>
        <time>2026-08-29T16:13:11Z</time>
      </trkpt>
      <trkpt lat="43.90722" lon="1.94279">
        <ele>137.154303</ele>
        <time>2026-08-29T16:13:12Z</time>
      </trkpt>
      <trkpt lat="43.90722" lon="1.94273">
        <ele>137.14366</ele>
        <time>2026-08-29T16:13:13Z</time>
      </trkpt>
      <trkpt lat="43.90722" lon="1.94266">
        <ele>137.132692</ele>
        <time>2026-08-29T16:13:14Z</time>
      </trkpt>
      <trkpt lat="43.90722" lon="1.94259">
        <ele>137.121392</ele>
        <time>2026-08-29T16:13:15Z</time>
      </trkpt>
      <trkpt lat="43.90723" lon="1.94253">
        <ele>137.110222</ele>
        <time>2026-08-29T16:13:16Z</time>
      </trkpt>
      <trkpt lat="43.90724" lon="1.94246">
        <ele>137.099303</ele>
        <time>2026-08-29T16:13:17Z</time>
      </trkpt>
      <trkpt lat="43.90724" lon="1.94239">
        <ele>137.088019</ele>
        <time>2026-08-29T16:13:18Z</time>
      </trkpt>
      <trkpt lat="43.90725" lon="1.94233">
        <ele>137.076607</ele>
        <time>2026-08-29T16:13:19Z</time>
      </trkpt>
      <trkpt lat="43.90726" lon="1.94226">
        <ele>137.06512</ele>
        <time>2026-08-29T16:13:20Z</time>
      </trkpt>
      <trkpt lat="43.90727" lon="1.94219">
        <ele>137.054077</ele>
        <time>2026-08-29T16:13:21Z</time>
      </trkpt>
      <trkpt lat="43.90728" lon="1.94213">
        <ele>137.043124</ele>
        <time>2026-08-29T16:13:22Z</time>
      </trkpt>
      <trkpt lat="43.9073" lon="1.94207">
        <ele>137.032395</ele>
        <time>2026-08-29T16:13:23Z</time>
      </trkpt>
      <trkpt lat="43.90731" lon="1.942">
        <ele>137.021188</ele>
        <time>2026-08-29T16:13:24Z</time>
      </trkpt>
      <trkpt lat="43.90733" lon="1.94194">
        <ele>137.009776</ele>
        <time>2026-08-29T16:13:25Z</time>
      </trkpt>
      <trkpt lat="43.90734" lon="1.94187">
        <ele>136.998443</ele>
        <time>2026-08-29T16:13:26Z</time>
      </trkpt>
      <trkpt lat="43.90736" lon="1.94181">
        <ele>136.986873</ele>
        <time>2026-08-29T16:13:27Z</time>
      </trkpt>
      <trkpt lat="43.90738" lon="1.94175">
        <ele>136.975613</ele>
        <time>2026-08-29T16:13:28Z</time>
      </trkpt>
      <trkpt lat="43.9074" lon="1.94168">
        <ele>136.964478</ele>
        <time>2026-08-29T16:13:29Z</time>
      </trkpt>
      <trkpt lat="43.90742" lon="1.94162">
        <ele>136.952815</ele>
        <time>2026-08-29T16:13:30Z</time>
      </trkpt>
      <trkpt lat="43.90744" lon="1.94156">
        <ele>136.922186</ele>
        <time>2026-08-29T16:13:31Z</time>
      </trkpt>
      <trkpt lat="43.90746" lon="1.9415">
        <ele>136.891722</ele>
        <time>2026-08-29T16:13:32Z</time>
      </trkpt>
      <trkpt lat="43.90747" lon="1.94143">
        <ele>136.861733</ele>
        <time>2026-08-29T16:13:33Z</time>
      </trkpt>
      <trkpt lat="43.90749" lon="1.94137">
        <ele>136.833212</ele>
        <time>2026-08-29T16:13:34Z</time>
      </trkpt>
      <trkpt lat="43.9075" lon="1.94131">
        <ele>136.804272</ele>
        <time>2026-08-29T16:13:35Z</time>
      </trkpt>
      <trkpt lat="43.90752" lon="1.94125">
        <ele>136.775131</ele>
        <time>2026-08-29T16:13:36Z</time>
      </trkpt>
      <trkpt lat="43.90754" lon="1.94118">
        <ele>136.74493</ele>
        <time>2026-08-29T16:13:37Z</time>
      </trkpt>
      <trkpt lat="43.90755" lon="1.94112">
        <ele>136.715149</ele>
        <time>2026-08-29T16:13:38Z</time>
      </trkpt>
      <trkpt lat="43.90757" lon="1.94105">
        <ele>136.684526</ele>
        <time>2026-08-29T16:13:39Z</time>
      </trkpt>
      <trkpt lat="43.90758" lon="1.94099">
        <ele>136.655103</ele>
        <time>2026-08-29T16:13:40Z</time>
      </trkpt>
      <trkpt lat="43.90759" lon="1.94093">
        <ele>136.625679</ele>
        <time>2026-08-29T16:13:41Z</time>
      </trkpt>
      <trkpt lat="43.9076" lon="1.94086">
        <ele>136.596417</ele>
        <time>2026-08-29T16:13:42Z</time>
      </trkpt>
      <trkpt lat="43.90762" lon="1.9408">
        <ele>136.566725</ele>
        <time>2026-08-29T16:13:43Z</time>
      </trkpt>
      <trkpt lat="43.90763" lon="1.94073">
        <ele>136.536102</ele>
        <time>2026-08-29T16:13:44Z</time>
      </trkpt>
      <trkpt lat="43.90765" lon="1.94066">
        <ele>136.503607</ele>
        <time>2026-08-29T16:13:45Z</time>
      </trkpt>
      <trkpt lat="43.90766" lon="1.94059">
        <ele>136.470607</ele>
        <time>2026-08-29T16:13:46Z</time>
      </trkpt>
      <trkpt lat="43.90767" lon="1.94052">
        <ele>136.437181</ele>
        <time>2026-08-29T16:13:47Z</time>
      </trkpt>
      <trkpt lat="43.90769" lon="1.94045">
        <ele>136.405342</ele>
        <time>2026-08-29T16:13:48Z</time>
      </trkpt>
      <trkpt lat="43.90769" lon="1.94038">
        <ele>136.37398</ele>
        <time>2026-08-29T16:13:49Z</time>
      </trkpt>
      <trkpt lat="43.9077" lon="1.9403">
        <ele>136.341908</ele>
        <time>2026-08-29T16:13:50Z</time>
      </trkpt>
      <trkpt lat="43.90771" lon="1.94023">
        <ele>136.310782</ele>
        <time>2026-08-29T16:13:51Z</time>
      </trkpt>
      <trkpt lat="43.90771" lon="1.94017">
        <ele>136.280636</ele>
        <time>2026-08-29T16:13:52Z</time>
      </trkpt>
      <trkpt lat="43.90771" lon="1.9401">
        <ele>136.250049</ele>
        <time>2026-08-29T16:13:53Z</time>
      </trkpt>
      <trkpt lat="43.90771" lon="1.94003">
        <ele>136.21905</ele>
        <time>2026-08-29T16:13:54Z</time>
      </trkpt>
      <trkpt lat="43.90772" lon="1.93996">
        <ele>136.188021</ele>
        <time>2026-08-29T16:13:55Z</time>
      </trkpt>
      <trkpt lat="43.90772" lon="1.93989">
        <ele>136.157391</ele>
        <time>2026-08-29T16:13:56Z</time>
      </trkpt>
      <trkpt lat="43.90773" lon="1.93982">
        <ele>136.126637</ele>
        <time>2026-08-29T16:13:57Z</time>
      </trkpt>
      <trkpt lat="43.90773" lon="1.93975">
        <ele>136.094839</ele>
        <time>2026-08-29T16:13:58Z</time>
      </trkpt>
      <trkpt lat="43.90775" lon="1.93968">
        <ele>136.063</ele>
        <time>2026-08-29T16:13:59Z</time>
      </trkpt>
      <trkpt lat="43.90776" lon="1.93961">
        <ele>136.032186</ele>
        <time>2026-08-29T16:14:00Z</time>
      </trkpt>
      <trkpt lat="43.90779" lon="1.93955">
        <ele>136.001432</ele>
        <time>2026-08-29T16:14:01Z</time>
      </trkpt>
      <trkpt lat="43.90781" lon="1.93949">
        <ele>135.97007</ele>
        <time>2026-08-29T16:14:02Z</time>
      </trkpt>
      <trkpt lat="43.90784" lon="1.93943">
        <ele>135.938065</ele>
        <time>2026-08-29T16:14:03Z</time>
      </trkpt>
      <trkpt lat="43.90787" lon="1.93937">
        <ele>135.90611</ele>
        <time>2026-08-29T16:14:04Z</time>
      </trkpt>
      <trkpt lat="43.90791" lon="1.93932">
        <ele>135.873753</ele>
        <time>2026-08-29T16:14:05Z</time>
      </trkpt>
      <trkpt lat="43.90794" lon="1.93926">
        <ele>135.845112</ele>
        <time>2026-08-29T16:14:06Z</time>
      </trkpt>
      <trkpt lat="43.90798" lon="1.9392">
        <ele>135.830688</ele>
        <time>2026-08-29T16:14:07Z</time>
      </trkpt>
      <trkpt lat="43.90801" lon="1.93914">
        <ele>135.816234</ele>
        <time>2026-08-29T16:14:08Z</time>
      </trkpt>
      <trkpt lat="43.90805" lon="1.93909">
        <ele>135.802245</ele>
        <time>2026-08-29T16:14:09Z</time>
      </trkpt>
      <trkpt lat="43.90808" lon="1.93903">
        <ele>135.788312</ele>
        <time>2026-08-29T16:14:10Z</time>
      </trkpt>
      <trkpt lat="43.90811" lon="1.93898">
        <ele>135.774863</ele>
        <time>2026-08-29T16:14:11Z</time>
      </trkpt>
      <trkpt lat="43.90814" lon="1.93892">
        <ele>135.761417</ele>
        <time>2026-08-29T16:14:12Z</time>
      </trkpt>
      <trkpt lat="43.90816" lon="1.93886">
        <ele>135.748279</ele>
        <time>2026-08-29T16:14:13Z</time>
      </trkpt>
      <trkpt lat="43.90818" lon="1.9388">
        <ele>135.735227</ele>
        <time>2026-08-29T16:14:14Z</time>
      </trkpt>
      <trkpt lat="43.90819" lon="1.93873">
        <ele>135.722235</ele>
        <time>2026-08-29T16:14:15Z</time>
      </trkpt>
      <trkpt lat="43.9082" lon="1.93866">
        <ele>135.708305</ele>
        <time>2026-08-29T16:14:16Z</time>
      </trkpt>
      <trkpt lat="43.9082" lon="1.93859">
        <ele>135.694436</ele>
        <time>2026-08-29T16:14:17Z</time>
      </trkpt>
      <trkpt lat="43.90819" lon="1.93851">
        <ele>135.680285</ele>
        <time>2026-08-29T16:14:18Z</time>
      </trkpt>
      <trkpt lat="43.90818" lon="1.93844">
        <ele>135.665975</ele>
        <time>2026-08-29T16:14:19Z</time>
      </trkpt>
      <trkpt lat="43.90817" lon="1.93837">
        <ele>135.651664</ele>
        <time>2026-08-29T16:14:20Z</time>
      </trkpt>
      <trkpt lat="43.90816" lon="1.9383">
        <ele>135.637806</ele>
        <time>2026-08-29T16:14:21Z</time>
      </trkpt>
      <trkpt lat="43.90815" lon="1.93823">
        <ele>135.623949</ele>
        <time>2026-08-29T16:14:22Z</time>
      </trkpt>
      <trkpt lat="43.90814" lon="1.93815">
        <ele>135.609638</ele>
        <time>2026-08-29T16:14:23Z</time>
      </trkpt>
      <trkpt lat="43.90812" lon="1.93808">
        <ele>135.594842</ele>
        <time>2026-08-29T16:14:24Z</time>
      </trkpt>
      <trkpt lat="43.90812" lon="1.93801">
        <ele>135.581192</ele>
        <time>2026-08-29T16:14:25Z</time>
      </trkpt>
      <trkpt lat="43.90811" lon="1.93794">
        <ele>135.567826</ele>
        <time>2026-08-29T16:14:26Z</time>
      </trkpt>
      <trkpt lat="43.9081" lon="1.93788">
        <ele>135.555205</ele>
        <time>2026-08-29T16:14:27Z</time>
      </trkpt>
      <trkpt lat="43.9081" lon="1.93781">
        <ele>135.543217</ele>
        <time>2026-08-29T16:14:28Z</time>
      </trkpt>
      <trkpt lat="43.90809" lon="1.93775">
        <ele>135.530978</ele>
        <time>2026-08-29T16:14:29Z</time>
      </trkpt>
      <trkpt lat="43.90808" lon="1.93768">
        <ele>135.517663</ele>
        <time>2026-08-29T16:14:30Z</time>
      </trkpt>
      <trkpt lat="43.90807" lon="1.93761">
        <ele>135.504203</ele>
        <time>2026-08-29T16:14:31Z</time>
      </trkpt>
      <trkpt lat="43.90807" lon="1.93754">
        <ele>135.490402</ele>
        <time>2026-08-29T16:14:32Z</time>
      </trkpt>
      <trkpt lat="43.90806" lon="1.93747">
        <ele>135.475896</ele>
        <time>2026-08-29T16:14:33Z</time>
      </trkpt>
      <trkpt lat="43.90805" lon="1.93739">
        <ele>135.46114</ele>
        <time>2026-08-29T16:14:34Z</time>
      </trkpt>
      <trkpt lat="43.90805" lon="1.93732">
        <ele>135.446957</ele>
        <time>2026-08-29T16:14:35Z</time>
      </trkpt>
      <trkpt lat="43.90804" lon="1.93725">
        <ele>135.433381</ele>
        <time>2026-08-29T16:14:36Z</time>
      </trkpt>
      <trkpt lat="43.90804" lon="1.93718">
        <ele>135.420792</ele>
        <time>2026-08-29T16:14:37Z</time>
      </trkpt>
      <trkpt lat="43.90803" lon="1.93712">
        <ele>135.407844</ele>
        <time>2026-08-29T16:14:38Z</time>
      </trkpt>
      <trkpt lat="43.90803" lon="1.93705">
        <ele>135.394545</ele>
        <time>2026-08-29T16:14:39Z</time>
      </trkpt>
      <trkpt lat="43.90803" lon="1.93698">
        <ele>135.381189</ele>
        <time>2026-08-29T16:14:40Z</time>
      </trkpt>
      <trkpt lat="43.90802" lon="1.93691">
        <ele>135.367504</ele>
        <time>2026-08-29T16:14:41Z</time>
      </trkpt>
      <trkpt lat="43.908" lon="1.93684">
        <ele>135.35082</ele>
        <time>2026-08-29T16:14:42Z</time>
      </trkpt>
      <trkpt lat="43.90798" lon="1.93676">
        <ele>135.33354</ele>
        <time>2026-08-29T16:14:43Z</time>
      </trkpt>
      <trkpt lat="43.90796" lon="1.93669">
        <ele>135.316375</ele>
        <time>2026-08-29T16:14:44Z</time>
      </trkpt>
      <trkpt lat="43.90794" lon="1.93662">
        <ele>135.299187</ele>
        <time>2026-08-29T16:14:45Z</time>
      </trkpt>
      <trkpt lat="43.90792" lon="1.93655">
        <ele>135.282403</ele>
        <time>2026-08-29T16:14:46Z</time>
      </trkpt>
      <trkpt lat="43.90789" lon="1.93648">
        <ele>135.266209</ele>
        <time>2026-08-29T16:14:47Z</time>
      </trkpt>
      <trkpt lat="43.90787" lon="1.93642">
        <ele>135.249406</ele>
        <time>2026-08-29T16:14:48Z</time>
      </trkpt>
      <trkpt lat="43.90783" lon="1.93636">
        <ele>135.233179</ele>
        <time>2026-08-29T16:14:49Z</time>
      </trkpt>
      <trkpt lat="43.9078" lon="1.9363">
        <ele>135.215849</ele>
        <time>2026-08-29T16:14:50Z</time>
      </trkpt>
      <trkpt lat="43.90776" lon="1.93624">
        <ele>135.199221</ele>
        <time>2026-08-29T16:14:51Z</time>
      </trkpt>
      <trkpt lat="43.90773" lon="1.93618">
        <ele>135.181828</ele>
        <time>2026-08-29T16:14:52Z</time>
      </trkpt>
      <trkpt lat="43.90769" lon="1.93612">
        <ele>135.164391</ele>
        <time>2026-08-29T16:14:53Z</time>
      </trkpt>
      <trkpt lat="43.90765" lon="1.93607">
        <ele>135.147643</ele>
        <time>2026-08-29T16:14:54Z</time>
      </trkpt>
      <trkpt lat="43.90761" lon="1.93601">
        <ele>135.131105</ele>
        <time>2026-08-29T16:14:55Z</time>
      </trkpt>
      <trkpt lat="43.90758" lon="1.93596">
        <ele>135.115304</ele>
        <time>2026-08-29T16:14:56Z</time>
      </trkpt>
      <trkpt lat="43.90754" lon="1.9359">
        <ele>135.099595</ele>
        <time>2026-08-29T16:14:57Z</time>
      </trkpt>
      <trkpt lat="43.90752" lon="1.93585">
        <ele>135.084973</ele>
        <time>2026-08-29T16:14:58Z</time>
      </trkpt>
      <trkpt lat="43.90749" lon="1.9358">
        <ele>135.071905</ele>
        <time>2026-08-29T16:14:59Z</time>
      </trkpt>
      <trkpt lat="43.90745" lon="1.93576">
        <ele>135.057267</ele>
        <time>2026-08-29T16:15:00Z</time>
      </trkpt>
      <trkpt lat="43.90743" lon="1.93571">
        <ele>135.044226</ele>
        <time>2026-08-29T16:15:01Z</time>
      </trkpt>
      <trkpt lat="43.90741" lon="1.93567">
        <ele>135.032274</ele>
        <time>2026-08-29T16:15:02Z</time>
      </trkpt>
      <trkpt lat="43.90739" lon="1.93561">
        <ele>135.01893</ele>
        <time>2026-08-29T16:15:03Z</time>
      </trkpt>
      <trkpt lat="43.90736" lon="1.93555">
        <ele>135.003767</ele>
        <time>2026-08-29T16:15:04Z</time>
      </trkpt>
      <trkpt lat="43.90733" lon="1.9355">
        <ele>134.988592</ele>
        <time>2026-08-29T16:15:05Z</time>
      </trkpt>
      <trkpt lat="43.9073" lon="1.93544">
        <ele>134.972365</ele>
        <time>2026-08-29T16:15:06Z</time>
      </trkpt>
      <trkpt lat="43.90726" lon="1.93537">
        <ele>134.95468</ele>
        <time>2026-08-29T16:15:07Z</time>
      </trkpt>
      <trkpt lat="43.90723" lon="1.93531">
        <ele>134.937342</ele>
        <time>2026-08-29T16:15:08Z</time>
      </trkpt>
      <trkpt lat="43.90721" lon="1.93524">
        <ele>134.921042</ele>
        <time>2026-08-29T16:15:09Z</time>
      </trkpt>
      <trkpt lat="43.90718" lon="1.93517">
        <ele>134.904459</ele>
        <time>2026-08-29T16:15:10Z</time>
      </trkpt>
      <trkpt lat="43.90716" lon="1.9351">
        <ele>134.887008</ele>
        <time>2026-08-29T16:15:11Z</time>
      </trkpt>
      <trkpt lat="43.90713" lon="1.93504">
        <ele>134.87062</ele>
        <time>2026-08-29T16:15:12Z</time>
      </trkpt>
      <trkpt lat="43.90711" lon="1.93497">
        <ele>134.853842</ele>
        <time>2026-08-29T16:15:13Z</time>
      </trkpt>
      <trkpt lat="43.90708" lon="1.9349">
        <ele>134.837133</ele>
        <time>2026-08-29T16:15:14Z</time>
      </trkpt>
      <trkpt lat="43.90706" lon="1.93483">
        <ele>134.820146</ele>
        <time>2026-08-29T16:15:15Z</time>
      </trkpt>
      <trkpt lat="43.90704" lon="1.93476">
        <ele>134.80757</ele>
        <time>2026-08-29T16:15:16Z</time>
      </trkpt>
      <trkpt lat="43.90701" lon="1.93469">
        <ele>134.794815</ele>
        <time>2026-08-29T16:15:17Z</time>
      </trkpt>
      <trkpt lat="43.90699" lon="1.93462">
        <ele>134.782273</ele>
        <time>2026-08-29T16:15:18Z</time>
      </trkpt>
      <trkpt lat="43.90697" lon="1.93455">
        <ele>134.769708</ele>
        <time>2026-08-29T16:15:19Z</time>
      </trkpt>
      <trkpt lat="43.90695" lon="1.93448">
        <ele>134.75771</ele>
        <time>2026-08-29T16:15:20Z</time>
      </trkpt>
      <trkpt lat="43.90694" lon="1.93441">
        <ele>134.74571</ele>
        <time>2026-08-29T16:15:21Z</time>
      </trkpt>
      <trkpt lat="43.90692" lon="1.93434">
        <ele>134.733713</ele>
        <time>2026-08-29T16:15:22Z</time>
      </trkpt>
      <trkpt lat="43.9069" lon="1.93427">
        <ele>134.721473</ele>
        <time>2026-08-29T16:15:23Z</time>
      </trkpt>
      <trkpt lat="43.90689" lon="1.93421">
        <ele>134.709704</ele>
        <time>2026-08-29T16:15:24Z</time>
      </trkpt>
      <trkpt lat="43.90687" lon="1.93414">
        <ele>134.698091</ele>
        <time>2026-08-29T16:15:25Z</time>
      </trkpt>
      <trkpt lat="43.90686" lon="1.93407">
        <ele>134.686233</ele>
        <time>2026-08-29T16:15:26Z</time>
      </trkpt>
      <trkpt lat="43.90684" lon="1.934">
        <ele>134.675071</ele>
        <time>2026-08-29T16:15:27Z</time>
      </trkpt>
      <trkpt lat="43.90683" lon="1.93394">
        <ele>134.663594</ele>
        <time>2026-08-29T16:15:28Z</time>
      </trkpt>
      <trkpt lat="43.90681" lon="1.93387">
        <ele>134.652207</ele>
        <time>2026-08-29T16:15:29Z</time>
      </trkpt>
      <trkpt lat="43.9068" lon="1.9338">
        <ele>134.640507</ele>
        <time>2026-08-29T16:15:30Z</time>
      </trkpt>
      <trkpt lat="43.90678" lon="1.93374">
        <ele>134.628896</ele>
        <time>2026-08-29T16:15:31Z</time>
      </trkpt>
      <trkpt lat="43.90676" lon="1.93367">
        <ele>134.616964</ele>
        <time>2026-08-29T16:15:32Z</time>
      </trkpt>
      <trkpt lat="43.90674" lon="1.9336">
        <ele>134.604811</ele>
        <time>2026-08-29T16:15:33Z</time>
      </trkpt>
      <trkpt lat="43.90672" lon="1.93353">
        <ele>134.59235</ele>
        <time>2026-08-29T16:15:34Z</time>
      </trkpt>
      <trkpt lat="43.9067" lon="1.93346">
        <ele>134.580352</ele>
        <time>2026-08-29T16:15:35Z</time>
      </trkpt>
      <trkpt lat="43.90669" lon="1.93339">
        <ele>134.568665</ele>
        <time>2026-08-29T16:15:36Z</time>
      </trkpt>
      <trkpt lat="43.90667" lon="1.93333">
        <ele>134.556823</ele>
        <time>2026-08-29T16:15:37Z</time>
      </trkpt>
      <trkpt lat="43.90665" lon="1.93326">
        <ele>134.54521</ele>
        <time>2026-08-29T16:15:38Z</time>
      </trkpt>
      <trkpt lat="43.90664" lon="1.93319">
        <ele>134.533599</ele>
        <time>2026-08-29T16:15:39Z</time>
      </trkpt>
      <trkpt lat="43.90662" lon="1.93313">
        <ele>134.522752</ele>
        <time>2026-08-29T16:15:40Z</time>
      </trkpt>
      <trkpt lat="43.90661" lon="1.93306">
        <ele>134.511065</ele>
        <time>2026-08-29T16:15:41Z</time>
      </trkpt>
      <trkpt lat="43.90659" lon="1.93299">
        <ele>134.498837</ele>
        <time>2026-08-29T16:15:42Z</time>
      </trkpt>
      <trkpt lat="43.90657" lon="1.93292">
        <ele>134.48644</ele>
        <time>2026-08-29T16:15:43Z</time>
      </trkpt>
      <trkpt lat="43.90655" lon="1.93285">
        <ele>134.474598</ele>
        <time>2026-08-29T16:15:44Z</time>
      </trkpt>
      <trkpt lat="43.90654" lon="1.93279">
        <ele>134.463278</ele>
        <time>2026-08-29T16:15:45Z</time>
      </trkpt>
      <trkpt lat="43.90653" lon="1.93272">
        <ele>134.451801</ele>
        <time>2026-08-29T16:15:46Z</time>
      </trkpt>
      <trkpt lat="43.90651" lon="1.93265">
        <ele>134.440414</ele>
        <time>2026-08-29T16:15:47Z</time>
      </trkpt>
      <trkpt lat="43.9065" lon="1.93259">
        <ele>134.429374</ele>
        <time>2026-08-29T16:15:48Z</time>
      </trkpt>
      <trkpt lat="43.90648" lon="1.93252">
        <ele>134.417687</ele>
        <time>2026-08-29T16:15:49Z</time>
      </trkpt>
      <trkpt lat="43.90647" lon="1.93246">
        <ele>134.407067</ele>
        <time>2026-08-29T16:15:50Z</time>
      </trkpt>
      <trkpt lat="43.90645" lon="1.93239">
        <ele>134.39651</ele>
        <time>2026-08-29T16:15:51Z</time>
      </trkpt>
      <trkpt lat="43.90643" lon="1.93232">
        <ele>134.386137</ele>
        <time>2026-08-29T16:15:52Z</time>
      </trkpt>
      <trkpt lat="43.90641" lon="1.93224">
        <ele>134.37539</ele>
        <time>2026-08-29T16:15:53Z</time>
      </trkpt>
      <trkpt lat="43.90639" lon="1.93217">
        <ele>134.365156</ele>
        <time>2026-08-29T16:15:54Z</time>
      </trkpt>
      <trkpt lat="43.90638" lon="1.9321">
        <ele>134.35511</ele>
        <time>2026-08-29T16:15:55Z</time>
      </trkpt>
      <trkpt lat="43.90636" lon="1.93203">
        <ele>134.345323</ele>
        <time>2026-08-29T16:15:56Z</time>
      </trkpt>
      <trkpt lat="43.90634" lon="1.93197">
        <ele>134.335667</ele>
        <time>2026-08-29T16:15:57Z</time>
      </trkpt>
      <trkpt lat="43.90632" lon="1.9319">
        <ele>134.325689</ele>
        <time>2026-08-29T16:15:58Z</time>
      </trkpt>
      <trkpt lat="43.90631" lon="1.93184">
        <ele>134.316551</ele>
        <time>2026-08-29T16:15:59Z</time>
      </trkpt>
      <trkpt lat="43.90629" lon="1.93177">
        <ele>134.306755</ele>
        <time>2026-08-29T16:16:00Z</time>
      </trkpt>
      <trkpt lat="43.90627" lon="1.9317">
        <ele>134.297229</ele>
        <time>2026-08-29T16:16:01Z</time>
      </trkpt>
      <trkpt lat="43.90625" lon="1.93164">
        <ele>134.286906</ele>
        <time>2026-08-29T16:16:02Z</time>
      </trkpt>
      <trkpt lat="43.90623" lon="1.93157">
        <ele>134.276731</ele>
        <time>2026-08-29T16:16:03Z</time>
      </trkpt>
      <trkpt lat="43.90621" lon="1.9315">
        <ele>134.26643</ele>
        <time>2026-08-29T16:16:04Z</time>
      </trkpt>
      <trkpt lat="43.90619" lon="1.93143">
        <ele>134.256056</ele>
        <time>2026-08-29T16:16:05Z</time>
      </trkpt>
      <trkpt lat="43.90617" lon="1.93136">
        <ele>134.245881</ele>
        <time>2026-08-29T16:16:06Z</time>
      </trkpt>
      <trkpt lat="43.90615" lon="1.9313">
        <ele>134.237322</ele>
        <time>2026-08-29T16:16:07Z</time>
      </trkpt>
      <trkpt lat="43.90613" lon="1.93123">
        <ele>134.227778</ele>
        <time>2026-08-29T16:16:08Z</time>
      </trkpt>
      <trkpt lat="43.90613" lon="1.93117">
        <ele>134.218787</ele>
        <time>2026-08-29T16:16:09Z</time>
      </trkpt>
      <trkpt lat="43.90612" lon="1.9311">
        <ele>134.209436</ele>
        <time>2026-08-29T16:16:10Z</time>
      </trkpt>
      <trkpt lat="43.90611" lon="1.93104">
        <ele>134.200607</ele>
        <time>2026-08-29T16:16:11Z</time>
      </trkpt>
      <trkpt lat="43.90612" lon="1.93097">
        <ele>134.19157</ele>
        <time>2026-08-29T16:16:12Z</time>
      </trkpt>
      <trkpt lat="43.90613" lon="1.93091">
        <ele>134.182878</ele>
        <time>2026-08-29T16:16:13Z</time>
      </trkpt>
      <trkpt lat="43.90614" lon="1.93085">
        <ele>134.174493</ele>
        <time>2026-08-29T16:16:14Z</time>
      </trkpt>
      <trkpt lat="43.90615" lon="1.93079">
        <ele>134.166421</ele>
        <time>2026-08-29T16:16:15Z</time>
      </trkpt>
      <trkpt lat="43.90616" lon="1.93074">
        <ele>134.158632</ele>
        <time>2026-08-29T16:16:16Z</time>
      </trkpt>
      <trkpt lat="43.90617" lon="1.93068">
        <ele>134.150522</ele>
        <time>2026-08-29T16:16:17Z</time>
      </trkpt>
      <trkpt lat="43.90619" lon="1.93063">
        <ele>134.142671</ele>
        <time>2026-08-29T16:16:18Z</time>
      </trkpt>
      <trkpt lat="43.9062" lon="1.93057">
        <ele>134.134369</ele>
        <time>2026-08-29T16:16:19Z</time>
      </trkpt>
      <trkpt lat="43.90622" lon="1.93051">
        <ele>134.125741</ele>
        <time>2026-08-29T16:16:20Z</time>
      </trkpt>
      <trkpt lat="43.90623" lon="1.93045">
        <ele>134.116959</ele>
        <time>2026-08-29T16:16:21Z</time>
      </trkpt>
      <trkpt lat="43.90624" lon="1.93038">
        <ele>134.107938</ele>
        <time>2026-08-29T16:16:22Z</time>
      </trkpt>
      <trkpt lat="43.90624" lon="1.93032">
        <ele>134.098565</ele>
        <time>2026-08-29T16:16:23Z</time>
      </trkpt>
      <trkpt lat="43.90624" lon="1.93025">
        <ele>134.089255</ele>
        <time>2026-08-29T16:16:24Z</time>
      </trkpt>
      <trkpt lat="43.90624" lon="1.93018">
        <ele>134.079813</ele>
        <time>2026-08-29T16:16:25Z</time>
      </trkpt>
      <trkpt lat="43.90624" lon="1.93011">
        <ele>134.070903</ele>
        <time>2026-08-29T16:16:26Z</time>
      </trkpt>
      <trkpt lat="43.90623" lon="1.93005">
        <ele>134.067017</ele>
        <time>2026-08-29T16:16:27Z</time>
      </trkpt>
      <trkpt lat="43.90622" lon="1.92998">
        <ele>134.066043</ele>
        <time>2026-08-29T16:16:28Z</time>
      </trkpt>
      <trkpt lat="43.90621" lon="1.92992">
        <ele>134.065059</ele>
        <time>2026-08-29T16:16:29Z</time>
      </trkpt>
      <trkpt lat="43.90619" lon="1.92985">
        <ele>134.064059</ele>
        <time>2026-08-29T16:16:30Z</time>
      </trkpt>
      <trkpt lat="43.90618" lon="1.92978">
        <ele>134.063092</ele>
        <time>2026-08-29T16:16:31Z</time>
      </trkpt>
      <trkpt lat="43.90616" lon="1.92972">
        <ele>134.062137</ele>
        <time>2026-08-29T16:16:32Z</time>
      </trkpt>
      <trkpt lat="43.90614" lon="1.92966">
        <ele>134.061237</ele>
        <time>2026-08-29T16:16:33Z</time>
      </trkpt>
      <trkpt lat="43.90613" lon="1.9296">
        <ele>134.060277</ele>
        <time>2026-08-29T16:16:34Z</time>
      </trkpt>
      <trkpt lat="43.90611" lon="1.92954">
        <ele>134.059362</ele>
        <time>2026-08-29T16:16:35Z</time>
      </trkpt>
      <trkpt lat="43.9061" lon="1.92948">
        <ele>134.058435</ele>
        <time>2026-08-29T16:16:36Z</time>
      </trkpt>
      <trkpt lat="43.90608" lon="1.92941">
        <ele>134.057515</ele>
        <time>2026-08-29T16:16:37Z</time>
      </trkpt>
      <trkpt lat="43.90606" lon="1.92936">
        <ele>134.056627</ele>
        <time>2026-08-29T16:16:38Z</time>
      </trkpt>
      <trkpt lat="43.90605" lon="1.9293">
        <ele>134.055719</ele>
        <time>2026-08-29T16:16:39Z</time>
      </trkpt>
      <trkpt lat="43.90603" lon="1.92924">
        <ele>134.054795</ele>
        <time>2026-08-29T16:16:40Z</time>
      </trkpt>
      <trkpt lat="43.906" lon="1.92918">
        <ele>134.0539</ele>
        <time>2026-08-29T16:16:41Z</time>
      </trkpt>
      <trkpt lat="43.90598" lon="1.92913">
        <ele>134.052966</ele>
        <time>2026-08-29T16:16:42Z</time>
      </trkpt>
      <trkpt lat="43.90595" lon="1.92907">
        <ele>134.052046</ele>
        <time>2026-08-29T16:16:43Z</time>
      </trkpt>
      <trkpt lat="43.90592" lon="1.92902">
        <ele>134.051027</ele>
        <time>2026-08-29T16:16:44Z</time>
      </trkpt>
      <trkpt lat="43.90588" lon="1.92897">
        <ele>134.049934</ele>
        <time>2026-08-29T16:16:45Z</time>
      </trkpt>
      <trkpt lat="43.90584" lon="1.92891">
        <ele>134.048877</ele>
        <time>2026-08-29T16:16:46Z</time>
      </trkpt>
      <trkpt lat="43.9058" lon="1.92886">
        <ele>134.047797</ele>
        <time>2026-08-29T16:16:47Z</time>
      </trkpt>
      <trkpt lat="43.90576" lon="1.9288">
        <ele>134.046628</ele>
        <time>2026-08-29T16:16:48Z</time>
      </trkpt>
      <trkpt lat="43.90572" lon="1.92874">
        <ele>134.045476</ele>
        <time>2026-08-29T16:16:49Z</time>
      </trkpt>
      <trkpt lat="43.90569" lon="1.92869">
        <ele>134.044543</ele>
        <time>2026-08-29T16:16:50Z</time>
      </trkpt>
      <trkpt lat="43.90567" lon="1.92864">
        <ele>134.043725</ele>
        <time>2026-08-29T16:16:51Z</time>
      </trkpt>
      <trkpt lat="43.90563" lon="1.92859">
        <ele>134.042798</ele>
        <time>2026-08-29T16:16:52Z</time>
      </trkpt>
      <trkpt lat="43.9056" lon="1.92854">
        <ele>134.0418</ele>
        <time>2026-08-29T16:16:53Z</time>
      </trkpt>
      <trkpt lat="43.90557" lon="1.92849">
        <ele>134.040815</ele>
        <time>2026-08-29T16:16:54Z</time>
      </trkpt>
      <trkpt lat="43.90553" lon="1.92844">
        <ele>134.039856</ele>
        <time>2026-08-29T16:16:55Z</time>
      </trkpt>
      <trkpt lat="43.9055" lon="1.92839">
        <ele>134.038882</ele>
        <time>2026-08-29T16:16:56Z</time>
      </trkpt>
      <trkpt lat="43.90546" lon="1.92834">
        <ele>134.037909</ele>
        <time>2026-08-29T16:16:57Z</time>
      </trkpt>
      <trkpt lat="43.90543" lon="1.9283">
        <ele>134.036903</ele>
        <time>2026-08-29T16:16:58Z</time>
      </trkpt>
      <trkpt lat="43.90538" lon="1.92825">
        <ele>134.03586</ele>
        <time>2026-08-29T16:16:59Z</time>
      </trkpt>
      <trkpt lat="43.90534" lon="1.92821">
        <ele>134.034856</ele>
        <time>2026-08-29T16:17:00Z</time>
      </trkpt>
      <trkpt lat="43.9053" lon="1.92817">
        <ele>134.033795</ele>
        <time>2026-08-29T16:17:01Z</time>
      </trkpt>
      <trkpt lat="43.90526" lon="1.92812">
        <ele>134.03276</ele>
        <time>2026-08-29T16:17:02Z</time>
      </trkpt>
      <trkpt lat="43.90521" lon="1.92808">
        <ele>134.023354</ele>
        <time>2026-08-29T16:17:03Z</time>
      </trkpt>
      <trkpt lat="43.90517" lon="1.92803">
        <ele>134.005075</ele>
        <time>2026-08-29T16:17:04Z</time>
      </trkpt>
      <trkpt lat="43.90514" lon="1.92798">
        <ele>133.987495</ele>
        <time>2026-08-29T16:17:05Z</time>
      </trkpt>
      <trkpt lat="43.9051" lon="1.92793">
        <ele>133.968905</ele>
        <time>2026-08-29T16:17:06Z</time>
      </trkpt>
      <trkpt lat="43.90506" lon="1.92788">
        <ele>133.951992</ele>
        <time>2026-08-29T16:17:07Z</time>
      </trkpt>
      <trkpt lat="43.90502" lon="1.92784">
        <ele>133.934659</ele>
        <time>2026-08-29T16:17:08Z</time>
      </trkpt>
      <trkpt lat="43.90499" lon="1.92779">
        <ele>133.917225</ele>
        <time>2026-08-29T16:17:09Z</time>
      </trkpt>
      <trkpt lat="43.90495" lon="1.92775">
        <ele>133.899833</ele>
        <time>2026-08-29T16:17:10Z</time>
      </trkpt>
      <trkpt lat="43.90491" lon="1.9277">
        <ele>133.882288</ele>
        <time>2026-08-29T16:17:11Z</time>
      </trkpt>
      <trkpt lat="43.90487" lon="1.92765">
        <ele>133.864118</ele>
        <time>2026-08-29T16:17:12Z</time>
      </trkpt>
      <trkpt lat="43.90483" lon="1.9276">
        <ele>133.846538</ele>
        <time>2026-08-29T16:17:13Z</time>
      </trkpt>
      <trkpt lat="43.90479" lon="1.92756">
        <ele>133.828708</ele>
        <time>2026-08-29T16:17:14Z</time>
      </trkpt>
      <trkpt lat="43.90475" lon="1.92751">
        <ele>133.811115</ele>
        <time>2026-08-29T16:17:15Z</time>
      </trkpt>
      <trkpt lat="43.90471" lon="1.92747">
        <ele>133.792751</ele>
        <time>2026-08-29T16:17:16Z</time>
      </trkpt>
      <trkpt lat="43.90467" lon="1.92742">
        <ele>133.774833</ele>
        <time>2026-08-29T16:17:17Z</time>
      </trkpt>
      <trkpt lat="43.90463" lon="1.92737">
        <ele>133.757288</ele>
        <time>2026-08-29T16:17:18Z</time>
      </trkpt>
      <trkpt lat="43.90459" lon="1.92732">
        <ele>133.737683</ele>
        <time>2026-08-29T16:17:19Z</time>
      </trkpt>
      <trkpt lat="43.90455" lon="1.92727">
        <ele>133.719012</ele>
        <time>2026-08-29T16:17:20Z</time>
      </trkpt>
      <trkpt lat="43.90451" lon="1.92722">
        <ele>133.699829</ele>
        <time>2026-08-29T16:17:21Z</time>
      </trkpt>
      <trkpt lat="43.90447" lon="1.92717">
        <ele>133.682333</ele>
        <time>2026-08-29T16:17:22Z</time>
      </trkpt>
      <trkpt lat="43.90443" lon="1.92713">
        <ele>133.665843</ele>
        <time>2026-08-29T16:17:23Z</time>
      </trkpt>
      <trkpt lat="43.90439" lon="1.92708">
        <ele>133.648347</ele>
        <time>2026-08-29T16:17:24Z</time>
      </trkpt>
      <trkpt lat="43.90435" lon="1.92703">
        <ele>133.628246</ele>
        <time>2026-08-29T16:17:25Z</time>
      </trkpt>
      <trkpt lat="43.90431" lon="1.92697">
        <ele>133.608986</ele>
        <time>2026-08-29T16:17:26Z</time>
      </trkpt>
      <trkpt lat="43.90427" lon="1.92692">
        <ele>133.590646</ele>
        <time>2026-08-29T16:17:27Z</time>
      </trkpt>
      <trkpt lat="43.90423" lon="1.92687">
        <ele>133.572142</ele>
        <time>2026-08-29T16:17:28Z</time>
      </trkpt>
      <trkpt lat="43.90419" lon="1.92683">
        <ele>133.554285</ele>
        <time>2026-08-29T16:17:29Z</time>
      </trkpt>
      <trkpt lat="43.90415" lon="1.92678">
        <ele>133.536317</ele>
        <time>2026-08-29T16:17:30Z</time>
      </trkpt>
      <trkpt lat="43.90411" lon="1.92674">
        <ele>133.518349</ele>
        <time>2026-08-29T16:17:31Z</time>
      </trkpt>
      <trkpt lat="43.90407" lon="1.9267">
        <ele>133.500698</ele>
        <time>2026-08-29T16:17:32Z</time>
      </trkpt>
      <trkpt lat="43.90402" lon="1.92666">
        <ele>133.483047</ele>
        <time>2026-08-29T16:17:33Z</time>
      </trkpt>
      <trkpt lat="43.90398" lon="1.92662">
        <ele>133.46582</ele>
        <time>2026-08-29T16:17:34Z</time>
      </trkpt>
      <trkpt lat="43.90394" lon="1.92658">
        <ele>133.448006</ele>
        <time>2026-08-29T16:17:35Z</time>
      </trkpt>
      <trkpt lat="43.9039" lon="1.92654">
        <ele>133.431059</ele>
        <time>2026-08-29T16:17:36Z</time>
      </trkpt>
      <trkpt lat="43.90386" lon="1.9265">
        <ele>133.412273</ele>
        <time>2026-08-29T16:17:37Z</time>
      </trkpt>
      <trkpt lat="43.90381" lon="1.92647">
        <ele>133.340725</ele>
        <time>2026-08-29T16:17:38Z</time>
      </trkpt>
      <trkpt lat="43.90377" lon="1.92644">
        <ele>133.278902</ele>
        <time>2026-08-29T16:17:39Z</time>
      </trkpt>
      <trkpt lat="43.90374" lon="1.92641">
        <ele>133.218303</ele>
        <time>2026-08-29T16:17:40Z</time>
      </trkpt>
      <trkpt lat="43.9037" lon="1.92637">
        <ele>133.155447</ele>
        <time>2026-08-29T16:17:41Z</time>
      </trkpt>
      <trkpt lat="43.90366" lon="1.92634">
        <ele>133.093796</ele>
        <time>2026-08-29T16:17:42Z</time>
      </trkpt>
      <trkpt lat="43.90363" lon="1.92631">
        <ele>133.032144</ele>
        <time>2026-08-29T16:17:43Z</time>
      </trkpt>
      <trkpt lat="43.90359" lon="1.92628">
        <ele>132.971025</ele>
        <time>2026-08-29T16:17:44Z</time>
      </trkpt>
      <trkpt lat="43.90354" lon="1.92625">
        <ele>132.89998</ele>
        <time>2026-08-29T16:17:45Z</time>
      </trkpt>
      <trkpt lat="43.9035" lon="1.92621">
        <ele>132.830821</ele>
        <time>2026-08-29T16:17:46Z</time>
      </trkpt>
      <trkpt lat="43.90347" lon="1.92617">
        <ele>132.76633</ele>
        <time>2026-08-29T16:17:47Z</time>
      </trkpt>
      <trkpt lat="43.90341" lon="1.92614">
        <ele>132.681993</ele>
        <time>2026-08-29T16:17:48Z</time>
      </trkpt>
      <trkpt lat="43.90335" lon="1.92611">
        <ele>132.593134</ele>
        <time>2026-08-29T16:17:49Z</time>
      </trkpt>
      <trkpt lat="43.90329" lon="1.92608">
        <ele>132.501991</ele>
        <time>2026-08-29T16:17:50Z</time>
      </trkpt>
      <trkpt lat="43.90324" lon="1.92604">
        <ele>132.415552</ele>
        <time>2026-08-29T16:17:51Z</time>
      </trkpt>
      <trkpt lat="43.90318" lon="1.92602">
        <ele>132.333385</ele>
        <time>2026-08-29T16:17:52Z</time>
      </trkpt>
      <trkpt lat="43.90313" lon="1.92599">
        <ele>132.250182</ele>
        <time>2026-08-29T16:17:53Z</time>
      </trkpt>
      <trkpt lat="43.90307" lon="1.92595">
        <ele>132.165901</ele>
        <time>2026-08-29T16:17:54Z</time>
      </trkpt>
      <trkpt lat="43.90302" lon="1.92592">
        <ele>132.080755</ele>
        <time>2026-08-29T16:17:55Z</time>
      </trkpt>
      <trkpt lat="43.90296" lon="1.92589">
        <ele>131.997185</ele>
        <time>2026-08-29T16:17:56Z</time>
      </trkpt>
      <trkpt lat="43.90291" lon="1.92586">
        <ele>131.915303</ele>
        <time>2026-08-29T16:17:57Z</time>
      </trkpt>
      <trkpt lat="43.90286" lon="1.92583">
        <ele>131.833968</ele>
        <time>2026-08-29T16:17:58Z</time>
      </trkpt>
      <trkpt lat="43.9028" lon="1.9258">
        <ele>131.755232</ele>
        <time>2026-08-29T16:17:59Z</time>
      </trkpt>
      <trkpt lat="43.90276" lon="1.92577">
        <ele>131.6816</ele>
        <time>2026-08-29T16:18:00Z</time>
      </trkpt>
      <trkpt lat="43.90271" lon="1.92574">
        <ele>131.60366</ele>
        <time>2026-08-29T16:18:01Z</time>
      </trkpt>
      <trkpt lat="43.90265" lon="1.92571">
        <ele>131.524084</ele>
        <time>2026-08-29T16:18:02Z</time>
      </trkpt>
      <trkpt lat="43.90261" lon="1.92568">
        <ele>131.452208</ele>
        <time>2026-08-29T16:18:03Z</time>
      </trkpt>
      <trkpt lat="43.90256" lon="1.92564">
        <ele>131.372552</ele>
        <time>2026-08-29T16:18:04Z</time>
      </trkpt>
      <trkpt lat="43.90251" lon="1.92561">
        <ele>131.295519</ele>
        <time>2026-08-29T16:18:05Z</time>
      </trkpt>
      <trkpt lat="43.90246" lon="1.92558">
        <ele>131.215061</ele>
        <time>2026-08-29T16:18:06Z</time>
      </trkpt>
      <trkpt lat="43.9024" lon="1.92554">
        <ele>131.132027</ele>
        <time>2026-08-29T16:18:07Z</time>
      </trkpt>
      <trkpt lat="43.90235" lon="1.92551">
        <ele>131.054555</ele>
        <time>2026-08-29T16:18:08Z</time>
      </trkpt>
      <trkpt lat="43.90231" lon="1.92547">
        <ele>130.984746</ele>
        <time>2026-08-29T16:18:09Z</time>
      </trkpt>
      <trkpt lat="43.90227" lon="1.92543">
        <ele>130.9173</ele>
        <time>2026-08-29T16:18:10Z</time>
      </trkpt>
      <trkpt lat="43.90224" lon="1.92539">
        <ele>130.880036</ele>
        <time>2026-08-29T16:18:11Z</time>
      </trkpt>
      <trkpt lat="43.9022" lon="1.92535">
        <ele>130.908246</ele>
        <time>2026-08-29T16:18:12Z</time>
      </trkpt>
      <trkpt lat="43.90216" lon="1.92531">
        <ele>130.938288</ele>
        <time>2026-08-29T16:18:13Z</time>
      </trkpt>
      <trkpt lat="43.90213" lon="1.92527">
        <ele>130.966895</ele>
        <time>2026-08-29T16:18:14Z</time>
      </trkpt>
      <trkpt lat="43.90209" lon="1.92523">
        <ele>130.996372</ele>
        <time>2026-08-29T16:18:15Z</time>
      </trkpt>
      <trkpt lat="43.90206" lon="1.92519">
        <ele>131.021898</ele>
        <time>2026-08-29T16:18:16Z</time>
      </trkpt>
      <trkpt lat="43.90204" lon="1.92515">
        <ele>131.045124</ele>
        <time>2026-08-29T16:18:17Z</time>
      </trkpt>
      <trkpt lat="43.90201" lon="1.92511">
        <ele>131.070821</ele>
        <time>2026-08-29T16:18:18Z</time>
      </trkpt>
      <trkpt lat="43.90198" lon="1.92507">
        <ele>131.098192</ele>
        <time>2026-08-29T16:18:19Z</time>
      </trkpt>
      <trkpt lat="43.90195" lon="1.92503">
        <ele>131.124974</ele>
        <time>2026-08-29T16:18:20Z</time>
      </trkpt>
      <trkpt lat="43.90192" lon="1.92499">
        <ele>131.149995</ele>
        <time>2026-08-29T16:18:21Z</time>
      </trkpt>
      <trkpt lat="43.9019" lon="1.92494">
        <ele>131.177552</ele>
        <time>2026-08-29T16:18:22Z</time>
      </trkpt>
      <trkpt lat="43.90187" lon="1.92489">
        <ele>131.207081</ele>
        <time>2026-08-29T16:18:23Z</time>
      </trkpt>
      <trkpt lat="43.90184" lon="1.92485">
        <ele>131.233863</ele>
        <time>2026-08-29T16:18:24Z</time>
      </trkpt>
      <trkpt lat="43.90181" lon="1.9248">
        <ele>131.261409</ele>
        <time>2026-08-29T16:18:25Z</time>
      </trkpt>
      <trkpt lat="43.90177" lon="1.92476">
        <ele>131.28972</ele>
        <time>2026-08-29T16:18:26Z</time>
      </trkpt>
      <trkpt lat="43.90174" lon="1.92471">
        <ele>131.318242</ele>
        <time>2026-08-29T16:18:27Z</time>
      </trkpt>
      <trkpt lat="43.90171" lon="1.92466">
        <ele>131.346563</ele>
        <time>2026-08-29T16:18:28Z</time>
      </trkpt>
      <trkpt lat="43.90168" lon="1.92462">
        <ele>131.373668</ele>
        <time>2026-08-29T16:18:29Z</time>
      </trkpt>
      <trkpt lat="43.90165" lon="1.92458">
        <ele>131.399662</ele>
        <time>2026-08-29T16:18:30Z</time>
      </trkpt>
      <trkpt lat="43.90163" lon="1.92454">
        <ele>131.424276</ele>
        <time>2026-08-29T16:18:31Z</time>
      </trkpt>
      <trkpt lat="43.9016" lon="1.92451">
        <ele>131.448337</ele>
        <time>2026-08-29T16:18:32Z</time>
      </trkpt>
      <trkpt lat="43.90157" lon="1.92447">
        <ele>131.472184</ele>
        <time>2026-08-29T16:18:33Z</time>
      </trkpt>
      <trkpt lat="43.90154" lon="1.92443">
        <ele>131.497439</ele>
        <time>2026-08-29T16:18:34Z</time>
      </trkpt>
      <trkpt lat="43.90151" lon="1.92439">
        <ele>131.522364</ele>
        <time>2026-08-29T16:18:35Z</time>
      </trkpt>
      <trkpt lat="43.90149" lon="1.92435">
        <ele>131.547296</ele>
        <time>2026-08-29T16:18:36Z</time>
      </trkpt>
      <trkpt lat="43.90146" lon="1.92432">
        <ele>131.570379</ele>
        <time>2026-08-29T16:18:37Z</time>
      </trkpt>
      <trkpt lat="43.90144" lon="1.92429">
        <ele>131.587914</ele>
        <time>2026-08-29T16:18:38Z</time>
      </trkpt>
      <trkpt lat="43.90143" lon="1.92426">
        <ele>131.603715</ele>
        <time>2026-08-29T16:18:39Z</time>
      </trkpt>
      <trkpt lat="43.90142" lon="1.92424">
        <ele>131.613945</ele>
        <time>2026-08-29T16:18:40Z</time>
      </trkpt>
      <trkpt lat="43.90141" lon="1.92423">
        <ele>131.620591</ele>
        <time>2026-08-29T16:18:41Z</time>
      </trkpt>
      <trkpt lat="43.90141" lon="1.92423">
        <ele>131.622915</ele>
        <time>2026-08-29T16:18:42Z</time>
      </trkpt>
      <trkpt lat="43.90141" lon="1.92422">
        <ele>131.624766</ele>
        <time>2026-08-29T16:18:43Z</time>
      </trkpt>
      <trkpt lat="43.90127" lon="1.92406">
        <ele>131.736884</ele>
        <time>2026-08-29T16:19:03Z</time>
      </trkpt>
      <trkpt lat="43.90127" lon="1.92405">
        <ele>131.743961</ele>
        <time>2026-08-29T16:19:04Z</time>
      </trkpt>
      <trkpt lat="43.90126" lon="1.92404">
        <ele>131.751805</ele>
        <time>2026-08-29T16:19:05Z</time>
      </trkpt>
      <trkpt lat="43.90125" lon="1.92402">
        <ele>131.759649</ele>
        <time>2026-08-29T16:19:06Z</time>
      </trkpt>
      <trkpt lat="43.90124" lon="1.92401">
        <ele>131.766727</ele>
        <time>2026-08-29T16:19:07Z</time>
      </trkpt>
      <trkpt lat="43.90123" lon="1.924">
        <ele>131.773805</ele>
        <time>2026-08-29T16:19:08Z</time>
      </trkpt>
      <trkpt lat="43.90122" lon="1.92399">
        <ele>131.782732</ele>
        <time>2026-08-29T16:19:09Z</time>
      </trkpt>
      <trkpt lat="43.90121" lon="1.92397">
        <ele>131.791228</ele>
        <time>2026-08-29T16:19:10Z</time>
      </trkpt>
      <trkpt lat="43.90121" lon="1.92396">
        <ele>131.79897</ele>
        <time>2026-08-29T16:19:11Z</time>
      </trkpt>
      <trkpt lat="43.9012" lon="1.92395">
        <ele>131.806347</ele>
        <time>2026-08-29T16:19:12Z</time>
      </trkpt>
      <trkpt lat="43.9012" lon="1.92393">
        <ele>131.813834</ele>
        <time>2026-08-29T16:19:13Z</time>
      </trkpt>
      <trkpt lat="43.90119" lon="1.92392">
        <ele>131.818739</ele>
        <time>2026-08-29T16:19:14Z</time>
      </trkpt>
      <trkpt lat="43.90119" lon="1.92391">
        <ele>131.822863</ele>
        <time>2026-08-29T16:19:15Z</time>
      </trkpt>
      <trkpt lat="43.90119" lon="1.92391">
        <ele>131.825535</ele>
        <time>2026-08-29T16:19:16Z</time>
      </trkpt>
      <trkpt lat="43.90119" lon="1.92391">
        <ele>131.825988</ele>
        <time>2026-08-29T16:19:17Z</time>
      </trkpt>
      <trkpt lat="43.90119" lon="1.92391">
        <ele>131.828252</ele>
        <time>2026-08-29T16:19:18Z</time>
      </trkpt>
      <trkpt lat="43.90103" lon="1.92373">
        <ele>131.957772</ele>
        <time>2026-08-29T16:21:18Z</time>
      </trkpt>
      <trkpt lat="43.90101" lon="1.92372">
        <ele>131.970682</ele>
        <time>2026-08-29T16:21:19Z</time>
      </trkpt>
      <trkpt lat="43.90099" lon="1.92369">
        <ele>131.985824</ele>
        <time>2026-08-29T16:21:20Z</time>
      </trkpt>
      <trkpt lat="43.90097" lon="1.92367">
        <ele>132.000746</ele>
        <time>2026-08-29T16:21:21Z</time>
      </trkpt>
      <trkpt lat="43.90095" lon="1.92365">
        <ele>132.000278</ele>
        <time>2026-08-29T16:21:22Z</time>
      </trkpt>
      <trkpt lat="43.90093" lon="1.92363">
        <ele>131.999785</ele>
        <time>2026-08-29T16:21:23Z</time>
      </trkpt>
      <trkpt lat="43.90091" lon="1.92361">
        <ele>131.999266</ele>
        <time>2026-08-29T16:21:24Z</time>
      </trkpt>
      <trkpt lat="43.90088" lon="1.92359">
        <ele>131.998751</ele>
        <time>2026-08-29T16:21:25Z</time>
      </trkpt>
      <trkpt lat="43.90086" lon="1.92357">
        <ele>131.998212</ele>
        <time>2026-08-29T16:21:26Z</time>
      </trkpt>
      <trkpt lat="43.90084" lon="1.92355">
        <ele>131.99768</ele>
        <time>2026-08-29T16:21:27Z</time>
      </trkpt>
      <trkpt lat="43.90082" lon="1.92352">
        <ele>131.997228</ele>
        <time>2026-08-29T16:21:28Z</time>
      </trkpt>
      <trkpt lat="43.9008" lon="1.92349">
        <ele>131.996688</ele>
        <time>2026-08-29T16:21:29Z</time>
      </trkpt>
      <trkpt lat="43.90078" lon="1.92347">
        <ele>131.996153</ele>
        <time>2026-08-29T16:21:30Z</time>
      </trkpt>
      <trkpt lat="43.90075" lon="1.92345">
        <ele>131.995548</ele>
        <time>2026-08-29T16:21:31Z</time>
      </trkpt>
      <trkpt lat="43.90073" lon="1.92342">
        <ele>131.994938</ele>
        <time>2026-08-29T16:21:32Z</time>
      </trkpt>
      <trkpt lat="43.9007" lon="1.92339">
        <ele>131.994272</ele>
        <time>2026-08-29T16:21:33Z</time>
      </trkpt>
      <trkpt lat="43.90068" lon="1.92336">
        <ele>131.993658</ele>
        <time>2026-08-29T16:21:34Z</time>
      </trkpt>
      <trkpt lat="43.90066" lon="1.92332">
        <ele>131.993032</ele>
        <time>2026-08-29T16:21:35Z</time>
      </trkpt>
      <trkpt lat="43.90063" lon="1.92329">
        <ele>131.992436</ele>
        <time>2026-08-29T16:21:36Z</time>
      </trkpt>
      <trkpt lat="43.90061" lon="1.92326">
        <ele>131.99179</ele>
        <time>2026-08-29T16:21:37Z</time>
      </trkpt>
      <trkpt lat="43.90059" lon="1.92324">
        <ele>131.991231</ele>
        <time>2026-08-29T16:21:38Z</time>
      </trkpt>
      <trkpt lat="43.90057" lon="1.9232">
        <ele>131.990661</ele>
        <time>2026-08-29T16:21:39Z</time>
      </trkpt>
      <trkpt lat="43.90055" lon="1.92318">
        <ele>131.990111</ele>
        <time>2026-08-29T16:21:40Z</time>
      </trkpt>
      <trkpt lat="43.90052" lon="1.92315">
        <ele>131.98957</ele>
        <time>2026-08-29T16:21:41Z</time>
      </trkpt>
      <trkpt lat="43.9005" lon="1.92312">
        <ele>131.988991</ele>
        <time>2026-08-29T16:21:42Z</time>
      </trkpt>
      <trkpt lat="43.90048" lon="1.9231">
        <ele>131.988429</ele>
        <time>2026-08-29T16:21:43Z</time>
      </trkpt>
      <trkpt lat="43.90045" lon="1.92307">
        <ele>131.98771</ele>
        <time>2026-08-29T16:21:44Z</time>
      </trkpt>
      <trkpt lat="43.90042" lon="1.92304">
        <ele>131.987044</ele>
        <time>2026-08-29T16:21:45Z</time>
      </trkpt>
      <trkpt lat="43.90039" lon="1.92301">
        <ele>131.986395</ele>
        <time>2026-08-29T16:21:46Z</time>
      </trkpt>
      <trkpt lat="43.90037" lon="1.92298">
        <ele>131.985777</ele>
        <time>2026-08-29T16:21:47Z</time>
      </trkpt>
      <trkpt lat="43.90034" lon="1.92296">
        <ele>131.985121</ele>
        <time>2026-08-29T16:21:48Z</time>
      </trkpt>
      <trkpt lat="43.90031" lon="1.92294">
        <ele>131.984459</ele>
        <time>2026-08-29T16:21:49Z</time>
      </trkpt>
      <trkpt lat="43.90028" lon="1.92291">
        <ele>131.983807</ele>
        <time>2026-08-29T16:21:50Z</time>
      </trkpt>
      <trkpt lat="43.90025" lon="1.92289">
        <ele>131.983202</ele>
        <time>2026-08-29T16:21:51Z</time>
      </trkpt>
      <trkpt lat="43.90022" lon="1.92287">
        <ele>131.982586</ele>
        <time>2026-08-29T16:21:52Z</time>
      </trkpt>
      <trkpt lat="43.90019" lon="1.92285">
        <ele>131.981896</ele>
        <time>2026-08-29T16:21:53Z</time>
      </trkpt>
      <trkpt lat="43.90015" lon="1.92283">
        <ele>131.981228</ele>
        <time>2026-08-29T16:21:54Z</time>
      </trkpt>
      <trkpt lat="43.90012" lon="1.9228">
        <ele>131.980492</ele>
        <time>2026-08-29T16:21:55Z</time>
      </trkpt>
      <trkpt lat="43.90009" lon="1.92277">
        <ele>131.97978</ele>
        <time>2026-08-29T16:21:56Z</time>
      </trkpt>
      <trkpt lat="43.90005" lon="1.92274">
        <ele>131.978965</ele>
        <time>2026-08-29T16:21:57Z</time>
      </trkpt>
      <trkpt lat="43.90002" lon="1.92271">
        <ele>131.978239</ele>
        <time>2026-08-29T16:21:58Z</time>
      </trkpt>
      <trkpt lat="43.89999" lon="1.92269">
        <ele>131.97757</ele>
        <time>2026-08-29T16:21:59Z</time>
      </trkpt>
      <trkpt lat="43.89996" lon="1.92267">
        <ele>131.976905</ele>
        <time>2026-08-29T16:22:00Z</time>
      </trkpt>
      <trkpt lat="43.89993" lon="1.92264">
        <ele>131.976316</ele>
        <time>2026-08-29T16:22:01Z</time>
      </trkpt>
      <trkpt lat="43.89991" lon="1.92263">
        <ele>131.975791</ele>
        <time>2026-08-29T16:22:02Z</time>
      </trkpt>
      <trkpt lat="43.89987" lon="1.92261">
        <ele>131.975106</ele>
        <time>2026-08-29T16:22:03Z</time>
      </trkpt>
      <trkpt lat="43.89985" lon="1.92259">
        <ele>131.974477</ele>
        <time>2026-08-29T16:22:04Z</time>
      </trkpt>
      <trkpt lat="43.89982" lon="1.92256">
        <ele>131.973868</ele>
        <time>2026-08-29T16:22:05Z</time>
      </trkpt>
      <trkpt lat="43.89979" lon="1.92253">
        <ele>131.973243</ele>
        <time>2026-08-29T16:22:06Z</time>
      </trkpt>
      <trkpt lat="43.89976" lon="1.92251">
        <ele>131.972563</ele>
        <time>2026-08-29T16:22:07Z</time>
      </trkpt>
      <trkpt lat="43.89974" lon="1.92247">
        <ele>131.971874</ele>
        <time>2026-08-29T16:22:08Z</time>
      </trkpt>
      <trkpt lat="43.8997" lon="1.92244">
        <ele>131.971124</ele>
        <time>2026-08-29T16:22:09Z</time>
      </trkpt>
      <trkpt lat="43.89967" lon="1.92241">
        <ele>131.970373</ele>
        <time>2026-08-29T16:22:10Z</time>
      </trkpt>
      <trkpt lat="43.89964" lon="1.92239">
        <ele>131.969642</ele>
        <time>2026-08-29T16:22:11Z</time>
      </trkpt>
      <trkpt lat="43.89961" lon="1.92236">
        <ele>131.968946</ele>
        <time>2026-08-29T16:22:12Z</time>
      </trkpt>
      <trkpt lat="43.89957" lon="1.92233">
        <ele>131.968234</ele>
        <time>2026-08-29T16:22:13Z</time>
      </trkpt>
      <trkpt lat="43.89954" lon="1.92231">
        <ele>131.967536</ele>
        <time>2026-08-29T16:22:14Z</time>
      </trkpt>
      <trkpt lat="43.89951" lon="1.92228">
        <ele>131.966887</ele>
        <time>2026-08-29T16:22:15Z</time>
      </trkpt>
      <trkpt lat="43.89948" lon="1.92225">
        <ele>131.903551</ele>
        <time>2026-08-29T16:22:16Z</time>
      </trkpt>
      <trkpt lat="43.89945" lon="1.92223">
        <ele>131.798664</ele>
        <time>2026-08-29T16:22:17Z</time>
      </trkpt>
      <trkpt lat="43.89943" lon="1.9222">
        <ele>131.690184</ele>
        <time>2026-08-29T16:22:18Z</time>
      </trkpt>
      <trkpt lat="43.89939" lon="1.92218">
        <ele>131.572672</ele>
        <time>2026-08-29T16:22:19Z</time>
      </trkpt>
      <trkpt lat="43.89937" lon="1.92215">
        <ele>131.462787</ele>
        <time>2026-08-29T16:22:20Z</time>
      </trkpt>
      <trkpt lat="43.89933" lon="1.92212">
        <ele>131.349096</ele>
        <time>2026-08-29T16:22:21Z</time>
      </trkpt>
      <trkpt lat="43.8993" lon="1.92209">
        <ele>131.230374</ele>
        <time>2026-08-29T16:22:22Z</time>
      </trkpt>
      <trkpt lat="43.89927" lon="1.92206">
        <ele>131.119301</ele>
        <time>2026-08-29T16:22:23Z</time>
      </trkpt>
      <trkpt lat="43.89924" lon="1.92204">
        <ele>131.00561</ele>
        <time>2026-08-29T16:22:24Z</time>
      </trkpt>
      <trkpt lat="43.89921" lon="1.92201">
        <ele>130.895739</ele>
        <time>2026-08-29T16:22:25Z</time>
      </trkpt>
      <trkpt lat="43.89918" lon="1.92198">
        <ele>130.783221</ele>
        <time>2026-08-29T16:22:26Z</time>
      </trkpt>
      <trkpt lat="43.89915" lon="1.92196">
        <ele>130.672952</ele>
        <time>2026-08-29T16:22:27Z</time>
      </trkpt>
      <trkpt lat="43.89912" lon="1.92193">
        <ele>130.566901</ele>
        <time>2026-08-29T16:22:28Z</time>
      </trkpt>
      <trkpt lat="43.89909" lon="1.92191">
        <ele>130.466305</ele>
        <time>2026-08-29T16:22:29Z</time>
      </trkpt>
      <trkpt lat="43.89906" lon="1.9219">
        <ele>130.367986</ele>
        <time>2026-08-29T16:22:30Z</time>
      </trkpt>
      <trkpt lat="43.89903" lon="1.92189">
        <ele>130.275161</ele>
        <time>2026-08-29T16:22:31Z</time>
      </trkpt>
      <trkpt lat="43.89901" lon="1.92188">
        <ele>130.19135</ele>
        <time>2026-08-29T16:22:32Z</time>
      </trkpt>
      <trkpt lat="43.89898" lon="1.92187">
        <ele>130.112126</ele>
        <time>2026-08-29T16:22:33Z</time>
      </trkpt>
      <trkpt lat="43.89895" lon="1.92187">
        <ele>130.02751</ele>
        <time>2026-08-29T16:22:34Z</time>
      </trkpt>
      <trkpt lat="43.89893" lon="1.92187">
        <ele>129.940415</ele>
        <time>2026-08-29T16:22:35Z</time>
      </trkpt>
      <trkpt lat="43.8989" lon="1.92188">
        <ele>129.866182</ele>
        <time>2026-08-29T16:22:36Z</time>
      </trkpt>
      <trkpt lat="43.89888" lon="1.92188">
        <ele>129.794176</ele>
        <time>2026-08-29T16:22:37Z</time>
      </trkpt>
      <trkpt lat="43.89886" lon="1.92185">
        <ele>129.71627</ele>
        <time>2026-08-29T16:22:38Z</time>
      </trkpt>
      <trkpt lat="43.89884" lon="1.92183">
        <ele>129.624242</ele>
        <time>2026-08-29T16:22:39Z</time>
      </trkpt>
      <trkpt lat="43.89882" lon="1.92179">
        <ele>129.517705</ele>
        <time>2026-08-29T16:22:40Z</time>
      </trkpt>
      <trkpt lat="43.89879" lon="1.92175">
        <ele>129.386912</ele>
        <time>2026-08-29T16:22:41Z</time>
      </trkpt>
      <trkpt lat="43.89875" lon="1.92171">
        <ele>129.236406</ele>
        <time>2026-08-29T16:22:42Z</time>
      </trkpt>
      <trkpt lat="43.8987" lon="1.92166">
        <ele>129.056465</ele>
        <time>2026-08-29T16:22:43Z</time>
      </trkpt>
      <trkpt lat="43.89866" lon="1.92161">
        <ele>128.881218</ele>
        <time>2026-08-29T16:22:44Z</time>
      </trkpt>
      <trkpt lat="43.89862" lon="1.92157">
        <ele>128.727871</ele>
        <time>2026-08-29T16:22:45Z</time>
      </trkpt>
      <trkpt lat="43.89858" lon="1.92153">
        <ele>128.584946</ele>
        <time>2026-08-29T16:22:46Z</time>
      </trkpt>
      <trkpt lat="43.89854" lon="1.9215">
        <ele>128.436919</ele>
        <time>2026-08-29T16:22:47Z</time>
      </trkpt>
      <trkpt lat="43.89852" lon="1.92146">
        <ele>128.325945</ele>
        <time>2026-08-29T16:22:48Z</time>
      </trkpt>
      <trkpt lat="43.89849" lon="1.92143">
        <ele>128.220286</ele>
        <time>2026-08-29T16:22:49Z</time>
      </trkpt>
      <trkpt lat="43.89848" lon="1.9214">
        <ele>128.142038</ele>
        <time>2026-08-29T16:22:50Z</time>
      </trkpt>
      <trkpt lat="43.89846" lon="1.92137">
        <ele>128.058455</ele>
        <time>2026-08-29T16:22:51Z</time>
      </trkpt>
      <trkpt lat="43.89844" lon="1.92135">
        <ele>127.981588</ele>
        <time>2026-08-29T16:22:52Z</time>
      </trkpt>
      <trkpt lat="43.89843" lon="1.92132">
        <ele>127.894205</ele>
        <time>2026-08-29T16:22:53Z</time>
      </trkpt>
      <trkpt lat="43.8984" lon="1.92129">
        <ele>127.78829</ele>
        <time>2026-08-29T16:22:54Z</time>
      </trkpt>
      <trkpt lat="43.89837" lon="1.92127">
        <ele>127.693695</ele>
        <time>2026-08-29T16:22:55Z</time>
      </trkpt>
      <trkpt lat="43.89834" lon="1.92124">
        <ele>127.57883</ele>
        <time>2026-08-29T16:22:56Z</time>
      </trkpt>
      <trkpt lat="43.89831" lon="1.9212">
        <ele>127.453773</ele>
        <time>2026-08-29T16:22:57Z</time>
      </trkpt>
      <trkpt lat="43.89829" lon="1.92117">
        <ele>127.353845</ele>
        <time>2026-08-29T16:22:58Z</time>
      </trkpt>
      <trkpt lat="43.89827" lon="1.92114">
        <ele>127.263992</ele>
        <time>2026-08-29T16:22:59Z</time>
      </trkpt>
      <trkpt lat="43.89825" lon="1.92111">
        <ele>127.178563</ele>
        <time>2026-08-29T16:23:00Z</time>
      </trkpt>
      <trkpt lat="43.89823" lon="1.92108">
        <ele>127.083324</ele>
        <time>2026-08-29T16:23:01Z</time>
      </trkpt>
      <trkpt lat="43.89821" lon="1.92105">
        <ele>126.993471</ele>
        <time>2026-08-29T16:23:02Z</time>
      </trkpt>
      <trkpt lat="43.89819" lon="1.92102">
        <ele>126.900742</ele>
        <time>2026-08-29T16:23:03Z</time>
      </trkpt>
      <trkpt lat="43.89817" lon="1.92099">
        <ele>126.812493</ele>
        <time>2026-08-29T16:23:04Z</time>
      </trkpt>
      <trkpt lat="43.89816" lon="1.92096">
        <ele>126.733724</ele>
        <time>2026-08-29T16:23:05Z</time>
      </trkpt>
      <trkpt lat="43.89816" lon="1.92094">
        <ele>126.686309</ele>
        <time>2026-08-29T16:23:06Z</time>
      </trkpt>
      <trkpt lat="43.89815" lon="1.92093">
        <ele>126.662604</ele>
        <time>2026-08-29T16:23:07Z</time>
      </trkpt>
      <trkpt lat="43.89815" lon="1.92093">
        <ele>126.647289</ele>
        <time>2026-08-29T16:23:08Z</time>
      </trkpt>
      <trkpt lat="43.89817" lon="1.9207">
        <ele>126.243324</ele>
        <time>2026-08-29T16:26:21Z</time>
      </trkpt>
      <trkpt lat="43.89815" lon="1.92068">
        <ele>126.195264</ele>
        <time>2026-08-29T16:26:22Z</time>
      </trkpt>
      <trkpt lat="43.89812" lon="1.92066">
        <ele>126.148003</ele>
        <time>2026-08-29T16:26:23Z</time>
      </trkpt>
      <trkpt lat="43.8981" lon="1.92064">
        <ele>126.105184</ele>
        <time>2026-08-29T16:26:24Z</time>
      </trkpt>
      <trkpt lat="43.89808" lon="1.92062">
        <ele>126.062366</ele>
        <time>2026-08-29T16:26:25Z</time>
      </trkpt>
      <trkpt lat="43.89807" lon="1.9206">
        <ele>126.019455</ele>
        <time>2026-08-29T16:26:26Z</time>
      </trkpt>
      <trkpt lat="43.89805" lon="1.92058">
        <ele>125.982437</ele>
        <time>2026-08-29T16:26:27Z</time>
      </trkpt>
      <trkpt lat="43.89803" lon="1.92056">
        <ele>125.945689</ele>
        <time>2026-08-29T16:26:28Z</time>
      </trkpt>
      <trkpt lat="43.89802" lon="1.92055">
        <ele>125.912273</ele>
        <time>2026-08-29T16:26:29Z</time>
      </trkpt>
      <trkpt lat="43.89799" lon="1.92052">
        <ele>125.862191</ele>
        <time>2026-08-29T16:26:30Z</time>
      </trkpt>
      <trkpt lat="43.89797" lon="1.9205">
        <ele>125.81353</ele>
        <time>2026-08-29T16:26:31Z</time>
      </trkpt>
      <trkpt lat="43.89795" lon="1.92048">
        <ele>125.771156</ele>
        <time>2026-08-29T16:26:32Z</time>
      </trkpt>
      <trkpt lat="43.89794" lon="1.92046">
        <ele>125.731365</ele>
        <time>2026-08-29T16:26:33Z</time>
      </trkpt>
      <trkpt lat="43.89792" lon="1.92043">
        <ele>125.680316</ele>
        <time>2026-08-29T16:26:34Z</time>
      </trkpt>
      <trkpt lat="43.89789" lon="1.92041">
        <ele>125.632366</ele>
        <time>2026-08-29T16:26:35Z</time>
      </trkpt>
      <trkpt lat="43.89788" lon="1.92039">
        <ele>125.59163</ele>
        <time>2026-08-29T16:26:36Z</time>
      </trkpt>
      <trkpt lat="43.89785" lon="1.92037">
        <ele>125.541547</ele>
        <time>2026-08-29T16:26:37Z</time>
      </trkpt>
      <trkpt lat="43.89784" lon="1.92034">
        <ele>125.499604</ele>
        <time>2026-08-29T16:26:38Z</time>
      </trkpt>
      <trkpt lat="43.89782" lon="1.92033">
        <ele>125.459441</ele>
        <time>2026-08-29T16:26:39Z</time>
      </trkpt>
      <trkpt lat="43.89779" lon="1.92031">
        <ele>125.413713</ele>
        <time>2026-08-29T16:26:40Z</time>
      </trkpt>
      <trkpt lat="43.89778" lon="1.92028">
        <ele>125.367814</ele>
        <time>2026-08-29T16:26:41Z</time>
      </trkpt>
      <trkpt lat="43.89776" lon="1.92025">
        <ele>125.317919</ele>
        <time>2026-08-29T16:26:42Z</time>
      </trkpt>
      <trkpt lat="43.89775" lon="1.92022">
        <ele>125.276992</ele>
        <time>2026-08-29T16:26:43Z</time>
      </trkpt>
      <trkpt lat="43.89774" lon="1.92021">
        <ele>125.25003</ele>
        <time>2026-08-29T16:26:44Z</time>
      </trkpt>
      <trkpt lat="43.89774" lon="1.9202">
        <ele>125.238438</ele>
        <time>2026-08-29T16:26:45Z</time>
      </trkpt>
      <trkpt lat="43.89774" lon="1.9202">
        <ele>125.235892</ele>
        <time>2026-08-29T16:26:46Z</time>
      </trkpt>
      <trkpt lat="43.89762" lon="1.92009">
        <ele>124.985511</ele>
        <time>2026-08-29T16:28:09Z</time>
      </trkpt>
      <trkpt lat="43.89761" lon="1.92007">
        <ele>124.953471</ele>
        <time>2026-08-29T16:28:10Z</time>
      </trkpt>
      <trkpt lat="43.89759" lon="1.92006">
        <ele>124.927946</ele>
        <time>2026-08-29T16:28:11Z</time>
      </trkpt>
      <trkpt lat="43.89758" lon="1.92004">
        <ele>124.891559</ele>
        <time>2026-08-29T16:28:12Z</time>
      </trkpt>
      <trkpt lat="43.89756" lon="1.92003">
        <ele>124.858896</ele>
        <time>2026-08-29T16:28:13Z</time>
      </trkpt>
      <trkpt lat="43.89755" lon="1.92001">
        <ele>124.827869</ele>
        <time>2026-08-29T16:28:14Z</time>
      </trkpt>
      <trkpt lat="43.89754" lon="1.91999">
        <ele>124.797824</ele>
        <time>2026-08-29T16:28:15Z</time>
      </trkpt>
      <trkpt lat="43.89753" lon="1.91997">
        <ele>124.761405</ele>
        <time>2026-08-29T16:28:16Z</time>
      </trkpt>
      <trkpt lat="43.89751" lon="1.91995">
        <ele>124.719782</ele>
        <time>2026-08-29T16:28:17Z</time>
      </trkpt>
      <trkpt lat="43.8975" lon="1.91992">
        <ele>124.680474</ele>
        <time>2026-08-29T16:28:18Z</time>
      </trkpt>
      <trkpt lat="43.89748" lon="1.9199">
        <ele>124.635484</ele>
        <time>2026-08-29T16:28:19Z</time>
      </trkpt>
      <trkpt lat="43.89746" lon="1.91988">
        <ele>124.598736</ele>
        <time>2026-08-29T16:28:20Z</time>
      </trkpt>
      <trkpt lat="43.89745" lon="1.91985">
        <ele>124.545952</ele>
        <time>2026-08-29T16:28:21Z</time>
      </trkpt>
      <trkpt lat="43.89742" lon="1.91981">
        <ele>124.489906</ele>
        <time>2026-08-29T16:28:22Z</time>
      </trkpt>
      <trkpt lat="43.8974" lon="1.91978">
        <ele>124.435981</ele>
        <time>2026-08-29T16:28:23Z</time>
      </trkpt>
      <trkpt lat="43.89739" lon="1.91975">
        <ele>124.389156</ele>
        <time>2026-08-29T16:28:24Z</time>
      </trkpt>
      <trkpt lat="43.89737" lon="1.91974">
        <ele>124.355733</ele>
        <time>2026-08-29T16:28:25Z</time>
      </trkpt>
      <trkpt lat="43.89736" lon="1.91974">
        <ele>124.341543</ele>
        <time>2026-08-29T16:28:26Z</time>
      </trkpt>
      <trkpt lat="43.89735" lon="1.91974">
        <ele>124.325191</ele>
        <time>2026-08-29T16:28:27Z</time>
      </trkpt>
      <trkpt lat="43.89735" lon="1.91974">
        <ele>124.313431</ele>
        <time>2026-08-29T16:28:28Z</time>
      </trkpt>
      <trkpt lat="43.89707" lon="1.91939">
        <ele>123.653255</ele>
        <time>2026-08-29T16:29:40Z</time>
      </trkpt>
      <trkpt lat="43.89706" lon="1.91937">
        <ele>123.618012</ele>
        <time>2026-08-29T16:29:41Z</time>
      </trkpt>
      <trkpt lat="43.89704" lon="1.91935">
        <ele>123.585849</ele>
        <time>2026-08-29T16:29:42Z</time>
      </trkpt>
      <trkpt lat="43.89703" lon="1.91933">
        <ele>123.543905</ele>
        <time>2026-08-29T16:29:43Z</time>
      </trkpt>
      <trkpt lat="43.89701" lon="1.91931">
        <ele>123.507485</ele>
        <time>2026-08-29T16:29:44Z</time>
      </trkpt>
      <trkpt lat="43.897" lon="1.91929">
        <ele>123.469844</ele>
        <time>2026-08-29T16:29:45Z</time>
      </trkpt>
      <trkpt lat="43.89699" lon="1.91928">
        <ele>123.447904</ele>
        <time>2026-08-29T16:29:46Z</time>
      </trkpt>
      <trkpt lat="43.89697" lon="1.91926">
        <ele>123.410886</ele>
        <time>2026-08-29T16:29:47Z</time>
      </trkpt>
      <trkpt lat="43.89696" lon="1.91925">
        <ele>123.378223</ele>
        <time>2026-08-29T16:29:48Z</time>
      </trkpt>
      <trkpt lat="43.89694" lon="1.91924">
        <ele>123.349153</ele>
        <time>2026-08-29T16:29:49Z</time>
      </trkpt>
      <trkpt lat="43.89693" lon="1.91922">
        <ele>123.319285</ele>
        <time>2026-08-29T16:29:50Z</time>
      </trkpt>
      <trkpt lat="43.8969" lon="1.9192">
        <ele>123.264605</ele>
        <time>2026-08-29T16:29:51Z</time>
      </trkpt>
      <trkpt lat="43.89688" lon="1.91918">
        <ele>123.221054</ele>
        <time>2026-08-29T16:29:52Z</time>
      </trkpt>
      <trkpt lat="43.89686" lon="1.91916">
        <ele>123.243865</ele>
        <time>2026-08-29T16:29:53Z</time>
      </trkpt>
      <trkpt lat="43.89685" lon="1.91914">
        <ele>123.305138</ele>
        <time>2026-08-29T16:29:54Z</time>
      </trkpt>
      <trkpt lat="43.89684" lon="1.91913">
        <ele>123.352946</ele>
        <time>2026-08-29T16:29:55Z</time>
      </trkpt>
      <trkpt lat="43.89682" lon="1.91911">
        <ele>123.408073</ele>
        <time>2026-08-29T16:29:56Z</time>
      </trkpt>
      <trkpt lat="43.89681" lon="1.9191">
        <ele>123.462004</ele>
        <time>2026-08-29T16:29:57Z</time>
      </trkpt>
      <trkpt lat="43.8968" lon="1.91908">
        <ele>123.509033</ele>
        <time>2026-08-29T16:29:58Z</time>
      </trkpt>
      <trkpt lat="43.89679" lon="1.91907">
        <ele>123.549349</ele>
        <time>2026-08-29T16:29:59Z</time>
      </trkpt>
      <trkpt lat="43.89677" lon="1.91905">
        <ele>123.604868</ele>
        <time>2026-08-29T16:30:00Z</time>
      </trkpt>
      <trkpt lat="43.89676" lon="1.91904">
        <ele>123.649774</ele>
        <time>2026-08-29T16:30:01Z</time>
      </trkpt>
      <trkpt lat="43.89675" lon="1.91902">
        <ele>123.696316</ele>
        <time>2026-08-29T16:30:02Z</time>
      </trkpt>
      <trkpt lat="43.89674" lon="1.919">
        <ele>123.752318</ele>
        <time>2026-08-29T16:30:03Z</time>
      </trkpt>
      <trkpt lat="43.89673" lon="1.91899">
        <ele>123.791232</ele>
        <time>2026-08-29T16:30:04Z</time>
      </trkpt>
      <trkpt lat="43.89672" lon="1.91898">
        <ele>123.842602</ele>
        <time>2026-08-29T16:30:05Z</time>
      </trkpt>
      <trkpt lat="43.8967" lon="1.91897">
        <ele>123.899142</ele>
        <time>2026-08-29T16:30:06Z</time>
      </trkpt>
      <trkpt lat="43.89668" lon="1.91895">
        <ele>123.973283</ele>
        <time>2026-08-29T16:30:07Z</time>
      </trkpt>
      <trkpt lat="43.89666" lon="1.91894">
        <ele>124.02877</ele>
        <time>2026-08-29T16:30:08Z</time>
      </trkpt>
      <trkpt lat="43.89665" lon="1.91893">
        <ele>124.072627</ele>
        <time>2026-08-29T16:30:09Z</time>
      </trkpt>
      <trkpt lat="43.89664" lon="1.91892">
        <ele>124.117733</ele>
        <time>2026-08-29T16:30:10Z</time>
      </trkpt>
      <trkpt lat="43.89663" lon="1.9189">
        <ele>124.165957</ele>
        <time>2026-08-29T16:30:11Z</time>
      </trkpt>
      <trkpt lat="43.89661" lon="1.91888">
        <ele>124.22723</ele>
        <time>2026-08-29T16:30:12Z</time>
      </trkpt>
      <trkpt lat="43.8966" lon="1.91886">
        <ele>124.283232</ele>
        <time>2026-08-29T16:30:13Z</time>
      </trkpt>
      <trkpt lat="43.89659" lon="1.91884">
        <ele>124.3489</ele>
        <time>2026-08-29T16:30:14Z</time>
      </trkpt>
      <trkpt lat="43.89657" lon="1.91883">
        <ele>124.415298</ele>
        <time>2026-08-29T16:30:15Z</time>
      </trkpt>
      <trkpt lat="43.89655" lon="1.91881">
        <ele>124.467922</ele>
        <time>2026-08-29T16:30:16Z</time>
      </trkpt>
      <trkpt lat="43.89654" lon="1.9188">
        <ele>124.518103</ele>
        <time>2026-08-29T16:30:17Z</time>
      </trkpt>
      <trkpt lat="43.89653" lon="1.91878">
        <ele>124.571597</ele>
        <time>2026-08-29T16:30:18Z</time>
      </trkpt>
      <trkpt lat="43.89651" lon="1.91876">
        <ele>124.633049</ele>
        <time>2026-08-29T16:30:19Z</time>
      </trkpt>
      <trkpt lat="43.8965" lon="1.91875">
        <ele>124.684606</ele>
        <time>2026-08-29T16:30:20Z</time>
      </trkpt>
      <trkpt lat="43.89648" lon="1.91873">
        <ele>124.751268</ele>
        <time>2026-08-29T16:30:21Z</time>
      </trkpt>
      <trkpt lat="43.89646" lon="1.91872">
        <ele>124.812165</ele>
        <time>2026-08-29T16:30:22Z</time>
      </trkpt>
      <trkpt lat="43.89645" lon="1.9187">
        <ele>124.875091</ele>
        <time>2026-08-29T16:30:23Z</time>
      </trkpt>
      <trkpt lat="43.89643" lon="1.91869">
        <ele>124.947786</ele>
        <time>2026-08-29T16:30:24Z</time>
      </trkpt>
      <trkpt lat="43.89641" lon="1.91867">
        <ele>125.010426</ele>
        <time>2026-08-29T16:30:25Z</time>
      </trkpt>
      <trkpt lat="43.89639" lon="1.91865">
        <ele>125.068121</ele>
        <time>2026-08-29T16:30:26Z</time>
      </trkpt>
      <trkpt lat="43.89638" lon="1.91864">
        <ele>125.13333</ele>
        <time>2026-08-29T16:30:27Z</time>
      </trkpt>
      <trkpt lat="43.89636" lon="1.91862">
        <ele>125.208507</ele>
        <time>2026-08-29T16:30:28Z</time>
      </trkpt>
      <trkpt lat="43.89634" lon="1.9186">
        <ele>125.267567</ele>
        <time>2026-08-29T16:30:29Z</time>
      </trkpt>
      <trkpt lat="43.89633" lon="1.91858">
        <ele>125.332544</ele>
        <time>2026-08-29T16:30:30Z</time>
      </trkpt>
      <trkpt lat="43.89631" lon="1.91856">
        <ele>125.40195</ele>
        <time>2026-08-29T16:30:31Z</time>
      </trkpt>
      <trkpt lat="43.8963" lon="1.91854">
        <ele>125.463223</ele>
        <time>2026-08-29T16:30:32Z</time>
      </trkpt>
      <trkpt lat="43.89628" lon="1.91852">
        <ele>125.532629</ele>
        <time>2026-08-29T16:30:33Z</time>
      </trkpt>
      <trkpt lat="43.89626" lon="1.91849">
        <ele>125.615561</ele>
        <time>2026-08-29T16:30:34Z</time>
      </trkpt>
      <trkpt lat="43.89625" lon="1.91847">
        <ele>125.673255</ele>
        <time>2026-08-29T16:30:35Z</time>
      </trkpt>
      <trkpt lat="43.89623" lon="1.91846">
        <ele>125.733397</ele>
        <time>2026-08-29T16:30:36Z</time>
      </trkpt>
      <trkpt lat="43.89621" lon="1.91844">
        <ele>125.797615</ele>
        <time>2026-08-29T16:30:37Z</time>
      </trkpt>
      <trkpt lat="43.8962" lon="1.91842">
        <ele>125.863284</ele>
        <time>2026-08-29T16:30:38Z</time>
      </trkpt>
      <trkpt lat="43.89618" lon="1.9184">
        <ele>125.934171</ele>
        <time>2026-08-29T16:30:39Z</time>
      </trkpt>
      <trkpt lat="43.89617" lon="1.91838">
        <ele>125.992372</ele>
        <time>2026-08-29T16:30:40Z</time>
      </trkpt>
      <trkpt lat="43.89615" lon="1.91836">
        <ele>126.055013</ele>
        <time>2026-08-29T16:30:41Z</time>
      </trkpt>
      <trkpt lat="43.89614" lon="1.91835">
        <ele>126.10657</ele>
        <time>2026-08-29T16:30:42Z</time>
      </trkpt>
      <trkpt lat="43.89612" lon="1.91833">
        <ele>126.174535</ele>
        <time>2026-08-29T16:30:43Z</time>
      </trkpt>
      <trkpt lat="43.8961" lon="1.9183">
        <ele>126.256621</ele>
        <time>2026-08-29T16:30:44Z</time>
      </trkpt>
      <trkpt lat="43.89608" lon="1.91828">
        <ele>126.330694</ele>
        <time>2026-08-29T16:30:45Z</time>
      </trkpt>
      <trkpt lat="43.89606" lon="1.91827">
        <ele>126.390836</ele>
        <time>2026-08-29T16:30:46Z</time>
      </trkpt>
      <trkpt lat="43.89605" lon="1.91825">
        <ele>126.453648</ele>
        <time>2026-08-29T16:30:47Z</time>
      </trkpt>
      <trkpt lat="43.89603" lon="1.91823">
        <ele>126.518625</ele>
        <time>2026-08-29T16:30:48Z</time>
      </trkpt>
      <trkpt lat="43.89602" lon="1.91821">
        <ele>126.583603</ele>
        <time>2026-08-29T16:30:49Z</time>
      </trkpt>
      <trkpt lat="43.89601" lon="1.91819">
        <ele>126.624831</ele>
        <time>2026-08-29T16:30:50Z</time>
      </trkpt>
      <trkpt lat="43.89599" lon="1.91818">
        <ele>126.679958</ele>
        <time>2026-08-29T16:30:51Z</time>
      </trkpt>
      <trkpt lat="43.89598" lon="1.91817">
        <ele>126.739937</ele>
        <time>2026-08-29T16:30:52Z</time>
      </trkpt>
      <trkpt lat="43.89596" lon="1.91815">
        <ele>126.800835</ele>
        <time>2026-08-29T16:30:53Z</time>
      </trkpt>
      <trkpt lat="43.89594" lon="1.91814">
        <ele>126.852205</ele>
        <time>2026-08-29T16:30:54Z</time>
      </trkpt>
      <trkpt lat="43.89593" lon="1.91813">
        <ele>126.901069</ele>
        <time>2026-08-29T16:30:55Z</time>
      </trkpt>
      <trkpt lat="43.89592" lon="1.91811">
        <ele>126.951251</ele>
        <time>2026-08-29T16:30:56Z</time>
      </trkpt>
      <trkpt lat="43.8959" lon="1.9181">
        <ele>127.007633</ele>
        <time>2026-08-29T16:30:57Z</time>
      </trkpt>
      <trkpt lat="43.89589" lon="1.91808">
        <ele>127.072843</ele>
        <time>2026-08-29T16:30:58Z</time>
      </trkpt>
      <trkpt lat="43.89587" lon="1.91806">
        <ele>127.140502</ele>
        <time>2026-08-29T16:30:59Z</time>
      </trkpt>
      <trkpt lat="43.89585" lon="1.91804">
        <ele>127.215964</ele>
        <time>2026-08-29T16:31:00Z</time>
      </trkpt>
      <trkpt lat="43.89583" lon="1.91803">
        <ele>127.281151</ele>
        <time>2026-08-29T16:31:01Z</time>
      </trkpt>
      <trkpt lat="43.89581" lon="1.91801">
        <ele>127.353846</ele>
        <time>2026-08-29T16:31:02Z</time>
      </trkpt>
      <trkpt lat="43.89579" lon="1.91799">
        <ele>127.430636</ele>
        <time>2026-08-29T16:31:03Z</time>
      </trkpt>
      <trkpt lat="43.89577" lon="1.91797">
        <ele>127.514596</ele>
        <time>2026-08-29T16:31:04Z</time>
      </trkpt>
      <trkpt lat="43.89575" lon="1.91795">
        <ele>127.586119</ele>
        <time>2026-08-29T16:31:05Z</time>
      </trkpt>
      <trkpt lat="43.89573" lon="1.91794">
        <ele>127.643801</ele>
        <time>2026-08-29T16:31:06Z</time>
      </trkpt>
      <trkpt lat="43.89572" lon="1.91792">
        <ele>127.708037</ele>
        <time>2026-08-29T16:31:07Z</time>
      </trkpt>
      <trkpt lat="43.8957" lon="1.9179">
        <ele>127.767226</ele>
        <time>2026-08-29T16:31:08Z</time>
      </trkpt>
      <trkpt lat="43.89569" lon="1.91788">
        <ele>127.832895</ele>
        <time>2026-08-29T16:31:09Z</time>
      </trkpt>
      <trkpt lat="43.89567" lon="1.91785">
        <ele>127.905298</ele>
        <time>2026-08-29T16:31:10Z</time>
      </trkpt>
      <trkpt lat="43.89566" lon="1.91783">
        <ele>127.982118</ele>
        <time>2026-08-29T16:31:11Z</time>
      </trkpt>
      <trkpt lat="43.89564" lon="1.9178">
        <ele>128.061349</ele>
        <time>2026-08-29T16:31:12Z</time>
      </trkpt>
      <trkpt lat="43.89562" lon="1.91778">
        <ele>128.129314</ele>
        <time>2026-08-29T16:31:13Z</time>
      </trkpt>
      <trkpt lat="43.8956" lon="1.91776">
        <ele>128.205797</ele>
        <time>2026-08-29T16:31:14Z</time>
      </trkpt>
      <trkpt lat="43.89558" lon="1.91773">
        <ele>128.280932</ele>
        <time>2026-08-29T16:31:15Z</time>
      </trkpt>
      <trkpt lat="43.89557" lon="1.91771">
        <ele>128.357055</ele>
        <time>2026-08-29T16:31:16Z</time>
      </trkpt>
      <trkpt lat="43.89555" lon="1.91768">
        <ele>128.435405</ele>
        <time>2026-08-29T16:31:17Z</time>
      </trkpt>
      <trkpt lat="43.89553" lon="1.91766">
        <ele>128.504093</ele>
        <time>2026-08-29T16:31:18Z</time>
      </trkpt>
      <trkpt lat="43.89551" lon="1.91764">
        <ele>128.569303</ele>
        <time>2026-08-29T16:31:19Z</time>
      </trkpt>
      <trkpt lat="43.8955" lon="1.91763">
        <ele>128.623234</ele>
        <time>2026-08-29T16:31:20Z</time>
      </trkpt>
      <trkpt lat="43.89549" lon="1.91761">
        <ele>128.681436</ele>
        <time>2026-08-29T16:31:21Z</time>
      </trkpt>
      <trkpt lat="43.89547" lon="1.91759">
        <ele>128.699262</ele>
        <time>2026-08-29T16:31:22Z</time>
      </trkpt>
      <trkpt lat="43.89546" lon="1.91757">
        <ele>128.710544</ele>
        <time>2026-08-29T16:31:23Z</time>
      </trkpt>
      <trkpt lat="43.89545" lon="1.91755">
        <ele>128.719094</ele>
        <time>2026-08-29T16:31:24Z</time>
      </trkpt>
      <trkpt lat="43.89543" lon="1.91754">
        <ele>128.727431</ele>
        <time>2026-08-29T16:31:25Z</time>
      </trkpt>
      <trkpt lat="43.89542" lon="1.91755">
        <ele>128.73445</ele>
        <time>2026-08-29T16:31:26Z</time>
      </trkpt>
      <trkpt lat="43.89541" lon="1.91756">
        <ele>128.741908</ele>
        <time>2026-08-29T16:31:27Z</time>
      </trkpt>
      <trkpt lat="43.8954" lon="1.91757">
        <ele>128.749504</ele>
        <time>2026-08-29T16:31:28Z</time>
      </trkpt>
      <trkpt lat="43.89538" lon="1.91759">
        <ele>128.762858</ele>
        <time>2026-08-29T16:31:29Z</time>
      </trkpt>
      <trkpt lat="43.89536" lon="1.9176">
        <ele>128.777375</ele>
        <time>2026-08-29T16:31:30Z</time>
      </trkpt>
      <trkpt lat="43.89534" lon="1.91762">
        <ele>128.790995</ele>
        <time>2026-08-29T16:31:31Z</time>
      </trkpt>
      <trkpt lat="43.89532" lon="1.91764">
        <ele>128.801845</ele>
        <time>2026-08-29T16:31:32Z</time>
      </trkpt>
      <trkpt lat="43.89531" lon="1.91766">
        <ele>128.812694</ele>
        <time>2026-08-29T16:31:33Z</time>
      </trkpt>
      <trkpt lat="43.89529" lon="1.91767">
        <ele>128.823544</ele>
        <time>2026-08-29T16:31:34Z</time>
      </trkpt>
      <trkpt lat="43.89528" lon="1.91769">
        <ele>128.832867</ele>
        <time>2026-08-29T16:31:35Z</time>
      </trkpt>
      <trkpt lat="43.89527" lon="1.91771">
        <ele>128.843711</ele>
        <time>2026-08-29T16:31:36Z</time>
      </trkpt>
      <trkpt lat="43.89525" lon="1.91773">
        <ele>128.855365</ele>
        <time>2026-08-29T16:31:37Z</time>
      </trkpt>
      <trkpt lat="43.89524" lon="1.91775">
        <ele>128.867165</ele>
        <time>2026-08-29T16:31:38Z</time>
      </trkpt>
      <trkpt lat="43.89523" lon="1.91777">
        <ele>128.879229</ele>
        <time>2026-08-29T16:31:39Z</time>
      </trkpt>
      <trkpt lat="43.89521" lon="1.91779">
        <ele>128.891894</ele>
        <time>2026-08-29T16:31:40Z</time>
      </trkpt>
      <trkpt lat="43.89519" lon="1.91781">
        <ele>128.905704</ele>
        <time>2026-08-29T16:31:41Z</time>
      </trkpt>
      <trkpt lat="43.89517" lon="1.91783">
        <ele>128.919755</ele>
        <time>2026-08-29T16:31:42Z</time>
      </trkpt>
      <trkpt lat="43.89515" lon="1.91785">
        <ele>128.933799</ele>
        <time>2026-08-29T16:31:43Z</time>
      </trkpt>
      <trkpt lat="43.89512" lon="1.91787">
        <ele>128.94923</ele>
        <time>2026-08-29T16:31:44Z</time>
      </trkpt>
      <trkpt lat="43.89511" lon="1.91789">
        <ele>128.962148</ele>
        <time>2026-08-29T16:31:45Z</time>
      </trkpt>
      <trkpt lat="43.89509" lon="1.91791">
        <ele>128.975502</ele>
        <time>2026-08-29T16:31:46Z</time>
      </trkpt>
      <trkpt lat="43.89507" lon="1.91794">
        <ele>128.990451</ele>
        <time>2026-08-29T16:31:47Z</time>
      </trkpt>
      <trkpt lat="43.89505" lon="1.91796">
        <ele>129.005192</ele>
        <time>2026-08-29T16:31:48Z</time>
      </trkpt>
      <trkpt lat="43.89502" lon="1.91798">
        <ele>129.020623</ele>
        <time>2026-08-29T16:31:49Z</time>
      </trkpt>
      <trkpt lat="43.895" lon="1.91801">
        <ele>129.036389</ele>
        <time>2026-08-29T16:31:50Z</time>
      </trkpt>
      <trkpt lat="43.89498" lon="1.91804">
        <ele>129.053388</ele>
        <time>2026-08-29T16:31:51Z</time>
      </trkpt>
      <trkpt lat="43.89496" lon="1.91807">
        <ele>129.070529</ele>
        <time>2026-08-29T16:31:52Z</time>
      </trkpt>
      <trkpt lat="43.89494" lon="1.91809">
        <ele>129.086844</ele>
        <time>2026-08-29T16:31:53Z</time>
      </trkpt>
      <trkpt lat="43.89491" lon="1.91812">
        <ele>129.103843</ele>
        <time>2026-08-29T16:31:54Z</time>
      </trkpt>
      <trkpt lat="43.89489" lon="1.91815">
        <ele>129.121019</ele>
        <time>2026-08-29T16:31:55Z</time>
      </trkpt>
      <trkpt lat="43.89487" lon="1.91819">
        <ele>129.138874</ele>
        <time>2026-08-29T16:31:56Z</time>
      </trkpt>
      <trkpt lat="43.89485" lon="1.91822">
        <ele>129.158378</ele>
        <time>2026-08-29T16:31:57Z</time>
      </trkpt>
      <trkpt lat="43.89482" lon="1.91825">
        <ele>129.176912</ele>
        <time>2026-08-29T16:31:58Z</time>
      </trkpt>
      <trkpt lat="43.8948" lon="1.91829">
        <ele>129.195281</ele>
        <time>2026-08-29T16:31:59Z</time>
      </trkpt>
      <trkpt lat="43.89478" lon="1.91831">
        <ele>129.212846</ele>
        <time>2026-08-29T16:32:00Z</time>
      </trkpt>
      <trkpt lat="43.89475" lon="1.91834">
        <ele>129.23053</ele>
        <time>2026-08-29T16:32:01Z</time>
      </trkpt>
      <trkpt lat="43.89473" lon="1.91838">
        <ele>129.248303</ele>
        <time>2026-08-29T16:32:02Z</time>
      </trkpt>
      <trkpt lat="43.89471" lon="1.91841">
        <ele>129.267317</ele>
        <time>2026-08-29T16:32:03Z</time>
      </trkpt>
      <trkpt lat="43.89469" lon="1.91845">
        <ele>129.285703</ele>
        <time>2026-08-29T16:32:04Z</time>
      </trkpt>
      <trkpt lat="43.89467" lon="1.91848">
        <ele>129.303476</ele>
        <time>2026-08-29T16:32:05Z</time>
      </trkpt>
      <trkpt lat="43.89465" lon="1.91851">
        <ele>129.322122</ele>
        <time>2026-08-29T16:32:06Z</time>
      </trkpt>
      <trkpt lat="43.89462" lon="1.91855">
        <ele>129.341175</ele>
        <time>2026-08-29T16:32:07Z</time>
      </trkpt>
      <trkpt lat="43.8946" lon="1.91858">
        <ele>129.36068</ele>
        <time>2026-08-29T16:32:08Z</time>
      </trkpt>
      <trkpt lat="43.89457" lon="1.91862">
        <ele>129.380575</ele>
        <time>2026-08-29T16:32:09Z</time>
      </trkpt>
      <trkpt lat="43.89455" lon="1.91865">
        <ele>129.400469</ele>
        <time>2026-08-29T16:32:10Z</time>
      </trkpt>
      <trkpt lat="43.89452" lon="1.91868">
        <ele>129.421738</ele>
        <time>2026-08-29T16:32:11Z</time>
      </trkpt>
      <trkpt lat="43.89449" lon="1.91872">
        <ele>129.441348</ele>
        <time>2026-08-29T16:32:12Z</time>
      </trkpt>
      <trkpt lat="43.89447" lon="1.91875">
        <ele>129.460852</ele>
        <time>2026-08-29T16:32:13Z</time>
      </trkpt>
      <trkpt lat="43.89444" lon="1.91879">
        <ele>129.480651</ele>
        <time>2026-08-29T16:32:14Z</time>
      </trkpt>
      <trkpt lat="43.89442" lon="1.91883">
        <ele>129.501724</ele>
        <time>2026-08-29T16:32:15Z</time>
      </trkpt>
      <trkpt lat="43.89439" lon="1.91887">
        <ele>129.522587</ele>
        <time>2026-08-29T16:32:16Z</time>
      </trkpt>
      <trkpt lat="43.89437" lon="1.9189">
        <ele>129.542601</ele>
        <time>2026-08-29T16:32:17Z</time>
      </trkpt>
      <trkpt lat="43.89434" lon="1.91894">
        <ele>129.563177</ele>
        <time>2026-08-29T16:32:18Z</time>
      </trkpt>
      <trkpt lat="43.89431" lon="1.91897">
        <ele>129.585118</ele>
        <time>2026-08-29T16:32:19Z</time>
      </trkpt>
      <trkpt lat="43.89429" lon="1.91901">
        <ele>129.605891</ele>
        <time>2026-08-29T16:32:20Z</time>
      </trkpt>
      <trkpt lat="43.89426" lon="1.91905">
        <ele>129.625988</ele>
        <time>2026-08-29T16:32:21Z</time>
      </trkpt>
      <trkpt lat="43.89424" lon="1.91909">
        <ele>129.64676</ele>
        <time>2026-08-29T16:32:22Z</time>
      </trkpt>
      <trkpt lat="43.89422" lon="1.91912">
        <ele>129.666857</ele>
        <time>2026-08-29T16:32:23Z</time>
      </trkpt>
      <trkpt lat="43.89419" lon="1.91916">
        <ele>129.68628</ele>
        <time>2026-08-29T16:32:24Z</time>
      </trkpt>
      <trkpt lat="43.89417" lon="1.9192">
        <ele>129.690346</ele>
        <time>2026-08-29T16:32:25Z</time>
      </trkpt>
      <trkpt lat="43.89414" lon="1.91923">
        <ele>129.68404</ele>
        <time>2026-08-29T16:32:26Z</time>
      </trkpt>
      <trkpt lat="43.89412" lon="1.91927">
        <ele>129.677954</ele>
        <time>2026-08-29T16:32:27Z</time>
      </trkpt>
      <trkpt lat="43.8941" lon="1.91929">
        <ele>129.673026</ele>
        <time>2026-08-29T16:32:28Z</time>
      </trkpt>
      <trkpt lat="43.89408" lon="1.91931">
        <ele>129.66811</ele>
        <time>2026-08-29T16:32:29Z</time>
      </trkpt>
      <trkpt lat="43.89405" lon="1.91932">
        <ele>129.662979</ele>
        <time>2026-08-29T16:32:30Z</time>
      </trkpt>
      <trkpt lat="43.89402" lon="1.9193">
        <ele>129.657334</ele>
        <time>2026-08-29T16:32:31Z</time>
      </trkpt>
      <trkpt lat="43.894" lon="1.91927">
        <ele>129.652568</ele>
        <time>2026-08-29T16:32:32Z</time>
      </trkpt>
      <trkpt lat="43.89399" lon="1.91923">
        <ele>129.647166</ele>
        <time>2026-08-29T16:32:33Z</time>
      </trkpt>
      <trkpt lat="43.89397" lon="1.9192">
        <ele>129.641129</ele>
        <time>2026-08-29T16:32:34Z</time>
      </trkpt>
      <trkpt lat="43.89395" lon="1.91916">
        <ele>129.63541</ele>
        <time>2026-08-29T16:32:35Z</time>
      </trkpt>
      <trkpt lat="43.89393" lon="1.91912">
        <ele>129.629149</ele>
        <time>2026-08-29T16:32:36Z</time>
      </trkpt>
      <trkpt lat="43.89391" lon="1.91908">
        <ele>129.622584</ele>
        <time>2026-08-29T16:32:37Z</time>
      </trkpt>
      <trkpt lat="43.89388" lon="1.91903">
        <ele>129.614625</ele>
        <time>2026-08-29T16:32:38Z</time>
      </trkpt>
      <trkpt lat="43.89385" lon="1.91899">
        <ele>129.606891</ele>
        <time>2026-08-29T16:32:39Z</time>
      </trkpt>
      <trkpt lat="43.89382" lon="1.91894">
        <ele>129.598452</ele>
        <time>2026-08-29T16:32:40Z</time>
      </trkpt>
      <trkpt lat="43.89379" lon="1.9189">
        <ele>129.590326</ele>
        <time>2026-08-29T16:32:41Z</time>
      </trkpt>
      <trkpt lat="43.89376" lon="1.91885">
        <ele>129.581855</ele>
        <time>2026-08-29T16:32:42Z</time>
      </trkpt>
      <trkpt lat="43.89373" lon="1.9188">
        <ele>129.573477</ele>
        <time>2026-08-29T16:32:43Z</time>
      </trkpt>
      <trkpt lat="43.89369" lon="1.91875">
        <ele>129.564819</ele>
        <time>2026-08-29T16:32:44Z</time>
      </trkpt>
      <trkpt lat="43.89367" lon="1.9187">
        <ele>129.556758</ele>
        <time>2026-08-29T16:32:45Z</time>
      </trkpt>
      <trkpt lat="43.89364" lon="1.91866">
        <ele>129.548465</ele>
        <time>2026-08-29T16:32:46Z</time>
      </trkpt>
      <trkpt lat="43.89361" lon="1.91861">
        <ele>129.540073</ele>
        <time>2026-08-29T16:32:47Z</time>
      </trkpt>
      <trkpt lat="43.89357" lon="1.91856">
        <ele>129.531224</ele>
        <time>2026-08-29T16:32:48Z</time>
      </trkpt>
      <trkpt lat="43.89354" lon="1.91851">
        <ele>129.522744</ele>
        <time>2026-08-29T16:32:49Z</time>
      </trkpt>
      <trkpt lat="43.89352" lon="1.91845">
        <ele>129.514591</ele>
        <time>2026-08-29T16:32:50Z</time>
      </trkpt>
      <trkpt lat="43.89349" lon="1.91841">
        <ele>129.506745</ele>
        <time>2026-08-29T16:32:51Z</time>
      </trkpt>
      <trkpt lat="43.89347" lon="1.91836">
        <ele>129.499121</ele>
        <time>2026-08-29T16:32:52Z</time>
      </trkpt>
      <trkpt lat="43.89344" lon="1.91831">
        <ele>129.49107</ele>
        <time>2026-08-29T16:32:53Z</time>
      </trkpt>
      <trkpt lat="43.89341" lon="1.91826">
        <ele>129.482994</ele>
        <time>2026-08-29T16:32:54Z</time>
      </trkpt>
      <trkpt lat="43.89338" lon="1.91822">
        <ele>129.475017</ele>
        <time>2026-08-29T16:32:55Z</time>
      </trkpt>
      <trkpt lat="43.89335" lon="1.91817">
        <ele>129.467355</ele>
        <time>2026-08-29T16:32:56Z</time>
      </trkpt>
      <trkpt lat="43.89333" lon="1.91813">
        <ele>129.459887</ele>
        <time>2026-08-29T16:32:57Z</time>
      </trkpt>
      <trkpt lat="43.8933" lon="1.91809">
        <ele>129.452359</ele>
        <time>2026-08-29T16:32:58Z</time>
      </trkpt>
      <trkpt lat="43.89327" lon="1.91804">
        <ele>129.444734</ele>
        <time>2026-08-29T16:32:59Z</time>
      </trkpt>
      <trkpt lat="43.89325" lon="1.91799">
        <ele>129.436898</ele>
        <time>2026-08-29T16:33:00Z</time>
      </trkpt>
      <trkpt lat="43.89322" lon="1.91794">
        <ele>129.429062</ele>
        <time>2026-08-29T16:33:01Z</time>
      </trkpt>
      <trkpt lat="43.8932" lon="1.91789">
        <ele>129.421014</ele>
        <time>2026-08-29T16:33:02Z</time>
      </trkpt>
      <trkpt lat="43.89317" lon="1.91784">
        <ele>129.413178</ele>
        <time>2026-08-29T16:33:03Z</time>
      </trkpt>
      <trkpt lat="43.89315" lon="1.91779">
        <ele>129.404913</ele>
        <time>2026-08-29T16:33:04Z</time>
      </trkpt>
      <trkpt lat="43.89312" lon="1.91774">
        <ele>129.396536</ele>
        <time>2026-08-29T16:33:05Z</time>
      </trkpt>
      <trkpt lat="43.89309" lon="1.91769">
        <ele>129.387943</ele>
        <time>2026-08-29T16:33:06Z</time>
      </trkpt>
      <trkpt lat="43.89306" lon="1.91764">
        <ele>129.379451</ele>
        <time>2026-08-29T16:33:07Z</time>
      </trkpt>
      <trkpt lat="43.89303" lon="1.91759">
        <ele>129.370842</ele>
        <time>2026-08-29T16:33:08Z</time>
      </trkpt>
      <trkpt lat="43.893" lon="1.91754">
        <ele>129.357714</ele>
        <time>2026-08-29T16:33:09Z</time>
      </trkpt>
      <trkpt lat="43.89297" lon="1.9175">
        <ele>129.343524</ele>
        <time>2026-08-29T16:33:10Z</time>
      </trkpt>
      <trkpt lat="43.89294" lon="1.91745">
        <ele>129.329132</ele>
        <time>2026-08-29T16:33:11Z</time>
      </trkpt>
      <trkpt lat="43.89291" lon="1.91739">
        <ele>129.313647</ele>
        <time>2026-08-29T16:33:12Z</time>
      </trkpt>
      <trkpt lat="43.89288" lon="1.91735">
        <ele>129.29943</ele>
        <time>2026-08-29T16:33:13Z</time>
      </trkpt>
      <trkpt lat="43.89285" lon="1.9173">
        <ele>129.285559</ele>
        <time>2026-08-29T16:33:14Z</time>
      </trkpt>
      <trkpt lat="43.89282" lon="1.91726">
        <ele>129.272072</ele>
        <time>2026-08-29T16:33:15Z</time>
      </trkpt>
      <trkpt lat="43.89279" lon="1.91721">
        <ele>129.258372</ele>
        <time>2026-08-29T16:33:16Z</time>
      </trkpt>
      <trkpt lat="43.89277" lon="1.91717">
        <ele>129.245093</ele>
        <time>2026-08-29T16:33:17Z</time>
      </trkpt>
      <trkpt lat="43.89274" lon="1.91713">
        <ele>129.231639</ele>
        <time>2026-08-29T16:33:18Z</time>
      </trkpt>
      <trkpt lat="43.89271" lon="1.91708">
        <ele>129.218323</ele>
        <time>2026-08-29T16:33:19Z</time>
      </trkpt>
      <trkpt lat="43.89268" lon="1.91704">
        <ele>129.204106</ele>
        <time>2026-08-29T16:33:20Z</time>
      </trkpt>
      <trkpt lat="43.89265" lon="1.91698">
        <ele>129.188979</ele>
        <time>2026-08-29T16:33:21Z</time>
      </trkpt>
      <trkpt lat="43.89262" lon="1.91693">
        <ele>129.17443</ele>
        <time>2026-08-29T16:33:22Z</time>
      </trkpt>
      <trkpt lat="43.8926" lon="1.91688">
        <ele>129.159503</ele>
        <time>2026-08-29T16:33:23Z</time>
      </trkpt>
      <trkpt lat="43.89257" lon="1.91683">
        <ele>129.144756</ele>
        <time>2026-08-29T16:33:24Z</time>
      </trkpt>
      <trkpt lat="43.89254" lon="1.91679">
        <ele>129.131332</ele>
        <time>2026-08-29T16:33:25Z</time>
      </trkpt>
      <trkpt lat="43.89252" lon="1.91674">
        <ele>129.117529</ele>
        <time>2026-08-29T16:33:26Z</time>
      </trkpt>
      <trkpt lat="43.89249" lon="1.91669">
        <ele>129.104473</ele>
        <time>2026-08-29T16:33:27Z</time>
      </trkpt>
      <trkpt lat="43.89247" lon="1.91665">
        <ele>129.091541</ele>
        <time>2026-08-29T16:33:28Z</time>
      </trkpt>
      <trkpt lat="43.89244" lon="1.9166">
        <ele>129.078678</ele>
        <time>2026-08-29T16:33:29Z</time>
      </trkpt>
      <trkpt lat="43.89242" lon="1.91656">
        <ele>129.065573</ele>
        <time>2026-08-29T16:33:30Z</time>
      </trkpt>
      <trkpt lat="43.89238" lon="1.91652">
        <ele>129.051598</ele>
        <time>2026-08-29T16:33:31Z</time>
      </trkpt>
      <trkpt lat="43.89235" lon="1.91647">
        <ele>129.037127</ele>
        <time>2026-08-29T16:33:32Z</time>
      </trkpt>
      <trkpt lat="43.89233" lon="1.91643">
        <ele>129.024811</ele>
        <time>2026-08-29T16:33:33Z</time>
      </trkpt>
      <trkpt lat="43.89231" lon="1.91638">
        <ele>129.011546</ele>
        <time>2026-08-29T16:33:34Z</time>
      </trkpt>
      <trkpt lat="43.89229" lon="1.91632">
        <ele>128.997371</ele>
        <time>2026-08-29T16:33:35Z</time>
      </trkpt>
      <trkpt lat="43.89227" lon="1.91626">
        <ele>128.98265</ele>
        <time>2026-08-29T16:33:36Z</time>
      </trkpt>
      <trkpt lat="43.89225" lon="1.91621">
        <ele>128.967929</ele>
        <time>2026-08-29T16:33:37Z</time>
      </trkpt>
      <trkpt lat="43.89223" lon="1.91615">
        <ele>128.953072</ele>
        <time>2026-08-29T16:33:38Z</time>
      </trkpt>
      <trkpt lat="43.89221" lon="1.91609">
        <ele>128.938215</ele>
        <time>2026-08-29T16:33:39Z</time>
      </trkpt>
      <trkpt lat="43.89219" lon="1.91603">
        <ele>128.922883</ele>
        <time>2026-08-29T16:33:40Z</time>
      </trkpt>
      <trkpt lat="43.89216" lon="1.91598">
        <ele>128.908305</ele>
        <time>2026-08-29T16:33:41Z</time>
      </trkpt>
      <trkpt lat="43.89214" lon="1.91593">
        <ele>128.89375</ele>
        <time>2026-08-29T16:33:42Z</time>
      </trkpt>
      <trkpt lat="43.89212" lon="1.91588">
        <ele>128.880453</ele>
        <time>2026-08-29T16:33:43Z</time>
      </trkpt>
      <trkpt lat="43.89209" lon="1.91583">
        <ele>128.867156</ele>
        <time>2026-08-29T16:33:44Z</time>
      </trkpt>
      <trkpt lat="43.89207" lon="1.91578">
        <ele>128.854253</ele>
        <time>2026-08-29T16:33:45Z</time>
      </trkpt>
      <trkpt lat="43.89205" lon="1.91573">
        <ele>128.840793</ele>
        <time>2026-08-29T16:33:46Z</time>
      </trkpt>
      <trkpt lat="43.89203" lon="1.91568">
        <ele>128.826938</ele>
        <time>2026-08-29T16:33:47Z</time>
      </trkpt>
      <trkpt lat="43.892" lon="1.91563">
        <ele>128.81333</ele>
        <time>2026-08-29T16:33:48Z</time>
      </trkpt>
      <trkpt lat="43.89198" lon="1.91558">
        <ele>128.800644</ele>
        <time>2026-08-29T16:33:49Z</time>
      </trkpt>
      <trkpt lat="43.89196" lon="1.91554">
        <ele>128.802578</ele>
        <time>2026-08-29T16:33:50Z</time>
      </trkpt>
      <trkpt lat="43.89194" lon="1.91549">
        <ele>128.815922</ele>
        <time>2026-08-29T16:33:51Z</time>
      </trkpt>
      <trkpt lat="43.89192" lon="1.91544">
        <ele>128.828928</ele>
        <time>2026-08-29T16:33:52Z</time>
      </trkpt>
      <trkpt lat="43.8919" lon="1.91539">
        <ele>128.842038</ele>
        <time>2026-08-29T16:33:53Z</time>
      </trkpt>
      <trkpt lat="43.89188" lon="1.91535">
        <ele>128.85402</ele>
        <time>2026-08-29T16:33:54Z</time>
      </trkpt>
      <trkpt lat="43.89187" lon="1.9153">
        <ele>128.866425</ele>
        <time>2026-08-29T16:33:55Z</time>
      </trkpt>
      <trkpt lat="43.89185" lon="1.91525">
        <ele>128.879606</ele>
        <time>2026-08-29T16:33:56Z</time>
      </trkpt>
      <trkpt lat="43.89184" lon="1.9152">
        <ele>128.892094</ele>
        <time>2026-08-29T16:33:57Z</time>
      </trkpt>
      <trkpt lat="43.89182" lon="1.91515">
        <ele>128.905357</ele>
        <time>2026-08-29T16:33:58Z</time>
      </trkpt>
      <trkpt lat="43.8918" lon="1.91509">
        <ele>128.919183</ele>
        <time>2026-08-29T16:33:59Z</time>
      </trkpt>
      <trkpt lat="43.89178" lon="1.91504">
        <ele>128.934199</ele>
        <time>2026-08-29T16:34:00Z</time>
      </trkpt>
      <trkpt lat="43.89176" lon="1.91498">
        <ele>128.949635</ele>
        <time>2026-08-29T16:34:01Z</time>
      </trkpt>
      <trkpt lat="43.89174" lon="1.91492">
        <ele>128.965355</ele>
        <time>2026-08-29T16:34:02Z</time>
      </trkpt>
      <trkpt lat="43.89172" lon="1.91486">
        <ele>128.980728</ele>
        <time>2026-08-29T16:34:03Z</time>
      </trkpt>
      <trkpt lat="43.8917" lon="1.9148">
        <ele>128.995247</ele>
        <time>2026-08-29T16:34:04Z</time>
      </trkpt>
      <trkpt lat="43.89168" lon="1.91474">
        <ele>129.010571</ele>
        <time>2026-08-29T16:34:05Z</time>
      </trkpt>
      <trkpt lat="43.89166" lon="1.91469">
        <ele>129.024554</ele>
        <time>2026-08-29T16:34:06Z</time>
      </trkpt>
      <trkpt lat="43.89163" lon="1.91464">
        <ele>129.039105</ele>
        <time>2026-08-29T16:34:07Z</time>
      </trkpt>
      <trkpt lat="43.89162" lon="1.91459">
        <ele>129.051937</ele>
        <time>2026-08-29T16:34:08Z</time>
      </trkpt>
      <trkpt lat="43.89159" lon="1.91454">
        <ele>129.065852</ele>
        <time>2026-08-29T16:34:09Z</time>
      </trkpt>
      <trkpt lat="43.89157" lon="1.91449">
        <ele>129.079394</ele>
        <time>2026-08-29T16:34:10Z</time>
      </trkpt>
      <trkpt lat="43.89155" lon="1.91444">
        <ele>129.093136</ele>
        <time>2026-08-29T16:34:11Z</time>
      </trkpt>
      <trkpt lat="43.89153" lon="1.91439">
        <ele>129.10728</ele>
        <time>2026-08-29T16:34:12Z</time>
      </trkpt>
      <trkpt lat="43.89151" lon="1.91434">
        <ele>129.121223</ele>
        <time>2026-08-29T16:34:13Z</time>
      </trkpt>
      <trkpt lat="43.89149" lon="1.91428">
        <ele>129.135256</ele>
        <time>2026-08-29T16:34:14Z</time>
      </trkpt>
      <trkpt lat="43.89147" lon="1.91423">
        <ele>129.148367</ele>
        <time>2026-08-29T16:34:15Z</time>
      </trkpt>
      <trkpt lat="43.89145" lon="1.91418">
        <ele>129.161626</ele>
        <time>2026-08-29T16:34:16Z</time>
      </trkpt>
      <trkpt lat="43.89143" lon="1.91413">
        <ele>129.17566</ele>
        <time>2026-08-29T16:34:17Z</time>
      </trkpt>
      <trkpt lat="43.89141" lon="1.91407">
        <ele>129.190676</ele>
        <time>2026-08-29T16:34:18Z</time>
      </trkpt>
      <trkpt lat="43.89139" lon="1.91402">
        <ele>129.205127</ele>
        <time>2026-08-29T16:34:19Z</time>
      </trkpt>
      <trkpt lat="43.89137" lon="1.91396">
        <ele>129.219435</ele>
        <time>2026-08-29T16:34:20Z</time>
      </trkpt>
      <trkpt lat="43.89135" lon="1.91391">
        <ele>129.233531</ele>
        <time>2026-08-29T16:34:21Z</time>
      </trkpt>
      <trkpt lat="43.89133" lon="1.91386">
        <ele>129.247843</ele>
        <time>2026-08-29T16:34:22Z</time>
      </trkpt>
      <trkpt lat="43.89131" lon="1.91381">
        <ele>129.261785</ele>
        <time>2026-08-29T16:34:23Z</time>
      </trkpt>
      <trkpt lat="43.89128" lon="1.91376">
        <ele>129.275297</ele>
        <time>2026-08-29T16:34:24Z</time>
      </trkpt>
      <trkpt lat="43.89126" lon="1.91371">
        <ele>129.289389</ele>
        <time>2026-08-29T16:34:25Z</time>
      </trkpt>
      <trkpt lat="43.89123" lon="1.91366">
        <ele>129.304103</ele>
        <time>2026-08-29T16:34:26Z</time>
      </trkpt>
      <trkpt lat="43.89121" lon="1.91361">
        <ele>129.318189</ele>
        <time>2026-08-29T16:34:27Z</time>
      </trkpt>
      <trkpt lat="43.89118" lon="1.91355">
        <ele>129.333606</ele>
        <time>2026-08-29T16:34:28Z</time>
      </trkpt>
      <trkpt lat="43.89116" lon="1.9135">
        <ele>129.348269</ele>
        <time>2026-08-29T16:34:29Z</time>
      </trkpt>
      <trkpt lat="43.89113" lon="1.91345">
        <ele>129.362183</ele>
        <time>2026-08-29T16:34:30Z</time>
      </trkpt>
      <trkpt lat="43.89111" lon="1.9134">
        <ele>129.376668</ele>
        <time>2026-08-29T16:34:31Z</time>
      </trkpt>
      <trkpt lat="43.89109" lon="1.91335">
        <ele>129.373717</ele>
        <time>2026-08-29T16:34:32Z</time>
      </trkpt>
      <trkpt lat="43.89108" lon="1.9133">
        <ele>129.364794</ele>
        <time>2026-08-29T16:34:33Z</time>
      </trkpt>
      <trkpt lat="43.89106" lon="1.91326">
        <ele>129.356647</ele>
        <time>2026-08-29T16:34:34Z</time>
      </trkpt>
      <trkpt lat="43.89104" lon="1.91323">
        <ele>129.348947</ele>
        <time>2026-08-29T16:34:35Z</time>
      </trkpt>
      <trkpt lat="43.89101" lon="1.91319">
        <ele>129.339331</ele>
        <time>2026-08-29T16:34:36Z</time>
      </trkpt>
      <trkpt lat="43.89099" lon="1.91315">
        <ele>129.330624</ele>
        <time>2026-08-29T16:34:37Z</time>
      </trkpt>
      <trkpt lat="43.89097" lon="1.91311">
        <ele>129.321514</ele>
        <time>2026-08-29T16:34:38Z</time>
      </trkpt>
      <trkpt lat="43.89095" lon="1.91307">
        <ele>129.312401</ele>
        <time>2026-08-29T16:34:39Z</time>
      </trkpt>
      <trkpt lat="43.89092" lon="1.91302">
        <ele>129.302578</ele>
        <time>2026-08-29T16:34:40Z</time>
      </trkpt>
      <trkpt lat="43.8909" lon="1.91298">
        <ele>129.293036</ele>
        <time>2026-08-29T16:34:41Z</time>
      </trkpt>
      <trkpt lat="43.89087" lon="1.91294">
        <ele>129.282998</ele>
        <time>2026-08-29T16:34:42Z</time>
      </trkpt>
      <trkpt lat="43.89084" lon="1.91289">
        <ele>129.272959</ele>
        <time>2026-08-29T16:34:43Z</time>
      </trkpt>
      <trkpt lat="43.89081" lon="1.91285">
        <ele>129.262236</ele>
        <time>2026-08-29T16:34:44Z</time>
      </trkpt>
      <trkpt lat="43.89078" lon="1.9128">
        <ele>129.251111</ele>
        <time>2026-08-29T16:34:45Z</time>
      </trkpt>
      <trkpt lat="43.89076" lon="1.91275">
        <ele>129.24065</ele>
        <time>2026-08-29T16:34:46Z</time>
      </trkpt>
      <trkpt lat="43.89073" lon="1.91272">
        <ele>129.23076</ele>
        <time>2026-08-29T16:34:47Z</time>
      </trkpt>
      <trkpt lat="43.8907" lon="1.91268">
        <ele>129.221644</ele>
        <time>2026-08-29T16:34:48Z</time>
      </trkpt>
      <trkpt lat="43.89067" lon="1.91264">
        <ele>129.2119</ele>
        <time>2026-08-29T16:34:49Z</time>
      </trkpt>
      <trkpt lat="43.89064" lon="1.91259">
        <ele>129.201491</ele>
        <time>2026-08-29T16:34:50Z</time>
      </trkpt>
      <trkpt lat="43.89062" lon="1.91254">
        <ele>129.190957</ele>
        <time>2026-08-29T16:34:51Z</time>
      </trkpt>
      <trkpt lat="43.89059" lon="1.91249">
        <ele>129.17927</ele>
        <time>2026-08-29T16:34:52Z</time>
      </trkpt>
      <trkpt lat="43.89056" lon="1.91244">
        <ele>129.168587</ele>
        <time>2026-08-29T16:34:53Z</time>
      </trkpt>
      <trkpt lat="43.89054" lon="1.9124">
        <ele>129.158041</ele>
        <time>2026-08-29T16:34:54Z</time>
      </trkpt>
      <trkpt lat="43.89051" lon="1.91235">
        <ele>129.14761</ele>
        <time>2026-08-29T16:34:55Z</time>
      </trkpt>
      <trkpt lat="43.89048" lon="1.91231">
        <ele>129.137019</ele>
        <time>2026-08-29T16:34:56Z</time>
      </trkpt>
      <trkpt lat="43.89045" lon="1.91226">
        <ele>129.12672</ele>
        <time>2026-08-29T16:34:57Z</time>
      </trkpt>
      <trkpt lat="43.89043" lon="1.91222">
        <ele>129.117038</ele>
        <time>2026-08-29T16:34:58Z</time>
      </trkpt>
      <trkpt lat="43.8904" lon="1.91218">
        <ele>129.107783</ele>
        <time>2026-08-29T16:34:59Z</time>
      </trkpt>
      <trkpt lat="43.89038" lon="1.91214">
        <ele>129.098493</ele>
        <time>2026-08-29T16:35:00Z</time>
      </trkpt>
      <trkpt lat="43.89035" lon="1.9121">
        <ele>129.088661</ele>
        <time>2026-08-29T16:35:01Z</time>
      </trkpt>
      <trkpt lat="43.89032" lon="1.91206">
        <ele>129.079079</ele>
        <time>2026-08-29T16:35:02Z</time>
      </trkpt>
      <trkpt lat="43.8903" lon="1.91201">
        <ele>129.069385</ele>
        <time>2026-08-29T16:35:03Z</time>
      </trkpt>
      <trkpt lat="43.89028" lon="1.91197">
        <ele>129.060416</ele>
        <time>2026-08-29T16:35:04Z</time>
      </trkpt>
      <trkpt lat="43.89026" lon="1.91193">
        <ele>129.051727</ele>
        <time>2026-08-29T16:35:05Z</time>
      </trkpt>
      <trkpt lat="43.89023" lon="1.91189">
        <ele>129.042898</ele>
        <time>2026-08-29T16:35:06Z</time>
      </trkpt>
      <trkpt lat="43.89021" lon="1.91185">
        <ele>129.03393</ele>
        <time>2026-08-29T16:35:07Z</time>
      </trkpt>
      <trkpt lat="43.89019" lon="1.91181">
        <ele>129.024507</ele>
        <time>2026-08-29T16:35:08Z</time>
      </trkpt>
      <trkpt lat="43.89016" lon="1.91177">
        <ele>129.014825</ele>
        <time>2026-08-29T16:35:09Z</time>
      </trkpt>
      <trkpt lat="43.89014" lon="1.91173">
        <ele>129.005856</ele>
        <time>2026-08-29T16:35:10Z</time>
      </trkpt>
      <trkpt lat="43.89012" lon="1.91169">
        <ele>128.996724</ele>
        <time>2026-08-29T16:35:11Z</time>
      </trkpt>
      <trkpt lat="43.89009" lon="1.91164">
        <ele>128.986685</ele>
        <time>2026-08-29T16:35:12Z</time>
      </trkpt>
      <trkpt lat="43.89006" lon="1.9116">
        <ele>128.976837</ele>
        <time>2026-08-29T16:35:13Z</time>
      </trkpt>
      <trkpt lat="43.89004" lon="1.91156">
        <ele>128.966868</ele>
        <time>2026-08-29T16:35:14Z</time>
      </trkpt>
      <trkpt lat="43.89001" lon="1.91151">
        <ele>128.956406</ele>
        <time>2026-08-29T16:35:15Z</time>
      </trkpt>
      <trkpt lat="43.88998" lon="1.91147">
        <ele>128.946531</ele>
        <time>2026-08-29T16:35:16Z</time>
      </trkpt>
      <trkpt lat="43.88996" lon="1.91143">
        <ele>128.915267</ele>
        <time>2026-08-29T16:35:17Z</time>
      </trkpt>
      <trkpt lat="43.88994" lon="1.91139">
        <ele>128.873619</ele>
        <time>2026-08-29T16:35:18Z</time>
      </trkpt>
      <trkpt lat="43.88991" lon="1.91134">
        <ele>128.828007</ele>
        <time>2026-08-29T16:35:19Z</time>
      </trkpt>
      <trkpt lat="43.88989" lon="1.9113">
        <ele>128.784971</ele>
        <time>2026-08-29T16:35:20Z</time>
      </trkpt>
      <trkpt lat="43.88987" lon="1.91126">
        <ele>128.741973</ele>
        <time>2026-08-29T16:35:21Z</time>
      </trkpt>
      <trkpt lat="43.88984" lon="1.91121">
        <ele>128.693211</ele>
        <time>2026-08-29T16:35:22Z</time>
      </trkpt>
      <trkpt lat="43.88981" lon="1.91117">
        <ele>128.649323</ele>
        <time>2026-08-29T16:35:23Z</time>
      </trkpt>
      <trkpt lat="43.88979" lon="1.91113">
        <ele>128.610308</ele>
        <time>2026-08-29T16:35:24Z</time>
      </trkpt>
      <trkpt lat="43.88977" lon="1.91109">
        <ele>128.56766</ele>
        <time>2026-08-29T16:35:25Z</time>
      </trkpt>
      <trkpt lat="43.88977" lon="1.91104">
        <ele>128.531527</ele>
        <time>2026-08-29T16:35:26Z</time>
      </trkpt>
      <trkpt lat="43.88977" lon="1.91099">
        <ele>128.490028</ele>
        <time>2026-08-29T16:35:27Z</time>
      </trkpt>
      <trkpt lat="43.88976" lon="1.91094">
        <ele>128.440587</ele>
        <time>2026-08-29T16:35:28Z</time>
      </trkpt>
      <trkpt lat="43.88974" lon="1.91089">
        <ele>128.393281</ele>
        <time>2026-08-29T16:35:29Z</time>
      </trkpt>
      <trkpt lat="43.88972" lon="1.91084">
        <ele>128.353126</ele>
        <time>2026-08-29T16:35:30Z</time>
      </trkpt>
      <trkpt lat="43.8897" lon="1.9108">
        <ele>128.31346</ele>
        <time>2026-08-29T16:35:31Z</time>
      </trkpt>
      <trkpt lat="43.88968" lon="1.91076">
        <ele>128.267167</ele>
        <time>2026-08-29T16:35:32Z</time>
      </trkpt>
      <trkpt lat="43.88964" lon="1.9107">
        <ele>128.208597</ele>
        <time>2026-08-29T16:35:33Z</time>
      </trkpt>
      <trkpt lat="43.88962" lon="1.91067">
        <ele>128.168245</ele>
        <time>2026-08-29T16:35:34Z</time>
      </trkpt>
      <trkpt lat="43.88961" lon="1.91062">
        <ele>128.129322</ele>
        <time>2026-08-29T16:35:35Z</time>
      </trkpt>
      <trkpt lat="43.88959" lon="1.91057">
        <ele>128.08344</ele>
        <time>2026-08-29T16:35:36Z</time>
      </trkpt>
      <trkpt lat="43.88956" lon="1.91051">
        <ele>128.022313</ele>
        <time>2026-08-29T16:35:37Z</time>
      </trkpt>
      <trkpt lat="43.88953" lon="1.91044">
        <ele>127.955957</ele>
        <time>2026-08-29T16:35:38Z</time>
      </trkpt>
      <trkpt lat="43.8895" lon="1.91037">
        <ele>127.890509</ele>
        <time>2026-08-29T16:35:39Z</time>
      </trkpt>
      <trkpt lat="43.88947" lon="1.91031">
        <ele>127.833565</ele>
        <time>2026-08-29T16:35:40Z</time>
      </trkpt>
      <trkpt lat="43.88944" lon="1.91025">
        <ele>127.777219</ele>
        <time>2026-08-29T16:35:41Z</time>
      </trkpt>
      <trkpt lat="43.88942" lon="1.9102">
        <ele>127.72561</ele>
        <time>2026-08-29T16:35:42Z</time>
      </trkpt>
      <trkpt lat="43.88941" lon="1.91014">
        <ele>127.677227</ele>
        <time>2026-08-29T16:35:43Z</time>
      </trkpt>
      <trkpt lat="43.88939" lon="1.91009">
        <ele>127.631186</ele>
        <time>2026-08-29T16:35:44Z</time>
      </trkpt>
      <trkpt lat="43.88938" lon="1.91004">
        <ele>127.589407</ele>
        <time>2026-08-29T16:35:45Z</time>
      </trkpt>
      <trkpt lat="43.88937" lon="1.91">
        <ele>127.550484</ele>
        <time>2026-08-29T16:35:46Z</time>
      </trkpt>
      <trkpt lat="43.88935" lon="1.90996">
        <ele>127.509967</ele>
        <time>2026-08-29T16:35:47Z</time>
      </trkpt>
      <trkpt lat="43.88934" lon="1.90991">
        <ele>127.471637</ele>
        <time>2026-08-29T16:35:48Z</time>
      </trkpt>
      <trkpt lat="43.88931" lon="1.90987">
        <ele>127.425974</ele>
        <time>2026-08-29T16:35:49Z</time>
      </trkpt>
      <trkpt lat="43.8893" lon="1.90982">
        <ele>127.382776</ele>
        <time>2026-08-29T16:35:50Z</time>
      </trkpt>
      <trkpt lat="43.88927" lon="1.90978">
        <ele>127.340472</ele>
        <time>2026-08-29T16:35:51Z</time>
      </trkpt>
      <trkpt lat="43.88925" lon="1.90973">
        <ele>127.298151</ele>
        <time>2026-08-29T16:35:52Z</time>
      </trkpt>
      <trkpt lat="43.88923" lon="1.90969">
        <ele>127.25317</ele>
        <time>2026-08-29T16:35:53Z</time>
      </trkpt>
      <trkpt lat="43.88921" lon="1.90964">
        <ele>127.208188</ele>
        <time>2026-08-29T16:35:54Z</time>
      </trkpt>
      <trkpt lat="43.88918" lon="1.9096">
        <ele>127.162576</ele>
        <time>2026-08-29T16:35:55Z</time>
      </trkpt>
      <trkpt lat="43.88916" lon="1.90956">
        <ele>127.121408</ele>
        <time>2026-08-29T16:35:56Z</time>
      </trkpt>
      <trkpt lat="43.88914" lon="1.90951">
        <ele>127.074101</ele>
        <time>2026-08-29T16:35:57Z</time>
      </trkpt>
      <trkpt lat="43.88912" lon="1.90945">
        <ele>127.020699</ele>
        <time>2026-08-29T16:35:58Z</time>
      </trkpt>
      <trkpt lat="43.8891" lon="1.9094">
        <ele>126.970866</ele>
        <time>2026-08-29T16:35:59Z</time>
      </trkpt>
      <trkpt lat="43.88908" lon="1.90935">
        <ele>126.923364</ele>
        <time>2026-08-29T16:36:00Z</time>
      </trkpt>
      <trkpt lat="43.88906" lon="1.90929">
        <ele>126.854876</ele>
        <time>2026-08-29T16:36:01Z</time>
      </trkpt>
      <trkpt lat="43.88903" lon="1.90923">
        <ele>126.782614</ele>
        <time>2026-08-29T16:36:02Z</time>
      </trkpt>
      <trkpt lat="43.88901" lon="1.90918">
        <ele>126.712577</ele>
        <time>2026-08-29T16:36:03Z</time>
      </trkpt>
      <trkpt lat="43.88898" lon="1.90913">
        <ele>126.636136</ele>
        <time>2026-08-29T16:36:04Z</time>
      </trkpt>
      <trkpt lat="43.88896" lon="1.90908">
        <ele>126.572361</ele>
        <time>2026-08-29T16:36:05Z</time>
      </trkpt>
      <trkpt lat="43.88893" lon="1.90903">
        <ele>126.505042</ele>
        <time>2026-08-29T16:36:06Z</time>
      </trkpt>
      <trkpt lat="43.88891" lon="1.90898">
        <ele>126.437671</ele>
        <time>2026-08-29T16:36:07Z</time>
      </trkpt>
      <trkpt lat="43.88889" lon="1.90892">
        <ele>126.370134</ele>
        <time>2026-08-29T16:36:08Z</time>
      </trkpt>
      <trkpt lat="43.88888" lon="1.90886">
        <ele>126.294714</ele>
        <time>2026-08-29T16:36:09Z</time>
      </trkpt>
      <trkpt lat="43.88887" lon="1.9088">
        <ele>126.228199</ele>
        <time>2026-08-29T16:36:10Z</time>
      </trkpt>
      <trkpt lat="43.88887" lon="1.90873">
        <ele>126.152938</ele>
        <time>2026-08-29T16:36:11Z</time>
      </trkpt>
      <trkpt lat="43.88888" lon="1.90867">
        <ele>126.080546</ele>
        <time>2026-08-29T16:36:12Z</time>
      </trkpt>
      <trkpt lat="43.8889" lon="1.90862">
        <ele>126.010223</ele>
        <time>2026-08-29T16:36:13Z</time>
      </trkpt>
      <trkpt lat="43.88893" lon="1.90857">
        <ele>125.9436</ele>
        <time>2026-08-29T16:36:14Z</time>
      </trkpt>
      <trkpt lat="43.88896" lon="1.90855">
        <ele>125.886663</ele>
        <time>2026-08-29T16:36:15Z</time>
      </trkpt>
      <trkpt lat="43.88899" lon="1.90852">
        <ele>125.834889</ele>
        <time>2026-08-29T16:36:16Z</time>
      </trkpt>
      <trkpt lat="43.88902" lon="1.90849">
        <ele>125.781846</ele>
        <time>2026-08-29T16:36:17Z</time>
      </trkpt>
      <trkpt lat="43.88905" lon="1.90847">
        <ele>125.734751</ele>
        <time>2026-08-29T16:36:18Z</time>
      </trkpt>
      <trkpt lat="43.88907" lon="1.90846">
        <ele>125.699903</ele>
        <time>2026-08-29T16:36:19Z</time>
      </trkpt>
      <trkpt lat="43.88909" lon="1.90846">
        <ele>125.660996</ele>
        <time>2026-08-29T16:36:20Z</time>
      </trkpt>
      <trkpt lat="43.88912" lon="1.90846">
        <ele>125.620549</ele>
        <time>2026-08-29T16:36:21Z</time>
      </trkpt>
      <trkpt lat="43.88914" lon="1.90846">
        <ele>125.586033</ele>
        <time>2026-08-29T16:36:22Z</time>
      </trkpt>
      <trkpt lat="43.88916" lon="1.90845">
        <ele>125.550703</ele>
        <time>2026-08-29T16:36:23Z</time>
      </trkpt>
      <trkpt lat="43.88918" lon="1.90843">
        <ele>125.519363</ele>
        <time>2026-08-29T16:36:24Z</time>
      </trkpt>
      <trkpt lat="43.88919" lon="1.90841">
        <ele>125.487319</ele>
        <time>2026-08-29T16:36:25Z</time>
      </trkpt>
      <trkpt lat="43.88921" lon="1.9084">
        <ele>125.452745</ele>
        <time>2026-08-29T16:36:26Z</time>
      </trkpt>
      <trkpt lat="43.88923" lon="1.90839">
        <ele>125.418206</ele>
        <time>2026-08-29T16:36:27Z</time>
      </trkpt>
      <trkpt lat="43.88926" lon="1.90837">
        <ele>125.371608</ele>
        <time>2026-08-29T16:36:28Z</time>
      </trkpt>
      <trkpt lat="43.88928" lon="1.90835">
        <ele>125.327469</ele>
        <time>2026-08-29T16:36:29Z</time>
      </trkpt>
      <trkpt lat="43.8893" lon="1.90832">
        <ele>125.292852</ele>
        <time>2026-08-29T16:36:30Z</time>
      </trkpt>
      <trkpt lat="43.88931" lon="1.90829">
        <ele>125.25804</ele>
        <time>2026-08-29T16:36:31Z</time>
      </trkpt>
      <trkpt lat="43.88932" lon="1.90826">
        <ele>125.219301</ele>
        <time>2026-08-29T16:36:32Z</time>
      </trkpt>
      <trkpt lat="43.88933" lon="1.90823">
        <ele>125.181832</ele>
        <time>2026-08-29T16:36:33Z</time>
      </trkpt>
      <trkpt lat="43.88933" lon="1.9082">
        <ele>125.14746</ele>
        <time>2026-08-29T16:36:34Z</time>
      </trkpt>
      <trkpt lat="43.88934" lon="1.90818">
        <ele>125.113634</ele>
        <time>2026-08-29T16:36:35Z</time>
      </trkpt>
      <trkpt lat="43.88935" lon="1.90814">
        <ele>125.077213</ele>
        <time>2026-08-29T16:36:36Z</time>
      </trkpt>
      <trkpt lat="43.88936" lon="1.90811">
        <ele>125.037144</ele>
        <time>2026-08-29T16:36:37Z</time>
      </trkpt>
      <trkpt lat="43.88937" lon="1.90808">
        <ele>124.996307</ele>
        <time>2026-08-29T16:36:38Z</time>
      </trkpt>
      <trkpt lat="43.88936" lon="1.90804">
        <ele>124.952473</ele>
        <time>2026-08-29T16:36:39Z</time>
      </trkpt>
      <trkpt lat="43.88936" lon="1.90801">
        <ele>124.917952</ele>
        <time>2026-08-29T16:36:40Z</time>
      </trkpt>
      <trkpt lat="43.88936" lon="1.90798">
        <ele>124.884282</ele>
        <time>2026-08-29T16:36:41Z</time>
      </trkpt>
      <trkpt lat="43.88935" lon="1.90795">
        <ele>124.848296</ele>
        <time>2026-08-29T16:36:42Z</time>
      </trkpt>
      <trkpt lat="43.88934" lon="1.90791">
        <ele>124.801676</ele>
        <time>2026-08-29T16:36:43Z</time>
      </trkpt>
      <trkpt lat="43.88932" lon="1.90787">
        <ele>124.751458</ele>
        <time>2026-08-29T16:36:44Z</time>
      </trkpt>
      <trkpt lat="43.88931" lon="1.90784">
        <ele>124.704138</ele>
        <time>2026-08-29T16:36:45Z</time>
      </trkpt>
      <trkpt lat="43.88929" lon="1.9078">
        <ele>124.651384</ele>
        <time>2026-08-29T16:36:46Z</time>
      </trkpt>
      <trkpt lat="43.88927" lon="1.90776">
        <ele>124.602809</ele>
        <time>2026-08-29T16:36:47Z</time>
      </trkpt>
      <trkpt lat="43.88926" lon="1.90771">
        <ele>124.53942</ele>
        <time>2026-08-29T16:36:48Z</time>
      </trkpt>
      <trkpt lat="43.88924" lon="1.90765">
        <ele>124.46363</ele>
        <time>2026-08-29T16:36:49Z</time>
      </trkpt>
      <trkpt lat="43.88922" lon="1.90758">
        <ele>124.382937</ele>
        <time>2026-08-29T16:36:50Z</time>
      </trkpt>
      <trkpt lat="43.88921" lon="1.9075">
        <ele>124.294273</ele>
        <time>2026-08-29T16:36:51Z</time>
      </trkpt>
      <trkpt lat="43.8892" lon="1.90742">
        <ele>124.198557</ele>
        <time>2026-08-29T16:36:52Z</time>
      </trkpt>
      <trkpt lat="43.88919" lon="1.90734">
        <ele>124.112705</ele>
        <time>2026-08-29T16:36:53Z</time>
      </trkpt>
      <trkpt lat="43.88918" lon="1.90726">
        <ele>124.14148</ele>
        <time>2026-08-29T16:36:54Z</time>
      </trkpt>
      <trkpt lat="43.88917" lon="1.9072">
        <ele>124.166078</ele>
        <time>2026-08-29T16:36:55Z</time>
      </trkpt>
      <trkpt lat="43.88916" lon="1.90714">
        <ele>124.192123</ele>
        <time>2026-08-29T16:36:56Z</time>
      </trkpt>
      <trkpt lat="43.88914" lon="1.90706">
        <ele>124.22086</ele>
        <time>2026-08-29T16:36:57Z</time>
      </trkpt>
      <trkpt lat="43.88914" lon="1.90699">
        <ele>124.251445</ele>
        <time>2026-08-29T16:36:58Z</time>
      </trkpt>
      <trkpt lat="43.88914" lon="1.90691">
        <ele>124.282031</ele>
        <time>2026-08-29T16:36:59Z</time>
      </trkpt>
      <trkpt lat="43.88914" lon="1.90683">
        <ele>124.311148</ele>
        <time>2026-08-29T16:37:00Z</time>
      </trkpt>
      <trkpt lat="43.88913" lon="1.90676">
        <ele>124.340401</ele>
        <time>2026-08-29T16:37:01Z</time>
      </trkpt>
      <trkpt lat="43.88912" lon="1.90669">
        <ele>124.368223</ele>
        <time>2026-08-29T16:37:02Z</time>
      </trkpt>
      <trkpt lat="43.88912" lon="1.90662">
        <ele>124.395515</ele>
        <time>2026-08-29T16:37:03Z</time>
      </trkpt>
      <trkpt lat="43.88911" lon="1.90655">
        <ele>124.422316</ele>
        <time>2026-08-29T16:37:04Z</time>
      </trkpt>
      <trkpt lat="43.8891" lon="1.90648">
        <ele>124.447378</ele>
        <time>2026-08-29T16:37:05Z</time>
      </trkpt>
      <trkpt lat="43.8891" lon="1.90643">
        <ele>124.467964</ele>
        <time>2026-08-29T16:37:06Z</time>
      </trkpt>
      <trkpt lat="43.88909" lon="1.90639">
        <ele>124.483818</ele>
        <time>2026-08-29T16:37:07Z</time>
      </trkpt>
      <trkpt lat="43.88908" lon="1.90637">
        <ele>124.495491</ele>
        <time>2026-08-29T16:37:08Z</time>
      </trkpt>
      <trkpt lat="43.88907" lon="1.90636">
        <ele>124.499883</ele>
        <time>2026-08-29T16:37:09Z</time>
      </trkpt>
      <trkpt lat="43.88907" lon="1.90635">
        <ele>124.50027</ele>
        <time>2026-08-29T16:37:10Z</time>
      </trkpt>
      <trkpt lat="43.88908" lon="1.90636">
        <ele>124.502713</ele>
        <time>2026-08-29T16:37:11Z</time>
      </trkpt>
      <trkpt lat="43.88901" lon="1.90629">
        <ele>124.548409</ele>
        <time>2026-08-29T16:37:31Z</time>
      </trkpt>
      <trkpt lat="43.88898" lon="1.90631">
        <ele>124.563391</ele>
        <time>2026-08-29T16:37:32Z</time>
      </trkpt>
      <trkpt lat="43.88895" lon="1.90632">
        <ele>124.580458</ele>
        <time>2026-08-29T16:37:33Z</time>
      </trkpt>
      <trkpt lat="43.88892" lon="1.90634">
        <ele>124.599803</ele>
        <time>2026-08-29T16:37:34Z</time>
      </trkpt>
      <trkpt lat="43.88889" lon="1.90637">
        <ele>124.619164</ele>
        <time>2026-08-29T16:37:35Z</time>
      </trkpt>
      <trkpt lat="43.88886" lon="1.90639">
        <ele>124.638623</ele>
        <time>2026-08-29T16:37:36Z</time>
      </trkpt>
      <trkpt lat="43.88882" lon="1.90642">
        <ele>124.657984</ele>
        <time>2026-08-29T16:37:37Z</time>
      </trkpt>
      <trkpt lat="43.88879" lon="1.90644">
        <ele>124.676035</ele>
        <time>2026-08-29T16:37:38Z</time>
      </trkpt>
      <trkpt lat="43.88876" lon="1.90645">
        <ele>124.69469</ele>
        <time>2026-08-29T16:37:39Z</time>
      </trkpt>
      <trkpt lat="43.88874" lon="1.90647">
        <ele>124.711049</ele>
        <time>2026-08-29T16:37:40Z</time>
      </trkpt>
      <trkpt lat="43.88871" lon="1.90649">
        <ele>124.725235</ele>
        <time>2026-08-29T16:37:41Z</time>
      </trkpt>
      <trkpt lat="43.88869" lon="1.90651">
        <ele>124.738956</ele>
        <time>2026-08-29T16:37:42Z</time>
      </trkpt>
      <trkpt lat="43.88867" lon="1.90653">
        <ele>124.753912</ele>
        <time>2026-08-29T16:37:43Z</time>
      </trkpt>
      <trkpt lat="43.88864" lon="1.90655">
        <ele>124.767632</ele>
        <time>2026-08-29T16:37:44Z</time>
      </trkpt>
      <trkpt lat="43.88862" lon="1.90657">
        <ele>124.783302</ele>
        <time>2026-08-29T16:37:45Z</time>
      </trkpt>
      <trkpt lat="43.8886" lon="1.90659">
        <ele>124.798754</ele>
        <time>2026-08-29T16:37:46Z</time>
      </trkpt>
      <trkpt lat="43.88857" lon="1.90661">
        <ele>124.813058</ele>
        <time>2026-08-29T16:37:47Z</time>
      </trkpt>
      <trkpt lat="43.88855" lon="1.90662">
        <ele>124.826586</ele>
        <time>2026-08-29T16:37:48Z</time>
      </trkpt>
      <trkpt lat="43.88852" lon="1.90663">
        <ele>124.840287</ele>
        <time>2026-08-29T16:37:49Z</time>
      </trkpt>
      <trkpt lat="43.8885" lon="1.90663">
        <ele>124.855871</ele>
        <time>2026-08-29T16:37:50Z</time>
      </trkpt>
      <trkpt lat="43.88847" lon="1.90663">
        <ele>124.871037</ele>
        <time>2026-08-29T16:37:51Z</time>
      </trkpt>
      <trkpt lat="43.88845" lon="1.90661">
        <ele>124.883883</ele>
        <time>2026-08-29T16:37:52Z</time>
      </trkpt>
      <trkpt lat="43.88843" lon="1.90659">
        <ele>124.89561</ele>
        <time>2026-08-29T16:37:53Z</time>
      </trkpt>
      <trkpt lat="43.88842" lon="1.90658">
        <ele>124.904945</ele>
        <time>2026-08-29T16:37:54Z</time>
      </trkpt>
      <trkpt lat="43.88841" lon="1.90656">
        <ele>124.911928</ele>
        <time>2026-08-29T16:37:55Z</time>
      </trkpt>
      <trkpt lat="43.8884" lon="1.90654">
        <ele>124.920116</ele>
        <time>2026-08-29T16:37:56Z</time>
      </trkpt>
      <trkpt lat="43.88839" lon="1.90652">
        <ele>124.929656</ele>
        <time>2026-08-29T16:37:57Z</time>
      </trkpt>
      <trkpt lat="43.88839" lon="1.9065">
        <ele>124.937488</ele>
        <time>2026-08-29T16:37:58Z</time>
      </trkpt>
      <trkpt lat="43.88838" lon="1.90649">
        <ele>124.945027</ele>
        <time>2026-08-29T16:37:59Z</time>
      </trkpt>
      <trkpt lat="43.88837" lon="1.90646">
        <ele>124.95825</ele>
        <time>2026-08-29T16:38:00Z</time>
      </trkpt>
      <trkpt lat="43.88836" lon="1.90643">
        <ele>124.969922</ele>
        <time>2026-08-29T16:38:01Z</time>
      </trkpt>
      <trkpt lat="43.88835" lon="1.90641">
        <ele>124.981675</ele>
        <time>2026-08-29T16:38:02Z</time>
      </trkpt>
      <trkpt lat="43.88834" lon="1.90638">
        <ele>124.992495</ele>
        <time>2026-08-29T16:38:03Z</time>
      </trkpt>
      <trkpt lat="43.88833" lon="1.90636">
        <ele>125.001796</ele>
        <time>2026-08-29T16:38:04Z</time>
      </trkpt>
      <trkpt lat="43.88832" lon="1.90633">
        <ele>125.012196</ele>
        <time>2026-08-29T16:38:05Z</time>
      </trkpt>
      <trkpt lat="43.88832" lon="1.90631">
        <ele>125.021862</ele>
        <time>2026-08-29T16:38:06Z</time>
      </trkpt>
      <trkpt lat="43.88831" lon="1.90628">
        <ele>125.033172</ele>
        <time>2026-08-29T16:38:07Z</time>
      </trkpt>
      <trkpt lat="43.8883" lon="1.90626">
        <ele>125.043859</ele>
        <time>2026-08-29T16:38:08Z</time>
      </trkpt>
      <trkpt lat="43.88829" lon="1.90623">
        <ele>125.055161</ele>
        <time>2026-08-29T16:38:09Z</time>
      </trkpt>
      <trkpt lat="43.88828" lon="1.90621">
        <ele>125.066609</ele>
        <time>2026-08-29T16:38:10Z</time>
      </trkpt>
      <trkpt lat="43.88827" lon="1.90618">
        <ele>125.083209</ele>
        <time>2026-08-29T16:38:11Z</time>
      </trkpt>
      <trkpt lat="43.88826" lon="1.90616">
        <ele>125.141823</ele>
        <time>2026-08-29T16:38:12Z</time>
      </trkpt>
      <trkpt lat="43.88825" lon="1.90613">
        <ele>125.200437</ele>
        <time>2026-08-29T16:38:13Z</time>
      </trkpt>
      <trkpt lat="43.88824" lon="1.9061">
        <ele>125.258014</ele>
        <time>2026-08-29T16:38:14Z</time>
      </trkpt>
      <trkpt lat="43.88823" lon="1.90607">
        <ele>125.313928</ele>
        <time>2026-08-29T16:38:15Z</time>
      </trkpt>
      <trkpt lat="43.88822" lon="1.90604">
        <ele>125.371939</ele>
        <time>2026-08-29T16:38:16Z</time>
      </trkpt>
      <trkpt lat="43.88821" lon="1.90602">
        <ele>125.418287</ele>
        <time>2026-08-29T16:38:17Z</time>
      </trkpt>
      <trkpt lat="43.8882" lon="1.906">
        <ele>125.469065</ele>
        <time>2026-08-29T16:38:18Z</time>
      </trkpt>
      <trkpt lat="43.8882" lon="1.90597">
        <ele>125.520816</ele>
        <time>2026-08-29T16:38:19Z</time>
      </trkpt>
      <trkpt lat="43.88819" lon="1.90595">
        <ele>125.564738</ele>
        <time>2026-08-29T16:38:20Z</time>
      </trkpt>
      <trkpt lat="43.88819" lon="1.90592">
        <ele>125.612801</ele>
        <time>2026-08-29T16:38:21Z</time>
      </trkpt>
      <trkpt lat="43.88818" lon="1.9059">
        <ele>125.655624</ele>
        <time>2026-08-29T16:38:22Z</time>
      </trkpt>
      <trkpt lat="43.88818" lon="1.90588">
        <ele>125.696465</ele>
        <time>2026-08-29T16:38:23Z</time>
      </trkpt>
      <trkpt lat="43.88818" lon="1.90585">
        <ele>125.748215</ele>
        <time>2026-08-29T16:38:24Z</time>
      </trkpt>
      <trkpt lat="43.88817" lon="1.90582">
        <ele>125.801205</ele>
        <time>2026-08-29T16:38:25Z</time>
      </trkpt>
      <trkpt lat="43.88817" lon="1.9058">
        <ele>125.85116</ele>
        <time>2026-08-29T16:38:26Z</time>
      </trkpt>
      <trkpt lat="43.88816" lon="1.90577">
        <ele>125.90471</ele>
        <time>2026-08-29T16:38:27Z</time>
      </trkpt>
      <trkpt lat="43.88816" lon="1.90574">
        <ele>125.957977</ele>
        <time>2026-08-29T16:38:28Z</time>
      </trkpt>
      <trkpt lat="43.88815" lon="1.90572">
        <ele>126.007331</ele>
        <time>2026-08-29T16:38:29Z</time>
      </trkpt>
      <trkpt lat="43.88815" lon="1.90569">
        <ele>126.056684</ele>
        <time>2026-08-29T16:38:30Z</time>
      </trkpt>
      <trkpt lat="43.88814" lon="1.90567">
        <ele>126.103061</ele>
        <time>2026-08-29T16:38:31Z</time>
      </trkpt>
      <trkpt lat="43.88814" lon="1.90564">
        <ele>126.146452</ele>
        <time>2026-08-29T16:38:32Z</time>
      </trkpt>
      <trkpt lat="43.88814" lon="1.90562">
        <ele>126.192933</ele>
        <time>2026-08-29T16:38:33Z</time>
      </trkpt>
      <trkpt lat="43.88814" lon="1.90559">
        <ele>126.239414</ele>
        <time>2026-08-29T16:38:34Z</time>
      </trkpt>
      <trkpt lat="43.88814" lon="1.90557">
        <ele>126.2898</ele>
        <time>2026-08-29T16:38:35Z</time>
      </trkpt>
      <trkpt lat="43.88814" lon="1.90554">
        <ele>126.33621</ele>
        <time>2026-08-29T16:38:36Z</time>
      </trkpt>
      <trkpt lat="43.88814" lon="1.90552">
        <ele>126.378984</ele>
        <time>2026-08-29T16:38:37Z</time>
      </trkpt>
      <trkpt lat="43.88813" lon="1.90549">
        <ele>126.425465</ele>
        <time>2026-08-29T16:38:38Z</time>
      </trkpt>
      <trkpt lat="43.88813" lon="1.90547">
        <ele>126.476179</ele>
        <time>2026-08-29T16:38:39Z</time>
      </trkpt>
      <trkpt lat="43.88813" lon="1.90544">
        <ele>126.532109</ele>
        <time>2026-08-29T16:38:40Z</time>
      </trkpt>
      <trkpt lat="43.88813" lon="1.9054">
        <ele>126.589656</ele>
        <time>2026-08-29T16:38:41Z</time>
      </trkpt>
      <trkpt lat="43.88813" lon="1.90537">
        <ele>126.649061</ele>
        <time>2026-08-29T16:38:42Z</time>
      </trkpt>
      <trkpt lat="43.88813" lon="1.90534">
        <ele>126.708465</ele>
        <time>2026-08-29T16:38:43Z</time>
      </trkpt>
      <trkpt lat="43.88813" lon="1.90531">
        <ele>126.764156</ele>
        <time>2026-08-29T16:38:44Z</time>
      </trkpt>
      <trkpt lat="43.88813" lon="1.90528">
        <ele>126.823616</ele>
        <time>2026-08-29T16:38:45Z</time>
      </trkpt>
      <trkpt lat="43.88813" lon="1.90525">
        <ele>126.884877</ele>
        <time>2026-08-29T16:38:46Z</time>
      </trkpt>
      <trkpt lat="43.88813" lon="1.90521">
        <ele>126.944281</ele>
        <time>2026-08-29T16:38:47Z</time>
      </trkpt>
      <trkpt lat="43.88813" lon="1.90518">
        <ele>127.005758</ele>
        <time>2026-08-29T16:38:48Z</time>
      </trkpt>
      <trkpt lat="43.88813" lon="1.90515">
        <ele>127.065663</ele>
        <time>2026-08-29T16:38:49Z</time>
      </trkpt>
      <trkpt lat="43.88813" lon="1.90511">
        <ele>127.128832</ele>
        <time>2026-08-29T16:38:50Z</time>
      </trkpt>
      <trkpt lat="43.88814" lon="1.90508">
        <ele>127.194618</ele>
        <time>2026-08-29T16:38:51Z</time>
      </trkpt>
      <trkpt lat="43.88815" lon="1.90505">
        <ele>127.254924</ele>
        <time>2026-08-29T16:38:52Z</time>
      </trkpt>
      <trkpt lat="43.88815" lon="1.90501">
        <ele>127.321162</ele>
        <time>2026-08-29T16:38:53Z</time>
      </trkpt>
      <trkpt lat="43.88815" lon="1.90497">
        <ele>127.397664</ele>
        <time>2026-08-29T16:38:54Z</time>
      </trkpt>
      <trkpt lat="43.88815" lon="1.90493">
        <ele>127.477655</ele>
        <time>2026-08-29T16:38:55Z</time>
      </trkpt>
      <trkpt lat="43.88815" lon="1.90489">
        <ele>127.543892</ele>
        <time>2026-08-29T16:38:56Z</time>
      </trkpt>
      <trkpt lat="43.88814" lon="1.90485">
        <ele>127.626849</ele>
        <time>2026-08-29T16:38:57Z</time>
      </trkpt>
      <trkpt lat="43.88812" lon="1.90482">
        <ele>127.705201</ele>
        <time>2026-08-29T16:38:58Z</time>
      </trkpt>
      <trkpt lat="43.8881" lon="1.90479">
        <ele>127.786512</ele>
        <time>2026-08-29T16:38:59Z</time>
      </trkpt>
      <trkpt lat="43.88807" lon="1.90476">
        <ele>127.874453</ele>
        <time>2026-08-29T16:39:00Z</time>
      </trkpt>
      <trkpt lat="43.88803" lon="1.90474">
        <ele>127.979862</ele>
        <time>2026-08-29T16:39:01Z</time>
      </trkpt>
      <trkpt lat="43.88799" lon="1.90471">
        <ele>128.099886</ele>
        <time>2026-08-29T16:39:02Z</time>
      </trkpt>
      <trkpt lat="43.88795" lon="1.90469">
        <ele>128.203573</ele>
        <time>2026-08-29T16:39:03Z</time>
      </trkpt>
      <trkpt lat="43.88792" lon="1.90467">
        <ele>128.301073</ele>
        <time>2026-08-29T16:39:04Z</time>
      </trkpt>
      <trkpt lat="43.88788" lon="1.90465">
        <ele>128.39964</ele>
        <time>2026-08-29T16:39:05Z</time>
      </trkpt>
      <trkpt lat="43.88784" lon="1.90463">
        <ele>128.499466</ele>
        <time>2026-08-29T16:39:06Z</time>
      </trkpt>
      <trkpt lat="43.88781" lon="1.90461">
        <ele>128.602309</ele>
        <time>2026-08-29T16:39:07Z</time>
      </trkpt>
      <trkpt lat="43.88777" lon="1.9046">
        <ele>128.710067</ele>
        <time>2026-08-29T16:39:08Z</time>
      </trkpt>
      <trkpt lat="43.88773" lon="1.90458">
        <ele>128.813495</ele>
        <time>2026-08-29T16:39:09Z</time>
      </trkpt>
      <trkpt lat="43.88769" lon="1.90456">
        <ele>128.922398</ele>
        <time>2026-08-29T16:39:10Z</time>
      </trkpt>
      <trkpt lat="43.88765" lon="1.90454">
        <ele>129.022224</ele>
        <time>2026-08-29T16:39:11Z</time>
      </trkpt>
      <trkpt lat="43.88761" lon="1.90453">
        <ele>129.125652</ele>
        <time>2026-08-29T16:39:12Z</time>
      </trkpt>
      <trkpt lat="43.88757" lon="1.9045">
        <ele>129.231712</ele>
        <time>2026-08-29T16:39:13Z</time>
      </trkpt>
      <trkpt lat="43.88754" lon="1.90448">
        <ele>129.340847</ele>
        <time>2026-08-29T16:39:14Z</time>
      </trkpt>
      <trkpt lat="43.8875" lon="1.90446">
        <ele>129.447635</ele>
        <time>2026-08-29T16:39:15Z</time>
      </trkpt>
      <trkpt lat="43.88746" lon="1.90443">
        <ele>129.553695</ele>
        <time>2026-08-29T16:39:16Z</time>
      </trkpt>
      <trkpt lat="43.88742" lon="1.90441">
        <ele>129.659055</ele>
        <time>2026-08-29T16:39:17Z</time>
      </trkpt>
      <trkpt lat="43.88739" lon="1.90439">
        <ele>129.715185</ele>
        <time>2026-08-29T16:39:18Z</time>
      </trkpt>
      <trkpt lat="43.88735" lon="1.90438">
        <ele>129.724545</ele>
        <time>2026-08-29T16:39:19Z</time>
      </trkpt>
      <trkpt lat="43.88731" lon="1.90436">
        <ele>129.733905</ele>
        <time>2026-08-29T16:39:20Z</time>
      </trkpt>
      <trkpt lat="43.88728" lon="1.90434">
        <ele>129.743283</ele>
        <time>2026-08-29T16:39:21Z</time>
      </trkpt>
      <trkpt lat="43.88724" lon="1.90432">
        <ele>129.752596</ele>
        <time>2026-08-29T16:39:22Z</time>
      </trkpt>
      <trkpt lat="43.8872" lon="1.9043">
        <ele>129.76207</ele>
        <time>2026-08-29T16:39:23Z</time>
      </trkpt>
      <trkpt lat="43.88717" lon="1.90428">
        <ele>129.771449</ele>
        <time>2026-08-29T16:39:24Z</time>
      </trkpt>
      <trkpt lat="43.88713" lon="1.90426">
        <ele>129.780827</ele>
        <time>2026-08-29T16:39:25Z</time>
      </trkpt>
      <trkpt lat="43.88709" lon="1.90423">
        <ele>129.79071</ele>
        <time>2026-08-29T16:39:26Z</time>
      </trkpt>
      <trkpt lat="43.88706" lon="1.90421">
        <ele>129.80001</ele>
        <time>2026-08-29T16:39:27Z</time>
      </trkpt>
      <trkpt lat="43.88702" lon="1.90419">
        <ele>129.809898</ele>
        <time>2026-08-29T16:39:28Z</time>
      </trkpt>
      <trkpt lat="43.88699" lon="1.90417">
        <ele>129.818617</ele>
        <time>2026-08-29T16:39:29Z</time>
      </trkpt>
      <trkpt lat="43.88695" lon="1.90414">
        <ele>129.828716</ele>
        <time>2026-08-29T16:39:30Z</time>
      </trkpt>
      <trkpt lat="43.88691" lon="1.90412">
        <ele>129.838316</ele>
        <time>2026-08-29T16:39:31Z</time>
      </trkpt>
      <trkpt lat="43.88688" lon="1.9041">
        <ele>129.847916</ele>
        <time>2026-08-29T16:39:32Z</time>
      </trkpt>
      <trkpt lat="43.88684" lon="1.90408">
        <ele>129.857144</ele>
        <time>2026-08-29T16:39:33Z</time>
      </trkpt>
      <trkpt lat="43.88681" lon="1.90406">
        <ele>129.865936</ele>
        <time>2026-08-29T16:39:34Z</time>
      </trkpt>
      <trkpt lat="43.88677" lon="1.90403">
        <ele>129.87502</ele>
        <time>2026-08-29T16:39:35Z</time>
      </trkpt>
      <trkpt lat="43.88674" lon="1.90401">
        <ele>129.884554</ele>
        <time>2026-08-29T16:39:36Z</time>
      </trkpt>
      <trkpt lat="43.8867" lon="1.90398">
        <ele>129.893961</ele>
        <time>2026-08-29T16:39:37Z</time>
      </trkpt>
      <trkpt lat="43.88667" lon="1.90395">
        <ele>129.90294</ele>
        <time>2026-08-29T16:39:38Z</time>
      </trkpt>
      <trkpt lat="43.88664" lon="1.90392">
        <ele>129.911823</ele>
        <time>2026-08-29T16:39:39Z</time>
      </trkpt>
      <trkpt lat="43.88662" lon="1.90389">
        <ele>129.919918</ele>
        <time>2026-08-29T16:39:40Z</time>
      </trkpt>
      <trkpt lat="43.88659" lon="1.90387">
        <ele>129.928013</ele>
        <time>2026-08-29T16:39:41Z</time>
      </trkpt>
      <trkpt lat="43.88656" lon="1.90384">
        <ele>129.937007</ele>
        <time>2026-08-29T16:39:42Z</time>
      </trkpt>
      <trkpt lat="43.88653" lon="1.90381">
        <ele>129.94589</ele>
        <time>2026-08-29T16:39:43Z</time>
      </trkpt>
      <trkpt lat="43.8865" lon="1.90379">
        <ele>129.953409</ele>
        <time>2026-08-29T16:39:44Z</time>
      </trkpt>
      <trkpt lat="43.88648" lon="1.90377">
        <ele>129.959243</ele>
        <time>2026-08-29T16:39:45Z</time>
      </trkpt>
      <trkpt lat="43.88646" lon="1.90374">
        <ele>129.966367</ele>
        <time>2026-08-29T16:39:46Z</time>
      </trkpt>
      <trkpt lat="43.88643" lon="1.90372">
        <ele>129.974166</ele>
        <time>2026-08-29T16:39:47Z</time>
      </trkpt>
      <trkpt lat="43.8864" lon="1.90369">
        <ele>129.98207</ele>
        <time>2026-08-29T16:39:48Z</time>
      </trkpt>
      <trkpt lat="43.88637" lon="1.90366">
        <ele>129.990753</ele>
        <time>2026-08-29T16:39:49Z</time>
      </trkpt>
      <trkpt lat="43.88634" lon="1.90363">
        <ele>129.999636</ele>
        <time>2026-08-29T16:39:50Z</time>
      </trkpt>
      <trkpt lat="43.88631" lon="1.9036">
        <ele>130.008516</ele>
        <time>2026-08-29T16:39:51Z</time>
      </trkpt>
      <trkpt lat="43.88629" lon="1.90358">
        <ele>130.016607</ele>
        <time>2026-08-29T16:39:52Z</time>
      </trkpt>
      <trkpt lat="43.88625" lon="1.90355">
        <ele>130.026191</ele>
        <time>2026-08-29T16:39:53Z</time>
      </trkpt>
      <trkpt lat="43.88622" lon="1.90352">
        <ele>130.034776</ele>
        <time>2026-08-29T16:39:54Z</time>
      </trkpt>
      <trkpt lat="43.88619" lon="1.90349">
        <ele>130.043556</ele>
        <time>2026-08-29T16:39:55Z</time>
      </trkpt>
      <trkpt lat="43.88617" lon="1.90346">
        <ele>130.051549</ele>
        <time>2026-08-29T16:39:56Z</time>
      </trkpt>
      <trkpt lat="43.88614" lon="1.90344">
        <ele>130.059398</ele>
        <time>2026-08-29T16:39:57Z</time>
      </trkpt>
      <trkpt lat="43.8861" lon="1.90344">
        <ele>130.067609</ele>
        <time>2026-08-29T16:39:58Z</time>
      </trkpt>
      <trkpt lat="43.88606" lon="1.90344">
        <ele>130.078211</ele>
        <time>2026-08-29T16:39:59Z</time>
      </trkpt>
      <trkpt lat="43.88601" lon="1.90346">
        <ele>130.088744</ele>
        <time>2026-08-29T16:40:00Z</time>
      </trkpt>
      <trkpt lat="43.88597" lon="1.90347">
        <ele>130.099277</ele>
        <time>2026-08-29T16:40:01Z</time>
      </trkpt>
      <trkpt lat="43.88593" lon="1.90348">
        <ele>130.109784</ele>
        <time>2026-08-29T16:40:02Z</time>
      </trkpt>
      <trkpt lat="43.88589" lon="1.90351">
        <ele>130.120565</ele>
        <time>2026-08-29T16:40:03Z</time>
      </trkpt>
      <trkpt lat="43.88585" lon="1.90353">
        <ele>130.131251</ele>
        <time>2026-08-29T16:40:04Z</time>
      </trkpt>
      <trkpt lat="43.88582" lon="1.90356">
        <ele>130.14023</ele>
        <time>2026-08-29T16:40:05Z</time>
      </trkpt>
      <trkpt lat="43.88578" lon="1.90358">
        <ele>130.144186</ele>
        <time>2026-08-29T16:40:06Z</time>
      </trkpt>
      <trkpt lat="43.88575" lon="1.90361">
        <ele>130.146661</ele>
        <time>2026-08-29T16:40:07Z</time>
      </trkpt>
      <trkpt lat="43.88571" lon="1.90363">
        <ele>130.149232</ele>
        <time>2026-08-29T16:40:08Z</time>
      </trkpt>
      <trkpt lat="43.88568" lon="1.90366">
        <ele>130.151773</ele>
        <time>2026-08-29T16:40:09Z</time>
      </trkpt>
      <trkpt lat="43.88565" lon="1.90368">
        <ele>130.154212</ele>
        <time>2026-08-29T16:40:10Z</time>
      </trkpt>
      <trkpt lat="43.88561" lon="1.9037">
        <ele>130.156646</ele>
        <time>2026-08-29T16:40:11Z</time>
      </trkpt>
      <trkpt lat="43.88558" lon="1.90373">
        <ele>130.158893</ele>
        <time>2026-08-29T16:40:12Z</time>
      </trkpt>
      <trkpt lat="43.88555" lon="1.90375">
        <ele>130.161169</ele>
        <time>2026-08-29T16:40:13Z</time>
      </trkpt>
      <trkpt lat="43.88552" lon="1.90376">
        <ele>130.163376</ele>
        <time>2026-08-29T16:40:14Z</time>
      </trkpt>
      <trkpt lat="43.88549" lon="1.90379">
        <ele>130.165577</ele>
        <time>2026-08-29T16:40:15Z</time>
      </trkpt>
      <trkpt lat="43.88546" lon="1.90381">
        <ele>130.167523</ele>
        <time>2026-08-29T16:40:16Z</time>
      </trkpt>
      <trkpt lat="43.88544" lon="1.90383">
        <ele>130.169339</ele>
        <time>2026-08-29T16:40:17Z</time>
      </trkpt>
      <trkpt lat="43.88542" lon="1.90384">
        <ele>130.171028</ele>
        <time>2026-08-29T16:40:18Z</time>
      </trkpt>
      <trkpt lat="43.88539" lon="1.90384">
        <ele>130.172398</ele>
        <time>2026-08-29T16:40:19Z</time>
      </trkpt>
      <trkpt lat="43.88537" lon="1.90382">
        <ele>130.173999</ele>
        <time>2026-08-29T16:40:20Z</time>
      </trkpt>
      <trkpt lat="43.88535" lon="1.90379">
        <ele>130.175809</ele>
        <time>2026-08-29T16:40:21Z</time>
      </trkpt>
      <trkpt lat="43.88533" lon="1.90376">
        <ele>130.17798</ele>
        <time>2026-08-29T16:40:22Z</time>
      </trkpt>
      <trkpt lat="43.88531" lon="1.90372">
        <ele>130.180187</ele>
        <time>2026-08-29T16:40:23Z</time>
      </trkpt>
      <trkpt lat="43.88528" lon="1.90368">
        <ele>130.182627</ele>
        <time>2026-08-29T16:40:24Z</time>
      </trkpt>
      <trkpt lat="43.88526" lon="1.90364">
        <ele>130.18517</ele>
        <time>2026-08-29T16:40:25Z</time>
      </trkpt>
      <trkpt lat="43.88524" lon="1.9036">
        <ele>130.187636</ele>
        <time>2026-08-29T16:40:26Z</time>
      </trkpt>
      <trkpt lat="43.88521" lon="1.90356">
        <ele>130.190297</ele>
        <time>2026-08-29T16:40:27Z</time>
      </trkpt>
      <trkpt lat="43.88519" lon="1.90351">
        <ele>130.192957</ele>
        <time>2026-08-29T16:40:28Z</time>
      </trkpt>
      <trkpt lat="43.88516" lon="1.90347">
        <ele>130.195576</ele>
        <time>2026-08-29T16:40:29Z</time>
      </trkpt>
      <trkpt lat="43.88513" lon="1.90342">
        <ele>130.19833</ele>
        <time>2026-08-29T16:40:30Z</time>
      </trkpt>
      <trkpt lat="43.8851" lon="1.90338">
        <ele>130.201319</ele>
        <time>2026-08-29T16:40:31Z</time>
      </trkpt>
      <trkpt lat="43.88507" lon="1.90333">
        <ele>130.204342</ele>
        <time>2026-08-29T16:40:32Z</time>
      </trkpt>
      <trkpt lat="43.88504" lon="1.90328">
        <ele>130.207461</ele>
        <time>2026-08-29T16:40:33Z</time>
      </trkpt>
      <trkpt lat="43.88501" lon="1.90323">
        <ele>130.210467</ele>
        <time>2026-08-29T16:40:34Z</time>
      </trkpt>
      <trkpt lat="43.88498" lon="1.90318">
        <ele>130.213504</ele>
        <time>2026-08-29T16:40:35Z</time>
      </trkpt>
      <trkpt lat="43.88495" lon="1.90313">
        <ele>130.216666</ele>
        <time>2026-08-29T16:40:36Z</time>
      </trkpt>
      <trkpt lat="43.88491" lon="1.90308">
        <ele>130.21988</ele>
        <time>2026-08-29T16:40:37Z</time>
      </trkpt>
      <trkpt lat="43.88488" lon="1.90303">
        <ele>130.223027</ele>
        <time>2026-08-29T16:40:38Z</time>
      </trkpt>
      <trkpt lat="43.88485" lon="1.90298">
        <ele>130.226188</ele>
        <time>2026-08-29T16:40:39Z</time>
      </trkpt>
      <trkpt lat="43.88481" lon="1.90293">
        <ele>130.229421</ele>
        <time>2026-08-29T16:40:40Z</time>
      </trkpt>
      <trkpt lat="43.88478" lon="1.90287">
        <ele>130.232689</ele>
        <time>2026-08-29T16:40:41Z</time>
      </trkpt>
      <trkpt lat="43.88475" lon="1.90282">
        <ele>130.235937</ele>
        <time>2026-08-29T16:40:42Z</time>
      </trkpt>
      <trkpt lat="43.88471" lon="1.90277">
        <ele>130.23929</ele>
        <time>2026-08-29T16:40:43Z</time>
      </trkpt>
      <trkpt lat="43.88468" lon="1.90271">
        <ele>130.242729</ele>
        <time>2026-08-29T16:40:44Z</time>
      </trkpt>
      <trkpt lat="43.88464" lon="1.90266">
        <ele>130.246067</ele>
        <time>2026-08-29T16:40:45Z</time>
      </trkpt>
      <trkpt lat="43.8846" lon="1.90261">
        <ele>130.249629</ele>
        <time>2026-08-29T16:40:46Z</time>
      </trkpt>
      <trkpt lat="43.88457" lon="1.90256">
        <ele>130.25299</ele>
        <time>2026-08-29T16:40:47Z</time>
      </trkpt>
      <trkpt lat="43.88453" lon="1.9025">
        <ele>130.256413</ele>
        <time>2026-08-29T16:40:48Z</time>
      </trkpt>
      <trkpt lat="43.8845" lon="1.90244">
        <ele>130.256809</ele>
        <time>2026-08-29T16:40:49Z</time>
      </trkpt>
      <trkpt lat="43.88447" lon="1.90239">
        <ele>130.24484</ele>
        <time>2026-08-29T16:40:50Z</time>
      </trkpt>
      <trkpt lat="43.88444" lon="1.90233">
        <ele>130.232732</ele>
        <time>2026-08-29T16:40:51Z</time>
      </trkpt>
      <trkpt lat="43.88441" lon="1.90228">
        <ele>130.220473</ele>
        <time>2026-08-29T16:40:52Z</time>
      </trkpt>
      <trkpt lat="43.88437" lon="1.90222">
        <ele>130.207057</ele>
        <time>2026-08-29T16:40:53Z</time>
      </trkpt>
      <trkpt lat="43.88434" lon="1.90216">
        <ele>130.193815</ele>
        <time>2026-08-29T16:40:54Z</time>
      </trkpt>
      <trkpt lat="43.8843" lon="1.90209">
        <ele>130.180455</ele>
        <time>2026-08-29T16:40:55Z</time>
      </trkpt>
      <trkpt lat="43.88427" lon="1.90203">
        <ele>130.167095</ele>
        <time>2026-08-29T16:40:56Z</time>
      </trkpt>
      <trkpt lat="43.88424" lon="1.90197">
        <ele>130.15372</ele>
        <time>2026-08-29T16:40:57Z</time>
      </trkpt>
      <trkpt lat="43.8842" lon="1.90191">
        <ele>130.14021</ele>
        <time>2026-08-29T16:40:58Z</time>
      </trkpt>
      <trkpt lat="43.88417" lon="1.90184">
        <ele>130.126571</ele>
        <time>2026-08-29T16:40:59Z</time>
      </trkpt>
      <trkpt lat="43.88413" lon="1.90178">
        <ele>130.113206</ele>
        <time>2026-08-29T16:41:00Z</time>
      </trkpt>
      <trkpt lat="43.8841" lon="1.90172">
        <ele>130.100402</ele>
        <time>2026-08-29T16:41:01Z</time>
      </trkpt>
      <trkpt lat="43.88407" lon="1.90166">
        <ele>130.087288</ele>
        <time>2026-08-29T16:41:02Z</time>
      </trkpt>
      <trkpt lat="43.88405" lon="1.90159">
        <ele>130.074866</ele>
        <time>2026-08-29T16:41:03Z</time>
      </trkpt>
      <trkpt lat="43.88403" lon="1.90152">
        <ele>130.061878</ele>
        <time>2026-08-29T16:41:04Z</time>
      </trkpt>
      <trkpt lat="43.884" lon="1.90146">
        <ele>130.048859</ele>
        <time>2026-08-29T16:41:05Z</time>
      </trkpt>
      <trkpt lat="43.88397" lon="1.90139">
        <ele>130.03622</ele>
        <time>2026-08-29T16:41:06Z</time>
      </trkpt>
      <trkpt lat="43.88395" lon="1.90133">
        <ele>130.023952</ele>
        <time>2026-08-29T16:41:07Z</time>
      </trkpt>
      <trkpt lat="43.88392" lon="1.90126">
        <ele>130.011231</ele>
        <time>2026-08-29T16:41:08Z</time>
      </trkpt>
      <trkpt lat="43.8839" lon="1.9012">
        <ele>129.998478</ele>
        <time>2026-08-29T16:41:09Z</time>
      </trkpt>
      <trkpt lat="43.88387" lon="1.90113">
        <ele>129.98534</ele>
        <time>2026-08-29T16:41:10Z</time>
      </trkpt>
      <trkpt lat="43.88384" lon="1.90107">
        <ele>129.971933</ele>
        <time>2026-08-29T16:41:11Z</time>
      </trkpt>
      <trkpt lat="43.88381" lon="1.901">
        <ele>129.958526</ele>
        <time>2026-08-29T16:41:12Z</time>
      </trkpt>
      <trkpt lat="43.88378" lon="1.90093">
        <ele>129.94524</ele>
        <time>2026-08-29T16:41:13Z</time>
      </trkpt>
      <trkpt lat="43.88375" lon="1.90086">
        <ele>129.931563</ele>
        <time>2026-08-29T16:41:14Z</time>
      </trkpt>
      <trkpt lat="43.88373" lon="1.9008">
        <ele>129.918425</ele>
        <time>2026-08-29T16:41:15Z</time>
      </trkpt>
      <trkpt lat="43.8837" lon="1.90073">
        <ele>129.905165</ele>
        <time>2026-08-29T16:41:16Z</time>
      </trkpt>
      <trkpt lat="43.88367" lon="1.90067">
        <ele>129.89286</ele>
        <time>2026-08-29T16:41:17Z</time>
      </trkpt>
      <trkpt lat="43.88364" lon="1.90061">
        <ele>129.88075</ele>
        <time>2026-08-29T16:41:18Z</time>
      </trkpt>
      <trkpt lat="43.88361" lon="1.90055">
        <ele>129.868643</ele>
        <time>2026-08-29T16:41:19Z</time>
      </trkpt>
      <trkpt lat="43.88358" lon="1.9005">
        <ele>129.856535</ele>
        <time>2026-08-29T16:41:20Z</time>
      </trkpt>
      <trkpt lat="43.88355" lon="1.90043">
        <ele>129.843582</ele>
        <time>2026-08-29T16:41:21Z</time>
      </trkpt>
      <trkpt lat="43.88353" lon="1.90037">
        <ele>129.831424</ele>
        <time>2026-08-29T16:41:22Z</time>
      </trkpt>
      <trkpt lat="43.8835" lon="1.90031">
        <ele>129.804349</ele>
        <time>2026-08-29T16:41:23Z</time>
      </trkpt>
      <trkpt lat="43.88347" lon="1.90025">
        <ele>129.777692</ele>
        <time>2026-08-29T16:41:24Z</time>
      </trkpt>
      <trkpt lat="43.88344" lon="1.90019">
        <ele>129.750356</ele>
        <time>2026-08-29T16:41:25Z</time>
      </trkpt>
      <trkpt lat="43.88342" lon="1.90013">
        <ele>129.72509</ele>
        <time>2026-08-29T16:41:26Z</time>
      </trkpt>
      <trkpt lat="43.88339" lon="1.90007">
        <ele>129.698148</ele>
        <time>2026-08-29T16:41:27Z</time>
      </trkpt>
      <trkpt lat="43.88336" lon="1.90001">
        <ele>129.673582</ele>
        <time>2026-08-29T16:41:28Z</time>
      </trkpt>
      <trkpt lat="43.88334" lon="1.89995">
        <ele>129.647663</ele>
        <time>2026-08-29T16:41:29Z</time>
      </trkpt>
      <trkpt lat="43.88332" lon="1.89989">
        <ele>129.621658</ele>
        <time>2026-08-29T16:41:30Z</time>
      </trkpt>
      <trkpt lat="43.88329" lon="1.89983">
        <ele>129.594001</ele>
        <time>2026-08-29T16:41:31Z</time>
      </trkpt>
      <trkpt lat="43.88326" lon="1.89976">
        <ele>129.56608</ele>
        <time>2026-08-29T16:41:32Z</time>
      </trkpt>
      <trkpt lat="43.88323" lon="1.8997">
        <ele>129.538101</ele>
        <time>2026-08-29T16:41:33Z</time>
      </trkpt>
      <trkpt lat="43.88321" lon="1.89963">
        <ele>129.510982</ele>
        <time>2026-08-29T16:41:34Z</time>
      </trkpt>
      <trkpt lat="43.88319" lon="1.89957">
        <ele>129.482354</ele>
        <time>2026-08-29T16:41:35Z</time>
      </trkpt>
      <trkpt lat="43.88316" lon="1.89951">
        <ele>129.455974</ele>
        <time>2026-08-29T16:41:36Z</time>
      </trkpt>
      <trkpt lat="43.88313" lon="1.89945">
        <ele>129.430184</ele>
        <time>2026-08-29T16:41:37Z</time>
      </trkpt>
      <trkpt lat="43.88311" lon="1.89939">
        <ele>129.404659</ele>
        <time>2026-08-29T16:41:38Z</time>
      </trkpt>
      <trkpt lat="43.88308" lon="1.89933">
        <ele>129.378869</ele>
        <time>2026-08-29T16:41:39Z</time>
      </trkpt>
      <trkpt lat="43.88305" lon="1.89927">
        <ele>129.353431</ele>
        <time>2026-08-29T16:41:40Z</time>
      </trkpt>
      <trkpt lat="43.88303" lon="1.89922">
        <ele>129.328614</ele>
        <time>2026-08-29T16:41:41Z</time>
      </trkpt>
      <trkpt lat="43.883" lon="1.89916">
        <ele>129.30474</ele>
        <time>2026-08-29T16:41:42Z</time>
      </trkpt>
      <trkpt lat="43.88299" lon="1.89911">
        <ele>129.283562</ele>
        <time>2026-08-29T16:41:43Z</time>
      </trkpt>
      <trkpt lat="43.88296" lon="1.89906">
        <ele>129.259626</ele>
        <time>2026-08-29T16:41:44Z</time>
      </trkpt>
      <trkpt lat="43.88294" lon="1.899">
        <ele>129.237216</ele>
        <time>2026-08-29T16:41:45Z</time>
      </trkpt>
      <trkpt lat="43.88293" lon="1.89894">
        <ele>129.212914</ele>
        <time>2026-08-29T16:41:46Z</time>
      </trkpt>
      <trkpt lat="43.88292" lon="1.89887">
        <ele>129.186481</ele>
        <time>2026-08-29T16:41:47Z</time>
      </trkpt>
      <trkpt lat="43.88291" lon="1.89879">
        <ele>129.157571</ele>
        <time>2026-08-29T16:41:48Z</time>
      </trkpt>
      <trkpt lat="43.88289" lon="1.89872">
        <ele>129.126284</ele>
        <time>2026-08-29T16:41:49Z</time>
      </trkpt>
      <trkpt lat="43.88285" lon="1.89865">
        <ele>129.094517</ele>
        <time>2026-08-29T16:41:50Z</time>
      </trkpt>
      <trkpt lat="43.88281" lon="1.89859">
        <ele>129.063485</ele>
        <time>2026-08-29T16:41:51Z</time>
      </trkpt>
      <trkpt lat="43.88276" lon="1.89854">
        <ele>129.033065</ele>
        <time>2026-08-29T16:41:52Z</time>
      </trkpt>
      <trkpt lat="43.88272" lon="1.89849">
        <ele>129.005589</ele>
        <time>2026-08-29T16:41:53Z</time>
      </trkpt>
      <trkpt lat="43.88269" lon="1.89843">
        <ele>128.976534</ele>
        <time>2026-08-29T16:41:54Z</time>
      </trkpt>
      <trkpt lat="43.88266" lon="1.89837">
        <ele>128.949837</ele>
        <time>2026-08-29T16:41:55Z</time>
      </trkpt>
      <trkpt lat="43.88264" lon="1.8983">
        <ele>128.922438</ele>
        <time>2026-08-29T16:41:56Z</time>
      </trkpt>
      <trkpt lat="43.88261" lon="1.89823">
        <ele>128.900307</ele>
        <time>2026-08-29T16:41:57Z</time>
      </trkpt>
      <trkpt lat="43.88259" lon="1.89816">
        <ele>128.900136</ele>
        <time>2026-08-29T16:41:58Z</time>
      </trkpt>
      <trkpt lat="43.88257" lon="1.89809">
        <ele>128.899956</ele>
        <time>2026-08-29T16:41:59Z</time>
      </trkpt>
      <trkpt lat="43.88254" lon="1.89802">
        <ele>128.899775</ele>
        <time>2026-08-29T16:42:00Z</time>
      </trkpt>
      <trkpt lat="43.88251" lon="1.89795">
        <ele>128.899588</ele>
        <time>2026-08-29T16:42:01Z</time>
      </trkpt>
      <trkpt lat="43.88248" lon="1.89787">
        <ele>128.899397</ele>
        <time>2026-08-29T16:42:02Z</time>
      </trkpt>
      <trkpt lat="43.88244" lon="1.8978">
        <ele>128.899207</ele>
        <time>2026-08-29T16:42:03Z</time>
      </trkpt>
      <trkpt lat="43.88241" lon="1.89774">
        <ele>128.89902</ele>
        <time>2026-08-29T16:42:04Z</time>
      </trkpt>
      <trkpt lat="43.88237" lon="1.89767">
        <ele>128.898835</ele>
        <time>2026-08-29T16:42:05Z</time>
      </trkpt>
      <trkpt lat="43.88234" lon="1.8976">
        <ele>128.89865</ele>
        <time>2026-08-29T16:42:06Z</time>
      </trkpt>
      <trkpt lat="43.8823" lon="1.89754">
        <ele>128.898474</ele>
        <time>2026-08-29T16:42:07Z</time>
      </trkpt>
      <trkpt lat="43.88226" lon="1.89748">
        <ele>128.898293</ele>
        <time>2026-08-29T16:42:08Z</time>
      </trkpt>
      <trkpt lat="43.88222" lon="1.89743">
        <ele>128.89812</ele>
        <time>2026-08-29T16:42:09Z</time>
      </trkpt>
      <trkpt lat="43.88219" lon="1.89737">
        <ele>128.897947</ele>
        <time>2026-08-29T16:42:10Z</time>
      </trkpt>
      <trkpt lat="43.88215" lon="1.89731">
        <ele>128.897773</ele>
        <time>2026-08-29T16:42:11Z</time>
      </trkpt>
      <trkpt lat="43.88211" lon="1.89724">
        <ele>128.897591</ele>
        <time>2026-08-29T16:42:12Z</time>
      </trkpt>
      <trkpt lat="43.88208" lon="1.89718">
        <ele>128.897412</ele>
        <time>2026-08-29T16:42:13Z</time>
      </trkpt>
      <trkpt lat="43.88204" lon="1.89711">
        <ele>128.897228</ele>
        <time>2026-08-29T16:42:14Z</time>
      </trkpt>
      <trkpt lat="43.88201" lon="1.89705">
        <ele>128.897048</ele>
        <time>2026-08-29T16:42:15Z</time>
      </trkpt>
      <trkpt lat="43.88197" lon="1.89699">
        <ele>128.896872</ele>
        <time>2026-08-29T16:42:16Z</time>
      </trkpt>
      <trkpt lat="43.88193" lon="1.89693">
        <ele>128.896699</ele>
        <time>2026-08-29T16:42:17Z</time>
      </trkpt>
      <trkpt lat="43.8819" lon="1.89688">
        <ele>128.896534</ele>
        <time>2026-08-29T16:42:18Z</time>
      </trkpt>
      <trkpt lat="43.88186" lon="1.89682">
        <ele>128.896365</ele>
        <time>2026-08-29T16:42:19Z</time>
      </trkpt>
      <trkpt lat="43.88183" lon="1.89676">
        <ele>128.896194</ele>
        <time>2026-08-29T16:42:20Z</time>
      </trkpt>
      <trkpt lat="43.88179" lon="1.8967">
        <ele>128.896023</ele>
        <time>2026-08-29T16:42:21Z</time>
      </trkpt>
      <trkpt lat="43.88176" lon="1.89664">
        <ele>128.895853</ele>
        <time>2026-08-29T16:42:22Z</time>
      </trkpt>
      <trkpt lat="43.88173" lon="1.89658">
        <ele>128.895682</ele>
        <time>2026-08-29T16:42:23Z</time>
      </trkpt>
      <trkpt lat="43.88169" lon="1.89652">
        <ele>128.895503</ele>
        <time>2026-08-29T16:42:24Z</time>
      </trkpt>
      <trkpt lat="43.88165" lon="1.89646">
        <ele>128.895328</ele>
        <time>2026-08-29T16:42:25Z</time>
      </trkpt>
      <trkpt lat="43.88162" lon="1.8964">
        <ele>128.895154</ele>
        <time>2026-08-29T16:42:26Z</time>
      </trkpt>
      <trkpt lat="43.88158" lon="1.89633">
        <ele>128.894976</ele>
        <time>2026-08-29T16:42:27Z</time>
      </trkpt>
      <trkpt lat="43.88155" lon="1.89627">
        <ele>128.894797</ele>
        <time>2026-08-29T16:42:28Z</time>
      </trkpt>
      <trkpt lat="43.88151" lon="1.89621">
        <ele>128.894283</ele>
        <time>2026-08-29T16:42:29Z</time>
      </trkpt>
      <trkpt lat="43.88148" lon="1.89615">
        <ele>128.893689</ele>
        <time>2026-08-29T16:42:30Z</time>
      </trkpt>
      <trkpt lat="43.88145" lon="1.89608">
        <ele>128.893108</ele>
        <time>2026-08-29T16:42:31Z</time>
      </trkpt>
      <trkpt lat="43.88141" lon="1.89602">
        <ele>128.89252</ele>
        <time>2026-08-29T16:42:32Z</time>
      </trkpt>
      <trkpt lat="43.88138" lon="1.89596">
        <ele>128.891951</ele>
        <time>2026-08-29T16:42:33Z</time>
      </trkpt>
      <trkpt lat="43.88135" lon="1.8959">
        <ele>128.891369</ele>
        <time>2026-08-29T16:42:34Z</time>
      </trkpt>
      <trkpt lat="43.88131" lon="1.89585">
        <ele>128.890843</ele>
        <time>2026-08-29T16:42:35Z</time>
      </trkpt>
      <trkpt lat="43.88127" lon="1.8958">
        <ele>128.890288</ele>
        <time>2026-08-29T16:42:36Z</time>
      </trkpt>
      <trkpt lat="43.88124" lon="1.89575">
        <ele>128.88975</ele>
        <time>2026-08-29T16:42:37Z</time>
      </trkpt>
      <trkpt lat="43.8812" lon="1.89569">
        <ele>128.889188</ele>
        <time>2026-08-29T16:42:38Z</time>
      </trkpt>
      <trkpt lat="43.88117" lon="1.89564">
        <ele>128.888655</ele>
        <time>2026-08-29T16:42:39Z</time>
      </trkpt>
      <trkpt lat="43.88114" lon="1.89558">
        <ele>128.888129</ele>
        <time>2026-08-29T16:42:40Z</time>
      </trkpt>
      <trkpt lat="43.88111" lon="1.89553">
        <ele>128.887584</ele>
        <time>2026-08-29T16:42:41Z</time>
      </trkpt>
      <trkpt lat="43.88108" lon="1.89547">
        <ele>128.887064</ele>
        <time>2026-08-29T16:42:42Z</time>
      </trkpt>
      <trkpt lat="43.88105" lon="1.89541">
        <ele>128.886525</ele>
        <time>2026-08-29T16:42:43Z</time>
      </trkpt>
      <trkpt lat="43.88102" lon="1.89535">
        <ele>128.885973</ele>
        <time>2026-08-29T16:42:44Z</time>
      </trkpt>
      <trkpt lat="43.88098" lon="1.8953">
        <ele>128.88541</ele>
        <time>2026-08-29T16:42:45Z</time>
      </trkpt>
      <trkpt lat="43.88095" lon="1.89524">
        <ele>128.88484</ele>
        <time>2026-08-29T16:42:46Z</time>
      </trkpt>
      <trkpt lat="43.88091" lon="1.89517">
        <ele>128.884228</ele>
        <time>2026-08-29T16:42:47Z</time>
      </trkpt>
      <trkpt lat="43.88088" lon="1.89511">
        <ele>128.883652</ele>
        <time>2026-08-29T16:42:48Z</time>
      </trkpt>
      <trkpt lat="43.88085" lon="1.89505">
        <ele>128.883071</ele>
        <time>2026-08-29T16:42:49Z</time>
      </trkpt>
      <trkpt lat="43.88082" lon="1.89499">
        <ele>128.882502</ele>
        <time>2026-08-29T16:42:50Z</time>
      </trkpt>
      <trkpt lat="43.88078" lon="1.89492">
        <ele>128.881914</ele>
        <time>2026-08-29T16:42:51Z</time>
      </trkpt>
      <trkpt lat="43.88075" lon="1.89486">
        <ele>128.881327</ele>
        <time>2026-08-29T16:42:52Z</time>
      </trkpt>
      <trkpt lat="43.88072" lon="1.8948">
        <ele>128.880758</ele>
        <time>2026-08-29T16:42:53Z</time>
      </trkpt>
      <trkpt lat="43.88069" lon="1.89473">
        <ele>128.880176</ele>
        <time>2026-08-29T16:42:54Z</time>
      </trkpt>
      <trkpt lat="43.88066" lon="1.89467">
        <ele>128.879626</ele>
        <time>2026-08-29T16:42:55Z</time>
      </trkpt>
      <trkpt lat="43.88063" lon="1.89461">
        <ele>128.879049</ele>
        <time>2026-08-29T16:42:56Z</time>
      </trkpt>
      <trkpt lat="43.88061" lon="1.89455">
        <ele>128.878539</ele>
        <time>2026-08-29T16:42:57Z</time>
      </trkpt>
      <trkpt lat="43.88059" lon="1.89449">
        <ele>128.878033</ele>
        <time>2026-08-29T16:42:58Z</time>
      </trkpt>
      <trkpt lat="43.88056" lon="1.89443">
        <ele>128.877503</ele>
        <time>2026-08-29T16:42:59Z</time>
      </trkpt>
      <trkpt lat="43.88054" lon="1.89436">
        <ele>128.876975</ele>
        <time>2026-08-29T16:43:00Z</time>
      </trkpt>
      <trkpt lat="43.88052" lon="1.8943">
        <ele>128.876449</ele>
        <time>2026-08-29T16:43:01Z</time>
      </trkpt>
      <trkpt lat="43.88049" lon="1.89424">
        <ele>128.874099</ele>
        <time>2026-08-29T16:43:02Z</time>
      </trkpt>
      <trkpt lat="43.88047" lon="1.89417">
        <ele>128.84783</ele>
        <time>2026-08-29T16:43:03Z</time>
      </trkpt>
      <trkpt lat="43.88044" lon="1.8941">
        <ele>128.821169</ele>
        <time>2026-08-29T16:43:04Z</time>
      </trkpt>
      <trkpt lat="43.88042" lon="1.89403">
        <ele>128.794098</ele>
        <time>2026-08-29T16:43:05Z</time>
      </trkpt>
      <trkpt lat="43.88039" lon="1.89396">
        <ele>128.768565</ele>
        <time>2026-08-29T16:43:06Z</time>
      </trkpt>
      <trkpt lat="43.88037" lon="1.89389">
        <ele>128.743439</ele>
        <time>2026-08-29T16:43:07Z</time>
      </trkpt>
      <trkpt lat="43.88035" lon="1.89383">
        <ele>128.718211</ele>
        <time>2026-08-29T16:43:08Z</time>
      </trkpt>
      <trkpt lat="43.88032" lon="1.89376">
        <ele>128.693069</ele>
        <time>2026-08-29T16:43:09Z</time>
      </trkpt>
      <trkpt lat="43.8803" lon="1.8937">
        <ele>128.669178</ele>
        <time>2026-08-29T16:43:10Z</time>
      </trkpt>
      <trkpt lat="43.88028" lon="1.89364">
        <ele>128.645491</ele>
        <time>2026-08-29T16:43:11Z</time>
      </trkpt>
      <trkpt lat="43.88026" lon="1.89357">
        <ele>128.62139</ele>
        <time>2026-08-29T16:43:12Z</time>
      </trkpt>
      <trkpt lat="43.88023" lon="1.89351">
        <ele>128.59677</ele>
        <time>2026-08-29T16:43:13Z</time>
      </trkpt>
      <trkpt lat="43.88021" lon="1.89345">
        <ele>128.572823</ele>
        <time>2026-08-29T16:43:14Z</time>
      </trkpt>
      <trkpt lat="43.88018" lon="1.89339">
        <ele>128.549223</ele>
        <time>2026-08-29T16:43:15Z</time>
      </trkpt>
      <trkpt lat="43.88016" lon="1.89333">
        <ele>128.525038</ele>
        <time>2026-08-29T16:43:16Z</time>
      </trkpt>
      <trkpt lat="43.88013" lon="1.89327">
        <ele>128.502065</ele>
        <time>2026-08-29T16:43:17Z</time>
      </trkpt>
      <trkpt lat="43.88011" lon="1.89321">
        <ele>128.478048</ele>
        <time>2026-08-29T16:43:18Z</time>
      </trkpt>
      <trkpt lat="43.88009" lon="1.89314">
        <ele>128.453505</ele>
        <time>2026-08-29T16:43:19Z</time>
      </trkpt>
      <trkpt lat="43.88006" lon="1.89308">
        <ele>128.429488</ele>
        <time>2026-08-29T16:43:20Z</time>
      </trkpt>
      <trkpt lat="43.88004" lon="1.89302">
        <ele>128.40529</ele>
        <time>2026-08-29T16:43:21Z</time>
      </trkpt>
      <trkpt lat="43.88002" lon="1.89295">
        <ele>128.380669</ele>
        <time>2026-08-29T16:43:22Z</time>
      </trkpt>
      <trkpt lat="43.87999" lon="1.89289">
        <ele>128.355736</ele>
        <time>2026-08-29T16:43:23Z</time>
      </trkpt>
      <trkpt lat="43.87997" lon="1.89282">
        <ele>128.332048</ele>
        <time>2026-08-29T16:43:24Z</time>
      </trkpt>
      <trkpt lat="43.87995" lon="1.89276">
        <ele>128.306611</ele>
        <time>2026-08-29T16:43:25Z</time>
      </trkpt>
      <trkpt lat="43.87993" lon="1.89269">
        <ele>128.280864</ele>
        <time>2026-08-29T16:43:26Z</time>
      </trkpt>
      <trkpt lat="43.8799" lon="1.89262">
        <ele>128.255941</ele>
        <time>2026-08-29T16:43:27Z</time>
      </trkpt>
      <trkpt lat="43.87988" lon="1.89256">
        <ele>128.231125</ele>
        <time>2026-08-29T16:43:28Z</time>
      </trkpt>
      <trkpt lat="43.87986" lon="1.89249">
        <ele>128.205897</ele>
        <time>2026-08-29T16:43:29Z</time>
      </trkpt>
      <trkpt lat="43.87983" lon="1.89243">
        <ele>128.18015</ele>
        <time>2026-08-29T16:43:30Z</time>
      </trkpt>
      <trkpt lat="43.87981" lon="1.89236">
        <ele>128.155529</ele>
        <time>2026-08-29T16:43:31Z</time>
      </trkpt>
      <trkpt lat="43.87979" lon="1.8923">
        <ele>128.131331</ele>
        <time>2026-08-29T16:43:32Z</time>
      </trkpt>
      <trkpt lat="43.87976" lon="1.89224">
        <ele>128.10844</ele>
        <time>2026-08-29T16:43:33Z</time>
      </trkpt>
      <trkpt lat="43.87974" lon="1.89218">
        <ele>128.085549</ele>
        <time>2026-08-29T16:43:34Z</time>
      </trkpt>
      <trkpt lat="43.87972" lon="1.89212">
        <ele>128.061752</ele>
        <time>2026-08-29T16:43:35Z</time>
      </trkpt>
      <trkpt lat="43.87969" lon="1.89205">
        <ele>128.037651</ele>
        <time>2026-08-29T16:43:36Z</time>
      </trkpt>
      <trkpt lat="43.87967" lon="1.89199">
        <ele>128.003154</ele>
        <time>2026-08-29T16:43:37Z</time>
      </trkpt>
      <trkpt lat="43.87964" lon="1.89193">
        <ele>127.952993</ele>
        <time>2026-08-29T16:43:38Z</time>
      </trkpt>
      <trkpt lat="43.87962" lon="1.89187">
        <ele>127.904414</ele>
        <time>2026-08-29T16:43:39Z</time>
      </trkpt>
      <trkpt lat="43.8796" lon="1.89182">
        <ele>127.859922</ele>
        <time>2026-08-29T16:43:40Z</time>
      </trkpt>
      <trkpt lat="43.87958" lon="1.89176">
        <ele>127.812805</ele>
        <time>2026-08-29T16:43:41Z</time>
      </trkpt>
      <trkpt lat="43.87956" lon="1.8917">
        <ele>127.766198</ele>
        <time>2026-08-29T16:43:42Z</time>
      </trkpt>
      <trkpt lat="43.87954" lon="1.89164">
        <ele>127.721522</ele>
        <time>2026-08-29T16:43:43Z</time>
      </trkpt>
      <trkpt lat="43.87952" lon="1.89159">
        <ele>127.674826</ele>
        <time>2026-08-29T16:43:44Z</time>
      </trkpt>
      <trkpt lat="43.8795" lon="1.89153">
        <ele>127.63079</ele>
        <time>2026-08-29T16:43:45Z</time>
      </trkpt>
      <trkpt lat="43.87948" lon="1.89147">
        <ele>127.582841</ele>
        <time>2026-08-29T16:43:46Z</time>
      </trkpt>
      <trkpt lat="43.87946" lon="1.89141">
        <ele>127.5373</ele>
        <time>2026-08-29T16:43:47Z</time>
      </trkpt>
      <trkpt lat="43.87945" lon="1.89136">
        <ele>127.495588</ele>
        <time>2026-08-29T16:43:48Z</time>
      </trkpt>
      <trkpt lat="43.87945" lon="1.89131">
        <ele>127.464706</ele>
        <time>2026-08-29T16:43:49Z</time>
      </trkpt>
      <trkpt lat="43.87946" lon="1.89128">
        <ele>127.439363</ele>
        <time>2026-08-29T16:43:50Z</time>
      </trkpt>
      <trkpt lat="43.87947" lon="1.89125">
        <ele>127.417166</ele>
        <time>2026-08-29T16:43:51Z</time>
      </trkpt>
      <trkpt lat="43.87947" lon="1.89121">
        <ele>127.38993</ele>
        <time>2026-08-29T16:43:52Z</time>
      </trkpt>
      <trkpt lat="43.87947" lon="1.89118">
        <ele>127.36177</ele>
        <time>2026-08-29T16:43:53Z</time>
      </trkpt>
      <trkpt lat="43.87945" lon="1.89114">
        <ele>127.330672</ele>
        <time>2026-08-29T16:43:54Z</time>
      </trkpt>
      <trkpt lat="43.87942" lon="1.89112">
        <ele>127.296327</ele>
        <time>2026-08-29T16:43:55Z</time>
      </trkpt>
      <trkpt lat="43.87938" lon="1.89109">
        <ele>127.254308</ele>
        <time>2026-08-29T16:43:56Z</time>
      </trkpt>
      <trkpt lat="43.87934" lon="1.89107">
        <ele>127.213801</ele>
        <time>2026-08-29T16:43:57Z</time>
      </trkpt>
      <trkpt lat="43.8793" lon="1.89105">
        <ele>127.172092</ele>
        <time>2026-08-29T16:43:58Z</time>
      </trkpt>
      <trkpt lat="43.87927" lon="1.89102">
        <ele>127.129751</ele>
        <time>2026-08-29T16:43:59Z</time>
      </trkpt>
      <trkpt lat="43.87922" lon="1.89099">
        <ele>127.083514</ele>
        <time>2026-08-29T16:44:00Z</time>
      </trkpt>
      <trkpt lat="43.87918" lon="1.89097">
        <ele>127.038806</ele>
        <time>2026-08-29T16:44:01Z</time>
      </trkpt>
      <trkpt lat="43.87914" lon="1.89094">
        <ele>126.993195</ele>
        <time>2026-08-29T16:44:02Z</time>
      </trkpt>
      <trkpt lat="43.8791" lon="1.89091">
        <ele>126.948435</ele>
        <time>2026-08-29T16:44:03Z</time>
      </trkpt>
      <trkpt lat="43.87906" lon="1.89088">
        <ele>126.903131</ele>
        <time>2026-08-29T16:44:04Z</time>
      </trkpt>
      <trkpt lat="43.87902" lon="1.89085">
        <ele>126.856978</ele>
        <time>2026-08-29T16:44:05Z</time>
      </trkpt>
      <trkpt lat="43.87898" lon="1.89082">
        <ele>126.811883</ele>
        <time>2026-08-29T16:44:06Z</time>
      </trkpt>
      <trkpt lat="43.87894" lon="1.89078">
        <ele>126.76536</ele>
        <time>2026-08-29T16:44:07Z</time>
      </trkpt>
      <trkpt lat="43.8789" lon="1.89075">
        <ele>126.715211</ele>
        <time>2026-08-29T16:44:08Z</time>
      </trkpt>
      <trkpt lat="43.87885" lon="1.89072">
        <ele>126.662923</ele>
        <time>2026-08-29T16:44:09Z</time>
      </trkpt>
      <trkpt lat="43.8788" lon="1.89069">
        <ele>126.610712</ele>
        <time>2026-08-29T16:44:10Z</time>
      </trkpt>
      <trkpt lat="43.87875" lon="1.89067">
        <ele>126.560894</ele>
        <time>2026-08-29T16:44:11Z</time>
      </trkpt>
      <trkpt lat="43.87871" lon="1.89063">
        <ele>126.509283</ele>
        <time>2026-08-29T16:44:12Z</time>
      </trkpt>
      <trkpt lat="43.87866" lon="1.8906">
        <ele>126.457042</ele>
        <time>2026-08-29T16:44:13Z</time>
      </trkpt>
      <trkpt lat="43.87861" lon="1.89057">
        <ele>126.405402</ele>
        <time>2026-08-29T16:44:14Z</time>
      </trkpt>
      <trkpt lat="43.87856" lon="1.89054">
        <ele>126.353191</ele>
        <time>2026-08-29T16:44:15Z</time>
      </trkpt>
      <trkpt lat="43.87851" lon="1.89051">
        <ele>126.300377</ele>
        <time>2026-08-29T16:44:16Z</time>
      </trkpt>
      <trkpt lat="43.87847" lon="1.89048">
        <ele>126.246968</ele>
        <time>2026-08-29T16:44:17Z</time>
      </trkpt>
      <trkpt lat="43.87842" lon="1.89045">
        <ele>126.225341</ele>
        <time>2026-08-29T16:44:18Z</time>
      </trkpt>
      <trkpt lat="43.87837" lon="1.89042">
        <ele>126.207193</ele>
        <time>2026-08-29T16:44:19Z</time>
      </trkpt>
      <trkpt lat="43.87831" lon="1.8904">
        <ele>126.189134</ele>
        <time>2026-08-29T16:44:20Z</time>
      </trkpt>
      <trkpt lat="43.87826" lon="1.89037">
        <ele>126.171075</ele>
        <time>2026-08-29T16:44:21Z</time>
      </trkpt>
      <trkpt lat="43.87821" lon="1.89034">
        <ele>126.153016</ele>
        <time>2026-08-29T16:44:22Z</time>
      </trkpt>
      <trkpt lat="43.87816" lon="1.89032">
        <ele>126.134972</ele>
        <time>2026-08-29T16:44:23Z</time>
      </trkpt>
      <trkpt lat="43.87811" lon="1.8903">
        <ele>126.116824</ele>
        <time>2026-08-29T16:44:24Z</time>
      </trkpt>
      <trkpt lat="43.87805" lon="1.89028">
        <ele>126.098859</ele>
        <time>2026-08-29T16:44:25Z</time>
      </trkpt>
      <trkpt lat="43.878" lon="1.89026">
        <ele>126.081049</ele>
        <time>2026-08-29T16:44:26Z</time>
      </trkpt>
      <trkpt lat="43.87795" lon="1.89025">
        <ele>126.062679</ele>
        <time>2026-08-29T16:44:27Z</time>
      </trkpt>
      <trkpt lat="43.87789" lon="1.89024">
        <ele>126.043405</ele>
        <time>2026-08-29T16:44:28Z</time>
      </trkpt>
      <trkpt lat="43.87783" lon="1.89023">
        <ele>126.024815</ele>
        <time>2026-08-29T16:44:29Z</time>
      </trkpt>
      <trkpt lat="43.87778" lon="1.89022">
        <ele>126.006445</ele>
        <time>2026-08-29T16:44:30Z</time>
      </trkpt>
      <trkpt lat="43.87772" lon="1.8902">
        <ele>125.988439</ele>
        <time>2026-08-29T16:44:31Z</time>
      </trkpt>
      <trkpt lat="43.87767" lon="1.8902">
        <ele>125.970254</ele>
        <time>2026-08-29T16:44:32Z</time>
      </trkpt>
      <trkpt lat="43.87761" lon="1.89019">
        <ele>125.952106</ele>
        <time>2026-08-29T16:44:33Z</time>
      </trkpt>
      <trkpt lat="43.87756" lon="1.89019">
        <ele>125.93363</ele>
        <time>2026-08-29T16:44:34Z</time>
      </trkpt>
      <trkpt lat="43.8775" lon="1.89018">
        <ele>125.915117</ele>
        <time>2026-08-29T16:44:35Z</time>
      </trkpt>
      <trkpt lat="43.87745" lon="1.89018">
        <ele>125.896654</ele>
        <time>2026-08-29T16:44:36Z</time>
      </trkpt>
      <trkpt lat="43.87739" lon="1.89017">
        <ele>125.878192</ele>
        <time>2026-08-29T16:44:37Z</time>
      </trkpt>
      <trkpt lat="43.87733" lon="1.89017">
        <ele>125.860069</ele>
        <time>2026-08-29T16:44:38Z</time>
      </trkpt>
      <trkpt lat="43.87728" lon="1.89016">
        <ele>125.841607</ele>
        <time>2026-08-29T16:44:39Z</time>
      </trkpt>
      <trkpt lat="43.87722" lon="1.89016">
        <ele>125.823473</ele>
        <time>2026-08-29T16:44:40Z</time>
      </trkpt>
      <trkpt lat="43.87717" lon="1.89016">
        <ele>125.805339</ele>
        <time>2026-08-29T16:44:41Z</time>
      </trkpt>
      <trkpt lat="43.87711" lon="1.89015">
        <ele>125.786887</ele>
        <time>2026-08-29T16:44:42Z</time>
      </trkpt>
      <trkpt lat="43.87706" lon="1.89015">
        <ele>125.768772</ele>
        <time>2026-08-29T16:44:43Z</time>
      </trkpt>
      <trkpt lat="43.877" lon="1.89015">
        <ele>125.750639</ele>
        <time>2026-08-29T16:44:44Z</time>
      </trkpt>
      <trkpt lat="43.87695" lon="1.89014">
        <ele>125.732454</ele>
        <time>2026-08-29T16:44:45Z</time>
      </trkpt>
      <trkpt lat="43.87689" lon="1.89013">
        <ele>125.713941</ele>
        <time>2026-08-29T16:44:46Z</time>
      </trkpt>
      <trkpt lat="43.87683" lon="1.89013">
        <ele>125.69475</ele>
        <time>2026-08-29T16:44:47Z</time>
      </trkpt>
      <trkpt lat="43.87678" lon="1.89012">
        <ele>125.676542</ele>
        <time>2026-08-29T16:44:48Z</time>
      </trkpt>
      <trkpt lat="43.87672" lon="1.89011">
        <ele>125.658572</ele>
        <time>2026-08-29T16:44:49Z</time>
      </trkpt>
      <trkpt lat="43.87667" lon="1.8901">
        <ele>125.63471</ele>
        <time>2026-08-29T16:44:50Z</time>
      </trkpt>
      <trkpt lat="43.87662" lon="1.89009">
        <ele>125.600811</ele>
        <time>2026-08-29T16:44:51Z</time>
      </trkpt>
      <trkpt lat="43.87657" lon="1.89008">
        <ele>125.566853</ele>
        <time>2026-08-29T16:44:52Z</time>
      </trkpt>
      <trkpt lat="43.87651" lon="1.89006">
        <ele>125.531176</ele>
        <time>2026-08-29T16:44:53Z</time>
      </trkpt>
      <trkpt lat="43.87646" lon="1.89005">
        <ele>125.495498</ele>
        <time>2026-08-29T16:44:54Z</time>
      </trkpt>
      <trkpt lat="43.8764" lon="1.89003">
        <ele>125.460962</ele>
        <time>2026-08-29T16:44:55Z</time>
      </trkpt>
      <trkpt lat="43.87635" lon="1.89001">
        <ele>125.425479</ele>
        <time>2026-08-29T16:44:56Z</time>
      </trkpt>
      <trkpt lat="43.8763" lon="1.88999">
        <ele>125.39122</ele>
        <time>2026-08-29T16:44:57Z</time>
      </trkpt>
      <trkpt lat="43.87624" lon="1.88997">
        <ele>125.356578</ele>
        <time>2026-08-29T16:44:58Z</time>
      </trkpt>
      <trkpt lat="43.87619" lon="1.88995">
        <ele>125.321707</ele>
        <time>2026-08-29T16:44:59Z</time>
      </trkpt>
      <trkpt lat="43.87614" lon="1.88993">
        <ele>125.286585</ele>
        <time>2026-08-29T16:45:00Z</time>
      </trkpt>
      <trkpt lat="43.87608" lon="1.88991">
        <ele>125.250981</ele>
        <time>2026-08-29T16:45:01Z</time>
      </trkpt>
      <trkpt lat="43.87603" lon="1.88989">
        <ele>125.21611</ele>
        <time>2026-08-29T16:45:02Z</time>
      </trkpt>
      <trkpt lat="43.87598" lon="1.88987">
        <ele>125.181468</ele>
        <time>2026-08-29T16:45:03Z</time>
      </trkpt>
      <trkpt lat="43.87592" lon="1.88985">
        <ele>125.145469</ele>
        <time>2026-08-29T16:45:04Z</time>
      </trkpt>
      <trkpt lat="43.87587" lon="1.88982">
        <ele>125.109779</ele>
        <time>2026-08-29T16:45:05Z</time>
      </trkpt>
      <trkpt lat="43.87582" lon="1.8898">
        <ele>125.074048</ele>
        <time>2026-08-29T16:45:06Z</time>
      </trkpt>
      <trkpt lat="43.87576" lon="1.88977">
        <ele>125.037443</ele>
        <time>2026-08-29T16:45:07Z</time>
      </trkpt>
      <trkpt lat="43.87571" lon="1.88975">
        <ele>125.000404</ele>
        <time>2026-08-29T16:45:08Z</time>
      </trkpt>
      <trkpt lat="43.87565" lon="1.88972">
        <ele>124.963364</ele>
        <time>2026-08-29T16:45:09Z</time>
      </trkpt>
      <trkpt lat="43.8756" lon="1.88969">
        <ele>124.926016</ele>
        <time>2026-08-29T16:45:10Z</time>
      </trkpt>
      <trkpt lat="43.87554" lon="1.88967">
        <ele>124.890016</ele>
        <time>2026-08-29T16:45:11Z</time>
      </trkpt>
      <trkpt lat="43.87549" lon="1.88965">
        <ele>124.854476</ele>
        <time>2026-08-29T16:45:12Z</time>
      </trkpt>
      <trkpt lat="43.87544" lon="1.88962">
        <ele>124.818786</ele>
        <time>2026-08-29T16:45:13Z</time>
      </trkpt>
      <trkpt lat="43.87538" lon="1.88959">
        <ele>124.782615</ele>
        <time>2026-08-29T16:45:14Z</time>
      </trkpt>
      <trkpt lat="43.87533" lon="1.88956">
        <ele>124.747523</ele>
        <time>2026-08-29T16:45:15Z</time>
      </trkpt>
      <trkpt lat="43.87528" lon="1.88954">
        <ele>124.713615</ele>
        <time>2026-08-29T16:45:16Z</time>
      </trkpt>
      <trkpt lat="43.87523" lon="1.88952">
        <ele>124.681223</ele>
        <time>2026-08-29T16:45:17Z</time>
      </trkpt>
      <trkpt lat="43.87519" lon="1.8895">
        <ele>124.649581</ele>
        <time>2026-08-29T16:45:18Z</time>
      </trkpt>
      <trkpt lat="43.87514" lon="1.88948">
        <ele>124.618501</ele>
        <time>2026-08-29T16:45:19Z</time>
      </trkpt>
      <trkpt lat="43.87509" lon="1.88946">
        <ele>124.587897</ele>
        <time>2026-08-29T16:45:20Z</time>
      </trkpt>
      <trkpt lat="43.87505" lon="1.88943">
        <ele>124.556186</ele>
        <time>2026-08-29T16:45:21Z</time>
      </trkpt>
      <trkpt lat="43.875" lon="1.8894">
        <ele>124.524821</ele>
        <time>2026-08-29T16:45:22Z</time>
      </trkpt>
      <trkpt lat="43.87495" lon="1.88938">
        <ele>124.451742</ele>
        <time>2026-08-29T16:45:23Z</time>
      </trkpt>
      <trkpt lat="43.87491" lon="1.88936">
        <ele>124.321553</ele>
        <time>2026-08-29T16:45:24Z</time>
      </trkpt>
      <trkpt lat="43.87487" lon="1.88933">
        <ele>124.18808</ele>
        <time>2026-08-29T16:45:25Z</time>
      </trkpt>
      <trkpt lat="43.87482" lon="1.8893">
        <ele>124.05304</ele>
        <time>2026-08-29T16:45:26Z</time>
      </trkpt>
      <trkpt lat="43.87477" lon="1.88928">
        <ele>123.916278</ele>
        <time>2026-08-29T16:45:27Z</time>
      </trkpt>
      <trkpt lat="43.87473" lon="1.88925">
        <ele>123.777733</ele>
        <time>2026-08-29T16:45:28Z</time>
      </trkpt>
      <trkpt lat="43.87468" lon="1.88922">
        <ele>123.637347</ele>
        <time>2026-08-29T16:45:29Z</time>
      </trkpt>
      <trkpt lat="43.87463" lon="1.8892">
        <ele>123.493702</ele>
        <time>2026-08-29T16:45:30Z</time>
      </trkpt>
      <trkpt lat="43.87458" lon="1.88917">
        <ele>123.35261</ele>
        <time>2026-08-29T16:45:31Z</time>
      </trkpt>
      <trkpt lat="43.87453" lon="1.88915">
        <ele>123.205774</ele>
        <time>2026-08-29T16:45:32Z</time>
      </trkpt>
      <trkpt lat="43.87448" lon="1.88912">
        <ele>123.054856</ele>
        <time>2026-08-29T16:45:33Z</time>
      </trkpt>
      <trkpt lat="43.87443" lon="1.88909">
        <ele>122.900653</ele>
        <time>2026-08-29T16:45:34Z</time>
      </trkpt>
      <trkpt lat="43.87437" lon="1.88906">
        <ele>122.742104</ele>
        <time>2026-08-29T16:45:35Z</time>
      </trkpt>
      <trkpt lat="43.87432" lon="1.88903">
        <ele>122.576537</ele>
        <time>2026-08-29T16:45:36Z</time>
      </trkpt>
      <trkpt lat="43.87426" lon="1.889">
        <ele>122.402566</ele>
        <time>2026-08-29T16:45:37Z</time>
      </trkpt>
      <trkpt lat="43.87419" lon="1.88898">
        <ele>122.218821</ele>
        <time>2026-08-29T16:45:38Z</time>
      </trkpt>
      <trkpt lat="43.87413" lon="1.88895">
        <ele>122.027225</ele>
        <time>2026-08-29T16:45:39Z</time>
      </trkpt>
      <trkpt lat="43.87406" lon="1.88892">
        <ele>121.831239</ele>
        <time>2026-08-29T16:45:40Z</time>
      </trkpt>
      <trkpt lat="43.87399" lon="1.88888">
        <ele>121.627504</ele>
        <time>2026-08-29T16:45:41Z</time>
      </trkpt>
      <trkpt lat="43.87391" lon="1.88885">
        <ele>121.412787</ele>
        <time>2026-08-29T16:45:42Z</time>
      </trkpt>
      <trkpt lat="43.87384" lon="1.88881">
        <ele>121.195485</ele>
        <time>2026-08-29T16:45:43Z</time>
      </trkpt>
      <trkpt lat="43.87376" lon="1.88877">
        <ele>120.967805</ele>
        <time>2026-08-29T16:45:44Z</time>
      </trkpt>
      <trkpt lat="43.87368" lon="1.88874">
        <ele>120.741325</ele>
        <time>2026-08-29T16:45:45Z</time>
      </trkpt>
      <trkpt lat="43.8736" lon="1.8887">
        <ele>120.50569</ele>
        <time>2026-08-29T16:45:46Z</time>
      </trkpt>
      <trkpt lat="43.87353" lon="1.88865">
        <ele>120.277854</ele>
        <time>2026-08-29T16:45:47Z</time>
      </trkpt>
      <trkpt lat="43.87345" lon="1.8886">
        <ele>120.048302</ele>
        <time>2026-08-29T16:45:48Z</time>
      </trkpt>
      <trkpt lat="43.87337" lon="1.88856">
        <ele>119.814468</ele>
        <time>2026-08-29T16:45:49Z</time>
      </trkpt>
      <trkpt lat="43.87328" lon="1.88852">
        <ele>119.584709</ele>
        <time>2026-08-29T16:45:50Z</time>
      </trkpt>
      <trkpt lat="43.8732" lon="1.88848">
        <ele>119.643275</ele>
        <time>2026-08-29T16:45:51Z</time>
      </trkpt>
      <trkpt lat="43.87313" lon="1.88843">
        <ele>119.701379</ele>
        <time>2026-08-29T16:45:52Z</time>
      </trkpt>
      <trkpt lat="43.87304" lon="1.88839">
        <ele>119.761058</ele>
        <time>2026-08-29T16:45:53Z</time>
      </trkpt>
      <trkpt lat="43.87296" lon="1.88835">
        <ele>119.819624</ele>
        <time>2026-08-29T16:45:54Z</time>
      </trkpt>
      <trkpt lat="43.87288" lon="1.88831">
        <ele>119.879005</ele>
        <time>2026-08-29T16:45:55Z</time>
      </trkpt>
      <trkpt lat="43.87281" lon="1.88827">
        <ele>119.935836</ele>
        <time>2026-08-29T16:45:56Z</time>
      </trkpt>
      <trkpt lat="43.87273" lon="1.88823">
        <ele>119.992604</ele>
        <time>2026-08-29T16:45:57Z</time>
      </trkpt>
      <trkpt lat="43.87266" lon="1.88819">
        <ele>120.044709</ele>
        <time>2026-08-29T16:45:58Z</time>
      </trkpt>
      <trkpt lat="43.87259" lon="1.88815">
        <ele>120.094268</ele>
        <time>2026-08-29T16:45:59Z</time>
      </trkpt>
      <trkpt lat="43.87252" lon="1.88812">
        <ele>120.142473</ele>
        <time>2026-08-29T16:46:00Z</time>
      </trkpt>
      <trkpt lat="43.87246" lon="1.88809">
        <ele>120.188886</ele>
        <time>2026-08-29T16:46:01Z</time>
      </trkpt>
      <trkpt lat="43.8724" lon="1.88805">
        <ele>120.234179</ele>
        <time>2026-08-29T16:46:02Z</time>
      </trkpt>
      <trkpt lat="43.87234" lon="1.88802">
        <ele>120.277376</ele>
        <time>2026-08-29T16:46:03Z</time>
      </trkpt>
      <trkpt lat="43.87228" lon="1.88799">
        <ele>120.317389</ele>
        <time>2026-08-29T16:46:04Z</time>
      </trkpt>
      <trkpt lat="43.87223" lon="1.88796">
        <ele>120.35686</ele>
        <time>2026-08-29T16:46:05Z</time>
      </trkpt>
      <trkpt lat="43.87218" lon="1.88794">
        <ele>120.390379</ele>
        <time>2026-08-29T16:46:06Z</time>
      </trkpt>
      <trkpt lat="43.87214" lon="1.88793">
        <ele>120.421131</ele>
        <time>2026-08-29T16:46:07Z</time>
      </trkpt>
      <trkpt lat="43.8721" lon="1.88791">
        <ele>120.45203</ele>
        <time>2026-08-29T16:46:08Z</time>
      </trkpt>
      <trkpt lat="43.87206" lon="1.88789">
        <ele>120.480673</ele>
        <time>2026-08-29T16:46:09Z</time>
      </trkpt>
      <trkpt lat="43.87202" lon="1.88787">
        <ele>120.50833</ele>
        <time>2026-08-29T16:46:10Z</time>
      </trkpt>
      <trkpt lat="43.87199" lon="1.88785">
        <ele>120.529885</ele>
        <time>2026-08-29T16:46:11Z</time>
      </trkpt>
      <trkpt lat="43.87196" lon="1.88784">
        <ele>120.549152</ele>
        <time>2026-08-29T16:46:12Z</time>
      </trkpt>
      <trkpt lat="43.87194" lon="1.88783">
        <ele>120.567265</ele>
        <time>2026-08-29T16:46:13Z</time>
      </trkpt>
      <trkpt lat="43.87191" lon="1.88782">
        <ele>120.585091</ele>
        <time>2026-08-29T16:46:14Z</time>
      </trkpt>
      <trkpt lat="43.87189" lon="1.88781">
        <ele>120.603204</ele>
        <time>2026-08-29T16:46:15Z</time>
      </trkpt>
      <trkpt lat="43.87186" lon="1.88779">
        <ele>120.622939</ele>
        <time>2026-08-29T16:46:16Z</time>
      </trkpt>
      <trkpt lat="43.87183" lon="1.88778">
        <ele>120.643806</ele>
        <time>2026-08-29T16:46:17Z</time>
      </trkpt>
      <trkpt lat="43.87181" lon="1.88777">
        <ele>120.663731</ele>
        <time>2026-08-29T16:46:18Z</time>
      </trkpt>
      <trkpt lat="43.87178" lon="1.88776">
        <ele>120.682492</ele>
        <time>2026-08-29T16:46:19Z</time>
      </trkpt>
      <trkpt lat="43.87176" lon="1.88775">
        <ele>120.699514</ele>
        <time>2026-08-29T16:46:20Z</time>
      </trkpt>
      <trkpt lat="43.87173" lon="1.88774">
        <ele>120.715454</ele>
        <time>2026-08-29T16:46:21Z</time>
      </trkpt>
      <trkpt lat="43.87171" lon="1.88773">
        <ele>120.728554</ele>
        <time>2026-08-29T16:46:22Z</time>
      </trkpt>
      <trkpt lat="43.87169" lon="1.88773">
        <ele>120.743342</ele>
        <time>2026-08-29T16:46:23Z</time>
      </trkpt>
      <trkpt lat="43.87167" lon="1.88772">
        <ele>120.757464</ele>
        <time>2026-08-29T16:46:24Z</time>
      </trkpt>
      <trkpt lat="43.87165" lon="1.88771">
        <ele>120.772053</ele>
        <time>2026-08-29T16:46:25Z</time>
      </trkpt>
      <trkpt lat="43.87163" lon="1.88771">
        <ele>120.788953</ele>
        <time>2026-08-29T16:46:26Z</time>
      </trkpt>
      <trkpt lat="43.87161" lon="1.8877">
        <ele>120.804657</ele>
        <time>2026-08-29T16:46:27Z</time>
      </trkpt>
      <trkpt lat="43.87158" lon="1.88769">
        <ele>120.897408</ele>
        <time>2026-08-29T16:46:28Z</time>
      </trkpt>
      <trkpt lat="43.87157" lon="1.88768">
        <ele>121.041405</ele>
        <time>2026-08-29T16:46:29Z</time>
      </trkpt>
      <trkpt lat="43.87155" lon="1.88767">
        <ele>121.165996</ele>
        <time>2026-08-29T16:46:30Z</time>
      </trkpt>
      <trkpt lat="43.87153" lon="1.88766">
        <ele>121.283526</ele>
        <time>2026-08-29T16:46:31Z</time>
      </trkpt>
      <trkpt lat="43.87152" lon="1.88766">
        <ele>121.411745</ele>
        <time>2026-08-29T16:46:32Z</time>
      </trkpt>
      <trkpt lat="43.8715" lon="1.88765">
        <ele>121.546874</ele>
        <time>2026-08-29T16:46:33Z</time>
      </trkpt>
      <trkpt lat="43.87149" lon="1.88764">
        <ele>121.6772</ele>
        <time>2026-08-29T16:46:34Z</time>
      </trkpt>
      <trkpt lat="43.87147" lon="1.88763">
        <ele>121.794143</ele>
        <time>2026-08-29T16:46:35Z</time>
      </trkpt>
      <trkpt lat="43.87146" lon="1.88762">
        <ele>121.908734</ele>
        <time>2026-08-29T16:46:36Z</time>
      </trkpt>
      <trkpt lat="43.87144" lon="1.88762">
        <ele>122.027555</ele>
        <time>2026-08-29T16:46:37Z</time>
      </trkpt>
      <trkpt lat="43.87142" lon="1.88761">
        <ele>122.162191</ele>
        <time>2026-08-29T16:46:38Z</time>
      </trkpt>
      <trkpt lat="43.87141" lon="1.88761">
        <ele>122.295972</ele>
        <time>2026-08-29T16:46:39Z</time>
      </trkpt>
      <trkpt lat="43.87138" lon="1.8876">
        <ele>122.462673</ele>
        <time>2026-08-29T16:46:40Z</time>
      </trkpt>
      <trkpt lat="43.87136" lon="1.88759">
        <ele>122.629375</ele>
        <time>2026-08-29T16:46:41Z</time>
      </trkpt>
      <trkpt lat="43.87135" lon="1.88759">
        <ele>122.764011</ele>
        <time>2026-08-29T16:46:42Z</time>
      </trkpt>
      <trkpt lat="43.87133" lon="1.88758">
        <ele>122.902839</ele>
        <time>2026-08-29T16:46:43Z</time>
      </trkpt>
      <trkpt lat="43.87131" lon="1.88758">
        <ele>123.044041</ele>
        <time>2026-08-29T16:46:44Z</time>
      </trkpt>
      <trkpt lat="43.87129" lon="1.88757">
        <ele>123.210548</ele>
        <time>2026-08-29T16:46:45Z</time>
      </trkpt>
      <trkpt lat="43.87127" lon="1.88757">
        <ele>123.35946</ele>
        <time>2026-08-29T16:46:46Z</time>
      </trkpt>
      <trkpt lat="43.87125" lon="1.88757">
        <ele>123.502177</ele>
        <time>2026-08-29T16:46:47Z</time>
      </trkpt>
      <trkpt lat="43.87123" lon="1.88756">
        <ele>123.644893</ele>
        <time>2026-08-29T16:46:48Z</time>
      </trkpt>
      <trkpt lat="43.87121" lon="1.88756">
        <ele>123.794956</ele>
        <time>2026-08-29T16:46:49Z</time>
      </trkpt>
      <trkpt lat="43.87119" lon="1.88756">
        <ele>123.929058</ele>
        <time>2026-08-29T16:46:50Z</time>
      </trkpt>
      <trkpt lat="43.87118" lon="1.88755">
        <ele>124.044992</ele>
        <time>2026-08-29T16:46:51Z</time>
      </trkpt>
      <trkpt lat="43.87116" lon="1.88755">
        <ele>124.142126</ele>
        <time>2026-08-29T16:46:52Z</time>
      </trkpt>
      <trkpt lat="43.87115" lon="1.88755">
        <ele>124.270177</ele>
        <time>2026-08-29T16:46:53Z</time>
      </trkpt>
      <trkpt lat="43.87113" lon="1.88754">
        <ele>124.370362</ele>
        <time>2026-08-29T16:46:54Z</time>
      </trkpt>
      <trkpt lat="43.87112" lon="1.88753">
        <ele>124.512016</ele>
        <time>2026-08-29T16:46:55Z</time>
      </trkpt>
      <trkpt lat="43.8711" lon="1.88752">
        <ele>124.636607</ele>
        <time>2026-08-29T16:46:56Z</time>
      </trkpt>
      <trkpt lat="43.87109" lon="1.88752">
        <ele>124.738353</ele>
        <time>2026-08-29T16:46:57Z</time>
      </trkpt>
      <trkpt lat="43.87107" lon="1.88751">
        <ele>124.880446</ele>
        <time>2026-08-29T16:46:58Z</time>
      </trkpt>
      <trkpt lat="43.87105" lon="1.8875">
        <ele>125.000348</ele>
        <time>2026-08-29T16:46:59Z</time>
      </trkpt>
      <trkpt lat="43.87104" lon="1.8875">
        <ele>125.116282</ele>
        <time>2026-08-29T16:47:00Z</time>
      </trkpt>
      <trkpt lat="43.87102" lon="1.88749">
        <ele>125.246608</ele>
        <time>2026-08-29T16:47:01Z</time>
      </trkpt>
      <trkpt lat="43.87101" lon="1.88749">
        <ele>125.36651</ele>
        <time>2026-08-29T16:47:02Z</time>
      </trkpt>
      <trkpt lat="43.87099" lon="1.88748">
        <ele>125.486412</ele>
        <time>2026-08-29T16:47:03Z</time>
      </trkpt>
      <trkpt lat="43.87097" lon="1.88748">
        <ele>125.618104</ele>
        <time>2026-08-29T16:47:04Z</time>
      </trkpt>
      <trkpt lat="43.87096" lon="1.88747">
        <ele>125.738006</ele>
        <time>2026-08-29T16:47:05Z</time>
      </trkpt>
      <trkpt lat="43.87094" lon="1.88747">
        <ele>125.859806</ele>
        <time>2026-08-29T16:47:06Z</time>
      </trkpt>
      <trkpt lat="43.87093" lon="1.88746">
        <ele>125.968624</ele>
        <time>2026-08-29T16:47:07Z</time>
      </trkpt>
      <trkpt lat="43.87091" lon="1.88745">
        <ele>126.100316</ele>
        <time>2026-08-29T16:47:08Z</time>
      </trkpt>
      <trkpt lat="43.8709" lon="1.88745">
        <ele>126.205518</ele>
        <time>2026-08-29T16:47:09Z</time>
      </trkpt>
      <trkpt lat="43.87088" lon="1.88745">
        <ele>126.321452</ele>
        <time>2026-08-29T16:47:10Z</time>
      </trkpt>
      <trkpt lat="43.87086" lon="1.88744">
        <ele>126.442188</ele>
        <time>2026-08-29T16:47:11Z</time>
      </trkpt>
      <trkpt lat="43.87085" lon="1.88743">
        <ele>126.570407</ele>
        <time>2026-08-29T16:47:12Z</time>
      </trkpt>
      <trkpt lat="43.87083" lon="1.88743">
        <ele>126.683842</ele>
        <time>2026-08-29T16:47:13Z</time>
      </trkpt>
      <trkpt lat="43.87082" lon="1.88742">
        <ele>126.789993</ele>
        <time>2026-08-29T16:47:14Z</time>
      </trkpt>
      <trkpt lat="43.8708" lon="1.88743">
        <ele>126.901517</ele>
        <time>2026-08-29T16:47:15Z</time>
      </trkpt>
      <trkpt lat="43.87079" lon="1.88742">
        <ele>127.028783</ele>
        <time>2026-08-29T16:47:16Z</time>
      </trkpt>
      <trkpt lat="43.87077" lon="1.88741">
        <ele>127.155087</ele>
        <time>2026-08-29T16:47:17Z</time>
      </trkpt>
      <trkpt lat="43.87076" lon="1.88741">
        <ele>127.276887</ele>
        <time>2026-08-29T16:47:18Z</time>
      </trkpt>
      <trkpt lat="43.87074" lon="1.8874">
        <ele>127.407157</ele>
        <time>2026-08-29T16:47:19Z</time>
      </trkpt>
      <trkpt lat="43.87072" lon="1.8874">
        <ele>127.551868</ele>
        <time>2026-08-29T16:47:20Z</time>
      </trkpt>
      <trkpt lat="43.8707" lon="1.8874">
        <ele>127.707821</ele>
        <time>2026-08-29T16:47:21Z</time>
      </trkpt>
      <trkpt lat="43.87068" lon="1.88739">
        <ele>127.855278</ele>
        <time>2026-08-29T16:47:22Z</time>
      </trkpt>
      <trkpt lat="43.87066" lon="1.88738">
        <ele>127.978365</ele>
        <time>2026-08-29T16:47:23Z</time>
      </trkpt>
      <trkpt lat="43.87065" lon="1.88738">
        <ele>128.099101</ele>
        <time>2026-08-29T16:47:24Z</time>
      </trkpt>
      <trkpt lat="43.87063" lon="1.88738">
        <ele>128.196236</ele>
        <time>2026-08-29T16:47:25Z</time>
      </trkpt>
      <trkpt lat="43.87062" lon="1.88737">
        <ele>128.326506</ele>
        <time>2026-08-29T16:47:26Z</time>
      </trkpt>
      <trkpt lat="43.8706" lon="1.88737">
        <ele>128.439053</ele>
        <time>2026-08-29T16:47:27Z</time>
      </trkpt>
      <trkpt lat="43.87059" lon="1.88737">
        <ele>128.565754</ele>
        <time>2026-08-29T16:47:28Z</time>
      </trkpt>
      <trkpt lat="43.87057" lon="1.88736">
        <ele>128.693805</ele>
        <time>2026-08-29T16:47:29Z</time>
      </trkpt>
      <trkpt lat="43.87055" lon="1.88736">
        <ele>128.825498</ele>
        <time>2026-08-29T16:47:30Z</time>
      </trkpt>
      <trkpt lat="43.87053" lon="1.88735">
        <ele>128.9596</ele>
        <time>2026-08-29T16:47:31Z</time>
      </trkpt>
      <trkpt lat="43.87051" lon="1.88735">
        <ele>129.116378</ele>
        <time>2026-08-29T16:47:32Z</time>
      </trkpt>
      <trkpt lat="43.87049" lon="1.88735">
        <ele>129.265771</ele>
        <time>2026-08-29T16:47:33Z</time>
      </trkpt>
      <trkpt lat="43.87048" lon="1.88734">
        <ele>129.394825</ele>
        <time>2026-08-29T16:47:34Z</time>
      </trkpt>
      <trkpt lat="43.87046" lon="1.88734">
        <ele>129.480789</ele>
        <time>2026-08-29T16:47:35Z</time>
      </trkpt>
      <trkpt lat="43.87046" lon="1.88734">
        <ele>129.512366</ele>
        <time>2026-08-29T16:47:36Z</time>
      </trkpt>
      <trkpt lat="43.87045" lon="1.88733">
        <ele>129.565441</ele>
        <time>2026-08-29T16:47:37Z</time>
      </trkpt>
      <trkpt lat="43.86985" lon="1.88721">
        <ele>134.108737</ele>
        <time>2026-08-29T16:48:38Z</time>
      </trkpt>
      <trkpt lat="43.86984" lon="1.88721">
        <ele>134.176859</ele>
        <time>2026-08-29T16:48:39Z</time>
      </trkpt>
      <trkpt lat="43.86983" lon="1.8872">
        <ele>134.215694</ele>
        <time>2026-08-29T16:48:40Z</time>
      </trkpt>
      <trkpt lat="43.86982" lon="1.88719">
        <ele>134.257094</ele>
        <time>2026-08-29T16:48:41Z</time>
      </trkpt>
      <trkpt lat="43.86981" lon="1.88719">
        <ele>134.302253</ele>
        <time>2026-08-29T16:48:42Z</time>
      </trkpt>
      <trkpt lat="43.8698" lon="1.88718">
        <ele>134.345447</ele>
        <time>2026-08-29T16:48:43Z</time>
      </trkpt>
      <trkpt lat="43.86979" lon="1.88718">
        <ele>134.386493</ele>
        <time>2026-08-29T16:48:44Z</time>
      </trkpt>
      <trkpt lat="43.86977" lon="1.88718">
        <ele>134.435001</ele>
        <time>2026-08-29T16:48:45Z</time>
      </trkpt>
      <trkpt lat="43.86976" lon="1.88718">
        <ele>134.483808</ele>
        <time>2026-08-29T16:48:46Z</time>
      </trkpt>
      <trkpt lat="43.86975" lon="1.88718">
        <ele>134.521508</ele>
        <time>2026-08-29T16:48:47Z</time>
      </trkpt>
      <trkpt lat="43.86974" lon="1.88718">
        <ele>134.545307</ele>
        <time>2026-08-29T16:48:48Z</time>
      </trkpt>
      <trkpt lat="43.86974" lon="1.88718">
        <ele>134.575639</ele>
        <time>2026-08-29T16:48:49Z</time>
      </trkpt>
      <trkpt lat="43.86973" lon="1.88718">
        <ele>134.601898</ele>
        <time>2026-08-29T16:48:50Z</time>
      </trkpt>
      <trkpt lat="43.86972" lon="1.88717">
        <ele>134.634639</ele>
        <time>2026-08-29T16:48:51Z</time>
      </trkpt>
      <trkpt lat="43.86971" lon="1.88717">
        <ele>134.673141</ele>
        <time>2026-08-29T16:48:52Z</time>
      </trkpt>
      <trkpt lat="43.8697" lon="1.88716">
        <ele>134.705883</ele>
        <time>2026-08-29T16:48:53Z</time>
      </trkpt>
      <trkpt lat="43.8697" lon="1.88715">
        <ele>134.74577</ele>
        <time>2026-08-29T16:48:54Z</time>
      </trkpt>
      <trkpt lat="43.86969" lon="1.88715">
        <ele>134.781065</ele>
        <time>2026-08-29T16:48:55Z</time>
      </trkpt>
      <trkpt lat="43.86968" lon="1.88714">
        <ele>134.820951</ele>
        <time>2026-08-29T16:48:56Z</time>
      </trkpt>
      <trkpt lat="43.86967" lon="1.88712">
        <ele>134.872092</ele>
        <time>2026-08-29T16:48:57Z</time>
      </trkpt>
      <trkpt lat="43.86966" lon="1.88711">
        <ele>134.918092</ele>
        <time>2026-08-29T16:48:58Z</time>
      </trkpt>
      <trkpt lat="43.86965" lon="1.88711">
        <ele>134.957756</ele>
        <time>2026-08-29T16:48:59Z</time>
      </trkpt>
      <trkpt lat="43.86964" lon="1.8871">
        <ele>135.00451</ele>
        <time>2026-08-29T16:49:00Z</time>
      </trkpt>
      <trkpt lat="43.86963" lon="1.8871">
        <ele>135.044175</ele>
        <time>2026-08-29T16:49:01Z</time>
      </trkpt>
      <trkpt lat="43.86962" lon="1.8871">
        <ele>135.078714</ele>
        <time>2026-08-29T16:49:02Z</time>
      </trkpt>
      <trkpt lat="43.86961" lon="1.88709">
        <ele>135.111456</ele>
        <time>2026-08-29T16:49:03Z</time>
      </trkpt>
      <trkpt lat="43.8696" lon="1.88708">
        <ele>135.153252</ele>
        <time>2026-08-29T16:49:04Z</time>
      </trkpt>
      <trkpt lat="43.86959" lon="1.88708">
        <ele>135.195049</ele>
        <time>2026-08-29T16:49:05Z</time>
      </trkpt>
      <trkpt lat="43.86958" lon="1.88707">
        <ele>135.231226</ele>
        <time>2026-08-29T16:49:06Z</time>
      </trkpt>
      <trkpt lat="43.86957" lon="1.88707">
        <ele>135.271881</ele>
        <time>2026-08-29T16:49:07Z</time>
      </trkpt>
      <trkpt lat="43.86956" lon="1.88706">
        <ele>135.315987</ele>
        <time>2026-08-29T16:49:08Z</time>
      </trkpt>
      <trkpt lat="43.86955" lon="1.88705">
        <ele>135.360467</ele>
        <time>2026-08-29T16:49:09Z</time>
      </trkpt>
      <trkpt lat="43.86954" lon="1.88704">
        <ele>135.399937</ele>
        <time>2026-08-29T16:49:10Z</time>
      </trkpt>
      <trkpt lat="43.86953" lon="1.88704">
        <ele>135.432679</ele>
        <time>2026-08-29T16:49:11Z</time>
      </trkpt>
      <trkpt lat="43.86953" lon="1.88703">
        <ele>135.462059</ele>
        <time>2026-08-29T16:49:12Z</time>
      </trkpt>
      <trkpt lat="43.86952" lon="1.88702">
        <ele>135.497353</ele>
        <time>2026-08-29T16:49:13Z</time>
      </trkpt>
      <trkpt lat="43.86951" lon="1.88702">
        <ele>135.538009</ele>
        <time>2026-08-29T16:49:14Z</time>
      </trkpt>
      <trkpt lat="43.8695" lon="1.88701">
        <ele>135.585663</ele>
        <time>2026-08-29T16:49:15Z</time>
      </trkpt>
      <trkpt lat="43.86949" lon="1.887">
        <ele>135.625133</ele>
        <time>2026-08-29T16:49:16Z</time>
      </trkpt>
      <trkpt lat="43.86948" lon="1.88699">
        <ele>135.663569</ele>
        <time>2026-08-29T16:49:17Z</time>
      </trkpt>
      <trkpt lat="43.86947" lon="1.88698">
        <ele>135.703455</ele>
        <time>2026-08-29T16:49:18Z</time>
      </trkpt>
      <trkpt lat="43.86947" lon="1.88697">
        <ele>135.73875</ele>
        <time>2026-08-29T16:49:19Z</time>
      </trkpt>
      <trkpt lat="43.86946" lon="1.88697">
        <ele>135.783909</ele>
        <time>2026-08-29T16:49:20Z</time>
      </trkpt>
      <trkpt lat="43.86945" lon="1.88696">
        <ele>135.819204</ele>
        <time>2026-08-29T16:49:21Z</time>
      </trkpt>
      <trkpt lat="43.86944" lon="1.88695">
        <ele>135.851404</ele>
        <time>2026-08-29T16:49:22Z</time>
      </trkpt>
      <trkpt lat="43.86943" lon="1.88695">
        <ele>135.886698</ele>
        <time>2026-08-29T16:49:23Z</time>
      </trkpt>
      <trkpt lat="43.86943" lon="1.88694">
        <ele>135.924194</ele>
        <time>2026-08-29T16:49:24Z</time>
      </trkpt>
      <trkpt lat="43.86942" lon="1.88693">
        <ele>135.968675</ele>
        <time>2026-08-29T16:49:25Z</time>
      </trkpt>
      <trkpt lat="43.86941" lon="1.88692">
        <ele>136.011703</ele>
        <time>2026-08-29T16:49:26Z</time>
      </trkpt>
      <trkpt lat="43.8694" lon="1.88691">
        <ele>136.049199</ele>
        <time>2026-08-29T16:49:27Z</time>
      </trkpt>
      <trkpt lat="43.86939" lon="1.8869">
        <ele>136.099799</ele>
        <time>2026-08-29T16:49:28Z</time>
      </trkpt>
      <trkpt lat="43.86938" lon="1.88689">
        <ele>136.146145</ele>
        <time>2026-08-29T16:49:29Z</time>
      </trkpt>
      <trkpt lat="43.86937" lon="1.88688">
        <ele>136.19025</ele>
        <time>2026-08-29T16:49:30Z</time>
      </trkpt>
      <trkpt lat="43.86936" lon="1.88688">
        <ele>136.223941</ele>
        <time>2026-08-29T16:49:31Z</time>
      </trkpt>
      <trkpt lat="43.86935" lon="1.88688">
        <ele>136.260117</ele>
        <time>2026-08-29T16:49:32Z</time>
      </trkpt>
      <trkpt lat="43.86935" lon="1.88688">
        <ele>136.273567</ele>
        <time>2026-08-29T16:49:33Z</time>
      </trkpt>
      <trkpt lat="43.86935" lon="1.88688">
        <ele>136.277299</ele>
        <time>2026-08-29T16:49:34Z</time>
      </trkpt>
      <trkpt lat="43.86935" lon="1.88688">
        <ele>136.288688</ele>
        <time>2026-08-29T16:49:35Z</time>
      </trkpt>
      <trkpt lat="43.86935" lon="1.88685">
        <ele>136.374142</ele>
        <time>2026-08-29T16:50:51Z</time>
      </trkpt>
      <trkpt lat="43.86934" lon="1.88684">
        <ele>136.397142</ele>
        <time>2026-08-29T16:50:52Z</time>
      </trkpt>
      <trkpt lat="43.86935" lon="1.88685">
        <ele>136.435577</ele>
        <time>2026-08-29T16:50:53Z</time>
      </trkpt>
      <trkpt lat="43.86934" lon="1.88685">
        <ele>136.470117</ele>
        <time>2026-08-29T16:50:54Z</time>
      </trkpt>
      <trkpt lat="43.86932" lon="1.88683">
        <ele>136.568268</ele>
        <time>2026-08-29T16:50:57Z</time>
      </trkpt>
      <trkpt lat="43.8693" lon="1.88682">
        <ele>136.637346</ele>
        <time>2026-08-29T16:50:58Z</time>
      </trkpt>
      <trkpt lat="43.86928" lon="1.88681">
        <ele>136.726519</ele>
        <time>2026-08-29T16:50:59Z</time>
      </trkpt>
      <trkpt lat="43.86925" lon="1.8868">
        <ele>136.813781</ele>
        <time>2026-08-29T16:51:00Z</time>
      </trkpt>
      <trkpt lat="43.86923" lon="1.88679">
        <ele>136.906456</ele>
        <time>2026-08-29T16:51:01Z</time>
      </trkpt>
      <trkpt lat="43.86921" lon="1.88677">
        <ele>137.004997</ele>
        <time>2026-08-29T16:51:02Z</time>
      </trkpt>
      <trkpt lat="43.86919" lon="1.88675">
        <ele>137.096997</ele>
        <time>2026-08-29T16:51:03Z</time>
      </trkpt>
      <trkpt lat="43.86917" lon="1.88674">
        <ele>137.183384</ele>
        <time>2026-08-29T16:51:04Z</time>
      </trkpt>
      <trkpt lat="43.86914" lon="1.88673">
        <ele>137.281251</ele>
        <time>2026-08-29T16:51:05Z</time>
      </trkpt>
      <trkpt lat="43.86912" lon="1.88672">
        <ele>137.375568</ele>
        <time>2026-08-29T16:51:06Z</time>
      </trkpt>
      <trkpt lat="43.8691" lon="1.88671">
        <ele>137.462831</ele>
        <time>2026-08-29T16:51:07Z</time>
      </trkpt>
      <trkpt lat="43.86907" lon="1.88669">
        <ele>137.558842</ele>
        <time>2026-08-29T16:51:08Z</time>
      </trkpt>
      <trkpt lat="43.86905" lon="1.88668">
        <ele>137.656709</ele>
        <time>2026-08-29T16:51:09Z</time>
      </trkpt>
      <trkpt lat="43.86903" lon="1.88666">
        <ele>137.747438</ele>
        <time>2026-08-29T16:51:10Z</time>
      </trkpt>
      <trkpt lat="43.869" lon="1.88665">
        <ele>137.838911</ele>
        <time>2026-08-29T16:51:11Z</time>
      </trkpt>
      <trkpt lat="43.86898" lon="1.88663">
        <ele>137.930384</ele>
        <time>2026-08-29T16:51:12Z</time>
      </trkpt>
      <trkpt lat="43.86896" lon="1.88662">
        <ele>138.028925</ele>
        <time>2026-08-29T16:51:13Z</time>
      </trkpt>
      <trkpt lat="43.86894" lon="1.8866">
        <ele>138.123761</ele>
        <time>2026-08-29T16:51:14Z</time>
      </trkpt>
      <trkpt lat="43.86891" lon="1.88659">
        <ele>138.218956</ele>
        <time>2026-08-29T16:51:15Z</time>
      </trkpt>
      <trkpt lat="43.86889" lon="1.88657">
        <ele>138.313792</ele>
        <time>2026-08-29T16:51:16Z</time>
      </trkpt>
      <trkpt lat="43.86887" lon="1.88656">
        <ele>138.398541</ele>
        <time>2026-08-29T16:51:17Z</time>
      </trkpt>
      <trkpt lat="43.86885" lon="1.88655">
        <ele>138.482303</ele>
        <time>2026-08-29T16:51:18Z</time>
      </trkpt>
      <trkpt lat="43.86883" lon="1.88654">
        <ele>138.569565</ele>
        <time>2026-08-29T16:51:19Z</time>
      </trkpt>
      <trkpt lat="43.8688" lon="1.88653">
        <ele>138.656828</ele>
        <time>2026-08-29T16:51:20Z</time>
      </trkpt>
      <trkpt lat="43.86878" lon="1.88652">
        <ele>138.749502</ele>
        <time>2026-08-29T16:51:21Z</time>
      </trkpt>
      <trkpt lat="43.86876" lon="1.8865">
        <ele>138.854607</ele>
        <time>2026-08-29T16:51:22Z</time>
      </trkpt>
      <trkpt lat="43.86874" lon="1.88649">
        <ele>138.933661</ele>
        <time>2026-08-29T16:51:23Z</time>
      </trkpt>
      <trkpt lat="43.86872" lon="1.88648">
        <ele>139.015676</ele>
        <time>2026-08-29T16:51:24Z</time>
      </trkpt>
      <trkpt lat="43.86869" lon="1.88646">
        <ele>139.110985</ele>
        <time>2026-08-29T16:51:25Z</time>
      </trkpt>
      <trkpt lat="43.86867" lon="1.88644">
        <ele>139.193925</ele>
        <time>2026-08-29T16:51:26Z</time>
      </trkpt>
      <trkpt lat="43.86865" lon="1.88642">
        <ele>139.290628</ele>
        <time>2026-08-29T16:51:27Z</time>
      </trkpt>
      <trkpt lat="43.86863" lon="1.88641">
        <ele>139.396765</ele>
        <time>2026-08-29T16:51:28Z</time>
      </trkpt>
      <trkpt lat="43.8686" lon="1.88639">
        <ele>139.50184</ele>
        <time>2026-08-29T16:51:29Z</time>
      </trkpt>
      <trkpt lat="43.86858" lon="1.88638">
        <ele>139.598991</ele>
        <time>2026-08-29T16:51:30Z</time>
      </trkpt>
      <trkpt lat="43.86855" lon="1.88636">
        <ele>139.696143</ele>
        <time>2026-08-29T16:51:31Z</time>
      </trkpt>
      <trkpt lat="43.86853" lon="1.88635">
        <ele>139.796745</ele>
        <time>2026-08-29T16:51:32Z</time>
      </trkpt>
      <trkpt lat="43.8685" lon="1.88634">
        <ele>139.905274</ele>
        <time>2026-08-29T16:51:33Z</time>
      </trkpt>
      <trkpt lat="43.86847" lon="1.88632">
        <ele>140.018273</ele>
        <time>2026-08-29T16:51:34Z</time>
      </trkpt>
      <trkpt lat="43.86845" lon="1.88631">
        <ele>140.122345</ele>
        <time>2026-08-29T16:51:35Z</time>
      </trkpt>
      <trkpt lat="43.86842" lon="1.88629">
        <ele>140.22197</ele>
        <time>2026-08-29T16:51:36Z</time>
      </trkpt>
      <trkpt lat="43.8684" lon="1.88628">
        <ele>140.317166</ele>
        <time>2026-08-29T16:51:37Z</time>
      </trkpt>
      <trkpt lat="43.86837" lon="1.88627">
        <ele>140.416792</ele>
        <time>2026-08-29T16:51:38Z</time>
      </trkpt>
      <trkpt lat="43.86835" lon="1.88626">
        <ele>140.513879</ele>
        <time>2026-08-29T16:51:39Z</time>
      </trkpt>
      <trkpt lat="43.86832" lon="1.88624">
        <ele>140.611031</ele>
        <time>2026-08-29T16:51:40Z</time>
      </trkpt>
      <trkpt lat="43.8683" lon="1.88624">
        <ele>140.684387</ele>
        <time>2026-08-29T16:51:41Z</time>
      </trkpt>
      <trkpt lat="43.86828" lon="1.88623">
        <ele>140.771649</ele>
        <time>2026-08-29T16:51:42Z</time>
      </trkpt>
      <trkpt lat="43.86826" lon="1.88621">
        <ele>140.862431</ele>
        <time>2026-08-29T16:51:43Z</time>
      </trkpt>
      <trkpt lat="43.86823" lon="1.88621">
        <ele>140.890661</ele>
        <time>2026-08-29T16:51:44Z</time>
      </trkpt>
      <trkpt lat="43.86821" lon="1.88619">
        <ele>140.900801</ele>
        <time>2026-08-29T16:51:45Z</time>
      </trkpt>
      <trkpt lat="43.86819" lon="1.88618">
        <ele>140.912577</ele>
        <time>2026-08-29T16:51:46Z</time>
      </trkpt>
      <trkpt lat="43.86816" lon="1.88617">
        <ele>140.925028</ele>
        <time>2026-08-29T16:51:47Z</time>
      </trkpt>
      <trkpt lat="43.86813" lon="1.88615">
        <ele>140.938307</ele>
        <time>2026-08-29T16:51:48Z</time>
      </trkpt>
      <trkpt lat="43.8681" lon="1.88612">
        <ele>140.951744</ele>
        <time>2026-08-29T16:51:49Z</time>
      </trkpt>
      <trkpt lat="43.86808" lon="1.8861">
        <ele>140.964207</ele>
        <time>2026-08-29T16:51:50Z</time>
      </trkpt>
      <trkpt lat="43.86806" lon="1.88609">
        <ele>140.974524</ele>
        <time>2026-08-29T16:51:51Z</time>
      </trkpt>
      <trkpt lat="43.86803" lon="1.88608">
        <ele>140.985957</ele>
        <time>2026-08-29T16:51:52Z</time>
      </trkpt>
      <trkpt lat="43.86801" lon="1.88606">
        <ele>140.997634</ele>
        <time>2026-08-29T16:51:53Z</time>
      </trkpt>
      <trkpt lat="43.86798" lon="1.88604">
        <ele>141.009579</ele>
        <time>2026-08-29T16:51:54Z</time>
      </trkpt>
      <trkpt lat="43.86796" lon="1.88602">
        <ele>141.022282</ele>
        <time>2026-08-29T16:51:55Z</time>
      </trkpt>
      <trkpt lat="43.86793" lon="1.88601">
        <ele>141.032547</ele>
        <time>2026-08-29T16:51:56Z</time>
      </trkpt>
      <trkpt lat="43.86791" lon="1.886">
        <ele>141.043174</ele>
        <time>2026-08-29T16:51:57Z</time>
      </trkpt>
      <trkpt lat="43.86789" lon="1.88599">
        <ele>141.052583</ele>
        <time>2026-08-29T16:51:58Z</time>
      </trkpt>
      <trkpt lat="43.86787" lon="1.88599">
        <ele>141.06141</ele>
        <time>2026-08-29T16:51:59Z</time>
      </trkpt>
      <trkpt lat="43.86785" lon="1.88598">
        <ele>141.06983</ele>
        <time>2026-08-29T16:52:00Z</time>
      </trkpt>
      <trkpt lat="43.86783" lon="1.88597">
        <ele>141.079338</ele>
        <time>2026-08-29T16:52:01Z</time>
      </trkpt>
      <trkpt lat="43.86781" lon="1.88596">
        <ele>141.087853</ele>
        <time>2026-08-29T16:52:02Z</time>
      </trkpt>
      <trkpt lat="43.86779" lon="1.88595">
        <ele>141.096075</ele>
        <time>2026-08-29T16:52:03Z</time>
      </trkpt>
      <trkpt lat="43.86777" lon="1.88595">
        <ele>141.102922</ele>
        <time>2026-08-29T16:52:04Z</time>
      </trkpt>
      <trkpt lat="43.86775" lon="1.88594">
        <ele>141.111186</ele>
        <time>2026-08-29T16:52:05Z</time>
      </trkpt>
      <trkpt lat="43.86774" lon="1.88594">
        <ele>141.119113</ele>
        <time>2026-08-29T16:52:06Z</time>
      </trkpt>
      <trkpt lat="43.86771" lon="1.88593">
        <ele>141.129581</ele>
        <time>2026-08-29T16:52:07Z</time>
      </trkpt>
      <trkpt lat="43.86769" lon="1.88592">
        <ele>141.140703</ele>
        <time>2026-08-29T16:52:08Z</time>
      </trkpt>
      <trkpt lat="43.86766" lon="1.88591">
        <ele>141.151997</ele>
        <time>2026-08-29T16:52:09Z</time>
      </trkpt>
      <trkpt lat="43.86764" lon="1.8859">
        <ele>141.161516</ele>
        <time>2026-08-29T16:52:10Z</time>
      </trkpt>
      <trkpt lat="43.86762" lon="1.88589">
        <ele>141.171035</ele>
        <time>2026-08-29T16:52:11Z</time>
      </trkpt>
      <trkpt lat="43.8676" lon="1.88587">
        <ele>141.182076</ele>
        <time>2026-08-29T16:52:12Z</time>
      </trkpt>
      <trkpt lat="43.86757" lon="1.88585">
        <ele>141.194684</ele>
        <time>2026-08-29T16:52:13Z</time>
      </trkpt>
      <trkpt lat="43.86754" lon="1.88584">
        <ele>141.206006</ele>
        <time>2026-08-29T16:52:14Z</time>
      </trkpt>
      <trkpt lat="43.86752" lon="1.88583">
        <ele>141.217834</ele>
        <time>2026-08-29T16:52:15Z</time>
      </trkpt>
      <trkpt lat="43.86749" lon="1.88582">
        <ele>141.231403</ele>
        <time>2026-08-29T16:52:16Z</time>
      </trkpt>
      <trkpt lat="43.86745" lon="1.88582">
        <ele>141.246249</ele>
        <time>2026-08-29T16:52:17Z</time>
      </trkpt>
      <trkpt lat="43.86742" lon="1.88582">
        <ele>141.261204</ele>
        <time>2026-08-29T16:52:18Z</time>
      </trkpt>
      <trkpt lat="43.86739" lon="1.88583">
        <ele>141.274805</ele>
        <time>2026-08-29T16:52:19Z</time>
      </trkpt>
      <trkpt lat="43.86735" lon="1.88583">
        <ele>141.288853</ele>
        <time>2026-08-29T16:52:20Z</time>
      </trkpt>
      <trkpt lat="43.86732" lon="1.88583">
        <ele>141.302427</ele>
        <time>2026-08-29T16:52:21Z</time>
      </trkpt>
      <trkpt lat="43.86729" lon="1.88584">
        <ele>141.317319</ele>
        <time>2026-08-29T16:52:22Z</time>
      </trkpt>
      <trkpt lat="43.86725" lon="1.88583">
        <ele>141.330469</ele>
        <time>2026-08-29T16:52:23Z</time>
      </trkpt>
      <trkpt lat="43.86723" lon="1.88583">
        <ele>141.34111</ele>
        <time>2026-08-29T16:52:24Z</time>
      </trkpt>
      <trkpt lat="43.8672" lon="1.88583">
        <ele>141.352174</ele>
        <time>2026-08-29T16:52:25Z</time>
      </trkpt>
      <trkpt lat="43.86718" lon="1.88583">
        <ele>141.360375</ele>
        <time>2026-08-29T16:52:26Z</time>
      </trkpt>
      <trkpt lat="43.86717" lon="1.88582">
        <ele>141.368206</ele>
        <time>2026-08-29T16:52:27Z</time>
      </trkpt>
      <trkpt lat="43.86715" lon="1.88581">
        <ele>141.377033</ele>
        <time>2026-08-29T16:52:28Z</time>
      </trkpt>
      <trkpt lat="43.86713" lon="1.8858">
        <ele>141.386354</ele>
        <time>2026-08-29T16:52:29Z</time>
      </trkpt>
      <trkpt lat="43.86711" lon="1.88579">
        <ele>141.395207</ele>
        <time>2026-08-29T16:52:30Z</time>
      </trkpt>
      <trkpt lat="43.8671" lon="1.88577">
        <ele>141.402266</ele>
        <time>2026-08-29T16:52:31Z</time>
      </trkpt>
      <trkpt lat="43.86709" lon="1.88576">
        <ele>141.408219</ele>
        <time>2026-08-29T16:52:32Z</time>
      </trkpt>
      <trkpt lat="43.86708" lon="1.88574">
        <ele>141.415064</ele>
        <time>2026-08-29T16:52:33Z</time>
      </trkpt>
      <trkpt lat="43.86708" lon="1.88571">
        <ele>141.423491</ele>
        <time>2026-08-29T16:52:34Z</time>
      </trkpt>
      <trkpt lat="43.86707" lon="1.88569">
        <ele>141.431492</ele>
        <time>2026-08-29T16:52:35Z</time>
      </trkpt>
      <trkpt lat="43.86707" lon="1.88567">
        <ele>141.437927</ele>
        <time>2026-08-29T16:52:36Z</time>
      </trkpt>
      <trkpt lat="43.86705" lon="1.88565">
        <ele>141.446663</ele>
        <time>2026-08-29T16:52:37Z</time>
      </trkpt>
      <trkpt lat="43.86703" lon="1.88563">
        <ele>141.459218</ele>
        <time>2026-08-29T16:52:38Z</time>
      </trkpt>
      <trkpt lat="43.867" lon="1.8856">
        <ele>141.473985</ele>
        <time>2026-08-29T16:52:39Z</time>
      </trkpt>
      <trkpt lat="43.86697" lon="1.88558">
        <ele>141.487341</ele>
        <time>2026-08-29T16:52:40Z</time>
      </trkpt>
      <trkpt lat="43.86695" lon="1.88557">
        <ele>141.499017</ele>
        <time>2026-08-29T16:52:41Z</time>
      </trkpt>
      <trkpt lat="43.86692" lon="1.88556">
        <ele>141.510868</ele>
        <time>2026-08-29T16:52:42Z</time>
      </trkpt>
      <trkpt lat="43.86689" lon="1.88555">
        <ele>141.523302</ele>
        <time>2026-08-29T16:52:43Z</time>
      </trkpt>
      <trkpt lat="43.86686" lon="1.88555">
        <ele>141.536028</ele>
        <time>2026-08-29T16:52:44Z</time>
      </trkpt>
      <trkpt lat="43.86683" lon="1.88556">
        <ele>141.550604</ele>
        <time>2026-08-29T16:52:45Z</time>
      </trkpt>
      <trkpt lat="43.86679" lon="1.88558">
        <ele>141.566266</ele>
        <time>2026-08-29T16:52:46Z</time>
      </trkpt>
      <trkpt lat="43.86677" lon="1.88562">
        <ele>141.581211</ele>
        <time>2026-08-29T16:52:47Z</time>
      </trkpt>
      <trkpt lat="43.86674" lon="1.88566">
        <ele>141.598578</ele>
        <time>2026-08-29T16:52:48Z</time>
      </trkpt>
      <trkpt lat="43.86673" lon="1.88572">
        <ele>141.616122</ele>
        <time>2026-08-29T16:52:49Z</time>
      </trkpt>
      <trkpt lat="43.86672" lon="1.88576">
        <ele>141.63123</ele>
        <time>2026-08-29T16:52:50Z</time>
      </trkpt>
      <trkpt lat="43.86671" lon="1.88579">
        <ele>141.641412</ele>
        <time>2026-08-29T16:52:51Z</time>
      </trkpt>
      <trkpt lat="43.8667" lon="1.88581">
        <ele>141.652383</ele>
        <time>2026-08-29T16:52:52Z</time>
      </trkpt>
      <trkpt lat="43.86669" lon="1.88582">
        <ele>141.661622</ele>
        <time>2026-08-29T16:52:53Z</time>
      </trkpt>
      <trkpt lat="43.86669" lon="1.88582">
        <ele>141.66355</ele>
        <time>2026-08-29T16:52:54Z</time>
      </trkpt>
      <trkpt lat="43.86669" lon="1.88582">
        <ele>141.671483</ele>
        <time>2026-08-29T16:52:55Z</time>
      </trkpt>
      <trkpt lat="43.86669" lon="1.88587">
        <ele>141.709127</ele>
        <time>2026-08-29T16:53:06Z</time>
      </trkpt>
      <trkpt lat="43.86667" lon="1.88587">
        <ele>141.731571</ele>
        <time>2026-08-29T16:53:07Z</time>
      </trkpt>
      <trkpt lat="43.86664" lon="1.88586">
        <ele>141.757583</ele>
        <time>2026-08-29T16:53:08Z</time>
      </trkpt>
      <trkpt lat="43.86661" lon="1.88584">
        <ele>141.789541</ele>
        <time>2026-08-29T16:53:09Z</time>
      </trkpt>
      <trkpt lat="43.86657" lon="1.88583">
        <ele>141.824658</ele>
        <time>2026-08-29T16:53:10Z</time>
      </trkpt>
      <trkpt lat="43.86653" lon="1.88581">
        <ele>141.865537</ele>
        <time>2026-08-29T16:53:11Z</time>
      </trkpt>
      <trkpt lat="43.86649" lon="1.8858">
        <ele>141.904479</ele>
        <time>2026-08-29T16:53:12Z</time>
      </trkpt>
      <trkpt lat="43.86645" lon="1.88578">
        <ele>141.944426</ele>
        <time>2026-08-29T16:53:13Z</time>
      </trkpt>
      <trkpt lat="43.86642" lon="1.88577">
        <ele>141.980471</ele>
        <time>2026-08-29T16:53:14Z</time>
      </trkpt>
      <trkpt lat="43.86638" lon="1.88576">
        <ele>142.015069</ele>
        <time>2026-08-29T16:53:15Z</time>
      </trkpt>
      <trkpt lat="43.86634" lon="1.88575">
        <ele>142.05763</ele>
        <time>2026-08-29T16:53:16Z</time>
      </trkpt>
      <trkpt lat="43.8663" lon="1.88574">
        <ele>142.097237</ele>
        <time>2026-08-29T16:53:17Z</time>
      </trkpt>
      <trkpt lat="43.86626" lon="1.88572">
        <ele>142.132765</ele>
        <time>2026-08-29T16:53:18Z</time>
      </trkpt>
      <trkpt lat="43.86623" lon="1.88571">
        <ele>142.166588</ele>
        <time>2026-08-29T16:53:19Z</time>
      </trkpt>
      <trkpt lat="43.8662" lon="1.88569">
        <ele>142.198476</ele>
        <time>2026-08-29T16:53:20Z</time>
      </trkpt>
      <trkpt lat="43.86617" lon="1.88567">
        <ele>142.228585</ele>
        <time>2026-08-29T16:53:21Z</time>
      </trkpt>
      <trkpt lat="43.86615" lon="1.88564">
        <ele>142.260319</ele>
        <time>2026-08-29T16:53:22Z</time>
      </trkpt>
      <trkpt lat="43.86612" lon="1.88561">
        <ele>142.290757</ele>
        <time>2026-08-29T16:53:23Z</time>
      </trkpt>
      <trkpt lat="43.8661" lon="1.88558">
        <ele>142.321443</ele>
        <time>2026-08-29T16:53:24Z</time>
      </trkpt>
      <trkpt lat="43.86608" lon="1.88555">
        <ele>142.353538</ele>
        <time>2026-08-29T16:53:25Z</time>
      </trkpt>
      <trkpt lat="43.86605" lon="1.88552">
        <ele>142.387049</ele>
        <time>2026-08-29T16:53:26Z</time>
      </trkpt>
      <trkpt lat="43.86602" lon="1.88548">
        <ele>142.421979</ele>
        <time>2026-08-29T16:53:27Z</time>
      </trkpt>
      <trkpt lat="43.866" lon="1.88545">
        <ele>142.454385</ele>
        <time>2026-08-29T16:53:28Z</time>
      </trkpt>
      <trkpt lat="43.86598" lon="1.88542">
        <ele>142.486714</ele>
        <time>2026-08-29T16:53:29Z</time>
      </trkpt>
      <trkpt lat="43.86595" lon="1.88539">
        <ele>142.518808</ele>
        <time>2026-08-29T16:53:30Z</time>
      </trkpt>
      <trkpt lat="43.86593" lon="1.88535">
        <ele>142.55071</ele>
        <time>2026-08-29T16:53:31Z</time>
      </trkpt>
      <trkpt lat="43.86591" lon="1.88532">
        <ele>142.581629</ele>
        <time>2026-08-29T16:53:32Z</time>
      </trkpt>
      <trkpt lat="43.86588" lon="1.88529">
        <ele>142.613035</ele>
        <time>2026-08-29T16:53:33Z</time>
      </trkpt>
      <trkpt lat="43.86587" lon="1.88525">
        <ele>142.643531</ele>
        <time>2026-08-29T16:53:34Z</time>
      </trkpt>
      <trkpt lat="43.86585" lon="1.88522">
        <ele>142.672766</ele>
        <time>2026-08-29T16:53:35Z</time>
      </trkpt>
      <trkpt lat="43.86585" lon="1.88517">
        <ele>142.70428</ele>
        <time>2026-08-29T16:53:36Z</time>
      </trkpt>
      <trkpt lat="43.86585" lon="1.88513">
        <ele>142.732843</ele>
        <time>2026-08-29T16:53:37Z</time>
      </trkpt>
      <trkpt lat="43.86584" lon="1.88509">
        <ele>142.760777</ele>
        <time>2026-08-29T16:53:38Z</time>
      </trkpt>
      <trkpt lat="43.86583" lon="1.88506">
        <ele>142.788598</ele>
        <time>2026-08-29T16:53:39Z</time>
      </trkpt>
      <trkpt lat="43.86581" lon="1.88502">
        <ele>142.81706</ele>
        <time>2026-08-29T16:53:40Z</time>
      </trkpt>
      <trkpt lat="43.86581" lon="1.88498">
        <ele>142.84682</ele>
        <time>2026-08-29T16:53:41Z</time>
      </trkpt>
      <trkpt lat="43.8658" lon="1.88493">
        <ele>142.879841</ele>
        <time>2026-08-29T16:53:42Z</time>
      </trkpt>
      <trkpt lat="43.8658" lon="1.88489">
        <ele>142.90905</ele>
        <time>2026-08-29T16:53:43Z</time>
      </trkpt>
      <trkpt lat="43.8658" lon="1.88484">
        <ele>142.938637</ele>
        <time>2026-08-29T16:53:44Z</time>
      </trkpt>
      <trkpt lat="43.86579" lon="1.88481">
        <ele>142.966355</ele>
        <time>2026-08-29T16:53:45Z</time>
      </trkpt>
      <trkpt lat="43.86579" lon="1.88477">
        <ele>142.992943</ele>
        <time>2026-08-29T16:53:46Z</time>
      </trkpt>
      <trkpt lat="43.86578" lon="1.88473">
        <ele>143.02381</ele>
        <time>2026-08-29T16:53:47Z</time>
      </trkpt>
      <trkpt lat="43.86577" lon="1.88468">
        <ele>143.052888</ele>
        <time>2026-08-29T16:53:48Z</time>
      </trkpt>
      <trkpt lat="43.86576" lon="1.88465">
        <ele>143.08135</ele>
        <time>2026-08-29T16:53:49Z</time>
      </trkpt>
      <trkpt lat="43.86576" lon="1.8846">
        <ele>143.110873</ele>
        <time>2026-08-29T16:53:50Z</time>
      </trkpt>
      <trkpt lat="43.86575" lon="1.88456">
        <ele>143.142192</ele>
        <time>2026-08-29T16:53:51Z</time>
      </trkpt>
      <trkpt lat="43.86574" lon="1.88451">
        <ele>143.175549</ele>
        <time>2026-08-29T16:53:52Z</time>
      </trkpt>
      <trkpt lat="43.86573" lon="1.88447">
        <ele>143.206868</ele>
        <time>2026-08-29T16:53:53Z</time>
      </trkpt>
      <trkpt lat="43.86573" lon="1.88442">
        <ele>143.240433</ele>
        <time>2026-08-29T16:53:54Z</time>
      </trkpt>
      <trkpt lat="43.86572" lon="1.88438">
        <ele>143.271837</ele>
        <time>2026-08-29T16:53:55Z</time>
      </trkpt>
      <trkpt lat="43.8657" lon="1.88434">
        <ele>143.302119</ele>
        <time>2026-08-29T16:53:56Z</time>
      </trkpt>
      <trkpt lat="43.86569" lon="1.8843">
        <ele>143.332843</ele>
        <time>2026-08-29T16:53:57Z</time>
      </trkpt>
      <trkpt lat="43.86568" lon="1.88426">
        <ele>143.363599</ele>
        <time>2026-08-29T16:53:58Z</time>
      </trkpt>
      <trkpt lat="43.86567" lon="1.88422">
        <ele>143.385571</ele>
        <time>2026-08-29T16:53:59Z</time>
      </trkpt>
      <trkpt lat="43.86566" lon="1.88418">
        <ele>143.401629</ele>
        <time>2026-08-29T16:54:00Z</time>
      </trkpt>
      <trkpt lat="43.86566" lon="1.88413">
        <ele>143.418734</ele>
        <time>2026-08-29T16:54:01Z</time>
      </trkpt>
      <trkpt lat="43.86566" lon="1.88409">
        <ele>143.435207</ele>
        <time>2026-08-29T16:54:02Z</time>
      </trkpt>
      <trkpt lat="43.86565" lon="1.88404">
        <ele>143.451932</ele>
        <time>2026-08-29T16:54:03Z</time>
      </trkpt>
      <trkpt lat="43.86564" lon="1.88399">
        <ele>143.469369</ele>
        <time>2026-08-29T16:54:04Z</time>
      </trkpt>
      <trkpt lat="43.86564" lon="1.88395">
        <ele>143.487268</ele>
        <time>2026-08-29T16:54:05Z</time>
      </trkpt>
      <trkpt lat="43.86562" lon="1.8839">
        <ele>143.50504</ele>
        <time>2026-08-29T16:54:06Z</time>
      </trkpt>
      <trkpt lat="43.86562" lon="1.88385">
        <ele>143.522586</ele>
        <time>2026-08-29T16:54:07Z</time>
      </trkpt>
      <trkpt lat="43.8656" lon="1.88381">
        <ele>143.538662</ele>
        <time>2026-08-29T16:54:08Z</time>
      </trkpt>
      <trkpt lat="43.86559" lon="1.88377">
        <ele>143.554402</ele>
        <time>2026-08-29T16:54:09Z</time>
      </trkpt>
      <trkpt lat="43.86557" lon="1.88374">
        <ele>143.570142</ele>
        <time>2026-08-29T16:54:10Z</time>
      </trkpt>
      <trkpt lat="43.86556" lon="1.88369">
        <ele>143.587418</ele>
        <time>2026-08-29T16:54:11Z</time>
      </trkpt>
      <trkpt lat="43.86555" lon="1.88365">
        <ele>143.604179</ele>
        <time>2026-08-29T16:54:12Z</time>
      </trkpt>
      <trkpt lat="43.86554" lon="1.8836">
        <ele>143.620594</ele>
        <time>2026-08-29T16:54:13Z</time>
      </trkpt>
      <trkpt lat="43.86553" lon="1.88356">
        <ele>143.636513</ele>
        <time>2026-08-29T16:54:14Z</time>
      </trkpt>
      <trkpt lat="43.86552" lon="1.88352">
        <ele>143.653604</ele>
        <time>2026-08-29T16:54:15Z</time>
      </trkpt>
      <trkpt lat="43.86551" lon="1.88347">
        <ele>143.670231</ele>
        <time>2026-08-29T16:54:16Z</time>
      </trkpt>
      <trkpt lat="43.8655" lon="1.88343">
        <ele>143.686983</ele>
        <time>2026-08-29T16:54:17Z</time>
      </trkpt>
      <trkpt lat="43.86549" lon="1.88338">
        <ele>143.704787</ele>
        <time>2026-08-29T16:54:18Z</time>
      </trkpt>
      <trkpt lat="43.86548" lon="1.88334">
        <ele>143.722686</ele>
        <time>2026-08-29T16:54:19Z</time>
      </trkpt>
      <trkpt lat="43.86547" lon="1.88329">
        <ele>143.741537</ele>
        <time>2026-08-29T16:54:20Z</time>
      </trkpt>
      <trkpt lat="43.86547" lon="1.88323">
        <ele>143.762399</ele>
        <time>2026-08-29T16:54:21Z</time>
      </trkpt>
      <trkpt lat="43.86546" lon="1.88318">
        <ele>143.781173</ele>
        <time>2026-08-29T16:54:22Z</time>
      </trkpt>
      <trkpt lat="43.86546" lon="1.88314">
        <ele>143.796605</ele>
        <time>2026-08-29T16:54:23Z</time>
      </trkpt>
      <trkpt lat="43.86543" lon="1.88309">
        <ele>143.815474</ele>
        <time>2026-08-29T16:54:24Z</time>
      </trkpt>
      <trkpt lat="43.86541" lon="1.88305">
        <ele>143.836414</ele>
        <time>2026-08-29T16:54:25Z</time>
      </trkpt>
      <trkpt lat="43.86539" lon="1.88299">
        <ele>143.859405</ele>
        <time>2026-08-29T16:54:26Z</time>
      </trkpt>
      <trkpt lat="43.86537" lon="1.88293">
        <ele>143.883214</ele>
        <time>2026-08-29T16:54:27Z</time>
      </trkpt>
      <trkpt lat="43.86535" lon="1.88287">
        <ele>143.906635</ele>
        <time>2026-08-29T16:54:28Z</time>
      </trkpt>
      <trkpt lat="43.86533" lon="1.88281">
        <ele>143.931777</ele>
        <time>2026-08-29T16:54:29Z</time>
      </trkpt>
      <trkpt lat="43.86532" lon="1.88275">
        <ele>143.953935</ele>
        <time>2026-08-29T16:54:30Z</time>
      </trkpt>
      <trkpt lat="43.8653" lon="1.88269">
        <ele>143.977019</ele>
        <time>2026-08-29T16:54:31Z</time>
      </trkpt>
      <trkpt lat="43.86528" lon="1.88264">
        <ele>143.999505</ele>
        <time>2026-08-29T16:54:32Z</time>
      </trkpt>
      <trkpt lat="43.86527" lon="1.88258">
        <ele>144.021646</ele>
        <time>2026-08-29T16:54:33Z</time>
      </trkpt>
      <trkpt lat="43.86525" lon="1.88251">
        <ele>144.046293</ele>
        <time>2026-08-29T16:54:34Z</time>
      </trkpt>
      <trkpt lat="43.86524" lon="1.88245">
        <ele>144.069265</ele>
        <time>2026-08-29T16:54:35Z</time>
      </trkpt>
      <trkpt lat="43.86523" lon="1.8824">
        <ele>144.090813</ele>
        <time>2026-08-29T16:54:36Z</time>
      </trkpt>
      <trkpt lat="43.86521" lon="1.88234">
        <ele>144.112859</ele>
        <time>2026-08-29T16:54:37Z</time>
      </trkpt>
      <trkpt lat="43.8652" lon="1.88228">
        <ele>144.135246</ele>
        <time>2026-08-29T16:54:38Z</time>
      </trkpt>
      <trkpt lat="43.86518" lon="1.88223">
        <ele>144.15678</ele>
        <time>2026-08-29T16:54:39Z</time>
      </trkpt>
      <trkpt lat="43.86517" lon="1.88217">
        <ele>144.177287</ele>
        <time>2026-08-29T16:54:40Z</time>
      </trkpt>
      <trkpt lat="43.86515" lon="1.88212">
        <ele>144.196831</ele>
        <time>2026-08-29T16:54:41Z</time>
      </trkpt>
      <trkpt lat="43.86514" lon="1.88207">
        <ele>144.216384</ele>
        <time>2026-08-29T16:54:42Z</time>
      </trkpt>
      <trkpt lat="43.86513" lon="1.88202">
        <ele>144.237575</ele>
        <time>2026-08-29T16:54:43Z</time>
      </trkpt>
      <trkpt lat="43.86511" lon="1.88196">
        <ele>144.258766</ele>
        <time>2026-08-29T16:54:44Z</time>
      </trkpt>
      <trkpt lat="43.8651" lon="1.88191">
        <ele>144.279957</ele>
        <time>2026-08-29T16:54:45Z</time>
      </trkpt>
      <trkpt lat="43.86509" lon="1.88185">
        <ele>144.304657</ele>
        <time>2026-08-29T16:54:46Z</time>
      </trkpt>
      <trkpt lat="43.86507" lon="1.8818">
        <ele>144.331011</ele>
        <time>2026-08-29T16:54:47Z</time>
      </trkpt>
      <trkpt lat="43.86506" lon="1.88175">
        <ele>144.358656</ele>
        <time>2026-08-29T16:54:48Z</time>
      </trkpt>
      <trkpt lat="43.86504" lon="1.8817">
        <ele>144.385451</ele>
        <time>2026-08-29T16:54:49Z</time>
      </trkpt>
      <trkpt lat="43.86503" lon="1.88165">
        <ele>144.411541</ele>
        <time>2026-08-29T16:54:50Z</time>
      </trkpt>
      <trkpt lat="43.86501" lon="1.8816">
        <ele>144.438336</ele>
        <time>2026-08-29T16:54:51Z</time>
      </trkpt>
      <trkpt lat="43.865" lon="1.88155">
        <ele>144.463982</ele>
        <time>2026-08-29T16:54:52Z</time>
      </trkpt>
      <trkpt lat="43.86498" lon="1.8815">
        <ele>144.489745</ele>
        <time>2026-08-29T16:54:53Z</time>
      </trkpt>
      <trkpt lat="43.86497" lon="1.88145">
        <ele>144.51566</ele>
        <time>2026-08-29T16:54:54Z</time>
      </trkpt>
      <trkpt lat="43.86495" lon="1.8814">
        <ele>144.543166</ele>
        <time>2026-08-29T16:54:55Z</time>
      </trkpt>
      <trkpt lat="43.86493" lon="1.88135">
        <ele>144.571995</ele>
        <time>2026-08-29T16:54:56Z</time>
      </trkpt>
      <trkpt lat="43.86492" lon="1.88129">
        <ele>144.601463</ele>
        <time>2026-08-29T16:54:57Z</time>
      </trkpt>
      <trkpt lat="43.8649" lon="1.88123">
        <ele>144.630292</ele>
        <time>2026-08-29T16:54:58Z</time>
      </trkpt>
      <trkpt lat="43.86488" lon="1.88118">
        <ele>144.659968</ele>
        <time>2026-08-29T16:54:59Z</time>
      </trkpt>
      <trkpt lat="43.86486" lon="1.88112">
        <ele>144.688988</ele>
        <time>2026-08-29T16:55:00Z</time>
      </trkpt>
      <trkpt lat="43.86485" lon="1.88107">
        <ele>144.717114</ele>
        <time>2026-08-29T16:55:01Z</time>
      </trkpt>
      <trkpt lat="43.86483" lon="1.88101">
        <ele>144.746582</ele>
        <time>2026-08-29T16:55:02Z</time>
      </trkpt>
      <trkpt lat="43.86481" lon="1.88096">
        <ele>144.774371</ele>
        <time>2026-08-29T16:55:03Z</time>
      </trkpt>
      <trkpt lat="43.86479" lon="1.8809">
        <ele>144.80347</ele>
        <time>2026-08-29T16:55:04Z</time>
      </trkpt>
      <trkpt lat="43.86478" lon="1.88085">
        <ele>144.832702</ele>
        <time>2026-08-29T16:55:05Z</time>
      </trkpt>
      <trkpt lat="43.86476" lon="1.88079">
        <ele>144.861363</ele>
        <time>2026-08-29T16:55:06Z</time>
      </trkpt>
      <trkpt lat="43.86474" lon="1.88074">
        <ele>144.889152</ele>
        <time>2026-08-29T16:55:07Z</time>
      </trkpt>
      <trkpt lat="43.86473" lon="1.88069">
        <ele>144.917098</ele>
        <time>2026-08-29T16:55:08Z</time>
      </trkpt>
      <trkpt lat="43.86471" lon="1.88063">
        <ele>144.944982</ele>
        <time>2026-08-29T16:55:09Z</time>
      </trkpt>
      <trkpt lat="43.8647" lon="1.88058">
        <ele>144.971842</ele>
        <time>2026-08-29T16:55:10Z</time>
      </trkpt>
      <trkpt lat="43.86469" lon="1.88053">
        <ele>144.998074</ele>
        <time>2026-08-29T16:55:11Z</time>
      </trkpt>
      <trkpt lat="43.86468" lon="1.88047">
        <ele>145.025571</ele>
        <time>2026-08-29T16:55:12Z</time>
      </trkpt>
      <trkpt lat="43.86467" lon="1.88041">
        <ele>145.054153</ele>
        <time>2026-08-29T16:55:13Z</time>
      </trkpt>
      <trkpt lat="43.86467" lon="1.88035">
        <ele>145.084022</ele>
        <time>2026-08-29T16:55:14Z</time>
      </trkpt>
      <trkpt lat="43.86466" lon="1.88029">
        <ele>145.114637</ele>
        <time>2026-08-29T16:55:15Z</time>
      </trkpt>
      <trkpt lat="43.86466" lon="1.88023">
        <ele>145.14565</ele>
        <time>2026-08-29T16:55:16Z</time>
      </trkpt>
      <trkpt lat="43.86465" lon="1.88016">
        <ele>145.17799</ele>
        <time>2026-08-29T16:55:17Z</time>
      </trkpt>
      <trkpt lat="43.86465" lon="1.8801">
        <ele>145.207446</ele>
        <time>2026-08-29T16:55:18Z</time>
      </trkpt>
      <trkpt lat="43.86465" lon="1.88004">
        <ele>145.237315</ele>
        <time>2026-08-29T16:55:19Z</time>
      </trkpt>
      <trkpt lat="43.86465" lon="1.87997">
        <ele>145.268636</ele>
        <time>2026-08-29T16:55:20Z</time>
      </trkpt>
      <trkpt lat="43.86465" lon="1.87991">
        <ele>145.299979</ele>
        <time>2026-08-29T16:55:21Z</time>
      </trkpt>
      <trkpt lat="43.86464" lon="1.87984">
        <ele>145.331803</ele>
        <time>2026-08-29T16:55:22Z</time>
      </trkpt>
      <trkpt lat="43.86464" lon="1.87978">
        <ele>145.362636</ele>
        <time>2026-08-29T16:55:23Z</time>
      </trkpt>
      <trkpt lat="43.86465" lon="1.87971">
        <ele>145.393476</ele>
        <time>2026-08-29T16:55:24Z</time>
      </trkpt>
      <trkpt lat="43.86465" lon="1.87964">
        <ele>145.425816</ele>
        <time>2026-08-29T16:55:25Z</time>
      </trkpt>
      <trkpt lat="43.86465" lon="1.87958">
        <ele>145.457137</ele>
        <time>2026-08-29T16:55:26Z</time>
      </trkpt>
      <trkpt lat="43.86465" lon="1.87951">
        <ele>145.486051</ele>
        <time>2026-08-29T16:55:27Z</time>
      </trkpt>
      <trkpt lat="43.86465" lon="1.87945">
        <ele>145.465963</ele>
        <time>2026-08-29T16:55:28Z</time>
      </trkpt>
      <trkpt lat="43.86466" lon="1.87939">
        <ele>145.445524</ele>
        <time>2026-08-29T16:55:29Z</time>
      </trkpt>
      <trkpt lat="43.86466" lon="1.87932">
        <ele>145.425085</ele>
        <time>2026-08-29T16:55:30Z</time>
      </trkpt>
      <trkpt lat="43.86466" lon="1.87926">
        <ele>145.404362</ele>
        <time>2026-08-29T16:55:31Z</time>
      </trkpt>
      <trkpt lat="43.86467" lon="1.87919">
        <ele>145.383829</ele>
        <time>2026-08-29T16:55:32Z</time>
      </trkpt>
      <trkpt lat="43.86467" lon="1.87913">
        <ele>145.363423</ele>
        <time>2026-08-29T16:55:33Z</time>
      </trkpt>
      <trkpt lat="43.86467" lon="1.87906">
        <ele>145.34242</ele>
        <time>2026-08-29T16:55:34Z</time>
      </trkpt>
      <trkpt lat="43.86468" lon="1.879">
        <ele>145.322674</ele>
        <time>2026-08-29T16:55:35Z</time>
      </trkpt>
      <trkpt lat="43.86468" lon="1.87894">
        <ele>145.303563</ele>
        <time>2026-08-29T16:55:36Z</time>
      </trkpt>
      <trkpt lat="43.86468" lon="1.87888">
        <ele>145.283082</ele>
        <time>2026-08-29T16:55:37Z</time>
      </trkpt>
      <trkpt lat="43.86469" lon="1.87882">
        <ele>145.263232</ele>
        <time>2026-08-29T16:55:38Z</time>
      </trkpt>
      <trkpt lat="43.86469" lon="1.87876">
        <ele>145.245711</ele>
        <time>2026-08-29T16:55:39Z</time>
      </trkpt>
      <trkpt lat="43.86469" lon="1.87869">
        <ele>145.223226</ele>
        <time>2026-08-29T16:55:40Z</time>
      </trkpt>
      <trkpt lat="43.86469" lon="1.87863">
        <ele>145.202541</ele>
        <time>2026-08-29T16:55:41Z</time>
      </trkpt>
      <trkpt lat="43.86469" lon="1.87856">
        <ele>145.182174</ele>
        <time>2026-08-29T16:55:42Z</time>
      </trkpt>
      <trkpt lat="43.86469" lon="1.8785">
        <ele>145.161806</ele>
        <time>2026-08-29T16:55:43Z</time>
      </trkpt>
      <trkpt lat="43.86469" lon="1.87843">
        <ele>145.141051</ele>
        <time>2026-08-29T16:55:44Z</time>
      </trkpt>
      <trkpt lat="43.86469" lon="1.87837">
        <ele>145.120963</ele>
        <time>2026-08-29T16:55:45Z</time>
      </trkpt>
      <trkpt lat="43.86468" lon="1.87831">
        <ele>145.101217</ele>
        <time>2026-08-29T16:55:46Z</time>
      </trkpt>
      <trkpt lat="43.86468" lon="1.87825">
        <ele>145.081153</ele>
        <time>2026-08-29T16:55:47Z</time>
      </trkpt>
      <trkpt lat="43.86468" lon="1.87818">
        <ele>145.061065</ele>
        <time>2026-08-29T16:55:48Z</time>
      </trkpt>
      <trkpt lat="43.86467" lon="1.87812">
        <ele>145.042107</ele>
        <time>2026-08-29T16:55:49Z</time>
      </trkpt>
      <trkpt lat="43.86467" lon="1.87806">
        <ele>145.022258</ele>
        <time>2026-08-29T16:55:50Z</time>
      </trkpt>
      <trkpt lat="43.86466" lon="1.878">
        <ele>145.003357</ele>
        <time>2026-08-29T16:55:51Z</time>
      </trkpt>
      <trkpt lat="43.86465" lon="1.87794">
        <ele>144.983318</ele>
        <time>2026-08-29T16:55:52Z</time>
      </trkpt>
      <trkpt lat="43.86465" lon="1.87788">
        <ele>144.963152</ele>
        <time>2026-08-29T16:55:53Z</time>
      </trkpt>
      <trkpt lat="43.86464" lon="1.87782">
        <ele>144.9435</ele>
        <time>2026-08-29T16:55:54Z</time>
      </trkpt>
      <trkpt lat="43.86464" lon="1.87776">
        <ele>144.92573</ele>
        <time>2026-08-29T16:55:55Z</time>
      </trkpt>
      <trkpt lat="43.86463" lon="1.8777">
        <ele>144.907254</ele>
        <time>2026-08-29T16:55:56Z</time>
      </trkpt>
      <trkpt lat="43.86462" lon="1.87765">
        <ele>144.890026</ele>
        <time>2026-08-29T16:55:57Z</time>
      </trkpt>
      <trkpt lat="43.86461" lon="1.8776">
        <ele>144.87302</ele>
        <time>2026-08-29T16:55:58Z</time>
      </trkpt>
      <trkpt lat="43.86461" lon="1.87755">
        <ele>144.857405</ele>
        <time>2026-08-29T16:55:59Z</time>
      </trkpt>
      <trkpt lat="43.86461" lon="1.8775">
        <ele>144.840836</ele>
        <time>2026-08-29T16:56:00Z</time>
      </trkpt>
      <trkpt lat="43.8646" lon="1.87744">
        <ele>144.823767</ele>
        <time>2026-08-29T16:56:01Z</time>
      </trkpt>
      <trkpt lat="43.8646" lon="1.87739">
        <ele>144.806698</ele>
        <time>2026-08-29T16:56:02Z</time>
      </trkpt>
      <trkpt lat="43.86459" lon="1.87734">
        <ele>144.788999</ele>
        <time>2026-08-29T16:56:03Z</time>
      </trkpt>
      <trkpt lat="43.86459" lon="1.87728">
        <ele>144.771728</ele>
        <time>2026-08-29T16:56:04Z</time>
      </trkpt>
      <trkpt lat="43.86458" lon="1.87723">
        <ele>144.754457</ele>
        <time>2026-08-29T16:56:05Z</time>
      </trkpt>
      <trkpt lat="43.86458" lon="1.87717">
        <ele>144.736687</ele>
        <time>2026-08-29T16:56:06Z</time>
      </trkpt>
      <trkpt lat="43.86457" lon="1.87712">
        <ele>144.720081</ele>
        <time>2026-08-29T16:56:07Z</time>
      </trkpt>
      <trkpt lat="43.86456" lon="1.87707">
        <ele>144.702625</ele>
        <time>2026-08-29T16:56:08Z</time>
      </trkpt>
      <trkpt lat="43.86456" lon="1.87701">
        <ele>144.692983</ele>
        <time>2026-08-29T16:56:09Z</time>
      </trkpt>
      <trkpt lat="43.86455" lon="1.87696">
        <ele>144.692382</ele>
        <time>2026-08-29T16:56:10Z</time>
      </trkpt>
      <trkpt lat="43.86455" lon="1.87691">
        <ele>144.691783</ele>
        <time>2026-08-29T16:56:11Z</time>
      </trkpt>
      <trkpt lat="43.86455" lon="1.87685">
        <ele>144.69118</ele>
        <time>2026-08-29T16:56:12Z</time>
      </trkpt>
      <trkpt lat="43.86454" lon="1.8768">
        <ele>144.690601</ele>
        <time>2026-08-29T16:56:13Z</time>
      </trkpt>
      <trkpt lat="43.86453" lon="1.87675">
        <ele>144.690023</ele>
        <time>2026-08-29T16:56:14Z</time>
      </trkpt>
      <trkpt lat="43.86453" lon="1.87669">
        <ele>144.68941</ele>
        <time>2026-08-29T16:56:15Z</time>
      </trkpt>
      <trkpt lat="43.86452" lon="1.87664">
        <ele>144.688769</ele>
        <time>2026-08-29T16:56:16Z</time>
      </trkpt>
      <trkpt lat="43.86452" lon="1.87657">
        <ele>144.688074</ele>
        <time>2026-08-29T16:56:17Z</time>
      </trkpt>
      <trkpt lat="43.86451" lon="1.87651">
        <ele>144.687373</ele>
        <time>2026-08-29T16:56:18Z</time>
      </trkpt>
      <trkpt lat="43.86451" lon="1.87645">
        <ele>144.686725</ele>
        <time>2026-08-29T16:56:19Z</time>
      </trkpt>
      <trkpt lat="43.8645" lon="1.8764">
        <ele>144.686084</ele>
        <time>2026-08-29T16:56:20Z</time>
      </trkpt>
      <trkpt lat="43.86449" lon="1.87634">
        <ele>144.685422</ele>
        <time>2026-08-29T16:56:21Z</time>
      </trkpt>
      <trkpt lat="43.86449" lon="1.87628">
        <ele>144.684739</ele>
        <time>2026-08-29T16:56:22Z</time>
      </trkpt>
      <trkpt lat="43.86448" lon="1.87622">
        <ele>144.68407</ele>
        <time>2026-08-29T16:56:23Z</time>
      </trkpt>
      <trkpt lat="43.86448" lon="1.87616">
        <ele>144.683407</ele>
        <time>2026-08-29T16:56:24Z</time>
      </trkpt>
      <trkpt lat="43.86447" lon="1.8761">
        <ele>144.682755</ele>
        <time>2026-08-29T16:56:25Z</time>
      </trkpt>
      <trkpt lat="43.86446" lon="1.87604">
        <ele>144.682112</ele>
        <time>2026-08-29T16:56:26Z</time>
      </trkpt>
      <trkpt lat="43.86445" lon="1.87599">
        <ele>144.681487</ele>
        <time>2026-08-29T16:56:27Z</time>
      </trkpt>
      <trkpt lat="43.86444" lon="1.87593">
        <ele>144.680861</ele>
        <time>2026-08-29T16:56:28Z</time>
      </trkpt>
      <trkpt lat="43.86444" lon="1.87588">
        <ele>144.680221</ele>
        <time>2026-08-29T16:56:29Z</time>
      </trkpt>
      <trkpt lat="43.86443" lon="1.87582">
        <ele>144.679574</ele>
        <time>2026-08-29T16:56:30Z</time>
      </trkpt>
      <trkpt lat="43.86442" lon="1.87576">
        <ele>144.678937</ele>
        <time>2026-08-29T16:56:31Z</time>
      </trkpt>
      <trkpt lat="43.86442" lon="1.8757">
        <ele>144.678301</ele>
        <time>2026-08-29T16:56:32Z</time>
      </trkpt>
      <trkpt lat="43.86441" lon="1.87565">
        <ele>144.677649</ele>
        <time>2026-08-29T16:56:33Z</time>
      </trkpt>
      <trkpt lat="43.8644" lon="1.87559">
        <ele>144.676995</ele>
        <time>2026-08-29T16:56:34Z</time>
      </trkpt>
      <trkpt lat="43.86439" lon="1.87553">
        <ele>144.67634</ele>
        <time>2026-08-29T16:56:35Z</time>
      </trkpt>
      <trkpt lat="43.86439" lon="1.87547">
        <ele>144.675702</ele>
        <time>2026-08-29T16:56:36Z</time>
      </trkpt>
      <trkpt lat="43.86438" lon="1.87542">
        <ele>144.675052</ele>
        <time>2026-08-29T16:56:37Z</time>
      </trkpt>
      <trkpt lat="43.86438" lon="1.87536">
        <ele>144.674414</ele>
        <time>2026-08-29T16:56:38Z</time>
      </trkpt>
      <trkpt lat="43.86437" lon="1.8753">
        <ele>144.673748</ele>
        <time>2026-08-29T16:56:39Z</time>
      </trkpt>
      <trkpt lat="43.86436" lon="1.87524">
        <ele>144.673102</ele>
        <time>2026-08-29T16:56:40Z</time>
      </trkpt>
      <trkpt lat="43.86436" lon="1.87518">
        <ele>144.672464</ele>
        <time>2026-08-29T16:56:41Z</time>
      </trkpt>
      <trkpt lat="43.86435" lon="1.87513">
        <ele>144.671825</ele>
        <time>2026-08-29T16:56:42Z</time>
      </trkpt>
      <trkpt lat="43.86435" lon="1.87507">
        <ele>144.671176</ele>
        <time>2026-08-29T16:56:43Z</time>
      </trkpt>
      <trkpt lat="43.86434" lon="1.87501">
        <ele>144.670511</ele>
        <time>2026-08-29T16:56:44Z</time>
      </trkpt>
      <trkpt lat="43.86433" lon="1.87495">
        <ele>144.669853</ele>
        <time>2026-08-29T16:56:45Z</time>
      </trkpt>
      <trkpt lat="43.86432" lon="1.87489">
        <ele>144.669174</ele>
        <time>2026-08-29T16:56:46Z</time>
      </trkpt>
      <trkpt lat="43.86431" lon="1.87483">
        <ele>144.668473</ele>
        <time>2026-08-29T16:56:47Z</time>
      </trkpt>
      <trkpt lat="43.8643" lon="1.87477">
        <ele>144.667776</ele>
        <time>2026-08-29T16:56:48Z</time>
      </trkpt>
      <trkpt lat="43.86429" lon="1.87471">
        <ele>144.667093</ele>
        <time>2026-08-29T16:56:49Z</time>
      </trkpt>
      <trkpt lat="43.86428" lon="1.87465">
        <ele>144.666433</ele>
        <time>2026-08-29T16:56:50Z</time>
      </trkpt>
      <trkpt lat="43.86428" lon="1.87459">
        <ele>144.665734</ele>
        <time>2026-08-29T16:56:51Z</time>
      </trkpt>
      <trkpt lat="43.86427" lon="1.87453">
        <ele>144.598354</ele>
        <time>2026-08-29T16:56:52Z</time>
      </trkpt>
      <trkpt lat="43.86426" lon="1.87446">
        <ele>144.514243</ele>
        <time>2026-08-29T16:56:53Z</time>
      </trkpt>
      <trkpt lat="43.86426" lon="1.8744">
        <ele>144.431071</ele>
        <time>2026-08-29T16:56:54Z</time>
      </trkpt>
      <trkpt lat="43.86425" lon="1.87433">
        <ele>144.349774</ele>
        <time>2026-08-29T16:56:55Z</time>
      </trkpt>
      <trkpt lat="43.86425" lon="1.87426">
        <ele>144.264966</ele>
        <time>2026-08-29T16:56:56Z</time>
      </trkpt>
      <trkpt lat="43.86425" lon="1.8742">
        <ele>144.182707</ele>
        <time>2026-08-29T16:56:57Z</time>
      </trkpt>
      <trkpt lat="43.86426" lon="1.87414">
        <ele>144.103755</ele>
        <time>2026-08-29T16:56:58Z</time>
      </trkpt>
      <trkpt lat="43.86426" lon="1.87407">
        <ele>144.021835</ele>
        <time>2026-08-29T16:56:59Z</time>
      </trkpt>
      <trkpt lat="43.86427" lon="1.87401">
        <ele>143.935247</ele>
        <time>2026-08-29T16:57:00Z</time>
      </trkpt>
      <trkpt lat="43.86429" lon="1.87394">
        <ele>143.84767</ele>
        <time>2026-08-29T16:57:01Z</time>
      </trkpt>
      <trkpt lat="43.86431" lon="1.87387">
        <ele>143.756374</ele>
        <time>2026-08-29T16:57:02Z</time>
      </trkpt>
      <trkpt lat="43.86434" lon="1.87381">
        <ele>143.662846</ele>
        <time>2026-08-29T16:57:03Z</time>
      </trkpt>
      <trkpt lat="43.86437" lon="1.87374">
        <ele>143.561771</ele>
        <time>2026-08-29T16:57:04Z</time>
      </trkpt>
      <trkpt lat="43.8644" lon="1.87368">
        <ele>143.458084</ele>
        <time>2026-08-29T16:57:05Z</time>
      </trkpt>
      <trkpt lat="43.86444" lon="1.87361">
        <ele>143.34897</ele>
        <time>2026-08-29T16:57:06Z</time>
      </trkpt>
      <trkpt lat="43.86448" lon="1.87354">
        <ele>143.238718</ele>
        <time>2026-08-29T16:57:07Z</time>
      </trkpt>
      <trkpt lat="43.86453" lon="1.87348">
        <ele>143.124959</ele>
        <time>2026-08-29T16:57:08Z</time>
      </trkpt>
      <trkpt lat="43.86457" lon="1.87341">
        <ele>143.007875</ele>
        <time>2026-08-29T16:57:09Z</time>
      </trkpt>
      <trkpt lat="43.86462" lon="1.87334">
        <ele>142.890791</ele>
        <time>2026-08-29T16:57:10Z</time>
      </trkpt>
      <trkpt lat="43.86466" lon="1.87328">
        <ele>142.777275</ele>
        <time>2026-08-29T16:57:11Z</time>
      </trkpt>
      <trkpt lat="43.8647" lon="1.87321">
        <ele>142.66412</ele>
        <time>2026-08-29T16:57:12Z</time>
      </trkpt>
      <trkpt lat="43.86474" lon="1.87314">
        <ele>142.548085</ele>
        <time>2026-08-29T16:57:13Z</time>
      </trkpt>
      <trkpt lat="43.86478" lon="1.87307">
        <ele>142.437195</ele>
        <time>2026-08-29T16:57:14Z</time>
      </trkpt>
      <trkpt lat="43.86482" lon="1.87299">
        <ele>142.324274</ele>
        <time>2026-08-29T16:57:15Z</time>
      </trkpt>
      <trkpt lat="43.86485" lon="1.87292">
        <ele>142.20908</ele>
        <time>2026-08-29T16:57:16Z</time>
      </trkpt>
      <trkpt lat="43.86489" lon="1.87284">
        <ele>142.098792</ele>
        <time>2026-08-29T16:57:17Z</time>
      </trkpt>
      <trkpt lat="43.86491" lon="1.87276">
        <ele>141.988152</ele>
        <time>2026-08-29T16:57:18Z</time>
      </trkpt>
      <trkpt lat="43.86493" lon="1.87268">
        <ele>141.882785</ele>
        <time>2026-08-29T16:57:19Z</time>
      </trkpt>
      <trkpt lat="43.86495" lon="1.8726">
        <ele>141.77563</ele>
        <time>2026-08-29T16:57:20Z</time>
      </trkpt>
      <trkpt lat="43.86497" lon="1.87252">
        <ele>141.670982</ele>
        <time>2026-08-29T16:57:21Z</time>
      </trkpt>
      <trkpt lat="43.86497" lon="1.87244">
        <ele>141.567936</ele>
        <time>2026-08-29T16:57:22Z</time>
      </trkpt>
      <trkpt lat="43.86498" lon="1.87236">
        <ele>141.499285</ele>
        <time>2026-08-29T16:57:23Z</time>
      </trkpt>
      <trkpt lat="43.86498" lon="1.87228">
        <ele>141.477649</ele>
        <time>2026-08-29T16:57:24Z</time>
      </trkpt>
      <trkpt lat="43.86498" lon="1.87221">
        <ele>141.45634</ele>
        <time>2026-08-29T16:57:25Z</time>
      </trkpt>
      <trkpt lat="43.86498" lon="1.87213">
        <ele>141.43585</ele>
        <time>2026-08-29T16:57:26Z</time>
      </trkpt>
      <trkpt lat="43.86498" lon="1.87206">
        <ele>141.415066</ele>
        <time>2026-08-29T16:57:27Z</time>
      </trkpt>
      <trkpt lat="43.86497" lon="1.87198">
        <ele>141.394577</ele>
        <time>2026-08-29T16:57:28Z</time>
      </trkpt>
      <trkpt lat="43.86497" lon="1.87191">
        <ele>141.37432</ele>
        <time>2026-08-29T16:57:29Z</time>
      </trkpt>
      <trkpt lat="43.86496" lon="1.87184">
        <ele>141.355364</ele>
        <time>2026-08-29T16:57:30Z</time>
      </trkpt>
      <trkpt lat="43.86496" lon="1.87178">
        <ele>141.337002</ele>
        <time>2026-08-29T16:57:31Z</time>
      </trkpt>
      <trkpt lat="43.86495" lon="1.87171">
        <ele>141.318544</ele>
        <time>2026-08-29T16:57:32Z</time>
      </trkpt>
      <trkpt lat="43.86495" lon="1.87165">
        <ele>141.300137</ele>
        <time>2026-08-29T16:57:33Z</time>
      </trkpt>
      <trkpt lat="43.86494" lon="1.87157">
        <ele>141.280309</ele>
        <time>2026-08-29T16:57:34Z</time>
      </trkpt>
      <trkpt lat="43.86493" lon="1.8715">
        <ele>141.260207</ele>
        <time>2026-08-29T16:57:35Z</time>
      </trkpt>
      <trkpt lat="43.86492" lon="1.87143">
        <ele>141.239443</ele>
        <time>2026-08-29T16:57:36Z</time>
      </trkpt>
      <trkpt lat="43.86491" lon="1.87136">
        <ele>141.219698</ele>
        <time>2026-08-29T16:57:37Z</time>
      </trkpt>
      <trkpt lat="43.8649" lon="1.87129">
        <ele>141.20013</ele>
        <time>2026-08-29T16:57:38Z</time>
      </trkpt>
      <trkpt lat="43.86488" lon="1.87122">
        <ele>141.180075</ele>
        <time>2026-08-29T16:57:39Z</time>
      </trkpt>
      <trkpt lat="43.86486" lon="1.87115">
        <ele>141.159638</ele>
        <time>2026-08-29T16:57:40Z</time>
      </trkpt>
      <trkpt lat="43.86485" lon="1.87109">
        <ele>141.140372</ele>
        <time>2026-08-29T16:57:41Z</time>
      </trkpt>
      <trkpt lat="43.86483" lon="1.87102">
        <ele>141.120843</ele>
        <time>2026-08-29T16:57:42Z</time>
      </trkpt>
      <trkpt lat="43.86482" lon="1.87095">
        <ele>141.101431</ele>
        <time>2026-08-29T16:57:43Z</time>
      </trkpt>
      <trkpt lat="43.8648" lon="1.87089">
        <ele>141.083074</ele>
        <time>2026-08-29T16:57:44Z</time>
      </trkpt>
      <trkpt lat="43.86479" lon="1.87083">
        <ele>141.06575</ele>
        <time>2026-08-29T16:57:45Z</time>
      </trkpt>
      <trkpt lat="43.86477" lon="1.87077">
        <ele>141.048682</ele>
        <time>2026-08-29T16:57:46Z</time>
      </trkpt>
      <trkpt lat="43.86475" lon="1.87072">
        <ele>141.032221</ele>
        <time>2026-08-29T16:57:47Z</time>
      </trkpt>
      <trkpt lat="43.86474" lon="1.87066">
        <ele>141.015432</ele>
        <time>2026-08-29T16:57:48Z</time>
      </trkpt>
      <trkpt lat="43.86472" lon="1.87061">
        <ele>140.998507</ele>
        <time>2026-08-29T16:57:49Z</time>
      </trkpt>
      <trkpt lat="43.8647" lon="1.87055">
        <ele>140.981718</ele>
        <time>2026-08-29T16:57:50Z</time>
      </trkpt>
      <trkpt lat="43.86469" lon="1.87049">
        <ele>140.964394</ele>
        <time>2026-08-29T16:57:51Z</time>
      </trkpt>
      <trkpt lat="43.86467" lon="1.87043">
        <ele>140.946355</ele>
        <time>2026-08-29T16:57:52Z</time>
      </trkpt>
      <trkpt lat="43.86465" lon="1.87037">
        <ele>140.927347</ele>
        <time>2026-08-29T16:57:53Z</time>
      </trkpt>
      <trkpt lat="43.86463" lon="1.87031">
        <ele>140.909214</ele>
        <time>2026-08-29T16:57:54Z</time>
      </trkpt>
      <trkpt lat="43.86461" lon="1.87025">
        <ele>140.890574</ele>
        <time>2026-08-29T16:57:55Z</time>
      </trkpt>
      <trkpt lat="43.86459" lon="1.87019">
        <ele>140.873761</ele>
        <time>2026-08-29T16:57:56Z</time>
      </trkpt>
      <trkpt lat="43.86458" lon="1.87014">
        <ele>140.8573</ele>
        <time>2026-08-29T16:57:57Z</time>
      </trkpt>
      <trkpt lat="43.86456" lon="1.87008">
        <ele>140.84134</ele>
        <time>2026-08-29T16:57:58Z</time>
      </trkpt>
      <trkpt lat="43.86454" lon="1.87004">
        <ele>140.826542</ele>
        <time>2026-08-29T16:57:59Z</time>
      </trkpt>
      <trkpt lat="43.86452" lon="1.86999">
        <ele>140.821603</ele>
        <time>2026-08-29T16:58:00Z</time>
      </trkpt>
      <trkpt lat="43.86451" lon="1.86994">
        <ele>140.829719</ele>
        <time>2026-08-29T16:58:01Z</time>
      </trkpt>
      <trkpt lat="43.86449" lon="1.86989">
        <ele>140.837918</ele>
        <time>2026-08-29T16:58:02Z</time>
      </trkpt>
      <trkpt lat="43.86447" lon="1.86983">
        <ele>140.846228</ele>
        <time>2026-08-29T16:58:03Z</time>
      </trkpt>
      <trkpt lat="43.86446" lon="1.86978">
        <ele>140.854296</ele>
        <time>2026-08-29T16:58:04Z</time>
      </trkpt>
      <trkpt lat="43.86444" lon="1.86973">
        <ele>140.86254</ele>
        <time>2026-08-29T16:58:05Z</time>
      </trkpt>
      <trkpt lat="43.86442" lon="1.86968">
        <ele>140.870529</ele>
        <time>2026-08-29T16:58:06Z</time>
      </trkpt>
      <trkpt lat="43.8644" lon="1.86963">
        <ele>140.878426</ele>
        <time>2026-08-29T16:58:07Z</time>
      </trkpt>
      <trkpt lat="43.86439" lon="1.86958">
        <ele>140.886469</ele>
        <time>2026-08-29T16:58:08Z</time>
      </trkpt>
      <trkpt lat="43.86437" lon="1.86953">
        <ele>140.894799</ele>
        <time>2026-08-29T16:58:09Z</time>
      </trkpt>
      <trkpt lat="43.86435" lon="1.86947">
        <ele>140.903427</ele>
        <time>2026-08-29T16:58:10Z</time>
      </trkpt>
      <trkpt lat="43.86433" lon="1.86942">
        <ele>140.911543</ele>
        <time>2026-08-29T16:58:11Z</time>
      </trkpt>
      <trkpt lat="43.86431" lon="1.86937">
        <ele>140.91944</ele>
        <time>2026-08-29T16:58:12Z</time>
      </trkpt>
      <trkpt lat="43.86429" lon="1.86932">
        <ele>140.927594</ele>
        <time>2026-08-29T16:58:13Z</time>
      </trkpt>
      <trkpt lat="43.86428" lon="1.86927">
        <ele>140.935584</ele>
        <time>2026-08-29T16:58:14Z</time>
      </trkpt>
      <trkpt lat="43.86426" lon="1.86922">
        <ele>140.944047</ele>
        <time>2026-08-29T16:58:15Z</time>
      </trkpt>
      <trkpt lat="43.86424" lon="1.86917">
        <ele>140.952637</ele>
        <time>2026-08-29T16:58:16Z</time>
      </trkpt>
      <trkpt lat="43.86422" lon="1.86912">
        <ele>140.961009</ele>
        <time>2026-08-29T16:58:17Z</time>
      </trkpt>
      <trkpt lat="43.8642" lon="1.86906">
        <ele>140.969552</ele>
        <time>2026-08-29T16:58:18Z</time>
      </trkpt>
      <trkpt lat="43.86418" lon="1.86901">
        <ele>140.978051</ele>
        <time>2026-08-29T16:58:19Z</time>
      </trkpt>
      <trkpt lat="43.86416" lon="1.86896">
        <ele>140.98668</ele>
        <time>2026-08-29T16:58:20Z</time>
      </trkpt>
      <trkpt lat="43.86414" lon="1.86891">
        <ele>140.995114</ele>
        <time>2026-08-29T16:58:21Z</time>
      </trkpt>
      <trkpt lat="43.86412" lon="1.86885">
        <ele>141.003397</ele>
        <time>2026-08-29T16:58:22Z</time>
      </trkpt>
      <trkpt lat="43.8641" lon="1.8688">
        <ele>141.011734</ele>
        <time>2026-08-29T16:58:23Z</time>
      </trkpt>
      <trkpt lat="43.86408" lon="1.86875">
        <ele>141.020277</ele>
        <time>2026-08-29T16:58:24Z</time>
      </trkpt>
      <trkpt lat="43.86406" lon="1.86869">
        <ele>141.028905</ele>
        <time>2026-08-29T16:58:25Z</time>
      </trkpt>
      <trkpt lat="43.86405" lon="1.86864">
        <ele>141.03771</ele>
        <time>2026-08-29T16:58:26Z</time>
      </trkpt>
      <trkpt lat="43.86403" lon="1.86858">
        <ele>141.046303</ele>
        <time>2026-08-29T16:58:27Z</time>
      </trkpt>
      <trkpt lat="43.86401" lon="1.86853">
        <ele>141.055294</ele>
        <time>2026-08-29T16:58:28Z</time>
      </trkpt>
      <trkpt lat="43.864" lon="1.86847">
        <ele>141.063944</ele>
        <time>2026-08-29T16:58:29Z</time>
      </trkpt>
      <trkpt lat="43.86398" lon="1.86841">
        <ele>141.072657</ele>
        <time>2026-08-29T16:58:30Z</time>
      </trkpt>
      <trkpt lat="43.86397" lon="1.86836">
        <ele>141.081169</ele>
        <time>2026-08-29T16:58:31Z</time>
      </trkpt>
      <trkpt lat="43.86396" lon="1.8683">
        <ele>141.09011</ele>
        <time>2026-08-29T16:58:32Z</time>
      </trkpt>
      <trkpt lat="43.86394" lon="1.86824">
        <ele>141.099029</ele>
        <time>2026-08-29T16:58:33Z</time>
      </trkpt>
      <trkpt lat="43.86393" lon="1.86818">
        <ele>141.108085</ele>
        <time>2026-08-29T16:58:34Z</time>
      </trkpt>
      <trkpt lat="43.86392" lon="1.86812">
        <ele>141.117027</ele>
        <time>2026-08-29T16:58:35Z</time>
      </trkpt>
      <trkpt lat="43.8639" lon="1.86806">
        <ele>141.126245</ele>
        <time>2026-08-29T16:58:36Z</time>
      </trkpt>
      <trkpt lat="43.8639" lon="1.86799">
        <ele>141.135149</ele>
        <time>2026-08-29T16:58:37Z</time>
      </trkpt>
      <trkpt lat="43.86389" lon="1.86793">
        <ele>141.144552</ele>
        <time>2026-08-29T16:58:38Z</time>
      </trkpt>
      <trkpt lat="43.86387" lon="1.86787">
        <ele>141.153861</ele>
        <time>2026-08-29T16:58:39Z</time>
      </trkpt>
      <trkpt lat="43.86386" lon="1.8678">
        <ele>141.163309</ele>
        <time>2026-08-29T16:58:40Z</time>
      </trkpt>
      <trkpt lat="43.86385" lon="1.86774">
        <ele>141.172713</ele>
        <time>2026-08-29T16:58:41Z</time>
      </trkpt>
      <trkpt lat="43.86384" lon="1.86767">
        <ele>141.099335</ele>
        <time>2026-08-29T16:58:42Z</time>
      </trkpt>
      <trkpt lat="43.86383" lon="1.86761">
        <ele>140.974918</ele>
        <time>2026-08-29T16:58:43Z</time>
      </trkpt>
      <trkpt lat="43.86383" lon="1.86755">
        <ele>140.847263</ele>
        <time>2026-08-29T16:58:44Z</time>
      </trkpt>
      <trkpt lat="43.86382" lon="1.86748">
        <ele>140.713921</ele>
        <time>2026-08-29T16:58:45Z</time>
      </trkpt>
      <trkpt lat="43.86381" lon="1.86741">
        <ele>140.580579</ele>
        <time>2026-08-29T16:58:46Z</time>
      </trkpt>
      <trkpt lat="43.8638" lon="1.86734">
        <ele>140.450007</ele>
        <time>2026-08-29T16:58:47Z</time>
      </trkpt>
      <trkpt lat="43.86379" lon="1.86728">
        <ele>140.325532</ele>
        <time>2026-08-29T16:58:48Z</time>
      </trkpt>
      <trkpt lat="43.86379" lon="1.86722">
        <ele>140.205476</ele>
        <time>2026-08-29T16:58:49Z</time>
      </trkpt>
      <trkpt lat="43.86379" lon="1.86716">
        <ele>140.087068</ele>
        <time>2026-08-29T16:58:50Z</time>
      </trkpt>
      <trkpt lat="43.86378" lon="1.8671">
        <ele>139.970577</ele>
        <time>2026-08-29T16:58:51Z</time>
      </trkpt>
      <trkpt lat="43.86378" lon="1.86704">
        <ele>139.860642</ele>
        <time>2026-08-29T16:58:52Z</time>
      </trkpt>
      <trkpt lat="43.86378" lon="1.86698">
        <ele>139.750707</ele>
        <time>2026-08-29T16:58:53Z</time>
      </trkpt>
      <trkpt lat="43.86379" lon="1.86693">
        <ele>139.642989</ele>
        <time>2026-08-29T16:58:54Z</time>
      </trkpt>
      <trkpt lat="43.8638" lon="1.86688">
        <ele>139.542325</ele>
        <time>2026-08-29T16:58:55Z</time>
      </trkpt>
      <trkpt lat="43.8638" lon="1.86683">
        <ele>139.443382</ele>
        <time>2026-08-29T16:58:56Z</time>
      </trkpt>
      <trkpt lat="43.8638" lon="1.86678">
        <ele>139.352576</ele>
        <time>2026-08-29T16:58:57Z</time>
      </trkpt>
      <trkpt lat="43.86381" lon="1.86673">
        <ele>139.259436</ele>
        <time>2026-08-29T16:58:58Z</time>
      </trkpt>
      <trkpt lat="43.86382" lon="1.86668">
        <ele>139.151718</ele>
        <time>2026-08-29T16:58:59Z</time>
      </trkpt>
      <trkpt lat="43.86383" lon="1.86662">
        <ele>139.035579</ele>
        <time>2026-08-29T16:59:00Z</time>
      </trkpt>
      <trkpt lat="43.86385" lon="1.86656">
        <ele>138.914463</ele>
        <time>2026-08-29T16:59:01Z</time>
      </trkpt>
      <trkpt lat="43.86387" lon="1.8665">
        <ele>138.78653</ele>
        <time>2026-08-29T16:59:02Z</time>
      </trkpt>
      <trkpt lat="43.86388" lon="1.86643">
        <ele>138.652119</ele>
        <time>2026-08-29T16:59:03Z</time>
      </trkpt>
      <trkpt lat="43.86389" lon="1.86635">
        <ele>138.495218</ele>
        <time>2026-08-29T16:59:04Z</time>
      </trkpt>
      <trkpt lat="43.86391" lon="1.86627">
        <ele>138.33251</ele>
        <time>2026-08-29T16:59:05Z</time>
      </trkpt>
      <trkpt lat="43.86393" lon="1.86619">
        <ele>138.1556</ele>
        <time>2026-08-29T16:59:06Z</time>
      </trkpt>
      <trkpt lat="43.86395" lon="1.8661">
        <ele>137.969618</ele>
        <time>2026-08-29T16:59:07Z</time>
      </trkpt>
      <trkpt lat="43.86398" lon="1.86599">
        <ele>137.764279</ele>
        <time>2026-08-29T16:59:08Z</time>
      </trkpt>
      <trkpt lat="43.864" lon="1.86589">
        <ele>137.543814</ele>
        <time>2026-08-29T16:59:09Z</time>
      </trkpt>
      <trkpt lat="43.86403" lon="1.86577">
        <ele>137.309757</ele>
        <time>2026-08-29T16:59:10Z</time>
      </trkpt>
      <trkpt lat="43.86406" lon="1.86566">
        <ele>137.071156</ele>
        <time>2026-08-29T16:59:11Z</time>
      </trkpt>
      <trkpt lat="43.8641" lon="1.86554">
        <ele>136.82981</ele>
        <time>2026-08-29T16:59:12Z</time>
      </trkpt>
      <trkpt lat="43.86413" lon="1.86542">
        <ele>136.575567</ele>
        <time>2026-08-29T16:59:13Z</time>
      </trkpt>
      <trkpt lat="43.86417" lon="1.86529">
        <ele>136.279804</ele>
        <time>2026-08-29T16:59:14Z</time>
      </trkpt>
      <trkpt lat="43.8642" lon="1.86516">
        <ele>135.779707</ele>
        <time>2026-08-29T16:59:15Z</time>
      </trkpt>
      <trkpt lat="43.86422" lon="1.86503">
        <ele>135.272873</ele>
        <time>2026-08-29T16:59:16Z</time>
      </trkpt>
      <trkpt lat="43.86425" lon="1.86489">
        <ele>134.768883</ele>
        <time>2026-08-29T16:59:17Z</time>
      </trkpt>
      <trkpt lat="43.86428" lon="1.86476">
        <ele>134.265552</ele>
        <time>2026-08-29T16:59:18Z</time>
      </trkpt>
      <trkpt lat="43.86429" lon="1.86463">
        <ele>133.773691</ele>
        <time>2026-08-29T16:59:19Z</time>
      </trkpt>
      <trkpt lat="43.8643" lon="1.86449">
        <ele>133.295323</ele>
        <time>2026-08-29T16:59:20Z</time>
      </trkpt>
      <trkpt lat="43.86431" lon="1.86436">
        <ele>132.811969</ele>
        <time>2026-08-29T16:59:21Z</time>
      </trkpt>
      <trkpt lat="43.86431" lon="1.86423">
        <ele>132.343823</ele>
        <time>2026-08-29T16:59:22Z</time>
      </trkpt>
      <trkpt lat="43.8643" lon="1.8641">
        <ele>131.866515</ele>
        <time>2026-08-29T16:59:23Z</time>
      </trkpt>
      <trkpt lat="43.86429" lon="1.86397">
        <ele>131.397656</ele>
        <time>2026-08-29T16:59:24Z</time>
      </trkpt>
      <trkpt lat="43.86427" lon="1.86385">
        <ele>130.930094</ele>
        <time>2026-08-29T16:59:25Z</time>
      </trkpt>
      <trkpt lat="43.86427" lon="1.86372">
        <ele>130.482143</ele>
        <time>2026-08-29T16:59:26Z</time>
      </trkpt>
      <trkpt lat="43.86426" lon="1.8636">
        <ele>130.045463</ele>
        <time>2026-08-29T16:59:27Z</time>
      </trkpt>
      <trkpt lat="43.86426" lon="1.86348">
        <ele>129.617193</ele>
        <time>2026-08-29T16:59:28Z</time>
      </trkpt>
      <trkpt lat="43.86426" lon="1.86337">
        <ele>129.207294</ele>
        <time>2026-08-29T16:59:29Z</time>
      </trkpt>
      <trkpt lat="43.86425" lon="1.86326">
        <ele>128.786515</ele>
        <time>2026-08-29T16:59:30Z</time>
      </trkpt>
      <trkpt lat="43.86425" lon="1.86315">
        <ele>128.394654</ele>
        <time>2026-08-29T16:59:31Z</time>
      </trkpt>
      <trkpt lat="43.86425" lon="1.86304">
        <ele>127.99554</ele>
        <time>2026-08-29T16:59:32Z</time>
      </trkpt>
      <trkpt lat="43.86425" lon="1.86293">
        <ele>127.607435</ele>
        <time>2026-08-29T16:59:33Z</time>
      </trkpt>
      <trkpt lat="43.86425" lon="1.86283">
        <ele>127.298855</ele>
        <time>2026-08-29T16:59:34Z</time>
      </trkpt>
      <trkpt lat="43.86425" lon="1.86273">
        <ele>127.220235</ele>
        <time>2026-08-29T16:59:35Z</time>
      </trkpt>
      <trkpt lat="43.86425" lon="1.86263">
        <ele>127.14322</ele>
        <time>2026-08-29T16:59:36Z</time>
      </trkpt>
      <trkpt lat="43.86425" lon="1.86254">
        <ele>127.06541</ele>
        <time>2026-08-29T16:59:37Z</time>
      </trkpt>
      <trkpt lat="43.86425" lon="1.86244">
        <ele>126.988371</ele>
        <time>2026-08-29T16:59:38Z</time>
      </trkpt>
      <trkpt lat="43.86426" lon="1.86235">
        <ele>126.912894</ele>
        <time>2026-08-29T16:59:39Z</time>
      </trkpt>
      <trkpt lat="43.86426" lon="1.86225">
        <ele>126.837417</ele>
        <time>2026-08-29T16:59:40Z</time>
      </trkpt>
      <trkpt lat="43.86426" lon="1.86216">
        <ele>126.766016</ele>
        <time>2026-08-29T16:59:41Z</time>
      </trkpt>
      <trkpt lat="43.86426" lon="1.86208">
        <ele>126.694615</ele>
        <time>2026-08-29T16:59:42Z</time>
      </trkpt>
      <trkpt lat="43.86426" lon="1.86199">
        <ele>126.622421</ele>
        <time>2026-08-29T16:59:43Z</time>
      </trkpt>
      <trkpt lat="43.86426" lon="1.8619">
        <ele>126.551752</ele>
        <time>2026-08-29T16:59:44Z</time>
      </trkpt>
      <trkpt lat="43.86426" lon="1.86181">
        <ele>126.484361</ele>
        <time>2026-08-29T16:59:45Z</time>
      </trkpt>
      <trkpt lat="43.86427" lon="1.86173">
        <ele>126.416169</ele>
        <time>2026-08-29T16:59:46Z</time>
      </trkpt>
      <trkpt lat="43.86427" lon="1.86164">
        <ele>126.347976</ele>
        <time>2026-08-29T16:59:47Z</time>
      </trkpt>
      <trkpt lat="43.86427" lon="1.86156">
        <ele>126.282991</ele>
        <time>2026-08-29T16:59:48Z</time>
      </trkpt>
      <trkpt lat="43.86427" lon="1.86148">
        <ele>126.218819</ele>
        <time>2026-08-29T16:59:49Z</time>
      </trkpt>
      <trkpt lat="43.86427" lon="1.8614">
        <ele>126.155409</ele>
        <time>2026-08-29T16:59:50Z</time>
      </trkpt>
      <trkpt lat="43.86427" lon="1.86133">
        <ele>126.092831</ele>
        <time>2026-08-29T16:59:51Z</time>
      </trkpt>
      <trkpt lat="43.86427" lon="1.86125">
        <ele>126.030173</ele>
        <time>2026-08-29T16:59:52Z</time>
      </trkpt>
      <trkpt lat="43.86427" lon="1.86117">
        <ele>125.968367</ele>
        <time>2026-08-29T16:59:53Z</time>
      </trkpt>
      <trkpt lat="43.86428" lon="1.8611">
        <ele>125.909714</ele>
        <time>2026-08-29T16:59:54Z</time>
      </trkpt>
      <trkpt lat="43.86428" lon="1.86103">
        <ele>125.851862</ele>
        <time>2026-08-29T16:59:55Z</time>
      </trkpt>
      <trkpt lat="43.86428" lon="1.86095">
        <ele>125.794107</ele>
        <time>2026-08-29T16:59:56Z</time>
      </trkpt>
      <trkpt lat="43.86428" lon="1.86088">
        <ele>125.734747</ele>
        <time>2026-08-29T16:59:57Z</time>
      </trkpt>
      <trkpt lat="43.86428" lon="1.8608">
        <ele>125.674575</ele>
        <time>2026-08-29T16:59:58Z</time>
      </trkpt>
      <trkpt lat="43.86428" lon="1.86073">
        <ele>125.611194</ele>
        <time>2026-08-29T16:59:59Z</time>
      </trkpt>
      <trkpt lat="43.86427" lon="1.86065">
        <ele>125.547668</ele>
        <time>2026-08-29T17:00:00Z</time>
      </trkpt>
      <trkpt lat="43.86427" lon="1.86057">
        <ele>125.483485</ele>
        <time>2026-08-29T17:00:01Z</time>
      </trkpt>
      <trkpt lat="43.86427" lon="1.86049">
        <ele>125.419274</ele>
        <time>2026-08-29T17:00:02Z</time>
      </trkpt>
      <trkpt lat="43.86427" lon="1.86041">
        <ele>125.355815</ele>
        <time>2026-08-29T17:00:03Z</time>
      </trkpt>
      <trkpt lat="43.86426" lon="1.86033">
        <ele>125.37692</ele>
        <time>2026-08-29T17:00:04Z</time>
      </trkpt>
      <trkpt lat="43.86426" lon="1.86025">
        <ele>125.568905</ele>
        <time>2026-08-29T17:00:05Z</time>
      </trkpt>
      <trkpt lat="43.86426" lon="1.86017">
        <ele>125.765507</ele>
        <time>2026-08-29T17:00:06Z</time>
      </trkpt>
      <trkpt lat="43.86426" lon="1.86009">
        <ele>125.966933</ele>
        <time>2026-08-29T17:00:07Z</time>
      </trkpt>
      <trkpt lat="43.86426" lon="1.86001">
        <ele>126.165962</ele>
        <time>2026-08-29T17:00:08Z</time>
      </trkpt>
      <trkpt lat="43.86426" lon="1.85992">
        <ele>126.365218</ele>
        <time>2026-08-29T17:00:09Z</time>
      </trkpt>
      <trkpt lat="43.86425" lon="1.85984">
        <ele>126.564672</ele>
        <time>2026-08-29T17:00:10Z</time>
      </trkpt>
      <trkpt lat="43.86425" lon="1.85976">
        <ele>126.75651</ele>
        <time>2026-08-29T17:00:11Z</time>
      </trkpt>
      <trkpt lat="43.86425" lon="1.85969">
        <ele>126.934179</ele>
        <time>2026-08-29T17:00:12Z</time>
      </trkpt>
      <trkpt lat="43.86424" lon="1.85962">
        <ele>127.114897</ele>
        <time>2026-08-29T17:00:13Z</time>
      </trkpt>
      <trkpt lat="43.86424" lon="1.85954">
        <ele>127.297406</ele>
        <time>2026-08-29T17:00:14Z</time>
      </trkpt>
      <trkpt lat="43.86423" lon="1.85947">
        <ele>127.472656</ele>
        <time>2026-08-29T17:00:15Z</time>
      </trkpt>
      <trkpt lat="43.86423" lon="1.8594">
        <ele>127.63581</ele>
        <time>2026-08-29T17:00:16Z</time>
      </trkpt>
      <trkpt lat="43.86422" lon="1.85934">
        <ele>127.787622</ele>
        <time>2026-08-29T17:00:17Z</time>
      </trkpt>
      <trkpt lat="43.86421" lon="1.85928">
        <ele>127.934059</ele>
        <time>2026-08-29T17:00:18Z</time>
      </trkpt>
      <trkpt lat="43.8642" lon="1.85923">
        <ele>128.074068</ele>
        <time>2026-08-29T17:00:19Z</time>
      </trkpt>
      <trkpt lat="43.86419" lon="1.85917">
        <ele>128.223788</ele>
        <time>2026-08-29T17:00:20Z</time>
      </trkpt>
      <trkpt lat="43.86418" lon="1.85912">
        <ele>128.35629</ele>
        <time>2026-08-29T17:00:21Z</time>
      </trkpt>
      <trkpt lat="43.86417" lon="1.85906">
        <ele>128.486897</ele>
        <time>2026-08-29T17:00:22Z</time>
      </trkpt>
      <trkpt lat="43.86415" lon="1.85902">
        <ele>128.609128</ele>
        <time>2026-08-29T17:00:23Z</time>
      </trkpt>
      <trkpt lat="43.86414" lon="1.85897">
        <ele>128.723405</ele>
        <time>2026-08-29T17:00:24Z</time>
      </trkpt>
      <trkpt lat="43.86414" lon="1.85893">
        <ele>128.827415</ele>
        <time>2026-08-29T17:00:25Z</time>
      </trkpt>
      <trkpt lat="43.86412" lon="1.85889">
        <ele>128.924542</ele>
        <time>2026-08-29T17:00:26Z</time>
      </trkpt>
      <trkpt lat="43.86412" lon="1.85886">
        <ele>129.010166</ele>
        <time>2026-08-29T17:00:27Z</time>
      </trkpt>
      <trkpt lat="43.8641" lon="1.85883">
        <ele>129.081242</ele>
        <time>2026-08-29T17:00:28Z</time>
      </trkpt>
      <trkpt lat="43.8641" lon="1.85881">
        <ele>129.152084</ele>
        <time>2026-08-29T17:00:29Z</time>
      </trkpt>
      <trkpt lat="43.86409" lon="1.85878">
        <ele>129.23094</ele>
        <time>2026-08-29T17:00:30Z</time>
      </trkpt>
      <trkpt lat="43.86408" lon="1.85875">
        <ele>129.298211</ele>
        <time>2026-08-29T17:00:31Z</time>
      </trkpt>
      <trkpt lat="43.86407" lon="1.85873">
        <ele>129.346246</ele>
        <time>2026-08-29T17:00:32Z</time>
      </trkpt>
      <trkpt lat="43.86407" lon="1.85873">
        <ele>129.37382</ele>
        <time>2026-08-29T17:00:33Z</time>
      </trkpt>
      <trkpt lat="43.86407" lon="1.85873">
        <ele>129.382119</ele>
        <time>2026-08-29T17:00:34Z</time>
      </trkpt>
      <trkpt lat="43.86407" lon="1.85872">
        <ele>129.39014</ele>
        <time>2026-08-29T17:00:35Z</time>
      </trkpt>
      <trkpt lat="43.86367" lon="1.85802">
        <ele>131.579705</ele>
        <time>2026-08-29T17:01:34Z</time>
      </trkpt>
      <trkpt lat="43.86366" lon="1.858">
        <ele>131.632463</ele>
        <time>2026-08-29T17:01:35Z</time>
      </trkpt>
      <trkpt lat="43.86365" lon="1.85799">
        <ele>131.672202</ele>
        <time>2026-08-29T17:01:36Z</time>
      </trkpt>
      <trkpt lat="43.86365" lon="1.85798">
        <ele>131.715369</ele>
        <time>2026-08-29T17:01:37Z</time>
      </trkpt>
      <trkpt lat="43.86364" lon="1.85797">
        <ele>131.75422</ele>
        <time>2026-08-29T17:01:38Z</time>
      </trkpt>
      <trkpt lat="43.86363" lon="1.85796">
        <ele>131.788832</ele>
        <time>2026-08-29T17:01:39Z</time>
      </trkpt>
      <trkpt lat="43.86363" lon="1.85794">
        <ele>131.836812</ele>
        <time>2026-08-29T17:01:40Z</time>
      </trkpt>
      <trkpt lat="43.86362" lon="1.85792">
        <ele>131.894444</ele>
        <time>2026-08-29T17:01:41Z</time>
      </trkpt>
      <trkpt lat="43.86361" lon="1.85791">
        <ele>131.946361</ele>
        <time>2026-08-29T17:01:42Z</time>
      </trkpt>
      <trkpt lat="43.86361" lon="1.85789">
        <ele>131.998163</ele>
        <time>2026-08-29T17:01:43Z</time>
      </trkpt>
      <trkpt lat="43.8636" lon="1.85788">
        <ele>132.039728</ele>
        <time>2026-08-29T17:01:44Z</time>
      </trkpt>
      <trkpt lat="43.86359" lon="1.85786">
        <ele>132.078579</ele>
        <time>2026-08-29T17:01:45Z</time>
      </trkpt>
      <trkpt lat="43.86359" lon="1.85785">
        <ele>132.115275</ele>
        <time>2026-08-29T17:01:46Z</time>
      </trkpt>
      <trkpt lat="43.86358" lon="1.85784">
        <ele>132.156843</ele>
        <time>2026-08-29T17:01:47Z</time>
      </trkpt>
      <trkpt lat="43.86357" lon="1.85783">
        <ele>132.20001</ele>
        <time>2026-08-29T17:01:48Z</time>
      </trkpt>
      <trkpt lat="43.86356" lon="1.85782">
        <ele>132.244274</ele>
        <time>2026-08-29T17:01:49Z</time>
      </trkpt>
      <trkpt lat="43.86356" lon="1.8578">
        <ele>132.293912</ele>
        <time>2026-08-29T17:01:50Z</time>
      </trkpt>
      <trkpt lat="43.86355" lon="1.85779">
        <ele>132.332763</ele>
        <time>2026-08-29T17:01:51Z</time>
      </trkpt>
      <trkpt lat="43.86355" lon="1.85778">
        <ele>132.366554</ele>
        <time>2026-08-29T17:01:52Z</time>
      </trkpt>
      <trkpt lat="43.86354" lon="1.85777">
        <ele>132.397842</ele>
        <time>2026-08-29T17:01:53Z</time>
      </trkpt>
      <trkpt lat="43.86354" lon="1.85776">
        <ele>132.430619</ele>
        <time>2026-08-29T17:01:54Z</time>
      </trkpt>
      <trkpt lat="43.86354" lon="1.85775">
        <ele>132.463395</ele>
        <time>2026-08-29T17:01:55Z</time>
      </trkpt>
      <trkpt lat="43.86353" lon="1.85773">
        <ele>132.498567</ele>
        <time>2026-08-29T17:01:56Z</time>
      </trkpt>
      <trkpt lat="43.86353" lon="1.85772">
        <ele>132.528992</ele>
        <time>2026-08-29T17:01:57Z</time>
      </trkpt>
      <trkpt lat="43.86352" lon="1.85771">
        <ele>132.568731</ele>
        <time>2026-08-29T17:01:58Z</time>
      </trkpt>
      <trkpt lat="43.86351" lon="1.8577">
        <ele>132.614798</ele>
        <time>2026-08-29T17:01:59Z</time>
      </trkpt>
      <trkpt lat="43.8635" lon="1.85769">
        <ele>132.660865</ele>
        <time>2026-08-29T17:02:00Z</time>
      </trkpt>
      <trkpt lat="43.86349" lon="1.85768">
        <ele>132.710766</ele>
        <time>2026-08-29T17:02:01Z</time>
      </trkpt>
      <trkpt lat="43.86349" lon="1.85766">
        <ele>132.749966</ele>
        <time>2026-08-29T17:02:02Z</time>
      </trkpt>
      <trkpt lat="43.86348" lon="1.85765">
        <ele>132.797502</ele>
        <time>2026-08-29T17:02:03Z</time>
      </trkpt>
      <trkpt lat="43.86347" lon="1.85763">
        <ele>132.842829</ele>
        <time>2026-08-29T17:02:04Z</time>
      </trkpt>
      <trkpt lat="43.86347" lon="1.85762">
        <ele>132.89262</ele>
        <time>2026-08-29T17:02:05Z</time>
      </trkpt>
      <trkpt lat="43.86346" lon="1.8576">
        <ele>132.940156</ele>
        <time>2026-08-29T17:02:06Z</time>
      </trkpt>
      <trkpt lat="43.86345" lon="1.85759">
        <ele>132.985793</ele>
        <time>2026-08-29T17:02:07Z</time>
      </trkpt>
      <trkpt lat="43.86345" lon="1.85757">
        <ele>133.029123</ele>
        <time>2026-08-29T17:02:08Z</time>
      </trkpt>
      <trkpt lat="43.86344" lon="1.85756">
        <ele>133.072453</ele>
        <time>2026-08-29T17:02:09Z</time>
      </trkpt>
      <trkpt lat="43.86344" lon="1.85755">
        <ele>133.113519</ele>
        <time>2026-08-29T17:02:10Z</time>
      </trkpt>
      <trkpt lat="43.86343" lon="1.85753">
        <ele>133.161045</ele>
        <time>2026-08-29T17:02:11Z</time>
      </trkpt>
      <trkpt lat="43.86342" lon="1.85752">
        <ele>133.204212</ele>
        <time>2026-08-29T17:02:12Z</time>
      </trkpt>
      <trkpt lat="43.86341" lon="1.85751">
        <ele>133.240908</ele>
        <time>2026-08-29T17:02:13Z</time>
      </trkpt>
      <trkpt lat="43.86341" lon="1.8575">
        <ele>133.280107</ele>
        <time>2026-08-29T17:02:14Z</time>
      </trkpt>
      <trkpt lat="43.8634" lon="1.85748">
        <ele>133.319306</ele>
        <time>2026-08-29T17:02:15Z</time>
      </trkpt>
      <trkpt lat="43.8634" lon="1.85747">
        <ele>133.364943</ele>
        <time>2026-08-29T17:02:16Z</time>
      </trkpt>
      <trkpt lat="43.86339" lon="1.85745">
        <ele>133.41058</ele>
        <time>2026-08-29T17:02:17Z</time>
      </trkpt>
      <trkpt lat="43.86339" lon="1.85744">
        <ele>133.452146</ele>
        <time>2026-08-29T17:02:18Z</time>
      </trkpt>
      <trkpt lat="43.86338" lon="1.85743">
        <ele>133.496111</ele>
        <time>2026-08-29T17:02:19Z</time>
      </trkpt>
      <trkpt lat="43.86338" lon="1.85741">
        <ele>133.542505</ele>
        <time>2026-08-29T17:02:20Z</time>
      </trkpt>
      <trkpt lat="43.86337" lon="1.85739">
        <ele>133.592616</ele>
        <time>2026-08-29T17:02:21Z</time>
      </trkpt>
      <trkpt lat="43.86337" lon="1.85738">
        <ele>133.63767</ele>
        <time>2026-08-29T17:02:22Z</time>
      </trkpt>
      <trkpt lat="43.86337" lon="1.85736">
        <ele>133.682724</ele>
        <time>2026-08-29T17:02:23Z</time>
      </trkpt>
      <trkpt lat="43.86336" lon="1.85735">
        <ele>133.72158</ele>
        <time>2026-08-29T17:02:24Z</time>
      </trkpt>
      <trkpt lat="43.86336" lon="1.85733">
        <ele>133.765546</ele>
        <time>2026-08-29T17:02:25Z</time>
      </trkpt>
      <trkpt lat="43.86335" lon="1.85732">
        <ele>133.802419</ele>
        <time>2026-08-29T17:02:26Z</time>
      </trkpt>
      <trkpt lat="43.86335" lon="1.8573">
        <ele>133.846385</ele>
        <time>2026-08-29T17:02:27Z</time>
      </trkpt>
      <trkpt lat="43.86334" lon="1.85729">
        <ele>133.885584</ele>
        <time>2026-08-29T17:02:28Z</time>
      </trkpt>
      <trkpt lat="43.86334" lon="1.85728">
        <ele>133.933121</ele>
        <time>2026-08-29T17:02:29Z</time>
      </trkpt>
      <trkpt lat="43.86333" lon="1.85726">
        <ele>133.974186</ele>
        <time>2026-08-29T17:02:30Z</time>
      </trkpt>
      <trkpt lat="43.86332" lon="1.85725">
        <ele>134.010882</ele>
        <time>2026-08-29T17:02:31Z</time>
      </trkpt>
      <trkpt lat="43.86332" lon="1.85724">
        <ele>134.047756</ele>
        <time>2026-08-29T17:02:32Z</time>
      </trkpt>
      <trkpt lat="43.86331" lon="1.85722">
        <ele>134.091721</ele>
        <time>2026-08-29T17:02:33Z</time>
      </trkpt>
      <trkpt lat="43.86331" lon="1.85721">
        <ele>134.13092</ele>
        <time>2026-08-29T17:02:34Z</time>
      </trkpt>
      <trkpt lat="43.86331" lon="1.8572">
        <ele>134.169777</ele>
        <time>2026-08-29T17:02:35Z</time>
      </trkpt>
      <trkpt lat="43.8633" lon="1.85718">
        <ele>134.204559</ele>
        <time>2026-08-29T17:02:36Z</time>
      </trkpt>
      <trkpt lat="43.8633" lon="1.85718">
        <ele>134.228786</ele>
        <time>2026-08-29T17:02:37Z</time>
      </trkpt>
      <trkpt lat="43.8633" lon="1.85718">
        <ele>134.233335</ele>
        <time>2026-08-29T17:02:38Z</time>
      </trkpt>
      <trkpt lat="43.8633" lon="1.85718">
        <ele>134.235996</ele>
        <time>2026-08-29T17:02:39Z</time>
      </trkpt>
      <trkpt lat="43.86327" lon="1.85709">
        <ele>134.502435</ele>
        <time>2026-08-29T17:03:09Z</time>
      </trkpt>
      <trkpt lat="43.86325" lon="1.85706">
        <ele>134.589614</ele>
        <time>2026-08-29T17:03:10Z</time>
      </trkpt>
      <trkpt lat="43.86324" lon="1.85704">
        <ele>134.670369</ele>
        <time>2026-08-29T17:03:11Z</time>
      </trkpt>
      <trkpt lat="43.86324" lon="1.85701">
        <ele>134.739991</ele>
        <time>2026-08-29T17:03:12Z</time>
      </trkpt>
      <trkpt lat="43.86323" lon="1.85699">
        <ele>134.819129</ele>
        <time>2026-08-29T17:03:13Z</time>
      </trkpt>
      <trkpt lat="43.86322" lon="1.85696">
        <ele>134.90226</ele>
        <time>2026-08-29T17:03:14Z</time>
      </trkpt>
      <trkpt lat="43.86321" lon="1.85694">
        <ele>134.967814</ele>
        <time>2026-08-29T17:03:15Z</time>
      </trkpt>
      <trkpt lat="43.8632" lon="1.85691">
        <ele>135.049176</ele>
        <time>2026-08-29T17:03:16Z</time>
      </trkpt>
      <trkpt lat="43.86319" lon="1.85688">
        <ele>135.137107</ele>
        <time>2026-08-29T17:03:17Z</time>
      </trkpt>
      <trkpt lat="43.86318" lon="1.85685">
        <ele>135.215951</ele>
        <time>2026-08-29T17:03:18Z</time>
      </trkpt>
      <trkpt lat="43.86317" lon="1.85681">
        <ele>135.313644</ele>
        <time>2026-08-29T17:03:19Z</time>
      </trkpt>
      <trkpt lat="43.86317" lon="1.85678">
        <ele>135.415015</ele>
        <time>2026-08-29T17:03:20Z</time>
      </trkpt>
      <trkpt lat="43.86315" lon="1.85675">
        <ele>135.511739</ele>
        <time>2026-08-29T17:03:21Z</time>
      </trkpt>
      <trkpt lat="43.86314" lon="1.85671">
        <ele>135.613318</ele>
        <time>2026-08-29T17:03:22Z</time>
      </trkpt>
      <trkpt lat="43.86313" lon="1.85667">
        <ele>135.714689</ele>
        <time>2026-08-29T17:03:23Z</time>
      </trkpt>
      <trkpt lat="43.86313" lon="1.85664">
        <ele>135.821102</ele>
        <time>2026-08-29T17:03:24Z</time>
      </trkpt>
      <trkpt lat="43.86312" lon="1.8566">
        <ele>135.921263</ele>
        <time>2026-08-29T17:03:25Z</time>
      </trkpt>
      <trkpt lat="43.8631" lon="1.85657">
        <ele>136.017987</ele>
        <time>2026-08-29T17:03:26Z</time>
      </trkpt>
      <trkpt lat="43.86309" lon="1.85653">
        <ele>136.123504</ele>
        <time>2026-08-29T17:03:27Z</time>
      </trkpt>
      <trkpt lat="43.86308" lon="1.8565">
        <ele>136.226144</ele>
        <time>2026-08-29T17:03:28Z</time>
      </trkpt>
      <trkpt lat="43.86307" lon="1.85646">
        <ele>136.327515</ele>
        <time>2026-08-29T17:03:29Z</time>
      </trkpt>
      <trkpt lat="43.86306" lon="1.85643">
        <ele>136.425208</ele>
        <time>2026-08-29T17:03:30Z</time>
      </trkpt>
      <trkpt lat="43.86306" lon="1.85639">
        <ele>136.525431</ele>
        <time>2026-08-29T17:03:31Z</time>
      </trkpt>
      <trkpt lat="43.86305" lon="1.85635">
        <ele>136.625654</ele>
        <time>2026-08-29T17:03:32Z</time>
      </trkpt>
      <trkpt lat="43.86304" lon="1.85632">
        <ele>136.728422</ele>
        <time>2026-08-29T17:03:33Z</time>
      </trkpt>
      <trkpt lat="43.86303" lon="1.85628">
        <ele>136.832311</ele>
        <time>2026-08-29T17:03:34Z</time>
      </trkpt>
      <trkpt lat="43.86302" lon="1.85624">
        <ele>136.9362</ele>
        <time>2026-08-29T17:03:35Z</time>
      </trkpt>
      <trkpt lat="43.86301" lon="1.85621">
        <ele>137.042613</ele>
        <time>2026-08-29T17:03:36Z</time>
      </trkpt>
      <trkpt lat="43.863" lon="1.85617">
        <ele>137.152737</ele>
        <time>2026-08-29T17:03:37Z</time>
      </trkpt>
      <trkpt lat="43.86299" lon="1.85613">
        <ele>137.266634</ele>
        <time>2026-08-29T17:03:38Z</time>
      </trkpt>
      <trkpt lat="43.86298" lon="1.85608">
        <ele>137.384309</ele>
        <time>2026-08-29T17:03:39Z</time>
      </trkpt>
      <trkpt lat="43.86297" lon="1.85604">
        <ele>137.499461</ele>
        <time>2026-08-29T17:03:40Z</time>
      </trkpt>
      <trkpt lat="43.86296" lon="1.856">
        <ele>137.609899</ele>
        <time>2026-08-29T17:03:41Z</time>
      </trkpt>
      <trkpt lat="43.86295" lon="1.85597">
        <ele>137.717837</ele>
        <time>2026-08-29T17:03:42Z</time>
      </trkpt>
      <trkpt lat="43.86294" lon="1.85593">
        <ele>137.831734</ele>
        <time>2026-08-29T17:03:43Z</time>
      </trkpt>
      <trkpt lat="43.86293" lon="1.85589">
        <ele>137.943149</ele>
        <time>2026-08-29T17:03:44Z</time>
      </trkpt>
      <trkpt lat="43.86292" lon="1.85585">
        <ele>138.003314</ele>
        <time>2026-08-29T17:03:45Z</time>
      </trkpt>
      <trkpt lat="43.86291" lon="1.85581">
        <ele>137.996481</ele>
        <time>2026-08-29T17:03:46Z</time>
      </trkpt>
      <trkpt lat="43.8629" lon="1.85576">
        <ele>137.989648</ele>
        <time>2026-08-29T17:03:47Z</time>
      </trkpt>
      <trkpt lat="43.86289" lon="1.85572">
        <ele>137.982668</ele>
        <time>2026-08-29T17:03:48Z</time>
      </trkpt>
      <trkpt lat="43.86287" lon="1.85568">
        <ele>137.975028</ele>
        <time>2026-08-29T17:03:49Z</time>
      </trkpt>
      <trkpt lat="43.86286" lon="1.85563">
        <ele>137.967901</ele>
        <time>2026-08-29T17:03:50Z</time>
      </trkpt>
      <trkpt lat="43.86285" lon="1.85559">
        <ele>137.960183</ele>
        <time>2026-08-29T17:03:51Z</time>
      </trkpt>
      <trkpt lat="43.86284" lon="1.85554">
        <ele>137.951868</ele>
        <time>2026-08-29T17:03:52Z</time>
      </trkpt>
      <trkpt lat="43.86283" lon="1.85549">
        <ele>137.944227</ele>
        <time>2026-08-29T17:03:53Z</time>
      </trkpt>
      <trkpt lat="43.86282" lon="1.85544">
        <ele>137.935996</ele>
        <time>2026-08-29T17:03:54Z</time>
      </trkpt>
      <trkpt lat="43.86281" lon="1.85539">
        <ele>137.928278</ele>
        <time>2026-08-29T17:03:55Z</time>
      </trkpt>
      <trkpt lat="43.8628" lon="1.85535">
        <ele>137.920624</ele>
        <time>2026-08-29T17:03:56Z</time>
      </trkpt>
      <trkpt lat="43.86279" lon="1.8553">
        <ele>137.913054</ele>
        <time>2026-08-29T17:03:57Z</time>
      </trkpt>
      <trkpt lat="43.86277" lon="1.85525">
        <ele>137.904228</ele>
        <time>2026-08-29T17:03:58Z</time>
      </trkpt>
      <trkpt lat="43.86276" lon="1.85519">
        <ele>137.895253</ele>
        <time>2026-08-29T17:03:59Z</time>
      </trkpt>
      <trkpt lat="43.86275" lon="1.85514">
        <ele>137.887318</ele>
        <time>2026-08-29T17:04:00Z</time>
      </trkpt>
      <trkpt lat="43.86274" lon="1.85509">
        <ele>137.879085</ele>
        <time>2026-08-29T17:04:01Z</time>
      </trkpt>
      <trkpt lat="43.86272" lon="1.85505">
        <ele>137.871057</ele>
        <time>2026-08-29T17:04:02Z</time>
      </trkpt>
      <trkpt lat="43.86271" lon="1.85499">
        <ele>137.862241</ele>
        <time>2026-08-29T17:04:03Z</time>
      </trkpt>
      <trkpt lat="43.86269" lon="1.85494">
        <ele>137.853644</ele>
        <time>2026-08-29T17:04:04Z</time>
      </trkpt>
      <trkpt lat="43.86268" lon="1.85489">
        <ele>137.845266</ele>
        <time>2026-08-29T17:04:05Z</time>
      </trkpt>
      <trkpt lat="43.86266" lon="1.85484">
        <ele>137.837148</ele>
        <time>2026-08-29T17:04:06Z</time>
      </trkpt>
      <trkpt lat="43.86265" lon="1.8548">
        <ele>137.829942</ele>
        <time>2026-08-29T17:04:07Z</time>
      </trkpt>
      <trkpt lat="43.86264" lon="1.85475">
        <ele>137.821627</ele>
        <time>2026-08-29T17:04:08Z</time>
      </trkpt>
      <trkpt lat="43.86263" lon="1.8547">
        <ele>137.813764</ele>
        <time>2026-08-29T17:04:09Z</time>
      </trkpt>
      <trkpt lat="43.86262" lon="1.85465">
        <ele>137.805462</ele>
        <time>2026-08-29T17:04:10Z</time>
      </trkpt>
      <trkpt lat="43.8626" lon="1.8546">
        <ele>137.796487</ele>
        <time>2026-08-29T17:04:11Z</time>
      </trkpt>
      <trkpt lat="43.86259" lon="1.85454">
        <ele>137.787743</ele>
        <time>2026-08-29T17:04:12Z</time>
      </trkpt>
      <trkpt lat="43.86258" lon="1.85449">
        <ele>137.779066</ele>
        <time>2026-08-29T17:04:13Z</time>
      </trkpt>
      <trkpt lat="43.86257" lon="1.85444">
        <ele>137.769941</ele>
        <time>2026-08-29T17:04:14Z</time>
      </trkpt>
      <trkpt lat="43.86255" lon="1.85438">
        <ele>137.760978</ele>
        <time>2026-08-29T17:04:15Z</time>
      </trkpt>
      <trkpt lat="43.86254" lon="1.85433">
        <ele>137.752233</ele>
        <time>2026-08-29T17:04:16Z</time>
      </trkpt>
      <trkpt lat="43.86253" lon="1.85427">
        <ele>137.742828</ele>
        <time>2026-08-29T17:04:17Z</time>
      </trkpt>
      <trkpt lat="43.86252" lon="1.85421">
        <ele>137.733158</ele>
        <time>2026-08-29T17:04:18Z</time>
      </trkpt>
      <trkpt lat="43.8625" lon="1.85416">
        <ele>137.723827</ele>
        <time>2026-08-29T17:04:19Z</time>
      </trkpt>
      <trkpt lat="43.86249" lon="1.8541">
        <ele>137.714191</ele>
        <time>2026-08-29T17:04:20Z</time>
      </trkpt>
      <trkpt lat="43.86247" lon="1.85404">
        <ele>137.704713</ele>
        <time>2026-08-29T17:04:21Z</time>
      </trkpt>
      <trkpt lat="43.86246" lon="1.85398">
        <ele>137.695013</ele>
        <time>2026-08-29T17:04:22Z</time>
      </trkpt>
      <trkpt lat="43.86244" lon="1.85392">
        <ele>137.684947</ele>
        <time>2026-08-29T17:04:23Z</time>
      </trkpt>
      <trkpt lat="43.86243" lon="1.85386">
        <ele>137.675101</ele>
        <time>2026-08-29T17:04:24Z</time>
      </trkpt>
      <trkpt lat="43.86241" lon="1.8538">
        <ele>137.664804</ele>
        <time>2026-08-29T17:04:25Z</time>
      </trkpt>
      <trkpt lat="43.8624" lon="1.85373">
        <ele>137.653966</ele>
        <time>2026-08-29T17:04:26Z</time>
      </trkpt>
      <trkpt lat="43.86239" lon="1.85367">
        <ele>137.64409</ele>
        <time>2026-08-29T17:04:27Z</time>
      </trkpt>
      <trkpt lat="43.86238" lon="1.85361">
        <ele>137.634501</ele>
        <time>2026-08-29T17:04:28Z</time>
      </trkpt>
      <trkpt lat="43.86238" lon="1.85355">
        <ele>137.625089</ele>
        <time>2026-08-29T17:04:29Z</time>
      </trkpt>
      <trkpt lat="43.86237" lon="1.85349">
        <ele>137.614077</ele>
        <time>2026-08-29T17:04:30Z</time>
      </trkpt>
      <trkpt lat="43.86236" lon="1.85342">
        <ele>137.59892</ele>
        <time>2026-08-29T17:04:31Z</time>
      </trkpt>
      <trkpt lat="43.86235" lon="1.85336">
        <ele>137.582896</ele>
        <time>2026-08-29T17:04:32Z</time>
      </trkpt>
      <trkpt lat="43.86234" lon="1.8533">
        <ele>137.567764</ele>
        <time>2026-08-29T17:04:33Z</time>
      </trkpt>
      <trkpt lat="43.86232" lon="1.85324">
        <ele>137.552735</ele>
        <time>2026-08-29T17:04:34Z</time>
      </trkpt>
      <trkpt lat="43.8623" lon="1.85319">
        <ele>137.538634</ele>
        <time>2026-08-29T17:04:35Z</time>
      </trkpt>
      <trkpt lat="43.86228" lon="1.85313">
        <ele>137.523826</ele>
        <time>2026-08-29T17:04:36Z</time>
      </trkpt>
      <trkpt lat="43.86226" lon="1.85308">
        <ele>137.509378</ele>
        <time>2026-08-29T17:04:37Z</time>
      </trkpt>
      <trkpt lat="43.86224" lon="1.85303">
        <ele>137.495356</ele>
        <time>2026-08-29T17:04:38Z</time>
      </trkpt>
      <trkpt lat="43.86222" lon="1.85298">
        <ele>137.482001</ele>
        <time>2026-08-29T17:04:39Z</time>
      </trkpt>
      <trkpt lat="43.8622" lon="1.85294">
        <ele>137.469642</ele>
        <time>2026-08-29T17:04:40Z</time>
      </trkpt>
      <trkpt lat="43.86219" lon="1.8529">
        <ele>137.457955</ele>
        <time>2026-08-29T17:04:41Z</time>
      </trkpt>
      <trkpt lat="43.86217" lon="1.85286">
        <ele>137.447433</ele>
        <time>2026-08-29T17:04:42Z</time>
      </trkpt>
      <trkpt lat="43.86216" lon="1.85282">
        <ele>137.437924</ele>
        <time>2026-08-29T17:04:43Z</time>
      </trkpt>
      <trkpt lat="43.86214" lon="1.8528">
        <ele>137.429266</ele>
        <time>2026-08-29T17:04:44Z</time>
      </trkpt>
      <trkpt lat="43.86213" lon="1.85276">
        <ele>137.420048</ele>
        <time>2026-08-29T17:04:45Z</time>
      </trkpt>
      <trkpt lat="43.86211" lon="1.85273">
        <ele>137.410641</ele>
        <time>2026-08-29T17:04:46Z</time>
      </trkpt>
      <trkpt lat="43.86209" lon="1.8527">
        <ele>137.400997</ele>
        <time>2026-08-29T17:04:47Z</time>
      </trkpt>
      <trkpt lat="43.86208" lon="1.85267">
        <ele>137.39159</ele>
        <time>2026-08-29T17:04:48Z</time>
      </trkpt>
      <trkpt lat="43.86206" lon="1.85264">
        <ele>137.381787</ele>
        <time>2026-08-29T17:04:49Z</time>
      </trkpt>
      <trkpt lat="43.86204" lon="1.85261">
        <ele>137.371375</ele>
        <time>2026-08-29T17:04:50Z</time>
      </trkpt>
      <trkpt lat="43.86202" lon="1.85258">
        <ele>137.362348</ele>
        <time>2026-08-29T17:04:51Z</time>
      </trkpt>
      <trkpt lat="43.862" lon="1.85255">
        <ele>137.352941</ele>
        <time>2026-08-29T17:04:52Z</time>
      </trkpt>
      <trkpt lat="43.86199" lon="1.85251">
        <ele>137.342558</ele>
        <time>2026-08-29T17:04:53Z</time>
      </trkpt>
      <trkpt lat="43.86197" lon="1.85248">
        <ele>137.332164</ele>
        <time>2026-08-29T17:04:54Z</time>
      </trkpt>
      <trkpt lat="43.86195" lon="1.85244">
        <ele>137.321183</ele>
        <time>2026-08-29T17:04:55Z</time>
      </trkpt>
      <trkpt lat="43.86194" lon="1.8524">
        <ele>137.31114</ele>
        <time>2026-08-29T17:04:56Z</time>
      </trkpt>
      <trkpt lat="43.86192" lon="1.85236">
        <ele>137.300303</ele>
        <time>2026-08-29T17:04:57Z</time>
      </trkpt>
      <trkpt lat="43.8619" lon="1.85232">
        <ele>137.289674</ele>
        <time>2026-08-29T17:04:58Z</time>
      </trkpt>
      <trkpt lat="43.86189" lon="1.85228">
        <ele>137.278251</ele>
        <time>2026-08-29T17:04:59Z</time>
      </trkpt>
      <trkpt lat="43.86187" lon="1.85224">
        <ele>137.265822</ele>
        <time>2026-08-29T17:05:00Z</time>
      </trkpt>
      <trkpt lat="43.86185" lon="1.85219">
        <ele>137.252432</ele>
        <time>2026-08-29T17:05:01Z</time>
      </trkpt>
      <trkpt lat="43.86183" lon="1.85214">
        <ele>137.238311</ele>
        <time>2026-08-29T17:05:02Z</time>
      </trkpt>
      <trkpt lat="43.8618" lon="1.8521">
        <ele>137.224978</ele>
        <time>2026-08-29T17:05:03Z</time>
      </trkpt>
      <trkpt lat="43.86178" lon="1.85205">
        <ele>137.212591</ele>
        <time>2026-08-29T17:05:04Z</time>
      </trkpt>
      <trkpt lat="43.86176" lon="1.85201">
        <ele>137.199645</ele>
        <time>2026-08-29T17:05:05Z</time>
      </trkpt>
      <trkpt lat="43.86174" lon="1.85196">
        <ele>137.185147</ele>
        <time>2026-08-29T17:05:06Z</time>
      </trkpt>
      <trkpt lat="43.86171" lon="1.85191">
        <ele>137.170234</ele>
        <time>2026-08-29T17:05:07Z</time>
      </trkpt>
      <trkpt lat="43.86169" lon="1.85185">
        <ele>137.154406</ele>
        <time>2026-08-29T17:05:08Z</time>
      </trkpt>
      <trkpt lat="43.86167" lon="1.85179">
        <ele>137.137993</ele>
        <time>2026-08-29T17:05:09Z</time>
      </trkpt>
      <trkpt lat="43.86164" lon="1.85172">
        <ele>137.119532</ele>
        <time>2026-08-29T17:05:10Z</time>
      </trkpt>
      <trkpt lat="43.86161" lon="1.85166">
        <ele>137.100688</ele>
        <time>2026-08-29T17:05:11Z</time>
      </trkpt>
      <trkpt lat="43.86158" lon="1.85159">
        <ele>137.081277</ele>
        <time>2026-08-29T17:05:12Z</time>
      </trkpt>
      <trkpt lat="43.86154" lon="1.85153">
        <ele>137.062076</ele>
        <time>2026-08-29T17:05:13Z</time>
      </trkpt>
      <trkpt lat="43.86151" lon="1.85146">
        <ele>137.043052</ele>
        <time>2026-08-29T17:05:14Z</time>
      </trkpt>
      <trkpt lat="43.86148" lon="1.85139">
        <ele>137.02287</ele>
        <time>2026-08-29T17:05:15Z</time>
      </trkpt>
      <trkpt lat="43.86144" lon="1.85133">
        <ele>137.0128</ele>
        <time>2026-08-29T17:05:16Z</time>
      </trkpt>
      <trkpt lat="43.86141" lon="1.85127">
        <ele>137.010192</ele>
        <time>2026-08-29T17:05:17Z</time>
      </trkpt>
      <trkpt lat="43.86137" lon="1.85121">
        <ele>137.007469</ele>
        <time>2026-08-29T17:05:18Z</time>
      </trkpt>
      <trkpt lat="43.86133" lon="1.85115">
        <ele>137.004889</ele>
        <time>2026-08-29T17:05:19Z</time>
      </trkpt>
      <trkpt lat="43.86129" lon="1.8511">
        <ele>137.002489</ele>
        <time>2026-08-29T17:05:20Z</time>
      </trkpt>
      <trkpt lat="43.86125" lon="1.85105">
        <ele>136.999932</ele>
        <time>2026-08-29T17:05:21Z</time>
      </trkpt>
      <trkpt lat="43.86121" lon="1.851">
        <ele>136.997522</ele>
        <time>2026-08-29T17:05:22Z</time>
      </trkpt>
      <trkpt lat="43.86117" lon="1.85095">
        <ele>136.995241</ele>
        <time>2026-08-29T17:05:23Z</time>
      </trkpt>
      <trkpt lat="43.86114" lon="1.8509">
        <ele>136.992986</ele>
        <time>2026-08-29T17:05:24Z</time>
      </trkpt>
      <trkpt lat="43.8611" lon="1.85086">
        <ele>136.99086</ele>
        <time>2026-08-29T17:05:25Z</time>
      </trkpt>
      <trkpt lat="43.86106" lon="1.85083">
        <ele>136.98892</ele>
        <time>2026-08-29T17:05:26Z</time>
      </trkpt>
      <trkpt lat="43.86103" lon="1.8508">
        <ele>136.987166</ele>
        <time>2026-08-29T17:05:27Z</time>
      </trkpt>
      <trkpt lat="43.861" lon="1.85076">
        <ele>136.985477</ele>
        <time>2026-08-29T17:05:28Z</time>
      </trkpt>
      <trkpt lat="43.86097" lon="1.85073">
        <ele>136.983697</ele>
        <time>2026-08-29T17:05:29Z</time>
      </trkpt>
      <trkpt lat="43.86094" lon="1.85069">
        <ele>136.981868</ele>
        <time>2026-08-29T17:05:30Z</time>
      </trkpt>
      <trkpt lat="43.86091" lon="1.85066">
        <ele>136.979926</ele>
        <time>2026-08-29T17:05:31Z</time>
      </trkpt>
      <trkpt lat="43.86087" lon="1.85062">
        <ele>136.977968</ele>
        <time>2026-08-29T17:05:32Z</time>
      </trkpt>
      <trkpt lat="43.86084" lon="1.85059">
        <ele>136.976026</ele>
        <time>2026-08-29T17:05:33Z</time>
      </trkpt>
      <trkpt lat="43.86081" lon="1.85055">
        <ele>136.974252</ele>
        <time>2026-08-29T17:05:34Z</time>
      </trkpt>
      <trkpt lat="43.86078" lon="1.85052">
        <ele>136.972575</ele>
        <time>2026-08-29T17:05:35Z</time>
      </trkpt>
      <trkpt lat="43.86075" lon="1.85048">
        <ele>136.970886</ele>
        <time>2026-08-29T17:05:36Z</time>
      </trkpt>
      <trkpt lat="43.86072" lon="1.85045">
        <ele>136.969071</ele>
        <time>2026-08-29T17:05:37Z</time>
      </trkpt>
      <trkpt lat="43.86069" lon="1.85041">
        <ele>136.967104</ele>
        <time>2026-08-29T17:05:38Z</time>
      </trkpt>
      <trkpt lat="43.86066" lon="1.85037">
        <ele>136.965059</ele>
        <time>2026-08-29T17:05:39Z</time>
      </trkpt>
      <trkpt lat="43.86062" lon="1.85033">
        <ele>136.963077</ele>
        <time>2026-08-29T17:05:40Z</time>
      </trkpt>
      <trkpt lat="43.86059" lon="1.85029">
        <ele>136.961059</ele>
        <time>2026-08-29T17:05:41Z</time>
      </trkpt>
      <trkpt lat="43.86055" lon="1.85025">
        <ele>136.959059</ele>
        <time>2026-08-29T17:05:42Z</time>
      </trkpt>
      <trkpt lat="43.86052" lon="1.85021">
        <ele>136.95706</ele>
        <time>2026-08-29T17:05:43Z</time>
      </trkpt>
      <trkpt lat="43.86049" lon="1.85017">
        <ele>136.955092</ele>
        <time>2026-08-29T17:05:44Z</time>
      </trkpt>
      <trkpt lat="43.86046" lon="1.85013">
        <ele>136.95317</ele>
        <time>2026-08-29T17:05:45Z</time>
      </trkpt>
      <trkpt lat="43.86043" lon="1.85009">
        <ele>136.951235</ele>
        <time>2026-08-29T17:05:46Z</time>
      </trkpt>
      <trkpt lat="43.8604" lon="1.85004">
        <ele>136.949284</ele>
        <time>2026-08-29T17:05:47Z</time>
      </trkpt>
      <trkpt lat="43.86037" lon="1.85">
        <ele>136.947247</ele>
        <time>2026-08-29T17:05:48Z</time>
      </trkpt>
      <trkpt lat="43.86034" lon="1.84996">
        <ele>136.945375</ele>
        <time>2026-08-29T17:05:49Z</time>
      </trkpt>
      <trkpt lat="43.86031" lon="1.84991">
        <ele>136.94337</ele>
        <time>2026-08-29T17:05:50Z</time>
      </trkpt>
      <trkpt lat="43.86028" lon="1.84986">
        <ele>136.941323</ele>
        <time>2026-08-29T17:05:51Z</time>
      </trkpt>
      <trkpt lat="43.86025" lon="1.84981">
        <ele>136.939226</ele>
        <time>2026-08-29T17:05:52Z</time>
      </trkpt>
      <trkpt lat="43.86023" lon="1.84976">
        <ele>136.937128</ele>
        <time>2026-08-29T17:05:53Z</time>
      </trkpt>
      <trkpt lat="43.8602" lon="1.84971">
        <ele>136.935137</ele>
        <time>2026-08-29T17:05:54Z</time>
      </trkpt>
      <trkpt lat="43.86018" lon="1.84966">
        <ele>136.933091</ele>
        <time>2026-08-29T17:05:55Z</time>
      </trkpt>
      <trkpt lat="43.86015" lon="1.84961">
        <ele>136.90023</ele>
        <time>2026-08-29T17:05:56Z</time>
      </trkpt>
      <trkpt lat="43.86013" lon="1.84956">
        <ele>136.858759</ele>
        <time>2026-08-29T17:05:57Z</time>
      </trkpt>
      <trkpt lat="43.8601" lon="1.84951">
        <ele>136.814975</ele>
        <time>2026-08-29T17:05:58Z</time>
      </trkpt>
      <trkpt lat="43.86007" lon="1.84946">
        <ele>136.772352</ele>
        <time>2026-08-29T17:05:59Z</time>
      </trkpt>
      <trkpt lat="43.86005" lon="1.84942">
        <ele>136.729159</ele>
        <time>2026-08-29T17:06:00Z</time>
      </trkpt>
      <trkpt lat="43.86002" lon="1.84937">
        <ele>136.684211</ele>
        <time>2026-08-29T17:06:01Z</time>
      </trkpt>
      <trkpt lat="43.85999" lon="1.84932">
        <ele>136.641018</ele>
        <time>2026-08-29T17:06:02Z</time>
      </trkpt>
      <trkpt lat="43.85997" lon="1.84927">
        <ele>136.598962</ele>
        <time>2026-08-29T17:06:03Z</time>
      </trkpt>
      <trkpt lat="43.85994" lon="1.84922">
        <ele>136.555769</ele>
        <time>2026-08-29T17:06:04Z</time>
      </trkpt>
      <trkpt lat="43.85991" lon="1.84917">
        <ele>136.513029</ele>
        <time>2026-08-29T17:06:05Z</time>
      </trkpt>
      <trkpt lat="43.85989" lon="1.84912">
        <ele>136.468569</ele>
        <time>2026-08-29T17:06:06Z</time>
      </trkpt>
      <trkpt lat="43.85986" lon="1.84908">
        <ele>136.424003</ele>
        <time>2026-08-29T17:06:07Z</time>
      </trkpt>
      <trkpt lat="43.85983" lon="1.84903">
        <ele>136.384261</ele>
        <time>2026-08-29T17:06:08Z</time>
      </trkpt>
      <trkpt lat="43.85981" lon="1.84898">
        <ele>136.34279</ele>
        <time>2026-08-29T17:06:09Z</time>
      </trkpt>
      <trkpt lat="43.85978" lon="1.84893">
        <ele>136.298417</ele>
        <time>2026-08-29T17:06:10Z</time>
      </trkpt>
      <trkpt lat="43.85976" lon="1.84888">
        <ele>136.250617</ele>
        <time>2026-08-29T17:06:11Z</time>
      </trkpt>
      <trkpt lat="43.85973" lon="1.84882">
        <ele>136.202813</ele>
        <time>2026-08-29T17:06:12Z</time>
      </trkpt>
      <trkpt lat="43.8597" lon="1.84877">
        <ele>136.155454</ele>
        <time>2026-08-29T17:06:13Z</time>
      </trkpt>
      <trkpt lat="43.85966" lon="1.84872">
        <ele>136.107456</ele>
        <time>2026-08-29T17:06:14Z</time>
      </trkpt>
      <trkpt lat="43.85963" lon="1.84867">
        <ele>136.060638</ele>
        <time>2026-08-29T17:06:15Z</time>
      </trkpt>
      <trkpt lat="43.8596" lon="1.84862">
        <ele>136.013821</ele>
        <time>2026-08-29T17:06:16Z</time>
      </trkpt>
      <trkpt lat="43.85957" lon="1.84857">
        <ele>135.966584</ele>
        <time>2026-08-29T17:06:17Z</time>
      </trkpt>
      <trkpt lat="43.85954" lon="1.84851">
        <ele>135.919347</ele>
        <time>2026-08-29T17:06:18Z</time>
      </trkpt>
      <trkpt lat="43.85951" lon="1.84847">
        <ele>135.873709</ele>
        <time>2026-08-29T17:06:19Z</time>
      </trkpt>
      <trkpt lat="43.85948" lon="1.84841">
        <ele>135.825334</ele>
        <time>2026-08-29T17:06:20Z</time>
      </trkpt>
      <trkpt lat="43.85946" lon="1.84836">
        <ele>135.778094</ele>
        <time>2026-08-29T17:06:21Z</time>
      </trkpt>
      <trkpt lat="43.85943" lon="1.8483">
        <ele>135.730475</ele>
        <time>2026-08-29T17:06:22Z</time>
      </trkpt>
      <trkpt lat="43.85941" lon="1.84824">
        <ele>135.684315</ele>
        <time>2026-08-29T17:06:23Z</time>
      </trkpt>
      <trkpt lat="43.85938" lon="1.84819">
        <ele>135.636477</ele>
        <time>2026-08-29T17:06:24Z</time>
      </trkpt>
      <trkpt lat="43.85935" lon="1.84814">
        <ele>135.587681</ele>
        <time>2026-08-29T17:06:25Z</time>
      </trkpt>
      <trkpt lat="43.85931" lon="1.84808">
        <ele>135.536334</ele>
        <time>2026-08-29T17:06:26Z</time>
      </trkpt>
      <trkpt lat="43.85928" lon="1.84803">
        <ele>135.486209</ele>
        <time>2026-08-29T17:06:27Z</time>
      </trkpt>
      <trkpt lat="43.85925" lon="1.84797">
        <ele>135.436106</ele>
        <time>2026-08-29T17:06:28Z</time>
      </trkpt>
      <trkpt lat="43.85922" lon="1.84791">
        <ele>135.381393</ele>
        <time>2026-08-29T17:06:29Z</time>
      </trkpt>
      <trkpt lat="43.85919" lon="1.84784">
        <ele>135.325532</ele>
        <time>2026-08-29T17:06:30Z</time>
      </trkpt>
      <trkpt lat="43.85915" lon="1.84778">
        <ele>135.26667</ele>
        <time>2026-08-29T17:06:31Z</time>
      </trkpt>
      <trkpt lat="43.85911" lon="1.8477">
        <ele>135.199848</ele>
        <time>2026-08-29T17:06:32Z</time>
      </trkpt>
      <trkpt lat="43.85906" lon="1.84763">
        <ele>135.174493</ele>
        <time>2026-08-29T17:06:33Z</time>
      </trkpt>
      <trkpt lat="43.85903" lon="1.84755">
        <ele>135.201829</ele>
        <time>2026-08-29T17:06:34Z</time>
      </trkpt>
      <trkpt lat="43.85898" lon="1.84747">
        <ele>135.229636</ele>
        <time>2026-08-29T17:06:35Z</time>
      </trkpt>
      <trkpt lat="43.85894" lon="1.8474">
        <ele>135.256996</ele>
        <time>2026-08-29T17:06:36Z</time>
      </trkpt>
      <trkpt lat="43.85891" lon="1.84732">
        <ele>135.283861</ele>
        <time>2026-08-29T17:06:37Z</time>
      </trkpt>
      <trkpt lat="43.85887" lon="1.84725">
        <ele>135.308587</ele>
        <time>2026-08-29T17:06:38Z</time>
      </trkpt>
      <trkpt lat="43.85884" lon="1.84719">
        <ele>135.331909</ele>
        <time>2026-08-29T17:06:39Z</time>
      </trkpt>
      <trkpt lat="43.85881" lon="1.84712">
        <ele>135.355054</ele>
        <time>2026-08-29T17:06:40Z</time>
      </trkpt>
      <trkpt lat="43.85878" lon="1.84705">
        <ele>135.377447</ele>
        <time>2026-08-29T17:06:41Z</time>
      </trkpt>
      <trkpt lat="43.85875" lon="1.847">
        <ele>135.398366</ele>
        <time>2026-08-29T17:06:42Z</time>
      </trkpt>
      <trkpt lat="43.85873" lon="1.84694">
        <ele>135.418572</ele>
        <time>2026-08-29T17:06:43Z</time>
      </trkpt>
      <trkpt lat="43.8587" lon="1.84688">
        <ele>135.437868</ele>
        <time>2026-08-29T17:06:44Z</time>
      </trkpt>
      <trkpt lat="43.85867" lon="1.84683">
        <ele>135.455456</ele>
        <time>2026-08-29T17:06:45Z</time>
      </trkpt>
      <trkpt lat="43.85865" lon="1.84679">
        <ele>135.472833</ele>
        <time>2026-08-29T17:06:46Z</time>
      </trkpt>
      <trkpt lat="43.85862" lon="1.84675">
        <ele>135.488284</ele>
        <time>2026-08-29T17:06:47Z</time>
      </trkpt>
      <trkpt lat="43.8586" lon="1.84671">
        <ele>135.502078</ele>
        <time>2026-08-29T17:06:48Z</time>
      </trkpt>
      <trkpt lat="43.85859" lon="1.84667">
        <ele>135.514673</ele>
        <time>2026-08-29T17:06:49Z</time>
      </trkpt>
      <trkpt lat="43.85857" lon="1.84664">
        <ele>135.527175</ele>
        <time>2026-08-29T17:06:50Z</time>
      </trkpt>
      <trkpt lat="43.85856" lon="1.8466">
        <ele>135.539855</ele>
        <time>2026-08-29T17:06:51Z</time>
      </trkpt>
      <trkpt lat="43.85855" lon="1.84656">
        <ele>135.551309</ele>
        <time>2026-08-29T17:06:52Z</time>
      </trkpt>
      <trkpt lat="43.85854" lon="1.84654">
        <ele>135.558623</ele>
        <time>2026-08-29T17:06:53Z</time>
      </trkpt>
      <trkpt lat="43.85854" lon="1.84653">
        <ele>135.560143</ele>
        <time>2026-08-29T17:06:54Z</time>
      </trkpt>
      <trkpt lat="43.85854" lon="1.84654">
        <ele>135.561947</ele>
        <time>2026-08-29T17:06:55Z</time>
      </trkpt>
      <trkpt lat="43.85852" lon="1.84645">
        <ele>135.588819</ele>
        <time>2026-08-29T17:07:38Z</time>
      </trkpt>
      <trkpt lat="43.85851" lon="1.84644">
        <ele>135.59351</ele>
        <time>2026-08-29T17:07:39Z</time>
      </trkpt>
      <trkpt lat="43.8585" lon="1.84644">
        <ele>135.597517</ele>
        <time>2026-08-29T17:07:40Z</time>
      </trkpt>
      <trkpt lat="43.8585" lon="1.84642">
        <ele>135.601815</ele>
        <time>2026-08-29T17:07:41Z</time>
      </trkpt>
      <trkpt lat="43.85849" lon="1.84641">
        <ele>135.605899</ele>
        <time>2026-08-29T17:07:42Z</time>
      </trkpt>
      <trkpt lat="43.85848" lon="1.8464">
        <ele>135.609982</ele>
        <time>2026-08-29T17:07:43Z</time>
      </trkpt>
      <trkpt lat="43.85848" lon="1.84639">
        <ele>135.613332</ele>
        <time>2026-08-29T17:07:44Z</time>
      </trkpt>
      <trkpt lat="43.85847" lon="1.84638">
        <ele>135.617854</ele>
        <time>2026-08-29T17:07:45Z</time>
      </trkpt>
      <trkpt lat="43.85846" lon="1.84637">
        <ele>135.622607</ele>
        <time>2026-08-29T17:07:46Z</time>
      </trkpt>
      <trkpt lat="43.85846" lon="1.84636">
        <ele>135.627378</ele>
        <time>2026-08-29T17:07:47Z</time>
      </trkpt>
      <trkpt lat="43.85845" lon="1.84634">
        <ele>135.632613</ele>
        <time>2026-08-29T17:07:48Z</time>
      </trkpt>
      <trkpt lat="43.85844" lon="1.84633">
        <ele>135.638881</ele>
        <time>2026-08-29T17:07:49Z</time>
      </trkpt>
      <trkpt lat="43.85843" lon="1.84631">
        <ele>135.64445</ele>
        <time>2026-08-29T17:07:50Z</time>
      </trkpt>
      <trkpt lat="43.85842" lon="1.8463">
        <ele>135.649945</ele>
        <time>2026-08-29T17:07:51Z</time>
      </trkpt>
      <trkpt lat="43.85841" lon="1.84628">
        <ele>135.655439</ele>
        <time>2026-08-29T17:07:52Z</time>
      </trkpt>
      <trkpt lat="43.8584" lon="1.84627">
        <ele>135.660719</ele>
        <time>2026-08-29T17:07:53Z</time>
      </trkpt>
      <trkpt lat="43.8584" lon="1.84626">
        <ele>135.665241</ele>
        <time>2026-08-29T17:07:54Z</time>
      </trkpt>
      <trkpt lat="43.85839" lon="1.84625">
        <ele>135.668687</ele>
        <time>2026-08-29T17:07:55Z</time>
      </trkpt>
      <trkpt lat="43.85839" lon="1.84625">
        <ele>135.6694</ele>
        <time>2026-08-29T17:07:56Z</time>
      </trkpt>
      <trkpt lat="43.85839" lon="1.84625">
        <ele>135.671539</ele>
        <time>2026-08-29T17:07:57Z</time>
      </trkpt>
      <trkpt lat="43.85836" lon="1.84617">
        <ele>135.696623</ele>
        <time>2026-08-29T17:08:35Z</time>
      </trkpt>
      <trkpt lat="43.85835" lon="1.84615">
        <ele>135.704491</ele>
        <time>2026-08-29T17:08:36Z</time>
      </trkpt>
      <trkpt lat="43.85834" lon="1.84612">
        <ele>135.713577</ele>
        <time>2026-08-29T17:08:37Z</time>
      </trkpt>
      <trkpt lat="43.85833" lon="1.84609">
        <ele>135.723437</ele>
        <time>2026-08-29T17:08:38Z</time>
      </trkpt>
      <trkpt lat="43.85832" lon="1.84606">
        <ele>135.733822</ele>
        <time>2026-08-29T17:08:39Z</time>
      </trkpt>
      <trkpt lat="43.85831" lon="1.84603">
        <ele>135.744309</ele>
        <time>2026-08-29T17:08:40Z</time>
      </trkpt>
      <trkpt lat="43.8583" lon="1.846">
        <ele>135.755326</ele>
        <time>2026-08-29T17:08:41Z</time>
      </trkpt>
      <trkpt lat="43.85828" lon="1.84596">
        <ele>135.767216</ele>
        <time>2026-08-29T17:08:42Z</time>
      </trkpt>
      <trkpt lat="43.85826" lon="1.84593">
        <ele>135.778385</ele>
        <time>2026-08-29T17:08:43Z</time>
      </trkpt>
      <trkpt lat="43.85825" lon="1.8459">
        <ele>135.789793</ele>
        <time>2026-08-29T17:08:44Z</time>
      </trkpt>
      <trkpt lat="43.85823" lon="1.84587">
        <ele>135.800742</ele>
        <time>2026-08-29T17:08:45Z</time>
      </trkpt>
      <trkpt lat="43.85821" lon="1.84584">
        <ele>135.812153</ele>
        <time>2026-08-29T17:08:46Z</time>
      </trkpt>
      <trkpt lat="43.8582" lon="1.84581">
        <ele>135.824516</ele>
        <time>2026-08-29T17:08:47Z</time>
      </trkpt>
      <trkpt lat="43.85818" lon="1.84577">
        <ele>135.836887</ele>
        <time>2026-08-29T17:08:48Z</time>
      </trkpt>
      <trkpt lat="43.85816" lon="1.84574">
        <ele>135.848807</ele>
        <time>2026-08-29T17:08:49Z</time>
      </trkpt>
      <trkpt lat="43.85814" lon="1.84571">
        <ele>135.860241</ele>
        <time>2026-08-29T17:08:50Z</time>
      </trkpt>
      <trkpt lat="43.85812" lon="1.84568">
        <ele>135.871451</ele>
        <time>2026-08-29T17:08:51Z</time>
      </trkpt>
      <trkpt lat="43.8581" lon="1.84565">
        <ele>135.8824</ele>
        <time>2026-08-29T17:08:52Z</time>
      </trkpt>
      <trkpt lat="43.85809" lon="1.84562">
        <ele>135.890818</ele>
        <time>2026-08-29T17:08:53Z</time>
      </trkpt>
      <trkpt lat="43.85807" lon="1.84558">
        <ele>135.881814</ele>
        <time>2026-08-29T17:08:54Z</time>
      </trkpt>
      <trkpt lat="43.85805" lon="1.84555">
        <ele>135.872967</ele>
        <time>2026-08-29T17:08:55Z</time>
      </trkpt>
      <trkpt lat="43.85803" lon="1.84551">
        <ele>135.864282</ele>
        <time>2026-08-29T17:08:56Z</time>
      </trkpt>
      <trkpt lat="43.85801" lon="1.84547">
        <ele>135.855116</ele>
        <time>2026-08-29T17:08:57Z</time>
      </trkpt>
      <trkpt lat="43.858" lon="1.84543">
        <ele>135.846082</ele>
        <time>2026-08-29T17:08:58Z</time>
      </trkpt>
      <trkpt lat="43.85797" lon="1.84539">
        <ele>135.835951</ele>
        <time>2026-08-29T17:08:59Z</time>
      </trkpt>
      <trkpt lat="43.85796" lon="1.84535">
        <ele>135.82629</ele>
        <time>2026-08-29T17:09:00Z</time>
      </trkpt>
      <trkpt lat="43.85794" lon="1.84531">
        <ele>135.816124</ele>
        <time>2026-08-29T17:09:01Z</time>
      </trkpt>
      <trkpt lat="43.85792" lon="1.84527">
        <ele>135.806155</ele>
        <time>2026-08-29T17:09:02Z</time>
      </trkpt>
      <trkpt lat="43.8579" lon="1.84523">
        <ele>135.796343</ele>
        <time>2026-08-29T17:09:03Z</time>
      </trkpt>
      <trkpt lat="43.85788" lon="1.84518">
        <ele>135.786658</ele>
        <time>2026-08-29T17:09:04Z</time>
      </trkpt>
      <trkpt lat="43.85786" lon="1.84514">
        <ele>135.776802</ele>
        <time>2026-08-29T17:09:05Z</time>
      </trkpt>
      <trkpt lat="43.85784" lon="1.8451">
        <ele>135.767386</ele>
        <time>2026-08-29T17:09:06Z</time>
      </trkpt>
      <trkpt lat="43.85783" lon="1.84505">
        <ele>135.75749</ele>
        <time>2026-08-29T17:09:07Z</time>
      </trkpt>
      <trkpt lat="43.85781" lon="1.84501">
        <ele>135.7482</ele>
        <time>2026-08-29T17:09:08Z</time>
      </trkpt>
      <trkpt lat="43.85779" lon="1.84497">
        <ele>135.738129</ele>
        <time>2026-08-29T17:09:09Z</time>
      </trkpt>
      <trkpt lat="43.85778" lon="1.84492">
        <ele>135.728059</ele>
        <time>2026-08-29T17:09:10Z</time>
      </trkpt>
      <trkpt lat="43.85776" lon="1.84488">
        <ele>135.718164</ele>
        <time>2026-08-29T17:09:11Z</time>
      </trkpt>
      <trkpt lat="43.85774" lon="1.84484">
        <ele>135.708748</ele>
        <time>2026-08-29T17:09:12Z</time>
      </trkpt>
      <trkpt lat="43.85773" lon="1.84479">
        <ele>135.698802</ele>
        <time>2026-08-29T17:09:13Z</time>
      </trkpt>
      <trkpt lat="43.85771" lon="1.84475">
        <ele>135.689512</ele>
        <time>2026-08-29T17:09:14Z</time>
      </trkpt>
      <trkpt lat="43.8577" lon="1.8447">
        <ele>135.678849</ele>
        <time>2026-08-29T17:09:15Z</time>
      </trkpt>
      <trkpt lat="43.85768" lon="1.84465">
        <ele>135.668401</ele>
        <time>2026-08-29T17:09:16Z</time>
      </trkpt>
      <trkpt lat="43.85767" lon="1.84461">
        <ele>135.658607</ele>
        <time>2026-08-29T17:09:17Z</time>
      </trkpt>
      <trkpt lat="43.85766" lon="1.84456">
        <ele>135.649097</ele>
        <time>2026-08-29T17:09:18Z</time>
      </trkpt>
      <trkpt lat="43.85765" lon="1.84451">
        <ele>135.6394</ele>
        <time>2026-08-29T17:09:19Z</time>
      </trkpt>
      <trkpt lat="43.85763" lon="1.84447">
        <ele>135.629136</ele>
        <time>2026-08-29T17:09:20Z</time>
      </trkpt>
      <trkpt lat="43.85762" lon="1.84442">
        <ele>135.6186</ele>
        <time>2026-08-29T17:09:21Z</time>
      </trkpt>
      <trkpt lat="43.85761" lon="1.84437">
        <ele>135.608152</ele>
        <time>2026-08-29T17:09:22Z</time>
      </trkpt>
      <trkpt lat="43.85759" lon="1.84432">
        <ele>135.59705</ele>
        <time>2026-08-29T17:09:23Z</time>
      </trkpt>
      <trkpt lat="43.85757" lon="1.84427">
        <ele>135.586092</ele>
        <time>2026-08-29T17:09:24Z</time>
      </trkpt>
      <trkpt lat="43.85756" lon="1.84421">
        <ele>135.574955</ele>
        <time>2026-08-29T17:09:25Z</time>
      </trkpt>
      <trkpt lat="43.85754" lon="1.84417">
        <ele>135.564354</ele>
        <time>2026-08-29T17:09:26Z</time>
      </trkpt>
      <trkpt lat="43.85752" lon="1.84412">
        <ele>135.553619</ele>
        <time>2026-08-29T17:09:27Z</time>
      </trkpt>
      <trkpt lat="43.85751" lon="1.84407">
        <ele>135.54284</ele>
        <time>2026-08-29T17:09:28Z</time>
      </trkpt>
      <trkpt lat="43.85749" lon="1.84402">
        <ele>135.531406</ele>
        <time>2026-08-29T17:09:29Z</time>
      </trkpt>
      <trkpt lat="43.85747" lon="1.84396">
        <ele>135.519112</ele>
        <time>2026-08-29T17:09:30Z</time>
      </trkpt>
      <trkpt lat="43.85744" lon="1.8439">
        <ele>135.504894</ele>
        <time>2026-08-29T17:09:31Z</time>
      </trkpt>
      <trkpt lat="43.85742" lon="1.84383">
        <ele>135.48953</ele>
        <time>2026-08-29T17:09:32Z</time>
      </trkpt>
      <trkpt lat="43.85739" lon="1.84376">
        <ele>135.474751</ele>
        <time>2026-08-29T17:09:33Z</time>
      </trkpt>
      <trkpt lat="43.85737" lon="1.84369">
        <ele>135.457717</ele>
        <time>2026-08-29T17:09:34Z</time>
      </trkpt>
      <trkpt lat="43.85734" lon="1.8436">
        <ele>135.439791</ele>
        <time>2026-08-29T17:09:35Z</time>
      </trkpt>
      <trkpt lat="43.85731" lon="1.84353">
        <ele>135.422341</ele>
        <time>2026-08-29T17:09:36Z</time>
      </trkpt>
      <trkpt lat="43.85728" lon="1.84345">
        <ele>135.405069</ele>
        <time>2026-08-29T17:09:37Z</time>
      </trkpt>
      <trkpt lat="43.85726" lon="1.84338">
        <ele>135.372673</ele>
        <time>2026-08-29T17:09:38Z</time>
      </trkpt>
      <trkpt lat="43.85723" lon="1.84331">
        <ele>135.322562</ele>
        <time>2026-08-29T17:09:39Z</time>
      </trkpt>
      <trkpt lat="43.85719" lon="1.84323">
        <ele>135.270653</ele>
        <time>2026-08-29T17:09:40Z</time>
      </trkpt>
      <trkpt lat="43.85717" lon="1.84315">
        <ele>135.215703</ele>
        <time>2026-08-29T17:09:41Z</time>
      </trkpt>
      <trkpt lat="43.85714" lon="1.84308">
        <ele>135.162919</ele>
        <time>2026-08-29T17:09:42Z</time>
      </trkpt>
      <trkpt lat="43.85711" lon="1.843">
        <ele>135.109864</ele>
        <time>2026-08-29T17:09:43Z</time>
      </trkpt>
      <trkpt lat="43.85707" lon="1.84292">
        <ele>135.055002</ele>
        <time>2026-08-29T17:09:44Z</time>
      </trkpt>
      <trkpt lat="43.85704" lon="1.84285">
        <ele>135.000575</ele>
        <time>2026-08-29T17:09:45Z</time>
      </trkpt>
      <trkpt lat="43.85701" lon="1.84278">
        <ele>134.951274</ele>
        <time>2026-08-29T17:09:46Z</time>
      </trkpt>
      <trkpt lat="43.85698" lon="1.84271">
        <ele>134.905268</ele>
        <time>2026-08-29T17:09:47Z</time>
      </trkpt>
      <trkpt lat="43.85695" lon="1.84265">
        <ele>134.861842</ele>
        <time>2026-08-29T17:09:48Z</time>
      </trkpt>
      <trkpt lat="43.85692" lon="1.84259">
        <ele>134.818868</ele>
        <time>2026-08-29T17:09:49Z</time>
      </trkpt>
      <trkpt lat="43.8569" lon="1.84253">
        <ele>134.776485</ele>
        <time>2026-08-29T17:09:50Z</time>
      </trkpt>
      <trkpt lat="43.85689" lon="1.84247">
        <ele>134.736084</ele>
        <time>2026-08-29T17:09:51Z</time>
      </trkpt>
      <trkpt lat="43.85688" lon="1.8424">
        <ele>134.696617</ele>
        <time>2026-08-29T17:09:52Z</time>
      </trkpt>
      <trkpt lat="43.85687" lon="1.84233">
        <ele>134.655481</ele>
        <time>2026-08-29T17:09:53Z</time>
      </trkpt>
      <trkpt lat="43.85688" lon="1.84227">
        <ele>134.613547</ele>
        <time>2026-08-29T17:09:54Z</time>
      </trkpt>
      <trkpt lat="43.85687" lon="1.8422">
        <ele>134.571587</ele>
        <time>2026-08-29T17:09:55Z</time>
      </trkpt>
      <trkpt lat="43.85687" lon="1.84213">
        <ele>134.531654</ele>
        <time>2026-08-29T17:09:56Z</time>
      </trkpt>
      <trkpt lat="43.85686" lon="1.84207">
        <ele>134.491677</ele>
        <time>2026-08-29T17:09:57Z</time>
      </trkpt>
      <trkpt lat="43.85684" lon="1.84201">
        <ele>134.45278</ele>
        <time>2026-08-29T17:09:58Z</time>
      </trkpt>
      <trkpt lat="43.85683" lon="1.84195">
        <ele>134.413339</ele>
        <time>2026-08-29T17:09:59Z</time>
      </trkpt>
      <trkpt lat="43.85681" lon="1.84188">
        <ele>134.373327</ele>
        <time>2026-08-29T17:10:00Z</time>
      </trkpt>
      <trkpt lat="43.85679" lon="1.84183">
        <ele>134.336627</ele>
        <time>2026-08-29T17:10:01Z</time>
      </trkpt>
      <trkpt lat="43.85677" lon="1.84178">
        <ele>134.302414</ele>
        <time>2026-08-29T17:10:02Z</time>
      </trkpt>
      <trkpt lat="43.85675" lon="1.84173">
        <ele>134.265942</ele>
        <time>2026-08-29T17:10:03Z</time>
      </trkpt>
      <trkpt lat="43.85672" lon="1.84168">
        <ele>134.228951</ele>
        <time>2026-08-29T17:10:04Z</time>
      </trkpt>
      <trkpt lat="43.85669" lon="1.84164">
        <ele>134.193951</ele>
        <time>2026-08-29T17:10:05Z</time>
      </trkpt>
      <trkpt lat="43.85667" lon="1.84159">
        <ele>134.15773</ele>
        <time>2026-08-29T17:10:06Z</time>
      </trkpt>
      <trkpt lat="43.85664" lon="1.84155">
        <ele>134.122692</ele>
        <time>2026-08-29T17:10:07Z</time>
      </trkpt>
      <trkpt lat="43.85661" lon="1.8415">
        <ele>134.087487</ele>
        <time>2026-08-29T17:10:08Z</time>
      </trkpt>
      <trkpt lat="43.85658" lon="1.84146">
        <ele>134.050152</ele>
        <time>2026-08-29T17:10:09Z</time>
      </trkpt>
      <trkpt lat="43.85655" lon="1.84143">
        <ele>134.015045</ele>
        <time>2026-08-29T17:10:10Z</time>
      </trkpt>
      <trkpt lat="43.85651" lon="1.84139">
        <ele>133.977643</ele>
        <time>2026-08-29T17:10:11Z</time>
      </trkpt>
      <trkpt lat="43.85648" lon="1.84136">
        <ele>133.942673</ele>
        <time>2026-08-29T17:10:12Z</time>
      </trkpt>
      <trkpt lat="43.85645" lon="1.84133">
        <ele>133.911147</ele>
        <time>2026-08-29T17:10:13Z</time>
      </trkpt>
      <trkpt lat="43.85641" lon="1.84129">
        <ele>133.885271</ele>
        <time>2026-08-29T17:10:14Z</time>
      </trkpt>
      <trkpt lat="43.85638" lon="1.84126">
        <ele>133.905181</ele>
        <time>2026-08-29T17:10:15Z</time>
      </trkpt>
      <trkpt lat="43.85635" lon="1.84123">
        <ele>133.925787</ele>
        <time>2026-08-29T17:10:16Z</time>
      </trkpt>
      <trkpt lat="43.85632" lon="1.8412">
        <ele>133.946595</ele>
        <time>2026-08-29T17:10:17Z</time>
      </trkpt>
      <trkpt lat="43.85629" lon="1.84117">
        <ele>133.968784</ele>
        <time>2026-08-29T17:10:18Z</time>
      </trkpt>
      <trkpt lat="43.85626" lon="1.84113">
        <ele>133.989308</ele>
        <time>2026-08-29T17:10:19Z</time>
      </trkpt>
      <trkpt lat="43.85623" lon="1.84109">
        <ele>134.012661</ele>
        <time>2026-08-29T17:10:20Z</time>
      </trkpt>
      <trkpt lat="43.8562" lon="1.84106">
        <ele>134.034179</ele>
        <time>2026-08-29T17:10:21Z</time>
      </trkpt>
      <trkpt lat="43.85617" lon="1.84103">
        <ele>134.055274</ele>
        <time>2026-08-29T17:10:22Z</time>
      </trkpt>
      <trkpt lat="43.85614" lon="1.84099">
        <ele>134.077463</ele>
        <time>2026-08-29T17:10:23Z</time>
      </trkpt>
      <trkpt lat="43.8561" lon="1.84096">
        <ele>134.102134</ele>
        <time>2026-08-29T17:10:24Z</time>
      </trkpt>
      <trkpt lat="43.85606" lon="1.84092">
        <ele>134.128612</ele>
        <time>2026-08-29T17:10:25Z</time>
      </trkpt>
      <trkpt lat="43.85602" lon="1.84089">
        <ele>134.154621</ele>
        <time>2026-08-29T17:10:26Z</time>
      </trkpt>
      <trkpt lat="43.85598" lon="1.84086">
        <ele>134.180372</ele>
        <time>2026-08-29T17:10:27Z</time>
      </trkpt>
      <trkpt lat="43.85594" lon="1.84082">
        <ele>134.203662</ele>
        <time>2026-08-29T17:10:28Z</time>
      </trkpt>
      <trkpt lat="43.85591" lon="1.84078">
        <ele>134.225521</ele>
        <time>2026-08-29T17:10:29Z</time>
      </trkpt>
      <trkpt lat="43.85588" lon="1.84074">
        <ele>134.247909</ele>
        <time>2026-08-29T17:10:30Z</time>
      </trkpt>
      <trkpt lat="43.85585" lon="1.84071">
        <ele>134.269253</ele>
        <time>2026-08-29T17:10:31Z</time>
      </trkpt>
      <trkpt lat="43.85582" lon="1.84068">
        <ele>134.290101</ele>
        <time>2026-08-29T17:10:32Z</time>
      </trkpt>
      <trkpt lat="43.85579" lon="1.84064">
        <ele>134.312252</ele>
        <time>2026-08-29T17:10:33Z</time>
      </trkpt>
      <trkpt lat="43.85576" lon="1.84061">
        <ele>134.333953</ele>
        <time>2026-08-29T17:10:34Z</time>
      </trkpt>
      <trkpt lat="43.85572" lon="1.84058">
        <ele>134.356775</ele>
        <time>2026-08-29T17:10:35Z</time>
      </trkpt>
      <trkpt lat="43.85569" lon="1.84055">
        <ele>134.378699</ele>
        <time>2026-08-29T17:10:36Z</time>
      </trkpt>
      <trkpt lat="43.85566" lon="1.84052">
        <ele>134.399512</ele>
        <time>2026-08-29T17:10:37Z</time>
      </trkpt>
      <trkpt lat="43.85562" lon="1.84049">
        <ele>134.420112</ele>
        <time>2026-08-29T17:10:38Z</time>
      </trkpt>
      <trkpt lat="43.8556" lon="1.84046">
        <ele>134.438706</ele>
        <time>2026-08-29T17:10:39Z</time>
      </trkpt>
      <trkpt lat="43.85557" lon="1.84043">
        <ele>134.457967</ele>
        <time>2026-08-29T17:10:40Z</time>
      </trkpt>
      <trkpt lat="43.85554" lon="1.84041">
        <ele>134.476535</ele>
        <time>2026-08-29T17:10:41Z</time>
      </trkpt>
      <trkpt lat="43.85551" lon="1.84038">
        <ele>134.494666</ele>
        <time>2026-08-29T17:10:42Z</time>
      </trkpt>
      <trkpt lat="43.85547" lon="1.84036">
        <ele>134.516905</ele>
        <time>2026-08-29T17:10:43Z</time>
      </trkpt>
      <trkpt lat="43.85544" lon="1.84033">
        <ele>134.540045</ele>
        <time>2026-08-29T17:10:44Z</time>
      </trkpt>
      <trkpt lat="43.8554" lon="1.8403">
        <ele>134.564717</ele>
        <time>2026-08-29T17:10:45Z</time>
      </trkpt>
      <trkpt lat="43.85536" lon="1.84026">
        <ele>134.590895</ele>
        <time>2026-08-29T17:10:46Z</time>
      </trkpt>
      <trkpt lat="43.85532" lon="1.84022">
        <ele>134.616198</ele>
        <time>2026-08-29T17:10:47Z</time>
      </trkpt>
      <trkpt lat="43.85528" lon="1.84018">
        <ele>134.642843</ele>
        <time>2026-08-29T17:10:48Z</time>
      </trkpt>
      <trkpt lat="43.85524" lon="1.84014">
        <ele>134.669521</ele>
        <time>2026-08-29T17:10:49Z</time>
      </trkpt>
      <trkpt lat="43.8552" lon="1.84011">
        <ele>134.697537</ele>
        <time>2026-08-29T17:10:50Z</time>
      </trkpt>
      <trkpt lat="43.85515" lon="1.84007">
        <ele>134.726222</ele>
        <time>2026-08-29T17:10:51Z</time>
      </trkpt>
      <trkpt lat="43.85511" lon="1.84003">
        <ele>134.753743</ele>
        <time>2026-08-29T17:10:52Z</time>
      </trkpt>
      <trkpt lat="43.85507" lon="1.83999">
        <ele>134.780153</ele>
        <time>2026-08-29T17:10:53Z</time>
      </trkpt>
      <trkpt lat="43.85503" lon="1.83995">
        <ele>134.806437</ele>
        <time>2026-08-29T17:10:54Z</time>
      </trkpt>
      <trkpt lat="43.85499" lon="1.8399">
        <ele>134.833958</ele>
        <time>2026-08-29T17:10:55Z</time>
      </trkpt>
      <trkpt lat="43.85495" lon="1.83987">
        <ele>134.860807</ele>
        <time>2026-08-29T17:10:56Z</time>
      </trkpt>
      <trkpt lat="43.85492" lon="1.83983">
        <ele>134.786875</ele>
        <time>2026-08-29T17:10:57Z</time>
      </trkpt>
      <trkpt lat="43.85488" lon="1.83979">
        <ele>134.702319</ele>
        <time>2026-08-29T17:10:58Z</time>
      </trkpt>
      <trkpt lat="43.85483" lon="1.83976">
        <ele>134.618402</ele>
        <time>2026-08-29T17:10:59Z</time>
      </trkpt>
      <trkpt lat="43.85479" lon="1.83972">
        <ele>134.530892</ele>
        <time>2026-08-29T17:11:00Z</time>
      </trkpt>
      <trkpt lat="43.85475" lon="1.83968">
        <ele>134.442042</ele>
        <time>2026-08-29T17:11:01Z</time>
      </trkpt>
      <trkpt lat="43.85471" lon="1.83964">
        <ele>134.353149</ele>
        <time>2026-08-29T17:11:02Z</time>
      </trkpt>
      <trkpt lat="43.85467" lon="1.83959">
        <ele>134.26273</ele>
        <time>2026-08-29T17:11:03Z</time>
      </trkpt>
      <trkpt lat="43.85463" lon="1.83955">
        <ele>134.185087</ele>
        <time>2026-08-29T17:11:04Z</time>
      </trkpt>
      <trkpt lat="43.85459" lon="1.83952">
        <ele>134.106927</ele>
        <time>2026-08-29T17:11:05Z</time>
      </trkpt>
      <trkpt lat="43.85455" lon="1.83947">
        <ele>134.018637</ele>
        <time>2026-08-29T17:11:06Z</time>
      </trkpt>
      <trkpt lat="43.85452" lon="1.83943">
        <ele>133.930585</ele>
        <time>2026-08-29T17:11:07Z</time>
      </trkpt>
      <trkpt lat="43.85448" lon="1.83938">
        <ele>133.839581</ele>
        <time>2026-08-29T17:11:08Z</time>
      </trkpt>
      <trkpt lat="43.85444" lon="1.83933">
        <ele>133.743912</ele>
        <time>2026-08-29T17:11:09Z</time>
      </trkpt>
      <trkpt lat="43.8544" lon="1.83927">
        <ele>133.646409</ele>
        <time>2026-08-29T17:11:10Z</time>
      </trkpt>
      <trkpt lat="43.85436" lon="1.83921">
        <ele>133.547765</ele>
        <time>2026-08-29T17:11:11Z</time>
      </trkpt>
      <trkpt lat="43.85432" lon="1.83915">
        <ele>133.454409</ele>
        <time>2026-08-29T17:11:12Z</time>
      </trkpt>
      <trkpt lat="43.85429" lon="1.83909">
        <ele>133.361349</ele>
        <time>2026-08-29T17:11:13Z</time>
      </trkpt>
      <trkpt lat="43.85426" lon="1.83903">
        <ele>133.262222</ele>
        <time>2026-08-29T17:11:14Z</time>
      </trkpt>
      <trkpt lat="43.85423" lon="1.83897">
        <ele>133.172196</ele>
        <time>2026-08-29T17:11:15Z</time>
      </trkpt>
      <trkpt lat="43.8542" lon="1.83892">
        <ele>133.08722</ele>
        <time>2026-08-29T17:11:16Z</time>
      </trkpt>
      <trkpt lat="43.85417" lon="1.83886">
        <ele>132.998213</ele>
        <time>2026-08-29T17:11:17Z</time>
      </trkpt>
      <trkpt lat="43.85414" lon="1.8388">
        <ele>132.909092</ele>
        <time>2026-08-29T17:11:18Z</time>
      </trkpt>
      <trkpt lat="43.85412" lon="1.83874">
        <ele>132.830886</ele>
        <time>2026-08-29T17:11:19Z</time>
      </trkpt>
      <trkpt lat="43.85409" lon="1.83869">
        <ele>132.744913</ele>
        <time>2026-08-29T17:11:20Z</time>
      </trkpt>
      <trkpt lat="43.85406" lon="1.83863">
        <ele>132.657863</ele>
        <time>2026-08-29T17:11:21Z</time>
      </trkpt>
      <trkpt lat="43.85403" lon="1.83857">
        <ele>132.565821</ele>
        <time>2026-08-29T17:11:22Z</time>
      </trkpt>
      <trkpt lat="43.854" lon="1.83851">
        <ele>132.478683</ele>
        <time>2026-08-29T17:11:23Z</time>
      </trkpt>
      <trkpt lat="43.85398" lon="1.83845">
        <ele>132.387919</ele>
        <time>2026-08-29T17:11:24Z</time>
      </trkpt>
      <trkpt lat="43.85394" lon="1.83839">
        <ele>132.289776</ele>
        <time>2026-08-29T17:11:25Z</time>
      </trkpt>
      <trkpt lat="43.85392" lon="1.83833">
        <ele>132.204733</ele>
        <time>2026-08-29T17:11:26Z</time>
      </trkpt>
      <trkpt lat="43.85389" lon="1.83827">
        <ele>132.113345</ele>
        <time>2026-08-29T17:11:27Z</time>
      </trkpt>
      <trkpt lat="43.85386" lon="1.8382">
        <ele>132.018929</ele>
        <time>2026-08-29T17:11:28Z</time>
      </trkpt>
      <trkpt lat="43.85383" lon="1.83814">
        <ele>131.930853</ele>
        <time>2026-08-29T17:11:29Z</time>
      </trkpt>
      <trkpt lat="43.8538" lon="1.83808">
        <ele>131.839821</ele>
        <time>2026-08-29T17:11:30Z</time>
      </trkpt>
      <trkpt lat="43.85378" lon="1.83802">
        <ele>131.75728</ele>
        <time>2026-08-29T17:11:31Z</time>
      </trkpt>
      <trkpt lat="43.85375" lon="1.83797">
        <ele>131.703928</ele>
        <time>2026-08-29T17:11:32Z</time>
      </trkpt>
      <trkpt lat="43.85373" lon="1.83791">
        <ele>131.653405</ele>
        <time>2026-08-29T17:11:33Z</time>
      </trkpt>
      <trkpt lat="43.8537" lon="1.83784">
        <ele>131.599315</ele>
        <time>2026-08-29T17:11:34Z</time>
      </trkpt>
      <trkpt lat="43.85367" lon="1.83778">
        <ele>131.540698</ele>
        <time>2026-08-29T17:11:35Z</time>
      </trkpt>
      <trkpt lat="43.85364" lon="1.83771">
        <ele>131.480372</ele>
        <time>2026-08-29T17:11:36Z</time>
      </trkpt>
      <trkpt lat="43.85361" lon="1.83764">
        <ele>131.423026</ele>
        <time>2026-08-29T17:11:37Z</time>
      </trkpt>
      <trkpt lat="43.85357" lon="1.83758">
        <ele>131.363292</ele>
        <time>2026-08-29T17:11:38Z</time>
      </trkpt>
      <trkpt lat="43.85354" lon="1.83751">
        <ele>131.304154</ele>
        <time>2026-08-29T17:11:39Z</time>
      </trkpt>
      <trkpt lat="43.85351" lon="1.83745">
        <ele>131.246706</ele>
        <time>2026-08-29T17:11:40Z</time>
      </trkpt>
      <trkpt lat="43.85348" lon="1.83739">
        <ele>131.191152</ele>
        <time>2026-08-29T17:11:41Z</time>
      </trkpt>
      <trkpt lat="43.85344" lon="1.83732">
        <ele>131.133815</ele>
        <time>2026-08-29T17:11:42Z</time>
      </trkpt>
      <trkpt lat="43.85342" lon="1.83726">
        <ele>131.079947</ele>
        <time>2026-08-29T17:11:43Z</time>
      </trkpt>
      <trkpt lat="43.85338" lon="1.8372">
        <ele>131.023205</ele>
        <time>2026-08-29T17:11:44Z</time>
      </trkpt>
      <trkpt lat="43.85336" lon="1.83714">
        <ele>130.969872</ele>
        <time>2026-08-29T17:11:45Z</time>
      </trkpt>
      <trkpt lat="43.85333" lon="1.83708">
        <ele>130.916713</ele>
        <time>2026-08-29T17:11:46Z</time>
      </trkpt>
      <trkpt lat="43.85329" lon="1.83701">
        <ele>130.858734</ele>
        <time>2026-08-29T17:11:47Z</time>
      </trkpt>
      <trkpt lat="43.85325" lon="1.83696">
        <ele>130.801215</ele>
        <time>2026-08-29T17:11:48Z</time>
      </trkpt>
      <trkpt lat="43.85321" lon="1.83691">
        <ele>130.744211</ele>
        <time>2026-08-29T17:11:49Z</time>
      </trkpt>
      <trkpt lat="43.85317" lon="1.83685">
        <ele>130.683611</ele>
        <time>2026-08-29T17:11:50Z</time>
      </trkpt>
      <trkpt lat="43.85312" lon="1.83681">
        <ele>130.6257</ele>
        <time>2026-08-29T17:11:51Z</time>
      </trkpt>
      <trkpt lat="43.85307" lon="1.83676">
        <ele>130.568614</ele>
        <time>2026-08-29T17:11:52Z</time>
      </trkpt>
      <trkpt lat="43.85303" lon="1.83672">
        <ele>130.513649</ele>
        <time>2026-08-29T17:11:53Z</time>
      </trkpt>
      <trkpt lat="43.85299" lon="1.83668">
        <ele>130.460774</ele>
        <time>2026-08-29T17:11:54Z</time>
      </trkpt>
      <trkpt lat="43.85295" lon="1.83664">
        <ele>130.408308</ele>
        <time>2026-08-29T17:11:55Z</time>
      </trkpt>
      <trkpt lat="43.85291" lon="1.8366">
        <ele>130.361315</ele>
        <time>2026-08-29T17:11:56Z</time>
      </trkpt>
      <trkpt lat="43.85288" lon="1.83657">
        <ele>130.32015</ele>
        <time>2026-08-29T17:11:57Z</time>
      </trkpt>
      <trkpt lat="43.85284" lon="1.83653">
        <ele>130.272581</ele>
        <time>2026-08-29T17:11:58Z</time>
      </trkpt>
      <trkpt lat="43.85281" lon="1.83648">
        <ele>130.223212</ele>
        <time>2026-08-29T17:11:59Z</time>
      </trkpt>
      <trkpt lat="43.85278" lon="1.83642">
        <ele>130.173017</ele>
        <time>2026-08-29T17:12:00Z</time>
      </trkpt>
      <trkpt lat="43.85275" lon="1.83637">
        <ele>130.123413</ele>
        <time>2026-08-29T17:12:01Z</time>
      </trkpt>
      <trkpt lat="43.85272" lon="1.83631">
        <ele>130.071959</ele>
        <time>2026-08-29T17:12:02Z</time>
      </trkpt>
      <trkpt lat="43.8527" lon="1.83625">
        <ele>130.019254</ele>
        <time>2026-08-29T17:12:03Z</time>
      </trkpt>
      <trkpt lat="43.85267" lon="1.83619">
        <ele>129.968567</ele>
        <time>2026-08-29T17:12:04Z</time>
      </trkpt>
      <trkpt lat="43.85264" lon="1.83613">
        <ele>129.914767</ele>
        <time>2026-08-29T17:12:05Z</time>
      </trkpt>
      <trkpt lat="43.85262" lon="1.83606">
        <ele>129.977807</ele>
        <time>2026-08-29T17:12:06Z</time>
      </trkpt>
      <trkpt lat="43.85259" lon="1.836">
        <ele>130.037954</ele>
        <time>2026-08-29T17:12:07Z</time>
      </trkpt>
      <trkpt lat="43.85256" lon="1.83594">
        <ele>130.102612</ele>
        <time>2026-08-29T17:12:08Z</time>
      </trkpt>
      <trkpt lat="43.85254" lon="1.83587">
        <ele>130.168619</ele>
        <time>2026-08-29T17:12:09Z</time>
      </trkpt>
      <trkpt lat="43.85251" lon="1.83581">
        <ele>130.23437</ele>
        <time>2026-08-29T17:12:10Z</time>
      </trkpt>
      <trkpt lat="43.85248" lon="1.83574">
        <ele>130.302236</ele>
        <time>2026-08-29T17:12:11Z</time>
      </trkpt>
      <trkpt lat="43.85245" lon="1.83568">
        <ele>130.366455</ele>
        <time>2026-08-29T17:12:12Z</time>
      </trkpt>
      <trkpt lat="43.85241" lon="1.83563">
        <ele>130.426495</ele>
        <time>2026-08-29T17:12:13Z</time>
      </trkpt>
      <trkpt lat="43.85238" lon="1.83558">
        <ele>130.482094</ele>
        <time>2026-08-29T17:12:14Z</time>
      </trkpt>
      <trkpt lat="43.85234" lon="1.83554">
        <ele>130.543516</ele>
        <time>2026-08-29T17:12:15Z</time>
      </trkpt>
      <trkpt lat="43.85231" lon="1.8355">
        <ele>130.601195</ele>
        <time>2026-08-29T17:12:16Z</time>
      </trkpt>
      <trkpt lat="43.85227" lon="1.83546">
        <ele>130.656302</ele>
        <time>2026-08-29T17:12:17Z</time>
      </trkpt>
      <trkpt lat="43.85224" lon="1.83542">
        <ele>130.709391</ele>
        <time>2026-08-29T17:12:18Z</time>
      </trkpt>
      <trkpt lat="43.8522" lon="1.83538">
        <ele>130.761444</ele>
        <time>2026-08-29T17:12:19Z</time>
      </trkpt>
      <trkpt lat="43.85217" lon="1.83535">
        <ele>130.811036</ele>
        <time>2026-08-29T17:12:20Z</time>
      </trkpt>
      <trkpt lat="43.85214" lon="1.83532">
        <ele>130.854738</ele>
        <time>2026-08-29T17:12:21Z</time>
      </trkpt>
      <trkpt lat="43.85211" lon="1.83529">
        <ele>130.901356</ele>
        <time>2026-08-29T17:12:22Z</time>
      </trkpt>
      <trkpt lat="43.85208" lon="1.83526">
        <ele>130.945525</ele>
        <time>2026-08-29T17:12:23Z</time>
      </trkpt>
      <trkpt lat="43.85205" lon="1.83523">
        <ele>130.99363</ele>
        <time>2026-08-29T17:12:24Z</time>
      </trkpt>
      <trkpt lat="43.85202" lon="1.83519">
        <ele>131.038525</ele>
        <time>2026-08-29T17:12:25Z</time>
      </trkpt>
      <trkpt lat="43.852" lon="1.83516">
        <ele>131.080241</ele>
        <time>2026-08-29T17:12:26Z</time>
      </trkpt>
      <trkpt lat="43.85197" lon="1.83512">
        <ele>131.119183</ele>
        <time>2026-08-29T17:12:27Z</time>
      </trkpt>
      <trkpt lat="43.85195" lon="1.83509">
        <ele>131.155552</ele>
        <time>2026-08-29T17:12:28Z</time>
      </trkpt>
      <trkpt lat="43.85193" lon="1.83506">
        <ele>131.192551</ele>
        <time>2026-08-29T17:12:29Z</time>
      </trkpt>
      <trkpt lat="43.85191" lon="1.83503">
        <ele>131.228572</ele>
        <time>2026-08-29T17:12:30Z</time>
      </trkpt>
      <trkpt lat="43.85189" lon="1.83501">
        <ele>131.263714</ele>
        <time>2026-08-29T17:12:31Z</time>
      </trkpt>
      <trkpt lat="43.85187" lon="1.83498">
        <ele>131.300713</ele>
        <time>2026-08-29T17:12:32Z</time>
      </trkpt>
      <trkpt lat="43.85185" lon="1.83495">
        <ele>131.336252</ele>
        <time>2026-08-29T17:12:33Z</time>
      </trkpt>
      <trkpt lat="43.85183" lon="1.83492">
        <ele>131.373171</ele>
        <time>2026-08-29T17:12:34Z</time>
      </trkpt>
      <trkpt lat="43.8518" lon="1.83489">
        <ele>131.41017</ele>
        <time>2026-08-29T17:12:35Z</time>
      </trkpt>
      <trkpt lat="43.85178" lon="1.83486">
        <ele>131.445076</ele>
        <time>2026-08-29T17:12:36Z</time>
      </trkpt>
      <trkpt lat="43.85177" lon="1.83483">
        <ele>131.477062</ele>
        <time>2026-08-29T17:12:37Z</time>
      </trkpt>
      <trkpt lat="43.85175" lon="1.8348">
        <ele>131.512602</ele>
        <time>2026-08-29T17:12:38Z</time>
      </trkpt>
      <trkpt lat="43.85173" lon="1.83477">
        <ele>131.546686</ele>
        <time>2026-08-29T17:12:39Z</time>
      </trkpt>
      <trkpt lat="43.85171" lon="1.83474">
        <ele>131.579196</ele>
        <time>2026-08-29T17:12:40Z</time>
      </trkpt>
      <trkpt lat="43.85169" lon="1.83471">
        <ele>131.612641</ele>
        <time>2026-08-29T17:12:41Z</time>
      </trkpt>
      <trkpt lat="43.85167" lon="1.83469">
        <ele>131.646724</ele>
        <time>2026-08-29T17:12:42Z</time>
      </trkpt>
      <trkpt lat="43.85165" lon="1.83466">
        <ele>131.67871</ele>
        <time>2026-08-29T17:12:43Z</time>
      </trkpt>
      <trkpt lat="43.85164" lon="1.83463">
        <ele>131.711527</ele>
        <time>2026-08-29T17:12:44Z</time>
      </trkpt>
      <trkpt lat="43.85162" lon="1.8346">
        <ele>131.742707</ele>
        <time>2026-08-29T17:12:45Z</time>
      </trkpt>
      <trkpt lat="43.8516" lon="1.83458">
        <ele>131.772355</ele>
        <time>2026-08-29T17:12:46Z</time>
      </trkpt>
      <trkpt lat="43.85158" lon="1.83455">
        <ele>131.8058</ele>
        <time>2026-08-29T17:12:47Z</time>
      </trkpt>
      <trkpt lat="43.85157" lon="1.83452">
        <ele>131.840533</ele>
        <time>2026-08-29T17:12:48Z</time>
      </trkpt>
      <trkpt lat="43.85155" lon="1.83449">
        <ele>131.876523</ele>
        <time>2026-08-29T17:12:49Z</time>
      </trkpt>
      <trkpt lat="43.85153" lon="1.83445">
        <ele>131.911097</ele>
        <time>2026-08-29T17:12:50Z</time>
      </trkpt>
      <trkpt lat="43.85152" lon="1.83442">
        <ele>131.944971</ele>
        <time>2026-08-29T17:12:51Z</time>
      </trkpt>
      <trkpt lat="43.8515" lon="1.83439">
        <ele>131.979545</ele>
        <time>2026-08-29T17:12:52Z</time>
      </trkpt>
      <trkpt lat="43.85148" lon="1.83436">
        <ele>132.013423</ele>
        <time>2026-08-29T17:12:53Z</time>
      </trkpt>
      <trkpt lat="43.85146" lon="1.83433">
        <ele>132.045263</ele>
        <time>2026-08-29T17:12:54Z</time>
      </trkpt>
      <trkpt lat="43.85145" lon="1.8343">
        <ele>132.077249</ele>
        <time>2026-08-29T17:12:55Z</time>
      </trkpt>
      <trkpt lat="43.85143" lon="1.83427">
        <ele>132.082824</ele>
        <time>2026-08-29T17:12:56Z</time>
      </trkpt>
      <trkpt lat="43.85141" lon="1.83425">
        <ele>132.081114</ele>
        <time>2026-08-29T17:12:57Z</time>
      </trkpt>
      <trkpt lat="43.8514" lon="1.83421">
        <ele>132.079328</ele>
        <time>2026-08-29T17:12:58Z</time>
      </trkpt>
      <trkpt lat="43.85138" lon="1.83418">
        <ele>132.077387</ele>
        <time>2026-08-29T17:12:59Z</time>
      </trkpt>
      <trkpt lat="43.85137" lon="1.83414">
        <ele>132.075326</ele>
        <time>2026-08-29T17:13:00Z</time>
      </trkpt>
      <trkpt lat="43.85135" lon="1.83411">
        <ele>132.073385</ele>
        <time>2026-08-29T17:13:01Z</time>
      </trkpt>
      <trkpt lat="43.85134" lon="1.83407">
        <ele>132.071273</ele>
        <time>2026-08-29T17:13:02Z</time>
      </trkpt>
      <trkpt lat="43.85132" lon="1.83403">
        <ele>132.069172</ele>
        <time>2026-08-29T17:13:03Z</time>
      </trkpt>
      <trkpt lat="43.8513" lon="1.83399">
        <ele>132.067231</ele>
        <time>2026-08-29T17:13:04Z</time>
      </trkpt>
      <trkpt lat="43.85129" lon="1.83396">
        <ele>132.065364</ele>
        <time>2026-08-29T17:13:05Z</time>
      </trkpt>
      <trkpt lat="43.85127" lon="1.83392">
        <ele>132.063387</ele>
        <time>2026-08-29T17:13:06Z</time>
      </trkpt>
      <trkpt lat="43.85126" lon="1.83389">
        <ele>132.06156</ele>
        <time>2026-08-29T17:13:07Z</time>
      </trkpt>
      <trkpt lat="43.85124" lon="1.83385">
        <ele>132.059391</ele>
        <time>2026-08-29T17:13:08Z</time>
      </trkpt>
      <trkpt lat="43.85122" lon="1.83381">
        <ele>132.057148</ele>
        <time>2026-08-29T17:13:09Z</time>
      </trkpt>
      <trkpt lat="43.8512" lon="1.83377">
        <ele>132.054932</ele>
        <time>2026-08-29T17:13:10Z</time>
      </trkpt>
      <trkpt lat="43.85119" lon="1.83373">
        <ele>132.052717</ele>
        <time>2026-08-29T17:13:11Z</time>
      </trkpt>
      <trkpt lat="43.85117" lon="1.83369">
        <ele>132.050502</ele>
        <time>2026-08-29T17:13:12Z</time>
      </trkpt>
      <trkpt lat="43.85115" lon="1.83365">
        <ele>132.048462</ele>
        <time>2026-08-29T17:13:13Z</time>
      </trkpt>
      <trkpt lat="43.85114" lon="1.83361">
        <ele>132.046391</ele>
        <time>2026-08-29T17:13:14Z</time>
      </trkpt>
      <trkpt lat="43.85112" lon="1.83357">
        <ele>132.044183</ele>
        <time>2026-08-29T17:13:15Z</time>
      </trkpt>
      <trkpt lat="43.8511" lon="1.83353">
        <ele>132.042093</ele>
        <time>2026-08-29T17:13:16Z</time>
      </trkpt>
      <trkpt lat="43.85108" lon="1.8335">
        <ele>132.039966</ele>
        <time>2026-08-29T17:13:17Z</time>
      </trkpt>
      <trkpt lat="43.85106" lon="1.83346">
        <ele>132.037876</ele>
        <time>2026-08-29T17:13:18Z</time>
      </trkpt>
      <trkpt lat="43.85105" lon="1.83342">
        <ele>132.035707</ele>
        <time>2026-08-29T17:13:19Z</time>
      </trkpt>
      <trkpt lat="43.85103" lon="1.83339">
        <ele>132.033686</ele>
        <time>2026-08-29T17:13:20Z</time>
      </trkpt>
      <trkpt lat="43.85101" lon="1.83335">
        <ele>132.031512</ele>
        <time>2026-08-29T17:13:21Z</time>
      </trkpt>
      <trkpt lat="43.851" lon="1.83331">
        <ele>132.029382</ele>
        <time>2026-08-29T17:13:22Z</time>
      </trkpt>
      <trkpt lat="43.85098" lon="1.83327">
        <ele>132.027139</ele>
        <time>2026-08-29T17:13:23Z</time>
      </trkpt>
      <trkpt lat="43.85096" lon="1.83323">
        <ele>132.024856</ele>
        <time>2026-08-29T17:13:24Z</time>
      </trkpt>
      <trkpt lat="43.85094" lon="1.83319">
        <ele>132.022573</ele>
        <time>2026-08-29T17:13:25Z</time>
      </trkpt>
      <trkpt lat="43.85092" lon="1.83314">
        <ele>132.020265</ele>
        <time>2026-08-29T17:13:26Z</time>
      </trkpt>
      <trkpt lat="43.85091" lon="1.83309">
        <ele>132.017841</ele>
        <time>2026-08-29T17:13:27Z</time>
      </trkpt>
      <trkpt lat="43.8509" lon="1.83304">
        <ele>132.015482</ele>
        <time>2026-08-29T17:13:28Z</time>
      </trkpt>
      <trkpt lat="43.85089" lon="1.833">
        <ele>132.013147</ele>
        <time>2026-08-29T17:13:29Z</time>
      </trkpt>
      <trkpt lat="43.85088" lon="1.83295">
        <ele>132.010678</ele>
        <time>2026-08-29T17:13:30Z</time>
      </trkpt>
      <trkpt lat="43.85086" lon="1.8329">
        <ele>132.008189</ele>
        <time>2026-08-29T17:13:31Z</time>
      </trkpt>
      <trkpt lat="43.85085" lon="1.83285">
        <ele>132.005898</ele>
        <time>2026-08-29T17:13:32Z</time>
      </trkpt>
      <trkpt lat="43.85084" lon="1.83281">
        <ele>132.003714</ele>
        <time>2026-08-29T17:13:33Z</time>
      </trkpt>
      <trkpt lat="43.85082" lon="1.83276">
        <ele>132.001434</ele>
        <time>2026-08-29T17:13:34Z</time>
      </trkpt>
      <trkpt lat="43.85081" lon="1.83272">
        <ele>131.999239</ele>
        <time>2026-08-29T17:13:35Z</time>
      </trkpt>
      <trkpt lat="43.8508" lon="1.83268">
        <ele>131.996947</ele>
        <time>2026-08-29T17:13:36Z</time>
      </trkpt>
      <trkpt lat="43.85078" lon="1.83263">
        <ele>131.99459</ele>
        <time>2026-08-29T17:13:37Z</time>
      </trkpt>
      <trkpt lat="43.85077" lon="1.83259">
        <ele>131.99243</ele>
        <time>2026-08-29T17:13:38Z</time>
      </trkpt>
      <trkpt lat="43.85076" lon="1.83254">
        <ele>131.990293</ele>
        <time>2026-08-29T17:13:39Z</time>
      </trkpt>
      <trkpt lat="43.85075" lon="1.8325">
        <ele>131.988221</ele>
        <time>2026-08-29T17:13:40Z</time>
      </trkpt>
      <trkpt lat="43.85074" lon="1.83246">
        <ele>131.986235</ele>
        <time>2026-08-29T17:13:41Z</time>
      </trkpt>
      <trkpt lat="43.85072" lon="1.83243">
        <ele>131.984408</ele>
        <time>2026-08-29T17:13:42Z</time>
      </trkpt>
      <trkpt lat="43.85071" lon="1.8324">
        <ele>131.982843</ele>
        <time>2026-08-29T17:13:43Z</time>
      </trkpt>
      <trkpt lat="43.85071" lon="1.83237">
        <ele>131.981446</ele>
        <time>2026-08-29T17:13:44Z</time>
      </trkpt>
      <trkpt lat="43.85069" lon="1.83234">
        <ele>131.979697</ele>
        <time>2026-08-29T17:13:45Z</time>
      </trkpt>
      <trkpt lat="43.85067" lon="1.83231">
        <ele>131.977862</ele>
        <time>2026-08-29T17:13:46Z</time>
      </trkpt>
      <trkpt lat="43.85065" lon="1.83227">
        <ele>131.975487</ele>
        <time>2026-08-29T17:13:47Z</time>
      </trkpt>
      <trkpt lat="43.85062" lon="1.83224">
        <ele>131.972811</ele>
        <time>2026-08-29T17:13:48Z</time>
      </trkpt>
      <trkpt lat="43.85058" lon="1.8322">
        <ele>131.970088</ele>
        <time>2026-08-29T17:13:49Z</time>
      </trkpt>
      <trkpt lat="43.85055" lon="1.83217">
        <ele>131.967511</ele>
        <time>2026-08-29T17:13:50Z</time>
      </trkpt>
      <trkpt lat="43.85053" lon="1.83212">
        <ele>131.93655</ele>
        <time>2026-08-29T17:13:51Z</time>
      </trkpt>
      <trkpt lat="43.85052" lon="1.83208">
        <ele>131.907319</ele>
        <time>2026-08-29T17:13:52Z</time>
      </trkpt>
      <trkpt lat="43.85051" lon="1.83204">
        <ele>131.879738</ele>
        <time>2026-08-29T17:13:53Z</time>
      </trkpt>
      <trkpt lat="43.8505" lon="1.83199">
        <ele>131.853118</ele>
        <time>2026-08-29T17:13:54Z</time>
      </trkpt>
      <trkpt lat="43.8505" lon="1.83195">
        <ele>131.828443</ele>
        <time>2026-08-29T17:13:55Z</time>
      </trkpt>
      <trkpt lat="43.85049" lon="1.83191">
        <ele>131.802975</ele>
        <time>2026-08-29T17:13:56Z</time>
      </trkpt>
      <trkpt lat="43.85048" lon="1.83188">
        <ele>131.780093</ele>
        <time>2026-08-29T17:13:57Z</time>
      </trkpt>
      <trkpt lat="43.85047" lon="1.83184">
        <ele>131.757197</ele>
        <time>2026-08-29T17:13:58Z</time>
      </trkpt>
      <trkpt lat="43.85046" lon="1.83181">
        <ele>131.736872</ele>
        <time>2026-08-29T17:13:59Z</time>
      </trkpt>
      <trkpt lat="43.85045" lon="1.83177">
        <ele>131.714286</ele>
        <time>2026-08-29T17:14:00Z</time>
      </trkpt>
      <trkpt lat="43.85045" lon="1.83174">
        <ele>131.691624</ele>
        <time>2026-08-29T17:14:01Z</time>
      </trkpt>
      <trkpt lat="43.85044" lon="1.8317">
        <ele>131.669886</ele>
        <time>2026-08-29T17:14:02Z</time>
      </trkpt>
      <trkpt lat="43.85043" lon="1.83167">
        <ele>131.64901</ele>
        <time>2026-08-29T17:14:03Z</time>
      </trkpt>
      <trkpt lat="43.85041" lon="1.83164">
        <ele>131.625754</ele>
        <time>2026-08-29T17:14:04Z</time>
      </trkpt>
      <trkpt lat="43.8504" lon="1.83162">
        <ele>131.604868</ele>
        <time>2026-08-29T17:14:05Z</time>
      </trkpt>
      <trkpt lat="43.85038" lon="1.83159">
        <ele>131.585102</ele>
        <time>2026-08-29T17:14:06Z</time>
      </trkpt>
      <trkpt lat="43.85036" lon="1.83157">
        <ele>131.563861</ele>
        <time>2026-08-29T17:14:07Z</time>
      </trkpt>
      <trkpt lat="43.85035" lon="1.83154">
        <ele>131.541785</ele>
        <time>2026-08-29T17:14:08Z</time>
      </trkpt>
      <trkpt lat="43.85032" lon="1.83151">
        <ele>131.515934</ele>
        <time>2026-08-29T17:14:09Z</time>
      </trkpt>
      <trkpt lat="43.8503" lon="1.83148">
        <ele>131.489498</ele>
        <time>2026-08-29T17:14:10Z</time>
      </trkpt>
      <trkpt lat="43.85028" lon="1.83145">
        <ele>131.463832</ele>
        <time>2026-08-29T17:14:11Z</time>
      </trkpt>
      <trkpt lat="43.85025" lon="1.83141">
        <ele>131.429102</ele>
        <time>2026-08-29T17:14:12Z</time>
      </trkpt>
      <trkpt lat="43.85022" lon="1.83138">
        <ele>131.397202</ele>
        <time>2026-08-29T17:14:13Z</time>
      </trkpt>
      <trkpt lat="43.85019" lon="1.83135">
        <ele>131.365508</ele>
        <time>2026-08-29T17:14:14Z</time>
      </trkpt>
      <trkpt lat="43.85015" lon="1.83133">
        <ele>131.332325</ele>
        <time>2026-08-29T17:14:15Z</time>
      </trkpt>
      <trkpt lat="43.85012" lon="1.8313">
        <ele>131.300031</ele>
        <time>2026-08-29T17:14:16Z</time>
      </trkpt>
      <trkpt lat="43.85008" lon="1.83128">
        <ele>131.26407</ele>
        <time>2026-08-29T17:14:17Z</time>
      </trkpt>
      <trkpt lat="43.85005" lon="1.83125">
        <ele>131.230741</ele>
        <time>2026-08-29T17:14:18Z</time>
      </trkpt>
      <trkpt lat="43.85001" lon="1.83122">
        <ele>131.195738</ele>
        <time>2026-08-29T17:14:19Z</time>
      </trkpt>
      <trkpt lat="43.84997" lon="1.83119">
        <ele>131.157695</ele>
        <time>2026-08-29T17:14:20Z</time>
      </trkpt>
      <trkpt lat="43.84994" lon="1.83116">
        <ele>131.123638</ele>
        <time>2026-08-29T17:14:21Z</time>
      </trkpt>
      <trkpt lat="43.84989" lon="1.83114">
        <ele>131.081425</ele>
        <time>2026-08-29T17:14:22Z</time>
      </trkpt>
      <trkpt lat="43.84984" lon="1.83111">
        <ele>131.040211</ele>
        <time>2026-08-29T17:14:23Z</time>
      </trkpt>
      <trkpt lat="43.8498" lon="1.83109">
        <ele>131.000674</ele>
        <time>2026-08-29T17:14:24Z</time>
      </trkpt>
      <trkpt lat="43.84976" lon="1.83106">
        <ele>130.962167</ele>
        <time>2026-08-29T17:14:25Z</time>
      </trkpt>
      <trkpt lat="43.84972" lon="1.83102">
        <ele>130.919061</ele>
        <time>2026-08-29T17:14:26Z</time>
      </trkpt>
      <trkpt lat="43.84967" lon="1.831">
        <ele>130.87672</ele>
        <time>2026-08-29T17:14:27Z</time>
      </trkpt>
      <trkpt lat="43.84963" lon="1.83096">
        <ele>130.835298</ele>
        <time>2026-08-29T17:14:28Z</time>
      </trkpt>
      <trkpt lat="43.84959" lon="1.83094">
        <ele>130.79602</ele>
        <time>2026-08-29T17:14:29Z</time>
      </trkpt>
      <trkpt lat="43.84954" lon="1.8309">
        <ele>130.752645</ele>
        <time>2026-08-29T17:14:30Z</time>
      </trkpt>
      <trkpt lat="43.8495" lon="1.83087">
        <ele>130.710191</ele>
        <time>2026-08-29T17:14:31Z</time>
      </trkpt>
      <trkpt lat="43.84945" lon="1.83084">
        <ele>130.669344</ele>
        <time>2026-08-29T17:14:32Z</time>
      </trkpt>
      <trkpt lat="43.84942" lon="1.8308">
        <ele>130.632916</ele>
        <time>2026-08-29T17:14:33Z</time>
      </trkpt>
      <trkpt lat="43.84938" lon="1.83077">
        <ele>130.594821</ele>
        <time>2026-08-29T17:14:34Z</time>
      </trkpt>
      <trkpt lat="43.84935" lon="1.83072">
        <ele>130.556036</ele>
        <time>2026-08-29T17:14:35Z</time>
      </trkpt>
      <trkpt lat="43.84931" lon="1.83067">
        <ele>130.513091</ele>
        <time>2026-08-29T17:14:36Z</time>
      </trkpt>
      <trkpt lat="43.84927" lon="1.83062">
        <ele>130.466795</ele>
        <time>2026-08-29T17:14:37Z</time>
      </trkpt>
      <trkpt lat="43.84924" lon="1.83056">
        <ele>130.366041</ele>
        <time>2026-08-29T17:14:38Z</time>
      </trkpt>
      <trkpt lat="43.8492" lon="1.83049">
        <ele>130.214588</ele>
        <time>2026-08-29T17:14:39Z</time>
      </trkpt>
      <trkpt lat="43.84916" lon="1.83042">
        <ele>130.054399</ele>
        <time>2026-08-29T17:14:40Z</time>
      </trkpt>
      <trkpt lat="43.84912" lon="1.83035">
        <ele>129.890002</ele>
        <time>2026-08-29T17:14:41Z</time>
      </trkpt>
      <trkpt lat="43.84909" lon="1.83028">
        <ele>129.740909</ele>
        <time>2026-08-29T17:14:42Z</time>
      </trkpt>
      <trkpt lat="43.84906" lon="1.8302">
        <ele>129.58708</ele>
        <time>2026-08-29T17:14:43Z</time>
      </trkpt>
      <trkpt lat="43.84904" lon="1.83013">
        <ele>129.444438</ele>
        <time>2026-08-29T17:14:44Z</time>
      </trkpt>
      <trkpt lat="43.84901" lon="1.83005">
        <ele>129.284531</ele>
        <time>2026-08-29T17:14:45Z</time>
      </trkpt>
      <trkpt lat="43.84898" lon="1.82997">
        <ele>129.1339</ele>
        <time>2026-08-29T17:14:46Z</time>
      </trkpt>
      <trkpt lat="43.84895" lon="1.8299">
        <ele>128.994679</ele>
        <time>2026-08-29T17:14:47Z</time>
      </trkpt>
      <trkpt lat="43.84893" lon="1.82982">
        <ele>128.838652</ele>
        <time>2026-08-29T17:14:48Z</time>
      </trkpt>
      <trkpt lat="43.84889" lon="1.82974">
        <ele>128.672018</ele>
        <time>2026-08-29T17:14:49Z</time>
      </trkpt>
      <trkpt lat="43.84886" lon="1.82967">
        <ele>128.532442</ele>
        <time>2026-08-29T17:14:50Z</time>
      </trkpt>
      <trkpt lat="43.84884" lon="1.8296">
        <ele>128.386088</ele>
        <time>2026-08-29T17:14:51Z</time>
      </trkpt>
      <trkpt lat="43.84881" lon="1.82953">
        <ele>128.238134</ele>
        <time>2026-08-29T17:14:52Z</time>
      </trkpt>
      <trkpt lat="43.84879" lon="1.82944">
        <ele>128.078382</ele>
        <time>2026-08-29T17:14:53Z</time>
      </trkpt>
      <trkpt lat="43.84877" lon="1.82937">
        <ele>127.93607</ele>
        <time>2026-08-29T17:14:54Z</time>
      </trkpt>
      <trkpt lat="43.84874" lon="1.82929">
        <ele>127.77476</ele>
        <time>2026-08-29T17:14:55Z</time>
      </trkpt>
      <trkpt lat="43.84871" lon="1.8292">
        <ele>127.611247</ele>
        <time>2026-08-29T17:14:56Z</time>
      </trkpt>
      <trkpt lat="43.84868" lon="1.82912">
        <ele>127.4492</ele>
        <time>2026-08-29T17:14:57Z</time>
      </trkpt>
      <trkpt lat="43.84865" lon="1.82905">
        <ele>127.297312</ele>
        <time>2026-08-29T17:14:58Z</time>
      </trkpt>
      <trkpt lat="43.84861" lon="1.82897">
        <ele>127.126992</ele>
        <time>2026-08-29T17:14:59Z</time>
      </trkpt>
      <trkpt lat="43.84857" lon="1.82889">
        <ele>126.961102</ele>
        <time>2026-08-29T17:15:00Z</time>
      </trkpt>
      <trkpt lat="43.84853" lon="1.82882">
        <ele>126.79525</ele>
        <time>2026-08-29T17:15:01Z</time>
      </trkpt>
      <trkpt lat="43.8485" lon="1.82875">
        <ele>126.653848</ele>
        <time>2026-08-29T17:15:02Z</time>
      </trkpt>
      <trkpt lat="43.84846" lon="1.82868">
        <ele>126.50386</ele>
        <time>2026-08-29T17:15:03Z</time>
      </trkpt>
      <trkpt lat="43.84843" lon="1.82861">
        <ele>126.342343</ele>
        <time>2026-08-29T17:15:04Z</time>
      </trkpt>
      <trkpt lat="43.84839" lon="1.82854">
        <ele>126.183635</ele>
        <time>2026-08-29T17:15:05Z</time>
      </trkpt>
      <trkpt lat="43.84835" lon="1.82846">
        <ele>126.019237</ele>
        <time>2026-08-29T17:15:06Z</time>
      </trkpt>
      <trkpt lat="43.84831" lon="1.82839">
        <ele>126.032251</ele>
        <time>2026-08-29T17:15:07Z</time>
      </trkpt>
      <trkpt lat="43.84828" lon="1.82833">
        <ele>126.046157</ele>
        <time>2026-08-29T17:15:08Z</time>
      </trkpt>
      <trkpt lat="43.84824" lon="1.82826">
        <ele>126.060467</ele>
        <time>2026-08-29T17:15:09Z</time>
      </trkpt>
      <trkpt lat="43.84821" lon="1.8282">
        <ele>126.075077</ele>
        <time>2026-08-29T17:15:10Z</time>
      </trkpt>
      <trkpt lat="43.84818" lon="1.82812">
        <ele>126.089999</ele>
        <time>2026-08-29T17:15:11Z</time>
      </trkpt>
      <trkpt lat="43.84814" lon="1.82805">
        <ele>126.105036</ele>
        <time>2026-08-29T17:15:12Z</time>
      </trkpt>
      <trkpt lat="43.84811" lon="1.82797">
        <ele>126.120788</ele>
        <time>2026-08-29T17:15:13Z</time>
      </trkpt>
      <trkpt lat="43.84809" lon="1.82789">
        <ele>126.136431</ele>
        <time>2026-08-29T17:15:14Z</time>
      </trkpt>
      <trkpt lat="43.84806" lon="1.82782">
        <ele>126.150298</ele>
        <time>2026-08-29T17:15:15Z</time>
      </trkpt>
      <trkpt lat="43.84804" lon="1.82776">
        <ele>126.162766</ele>
        <time>2026-08-29T17:15:16Z</time>
      </trkpt>
      <trkpt lat="43.84803" lon="1.82771">
        <ele>126.171319</ele>
        <time>2026-08-29T17:15:17Z</time>
      </trkpt>
      <trkpt lat="43.84802" lon="1.82767">
        <ele>126.179005</ele>
        <time>2026-08-29T17:15:18Z</time>
      </trkpt>
      <trkpt lat="43.84801" lon="1.82764">
        <ele>126.185158</ele>
        <time>2026-08-29T17:15:19Z</time>
      </trkpt>
      <trkpt lat="43.848" lon="1.82763">
        <ele>126.187914</ele>
        <time>2026-08-29T17:15:20Z</time>
      </trkpt>
      <trkpt lat="43.84799" lon="1.82763">
        <ele>126.189532</ele>
        <time>2026-08-29T17:15:21Z</time>
      </trkpt>
      <trkpt lat="43.84799" lon="1.82763">
        <ele>126.19128</ele>
        <time>2026-08-29T17:15:22Z</time>
      </trkpt>
      <trkpt lat="43.84799" lon="1.82755">
        <ele>126.2067</ele>
        <time>2026-08-29T17:15:25Z</time>
      </trkpt>
      <trkpt lat="43.84799" lon="1.8275">
        <ele>126.214211</ele>
        <time>2026-08-29T17:15:26Z</time>
      </trkpt>
      <trkpt lat="43.84798" lon="1.82746">
        <ele>126.221435</ele>
        <time>2026-08-29T17:15:27Z</time>
      </trkpt>
      <trkpt lat="43.84797" lon="1.82743">
        <ele>126.22801</ele>
        <time>2026-08-29T17:15:28Z</time>
      </trkpt>
      <trkpt lat="43.84796" lon="1.8274">
        <ele>126.233948</ele>
        <time>2026-08-29T17:15:29Z</time>
      </trkpt>
      <trkpt lat="43.84795" lon="1.82737">
        <ele>126.239343</ele>
        <time>2026-08-29T17:15:30Z</time>
      </trkpt>
      <trkpt lat="43.84794" lon="1.82734">
        <ele>126.244906</ele>
        <time>2026-08-29T17:15:31Z</time>
      </trkpt>
      <trkpt lat="43.84793" lon="1.82731">
        <ele>126.250959</ele>
        <time>2026-08-29T17:15:32Z</time>
      </trkpt>
      <trkpt lat="43.84793" lon="1.82728">
        <ele>126.256282</ele>
        <time>2026-08-29T17:15:33Z</time>
      </trkpt>
      <trkpt lat="43.84792" lon="1.82726">
        <ele>126.260972</ele>
        <time>2026-08-29T17:15:34Z</time>
      </trkpt>
      <trkpt lat="43.84791" lon="1.82723">
        <ele>126.265798</ele>
        <time>2026-08-29T17:15:35Z</time>
      </trkpt>
      <trkpt lat="43.84791" lon="1.8272">
        <ele>126.270948</ele>
        <time>2026-08-29T17:15:36Z</time>
      </trkpt>
      <trkpt lat="43.8479" lon="1.82717">
        <ele>126.277594</ele>
        <time>2026-08-29T17:15:37Z</time>
      </trkpt>
      <trkpt lat="43.84789" lon="1.82713">
        <ele>126.285231</ele>
        <time>2026-08-29T17:15:38Z</time>
      </trkpt>
      <trkpt lat="43.84788" lon="1.82709">
        <ele>126.293201</ele>
        <time>2026-08-29T17:15:39Z</time>
      </trkpt>
      <trkpt lat="43.84786" lon="1.82705">
        <ele>126.300887</ele>
        <time>2026-08-29T17:15:40Z</time>
      </trkpt>
      <trkpt lat="43.84784" lon="1.82701">
        <ele>126.3079</ele>
        <time>2026-08-29T17:15:41Z</time>
      </trkpt>
      <trkpt lat="43.84783" lon="1.82699">
        <ele>126.314683</ele>
        <time>2026-08-29T17:15:42Z</time>
      </trkpt>
      <trkpt lat="43.8478" lon="1.82696">
        <ele>126.32187</ele>
        <time>2026-08-29T17:15:43Z</time>
      </trkpt>
      <trkpt lat="43.84778" lon="1.82693">
        <ele>126.328942</ele>
        <time>2026-08-29T17:15:44Z</time>
      </trkpt>
      <trkpt lat="43.84776" lon="1.82691">
        <ele>126.336014</ele>
        <time>2026-08-29T17:15:45Z</time>
      </trkpt>
      <trkpt lat="43.84774" lon="1.82688">
        <ele>126.343465</ele>
        <time>2026-08-29T17:15:46Z</time>
      </trkpt>
      <trkpt lat="43.84771" lon="1.82686">
        <ele>126.350058</ele>
        <time>2026-08-29T17:15:47Z</time>
      </trkpt>
      <trkpt lat="43.84769" lon="1.82685">
        <ele>126.356056</ele>
        <time>2026-08-29T17:15:48Z</time>
      </trkpt>
      <trkpt lat="43.84767" lon="1.82684">
        <ele>126.361978</ele>
        <time>2026-08-29T17:15:49Z</time>
      </trkpt>
      <trkpt lat="43.84764" lon="1.82682">
        <ele>126.36845</ele>
        <time>2026-08-29T17:15:50Z</time>
      </trkpt>
      <trkpt lat="43.84762" lon="1.82681">
        <ele>126.374171</ele>
        <time>2026-08-29T17:15:51Z</time>
      </trkpt>
      <trkpt lat="43.8476" lon="1.8268">
        <ele>126.380068</ele>
        <time>2026-08-29T17:15:52Z</time>
      </trkpt>
      <trkpt lat="43.84758" lon="1.82679">
        <ele>126.384906</ele>
        <time>2026-08-29T17:15:53Z</time>
      </trkpt>
      <trkpt lat="43.84756" lon="1.82678">
        <ele>126.389649</ele>
        <time>2026-08-29T17:15:54Z</time>
      </trkpt>
      <trkpt lat="43.84754" lon="1.82677">
        <ele>126.394687</ele>
        <time>2026-08-29T17:15:55Z</time>
      </trkpt>
      <trkpt lat="43.84752" lon="1.82676">
        <ele>126.399888</ele>
        <time>2026-08-29T17:15:56Z</time>
      </trkpt>
      <trkpt lat="43.8475" lon="1.82675">
        <ele>126.404894</ele>
        <time>2026-08-29T17:15:57Z</time>
      </trkpt>
      <trkpt lat="43.84748" lon="1.82674">
        <ele>126.410673</ele>
        <time>2026-08-29T17:15:58Z</time>
      </trkpt>
      <trkpt lat="43.84746" lon="1.82672">
        <ele>126.416452</ele>
        <time>2026-08-29T17:15:59Z</time>
      </trkpt>
      <trkpt lat="43.84744" lon="1.82671">
        <ele>126.421784</ele>
        <time>2026-08-29T17:16:00Z</time>
      </trkpt>
      <trkpt lat="43.84742" lon="1.8267">
        <ele>126.426749</ele>
        <time>2026-08-29T17:16:01Z</time>
      </trkpt>
      <trkpt lat="43.8474" lon="1.82669">
        <ele>126.431795</ele>
        <time>2026-08-29T17:16:02Z</time>
      </trkpt>
      <trkpt lat="43.84738" lon="1.82668">
        <ele>126.437747</ele>
        <time>2026-08-29T17:16:03Z</time>
      </trkpt>
      <trkpt lat="43.84736" lon="1.82667">
        <ele>126.442116</ele>
        <time>2026-08-29T17:16:04Z</time>
      </trkpt>
      <trkpt lat="43.84735" lon="1.82666">
        <ele>126.445155</ele>
        <time>2026-08-29T17:16:05Z</time>
      </trkpt>
      <trkpt lat="43.84735" lon="1.82665">
        <ele>126.446868</ele>
        <time>2026-08-29T17:16:06Z</time>
      </trkpt>
      <trkpt lat="43.84734" lon="1.82665">
        <ele>126.449093</ele>
        <time>2026-08-29T17:16:07Z</time>
      </trkpt>
      <trkpt lat="43.84733" lon="1.82665">
        <ele>126.450426</ele>
        <time>2026-08-29T17:16:08Z</time>
      </trkpt>
      <trkpt lat="43.84721" lon="1.82669">
        <ele>126.983911</ele>
        <time>2026-08-29T17:16:42Z</time>
      </trkpt>
      <trkpt lat="43.8472" lon="1.82669">
        <ele>127.048838</ele>
        <time>2026-08-29T17:16:43Z</time>
      </trkpt>
      <trkpt lat="43.84719" lon="1.8267">
        <ele>127.082722</ele>
        <time>2026-08-29T17:16:44Z</time>
      </trkpt>
      <trkpt lat="43.84718" lon="1.8267">
        <ele>127.129115</ele>
        <time>2026-08-29T17:16:45Z</time>
      </trkpt>
      <trkpt lat="43.84717" lon="1.82671">
        <ele>127.183935</ele>
        <time>2026-08-29T17:16:46Z</time>
      </trkpt>
      <trkpt lat="43.84716" lon="1.82671">
        <ele>127.224819</ele>
        <time>2026-08-29T17:16:47Z</time>
      </trkpt>
      <trkpt lat="43.84715" lon="1.82672">
        <ele>127.299401</ele>
        <time>2026-08-29T17:16:48Z</time>
      </trkpt>
      <trkpt lat="43.84714" lon="1.82671">
        <ele>127.355867</ele>
        <time>2026-08-29T17:16:49Z</time>
      </trkpt>
      <trkpt lat="43.84712" lon="1.82672">
        <ele>127.437633</ele>
        <time>2026-08-29T17:16:50Z</time>
      </trkpt>
      <trkpt lat="43.84711" lon="1.82672">
        <ele>127.514332</ele>
        <time>2026-08-29T17:16:51Z</time>
      </trkpt>
      <trkpt lat="43.8471" lon="1.82672">
        <ele>127.571391</ele>
        <time>2026-08-29T17:16:52Z</time>
      </trkpt>
      <trkpt lat="43.84708" lon="1.82673">
        <ele>127.640056</ele>
        <time>2026-08-29T17:16:53Z</time>
      </trkpt>
      <trkpt lat="43.84707" lon="1.82673">
        <ele>127.706325</ele>
        <time>2026-08-29T17:16:54Z</time>
      </trkpt>
      <trkpt lat="43.84706" lon="1.82672">
        <ele>127.767512</ele>
        <time>2026-08-29T17:16:55Z</time>
      </trkpt>
      <trkpt lat="43.84705" lon="1.82673">
        <ele>127.828699</ele>
        <time>2026-08-29T17:16:56Z</time>
      </trkpt>
      <trkpt lat="43.84703" lon="1.82672">
        <ele>127.894967</ele>
        <time>2026-08-29T17:16:57Z</time>
      </trkpt>
      <trkpt lat="43.84702" lon="1.82673">
        <ele>127.96154</ele>
        <time>2026-08-29T17:16:58Z</time>
      </trkpt>
      <trkpt lat="43.84701" lon="1.82673">
        <ele>128.031275</ele>
        <time>2026-08-29T17:16:59Z</time>
      </trkpt>
      <trkpt lat="43.847" lon="1.82674">
        <ele>128.088335</ele>
        <time>2026-08-29T17:17:00Z</time>
      </trkpt>
      <trkpt lat="43.84698" lon="1.82674">
        <ele>128.172697</ele>
        <time>2026-08-29T17:17:01Z</time>
      </trkpt>
      <trkpt lat="43.84697" lon="1.82675">
        <ele>128.231615</ele>
        <time>2026-08-29T17:17:02Z</time>
      </trkpt>
      <trkpt lat="43.84696" lon="1.82675">
        <ele>128.282443</ele>
        <time>2026-08-29T17:17:03Z</time>
      </trkpt>
      <trkpt lat="43.84695" lon="1.82676">
        <ele>128.334518</ele>
        <time>2026-08-29T17:17:04Z</time>
      </trkpt>
      <trkpt lat="43.84694" lon="1.82675">
        <ele>128.390625</ele>
        <time>2026-08-29T17:17:05Z</time>
      </trkpt>
      <trkpt lat="43.84693" lon="1.82676">
        <ele>128.447685</ele>
        <time>2026-08-29T17:17:06Z</time>
      </trkpt>
      <trkpt lat="43.84692" lon="1.82676">
        <ele>128.494077</ele>
        <time>2026-08-29T17:17:07Z</time>
      </trkpt>
      <trkpt lat="43.84691" lon="1.82676">
        <ele>128.561853</ele>
        <time>2026-08-29T17:17:08Z</time>
      </trkpt>
      <trkpt lat="43.8469" lon="1.82675">
        <ele>128.626779</ele>
        <time>2026-08-29T17:17:09Z</time>
      </trkpt>
      <trkpt lat="43.84688" lon="1.82675">
        <ele>128.694556</ele>
        <time>2026-08-29T17:17:10Z</time>
      </trkpt>
      <trkpt lat="43.84687" lon="1.82675">
        <ele>128.756072</ele>
        <time>2026-08-29T17:17:11Z</time>
      </trkpt>
      <trkpt lat="43.84686" lon="1.82675">
        <ele>128.817589</ele>
        <time>2026-08-29T17:17:12Z</time>
      </trkpt>
      <trkpt lat="43.84685" lon="1.82675">
        <ele>128.868618</ele>
        <time>2026-08-29T17:17:13Z</time>
      </trkpt>
      <trkpt lat="43.84684" lon="1.82675">
        <ele>128.901081</ele>
        <time>2026-08-29T17:17:14Z</time>
      </trkpt>
      <trkpt lat="43.84683" lon="1.82675">
        <ele>128.952506</ele>
        <time>2026-08-29T17:17:15Z</time>
      </trkpt>
      <trkpt lat="43.84682" lon="1.82675">
        <ele>129.008493</ele>
        <time>2026-08-29T17:17:16Z</time>
      </trkpt>
      <trkpt lat="43.84681" lon="1.82674">
        <ele>129.083075</ele>
        <time>2026-08-29T17:17:17Z</time>
      </trkpt>
      <trkpt lat="43.8468" lon="1.82673">
        <ele>129.14685</ele>
        <time>2026-08-29T17:17:18Z</time>
      </trkpt>
      <trkpt lat="43.84678" lon="1.82673">
        <ele>129.203316</ele>
        <time>2026-08-29T17:17:19Z</time>
      </trkpt>
      <trkpt lat="43.84677" lon="1.82673">
        <ele>129.285082</ele>
        <time>2026-08-29T17:17:20Z</time>
      </trkpt>
      <trkpt lat="43.84675" lon="1.82673">
        <ele>129.372845</ele>
        <time>2026-08-29T17:17:21Z</time>
      </trkpt>
      <trkpt lat="43.84674" lon="1.82672">
        <ele>129.457206</ele>
        <time>2026-08-29T17:17:22Z</time>
      </trkpt>
      <trkpt lat="43.84672" lon="1.82671">
        <ele>129.536666</ele>
        <time>2026-08-29T17:17:23Z</time>
      </trkpt>
      <trkpt lat="43.84671" lon="1.82671">
        <ele>129.598182</ele>
        <time>2026-08-29T17:17:24Z</time>
      </trkpt>
      <trkpt lat="43.8467" lon="1.82671">
        <ele>129.639065</ele>
        <time>2026-08-29T17:17:25Z</time>
      </trkpt>
      <trkpt lat="43.84669" lon="1.82671">
        <ele>129.679948</ele>
        <time>2026-08-29T17:17:26Z</time>
      </trkpt>
      <trkpt lat="43.84669" lon="1.82671">
        <ele>129.715578</ele>
        <time>2026-08-29T17:17:27Z</time>
      </trkpt>
      <trkpt lat="43.84668" lon="1.8267">
        <ele>129.753229</ele>
        <time>2026-08-29T17:17:28Z</time>
      </trkpt>
      <trkpt lat="43.84667" lon="1.8267">
        <ele>129.805304</ele>
        <time>2026-08-29T17:17:29Z</time>
      </trkpt>
      <trkpt lat="43.84666" lon="1.82669">
        <ele>129.856729</ele>
        <time>2026-08-29T17:17:30Z</time>
      </trkpt>
      <trkpt lat="43.84665" lon="1.82669">
        <ele>129.92299</ele>
        <time>2026-08-29T17:17:31Z</time>
      </trkpt>
      <trkpt lat="43.84664" lon="1.82668">
        <ele>129.992726</ele>
        <time>2026-08-29T17:17:32Z</time>
      </trkpt>
      <trkpt lat="43.84662" lon="1.82667">
        <ele>130.06803</ele>
        <time>2026-08-29T17:17:33Z</time>
      </trkpt>
      <trkpt lat="43.84661" lon="1.82666">
        <ele>130.134177</ele>
        <time>2026-08-29T17:17:34Z</time>
      </trkpt>
      <trkpt lat="43.84661" lon="1.82665">
        <ele>130.170341</ele>
        <time>2026-08-29T17:17:35Z</time>
      </trkpt>
      <trkpt lat="43.8466" lon="1.82664">
        <ele>130.241579</ele>
        <time>2026-08-29T17:17:36Z</time>
      </trkpt>
      <trkpt lat="43.84659" lon="1.82663">
        <ele>130.295991</ele>
        <time>2026-08-29T17:17:37Z</time>
      </trkpt>
      <trkpt lat="43.84658" lon="1.82662">
        <ele>130.344139</ele>
        <time>2026-08-29T17:17:38Z</time>
      </trkpt>
      <trkpt lat="43.84658" lon="1.82661">
        <ele>130.403918</ele>
        <time>2026-08-29T17:17:39Z</time>
      </trkpt>
      <trkpt lat="43.84657" lon="1.8266">
        <ele>130.464981</ele>
        <time>2026-08-29T17:17:40Z</time>
      </trkpt>
      <trkpt lat="43.84656" lon="1.82659">
        <ele>130.513128</ele>
        <time>2026-08-29T17:17:41Z</time>
      </trkpt>
      <trkpt lat="43.84655" lon="1.82658">
        <ele>130.578136</ele>
        <time>2026-08-29T17:17:42Z</time>
      </trkpt>
      <trkpt lat="43.84654" lon="1.82657">
        <ele>130.62929</ele>
        <time>2026-08-29T17:17:43Z</time>
      </trkpt>
      <trkpt lat="43.84653" lon="1.82656">
        <ele>130.700914</ele>
        <time>2026-08-29T17:17:44Z</time>
      </trkpt>
      <trkpt lat="43.84652" lon="1.82655">
        <ele>130.758258</ele>
        <time>2026-08-29T17:17:45Z</time>
      </trkpt>
      <trkpt lat="43.84651" lon="1.82654">
        <ele>130.818937</ele>
        <time>2026-08-29T17:17:46Z</time>
      </trkpt>
      <trkpt lat="43.8465" lon="1.82652">
        <ele>130.888706</ele>
        <time>2026-08-29T17:17:47Z</time>
      </trkpt>
      <trkpt lat="43.84649" lon="1.82651">
        <ele>130.953713</ele>
        <time>2026-08-29T17:17:48Z</time>
      </trkpt>
      <trkpt lat="43.84649" lon="1.8265">
        <ele>130.998379</ele>
        <time>2026-08-29T17:17:49Z</time>
      </trkpt>
      <trkpt lat="43.84648" lon="1.82649">
        <ele>131.05708</ele>
        <time>2026-08-29T17:17:50Z</time>
      </trkpt>
      <trkpt lat="43.84646" lon="1.82649">
        <ele>131.132827</ele>
        <time>2026-08-29T17:17:51Z</time>
      </trkpt>
      <trkpt lat="43.84645" lon="1.82648">
        <ele>131.191746</ele>
        <time>2026-08-29T17:17:52Z</time>
      </trkpt>
      <trkpt lat="43.84644" lon="1.82647">
        <ele>131.254967</ele>
        <time>2026-08-29T17:17:53Z</time>
      </trkpt>
      <trkpt lat="43.84643" lon="1.82647">
        <ele>131.305794</ele>
        <time>2026-08-29T17:17:54Z</time>
      </trkpt>
      <trkpt lat="43.84642" lon="1.82647">
        <ele>131.377145</ele>
        <time>2026-08-29T17:17:55Z</time>
      </trkpt>
      <trkpt lat="43.84641" lon="1.82646">
        <ele>131.431251</ele>
        <time>2026-08-29T17:17:56Z</time>
      </trkpt>
      <trkpt lat="43.8464" lon="1.82645">
        <ele>131.498562</ele>
        <time>2026-08-29T17:17:57Z</time>
      </trkpt>
      <trkpt lat="43.84639" lon="1.82644">
        <ele>131.570952</ele>
        <time>2026-08-29T17:17:58Z</time>
      </trkpt>
      <trkpt lat="43.84637" lon="1.82643">
        <ele>131.646256</ele>
        <time>2026-08-29T17:17:59Z</time>
      </trkpt>
      <trkpt lat="43.84636" lon="1.82642">
        <ele>131.715695</ele>
        <time>2026-08-29T17:18:00Z</time>
      </trkpt>
      <trkpt lat="43.84635" lon="1.82641">
        <ele>131.784724</ele>
        <time>2026-08-29T17:18:01Z</time>
      </trkpt>
      <trkpt lat="43.84634" lon="1.8264">
        <ele>131.847945</ele>
        <time>2026-08-29T17:18:02Z</time>
      </trkpt>
      <trkpt lat="43.84633" lon="1.82639">
        <ele>131.901794</ele>
        <time>2026-08-29T17:18:03Z</time>
      </trkpt>
      <trkpt lat="43.84633" lon="1.82638">
        <ele>131.956615</ele>
        <time>2026-08-29T17:18:04Z</time>
      </trkpt>
      <trkpt lat="43.84632" lon="1.82638">
        <ele>132.007443</ele>
        <time>2026-08-29T17:18:05Z</time>
      </trkpt>
      <trkpt lat="43.84631" lon="1.82637">
        <ele>132.057645</ele>
        <time>2026-08-29T17:18:06Z</time>
      </trkpt>
      <trkpt lat="43.8463" lon="1.82636">
        <ele>132.126674</ele>
        <time>2026-08-29T17:18:07Z</time>
      </trkpt>
      <trkpt lat="43.84629" lon="1.82634">
        <ele>132.193985</ele>
        <time>2026-08-29T17:18:08Z</time>
      </trkpt>
      <trkpt lat="43.84628" lon="1.82634">
        <ele>132.251001</ele>
        <time>2026-08-29T17:18:09Z</time>
      </trkpt>
      <trkpt lat="43.84627" lon="1.82633">
        <ele>132.308016</ele>
        <time>2026-08-29T17:18:10Z</time>
      </trkpt>
      <trkpt lat="43.84626" lon="1.82633">
        <ele>132.355129</ele>
        <time>2026-08-29T17:18:11Z</time>
      </trkpt>
      <trkpt lat="43.84625" lon="1.82632">
        <ele>132.408102</ele>
        <time>2026-08-29T17:18:12Z</time>
      </trkpt>
      <trkpt lat="43.84624" lon="1.82632">
        <ele>132.460624</ele>
        <time>2026-08-29T17:18:13Z</time>
      </trkpt>
      <trkpt lat="43.84623" lon="1.82631">
        <ele>132.51764</ele>
        <time>2026-08-29T17:18:14Z</time>
      </trkpt>
      <trkpt lat="43.84622" lon="1.8263">
        <ele>132.582647</ele>
        <time>2026-08-29T17:18:15Z</time>
      </trkpt>
      <trkpt lat="43.84621" lon="1.82629">
        <ele>132.639663</ele>
        <time>2026-08-29T17:18:16Z</time>
      </trkpt>
      <trkpt lat="43.8462" lon="1.82628">
        <ele>132.706611</ele>
        <time>2026-08-29T17:18:17Z</time>
      </trkpt>
      <trkpt lat="43.84619" lon="1.82627">
        <ele>132.76021</ele>
        <time>2026-08-29T17:18:18Z</time>
      </trkpt>
      <trkpt lat="43.84618" lon="1.82626">
        <ele>132.822963</ele>
        <time>2026-08-29T17:18:19Z</time>
      </trkpt>
      <trkpt lat="43.84617" lon="1.82626">
        <ele>132.869256</ele>
        <time>2026-08-29T17:18:20Z</time>
      </trkpt>
      <trkpt lat="43.84617" lon="1.82625">
        <ele>132.917403</ele>
        <time>2026-08-29T17:18:21Z</time>
      </trkpt>
      <trkpt lat="43.84616" lon="1.82625">
        <ele>132.968433</ele>
        <time>2026-08-29T17:18:22Z</time>
      </trkpt>
      <trkpt lat="43.84614" lon="1.82625">
        <ele>133.02995</ele>
        <time>2026-08-29T17:18:23Z</time>
      </trkpt>
      <trkpt lat="43.84613" lon="1.82624">
        <ele>133.088711</ele>
        <time>2026-08-29T17:18:24Z</time>
      </trkpt>
      <trkpt lat="43.84612" lon="1.82623">
        <ele>133.156481</ele>
        <time>2026-08-29T17:18:25Z</time>
      </trkpt>
      <trkpt lat="43.84611" lon="1.82622">
        <ele>133.215242</ele>
        <time>2026-08-29T17:18:26Z</time>
      </trkpt>
      <trkpt lat="43.8461" lon="1.82621">
        <ele>133.284271</ele>
        <time>2026-08-29T17:18:27Z</time>
      </trkpt>
      <trkpt lat="43.84609" lon="1.8262">
        <ele>133.354039</ele>
        <time>2026-08-29T17:18:28Z</time>
      </trkpt>
      <trkpt lat="43.84608" lon="1.82619">
        <ele>133.411384</ele>
        <time>2026-08-29T17:18:29Z</time>
      </trkpt>
      <trkpt lat="43.84608" lon="1.82617">
        <ele>133.465465</ele>
        <time>2026-08-29T17:18:30Z</time>
      </trkpt>
      <trkpt lat="43.84607" lon="1.82616">
        <ele>133.516337</ele>
        <time>2026-08-29T17:18:31Z</time>
      </trkpt>
      <trkpt lat="43.84606" lon="1.82615">
        <ele>133.576322</ele>
        <time>2026-08-29T17:18:32Z</time>
      </trkpt>
      <trkpt lat="43.84606" lon="1.82614">
        <ele>133.636307</ele>
        <time>2026-08-29T17:18:33Z</time>
      </trkpt>
      <trkpt lat="43.84605" lon="1.82613">
        <ele>133.69072</ele>
        <time>2026-08-29T17:18:34Z</time>
      </trkpt>
      <trkpt lat="43.84604" lon="1.82613">
        <ele>133.738823</ele>
        <time>2026-08-29T17:18:35Z</time>
      </trkpt>
      <trkpt lat="43.84603" lon="1.82611">
        <ele>133.801554</ele>
        <time>2026-08-29T17:18:36Z</time>
      </trkpt>
      <trkpt lat="43.84602" lon="1.8261">
        <ele>133.871322</ele>
        <time>2026-08-29T17:18:37Z</time>
      </trkpt>
      <trkpt lat="43.84601" lon="1.82609">
        <ele>133.942581</ele>
        <time>2026-08-29T17:18:38Z</time>
      </trkpt>
      <trkpt lat="43.846" lon="1.82608">
        <ele>134.015799</ele>
        <time>2026-08-29T17:18:39Z</time>
      </trkpt>
      <trkpt lat="43.84599" lon="1.82607">
        <ele>134.072277</ele>
        <time>2026-08-29T17:18:40Z</time>
      </trkpt>
      <trkpt lat="43.84598" lon="1.82606">
        <ele>134.126689</ele>
        <time>2026-08-29T17:18:41Z</time>
      </trkpt>
      <trkpt lat="43.84597" lon="1.82605">
        <ele>134.187368</ele>
        <time>2026-08-29T17:18:42Z</time>
      </trkpt>
      <trkpt lat="43.84596" lon="1.82604">
        <ele>134.254316</ele>
        <time>2026-08-29T17:18:43Z</time>
      </trkpt>
      <trkpt lat="43.84595" lon="1.82603">
        <ele>134.321264</ele>
        <time>2026-08-29T17:18:44Z</time>
      </trkpt>
      <trkpt lat="43.84594" lon="1.82602">
        <ele>134.384485</ele>
        <time>2026-08-29T17:18:45Z</time>
      </trkpt>
      <trkpt lat="43.84592" lon="1.82602">
        <ele>134.447706</ele>
        <time>2026-08-29T17:18:46Z</time>
      </trkpt>
      <trkpt lat="43.84592" lon="1.82601">
        <ele>134.506407</ele>
        <time>2026-08-29T17:18:47Z</time>
      </trkpt>
      <trkpt lat="43.84591" lon="1.826">
        <ele>134.560512</ele>
        <time>2026-08-29T17:18:48Z</time>
      </trkpt>
      <trkpt lat="43.84589" lon="1.826">
        <ele>134.619431</ele>
        <time>2026-08-29T17:18:49Z</time>
      </trkpt>
      <trkpt lat="43.84588" lon="1.82599">
        <ele>134.685693</ele>
        <time>2026-08-29T17:18:50Z</time>
      </trkpt>
      <trkpt lat="43.84587" lon="1.82598">
        <ele>134.747295</ele>
        <time>2026-08-29T17:18:51Z</time>
      </trkpt>
      <trkpt lat="43.84586" lon="1.82598">
        <ele>134.817031</ele>
        <time>2026-08-29T17:18:52Z</time>
      </trkpt>
      <trkpt lat="43.84585" lon="1.82597">
        <ele>134.878633</ele>
        <time>2026-08-29T17:18:53Z</time>
      </trkpt>
      <trkpt lat="43.84583" lon="1.82596">
        <ele>134.949613</ele>
        <time>2026-08-29T17:18:54Z</time>
      </trkpt>
      <trkpt lat="43.84582" lon="1.82596">
        <ele>135.01454</ele>
        <time>2026-08-29T17:18:55Z</time>
      </trkpt>
      <trkpt lat="43.84581" lon="1.82595">
        <ele>135.067062</ele>
        <time>2026-08-29T17:18:56Z</time>
      </trkpt>
      <trkpt lat="43.8458" lon="1.82594">
        <ele>135.124078</ele>
        <time>2026-08-29T17:18:57Z</time>
      </trkpt>
      <trkpt lat="43.8458" lon="1.82593">
        <ele>135.178159</ele>
        <time>2026-08-29T17:18:58Z</time>
      </trkpt>
      <trkpt lat="43.84579" lon="1.82593">
        <ele>135.234267</ele>
        <time>2026-08-29T17:18:59Z</time>
      </trkpt>
      <trkpt lat="43.84578" lon="1.82592">
        <ele>135.272802</ele>
        <time>2026-08-29T17:19:00Z</time>
      </trkpt>
      <trkpt lat="43.84578" lon="1.82592">
        <ele>135.293985</ele>
        <time>2026-08-29T17:19:01Z</time>
      </trkpt>
      <trkpt lat="43.84578" lon="1.82592">
        <ele>135.309526</ele>
        <time>2026-08-29T17:19:02Z</time>
      </trkpt>
      <trkpt lat="43.84577" lon="1.82592">
        <ele>135.330213</ele>
        <time>2026-08-29T17:19:03Z</time>
      </trkpt>
      <trkpt lat="43.84574" lon="1.82587">
        <ele>135.58612</ele>
        <time>2026-08-29T17:19:15Z</time>
      </trkpt>
      <trkpt lat="43.84572" lon="1.82586">
        <ele>135.62606</ele>
        <time>2026-08-29T17:19:16Z</time>
      </trkpt>
      <trkpt lat="43.8457" lon="1.82585">
        <ele>135.646994</ele>
        <time>2026-08-29T17:19:17Z</time>
      </trkpt>
      <trkpt lat="43.84568" lon="1.82583">
        <ele>135.670263</ele>
        <time>2026-08-29T17:19:18Z</time>
      </trkpt>
      <trkpt lat="43.84566" lon="1.82582">
        <ele>135.692226</ele>
        <time>2026-08-29T17:19:19Z</time>
      </trkpt>
      <trkpt lat="43.84564" lon="1.8258">
        <ele>135.7168</ele>
        <time>2026-08-29T17:19:20Z</time>
      </trkpt>
      <trkpt lat="43.84562" lon="1.82578">
        <ele>135.743985</ele>
        <time>2026-08-29T17:19:21Z</time>
      </trkpt>
      <trkpt lat="43.8456" lon="1.82576">
        <ele>135.772877</ele>
        <time>2026-08-29T17:19:22Z</time>
      </trkpt>
      <trkpt lat="43.84558" lon="1.82574">
        <ele>135.802676</ele>
        <time>2026-08-29T17:19:23Z</time>
      </trkpt>
      <trkpt lat="43.84555" lon="1.82572">
        <ele>135.833295</ele>
        <time>2026-08-29T17:19:24Z</time>
      </trkpt>
      <trkpt lat="43.84553" lon="1.8257">
        <ele>135.862161</ele>
        <time>2026-08-29T17:19:25Z</time>
      </trkpt>
      <trkpt lat="43.8455" lon="1.82568">
        <ele>135.892878</ele>
        <time>2026-08-29T17:19:26Z</time>
      </trkpt>
      <trkpt lat="43.84548" lon="1.82566">
        <ele>135.921559</ele>
        <time>2026-08-29T17:19:27Z</time>
      </trkpt>
      <trkpt lat="43.84546" lon="1.82564">
        <ele>135.949113</ele>
        <time>2026-08-29T17:19:28Z</time>
      </trkpt>
      <trkpt lat="43.84544" lon="1.82563">
        <ele>135.975845</ele>
        <time>2026-08-29T17:19:29Z</time>
      </trkpt>
      <trkpt lat="43.84542" lon="1.82561">
        <ele>136.000811</ele>
        <time>2026-08-29T17:19:30Z</time>
      </trkpt>
      <trkpt lat="43.8454" lon="1.8256">
        <ele>136.026311</ele>
        <time>2026-08-29T17:19:31Z</time>
      </trkpt>
      <trkpt lat="43.84537" lon="1.82558">
        <ele>136.052997</ele>
        <time>2026-08-29T17:19:32Z</time>
      </trkpt>
      <trkpt lat="43.84535" lon="1.82555">
        <ele>136.082733</ele>
        <time>2026-08-29T17:19:33Z</time>
      </trkpt>
      <trkpt lat="43.84533" lon="1.82553">
        <ele>136.114245</ele>
        <time>2026-08-29T17:19:34Z</time>
      </trkpt>
      <trkpt lat="43.8453" lon="1.82551">
        <ele>136.147048</ele>
        <time>2026-08-29T17:19:35Z</time>
      </trkpt>
      <trkpt lat="43.84528" lon="1.82549">
        <ele>136.177667</ele>
        <time>2026-08-29T17:19:36Z</time>
      </trkpt>
      <trkpt lat="43.84525" lon="1.82546">
        <ele>136.208774</ele>
        <time>2026-08-29T17:19:37Z</time>
      </trkpt>
      <trkpt lat="43.84523" lon="1.82544">
        <ele>136.237666</ele>
        <time>2026-08-29T17:19:38Z</time>
      </trkpt>
      <trkpt lat="43.84521" lon="1.82542">
        <ele>136.264779</ele>
        <time>2026-08-29T17:19:39Z</time>
      </trkpt>
      <trkpt lat="43.84519" lon="1.8254">
        <ele>136.290166</ele>
        <time>2026-08-29T17:19:40Z</time>
      </trkpt>
      <trkpt lat="43.84517" lon="1.82538">
        <ele>136.319957</ele>
        <time>2026-08-29T17:19:41Z</time>
      </trkpt>
      <trkpt lat="43.84515" lon="1.82536">
        <ele>136.347126</ele>
        <time>2026-08-29T17:19:42Z</time>
      </trkpt>
      <trkpt lat="43.84512" lon="1.82534">
        <ele>136.377304</ele>
        <time>2026-08-29T17:19:43Z</time>
      </trkpt>
      <trkpt lat="43.8451" lon="1.82532">
        <ele>136.405796</ele>
        <time>2026-08-29T17:19:44Z</time>
      </trkpt>
      <trkpt lat="43.84508" lon="1.8253">
        <ele>136.435104</ele>
        <time>2026-08-29T17:19:45Z</time>
      </trkpt>
      <trkpt lat="43.84506" lon="1.82527">
        <ele>136.465738</ele>
        <time>2026-08-29T17:19:46Z</time>
      </trkpt>
      <trkpt lat="43.84503" lon="1.82525">
        <ele>136.496786</ele>
        <time>2026-08-29T17:19:47Z</time>
      </trkpt>
      <trkpt lat="43.84501" lon="1.82523">
        <ele>136.528808</ele>
        <time>2026-08-29T17:19:48Z</time>
      </trkpt>
      <trkpt lat="43.84498" lon="1.8252">
        <ele>136.563841</ele>
        <time>2026-08-29T17:19:49Z</time>
      </trkpt>
      <trkpt lat="43.84495" lon="1.82518">
        <ele>136.599395</ele>
        <time>2026-08-29T17:19:50Z</time>
      </trkpt>
      <trkpt lat="43.84492" lon="1.82516">
        <ele>136.637407</ele>
        <time>2026-08-29T17:19:51Z</time>
      </trkpt>
      <trkpt lat="43.84489" lon="1.82513">
        <ele>136.675572</ele>
        <time>2026-08-29T17:19:52Z</time>
      </trkpt>
      <trkpt lat="43.84485" lon="1.82511">
        <ele>136.715592</ele>
        <time>2026-08-29T17:19:53Z</time>
      </trkpt>
      <trkpt lat="43.84482" lon="1.82509">
        <ele>136.755203</ele>
        <time>2026-08-29T17:19:54Z</time>
      </trkpt>
      <trkpt lat="43.84479" lon="1.82506">
        <ele>136.792988</ele>
        <time>2026-08-29T17:19:55Z</time>
      </trkpt>
      <trkpt lat="43.84476" lon="1.82504">
        <ele>136.83246</ele>
        <time>2026-08-29T17:19:56Z</time>
      </trkpt>
      <trkpt lat="43.84472" lon="1.82501">
        <ele>136.871017</ele>
        <time>2026-08-29T17:19:57Z</time>
      </trkpt>
      <trkpt lat="43.84469" lon="1.82498">
        <ele>136.91219</ele>
        <time>2026-08-29T17:19:58Z</time>
      </trkpt>
      <trkpt lat="43.84466" lon="1.82495">
        <ele>136.953734</ele>
        <time>2026-08-29T17:19:59Z</time>
      </trkpt>
      <trkpt lat="43.84463" lon="1.82493">
        <ele>136.992823</ele>
        <time>2026-08-29T17:20:00Z</time>
      </trkpt>
      <trkpt lat="43.84459" lon="1.82491">
        <ele>137.032434</ele>
        <time>2026-08-29T17:20:01Z</time>
      </trkpt>
      <trkpt lat="43.84456" lon="1.82488">
        <ele>137.067988</ele>
        <time>2026-08-29T17:20:02Z</time>
      </trkpt>
      <trkpt lat="43.84454" lon="1.82486">
        <ele>137.103416</ele>
        <time>2026-08-29T17:20:03Z</time>
      </trkpt>
      <trkpt lat="43.84451" lon="1.82483">
        <ele>137.143234</ele>
        <time>2026-08-29T17:20:04Z</time>
      </trkpt>
      <trkpt lat="43.84447" lon="1.82479">
        <ele>137.185654</ele>
        <time>2026-08-29T17:20:05Z</time>
      </trkpt>
      <trkpt lat="43.84444" lon="1.82476">
        <ele>137.227247</ele>
        <time>2026-08-29T17:20:06Z</time>
      </trkpt>
      <trkpt lat="43.84441" lon="1.82473">
        <ele>137.269332</ele>
        <time>2026-08-29T17:20:07Z</time>
      </trkpt>
      <trkpt lat="43.84437" lon="1.82471">
        <ele>137.31326</ele>
        <time>2026-08-29T17:20:08Z</time>
      </trkpt>
      <trkpt lat="43.84434" lon="1.82468">
        <ele>137.356652</ele>
        <time>2026-08-29T17:20:09Z</time>
      </trkpt>
      <trkpt lat="43.8443" lon="1.82465">
        <ele>137.399541</ele>
        <time>2026-08-29T17:20:10Z</time>
      </trkpt>
      <trkpt lat="43.84427" lon="1.82462">
        <ele>137.441625</ele>
        <time>2026-08-29T17:20:11Z</time>
      </trkpt>
      <trkpt lat="43.84424" lon="1.82459">
        <ele>137.484931</ele>
        <time>2026-08-29T17:20:12Z</time>
      </trkpt>
      <trkpt lat="43.84421" lon="1.82456">
        <ele>137.525163</ele>
        <time>2026-08-29T17:20:13Z</time>
      </trkpt>
      <trkpt lat="43.84418" lon="1.82453">
        <ele>137.507316</ele>
        <time>2026-08-29T17:20:14Z</time>
      </trkpt>
      <trkpt lat="43.84414" lon="1.8245">
        <ele>137.487814</ele>
        <time>2026-08-29T17:20:15Z</time>
      </trkpt>
      <trkpt lat="43.84411" lon="1.82447">
        <ele>137.467062</ele>
        <time>2026-08-29T17:20:16Z</time>
      </trkpt>
      <trkpt lat="43.84407" lon="1.82444">
        <ele>137.444555</ele>
        <time>2026-08-29T17:20:17Z</time>
      </trkpt>
      <trkpt lat="43.84404" lon="1.82441">
        <ele>137.422492</ele>
        <time>2026-08-29T17:20:18Z</time>
      </trkpt>
      <trkpt lat="43.844" lon="1.82438">
        <ele>137.400816</ele>
        <time>2026-08-29T17:20:19Z</time>
      </trkpt>
      <trkpt lat="43.84397" lon="1.82435">
        <ele>137.379778</ele>
        <time>2026-08-29T17:20:20Z</time>
      </trkpt>
      <trkpt lat="43.84393" lon="1.82432">
        <ele>137.358289</ele>
        <time>2026-08-29T17:20:21Z</time>
      </trkpt>
      <trkpt lat="43.8439" lon="1.8243">
        <ele>137.337436</ele>
        <time>2026-08-29T17:20:22Z</time>
      </trkpt>
      <trkpt lat="43.84386" lon="1.82427">
        <ele>137.317095</ele>
        <time>2026-08-29T17:20:23Z</time>
      </trkpt>
      <trkpt lat="43.84383" lon="1.82424">
        <ele>137.295868</ele>
        <time>2026-08-29T17:20:24Z</time>
      </trkpt>
      <trkpt lat="43.84379" lon="1.82421">
        <ele>137.274735</ele>
        <time>2026-08-29T17:20:25Z</time>
      </trkpt>
      <trkpt lat="43.84376" lon="1.82419">
        <ele>137.253426</ele>
        <time>2026-08-29T17:20:26Z</time>
      </trkpt>
      <trkpt lat="43.84372" lon="1.82416">
        <ele>137.233211</ele>
        <time>2026-08-29T17:20:27Z</time>
      </trkpt>
      <trkpt lat="43.84369" lon="1.82413">
        <ele>137.212429</ele>
        <time>2026-08-29T17:20:28Z</time>
      </trkpt>
      <trkpt lat="43.84366" lon="1.8241">
        <ele>137.192318</ele>
        <time>2026-08-29T17:20:29Z</time>
      </trkpt>
      <trkpt lat="43.84362" lon="1.82407">
        <ele>137.170696</ele>
        <time>2026-08-29T17:20:30Z</time>
      </trkpt>
      <trkpt lat="43.84359" lon="1.82404">
        <ele>137.148871</ele>
        <time>2026-08-29T17:20:31Z</time>
      </trkpt>
      <trkpt lat="43.84355" lon="1.82401">
        <ele>137.127448</ele>
        <time>2026-08-29T17:20:32Z</time>
      </trkpt>
      <trkpt lat="43.84352" lon="1.82397">
        <ele>137.105623</ele>
        <time>2026-08-29T17:20:33Z</time>
      </trkpt>
      <trkpt lat="43.84348" lon="1.82394">
        <ele>137.084658</ele>
        <time>2026-08-29T17:20:34Z</time>
      </trkpt>
      <trkpt lat="43.84345" lon="1.82391">
        <ele>137.064976</ele>
        <time>2026-08-29T17:20:35Z</time>
      </trkpt>
      <trkpt lat="43.84343" lon="1.82388">
        <ele>137.045349</ele>
        <time>2026-08-29T17:20:36Z</time>
      </trkpt>
      <trkpt lat="43.84339" lon="1.82385">
        <ele>137.025649</ele>
        <time>2026-08-29T17:20:37Z</time>
      </trkpt>
      <trkpt lat="43.84336" lon="1.82382">
        <ele>137.005967</ele>
        <time>2026-08-29T17:20:38Z</time>
      </trkpt>
      <trkpt lat="43.84333" lon="1.82379">
        <ele>136.987139</ele>
        <time>2026-08-29T17:20:39Z</time>
      </trkpt>
      <trkpt lat="43.8433" lon="1.82376">
        <ele>136.967637</ele>
        <time>2026-08-29T17:20:40Z</time>
      </trkpt>
      <trkpt lat="43.84327" lon="1.82374">
        <ele>136.947876</ele>
        <time>2026-08-29T17:20:41Z</time>
      </trkpt>
      <trkpt lat="43.84323" lon="1.82371">
        <ele>136.927024</ele>
        <time>2026-08-29T17:20:42Z</time>
      </trkpt>
      <trkpt lat="43.8432" lon="1.82368">
        <ele>136.905534</ele>
        <time>2026-08-29T17:20:43Z</time>
      </trkpt>
      <trkpt lat="43.84316" lon="1.82366">
        <ele>136.884738</ele>
        <time>2026-08-29T17:20:44Z</time>
      </trkpt>
      <trkpt lat="43.84313" lon="1.82363">
        <ele>136.864339</ele>
        <time>2026-08-29T17:20:45Z</time>
      </trkpt>
      <trkpt lat="43.84309" lon="1.8236">
        <ele>136.844578</ele>
        <time>2026-08-29T17:20:46Z</time>
      </trkpt>
      <trkpt lat="43.84306" lon="1.82358">
        <ele>136.823269</ele>
        <time>2026-08-29T17:20:47Z</time>
      </trkpt>
      <trkpt lat="43.84302" lon="1.82355">
        <ele>136.802304</ele>
        <time>2026-08-29T17:20:48Z</time>
      </trkpt>
      <trkpt lat="43.84299" lon="1.82352">
        <ele>136.780627</ele>
        <time>2026-08-29T17:20:49Z</time>
      </trkpt>
      <trkpt lat="43.84295" lon="1.82348">
        <ele>136.757924</ele>
        <time>2026-08-29T17:20:50Z</time>
      </trkpt>
      <trkpt lat="43.84291" lon="1.82346">
        <ele>136.735978</ele>
        <time>2026-08-29T17:20:51Z</time>
      </trkpt>
      <trkpt lat="43.84288" lon="1.82343">
        <ele>136.714846</ele>
        <time>2026-08-29T17:20:52Z</time>
      </trkpt>
      <trkpt lat="43.84285" lon="1.8234">
        <ele>136.694943</ele>
        <time>2026-08-29T17:20:53Z</time>
      </trkpt>
      <trkpt lat="43.84281" lon="1.82338">
        <ele>136.676001</ele>
        <time>2026-08-29T17:20:54Z</time>
      </trkpt>
      <trkpt lat="43.84278" lon="1.82335">
        <ele>136.656241</ele>
        <time>2026-08-29T17:20:55Z</time>
      </trkpt>
      <trkpt lat="43.84275" lon="1.82332">
        <ele>136.636979</ele>
        <time>2026-08-29T17:20:56Z</time>
      </trkpt>
      <trkpt lat="43.84272" lon="1.8233">
        <ele>136.619434</ele>
        <time>2026-08-29T17:20:57Z</time>
      </trkpt>
      <trkpt lat="43.84269" lon="1.82327">
        <ele>136.601454</ele>
        <time>2026-08-29T17:20:58Z</time>
      </trkpt>
      <trkpt lat="43.84266" lon="1.82324">
        <ele>136.599939</ele>
        <time>2026-08-29T17:20:59Z</time>
      </trkpt>
      <trkpt lat="43.84263" lon="1.82322">
        <ele>136.630815</ele>
        <time>2026-08-29T17:21:00Z</time>
      </trkpt>
      <trkpt lat="43.8426" lon="1.82319">
        <ele>136.662718</ele>
        <time>2026-08-29T17:21:01Z</time>
      </trkpt>
      <trkpt lat="43.84257" lon="1.82316">
        <ele>136.693942</ele>
        <time>2026-08-29T17:21:02Z</time>
      </trkpt>
      <trkpt lat="43.84254" lon="1.82313">
        <ele>136.726059</ele>
        <time>2026-08-29T17:21:03Z</time>
      </trkpt>
      <trkpt lat="43.8425" lon="1.8231">
        <ele>136.762437</ele>
        <time>2026-08-29T17:21:04Z</time>
      </trkpt>
      <trkpt lat="43.84246" lon="1.82307">
        <ele>136.801281</ele>
        <time>2026-08-29T17:21:05Z</time>
      </trkpt>
      <trkpt lat="43.84243" lon="1.82304">
        <ele>136.834562</ele>
        <time>2026-08-29T17:21:06Z</time>
      </trkpt>
      <trkpt lat="43.84239" lon="1.823">
        <ele>136.868698</ele>
        <time>2026-08-29T17:21:07Z</time>
      </trkpt>
      <trkpt lat="43.84236" lon="1.82296">
        <ele>136.904869</ele>
        <time>2026-08-29T17:21:08Z</time>
      </trkpt>
      <trkpt lat="43.84233" lon="1.82292">
        <ele>136.938168</ele>
        <time>2026-08-29T17:21:09Z</time>
      </trkpt>
      <trkpt lat="43.84231" lon="1.82289">
        <ele>136.970035</ele>
        <time>2026-08-29T17:21:10Z</time>
      </trkpt>
      <trkpt lat="43.84228" lon="1.82285">
        <ele>136.998841</ele>
        <time>2026-08-29T17:21:11Z</time>
      </trkpt>
      <trkpt lat="43.84226" lon="1.82282">
        <ele>137.026244</ele>
        <time>2026-08-29T17:21:12Z</time>
      </trkpt>
      <trkpt lat="43.84224" lon="1.82278">
        <ele>137.054583</ele>
        <time>2026-08-29T17:21:13Z</time>
      </trkpt>
      <trkpt lat="43.84222" lon="1.82274">
        <ele>137.080483</ele>
        <time>2026-08-29T17:21:14Z</time>
      </trkpt>
      <trkpt lat="43.8422" lon="1.82271">
        <ele>137.106891</ele>
        <time>2026-08-29T17:21:15Z</time>
      </trkpt>
      <trkpt lat="43.84218" lon="1.82267">
        <ele>137.136732</ele>
        <time>2026-08-29T17:21:16Z</time>
      </trkpt>
      <trkpt lat="43.84216" lon="1.82263">
        <ele>137.167024</ele>
        <time>2026-08-29T17:21:17Z</time>
      </trkpt>
      <trkpt lat="43.84215" lon="1.82258">
        <ele>137.196949</ele>
        <time>2026-08-29T17:21:18Z</time>
      </trkpt>
      <trkpt lat="43.84213" lon="1.82254">
        <ele>137.226072</ele>
        <time>2026-08-29T17:21:19Z</time>
      </trkpt>
      <trkpt lat="43.84211" lon="1.82249">
        <ele>137.260623</ele>
        <time>2026-08-29T17:21:20Z</time>
      </trkpt>
      <trkpt lat="43.84209" lon="1.82244">
        <ele>137.29493</ele>
        <time>2026-08-29T17:21:21Z</time>
      </trkpt>
      <trkpt lat="43.84207" lon="1.82239">
        <ele>137.330698</ele>
        <time>2026-08-29T17:21:22Z</time>
      </trkpt>
      <trkpt lat="43.84205" lon="1.82235">
        <ele>137.360742</ele>
        <time>2026-08-29T17:21:23Z</time>
      </trkpt>
      <trkpt lat="43.84203" lon="1.8223">
        <ele>137.389731</ele>
        <time>2026-08-29T17:21:24Z</time>
      </trkpt>
      <trkpt lat="43.84202" lon="1.82226">
        <ele>137.416737</ele>
        <time>2026-08-29T17:21:25Z</time>
      </trkpt>
      <trkpt lat="43.842" lon="1.82222">
        <ele>137.444408</ele>
        <time>2026-08-29T17:21:26Z</time>
      </trkpt>
      <trkpt lat="43.84199" lon="1.82218">
        <ele>137.473531</ele>
        <time>2026-08-29T17:21:27Z</time>
      </trkpt>
      <trkpt lat="43.84197" lon="1.82213">
        <ele>137.506897</ele>
        <time>2026-08-29T17:21:28Z</time>
      </trkpt>
      <trkpt lat="43.84195" lon="1.82208">
        <ele>137.539625</ele>
        <time>2026-08-29T17:21:29Z</time>
      </trkpt>
      <trkpt lat="43.84193" lon="1.82204">
        <ele>137.570011</ele>
        <time>2026-08-29T17:21:30Z</time>
      </trkpt>
      <trkpt lat="43.84192" lon="1.822">
        <ele>137.599417</ele>
        <time>2026-08-29T17:21:31Z</time>
      </trkpt>
      <trkpt lat="43.8419" lon="1.82196">
        <ele>137.627248</ele>
        <time>2026-08-29T17:21:32Z</time>
      </trkpt>
      <trkpt lat="43.84188" lon="1.82192">
        <ele>137.656076</ele>
        <time>2026-08-29T17:21:33Z</time>
      </trkpt>
      <trkpt lat="43.84186" lon="1.82187">
        <ele>137.691018</ele>
        <time>2026-08-29T17:21:34Z</time>
      </trkpt>
      <trkpt lat="43.84184" lon="1.82182">
        <ele>137.722128</ele>
        <time>2026-08-29T17:21:35Z</time>
      </trkpt>
      <trkpt lat="43.84183" lon="1.82177">
        <ele>137.753615</ele>
        <time>2026-08-29T17:21:36Z</time>
      </trkpt>
      <trkpt lat="43.84181" lon="1.82172">
        <ele>137.786343</ele>
        <time>2026-08-29T17:21:37Z</time>
      </trkpt>
      <trkpt lat="43.84179" lon="1.82167">
        <ele>137.821284</ele>
        <time>2026-08-29T17:21:38Z</time>
      </trkpt>
      <trkpt lat="43.84177" lon="1.82162">
        <ele>137.85477</ele>
        <time>2026-08-29T17:21:39Z</time>
      </trkpt>
      <trkpt lat="43.84175" lon="1.82158">
        <ele>137.886052</ele>
        <time>2026-08-29T17:21:40Z</time>
      </trkpt>
      <trkpt lat="43.84173" lon="1.82153">
        <ele>137.918313</ele>
        <time>2026-08-29T17:21:41Z</time>
      </trkpt>
      <trkpt lat="43.84171" lon="1.82149">
        <ele>137.950096</ele>
        <time>2026-08-29T17:21:42Z</time>
      </trkpt>
      <trkpt lat="43.84169" lon="1.82145">
        <ele>137.980021</ele>
        <time>2026-08-29T17:21:43Z</time>
      </trkpt>
      <trkpt lat="43.84168" lon="1.8214">
        <ele>138.007773</ele>
        <time>2026-08-29T17:21:44Z</time>
      </trkpt>
      <trkpt lat="43.84167" lon="1.82136">
        <ele>138.034534</ele>
        <time>2026-08-29T17:21:45Z</time>
      </trkpt>
      <trkpt lat="43.84165" lon="1.82133">
        <ele>138.059683</ele>
        <time>2026-08-29T17:21:46Z</time>
      </trkpt>
      <trkpt lat="43.84163" lon="1.82129">
        <ele>138.089089</ele>
        <time>2026-08-29T17:21:47Z</time>
      </trkpt>
      <trkpt lat="43.84161" lon="1.82124">
        <ele>138.108363</ele>
        <time>2026-08-29T17:21:48Z</time>
      </trkpt>
      <trkpt lat="43.84159" lon="1.8212">
        <ele>138.125422</ele>
        <time>2026-08-29T17:21:49Z</time>
      </trkpt>
      <trkpt lat="43.84158" lon="1.82116">
        <ele>138.141335</ele>
        <time>2026-08-29T17:21:50Z</time>
      </trkpt>
      <trkpt lat="43.84156" lon="1.82112">
        <ele>138.159495</ele>
        <time>2026-08-29T17:21:51Z</time>
      </trkpt>
      <trkpt lat="43.84154" lon="1.82107">
        <ele>138.176313</ele>
        <time>2026-08-29T17:21:52Z</time>
      </trkpt>
      <trkpt lat="43.84153" lon="1.82103">
        <ele>138.191747</ele>
        <time>2026-08-29T17:21:53Z</time>
      </trkpt>
      <trkpt lat="43.84151" lon="1.82099">
        <ele>138.207903</ele>
        <time>2026-08-29T17:21:54Z</time>
      </trkpt>
      <trkpt lat="43.8415" lon="1.82095">
        <ele>138.223429</ele>
        <time>2026-08-29T17:21:55Z</time>
      </trkpt>
      <trkpt lat="43.84148" lon="1.82091">
        <ele>138.239043</ele>
        <time>2026-08-29T17:21:56Z</time>
      </trkpt>
      <trkpt lat="43.84146" lon="1.82088">
        <ele>138.254941</ele>
        <time>2026-08-29T17:21:57Z</time>
      </trkpt>
      <trkpt lat="43.84144" lon="1.82084">
        <ele>138.271108</ele>
        <time>2026-08-29T17:21:58Z</time>
      </trkpt>
      <trkpt lat="43.84142" lon="1.82081">
        <ele>138.287853</ele>
        <time>2026-08-29T17:21:59Z</time>
      </trkpt>
      <trkpt lat="43.8414" lon="1.82077">
        <ele>138.304563</ele>
        <time>2026-08-29T17:22:00Z</time>
      </trkpt>
      <trkpt lat="43.84137" lon="1.82073">
        <ele>138.320513</ele>
        <time>2026-08-29T17:22:01Z</time>
      </trkpt>
      <trkpt lat="43.84136" lon="1.8207">
        <ele>138.336373</ele>
        <time>2026-08-29T17:22:02Z</time>
      </trkpt>
      <trkpt lat="43.84133" lon="1.82066">
        <ele>138.352065</ele>
        <time>2026-08-29T17:22:03Z</time>
      </trkpt>
      <trkpt lat="43.84131" lon="1.82063">
        <ele>138.369441</ele>
        <time>2026-08-29T17:22:04Z</time>
      </trkpt>
      <trkpt lat="43.84129" lon="1.82059">
        <ele>138.386559</ele>
        <time>2026-08-29T17:22:05Z</time>
      </trkpt>
      <trkpt lat="43.84126" lon="1.82056">
        <ele>138.401927</ele>
        <time>2026-08-29T17:22:06Z</time>
      </trkpt>
      <trkpt lat="43.84124" lon="1.82053">
        <ele>138.417034</ele>
        <time>2026-08-29T17:22:07Z</time>
      </trkpt>
      <trkpt lat="43.84122" lon="1.8205">
        <ele>138.43341</ele>
        <time>2026-08-29T17:22:08Z</time>
      </trkpt>
      <trkpt lat="43.84119" lon="1.82046">
        <ele>138.450476</ele>
        <time>2026-08-29T17:22:09Z</time>
      </trkpt>
      <trkpt lat="43.84116" lon="1.82043">
        <ele>138.469203</ele>
        <time>2026-08-29T17:22:10Z</time>
      </trkpt>
      <trkpt lat="43.84113" lon="1.82039">
        <ele>138.488048</ele>
        <time>2026-08-29T17:22:11Z</time>
      </trkpt>
      <trkpt lat="43.8411" lon="1.82035">
        <ele>138.508199</ele>
        <time>2026-08-29T17:22:12Z</time>
      </trkpt>
      <trkpt lat="43.84108" lon="1.82031">
        <ele>138.525317</ele>
        <time>2026-08-29T17:22:13Z</time>
      </trkpt>
      <trkpt lat="43.84106" lon="1.82027">
        <ele>138.544028</ele>
        <time>2026-08-29T17:22:14Z</time>
      </trkpt>
      <trkpt lat="43.84103" lon="1.82024">
        <ele>138.561687</ele>
        <time>2026-08-29T17:22:15Z</time>
      </trkpt>
      <trkpt lat="43.841" lon="1.8202">
        <ele>138.580533</ele>
        <time>2026-08-29T17:22:16Z</time>
      </trkpt>
      <trkpt lat="43.84097" lon="1.82017">
        <ele>138.599888</ele>
        <time>2026-08-29T17:22:17Z</time>
      </trkpt>
      <trkpt lat="43.84094" lon="1.82013">
        <ele>138.618647</ele>
        <time>2026-08-29T17:22:18Z</time>
      </trkpt>
      <trkpt lat="43.84091" lon="1.8201">
        <ele>138.636306</ele>
        <time>2026-08-29T17:22:19Z</time>
      </trkpt>
      <trkpt lat="43.84089" lon="1.82006">
        <ele>138.65326</ele>
        <time>2026-08-29T17:22:20Z</time>
      </trkpt>
      <trkpt lat="43.84086" lon="1.82003">
        <ele>138.672137</ele>
        <time>2026-08-29T17:22:21Z</time>
      </trkpt>
      <trkpt lat="43.84083" lon="1.81999">
        <ele>138.692536</ele>
        <time>2026-08-29T17:22:22Z</time>
      </trkpt>
      <trkpt lat="43.8408" lon="1.81995">
        <ele>138.712209</ele>
        <time>2026-08-29T17:22:23Z</time>
      </trkpt>
      <trkpt lat="43.84077" lon="1.81992">
        <ele>138.729041</ele>
        <time>2026-08-29T17:22:24Z</time>
      </trkpt>
      <trkpt lat="43.84075" lon="1.81989">
        <ele>138.744227</ele>
        <time>2026-08-29T17:22:25Z</time>
      </trkpt>
      <trkpt lat="43.84072" lon="1.81985">
        <ele>138.761293</ele>
        <time>2026-08-29T17:22:26Z</time>
      </trkpt>
      <trkpt lat="43.8407" lon="1.81982">
        <ele>138.776823</ele>
        <time>2026-08-29T17:22:27Z</time>
      </trkpt>
      <trkpt lat="43.84067" lon="1.81979">
        <ele>138.795534</ele>
        <time>2026-08-29T17:22:28Z</time>
      </trkpt>
      <trkpt lat="43.84064" lon="1.81976">
        <ele>138.815267</ele>
        <time>2026-08-29T17:22:29Z</time>
      </trkpt>
      <trkpt lat="43.84061" lon="1.81972">
        <ele>138.835533</ele>
        <time>2026-08-29T17:22:30Z</time>
      </trkpt>
      <trkpt lat="43.84057" lon="1.81968">
        <ele>138.856986</ele>
        <time>2026-08-29T17:22:31Z</time>
      </trkpt>
      <trkpt lat="43.84054" lon="1.81963">
        <ele>138.878716</ele>
        <time>2026-08-29T17:22:32Z</time>
      </trkpt>
      <trkpt lat="43.84051" lon="1.81959">
        <ele>138.899859</ele>
        <time>2026-08-29T17:22:33Z</time>
      </trkpt>
      <trkpt lat="43.84048" lon="1.81955">
        <ele>138.920486</ele>
        <time>2026-08-29T17:22:34Z</time>
      </trkpt>
      <trkpt lat="43.84045" lon="1.81951">
        <ele>138.939455</ele>
        <time>2026-08-29T17:22:35Z</time>
      </trkpt>
      <trkpt lat="43.84042" lon="1.81947">
        <ele>138.96044</ele>
        <time>2026-08-29T17:22:36Z</time>
      </trkpt>
      <trkpt lat="43.84039" lon="1.81943">
        <ele>138.968423</ele>
        <time>2026-08-29T17:22:37Z</time>
      </trkpt>
      <trkpt lat="43.84036" lon="1.81938">
        <ele>138.975489</ele>
        <time>2026-08-29T17:22:38Z</time>
      </trkpt>
      <trkpt lat="43.84033" lon="1.81934">
        <ele>138.982326</ele>
        <time>2026-08-29T17:22:39Z</time>
      </trkpt>
      <trkpt lat="43.8403" lon="1.8193">
        <ele>138.988266</ele>
        <time>2026-08-29T17:22:40Z</time>
      </trkpt>
      <trkpt lat="43.84028" lon="1.81927">
        <ele>138.994142</ele>
        <time>2026-08-29T17:22:41Z</time>
      </trkpt>
      <trkpt lat="43.84025" lon="1.81923">
        <ele>139.000368</ele>
        <time>2026-08-29T17:22:42Z</time>
      </trkpt>
      <trkpt lat="43.84022" lon="1.81919">
        <ele>139.006966</ele>
        <time>2026-08-29T17:22:43Z</time>
      </trkpt>
      <trkpt lat="43.8402" lon="1.81915">
        <ele>139.013974</ele>
        <time>2026-08-29T17:22:44Z</time>
      </trkpt>
      <trkpt lat="43.84018" lon="1.81911">
        <ele>139.019601</ele>
        <time>2026-08-29T17:22:45Z</time>
      </trkpt>
      <trkpt lat="43.84015" lon="1.81906">
        <ele>139.026289</ele>
        <time>2026-08-29T17:22:46Z</time>
      </trkpt>
      <trkpt lat="43.84013" lon="1.81901">
        <ele>139.033062</ele>
        <time>2026-08-29T17:22:47Z</time>
      </trkpt>
      <trkpt lat="43.8401" lon="1.81897">
        <ele>139.039455</ele>
        <time>2026-08-29T17:22:48Z</time>
      </trkpt>
      <trkpt lat="43.84008" lon="1.81893">
        <ele>139.045845</ele>
        <time>2026-08-29T17:22:49Z</time>
      </trkpt>
      <trkpt lat="43.84006" lon="1.81888">
        <ele>139.052044</ele>
        <time>2026-08-29T17:22:50Z</time>
      </trkpt>
      <trkpt lat="43.84004" lon="1.81884">
        <ele>139.057673</ele>
        <time>2026-08-29T17:22:51Z</time>
      </trkpt>
      <trkpt lat="43.84001" lon="1.81881">
        <ele>139.063721</ele>
        <time>2026-08-29T17:22:52Z</time>
      </trkpt>
      <trkpt lat="43.83999" lon="1.81876">
        <ele>139.07023</ele>
        <time>2026-08-29T17:22:53Z</time>
      </trkpt>
      <trkpt lat="43.83996" lon="1.81872">
        <ele>139.077265</ele>
        <time>2026-08-29T17:22:54Z</time>
      </trkpt>
      <trkpt lat="43.83993" lon="1.81867">
        <ele>139.084419</ele>
        <time>2026-08-29T17:22:55Z</time>
      </trkpt>
      <trkpt lat="43.83991" lon="1.81862">
        <ele>139.091476</ele>
        <time>2026-08-29T17:22:56Z</time>
      </trkpt>
      <trkpt lat="43.83988" lon="1.81857">
        <ele>139.09882</ele>
        <time>2026-08-29T17:22:57Z</time>
      </trkpt>
      <trkpt lat="43.83986" lon="1.81852">
        <ele>139.106071</ele>
        <time>2026-08-29T17:22:58Z</time>
      </trkpt>
      <trkpt lat="43.83983" lon="1.81847">
        <ele>139.112938</ele>
        <time>2026-08-29T17:22:59Z</time>
      </trkpt>
      <trkpt lat="43.83981" lon="1.81843">
        <ele>139.119527</ele>
        <time>2026-08-29T17:23:00Z</time>
      </trkpt>
      <trkpt lat="43.83979" lon="1.81838">
        <ele>139.125726</ele>
        <time>2026-08-29T17:23:01Z</time>
      </trkpt>
      <trkpt lat="43.83977" lon="1.81834">
        <ele>139.132143</ele>
        <time>2026-08-29T17:23:02Z</time>
      </trkpt>
      <trkpt lat="43.83974" lon="1.81829">
        <ele>139.138438</ele>
        <time>2026-08-29T17:23:03Z</time>
      </trkpt>
      <trkpt lat="43.83972" lon="1.81825">
        <ele>139.145231</ele>
        <time>2026-08-29T17:23:04Z</time>
      </trkpt>
      <trkpt lat="43.83969" lon="1.8182">
        <ele>139.152297</ele>
        <time>2026-08-29T17:23:05Z</time>
      </trkpt>
      <trkpt lat="43.83967" lon="1.81815">
        <ele>139.159184</ele>
        <time>2026-08-29T17:23:06Z</time>
      </trkpt>
      <trkpt lat="43.83964" lon="1.8181">
        <ele>139.166149</ele>
        <time>2026-08-29T17:23:07Z</time>
      </trkpt>
      <trkpt lat="43.83962" lon="1.81805">
        <ele>139.173408</ele>
        <time>2026-08-29T17:23:08Z</time>
      </trkpt>
      <trkpt lat="43.8396" lon="1.818">
        <ele>139.179997</ele>
        <time>2026-08-29T17:23:09Z</time>
      </trkpt>
      <trkpt lat="43.83958" lon="1.81796">
        <ele>139.186196</ele>
        <time>2026-08-29T17:23:10Z</time>
      </trkpt>
      <trkpt lat="43.83955" lon="1.81792">
        <ele>139.192794</ele>
        <time>2026-08-29T17:23:11Z</time>
      </trkpt>
      <trkpt lat="43.83952" lon="1.81787">
        <ele>139.200027</ele>
        <time>2026-08-29T17:23:12Z</time>
      </trkpt>
      <trkpt lat="43.83949" lon="1.81783">
        <ele>139.207286</ele>
        <time>2026-08-29T17:23:13Z</time>
      </trkpt>
      <trkpt lat="43.83946" lon="1.81777">
        <ele>139.215016</ele>
        <time>2026-08-29T17:23:14Z</time>
      </trkpt>
      <trkpt lat="43.83943" lon="1.81772">
        <ele>139.222646</ele>
        <time>2026-08-29T17:23:15Z</time>
      </trkpt>
      <trkpt lat="43.83941" lon="1.81767">
        <ele>139.230277</ele>
        <time>2026-08-29T17:23:16Z</time>
      </trkpt>
      <trkpt lat="43.83938" lon="1.81762">
        <ele>139.237721</ele>
        <time>2026-08-29T17:23:17Z</time>
      </trkpt>
      <trkpt lat="43.83935" lon="1.81757">
        <ele>139.245279</ele>
        <time>2026-08-29T17:23:18Z</time>
      </trkpt>
      <trkpt lat="43.83932" lon="1.81752">
        <ele>139.252813</ele>
        <time>2026-08-29T17:23:19Z</time>
      </trkpt>
      <trkpt lat="43.83929" lon="1.81747">
        <ele>139.240932</ele>
        <time>2026-08-29T17:23:20Z</time>
      </trkpt>
      <trkpt lat="43.83927" lon="1.81742">
        <ele>139.2239</ele>
        <time>2026-08-29T17:23:21Z</time>
      </trkpt>
      <trkpt lat="43.83924" lon="1.81736">
        <ele>139.206213</ele>
        <time>2026-08-29T17:23:22Z</time>
      </trkpt>
      <trkpt lat="43.83921" lon="1.81731">
        <ele>139.187868</ele>
        <time>2026-08-29T17:23:23Z</time>
      </trkpt>
      <trkpt lat="43.83918" lon="1.81725">
        <ele>139.168868</ele>
        <time>2026-08-29T17:23:24Z</time>
      </trkpt>
      <trkpt lat="43.83915" lon="1.81719">
        <ele>139.150308</ele>
        <time>2026-08-29T17:23:25Z</time>
      </trkpt>
      <trkpt lat="43.83912" lon="1.81715">
        <ele>139.133656</ele>
        <time>2026-08-29T17:23:26Z</time>
      </trkpt>
      <trkpt lat="43.83909" lon="1.8171">
        <ele>139.11651</ele>
        <time>2026-08-29T17:23:27Z</time>
      </trkpt>
      <trkpt lat="43.83907" lon="1.81705">
        <ele>139.100133</ele>
        <time>2026-08-29T17:23:28Z</time>
      </trkpt>
      <trkpt lat="43.83904" lon="1.817">
        <ele>139.084186</ele>
        <time>2026-08-29T17:23:29Z</time>
      </trkpt>
      <trkpt lat="43.83902" lon="1.81696">
        <ele>139.069557</ele>
        <time>2026-08-29T17:23:30Z</time>
      </trkpt>
      <trkpt lat="43.839" lon="1.81691">
        <ele>139.054442</ele>
        <time>2026-08-29T17:23:31Z</time>
      </trkpt>
      <trkpt lat="43.83898" lon="1.81686">
        <ele>139.039373</ele>
        <time>2026-08-29T17:23:32Z</time>
      </trkpt>
      <trkpt lat="43.83896" lon="1.81682">
        <ele>139.025143</ele>
        <time>2026-08-29T17:23:33Z</time>
      </trkpt>
      <trkpt lat="43.83893" lon="1.81678">
        <ele>139.012678</ele>
        <time>2026-08-29T17:23:34Z</time>
      </trkpt>
      <trkpt lat="43.83891" lon="1.81674">
        <ele>138.999139</ele>
        <time>2026-08-29T17:23:35Z</time>
      </trkpt>
      <trkpt lat="43.83889" lon="1.8167">
        <ele>138.983417</ele>
        <time>2026-08-29T17:23:36Z</time>
      </trkpt>
      <trkpt lat="43.83886" lon="1.81664">
        <ele>138.966796</ele>
        <time>2026-08-29T17:23:37Z</time>
      </trkpt>
      <trkpt lat="43.83884" lon="1.81659">
        <ele>138.951057</ele>
        <time>2026-08-29T17:23:38Z</time>
      </trkpt>
      <trkpt lat="43.83882" lon="1.81654">
        <ele>138.93375</ele>
        <time>2026-08-29T17:23:39Z</time>
      </trkpt>
      <trkpt lat="43.83879" lon="1.81649">
        <ele>138.917156</ele>
        <time>2026-08-29T17:23:40Z</time>
      </trkpt>
      <trkpt lat="43.83877" lon="1.81645">
        <ele>138.902701</ele>
        <time>2026-08-29T17:23:41Z</time>
      </trkpt>
      <trkpt lat="43.83874" lon="1.8164">
        <ele>138.887149</ele>
        <time>2026-08-29T17:23:42Z</time>
      </trkpt>
      <trkpt lat="43.83871" lon="1.81635">
        <ele>138.869444</ele>
        <time>2026-08-29T17:23:43Z</time>
      </trkpt>
      <trkpt lat="43.83868" lon="1.8163">
        <ele>138.853198</ele>
        <time>2026-08-29T17:23:44Z</time>
      </trkpt>
      <trkpt lat="43.83866" lon="1.81626">
        <ele>138.836749</ele>
        <time>2026-08-29T17:23:45Z</time>
      </trkpt>
      <trkpt lat="43.83863" lon="1.81621">
        <ele>138.820301</ele>
        <time>2026-08-29T17:23:46Z</time>
      </trkpt>
      <trkpt lat="43.8386" lon="1.81616">
        <ele>138.802817</ele>
        <time>2026-08-29T17:23:47Z</time>
      </trkpt>
      <trkpt lat="43.83857" lon="1.81611">
        <ele>138.785348</ele>
        <time>2026-08-29T17:23:48Z</time>
      </trkpt>
      <trkpt lat="43.83855" lon="1.81605">
        <ele>138.767157</ele>
        <time>2026-08-29T17:23:49Z</time>
      </trkpt>
      <trkpt lat="43.83853" lon="1.816">
        <ele>138.751141</ele>
        <time>2026-08-29T17:23:50Z</time>
      </trkpt>
      <trkpt lat="43.83851" lon="1.81594">
        <ele>138.733894</ele>
        <time>2026-08-29T17:23:51Z</time>
      </trkpt>
      <trkpt lat="43.83849" lon="1.81588">
        <ele>138.717677</ele>
        <time>2026-08-29T17:23:52Z</time>
      </trkpt>
      <trkpt lat="43.83848" lon="1.81583">
        <ele>138.701567</ele>
        <time>2026-08-29T17:23:53Z</time>
      </trkpt>
      <trkpt lat="43.83846" lon="1.81577">
        <ele>138.685391</ele>
        <time>2026-08-29T17:23:54Z</time>
      </trkpt>
      <trkpt lat="43.83844" lon="1.81572">
        <ele>138.669529</ele>
        <time>2026-08-29T17:23:55Z</time>
      </trkpt>
      <trkpt lat="43.83843" lon="1.81567">
        <ele>138.655589</ele>
        <time>2026-08-29T17:23:56Z</time>
      </trkpt>
      <trkpt lat="43.83841" lon="1.81562">
        <ele>138.640393</ele>
        <time>2026-08-29T17:23:57Z</time>
      </trkpt>
      <trkpt lat="43.8384" lon="1.81556">
        <ele>138.623423</ele>
        <time>2026-08-29T17:23:58Z</time>
      </trkpt>
      <trkpt lat="43.83838" lon="1.8155">
        <ele>138.606201</ele>
        <time>2026-08-29T17:23:59Z</time>
      </trkpt>
      <trkpt lat="43.83836" lon="1.81544">
        <ele>138.588845</ele>
        <time>2026-08-29T17:24:00Z</time>
      </trkpt>
      <trkpt lat="43.83835" lon="1.81538">
        <ele>138.578351</ele>
        <time>2026-08-29T17:24:01Z</time>
      </trkpt>
      <trkpt lat="43.83832" lon="1.81534">
        <ele>138.571289</ele>
        <time>2026-08-29T17:24:02Z</time>
      </trkpt>
      <trkpt lat="43.8383" lon="1.81529">
        <ele>138.564006</ele>
        <time>2026-08-29T17:24:03Z</time>
      </trkpt>
      <trkpt lat="43.83828" lon="1.81524">
        <ele>138.556724</ele>
        <time>2026-08-29T17:24:04Z</time>
      </trkpt>
      <trkpt lat="43.83826" lon="1.81518">
        <ele>138.549215</ele>
        <time>2026-08-29T17:24:05Z</time>
      </trkpt>
      <trkpt lat="43.83824" lon="1.81512">
        <ele>138.541261</ele>
        <time>2026-08-29T17:24:06Z</time>
      </trkpt>
      <trkpt lat="43.83823" lon="1.81506">
        <ele>138.532999</ele>
        <time>2026-08-29T17:24:07Z</time>
      </trkpt>
      <trkpt lat="43.83821" lon="1.815">
        <ele>138.524984</ele>
        <time>2026-08-29T17:24:08Z</time>
      </trkpt>
      <trkpt lat="43.83819" lon="1.81494">
        <ele>138.516615</ele>
        <time>2026-08-29T17:24:09Z</time>
      </trkpt>
      <trkpt lat="43.83817" lon="1.81489">
        <ele>138.508957</ele>
        <time>2026-08-29T17:24:10Z</time>
      </trkpt>
      <trkpt lat="43.83815" lon="1.81483">
        <ele>138.501352</ele>
        <time>2026-08-29T17:24:11Z</time>
      </trkpt>
      <trkpt lat="43.83813" lon="1.81477">
        <ele>138.493797</ele>
        <time>2026-08-29T17:24:12Z</time>
      </trkpt>
      <trkpt lat="43.83812" lon="1.81472">
        <ele>138.486428</ele>
        <time>2026-08-29T17:24:13Z</time>
      </trkpt>
      <trkpt lat="43.8381" lon="1.81466">
        <ele>138.479216</ele>
        <time>2026-08-29T17:24:14Z</time>
      </trkpt>
      <trkpt lat="43.83808" lon="1.81461">
        <ele>138.471998</ele>
        <time>2026-08-29T17:24:15Z</time>
      </trkpt>
      <trkpt lat="43.83806" lon="1.81456">
        <ele>138.464714</ele>
        <time>2026-08-29T17:24:16Z</time>
      </trkpt>
      <trkpt lat="43.83804" lon="1.81451">
        <ele>138.456977</ele>
        <time>2026-08-29T17:24:17Z</time>
      </trkpt>
      <trkpt lat="43.83803" lon="1.81445">
        <ele>138.449011</ele>
        <time>2026-08-29T17:24:18Z</time>
      </trkpt>
      <trkpt lat="43.83801" lon="1.81439">
        <ele>138.44113</ele>
        <time>2026-08-29T17:24:19Z</time>
      </trkpt>
      <trkpt lat="43.83799" lon="1.81433">
        <ele>138.432799</ele>
        <time>2026-08-29T17:24:20Z</time>
      </trkpt>
      <trkpt lat="43.83797" lon="1.81427">
        <ele>138.425029</ele>
        <time>2026-08-29T17:24:21Z</time>
      </trkpt>
      <trkpt lat="43.83794" lon="1.81421">
        <ele>138.416625</ele>
        <time>2026-08-29T17:24:22Z</time>
      </trkpt>
      <trkpt lat="43.83792" lon="1.81415">
        <ele>138.407952</ele>
        <time>2026-08-29T17:24:23Z</time>
      </trkpt>
      <trkpt lat="43.83791" lon="1.81409">
        <ele>138.399805</ele>
        <time>2026-08-29T17:24:24Z</time>
      </trkpt>
      <trkpt lat="43.83789" lon="1.81403">
        <ele>138.391997</ele>
        <time>2026-08-29T17:24:25Z</time>
      </trkpt>
      <trkpt lat="43.83786" lon="1.81397">
        <ele>138.383517</ele>
        <time>2026-08-29T17:24:26Z</time>
      </trkpt>
      <trkpt lat="43.83784" lon="1.81391">
        <ele>138.37567</ele>
        <time>2026-08-29T17:24:27Z</time>
      </trkpt>
      <trkpt lat="43.83782" lon="1.81386">
        <ele>138.367711</ele>
        <time>2026-08-29T17:24:28Z</time>
      </trkpt>
      <trkpt lat="43.8378" lon="1.8138">
        <ele>138.360164</ele>
        <time>2026-08-29T17:24:29Z</time>
      </trkpt>
      <trkpt lat="43.83779" lon="1.81375">
        <ele>138.353515</ele>
        <time>2026-08-29T17:24:30Z</time>
      </trkpt>
      <trkpt lat="43.83777" lon="1.81371">
        <ele>138.346707</ele>
        <time>2026-08-29T17:24:31Z</time>
      </trkpt>
      <trkpt lat="43.83775" lon="1.81366">
        <ele>138.340019</ele>
        <time>2026-08-29T17:24:32Z</time>
      </trkpt>
      <trkpt lat="43.83773" lon="1.81361">
        <ele>138.332801</ele>
        <time>2026-08-29T17:24:33Z</time>
      </trkpt>
      <trkpt lat="43.83771" lon="1.81355">
        <ele>138.325247</ele>
        <time>2026-08-29T17:24:34Z</time>
      </trkpt>
      <trkpt lat="43.8377" lon="1.8135">
        <ele>138.317988</ele>
        <time>2026-08-29T17:24:35Z</time>
      </trkpt>
      <trkpt lat="43.83768" lon="1.81344">
        <ele>138.310405</ele>
        <time>2026-08-29T17:24:36Z</time>
      </trkpt>
      <trkpt lat="43.83766" lon="1.81339">
        <ele>138.303193</ele>
        <time>2026-08-29T17:24:37Z</time>
      </trkpt>
      <trkpt lat="43.83764" lon="1.81333">
        <ele>138.294855</ele>
        <time>2026-08-29T17:24:38Z</time>
      </trkpt>
      <trkpt lat="43.83762" lon="1.81327">
        <ele>138.287196</ele>
        <time>2026-08-29T17:24:39Z</time>
      </trkpt>
      <trkpt lat="43.8376" lon="1.81322">
        <ele>138.279398</ele>
        <time>2026-08-29T17:24:40Z</time>
      </trkpt>
      <trkpt lat="43.83758" lon="1.81317">
        <ele>138.269618</ele>
        <time>2026-08-29T17:24:41Z</time>
      </trkpt>
      <trkpt lat="43.83756" lon="1.81311">
        <ele>138.247047</ele>
        <time>2026-08-29T17:24:42Z</time>
      </trkpt>
      <trkpt lat="43.83754" lon="1.81305">
        <ele>138.22459</ele>
        <time>2026-08-29T17:24:43Z</time>
      </trkpt>
      <trkpt lat="43.83753" lon="1.813">
        <ele>138.202908</ele>
        <time>2026-08-29T17:24:44Z</time>
      </trkpt>
      <trkpt lat="43.8375" lon="1.81294">
        <ele>138.177892</ele>
        <time>2026-08-29T17:24:45Z</time>
      </trkpt>
      <trkpt lat="43.83748" lon="1.81288">
        <ele>138.152077</ele>
        <time>2026-08-29T17:24:46Z</time>
      </trkpt>
      <trkpt lat="43.83747" lon="1.81282">
        <ele>138.128574</ele>
        <time>2026-08-29T17:24:47Z</time>
      </trkpt>
      <trkpt lat="43.83745" lon="1.81276">
        <ele>138.107443</ele>
        <time>2026-08-29T17:24:48Z</time>
      </trkpt>
      <trkpt lat="43.83743" lon="1.81271">
        <ele>138.083913</ele>
        <time>2026-08-29T17:24:49Z</time>
      </trkpt>
      <trkpt lat="43.83741" lon="1.81265">
        <ele>138.060121</ele>
        <time>2026-08-29T17:24:50Z</time>
      </trkpt>
      <trkpt lat="43.83738" lon="1.8126">
        <ele>138.035693</ele>
        <time>2026-08-29T17:24:51Z</time>
      </trkpt>
      <trkpt lat="43.83736" lon="1.81254">
        <ele>138.013312</ele>
        <time>2026-08-29T17:24:52Z</time>
      </trkpt>
      <trkpt lat="43.83734" lon="1.81249">
        <ele>137.989058</ele>
        <time>2026-08-29T17:24:53Z</time>
      </trkpt>
      <trkpt lat="43.83731" lon="1.81243">
        <ele>137.964949</ele>
        <time>2026-08-29T17:24:54Z</time>
      </trkpt>
      <trkpt lat="43.83729" lon="1.81238">
        <ele>137.944211</ele>
        <time>2026-08-29T17:24:55Z</time>
      </trkpt>
      <trkpt lat="43.83727" lon="1.81233">
        <ele>137.923294</ele>
        <time>2026-08-29T17:24:56Z</time>
      </trkpt>
      <trkpt lat="43.83726" lon="1.81228">
        <ele>137.902942</ele>
        <time>2026-08-29T17:24:57Z</time>
      </trkpt>
      <trkpt lat="43.83724" lon="1.81224">
        <ele>137.883371</ele>
        <time>2026-08-29T17:24:58Z</time>
      </trkpt>
      <trkpt lat="43.83722" lon="1.81219">
        <ele>137.865358</ele>
        <time>2026-08-29T17:24:59Z</time>
      </trkpt>
      <trkpt lat="43.83721" lon="1.81215">
        <ele>137.84882</ele>
        <time>2026-08-29T17:25:00Z</time>
      </trkpt>
      <trkpt lat="43.8372" lon="1.8121">
        <ele>137.83019</ele>
        <time>2026-08-29T17:25:01Z</time>
      </trkpt>
      <trkpt lat="43.83719" lon="1.81206">
        <ele>137.812844</ele>
        <time>2026-08-29T17:25:02Z</time>
      </trkpt>
      <trkpt lat="43.83717" lon="1.81201">
        <ele>137.794023</ele>
        <time>2026-08-29T17:25:03Z</time>
      </trkpt>
      <trkpt lat="43.83715" lon="1.81196">
        <ele>137.772341</ele>
        <time>2026-08-29T17:25:04Z</time>
      </trkpt>
      <trkpt lat="43.83713" lon="1.8119">
        <ele>137.749213</ele>
        <time>2026-08-29T17:25:05Z</time>
      </trkpt>
      <trkpt lat="43.83711" lon="1.81185">
        <ele>137.726642</ele>
        <time>2026-08-29T17:25:06Z</time>
      </trkpt>
      <trkpt lat="43.8371" lon="1.8118">
        <ele>137.704625</ele>
        <time>2026-08-29T17:25:07Z</time>
      </trkpt>
      <trkpt lat="43.83708" lon="1.81174">
        <ele>137.682567</ele>
        <time>2026-08-29T17:25:08Z</time>
      </trkpt>
      <trkpt lat="43.83706" lon="1.81169">
        <ele>137.662442</ele>
        <time>2026-08-29T17:25:09Z</time>
      </trkpt>
      <trkpt lat="43.83704" lon="1.81165">
        <ele>137.644981</ele>
        <time>2026-08-29T17:25:10Z</time>
      </trkpt>
      <trkpt lat="43.83703" lon="1.81161">
        <ele>137.626412</ele>
        <time>2026-08-29T17:25:11Z</time>
      </trkpt>
      <trkpt lat="43.83701" lon="1.81156">
        <ele>137.606369</ele>
        <time>2026-08-29T17:25:12Z</time>
      </trkpt>
      <trkpt lat="43.837" lon="1.8115">
        <ele>137.584687</ele>
        <time>2026-08-29T17:25:13Z</time>
      </trkpt>
      <trkpt lat="43.83698" lon="1.81144">
        <ele>137.560223</ele>
        <time>2026-08-29T17:25:14Z</time>
      </trkpt>
      <trkpt lat="43.83696" lon="1.81139">
        <ele>137.536854</ele>
        <time>2026-08-29T17:25:15Z</time>
      </trkpt>
      <trkpt lat="43.83694" lon="1.81134">
        <ele>137.51683</ele>
        <time>2026-08-29T17:25:16Z</time>
      </trkpt>
      <trkpt lat="43.83692" lon="1.81129">
        <ele>137.49624</ele>
        <time>2026-08-29T17:25:17Z</time>
      </trkpt>
      <trkpt lat="43.8369" lon="1.81124">
        <ele>137.476677</ele>
        <time>2026-08-29T17:25:18Z</time>
      </trkpt>
      <trkpt lat="43.83688" lon="1.81119">
        <ele>137.453075</ele>
        <time>2026-08-29T17:25:19Z</time>
      </trkpt>
      <trkpt lat="43.83686" lon="1.81113">
        <ele>137.429148</ele>
        <time>2026-08-29T17:25:20Z</time>
      </trkpt>
      <trkpt lat="43.83683" lon="1.81108">
        <ele>137.405871</ele>
        <time>2026-08-29T17:25:21Z</time>
      </trkpt>
      <trkpt lat="43.83682" lon="1.81102">
        <ele>137.384523</ele>
        <time>2026-08-29T17:25:22Z</time>
      </trkpt>
      <trkpt lat="43.8368" lon="1.81097">
        <ele>137.362617</ele>
        <time>2026-08-29T17:25:23Z</time>
      </trkpt>
      <trkpt lat="43.83678" lon="1.81092">
        <ele>137.33329</ele>
        <time>2026-08-29T17:25:24Z</time>
      </trkpt>
      <trkpt lat="43.83676" lon="1.81087">
        <ele>137.291499</ele>
        <time>2026-08-29T17:25:25Z</time>
      </trkpt>
      <trkpt lat="43.83674" lon="1.81081">
        <ele>137.248465</ele>
        <time>2026-08-29T17:25:26Z</time>
      </trkpt>
      <trkpt lat="43.83672" lon="1.81076">
        <ele>137.206267</ele>
        <time>2026-08-29T17:25:27Z</time>
      </trkpt>
      <trkpt lat="43.8367" lon="1.81071">
        <ele>137.164147</ele>
        <time>2026-08-29T17:25:28Z</time>
      </trkpt>
      <trkpt lat="43.83668" lon="1.81064">
        <ele>137.113747</ele>
        <time>2026-08-29T17:25:29Z</time>
      </trkpt>
      <trkpt lat="43.83665" lon="1.81058">
        <ele>137.069807</ele>
        <time>2026-08-29T17:25:30Z</time>
      </trkpt>
      <trkpt lat="43.83663" lon="1.81053">
        <ele>137.023402</ele>
        <time>2026-08-29T17:25:31Z</time>
      </trkpt>
      <trkpt lat="43.83661" lon="1.81046">
        <ele>136.975311</ele>
        <time>2026-08-29T17:25:32Z</time>
      </trkpt>
      <trkpt lat="43.83659" lon="1.8104">
        <ele>136.927219</ele>
        <time>2026-08-29T17:25:33Z</time>
      </trkpt>
      <trkpt lat="43.83657" lon="1.81034">
        <ele>136.877592</ele>
        <time>2026-08-29T17:25:34Z</time>
      </trkpt>
      <trkpt lat="43.83654" lon="1.81028">
        <ele>136.829657</ele>
        <time>2026-08-29T17:25:35Z</time>
      </trkpt>
      <trkpt lat="43.83652" lon="1.81022">
        <ele>136.7828</ele>
        <time>2026-08-29T17:25:36Z</time>
      </trkpt>
      <trkpt lat="43.8365" lon="1.81016">
        <ele>136.734708</ele>
        <time>2026-08-29T17:25:37Z</time>
      </trkpt>
      <trkpt lat="43.83648" lon="1.8101">
        <ele>136.687483</ele>
        <time>2026-08-29T17:25:38Z</time>
      </trkpt>
      <trkpt lat="43.83645" lon="1.81004">
        <ele>136.641079</ele>
        <time>2026-08-29T17:25:39Z</time>
      </trkpt>
      <trkpt lat="43.83643" lon="1.80999">
        <ele>136.59956</ele>
        <time>2026-08-29T17:25:40Z</time>
      </trkpt>
      <trkpt lat="43.83641" lon="1.80993">
        <ele>136.556526</ele>
        <time>2026-08-29T17:25:41Z</time>
      </trkpt>
      <trkpt lat="43.8364" lon="1.80988">
        <ele>136.519334</ele>
        <time>2026-08-29T17:25:42Z</time>
      </trkpt>
      <trkpt lat="43.83638" lon="1.80983">
        <ele>136.479445</ele>
        <time>2026-08-29T17:25:43Z</time>
      </trkpt>
      <trkpt lat="43.83636" lon="1.80978">
        <ele>136.438919</ele>
        <time>2026-08-29T17:25:44Z</time>
      </trkpt>
      <trkpt lat="43.83634" lon="1.80972">
        <ele>136.395047</ele>
        <time>2026-08-29T17:25:45Z</time>
      </trkpt>
      <trkpt lat="43.83632" lon="1.80967">
        <ele>136.351716</ele>
        <time>2026-08-29T17:25:46Z</time>
      </trkpt>
      <trkpt lat="43.8363" lon="1.80961">
        <ele>136.307163</ele>
        <time>2026-08-29T17:25:47Z</time>
      </trkpt>
      <trkpt lat="43.83628" lon="1.80956">
        <ele>136.266436</ele>
        <time>2026-08-29T17:25:48Z</time>
      </trkpt>
      <trkpt lat="43.83626" lon="1.8095">
        <ele>136.222957</ele>
        <time>2026-08-29T17:25:49Z</time>
      </trkpt>
      <trkpt lat="43.83624" lon="1.80944">
        <ele>136.178199</ele>
        <time>2026-08-29T17:25:50Z</time>
      </trkpt>
      <trkpt lat="43.83622" lon="1.80938">
        <ele>136.132416</ele>
        <time>2026-08-29T17:25:51Z</time>
      </trkpt>
      <trkpt lat="43.83621" lon="1.80932">
        <ele>136.086725</ele>
        <time>2026-08-29T17:25:52Z</time>
      </trkpt>
      <trkpt lat="43.83619" lon="1.80926">
        <ele>136.04003</ele>
        <time>2026-08-29T17:25:53Z</time>
      </trkpt>
      <trkpt lat="43.83618" lon="1.8092">
        <ele>135.997872</ele>
        <time>2026-08-29T17:25:54Z</time>
      </trkpt>
      <trkpt lat="43.83617" lon="1.80914">
        <ele>135.955971</ele>
        <time>2026-08-29T17:25:55Z</time>
      </trkpt>
      <trkpt lat="43.83616" lon="1.80908">
        <ele>135.912264</ele>
        <time>2026-08-29T17:25:56Z</time>
      </trkpt>
      <trkpt lat="43.83616" lon="1.80902">
        <ele>135.868151</ele>
        <time>2026-08-29T17:25:57Z</time>
      </trkpt>
      <trkpt lat="43.83615" lon="1.80896">
        <ele>135.825257</ele>
        <time>2026-08-29T17:25:58Z</time>
      </trkpt>
      <trkpt lat="43.83615" lon="1.8089">
        <ele>135.78348</ele>
        <time>2026-08-29T17:25:59Z</time>
      </trkpt>
      <trkpt lat="43.83614" lon="1.80883">
        <ele>135.737695</ele>
        <time>2026-08-29T17:26:00Z</time>
      </trkpt>
      <trkpt lat="43.83614" lon="1.80877">
        <ele>135.692115</ele>
        <time>2026-08-29T17:26:01Z</time>
      </trkpt>
      <trkpt lat="43.83613" lon="1.80871">
        <ele>135.647579</ele>
        <time>2026-08-29T17:26:02Z</time>
      </trkpt>
      <trkpt lat="43.83612" lon="1.80864">
        <ele>135.608903</ele>
        <time>2026-08-29T17:26:03Z</time>
      </trkpt>
      <trkpt lat="43.83611" lon="1.80858">
        <ele>135.619625</ele>
        <time>2026-08-29T17:26:04Z</time>
      </trkpt>
      <trkpt lat="43.83611" lon="1.80851">
        <ele>135.631071</ele>
        <time>2026-08-29T17:26:05Z</time>
      </trkpt>
      <trkpt lat="43.8361" lon="1.80845">
        <ele>135.641839</ele>
        <time>2026-08-29T17:26:06Z</time>
      </trkpt>
      <trkpt lat="43.8361" lon="1.80838">
        <ele>135.652301</ele>
        <time>2026-08-29T17:26:07Z</time>
      </trkpt>
      <trkpt lat="43.8361" lon="1.80832">
        <ele>135.663528</ele>
        <time>2026-08-29T17:26:08Z</time>
      </trkpt>
      <trkpt lat="43.8361" lon="1.80824">
        <ele>135.675907</ele>
        <time>2026-08-29T17:26:09Z</time>
      </trkpt>
      <trkpt lat="43.8361" lon="1.80816">
        <ele>135.688782</ele>
        <time>2026-08-29T17:26:10Z</time>
      </trkpt>
      <trkpt lat="43.8361" lon="1.80809">
        <ele>135.7015</ele>
        <time>2026-08-29T17:26:11Z</time>
      </trkpt>
      <trkpt lat="43.83609" lon="1.80802">
        <ele>135.71291</ele>
        <time>2026-08-29T17:26:12Z</time>
      </trkpt>
      <trkpt lat="43.83609" lon="1.80795">
        <ele>135.72432</ele>
        <time>2026-08-29T17:26:13Z</time>
      </trkpt>
      <trkpt lat="43.83609" lon="1.80788">
        <ele>135.735895</ele>
        <time>2026-08-29T17:26:14Z</time>
      </trkpt>
      <trkpt lat="43.83609" lon="1.80781">
        <ele>135.747119</ele>
        <time>2026-08-29T17:26:15Z</time>
      </trkpt>
      <trkpt lat="43.83609" lon="1.80774">
        <ele>135.758345</ele>
        <time>2026-08-29T17:26:16Z</time>
      </trkpt>
      <trkpt lat="43.83608" lon="1.80767">
        <ele>135.770074</ele>
        <time>2026-08-29T17:26:17Z</time>
      </trkpt>
      <trkpt lat="43.83608" lon="1.80761">
        <ele>135.780812</ele>
        <time>2026-08-29T17:26:18Z</time>
      </trkpt>
      <trkpt lat="43.83608" lon="1.80754">
        <ele>135.791497</ele>
        <time>2026-08-29T17:26:19Z</time>
      </trkpt>
      <trkpt lat="43.83607" lon="1.80748">
        <ele>135.802477</ele>
        <time>2026-08-29T17:26:20Z</time>
      </trkpt>
      <trkpt lat="43.83607" lon="1.80741">
        <ele>135.812899</ele>
        <time>2026-08-29T17:26:21Z</time>
      </trkpt>
      <trkpt lat="43.83606" lon="1.80735">
        <ele>135.822648</ele>
        <time>2026-08-29T17:26:22Z</time>
      </trkpt>
      <trkpt lat="43.83606" lon="1.8073">
        <ele>135.832265</ele>
        <time>2026-08-29T17:26:23Z</time>
      </trkpt>
      <trkpt lat="43.83606" lon="1.80723">
        <ele>135.842345</ele>
        <time>2026-08-29T17:26:24Z</time>
      </trkpt>
      <trkpt lat="43.83606" lon="1.80717">
        <ele>135.852746</ele>
        <time>2026-08-29T17:26:25Z</time>
      </trkpt>
      <trkpt lat="43.83606" lon="1.80711">
        <ele>135.863155</ele>
        <time>2026-08-29T17:26:26Z</time>
      </trkpt>
      <trkpt lat="43.83605" lon="1.80705">
        <ele>135.873564</ele>
        <time>2026-08-29T17:26:27Z</time>
      </trkpt>
      <trkpt lat="43.83605" lon="1.80698">
        <ele>135.884026</ele>
        <time>2026-08-29T17:26:28Z</time>
      </trkpt>
      <trkpt lat="43.83604" lon="1.80692">
        <ele>135.894351</ele>
        <time>2026-08-29T17:26:29Z</time>
      </trkpt>
      <trkpt lat="43.83604" lon="1.80686">
        <ele>135.904918</ele>
        <time>2026-08-29T17:26:30Z</time>
      </trkpt>
      <trkpt lat="43.83604" lon="1.80679">
        <ele>135.915504</ele>
        <time>2026-08-29T17:26:31Z</time>
      </trkpt>
      <trkpt lat="43.83604" lon="1.80673">
        <ele>135.925573</ele>
        <time>2026-08-29T17:26:32Z</time>
      </trkpt>
      <trkpt lat="43.83604" lon="1.80667">
        <ele>135.936159</ele>
        <time>2026-08-29T17:26:33Z</time>
      </trkpt>
      <trkpt lat="43.83604" lon="1.8066">
        <ele>135.94658</ele>
        <time>2026-08-29T17:26:34Z</time>
      </trkpt>
      <trkpt lat="43.83603" lon="1.80655">
        <ele>135.956058</ele>
        <time>2026-08-29T17:26:35Z</time>
      </trkpt>
      <trkpt lat="43.83603" lon="1.80649">
        <ele>135.965492</ele>
        <time>2026-08-29T17:26:36Z</time>
      </trkpt>
      <trkpt lat="43.83603" lon="1.80643">
        <ele>135.974925</ele>
        <time>2026-08-29T17:26:37Z</time>
      </trkpt>
      <trkpt lat="43.83603" lon="1.80637">
        <ele>135.98484</ele>
        <time>2026-08-29T17:26:38Z</time>
      </trkpt>
      <trkpt lat="43.83602" lon="1.80632">
        <ele>135.994128</ele>
        <time>2026-08-29T17:26:39Z</time>
      </trkpt>
      <trkpt lat="43.83602" lon="1.80626">
        <ele>136.003279</ele>
        <time>2026-08-29T17:26:40Z</time>
      </trkpt>
      <trkpt lat="43.83601" lon="1.80621">
        <ele>136.012403</ele>
        <time>2026-08-29T17:26:41Z</time>
      </trkpt>
      <trkpt lat="43.83601" lon="1.80615">
        <ele>136.01753</ele>
        <time>2026-08-29T17:26:42Z</time>
      </trkpt>
      <trkpt lat="43.83601" lon="1.80609">
        <ele>136.010379</ele>
        <time>2026-08-29T17:26:43Z</time>
      </trkpt>
      <trkpt lat="43.83601" lon="1.80603">
        <ele>136.003352</ele>
        <time>2026-08-29T17:26:44Z</time>
      </trkpt>
      <trkpt lat="43.836" lon="1.80597">
        <ele>135.995809</ele>
        <time>2026-08-29T17:26:45Z</time>
      </trkpt>
      <trkpt lat="43.836" lon="1.80591">
        <ele>135.988126</ele>
        <time>2026-08-29T17:26:46Z</time>
      </trkpt>
      <trkpt lat="43.83599" lon="1.80585">
        <ele>135.980321</ele>
        <time>2026-08-29T17:26:47Z</time>
      </trkpt>
      <trkpt lat="43.83599" lon="1.80578">
        <ele>135.972251</ele>
        <time>2026-08-29T17:26:48Z</time>
      </trkpt>
      <trkpt lat="43.83598" lon="1.80572">
        <ele>135.964462</ele>
        <time>2026-08-29T17:26:49Z</time>
      </trkpt>
      <trkpt lat="43.83598" lon="1.80566">
        <ele>135.956919</ele>
        <time>2026-08-29T17:26:50Z</time>
      </trkpt>
      <trkpt lat="43.83597" lon="1.8056">
        <ele>135.949726</ele>
        <time>2026-08-29T17:26:51Z</time>
      </trkpt>
      <trkpt lat="43.83597" lon="1.80554">
        <ele>135.942043</ele>
        <time>2026-08-29T17:26:52Z</time>
      </trkpt>
      <trkpt lat="43.83596" lon="1.80548">
        <ele>135.934339</ele>
        <time>2026-08-29T17:26:53Z</time>
      </trkpt>
      <trkpt lat="43.83596" lon="1.80542">
        <ele>135.927124</ele>
        <time>2026-08-29T17:26:54Z</time>
      </trkpt>
      <trkpt lat="43.83596" lon="1.80536">
        <ele>135.919481</ele>
        <time>2026-08-29T17:26:55Z</time>
      </trkpt>
      <trkpt lat="43.83596" lon="1.80529">
        <ele>135.91172</ele>
        <time>2026-08-29T17:26:56Z</time>
      </trkpt>
      <trkpt lat="43.83595" lon="1.80523">
        <ele>135.904068</ele>
        <time>2026-08-29T17:26:57Z</time>
      </trkpt>
      <trkpt lat="43.83595" lon="1.80516">
        <ele>135.895801</ele>
        <time>2026-08-29T17:26:58Z</time>
      </trkpt>
      <trkpt lat="43.83595" lon="1.8051">
        <ele>135.887645</ele>
        <time>2026-08-29T17:26:59Z</time>
      </trkpt>
      <trkpt lat="43.83594" lon="1.80504">
        <ele>135.879962</ele>
        <time>2026-08-29T17:27:00Z</time>
      </trkpt>
      <trkpt lat="43.83594" lon="1.80498">
        <ele>135.872419</ele>
        <time>2026-08-29T17:27:01Z</time>
      </trkpt>
      <trkpt lat="43.83593" lon="1.80492">
        <ele>135.865081</ele>
        <time>2026-08-29T17:27:02Z</time>
      </trkpt>
      <trkpt lat="43.83593" lon="1.80485">
        <ele>135.857398</ele>
        <time>2026-08-29T17:27:03Z</time>
      </trkpt>
      <trkpt lat="43.83592" lon="1.80479">
        <ele>135.849817</ele>
        <time>2026-08-29T17:27:04Z</time>
      </trkpt>
      <trkpt lat="43.83592" lon="1.80473">
        <ele>135.842274</ele>
        <time>2026-08-29T17:27:05Z</time>
      </trkpt>
      <trkpt lat="43.83591" lon="1.80468">
        <ele>135.835221</ele>
        <time>2026-08-29T17:27:06Z</time>
      </trkpt>
      <trkpt lat="43.83591" lon="1.80462">
        <ele>135.82807</ele>
        <time>2026-08-29T17:27:07Z</time>
      </trkpt>
      <trkpt lat="43.83591" lon="1.80456">
        <ele>135.820797</ele>
        <time>2026-08-29T17:27:08Z</time>
      </trkpt>
      <trkpt lat="43.83591" lon="1.8045">
        <ele>135.813031</ele>
        <time>2026-08-29T17:27:09Z</time>
      </trkpt>
      <trkpt lat="43.8359" lon="1.80443">
        <ele>135.805255</ele>
        <time>2026-08-29T17:27:10Z</time>
      </trkpt>
      <trkpt lat="43.8359" lon="1.80437">
        <ele>135.797603</ele>
        <time>2026-08-29T17:27:11Z</time>
      </trkpt>
      <trkpt lat="43.8359" lon="1.80431">
        <ele>135.789582</ele>
        <time>2026-08-29T17:27:12Z</time>
      </trkpt>
      <trkpt lat="43.83589" lon="1.80424">
        <ele>135.781192</ele>
        <time>2026-08-29T17:27:13Z</time>
      </trkpt>
      <trkpt lat="43.83589" lon="1.80417">
        <ele>135.772816</ele>
        <time>2026-08-29T17:27:14Z</time>
      </trkpt>
      <trkpt lat="43.83589" lon="1.8041">
        <ele>135.764292</ele>
        <time>2026-08-29T17:27:15Z</time>
      </trkpt>
      <trkpt lat="43.83589" lon="1.80403">
        <ele>135.756135</ele>
        <time>2026-08-29T17:27:16Z</time>
      </trkpt>
      <trkpt lat="43.83588" lon="1.80397">
        <ele>135.748114</ele>
        <time>2026-08-29T17:27:17Z</time>
      </trkpt>
      <trkpt lat="43.83588" lon="1.8039">
        <ele>135.739979</ele>
        <time>2026-08-29T17:27:18Z</time>
      </trkpt>
      <trkpt lat="43.83588" lon="1.80384">
        <ele>135.732068</ele>
        <time>2026-08-29T17:27:19Z</time>
      </trkpt>
      <trkpt lat="43.83587" lon="1.80378">
        <ele>135.724385</ele>
        <time>2026-08-29T17:27:20Z</time>
      </trkpt>
      <trkpt lat="43.83587" lon="1.80372">
        <ele>135.717069</ele>
        <time>2026-08-29T17:27:21Z</time>
      </trkpt>
      <trkpt lat="43.83586" lon="1.80366">
        <ele>135.679166</ele>
        <time>2026-08-29T17:27:22Z</time>
      </trkpt>
      <trkpt lat="43.83586" lon="1.8036">
        <ele>135.582999</ele>
        <time>2026-08-29T17:27:23Z</time>
      </trkpt>
      <trkpt lat="43.83586" lon="1.80354">
        <ele>135.486471</ele>
        <time>2026-08-29T17:27:24Z</time>
      </trkpt>
      <trkpt lat="43.83586" lon="1.80347">
        <ele>135.384035</ele>
        <time>2026-08-29T17:27:25Z</time>
      </trkpt>
      <trkpt lat="43.83585" lon="1.8034">
        <ele>135.280049</ele>
        <time>2026-08-29T17:27:26Z</time>
      </trkpt>
      <trkpt lat="43.83585" lon="1.80334">
        <ele>135.183882</ele>
        <time>2026-08-29T17:27:27Z</time>
      </trkpt>
      <trkpt lat="43.83585" lon="1.80328">
        <ele>135.087714</ele>
        <time>2026-08-29T17:27:28Z</time>
      </trkpt>
      <trkpt lat="43.83585" lon="1.80322">
        <ele>134.997543</ele>
        <time>2026-08-29T17:27:29Z</time>
      </trkpt>
      <trkpt lat="43.83585" lon="1.80317">
        <ele>134.911822</ele>
        <time>2026-08-29T17:27:30Z</time>
      </trkpt>
      <trkpt lat="43.83584" lon="1.80311">
        <ele>134.831157</ele>
        <time>2026-08-29T17:27:31Z</time>
      </trkpt>
      <trkpt lat="43.83584" lon="1.80306">
        <ele>134.747419</ele>
        <time>2026-08-29T17:27:32Z</time>
      </trkpt>
      <trkpt lat="43.83584" lon="1.80301">
        <ele>134.666326</ele>
        <time>2026-08-29T17:27:33Z</time>
      </trkpt>
      <trkpt lat="43.83583" lon="1.80296">
        <ele>134.587725</ele>
        <time>2026-08-29T17:27:34Z</time>
      </trkpt>
      <trkpt lat="43.83583" lon="1.8029">
        <ele>134.501467</ele>
        <time>2026-08-29T17:27:35Z</time>
      </trkpt>
      <trkpt lat="43.83582" lon="1.80284">
        <ele>134.409572</ele>
        <time>2026-08-29T17:27:36Z</time>
      </trkpt>
      <trkpt lat="43.83582" lon="1.80278">
        <ele>134.31564</ele>
        <time>2026-08-29T17:27:37Z</time>
      </trkpt>
      <trkpt lat="43.83582" lon="1.80272">
        <ele>134.217852</ele>
        <time>2026-08-29T17:27:38Z</time>
      </trkpt>
      <trkpt lat="43.83582" lon="1.80266">
        <ele>134.121684</ele>
        <time>2026-08-29T17:27:39Z</time>
      </trkpt>
      <trkpt lat="43.83582" lon="1.8026">
        <ele>134.025517</ele>
        <time>2026-08-29T17:27:40Z</time>
      </trkpt>
      <trkpt lat="43.83582" lon="1.80254">
        <ele>133.935474</ele>
        <time>2026-08-29T17:27:41Z</time>
      </trkpt>
      <trkpt lat="43.83582" lon="1.80247">
        <ele>133.836206</ele>
        <time>2026-08-29T17:27:42Z</time>
      </trkpt>
      <trkpt lat="43.83582" lon="1.80242">
        <ele>133.746162</ele>
        <time>2026-08-29T17:27:43Z</time>
      </trkpt>
      <trkpt lat="43.83581" lon="1.80236">
        <ele>133.657537</ele>
        <time>2026-08-29T17:27:44Z</time>
      </trkpt>
      <trkpt lat="43.83581" lon="1.8023">
        <ele>133.572222</ele>
        <time>2026-08-29T17:27:45Z</time>
      </trkpt>
      <trkpt lat="43.83581" lon="1.80225">
        <ele>133.483806</ele>
        <time>2026-08-29T17:27:46Z</time>
      </trkpt>
      <trkpt lat="43.83582" lon="1.80218">
        <ele>133.385522</ele>
        <time>2026-08-29T17:27:47Z</time>
      </trkpt>
      <trkpt lat="43.83582" lon="1.80212">
        <ele>133.282613</ele>
        <time>2026-08-29T17:27:48Z</time>
      </trkpt>
      <trkpt lat="43.83583" lon="1.80205">
        <ele>133.179977</ele>
        <time>2026-08-29T17:27:49Z</time>
      </trkpt>
      <trkpt lat="43.83585" lon="1.80199">
        <ele>133.076873</ele>
        <time>2026-08-29T17:27:50Z</time>
      </trkpt>
      <trkpt lat="43.83586" lon="1.80192">
        <ele>132.972828</ele>
        <time>2026-08-29T17:27:51Z</time>
      </trkpt>
      <trkpt lat="43.83587" lon="1.80186">
        <ele>132.86562</ele>
        <time>2026-08-29T17:27:52Z</time>
      </trkpt>
      <trkpt lat="43.83588" lon="1.80178">
        <ele>132.747916</ele>
        <time>2026-08-29T17:27:53Z</time>
      </trkpt>
      <trkpt lat="43.8359" lon="1.8017">
        <ele>132.613192</ele>
        <time>2026-08-29T17:27:54Z</time>
      </trkpt>
      <trkpt lat="43.83592" lon="1.80161">
        <ele>132.465373</ele>
        <time>2026-08-29T17:27:55Z</time>
      </trkpt>
      <trkpt lat="43.83594" lon="1.80152">
        <ele>132.321444</ele>
        <time>2026-08-29T17:27:56Z</time>
      </trkpt>
      <trkpt lat="43.83595" lon="1.80141">
        <ele>132.15624</ele>
        <time>2026-08-29T17:27:57Z</time>
      </trkpt>
      <trkpt lat="43.83595" lon="1.8013">
        <ele>131.977793</ele>
        <time>2026-08-29T17:27:58Z</time>
      </trkpt>
      <trkpt lat="43.83594" lon="1.80118">
        <ele>131.702085</ele>
        <time>2026-08-29T17:27:59Z</time>
      </trkpt>
      <trkpt lat="43.83593" lon="1.80106">
        <ele>131.213792</ele>
        <time>2026-08-29T17:28:00Z</time>
      </trkpt>
      <trkpt lat="43.83592" lon="1.80094">
        <ele>130.716647</ele>
        <time>2026-08-29T17:28:01Z</time>
      </trkpt>
      <trkpt lat="43.8359" lon="1.80081">
        <ele>130.182261</ele>
        <time>2026-08-29T17:28:02Z</time>
      </trkpt>
      <trkpt lat="43.83589" lon="1.80069">
        <ele>129.663059</ele>
        <time>2026-08-29T17:28:03Z</time>
      </trkpt>
      <trkpt lat="43.83587" lon="1.80055">
        <ele>129.097939</ele>
        <time>2026-08-29T17:28:04Z</time>
      </trkpt>
      <trkpt lat="43.83587" lon="1.80041">
        <ele>128.535327</ele>
        <time>2026-08-29T17:28:05Z</time>
      </trkpt>
      <trkpt lat="43.83585" lon="1.80027">
        <ele>127.953238</ele>
        <time>2026-08-29T17:28:06Z</time>
      </trkpt>
      <trkpt lat="43.83584" lon="1.80013">
        <ele>127.367097</ele>
        <time>2026-08-29T17:28:07Z</time>
      </trkpt>
      <trkpt lat="43.83582" lon="1.79998">
        <ele>126.765368</ele>
        <time>2026-08-29T17:28:08Z</time>
      </trkpt>
      <trkpt lat="43.8358" lon="1.79983">
        <ele>126.138201</ele>
        <time>2026-08-29T17:28:09Z</time>
      </trkpt>
      <trkpt lat="43.83577" lon="1.79968">
        <ele>125.507278</ele>
        <time>2026-08-29T17:28:10Z</time>
      </trkpt>
      <trkpt lat="43.83575" lon="1.79953">
        <ele>124.88411</ele>
        <time>2026-08-29T17:28:11Z</time>
      </trkpt>
      <trkpt lat="43.83573" lon="1.79938">
        <ele>124.238045</ele>
        <time>2026-08-29T17:28:12Z</time>
      </trkpt>
      <trkpt lat="43.83571" lon="1.79922">
        <ele>123.577964</ele>
        <time>2026-08-29T17:28:13Z</time>
      </trkpt>
      <trkpt lat="43.83569" lon="1.79907">
        <ele>122.938017</ele>
        <time>2026-08-29T17:28:14Z</time>
      </trkpt>
      <trkpt lat="43.83567" lon="1.79892">
        <ele>122.332256</ele>
        <time>2026-08-29T17:28:15Z</time>
      </trkpt>
      <trkpt lat="43.83565" lon="1.79877">
        <ele>121.725846</ele>
        <time>2026-08-29T17:28:16Z</time>
      </trkpt>
      <trkpt lat="43.83564" lon="1.79862">
        <ele>121.101227</ele>
        <time>2026-08-29T17:28:17Z</time>
      </trkpt>
      <trkpt lat="43.83562" lon="1.79847">
        <ele>120.467964</ele>
        <time>2026-08-29T17:28:18Z</time>
      </trkpt>
      <trkpt lat="43.83561" lon="1.79833">
        <ele>119.868411</ele>
        <time>2026-08-29T17:28:19Z</time>
      </trkpt>
      <trkpt lat="43.83559" lon="1.7982">
        <ele>119.33069</ele>
        <time>2026-08-29T17:28:20Z</time>
      </trkpt>
      <trkpt lat="43.83557" lon="1.7981">
        <ele>118.89302</ele>
        <time>2026-08-29T17:28:21Z</time>
      </trkpt>
      <trkpt lat="43.83554" lon="1.79803">
        <ele>118.525631</ele>
        <time>2026-08-29T17:28:22Z</time>
      </trkpt>
      <trkpt lat="43.83548" lon="1.79799">
        <ele>118.165959</ele>
        <time>2026-08-29T17:28:23Z</time>
      </trkpt>
      <trkpt lat="43.83541" lon="1.79799">
        <ele>117.784713</ele>
        <time>2026-08-29T17:28:24Z</time>
      </trkpt>
      <trkpt lat="43.83535" lon="1.79804">
        <ele>117.362474</ele>
        <time>2026-08-29T17:28:25Z</time>
      </trkpt>
      <trkpt lat="43.83529" lon="1.79811">
        <ele>116.910157</ele>
        <time>2026-08-29T17:28:26Z</time>
      </trkpt>
      <trkpt lat="43.83522" lon="1.79817">
        <ele>116.441033</ele>
        <time>2026-08-29T17:28:27Z</time>
      </trkpt>
      <trkpt lat="43.83514" lon="1.79821">
        <ele>115.955184</ele>
        <time>2026-08-29T17:28:28Z</time>
      </trkpt>
      <trkpt lat="43.83506" lon="1.79824">
        <ele>115.488965</ele>
        <time>2026-08-29T17:28:29Z</time>
      </trkpt>
      <trkpt lat="43.83498" lon="1.79825">
        <ele>115.020589</ele>
        <time>2026-08-29T17:28:30Z</time>
      </trkpt>
      <trkpt lat="43.8349" lon="1.79825">
        <ele>114.548227</ele>
        <time>2026-08-29T17:28:31Z</time>
      </trkpt>
      <trkpt lat="43.83482" lon="1.79826">
        <ele>114.079852</ele>
        <time>2026-08-29T17:28:32Z</time>
      </trkpt>
      <trkpt lat="43.83473" lon="1.79829">
        <ele>113.590317</ele>
        <time>2026-08-29T17:28:33Z</time>
      </trkpt>
      <trkpt lat="43.83465" lon="1.79833">
        <ele>113.101888</ele>
        <time>2026-08-29T17:28:34Z</time>
      </trkpt>
      <trkpt lat="43.83457" lon="1.79836">
        <ele>112.610101</ele>
        <time>2026-08-29T17:28:35Z</time>
      </trkpt>
      <trkpt lat="43.83449" lon="1.79836">
        <ele>112.160774</ele>
        <time>2026-08-29T17:28:36Z</time>
      </trkpt>
      <trkpt lat="43.83441" lon="1.79834">
        <ele>111.688442</ele>
        <time>2026-08-29T17:28:37Z</time>
      </trkpt>
      <trkpt lat="43.83434" lon="1.79829">
        <ele>111.350193</ele>
        <time>2026-08-29T17:28:38Z</time>
      </trkpt>
      <trkpt lat="43.83429" lon="1.79824">
        <ele>111.760144</ele>
        <time>2026-08-29T17:28:39Z</time>
      </trkpt>
      <trkpt lat="43.83428" lon="1.79818">
        <ele>112.075963</ele>
        <time>2026-08-29T17:28:40Z</time>
      </trkpt>
      <trkpt lat="43.83428" lon="1.79812">
        <ele>112.355203</ele>
        <time>2026-08-29T17:28:41Z</time>
      </trkpt>
      <trkpt lat="43.8343" lon="1.79807">
        <ele>112.63555</ele>
        <time>2026-08-29T17:28:42Z</time>
      </trkpt>
      <trkpt lat="43.83433" lon="1.79804">
        <ele>112.874847</ele>
        <time>2026-08-29T17:28:43Z</time>
      </trkpt>
      <trkpt lat="43.83436" lon="1.79801">
        <ele>113.099411</ele>
        <time>2026-08-29T17:28:44Z</time>
      </trkpt>
      <trkpt lat="43.83438" lon="1.79798">
        <ele>113.299362</ele>
        <time>2026-08-29T17:28:45Z</time>
      </trkpt>
      <trkpt lat="43.83439" lon="1.79796">
        <ele>113.453677</ele>
        <time>2026-08-29T17:28:46Z</time>
      </trkpt>
      <trkpt lat="43.8344" lon="1.79793">
        <ele>113.603432</ele>
        <time>2026-08-29T17:28:47Z</time>
      </trkpt>
      <trkpt lat="43.83441" lon="1.79791">
        <ele>113.709679</ele>
        <time>2026-08-29T17:28:48Z</time>
      </trkpt>
      <trkpt lat="43.83442" lon="1.7979">
        <ele>113.772497</ele>
        <time>2026-08-29T17:28:49Z</time>
      </trkpt>
      <trkpt lat="43.83443" lon="1.7979">
        <ele>113.829434</ele>
        <time>2026-08-29T17:28:50Z</time>
      </trkpt>
      <trkpt lat="43.83443" lon="1.7979">
        <ele>113.837689</ele>
        <time>2026-08-29T17:28:51Z</time>
      </trkpt>
      <trkpt lat="43.83443" lon="1.79788">
        <ele>113.903607</ele>
        <time>2026-08-29T17:28:52Z</time>
      </trkpt>
      <trkpt lat="43.83262" lon="1.79644">
        <ele>126.758429</ele>
        <time>2026-08-29T17:34:23Z</time>
      </trkpt>
      <trkpt lat="43.83261" lon="1.79642">
        <ele>126.814367</ele>
        <time>2026-08-29T17:34:24Z</time>
      </trkpt>
      <trkpt lat="43.83261" lon="1.79641">
        <ele>126.873591</ele>
        <time>2026-08-29T17:34:25Z</time>
      </trkpt>
      <trkpt lat="43.8326" lon="1.7964">
        <ele>126.920717</ele>
        <time>2026-08-29T17:34:26Z</time>
      </trkpt>
      <trkpt lat="43.83259" lon="1.79639">
        <ele>126.977333</ele>
        <time>2026-08-29T17:34:27Z</time>
      </trkpt>
      <trkpt lat="43.83259" lon="1.79638">
        <ele>127.027318</ele>
        <time>2026-08-29T17:34:28Z</time>
      </trkpt>
      <trkpt lat="43.83258" lon="1.79637">
        <ele>127.065633</ele>
        <time>2026-08-29T17:34:29Z</time>
      </trkpt>
      <trkpt lat="43.83258" lon="1.79636">
        <ele>127.099767</ele>
        <time>2026-08-29T17:34:30Z</time>
      </trkpt>
      <trkpt lat="43.83258" lon="1.79635">
        <ele>127.118573</ele>
        <time>2026-08-29T17:34:31Z</time>
      </trkpt>
      <trkpt lat="43.83258" lon="1.79636">
        <ele>127.14032</ele>
        <time>2026-08-29T17:34:32Z</time>
      </trkpt>
      <trkpt lat="43.83255" lon="1.79627">
        <ele>127.505084</ele>
        <time>2026-08-29T17:34:56Z</time>
      </trkpt>
      <trkpt lat="43.83253" lon="1.79625">
        <ele>127.608727</ele>
        <time>2026-08-29T17:34:57Z</time>
      </trkpt>
      <trkpt lat="43.83252" lon="1.79622">
        <ele>127.715524</ele>
        <time>2026-08-29T17:34:58Z</time>
      </trkpt>
      <trkpt lat="43.83251" lon="1.7962">
        <ele>127.830237</ele>
        <time>2026-08-29T17:34:59Z</time>
      </trkpt>
      <trkpt lat="43.83249" lon="1.79617">
        <ele>127.956887</ele>
        <time>2026-08-29T17:35:00Z</time>
      </trkpt>
      <trkpt lat="43.83248" lon="1.79614">
        <ele>128.084076</ele>
        <time>2026-08-29T17:35:01Z</time>
      </trkpt>
      <trkpt lat="43.83246" lon="1.79612">
        <ele>128.220016</ele>
        <time>2026-08-29T17:35:02Z</time>
      </trkpt>
      <trkpt lat="43.83244" lon="1.79608">
        <ele>128.367096</ele>
        <time>2026-08-29T17:35:03Z</time>
      </trkpt>
      <trkpt lat="43.83243" lon="1.79605">
        <ele>128.514235</ele>
        <time>2026-08-29T17:35:04Z</time>
      </trkpt>
      <trkpt lat="43.83241" lon="1.79602">
        <ele>128.656133</ele>
        <time>2026-08-29T17:35:05Z</time>
      </trkpt>
      <trkpt lat="43.8324" lon="1.79598">
        <ele>128.821913</ele>
        <time>2026-08-29T17:35:06Z</time>
      </trkpt>
      <trkpt lat="43.83237" lon="1.79594">
        <ele>129.00417</ele>
        <time>2026-08-29T17:35:07Z</time>
      </trkpt>
      <trkpt lat="43.83235" lon="1.79589">
        <ele>129.186579</ele>
        <time>2026-08-29T17:35:08Z</time>
      </trkpt>
      <trkpt lat="43.83233" lon="1.79585">
        <ele>129.365894</ele>
        <time>2026-08-29T17:35:09Z</time>
      </trkpt>
      <trkpt lat="43.83232" lon="1.79581">
        <ele>129.531055</ele>
        <time>2026-08-29T17:35:10Z</time>
      </trkpt>
      <trkpt lat="43.8323" lon="1.79577">
        <ele>129.708784</ele>
        <time>2026-08-29T17:35:11Z</time>
      </trkpt>
      <trkpt lat="43.83228" lon="1.79573">
        <ele>129.891041</ele>
        <time>2026-08-29T17:35:12Z</time>
      </trkpt>
      <trkpt lat="43.83226" lon="1.79569">
        <ele>130.088076</ele>
        <time>2026-08-29T17:35:13Z</time>
      </trkpt>
      <trkpt lat="43.83223" lon="1.79564">
        <ele>130.291152</ele>
        <time>2026-08-29T17:35:14Z</time>
      </trkpt>
      <trkpt lat="43.83221" lon="1.79559">
        <ele>130.488187</ele>
        <time>2026-08-29T17:35:15Z</time>
      </trkpt>
      <trkpt lat="43.83219" lon="1.79555">
        <ele>130.682394</ele>
        <time>2026-08-29T17:35:16Z</time>
      </trkpt>
      <trkpt lat="43.83217" lon="1.79551">
        <ele>130.86331</ele>
        <time>2026-08-29T17:35:17Z</time>
      </trkpt>
      <trkpt lat="43.83215" lon="1.79546">
        <ele>131.057127</ele>
        <time>2026-08-29T17:35:18Z</time>
      </trkpt>
      <trkpt lat="43.83213" lon="1.79542">
        <ele>131.251173</ele>
        <time>2026-08-29T17:35:19Z</time>
      </trkpt>
      <trkpt lat="43.83211" lon="1.79537">
        <ele>131.451113</ele>
        <time>2026-08-29T17:35:20Z</time>
      </trkpt>
      <trkpt lat="43.83208" lon="1.79533">
        <ele>131.653957</ele>
        <time>2026-08-29T17:35:21Z</time>
      </trkpt>
      <trkpt lat="43.83206" lon="1.79528">
        <ele>131.859827</ele>
        <time>2026-08-29T17:35:22Z</time>
      </trkpt>
      <trkpt lat="43.83203" lon="1.79524">
        <ele>132.065697</ele>
        <time>2026-08-29T17:35:23Z</time>
      </trkpt>
      <trkpt lat="43.83201" lon="1.79519">
        <ele>132.269064</ele>
        <time>2026-08-29T17:35:24Z</time>
      </trkpt>
      <trkpt lat="43.83198" lon="1.79515">
        <ele>132.349497</ele>
        <time>2026-08-29T17:35:25Z</time>
      </trkpt>
      <trkpt lat="43.83196" lon="1.79511">
        <ele>132.31793</ele>
        <time>2026-08-29T17:35:26Z</time>
      </trkpt>
      <trkpt lat="43.83193" lon="1.79507">
        <ele>132.28474</ele>
        <time>2026-08-29T17:35:27Z</time>
      </trkpt>
      <trkpt lat="43.8319" lon="1.79503">
        <ele>132.252991</ele>
        <time>2026-08-29T17:35:28Z</time>
      </trkpt>
      <trkpt lat="43.83188" lon="1.79499">
        <ele>132.2188</ele>
        <time>2026-08-29T17:35:29Z</time>
      </trkpt>
      <trkpt lat="43.83184" lon="1.79494">
        <ele>132.181446</ele>
        <time>2026-08-29T17:35:30Z</time>
      </trkpt>
      <trkpt lat="43.83181" lon="1.7949">
        <ele>132.146751</ele>
        <time>2026-08-29T17:35:31Z</time>
      </trkpt>
      <trkpt lat="43.83178" lon="1.79486">
        <ele>132.111992</ele>
        <time>2026-08-29T17:35:32Z</time>
      </trkpt>
      <trkpt lat="43.83175" lon="1.79482">
        <ele>132.077663</ele>
        <time>2026-08-29T17:35:33Z</time>
      </trkpt>
      <trkpt lat="43.83172" lon="1.79478">
        <ele>132.042326</ele>
        <time>2026-08-29T17:35:34Z</time>
      </trkpt>
      <trkpt lat="43.8317" lon="1.79474">
        <ele>132.008421</ele>
        <time>2026-08-29T17:35:35Z</time>
      </trkpt>
      <trkpt lat="43.83167" lon="1.7947">
        <ele>131.975536</ele>
        <time>2026-08-29T17:35:36Z</time>
      </trkpt>
      <trkpt lat="43.83164" lon="1.79467">
        <ele>131.944899</ele>
        <time>2026-08-29T17:35:37Z</time>
      </trkpt>
      <trkpt lat="43.83161" lon="1.79463">
        <ele>131.915024</ele>
        <time>2026-08-29T17:35:38Z</time>
      </trkpt>
      <trkpt lat="43.83159" lon="1.79459">
        <ele>131.883711</ele>
        <time>2026-08-29T17:35:39Z</time>
      </trkpt>
      <trkpt lat="43.83156" lon="1.79455">
        <ele>131.85096</ele>
        <time>2026-08-29T17:35:40Z</time>
      </trkpt>
      <trkpt lat="43.83154" lon="1.79452">
        <ele>131.821935</ele>
        <time>2026-08-29T17:35:41Z</time>
      </trkpt>
      <trkpt lat="43.83151" lon="1.79448">
        <ele>131.790469</ele>
        <time>2026-08-29T17:35:42Z</time>
      </trkpt>
      <trkpt lat="43.83148" lon="1.79444">
        <ele>131.757573</ele>
        <time>2026-08-29T17:35:43Z</time>
      </trkpt>
      <trkpt lat="43.83145" lon="1.7944">
        <ele>131.725382</ele>
        <time>2026-08-29T17:35:44Z</time>
      </trkpt>
      <trkpt lat="43.83142" lon="1.79436">
        <ele>131.687604</ele>
        <time>2026-08-29T17:35:45Z</time>
      </trkpt>
      <trkpt lat="43.83139" lon="1.79431">
        <ele>131.649086</ele>
        <time>2026-08-29T17:35:46Z</time>
      </trkpt>
      <trkpt lat="43.83136" lon="1.79426">
        <ele>131.611012</ele>
        <time>2026-08-29T17:35:47Z</time>
      </trkpt>
      <trkpt lat="43.83133" lon="1.79422">
        <ele>131.573811</ele>
        <time>2026-08-29T17:35:48Z</time>
      </trkpt>
      <trkpt lat="43.8313" lon="1.79418">
        <ele>131.53962</ele>
        <time>2026-08-29T17:35:49Z</time>
      </trkpt>
      <trkpt lat="43.83127" lon="1.79413">
        <ele>131.504091</ele>
        <time>2026-08-29T17:35:50Z</time>
      </trkpt>
      <trkpt lat="43.83125" lon="1.79409">
        <ele>131.472202</ele>
        <time>2026-08-29T17:35:51Z</time>
      </trkpt>
      <trkpt lat="43.83122" lon="1.79405">
        <ele>131.436277</ele>
        <time>2026-08-29T17:35:52Z</time>
      </trkpt>
      <trkpt lat="43.83118" lon="1.79401">
        <ele>131.398499</ele>
        <time>2026-08-29T17:35:53Z</time>
      </trkpt>
      <trkpt lat="43.83115" lon="1.79396">
        <ele>131.360355</ele>
        <time>2026-08-29T17:35:54Z</time>
      </trkpt>
      <trkpt lat="43.83111" lon="1.79392">
        <ele>131.321595</ele>
        <time>2026-08-29T17:35:55Z</time>
      </trkpt>
      <trkpt lat="43.83108" lon="1.79387">
        <ele>131.282383</ele>
        <time>2026-08-29T17:35:56Z</time>
      </trkpt>
      <trkpt lat="43.83105" lon="1.79383">
        <ele>131.241735</ele>
        <time>2026-08-29T17:35:57Z</time>
      </trkpt>
      <trkpt lat="43.83102" lon="1.79378">
        <ele>131.201773</ele>
        <time>2026-08-29T17:35:58Z</time>
      </trkpt>
      <trkpt lat="43.83099" lon="1.79372">
        <ele>131.158127</ele>
        <time>2026-08-29T17:35:59Z</time>
      </trkpt>
      <trkpt lat="43.83096" lon="1.79366">
        <ele>131.116701</ele>
        <time>2026-08-29T17:36:00Z</time>
      </trkpt>
      <trkpt lat="43.83094" lon="1.7936">
        <ele>131.07683</ele>
        <time>2026-08-29T17:36:01Z</time>
      </trkpt>
      <trkpt lat="43.83093" lon="1.79354">
        <ele>131.040518</ele>
        <time>2026-08-29T17:36:02Z</time>
      </trkpt>
      <trkpt lat="43.83092" lon="1.79348">
        <ele>131.005801</ele>
        <time>2026-08-29T17:36:03Z</time>
      </trkpt>
      <trkpt lat="43.83092" lon="1.79342">
        <ele>130.971682</ele>
        <time>2026-08-29T17:36:04Z</time>
      </trkpt>
      <trkpt lat="43.83092" lon="1.79337">
        <ele>130.938109</ele>
        <time>2026-08-29T17:36:05Z</time>
      </trkpt>
      <trkpt lat="43.83092" lon="1.79331">
        <ele>130.90402</ele>
        <time>2026-08-29T17:36:06Z</time>
      </trkpt>
      <trkpt lat="43.83093" lon="1.79326">
        <ele>130.879555</ele>
        <time>2026-08-29T17:36:07Z</time>
      </trkpt>
      <trkpt lat="43.83093" lon="1.7932">
        <ele>130.894158</ele>
        <time>2026-08-29T17:36:08Z</time>
      </trkpt>
      <trkpt lat="43.83093" lon="1.79315">
        <ele>130.907718</ele>
        <time>2026-08-29T17:36:09Z</time>
      </trkpt>
      <trkpt lat="43.83093" lon="1.79309">
        <ele>130.921521</ele>
        <time>2026-08-29T17:36:10Z</time>
      </trkpt>
      <trkpt lat="43.83093" lon="1.79304">
        <ele>130.935318</ele>
        <time>2026-08-29T17:36:11Z</time>
      </trkpt>
      <trkpt lat="43.83093" lon="1.79298">
        <ele>130.94912</ele>
        <time>2026-08-29T17:36:12Z</time>
      </trkpt>
      <trkpt lat="43.83093" lon="1.79293">
        <ele>130.963957</ele>
        <time>2026-08-29T17:36:13Z</time>
      </trkpt>
      <trkpt lat="43.83093" lon="1.79286">
        <ele>130.980116</ele>
        <time>2026-08-29T17:36:14Z</time>
      </trkpt>
      <trkpt lat="43.83094" lon="1.79281">
        <ele>130.994787</ele>
        <time>2026-08-29T17:36:15Z</time>
      </trkpt>
      <trkpt lat="43.83094" lon="1.79275">
        <ele>131.009713</ele>
        <time>2026-08-29T17:36:16Z</time>
      </trkpt>
      <trkpt lat="43.83095" lon="1.79269">
        <ele>131.023623</ele>
        <time>2026-08-29T17:36:17Z</time>
      </trkpt>
      <trkpt lat="43.83096" lon="1.79264">
        <ele>131.037374</ele>
        <time>2026-08-29T17:36:18Z</time>
      </trkpt>
      <trkpt lat="43.83096" lon="1.79259">
        <ele>131.052007</ele>
        <time>2026-08-29T17:36:19Z</time>
      </trkpt>
      <trkpt lat="43.83097" lon="1.79253">
        <ele>131.066424</ele>
        <time>2026-08-29T17:36:20Z</time>
      </trkpt>
      <trkpt lat="43.83097" lon="1.79248">
        <ele>131.079375</ele>
        <time>2026-08-29T17:36:21Z</time>
      </trkpt>
      <trkpt lat="43.83098" lon="1.79242">
        <ele>131.094213</ele>
        <time>2026-08-29T17:36:22Z</time>
      </trkpt>
      <trkpt lat="43.83099" lon="1.79236">
        <ele>131.109742</ele>
        <time>2026-08-29T17:36:23Z</time>
      </trkpt>
      <trkpt lat="43.83099" lon="1.7923">
        <ele>131.126445</ele>
        <time>2026-08-29T17:36:24Z</time>
      </trkpt>
      <trkpt lat="43.831" lon="1.79223">
        <ele>131.143323</ele>
        <time>2026-08-29T17:36:25Z</time>
      </trkpt>
      <trkpt lat="43.83099" lon="1.79217">
        <ele>131.158913</ele>
        <time>2026-08-29T17:36:26Z</time>
      </trkpt>
      <trkpt lat="43.83099" lon="1.79211">
        <ele>131.174281</ele>
        <time>2026-08-29T17:36:27Z</time>
      </trkpt>
      <trkpt lat="43.83099" lon="1.79205">
        <ele>131.189713</ele>
        <time>2026-08-29T17:36:28Z</time>
      </trkpt>
      <trkpt lat="43.83098" lon="1.792">
        <ele>131.203784</ele>
        <time>2026-08-29T17:36:29Z</time>
      </trkpt>
      <trkpt lat="43.83098" lon="1.79194">
        <ele>131.219062</ele>
        <time>2026-08-29T17:36:30Z</time>
      </trkpt>
      <trkpt lat="43.83097" lon="1.79188">
        <ele>131.234903</ele>
        <time>2026-08-29T17:36:31Z</time>
      </trkpt>
      <trkpt lat="43.83096" lon="1.79182">
        <ele>131.249425</ele>
        <time>2026-08-29T17:36:32Z</time>
      </trkpt>
      <trkpt lat="43.83095" lon="1.79176">
        <ele>131.264008</ele>
        <time>2026-08-29T17:36:33Z</time>
      </trkpt>
      <trkpt lat="43.83094" lon="1.79171">
        <ele>131.27918</ele>
        <time>2026-08-29T17:36:34Z</time>
      </trkpt>
      <trkpt lat="43.83093" lon="1.79166">
        <ele>131.292781</ele>
        <time>2026-08-29T17:36:35Z</time>
      </trkpt>
      <trkpt lat="43.83092" lon="1.7916">
        <ele>131.307939</ele>
        <time>2026-08-29T17:36:36Z</time>
      </trkpt>
      <trkpt lat="43.83091" lon="1.79154">
        <ele>131.322848</ele>
        <time>2026-08-29T17:36:37Z</time>
      </trkpt>
      <trkpt lat="43.8309" lon="1.79148">
        <ele>131.339204</ele>
        <time>2026-08-29T17:36:38Z</time>
      </trkpt>
      <trkpt lat="43.83088" lon="1.79142">
        <ele>131.355789</ele>
        <time>2026-08-29T17:36:39Z</time>
      </trkpt>
      <trkpt lat="43.83086" lon="1.79136">
        <ele>131.372373</ele>
        <time>2026-08-29T17:36:40Z</time>
      </trkpt>
      <trkpt lat="43.83085" lon="1.7913">
        <ele>131.389198</ele>
        <time>2026-08-29T17:36:41Z</time>
      </trkpt>
      <trkpt lat="43.83083" lon="1.79124">
        <ele>131.405303</ele>
        <time>2026-08-29T17:36:42Z</time>
      </trkpt>
      <trkpt lat="43.83082" lon="1.79118">
        <ele>131.421063</ele>
        <time>2026-08-29T17:36:43Z</time>
      </trkpt>
      <trkpt lat="43.8308" lon="1.79112">
        <ele>131.436727</ele>
        <time>2026-08-29T17:36:44Z</time>
      </trkpt>
      <trkpt lat="43.83078" lon="1.79107">
        <ele>131.451464</ele>
        <time>2026-08-29T17:36:45Z</time>
      </trkpt>
      <trkpt lat="43.83076" lon="1.79102">
        <ele>131.466358</ele>
        <time>2026-08-29T17:36:46Z</time>
      </trkpt>
      <trkpt lat="43.83074" lon="1.79097">
        <ele>131.481982</ele>
        <time>2026-08-29T17:36:47Z</time>
      </trkpt>
      <trkpt lat="43.83072" lon="1.79092">
        <ele>131.496569</ele>
        <time>2026-08-29T17:36:48Z</time>
      </trkpt>
      <trkpt lat="43.8307" lon="1.79086">
        <ele>131.511076</ele>
        <time>2026-08-29T17:36:49Z</time>
      </trkpt>
      <trkpt lat="43.83069" lon="1.79081">
        <ele>131.500175</ele>
        <time>2026-08-29T17:36:50Z</time>
      </trkpt>
      <trkpt lat="43.83067" lon="1.79076">
        <ele>131.482292</ele>
        <time>2026-08-29T17:36:51Z</time>
      </trkpt>
      <trkpt lat="43.83065" lon="1.79071">
        <ele>131.464495</ele>
        <time>2026-08-29T17:36:52Z</time>
      </trkpt>
      <trkpt lat="43.83063" lon="1.79066">
        <ele>131.446018</ele>
        <time>2026-08-29T17:36:53Z</time>
      </trkpt>
      <trkpt lat="43.83061" lon="1.79061">
        <ele>131.427811</ele>
        <time>2026-08-29T17:36:54Z</time>
      </trkpt>
      <trkpt lat="43.83059" lon="1.79056">
        <ele>131.409604</ele>
        <time>2026-08-29T17:36:55Z</time>
      </trkpt>
      <trkpt lat="43.83056" lon="1.7905">
        <ele>131.390956</ele>
        <time>2026-08-29T17:36:56Z</time>
      </trkpt>
      <trkpt lat="43.83054" lon="1.79045">
        <ele>131.371859</ele>
        <time>2026-08-29T17:36:57Z</time>
      </trkpt>
      <trkpt lat="43.83052" lon="1.79039">
        <ele>131.352089</ele>
        <time>2026-08-29T17:36:58Z</time>
      </trkpt>
      <trkpt lat="43.8305" lon="1.79034">
        <ele>131.332244</ele>
        <time>2026-08-29T17:36:59Z</time>
      </trkpt>
      <trkpt lat="43.83048" lon="1.79028">
        <ele>131.31287</ele>
        <time>2026-08-29T17:37:00Z</time>
      </trkpt>
      <trkpt lat="43.83046" lon="1.79023">
        <ele>131.293371</ele>
        <time>2026-08-29T17:37:01Z</time>
      </trkpt>
      <trkpt lat="43.83044" lon="1.79017">
        <ele>131.273601</ele>
        <time>2026-08-29T17:37:02Z</time>
      </trkpt>
      <trkpt lat="43.83041" lon="1.79012">
        <ele>131.254373</ele>
        <time>2026-08-29T17:37:03Z</time>
      </trkpt>
      <trkpt lat="43.83039" lon="1.79006">
        <ele>131.235352</ele>
        <time>2026-08-29T17:37:04Z</time>
      </trkpt>
      <trkpt lat="43.83037" lon="1.79001">
        <ele>131.215978</ele>
        <time>2026-08-29T17:37:05Z</time>
      </trkpt>
      <trkpt lat="43.83035" lon="1.78995">
        <ele>131.195728</ele>
        <time>2026-08-29T17:37:06Z</time>
      </trkpt>
      <trkpt lat="43.83033" lon="1.78989">
        <ele>131.175685</ele>
        <time>2026-08-29T17:37:07Z</time>
      </trkpt>
      <trkpt lat="43.8303" lon="1.78983">
        <ele>131.155164</ele>
        <time>2026-08-29T17:37:08Z</time>
      </trkpt>
      <trkpt lat="43.83028" lon="1.78978">
        <ele>131.135184</ele>
        <time>2026-08-29T17:37:09Z</time>
      </trkpt>
      <trkpt lat="43.83026" lon="1.78972">
        <ele>131.115141</ele>
        <time>2026-08-29T17:37:10Z</time>
      </trkpt>
      <trkpt lat="43.83024" lon="1.78966">
        <ele>131.094678</ele>
        <time>2026-08-29T17:37:11Z</time>
      </trkpt>
      <trkpt lat="43.83021" lon="1.78961">
        <ele>131.074698</ele>
        <time>2026-08-29T17:37:12Z</time>
      </trkpt>
      <trkpt lat="43.83019" lon="1.78955">
        <ele>131.053357</ele>
        <time>2026-08-29T17:37:13Z</time>
      </trkpt>
      <trkpt lat="43.83017" lon="1.78949">
        <ele>131.032894</ele>
        <time>2026-08-29T17:37:14Z</time>
      </trkpt>
      <trkpt lat="43.83014" lon="1.78944">
        <ele>131.013784</ele>
        <time>2026-08-29T17:37:15Z</time>
      </trkpt>
      <trkpt lat="43.83011" lon="1.78939">
        <ele>130.993919</ele>
        <time>2026-08-29T17:37:16Z</time>
      </trkpt>
      <trkpt lat="43.83008" lon="1.78934">
        <ele>130.974294</ele>
        <time>2026-08-29T17:37:17Z</time>
      </trkpt>
      <trkpt lat="43.83006" lon="1.78929">
        <ele>130.955394</ele>
        <time>2026-08-29T17:37:18Z</time>
      </trkpt>
      <trkpt lat="43.83003" lon="1.78924">
        <ele>130.937007</ele>
        <time>2026-08-29T17:37:19Z</time>
      </trkpt>
      <trkpt lat="43.83" lon="1.7892">
        <ele>130.918529</ele>
        <time>2026-08-29T17:37:20Z</time>
      </trkpt>
      <trkpt lat="43.82997" lon="1.78916">
        <ele>130.900797</ele>
        <time>2026-08-29T17:37:21Z</time>
      </trkpt>
      <trkpt lat="43.82994" lon="1.78912">
        <ele>130.883214</ele>
        <time>2026-08-29T17:37:22Z</time>
      </trkpt>
      <trkpt lat="43.82992" lon="1.78908">
        <ele>130.86623</ele>
        <time>2026-08-29T17:37:23Z</time>
      </trkpt>
      <trkpt lat="43.82989" lon="1.78904">
        <ele>130.849603</ele>
        <time>2026-08-29T17:37:24Z</time>
      </trkpt>
      <trkpt lat="43.82986" lon="1.78901">
        <ele>130.833715</ele>
        <time>2026-08-29T17:37:25Z</time>
      </trkpt>
      <trkpt lat="43.82983" lon="1.78897">
        <ele>130.818038</ele>
        <time>2026-08-29T17:37:26Z</time>
      </trkpt>
      <trkpt lat="43.82981" lon="1.78894">
        <ele>130.802544</ele>
        <time>2026-08-29T17:37:27Z</time>
      </trkpt>
      <trkpt lat="43.82978" lon="1.7889">
        <ele>130.786656</ele>
        <time>2026-08-29T17:37:28Z</time>
      </trkpt>
      <trkpt lat="43.82976" lon="1.78886">
        <ele>130.770338</ele>
        <time>2026-08-29T17:37:29Z</time>
      </trkpt>
      <trkpt lat="43.82973" lon="1.78882">
        <ele>130.753354</ele>
        <time>2026-08-29T17:37:30Z</time>
      </trkpt>
      <trkpt lat="43.8297" lon="1.78879">
        <ele>130.742491</ele>
        <time>2026-08-29T17:37:31Z</time>
      </trkpt>
      <trkpt lat="43.82967" lon="1.78874">
        <ele>130.747016</ele>
        <time>2026-08-29T17:37:32Z</time>
      </trkpt>
      <trkpt lat="43.82965" lon="1.7887">
        <ele>130.751519</ele>
        <time>2026-08-29T17:37:33Z</time>
      </trkpt>
      <trkpt lat="43.82962" lon="1.78865">
        <ele>130.756401</ele>
        <time>2026-08-29T17:37:34Z</time>
      </trkpt>
      <trkpt lat="43.82959" lon="1.78859">
        <ele>130.761408</ele>
        <time>2026-08-29T17:37:35Z</time>
      </trkpt>
      <trkpt lat="43.82957" lon="1.78854">
        <ele>130.766362</ele>
        <time>2026-08-29T17:37:36Z</time>
      </trkpt>
      <trkpt lat="43.82955" lon="1.78848">
        <ele>130.771275</ele>
        <time>2026-08-29T17:37:37Z</time>
      </trkpt>
      <trkpt lat="43.82953" lon="1.78842">
        <ele>130.776438</ele>
        <time>2026-08-29T17:37:38Z</time>
      </trkpt>
      <trkpt lat="43.82951" lon="1.78837">
        <ele>130.781184</ele>
        <time>2026-08-29T17:37:39Z</time>
      </trkpt>
      <trkpt lat="43.8295" lon="1.78831">
        <ele>130.785887</ele>
        <time>2026-08-29T17:37:40Z</time>
      </trkpt>
      <trkpt lat="43.82948" lon="1.78826">
        <ele>130.790443</ele>
        <time>2026-08-29T17:37:41Z</time>
      </trkpt>
      <trkpt lat="43.82947" lon="1.7882">
        <ele>130.795304</ele>
        <time>2026-08-29T17:37:42Z</time>
      </trkpt>
      <trkpt lat="43.82945" lon="1.78814">
        <ele>130.800412</ele>
        <time>2026-08-29T17:37:43Z</time>
      </trkpt>
      <trkpt lat="43.82943" lon="1.78807">
        <ele>130.806034</ele>
        <time>2026-08-29T17:37:44Z</time>
      </trkpt>
      <trkpt lat="43.82942" lon="1.78801">
        <ele>130.811142</ele>
        <time>2026-08-29T17:37:45Z</time>
      </trkpt>
      <trkpt lat="43.8294" lon="1.78795">
        <ele>130.816218</ele>
        <time>2026-08-29T17:37:46Z</time>
      </trkpt>
      <trkpt lat="43.82938" lon="1.78789">
        <ele>130.821367</ele>
        <time>2026-08-29T17:37:47Z</time>
      </trkpt>
      <trkpt lat="43.82936" lon="1.78783">
        <ele>130.826694</ele>
        <time>2026-08-29T17:37:48Z</time>
      </trkpt>
      <trkpt lat="43.82934" lon="1.78777">
        <ele>130.831528</ele>
        <time>2026-08-29T17:37:49Z</time>
      </trkpt>
      <trkpt lat="43.82932" lon="1.78772">
        <ele>130.836201</ele>
        <time>2026-08-29T17:37:50Z</time>
      </trkpt>
      <trkpt lat="43.8293" lon="1.78767">
        <ele>130.840788</ele>
        <time>2026-08-29T17:37:51Z</time>
      </trkpt>
      <trkpt lat="43.82928" lon="1.78762">
        <ele>130.84542</ele>
        <time>2026-08-29T17:37:52Z</time>
      </trkpt>
      <trkpt lat="43.82925" lon="1.78757">
        <ele>130.850108</ele>
        <time>2026-08-29T17:37:53Z</time>
      </trkpt>
      <trkpt lat="43.82923" lon="1.78752">
        <ele>130.854865</ele>
        <time>2026-08-29T17:37:54Z</time>
      </trkpt>
      <trkpt lat="43.82921" lon="1.78747">
        <ele>130.859127</ele>
        <time>2026-08-29T17:37:55Z</time>
      </trkpt>
      <trkpt lat="43.82918" lon="1.78742">
        <ele>130.863702</ele>
        <time>2026-08-29T17:37:56Z</time>
      </trkpt>
      <trkpt lat="43.82916" lon="1.78737">
        <ele>130.868011</ele>
        <time>2026-08-29T17:37:57Z</time>
      </trkpt>
      <trkpt lat="43.82914" lon="1.78733">
        <ele>130.872383</ele>
        <time>2026-08-29T17:37:58Z</time>
      </trkpt>
      <trkpt lat="43.82912" lon="1.78728">
        <ele>130.876891</ele>
        <time>2026-08-29T17:37:59Z</time>
      </trkpt>
      <trkpt lat="43.82909" lon="1.78723">
        <ele>130.881648</ele>
        <time>2026-08-29T17:38:00Z</time>
      </trkpt>
      <trkpt lat="43.82907" lon="1.78717">
        <ele>130.886614</ele>
        <time>2026-08-29T17:38:01Z</time>
      </trkpt>
      <trkpt lat="43.82905" lon="1.78711">
        <ele>130.891837</ele>
        <time>2026-08-29T17:38:02Z</time>
      </trkpt>
      <trkpt lat="43.82902" lon="1.78706">
        <ele>130.897128</ele>
        <time>2026-08-29T17:38:03Z</time>
      </trkpt>
      <trkpt lat="43.829" lon="1.787">
        <ele>130.902272</ele>
        <time>2026-08-29T17:38:04Z</time>
      </trkpt>
      <trkpt lat="43.82898" lon="1.78695">
        <ele>130.906896</ele>
        <time>2026-08-29T17:38:05Z</time>
      </trkpt>
      <trkpt lat="43.82896" lon="1.78689">
        <ele>130.911601</ele>
        <time>2026-08-29T17:38:06Z</time>
      </trkpt>
      <trkpt lat="43.82894" lon="1.78684">
        <ele>130.916319</ele>
        <time>2026-08-29T17:38:07Z</time>
      </trkpt>
      <trkpt lat="43.82892" lon="1.78678">
        <ele>130.921111</ele>
        <time>2026-08-29T17:38:08Z</time>
      </trkpt>
      <trkpt lat="43.8289" lon="1.78673">
        <ele>130.926023</ele>
        <time>2026-08-29T17:38:09Z</time>
      </trkpt>
      <trkpt lat="43.82888" lon="1.78667">
        <ele>130.930905</ele>
        <time>2026-08-29T17:38:10Z</time>
      </trkpt>
      <trkpt lat="43.82886" lon="1.78661">
        <ele>130.935364</ele>
        <time>2026-08-29T17:38:11Z</time>
      </trkpt>
      <trkpt lat="43.82884" lon="1.78656">
        <ele>130.916455</ele>
        <time>2026-08-29T17:38:12Z</time>
      </trkpt>
      <trkpt lat="43.82882" lon="1.7865">
        <ele>130.898817</ele>
        <time>2026-08-29T17:38:13Z</time>
      </trkpt>
      <trkpt lat="43.82881" lon="1.78645">
        <ele>130.880478</ele>
        <time>2026-08-29T17:38:14Z</time>
      </trkpt>
      <trkpt lat="43.82879" lon="1.78639">
        <ele>130.862426</ele>
        <time>2026-08-29T17:38:15Z</time>
      </trkpt>
      <trkpt lat="43.82878" lon="1.78634">
        <ele>130.845071</ele>
        <time>2026-08-29T17:38:16Z</time>
      </trkpt>
      <trkpt lat="43.82876" lon="1.78629">
        <ele>130.828558</ele>
        <time>2026-08-29T17:38:17Z</time>
      </trkpt>
      <trkpt lat="43.82875" lon="1.78624">
        <ele>130.811806</ele>
        <time>2026-08-29T17:38:18Z</time>
      </trkpt>
      <trkpt lat="43.82873" lon="1.78619">
        <ele>130.793755</ele>
        <time>2026-08-29T17:38:19Z</time>
      </trkpt>
      <trkpt lat="43.82872" lon="1.78613">
        <ele>130.775833</ele>
        <time>2026-08-29T17:38:20Z</time>
      </trkpt>
      <trkpt lat="43.8287" lon="1.78608">
        <ele>130.758126</ele>
        <time>2026-08-29T17:38:21Z</time>
      </trkpt>
      <trkpt lat="43.82868" lon="1.78603">
        <ele>130.741156</ele>
        <time>2026-08-29T17:38:22Z</time>
      </trkpt>
      <trkpt lat="43.82867" lon="1.78598">
        <ele>130.724117</ele>
        <time>2026-08-29T17:38:23Z</time>
      </trkpt>
      <trkpt lat="43.82865" lon="1.78593">
        <ele>130.707355</ele>
        <time>2026-08-29T17:38:24Z</time>
      </trkpt>
      <trkpt lat="43.82864" lon="1.78587">
        <ele>130.690302</ele>
        <time>2026-08-29T17:38:25Z</time>
      </trkpt>
      <trkpt lat="43.82863" lon="1.78582">
        <ele>130.672661</ele>
        <time>2026-08-29T17:38:26Z</time>
      </trkpt>
      <trkpt lat="43.82862" lon="1.78576">
        <ele>130.65491</ele>
        <time>2026-08-29T17:38:27Z</time>
      </trkpt>
      <trkpt lat="43.82861" lon="1.7857">
        <ele>130.635795</ele>
        <time>2026-08-29T17:38:28Z</time>
      </trkpt>
      <trkpt lat="43.82861" lon="1.78564">
        <ele>130.616991</ele>
        <time>2026-08-29T17:38:29Z</time>
      </trkpt>
      <trkpt lat="43.82861" lon="1.78558">
        <ele>130.598143</ele>
        <time>2026-08-29T17:38:30Z</time>
      </trkpt>
      <trkpt lat="43.8286" lon="1.78552">
        <ele>130.579905</ele>
        <time>2026-08-29T17:38:31Z</time>
      </trkpt>
      <trkpt lat="43.82859" lon="1.78546">
        <ele>130.561091</ele>
        <time>2026-08-29T17:38:32Z</time>
      </trkpt>
      <trkpt lat="43.82858" lon="1.78539">
        <ele>130.540915</ele>
        <time>2026-08-29T17:38:33Z</time>
      </trkpt>
      <trkpt lat="43.82858" lon="1.78533">
        <ele>130.520974</ele>
        <time>2026-08-29T17:38:34Z</time>
      </trkpt>
      <trkpt lat="43.82857" lon="1.78526">
        <ele>130.50073</ele>
        <time>2026-08-29T17:38:35Z</time>
      </trkpt>
      <trkpt lat="43.82856" lon="1.7852">
        <ele>130.481014</ele>
        <time>2026-08-29T17:38:36Z</time>
      </trkpt>
      <trkpt lat="43.82855" lon="1.78514">
        <ele>130.461598</ele>
        <time>2026-08-29T17:38:37Z</time>
      </trkpt>
      <trkpt lat="43.82854" lon="1.78508">
        <ele>130.442592</ele>
        <time>2026-08-29T17:38:38Z</time>
      </trkpt>
      <trkpt lat="43.82853" lon="1.78502">
        <ele>130.423778</ele>
        <time>2026-08-29T17:38:39Z</time>
      </trkpt>
      <trkpt lat="43.82852" lon="1.78496">
        <ele>130.403674</ele>
        <time>2026-08-29T17:38:40Z</time>
      </trkpt>
      <trkpt lat="43.82851" lon="1.78489">
        <ele>130.38387</ele>
        <time>2026-08-29T17:38:41Z</time>
      </trkpt>
      <trkpt lat="43.8285" lon="1.78483">
        <ele>130.364366</ele>
        <time>2026-08-29T17:38:42Z</time>
      </trkpt>
      <trkpt lat="43.82849" lon="1.78477">
        <ele>130.344466</ele>
        <time>2026-08-29T17:38:43Z</time>
      </trkpt>
      <trkpt lat="43.82848" lon="1.7847">
        <ele>130.324362</ele>
        <time>2026-08-29T17:38:44Z</time>
      </trkpt>
      <trkpt lat="43.82847" lon="1.78464">
        <ele>130.304761</ele>
        <time>2026-08-29T17:38:45Z</time>
      </trkpt>
      <trkpt lat="43.82846" lon="1.78458">
        <ele>130.284657</ele>
        <time>2026-08-29T17:38:46Z</time>
      </trkpt>
      <trkpt lat="43.82845" lon="1.78452">
        <ele>130.265321</ele>
        <time>2026-08-29T17:38:47Z</time>
      </trkpt>
      <trkpt lat="43.82844" lon="1.78445">
        <ele>130.246116</ele>
        <time>2026-08-29T17:38:48Z</time>
      </trkpt>
      <trkpt lat="43.82844" lon="1.78439">
        <ele>130.226658</ele>
        <time>2026-08-29T17:38:49Z</time>
      </trkpt>
      <trkpt lat="43.82844" lon="1.78432">
        <ele>130.206324</ele>
        <time>2026-08-29T17:38:50Z</time>
      </trkpt>
      <trkpt lat="43.82843" lon="1.78426">
        <ele>130.185991</ele>
        <time>2026-08-29T17:38:51Z</time>
      </trkpt>
      <trkpt lat="43.82843" lon="1.78419">
        <ele>130.164657</ele>
        <time>2026-08-29T17:38:52Z</time>
      </trkpt>
      <trkpt lat="43.82842" lon="1.78412">
        <ele>130.145064</ele>
        <time>2026-08-29T17:38:53Z</time>
      </trkpt>
      <trkpt lat="43.82842" lon="1.78405">
        <ele>130.125871</ele>
        <time>2026-08-29T17:38:54Z</time>
      </trkpt>
      <trkpt lat="43.82841" lon="1.78398">
        <ele>130.106414</ele>
        <time>2026-08-29T17:38:55Z</time>
      </trkpt>
      <trkpt lat="43.8284" lon="1.78392">
        <ele>130.088865</ele>
        <time>2026-08-29T17:38:56Z</time>
      </trkpt>
      <trkpt lat="43.8284" lon="1.78385">
        <ele>130.070973</ele>
        <time>2026-08-29T17:38:57Z</time>
      </trkpt>
      <trkpt lat="43.82839" lon="1.78378">
        <ele>130.05176</ele>
        <time>2026-08-29T17:38:58Z</time>
      </trkpt>
      <trkpt lat="43.82839" lon="1.78371">
        <ele>130.031616</ele>
        <time>2026-08-29T17:38:59Z</time>
      </trkpt>
      <trkpt lat="43.82838" lon="1.78365">
        <ele>130.013207</ele>
        <time>2026-08-29T17:39:00Z</time>
      </trkpt>
      <trkpt lat="43.82838" lon="1.78358">
        <ele>129.994166</ele>
        <time>2026-08-29T17:39:01Z</time>
      </trkpt>
      <trkpt lat="43.82837" lon="1.78351">
        <ele>129.974892</ele>
        <time>2026-08-29T17:39:02Z</time>
      </trkpt>
      <trkpt lat="43.82837" lon="1.78345">
        <ele>129.957087</ele>
        <time>2026-08-29T17:39:03Z</time>
      </trkpt>
      <trkpt lat="43.82837" lon="1.78338">
        <ele>129.93985</ele>
        <time>2026-08-29T17:39:04Z</time>
      </trkpt>
      <trkpt lat="43.82837" lon="1.78332">
        <ele>129.923447</ele>
        <time>2026-08-29T17:39:05Z</time>
      </trkpt>
      <trkpt lat="43.82837" lon="1.78326">
        <ele>129.906488</ele>
        <time>2026-08-29T17:39:06Z</time>
      </trkpt>
      <trkpt lat="43.82837" lon="1.7832">
        <ele>129.888696</ele>
        <time>2026-08-29T17:39:07Z</time>
      </trkpt>
      <trkpt lat="43.82837" lon="1.78314">
        <ele>129.870891</ele>
        <time>2026-08-29T17:39:08Z</time>
      </trkpt>
      <trkpt lat="43.82836" lon="1.78307">
        <ele>129.853086</ele>
        <time>2026-08-29T17:39:09Z</time>
      </trkpt>
      <trkpt lat="43.82836" lon="1.78301">
        <ele>129.834738</ele>
        <time>2026-08-29T17:39:10Z</time>
      </trkpt>
      <trkpt lat="43.82836" lon="1.78294">
        <ele>129.815545</ele>
        <time>2026-08-29T17:39:11Z</time>
      </trkpt>
      <trkpt lat="43.82836" lon="1.78287">
        <ele>129.796085</ele>
        <time>2026-08-29T17:39:12Z</time>
      </trkpt>
      <trkpt lat="43.82836" lon="1.7828">
        <ele>129.77715</ele>
        <time>2026-08-29T17:39:13Z</time>
      </trkpt>
      <trkpt lat="43.82835" lon="1.78273">
        <ele>129.758234</ele>
        <time>2026-08-29T17:39:14Z</time>
      </trkpt>
      <trkpt lat="43.82835" lon="1.78266">
        <ele>129.739886</ele>
        <time>2026-08-29T17:39:15Z</time>
      </trkpt>
      <trkpt lat="43.82835" lon="1.7826">
        <ele>129.722649</ele>
        <time>2026-08-29T17:39:16Z</time>
      </trkpt>
      <trkpt lat="43.82835" lon="1.78254">
        <ele>129.706251</ele>
        <time>2026-08-29T17:39:17Z</time>
      </trkpt>
      <trkpt lat="43.82835" lon="1.78249">
        <ele>129.690366</ele>
        <time>2026-08-29T17:39:18Z</time>
      </trkpt>
      <trkpt lat="43.82835" lon="1.78243">
        <ele>129.674245</ele>
        <time>2026-08-29T17:39:19Z</time>
      </trkpt>
      <trkpt lat="43.82835" lon="1.78237">
        <ele>129.657252</ele>
        <time>2026-08-29T17:39:20Z</time>
      </trkpt>
      <trkpt lat="43.82834" lon="1.78231">
        <ele>129.640557</ele>
        <time>2026-08-29T17:39:21Z</time>
      </trkpt>
      <trkpt lat="43.82834" lon="1.78224">
        <ele>129.622213</ele>
        <time>2026-08-29T17:39:22Z</time>
      </trkpt>
      <trkpt lat="43.82834" lon="1.78218">
        <ele>129.604147</ele>
        <time>2026-08-29T17:39:23Z</time>
      </trkpt>
      <trkpt lat="43.82835" lon="1.78211">
        <ele>129.58691</ele>
        <time>2026-08-29T17:39:24Z</time>
      </trkpt>
      <trkpt lat="43.82835" lon="1.78205">
        <ele>129.57023</ele>
        <time>2026-08-29T17:39:25Z</time>
      </trkpt>
      <trkpt lat="43.82835" lon="1.782">
        <ele>129.554382</ele>
        <time>2026-08-29T17:39:26Z</time>
      </trkpt>
      <trkpt lat="43.82835" lon="1.78194">
        <ele>129.539651</ele>
        <time>2026-08-29T17:39:27Z</time>
      </trkpt>
      <trkpt lat="43.82834" lon="1.78189">
        <ele>129.525749</ele>
        <time>2026-08-29T17:39:28Z</time>
      </trkpt>
      <trkpt lat="43.82835" lon="1.78185">
        <ele>129.512386</ele>
        <time>2026-08-29T17:39:29Z</time>
      </trkpt>
      <trkpt lat="43.82835" lon="1.7818">
        <ele>129.498205</ele>
        <time>2026-08-29T17:39:30Z</time>
      </trkpt>
      <trkpt lat="43.82835" lon="1.78174">
        <ele>129.482899</ele>
        <time>2026-08-29T17:39:31Z</time>
      </trkpt>
      <trkpt lat="43.82835" lon="1.78169">
        <ele>129.37248</ele>
        <time>2026-08-29T17:39:32Z</time>
      </trkpt>
      <trkpt lat="43.82835" lon="1.78163">
        <ele>129.197503</ele>
        <time>2026-08-29T17:39:33Z</time>
      </trkpt>
      <trkpt lat="43.82834" lon="1.78156">
        <ele>129.004298</ele>
        <time>2026-08-29T17:39:34Z</time>
      </trkpt>
      <trkpt lat="43.82834" lon="1.7815">
        <ele>128.799211</ele>
        <time>2026-08-29T17:39:35Z</time>
      </trkpt>
      <trkpt lat="43.82834" lon="1.78142">
        <ele>128.566942</ele>
        <time>2026-08-29T17:39:36Z</time>
      </trkpt>
      <trkpt lat="43.82834" lon="1.78134">
        <ele>128.331361</ele>
        <time>2026-08-29T17:39:37Z</time>
      </trkpt>
      <trkpt lat="43.82834" lon="1.78126">
        <ele>128.071145</ele>
        <time>2026-08-29T17:39:38Z</time>
      </trkpt>
      <trkpt lat="43.82834" lon="1.78117">
        <ele>127.805212</ele>
        <time>2026-08-29T17:39:39Z</time>
      </trkpt>
      <trkpt lat="43.82834" lon="1.78107">
        <ele>127.518662</ele>
        <time>2026-08-29T17:39:40Z</time>
      </trkpt>
      <trkpt lat="43.82834" lon="1.78098">
        <ele>127.228645</ele>
        <time>2026-08-29T17:39:41Z</time>
      </trkpt>
      <trkpt lat="43.82834" lon="1.78087">
        <ele>126.920985</ele>
        <time>2026-08-29T17:39:42Z</time>
      </trkpt>
      <trkpt lat="43.82834" lon="1.78076">
        <ele>126.574046</ele>
        <time>2026-08-29T17:39:43Z</time>
      </trkpt>
      <trkpt lat="43.82834" lon="1.78064">
        <ele>126.202985</ele>
        <time>2026-08-29T17:39:44Z</time>
      </trkpt>
      <trkpt lat="43.82833" lon="1.78051">
        <ele>125.810706</ele>
        <time>2026-08-29T17:39:45Z</time>
      </trkpt>
      <trkpt lat="43.82833" lon="1.78037">
        <ele>125.408513</ele>
        <time>2026-08-29T17:39:46Z</time>
      </trkpt>
      <trkpt lat="43.82832" lon="1.78023">
        <ele>124.97778</ele>
        <time>2026-08-29T17:39:47Z</time>
      </trkpt>
      <trkpt lat="43.8283" lon="1.78009">
        <ele>124.533003</ele>
        <time>2026-08-29T17:39:48Z</time>
      </trkpt>
      <trkpt lat="43.82829" lon="1.77993">
        <ele>124.072702</ele>
        <time>2026-08-29T17:39:49Z</time>
      </trkpt>
      <trkpt lat="43.82827" lon="1.77978">
        <ele>123.598581</ele>
        <time>2026-08-29T17:39:50Z</time>
      </trkpt>
      <trkpt lat="43.82826" lon="1.77963">
        <ele>123.151911</ele>
        <time>2026-08-29T17:39:51Z</time>
      </trkpt>
      <trkpt lat="43.82825" lon="1.77949">
        <ele>122.711228</ele>
        <time>2026-08-29T17:39:52Z</time>
      </trkpt>
      <trkpt lat="43.82823" lon="1.77934">
        <ele>122.270009</ele>
        <time>2026-08-29T17:39:53Z</time>
      </trkpt>
      <trkpt lat="43.82822" lon="1.7792">
        <ele>121.876919</ele>
        <time>2026-08-29T17:39:54Z</time>
      </trkpt>
      <trkpt lat="43.82821" lon="1.77907">
        <ele>121.564336</ele>
        <time>2026-08-29T17:39:55Z</time>
      </trkpt>
      <trkpt lat="43.8282" lon="1.77893">
        <ele>121.256654</ele>
        <time>2026-08-29T17:39:56Z</time>
      </trkpt>
      <trkpt lat="43.82819" lon="1.7788">
        <ele>120.948404</ele>
        <time>2026-08-29T17:39:57Z</time>
      </trkpt>
      <trkpt lat="43.82819" lon="1.77867">
        <ele>120.649523</ele>
        <time>2026-08-29T17:39:58Z</time>
      </trkpt>
      <trkpt lat="43.8282" lon="1.77854">
        <ele>120.352334</ele>
        <time>2026-08-29T17:39:59Z</time>
      </trkpt>
      <trkpt lat="43.82821" lon="1.77842">
        <ele>120.069989</ele>
        <time>2026-08-29T17:40:00Z</time>
      </trkpt>
      <trkpt lat="43.82823" lon="1.77829">
        <ele>119.788158</ele>
        <time>2026-08-29T17:40:01Z</time>
      </trkpt>
      <trkpt lat="43.82824" lon="1.77817">
        <ele>119.50858</ele>
        <time>2026-08-29T17:40:02Z</time>
      </trkpt>
      <trkpt lat="43.82826" lon="1.77805">
        <ele>119.229002</ele>
        <time>2026-08-29T17:40:03Z</time>
      </trkpt>
      <trkpt lat="43.82827" lon="1.77794">
        <ele>118.963439</ele>
        <time>2026-08-29T17:40:04Z</time>
      </trkpt>
      <trkpt lat="43.82828" lon="1.77783">
        <ele>118.710085</ele>
        <time>2026-08-29T17:40:05Z</time>
      </trkpt>
      <trkpt lat="43.82829" lon="1.77772">
        <ele>118.464787</ele>
        <time>2026-08-29T17:40:06Z</time>
      </trkpt>
      <trkpt lat="43.82831" lon="1.77762">
        <ele>118.224505</ele>
        <time>2026-08-29T17:40:07Z</time>
      </trkpt>
      <trkpt lat="43.82832" lon="1.77752">
        <ele>117.994935</ele>
        <time>2026-08-29T17:40:08Z</time>
      </trkpt>
      <trkpt lat="43.82833" lon="1.77742">
        <ele>117.775428</ele>
        <time>2026-08-29T17:40:09Z</time>
      </trkpt>
      <trkpt lat="43.82834" lon="1.77733">
        <ele>117.56317</ele>
        <time>2026-08-29T17:40:10Z</time>
      </trkpt>
      <trkpt lat="43.82835" lon="1.77724">
        <ele>117.353125</ele>
        <time>2026-08-29T17:40:11Z</time>
      </trkpt>
      <trkpt lat="43.82836" lon="1.77715">
        <ele>117.154392</ele>
        <time>2026-08-29T17:40:12Z</time>
      </trkpt>
      <trkpt lat="43.82837" lon="1.77707">
        <ele>116.962337</ele>
        <time>2026-08-29T17:40:13Z</time>
      </trkpt>
      <trkpt lat="43.82837" lon="1.77699">
        <ele>116.775022</ele>
        <time>2026-08-29T17:40:14Z</time>
      </trkpt>
      <trkpt lat="43.82837" lon="1.77691">
        <ele>116.59251</ele>
        <time>2026-08-29T17:40:15Z</time>
      </trkpt>
      <trkpt lat="43.82836" lon="1.77683">
        <ele>116.411772</ele>
        <time>2026-08-29T17:40:16Z</time>
      </trkpt>
      <trkpt lat="43.82835" lon="1.77676">
        <ele>116.26052</ele>
        <time>2026-08-29T17:40:17Z</time>
      </trkpt>
      <trkpt lat="43.82833" lon="1.77668">
        <ele>116.213662</ele>
        <time>2026-08-29T17:40:18Z</time>
      </trkpt>
      <trkpt lat="43.82831" lon="1.77661">
        <ele>116.1645</ele>
        <time>2026-08-29T17:40:19Z</time>
      </trkpt>
      <trkpt lat="43.82829" lon="1.77653">
        <ele>116.113075</ele>
        <time>2026-08-29T17:40:20Z</time>
      </trkpt>
      <trkpt lat="43.82827" lon="1.77645">
        <ele>116.062207</ele>
        <time>2026-08-29T17:40:21Z</time>
      </trkpt>
      <trkpt lat="43.82825" lon="1.77637">
        <ele>116.012779</ele>
        <time>2026-08-29T17:40:22Z</time>
      </trkpt>
      <trkpt lat="43.82823" lon="1.7763">
        <ele>115.96535</ele>
        <time>2026-08-29T17:40:23Z</time>
      </trkpt>
      <trkpt lat="43.82821" lon="1.77623">
        <ele>115.918489</ele>
        <time>2026-08-29T17:40:24Z</time>
      </trkpt>
      <trkpt lat="43.82819" lon="1.77615">
        <ele>115.870755</ele>
        <time>2026-08-29T17:40:25Z</time>
      </trkpt>
      <trkpt lat="43.82817" lon="1.77608">
        <ele>115.821324</ele>
        <time>2026-08-29T17:40:26Z</time>
      </trkpt>
      <trkpt lat="43.82815" lon="1.776">
        <ele>115.774154</ele>
        <time>2026-08-29T17:40:27Z</time>
      </trkpt>
      <trkpt lat="43.82813" lon="1.77593">
        <ele>115.727018</ele>
        <time>2026-08-29T17:40:28Z</time>
      </trkpt>
      <trkpt lat="43.82811" lon="1.77586">
        <ele>115.681288</ele>
        <time>2026-08-29T17:40:29Z</time>
      </trkpt>
      <trkpt lat="43.82809" lon="1.77579">
        <ele>115.635293</ele>
        <time>2026-08-29T17:40:30Z</time>
      </trkpt>
      <trkpt lat="43.82808" lon="1.77572">
        <ele>115.593003</ele>
        <time>2026-08-29T17:40:31Z</time>
      </trkpt>
      <trkpt lat="43.82805" lon="1.77566">
        <ele>115.550298</ele>
        <time>2026-08-29T17:40:32Z</time>
      </trkpt>
      <trkpt lat="43.82803" lon="1.77559">
        <ele>115.504682</ele>
        <time>2026-08-29T17:40:33Z</time>
      </trkpt>
      <trkpt lat="43.82801" lon="1.77552">
        <ele>115.458156</ele>
        <time>2026-08-29T17:40:34Z</time>
      </trkpt>
      <trkpt lat="43.82798" lon="1.77545">
        <ele>115.411437</ele>
        <time>2026-08-29T17:40:35Z</time>
      </trkpt>
      <trkpt lat="43.82796" lon="1.77538">
        <ele>115.363616</ele>
        <time>2026-08-29T17:40:36Z</time>
      </trkpt>
      <trkpt lat="43.82793" lon="1.77531">
        <ele>115.31606</ele>
        <time>2026-08-29T17:40:37Z</time>
      </trkpt>
      <trkpt lat="43.8279" lon="1.77525">
        <ele>115.266747</ele>
        <time>2026-08-29T17:40:38Z</time>
      </trkpt>
      <trkpt lat="43.82787" lon="1.77518">
        <ele>115.21697</ele>
        <time>2026-08-29T17:40:39Z</time>
      </trkpt>
      <trkpt lat="43.82784" lon="1.77511">
        <ele>115.168557</ele>
        <time>2026-08-29T17:40:40Z</time>
      </trkpt>
      <trkpt lat="43.82781" lon="1.77504">
        <ele>115.119103</ele>
        <time>2026-08-29T17:40:41Z</time>
      </trkpt>
      <trkpt lat="43.82778" lon="1.77497">
        <ele>115.07069</ele>
        <time>2026-08-29T17:40:42Z</time>
      </trkpt>
      <trkpt lat="43.82774" lon="1.77491">
        <ele>115.023363</ele>
        <time>2026-08-29T17:40:43Z</time>
      </trkpt>
      <trkpt lat="43.82771" lon="1.77485">
        <ele>114.979521</ele>
        <time>2026-08-29T17:40:44Z</time>
      </trkpt>
      <trkpt lat="43.82769" lon="1.77479">
        <ele>114.939114</ele>
        <time>2026-08-29T17:40:45Z</time>
      </trkpt>
      <trkpt lat="43.82766" lon="1.77473">
        <ele>114.896725</ele>
        <time>2026-08-29T17:40:46Z</time>
      </trkpt>
      <trkpt lat="43.82763" lon="1.77467">
        <ele>114.851334</ele>
        <time>2026-08-29T17:40:47Z</time>
      </trkpt>
      <trkpt lat="43.8276" lon="1.77461">
        <ele>114.804007</ele>
        <time>2026-08-29T17:40:48Z</time>
      </trkpt>
      <trkpt lat="43.82757" lon="1.77454">
        <ele>114.758615</ele>
        <time>2026-08-29T17:40:49Z</time>
      </trkpt>
      <trkpt lat="43.82754" lon="1.77448">
        <ele>114.706672</ele>
        <time>2026-08-29T17:40:50Z</time>
      </trkpt>
      <trkpt lat="43.82752" lon="1.77441">
        <ele>114.655237</ele>
        <time>2026-08-29T17:40:51Z</time>
      </trkpt>
      <trkpt lat="43.82749" lon="1.77435">
        <ele>114.604557</ele>
        <time>2026-08-29T17:40:52Z</time>
      </trkpt>
      <trkpt lat="43.82746" lon="1.77429">
        <ele>114.552373</ele>
        <time>2026-08-29T17:40:53Z</time>
      </trkpt>
      <trkpt lat="43.82744" lon="1.77422">
        <ele>114.500704</ele>
        <time>2026-08-29T17:40:54Z</time>
      </trkpt>
      <trkpt lat="43.82741" lon="1.77416">
        <ele>114.450275</ele>
        <time>2026-08-29T17:40:55Z</time>
      </trkpt>
      <trkpt lat="43.82738" lon="1.77411">
        <ele>114.40043</ele>
        <time>2026-08-29T17:40:56Z</time>
      </trkpt>
      <trkpt lat="43.82735" lon="1.77405">
        <ele>114.351699</ele>
        <time>2026-08-29T17:40:57Z</time>
      </trkpt>
      <trkpt lat="43.82732" lon="1.774">
        <ele>114.305264</ele>
        <time>2026-08-29T17:40:58Z</time>
      </trkpt>
      <trkpt lat="43.82729" lon="1.77394">
        <ele>114.261085</ele>
        <time>2026-08-29T17:40:59Z</time>
      </trkpt>
      <trkpt lat="43.82727" lon="1.77389">
        <ele>114.218612</ele>
        <time>2026-08-29T17:41:00Z</time>
      </trkpt>
      <trkpt lat="43.82725" lon="1.77385">
        <ele>114.178903</ele>
        <time>2026-08-29T17:41:01Z</time>
      </trkpt>
      <trkpt lat="43.82722" lon="1.7738">
        <ele>114.137564</ele>
        <time>2026-08-29T17:41:02Z</time>
      </trkpt>
      <trkpt lat="43.82719" lon="1.77375">
        <ele>114.095063</ele>
        <time>2026-08-29T17:41:03Z</time>
      </trkpt>
      <trkpt lat="43.82717" lon="1.77371">
        <ele>114.055257</ele>
        <time>2026-08-29T17:41:04Z</time>
      </trkpt>
      <trkpt lat="43.82714" lon="1.77366">
        <ele>114.014387</ele>
        <time>2026-08-29T17:41:05Z</time>
      </trkpt>
      <trkpt lat="43.82711" lon="1.77361">
        <ele>113.970776</ele>
        <time>2026-08-29T17:41:06Z</time>
      </trkpt>
      <trkpt lat="43.82708" lon="1.77357">
        <ele>113.926956</ele>
        <time>2026-08-29T17:41:07Z</time>
      </trkpt>
      <trkpt lat="43.82705" lon="1.77352">
        <ele>113.884682</ele>
        <time>2026-08-29T17:41:08Z</time>
      </trkpt>
      <trkpt lat="43.82702" lon="1.77348">
        <ele>113.844086</ele>
        <time>2026-08-29T17:41:09Z</time>
      </trkpt>
      <trkpt lat="43.82699" lon="1.77344">
        <ele>113.802317</ele>
        <time>2026-08-29T17:41:10Z</time>
      </trkpt>
      <trkpt lat="43.82696" lon="1.77339">
        <ele>113.761721</ele>
        <time>2026-08-29T17:41:11Z</time>
      </trkpt>
      <trkpt lat="43.82694" lon="1.77335">
        <ele>113.720312</ele>
        <time>2026-08-29T17:41:12Z</time>
      </trkpt>
      <trkpt lat="43.82691" lon="1.7733">
        <ele>113.679344</ele>
        <time>2026-08-29T17:41:13Z</time>
      </trkpt>
      <trkpt lat="43.82688" lon="1.77327">
        <ele>113.639534</ele>
        <time>2026-08-29T17:41:14Z</time>
      </trkpt>
      <trkpt lat="43.82685" lon="1.77323">
        <ele>113.600391</ele>
        <time>2026-08-29T17:41:15Z</time>
      </trkpt>
      <trkpt lat="43.82682" lon="1.7732">
        <ele>113.561006</ele>
        <time>2026-08-29T17:41:16Z</time>
      </trkpt>
      <trkpt lat="43.82678" lon="1.77316">
        <ele>113.519594</ele>
        <time>2026-08-29T17:41:17Z</time>
      </trkpt>
      <trkpt lat="43.82675" lon="1.77313">
        <ele>113.479817</ele>
        <time>2026-08-29T17:41:18Z</time>
      </trkpt>
      <trkpt lat="43.82671" lon="1.7731">
        <ele>113.439615</ele>
        <time>2026-08-29T17:41:19Z</time>
      </trkpt>
      <trkpt lat="43.82668" lon="1.77307">
        <ele>113.398813</ele>
        <time>2026-08-29T17:41:20Z</time>
      </trkpt>
      <trkpt lat="43.82664" lon="1.77304">
        <ele>113.356051</ele>
        <time>2026-08-29T17:41:21Z</time>
      </trkpt>
      <trkpt lat="43.8266" lon="1.77302">
        <ele>113.317616</ele>
        <time>2026-08-29T17:41:22Z</time>
      </trkpt>
      <trkpt lat="43.82656" lon="1.77299">
        <ele>113.276475</ele>
        <time>2026-08-29T17:41:23Z</time>
      </trkpt>
      <trkpt lat="43.82653" lon="1.77296">
        <ele>113.234701</ele>
        <time>2026-08-29T17:41:24Z</time>
      </trkpt>
      <trkpt lat="43.82649" lon="1.77292">
        <ele>113.192023</ele>
        <time>2026-08-29T17:41:25Z</time>
      </trkpt>
      <trkpt lat="43.82645" lon="1.7729">
        <ele>113.150037</ele>
        <time>2026-08-29T17:41:26Z</time>
      </trkpt>
      <trkpt lat="43.82641" lon="1.77287">
        <ele>113.108383</ele>
        <time>2026-08-29T17:41:27Z</time>
      </trkpt>
      <trkpt lat="43.82637" lon="1.77284">
        <ele>113.064868</ele>
        <time>2026-08-29T17:41:28Z</time>
      </trkpt>
      <trkpt lat="43.82634" lon="1.7728">
        <ele>113.022307</ele>
        <time>2026-08-29T17:41:29Z</time>
      </trkpt>
      <trkpt lat="43.8263" lon="1.77277">
        <ele>113.012579</ele>
        <time>2026-08-29T17:41:30Z</time>
      </trkpt>
      <trkpt lat="43.82626" lon="1.77274">
        <ele>113.009954</ele>
        <time>2026-08-29T17:41:31Z</time>
      </trkpt>
      <trkpt lat="43.82622" lon="1.77271">
        <ele>113.007247</ele>
        <time>2026-08-29T17:41:32Z</time>
      </trkpt>
      <trkpt lat="43.82618" lon="1.77269">
        <ele>113.004596</ele>
        <time>2026-08-29T17:41:33Z</time>
      </trkpt>
      <trkpt lat="43.82614" lon="1.77266">
        <ele>113.001776</ele>
        <time>2026-08-29T17:41:34Z</time>
      </trkpt>
      <trkpt lat="43.8261" lon="1.77264">
        <ele>112.999115</ele>
        <time>2026-08-29T17:41:35Z</time>
      </trkpt>
      <trkpt lat="43.82606" lon="1.77261">
        <ele>112.996428</ele>
        <time>2026-08-29T17:41:36Z</time>
      </trkpt>
      <trkpt lat="43.82602" lon="1.77259">
        <ele>112.993631</ele>
        <time>2026-08-29T17:41:37Z</time>
      </trkpt>
      <trkpt lat="43.82598" lon="1.77257">
        <ele>112.99122</ele>
        <time>2026-08-29T17:41:38Z</time>
      </trkpt>
      <trkpt lat="43.82594" lon="1.77254">
        <ele>112.988659</ele>
        <time>2026-08-29T17:41:39Z</time>
      </trkpt>
      <trkpt lat="43.82591" lon="1.77251">
        <ele>112.986034</ele>
        <time>2026-08-29T17:41:40Z</time>
      </trkpt>
      <trkpt lat="43.82588" lon="1.77247">
        <ele>112.983472</ele>
        <time>2026-08-29T17:41:41Z</time>
      </trkpt>
      <trkpt lat="43.82584" lon="1.77243">
        <ele>112.980851</ele>
        <time>2026-08-29T17:41:42Z</time>
      </trkpt>
      <trkpt lat="43.82582" lon="1.77238">
        <ele>112.978146</ele>
        <time>2026-08-29T17:41:43Z</time>
      </trkpt>
      <trkpt lat="43.82579" lon="1.77233">
        <ele>112.97522</ele>
        <time>2026-08-29T17:41:44Z</time>
      </trkpt>
      <trkpt lat="43.82576" lon="1.77228">
        <ele>112.972472</ele>
        <time>2026-08-29T17:41:45Z</time>
      </trkpt>
      <trkpt lat="43.82573" lon="1.77223">
        <ele>112.969519</ele>
        <time>2026-08-29T17:41:46Z</time>
      </trkpt>
      <trkpt lat="43.82571" lon="1.77217">
        <ele>112.96673</ele>
        <time>2026-08-29T17:41:47Z</time>
      </trkpt>
      <trkpt lat="43.82569" lon="1.77212">
        <ele>112.964105</ele>
        <time>2026-08-29T17:41:48Z</time>
      </trkpt>
      <trkpt lat="43.82567" lon="1.77207">
        <ele>112.961508</ele>
        <time>2026-08-29T17:41:49Z</time>
      </trkpt>
      <trkpt lat="43.82565" lon="1.77202">
        <ele>112.958938</ele>
        <time>2026-08-29T17:41:50Z</time>
      </trkpt>
      <trkpt lat="43.82563" lon="1.77196">
        <ele>112.956302</ele>
        <time>2026-08-29T17:41:51Z</time>
      </trkpt>
      <trkpt lat="43.82561" lon="1.7719">
        <ele>112.953516</ele>
        <time>2026-08-29T17:41:52Z</time>
      </trkpt>
      <trkpt lat="43.8256" lon="1.77185">
        <ele>112.950969</ele>
        <time>2026-08-29T17:41:53Z</time>
      </trkpt>
      <trkpt lat="43.82559" lon="1.77179">
        <ele>112.948523</ele>
        <time>2026-08-29T17:41:54Z</time>
      </trkpt>
      <trkpt lat="43.82559" lon="1.77174">
        <ele>112.946185</ele>
        <time>2026-08-29T17:41:55Z</time>
      </trkpt>
      <trkpt lat="43.82558" lon="1.77168">
        <ele>112.943777</ele>
        <time>2026-08-29T17:41:56Z</time>
      </trkpt>
      <trkpt lat="43.82558" lon="1.77163">
        <ele>112.941352</ele>
        <time>2026-08-29T17:41:57Z</time>
      </trkpt>
      <trkpt lat="43.82557" lon="1.77157">
        <ele>112.938927</ele>
        <time>2026-08-29T17:41:58Z</time>
      </trkpt>
      <trkpt lat="43.82557" lon="1.77152">
        <ele>112.936364</ele>
        <time>2026-08-29T17:41:59Z</time>
      </trkpt>
      <trkpt lat="43.82557" lon="1.77146">
        <ele>112.933772</ele>
        <time>2026-08-29T17:42:00Z</time>
      </trkpt>
      <trkpt lat="43.82557" lon="1.7714">
        <ele>112.931182</ele>
        <time>2026-08-29T17:42:01Z</time>
      </trkpt>
      <trkpt lat="43.82556" lon="1.77134">
        <ele>112.928591</ele>
        <time>2026-08-29T17:42:02Z</time>
      </trkpt>
      <trkpt lat="43.82556" lon="1.77128">
        <ele>112.926131</ele>
        <time>2026-08-29T17:42:03Z</time>
      </trkpt>
      <trkpt lat="43.82556" lon="1.77123">
        <ele>112.923671</ele>
        <time>2026-08-29T17:42:04Z</time>
      </trkpt>
      <trkpt lat="43.82556" lon="1.77117">
        <ele>112.921167</ele>
        <time>2026-08-29T17:42:05Z</time>
      </trkpt>
      <trkpt lat="43.82556" lon="1.77111">
        <ele>112.918663</ele>
        <time>2026-08-29T17:42:06Z</time>
      </trkpt>
      <trkpt lat="43.82556" lon="1.77106">
        <ele>112.916205</ele>
        <time>2026-08-29T17:42:07Z</time>
      </trkpt>
      <trkpt lat="43.82555" lon="1.771">
        <ele>112.913745</ele>
        <time>2026-08-29T17:42:08Z</time>
      </trkpt>
      <trkpt lat="43.82555" lon="1.77094">
        <ele>112.911155</ele>
        <time>2026-08-29T17:42:09Z</time>
      </trkpt>
      <trkpt lat="43.82555" lon="1.77088">
        <ele>112.908516</ele>
        <time>2026-08-29T17:42:10Z</time>
      </trkpt>
      <trkpt lat="43.82555" lon="1.77082">
        <ele>112.905881</ele>
        <time>2026-08-29T17:42:11Z</time>
      </trkpt>
      <trkpt lat="43.82554" lon="1.77076">
        <ele>112.912913</ele>
        <time>2026-08-29T17:42:12Z</time>
      </trkpt>
      <trkpt lat="43.82554" lon="1.7707">
        <ele>112.921433</ele>
        <time>2026-08-29T17:42:13Z</time>
      </trkpt>
      <trkpt lat="43.82553" lon="1.77064">
        <ele>112.930268</ele>
        <time>2026-08-29T17:42:14Z</time>
      </trkpt>
      <trkpt lat="43.82553" lon="1.77059">
        <ele>112.938766</ele>
        <time>2026-08-29T17:42:15Z</time>
      </trkpt>
      <trkpt lat="43.82553" lon="1.77053">
        <ele>112.947248</ele>
        <time>2026-08-29T17:42:16Z</time>
      </trkpt>
      <trkpt lat="43.82552" lon="1.77046">
        <ele>112.956457</ele>
        <time>2026-08-29T17:42:17Z</time>
      </trkpt>
      <trkpt lat="43.82552" lon="1.77041">
        <ele>112.965072</ele>
        <time>2026-08-29T17:42:18Z</time>
      </trkpt>
      <trkpt lat="43.82552" lon="1.77034">
        <ele>112.973979</ele>
        <time>2026-08-29T17:42:19Z</time>
      </trkpt>
      <trkpt lat="43.82552" lon="1.77028">
        <ele>112.983058</ele>
        <time>2026-08-29T17:42:20Z</time>
      </trkpt>
      <trkpt lat="43.82551" lon="1.77022">
        <ele>112.991847</ele>
        <time>2026-08-29T17:42:21Z</time>
      </trkpt>
      <trkpt lat="43.82551" lon="1.77016">
        <ele>113.000345</ele>
        <time>2026-08-29T17:42:22Z</time>
      </trkpt>
      <trkpt lat="43.8255" lon="1.77011">
        <ele>113.008536</ele>
        <time>2026-08-29T17:42:23Z</time>
      </trkpt>
      <trkpt lat="43.8255" lon="1.77005">
        <ele>113.016889</ele>
        <time>2026-08-29T17:42:24Z</time>
      </trkpt>
      <trkpt lat="43.8255" lon="1.77">
        <ele>113.025059</ele>
        <time>2026-08-29T17:42:25Z</time>
      </trkpt>
      <trkpt lat="43.8255" lon="1.76994">
        <ele>113.033092</ele>
        <time>2026-08-29T17:42:26Z</time>
      </trkpt>
      <trkpt lat="43.8255" lon="1.76988">
        <ele>113.041415</ele>
        <time>2026-08-29T17:42:27Z</time>
      </trkpt>
      <trkpt lat="43.82551" lon="1.76983">
        <ele>113.049817</ele>
        <time>2026-08-29T17:42:28Z</time>
      </trkpt>
      <trkpt lat="43.82552" lon="1.76977">
        <ele>113.058424</ele>
        <time>2026-08-29T17:42:29Z</time>
      </trkpt>
      <trkpt lat="43.82554" lon="1.76971">
        <ele>113.067273</ele>
        <time>2026-08-29T17:42:30Z</time>
      </trkpt>
      <trkpt lat="43.82556" lon="1.76966">
        <ele>113.07574</ele>
        <time>2026-08-29T17:42:31Z</time>
      </trkpt>
      <trkpt lat="43.82558" lon="1.76961">
        <ele>113.084258</ele>
        <time>2026-08-29T17:42:32Z</time>
      </trkpt>
      <trkpt lat="43.8256" lon="1.76957">
        <ele>113.092308</ele>
        <time>2026-08-29T17:42:33Z</time>
      </trkpt>
      <trkpt lat="43.82562" lon="1.76952">
        <ele>113.100233</ele>
        <time>2026-08-29T17:42:34Z</time>
      </trkpt>
      <trkpt lat="43.82565" lon="1.76948">
        <ele>113.107686</ele>
        <time>2026-08-29T17:42:35Z</time>
      </trkpt>
      <trkpt lat="43.82567" lon="1.76943">
        <ele>113.116335</ele>
        <time>2026-08-29T17:42:36Z</time>
      </trkpt>
      <trkpt lat="43.82569" lon="1.76937">
        <ele>113.12619</ele>
        <time>2026-08-29T17:42:37Z</time>
      </trkpt>
      <trkpt lat="43.82572" lon="1.76932">
        <ele>113.13617</ele>
        <time>2026-08-29T17:42:38Z</time>
      </trkpt>
      <trkpt lat="43.82575" lon="1.76926">
        <ele>113.146006</ele>
        <time>2026-08-29T17:42:39Z</time>
      </trkpt>
      <trkpt lat="43.82577" lon="1.7692">
        <ele>113.155759</ele>
        <time>2026-08-29T17:42:40Z</time>
      </trkpt>
      <trkpt lat="43.8258" lon="1.76915">
        <ele>113.16535</ele>
        <time>2026-08-29T17:42:41Z</time>
      </trkpt>
      <trkpt lat="43.82582" lon="1.76909">
        <ele>113.173816</ele>
        <time>2026-08-29T17:42:42Z</time>
      </trkpt>
      <trkpt lat="43.82583" lon="1.76905">
        <ele>113.181194</ele>
        <time>2026-08-29T17:42:43Z</time>
      </trkpt>
      <trkpt lat="43.82585" lon="1.76901">
        <ele>113.188474</ele>
        <time>2026-08-29T17:42:44Z</time>
      </trkpt>
      <trkpt lat="43.82587" lon="1.76896">
        <ele>113.195402</ele>
        <time>2026-08-29T17:42:45Z</time>
      </trkpt>
      <trkpt lat="43.82588" lon="1.76892">
        <ele>113.202194</ele>
        <time>2026-08-29T17:42:46Z</time>
      </trkpt>
      <trkpt lat="43.82589" lon="1.76887">
        <ele>113.209958</ele>
        <time>2026-08-29T17:42:47Z</time>
      </trkpt>
      <trkpt lat="43.82591" lon="1.76882">
        <ele>113.218126</ele>
        <time>2026-08-29T17:42:48Z</time>
      </trkpt>
      <trkpt lat="43.82592" lon="1.76877">
        <ele>113.225536</ele>
        <time>2026-08-29T17:42:49Z</time>
      </trkpt>
      <trkpt lat="43.82593" lon="1.76872">
        <ele>113.234112</ele>
        <time>2026-08-29T17:42:50Z</time>
      </trkpt>
      <trkpt lat="43.82595" lon="1.76866">
        <ele>113.242705</ele>
        <time>2026-08-29T17:42:51Z</time>
      </trkpt>
      <trkpt lat="43.82597" lon="1.76861">
        <ele>113.25195</ele>
        <time>2026-08-29T17:42:52Z</time>
      </trkpt>
      <trkpt lat="43.82599" lon="1.76855">
        <ele>113.260119</ele>
        <time>2026-08-29T17:42:53Z</time>
      </trkpt>
      <trkpt lat="43.826" lon="1.7685">
        <ele>113.268214</ele>
        <time>2026-08-29T17:42:54Z</time>
      </trkpt>
      <trkpt lat="43.82601" lon="1.76845">
        <ele>113.292999</ele>
        <time>2026-08-29T17:42:55Z</time>
      </trkpt>
      <trkpt lat="43.82601" lon="1.7684">
        <ele>113.319188</ele>
        <time>2026-08-29T17:42:56Z</time>
      </trkpt>
      <trkpt lat="43.82602" lon="1.76836">
        <ele>113.345281</ele>
        <time>2026-08-29T17:42:57Z</time>
      </trkpt>
      <trkpt lat="43.82602" lon="1.76831">
        <ele>113.372447</ele>
        <time>2026-08-29T17:42:58Z</time>
      </trkpt>
      <trkpt lat="43.82603" lon="1.76826">
        <ele>113.398636</ele>
        <time>2026-08-29T17:42:59Z</time>
      </trkpt>
      <trkpt lat="43.82603" lon="1.76821">
        <ele>113.425729</ele>
        <time>2026-08-29T17:43:00Z</time>
      </trkpt>
      <trkpt lat="43.82603" lon="1.76816">
        <ele>113.452823</ele>
        <time>2026-08-29T17:43:01Z</time>
      </trkpt>
      <trkpt lat="43.82603" lon="1.76811">
        <ele>113.479834</ele>
        <time>2026-08-29T17:43:02Z</time>
      </trkpt>
      <trkpt lat="43.82604" lon="1.76806">
        <ele>113.503641</ele>
        <time>2026-08-29T17:43:03Z</time>
      </trkpt>
      <trkpt lat="43.82604" lon="1.76802">
        <ele>113.528045</ele>
        <time>2026-08-29T17:43:04Z</time>
      </trkpt>
      <trkpt lat="43.82604" lon="1.76797">
        <ele>113.554548</ele>
        <time>2026-08-29T17:43:05Z</time>
      </trkpt>
      <trkpt lat="43.82604" lon="1.76792">
        <ele>113.580565</ele>
        <time>2026-08-29T17:43:06Z</time>
      </trkpt>
      <trkpt lat="43.82605" lon="1.76787">
        <ele>113.607068</ele>
        <time>2026-08-29T17:43:07Z</time>
      </trkpt>
      <trkpt lat="43.82605" lon="1.76782">
        <ele>113.634078</ele>
        <time>2026-08-29T17:43:08Z</time>
      </trkpt>
      <trkpt lat="43.82605" lon="1.76777">
        <ele>113.660539</ele>
        <time>2026-08-29T17:43:09Z</time>
      </trkpt>
      <trkpt lat="43.82605" lon="1.76773">
        <ele>113.68593</ele>
        <time>2026-08-29T17:43:10Z</time>
      </trkpt>
      <trkpt lat="43.82605" lon="1.76768">
        <ele>113.711321</ele>
        <time>2026-08-29T17:43:11Z</time>
      </trkpt>
      <trkpt lat="43.82605" lon="1.76764">
        <ele>113.735668</ele>
        <time>2026-08-29T17:43:12Z</time>
      </trkpt>
      <trkpt lat="43.82605" lon="1.7676">
        <ele>113.756741</ele>
        <time>2026-08-29T17:43:13Z</time>
      </trkpt>
      <trkpt lat="43.82605" lon="1.76755">
        <ele>113.779434</ele>
        <time>2026-08-29T17:43:14Z</time>
      </trkpt>
      <trkpt lat="43.82605" lon="1.76751">
        <ele>113.802126</ele>
        <time>2026-08-29T17:43:15Z</time>
      </trkpt>
      <trkpt lat="43.82606" lon="1.76747">
        <ele>113.824581</ele>
        <time>2026-08-29T17:43:16Z</time>
      </trkpt>
      <trkpt lat="43.82606" lon="1.76743">
        <ele>113.845759</ele>
        <time>2026-08-29T17:43:17Z</time>
      </trkpt>
      <trkpt lat="43.82607" lon="1.7674">
        <ele>113.865712</ele>
        <time>2026-08-29T17:43:18Z</time>
      </trkpt>
      <trkpt lat="43.82607" lon="1.76737">
        <ele>113.882519</ele>
        <time>2026-08-29T17:43:19Z</time>
      </trkpt>
      <trkpt lat="43.82607" lon="1.76735">
        <ele>113.892887</ele>
        <time>2026-08-29T17:43:20Z</time>
      </trkpt>
      <trkpt lat="43.82607" lon="1.76734">
        <ele>113.897284</ele>
        <time>2026-08-29T17:43:21Z</time>
      </trkpt>
      <trkpt lat="43.82607" lon="1.76734">
        <ele>113.898781</ele>
        <time>2026-08-29T17:43:22Z</time>
      </trkpt>
      <trkpt lat="43.82605" lon="1.76731">
        <ele>113.920302</ele>
        <time>2026-08-29T17:44:20Z</time>
      </trkpt>
      <trkpt lat="43.82605" lon="1.76728">
        <ele>113.935355</ele>
        <time>2026-08-29T17:44:21Z</time>
      </trkpt>
      <trkpt lat="43.82605" lon="1.76725">
        <ele>113.951624</ele>
        <time>2026-08-29T17:44:22Z</time>
      </trkpt>
      <trkpt lat="43.82605" lon="1.76722">
        <ele>113.968381</ele>
        <time>2026-08-29T17:44:23Z</time>
      </trkpt>
      <trkpt lat="43.82605" lon="1.76718">
        <ele>113.986741</ele>
        <time>2026-08-29T17:44:24Z</time>
      </trkpt>
      <trkpt lat="43.82604" lon="1.76715">
        <ele>114.006239</ele>
        <time>2026-08-29T17:44:25Z</time>
      </trkpt>
      <trkpt lat="43.82604" lon="1.76711">
        <ele>114.026814</ele>
        <time>2026-08-29T17:44:26Z</time>
      </trkpt>
      <trkpt lat="43.82604" lon="1.76707">
        <ele>114.049156</ele>
        <time>2026-08-29T17:44:27Z</time>
      </trkpt>
      <trkpt lat="43.82603" lon="1.76703">
        <ele>114.072276</ele>
        <time>2026-08-29T17:44:28Z</time>
      </trkpt>
      <trkpt lat="43.82603" lon="1.76699">
        <ele>114.094618</ele>
        <time>2026-08-29T17:44:29Z</time>
      </trkpt>
      <trkpt lat="43.82602" lon="1.76695">
        <ele>114.11654</ele>
        <time>2026-08-29T17:44:30Z</time>
      </trkpt>
      <trkpt lat="43.82602" lon="1.7669">
        <ele>114.139869</ele>
        <time>2026-08-29T17:44:31Z</time>
      </trkpt>
      <trkpt lat="43.82602" lon="1.76686">
        <ele>114.164353</ele>
        <time>2026-08-29T17:44:32Z</time>
      </trkpt>
      <trkpt lat="43.82601" lon="1.76681">
        <ele>114.190908</ele>
        <time>2026-08-29T17:44:33Z</time>
      </trkpt>
      <trkpt lat="43.82601" lon="1.76676">
        <ele>114.215794</ele>
        <time>2026-08-29T17:44:34Z</time>
      </trkpt>
      <trkpt lat="43.82601" lon="1.76672">
        <ele>114.240197</ele>
        <time>2026-08-29T17:44:35Z</time>
      </trkpt>
      <trkpt lat="43.826" lon="1.76667">
        <ele>114.264681</ele>
        <time>2026-08-29T17:44:36Z</time>
      </trkpt>
      <trkpt lat="43.826" lon="1.76663">
        <ele>114.288489</ele>
        <time>2026-08-29T17:44:37Z</time>
      </trkpt>
      <trkpt lat="43.826" lon="1.76659">
        <ele>114.311757</ele>
        <time>2026-08-29T17:44:38Z</time>
      </trkpt>
      <trkpt lat="43.826" lon="1.76654">
        <ele>114.336241</ele>
        <time>2026-08-29T17:44:39Z</time>
      </trkpt>
      <trkpt lat="43.82599" lon="1.76649">
        <ele>114.362334</ele>
        <time>2026-08-29T17:44:40Z</time>
      </trkpt>
      <trkpt lat="43.82599" lon="1.76645">
        <ele>114.386738</ele>
        <time>2026-08-29T17:44:41Z</time>
      </trkpt>
      <trkpt lat="43.82599" lon="1.76641">
        <ele>114.410066</ele>
        <time>2026-08-29T17:44:42Z</time>
      </trkpt>
      <trkpt lat="43.82598" lon="1.76636">
        <ele>114.435008</ele>
        <time>2026-08-29T17:44:43Z</time>
      </trkpt>
      <trkpt lat="43.82598" lon="1.76631">
        <ele>114.461315</ele>
        <time>2026-08-29T17:44:44Z</time>
      </trkpt>
      <trkpt lat="43.82597" lon="1.76626">
        <ele>114.487621</ele>
        <time>2026-08-29T17:44:45Z</time>
      </trkpt>
      <trkpt lat="43.82597" lon="1.76622">
        <ele>114.512742</ele>
        <time>2026-08-29T17:44:46Z</time>
      </trkpt>
      <trkpt lat="43.82596" lon="1.76617">
        <ele>114.537862</ele>
        <time>2026-08-29T17:44:47Z</time>
      </trkpt>
      <trkpt lat="43.82596" lon="1.76613">
        <ele>114.562983</ele>
        <time>2026-08-29T17:44:48Z</time>
      </trkpt>
      <trkpt lat="43.82595" lon="1.76608">
        <ele>114.589428</ele>
        <time>2026-08-29T17:44:49Z</time>
      </trkpt>
      <trkpt lat="43.82594" lon="1.76603">
        <ele>114.613376</ele>
        <time>2026-08-29T17:44:50Z</time>
      </trkpt>
      <trkpt lat="43.82594" lon="1.76599">
        <ele>114.61387</ele>
        <time>2026-08-29T17:44:51Z</time>
      </trkpt>
      <trkpt lat="43.82593" lon="1.76594">
        <ele>114.61219</ele>
        <time>2026-08-29T17:44:52Z</time>
      </trkpt>
      <trkpt lat="43.82593" lon="1.76589">
        <ele>114.610457</ele>
        <time>2026-08-29T17:44:53Z</time>
      </trkpt>
      <trkpt lat="43.82592" lon="1.76584">
        <ele>114.608723</ele>
        <time>2026-08-29T17:44:54Z</time>
      </trkpt>
      <trkpt lat="43.82591" lon="1.76579">
        <ele>114.606827</ele>
        <time>2026-08-29T17:44:55Z</time>
      </trkpt>
      <trkpt lat="43.8259" lon="1.76574">
        <ele>114.604826</ele>
        <time>2026-08-29T17:44:56Z</time>
      </trkpt>
      <trkpt lat="43.8259" lon="1.76568">
        <ele>114.602869</ele>
        <time>2026-08-29T17:44:57Z</time>
      </trkpt>
      <trkpt lat="43.82589" lon="1.76563">
        <ele>114.600963</ele>
        <time>2026-08-29T17:44:58Z</time>
      </trkpt>
      <trkpt lat="43.82588" lon="1.76557">
        <ele>114.599067</ele>
        <time>2026-08-29T17:44:59Z</time>
      </trkpt>
      <trkpt lat="43.82588" lon="1.76552">
        <ele>114.597255</ele>
        <time>2026-08-29T17:45:00Z</time>
      </trkpt>
      <trkpt lat="43.82587" lon="1.76547">
        <ele>114.59549</ele>
        <time>2026-08-29T17:45:01Z</time>
      </trkpt>
      <trkpt lat="43.82587" lon="1.76542">
        <ele>114.593671</ele>
        <time>2026-08-29T17:45:02Z</time>
      </trkpt>
      <trkpt lat="43.82586" lon="1.76537">
        <ele>114.59197</ele>
        <time>2026-08-29T17:45:03Z</time>
      </trkpt>
      <trkpt lat="43.82586" lon="1.76532">
        <ele>114.590194</ele>
        <time>2026-08-29T17:45:04Z</time>
      </trkpt>
      <trkpt lat="43.82585" lon="1.76528">
        <ele>114.588529</ele>
        <time>2026-08-29T17:45:05Z</time>
      </trkpt>
      <trkpt lat="43.82584" lon="1.76523">
        <ele>114.586805</ele>
        <time>2026-08-29T17:45:06Z</time>
      </trkpt>
      <trkpt lat="43.82584" lon="1.76519">
        <ele>114.585272</ele>
        <time>2026-08-29T17:45:07Z</time>
      </trkpt>
      <trkpt lat="43.82583" lon="1.76514">
        <ele>114.583454</ele>
        <time>2026-08-29T17:45:08Z</time>
      </trkpt>
      <trkpt lat="43.82583" lon="1.76509">
        <ele>114.581648</ele>
        <time>2026-08-29T17:45:09Z</time>
      </trkpt>
      <trkpt lat="43.82583" lon="1.76503">
        <ele>114.579777</ele>
        <time>2026-08-29T17:45:10Z</time>
      </trkpt>
      <trkpt lat="43.82582" lon="1.76498">
        <ele>114.577836</ele>
        <time>2026-08-29T17:45:11Z</time>
      </trkpt>
      <trkpt lat="43.82581" lon="1.76492">
        <ele>114.575836</ele>
        <time>2026-08-29T17:45:12Z</time>
      </trkpt>
      <trkpt lat="43.8258" lon="1.76486">
        <ele>114.573739</ele>
        <time>2026-08-29T17:45:13Z</time>
      </trkpt>
      <trkpt lat="43.82579" lon="1.76481">
        <ele>114.571799</ele>
        <time>2026-08-29T17:45:14Z</time>
      </trkpt>
      <trkpt lat="43.82579" lon="1.76476">
        <ele>114.569918</ele>
        <time>2026-08-29T17:45:15Z</time>
      </trkpt>
      <trkpt lat="43.82578" lon="1.7647">
        <ele>114.568002</ele>
        <time>2026-08-29T17:45:16Z</time>
      </trkpt>
      <trkpt lat="43.82578" lon="1.76464">
        <ele>114.565881</ele>
        <time>2026-08-29T17:45:17Z</time>
      </trkpt>
      <trkpt lat="43.82577" lon="1.76458">
        <ele>114.563784</ele>
        <time>2026-08-29T17:45:18Z</time>
      </trkpt>
      <trkpt lat="43.82577" lon="1.76453">
        <ele>114.561698</ele>
        <time>2026-08-29T17:45:19Z</time>
      </trkpt>
      <trkpt lat="43.82577" lon="1.76447">
        <ele>114.55962</ele>
        <time>2026-08-29T17:45:20Z</time>
      </trkpt>
      <trkpt lat="43.82576" lon="1.76441">
        <ele>114.557564</ele>
        <time>2026-08-29T17:45:21Z</time>
      </trkpt>
      <trkpt lat="43.82576" lon="1.76435">
        <ele>114.555598</ele>
        <time>2026-08-29T17:45:22Z</time>
      </trkpt>
      <trkpt lat="43.82575" lon="1.7643">
        <ele>114.553702</ele>
        <time>2026-08-29T17:45:23Z</time>
      </trkpt>
      <trkpt lat="43.82574" lon="1.76424">
        <ele>114.551675</ele>
        <time>2026-08-29T17:45:24Z</time>
      </trkpt>
      <trkpt lat="43.82574" lon="1.76419">
        <ele>114.5497</ele>
        <time>2026-08-29T17:45:25Z</time>
      </trkpt>
      <trkpt lat="43.82573" lon="1.76413">
        <ele>114.547622</ele>
        <time>2026-08-29T17:45:26Z</time>
      </trkpt>
      <trkpt lat="43.82572" lon="1.76407">
        <ele>114.54543</ele>
        <time>2026-08-29T17:45:27Z</time>
      </trkpt>
      <trkpt lat="43.82571" lon="1.76401">
        <ele>114.54343</ele>
        <time>2026-08-29T17:45:28Z</time>
      </trkpt>
      <trkpt lat="43.8257" lon="1.76396">
        <ele>114.54143</ele>
        <time>2026-08-29T17:45:29Z</time>
      </trkpt>
      <trkpt lat="43.8257" lon="1.7639">
        <ele>114.539333</ele>
        <time>2026-08-29T17:45:30Z</time>
      </trkpt>
      <trkpt lat="43.82569" lon="1.76384">
        <ele>114.537229</ele>
        <time>2026-08-29T17:45:31Z</time>
      </trkpt>
      <trkpt lat="43.82568" lon="1.76378">
        <ele>114.53509</ele>
        <time>2026-08-29T17:45:32Z</time>
      </trkpt>
      <trkpt lat="43.82568" lon="1.76372">
        <ele>114.533027</ele>
        <time>2026-08-29T17:45:33Z</time>
      </trkpt>
      <trkpt lat="43.82568" lon="1.76366">
        <ele>114.53084</ele>
        <time>2026-08-29T17:45:34Z</time>
      </trkpt>
      <trkpt lat="43.82567" lon="1.7636">
        <ele>114.528771</ele>
        <time>2026-08-29T17:45:35Z</time>
      </trkpt>
      <trkpt lat="43.82567" lon="1.76354">
        <ele>114.525614</ele>
        <time>2026-08-29T17:45:36Z</time>
      </trkpt>
      <trkpt lat="43.82566" lon="1.76348">
        <ele>114.521245</ele>
        <time>2026-08-29T17:45:37Z</time>
      </trkpt>
      <trkpt lat="43.82566" lon="1.76343">
        <ele>114.516937</ele>
        <time>2026-08-29T17:45:38Z</time>
      </trkpt>
      <trkpt lat="43.82566" lon="1.76337">
        <ele>114.512638</ele>
        <time>2026-08-29T17:45:39Z</time>
      </trkpt>
      <trkpt lat="43.82565" lon="1.76332">
        <ele>114.508488</ele>
        <time>2026-08-29T17:45:40Z</time>
      </trkpt>
      <trkpt lat="43.82565" lon="1.76326">
        <ele>114.504414</ele>
        <time>2026-08-29T17:45:41Z</time>
      </trkpt>
      <trkpt lat="43.82565" lon="1.76321">
        <ele>114.500255</ele>
        <time>2026-08-29T17:45:42Z</time>
      </trkpt>
      <trkpt lat="43.82564" lon="1.76315">
        <ele>114.496293</ele>
        <time>2026-08-29T17:45:43Z</time>
      </trkpt>
      <trkpt lat="43.82563" lon="1.7631">
        <ele>114.492332</ele>
        <time>2026-08-29T17:45:44Z</time>
      </trkpt>
      <trkpt lat="43.82563" lon="1.76305">
        <ele>114.488182</ele>
        <time>2026-08-29T17:45:45Z</time>
      </trkpt>
      <trkpt lat="43.82563" lon="1.76299">
        <ele>114.483937</ele>
        <time>2026-08-29T17:45:46Z</time>
      </trkpt>
      <trkpt lat="43.82562" lon="1.76294">
        <ele>114.479678</ele>
        <time>2026-08-29T17:45:47Z</time>
      </trkpt>
      <trkpt lat="43.82561" lon="1.76288">
        <ele>114.47527</ele>
        <time>2026-08-29T17:45:48Z</time>
      </trkpt>
      <trkpt lat="43.82561" lon="1.76282">
        <ele>114.470713</ele>
        <time>2026-08-29T17:45:49Z</time>
      </trkpt>
      <trkpt lat="43.82561" lon="1.76276">
        <ele>114.466188</ele>
        <time>2026-08-29T17:45:50Z</time>
      </trkpt>
      <trkpt lat="43.8256" lon="1.7627">
        <ele>114.461889</ele>
        <time>2026-08-29T17:45:51Z</time>
      </trkpt>
      <trkpt lat="43.8256" lon="1.76264">
        <ele>114.457655</ele>
        <time>2026-08-29T17:45:52Z</time>
      </trkpt>
      <trkpt lat="43.82559" lon="1.76259">
        <ele>114.45356</ele>
        <time>2026-08-29T17:45:53Z</time>
      </trkpt>
      <trkpt lat="43.82559" lon="1.76254">
        <ele>114.449432</ele>
        <time>2026-08-29T17:45:54Z</time>
      </trkpt>
      <trkpt lat="43.82558" lon="1.76248">
        <ele>114.445262</ele>
        <time>2026-08-29T17:45:55Z</time>
      </trkpt>
      <trkpt lat="43.82558" lon="1.76243">
        <ele>114.441049</ele>
        <time>2026-08-29T17:45:56Z</time>
      </trkpt>
      <trkpt lat="43.82558" lon="1.76237">
        <ele>114.437206</ele>
        <time>2026-08-29T17:45:57Z</time>
      </trkpt>
      <trkpt lat="43.82557" lon="1.76232">
        <ele>114.433334</ele>
        <time>2026-08-29T17:45:58Z</time>
      </trkpt>
      <trkpt lat="43.82557" lon="1.76227">
        <ele>114.4294</ele>
        <time>2026-08-29T17:45:59Z</time>
      </trkpt>
      <trkpt lat="43.82556" lon="1.76222">
        <ele>114.425141</ele>
        <time>2026-08-29T17:46:00Z</time>
      </trkpt>
      <trkpt lat="43.82556" lon="1.76216">
        <ele>114.420983</ele>
        <time>2026-08-29T17:46:01Z</time>
      </trkpt>
      <trkpt lat="43.82556" lon="1.76211">
        <ele>114.416812</ele>
        <time>2026-08-29T17:46:02Z</time>
      </trkpt>
      <trkpt lat="43.82555" lon="1.76205">
        <ele>114.412776</ele>
        <time>2026-08-29T17:46:03Z</time>
      </trkpt>
      <trkpt lat="43.82554" lon="1.762">
        <ele>114.408666</ele>
        <time>2026-08-29T17:46:04Z</time>
      </trkpt>
      <trkpt lat="43.82554" lon="1.76194">
        <ele>114.404507</ele>
        <time>2026-08-29T17:46:05Z</time>
      </trkpt>
      <trkpt lat="43.82554" lon="1.76189">
        <ele>114.400283</ele>
        <time>2026-08-29T17:46:06Z</time>
      </trkpt>
      <trkpt lat="43.82553" lon="1.76183">
        <ele>114.395974</ele>
        <time>2026-08-29T17:46:07Z</time>
      </trkpt>
      <trkpt lat="43.82553" lon="1.76177">
        <ele>114.391715</ele>
        <time>2026-08-29T17:46:08Z</time>
      </trkpt>
      <trkpt lat="43.82552" lon="1.76172">
        <ele>114.387439</ele>
        <time>2026-08-29T17:46:09Z</time>
      </trkpt>
      <trkpt lat="43.82551" lon="1.76166">
        <ele>114.38297</ele>
        <time>2026-08-29T17:46:10Z</time>
      </trkpt>
      <trkpt lat="43.82551" lon="1.7616">
        <ele>114.378749</ele>
        <time>2026-08-29T17:46:11Z</time>
      </trkpt>
      <trkpt lat="43.8255" lon="1.76155">
        <ele>114.374622</ele>
        <time>2026-08-29T17:46:12Z</time>
      </trkpt>
      <trkpt lat="43.82549" lon="1.7615">
        <ele>114.370452</ele>
        <time>2026-08-29T17:46:13Z</time>
      </trkpt>
      <trkpt lat="43.82549" lon="1.76144">
        <ele>114.366302</ele>
        <time>2026-08-29T17:46:14Z</time>
      </trkpt>
      <trkpt lat="43.82549" lon="1.76138">
        <ele>114.361894</ele>
        <time>2026-08-29T17:46:15Z</time>
      </trkpt>
      <trkpt lat="43.82548" lon="1.76132">
        <ele>114.357378</ele>
        <time>2026-08-29T17:46:16Z</time>
      </trkpt>
      <trkpt lat="43.82547" lon="1.76127">
        <ele>114.352988</ele>
        <time>2026-08-29T17:46:17Z</time>
      </trkpt>
      <trkpt lat="43.82546" lon="1.76121">
        <ele>114.348398</ele>
        <time>2026-08-29T17:46:18Z</time>
      </trkpt>
      <trkpt lat="43.82545" lon="1.76115">
        <ele>114.343882</ele>
        <time>2026-08-29T17:46:19Z</time>
      </trkpt>
      <trkpt lat="43.82544" lon="1.76109">
        <ele>114.338416</ele>
        <time>2026-08-29T17:46:20Z</time>
      </trkpt>
      <trkpt lat="43.82544" lon="1.76102">
        <ele>114.329353</ele>
        <time>2026-08-29T17:46:21Z</time>
      </trkpt>
      <trkpt lat="43.82543" lon="1.76096">
        <ele>114.320579</ele>
        <time>2026-08-29T17:46:22Z</time>
      </trkpt>
      <trkpt lat="43.82543" lon="1.7609">
        <ele>114.311517</ele>
        <time>2026-08-29T17:46:23Z</time>
      </trkpt>
      <trkpt lat="43.82542" lon="1.76084">
        <ele>114.302717</ele>
        <time>2026-08-29T17:46:24Z</time>
      </trkpt>
      <trkpt lat="43.82542" lon="1.76078">
        <ele>114.293745</ele>
        <time>2026-08-29T17:46:25Z</time>
      </trkpt>
      <trkpt lat="43.82541" lon="1.76072">
        <ele>114.284513</ele>
        <time>2026-08-29T17:46:26Z</time>
      </trkpt>
      <trkpt lat="43.8254" lon="1.76066">
        <ele>114.275541</ele>
        <time>2026-08-29T17:46:27Z</time>
      </trkpt>
      <trkpt lat="43.8254" lon="1.7606">
        <ele>114.267285</ele>
        <time>2026-08-29T17:46:28Z</time>
      </trkpt>
      <trkpt lat="43.82538" lon="1.76055">
        <ele>114.259354</ele>
        <time>2026-08-29T17:46:29Z</time>
      </trkpt>
      <trkpt lat="43.82537" lon="1.7605">
        <ele>114.25176</ele>
        <time>2026-08-29T17:46:30Z</time>
      </trkpt>
      <trkpt lat="43.82536" lon="1.76045">
        <ele>114.243749</ele>
        <time>2026-08-29T17:46:31Z</time>
      </trkpt>
      <trkpt lat="43.82535" lon="1.76039">
        <ele>114.235369</ele>
        <time>2026-08-29T17:46:32Z</time>
      </trkpt>
      <trkpt lat="43.82534" lon="1.76033">
        <ele>114.226466</ele>
        <time>2026-08-29T17:46:33Z</time>
      </trkpt>
      <trkpt lat="43.82533" lon="1.76027">
        <ele>114.217848</ele>
        <time>2026-08-29T17:46:34Z</time>
      </trkpt>
      <trkpt lat="43.82532" lon="1.76021">
        <ele>114.209083</ele>
        <time>2026-08-29T17:46:35Z</time>
      </trkpt>
      <trkpt lat="43.82531" lon="1.76015">
        <ele>114.200181</ele>
        <time>2026-08-29T17:46:36Z</time>
      </trkpt>
      <trkpt lat="43.8253" lon="1.76009">
        <ele>114.190906</ele>
        <time>2026-08-29T17:46:37Z</time>
      </trkpt>
      <trkpt lat="43.82529" lon="1.76003">
        <ele>114.182042</ele>
        <time>2026-08-29T17:46:38Z</time>
      </trkpt>
      <trkpt lat="43.82528" lon="1.75997">
        <ele>114.172626</ele>
        <time>2026-08-29T17:46:39Z</time>
      </trkpt>
      <trkpt lat="43.82527" lon="1.75991">
        <ele>114.163604</ele>
        <time>2026-08-29T17:46:40Z</time>
      </trkpt>
      <trkpt lat="43.82526" lon="1.75985">
        <ele>114.154225</ele>
        <time>2026-08-29T17:46:41Z</time>
      </trkpt>
      <trkpt lat="43.82524" lon="1.75979">
        <ele>114.145274</ele>
        <time>2026-08-29T17:46:42Z</time>
      </trkpt>
      <trkpt lat="43.82522" lon="1.75973">
        <ele>114.135888</ele>
        <time>2026-08-29T17:46:43Z</time>
      </trkpt>
      <trkpt lat="43.82521" lon="1.75967">
        <ele>114.126732</ele>
        <time>2026-08-29T17:46:44Z</time>
      </trkpt>
      <trkpt lat="43.82519" lon="1.75962">
        <ele>114.117982</ele>
        <time>2026-08-29T17:46:45Z</time>
      </trkpt>
      <trkpt lat="43.82518" lon="1.75955">
        <ele>114.108236</ele>
        <time>2026-08-29T17:46:46Z</time>
      </trkpt>
      <trkpt lat="43.82516" lon="1.75949">
        <ele>114.098599</ele>
        <time>2026-08-29T17:46:47Z</time>
      </trkpt>
      <trkpt lat="43.82515" lon="1.75943">
        <ele>114.089714</ele>
        <time>2026-08-29T17:46:48Z</time>
      </trkpt>
      <trkpt lat="43.82513" lon="1.75937">
        <ele>114.080693</ele>
        <time>2026-08-29T17:46:49Z</time>
      </trkpt>
      <trkpt lat="43.82512" lon="1.75931">
        <ele>114.071671</ele>
        <time>2026-08-29T17:46:50Z</time>
      </trkpt>
      <trkpt lat="43.8251" lon="1.75925">
        <ele>114.062307</ele>
        <time>2026-08-29T17:46:51Z</time>
      </trkpt>
      <trkpt lat="43.82508" lon="1.75919">
        <ele>114.053014</ele>
        <time>2026-08-29T17:46:52Z</time>
      </trkpt>
      <trkpt lat="43.82507" lon="1.75913">
        <ele>114.043575</ele>
        <time>2026-08-29T17:46:53Z</time>
      </trkpt>
      <trkpt lat="43.82505" lon="1.75907">
        <ele>114.034146</ele>
        <time>2026-08-29T17:46:54Z</time>
      </trkpt>
      <trkpt lat="43.82503" lon="1.75902">
        <ele>114.024893</ele>
        <time>2026-08-29T17:46:55Z</time>
      </trkpt>
      <trkpt lat="43.82502" lon="1.75896">
        <ele>114.016008</ele>
        <time>2026-08-29T17:46:56Z</time>
      </trkpt>
      <trkpt lat="43.825" lon="1.7589">
        <ele>114.006852</ele>
        <time>2026-08-29T17:46:57Z</time>
      </trkpt>
      <trkpt lat="43.82499" lon="1.75884">
        <ele>113.997473</ele>
        <time>2026-08-29T17:46:58Z</time>
      </trkpt>
      <trkpt lat="43.82498" lon="1.75877">
        <ele>113.988198</ele>
        <time>2026-08-29T17:46:59Z</time>
      </trkpt>
      <trkpt lat="43.82497" lon="1.75872">
        <ele>113.979433</ele>
        <time>2026-08-29T17:47:00Z</time>
      </trkpt>
      <trkpt lat="43.82495" lon="1.75866">
        <ele>113.951486</ele>
        <time>2026-08-29T17:47:01Z</time>
      </trkpt>
      <trkpt lat="43.82494" lon="1.7586">
        <ele>113.917878</ele>
        <time>2026-08-29T17:47:02Z</time>
      </trkpt>
      <trkpt lat="43.82493" lon="1.75853">
        <ele>113.881404</ele>
        <time>2026-08-29T17:47:03Z</time>
      </trkpt>
      <trkpt lat="43.82492" lon="1.75847">
        <ele>113.848139</ele>
        <time>2026-08-29T17:47:04Z</time>
      </trkpt>
      <trkpt lat="43.82491" lon="1.7584">
        <ele>113.815197</ele>
        <time>2026-08-29T17:47:05Z</time>
      </trkpt>
      <trkpt lat="43.82489" lon="1.75835">
        <ele>113.782837</ele>
        <time>2026-08-29T17:47:06Z</time>
      </trkpt>
      <trkpt lat="43.82488" lon="1.75829">
        <ele>113.749982</ele>
        <time>2026-08-29T17:47:07Z</time>
      </trkpt>
      <trkpt lat="43.82487" lon="1.75823">
        <ele>113.717342</ele>
        <time>2026-08-29T17:47:08Z</time>
      </trkpt>
      <trkpt lat="43.82485" lon="1.75816">
        <ele>113.683991</ele>
        <time>2026-08-29T17:47:09Z</time>
      </trkpt>
      <trkpt lat="43.82484" lon="1.7581">
        <ele>113.649147</ele>
        <time>2026-08-29T17:47:10Z</time>
      </trkpt>
      <trkpt lat="43.82482" lon="1.75804">
        <ele>113.615795</ele>
        <time>2026-08-29T17:47:11Z</time>
      </trkpt>
      <trkpt lat="43.82481" lon="1.75798">
        <ele>113.583435</ele>
        <time>2026-08-29T17:47:12Z</time>
      </trkpt>
      <trkpt lat="43.82479" lon="1.75792">
        <ele>113.54887</ele>
        <time>2026-08-29T17:47:13Z</time>
      </trkpt>
      <trkpt lat="43.82478" lon="1.75785">
        <ele>113.514026</ele>
        <time>2026-08-29T17:47:14Z</time>
      </trkpt>
      <trkpt lat="43.82477" lon="1.75779">
        <ele>113.479069</ele>
        <time>2026-08-29T17:47:15Z</time>
      </trkpt>
      <trkpt lat="43.82476" lon="1.75773">
        <ele>113.44512</ele>
        <time>2026-08-29T17:47:16Z</time>
      </trkpt>
      <trkpt lat="43.82474" lon="1.75766">
        <ele>113.411481</ele>
        <time>2026-08-29T17:47:17Z</time>
      </trkpt>
      <trkpt lat="43.82473" lon="1.7576">
        <ele>113.377532</ele>
        <time>2026-08-29T17:47:18Z</time>
      </trkpt>
      <trkpt lat="43.82472" lon="1.75754">
        <ele>113.345172</ele>
        <time>2026-08-29T17:47:19Z</time>
      </trkpt>
      <trkpt lat="43.82471" lon="1.75748">
        <ele>113.311401</ele>
        <time>2026-08-29T17:47:20Z</time>
      </trkpt>
      <trkpt lat="43.8247" lon="1.75741">
        <ele>113.2756</ele>
        <time>2026-08-29T17:47:21Z</time>
      </trkpt>
      <trkpt lat="43.82469" lon="1.75734">
        <ele>113.239953</ele>
        <time>2026-08-29T17:47:22Z</time>
      </trkpt>
      <trkpt lat="43.82468" lon="1.75728">
        <ele>113.205835</ele>
        <time>2026-08-29T17:47:23Z</time>
      </trkpt>
      <trkpt lat="43.82466" lon="1.75721">
        <ele>113.170542</ele>
        <time>2026-08-29T17:47:24Z</time>
      </trkpt>
      <trkpt lat="43.82465" lon="1.75715">
        <ele>113.133874</ele>
        <time>2026-08-29T17:47:25Z</time>
      </trkpt>
      <trkpt lat="43.82465" lon="1.75708">
        <ele>113.097054</ele>
        <time>2026-08-29T17:47:26Z</time>
      </trkpt>
      <trkpt lat="43.82464" lon="1.75701">
        <ele>113.061157</ele>
        <time>2026-08-29T17:47:27Z</time>
      </trkpt>
      <trkpt lat="43.82463" lon="1.75694">
        <ele>113.025981</ele>
        <time>2026-08-29T17:47:28Z</time>
      </trkpt>
      <trkpt lat="43.82463" lon="1.75688">
        <ele>112.992108</ele>
        <time>2026-08-29T17:47:29Z</time>
      </trkpt>
      <trkpt lat="43.82463" lon="1.75681">
        <ele>112.959276</ele>
        <time>2026-08-29T17:47:30Z</time>
      </trkpt>
      <trkpt lat="43.82463" lon="1.75675">
        <ele>112.926965</ele>
        <time>2026-08-29T17:47:31Z</time>
      </trkpt>
      <trkpt lat="43.82463" lon="1.75669">
        <ele>112.895174</ele>
        <time>2026-08-29T17:47:32Z</time>
      </trkpt>
      <trkpt lat="43.82463" lon="1.75663">
        <ele>112.862839</ele>
        <time>2026-08-29T17:47:33Z</time>
      </trkpt>
      <trkpt lat="43.82464" lon="1.75657">
        <ele>112.831445</ele>
        <time>2026-08-29T17:47:34Z</time>
      </trkpt>
      <trkpt lat="43.82464" lon="1.75651">
        <ele>112.799013</ele>
        <time>2026-08-29T17:47:35Z</time>
      </trkpt>
      <trkpt lat="43.82465" lon="1.75645">
        <ele>112.768103</ele>
        <time>2026-08-29T17:47:36Z</time>
      </trkpt>
      <trkpt lat="43.82466" lon="1.75639">
        <ele>112.735343</ele>
        <time>2026-08-29T17:47:37Z</time>
      </trkpt>
      <trkpt lat="43.82467" lon="1.75632">
        <ele>112.702015</ele>
        <time>2026-08-29T17:47:38Z</time>
      </trkpt>
      <trkpt lat="43.82468" lon="1.75625">
        <ele>112.673164</ele>
        <time>2026-08-29T17:47:39Z</time>
      </trkpt>
      <trkpt lat="43.82469" lon="1.75619">
        <ele>112.657493</ele>
        <time>2026-08-29T17:47:40Z</time>
      </trkpt>
      <trkpt lat="43.8247" lon="1.75612">
        <ele>112.642327</ele>
        <time>2026-08-29T17:47:41Z</time>
      </trkpt>
      <trkpt lat="43.8247" lon="1.75606">
        <ele>112.627993</ele>
        <time>2026-08-29T17:47:42Z</time>
      </trkpt>
      <trkpt lat="43.82471" lon="1.75599">
        <ele>112.613098</ele>
        <time>2026-08-29T17:47:43Z</time>
      </trkpt>
      <trkpt lat="43.82471" lon="1.75593">
        <ele>112.598256</ele>
        <time>2026-08-29T17:47:44Z</time>
      </trkpt>
      <trkpt lat="43.82471" lon="1.75586">
        <ele>112.584058</ele>
        <time>2026-08-29T17:47:45Z</time>
      </trkpt>
      <trkpt lat="43.8247" lon="1.7558">
        <ele>112.570102</ele>
        <time>2026-08-29T17:47:46Z</time>
      </trkpt>
      <trkpt lat="43.8247" lon="1.75574">
        <ele>112.556327</ele>
        <time>2026-08-29T17:47:47Z</time>
      </trkpt>
      <trkpt lat="43.82469" lon="1.75568">
        <ele>112.543638</ele>
        <time>2026-08-29T17:47:48Z</time>
      </trkpt>
      <trkpt lat="43.82469" lon="1.75563">
        <ele>112.531655</ele>
        <time>2026-08-29T17:47:49Z</time>
      </trkpt>
      <trkpt lat="43.82468" lon="1.75558">
        <ele>112.519538</ele>
        <time>2026-08-29T17:47:50Z</time>
      </trkpt>
      <trkpt lat="43.82468" lon="1.75552">
        <ele>112.507359</ele>
        <time>2026-08-29T17:47:51Z</time>
      </trkpt>
      <trkpt lat="43.82468" lon="1.75547">
        <ele>112.495648</ele>
        <time>2026-08-29T17:47:52Z</time>
      </trkpt>
      <trkpt lat="43.82468" lon="1.75542">
        <ele>112.484141</ele>
        <time>2026-08-29T17:47:53Z</time>
      </trkpt>
      <trkpt lat="43.82467" lon="1.75537">
        <ele>112.471994</ele>
        <time>2026-08-29T17:47:54Z</time>
      </trkpt>
      <trkpt lat="43.82467" lon="1.75531">
        <ele>112.459814</ele>
        <time>2026-08-29T17:47:55Z</time>
      </trkpt>
      <trkpt lat="43.82467" lon="1.75526">
        <ele>112.446861</ele>
        <time>2026-08-29T17:47:56Z</time>
      </trkpt>
      <trkpt lat="43.82466" lon="1.7552">
        <ele>112.434243</ele>
        <time>2026-08-29T17:47:57Z</time>
      </trkpt>
      <trkpt lat="43.82465" lon="1.75515">
        <ele>112.422287</ele>
        <time>2026-08-29T17:47:58Z</time>
      </trkpt>
      <trkpt lat="43.82464" lon="1.75509">
        <ele>112.409314</ele>
        <time>2026-08-29T17:47:59Z</time>
      </trkpt>
      <trkpt lat="43.82463" lon="1.75503">
        <ele>112.395529</ele>
        <time>2026-08-29T17:48:00Z</time>
      </trkpt>
      <trkpt lat="43.82462" lon="1.75497">
        <ele>112.381461</ele>
        <time>2026-08-29T17:48:01Z</time>
      </trkpt>
      <trkpt lat="43.82461" lon="1.75491">
        <ele>112.366808</ele>
        <time>2026-08-29T17:48:02Z</time>
      </trkpt>
      <trkpt lat="43.82459" lon="1.75485">
        <ele>112.352001</ele>
        <time>2026-08-29T17:48:03Z</time>
      </trkpt>
      <trkpt lat="43.82457" lon="1.75478">
        <ele>112.336664</ele>
        <time>2026-08-29T17:48:04Z</time>
      </trkpt>
      <trkpt lat="43.82456" lon="1.75472">
        <ele>112.32114</ele>
        <time>2026-08-29T17:48:05Z</time>
      </trkpt>
      <trkpt lat="43.82455" lon="1.75465">
        <ele>112.306269</ele>
        <time>2026-08-29T17:48:06Z</time>
      </trkpt>
      <trkpt lat="43.82453" lon="1.75459">
        <ele>112.291874</ele>
        <time>2026-08-29T17:48:07Z</time>
      </trkpt>
      <trkpt lat="43.82452" lon="1.75453">
        <ele>112.27791</ele>
        <time>2026-08-29T17:48:08Z</time>
      </trkpt>
      <trkpt lat="43.8245" lon="1.75447">
        <ele>112.263414</ele>
        <time>2026-08-29T17:48:09Z</time>
      </trkpt>
      <trkpt lat="43.82448" lon="1.75441">
        <ele>112.248078</ele>
        <time>2026-08-29T17:48:10Z</time>
      </trkpt>
      <trkpt lat="43.82447" lon="1.75435">
        <ele>112.232945</ele>
        <time>2026-08-29T17:48:11Z</time>
      </trkpt>
      <trkpt lat="43.82445" lon="1.75428">
        <ele>112.217397</ele>
        <time>2026-08-29T17:48:12Z</time>
      </trkpt>
      <trkpt lat="43.82444" lon="1.75422">
        <ele>112.202264</ele>
        <time>2026-08-29T17:48:13Z</time>
      </trkpt>
      <trkpt lat="43.82442" lon="1.75415">
        <ele>112.186362</ele>
        <time>2026-08-29T17:48:14Z</time>
      </trkpt>
      <trkpt lat="43.82441" lon="1.75408">
        <ele>112.170064</ele>
        <time>2026-08-29T17:48:15Z</time>
      </trkpt>
      <trkpt lat="43.82439" lon="1.75401">
        <ele>112.154288</ele>
        <time>2026-08-29T17:48:16Z</time>
      </trkpt>
      <trkpt lat="43.82438" lon="1.75394">
        <ele>112.137989</ele>
        <time>2026-08-29T17:48:17Z</time>
      </trkpt>
      <trkpt lat="43.82436" lon="1.75388">
        <ele>112.122519</ele>
        <time>2026-08-29T17:48:18Z</time>
      </trkpt>
      <trkpt lat="43.82435" lon="1.75381">
        <ele>112.11922</ele>
        <time>2026-08-29T17:48:19Z</time>
      </trkpt>
      <trkpt lat="43.82433" lon="1.75375">
        <ele>112.120399</ele>
        <time>2026-08-29T17:48:20Z</time>
      </trkpt>
      <trkpt lat="43.82432" lon="1.75368">
        <ele>112.121562</ele>
        <time>2026-08-29T17:48:21Z</time>
      </trkpt>
      <trkpt lat="43.82431" lon="1.75362">
        <ele>112.122767</ele>
        <time>2026-08-29T17:48:22Z</time>
      </trkpt>
      <trkpt lat="43.82429" lon="1.75355">
        <ele>112.123963</ele>
        <time>2026-08-29T17:48:23Z</time>
      </trkpt>
      <trkpt lat="43.82428" lon="1.75349">
        <ele>112.125116</ele>
        <time>2026-08-29T17:48:24Z</time>
      </trkpt>
      <trkpt lat="43.82426" lon="1.75342">
        <ele>112.126311</ele>
        <time>2026-08-29T17:48:25Z</time>
      </trkpt>
      <trkpt lat="43.82425" lon="1.75336">
        <ele>112.127507</ele>
        <time>2026-08-29T17:48:26Z</time>
      </trkpt>
      <trkpt lat="43.82424" lon="1.75329">
        <ele>112.128707</ele>
        <time>2026-08-29T17:48:27Z</time>
      </trkpt>
      <trkpt lat="43.82422" lon="1.75322">
        <ele>112.129919</ele>
        <time>2026-08-29T17:48:28Z</time>
      </trkpt>
      <trkpt lat="43.82421" lon="1.75315">
        <ele>112.131158</ele>
        <time>2026-08-29T17:48:29Z</time>
      </trkpt>
      <trkpt lat="43.8242" lon="1.75308">
        <ele>112.132409</ele>
        <time>2026-08-29T17:48:30Z</time>
      </trkpt>
      <trkpt lat="43.82419" lon="1.75301">
        <ele>112.133638</ele>
        <time>2026-08-29T17:48:31Z</time>
      </trkpt>
      <trkpt lat="43.82417" lon="1.75295">
        <ele>112.134857</ele>
        <time>2026-08-29T17:48:32Z</time>
      </trkpt>
      <trkpt lat="43.82416" lon="1.75288">
        <ele>112.136046</ele>
        <time>2026-08-29T17:48:33Z</time>
      </trkpt>
      <trkpt lat="43.82414" lon="1.75282">
        <ele>112.137225</ele>
        <time>2026-08-29T17:48:34Z</time>
      </trkpt>
      <trkpt lat="43.82413" lon="1.75275">
        <ele>112.138394</ele>
        <time>2026-08-29T17:48:35Z</time>
      </trkpt>
      <trkpt lat="43.82412" lon="1.75269">
        <ele>112.139583</ele>
        <time>2026-08-29T17:48:36Z</time>
      </trkpt>
      <trkpt lat="43.8241" lon="1.75262">
        <ele>112.140828</ele>
        <time>2026-08-29T17:48:37Z</time>
      </trkpt>
      <trkpt lat="43.82409" lon="1.75255">
        <ele>112.142017</ele>
        <time>2026-08-29T17:48:38Z</time>
      </trkpt>
      <trkpt lat="43.82409" lon="1.75248">
        <ele>112.143253</ele>
        <time>2026-08-29T17:48:39Z</time>
      </trkpt>
      <trkpt lat="43.82408" lon="1.75241">
        <ele>112.14451</ele>
        <time>2026-08-29T17:48:40Z</time>
      </trkpt>
      <trkpt lat="43.82407" lon="1.75234">
        <ele>112.145759</ele>
        <time>2026-08-29T17:48:41Z</time>
      </trkpt>
      <trkpt lat="43.82406" lon="1.75227">
        <ele>112.14697</ele>
        <time>2026-08-29T17:48:42Z</time>
      </trkpt>
      <trkpt lat="43.82405" lon="1.7522">
        <ele>112.148155</ele>
        <time>2026-08-29T17:48:43Z</time>
      </trkpt>
      <trkpt lat="43.82404" lon="1.75213">
        <ele>112.149356</ele>
        <time>2026-08-29T17:48:44Z</time>
      </trkpt>
      <trkpt lat="43.82403" lon="1.75207">
        <ele>112.150553</ele>
        <time>2026-08-29T17:48:45Z</time>
      </trkpt>
      <trkpt lat="43.82402" lon="1.752">
        <ele>112.151743</ele>
        <time>2026-08-29T17:48:46Z</time>
      </trkpt>
      <trkpt lat="43.82401" lon="1.75193">
        <ele>112.152915</ele>
        <time>2026-08-29T17:48:47Z</time>
      </trkpt>
      <trkpt lat="43.82401" lon="1.75186">
        <ele>112.154112</ele>
        <time>2026-08-29T17:48:48Z</time>
      </trkpt>
      <trkpt lat="43.824" lon="1.7518">
        <ele>112.155309</ele>
        <time>2026-08-29T17:48:49Z</time>
      </trkpt>
      <trkpt lat="43.82399" lon="1.75173">
        <ele>112.156562</ele>
        <time>2026-08-29T17:48:50Z</time>
      </trkpt>
      <trkpt lat="43.82398" lon="1.75166">
        <ele>112.157781</ele>
        <time>2026-08-29T17:48:51Z</time>
      </trkpt>
      <trkpt lat="43.82397" lon="1.75159">
        <ele>112.158992</ele>
        <time>2026-08-29T17:48:52Z</time>
      </trkpt>
      <trkpt lat="43.82396" lon="1.75152">
        <ele>112.160192</ele>
        <time>2026-08-29T17:48:53Z</time>
      </trkpt>
      <trkpt lat="43.82395" lon="1.75145">
        <ele>112.161415</ele>
        <time>2026-08-29T17:48:54Z</time>
      </trkpt>
      <trkpt lat="43.82394" lon="1.75138">
        <ele>112.161163</ele>
        <time>2026-08-29T17:48:55Z</time>
      </trkpt>
      <trkpt lat="43.82393" lon="1.75132">
        <ele>112.160516</ele>
        <time>2026-08-29T17:48:56Z</time>
      </trkpt>
      <trkpt lat="43.82393" lon="1.75125">
        <ele>112.1599</ele>
        <time>2026-08-29T17:48:57Z</time>
      </trkpt>
      <trkpt lat="43.82392" lon="1.75119">
        <ele>112.159275</ele>
        <time>2026-08-29T17:48:58Z</time>
      </trkpt>
      <trkpt lat="43.82392" lon="1.75113">
        <ele>112.158647</ele>
        <time>2026-08-29T17:48:59Z</time>
      </trkpt>
      <trkpt lat="43.82391" lon="1.75106">
        <ele>112.158037</ele>
        <time>2026-08-29T17:49:00Z</time>
      </trkpt>
      <trkpt lat="43.82391" lon="1.751">
        <ele>112.157438</ele>
        <time>2026-08-29T17:49:01Z</time>
      </trkpt>
      <trkpt lat="43.8239" lon="1.75094">
        <ele>112.156781</ele>
        <time>2026-08-29T17:49:02Z</time>
      </trkpt>
      <trkpt lat="43.82389" lon="1.75086">
        <ele>112.15607</ele>
        <time>2026-08-29T17:49:03Z</time>
      </trkpt>
      <trkpt lat="43.82388" lon="1.7508">
        <ele>112.1554</ele>
        <time>2026-08-29T17:49:04Z</time>
      </trkpt>
      <trkpt lat="43.82387" lon="1.75073">
        <ele>112.15472</ele>
        <time>2026-08-29T17:49:05Z</time>
      </trkpt>
      <trkpt lat="43.82387" lon="1.75066">
        <ele>112.15405</ele>
        <time>2026-08-29T17:49:06Z</time>
      </trkpt>
      <trkpt lat="43.82386" lon="1.75059">
        <ele>112.153392</ele>
        <time>2026-08-29T17:49:07Z</time>
      </trkpt>
      <trkpt lat="43.82385" lon="1.75053">
        <ele>112.152738</ele>
        <time>2026-08-29T17:49:08Z</time>
      </trkpt>
      <trkpt lat="43.82384" lon="1.75046">
        <ele>112.152068</ele>
        <time>2026-08-29T17:49:09Z</time>
      </trkpt>
      <trkpt lat="43.82383" lon="1.75039">
        <ele>112.151388</ele>
        <time>2026-08-29T17:49:10Z</time>
      </trkpt>
      <trkpt lat="43.82383" lon="1.75032">
        <ele>112.150737</ele>
        <time>2026-08-29T17:49:11Z</time>
      </trkpt>
      <trkpt lat="43.82382" lon="1.75026">
        <ele>112.150091</ele>
        <time>2026-08-29T17:49:12Z</time>
      </trkpt>
      <trkpt lat="43.82381" lon="1.75019">
        <ele>112.149425</ele>
        <time>2026-08-29T17:49:13Z</time>
      </trkpt>
      <trkpt lat="43.8238" lon="1.75012">
        <ele>112.148746</ele>
        <time>2026-08-29T17:49:14Z</time>
      </trkpt>
      <trkpt lat="43.82379" lon="1.75005">
        <ele>112.148076</ele>
        <time>2026-08-29T17:49:15Z</time>
      </trkpt>
      <trkpt lat="43.82378" lon="1.74998">
        <ele>112.147388</ele>
        <time>2026-08-29T17:49:16Z</time>
      </trkpt>
      <trkpt lat="43.82378" lon="1.74992">
        <ele>112.146708</ele>
        <time>2026-08-29T17:49:17Z</time>
      </trkpt>
      <trkpt lat="43.82377" lon="1.74984">
        <ele>112.146011</ele>
        <time>2026-08-29T17:49:18Z</time>
      </trkpt>
      <trkpt lat="43.82376" lon="1.74977">
        <ele>112.145303</ele>
        <time>2026-08-29T17:49:19Z</time>
      </trkpt>
      <trkpt lat="43.82375" lon="1.74971">
        <ele>112.144642</ele>
        <time>2026-08-29T17:49:20Z</time>
      </trkpt>
      <trkpt lat="43.82374" lon="1.74964">
        <ele>112.143991</ele>
        <time>2026-08-29T17:49:21Z</time>
      </trkpt>
      <trkpt lat="43.82374" lon="1.74957">
        <ele>112.143311</ele>
        <time>2026-08-29T17:49:22Z</time>
      </trkpt>
      <trkpt lat="43.82373" lon="1.7495">
        <ele>112.142603</ele>
        <time>2026-08-29T17:49:23Z</time>
      </trkpt>
      <trkpt lat="43.82372" lon="1.74943">
        <ele>112.141882</ele>
        <time>2026-08-29T17:49:24Z</time>
      </trkpt>
      <trkpt lat="43.82371" lon="1.74935">
        <ele>112.141183</ele>
        <time>2026-08-29T17:49:25Z</time>
      </trkpt>
      <trkpt lat="43.8237" lon="1.74928">
        <ele>112.140484</ele>
        <time>2026-08-29T17:49:26Z</time>
      </trkpt>
      <trkpt lat="43.82369" lon="1.74921">
        <ele>112.139783</ele>
        <time>2026-08-29T17:49:27Z</time>
      </trkpt>
      <trkpt lat="43.82369" lon="1.74914">
        <ele>112.139094</ele>
        <time>2026-08-29T17:49:28Z</time>
      </trkpt>
      <trkpt lat="43.82368" lon="1.74907">
        <ele>112.138393</ele>
        <time>2026-08-29T17:49:29Z</time>
      </trkpt>
      <trkpt lat="43.82367" lon="1.749">
        <ele>112.137699</ele>
        <time>2026-08-29T17:49:30Z</time>
      </trkpt>
      <trkpt lat="43.82366" lon="1.74893">
        <ele>112.131459</ele>
        <time>2026-08-29T17:49:31Z</time>
      </trkpt>
      <trkpt lat="43.82365" lon="1.74886">
        <ele>112.122165</ele>
        <time>2026-08-29T17:49:32Z</time>
      </trkpt>
      <trkpt lat="43.82364" lon="1.74879">
        <ele>112.112611</ele>
        <time>2026-08-29T17:49:33Z</time>
      </trkpt>
      <trkpt lat="43.82364" lon="1.74872">
        <ele>112.103161</ele>
        <time>2026-08-29T17:49:34Z</time>
      </trkpt>
      <trkpt lat="43.82363" lon="1.74865">
        <ele>112.093841</ele>
        <time>2026-08-29T17:49:35Z</time>
      </trkpt>
      <trkpt lat="43.82362" lon="1.74858">
        <ele>112.084651</ele>
        <time>2026-08-29T17:49:36Z</time>
      </trkpt>
      <trkpt lat="43.82361" lon="1.74851">
        <ele>112.07559</ele>
        <time>2026-08-29T17:49:37Z</time>
      </trkpt>
      <trkpt lat="43.82361" lon="1.74844">
        <ele>112.066863</ele>
        <time>2026-08-29T17:49:38Z</time>
      </trkpt>
      <trkpt lat="43.8236" lon="1.74838">
        <ele>112.058123</ele>
        <time>2026-08-29T17:49:39Z</time>
      </trkpt>
      <trkpt lat="43.82359" lon="1.74831">
        <ele>112.04929</ele>
        <time>2026-08-29T17:49:40Z</time>
      </trkpt>
      <trkpt lat="43.82358" lon="1.74824">
        <ele>112.040035</ele>
        <time>2026-08-29T17:49:41Z</time>
      </trkpt>
      <trkpt lat="43.82357" lon="1.74817">
        <ele>112.030036</ele>
        <time>2026-08-29T17:49:42Z</time>
      </trkpt>
      <trkpt lat="43.82356" lon="1.7481">
        <ele>112.020265</ele>
        <time>2026-08-29T17:49:43Z</time>
      </trkpt>
      <trkpt lat="43.82355" lon="1.74803">
        <ele>112.010815</ele>
        <time>2026-08-29T17:49:44Z</time>
      </trkpt>
      <trkpt lat="43.82354" lon="1.74796">
        <ele>112.001817</ele>
        <time>2026-08-29T17:49:45Z</time>
      </trkpt>
      <trkpt lat="43.82353" lon="1.74789">
        <ele>111.992208</ele>
        <time>2026-08-29T17:49:46Z</time>
      </trkpt>
      <trkpt lat="43.82352" lon="1.74782">
        <ele>111.982858</ele>
        <time>2026-08-29T17:49:47Z</time>
      </trkpt>
      <trkpt lat="43.82351" lon="1.74775">
        <ele>111.973637</ele>
        <time>2026-08-29T17:49:48Z</time>
      </trkpt>
      <trkpt lat="43.8235" lon="1.74768">
        <ele>111.964087</ele>
        <time>2026-08-29T17:49:49Z</time>
      </trkpt>
      <trkpt lat="43.82349" lon="1.74761">
        <ele>111.954703</ele>
        <time>2026-08-29T17:49:50Z</time>
      </trkpt>
      <trkpt lat="43.82349" lon="1.74753">
        <ele>111.944993</ele>
        <time>2026-08-29T17:49:51Z</time>
      </trkpt>
      <trkpt lat="43.82348" lon="1.74746">
        <ele>111.935383</ele>
        <time>2026-08-29T17:49:52Z</time>
      </trkpt>
      <trkpt lat="43.82347" lon="1.74739">
        <ele>111.925741</ele>
        <time>2026-08-29T17:49:53Z</time>
      </trkpt>
      <trkpt lat="43.82346" lon="1.74732">
        <ele>111.915969</ele>
        <time>2026-08-29T17:49:54Z</time>
      </trkpt>
      <trkpt lat="43.82345" lon="1.74725">
        <ele>111.906619</ele>
        <time>2026-08-29T17:49:55Z</time>
      </trkpt>
      <trkpt lat="43.82344" lon="1.74718">
        <ele>111.897325</ele>
        <time>2026-08-29T17:49:56Z</time>
      </trkpt>
      <trkpt lat="43.82343" lon="1.74711">
        <ele>111.888005</ele>
        <time>2026-08-29T17:49:57Z</time>
      </trkpt>
      <trkpt lat="43.82343" lon="1.74703">
        <ele>111.878451</ele>
        <time>2026-08-29T17:49:58Z</time>
      </trkpt>
      <trkpt lat="43.82342" lon="1.74696">
        <ele>111.869001</ele>
        <time>2026-08-29T17:49:59Z</time>
      </trkpt>
      <trkpt lat="43.82341" lon="1.74689">
        <ele>111.859521</ele>
        <time>2026-08-29T17:50:00Z</time>
      </trkpt>
      <trkpt lat="43.8234" lon="1.74682">
        <ele>111.8503</ele>
        <time>2026-08-29T17:50:01Z</time>
      </trkpt>
      <trkpt lat="43.82339" lon="1.74676">
        <ele>111.841552</ele>
        <time>2026-08-29T17:50:02Z</time>
      </trkpt>
      <trkpt lat="43.82339" lon="1.7467">
        <ele>111.833299</ele>
        <time>2026-08-29T17:50:03Z</time>
      </trkpt>
      <trkpt lat="43.82338" lon="1.74663">
        <ele>111.825073</ele>
        <time>2026-08-29T17:50:04Z</time>
      </trkpt>
      <trkpt lat="43.82337" lon="1.74657">
        <ele>111.81695</ele>
        <time>2026-08-29T17:50:05Z</time>
      </trkpt>
      <trkpt lat="43.82336" lon="1.74651">
        <ele>111.809667</ele>
        <time>2026-08-29T17:50:06Z</time>
      </trkpt>
      <trkpt lat="43.82336" lon="1.74645">
        <ele>111.810279</ele>
        <time>2026-08-29T17:50:07Z</time>
      </trkpt>
      <trkpt lat="43.82335" lon="1.74639">
        <ele>111.810892</ele>
        <time>2026-08-29T17:50:08Z</time>
      </trkpt>
      <trkpt lat="43.82334" lon="1.74633">
        <ele>111.811511</ele>
        <time>2026-08-29T17:50:09Z</time>
      </trkpt>
      <trkpt lat="43.82333" lon="1.74627">
        <ele>111.812102</ele>
        <time>2026-08-29T17:50:10Z</time>
      </trkpt>
      <trkpt lat="43.82332" lon="1.7462">
        <ele>111.812741</ele>
        <time>2026-08-29T17:50:11Z</time>
      </trkpt>
      <trkpt lat="43.82332" lon="1.74614">
        <ele>111.813354</ele>
        <time>2026-08-29T17:50:12Z</time>
      </trkpt>
      <trkpt lat="43.82331" lon="1.74608">
        <ele>111.81397</ele>
        <time>2026-08-29T17:50:13Z</time>
      </trkpt>
      <trkpt lat="43.8233" lon="1.74602">
        <ele>111.814577</ele>
        <time>2026-08-29T17:50:14Z</time>
      </trkpt>
      <trkpt lat="43.8233" lon="1.74596">
        <ele>111.815166</ele>
        <time>2026-08-29T17:50:15Z</time>
      </trkpt>
      <trkpt lat="43.82329" lon="1.7459">
        <ele>111.815754</ele>
        <time>2026-08-29T17:50:16Z</time>
      </trkpt>
      <trkpt lat="43.82328" lon="1.74584">
        <ele>111.816335</ele>
        <time>2026-08-29T17:50:17Z</time>
      </trkpt>
      <trkpt lat="43.82328" lon="1.74578">
        <ele>111.816921</ele>
        <time>2026-08-29T17:50:18Z</time>
      </trkpt>
      <trkpt lat="43.82327" lon="1.74572">
        <ele>111.817509</ele>
        <time>2026-08-29T17:50:19Z</time>
      </trkpt>
      <trkpt lat="43.82326" lon="1.74566">
        <ele>111.818138</ele>
        <time>2026-08-29T17:50:20Z</time>
      </trkpt>
      <trkpt lat="43.82325" lon="1.7456">
        <ele>111.818755</ele>
        <time>2026-08-29T17:50:21Z</time>
      </trkpt>
      <trkpt lat="43.82325" lon="1.74554">
        <ele>111.819375</ele>
        <time>2026-08-29T17:50:22Z</time>
      </trkpt>
      <trkpt lat="43.82324" lon="1.74547">
        <ele>111.820016</ele>
        <time>2026-08-29T17:50:23Z</time>
      </trkpt>
      <trkpt lat="43.82323" lon="1.74541">
        <ele>111.820655</ele>
        <time>2026-08-29T17:50:24Z</time>
      </trkpt>
      <trkpt lat="43.82322" lon="1.74535">
        <ele>111.82128</ele>
        <time>2026-08-29T17:50:25Z</time>
      </trkpt>
      <trkpt lat="43.82322" lon="1.74529">
        <ele>111.821876</ele>
        <time>2026-08-29T17:50:26Z</time>
      </trkpt>
      <trkpt lat="43.82321" lon="1.74523">
        <ele>111.822462</ele>
        <time>2026-08-29T17:50:27Z</time>
      </trkpt>
      <trkpt lat="43.8232" lon="1.74517">
        <ele>111.82307</ele>
        <time>2026-08-29T17:50:28Z</time>
      </trkpt>
      <trkpt lat="43.8232" lon="1.7451">
        <ele>111.823695</ele>
        <time>2026-08-29T17:50:29Z</time>
      </trkpt>
      <trkpt lat="43.82319" lon="1.74504">
        <ele>111.824315</ele>
        <time>2026-08-29T17:50:30Z</time>
      </trkpt>
      <trkpt lat="43.82318" lon="1.74498">
        <ele>111.824917</ele>
        <time>2026-08-29T17:50:31Z</time>
      </trkpt>
      <trkpt lat="43.82318" lon="1.74492">
        <ele>111.825533</ele>
        <time>2026-08-29T17:50:32Z</time>
      </trkpt>
      <trkpt lat="43.82317" lon="1.74486">
        <ele>111.82617</ele>
        <time>2026-08-29T17:50:33Z</time>
      </trkpt>
      <trkpt lat="43.82316" lon="1.74479">
        <ele>111.826777</ele>
        <time>2026-08-29T17:50:34Z</time>
      </trkpt>
      <trkpt lat="43.82315" lon="1.74473">
        <ele>111.827394</ele>
        <time>2026-08-29T17:50:35Z</time>
      </trkpt>
      <trkpt lat="43.82315" lon="1.74467">
        <ele>111.828021</ele>
        <time>2026-08-29T17:50:36Z</time>
      </trkpt>
      <trkpt lat="43.82314" lon="1.74461">
        <ele>111.828651</ele>
        <time>2026-08-29T17:50:37Z</time>
      </trkpt>
      <trkpt lat="43.82313" lon="1.74454">
        <ele>111.829273</ele>
        <time>2026-08-29T17:50:38Z</time>
      </trkpt>
      <trkpt lat="43.82312" lon="1.74448">
        <ele>111.829914</ele>
        <time>2026-08-29T17:50:39Z</time>
      </trkpt>
      <trkpt lat="43.82311" lon="1.74442">
        <ele>111.830546</ele>
        <time>2026-08-29T17:50:40Z</time>
      </trkpt>
      <trkpt lat="43.8231" lon="1.74436">
        <ele>111.831166</ele>
        <time>2026-08-29T17:50:41Z</time>
      </trkpt>
      <trkpt lat="43.8231" lon="1.74429">
        <ele>111.831781</ele>
        <time>2026-08-29T17:50:42Z</time>
      </trkpt>
      <trkpt lat="43.82309" lon="1.74423">
        <ele>111.832418</ele>
        <time>2026-08-29T17:50:43Z</time>
      </trkpt>
      <trkpt lat="43.82309" lon="1.74417">
        <ele>111.833033</ele>
        <time>2026-08-29T17:50:44Z</time>
      </trkpt>
      <trkpt lat="43.82308" lon="1.7441">
        <ele>111.833682</ele>
        <time>2026-08-29T17:50:45Z</time>
      </trkpt>
      <trkpt lat="43.82307" lon="1.74404">
        <ele>111.826373</ele>
        <time>2026-08-29T17:50:46Z</time>
      </trkpt>
      <trkpt lat="43.82306" lon="1.74398">
        <ele>111.801803</ele>
        <time>2026-08-29T17:50:47Z</time>
      </trkpt>
      <trkpt lat="43.82305" lon="1.74392">
        <ele>111.777709</ele>
        <time>2026-08-29T17:50:48Z</time>
      </trkpt>
      <trkpt lat="43.82305" lon="1.74386">
        <ele>111.754466</ele>
        <time>2026-08-29T17:50:49Z</time>
      </trkpt>
      <trkpt lat="43.82304" lon="1.7438">
        <ele>111.731527</ele>
        <time>2026-08-29T17:50:50Z</time>
      </trkpt>
      <trkpt lat="43.82304" lon="1.74374">
        <ele>111.708799</ele>
        <time>2026-08-29T17:50:51Z</time>
      </trkpt>
      <trkpt lat="43.82303" lon="1.74368">
        <ele>111.685625</ele>
        <time>2026-08-29T17:50:52Z</time>
      </trkpt>
      <trkpt lat="43.82302" lon="1.74362">
        <ele>111.662686</ele>
        <time>2026-08-29T17:50:53Z</time>
      </trkpt>
      <trkpt lat="43.82302" lon="1.74357">
        <ele>111.640131</ele>
        <time>2026-08-29T17:50:54Z</time>
      </trkpt>
      <trkpt lat="43.82301" lon="1.74351">
        <ele>111.617961</ele>
        <time>2026-08-29T17:50:55Z</time>
      </trkpt>
      <trkpt lat="43.823" lon="1.74345">
        <ele>111.59549</ele>
        <time>2026-08-29T17:50:56Z</time>
      </trkpt>
      <trkpt lat="43.823" lon="1.7434">
        <ele>111.572456</ele>
        <time>2026-08-29T17:50:57Z</time>
      </trkpt>
      <trkpt lat="43.82299" lon="1.74334">
        <ele>111.549985</ele>
        <time>2026-08-29T17:50:58Z</time>
      </trkpt>
      <trkpt lat="43.82299" lon="1.74328">
        <ele>111.528361</ele>
        <time>2026-08-29T17:50:59Z</time>
      </trkpt>
      <trkpt lat="43.82298" lon="1.74323">
        <ele>111.506575</ele>
        <time>2026-08-29T17:51:00Z</time>
      </trkpt>
      <trkpt lat="43.82297" lon="1.74317">
        <ele>111.48402</ele>
        <time>2026-08-29T17:51:01Z</time>
      </trkpt>
      <trkpt lat="43.82296" lon="1.74311">
        <ele>111.46031</ele>
        <time>2026-08-29T17:51:02Z</time>
      </trkpt>
      <trkpt lat="43.82295" lon="1.74305">
        <ele>111.436289</ele>
        <time>2026-08-29T17:51:03Z</time>
      </trkpt>
      <trkpt lat="43.82295" lon="1.74299">
        <ele>111.412765</ele>
        <time>2026-08-29T17:51:04Z</time>
      </trkpt>
      <trkpt lat="43.82294" lon="1.74293">
        <ele>111.38858</ele>
        <time>2026-08-29T17:51:05Z</time>
      </trkpt>
      <trkpt lat="43.82293" lon="1.74287">
        <ele>111.365337</ele>
        <time>2026-08-29T17:51:06Z</time>
      </trkpt>
      <trkpt lat="43.82292" lon="1.74281">
        <ele>111.342013</ele>
        <time>2026-08-29T17:51:07Z</time>
      </trkpt>
      <trkpt lat="43.82292" lon="1.74275">
        <ele>111.318303</ele>
        <time>2026-08-29T17:51:08Z</time>
      </trkpt>
      <trkpt lat="43.82291" lon="1.74269">
        <ele>111.294397</ele>
        <time>2026-08-29T17:51:09Z</time>
      </trkpt>
      <trkpt lat="43.8229" lon="1.74263">
        <ele>111.270596</ele>
        <time>2026-08-29T17:51:10Z</time>
      </trkpt>
      <trkpt lat="43.8229" lon="1.74257">
        <ele>111.247035</ele>
        <time>2026-08-29T17:51:11Z</time>
      </trkpt>
      <trkpt lat="43.82289" lon="1.74251">
        <ele>111.222364</ele>
        <time>2026-08-29T17:51:12Z</time>
      </trkpt>
      <trkpt lat="43.82288" lon="1.74245">
        <ele>111.199425</ele>
        <time>2026-08-29T17:51:13Z</time>
      </trkpt>
      <trkpt lat="43.82288" lon="1.7424">
        <ele>111.177425</ele>
        <time>2026-08-29T17:51:14Z</time>
      </trkpt>
      <trkpt lat="43.82287" lon="1.74234">
        <ele>111.155255</ele>
        <time>2026-08-29T17:51:15Z</time>
      </trkpt>
      <trkpt lat="43.82286" lon="1.74229">
        <ele>111.132784</ele>
        <time>2026-08-29T17:51:16Z</time>
      </trkpt>
      <trkpt lat="43.82286" lon="1.74223">
        <ele>111.10946</ele>
        <time>2026-08-29T17:51:17Z</time>
      </trkpt>
      <trkpt lat="43.82285" lon="1.74216">
        <ele>111.084891</ele>
        <time>2026-08-29T17:51:18Z</time>
      </trkpt>
      <trkpt lat="43.82284" lon="1.7421">
        <ele>111.060603</ele>
        <time>2026-08-29T17:51:19Z</time>
      </trkpt>
      <trkpt lat="43.82283" lon="1.74205">
        <ele>111.037951</ele>
        <time>2026-08-29T17:51:20Z</time>
      </trkpt>
      <trkpt lat="43.82282" lon="1.74199">
        <ele>111.014309</ele>
        <time>2026-08-29T17:51:21Z</time>
      </trkpt>
      <trkpt lat="43.82281" lon="1.74193">
        <ele>110.990772</ele>
        <time>2026-08-29T17:51:22Z</time>
      </trkpt>
      <trkpt lat="43.8228" lon="1.74187">
        <ele>110.968132</ele>
        <time>2026-08-29T17:51:23Z</time>
      </trkpt>
      <trkpt lat="43.82279" lon="1.74182">
        <ele>110.946892</ele>
        <time>2026-08-29T17:51:24Z</time>
      </trkpt>
      <trkpt lat="43.82278" lon="1.74178">
        <ele>110.929131</ele>
        <time>2026-08-29T17:51:25Z</time>
      </trkpt>
      <trkpt lat="43.82277" lon="1.74173">
        <ele>110.909407</ele>
        <time>2026-08-29T17:51:26Z</time>
      </trkpt>
      <trkpt lat="43.82277" lon="1.74168">
        <ele>110.89057</ele>
        <time>2026-08-29T17:51:27Z</time>
      </trkpt>
      <trkpt lat="43.82276" lon="1.74163">
        <ele>110.871455</ele>
        <time>2026-08-29T17:51:28Z</time>
      </trkpt>
      <trkpt lat="43.82275" lon="1.74158">
        <ele>110.852206</ele>
        <time>2026-08-29T17:51:29Z</time>
      </trkpt>
      <trkpt lat="43.82274" lon="1.74153">
        <ele>110.832448</ele>
        <time>2026-08-29T17:51:30Z</time>
      </trkpt>
      <trkpt lat="43.82273" lon="1.74147">
        <ele>110.811292</ele>
        <time>2026-08-29T17:51:31Z</time>
      </trkpt>
      <trkpt lat="43.82272" lon="1.74142">
        <ele>110.790349</ele>
        <time>2026-08-29T17:51:32Z</time>
      </trkpt>
      <trkpt lat="43.82271" lon="1.74136">
        <ele>110.770711</ele>
        <time>2026-08-29T17:51:33Z</time>
      </trkpt>
      <trkpt lat="43.8227" lon="1.74131">
        <ele>110.750255</ele>
        <time>2026-08-29T17:51:34Z</time>
      </trkpt>
      <trkpt lat="43.82269" lon="1.74125">
        <ele>110.730148</ele>
        <time>2026-08-29T17:51:35Z</time>
      </trkpt>
      <trkpt lat="43.82268" lon="1.7412">
        <ele>110.710604</ele>
        <time>2026-08-29T17:51:36Z</time>
      </trkpt>
      <trkpt lat="43.82267" lon="1.74115">
        <ele>110.690846</ele>
        <time>2026-08-29T17:51:37Z</time>
      </trkpt>
      <trkpt lat="43.82266" lon="1.7411">
        <ele>110.67261</ele>
        <time>2026-08-29T17:51:38Z</time>
      </trkpt>
      <trkpt lat="43.82265" lon="1.74105">
        <ele>110.653324</ele>
        <time>2026-08-29T17:51:39Z</time>
      </trkpt>
      <trkpt lat="43.82264" lon="1.741">
        <ele>110.634246</ele>
        <time>2026-08-29T17:51:40Z</time>
      </trkpt>
      <trkpt lat="43.82264" lon="1.74094">
        <ele>110.615072</ele>
        <time>2026-08-29T17:51:41Z</time>
      </trkpt>
      <trkpt lat="43.82264" lon="1.74089">
        <ele>110.596928</ele>
        <time>2026-08-29T17:51:42Z</time>
      </trkpt>
      <trkpt lat="43.82265" lon="1.74085">
        <ele>110.580218</ele>
        <time>2026-08-29T17:51:43Z</time>
      </trkpt>
      <trkpt lat="43.82265" lon="1.7408">
        <ele>110.564341</ele>
        <time>2026-08-29T17:51:44Z</time>
      </trkpt>
      <trkpt lat="43.82264" lon="1.74076">
        <ele>110.549344</ele>
        <time>2026-08-29T17:51:45Z</time>
      </trkpt>
      <trkpt lat="43.82263" lon="1.74072">
        <ele>110.534384</ele>
        <time>2026-08-29T17:51:46Z</time>
      </trkpt>
      <trkpt lat="43.82262" lon="1.74069">
        <ele>110.519077</ele>
        <time>2026-08-29T17:51:47Z</time>
      </trkpt>
      <trkpt lat="43.8226" lon="1.74065">
        <ele>110.504879</ele>
        <time>2026-08-29T17:51:48Z</time>
      </trkpt>
      <trkpt lat="43.82259" lon="1.74062">
        <ele>110.491319</ele>
        <time>2026-08-29T17:51:49Z</time>
      </trkpt>
      <trkpt lat="43.82258" lon="1.74059">
        <ele>110.478312</ele>
        <time>2026-08-29T17:51:50Z</time>
      </trkpt>
      <trkpt lat="43.82257" lon="1.74056">
        <ele>110.465305</ele>
        <time>2026-08-29T17:51:51Z</time>
      </trkpt>
      <trkpt lat="43.82256" lon="1.74052">
        <ele>110.453496</ele>
        <time>2026-08-29T17:51:52Z</time>
      </trkpt>
      <trkpt lat="43.82256" lon="1.7405">
        <ele>110.446571</ele>
        <time>2026-08-29T17:51:53Z</time>
      </trkpt>
      <trkpt lat="43.82255" lon="1.7405">
        <ele>110.443969</ele>
        <time>2026-08-29T17:51:54Z</time>
      </trkpt>
      <trkpt lat="43.82256" lon="1.7405">
        <ele>110.441938</ele>
        <time>2026-08-29T17:51:55Z</time>
      </trkpt>
      <trkpt lat="43.82251" lon="1.74037">
        <ele>110.387853</ele>
        <time>2026-08-29T17:54:18Z</time>
      </trkpt>
      <trkpt lat="43.8225" lon="1.74034">
        <ele>110.376126</ele>
        <time>2026-08-29T17:54:19Z</time>
      </trkpt>
      <trkpt lat="43.82248" lon="1.74031">
        <ele>110.361786</ele>
        <time>2026-08-29T17:54:20Z</time>
      </trkpt>
      <trkpt lat="43.82247" lon="1.74027">
        <ele>110.345605</ele>
        <time>2026-08-29T17:54:21Z</time>
      </trkpt>
      <trkpt lat="43.82245" lon="1.74023">
        <ele>110.328236</ele>
        <time>2026-08-29T17:54:22Z</time>
      </trkpt>
      <trkpt lat="43.82243" lon="1.74019">
        <ele>110.311493</ele>
        <time>2026-08-29T17:54:23Z</time>
      </trkpt>
      <trkpt lat="43.82242" lon="1.74015">
        <ele>110.294124</ele>
        <time>2026-08-29T17:54:24Z</time>
      </trkpt>
      <trkpt lat="43.8224" lon="1.7401">
        <ele>110.27563</ele>
        <time>2026-08-29T17:54:25Z</time>
      </trkpt>
      <trkpt lat="43.82238" lon="1.74006">
        <ele>110.256903</ele>
        <time>2026-08-29T17:54:26Z</time>
      </trkpt>
      <trkpt lat="43.82236" lon="1.74001">
        <ele>110.237533</ele>
        <time>2026-08-29T17:54:27Z</time>
      </trkpt>
      <trkpt lat="43.82233" lon="1.73996">
        <ele>110.216449</ele>
        <time>2026-08-29T17:54:28Z</time>
      </trkpt>
      <trkpt lat="43.82231" lon="1.73992">
        <ele>110.196545</ele>
        <time>2026-08-29T17:54:29Z</time>
      </trkpt>
      <trkpt lat="43.82229" lon="1.73987">
        <ele>110.176553</ele>
        <time>2026-08-29T17:54:30Z</time>
      </trkpt>
      <trkpt lat="43.82227" lon="1.73982">
        <ele>110.155998</ele>
        <time>2026-08-29T17:54:31Z</time>
      </trkpt>
      <trkpt lat="43.82225" lon="1.73977">
        <ele>110.135694</ele>
        <time>2026-08-29T17:54:32Z</time>
      </trkpt>
      <trkpt lat="43.82223" lon="1.73972">
        <ele>110.115702</ele>
        <time>2026-08-29T17:54:33Z</time>
      </trkpt>
      <trkpt lat="43.82221" lon="1.73968">
        <ele>110.09492</ele>
        <time>2026-08-29T17:54:34Z</time>
      </trkpt>
      <trkpt lat="43.82218" lon="1.73963">
        <ele>110.073858</ele>
        <time>2026-08-29T17:54:35Z</time>
      </trkpt>
      <trkpt lat="43.82216" lon="1.73958">
        <ele>110.052498</ele>
        <time>2026-08-29T17:54:36Z</time>
      </trkpt>
      <trkpt lat="43.82214" lon="1.73953">
        <ele>110.030838</ele>
        <time>2026-08-29T17:54:37Z</time>
      </trkpt>
      <trkpt lat="43.82211" lon="1.73948">
        <ele>110.008878</ele>
        <time>2026-08-29T17:54:38Z</time>
      </trkpt>
      <trkpt lat="43.82209" lon="1.73942">
        <ele>109.986571</ele>
        <time>2026-08-29T17:54:39Z</time>
      </trkpt>
      <trkpt lat="43.82206" lon="1.73937">
        <ele>109.963733</ele>
        <time>2026-08-29T17:54:40Z</time>
      </trkpt>
      <trkpt lat="43.82204" lon="1.73932">
        <ele>109.958747</ele>
        <time>2026-08-29T17:54:41Z</time>
      </trkpt>
      <trkpt lat="43.82202" lon="1.73927">
        <ele>109.954683</ele>
        <time>2026-08-29T17:54:42Z</time>
      </trkpt>
      <trkpt lat="43.82199" lon="1.73922">
        <ele>109.950456</ele>
        <time>2026-08-29T17:54:43Z</time>
      </trkpt>
      <trkpt lat="43.82197" lon="1.73917">
        <ele>109.946173</ele>
        <time>2026-08-29T17:54:44Z</time>
      </trkpt>
      <trkpt lat="43.82194" lon="1.73912">
        <ele>109.94189</ele>
        <time>2026-08-29T17:54:45Z</time>
      </trkpt>
      <trkpt lat="43.82192" lon="1.73906">
        <ele>109.93744</ele>
        <time>2026-08-29T17:54:46Z</time>
      </trkpt>
      <trkpt lat="43.82189" lon="1.73901">
        <ele>109.933042</ele>
        <time>2026-08-29T17:54:47Z</time>
      </trkpt>
      <trkpt lat="43.82186" lon="1.73896">
        <ele>109.928595</ele>
        <time>2026-08-29T17:54:48Z</time>
      </trkpt>
      <trkpt lat="43.82184" lon="1.7389">
        <ele>109.924087</ele>
        <time>2026-08-29T17:54:49Z</time>
      </trkpt>
      <trkpt lat="43.82181" lon="1.73885">
        <ele>109.919584</ele>
        <time>2026-08-29T17:54:50Z</time>
      </trkpt>
      <trkpt lat="43.82178" lon="1.73879">
        <ele>109.915019</ele>
        <time>2026-08-29T17:54:51Z</time>
      </trkpt>
      <trkpt lat="43.82176" lon="1.73874">
        <ele>109.910736</ele>
        <time>2026-08-29T17:54:52Z</time>
      </trkpt>
      <trkpt lat="43.82174" lon="1.73869">
        <ele>109.906562</ele>
        <time>2026-08-29T17:54:53Z</time>
      </trkpt>
      <trkpt lat="43.82171" lon="1.73864">
        <ele>109.90244</ele>
        <time>2026-08-29T17:54:54Z</time>
      </trkpt>
      <trkpt lat="43.82169" lon="1.73858">
        <ele>109.898092</ele>
        <time>2026-08-29T17:54:55Z</time>
      </trkpt>
      <trkpt lat="43.82166" lon="1.73853">
        <ele>109.893585</ele>
        <time>2026-08-29T17:54:56Z</time>
      </trkpt>
      <trkpt lat="43.82164" lon="1.73847">
        <ele>109.889214</ele>
        <time>2026-08-29T17:54:57Z</time>
      </trkpt>
      <trkpt lat="43.82162" lon="1.73842">
        <ele>109.884808</ele>
        <time>2026-08-29T17:54:58Z</time>
      </trkpt>
      <trkpt lat="43.82159" lon="1.73836">
        <ele>109.880377</ele>
        <time>2026-08-29T17:54:59Z</time>
      </trkpt>
      <trkpt lat="43.82157" lon="1.7383">
        <ele>109.876033</ele>
        <time>2026-08-29T17:55:00Z</time>
      </trkpt>
      <trkpt lat="43.82156" lon="1.73825">
        <ele>109.871893</ele>
        <time>2026-08-29T17:55:01Z</time>
      </trkpt>
      <trkpt lat="43.82154" lon="1.73819">
        <ele>109.867527</ele>
        <time>2026-08-29T17:55:02Z</time>
      </trkpt>
      <trkpt lat="43.82152" lon="1.73813">
        <ele>109.863044</ele>
        <time>2026-08-29T17:55:03Z</time>
      </trkpt>
      <trkpt lat="43.8215" lon="1.73807">
        <ele>109.858852</ele>
        <time>2026-08-29T17:55:04Z</time>
      </trkpt>
      <trkpt lat="43.82149" lon="1.73802">
        <ele>109.854672</ele>
        <time>2026-08-29T17:55:05Z</time>
      </trkpt>
      <trkpt lat="43.82147" lon="1.73797">
        <ele>109.850572</ele>
        <time>2026-08-29T17:55:06Z</time>
      </trkpt>
      <trkpt lat="43.82145" lon="1.73791">
        <ele>109.846534</ele>
        <time>2026-08-29T17:55:07Z</time>
      </trkpt>
      <trkpt lat="43.82143" lon="1.73786">
        <ele>109.842394</ele>
        <time>2026-08-29T17:55:08Z</time>
      </trkpt>
      <trkpt lat="43.82141" lon="1.7378">
        <ele>109.838316</ele>
        <time>2026-08-29T17:55:09Z</time>
      </trkpt>
      <trkpt lat="43.82139" lon="1.73775">
        <ele>109.834051</ele>
        <time>2026-08-29T17:55:10Z</time>
      </trkpt>
      <trkpt lat="43.82138" lon="1.73769">
        <ele>109.829696</ele>
        <time>2026-08-29T17:55:11Z</time>
      </trkpt>
      <trkpt lat="43.82136" lon="1.73763">
        <ele>109.825517</ele>
        <time>2026-08-29T17:55:12Z</time>
      </trkpt>
      <trkpt lat="43.82134" lon="1.73758">
        <ele>109.821603</ele>
        <time>2026-08-29T17:55:13Z</time>
      </trkpt>
      <trkpt lat="43.82133" lon="1.73752">
        <ele>109.817411</ele>
        <time>2026-08-29T17:55:14Z</time>
      </trkpt>
      <trkpt lat="43.82131" lon="1.73747">
        <ele>109.813271</ele>
        <time>2026-08-29T17:55:15Z</time>
      </trkpt>
      <trkpt lat="43.82129" lon="1.73742">
        <ele>109.809186</ele>
        <time>2026-08-29T17:55:16Z</time>
      </trkpt>
      <trkpt lat="43.82126" lon="1.73737">
        <ele>109.805239</ele>
        <time>2026-08-29T17:55:17Z</time>
      </trkpt>
      <trkpt lat="43.82124" lon="1.73731">
        <ele>109.800833</ele>
        <time>2026-08-29T17:55:18Z</time>
      </trkpt>
      <trkpt lat="43.82122" lon="1.73726">
        <ele>109.796652</ele>
        <time>2026-08-29T17:55:19Z</time>
      </trkpt>
      <trkpt lat="43.82119" lon="1.73721">
        <ele>109.792627</ele>
        <time>2026-08-29T17:55:20Z</time>
      </trkpt>
      <trkpt lat="43.82118" lon="1.73716">
        <ele>109.79984</ele>
        <time>2026-08-29T17:55:21Z</time>
      </trkpt>
      <trkpt lat="43.82116" lon="1.73711">
        <ele>109.811511</ele>
        <time>2026-08-29T17:55:22Z</time>
      </trkpt>
      <trkpt lat="43.82114" lon="1.73706">
        <ele>109.823002</ele>
        <time>2026-08-29T17:55:23Z</time>
      </trkpt>
      <trkpt lat="43.82112" lon="1.73701">
        <ele>109.835165</ele>
        <time>2026-08-29T17:55:24Z</time>
      </trkpt>
      <trkpt lat="43.82109" lon="1.73696">
        <ele>109.846875</ele>
        <time>2026-08-29T17:55:25Z</time>
      </trkpt>
      <trkpt lat="43.82107" lon="1.73691">
        <ele>109.858933</ele>
        <time>2026-08-29T17:55:26Z</time>
      </trkpt>
      <trkpt lat="43.82105" lon="1.73686">
        <ele>109.870808</ele>
        <time>2026-08-29T17:55:27Z</time>
      </trkpt>
      <trkpt lat="43.82103" lon="1.73681">
        <ele>109.881819</ele>
        <time>2026-08-29T17:55:28Z</time>
      </trkpt>
      <trkpt lat="43.82102" lon="1.73676">
        <ele>109.892838</ele>
        <time>2026-08-29T17:55:29Z</time>
      </trkpt>
      <trkpt lat="43.82101" lon="1.73671">
        <ele>109.903451</ele>
        <time>2026-08-29T17:55:30Z</time>
      </trkpt>
      <trkpt lat="43.82101" lon="1.73666">
        <ele>109.913681</ele>
        <time>2026-08-29T17:55:31Z</time>
      </trkpt>
      <trkpt lat="43.821" lon="1.73661">
        <ele>109.924038</ele>
        <time>2026-08-29T17:55:32Z</time>
      </trkpt>
      <trkpt lat="43.82099" lon="1.73656">
        <ele>109.934085</ele>
        <time>2026-08-29T17:55:33Z</time>
      </trkpt>
      <trkpt lat="43.82098" lon="1.73651">
        <ele>109.946477</ele>
        <time>2026-08-29T17:55:34Z</time>
      </trkpt>
      <trkpt lat="43.82097" lon="1.73644">
        <ele>109.96012</ele>
        <time>2026-08-29T17:55:35Z</time>
      </trkpt>
      <trkpt lat="43.82095" lon="1.73637">
        <ele>109.974774</ele>
        <time>2026-08-29T17:55:36Z</time>
      </trkpt>
      <trkpt lat="43.82094" lon="1.73631">
        <ele>109.987972</ele>
        <time>2026-08-29T17:55:37Z</time>
      </trkpt>
      <trkpt lat="43.82092" lon="1.73625">
        <ele>110.001412</ele>
        <time>2026-08-29T17:55:38Z</time>
      </trkpt>
      <trkpt lat="43.82089" lon="1.73619">
        <ele>110.014245</ele>
        <time>2026-08-29T17:55:39Z</time>
      </trkpt>
      <trkpt lat="43.82087" lon="1.73614">
        <ele>110.027525</ele>
        <time>2026-08-29T17:55:40Z</time>
      </trkpt>
      <trkpt lat="43.82086" lon="1.73608">
        <ele>110.040152</ele>
        <time>2026-08-29T17:55:41Z</time>
      </trkpt>
      <trkpt lat="43.82084" lon="1.73603">
        <ele>110.052248</ele>
        <time>2026-08-29T17:55:42Z</time>
      </trkpt>
      <trkpt lat="43.82082" lon="1.73596">
        <ele>110.066115</ele>
        <time>2026-08-29T17:55:43Z</time>
      </trkpt>
      <trkpt lat="43.82079" lon="1.73591">
        <ele>110.07962</ele>
        <time>2026-08-29T17:55:44Z</time>
      </trkpt>
      <trkpt lat="43.82077" lon="1.73585">
        <ele>110.093306</ele>
        <time>2026-08-29T17:55:45Z</time>
      </trkpt>
      <trkpt lat="43.82075" lon="1.73579">
        <ele>110.106902</ele>
        <time>2026-08-29T17:55:46Z</time>
      </trkpt>
      <trkpt lat="43.82072" lon="1.73573">
        <ele>110.12103</ele>
        <time>2026-08-29T17:55:47Z</time>
      </trkpt>
      <trkpt lat="43.8207" lon="1.73567">
        <ele>110.134774</ele>
        <time>2026-08-29T17:55:48Z</time>
      </trkpt>
      <trkpt lat="43.82068" lon="1.73561">
        <ele>110.148724</ele>
        <time>2026-08-29T17:55:49Z</time>
      </trkpt>
      <trkpt lat="43.82066" lon="1.73555">
        <ele>110.162049</ele>
        <time>2026-08-29T17:55:50Z</time>
      </trkpt>
      <trkpt lat="43.82064" lon="1.73549">
        <ele>110.175245</ele>
        <time>2026-08-29T17:55:51Z</time>
      </trkpt>
      <trkpt lat="43.82061" lon="1.73543">
        <ele>110.18875</ele>
        <time>2026-08-29T17:55:52Z</time>
      </trkpt>
      <trkpt lat="43.82059" lon="1.73537">
        <ele>110.202346</ele>
        <time>2026-08-29T17:55:53Z</time>
      </trkpt>
      <trkpt lat="43.82057" lon="1.73531">
        <ele>110.215541</ele>
        <time>2026-08-29T17:55:54Z</time>
      </trkpt>
      <trkpt lat="43.82055" lon="1.73525">
        <ele>110.229537</ele>
        <time>2026-08-29T17:55:55Z</time>
      </trkpt>
      <trkpt lat="43.82052" lon="1.73519">
        <ele>110.243595</ele>
        <time>2026-08-29T17:55:56Z</time>
      </trkpt>
      <trkpt lat="43.8205" lon="1.73514">
        <ele>110.256412</ele>
        <time>2026-08-29T17:55:57Z</time>
      </trkpt>
      <trkpt lat="43.82049" lon="1.73508">
        <ele>110.268849</ele>
        <time>2026-08-29T17:55:58Z</time>
      </trkpt>
      <trkpt lat="43.82048" lon="1.73502">
        <ele>110.281314</ele>
        <time>2026-08-29T17:55:59Z</time>
      </trkpt>
      <trkpt lat="43.82045" lon="1.73496">
        <ele>110.29451</ele>
        <time>2026-08-29T17:56:00Z</time>
      </trkpt>
      <trkpt lat="43.82044" lon="1.7349">
        <ele>110.300368</ele>
        <time>2026-08-29T17:56:01Z</time>
      </trkpt>
      <trkpt lat="43.82042" lon="1.73484">
        <ele>110.302966</ele>
        <time>2026-08-29T17:56:02Z</time>
      </trkpt>
      <trkpt lat="43.82041" lon="1.73478">
        <ele>110.305457</ele>
        <time>2026-08-29T17:56:03Z</time>
      </trkpt>
      <trkpt lat="43.8204" lon="1.73472">
        <ele>110.308083</ele>
        <time>2026-08-29T17:56:04Z</time>
      </trkpt>
      <trkpt lat="43.82038" lon="1.73466">
        <ele>110.310997</ele>
        <time>2026-08-29T17:56:05Z</time>
      </trkpt>
      <trkpt lat="43.82036" lon="1.73459">
        <ele>110.313979</ele>
        <time>2026-08-29T17:56:06Z</time>
      </trkpt>
      <trkpt lat="43.82034" lon="1.73453">
        <ele>110.317086</ele>
        <time>2026-08-29T17:56:07Z</time>
      </trkpt>
      <trkpt lat="43.82031" lon="1.73446">
        <ele>110.320219</ele>
        <time>2026-08-29T17:56:08Z</time>
      </trkpt>
      <trkpt lat="43.82028" lon="1.73439">
        <ele>110.323443</ele>
        <time>2026-08-29T17:56:09Z</time>
      </trkpt>
      <trkpt lat="43.82026" lon="1.73433">
        <ele>110.326523</ele>
        <time>2026-08-29T17:56:10Z</time>
      </trkpt>
      <trkpt lat="43.82023" lon="1.73427">
        <ele>110.329456</ele>
        <time>2026-08-29T17:56:11Z</time>
      </trkpt>
      <trkpt lat="43.8202" lon="1.73421">
        <ele>110.332353</ele>
        <time>2026-08-29T17:56:12Z</time>
      </trkpt>
      <trkpt lat="43.82017" lon="1.73416">
        <ele>110.335151</ele>
        <time>2026-08-29T17:56:13Z</time>
      </trkpt>
      <trkpt lat="43.82014" lon="1.7341">
        <ele>110.338091</ele>
        <time>2026-08-29T17:56:14Z</time>
      </trkpt>
      <trkpt lat="43.8201" lon="1.73405">
        <ele>110.340968</ele>
        <time>2026-08-29T17:56:15Z</time>
      </trkpt>
      <trkpt lat="43.82007" lon="1.734">
        <ele>110.343961</ele>
        <time>2026-08-29T17:56:16Z</time>
      </trkpt>
      <trkpt lat="43.82003" lon="1.73395">
        <ele>110.347024</ele>
        <time>2026-08-29T17:56:17Z</time>
      </trkpt>
      <trkpt lat="43.82" lon="1.73389">
        <ele>110.350078</ele>
        <time>2026-08-29T17:56:18Z</time>
      </trkpt>
      <trkpt lat="43.81996" lon="1.73384">
        <ele>110.353094</ele>
        <time>2026-08-29T17:56:19Z</time>
      </trkpt>
      <trkpt lat="43.81992" lon="1.73379">
        <ele>110.356308</ele>
        <time>2026-08-29T17:56:20Z</time>
      </trkpt>
      <trkpt lat="43.81988" lon="1.73374">
        <ele>110.359302</ele>
        <time>2026-08-29T17:56:21Z</time>
      </trkpt>
      <trkpt lat="43.81985" lon="1.73369">
        <ele>110.362225</ele>
        <time>2026-08-29T17:56:22Z</time>
      </trkpt>
      <trkpt lat="43.81981" lon="1.73364">
        <ele>110.36506</ele>
        <time>2026-08-29T17:56:23Z</time>
      </trkpt>
      <trkpt lat="43.81978" lon="1.73358">
        <ele>110.367963</ele>
        <time>2026-08-29T17:56:24Z</time>
      </trkpt>
      <trkpt lat="43.81975" lon="1.73353">
        <ele>110.370893</ele>
        <time>2026-08-29T17:56:25Z</time>
      </trkpt>
      <trkpt lat="43.81972" lon="1.73347">
        <ele>110.373723</ele>
        <time>2026-08-29T17:56:26Z</time>
      </trkpt>
      <trkpt lat="43.81969" lon="1.73341">
        <ele>110.376758</ele>
        <time>2026-08-29T17:56:27Z</time>
      </trkpt>
      <trkpt lat="43.81966" lon="1.73335">
        <ele>110.37979</ele>
        <time>2026-08-29T17:56:28Z</time>
      </trkpt>
      <trkpt lat="43.81963" lon="1.73329">
        <ele>110.382856</ele>
        <time>2026-08-29T17:56:29Z</time>
      </trkpt>
      <trkpt lat="43.8196" lon="1.73323">
        <ele>110.385856</ele>
        <time>2026-08-29T17:56:30Z</time>
      </trkpt>
      <trkpt lat="43.81957" lon="1.73318">
        <ele>110.388856</ele>
        <time>2026-08-29T17:56:31Z</time>
      </trkpt>
      <trkpt lat="43.81954" lon="1.73312">
        <ele>110.391925</ele>
        <time>2026-08-29T17:56:32Z</time>
      </trkpt>
      <trkpt lat="43.81951" lon="1.73306">
        <ele>110.394759</ele>
        <time>2026-08-29T17:56:33Z</time>
      </trkpt>
      <trkpt lat="43.81947" lon="1.73301">
        <ele>110.397605</ele>
        <time>2026-08-29T17:56:34Z</time>
      </trkpt>
      <trkpt lat="43.81944" lon="1.73296">
        <ele>110.400436</ele>
        <time>2026-08-29T17:56:35Z</time>
      </trkpt>
      <trkpt lat="43.81941" lon="1.7329">
        <ele>110.404568</ele>
        <time>2026-08-29T17:56:36Z</time>
      </trkpt>
      <trkpt lat="43.81939" lon="1.73285">
        <ele>110.410387</ele>
        <time>2026-08-29T17:56:37Z</time>
      </trkpt>
      <trkpt lat="43.81936" lon="1.7328">
        <ele>110.416284</ele>
        <time>2026-08-29T17:56:38Z</time>
      </trkpt>
      <trkpt lat="43.81934" lon="1.73274">
        <ele>110.422266</ele>
        <time>2026-08-29T17:56:39Z</time>
      </trkpt>
      <trkpt lat="43.81931" lon="1.73269">
        <ele>110.428236</ele>
        <time>2026-08-29T17:56:40Z</time>
      </trkpt>
      <trkpt lat="43.81928" lon="1.73263">
        <ele>110.434284</ele>
        <time>2026-08-29T17:56:41Z</time>
      </trkpt>
      <trkpt lat="43.81926" lon="1.73258">
        <ele>110.440343</ele>
        <time>2026-08-29T17:56:42Z</time>
      </trkpt>
      <trkpt lat="43.81923" lon="1.73253">
        <ele>110.446195</ele>
        <time>2026-08-29T17:56:43Z</time>
      </trkpt>
      <trkpt lat="43.81919" lon="1.73248">
        <ele>110.451979</ele>
        <time>2026-08-29T17:56:44Z</time>
      </trkpt>
      <trkpt lat="43.81916" lon="1.73243">
        <ele>110.457898</ele>
        <time>2026-08-29T17:56:45Z</time>
      </trkpt>
      <trkpt lat="43.81913" lon="1.73239">
        <ele>110.464002</ele>
        <time>2026-08-29T17:56:46Z</time>
      </trkpt>
      <trkpt lat="43.81909" lon="1.73234">
        <ele>110.470074</ele>
        <time>2026-08-29T17:56:47Z</time>
      </trkpt>
      <trkpt lat="43.81906" lon="1.7323">
        <ele>110.476146</ele>
        <time>2026-08-29T17:56:48Z</time>
      </trkpt>
      <trkpt lat="43.81902" lon="1.73225">
        <ele>110.482218</ele>
        <time>2026-08-29T17:56:49Z</time>
      </trkpt>
      <trkpt lat="43.81899" lon="1.7322">
        <ele>110.488635</ele>
        <time>2026-08-29T17:56:50Z</time>
      </trkpt>
      <trkpt lat="43.81895" lon="1.73215">
        <ele>110.494744</ele>
        <time>2026-08-29T17:56:51Z</time>
      </trkpt>
      <trkpt lat="43.81892" lon="1.7321">
        <ele>110.500529</ele>
        <time>2026-08-29T17:56:52Z</time>
      </trkpt>
      <trkpt lat="43.81889" lon="1.73206">
        <ele>110.506065</ele>
        <time>2026-08-29T17:56:53Z</time>
      </trkpt>
      <trkpt lat="43.81887" lon="1.73201">
        <ele>110.511601</ele>
        <time>2026-08-29T17:56:54Z</time>
      </trkpt>
      <trkpt lat="43.81883" lon="1.73196">
        <ele>110.517385</ele>
        <time>2026-08-29T17:56:55Z</time>
      </trkpt>
      <trkpt lat="43.8188" lon="1.73191">
        <ele>110.523738</ele>
        <time>2026-08-29T17:56:56Z</time>
      </trkpt>
      <trkpt lat="43.81876" lon="1.73187">
        <ele>110.529719</ele>
        <time>2026-08-29T17:56:57Z</time>
      </trkpt>
      <trkpt lat="43.81873" lon="1.73182">
        <ele>110.535883</ele>
        <time>2026-08-29T17:56:58Z</time>
      </trkpt>
      <trkpt lat="43.81869" lon="1.73178">
        <ele>110.541802</ele>
        <time>2026-08-29T17:56:59Z</time>
      </trkpt>
      <trkpt lat="43.81866" lon="1.73173">
        <ele>110.547874</ele>
        <time>2026-08-29T17:57:00Z</time>
      </trkpt>
      <trkpt lat="43.81863" lon="1.73169">
        <ele>110.553592</ele>
        <time>2026-08-29T17:57:01Z</time>
      </trkpt>
      <trkpt lat="43.81859" lon="1.73164">
        <ele>110.559727</ele>
        <time>2026-08-29T17:57:02Z</time>
      </trkpt>
      <trkpt lat="43.81856" lon="1.73159">
        <ele>110.565531</ele>
        <time>2026-08-29T17:57:03Z</time>
      </trkpt>
      <trkpt lat="43.81853" lon="1.73155">
        <ele>110.571488</ele>
        <time>2026-08-29T17:57:04Z</time>
      </trkpt>
      <trkpt lat="43.8185" lon="1.7315">
        <ele>110.577559</ele>
        <time>2026-08-29T17:57:05Z</time>
      </trkpt>
      <trkpt lat="43.81847" lon="1.73145">
        <ele>110.583396</ele>
        <time>2026-08-29T17:57:06Z</time>
      </trkpt>
      <trkpt lat="43.81844" lon="1.73139">
        <ele>110.589444</ele>
        <time>2026-08-29T17:57:07Z</time>
      </trkpt>
      <trkpt lat="43.81841" lon="1.73135">
        <ele>110.595061</ele>
        <time>2026-08-29T17:57:08Z</time>
      </trkpt>
      <trkpt lat="43.81838" lon="1.7313">
        <ele>110.600323</ele>
        <time>2026-08-29T17:57:09Z</time>
      </trkpt>
      <trkpt lat="43.81835" lon="1.73126">
        <ele>110.605955</ele>
        <time>2026-08-29T17:57:10Z</time>
      </trkpt>
      <trkpt lat="43.81832" lon="1.73121">
        <ele>110.611352</ele>
        <time>2026-08-29T17:57:11Z</time>
      </trkpt>
      <trkpt lat="43.81829" lon="1.73117">
        <ele>110.616881</ele>
        <time>2026-08-29T17:57:12Z</time>
      </trkpt>
      <trkpt lat="43.81827" lon="1.73111">
        <ele>110.622702</ele>
        <time>2026-08-29T17:57:13Z</time>
      </trkpt>
      <trkpt lat="43.81823" lon="1.73107">
        <ele>110.628538</ele>
        <time>2026-08-29T17:57:14Z</time>
      </trkpt>
      <trkpt lat="43.81821" lon="1.73101">
        <ele>110.628538</ele>
        <time>2026-08-29T17:57:15Z</time>
      </trkpt>
      <trkpt lat="43.81818" lon="1.73097">
        <ele>110.628538</ele>
        <time>2026-08-29T17:57:16Z</time>
      </trkpt>
      <trkpt lat="43.81815" lon="1.73093">
        <ele>110.628538</ele>
        <time>2026-08-29T17:57:17Z</time>
      </trkpt>
      <trkpt lat="43.81812" lon="1.73088">
        <ele>110.628538</ele>
        <time>2026-08-29T17:57:18Z</time>
      </trkpt>
      <trkpt lat="43.81809" lon="1.73084">
        <ele>110.628538</ele>
        <time>2026-08-29T17:57:19Z</time>
      </trkpt>
      <trkpt lat="43.81806" lon="1.7308">
        <ele>110.628538</ele>
        <time>2026-08-29T17:57:20Z</time>
      </trkpt>
      <trkpt lat="43.81803" lon="1.73075">
        <ele>110.628538</ele>
        <time>2026-08-29T17:57:21Z</time>
      </trkpt>
      <trkpt lat="43.818" lon="1.73071">
        <ele>110.628538</ele>
        <time>2026-08-29T17:57:22Z</time>
      </trkpt>
      <trkpt lat="43.81797" lon="1.73067">
        <ele>110.628538</ele>
        <time>2026-08-29T17:57:23Z</time>
      </trkpt>
      <trkpt lat="43.81794" lon="1.73062">
        <ele>110.628538</ele>
        <time>2026-08-29T17:57:24Z</time>
      </trkpt>
      <trkpt lat="43.81791" lon="1.73058">
        <ele>110.628538</ele>
        <time>2026-08-29T17:57:25Z</time>
      </trkpt>
      <trkpt lat="43.81789" lon="1.73054">
        <ele>110.628538</ele>
        <time>2026-08-29T17:57:26Z</time>
      </trkpt>
      <trkpt lat="43.81786" lon="1.7305">
        <ele>110.628538</ele>
        <time>2026-08-29T17:57:27Z</time>
      </trkpt>
      <trkpt lat="43.81783" lon="1.73046">
        <ele>110.628538</ele>
        <time>2026-08-29T17:57:28Z</time>
      </trkpt>
      <trkpt lat="43.8178" lon="1.73042">
        <ele>110.628538</ele>
        <time>2026-08-29T17:57:29Z</time>
      </trkpt>
      <trkpt lat="43.81778" lon="1.73039">
        <ele>110.628538</ele>
        <time>2026-08-29T17:57:30Z</time>
      </trkpt>
      <trkpt lat="43.81775" lon="1.73036">
        <ele>110.628538</ele>
        <time>2026-08-29T17:57:31Z</time>
      </trkpt>
      <trkpt lat="43.81773" lon="1.73034">
        <ele>110.628538</ele>
        <time>2026-08-29T17:57:32Z</time>
      </trkpt>
      <trkpt lat="43.81772" lon="1.73032">
        <ele>110.628538</ele>
        <time>2026-08-29T17:57:33Z</time>
      </trkpt>
      <trkpt lat="43.81771" lon="1.73032">
        <ele>110.628538</ele>
        <time>2026-08-29T17:57:34Z</time>
      </trkpt>
      <trkpt lat="43.81772" lon="1.73032">
        <ele>110.628538</ele>
        <time>2026-08-29T17:57:35Z</time>
      </trkpt>
      <trkpt lat="43.81771" lon="1.73032">
        <ele>110.628538</ele>
        <time>2026-08-29T17:57:36Z</time>
      </trkpt>
      <trkpt lat="43.81769" lon="1.73026">
        <ele>110.628538</ele>
        <time>2026-08-29T17:57:44Z</time>
      </trkpt>
      <trkpt lat="43.81767" lon="1.73023">
        <ele>110.628538</ele>
        <time>2026-08-29T17:57:45Z</time>
      </trkpt>
      <trkpt lat="43.81765" lon="1.7302">
        <ele>110.628538</ele>
        <time>2026-08-29T17:57:46Z</time>
      </trkpt>
      <trkpt lat="43.81764" lon="1.73017">
        <ele>110.628538</ele>
        <time>2026-08-29T17:57:47Z</time>
      </trkpt>
      <trkpt lat="43.81762" lon="1.73014">
        <ele>110.628538</ele>
        <time>2026-08-29T17:57:48Z</time>
      </trkpt>
      <trkpt lat="43.8176" lon="1.73013">
        <ele>110.628538</ele>
        <time>2026-08-29T17:57:49Z</time>
      </trkpt>
      <trkpt lat="43.81758" lon="1.73011">
        <ele>110.628538</ele>
        <time>2026-08-29T17:57:50Z</time>
      </trkpt>
      <trkpt lat="43.81756" lon="1.73008">
        <ele>110.628538</ele>
        <time>2026-08-29T17:57:51Z</time>
      </trkpt>
      <trkpt lat="43.81754" lon="1.73005">
        <ele>110.628538</ele>
        <time>2026-08-29T17:57:52Z</time>
      </trkpt>
      <trkpt lat="43.81753" lon="1.73003">
        <ele>110.628538</ele>
        <time>2026-08-29T17:57:53Z</time>
      </trkpt>
      <trkpt lat="43.81752" lon="1.73">
        <ele>110.628538</ele>
        <time>2026-08-29T17:57:54Z</time>
      </trkpt>
      <trkpt lat="43.81751" lon="1.72998">
        <ele>110.628538</ele>
        <time>2026-08-29T17:57:55Z</time>
      </trkpt>
      <trkpt lat="43.81751" lon="1.72997">
        <ele>110.628538</ele>
        <time>2026-08-29T17:57:56Z</time>
      </trkpt>
      <trkpt lat="43.81751" lon="1.72997">
        <ele>110.628538</ele>
        <time>2026-08-29T17:57:57Z</time>
      </trkpt>
    </trkseg>
  </trk>
</gpx>